<?xml version="1.0" encoding="UTF-8"?>
<TrainingCenterDatabase xmlns="http://www.garmin.com/xmlschemas/TrainingCenterDatabase/v2" xmlns:xsi="http://www.w3.org/2001/XMLSchema-instance" xsi:schemaLocation="http://www.garmin.com/xmlschemas/TrainingCenterDatabase/v2 http://www.garmin.com/xmlschemas/TrainingCenterDatabasev2.xsd">
  <Activities>
    <Activity Sport="Other">
      <Id>2021-03-31T13:37:55.000Z</Id>
      <Lap StartTime="2021-03-31T13:37:55.000Z">
        <TotalTimeSeconds>116123</TotalTimeSeconds>
        <DistanceMeters>80990</DistanceMeters>
        <Track>
          <Trackpoint>
            <Time>2021-03-31T13:37:55.000Z</Time>
            <Position>
              <LatitudeDegrees>42.46357105672359466552734375</LatitudeDegrees>
              <LongitudeDegrees>2.8634027950465679168701171875</LongitudeDegrees>
            </Position>
            <AltitudeMeters>283</AltitudeMeters>
            <DistanceMeters>0</DistanceMeters>
          </Trackpoint>
          <Trackpoint>
            <Time>2021-03-31T13:37:56.000Z</Time>
            <Position>
              <LatitudeDegrees>42.46359628625214099884033203125</LatitudeDegrees>
              <LongitudeDegrees>2.8633927367627620697021484375</LongitudeDegrees>
            </Position>
            <AltitudeMeters>283</AltitudeMeters>
            <DistanceMeters>2.9289200435923</DistanceMeters>
          </Trackpoint>
          <Trackpoint>
            <Time>2021-03-31T13:38:00.000Z</Time>
            <Position>
              <LatitudeDegrees>42.46368647553026676177978515625</LatitudeDegrees>
              <LongitudeDegrees>2.86334303207695484161376953125</LongitudeDegrees>
            </Position>
            <AltitudeMeters>283</AltitudeMeters>
            <DistanceMeters>13.765299239487</DistanceMeters>
          </Trackpoint>
          <Trackpoint>
            <Time>2021-03-31T13:38:02.000Z</Time>
            <Position>
              <LatitudeDegrees>42.4636640958487987518310546875</LatitudeDegrees>
              <LongitudeDegrees>2.8633152879774570465087890625</LongitudeDegrees>
            </Position>
            <AltitudeMeters>283.20001220703125</AltitudeMeters>
            <DistanceMeters>17.141088994828</DistanceMeters>
          </Trackpoint>
          <Trackpoint>
            <Time>2021-03-31T13:38:04.000Z</Time>
            <Position>
              <LatitudeDegrees>42.46367373503744602203369140625</LatitudeDegrees>
              <LongitudeDegrees>2.86330816335976123809814453125</LongitudeDegrees>
            </Position>
            <AltitudeMeters>283.20001220703125</AltitudeMeters>
            <DistanceMeters>18.361729242097</DistanceMeters>
          </Trackpoint>
          <Trackpoint>
            <Time>2021-03-31T13:38:10.000Z</Time>
            <Position>
              <LatitudeDegrees>42.46374296955764293670654296875</LatitudeDegrees>
              <LongitudeDegrees>2.86329357884824275970458984375</LongitudeDegrees>
            </Position>
            <AltitudeMeters>283.79998779296875</AltitudeMeters>
            <DistanceMeters>26.159711979549</DistanceMeters>
          </Trackpoint>
          <Trackpoint>
            <Time>2021-03-31T13:38:14.000Z</Time>
            <Position>
              <LatitudeDegrees>42.46378689073026180267333984375</LatitudeDegrees>
              <LongitudeDegrees>2.86328100599348545074462890625</LongitudeDegrees>
            </Position>
            <AltitudeMeters>284</AltitudeMeters>
            <DistanceMeters>31.157430603479</DistanceMeters>
          </Trackpoint>
          <Trackpoint>
            <Time>2021-03-31T13:38:16.000Z</Time>
            <Position>
              <LatitudeDegrees>42.46381245553493499755859375</LatitudeDegrees>
              <LongitudeDegrees>2.86327145062386989593505859375</LongitudeDegrees>
            </Position>
            <AltitudeMeters>284.20001220703125</AltitudeMeters>
            <DistanceMeters>34.109383138398</DistanceMeters>
          </Trackpoint>
          <Trackpoint>
            <Time>2021-03-31T13:38:18.000Z</Time>
            <Position>
              <LatitudeDegrees>42.4638320691883563995361328125</LatitudeDegrees>
              <LongitudeDegrees>2.8632670082151889801025390625</LongitudeDegrees>
            </Position>
            <AltitudeMeters>284.399993896484375</AltitudeMeters>
            <DistanceMeters>36.321689950896</DistanceMeters>
          </Trackpoint>
          <Trackpoint>
            <Time>2021-03-31T13:38:21.000Z</Time>
            <Position>
              <LatitudeDegrees>42.46384807862341403961181640625</LatitudeDegrees>
              <LongitudeDegrees>2.86324580200016498565673828125</LongitudeDegrees>
            </Position>
            <AltitudeMeters>284.600006103515625</AltitudeMeters>
            <DistanceMeters>38.814217301486</DistanceMeters>
          </Trackpoint>
          <Trackpoint>
            <Time>2021-03-31T13:38:26.000Z</Time>
            <Position>
              <LatitudeDegrees>42.46386752463877201080322265625</LatitudeDegrees>
              <LongitudeDegrees>2.86323130130767822265625</LongitudeDegrees>
            </Position>
            <AltitudeMeters>284.79998779296875</AltitudeMeters>
            <DistanceMeters>41.283083761963</DistanceMeters>
          </Trackpoint>
          <Trackpoint>
            <Time>2021-03-31T13:38:27.000Z</Time>
            <Position>
              <LatitudeDegrees>42.46387372724711894989013671875</LatitudeDegrees>
              <LongitudeDegrees>2.863233648240566253662109375</LongitudeDegrees>
            </Position>
            <AltitudeMeters>284.79998779296875</AltitudeMeters>
            <DistanceMeters>42.000519722385</DistanceMeters>
          </Trackpoint>
          <Trackpoint>
            <Time>2021-03-31T13:38:30.000Z</Time>
            <Position>
              <LatitudeDegrees>42.46390993706881999969482421875</LatitudeDegrees>
              <LongitudeDegrees>2.8632438741624355316162109375</LongitudeDegrees>
            </Position>
            <AltitudeMeters>285</AltitudeMeters>
            <DistanceMeters>46.117491119577</DistanceMeters>
          </Trackpoint>
          <Trackpoint>
            <Time>2021-03-31T13:38:33.000Z</Time>
            <Position>
              <LatitudeDegrees>42.4639272876083850860595703125</LatitudeDegrees>
              <LongitudeDegrees>2.8632566146552562713623046875</LongitudeDegrees>
            </Position>
            <AltitudeMeters>285</AltitudeMeters>
            <DistanceMeters>48.313410248569</DistanceMeters>
          </Trackpoint>
          <Trackpoint>
            <Time>2021-03-31T13:38:34.000Z</Time>
            <Position>
              <LatitudeDegrees>42.46395167894661426544189453125</LatitudeDegrees>
              <LongitudeDegrees>2.86326206289231777191162109375</LongitudeDegrees>
            </Position>
            <AltitudeMeters>285</AltitudeMeters>
            <DistanceMeters>51.064265399251</DistanceMeters>
          </Trackpoint>
          <Trackpoint>
            <Time>2021-03-31T13:38:35.000Z</Time>
            <Position>
              <LatitudeDegrees>42.4639641679823398590087890625</LatitudeDegrees>
              <LongitudeDegrees>2.86325619556009769439697265625</LongitudeDegrees>
            </Position>
            <AltitudeMeters>285.20001220703125</AltitudeMeters>
            <DistanceMeters>52.53641292805</DistanceMeters>
          </Trackpoint>
          <Trackpoint>
            <Time>2021-03-31T13:38:36.000Z</Time>
            <Position>
              <LatitudeDegrees>42.46392586268484592437744140625</LatitudeDegrees>
              <LongitudeDegrees>2.8632432036101818084716796875</LongitudeDegrees>
            </Position>
            <AltitudeMeters>285.20001220703125</AltitudeMeters>
            <DistanceMeters>56.930306809014</DistanceMeters>
          </Trackpoint>
          <Trackpoint>
            <Time>2021-03-31T13:38:38.000Z</Time>
            <Position>
              <LatitudeDegrees>42.463962994515895843505859375</LatitudeDegrees>
              <LongitudeDegrees>2.863236330449581146240234375</LongitudeDegrees>
            </Position>
            <AltitudeMeters>285</AltitudeMeters>
            <DistanceMeters>61.100669770563</DistanceMeters>
          </Trackpoint>
          <Trackpoint>
            <Time>2021-03-31T13:38:40.000Z</Time>
            <Position>
              <LatitudeDegrees>42.46400532312691211700439453125</LatitudeDegrees>
              <LongitudeDegrees>2.863217554986476898193359375</LongitudeDegrees>
            </Position>
            <AltitudeMeters>285</AltitudeMeters>
            <DistanceMeters>66.056656849597</DistanceMeters>
          </Trackpoint>
          <Trackpoint>
            <Time>2021-03-31T13:38:41.000Z</Time>
            <Position>
              <LatitudeDegrees>42.46402208693325519561767578125</LatitudeDegrees>
              <LongitudeDegrees>2.86320590414106845855712890625</LongitudeDegrees>
            </Position>
            <AltitudeMeters>285</AltitudeMeters>
            <DistanceMeters>68.151559508854</DistanceMeters>
          </Trackpoint>
          <Trackpoint>
            <Time>2021-03-31T13:38:42.000Z</Time>
            <Position>
              <LatitudeDegrees>42.46403097175061702728271484375</LatitudeDegrees>
              <LongitudeDegrees>2.86319584585726261138916015625</LongitudeDegrees>
            </Position>
            <AltitudeMeters>285.20001220703125</AltitudeMeters>
            <DistanceMeters>69.440564576993</DistanceMeters>
          </Trackpoint>
          <Trackpoint>
            <Time>2021-03-31T13:38:44.000Z</Time>
            <Position>
              <LatitudeDegrees>42.46400155127048492431640625</LatitudeDegrees>
              <LongitudeDegrees>2.863185703754425048828125</LongitudeDegrees>
            </Position>
            <AltitudeMeters>285</AltitudeMeters>
            <DistanceMeters>72.81902822563</DistanceMeters>
          </Trackpoint>
          <Trackpoint>
            <Time>2021-03-31T13:38:45.000Z</Time>
            <Position>
              <LatitudeDegrees>42.46400213800370693206787109375</LatitudeDegrees>
              <LongitudeDegrees>2.86317924968898296356201171875</LongitudeDegrees>
            </Position>
            <AltitudeMeters>285</AltitudeMeters>
            <DistanceMeters>73.356580498629</DistanceMeters>
          </Trackpoint>
          <Trackpoint>
            <Time>2021-03-31T13:38:47.000Z</Time>
            <Position>
              <LatitudeDegrees>42.46401630342006683349609375</LatitudeDegrees>
              <LongitudeDegrees>2.8631687723100185394287109375</LongitudeDegrees>
            </Position>
            <AltitudeMeters>285</AltitudeMeters>
            <DistanceMeters>75.15457031143</DistanceMeters>
          </Trackpoint>
          <Trackpoint>
            <Time>2021-03-31T13:38:51.000Z</Time>
            <Position>
              <LatitudeDegrees>42.46402426622807979583740234375</LatitudeDegrees>
              <LongitudeDegrees>2.8631399385631084442138671875</LongitudeDegrees>
            </Position>
            <AltitudeMeters>285.20001220703125</AltitudeMeters>
            <DistanceMeters>77.684851757981</DistanceMeters>
          </Trackpoint>
          <Trackpoint>
            <Time>2021-03-31T13:38:53.000Z</Time>
            <Position>
              <LatitudeDegrees>42.46400247327983379364013671875</LatitudeDegrees>
              <LongitudeDegrees>2.8631251864135265350341796875</LongitudeDegrees>
            </Position>
            <AltitudeMeters>285.20001220703125</AltitudeMeters>
            <DistanceMeters>80.397693865776</DistanceMeters>
          </Trackpoint>
          <Trackpoint>
            <Time>2021-03-31T13:38:56.000Z</Time>
            <Position>
              <LatitudeDegrees>42.46396827511489391326904296875</LatitudeDegrees>
              <LongitudeDegrees>2.8631151281297206878662109375</LongitudeDegrees>
            </Position>
            <AltitudeMeters>285</AltitudeMeters>
            <DistanceMeters>84.293789154945</DistanceMeters>
          </Trackpoint>
          <Trackpoint>
            <Time>2021-03-31T13:38:58.000Z</Time>
            <Position>
              <LatitudeDegrees>42.4640075862407684326171875</LatitudeDegrees>
              <LongitudeDegrees>2.8631214983761310577392578125</LongitudeDegrees>
            </Position>
            <AltitudeMeters>285.399993896484375</AltitudeMeters>
            <DistanceMeters>88.699996634684</DistanceMeters>
          </Trackpoint>
          <Trackpoint>
            <Time>2021-03-31T13:38:59.000Z</Time>
            <Position>
              <LatitudeDegrees>42.46400532312691211700439453125</LatitudeDegrees>
              <LongitudeDegrees>2.863114960491657257080078125</LongitudeDegrees>
            </Position>
            <AltitudeMeters>285.20001220703125</AltitudeMeters>
            <DistanceMeters>89.300998346626</DistanceMeters>
          </Trackpoint>
          <Trackpoint>
            <Time>2021-03-31T13:39:00.000Z</Time>
            <Position>
              <LatitudeDegrees>42.46400314383208751678466796875</LatitudeDegrees>
              <LongitudeDegrees>2.86310724914073944091796875</LongitudeDegrees>
            </Position>
            <AltitudeMeters>285.20001220703125</AltitudeMeters>
            <DistanceMeters>89.979624826099</DistanceMeters>
          </Trackpoint>
          <Trackpoint>
            <Time>2021-03-31T13:39:03.000Z</Time>
            <Position>
              <LatitudeDegrees>42.46400230564177036285400390625</LatitudeDegrees>
              <LongitudeDegrees>2.86308503709733486175537109375</LongitudeDegrees>
            </Position>
            <AltitudeMeters>285.20001220703125</AltitudeMeters>
            <DistanceMeters>91.807500173125</DistanceMeters>
          </Trackpoint>
          <Trackpoint>
            <Time>2021-03-31T13:39:05.000Z</Time>
            <Position>
              <LatitudeDegrees>42.46402979828417301177978515625</LatitudeDegrees>
              <LongitudeDegrees>2.8630772419273853302001953125</LongitudeDegrees>
            </Position>
            <AltitudeMeters>285.600006103515625</AltitudeMeters>
            <DistanceMeters>94.93328690807</DistanceMeters>
          </Trackpoint>
          <Trackpoint>
            <Time>2021-03-31T13:39:06.000Z</Time>
            <Position>
              <LatitudeDegrees>42.464044131338596343994140625</LatitudeDegrees>
              <LongitudeDegrees>2.86307129077613353729248046875</LongitudeDegrees>
            </Position>
            <AltitudeMeters>285.79998779296875</AltitudeMeters>
            <DistanceMeters>96.603704107808</DistanceMeters>
          </Trackpoint>
          <Trackpoint>
            <Time>2021-03-31T13:39:08.000Z</Time>
            <Position>
              <LatitudeDegrees>42.4640530161559581756591796875</LatitudeDegrees>
              <LongitudeDegrees>2.86305855028331279754638671875</LongitudeDegrees>
            </Position>
            <AltitudeMeters>286</AltitudeMeters>
            <DistanceMeters>98.03857602865</DistanceMeters>
          </Trackpoint>
          <Trackpoint>
            <Time>2021-03-31T13:39:09.000Z</Time>
            <Position>
              <LatitudeDegrees>42.46404639445245265960693359375</LatitudeDegrees>
              <LongitudeDegrees>2.86305251531302928924560546875</LongitudeDegrees>
            </Position>
            <AltitudeMeters>286.20001220703125</AltitudeMeters>
            <DistanceMeters>98.924926213749</DistanceMeters>
          </Trackpoint>
          <Trackpoint>
            <Time>2021-03-31T13:39:11.000Z</Time>
            <Position>
              <LatitudeDegrees>42.464050166308879852294921875</LatitudeDegrees>
              <LongitudeDegrees>2.86305184476077556610107421875</LongitudeDegrees>
            </Position>
            <AltitudeMeters>286.399993896484375</AltitudeMeters>
            <DistanceMeters>99.349898599768</DistanceMeters>
          </Trackpoint>
          <Trackpoint>
            <Time>2021-03-31T13:39:12.000Z</Time>
            <Position>
              <LatitudeDegrees>42.46405712328851222991943359375</LatitudeDegrees>
              <LongitudeDegrees>2.863053269684314727783203125</LongitudeDegrees>
            </Position>
            <AltitudeMeters>286.600006103515625</AltitudeMeters>
            <DistanceMeters>100.13350896097</DistanceMeters>
          </Trackpoint>
          <Trackpoint>
            <Time>2021-03-31T13:39:13.000Z</Time>
            <Position>
              <LatitudeDegrees>42.46405947022140026092529296875</LatitudeDegrees>
              <LongitudeDegrees>2.86305117420852184295654296875</LongitudeDegrees>
            </Position>
            <AltitudeMeters>286.79998779296875</AltitudeMeters>
            <DistanceMeters>100.4626911557</DistanceMeters>
          </Trackpoint>
          <Trackpoint>
            <Time>2021-03-31T13:39:16.000Z</Time>
            <Position>
              <LatitudeDegrees>42.46410372667014598846435546875</LatitudeDegrees>
              <LongitudeDegrees>2.86304648034274578094482421875</LongitudeDegrees>
            </Position>
            <AltitudeMeters>287</AltitudeMeters>
            <DistanceMeters>105.40408030294</DistanceMeters>
          </Trackpoint>
          <Trackpoint>
            <Time>2021-03-31T13:39:17.000Z</Time>
            <Position>
              <LatitudeDegrees>42.4641093425452709197998046875</LatitudeDegrees>
              <LongitudeDegrees>2.86304748617112636566162109375</LongitudeDegrees>
            </Position>
            <AltitudeMeters>287</AltitudeMeters>
            <DistanceMeters>106.04153888197</DistanceMeters>
          </Trackpoint>
          <Trackpoint>
            <Time>2021-03-31T13:39:23.000Z</Time>
            <Position>
              <LatitudeDegrees>42.46410909108817577362060546875</LatitudeDegrees>
              <LongitudeDegrees>2.86306106485426425933837890625</LongitudeDegrees>
            </Position>
            <AltitudeMeters>286.79998779296875</AltitudeMeters>
            <DistanceMeters>107.16188732139</DistanceMeters>
          </Trackpoint>
          <Trackpoint>
            <Time>2021-03-31T13:39:27.000Z</Time>
            <Position>
              <LatitudeDegrees>42.46410540305078029632568359375</LatitudeDegrees>
              <LongitudeDegrees>2.8630769066512584686279296875</LongitudeDegrees>
            </Position>
            <AltitudeMeters>286.600006103515625</AltitudeMeters>
            <DistanceMeters>108.5257772537</DistanceMeters>
          </Trackpoint>
          <Trackpoint>
            <Time>2021-03-31T13:39:29.000Z</Time>
            <Position>
              <LatitudeDegrees>42.46410221792757511138916015625</LatitudeDegrees>
              <LongitudeDegrees>2.8630879707634449005126953125</LongitudeDegrees>
            </Position>
            <AltitudeMeters>286.600006103515625</AltitudeMeters>
            <DistanceMeters>109.50413715837</DistanceMeters>
          </Trackpoint>
          <Trackpoint>
            <Time>2021-03-31T13:39:31.000Z</Time>
            <Position>
              <LatitudeDegrees>42.46410976164042949676513671875</LatitudeDegrees>
              <LongitudeDegrees>2.86309610120952129364013671875</LongitudeDegrees>
            </Position>
            <AltitudeMeters>286.399993896484375</AltitudeMeters>
            <DistanceMeters>110.57924170437</DistanceMeters>
          </Trackpoint>
          <Trackpoint>
            <Time>2021-03-31T13:39:38.000Z</Time>
            <Position>
              <LatitudeDegrees>42.46408914215862751007080078125</LatitudeDegrees>
              <LongitudeDegrees>2.86307347007095813751220703125</LongitudeDegrees>
            </Position>
            <AltitudeMeters>286.399993896484375</AltitudeMeters>
            <DistanceMeters>113.53272335233</DistanceMeters>
          </Trackpoint>
          <Trackpoint>
            <Time>2021-03-31T13:39:41.000Z</Time>
            <Position>
              <LatitudeDegrees>42.46410825289785861968994140625</LatitudeDegrees>
              <LongitudeDegrees>2.86307347007095813751220703125</LongitudeDegrees>
            </Position>
            <AltitudeMeters>286.600006103515625</AltitudeMeters>
            <DistanceMeters>115.65970908299</DistanceMeters>
          </Trackpoint>
          <Trackpoint>
            <Time>2021-03-31T13:39:46.000Z</Time>
            <Position>
              <LatitudeDegrees>42.46409400366246700286865234375</LatitudeDegrees>
              <LongitudeDegrees>2.8630755655467510223388671875</LongitudeDegrees>
            </Position>
            <AltitudeMeters>286.600006103515625</AltitudeMeters>
            <DistanceMeters>117.2554789778</DistanceMeters>
          </Trackpoint>
          <Trackpoint>
            <Time>2021-03-31T13:39:48.000Z</Time>
            <Position>
              <LatitudeDegrees>42.46412359178066253662109375</LatitudeDegrees>
              <LongitudeDegrees>2.86308134905993938446044921875</LongitudeDegrees>
            </Position>
            <AltitudeMeters>286.600006103515625</AltitudeMeters>
            <DistanceMeters>120.58277122831</DistanceMeters>
          </Trackpoint>
          <Trackpoint>
            <Time>2021-03-31T13:39:49.000Z</Time>
            <Position>
              <LatitudeDegrees>42.46413323096930980682373046875</LatitudeDegrees>
              <LongitudeDegrees>2.86308621056377887725830078125</LongitudeDegrees>
            </Position>
            <AltitudeMeters>286.600006103515625</AltitudeMeters>
            <DistanceMeters>121.72309180075</DistanceMeters>
          </Trackpoint>
          <Trackpoint>
            <Time>2021-03-31T13:39:50.000Z</Time>
            <Position>
              <LatitudeDegrees>42.46413893066346645355224609375</LatitudeDegrees>
              <LongitudeDegrees>2.86308956332504749298095703125</LongitudeDegrees>
            </Position>
            <AltitudeMeters>286.600006103515625</AltitudeMeters>
            <DistanceMeters>122.40833918315</DistanceMeters>
          </Trackpoint>
          <Trackpoint>
            <Time>2021-03-31T13:39:59.000Z</Time>
            <Position>
              <LatitudeDegrees>42.46414630673825740814208984375</LatitudeDegrees>
              <LongitudeDegrees>2.86309861578047275543212890625</LongitudeDegrees>
            </Position>
            <AltitudeMeters>286.20001220703125</AltitudeMeters>
            <DistanceMeters>123.51653158358</DistanceMeters>
          </Trackpoint>
          <Trackpoint>
            <Time>2021-03-31T13:40:04.000Z</Time>
            <Position>
              <LatitudeDegrees>42.46414630673825740814208984375</LatitudeDegrees>
              <LongitudeDegrees>2.86309861578047275543212890625</LongitudeDegrees>
            </Position>
            <AltitudeMeters>286</AltitudeMeters>
            <DistanceMeters>123.51653158358</DistanceMeters>
          </Trackpoint>
          <Trackpoint>
            <Time>2021-03-31T13:40:09.000Z</Time>
            <Position>
              <LatitudeDegrees>42.46414630673825740814208984375</LatitudeDegrees>
              <LongitudeDegrees>2.86309861578047275543212890625</LongitudeDegrees>
            </Position>
            <AltitudeMeters>286</AltitudeMeters>
            <DistanceMeters>123.51653158358</DistanceMeters>
          </Trackpoint>
          <Trackpoint>
            <Time>2021-03-31T13:40:13.000Z</Time>
            <Position>
              <LatitudeDegrees>42.46414630673825740814208984375</LatitudeDegrees>
              <LongitudeDegrees>2.86309861578047275543212890625</LongitudeDegrees>
            </Position>
            <AltitudeMeters>286</AltitudeMeters>
            <DistanceMeters>123.51653158358</DistanceMeters>
          </Trackpoint>
          <Trackpoint>
            <Time>2021-03-31T13:40:18.000Z</Time>
            <Position>
              <LatitudeDegrees>42.4641478992998600006103515625</LatitudeDegrees>
              <LongitudeDegrees>2.8631013818085193634033203125</LongitudeDegrees>
            </Position>
            <AltitudeMeters>286.20001220703125</AltitudeMeters>
            <DistanceMeters>123.80161172669</DistanceMeters>
          </Trackpoint>
          <Trackpoint>
            <Time>2021-03-31T13:40:24.000Z</Time>
            <Position>
              <LatitudeDegrees>42.46414965949952602386474609375</LatitudeDegrees>
              <LongitudeDegrees>2.86310565657913684844970703125</LongitudeDegrees>
            </Position>
            <AltitudeMeters>286.399993896484375</AltitudeMeters>
            <DistanceMeters>124.20477593144</DistanceMeters>
          </Trackpoint>
          <Trackpoint>
            <Time>2021-03-31T13:40:28.000Z</Time>
            <Position>
              <LatitudeDegrees>42.46415502391755580902099609375</LatitudeDegrees>
              <LongitudeDegrees>2.86313784308731555938720703125</LongitudeDegrees>
            </Position>
            <AltitudeMeters>286</AltitudeMeters>
            <DistanceMeters>126.91595320808</DistanceMeters>
          </Trackpoint>
          <Trackpoint>
            <Time>2021-03-31T13:40:32.000Z</Time>
            <Position>
              <LatitudeDegrees>42.4641551077365875244140625</LatitudeDegrees>
              <LongitudeDegrees>2.86314035765826702117919921875</LongitudeDegrees>
            </Position>
            <AltitudeMeters>286.20001220703125</AltitudeMeters>
            <DistanceMeters>127.14872017022</DistanceMeters>
          </Trackpoint>
          <Trackpoint>
            <Time>2021-03-31T13:40:34.000Z</Time>
            <Position>
              <LatitudeDegrees>42.4641551077365875244140625</LatitudeDegrees>
              <LongitudeDegrees>2.8631406091153621673583984375</LongitudeDegrees>
            </Position>
            <AltitudeMeters>286.20001220703125</AltitudeMeters>
            <DistanceMeters>127.28310823847</DistanceMeters>
          </Trackpoint>
          <Trackpoint>
            <Time>2021-03-31T13:40:37.000Z</Time>
            <Position>
              <LatitudeDegrees>42.46414882130920886993408203125</LatitudeDegrees>
              <LongitudeDegrees>2.86314220167696475982666015625</LongitudeDegrees>
            </Position>
            <AltitudeMeters>286</AltitudeMeters>
            <DistanceMeters>128.00681013411</DistanceMeters>
          </Trackpoint>
          <Trackpoint>
            <Time>2021-03-31T13:40:41.000Z</Time>
            <Position>
              <LatitudeDegrees>42.4641482345759868621826171875</LatitudeDegrees>
              <LongitudeDegrees>2.86314723081886768341064453125</LongitudeDegrees>
            </Position>
            <AltitudeMeters>286</AltitudeMeters>
            <DistanceMeters>128.43178252013</DistanceMeters>
          </Trackpoint>
          <Trackpoint>
            <Time>2021-03-31T13:40:46.000Z</Time>
            <Position>
              <LatitudeDegrees>42.4641448818147182464599609375</LatitudeDegrees>
              <LongitudeDegrees>2.863174639642238616943359375</LongitudeDegrees>
            </Position>
            <AltitudeMeters>286.20001220703125</AltitudeMeters>
            <DistanceMeters>130.71242366501</DistanceMeters>
          </Trackpoint>
          <Trackpoint>
            <Time>2021-03-31T13:40:52.000Z</Time>
            <Position>
              <LatitudeDegrees>42.4641435407102108001708984375</LatitudeDegrees>
              <LongitudeDegrees>2.8631655871868133544921875</LongitudeDegrees>
            </Position>
            <AltitudeMeters>287.20001220703125</AltitudeMeters>
            <DistanceMeters>131.47263737997</DistanceMeters>
          </Trackpoint>
          <Trackpoint>
            <Time>2021-03-31T13:40:54.000Z</Time>
            <Position>
              <LatitudeDegrees>42.46414060704410076141357421875</LatitudeDegrees>
              <LongitudeDegrees>2.863149829208850860595703125</LongitudeDegrees>
            </Position>
            <AltitudeMeters>287.399993896484375</AltitudeMeters>
            <DistanceMeters>132.80978177602</DistanceMeters>
          </Trackpoint>
          <Trackpoint>
            <Time>2021-03-31T13:40:59.000Z</Time>
            <Position>
              <LatitudeDegrees>42.4641264416277408599853515625</LatitudeDegrees>
              <LongitudeDegrees>2.8631121106445789337158203125</LongitudeDegrees>
            </Position>
            <AltitudeMeters>287.399993896484375</AltitudeMeters>
            <DistanceMeters>136.28573377253</DistanceMeters>
          </Trackpoint>
          <Trackpoint>
            <Time>2021-03-31T13:41:04.000Z</Time>
            <Position>
              <LatitudeDegrees>42.464110851287841796875</LatitudeDegrees>
              <LongitudeDegrees>2.8631146252155303955078125</LongitudeDegrees>
            </Position>
            <AltitudeMeters>287.20001220703125</AltitudeMeters>
            <DistanceMeters>138.03277865978</DistanceMeters>
          </Trackpoint>
          <Trackpoint>
            <Time>2021-03-31T13:41:11.000Z</Time>
            <Position>
              <LatitudeDegrees>42.4641408585011959075927734375</LatitudeDegrees>
              <LongitudeDegrees>2.8631057403981685638427734375</LongitudeDegrees>
            </Position>
            <AltitudeMeters>287.399993896484375</AltitudeMeters>
            <DistanceMeters>141.45109972698</DistanceMeters>
          </Trackpoint>
          <Trackpoint>
            <Time>2021-03-31T13:41:15.000Z</Time>
            <Position>
              <LatitudeDegrees>42.46415887959301471710205078125</LatitudeDegrees>
              <LongitudeDegrees>2.863106913864612579345703125</LongitudeDegrees>
            </Position>
            <AltitudeMeters>287.20001220703125</AltitudeMeters>
            <DistanceMeters>143.46019011082</DistanceMeters>
          </Trackpoint>
          <Trackpoint>
            <Time>2021-03-31T13:41:17.000Z</Time>
            <Position>
              <LatitudeDegrees>42.46417799033224582672119140625</LatitudeDegrees>
              <LongitudeDegrees>2.86310330964624881744384765625</LongitudeDegrees>
            </Position>
            <AltitudeMeters>287.20001220703125</AltitudeMeters>
            <DistanceMeters>145.61039920282</DistanceMeters>
          </Trackpoint>
          <Trackpoint>
            <Time>2021-03-31T13:41:25.000Z</Time>
            <Position>
              <LatitudeDegrees>42.46420246548950672149658203125</LatitudeDegrees>
              <LongitudeDegrees>2.8630691953003406524658203125</LongitudeDegrees>
            </Position>
            <AltitudeMeters>286.600006103515625</AltitudeMeters>
            <DistanceMeters>149.51691033045</DistanceMeters>
          </Trackpoint>
          <Trackpoint>
            <Time>2021-03-31T13:41:27.000Z</Time>
            <Position>
              <LatitudeDegrees>42.46421906165778636932373046875</LatitudeDegrees>
              <LongitudeDegrees>2.86306022666394710540771484375</LongitudeDegrees>
            </Position>
            <AltitudeMeters>286.600006103515625</AltitudeMeters>
            <DistanceMeters>151.50567212675</DistanceMeters>
          </Trackpoint>
          <Trackpoint>
            <Time>2021-03-31T13:41:34.000Z</Time>
            <Position>
              <LatitudeDegrees>42.46425074525177478790283203125</LatitudeDegrees>
              <LongitudeDegrees>2.8630534373223781585693359375</LongitudeDegrees>
            </Position>
            <AltitudeMeters>288.20001220703125</AltitudeMeters>
            <DistanceMeters>155.0751872006</DistanceMeters>
          </Trackpoint>
          <Trackpoint>
            <Time>2021-03-31T13:41:35.000Z</Time>
            <Position>
              <LatitudeDegrees>42.46423582546412944793701171875</LatitudeDegrees>
              <LongitudeDegrees>2.8630420379340648651123046875</LongitudeDegrees>
            </Position>
            <AltitudeMeters>288.399993896484375</AltitudeMeters>
            <DistanceMeters>156.97809567292</DistanceMeters>
          </Trackpoint>
          <Trackpoint>
            <Time>2021-03-31T13:41:39.000Z</Time>
            <Position>
              <LatitudeDegrees>42.4642203189432621002197265625</LatitudeDegrees>
              <LongitudeDegrees>2.8630185686051845550537109375</LongitudeDegrees>
            </Position>
            <AltitudeMeters>288.600006103515625</AltitudeMeters>
            <DistanceMeters>159.56310177901</DistanceMeters>
          </Trackpoint>
          <Trackpoint>
            <Time>2021-03-31T13:41:40.000Z</Time>
            <Position>
              <LatitudeDegrees>42.46421872638165950775146484375</LatitudeDegrees>
              <LongitudeDegrees>2.8630111925303936004638671875</LongitudeDegrees>
            </Position>
            <AltitudeMeters>288.79998779296875</AltitudeMeters>
            <DistanceMeters>160.19343769226</DistanceMeters>
          </Trackpoint>
          <Trackpoint>
            <Time>2021-03-31T13:41:46.000Z</Time>
            <Position>
              <LatitudeDegrees>42.46419173665344715118408203125</LatitudeDegrees>
              <LongitudeDegrees>2.86300708539783954620361328125</LongitudeDegrees>
            </Position>
            <AltitudeMeters>288.79998779296875</AltitudeMeters>
            <DistanceMeters>163.21642253531</DistanceMeters>
          </Trackpoint>
          <Trackpoint>
            <Time>2021-03-31T13:41:47.000Z</Time>
            <Position>
              <LatitudeDegrees>42.4641914851963520050048828125</LatitudeDegrees>
              <LongitudeDegrees>2.8630028106272220611572265625</LongitudeDegrees>
            </Position>
            <AltitudeMeters>288.79998779296875</AltitudeMeters>
            <DistanceMeters>163.57197994307</DistanceMeters>
          </Trackpoint>
          <Trackpoint>
            <Time>2021-03-31T13:41:55.000Z</Time>
            <Position>
              <LatitudeDegrees>42.464204728603363037109375</LatitudeDegrees>
              <LongitudeDegrees>2.86302451975643634796142578125</LongitudeDegrees>
            </Position>
            <AltitudeMeters>289</AltitudeMeters>
            <DistanceMeters>165.88407969326</DistanceMeters>
          </Trackpoint>
          <Trackpoint>
            <Time>2021-03-31T13:42:00.000Z</Time>
            <Position>
              <LatitudeDegrees>42.46422861702740192413330078125</LatitudeDegrees>
              <LongitudeDegrees>2.86305972374975681304931640625</LongitudeDegrees>
            </Position>
            <AltitudeMeters>289</AltitudeMeters>
            <DistanceMeters>169.81133962434</DistanceMeters>
          </Trackpoint>
          <Trackpoint>
            <Time>2021-03-31T13:42:05.000Z</Time>
            <Position>
              <LatitudeDegrees>42.46427807025611400604248046875</LatitudeDegrees>
              <LongitudeDegrees>2.8630460612475872039794921875</LongitudeDegrees>
            </Position>
            <AltitudeMeters>289</AltitudeMeters>
            <DistanceMeters>175.42837506087</DistanceMeters>
          </Trackpoint>
          <Trackpoint>
            <Time>2021-03-31T13:42:07.000Z</Time>
            <Position>
              <LatitudeDegrees>42.46430606581270694732666015625</LatitudeDegrees>
              <LongitudeDegrees>2.8630423732101917266845703125</LongitudeDegrees>
            </Position>
            <AltitudeMeters>289</AltitudeMeters>
            <DistanceMeters>178.55849214201</DistanceMeters>
          </Trackpoint>
          <Trackpoint>
            <Time>2021-03-31T13:42:11.000Z</Time>
            <Position>
              <LatitudeDegrees>42.46435216628015041351318359375</LatitudeDegrees>
              <LongitudeDegrees>2.8630105219781398773193359375</LongitudeDegrees>
            </Position>
            <AltitudeMeters>289.20001220703125</AltitudeMeters>
            <DistanceMeters>184.3176128022</DistanceMeters>
          </Trackpoint>
          <Trackpoint>
            <Time>2021-03-31T13:42:13.000Z</Time>
            <Position>
              <LatitudeDegrees>42.46438116766512393951416015625</LatitudeDegrees>
              <LongitudeDegrees>2.86301747895777225494384765625</LongitudeDegrees>
            </Position>
            <AltitudeMeters>289.20001220703125</AltitudeMeters>
            <DistanceMeters>187.5956901302</DistanceMeters>
          </Trackpoint>
          <Trackpoint>
            <Time>2021-03-31T13:42:17.000Z</Time>
            <Position>
              <LatitudeDegrees>42.46442860923707485198974609375</LatitudeDegrees>
              <LongitudeDegrees>2.86303508095443248748779296875</LongitudeDegrees>
            </Position>
            <AltitudeMeters>289.399993896484375</AltitudeMeters>
            <DistanceMeters>193.06942684665</DistanceMeters>
          </Trackpoint>
          <Trackpoint>
            <Time>2021-03-31T13:42:18.000Z</Time>
            <Position>
              <LatitudeDegrees>42.464445121586322784423828125</LatitudeDegrees>
              <LongitudeDegrees>2.86304379813373088836669921875</LongitudeDegrees>
            </Position>
            <AltitudeMeters>289.600006103515625</AltitudeMeters>
            <DistanceMeters>195.03994273618</DistanceMeters>
          </Trackpoint>
          <Trackpoint>
            <Time>2021-03-31T13:42:20.000Z</Time>
            <Position>
              <LatitudeDegrees>42.464462555944919586181640625</LatitudeDegrees>
              <LongitudeDegrees>2.863055281341075897216796875</LongitudeDegrees>
            </Position>
            <AltitudeMeters>289.79998779296875</AltitudeMeters>
            <DistanceMeters>197.19644206812</DistanceMeters>
          </Trackpoint>
          <Trackpoint>
            <Time>2021-03-31T13:42:22.000Z</Time>
            <Position>
              <LatitudeDegrees>42.46447152458131313323974609375</LatitudeDegrees>
              <LongitudeDegrees>2.86304899491369724273681640625</LongitudeDegrees>
            </Position>
            <AltitudeMeters>289.79998779296875</AltitudeMeters>
            <DistanceMeters>198.31679050754</DistanceMeters>
          </Trackpoint>
          <Trackpoint>
            <Time>2021-03-31T13:42:26.000Z</Time>
            <Position>
              <LatitudeDegrees>42.46447957120835781097412109375</LatitudeDegrees>
              <LongitudeDegrees>2.8630178980529308319091796875</LongitudeDegrees>
            </Position>
            <AltitudeMeters>289.79998779296875</AltitudeMeters>
            <DistanceMeters>201.02129821128</DistanceMeters>
          </Trackpoint>
          <Trackpoint>
            <Time>2021-03-31T13:42:28.000Z</Time>
            <Position>
              <LatitudeDegrees>42.464480660855770111083984375</LatitudeDegrees>
              <LongitudeDegrees>2.8630068339407444000244140625</LongitudeDegrees>
            </Position>
            <AltitudeMeters>289.600006103515625</AltitudeMeters>
            <DistanceMeters>201.93276243595</DistanceMeters>
          </Trackpoint>
          <Trackpoint>
            <Time>2021-03-31T13:42:30.000Z</Time>
            <Position>
              <LatitudeDegrees>42.46449985541403293609619140625</LatitudeDegrees>
              <LongitudeDegrees>2.86300792358815670013427734375</LongitudeDegrees>
            </Position>
            <AltitudeMeters>289.600006103515625</AltitudeMeters>
            <DistanceMeters>204.07033551789</DistanceMeters>
          </Trackpoint>
          <Trackpoint>
            <Time>2021-03-31T13:42:32.000Z</Time>
            <Position>
              <LatitudeDegrees>42.464510500431060791015625</LatitudeDegrees>
              <LongitudeDegrees>2.862990908324718475341796875</LongitudeDegrees>
            </Position>
            <AltitudeMeters>290</AltitudeMeters>
            <DistanceMeters>205.90314441058</DistanceMeters>
          </Trackpoint>
          <Trackpoint>
            <Time>2021-03-31T13:42:34.000Z</Time>
            <Position>
              <LatitudeDegrees>42.46449298225343227386474609375</LatitudeDegrees>
              <LongitudeDegrees>2.86295997910201549530029296875</LongitudeDegrees>
            </Position>
            <AltitudeMeters>290.20001220703125</AltitudeMeters>
            <DistanceMeters>209.10598172152</DistanceMeters>
          </Trackpoint>
          <Trackpoint>
            <Time>2021-03-31T13:42:35.000Z</Time>
            <Position>
              <LatitudeDegrees>42.46448745019733905792236328125</LatitudeDegrees>
              <LongitudeDegrees>2.8629397787153720855712890625</LongitudeDegrees>
            </Position>
            <AltitudeMeters>290.20001220703125</AltitudeMeters>
            <DistanceMeters>210.87358078511</DistanceMeters>
          </Trackpoint>
          <Trackpoint>
            <Time>2021-03-31T13:42:36.000Z</Time>
            <Position>
              <LatitudeDegrees>42.4644912220537662506103515625</LatitudeDegrees>
              <LongitudeDegrees>2.86291991360485553741455078125</LongitudeDegrees>
            </Position>
            <AltitudeMeters>290.399993896484375</AltitudeMeters>
            <DistanceMeters>212.55745845389</DistanceMeters>
          </Trackpoint>
          <Trackpoint>
            <Time>2021-03-31T13:42:38.000Z</Time>
            <Position>
              <LatitudeDegrees>42.4645425193011760711669921875</LatitudeDegrees>
              <LongitudeDegrees>2.8628811053931713104248046875</LongitudeDegrees>
            </Position>
            <AltitudeMeters>290.399993896484375</AltitudeMeters>
            <DistanceMeters>219.09568312773</DistanceMeters>
          </Trackpoint>
          <Trackpoint>
            <Time>2021-03-31T13:42:39.000Z</Time>
            <Position>
              <LatitudeDegrees>42.46455014683306217193603515625</LatitudeDegrees>
              <LongitudeDegrees>2.862865515053272247314453125</LongitudeDegrees>
            </Position>
            <AltitudeMeters>290.399993896484375</AltitudeMeters>
            <DistanceMeters>220.63088668162</DistanceMeters>
          </Trackpoint>
          <Trackpoint>
            <Time>2021-03-31T13:42:40.000Z</Time>
            <Position>
              <LatitudeDegrees>42.4645586125552654266357421875</LatitudeDegrees>
              <LongitudeDegrees>2.86285512149333953857421875</LongitudeDegrees>
            </Position>
            <AltitudeMeters>290.600006103515625</AltitudeMeters>
            <DistanceMeters>221.90580383968</DistanceMeters>
          </Trackpoint>
          <Trackpoint>
            <Time>2021-03-31T13:42:41.000Z</Time>
            <Position>
              <LatitudeDegrees>42.46456347405910491943359375</LatitudeDegrees>
              <LongitudeDegrees>2.86285084672272205352783203125</LongitudeDegrees>
            </Position>
            <AltitudeMeters>290.79998779296875</AltitudeMeters>
            <DistanceMeters>222.55727417121</DistanceMeters>
          </Trackpoint>
          <Trackpoint>
            <Time>2021-03-31T13:42:42.000Z</Time>
            <Position>
              <LatitudeDegrees>42.464565150439739227294921875</LatitudeDegrees>
              <LongitudeDegrees>2.86284615285694599151611328125</LongitudeDegrees>
            </Position>
            <AltitudeMeters>290.79998779296875</AltitudeMeters>
            <DistanceMeters>222.98224655723</DistanceMeters>
          </Trackpoint>
          <Trackpoint>
            <Time>2021-03-31T13:42:45.000Z</Time>
            <Position>
              <LatitudeDegrees>42.46455266140401363372802734375</LatitudeDegrees>
              <LongitudeDegrees>2.86284347064793109893798828125</LongitudeDegrees>
            </Position>
            <AltitudeMeters>291</AltitudeMeters>
            <DistanceMeters>224.38851350957</DistanceMeters>
          </Trackpoint>
          <Trackpoint>
            <Time>2021-03-31T13:42:51.000Z</Time>
            <Position>
              <LatitudeDegrees>42.4645492248237133026123046875</LatitudeDegrees>
              <LongitudeDegrees>2.86278404295444488525390625</LongitudeDegrees>
            </Position>
            <AltitudeMeters>291.600006103515625</AltitudeMeters>
            <DistanceMeters>229.28400356494</DistanceMeters>
          </Trackpoint>
          <Trackpoint>
            <Time>2021-03-31T13:42:55.000Z</Time>
            <Position>
              <LatitudeDegrees>42.46454738080501556396484375</LatitudeDegrees>
              <LongitudeDegrees>2.8627617470920085906982421875</LongitudeDegrees>
            </Position>
            <AltitudeMeters>292</AltitudeMeters>
            <DistanceMeters>231.12663992161</DistanceMeters>
          </Trackpoint>
          <Trackpoint>
            <Time>2021-03-31T13:42:59.000Z</Time>
            <Position>
              <LatitudeDegrees>42.46453137136995792388916015625</LatitudeDegrees>
              <LongitudeDegrees>2.86274104379117488861083984375</LongitudeDegrees>
            </Position>
            <AltitudeMeters>292.20001220703125</AltitudeMeters>
            <DistanceMeters>233.59001390262</DistanceMeters>
          </Trackpoint>
          <Trackpoint>
            <Time>2021-03-31T13:43:03.000Z</Time>
            <Position>
              <LatitudeDegrees>42.46453137136995792388916015625</LatitudeDegrees>
              <LongitudeDegrees>2.86272813566029071807861328125</LongitudeDegrees>
            </Position>
            <AltitudeMeters>292.399993896484375</AltitudeMeters>
            <DistanceMeters>234.65668612591</DistanceMeters>
          </Trackpoint>
          <Trackpoint>
            <Time>2021-03-31T13:43:05.000Z</Time>
            <Position>
              <LatitudeDegrees>42.464536987245082855224609375</LatitudeDegrees>
              <LongitudeDegrees>2.86271271295845508575439453125</LongitudeDegrees>
            </Position>
            <AltitudeMeters>292.600006103515625</AltitudeMeters>
            <DistanceMeters>236.06935979457</DistanceMeters>
          </Trackpoint>
          <Trackpoint>
            <Time>2021-03-31T13:43:09.000Z</Time>
            <Position>
              <LatitudeDegrees>42.464571185410022735595703125</LatitudeDegrees>
              <LongitudeDegrees>2.8626759164035320281982421875</LongitudeDegrees>
            </Position>
            <AltitudeMeters>292.600006103515625</AltitudeMeters>
            <DistanceMeters>240.92967665434</DistanceMeters>
          </Trackpoint>
          <Trackpoint>
            <Time>2021-03-31T13:43:10.000Z</Time>
            <Position>
              <LatitudeDegrees>42.464573867619037628173828125</LatitudeDegrees>
              <LongitudeDegrees>2.8626668639481067657470703125</LongitudeDegrees>
            </Position>
            <AltitudeMeters>292.600006103515625</AltitudeMeters>
            <DistanceMeters>241.724727188</DistanceMeters>
          </Trackpoint>
          <Trackpoint>
            <Time>2021-03-31T13:43:13.000Z</Time>
            <Position>
              <LatitudeDegrees>42.46460412628948688507080078125</LatitudeDegrees>
              <LongitudeDegrees>2.86265102215111255645751953125</LongitudeDegrees>
            </Position>
            <AltitudeMeters>293</AltitudeMeters>
            <DistanceMeters>245.33574233406</DistanceMeters>
          </Trackpoint>
          <Trackpoint>
            <Time>2021-03-31T13:43:17.000Z</Time>
            <Position>
              <LatitudeDegrees>42.4646055512130260467529296875</LatitudeDegrees>
              <LongitudeDegrees>2.86261850036680698394775390625</LongitudeDegrees>
            </Position>
            <AltitudeMeters>293.79998779296875</AltitudeMeters>
            <DistanceMeters>248.01003112618</DistanceMeters>
          </Trackpoint>
          <Trackpoint>
            <Time>2021-03-31T13:43:19.000Z</Time>
            <Position>
              <LatitudeDegrees>42.4645881168544292449951171875</LatitudeDegrees>
              <LongitudeDegrees>2.862627804279327392578125</LongitudeDegrees>
            </Position>
            <AltitudeMeters>293.79998779296875</AltitudeMeters>
            <DistanceMeters>250.09629497478</DistanceMeters>
          </Trackpoint>
          <Trackpoint>
            <Time>2021-03-31T13:43:22.000Z</Time>
            <Position>
              <LatitudeDegrees>42.46456213295459747314453125</LatitudeDegrees>
              <LongitudeDegrees>2.8626251220703125</LongitudeDegrees>
            </Position>
            <AltitudeMeters>294.399993896484375</AltitudeMeters>
            <DistanceMeters>252.99733465837</DistanceMeters>
          </Trackpoint>
          <Trackpoint>
            <Time>2021-03-31T13:43:24.000Z</Time>
            <Position>
              <LatitudeDegrees>42.46456171385943889617919921875</LatitudeDegrees>
              <LongitudeDegrees>2.86261799745261669158935546875</LongitudeDegrees>
            </Position>
            <AltitudeMeters>294.600006103515625</AltitudeMeters>
            <DistanceMeters>253.58311866709</DistanceMeters>
          </Trackpoint>
          <Trackpoint>
            <Time>2021-03-31T13:43:30.000Z</Time>
            <Position>
              <LatitudeDegrees>42.4645713530480861663818359375</LatitudeDegrees>
              <LongitudeDegrees>2.8626081906259059906005859375</LongitudeDegrees>
            </Position>
            <AltitudeMeters>294.79998779296875</AltitudeMeters>
            <DistanceMeters>254.92699934958</DistanceMeters>
          </Trackpoint>
          <Trackpoint>
            <Time>2021-03-31T13:43:34.000Z</Time>
            <Position>
              <LatitudeDegrees>42.464550398290157318115234375</LatitudeDegrees>
              <LongitudeDegrees>2.862621434032917022705078125</LongitudeDegrees>
            </Position>
            <AltitudeMeters>294.79998779296875</AltitudeMeters>
            <DistanceMeters>257.49975002414</DistanceMeters>
          </Trackpoint>
          <Trackpoint>
            <Time>2021-03-31T13:43:36.000Z</Time>
            <Position>
              <LatitudeDegrees>42.4645307846367359161376953125</LatitudeDegrees>
              <LongitudeDegrees>2.86263157613575458526611328125</LongitudeDegrees>
            </Position>
            <AltitudeMeters>294.79998779296875</AltitudeMeters>
            <DistanceMeters>259.8351656557</DistanceMeters>
          </Trackpoint>
          <Trackpoint>
            <Time>2021-03-31T13:43:43.000Z</Time>
            <Position>
              <LatitudeDegrees>42.46452751569449901580810546875</LatitudeDegrees>
              <LongitudeDegrees>2.8626358509063720703125</LongitudeDegrees>
            </Position>
            <AltitudeMeters>294.79998779296875</AltitudeMeters>
            <DistanceMeters>260.33799976396</DistanceMeters>
          </Trackpoint>
          <Trackpoint>
            <Time>2021-03-31T13:43:47.000Z</Time>
            <Position>
              <LatitudeDegrees>42.46452282182872295379638671875</LatitudeDegrees>
              <LongitudeDegrees>2.8626487590372562408447265625</LongitudeDegrees>
            </Position>
            <AltitudeMeters>295</AltitudeMeters>
            <DistanceMeters>261.521072817</DistanceMeters>
          </Trackpoint>
          <Trackpoint>
            <Time>2021-03-31T13:43:50.000Z</Time>
            <Position>
              <LatitudeDegrees>42.464532293379306793212890625</LatitudeDegrees>
              <LongitudeDegrees>2.86263786256313323974609375</LongitudeDegrees>
            </Position>
            <AltitudeMeters>295.20001220703125</AltitudeMeters>
            <DistanceMeters>262.90468266306</DistanceMeters>
          </Trackpoint>
          <Trackpoint>
            <Time>2021-03-31T13:43:55.000Z</Time>
            <Position>
              <LatitudeDegrees>42.4645116738975048065185546875</LatitudeDegrees>
              <LongitudeDegrees>2.86261581815779209136962890625</LongitudeDegrees>
            </Position>
            <AltitudeMeters>295.79998779296875</AltitudeMeters>
            <DistanceMeters>265.82743005481</DistanceMeters>
          </Trackpoint>
          <Trackpoint>
            <Time>2021-03-31T13:44:00.000Z</Time>
            <Position>
              <LatitudeDegrees>42.4645116738975048065185546875</LatitudeDegrees>
              <LongitudeDegrees>2.86261581815779209136962890625</LongitudeDegrees>
            </Position>
            <AltitudeMeters>297</AltitudeMeters>
            <DistanceMeters>265.82743005481</DistanceMeters>
          </Trackpoint>
          <Trackpoint>
            <Time>2021-03-31T13:44:01.000Z</Time>
            <Position>
              <LatitudeDegrees>42.4645116738975048065185546875</LatitudeDegrees>
              <LongitudeDegrees>2.86261581815779209136962890625</LongitudeDegrees>
            </Position>
            <AltitudeMeters>297.399993896484375</AltitudeMeters>
            <DistanceMeters>265.82743005481</DistanceMeters>
          </Trackpoint>
          <Trackpoint>
            <Time>2021-03-31T13:44:04.000Z</Time>
            <Position>
              <LatitudeDegrees>42.4645116738975048065185546875</LatitudeDegrees>
              <LongitudeDegrees>2.86261581815779209136962890625</LongitudeDegrees>
            </Position>
            <AltitudeMeters>298.20001220703125</AltitudeMeters>
            <DistanceMeters>265.82743005481</DistanceMeters>
          </Trackpoint>
          <Trackpoint>
            <Time>2021-03-31T13:44:05.000Z</Time>
            <Position>
              <LatitudeDegrees>42.4645116738975048065185546875</LatitudeDegrees>
              <LongitudeDegrees>2.86261581815779209136962890625</LongitudeDegrees>
            </Position>
            <AltitudeMeters>298.20001220703125</AltitudeMeters>
            <DistanceMeters>265.82743005481</DistanceMeters>
          </Trackpoint>
          <Trackpoint>
            <Time>2021-03-31T13:44:07.000Z</Time>
            <Position>
              <LatitudeDegrees>42.4645116738975048065185546875</LatitudeDegrees>
              <LongitudeDegrees>2.86261581815779209136962890625</LongitudeDegrees>
            </Position>
            <AltitudeMeters>298.79998779296875</AltitudeMeters>
            <DistanceMeters>265.82743005481</DistanceMeters>
          </Trackpoint>
          <Trackpoint>
            <Time>2021-03-31T13:44:09.000Z</Time>
            <Position>
              <LatitudeDegrees>42.4645116738975048065185546875</LatitudeDegrees>
              <LongitudeDegrees>2.86261581815779209136962890625</LongitudeDegrees>
            </Position>
            <AltitudeMeters>299.20001220703125</AltitudeMeters>
            <DistanceMeters>265.82743005481</DistanceMeters>
          </Trackpoint>
          <Trackpoint>
            <Time>2021-03-31T13:44:11.000Z</Time>
            <Position>
              <LatitudeDegrees>42.46452885679900646209716796875</LatitudeDegrees>
              <LongitudeDegrees>2.8625907562673091888427734375</LongitudeDegrees>
            </Position>
            <AltitudeMeters>299.79998779296875</AltitudeMeters>
            <DistanceMeters>268.63675146967</DistanceMeters>
          </Trackpoint>
          <Trackpoint>
            <Time>2021-03-31T13:44:12.000Z</Time>
            <Position>
              <LatitudeDegrees>42.46454075910151004791259765625</LatitudeDegrees>
              <LongitudeDegrees>2.8625763393938541412353515625</LongitudeDegrees>
            </Position>
            <AltitudeMeters>300</AltitudeMeters>
            <DistanceMeters>270.41199699605</DistanceMeters>
          </Trackpoint>
          <Trackpoint>
            <Time>2021-03-31T13:44:14.000Z</Time>
            <Position>
              <LatitudeDegrees>42.46456087566912174224853515625</LatitudeDegrees>
              <LongitudeDegrees>2.862544991075992584228515625</LongitudeDegrees>
            </Position>
            <AltitudeMeters>300.399993896484375</AltitudeMeters>
            <DistanceMeters>273.82503063385</DistanceMeters>
          </Trackpoint>
          <Trackpoint>
            <Time>2021-03-31T13:44:15.000Z</Time>
            <Position>
              <LatitudeDegrees>42.464544363319873809814453125</LatitudeDegrees>
              <LongitudeDegrees>2.8625361062586307525634765625</LongitudeDegrees>
            </Position>
            <AltitudeMeters>300.600006103515625</AltitudeMeters>
            <DistanceMeters>275.80469049773</DistanceMeters>
          </Trackpoint>
          <Trackpoint>
            <Time>2021-03-31T13:44:20.000Z</Time>
            <Position>
              <LatitudeDegrees>42.46449499391019344329833984375</LatitudeDegrees>
              <LongitudeDegrees>2.8624532930552959442138671875</LongitudeDegrees>
            </Position>
            <AltitudeMeters>300.79998779296875</AltitudeMeters>
            <DistanceMeters>284.54714821977</DistanceMeters>
          </Trackpoint>
          <Trackpoint>
            <Time>2021-03-31T13:44:21.000Z</Time>
            <Position>
              <LatitudeDegrees>42.464492730796337127685546875</LatitudeDegrees>
              <LongitudeDegrees>2.8624459169805049896240234375</LongitudeDegrees>
            </Position>
            <AltitudeMeters>300.79998779296875</AltitudeMeters>
            <DistanceMeters>285.21233522036</DistanceMeters>
          </Trackpoint>
          <Trackpoint>
            <Time>2021-03-31T13:44:25.000Z</Time>
            <Position>
              <LatitudeDegrees>42.4644935689866542816162109375</LatitudeDegrees>
              <LongitudeDegrees>2.86242169328033924102783203125</LongitudeDegrees>
            </Position>
            <AltitudeMeters>300.399993896484375</AltitudeMeters>
            <DistanceMeters>287.20336599835</DistanceMeters>
          </Trackpoint>
          <Trackpoint>
            <Time>2021-03-31T13:44:27.000Z</Time>
            <Position>
              <LatitudeDegrees>42.46449918486177921295166015625</LatitudeDegrees>
              <LongitudeDegrees>2.8624043427407741546630859375</LongitudeDegrees>
            </Position>
            <AltitudeMeters>300.600006103515625</AltitudeMeters>
            <DistanceMeters>288.75902035809</DistanceMeters>
          </Trackpoint>
          <Trackpoint>
            <Time>2021-03-31T13:44:29.000Z</Time>
            <Position>
              <LatitudeDegrees>42.46451192535459995269775390625</LatitudeDegrees>
              <LongitudeDegrees>2.86238783039152622222900390625</LongitudeDegrees>
            </Position>
            <AltitudeMeters>301</AltitudeMeters>
            <DistanceMeters>290.72034964332</DistanceMeters>
          </Trackpoint>
          <Trackpoint>
            <Time>2021-03-31T13:44:30.000Z</Time>
            <Position>
              <LatitudeDegrees>42.4645073153078556060791015625</LatitudeDegrees>
              <LongitudeDegrees>2.8623812086880207061767578125</LongitudeDegrees>
            </Position>
            <AltitudeMeters>301.20001220703125</AltitudeMeters>
            <DistanceMeters>291.46859074052</DistanceMeters>
          </Trackpoint>
          <Trackpoint>
            <Time>2021-03-31T13:44:31.000Z</Time>
            <Position>
              <LatitudeDegrees>42.46450086124241352081298828125</LatitudeDegrees>
              <LongitudeDegrees>2.862376011908054351806640625</LongitudeDegrees>
            </Position>
            <AltitudeMeters>301.600006103515625</AltitudeMeters>
            <DistanceMeters>292.29701443027</DistanceMeters>
          </Trackpoint>
          <Trackpoint>
            <Time>2021-03-31T13:44:36.000Z</Time>
            <Position>
              <LatitudeDegrees>42.4645116738975048065185546875</LatitudeDegrees>
              <LongitudeDegrees>2.8623268939554691314697265625</LongitudeDegrees>
            </Position>
            <AltitudeMeters>302</AltitudeMeters>
            <DistanceMeters>296.50402641387</DistanceMeters>
          </Trackpoint>
          <Trackpoint>
            <Time>2021-03-31T13:44:39.000Z</Time>
            <Position>
              <LatitudeDegrees>42.46451846323907375335693359375</LatitudeDegrees>
              <LongitudeDegrees>2.86231289617717266082763671875</LongitudeDegrees>
            </Position>
            <AltitudeMeters>302</AltitudeMeters>
            <DistanceMeters>297.87452117867</DistanceMeters>
          </Trackpoint>
          <Trackpoint>
            <Time>2021-03-31T13:44:40.000Z</Time>
            <Position>
              <LatitudeDegrees>42.4645172059535980224609375</LatitudeDegrees>
              <LongitudeDegrees>2.862304262816905975341796875</LongitudeDegrees>
            </Position>
            <AltitudeMeters>302.20001220703125</AltitudeMeters>
            <DistanceMeters>298.5982230743</DistanceMeters>
          </Trackpoint>
          <Trackpoint>
            <Time>2021-03-31T13:44:41.000Z</Time>
            <Position>
              <LatitudeDegrees>42.46451343409717082977294921875</LatitudeDegrees>
              <LongitudeDegrees>2.86230283789336681365966796875</LongitudeDegrees>
            </Position>
            <AltitudeMeters>302.600006103515625</AltitudeMeters>
            <DistanceMeters>299.04393787299</DistanceMeters>
          </Trackpoint>
          <Trackpoint>
            <Time>2021-03-31T13:44:44.000Z</Time>
            <Position>
              <LatitudeDegrees>42.46448527090251445770263671875</LatitudeDegrees>
              <LongitudeDegrees>2.86228490062057971954345703125</LongitudeDegrees>
            </Position>
            <AltitudeMeters>303</AltitudeMeters>
            <DistanceMeters>302.50687615104</DistanceMeters>
          </Trackpoint>
          <Trackpoint>
            <Time>2021-03-31T13:44:45.000Z</Time>
            <Position>
              <LatitudeDegrees>42.464472614228725433349609375</LatitudeDegrees>
              <LongitudeDegrees>2.86227785982191562652587890625</LongitudeDegrees>
            </Position>
            <AltitudeMeters>302</AltitudeMeters>
            <DistanceMeters>304.02730358096</DistanceMeters>
          </Trackpoint>
          <Trackpoint>
            <Time>2021-03-31T13:44:48.000Z</Time>
            <Position>
              <LatitudeDegrees>42.46444285847246646881103515625</LatitudeDegrees>
              <LongitudeDegrees>2.8622695617377758026123046875</LongitudeDegrees>
            </Position>
            <AltitudeMeters>302</AltitudeMeters>
            <DistanceMeters>307.4084390083</DistanceMeters>
          </Trackpoint>
          <Trackpoint>
            <Time>2021-03-31T13:44:51.000Z</Time>
            <Position>
              <LatitudeDegrees>42.46441670693457126617431640625</LatitudeDegrees>
              <LongitudeDegrees>2.86222924478352069854736328125</LongitudeDegrees>
            </Position>
            <AltitudeMeters>301.20001220703125</AltitudeMeters>
            <DistanceMeters>311.81669541048</DistanceMeters>
          </Trackpoint>
          <Trackpoint>
            <Time>2021-03-31T13:44:52.000Z</Time>
            <Position>
              <LatitudeDegrees>42.4644117616117000579833984375</LatitudeDegrees>
              <LongitudeDegrees>2.86221516318619251251220703125</LongitudeDegrees>
            </Position>
            <AltitudeMeters>302</AltitudeMeters>
            <DistanceMeters>313.09867587555</DistanceMeters>
          </Trackpoint>
          <Trackpoint>
            <Time>2021-03-31T13:44:56.000Z</Time>
            <Position>
              <LatitudeDegrees>42.46440279297530651092529296875</LatitudeDegrees>
              <LongitudeDegrees>2.8621693141758441925048828125</LongitudeDegrees>
            </Position>
            <AltitudeMeters>302.600006103515625</AltitudeMeters>
            <DistanceMeters>316.99245275018</DistanceMeters>
          </Trackpoint>
          <Trackpoint>
            <Time>2021-03-31T13:44:58.000Z</Time>
            <Position>
              <LatitudeDegrees>42.46439960785210132598876953125</LatitudeDegrees>
              <LongitudeDegrees>2.8621502034366130828857421875</LongitudeDegrees>
            </Position>
            <AltitudeMeters>303</AltitudeMeters>
            <DistanceMeters>318.60230738318</DistanceMeters>
          </Trackpoint>
          <Trackpoint>
            <Time>2021-03-31T13:44:59.000Z</Time>
            <Position>
              <LatitudeDegrees>42.4643976800143718719482421875</LatitudeDegrees>
              <LongitudeDegrees>2.86213771440088748931884765625</LongitudeDegrees>
            </Position>
            <AltitudeMeters>303.20001220703125</AltitudeMeters>
            <DistanceMeters>319.65191174968</DistanceMeters>
          </Trackpoint>
          <Trackpoint>
            <Time>2021-03-31T13:45:04.000Z</Time>
            <Position>
              <LatitudeDegrees>42.4643939919769763946533203125</LatitudeDegrees>
              <LongitudeDegrees>2.862066216766834259033203125</LongitudeDegrees>
            </Position>
            <AltitudeMeters>303.20001220703125</AltitudeMeters>
            <DistanceMeters>325.53743409175</DistanceMeters>
          </Trackpoint>
          <Trackpoint>
            <Time>2021-03-31T13:45:10.000Z</Time>
            <Position>
              <LatitudeDegrees>42.4644017033278942108154296875</LatitudeDegrees>
              <LongitudeDegrees>2.8619912825524806976318359375</LongitudeDegrees>
            </Position>
            <AltitudeMeters>303.399993896484375</AltitudeMeters>
            <DistanceMeters>331.74988503493</DistanceMeters>
          </Trackpoint>
          <Trackpoint>
            <Time>2021-03-31T13:45:11.000Z</Time>
            <Position>
              <LatitudeDegrees>42.46439826674759387969970703125</LatitudeDegrees>
              <LongitudeDegrees>2.86197929643094539642333984375</LongitudeDegrees>
            </Position>
            <AltitudeMeters>303.399993896484375</AltitudeMeters>
            <DistanceMeters>332.80378227973</DistanceMeters>
          </Trackpoint>
          <Trackpoint>
            <Time>2021-03-31T13:45:12.000Z</Time>
            <Position>
              <LatitudeDegrees>42.46439005248248577117919921875</LatitudeDegrees>
              <LongitudeDegrees>2.861964292824268341064453125</LongitudeDegrees>
            </Position>
            <AltitudeMeters>303.399993896484375</AltitudeMeters>
            <DistanceMeters>334.33604200818</DistanceMeters>
          </Trackpoint>
          <Trackpoint>
            <Time>2021-03-31T13:45:13.000Z</Time>
            <Position>
              <LatitudeDegrees>42.46438452042639255523681640625</LatitudeDegrees>
              <LongitudeDegrees>2.86194945685565471649169921875</LongitudeDegrees>
            </Position>
            <AltitudeMeters>303.600006103515625</AltitudeMeters>
            <DistanceMeters>335.69993194049</DistanceMeters>
          </Trackpoint>
          <Trackpoint>
            <Time>2021-03-31T13:45:14.000Z</Time>
            <Position>
              <LatitudeDegrees>42.464380078017711639404296875</LatitudeDegrees>
              <LongitudeDegrees>2.86193646490573883056640625</LongitudeDegrees>
            </Position>
            <AltitudeMeters>303.79998779296875</AltitudeMeters>
            <DistanceMeters>336.8753474823</DistanceMeters>
          </Trackpoint>
          <Trackpoint>
            <Time>2021-03-31T13:45:15.000Z</Time>
            <Position>
              <LatitudeDegrees>42.46437664143741130828857421875</LatitudeDegrees>
              <LongitudeDegrees>2.86192866973578929901123046875</LongitudeDegrees>
            </Position>
            <AltitudeMeters>303.79998779296875</AltitudeMeters>
            <DistanceMeters>337.62358857949</DistanceMeters>
          </Trackpoint>
          <Trackpoint>
            <Time>2021-03-31T13:45:16.000Z</Time>
            <Position>
              <LatitudeDegrees>42.46437395922839641571044921875</LatitudeDegrees>
              <LongitudeDegrees>2.86192238330841064453125</LongitudeDegrees>
            </Position>
            <AltitudeMeters>303.79998779296875</AltitudeMeters>
            <DistanceMeters>338.22459029144</DistanceMeters>
          </Trackpoint>
          <Trackpoint>
            <Time>2021-03-31T13:45:18.000Z</Time>
            <Position>
              <LatitudeDegrees>42.4643862806260585784912109375</LatitudeDegrees>
              <LongitudeDegrees>2.8618829883635044097900390625</LongitudeDegrees>
            </Position>
            <AltitudeMeters>303.79998779296875</AltitudeMeters>
            <DistanceMeters>341.73929434375</DistanceMeters>
          </Trackpoint>
          <Trackpoint>
            <Time>2021-03-31T13:45:21.000Z</Time>
            <Position>
              <LatitudeDegrees>42.4644100852310657501220703125</LatitudeDegrees>
              <LongitudeDegrees>2.861839570105075836181640625</LongitudeDegrees>
            </Position>
            <AltitudeMeters>303.79998779296875</AltitudeMeters>
            <DistanceMeters>346.18020494334</DistanceMeters>
          </Trackpoint>
          <Trackpoint>
            <Time>2021-03-31T13:45:22.000Z</Time>
            <Position>
              <LatitudeDegrees>42.46441955678164958953857421875</LatitudeDegrees>
              <LongitudeDegrees>2.8618400730192661285400390625</LongitudeDegrees>
            </Position>
            <AltitudeMeters>303.79998779296875</AltitudeMeters>
            <DistanceMeters>347.23410218815</DistanceMeters>
          </Trackpoint>
          <Trackpoint>
            <Time>2021-03-31T13:45:23.000Z</Time>
            <Position>
              <LatitudeDegrees>42.46442743577063083648681640625</LatitudeDegrees>
              <LongitudeDegrees>2.86183496005833148956298828125</LongitudeDegrees>
            </Position>
            <AltitudeMeters>303.79998779296875</AltitudeMeters>
            <DistanceMeters>348.20783625175</DistanceMeters>
          </Trackpoint>
          <Trackpoint>
            <Time>2021-03-31T13:45:27.000Z</Time>
            <Position>
              <LatitudeDegrees>42.46444637887179851531982421875</LatitudeDegrees>
              <LongitudeDegrees>2.86180444993078708648681640625</LongitudeDegrees>
            </Position>
            <AltitudeMeters>304.20001220703125</AltitudeMeters>
            <DistanceMeters>351.4831577345</DistanceMeters>
          </Trackpoint>
          <Trackpoint>
            <Time>2021-03-31T13:45:34.000Z</Time>
            <Position>
              <LatitudeDegrees>42.46445886790752410888671875</LatitudeDegrees>
              <LongitudeDegrees>2.8616928867995738983154296875</LongitudeDegrees>
            </Position>
            <AltitudeMeters>304.600006103515625</AltitudeMeters>
            <DistanceMeters>360.74862786573</DistanceMeters>
          </Trackpoint>
          <Trackpoint>
            <Time>2021-03-31T13:45:35.000Z</Time>
            <Position>
              <LatitudeDegrees>42.46446180157363414764404296875</LatitudeDegrees>
              <LongitudeDegrees>2.86167905665934085845947265625</LongitudeDegrees>
            </Position>
            <AltitudeMeters>304.600006103515625</AltitudeMeters>
            <DistanceMeters>361.9355111478</DistanceMeters>
          </Trackpoint>
          <Trackpoint>
            <Time>2021-03-31T13:45:37.000Z</Time>
            <Position>
              <LatitudeDegrees>42.4644587002694606781005859375</LatitudeDegrees>
              <LongitudeDegrees>2.86164485849440097808837890625</LongitudeDegrees>
            </Position>
            <AltitudeMeters>304.79998779296875</AltitudeMeters>
            <DistanceMeters>364.76405277368</DistanceMeters>
          </Trackpoint>
          <Trackpoint>
            <Time>2021-03-31T13:45:39.000Z</Time>
            <Position>
              <LatitudeDegrees>42.46444034390151500701904296875</LatitudeDegrees>
              <LongitudeDegrees>2.8616179525852203369140625</LongitudeDegrees>
            </Position>
            <AltitudeMeters>305</AltitudeMeters>
            <DistanceMeters>367.77206484095</DistanceMeters>
          </Trackpoint>
          <Trackpoint>
            <Time>2021-03-31T13:45:42.000Z</Time>
            <Position>
              <LatitudeDegrees>42.46441670693457126617431640625</LatitudeDegrees>
              <LongitudeDegrees>2.86158048547804355621337890625</LongitudeDegrees>
            </Position>
            <AltitudeMeters>305.600006103515625</AltitudeMeters>
            <DistanceMeters>371.81935512821</DistanceMeters>
          </Trackpoint>
          <Trackpoint>
            <Time>2021-03-31T13:45:43.000Z</Time>
            <Position>
              <LatitudeDegrees>42.46440513990819454193115234375</LatitudeDegrees>
              <LongitudeDegrees>2.86156003363430500030517578125</LongitudeDegrees>
            </Position>
            <AltitudeMeters>305.79998779296875</AltitudeMeters>
            <DistanceMeters>373.93570054336</DistanceMeters>
          </Trackpoint>
          <Trackpoint>
            <Time>2021-03-31T13:45:48.000Z</Time>
            <Position>
              <LatitudeDegrees>42.46437530033290386199951171875</LatitudeDegrees>
              <LongitudeDegrees>2.86149214021861553192138671875</LongitudeDegrees>
            </Position>
            <AltitudeMeters>305.79998779296875</AltitudeMeters>
            <DistanceMeters>380.42540597077</DistanceMeters>
          </Trackpoint>
          <Trackpoint>
            <Time>2021-03-31T13:45:49.000Z</Time>
            <Position>
              <LatitudeDegrees>42.464368343353271484375</LatitudeDegrees>
              <LongitudeDegrees>2.8614786453545093536376953125</LongitudeDegrees>
            </Position>
            <AltitudeMeters>305.79998779296875</AltitudeMeters>
            <DistanceMeters>381.77598934164</DistanceMeters>
          </Trackpoint>
          <Trackpoint>
            <Time>2021-03-31T13:45:50.000Z</Time>
            <Position>
              <LatitudeDegrees>42.46436406858265399932861328125</LatitudeDegrees>
              <LongitudeDegrees>2.8614709340035915374755859375</LongitudeDegrees>
            </Position>
            <AltitudeMeters>305.79998779296875</AltitudeMeters>
            <DistanceMeters>382.57103987531</DistanceMeters>
          </Trackpoint>
          <Trackpoint>
            <Time>2021-03-31T13:45:57.000Z</Time>
            <Position>
              <LatitudeDegrees>42.46430086903274059295654296875</LatitudeDegrees>
              <LongitudeDegrees>2.86140211857855319976806640625</LongitudeDegrees>
            </Position>
            <AltitudeMeters>305.20001220703125</AltitudeMeters>
            <DistanceMeters>391.59357494824</DistanceMeters>
          </Trackpoint>
          <Trackpoint>
            <Time>2021-03-31T13:46:00.000Z</Time>
            <Position>
              <LatitudeDegrees>42.4642635695636272430419921875</LatitudeDegrees>
              <LongitudeDegrees>2.8613914735615253448486328125</LongitudeDegrees>
            </Position>
            <AltitudeMeters>305</AltitudeMeters>
            <DistanceMeters>395.83479084422</DistanceMeters>
          </Trackpoint>
          <Trackpoint>
            <Time>2021-03-31T13:46:06.000Z</Time>
            <Position>
              <LatitudeDegrees>42.4641971848905086517333984375</LatitudeDegrees>
              <LongitudeDegrees>2.8613550961017608642578125</LongitudeDegrees>
            </Position>
            <AltitudeMeters>305.20001220703125</AltitudeMeters>
            <DistanceMeters>403.80458116184</DistanceMeters>
          </Trackpoint>
          <Trackpoint>
            <Time>2021-03-31T13:46:13.000Z</Time>
            <Position>
              <LatitudeDegrees>42.46412417851388454437255859375</LatitudeDegrees>
              <LongitudeDegrees>2.86128737032413482666015625</LongitudeDegrees>
            </Position>
            <AltitudeMeters>305.20001220703125</AltitudeMeters>
            <DistanceMeters>413.6507428862</DistanceMeters>
          </Trackpoint>
          <Trackpoint>
            <Time>2021-03-31T13:46:23.000Z</Time>
            <Position>
              <LatitudeDegrees>42.46406366117298603057861328125</LatitudeDegrees>
              <LongitudeDegrees>2.861233390867710113525390625</LongitudeDegrees>
            </Position>
            <AltitudeMeters>306.600006103515625</AltitudeMeters>
            <DistanceMeters>421.71402698119</DistanceMeters>
          </Trackpoint>
          <Trackpoint>
            <Time>2021-03-31T13:46:26.000Z</Time>
            <Position>
              <LatitudeDegrees>42.46403097175061702728271484375</LatitudeDegrees>
              <LongitudeDegrees>2.86119743250310420989990234375</LongitudeDegrees>
            </Position>
            <AltitudeMeters>306.399993896484375</AltitudeMeters>
            <DistanceMeters>426.39837173353</DistanceMeters>
          </Trackpoint>
          <Trackpoint>
            <Time>2021-03-31T13:46:30.000Z</Time>
            <Position>
              <LatitudeDegrees>42.4640027247369289398193359375</LatitudeDegrees>
              <LongitudeDegrees>2.86118821240961551666259765625</LongitudeDegrees>
            </Position>
            <AltitudeMeters>305.600006103515625</AltitudeMeters>
            <DistanceMeters>429.63207371765</DistanceMeters>
          </Trackpoint>
          <Trackpoint>
            <Time>2021-03-31T13:46:32.000Z</Time>
            <Position>
              <LatitudeDegrees>42.46399392373859882354736328125</LatitudeDegrees>
              <LongitudeDegrees>2.86118351854383945465087890625</LongitudeDegrees>
            </Position>
            <AltitudeMeters>305.399993896484375</AltitudeMeters>
            <DistanceMeters>430.68167808415</DistanceMeters>
          </Trackpoint>
          <Trackpoint>
            <Time>2021-03-31T13:46:36.000Z</Time>
            <Position>
              <LatitudeDegrees>42.4639836139976978302001953125</LatitudeDegrees>
              <LongitudeDegrees>2.86116373725235462188720703125</LongitudeDegrees>
            </Position>
            <AltitudeMeters>305.600006103515625</AltitudeMeters>
            <DistanceMeters>432.67043988045</DistanceMeters>
          </Trackpoint>
          <Trackpoint>
            <Time>2021-03-31T13:46:40.000Z</Time>
            <Position>
              <LatitudeDegrees>42.46399057097733020782470703125</LatitudeDegrees>
              <LongitudeDegrees>2.8611507453024387359619140625</LongitudeDegrees>
            </Position>
            <AltitudeMeters>305.79998779296875</AltitudeMeters>
            <DistanceMeters>433.98716865937</DistanceMeters>
          </Trackpoint>
          <Trackpoint>
            <Time>2021-03-31T13:46:42.000Z</Time>
            <Position>
              <LatitudeDegrees>42.4639755673706531524658203125</LatitudeDegrees>
              <LongitudeDegrees>2.86114546470344066619873046875</LongitudeDegrees>
            </Position>
            <AltitudeMeters>305.79998779296875</AltitudeMeters>
            <DistanceMeters>435.71079714314</DistanceMeters>
          </Trackpoint>
          <Trackpoint>
            <Time>2021-03-31T13:46:45.000Z</Time>
            <Position>
              <LatitudeDegrees>42.4639628268778324127197265625</LatitudeDegrees>
              <LongitudeDegrees>2.8611453808844089508056640625</LongitudeDegrees>
            </Position>
            <AltitudeMeters>305.399993896484375</AltitudeMeters>
            <DistanceMeters>437.12984860345</DistanceMeters>
          </Trackpoint>
          <Trackpoint>
            <Time>2021-03-31T13:46:47.000Z</Time>
            <Position>
              <LatitudeDegrees>42.46395737864077091217041015625</LatitudeDegrees>
              <LongitudeDegrees>2.86114010028541088104248046875</LongitudeDegrees>
            </Position>
            <AltitudeMeters>305.20001220703125</AltitudeMeters>
            <DistanceMeters>437.87808970064</DistanceMeters>
          </Trackpoint>
          <Trackpoint>
            <Time>2021-03-31T13:46:49.000Z</Time>
            <Position>
              <LatitudeDegrees>42.4639537744224071502685546875</LatitudeDegrees>
              <LongitudeDegrees>2.86113406531512737274169921875</LongitudeDegrees>
            </Position>
            <AltitudeMeters>305.20001220703125</AltitudeMeters>
            <DistanceMeters>438.51554827967</DistanceMeters>
          </Trackpoint>
          <Trackpoint>
            <Time>2021-03-31T13:46:51.000Z</Time>
            <Position>
              <LatitudeDegrees>42.46394832618534564971923828125</LatitudeDegrees>
              <LongitudeDegrees>2.86113842390477657318115234375</LongitudeDegrees>
            </Position>
            <AltitudeMeters>305.20001220703125</AltitudeMeters>
            <DistanceMeters>439.22028525502</DistanceMeters>
          </Trackpoint>
          <Trackpoint>
            <Time>2021-03-31T13:46:58.000Z</Time>
            <Position>
              <LatitudeDegrees>42.46394346468150615692138671875</LatitudeDegrees>
              <LongitudeDegrees>2.8611517511308193206787109375</LongitudeDegrees>
            </Position>
            <AltitudeMeters>304.600006103515625</AltitudeMeters>
            <DistanceMeters>440.44461882464</DistanceMeters>
          </Trackpoint>
          <Trackpoint>
            <Time>2021-03-31T13:47:05.000Z</Time>
            <Position>
              <LatitudeDegrees>42.4639209173619747161865234375</LatitudeDegrees>
              <LongitudeDegrees>2.8611296229064464569091796875</LongitudeDegrees>
            </Position>
            <AltitudeMeters>305.79998779296875</AltitudeMeters>
            <DistanceMeters>443.54283948494</DistanceMeters>
          </Trackpoint>
          <Trackpoint>
            <Time>2021-03-31T13:47:06.000Z</Time>
            <Position>
              <LatitudeDegrees>42.46391035616397857666015625</LatitudeDegrees>
              <LongitudeDegrees>2.86111973226070404052734375</LongitudeDegrees>
            </Position>
            <AltitudeMeters>306</AltitudeMeters>
            <DistanceMeters>444.97140424592</DistanceMeters>
          </Trackpoint>
          <Trackpoint>
            <Time>2021-03-31T13:47:15.000Z</Time>
            <Position>
              <LatitudeDegrees>42.4638407863676548004150390625</LatitudeDegrees>
              <LongitudeDegrees>2.861064411699771881103515625</LongitudeDegrees>
            </Position>
            <AltitudeMeters>306.79998779296875</AltitudeMeters>
            <DistanceMeters>453.94828578607</DistanceMeters>
          </Trackpoint>
          <Trackpoint>
            <Time>2021-03-31T13:47:16.000Z</Time>
            <Position>
              <LatitudeDegrees>42.463837601244449615478515625</LatitudeDegrees>
              <LongitudeDegrees>2.8610592149198055267333984375</LongitudeDegrees>
            </Position>
            <AltitudeMeters>306.79998779296875</AltitudeMeters>
            <DistanceMeters>454.50238198629</DistanceMeters>
          </Trackpoint>
          <Trackpoint>
            <Time>2021-03-31T13:47:26.000Z</Time>
            <Position>
              <LatitudeDegrees>42.46376593597233295440673828125</LatitudeDegrees>
              <LongitudeDegrees>2.8609827719628810882568359375</LongitudeDegrees>
            </Position>
            <AltitudeMeters>307.600006103515625</AltitudeMeters>
            <DistanceMeters>464.65246288001</DistanceMeters>
          </Trackpoint>
          <Trackpoint>
            <Time>2021-03-31T13:47:28.000Z</Time>
            <Position>
              <LatitudeDegrees>42.46375554241240024566650390625</LatitudeDegrees>
              <LongitudeDegrees>2.860963828861713409423828125</LongitudeDegrees>
            </Position>
            <AltitudeMeters>308</AltitudeMeters>
            <DistanceMeters>466.59063516355</DistanceMeters>
          </Trackpoint>
          <Trackpoint>
            <Time>2021-03-31T13:47:29.000Z</Time>
            <Position>
              <LatitudeDegrees>42.4637502618134021759033203125</LatitudeDegrees>
              <LongitudeDegrees>2.86095402203500270843505859375</LongitudeDegrees>
            </Position>
            <AltitudeMeters>308.20001220703125</AltitudeMeters>
            <DistanceMeters>467.58728375199</DistanceMeters>
          </Trackpoint>
          <Trackpoint>
            <Time>2021-03-31T13:47:35.000Z</Time>
            <Position>
              <LatitudeDegrees>42.4637152254581451416015625</LatitudeDegrees>
              <LongitudeDegrees>2.86089953966438770294189453125</LongitudeDegrees>
            </Position>
            <AltitudeMeters>308.79998779296875</AltitudeMeters>
            <DistanceMeters>473.52170016234</DistanceMeters>
          </Trackpoint>
          <Trackpoint>
            <Time>2021-03-31T13:47:38.000Z</Time>
            <Position>
              <LatitudeDegrees>42.4636969529092311859130859375</LatitudeDegrees>
              <LongitudeDegrees>2.86087338812649250030517578125</LongitudeDegrees>
            </Position>
            <AltitudeMeters>309.20001220703125</AltitudeMeters>
            <DistanceMeters>476.47823766383</DistanceMeters>
          </Trackpoint>
          <Trackpoint>
            <Time>2021-03-31T13:47:39.000Z</Time>
            <Position>
              <LatitudeDegrees>42.46369133703410625457763671875</LatitudeDegrees>
              <LongitudeDegrees>2.86086198873817920684814453125</LongitudeDegrees>
            </Position>
            <AltitudeMeters>309.20001220703125</AltitudeMeters>
            <DistanceMeters>477.60661737767</DistanceMeters>
          </Trackpoint>
          <Trackpoint>
            <Time>2021-03-31T13:47:43.000Z</Time>
            <Position>
              <LatitudeDegrees>42.46367658488452434539794921875</LatitudeDegrees>
              <LongitudeDegrees>2.86082460545003414154052734375</LongitudeDegrees>
            </Position>
            <AltitudeMeters>309.600006103515625</AltitudeMeters>
            <DistanceMeters>481.08776123965</DistanceMeters>
          </Trackpoint>
          <Trackpoint>
            <Time>2021-03-31T13:47:44.000Z</Time>
            <Position>
              <LatitudeDegrees>42.46367222629487514495849609375</LatitudeDegrees>
              <LongitudeDegrees>2.8608171455562114715576171875</LongitudeDegrees>
            </Position>
            <AltitudeMeters>309.79998779296875</AltitudeMeters>
            <DistanceMeters>481.86558841952</DistanceMeters>
          </Trackpoint>
          <Trackpoint>
            <Time>2021-03-31T13:47:47.000Z</Time>
            <Position>
              <LatitudeDegrees>42.46365956962108612060546875</LatitudeDegrees>
              <LongitudeDegrees>2.86078973673284053802490234375</LongitudeDegrees>
            </Position>
            <AltitudeMeters>310.20001220703125</AltitudeMeters>
            <DistanceMeters>484.51954011959</DistanceMeters>
          </Trackpoint>
          <Trackpoint>
            <Time>2021-03-31T13:47:50.000Z</Time>
            <Position>
              <LatitudeDegrees>42.46364942751824855804443359375</LatitudeDegrees>
              <LongitudeDegrees>2.860758639872074127197265625</LongitudeDegrees>
            </Position>
            <AltitudeMeters>310.600006103515625</AltitudeMeters>
            <DistanceMeters>487.31112676003</DistanceMeters>
          </Trackpoint>
          <Trackpoint>
            <Time>2021-03-31T13:47:55.000Z</Time>
            <Position>
              <LatitudeDegrees>42.463636435568332672119140625</LatitudeDegrees>
              <LongitudeDegrees>2.8607061691582202911376953125</LongitudeDegrees>
            </Position>
            <AltitudeMeters>311.20001220703125</AltitudeMeters>
            <DistanceMeters>491.85455660442</DistanceMeters>
          </Trackpoint>
          <Trackpoint>
            <Time>2021-03-31T13:48:02.000Z</Time>
            <Position>
              <LatitudeDegrees>42.463607601821422576904296875</LatitudeDegrees>
              <LongitudeDegrees>2.86063433624804019927978515625</LongitudeDegrees>
            </Position>
            <AltitudeMeters>312.399993896484375</AltitudeMeters>
            <DistanceMeters>498.56858234225</DistanceMeters>
          </Trackpoint>
          <Trackpoint>
            <Time>2021-03-31T13:48:07.000Z</Time>
            <Position>
              <LatitudeDegrees>42.46358044445514678955078125</LatitudeDegrees>
              <LongitudeDegrees>2.860589660704135894775390625</LongitudeDegrees>
            </Position>
            <AltitudeMeters>313.20001220703125</AltitudeMeters>
            <DistanceMeters>503.32181821508</DistanceMeters>
          </Trackpoint>
          <Trackpoint>
            <Time>2021-03-31T13:48:10.000Z</Time>
            <Position>
              <LatitudeDegrees>42.46357147581875324249267578125</LatitudeDegrees>
              <LongitudeDegrees>2.8605546243488788604736328125</LongitudeDegrees>
            </Position>
            <AltitudeMeters>313.600006103515625</AltitudeMeters>
            <DistanceMeters>506.36564121117</DistanceMeters>
          </Trackpoint>
          <Trackpoint>
            <Time>2021-03-31T13:48:12.000Z</Time>
            <Position>
              <LatitudeDegrees>42.46356393210589885711669921875</LatitudeDegrees>
              <LongitudeDegrees>2.86053693853318691253662109375</LongitudeDegrees>
            </Position>
            <AltitudeMeters>313.79998779296875</AltitudeMeters>
            <DistanceMeters>508.04145557263</DistanceMeters>
          </Trackpoint>
          <Trackpoint>
            <Time>2021-03-31T13:48:15.000Z</Time>
            <Position>
              <LatitudeDegrees>42.46354599483311176300048828125</LatitudeDegrees>
              <LongitudeDegrees>2.860527969896793365478515625</LongitudeDegrees>
            </Position>
            <AltitudeMeters>314</AltitudeMeters>
            <DistanceMeters>510.17056298534</DistanceMeters>
          </Trackpoint>
          <Trackpoint>
            <Time>2021-03-31T13:48:16.000Z</Time>
            <Position>
              <LatitudeDegrees>42.463539205491542816162109375</LatitudeDegrees>
              <LongitudeDegrees>2.86052738316357135772705078125</LongitudeDegrees>
            </Position>
            <AltitudeMeters>314.20001220703125</AltitudeMeters>
            <DistanceMeters>510.92481414773</DistanceMeters>
          </Trackpoint>
          <Trackpoint>
            <Time>2021-03-31T13:48:18.000Z</Time>
            <Position>
              <LatitudeDegrees>42.463525794446468353271484375</LatitudeDegrees>
              <LongitudeDegrees>2.8605298139154911041259765625</LongitudeDegrees>
            </Position>
            <AltitudeMeters>314.600006103515625</AltitudeMeters>
            <DistanceMeters>512.42731842759</DistanceMeters>
          </Trackpoint>
          <Trackpoint>
            <Time>2021-03-31T13:48:20.000Z</Time>
            <Position>
              <LatitudeDegrees>42.463521771132946014404296875</LatitudeDegrees>
              <LongitudeDegrees>2.86054699681699275970458984375</LongitudeDegrees>
            </Position>
            <AltitudeMeters>314.79998779296875</AltitudeMeters>
            <DistanceMeters>513.90558717833</DistanceMeters>
          </Trackpoint>
          <Trackpoint>
            <Time>2021-03-31T13:48:22.000Z</Time>
            <Position>
              <LatitudeDegrees>42.4635336734354496002197265625</LatitudeDegrees>
              <LongitudeDegrees>2.86057650111615657806396484375</LongitudeDegrees>
            </Position>
            <AltitudeMeters>315</AltitudeMeters>
            <DistanceMeters>516.66627269442</DistanceMeters>
          </Trackpoint>
          <Trackpoint>
            <Time>2021-03-31T13:48:27.000Z</Time>
            <Position>
              <LatitudeDegrees>42.4635397084057331085205078125</LatitudeDegrees>
              <LongitudeDegrees>2.86062645725905895233154296875</LongitudeDegrees>
            </Position>
            <AltitudeMeters>315.600006103515625</AltitudeMeters>
            <DistanceMeters>520.82145092896</DistanceMeters>
          </Trackpoint>
          <Trackpoint>
            <Time>2021-03-31T13:48:32.000Z</Time>
            <Position>
              <LatitudeDegrees>42.46354700066149234771728515625</LatitudeDegrees>
              <LongitudeDegrees>2.86069133318960666656494140625</LongitudeDegrees>
            </Position>
            <AltitudeMeters>316</AltitudeMeters>
            <DistanceMeters>526.20871978162</DistanceMeters>
          </Trackpoint>
          <Trackpoint>
            <Time>2021-03-31T13:48:36.000Z</Time>
            <Position>
              <LatitudeDegrees>42.4635323323309421539306640625</LatitudeDegrees>
              <LongitudeDegrees>2.860740534961223602294921875</LongitudeDegrees>
            </Position>
            <AltitudeMeters>315.600006103515625</AltitudeMeters>
            <DistanceMeters>530.56546405748</DistanceMeters>
          </Trackpoint>
          <Trackpoint>
            <Time>2021-03-31T13:48:37.000Z</Time>
            <Position>
              <LatitudeDegrees>42.46351950801908969879150390625</LatitudeDegrees>
              <LongitudeDegrees>2.86074824631214141845703125</LongitudeDegrees>
            </Position>
            <AltitudeMeters>315.600006103515625</AltitudeMeters>
            <DistanceMeters>532.12691230826</DistanceMeters>
          </Trackpoint>
          <Trackpoint>
            <Time>2021-03-31T13:48:38.000Z</Time>
            <Position>
              <LatitudeDegrees>42.46350760571658611297607421875</LatitudeDegrees>
              <LongitudeDegrees>2.8607574664056301116943359375</LongitudeDegrees>
            </Position>
            <AltitudeMeters>315.79998779296875</AltitudeMeters>
            <DistanceMeters>533.65917203671</DistanceMeters>
          </Trackpoint>
          <Trackpoint>
            <Time>2021-03-31T13:48:40.000Z</Time>
            <Position>
              <LatitudeDegrees>42.4635008163750171661376953125</LatitudeDegrees>
              <LongitudeDegrees>2.86078018136322498321533203125</LongitudeDegrees>
            </Position>
            <AltitudeMeters>316</AltitudeMeters>
            <DistanceMeters>535.67050846975</DistanceMeters>
          </Trackpoint>
          <Trackpoint>
            <Time>2021-03-31T13:48:42.000Z</Time>
            <Position>
              <LatitudeDegrees>42.4635021574795246124267578125</LatitudeDegrees>
              <LongitudeDegrees>2.8608052432537078857421875</LongitudeDegrees>
            </Position>
            <AltitudeMeters>316.20001220703125</AltitudeMeters>
            <DistanceMeters>537.73282900864</DistanceMeters>
          </Trackpoint>
          <Trackpoint>
            <Time>2021-03-31T13:48:44.000Z</Time>
            <Position>
              <LatitudeDegrees>42.4634954519569873809814453125</LatitudeDegrees>
              <LongitudeDegrees>2.860827036201953887939453125</LongitudeDegrees>
            </Position>
            <AltitudeMeters>316.399993896484375</AltitudeMeters>
            <DistanceMeters>539.67332942789</DistanceMeters>
          </Trackpoint>
          <Trackpoint>
            <Time>2021-03-31T13:48:46.000Z</Time>
            <Position>
              <LatitudeDegrees>42.4634920991957187652587890625</LatitudeDegrees>
              <LongitudeDegrees>2.8608486615121364593505859375</LongitudeDegrees>
            </Position>
            <AltitudeMeters>316.399993896484375</AltitudeMeters>
            <DistanceMeters>541.48632358828</DistanceMeters>
          </Trackpoint>
          <Trackpoint>
            <Time>2021-03-31T13:48:49.000Z</Time>
            <Position>
              <LatitudeDegrees>42.463485561311244964599609375</LatitudeDegrees>
              <LongitudeDegrees>2.86089367233216762542724609375</LongitudeDegrees>
            </Position>
            <AltitudeMeters>316.79998779296875</AltitudeMeters>
            <DistanceMeters>545.25278745953</DistanceMeters>
          </Trackpoint>
          <Trackpoint>
            <Time>2021-03-31T13:48:52.000Z</Time>
            <Position>
              <LatitudeDegrees>42.4634693004190921783447265625</LatitudeDegrees>
              <LongitudeDegrees>2.8609183989465236663818359375</LongitudeDegrees>
            </Position>
            <AltitudeMeters>317</AltitudeMeters>
            <DistanceMeters>547.97393844469</DistanceMeters>
          </Trackpoint>
          <Trackpoint>
            <Time>2021-03-31T13:48:56.000Z</Time>
            <Position>
              <LatitudeDegrees>42.4634538777172565460205078125</LatitudeDegrees>
              <LongitudeDegrees>2.86095435731112957000732421875</LongitudeDegrees>
            </Position>
            <AltitudeMeters>317.600006103515625</AltitudeMeters>
            <DistanceMeters>551.3896168203</DistanceMeters>
          </Trackpoint>
          <Trackpoint>
            <Time>2021-03-31T13:49:00.000Z</Time>
            <Position>
              <LatitudeDegrees>42.4634223617613315582275390625</LatitudeDegrees>
              <LongitudeDegrees>2.86097128875553607940673828125</LongitudeDegrees>
            </Position>
            <AltitudeMeters>317.79998779296875</AltitudeMeters>
            <DistanceMeters>555.16446259577</DistanceMeters>
          </Trackpoint>
          <Trackpoint>
            <Time>2021-03-31T13:49:01.000Z</Time>
            <Position>
              <LatitudeDegrees>42.4634148180484771728515625</LatitudeDegrees>
              <LongitudeDegrees>2.86097698844969272613525390625</LongitudeDegrees>
            </Position>
            <AltitudeMeters>318</AltitudeMeters>
            <DistanceMeters>556.12418536682</DistanceMeters>
          </Trackpoint>
          <Trackpoint>
            <Time>2021-03-31T13:49:04.000Z</Time>
            <Position>
              <LatitudeDegrees>42.46340232901275157928466796875</LatitudeDegrees>
              <LongitudeDegrees>2.8609978593885898590087890625</LongitudeDegrees>
            </Position>
            <AltitudeMeters>319</AltitudeMeters>
            <DistanceMeters>558.32831356792</DistanceMeters>
          </Trackpoint>
          <Trackpoint>
            <Time>2021-03-31T13:49:09.000Z</Time>
            <Position>
              <LatitudeDegrees>42.46337592601776123046875</LatitudeDegrees>
              <LongitudeDegrees>2.86104002036154270172119140625</LongitudeDegrees>
            </Position>
            <AltitudeMeters>319.399993896484375</AltitudeMeters>
            <DistanceMeters>562.86876118038</DistanceMeters>
          </Trackpoint>
          <Trackpoint>
            <Time>2021-03-31T13:49:12.000Z</Time>
            <Position>
              <LatitudeDegrees>42.46334767900407314300537109375</LatitudeDegrees>
              <LongitudeDegrees>2.8610612265765666961669921875</LongitudeDegrees>
            </Position>
            <AltitudeMeters>319.79998779296875</AltitudeMeters>
            <DistanceMeters>566.46222876961</DistanceMeters>
          </Trackpoint>
          <Trackpoint>
            <Time>2021-03-31T13:49:15.000Z</Time>
            <Position>
              <LatitudeDegrees>42.4633392132818698883056640625</LatitudeDegrees>
              <LongitudeDegrees>2.86110321991145610809326171875</LongitudeDegrees>
            </Position>
            <AltitudeMeters>320</AltitudeMeters>
            <DistanceMeters>570.0355364938</DistanceMeters>
          </Trackpoint>
          <Trackpoint>
            <Time>2021-03-31T13:49:16.000Z</Time>
            <Position>
              <LatitudeDegrees>42.46333309449255466461181640625</LatitudeDegrees>
              <LongitudeDegrees>2.86111512221395969390869140625</LongitudeDegrees>
            </Position>
            <AltitudeMeters>320</AltitudeMeters>
            <DistanceMeters>571.23000377177</DistanceMeters>
          </Trackpoint>
          <Trackpoint>
            <Time>2021-03-31T13:49:24.000Z</Time>
            <Position>
              <LatitudeDegrees>42.4632775224745273590087890625</LatitudeDegrees>
              <LongitudeDegrees>2.86118636839091777801513671875</LongitudeDegrees>
            </Position>
            <AltitudeMeters>320.79998779296875</AltitudeMeters>
            <DistanceMeters>579.74378222882</DistanceMeters>
          </Trackpoint>
          <Trackpoint>
            <Time>2021-03-31T13:49:27.000Z</Time>
            <Position>
              <LatitudeDegrees>42.46327928267419338226318359375</LatitudeDegrees>
              <LongitudeDegrees>2.86121771670877933502197265625</LongitudeDegrees>
            </Position>
            <AltitudeMeters>321</AltitudeMeters>
            <DistanceMeters>582.32529271991</DistanceMeters>
          </Trackpoint>
          <Trackpoint>
            <Time>2021-03-31T13:49:31.000Z</Time>
            <Position>
              <LatitudeDegrees>42.46326394379138946533203125</LatitudeDegrees>
              <LongitudeDegrees>2.8612724505364894866943359375</LongitudeDegrees>
            </Position>
            <AltitudeMeters>321</AltitudeMeters>
            <DistanceMeters>587.13330641546</DistanceMeters>
          </Trackpoint>
          <Trackpoint>
            <Time>2021-03-31T13:49:38.000Z</Time>
            <Position>
              <LatitudeDegrees>42.46324139647185802459716796875</LatitudeDegrees>
              <LongitudeDegrees>2.8613336384296417236328125</LongitudeDegrees>
            </Position>
            <AltitudeMeters>321.600006103515625</AltitudeMeters>
            <DistanceMeters>592.74873399867</DistanceMeters>
          </Trackpoint>
          <Trackpoint>
            <Time>2021-03-31T13:49:41.000Z</Time>
            <Position>
              <LatitudeDegrees>42.4632282368838787078857421875</LatitudeDegrees>
              <LongitudeDegrees>2.861365489661693572998046875</LongitudeDegrees>
            </Position>
            <AltitudeMeters>321.79998779296875</AltitudeMeters>
            <DistanceMeters>595.74622062278</DistanceMeters>
          </Trackpoint>
          <Trackpoint>
            <Time>2021-03-31T13:49:43.000Z</Time>
            <Position>
              <LatitudeDegrees>42.4632191844284534454345703125</LatitudeDegrees>
              <LongitudeDegrees>2.861382924020290374755859375</LongitudeDegrees>
            </Position>
            <AltitudeMeters>322</AltitudeMeters>
            <DistanceMeters>597.49584798725</DistanceMeters>
          </Trackpoint>
          <Trackpoint>
            <Time>2021-03-31T13:49:46.000Z</Time>
            <Position>
              <LatitudeDegrees>42.4631953798234462738037109375</LatitudeDegrees>
              <LongitudeDegrees>2.8614095784723758697509765625</LongitudeDegrees>
            </Position>
            <AltitudeMeters>322.399993896484375</AltitudeMeters>
            <DistanceMeters>600.93261099751</DistanceMeters>
          </Trackpoint>
          <Trackpoint>
            <Time>2021-03-31T13:49:52.000Z</Time>
            <Position>
              <LatitudeDegrees>42.46317652054131031036376953125</LatitudeDegrees>
              <LongitudeDegrees>2.86147470586001873016357421875</LongitudeDegrees>
            </Position>
            <AltitudeMeters>322.79998779296875</AltitudeMeters>
            <DistanceMeters>606.67760267746</DistanceMeters>
          </Trackpoint>
          <Trackpoint>
            <Time>2021-03-31T13:49:54.000Z</Time>
            <Position>
              <LatitudeDegrees>42.46315640397369861602783203125</LatitudeDegrees>
              <LongitudeDegrees>2.86149079911410808563232421875</LongitudeDegrees>
            </Position>
            <AltitudeMeters>322.79998779296875</AltitudeMeters>
            <DistanceMeters>609.27654422741</DistanceMeters>
          </Trackpoint>
          <Trackpoint>
            <Time>2021-03-31T13:49:56.000Z</Time>
            <Position>
              <LatitudeDegrees>42.46313092298805713653564453125</LatitudeDegrees>
              <LongitudeDegrees>2.86151611246168613433837890625</LongitudeDegrees>
            </Position>
            <AltitudeMeters>323.20001220703125</AltitudeMeters>
            <DistanceMeters>612.7925326591</DistanceMeters>
          </Trackpoint>
          <Trackpoint>
            <Time>2021-03-31T13:50:03.000Z</Time>
            <Position>
              <LatitudeDegrees>42.46308624744415283203125</LatitudeDegrees>
              <LongitudeDegrees>2.8615822456777095794677734375</LongitudeDegrees>
            </Position>
            <AltitudeMeters>324</AltitudeMeters>
            <DistanceMeters>620.15511025754</DistanceMeters>
          </Trackpoint>
          <Trackpoint>
            <Time>2021-03-31T13:50:06.000Z</Time>
            <Position>
              <LatitudeDegrees>42.4630607664585113525390625</LatitudeDegrees>
              <LongitudeDegrees>2.86161057651042938232421875</LongitudeDegrees>
            </Position>
            <AltitudeMeters>324.20001220703125</AltitudeMeters>
            <DistanceMeters>623.82319066853</DistanceMeters>
          </Trackpoint>
          <Trackpoint>
            <Time>2021-03-31T13:50:10.000Z</Time>
            <Position>
              <LatitudeDegrees>42.4630196951329708099365234375</LatitudeDegrees>
              <LongitudeDegrees>2.86162574775516986846923828125</LongitudeDegrees>
            </Position>
            <AltitudeMeters>324.600006103515625</AltitudeMeters>
            <DistanceMeters>628.56120396945</DistanceMeters>
          </Trackpoint>
          <Trackpoint>
            <Time>2021-03-31T13:50:13.000Z</Time>
            <Position>
              <LatitudeDegrees>42.46299765072762966156005859375</LatitudeDegrees>
              <LongitudeDegrees>2.86165055818855762481689453125</LongitudeDegrees>
            </Position>
            <AltitudeMeters>324.79998779296875</AltitudeMeters>
            <DistanceMeters>631.74991312456</DistanceMeters>
          </Trackpoint>
          <Trackpoint>
            <Time>2021-03-31T13:50:17.000Z</Time>
            <Position>
              <LatitudeDegrees>42.46296345256268978118896484375</LatitudeDegrees>
              <LongitudeDegrees>2.86167050711810588836669921875</LongitudeDegrees>
            </Position>
            <AltitudeMeters>325.399993896484375</AltitudeMeters>
            <DistanceMeters>635.89421106226</DistanceMeters>
          </Trackpoint>
          <Trackpoint>
            <Time>2021-03-31T13:50:19.000Z</Time>
            <Position>
              <LatitudeDegrees>42.4629425816237926483154296875</LatitudeDegrees>
              <LongitudeDegrees>2.8616824932396411895751953125</LongitudeDegrees>
            </Position>
            <AltitudeMeters>325.79998779296875</AltitudeMeters>
            <DistanceMeters>638.41734480683</DistanceMeters>
          </Trackpoint>
          <Trackpoint>
            <Time>2021-03-31T13:50:20.000Z</Time>
            <Position>
              <LatitudeDegrees>42.46292841620743274688720703125</LatitudeDegrees>
              <LongitudeDegrees>2.86168794147670269012451171875</LongitudeDegrees>
            </Position>
            <AltitudeMeters>325.79998779296875</AltitudeMeters>
            <DistanceMeters>640.05776023601</DistanceMeters>
          </Trackpoint>
          <Trackpoint>
            <Time>2021-03-31T13:50:25.000Z</Time>
            <Position>
              <LatitudeDegrees>42.46287175454199314117431640625</LatitudeDegrees>
              <LongitudeDegrees>2.8617123328149318695068359375</LongitudeDegrees>
            </Position>
            <AltitudeMeters>326.600006103515625</AltitudeMeters>
            <DistanceMeters>646.67424046346</DistanceMeters>
          </Trackpoint>
          <Trackpoint>
            <Time>2021-03-31T13:50:28.000Z</Time>
            <Position>
              <LatitudeDegrees>42.462842166423797607421875</LatitudeDegrees>
              <LongitudeDegrees>2.8617307730019092559814453125</LongitudeDegrees>
            </Position>
            <AltitudeMeters>327</AltitudeMeters>
            <DistanceMeters>650.30022878424</DistanceMeters>
          </Trackpoint>
          <Trackpoint>
            <Time>2021-03-31T13:50:33.000Z</Time>
            <Position>
              <LatitudeDegrees>42.46279229409992694854736328125</LatitudeDegrees>
              <LongitudeDegrees>2.861767821013927459716796875</LongitudeDegrees>
            </Position>
            <AltitudeMeters>327.600006103515625</AltitudeMeters>
            <DistanceMeters>656.63003519375</DistanceMeters>
          </Trackpoint>
          <Trackpoint>
            <Time>2021-03-31T13:50:37.000Z</Time>
            <Position>
              <LatitudeDegrees>42.46275030076503753662109375</LatitudeDegrees>
              <LongitudeDegrees>2.861797325313091278076171875</LongitudeDegrees>
            </Position>
            <AltitudeMeters>328.20001220703125</AltitudeMeters>
            <DistanceMeters>661.89437794536</DistanceMeters>
          </Trackpoint>
          <Trackpoint>
            <Time>2021-03-31T13:50:39.000Z</Time>
            <Position>
              <LatitudeDegrees>42.46273529715836048126220703125</LatitudeDegrees>
              <LongitudeDegrees>2.86179958842694759368896484375</LongitudeDegrees>
            </Position>
            <AltitudeMeters>328.20001220703125</AltitudeMeters>
            <DistanceMeters>663.57288437982</DistanceMeters>
          </Trackpoint>
          <Trackpoint>
            <Time>2021-03-31T13:50:41.000Z</Time>
            <Position>
              <LatitudeDegrees>42.46271853335201740264892578125</LatitudeDegrees>
              <LongitudeDegrees>2.861789278686046600341796875</LongitudeDegrees>
            </Position>
            <AltitudeMeters>328.399993896484375</AltitudeMeters>
            <DistanceMeters>665.61982245167</DistanceMeters>
          </Trackpoint>
          <Trackpoint>
            <Time>2021-03-31T13:50:43.000Z</Time>
            <Position>
              <LatitudeDegrees>42.4627005122601985931396484375</LatitudeDegrees>
              <LongitudeDegrees>2.8617954812943935394287109375</LongitudeDegrees>
            </Position>
            <AltitudeMeters>328.600006103515625</AltitudeMeters>
            <DistanceMeters>667.6887004651</DistanceMeters>
          </Trackpoint>
          <Trackpoint>
            <Time>2021-03-31T13:50:48.000Z</Time>
            <Position>
              <LatitudeDegrees>42.462644018232822418212890625</LatitudeDegrees>
              <LongitudeDegrees>2.8618387319147586822509765625</LongitudeDegrees>
            </Position>
            <AltitudeMeters>329</AltitudeMeters>
            <DistanceMeters>674.90948029745</DistanceMeters>
          </Trackpoint>
          <Trackpoint>
            <Time>2021-03-31T13:50:50.000Z</Time>
            <Position>
              <LatitudeDegrees>42.46263488195836544036865234375</LatitudeDegrees>
              <LongitudeDegrees>2.861853651702404022216796875</LongitudeDegrees>
            </Position>
            <AltitudeMeters>329.399993896484375</AltitudeMeters>
            <DistanceMeters>676.50241830025</DistanceMeters>
          </Trackpoint>
          <Trackpoint>
            <Time>2021-03-31T13:50:55.000Z</Time>
            <Position>
              <LatitudeDegrees>42.46260571293532848358154296875</LatitudeDegrees>
              <LongitudeDegrees>2.86190905608236789703369140625</LongitudeDegrees>
            </Position>
            <AltitudeMeters>329.79998779296875</AltitudeMeters>
            <DistanceMeters>682.09205733118</DistanceMeters>
          </Trackpoint>
          <Trackpoint>
            <Time>2021-03-31T13:50:58.000Z</Time>
            <Position>
              <LatitudeDegrees>42.46260353364050388336181640625</LatitudeDegrees>
              <LongitudeDegrees>2.8619326092302799224853515625</LongitudeDegrees>
            </Position>
            <AltitudeMeters>330</AltitudeMeters>
            <DistanceMeters>684.04184249445</DistanceMeters>
          </Trackpoint>
          <Trackpoint>
            <Time>2021-03-31T13:51:00.000Z</Time>
            <Position>
              <LatitudeDegrees>42.46260420419275760650634765625</LatitudeDegrees>
              <LongitudeDegrees>2.86195180378854274749755859375</LongitudeDegrees>
            </Position>
            <AltitudeMeters>330.399993896484375</AltitudeMeters>
            <DistanceMeters>685.62054484085</DistanceMeters>
          </Trackpoint>
          <Trackpoint>
            <Time>2021-03-31T13:51:03.000Z</Time>
            <Position>
              <LatitudeDegrees>42.4625731073319911956787109375</LatitudeDegrees>
              <LongitudeDegrees>2.8619835712015628814697265625</LongitudeDegrees>
            </Position>
            <AltitudeMeters>330.79998779296875</AltitudeMeters>
            <DistanceMeters>689.95442981895</DistanceMeters>
          </Trackpoint>
          <Trackpoint>
            <Time>2021-03-31T13:51:04.000Z</Time>
            <Position>
              <LatitudeDegrees>42.46256547980010509490966796875</LatitudeDegrees>
              <LongitudeDegrees>2.861994802951812744140625</LongitudeDegrees>
            </Position>
            <AltitudeMeters>331</AltitudeMeters>
            <DistanceMeters>691.20791827173</DistanceMeters>
          </Trackpoint>
          <Trackpoint>
            <Time>2021-03-31T13:51:08.000Z</Time>
            <Position>
              <LatitudeDegrees>42.46253044344484806060791015625</LatitudeDegrees>
              <LongitudeDegrees>2.8620217926800251007080078125</LongitudeDegrees>
            </Position>
            <AltitudeMeters>331.20001220703125</AltitudeMeters>
            <DistanceMeters>695.69334024933</DistanceMeters>
          </Trackpoint>
          <Trackpoint>
            <Time>2021-03-31T13:51:13.000Z</Time>
            <Position>
              <LatitudeDegrees>42.46248384006321430206298828125</LatitudeDegrees>
              <LongitudeDegrees>2.86205087788403034210205078125</LongitudeDegrees>
            </Position>
            <AltitudeMeters>331.79998779296875</AltitudeMeters>
            <DistanceMeters>701.40443787724</DistanceMeters>
          </Trackpoint>
          <Trackpoint>
            <Time>2021-03-31T13:51:16.000Z</Time>
            <Position>
              <LatitudeDegrees>42.46246187947690486907958984375</LatitudeDegrees>
              <LongitudeDegrees>2.86206881515681743621826171875</LongitudeDegrees>
            </Position>
            <AltitudeMeters>332.399993896484375</AltitudeMeters>
            <DistanceMeters>704.25840510769</DistanceMeters>
          </Trackpoint>
          <Trackpoint>
            <Time>2021-03-31T13:51:18.000Z</Time>
            <Position>
              <LatitudeDegrees>42.462442182004451751708984375</LatitudeDegrees>
              <LongitudeDegrees>2.8620838187634944915771484375</LongitudeDegrees>
            </Position>
            <AltitudeMeters>332.600006103515625</AltitudeMeters>
            <DistanceMeters>706.77257564899</DistanceMeters>
          </Trackpoint>
          <Trackpoint>
            <Time>2021-03-31T13:51:22.000Z</Time>
            <Position>
              <LatitudeDegrees>42.46239147149026393890380859375</LatitudeDegrees>
              <LongitudeDegrees>2.86210435442626476287841796875</LongitudeDegrees>
            </Position>
            <AltitudeMeters>332.79998779296875</AltitudeMeters>
            <DistanceMeters>712.66346554561</DistanceMeters>
          </Trackpoint>
          <Trackpoint>
            <Time>2021-03-31T13:51:23.000Z</Time>
            <Position>
              <LatitudeDegrees>42.46238392777740955352783203125</LatitudeDegrees>
              <LongitudeDegrees>2.86210552789270877838134765625</LongitudeDegrees>
            </Position>
            <AltitudeMeters>333</AltitudeMeters>
            <DistanceMeters>713.50808145777</DistanceMeters>
          </Trackpoint>
          <Trackpoint>
            <Time>2021-03-31T13:51:24.000Z</Time>
            <Position>
              <LatitudeDegrees>42.462375797331333160400390625</LatitudeDegrees>
              <LongitudeDegrees>2.86211240105330944061279296875</LongitudeDegrees>
            </Position>
            <AltitudeMeters>333</AltitudeMeters>
            <DistanceMeters>714.57475368106</DistanceMeters>
          </Trackpoint>
          <Trackpoint>
            <Time>2021-03-31T13:51:29.000Z</Time>
            <Position>
              <LatitudeDegrees>42.462331540882587432861328125</LatitudeDegrees>
              <LongitudeDegrees>2.86213226616382598876953125</LongitudeDegrees>
            </Position>
            <AltitudeMeters>333.399993896484375</AltitudeMeters>
            <DistanceMeters>719.76220274616</DistanceMeters>
          </Trackpoint>
          <Trackpoint>
            <Time>2021-03-31T13:51:32.000Z</Time>
            <Position>
              <LatitudeDegrees>42.4622985161840915679931640625</LatitudeDegrees>
              <LongitudeDegrees>2.86213872022926807403564453125</LongitudeDegrees>
            </Position>
            <AltitudeMeters>333.399993896484375</AltitudeMeters>
            <DistanceMeters>723.47433106472</DistanceMeters>
          </Trackpoint>
          <Trackpoint>
            <Time>2021-03-31T13:51:38.000Z</Time>
            <Position>
              <LatitudeDegrees>42.46222986839711666107177734375</LatitudeDegrees>
              <LongitudeDegrees>2.86215749569237232208251953125</LongitudeDegrees>
            </Position>
            <AltitudeMeters>334</AltitudeMeters>
            <DistanceMeters>731.26883902321</DistanceMeters>
          </Trackpoint>
          <Trackpoint>
            <Time>2021-03-31T13:51:41.000Z</Time>
            <Position>
              <LatitudeDegrees>42.4622059799730777740478515625</LatitudeDegrees>
              <LongitudeDegrees>2.86217375658452510833740234375</LongitudeDegrees>
            </Position>
            <AltitudeMeters>334.600006103515625</AltitudeMeters>
            <DistanceMeters>734.24516309688</DistanceMeters>
          </Trackpoint>
          <Trackpoint>
            <Time>2021-03-31T13:51:44.000Z</Time>
            <Position>
              <LatitudeDegrees>42.46218075044453144073486328125</LatitudeDegrees>
              <LongitudeDegrees>2.86219504661858081817626953125</LongitudeDegrees>
            </Position>
            <AltitudeMeters>335</AltitudeMeters>
            <DistanceMeters>737.55340321061</DistanceMeters>
          </Trackpoint>
          <Trackpoint>
            <Time>2021-03-31T13:51:51.000Z</Time>
            <Position>
              <LatitudeDegrees>42.4620886333286762237548828125</LatitudeDegrees>
              <LongitudeDegrees>2.86222656257450580596923828125</LongitudeDegrees>
            </Position>
            <AltitudeMeters>335.399993896484375</AltitudeMeters>
            <DistanceMeters>748.12744721133</DistanceMeters>
          </Trackpoint>
          <Trackpoint>
            <Time>2021-03-31T13:51:54.000Z</Time>
            <Position>
              <LatitudeDegrees>42.46206625364720821380615234375</LatitudeDegrees>
              <LongitudeDegrees>2.86222220398485660552978515625</LongitudeDegrees>
            </Position>
            <AltitudeMeters>336</AltitudeMeters>
            <DistanceMeters>750.64161775263</DistanceMeters>
          </Trackpoint>
          <Trackpoint>
            <Time>2021-03-31T13:51:55.000Z</Time>
            <Position>
              <LatitudeDegrees>42.46205694973468780517578125</LatitudeDegrees>
              <LongitudeDegrees>2.862220108509063720703125</LongitudeDegrees>
            </Position>
            <AltitudeMeters>336.20001220703125</AltitudeMeters>
            <DistanceMeters>751.69122211913</DistanceMeters>
          </Trackpoint>
          <Trackpoint>
            <Time>2021-03-31T13:52:00.000Z</Time>
            <Position>
              <LatitudeDegrees>42.4620195664465427398681640625</LatitudeDegrees>
              <LongitudeDegrees>2.86219957284629344940185546875</LongitudeDegrees>
            </Position>
            <AltitudeMeters>336.79998779296875</AltitudeMeters>
            <DistanceMeters>756.18066870227</DistanceMeters>
          </Trackpoint>
          <Trackpoint>
            <Time>2021-03-31T13:52:07.000Z</Time>
            <Position>
              <LatitudeDegrees>42.4619766511023044586181640625</LatitudeDegrees>
              <LongitudeDegrees>2.862122543156147003173828125</LongitudeDegrees>
            </Position>
            <AltitudeMeters>337.20001220703125</AltitudeMeters>
            <DistanceMeters>764.10728663787</DistanceMeters>
          </Trackpoint>
          <Trackpoint>
            <Time>2021-03-31T13:52:11.000Z</Time>
            <Position>
              <LatitudeDegrees>42.46195393614470958709716796875</LatitudeDegrees>
              <LongitudeDegrees>2.86207585595548152923583984375</LongitudeDegrees>
            </Position>
            <AltitudeMeters>337.20001220703125</AltitudeMeters>
            <DistanceMeters>768.6991521081</DistanceMeters>
          </Trackpoint>
          <Trackpoint>
            <Time>2021-03-31T13:52:19.000Z</Time>
            <Position>
              <LatitudeDegrees>42.4619223363697528839111328125</LatitudeDegrees>
              <LongitudeDegrees>2.861997149884700775146484375</LongitudeDegrees>
            </Position>
            <AltitudeMeters>338.20001220703125</AltitudeMeters>
            <DistanceMeters>776.05620846272</DistanceMeters>
          </Trackpoint>
          <Trackpoint>
            <Time>2021-03-31T13:52:21.000Z</Time>
            <Position>
              <LatitudeDegrees>42.46191470883786678314208984375</LatitudeDegrees>
              <LongitudeDegrees>2.86197510547935962677001953125</LongitudeDegrees>
            </Position>
            <AltitudeMeters>338.399993896484375</AltitudeMeters>
            <DistanceMeters>778.05628942725</DistanceMeters>
          </Trackpoint>
          <Trackpoint>
            <Time>2021-03-31T13:52:22.000Z</Time>
            <Position>
              <LatitudeDegrees>42.46190699748694896697998046875</LatitudeDegrees>
              <LongitudeDegrees>2.861962616443634033203125</LongitudeDegrees>
            </Position>
            <AltitudeMeters>338.399993896484375</AltitudeMeters>
            <DistanceMeters>779.39005292182</DistanceMeters>
          </Trackpoint>
          <Trackpoint>
            <Time>2021-03-31T13:52:27.000Z</Time>
            <Position>
              <LatitudeDegrees>42.46188319288194179534912109375</LatitudeDegrees>
              <LongitudeDegrees>2.86189447157084941864013671875</LongitudeDegrees>
            </Position>
            <AltitudeMeters>338.79998779296875</AltitudeMeters>
            <DistanceMeters>785.58066229636</DistanceMeters>
          </Trackpoint>
          <Trackpoint>
            <Time>2021-03-31T13:52:28.000Z</Time>
            <Position>
              <LatitudeDegrees>42.461876235902309417724609375</LatitudeDegrees>
              <LongitudeDegrees>2.86188139580190181732177734375</LongitudeDegrees>
            </Position>
            <AltitudeMeters>338.79998779296875</AltitudeMeters>
            <DistanceMeters>786.90423127081</DistanceMeters>
          </Trackpoint>
          <Trackpoint>
            <Time>2021-03-31T13:52:30.000Z</Time>
            <Position>
              <LatitudeDegrees>42.46186357922852039337158203125</LatitudeDegrees>
              <LongitudeDegrees>2.86186479963362216949462890625</LongitudeDegrees>
            </Position>
            <AltitudeMeters>338.79998779296875</AltitudeMeters>
            <DistanceMeters>788.86556055605</DistanceMeters>
          </Trackpoint>
          <Trackpoint>
            <Time>2021-03-31T13:52:35.000Z</Time>
            <Position>
              <LatitudeDegrees>42.46182653121650218963623046875</LatitudeDegrees>
              <LongitudeDegrees>2.86181048490107059478759765625</LongitudeDegrees>
            </Position>
            <AltitudeMeters>339</AltitudeMeters>
            <DistanceMeters>794.9398417769</DistanceMeters>
          </Trackpoint>
          <Trackpoint>
            <Time>2021-03-31T13:52:37.000Z</Time>
            <Position>
              <LatitudeDegrees>42.4618123658001422882080078125</LatitudeDegrees>
              <LongitudeDegrees>2.86179858259856700897216796875</LongitudeDegrees>
            </Position>
            <AltitudeMeters>339</AltitudeMeters>
            <DistanceMeters>796.79468924372</DistanceMeters>
          </Trackpoint>
          <Trackpoint>
            <Time>2021-03-31T13:52:39.000Z</Time>
            <Position>
              <LatitudeDegrees>42.46180557645857334136962890625</LatitudeDegrees>
              <LongitudeDegrees>2.861772514879703521728515625</LongitudeDegrees>
            </Position>
            <AltitudeMeters>339.20001220703125</AltitudeMeters>
            <DistanceMeters>799.06342095396</DistanceMeters>
          </Trackpoint>
          <Trackpoint>
            <Time>2021-03-31T13:52:42.000Z</Time>
            <Position>
              <LatitudeDegrees>42.46179367415606975555419921875</LatitudeDegrees>
              <LongitudeDegrees>2.861719541251659393310546875</LongitudeDegrees>
            </Position>
            <AltitudeMeters>339.600006103515625</AltitudeMeters>
            <DistanceMeters>803.60983107406</DistanceMeters>
          </Trackpoint>
          <Trackpoint>
            <Time>2021-03-31T13:52:46.000Z</Time>
            <Position>
              <LatitudeDegrees>42.461775653064250946044921875</LatitudeDegrees>
              <LongitudeDegrees>2.8616777993738651275634765625</LongitudeDegrees>
            </Position>
            <AltitudeMeters>339.79998779296875</AltitudeMeters>
            <DistanceMeters>807.58053799741</DistanceMeters>
          </Trackpoint>
          <Trackpoint>
            <Time>2021-03-31T13:52:47.000Z</Time>
            <Position>
              <LatitudeDegrees>42.4617731384932994842529296875</LatitudeDegrees>
              <LongitudeDegrees>2.861664555966854095458984375</LongitudeDegrees>
            </Position>
            <AltitudeMeters>339.79998779296875</AltitudeMeters>
            <DistanceMeters>808.70088643683</DistanceMeters>
          </Trackpoint>
          <Trackpoint>
            <Time>2021-03-31T13:52:50.000Z</Time>
            <Position>
              <LatitudeDegrees>42.46177137829363346099853515625</LatitudeDegrees>
              <LongitudeDegrees>2.86164318211376667022705078125</LongitudeDegrees>
            </Position>
            <AltitudeMeters>340</AltitudeMeters>
            <DistanceMeters>810.46848550042</DistanceMeters>
          </Trackpoint>
          <Trackpoint>
            <Time>2021-03-31T13:52:54.000Z</Time>
            <Position>
              <LatitudeDegrees>42.46178193949162960052490234375</LatitudeDegrees>
              <LongitudeDegrees>2.8616449423134326934814453125</LongitudeDegrees>
            </Position>
            <AltitudeMeters>340.399993896484375</AltitudeMeters>
            <DistanceMeters>811.64773601341</DistanceMeters>
          </Trackpoint>
          <Trackpoint>
            <Time>2021-03-31T13:52:59.000Z</Time>
            <Position>
              <LatitudeDegrees>42.46176500804722309112548828125</LatitudeDegrees>
              <LongitudeDegrees>2.86165826953947544097900390625</LongitudeDegrees>
            </Position>
            <AltitudeMeters>340.20001220703125</AltitudeMeters>
            <DistanceMeters>813.82714423802</DistanceMeters>
          </Trackpoint>
          <Trackpoint>
            <Time>2021-03-31T13:53:01.000Z</Time>
            <Position>
              <LatitudeDegrees>42.461748830974102020263671875</LatitudeDegrees>
              <LongitudeDegrees>2.8616741113364696502685546875</LongitudeDegrees>
            </Position>
            <AltitudeMeters>340</AltitudeMeters>
            <DistanceMeters>816.04759953782</DistanceMeters>
          </Trackpoint>
          <Trackpoint>
            <Time>2021-03-31T13:53:03.000Z</Time>
            <Position>
              <LatitudeDegrees>42.4617453105747699737548828125</LatitudeDegrees>
              <LongitudeDegrees>2.86166128702461719512939453125</LongitudeDegrees>
            </Position>
            <AltitudeMeters>340</AltitudeMeters>
            <DistanceMeters>817.1719707853</DistanceMeters>
          </Trackpoint>
          <Trackpoint>
            <Time>2021-03-31T13:53:10.000Z</Time>
            <Position>
              <LatitudeDegrees>42.46172745712101459503173828125</LatitudeDegrees>
              <LongitudeDegrees>2.86156774498522281646728515625</LongitudeDegrees>
            </Position>
            <AltitudeMeters>340.399993896484375</AltitudeMeters>
            <DistanceMeters>825.10542103184</DistanceMeters>
          </Trackpoint>
          <Trackpoint>
            <Time>2021-03-31T13:53:14.000Z</Time>
            <Position>
              <LatitudeDegrees>42.4617218412458896636962890625</LatitudeDegrees>
              <LongitudeDegrees>2.86150706000626087188720703125</LongitudeDegrees>
            </Position>
            <AltitudeMeters>340.20001220703125</AltitudeMeters>
            <DistanceMeters>830.12837171689</DistanceMeters>
          </Trackpoint>
          <Trackpoint>
            <Time>2021-03-31T13:53:18.000Z</Time>
            <Position>
              <LatitudeDegrees>42.46170951984822750091552734375</LatitudeDegrees>
              <LongitudeDegrees>2.86144788376986980438232421875</LongitudeDegrees>
            </Position>
            <AltitudeMeters>340.399993896484375</AltitudeMeters>
            <DistanceMeters>835.17821685092</DistanceMeters>
          </Trackpoint>
          <Trackpoint>
            <Time>2021-03-31T13:53:26.000Z</Time>
            <Position>
              <LatitudeDegrees>42.46169325895607471466064453125</LatitudeDegrees>
              <LongitudeDegrees>2.861333973705768585205078125</LongitudeDegrees>
            </Position>
            <AltitudeMeters>340.600006103515625</AltitudeMeters>
            <DistanceMeters>844.70508928306</DistanceMeters>
          </Trackpoint>
          <Trackpoint>
            <Time>2021-03-31T13:53:29.000Z</Time>
            <Position>
              <LatitudeDegrees>42.46168613433837890625</LatitudeDegrees>
              <LongitudeDegrees>2.86130120046436786651611328125</LongitudeDegrees>
            </Position>
            <AltitudeMeters>340.600006103515625</AltitudeMeters>
            <DistanceMeters>847.51119453039</DistanceMeters>
          </Trackpoint>
          <Trackpoint>
            <Time>2021-03-31T13:53:33.000Z</Time>
            <Position>
              <LatitudeDegrees>42.46167180128395557403564453125</LatitudeDegrees>
              <LongitudeDegrees>2.8612469695508480072021484375</LongitudeDegrees>
            </Position>
            <AltitudeMeters>340.399993896484375</AltitudeMeters>
            <DistanceMeters>852.24157817531</DistanceMeters>
          </Trackpoint>
          <Trackpoint>
            <Time>2021-03-31T13:53:37.000Z</Time>
            <Position>
              <LatitudeDegrees>42.461652271449565887451171875</LatitudeDegrees>
              <LongitudeDegrees>2.86119374446570873260498046875</LongitudeDegrees>
            </Position>
            <AltitudeMeters>340.20001220703125</AltitudeMeters>
            <DistanceMeters>857.12228935906</DistanceMeters>
          </Trackpoint>
          <Trackpoint>
            <Time>2021-03-31T13:53:45.000Z</Time>
            <Position>
              <LatitudeDegrees>42.46164430864155292510986328125</LatitudeDegrees>
              <LongitudeDegrees>2.861105985939502716064453125</LongitudeDegrees>
            </Position>
            <AltitudeMeters>341.20001220703125</AltitudeMeters>
            <DistanceMeters>864.38235521299</DistanceMeters>
          </Trackpoint>
          <Trackpoint>
            <Time>2021-03-31T13:53:47.000Z</Time>
            <Position>
              <LatitudeDegrees>42.4616366811096668243408203125</LatitudeDegrees>
              <LongitudeDegrees>2.8611021302640438079833984375</LongitudeDegrees>
            </Position>
            <AltitudeMeters>341.399993896484375</AltitudeMeters>
            <DistanceMeters>865.28885229318</DistanceMeters>
          </Trackpoint>
          <Trackpoint>
            <Time>2021-03-31T13:53:48.000Z</Time>
            <Position>
              <LatitudeDegrees>42.46163207106292247772216796875</LatitudeDegrees>
              <LongitudeDegrees>2.86110724322497844696044921875</LongitudeDegrees>
            </Position>
            <AltitudeMeters>341.399993896484375</AltitudeMeters>
            <DistanceMeters>865.94721668264</DistanceMeters>
          </Trackpoint>
          <Trackpoint>
            <Time>2021-03-31T13:53:51.000Z</Time>
            <Position>
              <LatitudeDegrees>42.46162100695073604583740234375</LatitudeDegrees>
              <LongitudeDegrees>2.86109601147472858428955078125</LongitudeDegrees>
            </Position>
            <AltitudeMeters>341.600006103515625</AltitudeMeters>
            <DistanceMeters>867.48535842784</DistanceMeters>
          </Trackpoint>
          <Trackpoint>
            <Time>2021-03-31T13:53:52.000Z</Time>
            <Position>
              <LatitudeDegrees>42.46161262504756450653076171875</LatitudeDegrees>
              <LongitudeDegrees>2.86109785549342632293701171875</LongitudeDegrees>
            </Position>
            <AltitudeMeters>341.600006103515625</AltitudeMeters>
            <DistanceMeters>868.43086229771</DistanceMeters>
          </Trackpoint>
          <Trackpoint>
            <Time>2021-03-31T13:53:56.000Z</Time>
            <Position>
              <LatitudeDegrees>42.4615863896906375885009765625</LatitudeDegrees>
              <LongitudeDegrees>2.86108729429543018341064453125</LongitudeDegrees>
            </Position>
            <AltitudeMeters>342.20001220703125</AltitudeMeters>
            <DistanceMeters>871.47616827708</DistanceMeters>
          </Trackpoint>
          <Trackpoint>
            <Time>2021-03-31T13:53:58.000Z</Time>
            <Position>
              <LatitudeDegrees>42.46156970970332622528076171875</LatitudeDegrees>
              <LongitudeDegrees>2.861083857715129852294921875</LongitudeDegrees>
            </Position>
            <AltitudeMeters>342.399993896484375</AltitudeMeters>
            <DistanceMeters>873.35279552114</DistanceMeters>
          </Trackpoint>
          <Trackpoint>
            <Time>2021-03-31T13:54:00.000Z</Time>
            <Position>
              <LatitudeDegrees>42.46155562810599803924560546875</LatitudeDegrees>
              <LongitudeDegrees>2.86105896346271038055419921875</LongitudeDegrees>
            </Position>
            <AltitudeMeters>342.600006103515625</AltitudeMeters>
            <DistanceMeters>875.92905369653</DistanceMeters>
          </Trackpoint>
          <Trackpoint>
            <Time>2021-03-31T13:54:03.000Z</Time>
            <Position>
              <LatitudeDegrees>42.46155210770666599273681640625</LatitudeDegrees>
              <LongitudeDegrees>2.86102317273616790771484375</LongitudeDegrees>
            </Position>
            <AltitudeMeters>342.79998779296875</AltitudeMeters>
            <DistanceMeters>878.89473986611</DistanceMeters>
          </Trackpoint>
          <Trackpoint>
            <Time>2021-03-31T13:54:05.000Z</Time>
            <Position>
              <LatitudeDegrees>42.4615444801747798919677734375</LatitudeDegrees>
              <LongitudeDegrees>2.86098738200962543487548828125</LongitudeDegrees>
            </Position>
            <AltitudeMeters>342.79998779296875</AltitudeMeters>
            <DistanceMeters>881.9533603388</DistanceMeters>
          </Trackpoint>
          <Trackpoint>
            <Time>2021-03-31T13:54:07.000Z</Time>
            <Position>
              <LatitudeDegrees>42.461533583700656890869140625</LatitudeDegrees>
              <LongitudeDegrees>2.86096408031880855560302734375</LongitudeDegrees>
            </Position>
            <AltitudeMeters>343</AltitudeMeters>
            <DistanceMeters>884.2181083204</DistanceMeters>
          </Trackpoint>
          <Trackpoint>
            <Time>2021-03-31T13:54:10.000Z</Time>
            <Position>
              <LatitudeDegrees>42.46151321567595005035400390625</LatitudeDegrees>
              <LongitudeDegrees>2.860928289592266082763671875</LongitudeDegrees>
            </Position>
            <AltitudeMeters>343.600006103515625</AltitudeMeters>
            <DistanceMeters>887.93023663896</DistanceMeters>
          </Trackpoint>
          <Trackpoint>
            <Time>2021-03-31T13:54:16.000Z</Time>
            <Position>
              <LatitudeDegrees>42.46147750876843929290771484375</LatitudeDegrees>
              <LongitudeDegrees>2.86087104119360446929931640625</LongitudeDegrees>
            </Position>
            <AltitudeMeters>344.20001220703125</AltitudeMeters>
            <DistanceMeters>894.08573830485</DistanceMeters>
          </Trackpoint>
          <Trackpoint>
            <Time>2021-03-31T13:54:25.000Z</Time>
            <Position>
              <LatitudeDegrees>42.461435683071613311767578125</LatitudeDegrees>
              <LongitudeDegrees>2.86075470037758350372314453125</LongitudeDegrees>
            </Position>
            <AltitudeMeters>344.20001220703125</AltitudeMeters>
            <DistanceMeters>904.71259748375</DistanceMeters>
          </Trackpoint>
          <Trackpoint>
            <Time>2021-03-31T13:54:28.000Z</Time>
            <Position>
              <LatitudeDegrees>42.4614264629781246185302734375</LatitudeDegrees>
              <LongitudeDegrees>2.86072553135454654693603515625</LongitudeDegrees>
            </Position>
            <AltitudeMeters>344.20001220703125</AltitudeMeters>
            <DistanceMeters>907.31847880988</DistanceMeters>
          </Trackpoint>
          <Trackpoint>
            <Time>2021-03-31T13:54:31.000Z</Time>
            <Position>
              <LatitudeDegrees>42.4614254571497440338134765625</LatitudeDegrees>
              <LongitudeDegrees>2.8606800176203250885009765625</LongitudeDegrees>
            </Position>
            <AltitudeMeters>344.79998779296875</AltitudeMeters>
            <DistanceMeters>911.05726983576</DistanceMeters>
          </Trackpoint>
          <Trackpoint>
            <Time>2021-03-31T13:54:32.000Z</Time>
            <Position>
              <LatitudeDegrees>42.46142805553972721099853515625</LatitudeDegrees>
              <LongitudeDegrees>2.860662080347537994384765625</LongitudeDegrees>
            </Position>
            <AltitudeMeters>345.20001220703125</AltitudeMeters>
            <DistanceMeters>912.55375203015</DistanceMeters>
          </Trackpoint>
          <Trackpoint>
            <Time>2021-03-31T13:54:39.000Z</Time>
            <Position>
              <LatitudeDegrees>42.461416237056255340576171875</LatitudeDegrees>
              <LongitudeDegrees>2.86055621691048145294189453125</LongitudeDegrees>
            </Position>
            <AltitudeMeters>345.600006103515625</AltitudeMeters>
            <DistanceMeters>921.34513555516</DistanceMeters>
          </Trackpoint>
          <Trackpoint>
            <Time>2021-03-31T13:54:42.000Z</Time>
            <Position>
              <LatitudeDegrees>42.46140039525926113128662109375</LatitudeDegrees>
              <LongitudeDegrees>2.86052285693585872650146484375</LongitudeDegrees>
            </Position>
            <AltitudeMeters>345.600006103515625</AltitudeMeters>
            <DistanceMeters>924.60387302511</DistanceMeters>
          </Trackpoint>
          <Trackpoint>
            <Time>2021-03-31T13:54:43.000Z</Time>
            <Position>
              <LatitudeDegrees>42.461393773555755615234375</LatitudeDegrees>
              <LongitudeDegrees>2.86051430739462375640869140625</LongitudeDegrees>
            </Position>
            <AltitudeMeters>345.600006103515625</AltitudeMeters>
            <DistanceMeters>925.61848069047</DistanceMeters>
          </Trackpoint>
          <Trackpoint>
            <Time>2021-03-31T13:54:45.000Z</Time>
            <Position>
              <LatitudeDegrees>42.46138639748096466064453125</LatitudeDegrees>
              <LongitudeDegrees>2.86049435846507549285888671875</LongitudeDegrees>
            </Position>
            <AltitudeMeters>345.79998779296875</AltitudeMeters>
            <DistanceMeters>927.45128958317</DistanceMeters>
          </Trackpoint>
          <Trackpoint>
            <Time>2021-03-31T13:54:49.000Z</Time>
            <Position>
              <LatitudeDegrees>42.46137675829231739044189453125</LatitudeDegrees>
              <LongitudeDegrees>2.860460914671421051025390625</LongitudeDegrees>
            </Position>
            <AltitudeMeters>346.600006103515625</AltitudeMeters>
            <DistanceMeters>930.40171221255</DistanceMeters>
          </Trackpoint>
          <Trackpoint>
            <Time>2021-03-31T13:54:51.000Z</Time>
            <Position>
              <LatitudeDegrees>42.4613744951784610748291015625</LatitudeDegrees>
              <LongitudeDegrees>2.860450185835361480712890625</LongitudeDegrees>
            </Position>
            <AltitudeMeters>347</AltitudeMeters>
            <DistanceMeters>931.32303039089</DistanceMeters>
          </Trackpoint>
          <Trackpoint>
            <Time>2021-03-31T13:54:56.000Z</Time>
            <Position>
              <LatitudeDegrees>42.46138497255742549896240234375</LatitudeDegrees>
              <LongitudeDegrees>2.86044322885572910308837890625</LongitudeDegrees>
            </Position>
            <AltitudeMeters>347.600006103515625</AltitudeMeters>
            <DistanceMeters>932.62597105395</DistanceMeters>
          </Trackpoint>
          <Trackpoint>
            <Time>2021-03-31T13:55:02.000Z</Time>
            <Position>
              <LatitudeDegrees>42.4613667838275432586669921875</LatitudeDegrees>
              <LongitudeDegrees>2.8604074381291866302490234375</LongitudeDegrees>
            </Position>
            <AltitudeMeters>348</AltitudeMeters>
            <DistanceMeters>936.19295545391</DistanceMeters>
          </Trackpoint>
          <Trackpoint>
            <Time>2021-03-31T13:55:03.000Z</Time>
            <Position>
              <LatitudeDegrees>42.4613604135811328887939453125</LatitudeDegrees>
              <LongitudeDegrees>2.86040064878761768341064453125</LongitudeDegrees>
            </Position>
            <AltitudeMeters>348.20001220703125</AltitudeMeters>
            <DistanceMeters>937.08438505128</DistanceMeters>
          </Trackpoint>
          <Trackpoint>
            <Time>2021-03-31T13:55:12.000Z</Time>
            <Position>
              <LatitudeDegrees>42.46129411272704601287841796875</LatitudeDegrees>
              <LongitudeDegrees>2.8603554703295230865478515625</LongitudeDegrees>
            </Position>
            <AltitudeMeters>349.20001220703125</AltitudeMeters>
            <DistanceMeters>945.34351318067</DistanceMeters>
          </Trackpoint>
          <Trackpoint>
            <Time>2021-03-31T13:55:14.000Z</Time>
            <Position>
              <LatitudeDegrees>42.4612786062061786651611328125</LatitudeDegrees>
              <LongitudeDegrees>2.86034599877893924713134765625</LongitudeDegrees>
            </Position>
            <AltitudeMeters>349.600006103515625</AltitudeMeters>
            <DistanceMeters>947.23690705101</DistanceMeters>
          </Trackpoint>
          <Trackpoint>
            <Time>2021-03-31T13:55:17.000Z</Time>
            <Position>
              <LatitudeDegrees>42.46126058511435985565185546875</LatitudeDegrees>
              <LongitudeDegrees>2.8603306598961353302001953125</LongitudeDegrees>
            </Position>
            <AltitudeMeters>350.20001220703125</AltitudeMeters>
            <DistanceMeters>949.606866449</DistanceMeters>
          </Trackpoint>
          <Trackpoint>
            <Time>2021-03-31T13:55:20.000Z</Time>
            <Position>
              <LatitudeDegrees>42.461235187947750091552734375</LatitudeDegrees>
              <LongitudeDegrees>2.86032353527843952178955078125</LongitudeDegrees>
            </Position>
            <AltitudeMeters>351</AltitudeMeters>
            <DistanceMeters>952.49386498689</DistanceMeters>
          </Trackpoint>
          <Trackpoint>
            <Time>2021-03-31T13:55:22.000Z</Time>
            <Position>
              <LatitudeDegrees>42.4612222798168659210205078125</LatitudeDegrees>
              <LongitudeDegrees>2.860314734280109405517578125</LongitudeDegrees>
            </Position>
            <AltitudeMeters>351.20001220703125</AltitudeMeters>
            <DistanceMeters>954.10091254778</DistanceMeters>
          </Trackpoint>
          <Trackpoint>
            <Time>2021-03-31T13:55:24.000Z</Time>
            <Position>
              <LatitudeDegrees>42.46121012605726718902587890625</LatitudeDegrees>
              <LongitudeDegrees>2.860307358205318450927734375</LongitudeDegrees>
            </Position>
            <AltitudeMeters>351.600006103515625</AltitudeMeters>
            <DistanceMeters>955.58223242407</DistanceMeters>
          </Trackpoint>
          <Trackpoint>
            <Time>2021-03-31T13:55:26.000Z</Time>
            <Position>
              <LatitudeDegrees>42.4611944518983364105224609375</LatitudeDegrees>
              <LongitudeDegrees>2.86030207760632038116455078125</LongitudeDegrees>
            </Position>
            <AltitudeMeters>352</AltitudeMeters>
            <DistanceMeters>957.38022223687</DistanceMeters>
          </Trackpoint>
          <Trackpoint>
            <Time>2021-03-31T13:55:30.000Z</Time>
            <Position>
              <LatitudeDegrees>42.46116687543690204620361328125</LatitudeDegrees>
              <LongitudeDegrees>2.86028950475156307220458984375</LongitudeDegrees>
            </Position>
            <AltitudeMeters>352.20001220703125</AltitudeMeters>
            <DistanceMeters>960.61950438387</DistanceMeters>
          </Trackpoint>
          <Trackpoint>
            <Time>2021-03-31T13:55:34.000Z</Time>
            <Position>
              <LatitudeDegrees>42.461135946214199066162109375</LatitudeDegrees>
              <LongitudeDegrees>2.860271148383617401123046875</LongitudeDegrees>
            </Position>
            <AltitudeMeters>352.20001220703125</AltitudeMeters>
            <DistanceMeters>964.37756765614</DistanceMeters>
          </Trackpoint>
          <Trackpoint>
            <Time>2021-03-31T13:55:37.000Z</Time>
            <Position>
              <LatitudeDegrees>42.46111725457012653350830078125</LatitudeDegrees>
              <LongitudeDegrees>2.860236950218677520751953125</LongitudeDegrees>
            </Position>
            <AltitudeMeters>352.20001220703125</AltitudeMeters>
            <DistanceMeters>967.87165743063</DistanceMeters>
          </Trackpoint>
          <Trackpoint>
            <Time>2021-03-31T13:55:38.000Z</Time>
            <Position>
              <LatitudeDegrees>42.46111339889466762542724609375</LatitudeDegrees>
              <LongitudeDegrees>2.860232256352901458740234375</LongitudeDegrees>
            </Position>
            <AltitudeMeters>352.399993896484375</AltitudeMeters>
            <DistanceMeters>968.44181771685</DistanceMeters>
          </Trackpoint>
          <Trackpoint>
            <Time>2021-03-31T13:55:42.000Z</Time>
            <Position>
              <LatitudeDegrees>42.46109361760318279266357421875</LatitudeDegrees>
              <LongitudeDegrees>2.86019076593220233917236328125</LongitudeDegrees>
            </Position>
            <AltitudeMeters>353.20001220703125</AltitudeMeters>
            <DistanceMeters>972.49802275122</DistanceMeters>
          </Trackpoint>
          <Trackpoint>
            <Time>2021-03-31T13:55:46.000Z</Time>
            <Position>
              <LatitudeDegrees>42.46107802726328372955322265625</LatitudeDegrees>
              <LongitudeDegrees>2.86016042344272136688232421875</LongitudeDegrees>
            </Position>
            <AltitudeMeters>353.600006103515625</AltitudeMeters>
            <DistanceMeters>975.53441996656</DistanceMeters>
          </Trackpoint>
          <Trackpoint>
            <Time>2021-03-31T13:55:50.000Z</Time>
            <Position>
              <LatitudeDegrees>42.46106344275176525115966796875</LatitudeDegrees>
              <LongitudeDegrees>2.8601328469812870025634765625</LongitudeDegrees>
            </Position>
            <AltitudeMeters>353.600006103515625</AltitudeMeters>
            <DistanceMeters>978.3211502624</DistanceMeters>
          </Trackpoint>
          <Trackpoint>
            <Time>2021-03-31T13:55:53.000Z</Time>
            <Position>
              <LatitudeDegrees>42.4610506184399127960205078125</LatitudeDegrees>
              <LongitudeDegrees>2.8601036779582500457763671875</LongitudeDegrees>
            </Position>
            <AltitudeMeters>353.600006103515625</AltitudeMeters>
            <DistanceMeters>981.10950027957</DistanceMeters>
          </Trackpoint>
          <Trackpoint>
            <Time>2021-03-31T13:55:59.000Z</Time>
            <Position>
              <LatitudeDegrees>42.4610140733420848846435546875</LatitudeDegrees>
              <LongitudeDegrees>2.8600488603115081787109375</LongitudeDegrees>
            </Position>
            <AltitudeMeters>354</AltitudeMeters>
            <DistanceMeters>987.17559964483</DistanceMeters>
          </Trackpoint>
          <Trackpoint>
            <Time>2021-03-31T13:56:03.000Z</Time>
            <Position>
              <LatitudeDegrees>42.46098699979484081268310546875</LatitudeDegrees>
              <LongitudeDegrees>2.8600460104644298553466796875</LongitudeDegrees>
            </Position>
            <AltitudeMeters>354.20001220703125</AltitudeMeters>
            <DistanceMeters>990.19858448787</DistanceMeters>
          </Trackpoint>
          <Trackpoint>
            <Time>2021-03-31T13:56:06.000Z</Time>
            <Position>
              <LatitudeDegrees>42.46097601950168609619140625</LatitudeDegrees>
              <LongitudeDegrees>2.860029079020023345947265625</LongitudeDegrees>
            </Position>
            <AltitudeMeters>354.399993896484375</AltitudeMeters>
            <DistanceMeters>992.04855718287</DistanceMeters>
          </Trackpoint>
          <Trackpoint>
            <Time>2021-03-31T13:56:08.000Z</Time>
            <Position>
              <LatitudeDegrees>42.46096218936145305633544921875</LatitudeDegrees>
              <LongitudeDegrees>2.86000854335725307464599609375</LongitudeDegrees>
            </Position>
            <AltitudeMeters>354.600006103515625</AltitudeMeters>
            <DistanceMeters>994.33315434312</DistanceMeters>
          </Trackpoint>
          <Trackpoint>
            <Time>2021-03-31T13:56:15.000Z</Time>
            <Position>
              <LatitudeDegrees>42.46093117631971836090087890625</LatitudeDegrees>
              <LongitudeDegrees>2.85993679426610469818115234375</LongitudeDegrees>
            </Position>
            <AltitudeMeters>355.600006103515625</AltitudeMeters>
            <DistanceMeters>1001.1618668687</DistanceMeters>
          </Trackpoint>
          <Trackpoint>
            <Time>2021-03-31T13:56:16.000Z</Time>
            <Position>
              <LatitudeDegrees>42.460927069187164306640625</LatitudeDegrees>
              <LongitudeDegrees>2.85993025638163089752197265625</LongitudeDegrees>
            </Position>
            <AltitudeMeters>355.600006103515625</AltitudeMeters>
            <DistanceMeters>1001.866603844</DistanceMeters>
          </Trackpoint>
          <Trackpoint>
            <Time>2021-03-31T13:56:24.000Z</Time>
            <Position>
              <LatitudeDegrees>42.46091105975210666656494140625</LatitudeDegrees>
              <LongitudeDegrees>2.8598270751535892486572265625</LongitudeDegrees>
            </Position>
            <AltitudeMeters>355.600006103515625</AltitudeMeters>
            <DistanceMeters>1010.5239495391</DistanceMeters>
          </Trackpoint>
          <Trackpoint>
            <Time>2021-03-31T13:56:28.000Z</Time>
            <Position>
              <LatitudeDegrees>42.46090569533407688140869140625</LatitudeDegrees>
              <LongitudeDegrees>2.8597945533692836761474609375</LongitudeDegrees>
            </Position>
            <AltitudeMeters>356.600006103515625</AltitudeMeters>
            <DistanceMeters>1013.2599929182</DistanceMeters>
          </Trackpoint>
          <Trackpoint>
            <Time>2021-03-31T13:56:32.000Z</Time>
            <Position>
              <LatitudeDegrees>42.46089898981153964996337890625</LatitudeDegrees>
              <LongitudeDegrees>2.85976395942270755767822265625</LongitudeDegrees>
            </Position>
            <AltitudeMeters>357.600006103515625</AltitudeMeters>
            <DistanceMeters>1015.8796986454</DistanceMeters>
          </Trackpoint>
          <Trackpoint>
            <Time>2021-03-31T13:56:33.000Z</Time>
            <Position>
              <LatitudeDegrees>42.46089697815477848052978515625</LatitudeDegrees>
              <LongitudeDegrees>2.8597526438534259796142578125</LongitudeDegrees>
            </Position>
            <AltitudeMeters>357.79998779296875</AltitudeMeters>
            <DistanceMeters>1016.8347053055</DistanceMeters>
          </Trackpoint>
          <Trackpoint>
            <Time>2021-03-31T13:56:40.000Z</Time>
            <Position>
              <LatitudeDegrees>42.4608963914215564727783203125</LatitudeDegrees>
              <LongitudeDegrees>2.85967058502137660980224609375</LongitudeDegrees>
            </Position>
            <AltitudeMeters>358.600006103515625</AltitudeMeters>
            <DistanceMeters>1023.572896781</DistanceMeters>
          </Trackpoint>
          <Trackpoint>
            <Time>2021-03-31T13:56:41.000Z</Time>
            <Position>
              <LatitudeDegrees>42.460895217955112457275390625</LatitudeDegrees>
              <LongitudeDegrees>2.859655916690826416015625</LongitudeDegrees>
            </Position>
            <AltitudeMeters>358.79998779296875</AltitudeMeters>
            <DistanceMeters>1024.7823893953</DistanceMeters>
          </Trackpoint>
          <Trackpoint>
            <Time>2021-03-31T13:56:48.000Z</Time>
            <Position>
              <LatitudeDegrees>42.46088809333741664886474609375</LatitudeDegrees>
              <LongitudeDegrees>2.85957838408648967742919921875</LongitudeDegrees>
            </Position>
            <AltitudeMeters>359.600006103515625</AltitudeMeters>
            <DistanceMeters>1031.1979243248</DistanceMeters>
          </Trackpoint>
          <Trackpoint>
            <Time>2021-03-31T13:56:50.000Z</Time>
            <Position>
              <LatitudeDegrees>42.46088080108165740966796875</LatitudeDegrees>
              <LongitudeDegrees>2.859570421278476715087890625</LongitudeDegrees>
            </Position>
            <AltitudeMeters>360</AltitudeMeters>
            <DistanceMeters>1032.2388898253</DistanceMeters>
          </Trackpoint>
          <Trackpoint>
            <Time>2021-03-31T13:56:54.000Z</Time>
            <Position>
              <LatitudeDegrees>42.4608813039958477020263671875</LatitudeDegrees>
              <LongitudeDegrees>2.85953597165644168853759765625</LongitudeDegrees>
            </Position>
            <AltitudeMeters>360.79998779296875</AltitudeMeters>
            <DistanceMeters>1035.0674314512</DistanceMeters>
          </Trackpoint>
          <Trackpoint>
            <Time>2021-03-31T13:56:56.000Z</Time>
            <Position>
              <LatitudeDegrees>42.4608833156526088714599609375</LatitudeDegrees>
              <LongitudeDegrees>2.85952021367847919464111328125</LongitudeDegrees>
            </Position>
            <AltitudeMeters>361</AltitudeMeters>
            <DistanceMeters>1036.3841602301</DistanceMeters>
          </Trackpoint>
          <Trackpoint>
            <Time>2021-03-31T13:57:00.000Z</Time>
            <Position>
              <LatitudeDegrees>42.46088759042322635650634765625</LatitudeDegrees>
              <LongitudeDegrees>2.85947226919233798980712890625</LongitudeDegrees>
            </Position>
            <AltitudeMeters>361.20001220703125</AltitudeMeters>
            <DistanceMeters>1040.3491776435</DistanceMeters>
          </Trackpoint>
          <Trackpoint>
            <Time>2021-03-31T13:57:08.000Z</Time>
            <Position>
              <LatitudeDegrees>42.46088792569935321807861328125</LatitudeDegrees>
              <LongitudeDegrees>2.85940253175795078277587890625</LongitudeDegrees>
            </Position>
            <AltitudeMeters>362</AltitudeMeters>
            <DistanceMeters>1046.0752764523</DistanceMeters>
          </Trackpoint>
          <Trackpoint>
            <Time>2021-03-31T13:57:09.000Z</Time>
            <Position>
              <LatitudeDegrees>42.460885830223560333251953125</LatitudeDegrees>
              <LongitudeDegrees>2.85939180292189121246337890625</LongitudeDegrees>
            </Position>
            <AltitudeMeters>362</AltitudeMeters>
            <DistanceMeters>1046.986740677</DistanceMeters>
          </Trackpoint>
          <Trackpoint>
            <Time>2021-03-31T13:57:16.000Z</Time>
            <Position>
              <LatitudeDegrees>42.46086998842656612396240234375</LatitudeDegrees>
              <LongitudeDegrees>2.8592990152537822723388671875</LongitudeDegrees>
            </Position>
            <AltitudeMeters>362.399993896484375</AltitudeMeters>
            <DistanceMeters>1054.8066944926</DistanceMeters>
          </Trackpoint>
          <Trackpoint>
            <Time>2021-03-31T13:57:17.000Z</Time>
            <Position>
              <LatitudeDegrees>42.46086915023624897003173828125</LatitudeDegrees>
              <LongitudeDegrees>2.85929381847381591796875</LongitudeDegrees>
            </Position>
            <AltitudeMeters>362.600006103515625</AltitudeMeters>
            <DistanceMeters>1055.2524092913</DistanceMeters>
          </Trackpoint>
          <Trackpoint>
            <Time>2021-03-31T13:57:20.000Z</Time>
            <Position>
              <LatitudeDegrees>42.4608631990849971771240234375</LatitudeDegrees>
              <LongitudeDegrees>2.85925098694860935211181640625</LongitudeDegrees>
            </Position>
            <AltitudeMeters>363</AltitudeMeters>
            <DistanceMeters>1058.8307676296</DistanceMeters>
          </Trackpoint>
          <Trackpoint>
            <Time>2021-03-31T13:57:25.000Z</Time>
            <Position>
              <LatitudeDegrees>42.4608640372753143310546875</LatitudeDegrees>
              <LongitudeDegrees>2.85922349430620670318603515625</LongitudeDegrees>
            </Position>
            <AltitudeMeters>363.79998779296875</AltitudeMeters>
            <DistanceMeters>1061.0895268445</DistanceMeters>
          </Trackpoint>
          <Trackpoint>
            <Time>2021-03-31T13:57:27.000Z</Time>
            <Position>
              <LatitudeDegrees>42.460858337581157684326171875</LatitudeDegrees>
              <LongitudeDegrees>2.85920605994760990142822265625</LongitudeDegrees>
            </Position>
            <AltitudeMeters>364.20001220703125</AltitudeMeters>
            <DistanceMeters>1062.6567475669</DistanceMeters>
          </Trackpoint>
          <Trackpoint>
            <Time>2021-03-31T13:57:34.000Z</Time>
            <Position>
              <LatitudeDegrees>42.46082824654877185821533203125</LatitudeDegrees>
              <LongitudeDegrees>2.85916968248784542083740234375</LongitudeDegrees>
            </Position>
            <AltitudeMeters>365</AltitudeMeters>
            <DistanceMeters>1067.1441822985</DistanceMeters>
          </Trackpoint>
          <Trackpoint>
            <Time>2021-03-31T13:57:36.000Z</Time>
            <Position>
              <LatitudeDegrees>42.460820786654949188232421875</LatitudeDegrees>
              <LongitudeDegrees>2.85915476270020008087158203125</LongitudeDegrees>
            </Position>
            <AltitudeMeters>365.399993896484375</AltitudeMeters>
            <DistanceMeters>1068.6224510492</DistanceMeters>
          </Trackpoint>
          <Trackpoint>
            <Time>2021-03-31T13:57:41.000Z</Time>
            <Position>
              <LatitudeDegrees>42.4608184397220611572265625</LatitudeDegrees>
              <LongitudeDegrees>2.8591100871562957763671875</LongitudeDegrees>
            </Position>
            <AltitudeMeters>366</AltitudeMeters>
            <DistanceMeters>1072.3003654736</DistanceMeters>
          </Trackpoint>
          <Trackpoint>
            <Time>2021-03-31T13:57:44.000Z</Time>
            <Position>
              <LatitudeDegrees>42.46080377139151096343994140625</LatitudeDegrees>
              <LongitudeDegrees>2.8590832650661468505859375</LongitudeDegrees>
            </Position>
            <AltitudeMeters>366.399993896484375</AltitudeMeters>
            <DistanceMeters>1075.0413550032</DistanceMeters>
          </Trackpoint>
          <Trackpoint>
            <Time>2021-03-31T13:57:48.000Z</Time>
            <Position>
              <LatitudeDegrees>42.4607864208519458770751953125</LatitudeDegrees>
              <LongitudeDegrees>2.8590591251850128173828125</LongitudeDegrees>
            </Position>
            <AltitudeMeters>366.79998779296875</AltitudeMeters>
            <DistanceMeters>1077.8085746953</DistanceMeters>
          </Trackpoint>
          <Trackpoint>
            <Time>2021-03-31T13:57:54.000Z</Time>
            <Position>
              <LatitudeDegrees>42.46074132621288299560546875</LatitudeDegrees>
              <LongitudeDegrees>2.85901419818401336669921875</LongitudeDegrees>
            </Position>
            <AltitudeMeters>367.20001220703125</AltitudeMeters>
            <DistanceMeters>1084.0377189768</DistanceMeters>
          </Trackpoint>
          <Trackpoint>
            <Time>2021-03-31T13:57:56.000Z</Time>
            <Position>
              <LatitudeDegrees>42.4607277475297451019287109375</LatitudeDegrees>
              <LongitudeDegrees>2.85900640301406383514404296875</LongitudeDegrees>
            </Position>
            <AltitudeMeters>367.399993896484375</AltitudeMeters>
            <DistanceMeters>1085.678134406</DistanceMeters>
          </Trackpoint>
          <Trackpoint>
            <Time>2021-03-31T13:57:57.000Z</Time>
            <Position>
              <LatitudeDegrees>42.46072380803525447845458984375</LatitudeDegrees>
              <LongitudeDegrees>2.85900288261473178863525390625</LongitudeDegrees>
            </Position>
            <AltitudeMeters>367.600006103515625</AltitudeMeters>
            <DistanceMeters>1086.1986171563</DistanceMeters>
          </Trackpoint>
          <Trackpoint>
            <Time>2021-03-31T13:57:58.000Z</Time>
            <Position>
              <LatitudeDegrees>42.4607227183878421783447265625</LatitudeDegrees>
              <LongitudeDegrees>2.85900053568184375762939453125</LongitudeDegrees>
            </Position>
            <AltitudeMeters>367.600006103515625</AltitudeMeters>
            <DistanceMeters>1086.4313841184</DistanceMeters>
          </Trackpoint>
          <Trackpoint>
            <Time>2021-03-31T13:58:02.000Z</Time>
            <Position>
              <LatitudeDegrees>42.460714839398860931396484375</LatitudeDegrees>
              <LongitudeDegrees>2.858969271183013916015625</LongitudeDegrees>
            </Position>
            <AltitudeMeters>368.399993896484375</AltitudeMeters>
            <DistanceMeters>1089.1458900363</DistanceMeters>
          </Trackpoint>
          <Trackpoint>
            <Time>2021-03-31T13:58:04.000Z</Time>
            <Position>
              <LatitudeDegrees>42.46070444583892822265625</LatitudeDegrees>
              <LongitudeDegrees>2.85895376466214656829833984375</LongitudeDegrees>
            </Position>
            <AltitudeMeters>368.79998779296875</AltitudeMeters>
            <DistanceMeters>1090.8668970304</DistanceMeters>
          </Trackpoint>
          <Trackpoint>
            <Time>2021-03-31T13:58:13.000Z</Time>
            <Position>
              <LatitudeDegrees>42.46065759100019931793212890625</LatitudeDegrees>
              <LongitudeDegrees>2.85887070000171661376953125</LongitudeDegrees>
            </Position>
            <AltitudeMeters>369.20001220703125</AltitudeMeters>
            <DistanceMeters>1099.453022122</DistanceMeters>
          </Trackpoint>
          <Trackpoint>
            <Time>2021-03-31T13:58:16.000Z</Time>
            <Position>
              <LatitudeDegrees>42.46064334176480770111083984375</LatitudeDegrees>
              <LongitudeDegrees>2.8588457219302654266357421875</LongitudeDegrees>
            </Position>
            <AltitudeMeters>369.600006103515625</AltitudeMeters>
            <DistanceMeters>1102.0450053152</DistanceMeters>
          </Trackpoint>
          <Trackpoint>
            <Time>2021-03-31T13:58:17.000Z</Time>
            <Position>
              <LatitudeDegrees>42.46063814498484134674072265625</LatitudeDegrees>
              <LongitudeDegrees>2.85884127952158451080322265625</LongitudeDegrees>
            </Position>
            <AltitudeMeters>369.79998779296875</AltitudeMeters>
            <DistanceMeters>1102.7368102383</DistanceMeters>
          </Trackpoint>
          <Trackpoint>
            <Time>2021-03-31T13:58:20.000Z</Time>
            <Position>
              <LatitudeDegrees>42.46062490157783031463623046875</LatitudeDegrees>
              <LongitudeDegrees>2.85882107913494110107421875</LongitudeDegrees>
            </Position>
            <AltitudeMeters>370.20001220703125</AltitudeMeters>
            <DistanceMeters>1104.9572655381</DistanceMeters>
          </Trackpoint>
          <Trackpoint>
            <Time>2021-03-31T13:58:28.000Z</Time>
            <Position>
              <LatitudeDegrees>42.46058969758450984954833984375</LatitudeDegrees>
              <LongitudeDegrees>2.85877011716365814208984375</LongitudeDegrees>
            </Position>
            <AltitudeMeters>370.79998779296875</AltitudeMeters>
            <DistanceMeters>1110.6904564695</DistanceMeters>
          </Trackpoint>
          <Trackpoint>
            <Time>2021-03-31T13:58:35.000Z</Time>
            <Position>
              <LatitudeDegrees>42.46056354604661464691162109375</LatitudeDegrees>
              <LongitudeDegrees>2.85870834253728389739990234375</LongitudeDegrees>
            </Position>
            <AltitudeMeters>371.399993896484375</AltitudeMeters>
            <DistanceMeters>1116.5382679826</DistanceMeters>
          </Trackpoint>
          <Trackpoint>
            <Time>2021-03-31T13:58:36.000Z</Time>
            <Position>
              <LatitudeDegrees>42.460560612380504608154296875</LatitudeDegrees>
              <LongitudeDegrees>2.85870096646249294281005859375</LongitudeDegrees>
            </Position>
            <AltitudeMeters>371.399993896484375</AltitudeMeters>
            <DistanceMeters>1117.2300729057</DistanceMeters>
          </Trackpoint>
          <Trackpoint>
            <Time>2021-03-31T13:58:39.000Z</Time>
            <Position>
              <LatitudeDegrees>42.4605490453541278839111328125</LatitudeDegrees>
              <LongitudeDegrees>2.8586794249713420867919921875</LongitudeDegrees>
            </Position>
            <AltitudeMeters>371.79998779296875</AltitudeMeters>
            <DistanceMeters>1119.4218759689</DistanceMeters>
          </Trackpoint>
          <Trackpoint>
            <Time>2021-03-31T13:58:44.000Z</Time>
            <Position>
              <LatitudeDegrees>42.460511662065982818603515625</LatitudeDegrees>
              <LongitudeDegrees>2.8586703725159168243408203125</LongitudeDegrees>
            </Position>
            <AltitudeMeters>372.600006103515625</AltitudeMeters>
            <DistanceMeters>1123.650297821</DistanceMeters>
          </Trackpoint>
          <Trackpoint>
            <Time>2021-03-31T13:58:46.000Z</Time>
            <Position>
              <LatitudeDegrees>42.4604940600693225860595703125</LatitudeDegrees>
              <LongitudeDegrees>2.85866324789822101593017578125</LongitudeDegrees>
            </Position>
            <AltitudeMeters>372.79998779296875</AltitudeMeters>
            <DistanceMeters>1125.6972358928</DistanceMeters>
          </Trackpoint>
          <Trackpoint>
            <Time>2021-03-31T13:58:52.000Z</Time>
            <Position>
              <LatitudeDegrees>42.46046413667500019073486328125</LatitudeDegrees>
              <LongitudeDegrees>2.85863525234162807464599609375</LongitudeDegrees>
            </Position>
            <AltitudeMeters>373.79998779296875</AltitudeMeters>
            <DistanceMeters>1129.7445261801</DistanceMeters>
          </Trackpoint>
          <Trackpoint>
            <Time>2021-03-31T13:58:53.000Z</Time>
            <Position>
              <LatitudeDegrees>42.46046078391373157501220703125</LatitudeDegrees>
              <LongitudeDegrees>2.85862787626683712005615234375</LongitudeDegrees>
            </Position>
            <AltitudeMeters>373.79998779296875</AltitudeMeters>
            <DistanceMeters>1130.4619621405</DistanceMeters>
          </Trackpoint>
          <Trackpoint>
            <Time>2021-03-31T13:58:57.000Z</Time>
            <Position>
              <LatitudeDegrees>42.460438571870326995849609375</LatitudeDegrees>
              <LongitudeDegrees>2.85859535448253154754638671875</LongitudeDegrees>
            </Position>
            <AltitudeMeters>374.399993896484375</AltitudeMeters>
            <DistanceMeters>1134.1016217597</DistanceMeters>
          </Trackpoint>
          <Trackpoint>
            <Time>2021-03-31T13:59:00.000Z</Time>
            <Position>
              <LatitudeDegrees>42.46042189188301563262939453125</LatitudeDegrees>
              <LongitudeDegrees>2.8585764952003955841064453125</LongitudeDegrees>
            </Position>
            <AltitudeMeters>374.600006103515625</AltitudeMeters>
            <DistanceMeters>1136.5206069882</DistanceMeters>
          </Trackpoint>
          <Trackpoint>
            <Time>2021-03-31T13:59:02.000Z</Time>
            <Position>
              <LatitudeDegrees>42.46040730737149715423583984375</LatitudeDegrees>
              <LongitudeDegrees>2.8585624136030673980712890625</LongitudeDegrees>
            </Position>
            <AltitudeMeters>375</AltitudeMeters>
            <DistanceMeters>1138.513904165</DistanceMeters>
          </Trackpoint>
          <Trackpoint>
            <Time>2021-03-31T13:59:04.000Z</Time>
            <Position>
              <LatitudeDegrees>42.46039490215480327606201171875</LatitudeDegrees>
              <LongitudeDegrees>2.85855394788086414337158203125</LongitudeDegrees>
            </Position>
            <AltitudeMeters>375.20001220703125</AltitudeMeters>
            <DistanceMeters>1140.0579055191</DistanceMeters>
          </Trackpoint>
          <Trackpoint>
            <Time>2021-03-31T13:59:08.000Z</Time>
            <Position>
              <LatitudeDegrees>42.4603676609694957733154296875</LatitudeDegrees>
              <LongitudeDegrees>2.858535759150981903076171875</LongitudeDegrees>
            </Position>
            <AltitudeMeters>376</AltitudeMeters>
            <DistanceMeters>1143.4377053211</DistanceMeters>
          </Trackpoint>
          <Trackpoint>
            <Time>2021-03-31T13:59:12.000Z</Time>
            <Position>
              <LatitudeDegrees>42.46034435927867889404296875</LatitudeDegrees>
              <LongitudeDegrees>2.858483791351318359375</LongitudeDegrees>
            </Position>
            <AltitudeMeters>377</AltitudeMeters>
            <DistanceMeters>1148.4318089582</DistanceMeters>
          </Trackpoint>
          <Trackpoint>
            <Time>2021-03-31T13:59:17.000Z</Time>
            <Position>
              <LatitudeDegrees>42.4602935649454593658447265625</LatitudeDegrees>
              <LongitudeDegrees>2.85845252685248851776123046875</LongitudeDegrees>
            </Position>
            <AltitudeMeters>377.600006103515625</AltitudeMeters>
            <DistanceMeters>1154.641352131</DistanceMeters>
          </Trackpoint>
          <Trackpoint>
            <Time>2021-03-31T13:59:22.000Z</Time>
            <Position>
              <LatitudeDegrees>42.46025676839053630828857421875</LatitudeDegrees>
              <LongitudeDegrees>2.85841950215399265289306640625</LongitudeDegrees>
            </Position>
            <AltitudeMeters>378</AltitudeMeters>
            <DistanceMeters>1159.5524960082</DistanceMeters>
          </Trackpoint>
          <Trackpoint>
            <Time>2021-03-31T13:59:25.000Z</Time>
            <Position>
              <LatitudeDegrees>42.4602392502129077911376953125</LatitudeDegrees>
              <LongitudeDegrees>2.8583941049873828887939453125</LongitudeDegrees>
            </Position>
            <AltitudeMeters>378.399993896484375</AltitudeMeters>
            <DistanceMeters>1162.4064632386</DistanceMeters>
          </Trackpoint>
          <Trackpoint>
            <Time>2021-03-31T13:59:27.000Z</Time>
            <Position>
              <LatitudeDegrees>42.46022994630038738250732421875</LatitudeDegrees>
              <LongitudeDegrees>2.85837180912494659423828125</LongitudeDegrees>
            </Position>
            <AltitudeMeters>378.600006103515625</AltitudeMeters>
            <DistanceMeters>1164.5078216995</DistanceMeters>
          </Trackpoint>
          <Trackpoint>
            <Time>2021-03-31T13:59:31.000Z</Time>
            <Position>
              <LatitudeDegrees>42.46021452359855175018310546875</LatitudeDegrees>
              <LongitudeDegrees>2.85832880996167659759521484375</LongitudeDegrees>
            </Position>
            <AltitudeMeters>379.20001220703125</AltitudeMeters>
            <DistanceMeters>1168.4327816246</DistanceMeters>
          </Trackpoint>
          <Trackpoint>
            <Time>2021-03-31T13:59:36.000Z</Time>
            <Position>
              <LatitudeDegrees>42.460192143917083740234375</LatitudeDegrees>
              <LongitudeDegrees>2.8582945279777050018310546875</LongitudeDegrees>
            </Position>
            <AltitudeMeters>379.79998779296875</AltitudeMeters>
            <DistanceMeters>1172.1908448968</DistanceMeters>
          </Trackpoint>
          <Trackpoint>
            <Time>2021-03-31T13:59:39.000Z</Time>
            <Position>
              <LatitudeDegrees>42.46017462573945522308349609375</LatitudeDegrees>
              <LongitudeDegrees>2.85827516578137874603271484375</LongitudeDegrees>
            </Position>
            <AltitudeMeters>380.20001220703125</AltitudeMeters>
            <DistanceMeters>1174.7050154381</DistanceMeters>
          </Trackpoint>
          <Trackpoint>
            <Time>2021-03-31T13:59:44.000Z</Time>
            <Position>
              <LatitudeDegrees>42.4601564370095729827880859375</LatitudeDegrees>
              <LongitudeDegrees>2.8582472540438175201416015625</LongitudeDegrees>
            </Position>
            <AltitudeMeters>381</AltitudeMeters>
            <DistanceMeters>1177.7636359108</DistanceMeters>
          </Trackpoint>
          <Trackpoint>
            <Time>2021-03-31T13:59:47.000Z</Time>
            <Position>
              <LatitudeDegrees>42.46014310978353023529052734375</LatitudeDegrees>
              <LongitudeDegrees>2.858234681189060211181640625</LongitudeDegrees>
            </Position>
            <AltitudeMeters>381.399993896484375</AltitudeMeters>
            <DistanceMeters>1179.5716424575</DistanceMeters>
          </Trackpoint>
          <Trackpoint>
            <Time>2021-03-31T13:59:52.000Z</Time>
            <Position>
              <LatitudeDegrees>42.4601155333220958709716796875</LatitudeDegrees>
              <LongitudeDegrees>2.85821146331727504730224609375</LongitudeDegrees>
            </Position>
            <AltitudeMeters>382</AltitudeMeters>
            <DistanceMeters>1183.1851574412</DistanceMeters>
          </Trackpoint>
          <Trackpoint>
            <Time>2021-03-31T13:59:54.000Z</Time>
            <Position>
              <LatitudeDegrees>42.4601051397621631622314453125</LatitudeDegrees>
              <LongitudeDegrees>2.85820760764181613922119140625</LongitudeDegrees>
            </Position>
            <AltitudeMeters>382.399993896484375</AltitudeMeters>
            <DistanceMeters>1184.3796247192</DistanceMeters>
          </Trackpoint>
          <Trackpoint>
            <Time>2021-03-31T13:59:58.000Z</Time>
            <Position>
              <LatitudeDegrees>42.46007882058620452880859375</LatitudeDegrees>
              <LongitudeDegrees>2.8581798635423183441162109375</LongitudeDegrees>
            </Position>
            <AltitudeMeters>383.20001220703125</AltitudeMeters>
            <DistanceMeters>1188.0905365448</DistanceMeters>
          </Trackpoint>
          <Trackpoint>
            <Time>2021-03-31T14:00:00.000Z</Time>
            <Position>
              <LatitudeDegrees>42.46006649918854236602783203125</LatitudeDegrees>
              <LongitudeDegrees>2.8581647761166095733642578125</LongitudeDegrees>
            </Position>
            <AltitudeMeters>383.600006103515625</AltitudeMeters>
            <DistanceMeters>1189.9380670305</DistanceMeters>
          </Trackpoint>
          <Trackpoint>
            <Time>2021-03-31T14:00:03.000Z</Time>
            <Position>
              <LatitudeDegrees>42.46004453860223293304443359375</LatitudeDegrees>
              <LongitudeDegrees>2.85814759321510791778564453125</LongitudeDegrees>
            </Position>
            <AltitudeMeters>383.79998779296875</AltitudeMeters>
            <DistanceMeters>1192.7602164638</DistanceMeters>
          </Trackpoint>
          <Trackpoint>
            <Time>2021-03-31T14:00:11.000Z</Time>
            <Position>
              <LatitudeDegrees>42.46000916697084903717041015625</LatitudeDegrees>
              <LongitudeDegrees>2.85811163485050201416015625</LongitudeDegrees>
            </Position>
            <AltitudeMeters>384.600006103515625</AltitudeMeters>
            <DistanceMeters>1197.6814627513</DistanceMeters>
          </Trackpoint>
          <Trackpoint>
            <Time>2021-03-31T14:00:13.000Z</Time>
            <Position>
              <LatitudeDegrees>42.4599981866776943206787109375</LatitudeDegrees>
              <LongitudeDegrees>2.85810048691928386688232421875</LongitudeDegrees>
            </Position>
            <AltitudeMeters>384.600006103515625</AltitudeMeters>
            <DistanceMeters>1199.207817796</DistanceMeters>
          </Trackpoint>
          <Trackpoint>
            <Time>2021-03-31T14:00:20.000Z</Time>
            <Position>
              <LatitudeDegrees>42.4599616415798664093017578125</LatitudeDegrees>
              <LongitudeDegrees>2.85806142725050449371337890625</LongitudeDegrees>
            </Position>
            <AltitudeMeters>385.600006103515625</AltitudeMeters>
            <DistanceMeters>1204.3882991628</DistanceMeters>
          </Trackpoint>
          <Trackpoint>
            <Time>2021-03-31T14:00:21.000Z</Time>
            <Position>
              <LatitudeDegrees>42.45995367877185344696044921875</LatitudeDegrees>
              <LongitudeDegrees>2.85806410945951938629150390625</LongitudeDegrees>
            </Position>
            <AltitudeMeters>385.600006103515625</AltitudeMeters>
            <DistanceMeters>1205.2997633875</DistanceMeters>
          </Trackpoint>
          <Trackpoint>
            <Time>2021-03-31T14:00:22.000Z</Time>
            <Position>
              <LatitudeDegrees>42.45994395576417446136474609375</LatitudeDegrees>
              <LongitudeDegrees>2.85806260071694850921630859375</LongitudeDegrees>
            </Position>
            <AltitudeMeters>385.79998779296875</AltitudeMeters>
            <DistanceMeters>1206.391537215</DistanceMeters>
          </Trackpoint>
          <Trackpoint>
            <Time>2021-03-31T14:00:27.000Z</Time>
            <Position>
              <LatitudeDegrees>42.45990447700023651123046875</LatitudeDegrees>
              <LongitudeDegrees>2.8580588288605213165283203125</LongitudeDegrees>
            </Position>
            <AltitudeMeters>386</AltitudeMeters>
            <DistanceMeters>1210.7977446948</DistanceMeters>
          </Trackpoint>
          <Trackpoint>
            <Time>2021-03-31T14:00:37.000Z</Time>
            <Position>
              <LatitudeDegrees>42.45983230881392955780029296875</LatitudeDegrees>
              <LongitudeDegrees>2.85806762985885143280029296875</LongitudeDegrees>
            </Position>
            <AltitudeMeters>386</AltitudeMeters>
            <DistanceMeters>1218.8632682799</DistanceMeters>
          </Trackpoint>
          <Trackpoint>
            <Time>2021-03-31T14:00:39.000Z</Time>
            <Position>
              <LatitudeDegrees>42.4598124437034130096435546875</LatitudeDegrees>
              <LongitudeDegrees>2.85806679166853427886962890625</LongitudeDegrees>
            </Position>
            <AltitudeMeters>386</AltitudeMeters>
            <DistanceMeters>1221.0755750924</DistanceMeters>
          </Trackpoint>
          <Trackpoint>
            <Time>2021-03-31T14:00:45.000Z</Time>
            <Position>
              <LatitudeDegrees>42.45975854806602001190185546875</LatitudeDegrees>
              <LongitudeDegrees>2.858058325946331024169921875</LongitudeDegrees>
            </Position>
            <AltitudeMeters>386.20001220703125</AltitudeMeters>
            <DistanceMeters>1227.1140723128</DistanceMeters>
          </Trackpoint>
          <Trackpoint>
            <Time>2021-03-31T14:00:47.000Z</Time>
            <Position>
              <LatitudeDegrees>42.45974128134548664093017578125</LatitudeDegrees>
              <LongitudeDegrees>2.85806327126920223236083984375</LongitudeDegrees>
            </Position>
            <AltitudeMeters>386.20001220703125</AltitudeMeters>
            <DistanceMeters>1229.0800002662</DistanceMeters>
          </Trackpoint>
          <Trackpoint>
            <Time>2021-03-31T14:00:50.000Z</Time>
            <Position>
              <LatitudeDegrees>42.4597246013581752777099609375</LatitudeDegrees>
              <LongitudeDegrees>2.8580685518682003021240234375</LongitudeDegrees>
            </Position>
            <AltitudeMeters>386.79998779296875</AltitudeMeters>
            <DistanceMeters>1230.985279965</DistanceMeters>
          </Trackpoint>
          <Trackpoint>
            <Time>2021-03-31T14:00:52.000Z</Time>
            <Position>
              <LatitudeDegrees>42.4597132019698619842529296875</LatitudeDegrees>
              <LongitudeDegrees>2.85807500593364238739013671875</LongitudeDegrees>
            </Position>
            <AltitudeMeters>387</AltitudeMeters>
            <DistanceMeters>1232.3557747298</DistanceMeters>
          </Trackpoint>
          <Trackpoint>
            <Time>2021-03-31T14:00:55.000Z</Time>
            <Position>
              <LatitudeDegrees>42.4596910737454891204833984375</LatitudeDegrees>
              <LongitudeDegrees>2.85809009335935115814208984375</LongitudeDegrees>
            </Position>
            <AltitudeMeters>387.79998779296875</AltitudeMeters>
            <DistanceMeters>1235.1131873514</DistanceMeters>
          </Trackpoint>
          <Trackpoint>
            <Time>2021-03-31T14:00:56.000Z</Time>
            <Position>
              <LatitudeDegrees>42.45968319475650787353515625</LatitudeDegrees>
              <LongitudeDegrees>2.8580933623015880584716796875</LongitudeDegrees>
            </Position>
            <AltitudeMeters>387.79998779296875</AltitudeMeters>
            <DistanceMeters>1236.0345055297</DistanceMeters>
          </Trackpoint>
          <Trackpoint>
            <Time>2021-03-31T14:01:02.000Z</Time>
            <Position>
              <LatitudeDegrees>42.45963281951844692230224609375</LatitudeDegrees>
              <LongitudeDegrees>2.8580799512565135955810546875</LongitudeDegrees>
            </Position>
            <AltitudeMeters>388.79998779296875</AltitudeMeters>
            <DistanceMeters>1241.7487645737</DistanceMeters>
          </Trackpoint>
          <Trackpoint>
            <Time>2021-03-31T14:01:04.000Z</Time>
            <Position>
              <LatitudeDegrees>42.45961840264499187469482421875</LatitudeDegrees>
              <LongitudeDegrees>2.858075760304927825927734375</LongitudeDegrees>
            </Position>
            <AltitudeMeters>389</AltitudeMeters>
            <DistanceMeters>1243.386425315</DistanceMeters>
          </Trackpoint>
          <Trackpoint>
            <Time>2021-03-31T14:01:06.000Z</Time>
            <Position>
              <LatitudeDegrees>42.459606416523456573486328125</LatitudeDegrees>
              <LongitudeDegrees>2.85807064734399318695068359375</LongitudeDegrees>
            </Position>
            <AltitudeMeters>389.399993896484375</AltitudeMeters>
            <DistanceMeters>1244.7830270879</DistanceMeters>
          </Trackpoint>
          <Trackpoint>
            <Time>2021-03-31T14:01:10.000Z</Time>
            <Position>
              <LatitudeDegrees>42.459580600261688232421875</LatitudeDegrees>
              <LongitudeDegrees>2.8580628521740436553955078125</LongitudeDegrees>
            </Position>
            <AltitudeMeters>389.79998779296875</AltitudeMeters>
            <DistanceMeters>1247.7273221455</DistanceMeters>
          </Trackpoint>
          <Trackpoint>
            <Time>2021-03-31T14:01:12.000Z</Time>
            <Position>
              <LatitudeDegrees>42.4595685303211212158203125</LatitudeDegrees>
              <LongitudeDegrees>2.8580559790134429931640625</LongitudeDegrees>
            </Position>
            <AltitudeMeters>390.399993896484375</AltitudeMeters>
            <DistanceMeters>1249.1871502315</DistanceMeters>
          </Trackpoint>
          <Trackpoint>
            <Time>2021-03-31T14:01:16.000Z</Time>
            <Position>
              <LatitudeDegrees>42.45955537073314189910888671875</LatitudeDegrees>
              <LongitudeDegrees>2.858051620423793792724609375</LongitudeDegrees>
            </Position>
            <AltitudeMeters>390.79998779296875</AltitudeMeters>
            <DistanceMeters>1250.6956525563</DistanceMeters>
          </Trackpoint>
          <Trackpoint>
            <Time>2021-03-31T14:01:19.000Z</Time>
            <Position>
              <LatitudeDegrees>42.45953458361327648162841796875</LatitudeDegrees>
              <LongitudeDegrees>2.85803477279841899871826171875</LongitudeDegrees>
            </Position>
            <AltitudeMeters>391</AltitudeMeters>
            <DistanceMeters>1253.3918000926</DistanceMeters>
          </Trackpoint>
          <Trackpoint>
            <Time>2021-03-31T14:01:26.000Z</Time>
            <Position>
              <LatitudeDegrees>42.459517903625965118408203125</LatitudeDegrees>
              <LongitudeDegrees>2.8580025024712085723876953125</LongitudeDegrees>
            </Position>
            <AltitudeMeters>391.600006103515625</AltitudeMeters>
            <DistanceMeters>1256.6268980198</DistanceMeters>
          </Trackpoint>
          <Trackpoint>
            <Time>2021-03-31T14:01:33.000Z</Time>
            <Position>
              <LatitudeDegrees>42.459496445953845977783203125</LatitudeDegrees>
              <LongitudeDegrees>2.857944667339324951171875</LongitudeDegrees>
            </Position>
            <AltitudeMeters>391.399993896484375</AltitudeMeters>
            <DistanceMeters>1261.9433008703</DistanceMeters>
          </Trackpoint>
          <Trackpoint>
            <Time>2021-03-31T14:01:34.000Z</Time>
            <Position>
              <LatitudeDegrees>42.45949200354516506195068359375</LatitudeDegrees>
              <LongitudeDegrees>2.85793821327388286590576171875</LongitudeDegrees>
            </Position>
            <AltitudeMeters>391.399993896484375</AltitudeMeters>
            <DistanceMeters>1262.667002766</DistanceMeters>
          </Trackpoint>
          <Trackpoint>
            <Time>2021-03-31T14:01:39.000Z</Time>
            <Position>
              <LatitudeDegrees>42.45947574265301227569580078125</LatitudeDegrees>
              <LongitudeDegrees>2.85790787078440189361572265625</LongitudeDegrees>
            </Position>
            <AltitudeMeters>391.600006103515625</AltitudeMeters>
            <DistanceMeters>1265.7447535989</DistanceMeters>
          </Trackpoint>
          <Trackpoint>
            <Time>2021-03-31T14:01:41.000Z</Time>
            <Position>
              <LatitudeDegrees>42.4594692885875701904296875</LatitudeDegrees>
              <LongitudeDegrees>2.857898734509944915771484375</LongitudeDegrees>
            </Position>
            <AltitudeMeters>391.79998779296875</AltitudeMeters>
            <DistanceMeters>1266.7857190994</DistanceMeters>
          </Trackpoint>
          <Trackpoint>
            <Time>2021-03-31T14:01:44.000Z</Time>
            <Position>
              <LatitudeDegrees>42.45945428498089313507080078125</LatitudeDegrees>
              <LongitudeDegrees>2.8578670509159564971923828125</LongitudeDegrees>
            </Position>
            <AltitudeMeters>392.20001220703125</AltitudeMeters>
            <DistanceMeters>1269.8766446692</DistanceMeters>
          </Trackpoint>
          <Trackpoint>
            <Time>2021-03-31T14:01:51.000Z</Time>
            <Position>
              <LatitudeDegrees>42.45943198911845684051513671875</LatitudeDegrees>
              <LongitudeDegrees>2.85776252858340740203857421875</LongitudeDegrees>
            </Position>
            <AltitudeMeters>392.399993896484375</AltitudeMeters>
            <DistanceMeters>1278.8111774362</DistanceMeters>
          </Trackpoint>
          <Trackpoint>
            <Time>2021-03-31T14:01:55.000Z</Time>
            <Position>
              <LatitudeDegrees>42.45940969325602054595947265625</LatitudeDegrees>
              <LongitudeDegrees>2.85772548057138919830322265625</LongitudeDegrees>
            </Position>
            <AltitudeMeters>392.399993896484375</AltitudeMeters>
            <DistanceMeters>1282.7384373673</DistanceMeters>
          </Trackpoint>
          <Trackpoint>
            <Time>2021-03-31T14:02:01.000Z</Time>
            <Position>
              <LatitudeDegrees>42.4593832902610301971435546875</LatitudeDegrees>
              <LongitudeDegrees>2.85765524022281169891357421875</LongitudeDegrees>
            </Position>
            <AltitudeMeters>393</AltitudeMeters>
            <DistanceMeters>1289.2128187935</DistanceMeters>
          </Trackpoint>
          <Trackpoint>
            <Time>2021-03-31T14:02:09.000Z</Time>
            <Position>
              <LatitudeDegrees>42.4593296460807323455810546875</LatitudeDegrees>
              <LongitudeDegrees>2.8576025180518627166748046875</LongitudeDegrees>
            </Position>
            <AltitudeMeters>393</AltitudeMeters>
            <DistanceMeters>1296.5882632207</DistanceMeters>
          </Trackpoint>
          <Trackpoint>
            <Time>2021-03-31T14:02:12.000Z</Time>
            <Position>
              <LatitudeDegrees>42.4593229405581951141357421875</LatitudeDegrees>
              <LongitudeDegrees>2.85757795907557010650634765625</LongitudeDegrees>
            </Position>
            <AltitudeMeters>392.79998779296875</AltitudeMeters>
            <DistanceMeters>1298.7363714728</DistanceMeters>
          </Trackpoint>
          <Trackpoint>
            <Time>2021-03-31T14:02:19.000Z</Time>
            <Position>
              <LatitudeDegrees>42.45931615121662616729736328125</LatitudeDegrees>
              <LongitudeDegrees>2.85756186582148075103759765625</LongitudeDegrees>
            </Position>
            <AltitudeMeters>392.399993896484375</AltitudeMeters>
            <DistanceMeters>1300.2567989028</DistanceMeters>
          </Trackpoint>
          <Trackpoint>
            <Time>2021-03-31T14:02:24.000Z</Time>
            <Position>
              <LatitudeDegrees>42.45929150842130184173583984375</LatitudeDegrees>
              <LongitudeDegrees>2.85754300653934478759765625</LongitudeDegrees>
            </Position>
            <AltitudeMeters>392.399993896484375</AltitudeMeters>
            <DistanceMeters>1303.4070455617</DistanceMeters>
          </Trackpoint>
          <Trackpoint>
            <Time>2021-03-31T14:02:27.000Z</Time>
            <Position>
              <LatitudeDegrees>42.45926870964467525482177734375</LatitudeDegrees>
              <LongitudeDegrees>2.85754610784351825714111328125</LongitudeDegrees>
            </Position>
            <AltitudeMeters>392.600006103515625</AltitudeMeters>
            <DistanceMeters>1305.9568798778</DistanceMeters>
          </Trackpoint>
          <Trackpoint>
            <Time>2021-03-31T14:02:35.000Z</Time>
            <Position>
              <LatitudeDegrees>42.459231577813625335693359375</LatitudeDegrees>
              <LongitudeDegrees>2.8575877659022808074951171875</LongitudeDegrees>
            </Position>
            <AltitudeMeters>393.600006103515625</AltitudeMeters>
            <DistanceMeters>1311.321472465</DistanceMeters>
          </Trackpoint>
          <Trackpoint>
            <Time>2021-03-31T14:02:37.000Z</Time>
            <Position>
              <LatitudeDegrees>42.4592350982129573822021484375</LatitudeDegrees>
              <LongitudeDegrees>2.85760830156505107879638671875</LongitudeDegrees>
            </Position>
            <AltitudeMeters>393.79998779296875</AltitudeMeters>
            <DistanceMeters>1313.052941604</DistanceMeters>
          </Trackpoint>
          <Trackpoint>
            <Time>2021-03-31T14:02:39.000Z</Time>
            <Position>
              <LatitudeDegrees>42.45924004353582859039306640625</LatitudeDegrees>
              <LongitudeDegrees>2.85763361491262912750244140625</LongitudeDegrees>
            </Position>
            <AltitudeMeters>394</AltitudeMeters>
            <DistanceMeters>1315.1989469597</DistanceMeters>
          </Trackpoint>
          <Trackpoint>
            <Time>2021-03-31T14:02:45.000Z</Time>
            <Position>
              <LatitudeDegrees>42.4592169933021068572998046875</LatitudeDegrees>
              <LongitudeDegrees>2.85767703317105770111083984375</LongitudeDegrees>
            </Position>
            <AltitudeMeters>395</AltitudeMeters>
            <DistanceMeters>1319.5918131494</DistanceMeters>
          </Trackpoint>
          <Trackpoint>
            <Time>2021-03-31T14:02:46.000Z</Time>
            <Position>
              <LatitudeDegrees>42.45920886285603046417236328125</LatitudeDegrees>
              <LongitudeDegrees>2.85767921246588230133056640625</LongitudeDegrees>
            </Position>
            <AltitudeMeters>395</AltitudeMeters>
            <DistanceMeters>1320.5228809979</DistanceMeters>
          </Trackpoint>
          <Trackpoint>
            <Time>2021-03-31T14:02:52.000Z</Time>
            <Position>
              <LatitudeDegrees>42.459167204797267913818359375</LatitudeDegrees>
              <LongitudeDegrees>2.85771709866821765899658203125</LongitudeDegrees>
            </Position>
            <AltitudeMeters>396</AltitudeMeters>
            <DistanceMeters>1326.106862907</DistanceMeters>
          </Trackpoint>
          <Trackpoint>
            <Time>2021-03-31T14:02:53.000Z</Time>
            <Position>
              <LatitudeDegrees>42.459161840379238128662109375</LatitudeDegrees>
              <LongitudeDegrees>2.8577265702188014984130859375</LongitudeDegrees>
            </Position>
            <AltitudeMeters>396.20001220703125</AltitudeMeters>
            <DistanceMeters>1327.0852228117</DistanceMeters>
          </Trackpoint>
          <Trackpoint>
            <Time>2021-03-31T14:02:58.000Z</Time>
            <Position>
              <LatitudeDegrees>42.4591881595551967620849609375</LatitudeDegrees>
              <LongitudeDegrees>2.8577765263617038726806640625</LongitudeDegrees>
            </Position>
            <AltitudeMeters>397.20001220703125</AltitudeMeters>
            <DistanceMeters>1332.1270146747</DistanceMeters>
          </Trackpoint>
          <Trackpoint>
            <Time>2021-03-31T14:02:59.000Z</Time>
            <Position>
              <LatitudeDegrees>42.45919377543032169342041015625</LatitudeDegrees>
              <LongitudeDegrees>2.857791446149349212646484375</LongitudeDegrees>
            </Position>
            <AltitudeMeters>397.399993896484375</AltitudeMeters>
            <DistanceMeters>1333.5040825936</DistanceMeters>
          </Trackpoint>
          <Trackpoint>
            <Time>2021-03-31T14:03:00.000Z</Time>
            <Position>
              <LatitudeDegrees>42.4591962061822414398193359375</LatitudeDegrees>
              <LongitudeDegrees>2.85780091769993305206298828125</LongitudeDegrees>
            </Position>
            <AltitudeMeters>397.600006103515625</AltitudeMeters>
            <DistanceMeters>1334.3325062833</DistanceMeters>
          </Trackpoint>
          <Trackpoint>
            <Time>2021-03-31T14:03:04.000Z</Time>
            <Position>
              <LatitudeDegrees>42.4591804482042789459228515625</LatitudeDegrees>
              <LongitudeDegrees>2.85780041478574275970458984375</LongitudeDegrees>
            </Position>
            <AltitudeMeters>398.20001220703125</AltitudeMeters>
            <DistanceMeters>1336.0847123188</DistanceMeters>
          </Trackpoint>
          <Trackpoint>
            <Time>2021-03-31T14:03:05.000Z</Time>
            <Position>
              <LatitudeDegrees>42.45917784981429576873779296875</LatitudeDegrees>
              <LongitudeDegrees>2.85779588855803012847900390625</LongitudeDegrees>
            </Position>
            <AltitudeMeters>398.399993896484375</AltitudeMeters>
            <DistanceMeters>1336.5502462431</DistanceMeters>
          </Trackpoint>
          <Trackpoint>
            <Time>2021-03-31T14:03:07.000Z</Time>
            <Position>
              <LatitudeDegrees>42.4591740779578685760498046875</LatitudeDegrees>
              <LongitudeDegrees>2.85778868012130260467529296875</LongitudeDegrees>
            </Position>
            <AltitudeMeters>398.399993896484375</AltitudeMeters>
            <DistanceMeters>1337.2739481388</DistanceMeters>
          </Trackpoint>
          <Trackpoint>
            <Time>2021-03-31T14:03:09.000Z</Time>
            <Position>
              <LatitudeDegrees>42.45917013846337795257568359375</LatitudeDegrees>
              <LongitudeDegrees>2.85779739730060100555419921875</LongitudeDegrees>
            </Position>
            <AltitudeMeters>398.600006103515625</AltitudeMeters>
            <DistanceMeters>1338.113201356</DistanceMeters>
          </Trackpoint>
          <Trackpoint>
            <Time>2021-03-31T14:03:13.000Z</Time>
            <Position>
              <LatitudeDegrees>42.4591519497334957122802734375</LatitudeDegrees>
              <LongitudeDegrees>2.8578040190041065216064453125</LongitudeDegrees>
            </Position>
            <AltitudeMeters>399.20001220703125</AltitudeMeters>
            <DistanceMeters>1340.2081040152</DistanceMeters>
          </Trackpoint>
          <Trackpoint>
            <Time>2021-03-31T14:03:14.000Z</Time>
            <Position>
              <LatitudeDegrees>42.45914365164935588836669921875</LatitudeDegrees>
              <LongitudeDegrees>2.85780678503215312957763671875</LongitudeDegrees>
            </Position>
            <AltitudeMeters>399.399993896484375</AltitudeMeters>
            <DistanceMeters>1341.1583711589</DistanceMeters>
          </Trackpoint>
          <Trackpoint>
            <Time>2021-03-31T14:03:16.000Z</Time>
            <Position>
              <LatitudeDegrees>42.45912454091012477874755859375</LatitudeDegrees>
              <LongitudeDegrees>2.8577984869480133056640625</LongitudeDegrees>
            </Position>
            <AltitudeMeters>399.600006103515625</AltitudeMeters>
            <DistanceMeters>1343.3909934282</DistanceMeters>
          </Trackpoint>
          <Trackpoint>
            <Time>2021-03-31T14:03:20.000Z</Time>
            <Position>
              <LatitudeDegrees>42.4591093696653842926025390625</LatitudeDegrees>
              <LongitudeDegrees>2.857806198298931121826171875</LongitudeDegrees>
            </Position>
            <AltitudeMeters>400.20001220703125</AltitudeMeters>
            <DistanceMeters>1345.1989999748</DistanceMeters>
          </Trackpoint>
          <Trackpoint>
            <Time>2021-03-31T14:03:22.000Z</Time>
            <Position>
              <LatitudeDegrees>42.45910258032381534576416015625</LatitudeDegrees>
              <LongitudeDegrees>2.8578107245266437530517578125</LongitudeDegrees>
            </Position>
            <AltitudeMeters>400.600006103515625</AltitudeMeters>
            <DistanceMeters>1346.043615887</DistanceMeters>
          </Trackpoint>
          <Trackpoint>
            <Time>2021-03-31T14:03:23.000Z</Time>
            <Position>
              <LatitudeDegrees>42.45909822173416614532470703125</LatitudeDegrees>
              <LongitudeDegrees>2.857814915478229522705078125</LongitudeDegrees>
            </Position>
            <AltitudeMeters>400.600006103515625</AltitudeMeters>
            <DistanceMeters>1346.637057528</DistanceMeters>
          </Trackpoint>
          <Trackpoint>
            <Time>2021-03-31T14:03:28.000Z</Time>
            <Position>
              <LatitudeDegrees>42.4590845592319965362548828125</LatitudeDegrees>
              <LongitudeDegrees>2.85783880390226840972900390625</LongitudeDegrees>
            </Position>
            <AltitudeMeters>401.600006103515625</AltitudeMeters>
            <DistanceMeters>1349.1186925001</DistanceMeters>
          </Trackpoint>
          <Trackpoint>
            <Time>2021-03-31T14:03:32.000Z</Time>
            <Position>
              <LatitudeDegrees>42.459077350795269012451171875</LatitudeDegrees>
              <LongitudeDegrees>2.85786545835435390472412109375</LongitudeDegrees>
            </Position>
            <AltitudeMeters>402</AltitudeMeters>
            <DistanceMeters>1351.4502383434</DistanceMeters>
          </Trackpoint>
          <Trackpoint>
            <Time>2021-03-31T14:03:35.000Z</Time>
            <Position>
              <LatitudeDegrees>42.459065280854701995849609375</LatitudeDegrees>
              <LongitudeDegrees>2.85787082277238368988037109375</LongitudeDegrees>
            </Position>
            <AltitudeMeters>402.600006103515625</AltitudeMeters>
            <DistanceMeters>1352.862912012</DistanceMeters>
          </Trackpoint>
          <Trackpoint>
            <Time>2021-03-31T14:03:39.000Z</Time>
            <Position>
              <LatitudeDegrees>42.45903678238391876220703125</LatitudeDegrees>
              <LongitudeDegrees>2.8578740917146205902099609375</LongitudeDegrees>
            </Position>
            <AltitudeMeters>403.600006103515625</AltitudeMeters>
            <DistanceMeters>1356.0459523464</DistanceMeters>
          </Trackpoint>
          <Trackpoint>
            <Time>2021-03-31T14:03:40.000Z</Time>
            <Position>
              <LatitudeDegrees>42.4590347707271575927734375</LatitudeDegrees>
              <LongitudeDegrees>2.8578714095056056976318359375</LongitudeDegrees>
            </Position>
            <AltitudeMeters>403.79998779296875</AltitudeMeters>
            <DistanceMeters>1356.3464532024</DistanceMeters>
          </Trackpoint>
          <Trackpoint>
            <Time>2021-03-31T14:03:46.000Z</Time>
            <Position>
              <LatitudeDegrees>42.459014318883419036865234375</LatitudeDegrees>
              <LongitudeDegrees>2.85787937231361865997314453125</LongitudeDegrees>
            </Position>
            <AltitudeMeters>404.600006103515625</AltitudeMeters>
            <DistanceMeters>1358.7125993084</DistanceMeters>
          </Trackpoint>
          <Trackpoint>
            <Time>2021-03-31T14:03:48.000Z</Time>
            <Position>
              <LatitudeDegrees>42.4590138159692287445068359375</LatitudeDegrees>
              <LongitudeDegrees>2.85787769593298435211181640625</LongitudeDegrees>
            </Position>
            <AltitudeMeters>404.79998779296875</AltitudeMeters>
            <DistanceMeters>1358.8771904058</DistanceMeters>
          </Trackpoint>
          <Trackpoint>
            <Time>2021-03-31T14:03:49.000Z</Time>
            <Position>
              <LatitudeDegrees>42.45901507325470447540283203125</LatitudeDegrees>
              <LongitudeDegrees>2.85787736065685749053955078125</LongitudeDegrees>
            </Position>
            <AltitudeMeters>404.79998779296875</AltitudeMeters>
            <DistanceMeters>1359.011578474</DistanceMeters>
          </Trackpoint>
          <Trackpoint>
            <Time>2021-03-31T14:03:53.000Z</Time>
            <Position>
              <LatitudeDegrees>42.459006942808628082275390625</LatitudeDegrees>
              <LongitudeDegrees>2.85787652246654033660888671875</LongitudeDegrees>
            </Position>
            <AltitudeMeters>405</AltitudeMeters>
            <DistanceMeters>1359.9180755542</DistanceMeters>
          </Trackpoint>
          <Trackpoint>
            <Time>2021-03-31T14:04:00.000Z</Time>
            <Position>
              <LatitudeDegrees>42.459006942808628082275390625</LatitudeDegrees>
              <LongitudeDegrees>2.85787652246654033660888671875</LongitudeDegrees>
            </Position>
            <AltitudeMeters>405.79998779296875</AltitudeMeters>
            <DistanceMeters>1359.9180755542</DistanceMeters>
          </Trackpoint>
          <Trackpoint>
            <Time>2021-03-31T14:04:04.000Z</Time>
            <Position>
              <LatitudeDegrees>42.459006942808628082275390625</LatitudeDegrees>
              <LongitudeDegrees>2.85787736065685749053955078125</LongitudeDegrees>
            </Position>
            <AltitudeMeters>406.399993896484375</AltitudeMeters>
            <DistanceMeters>1359.9180755542</DistanceMeters>
          </Trackpoint>
          <Trackpoint>
            <Time>2021-03-31T14:04:05.000Z</Time>
            <Position>
              <LatitudeDegrees>42.459006942808628082275390625</LatitudeDegrees>
              <LongitudeDegrees>2.85787769593298435211181640625</LongitudeDegrees>
            </Position>
            <AltitudeMeters>406.600006103515625</AltitudeMeters>
            <DistanceMeters>1359.9180755542</DistanceMeters>
          </Trackpoint>
          <Trackpoint>
            <Time>2021-03-31T14:04:07.000Z</Time>
            <Position>
              <LatitudeDegrees>42.459006942808628082275390625</LatitudeDegrees>
              <LongitudeDegrees>2.85787920467555522918701171875</LongitudeDegrees>
            </Position>
            <AltitudeMeters>407</AltitudeMeters>
            <DistanceMeters>1360.0131022686</DistanceMeters>
          </Trackpoint>
          <Trackpoint>
            <Time>2021-03-31T14:04:12.000Z</Time>
            <Position>
              <LatitudeDegrees>42.45899914763867855072021484375</LatitudeDegrees>
              <LongitudeDegrees>2.85789932124316692352294921875</LongitudeDegrees>
            </Position>
            <AltitudeMeters>408.20001220703125</AltitudeMeters>
            <DistanceMeters>1361.8752379657</DistanceMeters>
          </Trackpoint>
          <Trackpoint>
            <Time>2021-03-31T14:04:24.000Z</Time>
            <Position>
              <LatitudeDegrees>42.4589543044567108154296875</LatitudeDegrees>
              <LongitudeDegrees>2.857957072556018829345703125</LongitudeDegrees>
            </Position>
            <AltitudeMeters>409.20001220703125</AltitudeMeters>
            <DistanceMeters>1368.759265942</DistanceMeters>
          </Trackpoint>
          <Trackpoint>
            <Time>2021-03-31T14:04:26.000Z</Time>
            <Position>
              <LatitudeDegrees>42.45894550345838069915771484375</LatitudeDegrees>
              <LongitudeDegrees>2.85796754993498325347900390625</LongitudeDegrees>
            </Position>
            <AltitudeMeters>409.79998779296875</AltitudeMeters>
            <DistanceMeters>1370.058736717</DistanceMeters>
          </Trackpoint>
          <Trackpoint>
            <Time>2021-03-31T14:04:29.000Z</Time>
            <Position>
              <LatitudeDegrees>42.458931840956211090087890625</LatitudeDegrees>
              <LongitudeDegrees>2.857985235750675201416015625</LongitudeDegrees>
            </Position>
            <AltitudeMeters>410.20001220703125</AltitudeMeters>
            <DistanceMeters>1372.1622427088</DistanceMeters>
          </Trackpoint>
          <Trackpoint>
            <Time>2021-03-31T14:04:30.000Z</Time>
            <Position>
              <LatitudeDegrees>42.458927817642688751220703125</LatitudeDegrees>
              <LongitudeDegrees>2.857992947101593017578125</LongitudeDegrees>
            </Position>
            <AltitudeMeters>410.399993896484375</AltitudeMeters>
            <DistanceMeters>1372.94585307</DistanceMeters>
          </Trackpoint>
          <Trackpoint>
            <Time>2021-03-31T14:04:37.000Z</Time>
            <Position>
              <LatitudeDegrees>42.45890803635120391845703125</LatitudeDegrees>
              <LongitudeDegrees>2.85803309641778469085693359375</LongitudeDegrees>
            </Position>
            <AltitudeMeters>411.399993896484375</AltitudeMeters>
            <DistanceMeters>1376.9097316015</DistanceMeters>
          </Trackpoint>
          <Trackpoint>
            <Time>2021-03-31T14:04:45.000Z</Time>
            <Position>
              <LatitudeDegrees>42.45887056924402713775634765625</LatitudeDegrees>
              <LongitudeDegrees>2.8580605052411556243896484375</LongitudeDegrees>
            </Position>
            <AltitudeMeters>412.600006103515625</AltitudeMeters>
            <DistanceMeters>1381.6496503975</DistanceMeters>
          </Trackpoint>
          <Trackpoint>
            <Time>2021-03-31T14:04:52.000Z</Time>
            <Position>
              <LatitudeDegrees>42.45878733694553375244140625</LatitudeDegrees>
              <LongitudeDegrees>2.858078442513942718505859375</LongitudeDegrees>
            </Position>
            <AltitudeMeters>413</AltitudeMeters>
            <DistanceMeters>1391.0298990546</DistanceMeters>
          </Trackpoint>
          <Trackpoint>
            <Time>2021-03-31T14:05:01.000Z</Time>
            <Position>
              <LatitudeDegrees>42.45873612351715564727783203125</LatitudeDegrees>
              <LongitudeDegrees>2.85810618661344051361083984375</LongitudeDegrees>
            </Position>
            <AltitudeMeters>412.79998779296875</AltitudeMeters>
            <DistanceMeters>1397.1692425926</DistanceMeters>
          </Trackpoint>
          <Trackpoint>
            <Time>2021-03-31T14:05:12.000Z</Time>
            <Position>
              <LatitudeDegrees>42.45873612351715564727783203125</LatitudeDegrees>
              <LongitudeDegrees>2.85810618661344051361083984375</LongitudeDegrees>
            </Position>
            <AltitudeMeters>413.399993896484375</AltitudeMeters>
            <DistanceMeters>1397.1692425926</DistanceMeters>
          </Trackpoint>
          <Trackpoint>
            <Time>2021-03-31T14:05:18.000Z</Time>
            <Position>
              <LatitudeDegrees>42.4586989916861057281494140625</LatitudeDegrees>
              <LongitudeDegrees>2.858050949871540069580078125</LongitudeDegrees>
            </Position>
            <AltitudeMeters>413</AltitudeMeters>
            <DistanceMeters>1403.3056437179</DistanceMeters>
          </Trackpoint>
          <Trackpoint>
            <Time>2021-03-31T14:05:22.000Z</Time>
            <Position>
              <LatitudeDegrees>42.4586631171405315399169921875</LatitudeDegrees>
              <LongitudeDegrees>2.85800476558506488800048828125</LongitudeDegrees>
            </Position>
            <AltitudeMeters>413.20001220703125</AltitudeMeters>
            <DistanceMeters>1408.8122757829</DistanceMeters>
          </Trackpoint>
          <Trackpoint>
            <Time>2021-03-31T14:05:28.000Z</Time>
            <Position>
              <LatitudeDegrees>42.4586190283298492431640625</LatitudeDegrees>
              <LongitudeDegrees>2.85794802010059356689453125</LongitudeDegrees>
            </Position>
            <AltitudeMeters>413.600006103515625</AltitudeMeters>
            <DistanceMeters>1415.5798859758</DistanceMeters>
          </Trackpoint>
          <Trackpoint>
            <Time>2021-03-31T14:05:31.000Z</Time>
            <Position>
              <LatitudeDegrees>42.45860251598060131072998046875</LatitudeDegrees>
              <LongitudeDegrees>2.857924215495586395263671875</LongitudeDegrees>
            </Position>
            <AltitudeMeters>413.600006103515625</AltitudeMeters>
            <DistanceMeters>1418.2642855367</DistanceMeters>
          </Trackpoint>
          <Trackpoint>
            <Time>2021-03-31T14:05:34.000Z</Time>
            <Position>
              <LatitudeDegrees>42.4585846625268459320068359375</LatitudeDegrees>
              <LongitudeDegrees>2.85789714194834232330322265625</LongitudeDegrees>
            </Position>
            <AltitudeMeters>413.79998779296875</AltitudeMeters>
            <DistanceMeters>1421.2481848938</DistanceMeters>
          </Trackpoint>
          <Trackpoint>
            <Time>2021-03-31T14:05:37.000Z</Time>
            <Position>
              <LatitudeDegrees>42.4585668928921222686767578125</LatitudeDegrees>
              <LongitudeDegrees>2.85787015222012996673583984375</LongitudeDegrees>
            </Position>
            <AltitudeMeters>414</AltitudeMeters>
            <DistanceMeters>1424.2184348304</DistanceMeters>
          </Trackpoint>
          <Trackpoint>
            <Time>2021-03-31T14:05:42.000Z</Time>
            <Position>
              <LatitudeDegrees>42.4585424177348613739013671875</LatitudeDegrees>
              <LongitudeDegrees>2.8578248061239719390869140625</LongitudeDegrees>
            </Position>
            <AltitudeMeters>414.399993896484375</AltitudeMeters>
            <DistanceMeters>1428.8318815006</DistanceMeters>
          </Trackpoint>
          <Trackpoint>
            <Time>2021-03-31T14:05:45.000Z</Time>
            <Position>
              <LatitudeDegrees>42.4585229717195034027099609375</LatitudeDegrees>
              <LongitudeDegrees>2.85780611447989940643310546875</LongitudeDegrees>
            </Position>
            <AltitudeMeters>414.399993896484375</AltitudeMeters>
            <DistanceMeters>1431.4858332006</DistanceMeters>
          </Trackpoint>
          <Trackpoint>
            <Time>2021-03-31T14:05:47.000Z</Time>
            <Position>
              <LatitudeDegrees>42.45850578881800174713134765625</LatitudeDegrees>
              <LongitudeDegrees>2.8577963076531887054443359375</LongitudeDegrees>
            </Position>
            <AltitudeMeters>414.399993896484375</AltitudeMeters>
            <DistanceMeters>1433.5634223179</DistanceMeters>
          </Trackpoint>
          <Trackpoint>
            <Time>2021-03-31T14:05:50.000Z</Time>
            <Position>
              <LatitudeDegrees>42.45848357677459716796875</LatitudeDegrees>
              <LongitudeDegrees>2.8577797114849090576171875</LongitudeDegrees>
            </Position>
            <AltitudeMeters>414.399993896484375</AltitudeMeters>
            <DistanceMeters>1436.3887696552</DistanceMeters>
          </Trackpoint>
          <Trackpoint>
            <Time>2021-03-31T14:05:53.000Z</Time>
            <Position>
              <LatitudeDegrees>42.4584639631211757659912109375</LatitudeDegrees>
              <LongitudeDegrees>2.85776965320110321044921875</LongitudeDegrees>
            </Position>
            <AltitudeMeters>414.20001220703125</AltitudeMeters>
            <DistanceMeters>1438.7241852868</DistanceMeters>
          </Trackpoint>
          <Trackpoint>
            <Time>2021-03-31T14:05:54.000Z</Time>
            <Position>
              <LatitudeDegrees>42.4584567546844482421875</LatitudeDegrees>
              <LongitudeDegrees>2.8577716648578643798828125</LongitudeDegrees>
            </Position>
            <AltitudeMeters>414.20001220703125</AltitudeMeters>
            <DistanceMeters>1439.5416359929</DistanceMeters>
          </Trackpoint>
          <Trackpoint>
            <Time>2021-03-31T14:05:58.000Z</Time>
            <Position>
              <LatitudeDegrees>42.45843973942101001739501953125</LatitudeDegrees>
              <LongitudeDegrees>2.8577815555036067962646484375</LongitudeDegrees>
            </Position>
            <AltitudeMeters>414.79998779296875</AltitudeMeters>
            <DistanceMeters>1441.6017660685</DistanceMeters>
          </Trackpoint>
          <Trackpoint>
            <Time>2021-03-31T14:06:00.000Z</Time>
            <Position>
              <LatitudeDegrees>42.458423562347888946533203125</LatitudeDegrees>
              <LongitudeDegrees>2.8577842377126216888427734375</LongitudeDegrees>
            </Position>
            <AltitudeMeters>414.79998779296875</AltitudeMeters>
            <DistanceMeters>1443.4147602289</DistanceMeters>
          </Trackpoint>
          <Trackpoint>
            <Time>2021-03-31T14:06:09.000Z</Time>
            <Position>
              <LatitudeDegrees>42.45836899615824222564697265625</LatitudeDegrees>
              <LongitudeDegrees>2.85784349776804447174072265625</LongitudeDegrees>
            </Position>
            <AltitudeMeters>415.399993896484375</AltitudeMeters>
            <DistanceMeters>1451.1970942432</DistanceMeters>
          </Trackpoint>
          <Trackpoint>
            <Time>2021-03-31T14:06:12.000Z</Time>
            <Position>
              <LatitudeDegrees>42.45835424400866031646728515625</LatitudeDegrees>
              <LongitudeDegrees>2.85785221494734287261962890625</LongitudeDegrees>
            </Position>
            <AltitudeMeters>415.399993896484375</AltitudeMeters>
            <DistanceMeters>1452.990054704</DistanceMeters>
          </Trackpoint>
          <Trackpoint>
            <Time>2021-03-31T14:06:14.000Z</Time>
            <Position>
              <LatitudeDegrees>42.45834619738161563873291015625</LatitudeDegrees>
              <LongitudeDegrees>2.85786512307822704315185546875</LongitudeDegrees>
            </Position>
            <AltitudeMeters>415.399993896484375</AltitudeMeters>
            <DistanceMeters>1454.3801756912</DistanceMeters>
          </Trackpoint>
          <Trackpoint>
            <Time>2021-03-31T14:06:18.000Z</Time>
            <Position>
              <LatitudeDegrees>42.458322308957576751708984375</LatitudeDegrees>
              <LongitudeDegrees>2.85789814777672290802001953125</LongitudeDegrees>
            </Position>
            <AltitudeMeters>415.399993896484375</AltitudeMeters>
            <DistanceMeters>1458.1776790922</DistanceMeters>
          </Trackpoint>
          <Trackpoint>
            <Time>2021-03-31T14:06:19.000Z</Time>
            <Position>
              <LatitudeDegrees>42.45831602253019809722900390625</LatitudeDegrees>
              <LongitudeDegrees>2.8579052723944187164306640625</LongitudeDegrees>
            </Position>
            <AltitudeMeters>415.399993896484375</AltitudeMeters>
            <DistanceMeters>1459.0841761724</DistanceMeters>
          </Trackpoint>
          <Trackpoint>
            <Time>2021-03-31T14:06:21.000Z</Time>
            <Position>
              <LatitudeDegrees>42.45830076746642589569091796875</LatitudeDegrees>
              <LongitudeDegrees>2.8579136542975902557373046875</LongitudeDegrees>
            </Position>
            <AltitudeMeters>415.399993896484375</AltitudeMeters>
            <DistanceMeters>1460.9120515195</DistanceMeters>
          </Trackpoint>
          <Trackpoint>
            <Time>2021-03-31T14:06:25.000Z</Time>
            <Position>
              <LatitudeDegrees>42.45827008970081806182861328125</LatitudeDegrees>
              <LongitudeDegrees>2.857944667339324951171875</LongitudeDegrees>
            </Position>
            <AltitudeMeters>415.600006103515625</AltitudeMeters>
            <DistanceMeters>1465.172386442</DistanceMeters>
          </Trackpoint>
          <Trackpoint>
            <Time>2021-03-31T14:06:29.000Z</Time>
            <Position>
              <LatitudeDegrees>42.458241842687129974365234375</LatitudeDegrees>
              <LongitudeDegrees>2.85797157324850559234619140625</LongitudeDegrees>
            </Position>
            <AltitudeMeters>415.600006103515625</AltitudeMeters>
            <DistanceMeters>1469.0148042988</DistanceMeters>
          </Trackpoint>
          <Trackpoint>
            <Time>2021-03-31T14:06:34.000Z</Time>
            <Position>
              <LatitudeDegrees>42.458201944828033447265625</LatitudeDegrees>
              <LongitudeDegrees>2.85799722187221050262451171875</LongitudeDegrees>
            </Position>
            <AltitudeMeters>415.600006103515625</AltitudeMeters>
            <DistanceMeters>1473.9296241823</DistanceMeters>
          </Trackpoint>
          <Trackpoint>
            <Time>2021-03-31T14:06:37.000Z</Time>
            <Position>
              <LatitudeDegrees>42.45817353017628192901611328125</LatitudeDegrees>
              <LongitudeDegrees>2.85800577141344547271728515625</LongitudeDegrees>
            </Position>
            <AltitudeMeters>415.79998779296875</AltitudeMeters>
            <DistanceMeters>1477.1689063293</DistanceMeters>
          </Trackpoint>
          <Trackpoint>
            <Time>2021-03-31T14:06:39.000Z</Time>
            <Position>
              <LatitudeDegrees>42.45815844275057315826416015625</LatitudeDegrees>
              <LongitudeDegrees>2.85800543613731861114501953125</LongitudeDegrees>
            </Position>
            <AltitudeMeters>415.79998779296875</AltitudeMeters>
            <DistanceMeters>1478.8474127637</DistanceMeters>
          </Trackpoint>
          <Trackpoint>
            <Time>2021-03-31T14:06:40.000Z</Time>
            <Position>
              <LatitudeDegrees>42.45814939029514789581298828125</LatitudeDegrees>
              <LongitudeDegrees>2.85800392739474773406982421875</LongitudeDegrees>
            </Position>
            <AltitudeMeters>414</AltitudeMeters>
            <DistanceMeters>1479.8664607465</DistanceMeters>
          </Trackpoint>
          <Trackpoint>
            <Time>2021-03-31T14:06:49.000Z</Time>
            <Position>
              <LatitudeDegrees>42.45805911719799041748046875</LatitudeDegrees>
              <LongitudeDegrees>2.85796302370727062225341796875</LongitudeDegrees>
            </Position>
            <AltitudeMeters>414</AltitudeMeters>
            <DistanceMeters>1490.4609805656</DistanceMeters>
          </Trackpoint>
          <Trackpoint>
            <Time>2021-03-31T14:06:59.000Z</Time>
            <Position>
              <LatitudeDegrees>42.457965575158596038818359375</LatitudeDegrees>
              <LongitudeDegrees>2.8579163365066051483154296875</LongitudeDegrees>
            </Position>
            <AltitudeMeters>414.20001220703125</AltitudeMeters>
            <DistanceMeters>1501.5559344674</DistanceMeters>
          </Trackpoint>
          <Trackpoint>
            <Time>2021-03-31T14:07:02.000Z</Time>
            <Position>
              <LatitudeDegrees>42.45793816633522510528564453125</LatitudeDegrees>
              <LongitudeDegrees>2.8579133190214633941650390625</LongitudeDegrees>
            </Position>
            <AltitudeMeters>414</AltitudeMeters>
            <DistanceMeters>1504.6160307523</DistanceMeters>
          </Trackpoint>
          <Trackpoint>
            <Time>2021-03-31T14:07:04.000Z</Time>
            <Position>
              <LatitudeDegrees>42.45793112553656101226806640625</LatitudeDegrees>
              <LongitudeDegrees>2.85793117247521877288818359375</LongitudeDegrees>
            </Position>
            <AltitudeMeters>413.600006103515625</AltitudeMeters>
            <DistanceMeters>1506.2783193529</DistanceMeters>
          </Trackpoint>
          <Trackpoint>
            <Time>2021-03-31T14:07:06.000Z</Time>
            <Position>
              <LatitudeDegrees>42.4579302035272121429443359375</LatitudeDegrees>
              <LongitudeDegrees>2.85795849747955799102783203125</LongitudeDegrees>
            </Position>
            <AltitudeMeters>413.399993896484375</AltitudeMeters>
            <DistanceMeters>1508.5230426445</DistanceMeters>
          </Trackpoint>
          <Trackpoint>
            <Time>2021-03-31T14:07:12.000Z</Time>
            <Position>
              <LatitudeDegrees>42.45791788212954998016357421875</LatitudeDegrees>
              <LongitudeDegrees>2.85802655853331089019775390625</LongitudeDegrees>
            </Position>
            <AltitudeMeters>414</AltitudeMeters>
            <DistanceMeters>1514.2782420673</DistanceMeters>
          </Trackpoint>
          <Trackpoint>
            <Time>2021-03-31T14:07:17.000Z</Time>
            <Position>
              <LatitudeDegrees>42.45791989378631114959716796875</LatitudeDegrees>
              <LongitudeDegrees>2.8580792807042598724365234375</LongitudeDegrees>
            </Position>
            <AltitudeMeters>414.20001220703125</AltitudeMeters>
            <DistanceMeters>1518.6121270454</DistanceMeters>
          </Trackpoint>
          <Trackpoint>
            <Time>2021-03-31T14:07:28.000Z</Time>
            <Position>
              <LatitudeDegrees>42.45787261985242366790771484375</LatitudeDegrees>
              <LongitudeDegrees>2.85821163095533847808837890625</LongitudeDegrees>
            </Position>
            <AltitudeMeters>415</AltitudeMeters>
            <DistanceMeters>1530.6868781511</DistanceMeters>
          </Trackpoint>
          <Trackpoint>
            <Time>2021-03-31T14:07:34.000Z</Time>
            <Position>
              <LatitudeDegrees>42.4578329734504222869873046875</LatitudeDegrees>
              <LongitudeDegrees>2.85825437866151332855224609375</LongitudeDegrees>
            </Position>
            <AltitudeMeters>415.79998779296875</AltitudeMeters>
            <DistanceMeters>1536.3255747345</DistanceMeters>
          </Trackpoint>
          <Trackpoint>
            <Time>2021-03-31T14:07:36.000Z</Time>
            <Position>
              <LatitudeDegrees>42.45781780220568180084228515625</LatitudeDegrees>
              <LongitudeDegrees>2.858266867697238922119140625</LongitudeDegrees>
            </Position>
            <AltitudeMeters>416.20001220703125</AltitudeMeters>
            <DistanceMeters>1538.2983805909</DistanceMeters>
          </Trackpoint>
          <Trackpoint>
            <Time>2021-03-31T14:07:38.000Z</Time>
            <Position>
              <LatitudeDegrees>42.45780673809349536895751953125</LatitudeDegrees>
              <LongitudeDegrees>2.85826812498271465301513671875</LongitudeDegrees>
            </Position>
            <AltitudeMeters>416.399993896484375</AltitudeMeters>
            <DistanceMeters>1539.5300675814</DistanceMeters>
          </Trackpoint>
          <Trackpoint>
            <Time>2021-03-31T14:07:43.000Z</Time>
            <Position>
              <LatitudeDegrees>42.45775929652154445648193359375</LatitudeDegrees>
              <LongitudeDegrees>2.8582759201526641845703125</LongitudeDegrees>
            </Position>
            <AltitudeMeters>417.20001220703125</AltitudeMeters>
            <DistanceMeters>1544.848168692</DistanceMeters>
          </Trackpoint>
          <Trackpoint>
            <Time>2021-03-31T14:07:46.000Z</Time>
            <Position>
              <LatitudeDegrees>42.457726188004016876220703125</LatitudeDegrees>
              <LongitudeDegrees>2.858283631503582000732421875</LongitudeDegrees>
            </Position>
            <AltitudeMeters>417.600006103515625</AltitudeMeters>
            <DistanceMeters>1548.5869597179</DistanceMeters>
          </Trackpoint>
          <Trackpoint>
            <Time>2021-03-31T14:07:48.000Z</Time>
            <Position>
              <LatitudeDegrees>42.457702718675136566162109375</LatitudeDegrees>
              <LongitudeDegrees>2.85828740336000919342041015625</LongitudeDegrees>
            </Position>
            <AltitudeMeters>417</AltitudeMeters>
            <DistanceMeters>1551.2204172758</DistanceMeters>
          </Trackpoint>
          <Trackpoint>
            <Time>2021-03-31T14:07:53.000Z</Time>
            <Position>
              <LatitudeDegrees>42.45765812695026397705078125</LatitudeDegrees>
              <LongitudeDegrees>2.85830701701343059539794921875</LongitudeDegrees>
            </Position>
            <AltitudeMeters>414</AltitudeMeters>
            <DistanceMeters>1556.4373752401</DistanceMeters>
          </Trackpoint>
          <Trackpoint>
            <Time>2021-03-31T14:07:56.000Z</Time>
            <Position>
              <LatitudeDegrees>42.4576400220394134521484375</LatitudeDegrees>
              <LongitudeDegrees>2.85834138281643390655517578125</LongitudeDegrees>
            </Position>
            <AltitudeMeters>414</AltitudeMeters>
            <DistanceMeters>1559.904222763</DistanceMeters>
          </Trackpoint>
          <Trackpoint>
            <Time>2021-03-31T14:07:59.000Z</Time>
            <Position>
              <LatitudeDegrees>42.457627616822719573974609375</LatitudeDegrees>
              <LongitudeDegrees>2.8583729825913906097412109375</LongitudeDegrees>
            </Position>
            <AltitudeMeters>414</AltitudeMeters>
            <DistanceMeters>1562.8439137598</DistanceMeters>
          </Trackpoint>
          <Trackpoint>
            <Time>2021-03-31T14:08:02.000Z</Time>
            <Position>
              <LatitudeDegrees>42.45763138867914676666259765625</LatitudeDegrees>
              <LongitudeDegrees>2.85841128788888454437255859375</LongitudeDegrees>
            </Position>
            <AltitudeMeters>414.600006103515625</AltitudeMeters>
            <DistanceMeters>1566.0184318826</DistanceMeters>
          </Trackpoint>
          <Trackpoint>
            <Time>2021-03-31T14:08:10.000Z</Time>
            <Position>
              <LatitudeDegrees>42.45764932595193386077880859375</LatitudeDegrees>
              <LongitudeDegrees>2.8585131280124187469482421875</LongitudeDegrees>
            </Position>
            <AltitudeMeters>414.399993896484375</AltitudeMeters>
            <DistanceMeters>1574.6161179533</DistanceMeters>
          </Trackpoint>
          <Trackpoint>
            <Time>2021-03-31T14:08:12.000Z</Time>
            <Position>
              <LatitudeDegrees>42.45765385217964649200439453125</LatitudeDegrees>
              <LongitudeDegrees>2.85853232257068157196044921875</LongitudeDegrees>
            </Position>
            <AltitudeMeters>415.399993896484375</AltitudeMeters>
            <DistanceMeters>1576.2702380101</DistanceMeters>
          </Trackpoint>
          <Trackpoint>
            <Time>2021-03-31T14:08:13.000Z</Time>
            <Position>
              <LatitudeDegrees>42.457656450569629669189453125</LatitudeDegrees>
              <LongitudeDegrees>2.85854305140674114227294921875</LongitudeDegrees>
            </Position>
            <AltitudeMeters>415.399993896484375</AltitudeMeters>
            <DistanceMeters>1577.1964438523</DistanceMeters>
          </Trackpoint>
          <Trackpoint>
            <Time>2021-03-31T14:08:24.000Z</Time>
            <Position>
              <LatitudeDegrees>42.45767346583306789398193359375</LatitudeDegrees>
              <LongitudeDegrees>2.85869157873094081878662109375</LongitudeDegrees>
            </Position>
            <AltitudeMeters>415.79998779296875</AltitudeMeters>
            <DistanceMeters>1589.5389472293</DistanceMeters>
          </Trackpoint>
          <Trackpoint>
            <Time>2021-03-31T14:08:34.000Z</Time>
            <Position>
              <LatitudeDegrees>42.457644380629062652587890625</LatitudeDegrees>
              <LongitudeDegrees>2.8587971068918704986572265625</LongitudeDegrees>
            </Position>
            <AltitudeMeters>414.79998779296875</AltitudeMeters>
            <DistanceMeters>1598.7892988109</DistanceMeters>
          </Trackpoint>
          <Trackpoint>
            <Time>2021-03-31T14:08:47.000Z</Time>
            <Position>
              <LatitudeDegrees>42.457591407001018524169921875</LatitudeDegrees>
              <LongitudeDegrees>2.85894580185413360595703125</LongitudeDegrees>
            </Position>
            <AltitudeMeters>414</AltitudeMeters>
            <DistanceMeters>1612.3485154696</DistanceMeters>
          </Trackpoint>
          <Trackpoint>
            <Time>2021-03-31T14:08:59.000Z</Time>
            <Position>
              <LatitudeDegrees>42.45750951580703258514404296875</LatitudeDegrees>
              <LongitudeDegrees>2.8590626455843448638916015625</LongitudeDegrees>
            </Position>
            <AltitudeMeters>413.79998779296875</AltitudeMeters>
            <DistanceMeters>1625.5821582997</DistanceMeters>
          </Trackpoint>
          <Trackpoint>
            <Time>2021-03-31T14:09:04.000Z</Time>
            <Position>
              <LatitudeDegrees>42.4575251899659633636474609375</LatitudeDegrees>
              <LongitudeDegrees>2.85911587066948413848876953125</LongitudeDegrees>
            </Position>
            <AltitudeMeters>415.399993896484375</AltitudeMeters>
            <DistanceMeters>1630.2876601263</DistanceMeters>
          </Trackpoint>
          <Trackpoint>
            <Time>2021-03-31T14:09:08.000Z</Time>
            <Position>
              <LatitudeDegrees>42.45754220522940158843994140625</LatitudeDegrees>
              <LongitudeDegrees>2.8591595403850078582763671875</LongitudeDegrees>
            </Position>
            <AltitudeMeters>416</AltitudeMeters>
            <DistanceMeters>1634.3416383118</DistanceMeters>
          </Trackpoint>
          <Trackpoint>
            <Time>2021-03-31T14:09:10.000Z</Time>
            <Position>
              <LatitudeDegrees>42.4575489945709705352783203125</LatitudeDegrees>
              <LongitudeDegrees>2.85918359644711017608642578125</LongitudeDegrees>
            </Position>
            <AltitudeMeters>416.399993896484375</AltitudeMeters>
            <DistanceMeters>1636.4558492378</DistanceMeters>
          </Trackpoint>
          <Trackpoint>
            <Time>2021-03-31T14:09:14.000Z</Time>
            <Position>
              <LatitudeDegrees>42.45757363736629486083984375</LatitudeDegrees>
              <LongitudeDegrees>2.85923137329518795013427734375</LongitudeDegrees>
            </Position>
            <AltitudeMeters>416.20001220703125</AltitudeMeters>
            <DistanceMeters>1641.2431589223</DistanceMeters>
          </Trackpoint>
          <Trackpoint>
            <Time>2021-03-31T14:09:17.000Z</Time>
            <Position>
              <LatitudeDegrees>42.4575939215719699859619140625</LatitudeDegrees>
              <LongitudeDegrees>2.8592648170888423919677734375</LongitudeDegrees>
            </Position>
            <AltitudeMeters>416.20001220703125</AltitudeMeters>
            <DistanceMeters>1644.7974629252</DistanceMeters>
          </Trackpoint>
          <Trackpoint>
            <Time>2021-03-31T14:09:22.000Z</Time>
            <Position>
              <LatitudeDegrees>42.4576204083859920501708984375</LatitudeDegrees>
              <LongitudeDegrees>2.85931234247982501983642578125</LongitudeDegrees>
            </Position>
            <AltitudeMeters>416.79998779296875</AltitudeMeters>
            <DistanceMeters>1649.6883393804</DistanceMeters>
          </Trackpoint>
          <Trackpoint>
            <Time>2021-03-31T14:09:25.000Z</Time>
            <Position>
              <LatitudeDegrees>42.4576137028634548187255859375</LatitudeDegrees>
              <LongitudeDegrees>2.8593496419489383697509765625</LongitudeDegrees>
            </Position>
            <AltitudeMeters>416.79998779296875</AltitudeMeters>
            <DistanceMeters>1652.8428828087</DistanceMeters>
          </Trackpoint>
          <Trackpoint>
            <Time>2021-03-31T14:09:27.000Z</Time>
            <Position>
              <LatitudeDegrees>42.4575966037809848785400390625</LatitudeDegrees>
              <LongitudeDegrees>2.85936824977397918701171875</LongitudeDegrees>
            </Position>
            <AltitudeMeters>416.600006103515625</AltitudeMeters>
            <DistanceMeters>1655.2841633032</DistanceMeters>
          </Trackpoint>
          <Trackpoint>
            <Time>2021-03-31T14:09:30.000Z</Time>
            <Position>
              <LatitudeDegrees>42.45758746750652790069580078125</LatitudeDegrees>
              <LongitudeDegrees>2.85938694141805171966552734375</LongitudeDegrees>
            </Position>
            <AltitudeMeters>416.399993896484375</AltitudeMeters>
            <DistanceMeters>1657.1267996599</DistanceMeters>
          </Trackpoint>
          <Trackpoint>
            <Time>2021-03-31T14:09:31.000Z</Time>
            <Position>
              <LatitudeDegrees>42.45758545584976673126220703125</LatitudeDegrees>
              <LongitudeDegrees>2.8593878634274005889892578125</LongitudeDegrees>
            </Position>
            <AltitudeMeters>416.399993896484375</AltitudeMeters>
            <DistanceMeters>1657.359566622</DistanceMeters>
          </Trackpoint>
          <Trackpoint>
            <Time>2021-03-31T14:09:34.000Z</Time>
            <Position>
              <LatitudeDegrees>42.4575676023960113525390625</LatitudeDegrees>
              <LongitudeDegrees>2.85940001718699932098388671875</LongitudeDegrees>
            </Position>
            <AltitudeMeters>414</AltitudeMeters>
            <DistanceMeters>1659.5820543756</DistanceMeters>
          </Trackpoint>
          <Trackpoint>
            <Time>2021-03-31T14:09:38.000Z</Time>
            <Position>
              <LatitudeDegrees>42.45753851719200611114501953125</LatitudeDegrees>
              <LongitudeDegrees>2.85943689756095409393310546875</LongitudeDegrees>
            </Position>
            <AltitudeMeters>414.20001220703125</AltitudeMeters>
            <DistanceMeters>1664.0158424196</DistanceMeters>
          </Trackpoint>
          <Trackpoint>
            <Time>2021-03-31T14:09:49.000Z</Time>
            <Position>
              <LatitudeDegrees>42.457421086728572845458984375</LatitudeDegrees>
              <LongitudeDegrees>2.85951619036495685577392578125</LongitudeDegrees>
            </Position>
            <AltitudeMeters>413.20001220703125</AltitudeMeters>
            <DistanceMeters>1678.6184526365</DistanceMeters>
          </Trackpoint>
          <Trackpoint>
            <Time>2021-03-31T14:09:50.000Z</Time>
            <Position>
              <LatitudeDegrees>42.45741044171154499053955078125</LatitudeDegrees>
              <LongitudeDegrees>2.85951887257397174835205078125</LongitudeDegrees>
            </Position>
            <AltitudeMeters>413</AltitudeMeters>
            <DistanceMeters>1679.8204560604</DistanceMeters>
          </Trackpoint>
          <Trackpoint>
            <Time>2021-03-31T14:09:54.000Z</Time>
            <Position>
              <LatitudeDegrees>42.4573763273656368255615234375</LatitudeDegrees>
              <LongitudeDegrees>2.85955038852989673614501953125</LongitudeDegrees>
            </Position>
            <AltitudeMeters>411.79998779296875</AltitudeMeters>
            <DistanceMeters>1684.4152703902</DistanceMeters>
          </Trackpoint>
          <Trackpoint>
            <Time>2021-03-31T14:09:58.000Z</Time>
            <Position>
              <LatitudeDegrees>42.45733299292623996734619140625</LatitudeDegrees>
              <LongitudeDegrees>2.8595759533345699310302734375</LongitudeDegrees>
            </Position>
            <AltitudeMeters>410.79998779296875</AltitudeMeters>
            <DistanceMeters>1689.6753230729</DistanceMeters>
          </Trackpoint>
          <Trackpoint>
            <Time>2021-03-31T14:09:59.000Z</Time>
            <Position>
              <LatitudeDegrees>42.45732461102306842803955078125</LatitudeDegrees>
              <LongitudeDegrees>2.85958676598966121673583984375</LongitudeDegrees>
            </Position>
            <AltitudeMeters>410.600006103515625</AltitudeMeters>
            <DistanceMeters>1690.964328141</DistanceMeters>
          </Trackpoint>
          <Trackpoint>
            <Time>2021-03-31T14:10:07.000Z</Time>
            <Position>
              <LatitudeDegrees>42.45725688524544239044189453125</LatitudeDegrees>
              <LongitudeDegrees>2.85965524613857269287109375</LongitudeDegrees>
            </Position>
            <AltitudeMeters>409.600006103515625</AltitudeMeters>
            <DistanceMeters>1700.3686127333</DistanceMeters>
          </Trackpoint>
          <Trackpoint>
            <Time>2021-03-31T14:10:13.000Z</Time>
            <Position>
              <LatitudeDegrees>42.4572187475860118865966796875</LatitudeDegrees>
              <LongitudeDegrees>2.85971635021269321441650390625</LongitudeDegrees>
            </Position>
            <AltitudeMeters>408.399993896484375</AltitudeMeters>
            <DistanceMeters>1706.9412747289</DistanceMeters>
          </Trackpoint>
          <Trackpoint>
            <Time>2021-03-31T14:10:17.000Z</Time>
            <Position>
              <LatitudeDegrees>42.457195110619068145751953125</LatitudeDegrees>
              <LongitudeDegrees>2.85975515842437744140625</LongitudeDegrees>
            </Position>
            <AltitudeMeters>408</AltitudeMeters>
            <DistanceMeters>1711.0746637297</DistanceMeters>
          </Trackpoint>
          <Trackpoint>
            <Time>2021-03-31T14:10:19.000Z</Time>
            <Position>
              <LatitudeDegrees>42.45718463324010372161865234375</LatitudeDegrees>
              <LongitudeDegrees>2.8597751073539257049560546875</LongitudeDegrees>
            </Position>
            <AltitudeMeters>407.399993896484375</AltitudeMeters>
            <DistanceMeters>1713.0860001627</DistanceMeters>
          </Trackpoint>
          <Trackpoint>
            <Time>2021-03-31T14:10:24.000Z</Time>
            <Position>
              <LatitudeDegrees>42.45716418139636516571044921875</LatitudeDegrees>
              <LongitudeDegrees>2.8598093055188655853271484375</LongitudeDegrees>
            </Position>
            <AltitudeMeters>407.399993896484375</AltitudeMeters>
            <DistanceMeters>1716.700764417</DistanceMeters>
          </Trackpoint>
          <Trackpoint>
            <Time>2021-03-31T14:10:25.000Z</Time>
            <Position>
              <LatitudeDegrees>42.45715764351189136505126953125</LatitudeDegrees>
              <LongitudeDegrees>2.85981693305075168609619140625</LongitudeDegrees>
            </Position>
            <AltitudeMeters>407.20001220703125</AltitudeMeters>
            <DistanceMeters>1717.6698505588</DistanceMeters>
          </Trackpoint>
          <Trackpoint>
            <Time>2021-03-31T14:10:29.000Z</Time>
            <Position>
              <LatitudeDegrees>42.45713417418301105499267578125</LatitudeDegrees>
              <LongitudeDegrees>2.8598492033779621124267578125</LongitudeDegrees>
            </Position>
            <AltitudeMeters>406.399993896484375</AltitudeMeters>
            <DistanceMeters>1721.3916965074</DistanceMeters>
          </Trackpoint>
          <Trackpoint>
            <Time>2021-03-31T14:10:34.000Z</Time>
            <Position>
              <LatitudeDegrees>42.4571010656654834747314453125</LatitudeDegrees>
              <LongitudeDegrees>2.85990226082503795623779296875</LongitudeDegrees>
            </Position>
            <AltitudeMeters>405.600006103515625</AltitudeMeters>
            <DistanceMeters>1727.0988399026</DistanceMeters>
          </Trackpoint>
          <Trackpoint>
            <Time>2021-03-31T14:10:36.000Z</Time>
            <Position>
              <LatitudeDegrees>42.45708740316331386566162109375</LatitudeDegrees>
              <LongitudeDegrees>2.85992153920233249664306640625</LongitudeDegrees>
            </Position>
            <AltitudeMeters>405.20001220703125</AltitudeMeters>
            <DistanceMeters>1729.2947590316</DistanceMeters>
          </Trackpoint>
          <Trackpoint>
            <Time>2021-03-31T14:10:38.000Z</Time>
            <Position>
              <LatitudeDegrees>42.45707700960338115692138671875</LatitudeDegrees>
              <LongitudeDegrees>2.85994064994156360626220703125</LongitudeDegrees>
            </Position>
            <AltitudeMeters>405</AltitudeMeters>
            <DistanceMeters>1731.2445441948</DistanceMeters>
          </Trackpoint>
          <Trackpoint>
            <Time>2021-03-31T14:10:41.000Z</Time>
            <Position>
              <LatitudeDegrees>42.4570551328361034393310546875</LatitudeDegrees>
              <LongitudeDegrees>2.8599769435822963714599609375</LongitudeDegrees>
            </Position>
            <AltitudeMeters>404.600006103515625</AltitudeMeters>
            <DistanceMeters>1735.0940059033</DistanceMeters>
          </Trackpoint>
          <Trackpoint>
            <Time>2021-03-31T14:10:43.000Z</Time>
            <Position>
              <LatitudeDegrees>42.45704163797199726104736328125</LatitudeDegrees>
              <LongitudeDegrees>2.859998233616352081298828125</LongitudeDegrees>
            </Position>
            <AltitudeMeters>404.20001220703125</AltitudeMeters>
            <DistanceMeters>1737.3982812664</DistanceMeters>
          </Trackpoint>
          <Trackpoint>
            <Time>2021-03-31T14:10:50.000Z</Time>
            <Position>
              <LatitudeDegrees>42.45699964463710784912109375</LatitudeDegrees>
              <LongitudeDegrees>2.8600654564797878265380859375</LongitudeDegrees>
            </Position>
            <AltitudeMeters>403</AltitudeMeters>
            <DistanceMeters>1744.6315559685</DistanceMeters>
          </Trackpoint>
          <Trackpoint>
            <Time>2021-03-31T14:10:52.000Z</Time>
            <Position>
              <LatitudeDegrees>42.45698849670588970184326171875</LatitudeDegrees>
              <LongitudeDegrees>2.86008263938128948211669921875</LongitudeDegrees>
            </Position>
            <AltitudeMeters>402.20001220703125</AltitudeMeters>
            <DistanceMeters>1746.5081832125</DistanceMeters>
          </Trackpoint>
          <Trackpoint>
            <Time>2021-03-31T14:10:54.000Z</Time>
            <Position>
              <LatitudeDegrees>42.456989586353302001953125</LatitudeDegrees>
              <LongitudeDegrees>2.86009085364639759063720703125</LongitudeDegrees>
            </Position>
            <AltitudeMeters>401.79998779296875</AltitudeMeters>
            <DistanceMeters>1747.1934305949</DistanceMeters>
          </Trackpoint>
          <Trackpoint>
            <Time>2021-03-31T14:10:56.000Z</Time>
            <Position>
              <LatitudeDegrees>42.4569921009242534637451171875</LatitudeDegrees>
              <LongitudeDegrees>2.86009454168379306793212890625</LongitudeDegrees>
            </Position>
            <AltitudeMeters>401.79998779296875</AltitudeMeters>
            <DistanceMeters>1747.6076424398</DistanceMeters>
          </Trackpoint>
          <Trackpoint>
            <Time>2021-03-31T14:10:59.000Z</Time>
            <Position>
              <LatitudeDegrees>42.4569934420287609100341796875</LatitudeDegrees>
              <LongitudeDegrees>2.860094122588634490966796875</LongitudeDegrees>
            </Position>
            <AltitudeMeters>401.79998779296875</AltitudeMeters>
            <DistanceMeters>1747.7722335372</DistanceMeters>
          </Trackpoint>
          <Trackpoint>
            <Time>2021-03-31T14:11:05.000Z</Time>
            <Position>
              <LatitudeDegrees>42.4569887481629848480224609375</LatitudeDegrees>
              <LongitudeDegrees>2.8600835613906383514404296875</LongitudeDegrees>
            </Position>
            <AltitudeMeters>401.79998779296875</AltitudeMeters>
            <DistanceMeters>1748.7868412025</DistanceMeters>
          </Trackpoint>
          <Trackpoint>
            <Time>2021-03-31T14:11:09.000Z</Time>
            <Position>
              <LatitudeDegrees>42.4569887481629848480224609375</LatitudeDegrees>
              <LongitudeDegrees>2.8600835613906383514404296875</LongitudeDegrees>
            </Position>
            <AltitudeMeters>401.600006103515625</AltitudeMeters>
            <DistanceMeters>1748.7868412025</DistanceMeters>
          </Trackpoint>
          <Trackpoint>
            <Time>2021-03-31T14:11:32.000Z</Time>
            <Position>
              <LatitudeDegrees>42.4570043385028839111328125</LatitudeDegrees>
              <LongitudeDegrees>2.86010183393955230712890625</LongitudeDegrees>
            </Position>
            <AltitudeMeters>400.79998779296875</AltitudeMeters>
            <DistanceMeters>1751.0793299136</DistanceMeters>
          </Trackpoint>
          <Trackpoint>
            <Time>2021-03-31T14:11:34.000Z</Time>
            <Position>
              <LatitudeDegrees>42.45698061771690845489501953125</LatitudeDegrees>
              <LongitudeDegrees>2.860134355723857879638671875</LongitudeDegrees>
            </Position>
            <AltitudeMeters>400.399993896484375</AltitudeMeters>
            <DistanceMeters>1754.8349895635</DistanceMeters>
          </Trackpoint>
          <Trackpoint>
            <Time>2021-03-31T14:11:36.000Z</Time>
            <Position>
              <LatitudeDegrees>42.4569552205502986907958984375</LatitudeDegrees>
              <LongitudeDegrees>2.86017199046909809112548828125</LongitudeDegrees>
            </Position>
            <AltitudeMeters>400</AltitudeMeters>
            <DistanceMeters>1759.0237171185</DistanceMeters>
          </Trackpoint>
          <Trackpoint>
            <Time>2021-03-31T14:11:39.000Z</Time>
            <Position>
              <LatitudeDegrees>42.45692454278469085693359375</LatitudeDegrees>
              <LongitudeDegrees>2.8602196834981441497802734375</LongitudeDegrees>
            </Position>
            <AltitudeMeters>399.600006103515625</AltitudeMeters>
            <DistanceMeters>1764.2198626676</DistanceMeters>
          </Trackpoint>
          <Trackpoint>
            <Time>2021-03-31T14:11:44.000Z</Time>
            <Position>
              <LatitudeDegrees>42.45687626302242279052734375</LatitudeDegrees>
              <LongitudeDegrees>2.86028313450515270233154296875</LongitudeDegrees>
            </Position>
            <AltitudeMeters>398.600006103515625</AltitudeMeters>
            <DistanceMeters>1771.7046869313</DistanceMeters>
          </Trackpoint>
          <Trackpoint>
            <Time>2021-03-31T14:11:47.000Z</Time>
            <Position>
              <LatitudeDegrees>42.456850111484527587890625</LatitudeDegrees>
              <LongitudeDegrees>2.86031062714755535125732421875</LongitudeDegrees>
            </Position>
            <AltitudeMeters>398</AltitudeMeters>
            <DistanceMeters>1775.3875085152</DistanceMeters>
          </Trackpoint>
          <Trackpoint>
            <Time>2021-03-31T14:11:50.000Z</Time>
            <Position>
              <LatitudeDegrees>42.45683209039270877838134765625</LatitudeDegrees>
              <LongitudeDegrees>2.86034725606441497802734375</LongitudeDegrees>
            </Position>
            <AltitudeMeters>397.600006103515625</AltitudeMeters>
            <DistanceMeters>1779.0022727695</DistanceMeters>
          </Trackpoint>
          <Trackpoint>
            <Time>2021-03-31T14:11:56.000Z</Time>
            <Position>
              <LatitudeDegrees>42.45677878148853778839111328125</LatitudeDegrees>
              <LongitudeDegrees>2.86042034626007080078125</LongitudeDegrees>
            </Position>
            <AltitudeMeters>396.399993896484375</AltitudeMeters>
            <DistanceMeters>1787.4420146489</DistanceMeters>
          </Trackpoint>
          <Trackpoint>
            <Time>2021-03-31T14:11:58.000Z</Time>
            <Position>
              <LatitudeDegrees>42.45674894191324710845947265625</LatitudeDegrees>
              <LongitudeDegrees>2.8604299016296863555908203125</LongitudeDegrees>
            </Position>
            <AltitudeMeters>396</AltitudeMeters>
            <DistanceMeters>1790.8550482867</DistanceMeters>
          </Trackpoint>
          <Trackpoint>
            <Time>2021-03-31T14:12:03.000Z</Time>
            <Position>
              <LatitudeDegrees>42.45669613592326641082763671875</LatitudeDegrees>
              <LongitudeDegrees>2.8604553826153278350830078125</LongitudeDegrees>
            </Position>
            <AltitudeMeters>395.600006103515625</AltitudeMeters>
            <DistanceMeters>1797.0950554683</DistanceMeters>
          </Trackpoint>
          <Trackpoint>
            <Time>2021-03-31T14:12:04.000Z</Time>
            <Position>
              <LatitudeDegrees>42.4566863290965557098388671875</LatitudeDegrees>
              <LongitudeDegrees>2.86044775508344173431396484375</LongitudeDegrees>
            </Position>
            <AltitudeMeters>395.399993896484375</AltitudeMeters>
            <DistanceMeters>1798.3557272948</DistanceMeters>
          </Trackpoint>
          <Trackpoint>
            <Time>2021-03-31T14:12:06.000Z</Time>
            <Position>
              <LatitudeDegrees>42.45667065493762493133544921875</LatitudeDegrees>
              <LongitudeDegrees>2.86043384112417697906494140625</LongitudeDegrees>
            </Position>
            <AltitudeMeters>395.399993896484375</AltitudeMeters>
            <DistanceMeters>1800.4419911434</DistanceMeters>
          </Trackpoint>
          <Trackpoint>
            <Time>2021-03-31T14:12:08.000Z</Time>
            <Position>
              <LatitudeDegrees>42.45665640570223331451416015625</LatitudeDegrees>
              <LongitudeDegrees>2.860406599938869476318359375</LongitudeDegrees>
            </Position>
            <AltitudeMeters>395.399993896484375</AltitudeMeters>
            <DistanceMeters>1803.1846274076</DistanceMeters>
          </Trackpoint>
          <Trackpoint>
            <Time>2021-03-31T14:12:14.000Z</Time>
            <Position>
              <LatitudeDegrees>42.456616424024105072021484375</LatitudeDegrees>
              <LongitudeDegrees>2.8603457473218441009521484375</LongitudeDegrees>
            </Position>
            <AltitudeMeters>394.399993896484375</AltitudeMeters>
            <DistanceMeters>1809.8757498104</DistanceMeters>
          </Trackpoint>
          <Trackpoint>
            <Time>2021-03-31T14:12:21.000Z</Time>
            <Position>
              <LatitudeDegrees>42.45654224418103694915771484375</LatitudeDegrees>
              <LongitudeDegrees>2.86028346978127956390380859375</LongitudeDegrees>
            </Position>
            <AltitudeMeters>393.79998779296875</AltitudeMeters>
            <DistanceMeters>1819.5875544036</DistanceMeters>
          </Trackpoint>
          <Trackpoint>
            <Time>2021-03-31T14:12:26.000Z</Time>
            <Position>
              <LatitudeDegrees>42.4565046094357967376708984375</LatitudeDegrees>
              <LongitudeDegrees>2.8602324239909648895263671875</LongitudeDegrees>
            </Position>
            <AltitudeMeters>393.399993896484375</AltitudeMeters>
            <DistanceMeters>1825.5143577045</DistanceMeters>
          </Trackpoint>
          <Trackpoint>
            <Time>2021-03-31T14:12:34.000Z</Time>
            <Position>
              <LatitudeDegrees>42.45645557530224323272705078125</LatitudeDegrees>
              <LongitudeDegrees>2.86012320779263973236083984375</LongitudeDegrees>
            </Position>
            <AltitudeMeters>392.79998779296875</AltitudeMeters>
            <DistanceMeters>1836.0125519777</DistanceMeters>
          </Trackpoint>
          <Trackpoint>
            <Time>2021-03-31T14:12:36.000Z</Time>
            <Position>
              <LatitudeDegrees>42.45644685812294483184814453125</LatitudeDegrees>
              <LongitudeDegrees>2.86009454168379306793212890625</LongitudeDegrees>
            </Position>
            <AltitudeMeters>392.79998779296875</AltitudeMeters>
            <DistanceMeters>1838.5588423945</DistanceMeters>
          </Trackpoint>
          <Trackpoint>
            <Time>2021-03-31T14:12:39.000Z</Time>
            <Position>
              <LatitudeDegrees>42.45644015260040760040283203125</LatitudeDegrees>
              <LongitudeDegrees>2.86005833186209201812744140625</LongitudeDegrees>
            </Position>
            <AltitudeMeters>392.399993896484375</AltitudeMeters>
            <DistanceMeters>1841.6233618514</DistanceMeters>
          </Trackpoint>
          <Trackpoint>
            <Time>2021-03-31T14:12:44.000Z</Time>
            <Position>
              <LatitudeDegrees>42.45643110014498233795166015625</LatitudeDegrees>
              <LongitudeDegrees>2.8599843196570873260498046875</LongitudeDegrees>
            </Position>
            <AltitudeMeters>391.600006103515625</AltitudeMeters>
            <DistanceMeters>1847.7847286941</DistanceMeters>
          </Trackpoint>
          <Trackpoint>
            <Time>2021-03-31T14:12:46.000Z</Time>
            <Position>
              <LatitudeDegrees>42.4564295075833797454833984375</LatitudeDegrees>
              <LongitudeDegrees>2.8599668852984905242919921875</LongitudeDegrees>
            </Position>
            <AltitudeMeters>391.399993896484375</AltitudeMeters>
            <DistanceMeters>1849.225880172</DistanceMeters>
          </Trackpoint>
          <Trackpoint>
            <Time>2021-03-31T14:12:49.000Z</Time>
            <Position>
              <LatitudeDegrees>42.45642757974565029144287109375</LatitudeDegrees>
              <LongitudeDegrees>2.85995028913021087646484375</LongitudeDegrees>
            </Position>
            <AltitudeMeters>390.79998779296875</AltitudeMeters>
            <DistanceMeters>1850.6029480909</DistanceMeters>
          </Trackpoint>
          <Trackpoint>
            <Time>2021-03-31T14:12:51.000Z</Time>
            <Position>
              <LatitudeDegrees>42.4564331956207752227783203125</LatitudeDegrees>
              <LongitudeDegrees>2.85994626581668853759765625</LongitudeDegrees>
            </Position>
            <AltitudeMeters>390.79998779296875</AltitudeMeters>
            <DistanceMeters>1851.3076850662</DistanceMeters>
          </Trackpoint>
          <Trackpoint>
            <Time>2021-03-31T14:13:00.000Z</Time>
            <Position>
              <LatitudeDegrees>42.4564425833523273468017578125</LatitudeDegrees>
              <LongitudeDegrees>2.85996244288980960845947265625</LongitudeDegrees>
            </Position>
            <AltitudeMeters>390.600006103515625</AltitudeMeters>
            <DistanceMeters>1852.9969168905</DistanceMeters>
          </Trackpoint>
          <Trackpoint>
            <Time>2021-03-31T14:13:17.000Z</Time>
            <Position>
              <LatitudeDegrees>42.45643931441009044647216796875</LatitudeDegrees>
              <LongitudeDegrees>2.8599501214921474456787109375</LongitudeDegrees>
            </Position>
            <AltitudeMeters>390.20001220703125</AltitudeMeters>
            <DistanceMeters>1854.0720214365</DistanceMeters>
          </Trackpoint>
          <Trackpoint>
            <Time>2021-03-31T14:13:23.000Z</Time>
            <Position>
              <LatitudeDegrees>42.45643931441009044647216796875</LatitudeDegrees>
              <LongitudeDegrees>2.8599494509398937225341796875</LongitudeDegrees>
            </Position>
            <AltitudeMeters>390.20001220703125</AltitudeMeters>
            <DistanceMeters>1854.1670481509</DistanceMeters>
          </Trackpoint>
          <Trackpoint>
            <Time>2021-03-31T14:13:28.000Z</Time>
            <Position>
              <LatitudeDegrees>42.4564383924007415771484375</LatitudeDegrees>
              <LongitudeDegrees>2.8599469363689422607421875</LongitudeDegrees>
            </Position>
            <AltitudeMeters>390.20001220703125</AltitudeMeters>
            <DistanceMeters>1854.399815113</DistanceMeters>
          </Trackpoint>
          <Trackpoint>
            <Time>2021-03-31T14:13:30.000Z</Time>
            <Position>
              <LatitudeDegrees>42.45643830858170986175537109375</LatitudeDegrees>
              <LongitudeDegrees>2.859946601092815399169921875</LongitudeDegrees>
            </Position>
            <AltitudeMeters>390.20001220703125</AltitudeMeters>
            <DistanceMeters>1854.399815113</DistanceMeters>
          </Trackpoint>
          <Trackpoint>
            <Time>2021-03-31T14:13:31.000Z</Time>
            <Position>
              <LatitudeDegrees>42.45643830858170986175537109375</LatitudeDegrees>
              <LongitudeDegrees>2.85994601435959339141845703125</LongitudeDegrees>
            </Position>
            <AltitudeMeters>390.20001220703125</AltitudeMeters>
            <DistanceMeters>1854.399815113</DistanceMeters>
          </Trackpoint>
          <Trackpoint>
            <Time>2021-03-31T14:13:39.000Z</Time>
            <Position>
              <LatitudeDegrees>42.45639623142778873443603515625</LatitudeDegrees>
              <LongitudeDegrees>2.85992749035358428955078125</LongitudeDegrees>
            </Position>
            <AltitudeMeters>390.20001220703125</AltitudeMeters>
            <DistanceMeters>1859.3238130062</DistanceMeters>
          </Trackpoint>
          <Trackpoint>
            <Time>2021-03-31T14:13:40.000Z</Time>
            <Position>
              <LatitudeDegrees>42.456383407115936279296875</LatitudeDegrees>
              <LongitudeDegrees>2.85993159748613834381103515625</LongitudeDegrees>
            </Position>
            <AltitudeMeters>390.20001220703125</AltitudeMeters>
            <DistanceMeters>1860.7928903596</DistanceMeters>
          </Trackpoint>
          <Trackpoint>
            <Time>2021-03-31T14:13:42.000Z</Time>
            <Position>
              <LatitudeDegrees>42.4563574232161045074462890625</LatitudeDegrees>
              <LongitudeDegrees>2.85994349978864192962646484375</LongitudeDegrees>
            </Position>
            <AltitudeMeters>391.79998779296875</AltitudeMeters>
            <DistanceMeters>1863.845600449</DistanceMeters>
          </Trackpoint>
          <Trackpoint>
            <Time>2021-03-31T14:13:43.000Z</Time>
            <Position>
              <LatitudeDegrees>42.4563426710665225982666015625</LatitudeDegrees>
              <LongitudeDegrees>2.8599549829959869384765625</LongitudeDegrees>
            </Position>
            <AltitudeMeters>390.399993896484375</AltitudeMeters>
            <DistanceMeters>1865.7389943193</DistanceMeters>
          </Trackpoint>
          <Trackpoint>
            <Time>2021-03-31T14:13:46.000Z</Time>
            <Position>
              <LatitudeDegrees>42.45629363693296909332275390625</LatitudeDegrees>
              <LongitudeDegrees>2.85996579565107822418212890625</LongitudeDegrees>
            </Position>
            <AltitudeMeters>390.399993896484375</AltitudeMeters>
            <DistanceMeters>1871.2685366909</DistanceMeters>
          </Trackpoint>
          <Trackpoint>
            <Time>2021-03-31T14:13:48.000Z</Time>
            <Position>
              <LatitudeDegrees>42.4562747776508331298828125</LatitudeDegrees>
              <LongitudeDegrees>2.8599735908210277557373046875</LongitudeDegrees>
            </Position>
            <AltitudeMeters>390.399993896484375</AltitudeMeters>
            <DistanceMeters>1873.4603397542</DistanceMeters>
          </Trackpoint>
          <Trackpoint>
            <Time>2021-03-31T14:13:51.000Z</Time>
            <Position>
              <LatitudeDegrees>42.45624636299908161163330078125</LatitudeDegrees>
              <LongitudeDegrees>2.859982810914516448974609375</LongitudeDegrees>
            </Position>
            <AltitudeMeters>390.600006103515625</AltitudeMeters>
            <DistanceMeters>1876.7121422568</DistanceMeters>
          </Trackpoint>
          <Trackpoint>
            <Time>2021-03-31T14:13:54.000Z</Time>
            <Position>
              <LatitudeDegrees>42.45621585287153720855712890625</LatitudeDegrees>
              <LongitudeDegrees>2.8599925339221954345703125</LongitudeDegrees>
            </Position>
            <AltitudeMeters>390.399993896484375</AltitudeMeters>
            <DistanceMeters>1880.2010594307</DistanceMeters>
          </Trackpoint>
          <Trackpoint>
            <Time>2021-03-31T14:13:59.000Z</Time>
            <Position>
              <LatitudeDegrees>42.45616941712796688079833984375</LatitudeDegrees>
              <LongitudeDegrees>2.8600151650607585906982421875</LongitudeDegrees>
            </Position>
            <AltitudeMeters>390.600006103515625</AltitudeMeters>
            <DistanceMeters>1885.6937350446</DistanceMeters>
          </Trackpoint>
          <Trackpoint>
            <Time>2021-03-31T14:14:05.000Z</Time>
            <Position>
              <LatitudeDegrees>42.45610252954065799713134765625</LatitudeDegrees>
              <LongitudeDegrees>2.8600289113819599151611328125</LongitudeDegrees>
            </Position>
            <AltitudeMeters>390.399993896484375</AltitudeMeters>
            <DistanceMeters>1893.2230656865</DistanceMeters>
          </Trackpoint>
          <Trackpoint>
            <Time>2021-03-31T14:14:07.000Z</Time>
            <Position>
              <LatitudeDegrees>42.4560828320682048797607421875</LatitudeDegrees>
              <LongitudeDegrees>2.860040478408336639404296875</LongitudeDegrees>
            </Position>
            <AltitudeMeters>390.20001220703125</AltitudeMeters>
            <DistanceMeters>1895.6120002424</DistanceMeters>
          </Trackpoint>
          <Trackpoint>
            <Time>2021-03-31T14:14:17.000Z</Time>
            <Position>
              <LatitudeDegrees>42.45598333887755870819091796875</LatitudeDegrees>
              <LongitudeDegrees>2.86009219475090503692626953125</LongitudeDegrees>
            </Position>
            <AltitudeMeters>390.20001220703125</AltitudeMeters>
            <DistanceMeters>1907.4720803757</DistanceMeters>
          </Trackpoint>
          <Trackpoint>
            <Time>2021-03-31T14:14:23.000Z</Time>
            <Position>
              <LatitudeDegrees>42.4559182114899158477783203125</LatitudeDegrees>
              <LongitudeDegrees>2.8601274825632572174072265625</LongitudeDegrees>
            </Position>
            <AltitudeMeters>389.79998779296875</AltitudeMeters>
            <DistanceMeters>1915.2781649156</DistanceMeters>
          </Trackpoint>
          <Trackpoint>
            <Time>2021-03-31T14:14:24.000Z</Time>
            <Position>
              <LatitudeDegrees>42.45590840466320514678955078125</LatitudeDegrees>
              <LongitudeDegrees>2.86013091914355754852294921875</LongitudeDegrees>
            </Position>
            <AltitudeMeters>391.79998779296875</AltitudeMeters>
            <DistanceMeters>1916.4025361631</DistanceMeters>
          </Trackpoint>
          <Trackpoint>
            <Time>2021-03-31T14:14:26.000Z</Time>
            <Position>
              <LatitudeDegrees>42.4558880366384983062744140625</LatitudeDegrees>
              <LongitudeDegrees>2.860132344067096710205078125</LongitudeDegrees>
            </Position>
            <AltitudeMeters>391.79998779296875</AltitudeMeters>
            <DistanceMeters>1918.6732571167</DistanceMeters>
          </Trackpoint>
          <Trackpoint>
            <Time>2021-03-31T14:14:30.000Z</Time>
            <Position>
              <LatitudeDegrees>42.45583824813365936279296875</LatitudeDegrees>
              <LongitudeDegrees>2.8601154126226902008056640625</LongitudeDegrees>
            </Position>
            <AltitudeMeters>390.399993896484375</AltitudeMeters>
            <DistanceMeters>1924.3867259707</DistanceMeters>
          </Trackpoint>
          <Trackpoint>
            <Time>2021-03-31T14:14:31.000Z</Time>
            <Position>
              <LatitudeDegrees>42.4558270163834095001220703125</LatitudeDegrees>
              <LongitudeDegrees>2.86011390388011932373046875</LongitudeDegrees>
            </Position>
            <AltitudeMeters>391.79998779296875</AltitudeMeters>
            <DistanceMeters>1925.6438112413</DistanceMeters>
          </Trackpoint>
          <Trackpoint>
            <Time>2021-03-31T14:14:34.000Z</Time>
            <Position>
              <LatitudeDegrees>42.45579659007489681243896484375</LatitudeDegrees>
              <LongitudeDegrees>2.86011868156492710113525390625</LongitudeDegrees>
            </Position>
            <AltitudeMeters>391.79998779296875</AltitudeMeters>
            <DistanceMeters>1929.0528739253</DistanceMeters>
          </Trackpoint>
          <Trackpoint>
            <Time>2021-03-31T14:14:36.000Z</Time>
            <Position>
              <LatitudeDegrees>42.455789633095264434814453125</LatitudeDegrees>
              <LongitudeDegrees>2.860118933022022247314453125</LongitudeDegrees>
            </Position>
            <AltitudeMeters>392.20001220703125</AltitudeMeters>
            <DistanceMeters>1929.8248746023</DistanceMeters>
          </Trackpoint>
          <Trackpoint>
            <Time>2021-03-31T14:14:40.000Z</Time>
            <Position>
              <LatitudeDegrees>42.4557968415319919586181640625</LatitudeDegrees>
              <LongitudeDegrees>2.8600952960550785064697265625</LongitudeDegrees>
            </Position>
            <AltitudeMeters>392.600006103515625</AltitudeMeters>
            <DistanceMeters>1931.9240833353</DistanceMeters>
          </Trackpoint>
          <Trackpoint>
            <Time>2021-03-31T14:14:45.000Z</Time>
            <Position>
              <LatitudeDegrees>42.455797679722309112548828125</LatitudeDegrees>
              <LongitudeDegrees>2.86008683033287525177001953125</LongitudeDegrees>
            </Position>
            <AltitudeMeters>392.600006103515625</AltitudeMeters>
            <DistanceMeters>1932.6223842217</DistanceMeters>
          </Trackpoint>
          <Trackpoint>
            <Time>2021-03-31T14:14:51.000Z</Time>
            <Position>
              <LatitudeDegrees>42.45578200556337833404541015625</LatitudeDegrees>
              <LongitudeDegrees>2.86004039458930492401123046875</LongitudeDegrees>
            </Position>
            <AltitudeMeters>391</AltitudeMeters>
            <DistanceMeters>1936.8154211684</DistanceMeters>
          </Trackpoint>
          <Trackpoint>
            <Time>2021-03-31T14:15:00.000Z</Time>
            <Position>
              <LatitudeDegrees>42.45577261783182621002197265625</LatitudeDegrees>
              <LongitudeDegrees>2.86001306958496570587158203125</LongitudeDegrees>
            </Position>
            <AltitudeMeters>391</AltitudeMeters>
            <DistanceMeters>1939.2897679164</DistanceMeters>
          </Trackpoint>
          <Trackpoint>
            <Time>2021-03-31T14:15:01.000Z</Time>
            <Position>
              <LatitudeDegrees>42.4557693488895893096923828125</LatitudeDegrees>
              <LongitudeDegrees>2.86001591943204402923583984375</LongitudeDegrees>
            </Position>
            <AltitudeMeters>391</AltitudeMeters>
            <DistanceMeters>1939.7354827151</DistanceMeters>
          </Trackpoint>
          <Trackpoint>
            <Time>2021-03-31T14:15:19.000Z</Time>
            <Position>
              <LatitudeDegrees>42.4557512439787387847900390625</LatitudeDegrees>
              <LongitudeDegrees>2.86001063883304595947265625</LongitudeDegrees>
            </Position>
            <AltitudeMeters>391</AltitudeMeters>
            <DistanceMeters>1941.7999913931</DistanceMeters>
          </Trackpoint>
          <Trackpoint>
            <Time>2021-03-31T14:15:21.000Z</Time>
            <Position>
              <LatitudeDegrees>42.45574839413166046142578125</LatitudeDegrees>
              <LongitudeDegrees>2.86001063883304595947265625</LongitudeDegrees>
            </Position>
            <AltitudeMeters>391</AltitudeMeters>
            <DistanceMeters>1942.1291735878</DistanceMeters>
          </Trackpoint>
          <Trackpoint>
            <Time>2021-03-31T14:15:45.000Z</Time>
            <Position>
              <LatitudeDegrees>42.45574244298040866851806640625</LatitudeDegrees>
              <LongitudeDegrees>2.86001742817461490631103515625</LongitudeDegrees>
            </Position>
            <AltitudeMeters>391</AltitudeMeters>
            <DistanceMeters>1943.0001078111</DistanceMeters>
          </Trackpoint>
          <Trackpoint>
            <Time>2021-03-31T14:15:49.000Z</Time>
            <Position>
              <LatitudeDegrees>42.45573758147656917572021484375</LatitudeDegrees>
              <LongitudeDegrees>2.86001742817461490631103515625</LongitudeDegrees>
            </Position>
            <AltitudeMeters>391</AltitudeMeters>
            <DistanceMeters>1943.5376600841</DistanceMeters>
          </Trackpoint>
          <Trackpoint>
            <Time>2021-03-31T14:15:52.000Z</Time>
            <Position>
              <LatitudeDegrees>42.45573691092431545257568359375</LatitudeDegrees>
              <LongitudeDegrees>2.86001793108880519866943359375</LongitudeDegrees>
            </Position>
            <AltitudeMeters>391</AltitudeMeters>
            <DistanceMeters>1943.5376600841</DistanceMeters>
          </Trackpoint>
          <Trackpoint>
            <Time>2021-03-31T14:16:05.000Z</Time>
            <Position>
              <LatitudeDegrees>42.4557381682097911834716796875</LatitudeDegrees>
              <LongitudeDegrees>2.86001943983137607574462890625</LongitudeDegrees>
            </Position>
            <AltitudeMeters>391</AltitudeMeters>
            <DistanceMeters>1943.7022511814</DistanceMeters>
          </Trackpoint>
          <Trackpoint>
            <Time>2021-03-31T14:16:30.000Z</Time>
            <Position>
              <LatitudeDegrees>42.45576842688024044036865234375</LatitudeDegrees>
              <LongitudeDegrees>2.8600212000310420989990234375</LongitudeDegrees>
            </Position>
            <AltitudeMeters>391</AltitudeMeters>
            <DistanceMeters>1947.0726867863</DistanceMeters>
          </Trackpoint>
          <Trackpoint>
            <Time>2021-03-31T14:16:45.000Z</Time>
            <Position>
              <LatitudeDegrees>42.4557797424495220184326171875</LatitudeDegrees>
              <LongitudeDegrees>2.86004559136927127838134765625</LongitudeDegrees>
            </Position>
            <AltitudeMeters>391</AltitudeMeters>
            <DistanceMeters>1949.4388328924</DistanceMeters>
          </Trackpoint>
          <Trackpoint>
            <Time>2021-03-31T14:16:49.000Z</Time>
            <Position>
              <LatitudeDegrees>42.45578418485820293426513671875</LatitudeDegrees>
              <LongitudeDegrees>2.860049195587635040283203125</LongitudeDegrees>
            </Position>
            <AltitudeMeters>391</AltitudeMeters>
            <DistanceMeters>1950.0168578299</DistanceMeters>
          </Trackpoint>
          <Trackpoint>
            <Time>2021-03-31T14:17:01.000Z</Time>
            <Position>
              <LatitudeDegrees>42.45579793117940425872802734375</LatitudeDegrees>
              <LongitudeDegrees>2.8600664623081684112548828125</LongitudeDegrees>
            </Position>
            <AltitudeMeters>391</AltitudeMeters>
            <DistanceMeters>1952.1031216785</DistanceMeters>
          </Trackpoint>
          <Trackpoint>
            <Time>2021-03-31T14:17:13.000Z</Time>
            <Position>
              <LatitudeDegrees>42.4557666666805744171142578125</LatitudeDegrees>
              <LongitudeDegrees>2.86001658998429775238037109375</LongitudeDegrees>
            </Position>
            <AltitudeMeters>391</AltitudeMeters>
            <DistanceMeters>1957.4769642951</DistanceMeters>
          </Trackpoint>
          <Trackpoint>
            <Time>2021-03-31T14:17:19.000Z</Time>
            <Position>
              <LatitudeDegrees>42.45571997947990894317626953125</LatitudeDegrees>
              <LongitudeDegrees>2.85995154641568660736083984375</LongitudeDegrees>
            </Position>
            <AltitudeMeters>391</AltitudeMeters>
            <DistanceMeters>1964.928537287</DistanceMeters>
          </Trackpoint>
          <Trackpoint>
            <Time>2021-03-31T14:17:22.000Z</Time>
            <Position>
              <LatitudeDegrees>42.45571888983249664306640625</LatitudeDegrees>
              <LongitudeDegrees>2.8599206171929836273193359375</LongitudeDegrees>
            </Position>
            <AltitudeMeters>391</AltitudeMeters>
            <DistanceMeters>1967.4712788653</DistanceMeters>
          </Trackpoint>
          <Trackpoint>
            <Time>2021-03-31T14:17:23.000Z</Time>
            <Position>
              <LatitudeDegrees>42.45571981184184551239013671875</LatitudeDegrees>
              <LongitudeDegrees>2.85991164855659008026123046875</LongitudeDegrees>
            </Position>
            <AltitudeMeters>390.79998779296875</AltitudeMeters>
            <DistanceMeters>1968.2134612304</DistanceMeters>
          </Trackpoint>
          <Trackpoint>
            <Time>2021-03-31T14:17:27.000Z</Time>
            <Position>
              <LatitudeDegrees>42.45570707134902477264404296875</LatitudeDegrees>
              <LongitudeDegrees>2.85987309180200099945068359375</LongitudeDegrees>
            </Position>
            <AltitudeMeters>389.600006103515625</AltitudeMeters>
            <DistanceMeters>1971.6829124694</DistanceMeters>
          </Trackpoint>
          <Trackpoint>
            <Time>2021-03-31T14:17:29.000Z</Time>
            <Position>
              <LatitudeDegrees>42.45569349266588687896728515625</LatitudeDegrees>
              <LongitudeDegrees>2.8598602674901485443115234375</LongitudeDegrees>
            </Position>
            <AltitudeMeters>388.600006103515625</AltitudeMeters>
            <DistanceMeters>1973.5255488261</DistanceMeters>
          </Trackpoint>
          <Trackpoint>
            <Time>2021-03-31T14:17:33.000Z</Time>
            <Position>
              <LatitudeDegrees>42.4556590430438518524169921875</LatitudeDegrees>
              <LongitudeDegrees>2.859837301075458526611328125</LongitudeDegrees>
            </Position>
            <AltitudeMeters>387.399993896484375</AltitudeMeters>
            <DistanceMeters>1977.7985822415</DistanceMeters>
          </Trackpoint>
          <Trackpoint>
            <Time>2021-03-31T14:17:35.000Z</Time>
            <Position>
              <LatitudeDegrees>42.455646134912967681884765625</LatitudeDegrees>
              <LongitudeDegrees>2.85982330329716205596923828125</LongitudeDegrees>
            </Position>
            <AltitudeMeters>386.600006103515625</AltitudeMeters>
            <DistanceMeters>1979.6387666525</DistanceMeters>
          </Trackpoint>
          <Trackpoint>
            <Time>2021-03-31T14:17:36.000Z</Time>
            <Position>
              <LatitudeDegrees>42.45564068667590618133544921875</LatitudeDegrees>
              <LongitudeDegrees>2.85981676541268825531005859375</LongitudeDegrees>
            </Position>
            <AltitudeMeters>386.399993896484375</AltitudeMeters>
            <DistanceMeters>1980.445095062</DistanceMeters>
          </Trackpoint>
          <Trackpoint>
            <Time>2021-03-31T14:17:41.000Z</Time>
            <Position>
              <LatitudeDegrees>42.4556107632815837860107421875</LatitudeDegrees>
              <LongitudeDegrees>2.85977887921035289764404296875</LongitudeDegrees>
            </Position>
            <AltitudeMeters>384.79998779296875</AltitudeMeters>
            <DistanceMeters>1985.0024161854</DistanceMeters>
          </Trackpoint>
          <Trackpoint>
            <Time>2021-03-31T14:17:45.000Z</Time>
            <Position>
              <LatitudeDegrees>42.4555842764675617218017578125</LatitudeDegrees>
              <LongitudeDegrees>2.8597496263682842254638671875</LongitudeDegrees>
            </Position>
            <AltitudeMeters>383.79998779296875</AltitudeMeters>
            <DistanceMeters>1988.8058596861</DistanceMeters>
          </Trackpoint>
          <Trackpoint>
            <Time>2021-03-31T14:17:52.000Z</Time>
            <Position>
              <LatitudeDegrees>42.455526776611804962158203125</LatitudeDegrees>
              <LongitudeDegrees>2.8597030229866504669189453125</LongitudeDegrees>
            </Position>
            <AltitudeMeters>382.600006103515625</AltitudeMeters>
            <DistanceMeters>1996.2622784421</DistanceMeters>
          </Trackpoint>
          <Trackpoint>
            <Time>2021-03-31T14:17:56.000Z</Time>
            <Position>
              <LatitudeDegrees>42.45549936778843402862548828125</LatitudeDegrees>
              <LongitudeDegrees>2.85967159084975719451904296875</LongitudeDegrees>
            </Position>
            <AltitudeMeters>381.79998779296875</AltitudeMeters>
            <DistanceMeters>2000.257922965</DistanceMeters>
          </Trackpoint>
          <Trackpoint>
            <Time>2021-03-31T14:17:57.000Z</Time>
            <Position>
              <LatitudeDegrees>42.455495931208133697509765625</LatitudeDegrees>
              <LongitudeDegrees>2.85966471768915653228759765625</LongitudeDegrees>
            </Position>
            <AltitudeMeters>381.600006103515625</AltitudeMeters>
            <DistanceMeters>2000.9298633062</DistanceMeters>
          </Trackpoint>
          <Trackpoint>
            <Time>2021-03-31T14:18:03.000Z</Time>
            <Position>
              <LatitudeDegrees>42.45546248741447925567626953125</LatitudeDegrees>
              <LongitudeDegrees>2.85965549759566783905029296875</LongitudeDegrees>
            </Position>
            <AltitudeMeters>380.600006103515625</AltitudeMeters>
            <DistanceMeters>2004.7285554703</DistanceMeters>
          </Trackpoint>
          <Trackpoint>
            <Time>2021-03-31T14:18:08.000Z</Time>
            <Position>
              <LatitudeDegrees>42.4554320611059665679931640625</LatitudeDegrees>
              <LongitudeDegrees>2.85962230525910854339599609375</LongitudeDegrees>
            </Position>
            <AltitudeMeters>379.20001220703125</AltitudeMeters>
            <DistanceMeters>2009.0759627433</DistanceMeters>
          </Trackpoint>
          <Trackpoint>
            <Time>2021-03-31T14:18:10.000Z</Time>
            <Position>
              <LatitudeDegrees>42.45542694814503192901611328125</LatitudeDegrees>
              <LongitudeDegrees>2.85959816537797451019287109375</LongitudeDegrees>
            </Position>
            <AltitudeMeters>378</AltitudeMeters>
            <DistanceMeters>2011.1360928189</DistanceMeters>
          </Trackpoint>
          <Trackpoint>
            <Time>2021-03-31T14:18:11.000Z</Time>
            <Position>
              <LatitudeDegrees>42.4554246850311756134033203125</LatitudeDegrees>
              <LongitudeDegrees>2.85958458669483661651611328125</LongitudeDegrees>
            </Position>
            <AltitudeMeters>377.600006103515625</AltitudeMeters>
            <DistanceMeters>2012.2764133914</DistanceMeters>
          </Trackpoint>
          <Trackpoint>
            <Time>2021-03-31T14:18:17.000Z</Time>
            <Position>
              <LatitudeDegrees>42.45539945550262928009033203125</LatitudeDegrees>
              <LongitudeDegrees>2.85952239297330379486083984375</LongitudeDegrees>
            </Position>
            <AltitudeMeters>376.600006103515625</AltitudeMeters>
            <DistanceMeters>2018.1048906867</DistanceMeters>
          </Trackpoint>
          <Trackpoint>
            <Time>2021-03-31T14:18:19.000Z</Time>
            <Position>
              <LatitudeDegrees>42.45539509691298007965087890625</LatitudeDegrees>
              <LongitudeDegrees>2.85949699580669403076171875</LongitudeDegrees>
            </Position>
            <AltitudeMeters>376</AltitudeMeters>
            <DistanceMeters>2020.2487910832</DistanceMeters>
          </Trackpoint>
          <Trackpoint>
            <Time>2021-03-31T14:18:21.000Z</Time>
            <Position>
              <LatitudeDegrees>42.45539409108459949493408203125</LatitudeDegrees>
              <LongitudeDegrees>2.85947277210652828216552734375</LongitudeDegrees>
            </Position>
            <AltitudeMeters>375.600006103515625</AltitudeMeters>
            <DistanceMeters>2022.24208826</DistanceMeters>
          </Trackpoint>
          <Trackpoint>
            <Time>2021-03-31T14:18:23.000Z</Time>
            <Position>
              <LatitudeDegrees>42.45538755320012569427490234375</LatitudeDegrees>
              <LongitudeDegrees>2.85945282317698001861572265625</LongitudeDegrees>
            </Position>
            <AltitudeMeters>375.20001220703125</AltitudeMeters>
            <DistanceMeters>2024.0350487209</DistanceMeters>
          </Trackpoint>
          <Trackpoint>
            <Time>2021-03-31T14:18:27.000Z</Time>
            <Position>
              <LatitudeDegrees>42.45536006055772304534912109375</LatitudeDegrees>
              <LongitudeDegrees>2.85942315123975276947021484375</LongitudeDegrees>
            </Position>
            <AltitudeMeters>374.399993896484375</AltitudeMeters>
            <DistanceMeters>2027.9484883395</DistanceMeters>
          </Trackpoint>
          <Trackpoint>
            <Time>2021-03-31T14:18:28.000Z</Time>
            <Position>
              <LatitudeDegrees>42.45535301975905895233154296875</LatitudeDegrees>
              <LongitudeDegrees>2.8594173677265644073486328125</LongitudeDegrees>
            </Position>
            <AltitudeMeters>374.20001220703125</AltitudeMeters>
            <DistanceMeters>2028.8648927859</DistanceMeters>
          </Trackpoint>
          <Trackpoint>
            <Time>2021-03-31T14:18:30.000Z</Time>
            <Position>
              <LatitudeDegrees>42.45534296147525310516357421875</LatitudeDegrees>
              <LongitudeDegrees>2.85940756089985370635986328125</LongitudeDegrees>
            </Position>
            <AltitudeMeters>373.79998779296875</AltitudeMeters>
            <DistanceMeters>2030.2419607048</DistanceMeters>
          </Trackpoint>
          <Trackpoint>
            <Time>2021-03-31T14:18:32.000Z</Time>
            <Position>
              <LatitudeDegrees>42.4553318135440349578857421875</LatitudeDegrees>
              <LongitudeDegrees>2.85939414985477924346923828125</LongitudeDegrees>
            </Position>
            <AltitudeMeters>373.399993896484375</AltitudeMeters>
            <DistanceMeters>2031.9015309249</DistanceMeters>
          </Trackpoint>
          <Trackpoint>
            <Time>2021-03-31T14:18:36.000Z</Time>
            <Position>
              <LatitudeDegrees>42.4553118646144866943359375</LatitudeDegrees>
              <LongitudeDegrees>2.8593667410314083099365234375</LongitudeDegrees>
            </Position>
            <AltitudeMeters>372.20001220703125</AltitudeMeters>
            <DistanceMeters>2035.0617942916</DistanceMeters>
          </Trackpoint>
          <Trackpoint>
            <Time>2021-03-31T14:18:38.000Z</Time>
            <Position>
              <LatitudeDegrees>42.45530323125422000885009765625</LatitudeDegrees>
              <LongitudeDegrees>2.85935224033892154693603515625</LongitudeDegrees>
            </Position>
            <AltitudeMeters>372</AltitudeMeters>
            <DistanceMeters>2036.59405402</DistanceMeters>
          </Trackpoint>
          <Trackpoint>
            <Time>2021-03-31T14:18:41.000Z</Time>
            <Position>
              <LatitudeDegrees>42.4552828632295131683349609375</LatitudeDegrees>
              <LongitudeDegrees>2.85933061502873897552490234375</LongitudeDegrees>
            </Position>
            <AltitudeMeters>371</AltitudeMeters>
            <DistanceMeters>2039.4732223332</DistanceMeters>
          </Trackpoint>
          <Trackpoint>
            <Time>2021-03-31T14:18:45.000Z</Time>
            <Position>
              <LatitudeDegrees>42.45526718907058238983154296875</LatitudeDegrees>
              <LongitudeDegrees>2.85928920842707157135009765625</LongitudeDegrees>
            </Position>
            <AltitudeMeters>369.79998779296875</AltitudeMeters>
            <DistanceMeters>2043.2944307297</DistanceMeters>
          </Trackpoint>
          <Trackpoint>
            <Time>2021-03-31T14:18:47.000Z</Time>
            <Position>
              <LatitudeDegrees>42.4552635848522186279296875</LatitudeDegrees>
              <LongitudeDegrees>2.85926900804042816162109375</LongitudeDegrees>
            </Position>
            <AltitudeMeters>369.399993896484375</AltitudeMeters>
            <DistanceMeters>2045.0022699175</DistanceMeters>
          </Trackpoint>
          <Trackpoint>
            <Time>2021-03-31T14:18:50.000Z</Time>
            <Position>
              <LatitudeDegrees>42.455255202949047088623046875</LatitudeDegrees>
              <LongitudeDegrees>2.8592433594167232513427734375</LongitudeDegrees>
            </Position>
            <AltitudeMeters>368.600006103515625</AltitudeMeters>
            <DistanceMeters>2047.304585029</DistanceMeters>
          </Trackpoint>
          <Trackpoint>
            <Time>2021-03-31T14:18:54.000Z</Time>
            <Position>
              <LatitudeDegrees>42.45523131452500820159912109375</LatitudeDegrees>
              <LongitudeDegrees>2.85922734998166561126708984375</LongitudeDegrees>
            </Position>
            <AltitudeMeters>367.399993896484375</AltitudeMeters>
            <DistanceMeters>2050.2717932342</DistanceMeters>
          </Trackpoint>
          <Trackpoint>
            <Time>2021-03-31T14:18:56.000Z</Time>
            <Position>
              <LatitudeDegrees>42.45521354489028453826904296875</LatitudeDegrees>
              <LongitudeDegrees>2.859223745763301849365234375</LongitudeDegrees>
            </Position>
            <AltitudeMeters>366.79998779296875</AltitudeMeters>
            <DistanceMeters>2052.274130354</DistanceMeters>
          </Trackpoint>
          <Trackpoint>
            <Time>2021-03-31T14:18:58.000Z</Time>
            <Position>
              <LatitudeDegrees>42.45519720017910003662109375</LatitudeDegrees>
              <LongitudeDegrees>2.8592162020504474639892578125</LongitudeDegrees>
            </Position>
            <AltitudeMeters>366.20001220703125</AltitudeMeters>
            <DistanceMeters>2054.1935758961</DistanceMeters>
          </Trackpoint>
          <Trackpoint>
            <Time>2021-03-31T14:19:02.000Z</Time>
            <Position>
              <LatitudeDegrees>42.45516761206090450286865234375</LatitudeDegrees>
              <LongitudeDegrees>2.8591851890087127685546875</LongitudeDegrees>
            </Position>
            <AltitudeMeters>365</AltitudeMeters>
            <DistanceMeters>2058.355268655</DistanceMeters>
          </Trackpoint>
          <Trackpoint>
            <Time>2021-03-31T14:19:06.000Z</Time>
            <Position>
              <LatitudeDegrees>42.45515923015773296356201171875</LatitudeDegrees>
              <LongitudeDegrees>2.85914738662540912628173828125</LongitudeDegrees>
            </Position>
            <AltitudeMeters>364</AltitudeMeters>
            <DistanceMeters>2061.5959443414</DistanceMeters>
          </Trackpoint>
          <Trackpoint>
            <Time>2021-03-31T14:19:09.000Z</Time>
            <Position>
              <LatitudeDegrees>42.4551487527787685394287109375</LatitudeDegrees>
              <LongitudeDegrees>2.85912425257265567779541015625</LongitudeDegrees>
            </Position>
            <AltitudeMeters>363.399993896484375</AltitudeMeters>
            <DistanceMeters>2063.8265433911</DistanceMeters>
          </Trackpoint>
          <Trackpoint>
            <Time>2021-03-31T14:19:11.000Z</Time>
            <Position>
              <LatitudeDegrees>42.45513156987726688385009765625</LatitudeDegrees>
              <LongitudeDegrees>2.85910673439502716064453125</LongitudeDegrees>
            </Position>
            <AltitudeMeters>363</AltitudeMeters>
            <DistanceMeters>2066.2230259423</DistanceMeters>
          </Trackpoint>
          <Trackpoint>
            <Time>2021-03-31T14:19:14.000Z</Time>
            <Position>
              <LatitudeDegrees>42.45510709472000598907470703125</LatitudeDegrees>
              <LongitudeDegrees>2.859095670282840728759765625</LongitudeDegrees>
            </Position>
            <AltitudeMeters>362</AltitudeMeters>
            <DistanceMeters>2069.0943426774</DistanceMeters>
          </Trackpoint>
          <Trackpoint>
            <Time>2021-03-31T14:19:16.000Z</Time>
            <Position>
              <LatitudeDegrees>42.45509049855172634124755859375</LatitudeDegrees>
              <LongitudeDegrees>2.859103046357631683349609375</LongitudeDegrees>
            </Position>
            <AltitudeMeters>361.79998779296875</AltitudeMeters>
            <DistanceMeters>2071.0371684425</DistanceMeters>
          </Trackpoint>
          <Trackpoint>
            <Time>2021-03-31T14:19:21.000Z</Time>
            <Position>
              <LatitudeDegrees>42.45503894984722137451171875</LatitudeDegrees>
              <LongitudeDegrees>2.8591052256524562835693359375</LongitudeDegrees>
            </Position>
            <AltitudeMeters>361</AltitudeMeters>
            <DistanceMeters>2076.7782292348</DistanceMeters>
          </Trackpoint>
          <Trackpoint>
            <Time>2021-03-31T14:19:22.000Z</Time>
            <Position>
              <LatitudeDegrees>42.45503266341984272003173828125</LatitudeDegrees>
              <LongitudeDegrees>2.85910044796764850616455078125</LongitudeDegrees>
            </Position>
            <AltitudeMeters>360.79998779296875</AltitudeMeters>
            <DistanceMeters>2077.5845576443</DistanceMeters>
          </Trackpoint>
          <Trackpoint>
            <Time>2021-03-31T14:19:24.000Z</Time>
            <Position>
              <LatitudeDegrees>42.455017827451229095458984375</LatitudeDegrees>
              <LongitudeDegrees>2.85907932557165622711181640625</LongitudeDegrees>
            </Position>
            <AltitudeMeters>360.399993896484375</AltitudeMeters>
            <DistanceMeters>2079.9791554272</DistanceMeters>
          </Trackpoint>
          <Trackpoint>
            <Time>2021-03-31T14:19:27.000Z</Time>
            <Position>
              <LatitudeDegrees>42.45501757599413394927978515625</LatitudeDegrees>
              <LongitudeDegrees>2.859046719968318939208984375</LongitudeDegrees>
            </Position>
            <AltitudeMeters>359.600006103515625</AltitudeMeters>
            <DistanceMeters>2082.6568187175</DistanceMeters>
          </Trackpoint>
          <Trackpoint>
            <Time>2021-03-31T14:19:28.000Z</Time>
            <Position>
              <LatitudeDegrees>42.45502025820314884185791015625</LatitudeDegrees>
              <LongitudeDegrees>2.85903221927583217620849609375</LongitudeDegrees>
            </Position>
            <AltitudeMeters>359.399993896484375</AltitudeMeters>
            <DistanceMeters>2083.8811522872</DistanceMeters>
          </Trackpoint>
          <Trackpoint>
            <Time>2021-03-31T14:19:32.000Z</Time>
            <Position>
              <LatitudeDegrees>42.4550087749958038330078125</LatitudeDegrees>
              <LongitudeDegrees>2.8589835204184055328369140625</LongitudeDegrees>
            </Position>
            <AltitudeMeters>358.79998779296875</AltitudeMeters>
            <DistanceMeters>2088.0795697531</DistanceMeters>
          </Trackpoint>
          <Trackpoint>
            <Time>2021-03-31T14:19:33.000Z</Time>
            <Position>
              <LatitudeDegrees>42.4550045840442180633544921875</LatitudeDegrees>
              <LongitudeDegrees>2.8589731268584728240966796875</LongitudeDegrees>
            </Position>
            <AltitudeMeters>358.399993896484375</AltitudeMeters>
            <DistanceMeters>2089.0486558949</DistanceMeters>
          </Trackpoint>
          <Trackpoint>
            <Time>2021-03-31T14:19:35.000Z</Time>
            <Position>
              <LatitudeDegrees>42.4549978785216808319091796875</LatitudeDegrees>
              <LongitudeDegrees>2.8589493222534656524658203125</LongitudeDegrees>
            </Position>
            <AltitudeMeters>358</AltitudeMeters>
            <DistanceMeters>2091.1392436111</DistanceMeters>
          </Trackpoint>
          <Trackpoint>
            <Time>2021-03-31T14:19:36.000Z</Time>
            <Position>
              <LatitudeDegrees>42.4549978785216808319091796875</LatitudeDegrees>
              <LongitudeDegrees>2.858934737741947174072265625</LongitudeDegrees>
            </Position>
            <AltitudeMeters>357.79998779296875</AltitudeMeters>
            <DistanceMeters>2092.333710889</DistanceMeters>
          </Trackpoint>
          <Trackpoint>
            <Time>2021-03-31T14:19:38.000Z</Time>
            <Position>
              <LatitudeDegrees>42.45499410666525363922119140625</LatitudeDegrees>
              <LongitudeDegrees>2.85890934057533740997314453125</LongitudeDegrees>
            </Position>
            <AltitudeMeters>357.399993896484375</AltitudeMeters>
            <DistanceMeters>2094.4606966197</DistanceMeters>
          </Trackpoint>
          <Trackpoint>
            <Time>2021-03-31T14:19:40.000Z</Time>
            <Position>
              <LatitudeDegrees>42.45498304255306720733642578125</LatitudeDegrees>
              <LongitudeDegrees>2.85887832753360271453857421875</LongitudeDegrees>
            </Position>
            <AltitudeMeters>356.79998779296875</AltitudeMeters>
            <DistanceMeters>2097.2892382456</DistanceMeters>
          </Trackpoint>
          <Trackpoint>
            <Time>2021-03-31T14:19:44.000Z</Time>
            <Position>
              <LatitudeDegrees>42.45496745221316814422607421875</LatitudeDegrees>
              <LongitudeDegrees>2.858818061649799346923828125</LongitudeDegrees>
            </Position>
            <AltitudeMeters>356.399993896484375</AltitudeMeters>
            <DistanceMeters>2102.5338176232</DistanceMeters>
          </Trackpoint>
          <Trackpoint>
            <Time>2021-03-31T14:19:48.000Z</Time>
            <Position>
              <LatitudeDegrees>42.4549539573490619659423828125</LatitudeDegrees>
              <LongitudeDegrees>2.858755029737949371337890625</LongitudeDegrees>
            </Position>
            <AltitudeMeters>355.20001220703125</AltitudeMeters>
            <DistanceMeters>2107.9227624034</DistanceMeters>
          </Trackpoint>
          <Trackpoint>
            <Time>2021-03-31T14:19:51.000Z</Time>
            <Position>
              <LatitudeDegrees>42.4549358524382114410400390625</LatitudeDegrees>
              <LongitudeDegrees>2.85870800726115703582763671875</LongitudeDegrees>
            </Position>
            <AltitudeMeters>354.399993896484375</AltitudeMeters>
            <DistanceMeters>2112.2774335198</DistanceMeters>
          </Trackpoint>
          <Trackpoint>
            <Time>2021-03-31T14:19:52.000Z</Time>
            <Position>
              <LatitudeDegrees>42.454933337867259979248046875</LatitudeDegrees>
              <LongitudeDegrees>2.8586935065686702728271484375</LongitudeDegrees>
            </Position>
            <AltitudeMeters>354.20001220703125</AltitudeMeters>
            <DistanceMeters>2113.5017670894</DistanceMeters>
          </Trackpoint>
          <Trackpoint>
            <Time>2021-03-31T14:19:53.000Z</Time>
            <Position>
              <LatitudeDegrees>42.45492939837276935577392578125</LatitudeDegrees>
              <LongitudeDegrees>2.85867892205715179443359375</LongitudeDegrees>
            </Position>
            <AltitudeMeters>354.20001220703125</AltitudeMeters>
            <DistanceMeters>2114.7837475545</DistanceMeters>
          </Trackpoint>
          <Trackpoint>
            <Time>2021-03-31T14:19:55.000Z</Time>
            <Position>
              <LatitudeDegrees>42.45491464622318744659423828125</LatitudeDegrees>
              <LongitudeDegrees>2.85865612328052520751953125</LongitudeDegrees>
            </Position>
            <AltitudeMeters>354</AltitudeMeters>
            <DistanceMeters>2117.2744628166</DistanceMeters>
          </Trackpoint>
          <Trackpoint>
            <Time>2021-03-31T14:19:56.000Z</Time>
            <Position>
              <LatitudeDegrees>42.4549043364822864532470703125</LatitudeDegrees>
              <LongitudeDegrees>2.8586487472057342529296875</LongitudeDegrees>
            </Position>
            <AltitudeMeters>355.600006103515625</AltitudeMeters>
            <DistanceMeters>2118.5739335916</DistanceMeters>
          </Trackpoint>
          <Trackpoint>
            <Time>2021-03-31T14:19:58.000Z</Time>
            <Position>
              <LatitudeDegrees>42.45488346554338932037353515625</LatitudeDegrees>
              <LongitudeDegrees>2.85863407887518405914306640625</LongitudeDegrees>
            </Position>
            <AltitudeMeters>355.600006103515625</AltitudeMeters>
            <DistanceMeters>2121.1901900669</DistanceMeters>
          </Trackpoint>
          <Trackpoint>
            <Time>2021-03-31T14:20:00.000Z</Time>
            <Position>
              <LatitudeDegrees>42.454862929880619049072265625</LatitudeDegrees>
              <LongitudeDegrees>2.85862267948687076568603515625</LongitudeDegrees>
            </Position>
            <AltitudeMeters>355.600006103515625</AltitudeMeters>
            <DistanceMeters>2123.6590565274</DistanceMeters>
          </Trackpoint>
          <Trackpoint>
            <Time>2021-03-31T14:20:03.000Z</Time>
            <Position>
              <LatitudeDegrees>42.45484323240816593170166015625</LatitudeDegrees>
              <LongitudeDegrees>2.8586018085479736328125</LongitudeDegrees>
            </Position>
            <AltitudeMeters>355.20001220703125</AltitudeMeters>
            <DistanceMeters>2126.4457868232</DistanceMeters>
          </Trackpoint>
          <Trackpoint>
            <Time>2021-03-31T14:20:05.000Z</Time>
            <Position>
              <LatitudeDegrees>42.4548299051821231842041015625</LatitudeDegrees>
              <LongitudeDegrees>2.8585910797119140625</LongitudeDegrees>
            </Position>
            <AltitudeMeters>354.600006103515625</AltitudeMeters>
            <DistanceMeters>2128.1720328157</DistanceMeters>
          </Trackpoint>
          <Trackpoint>
            <Time>2021-03-31T14:20:06.000Z</Time>
            <Position>
              <LatitudeDegrees>42.45482244528830051422119140625</LatitudeDegrees>
              <LongitudeDegrees>2.858582697808742523193359375</LongitudeDegrees>
            </Position>
            <AltitudeMeters>354.20001220703125</AltitudeMeters>
            <DistanceMeters>2129.2471373617</DistanceMeters>
          </Trackpoint>
          <Trackpoint>
            <Time>2021-03-31T14:20:07.000Z</Time>
            <Position>
              <LatitudeDegrees>42.45481305755674839019775390625</LatitudeDegrees>
              <LongitudeDegrees>2.858573310077190399169921875</LongitudeDegrees>
            </Position>
            <AltitudeMeters>353.600006103515625</AltitudeMeters>
            <DistanceMeters>2130.5466081367</DistanceMeters>
          </Trackpoint>
          <Trackpoint>
            <Time>2021-03-31T14:20:09.000Z</Time>
            <Position>
              <LatitudeDegrees>42.4548000656068325042724609375</LatitudeDegrees>
              <LongitudeDegrees>2.858557887375354766845703125</LongitudeDegrees>
            </Position>
            <AltitudeMeters>352.399993896484375</AltitudeMeters>
            <DistanceMeters>2132.4660536788</DistanceMeters>
          </Trackpoint>
          <Trackpoint>
            <Time>2021-03-31T14:20:13.000Z</Time>
            <Position>
              <LatitudeDegrees>42.4547863192856311798095703125</LatitudeDegrees>
              <LongitudeDegrees>2.8585379384458065032958984375</LongitudeDegrees>
            </Position>
            <AltitudeMeters>351.399993896484375</AltitudeMeters>
            <DistanceMeters>2134.7067505576</DistanceMeters>
          </Trackpoint>
          <Trackpoint>
            <Time>2021-03-31T14:20:15.000Z</Time>
            <Position>
              <LatitudeDegrees>42.45476997457444667816162109375</LatitudeDegrees>
              <LongitudeDegrees>2.85853005945682525634765625</LongitudeDegrees>
            </Position>
            <AltitudeMeters>351</AltitudeMeters>
            <DistanceMeters>2136.6355821975</DistanceMeters>
          </Trackpoint>
          <Trackpoint>
            <Time>2021-03-31T14:20:18.000Z</Time>
            <Position>
              <LatitudeDegrees>42.4547460861504077911376953125</LatitudeDegrees>
              <LongitudeDegrees>2.85850147716701030731201171875</LongitudeDegrees>
            </Position>
            <AltitudeMeters>350.20001220703125</AltitudeMeters>
            <DistanceMeters>2140.1822562009</DistanceMeters>
          </Trackpoint>
          <Trackpoint>
            <Time>2021-03-31T14:20:20.000Z</Time>
            <Position>
              <LatitudeDegrees>42.45473728515207767486572265625</LatitudeDegrees>
              <LongitudeDegrees>2.858475744724273681640625</LongitudeDegrees>
            </Position>
            <AltitudeMeters>349.79998779296875</AltitudeMeters>
            <DistanceMeters>2142.5099258223</DistanceMeters>
          </Trackpoint>
          <Trackpoint>
            <Time>2021-03-31T14:20:23.000Z</Time>
            <Position>
              <LatitudeDegrees>42.45472940616309642791748046875</LatitudeDegrees>
              <LongitudeDegrees>2.85844028927385807037353515625</LongitudeDegrees>
            </Position>
            <AltitudeMeters>349.399993896484375</AltitudeMeters>
            <DistanceMeters>2145.5507806821</DistanceMeters>
          </Trackpoint>
          <Trackpoint>
            <Time>2021-03-31T14:20:24.000Z</Time>
            <Position>
              <LatitudeDegrees>42.45472940616309642791748046875</LatitudeDegrees>
              <LongitudeDegrees>2.85843257792294025421142578125</LongitudeDegrees>
            </Position>
            <AltitudeMeters>349.399993896484375</AltitudeMeters>
            <DistanceMeters>2146.1882392611</DistanceMeters>
          </Trackpoint>
          <Trackpoint>
            <Time>2021-03-31T14:20:25.000Z</Time>
            <Position>
              <LatitudeDegrees>42.45472840033471584320068359375</LatitudeDegrees>
              <LongitudeDegrees>2.85842520184814929962158203125</LongitudeDegrees>
            </Position>
            <AltitudeMeters>349.399993896484375</AltitudeMeters>
            <DistanceMeters>2146.8185751744</DistanceMeters>
          </Trackpoint>
          <Trackpoint>
            <Time>2021-03-31T14:20:26.000Z</Time>
            <Position>
              <LatitudeDegrees>42.45472772978246212005615234375</LatitudeDegrees>
              <LongitudeDegrees>2.85841405391693115234375</LongitudeDegrees>
            </Position>
            <AltitudeMeters>349.20001220703125</AltitudeMeters>
            <DistanceMeters>2147.7398933527</DistanceMeters>
          </Trackpoint>
          <Trackpoint>
            <Time>2021-03-31T14:20:27.000Z</Time>
            <Position>
              <LatitudeDegrees>42.45472823269665241241455078125</LatitudeDegrees>
              <LongitudeDegrees>2.8584011457860469818115234375</LongitudeDegrees>
            </Position>
            <AltitudeMeters>348.79998779296875</AltitudeMeters>
            <DistanceMeters>2148.806565576</DistanceMeters>
          </Trackpoint>
          <Trackpoint>
            <Time>2021-03-31T14:20:29.000Z</Time>
            <Position>
              <LatitudeDegrees>42.45473091490566730499267578125</LatitudeDegrees>
              <LongitudeDegrees>2.858372144401073455810546875</LongitudeDegrees>
            </Position>
            <AltitudeMeters>348.20001220703125</AltitudeMeters>
            <DistanceMeters>2151.2068132239</DistanceMeters>
          </Trackpoint>
          <Trackpoint>
            <Time>2021-03-31T14:20:30.000Z</Time>
            <Position>
              <LatitudeDegrees>42.45473359711468219757080078125</LatitudeDegrees>
              <LongitudeDegrees>2.85836300812661647796630859375</LongitudeDegrees>
            </Position>
            <AltitudeMeters>348</AltitudeMeters>
            <DistanceMeters>2152.0131416334</DistanceMeters>
          </Trackpoint>
          <Trackpoint>
            <Time>2021-03-31T14:20:35.000Z</Time>
            <Position>
              <LatitudeDegrees>42.454732842743396759033203125</LatitudeDegrees>
              <LongitudeDegrees>2.85830047912895679473876953125</LongitudeDegrees>
            </Position>
            <AltitudeMeters>346.79998779296875</AltitudeMeters>
            <DistanceMeters>2157.1481025112</DistanceMeters>
          </Trackpoint>
          <Trackpoint>
            <Time>2021-03-31T14:20:37.000Z</Time>
            <Position>
              <LatitudeDegrees>42.45472538284957408905029296875</LatitudeDegrees>
              <LongitudeDegrees>2.85827483050525188446044921875</LongitudeDegrees>
            </Position>
            <AltitudeMeters>346.600006103515625</AltitudeMeters>
            <DistanceMeters>2159.4108559984</DistanceMeters>
          </Trackpoint>
          <Trackpoint>
            <Time>2021-03-31T14:20:42.000Z</Time>
            <Position>
              <LatitudeDegrees>42.4547132290899753570556640625</LatitudeDegrees>
              <LongitudeDegrees>2.85822705365717411041259765625</LongitudeDegrees>
            </Position>
            <AltitudeMeters>345.79998779296875</AltitudeMeters>
            <DistanceMeters>2163.559509479</DistanceMeters>
          </Trackpoint>
          <Trackpoint>
            <Time>2021-03-31T14:20:43.000Z</Time>
            <Position>
              <LatitudeDegrees>42.4547108821570873260498046875</LatitudeDegrees>
              <LongitudeDegrees>2.85822370089590549468994140625</LongitudeDegrees>
            </Position>
            <AltitudeMeters>345.600006103515625</AltitudeMeters>
            <DistanceMeters>2163.9396163364</DistanceMeters>
          </Trackpoint>
          <Trackpoint>
            <Time>2021-03-31T14:20:46.000Z</Time>
            <Position>
              <LatitudeDegrees>42.454708702862262725830078125</LatitudeDegrees>
              <LongitudeDegrees>2.858187742531299591064453125</LongitudeDegrees>
            </Position>
            <AltitudeMeters>345</AltitudeMeters>
            <DistanceMeters>2166.9037796889</DistanceMeters>
          </Trackpoint>
          <Trackpoint>
            <Time>2021-03-31T14:20:47.000Z</Time>
            <Position>
              <LatitudeDegrees>42.45470878668129444122314453125</LatitudeDegrees>
              <LongitudeDegrees>2.85817659460008144378662109375</LongitudeDegrees>
            </Position>
            <AltitudeMeters>344.79998779296875</AltitudeMeters>
            <DistanceMeters>2167.8152439136</DistanceMeters>
          </Trackpoint>
          <Trackpoint>
            <Time>2021-03-31T14:20:52.000Z</Time>
            <Position>
              <LatitudeDegrees>42.4547110497951507568359375</LatitudeDegrees>
              <LongitudeDegrees>2.85812429152429103851318359375</LongitudeDegrees>
            </Position>
            <AltitudeMeters>343.600006103515625</AltitudeMeters>
            <DistanceMeters>2172.1177613987</DistanceMeters>
          </Trackpoint>
          <Trackpoint>
            <Time>2021-03-31T14:21:00.000Z</Time>
            <Position>
              <LatitudeDegrees>42.45470660738646984100341796875</LatitudeDegrees>
              <LongitudeDegrees>2.8580316714942455291748046875</LongitudeDegrees>
            </Position>
            <AltitudeMeters>342.79998779296875</AltitudeMeters>
            <DistanceMeters>2179.7400649771</DistanceMeters>
          </Trackpoint>
          <Trackpoint>
            <Time>2021-03-31T14:21:01.000Z</Time>
            <Position>
              <LatitudeDegrees>42.45470761321485042572021484375</LatitudeDegrees>
              <LongitudeDegrees>2.8580224514007568359375</LongitudeDegrees>
            </Position>
            <AltitudeMeters>342.600006103515625</AltitudeMeters>
            <DistanceMeters>2180.5120656541</DistanceMeters>
          </Trackpoint>
          <Trackpoint>
            <Time>2021-03-31T14:21:02.000Z</Time>
            <Position>
              <LatitudeDegrees>42.45470610447227954864501953125</LatitudeDegrees>
              <LongitudeDegrees>2.858011387288570404052734375</LongitudeDegrees>
            </Position>
            <AltitudeMeters>342.600006103515625</AltitudeMeters>
            <DistanceMeters>2181.4333838324</DistanceMeters>
          </Trackpoint>
          <Trackpoint>
            <Time>2021-03-31T14:21:08.000Z</Time>
            <Position>
              <LatitudeDegrees>42.45467282831668853759765625</LatitudeDegrees>
              <LongitudeDegrees>2.8579411469399929046630859375</LongitudeDegrees>
            </Position>
            <AltitudeMeters>342</AltitudeMeters>
            <DistanceMeters>2188.2884927166</DistanceMeters>
          </Trackpoint>
          <Trackpoint>
            <Time>2021-03-31T14:21:10.000Z</Time>
            <Position>
              <LatitudeDegrees>42.45466989465057849884033203125</LatitudeDegrees>
              <LongitudeDegrees>2.85791658796370029449462890625</LongitudeDegrees>
            </Position>
            <AltitudeMeters>341.79998779296875</AltitudeMeters>
            <DistanceMeters>2190.3310145199</DistanceMeters>
          </Trackpoint>
          <Trackpoint>
            <Time>2021-03-31T14:21:17.000Z</Time>
            <Position>
              <LatitudeDegrees>42.45463469065725803375244140625</LatitudeDegrees>
              <LongitudeDegrees>2.8578559868037700653076171875</LongitudeDegrees>
            </Position>
            <AltitudeMeters>341.79998779296875</AltitudeMeters>
            <DistanceMeters>2196.6658120476</DistanceMeters>
          </Trackpoint>
          <Trackpoint>
            <Time>2021-03-31T14:21:18.000Z</Time>
            <Position>
              <LatitudeDegrees>42.45463301427662372589111328125</LatitudeDegrees>
              <LongitudeDegrees>2.857856489717960357666015625</LongitudeDegrees>
            </Position>
            <AltitudeMeters>341.79998779296875</AltitudeMeters>
            <DistanceMeters>2196.8558654764</DistanceMeters>
          </Trackpoint>
          <Trackpoint>
            <Time>2021-03-31T14:21:19.000Z</Time>
            <Position>
              <LatitudeDegrees>42.45462865568697452545166015625</LatitudeDegrees>
              <LongitudeDegrees>2.85785322077572345733642578125</LongitudeDegrees>
            </Position>
            <AltitudeMeters>341.600006103515625</AltitudeMeters>
            <DistanceMeters>2197.4099616766</DistanceMeters>
          </Trackpoint>
          <Trackpoint>
            <Time>2021-03-31T14:21:22.000Z</Time>
            <Position>
              <LatitudeDegrees>42.45460770092904567718505859375</LatitudeDegrees>
              <LongitudeDegrees>2.85783000290393829345703125</LongitudeDegrees>
            </Position>
            <AltitudeMeters>341.600006103515625</AltitudeMeters>
            <DistanceMeters>2200.4224733905</DistanceMeters>
          </Trackpoint>
          <Trackpoint>
            <Time>2021-03-31T14:21:26.000Z</Time>
            <Position>
              <LatitudeDegrees>42.4545818008482456207275390625</LatitudeDegrees>
              <LongitudeDegrees>2.85778683610260486602783203125</LongitudeDegrees>
            </Position>
            <AltitudeMeters>341.399993896484375</AltitudeMeters>
            <DistanceMeters>2204.9906794565</DistanceMeters>
          </Trackpoint>
          <Trackpoint>
            <Time>2021-03-31T14:21:28.000Z</Time>
            <Position>
              <LatitudeDegrees>42.45456612668931484222412109375</LatitudeDegrees>
              <LongitudeDegrees>2.857768647372722625732421875</LongitudeDegrees>
            </Position>
            <AltitudeMeters>343</AltitudeMeters>
            <DistanceMeters>2207.2871037734</DistanceMeters>
          </Trackpoint>
          <Trackpoint>
            <Time>2021-03-31T14:21:29.000Z</Time>
            <Position>
              <LatitudeDegrees>42.45455841533839702606201171875</LatitudeDegrees>
              <LongitudeDegrees>2.8577584214508533477783203125</LongitudeDegrees>
            </Position>
            <AltitudeMeters>341.399993896484375</AltitudeMeters>
            <DistanceMeters>2208.4891071973</DistanceMeters>
          </Trackpoint>
          <Trackpoint>
            <Time>2021-03-31T14:21:31.000Z</Time>
            <Position>
              <LatitudeDegrees>42.454544417560100555419921875</LatitudeDegrees>
              <LongitudeDegrees>2.8577342815697193145751953125</LongitudeDegrees>
            </Position>
            <AltitudeMeters>343</AltitudeMeters>
            <DistanceMeters>2211.0104508503</DistanceMeters>
          </Trackpoint>
          <Trackpoint>
            <Time>2021-03-31T14:21:32.000Z</Time>
            <Position>
              <LatitudeDegrees>42.45453662239015102386474609375</LatitudeDegrees>
              <LongitudeDegrees>2.8577232174575328826904296875</LongitudeDegrees>
            </Position>
            <AltitudeMeters>341.399993896484375</AltitudeMeters>
            <DistanceMeters>2212.2639393031</DistanceMeters>
          </Trackpoint>
          <Trackpoint>
            <Time>2021-03-31T14:21:33.000Z</Time>
            <Position>
              <LatitudeDegrees>42.4545291624963283538818359375</LatitudeDegrees>
              <LongitudeDegrees>2.85770989023149013519287109375</LongitudeDegrees>
            </Position>
            <AltitudeMeters>343</AltitudeMeters>
            <DistanceMeters>2213.6377245763</DistanceMeters>
          </Trackpoint>
          <Trackpoint>
            <Time>2021-03-31T14:21:35.000Z</Time>
            <Position>
              <LatitudeDegrees>42.45451583527028560638427734375</LatitudeDegrees>
              <LongitudeDegrees>2.85768776200711727142333984375</LongitudeDegrees>
            </Position>
            <AltitudeMeters>343</AltitudeMeters>
            <DistanceMeters>2215.9847112892</DistanceMeters>
          </Trackpoint>
          <Trackpoint>
            <Time>2021-03-31T14:21:46.000Z</Time>
            <Position>
              <LatitudeDegrees>42.45446990244090557098388671875</LatitudeDegrees>
              <LongitudeDegrees>2.857574187219142913818359375</LongitudeDegrees>
            </Position>
            <AltitudeMeters>343.399993896484375</AltitudeMeters>
            <DistanceMeters>2226.6209135104</DistanceMeters>
          </Trackpoint>
          <Trackpoint>
            <Time>2021-03-31T14:21:48.000Z</Time>
            <Position>
              <LatitudeDegrees>42.4544669687747955322265625</LatitudeDegrees>
              <LongitudeDegrees>2.85756505094468593597412109375</LongitudeDegrees>
            </Position>
            <AltitudeMeters>343.399993896484375</AltitudeMeters>
            <DistanceMeters>2227.4383642165</DistanceMeters>
          </Trackpoint>
          <Trackpoint>
            <Time>2021-03-31T14:21:51.000Z</Time>
            <Position>
              <LatitudeDegrees>42.45445800013840198516845703125</LatitudeDegrees>
              <LongitudeDegrees>2.8575609438121318817138671875</LongitudeDegrees>
            </Position>
            <AltitudeMeters>343.79998779296875</AltitudeMeters>
            <DistanceMeters>2228.4965369241</DistanceMeters>
          </Trackpoint>
          <Trackpoint>
            <Time>2021-03-31T14:21:52.000Z</Time>
            <Position>
              <LatitudeDegrees>42.45445414446294307708740234375</LatitudeDegrees>
              <LongitudeDegrees>2.85755281336605548858642578125</LongitudeDegrees>
            </Position>
            <AltitudeMeters>343.79998779296875</AltitudeMeters>
            <DistanceMeters>2229.3028653336</DistanceMeters>
          </Trackpoint>
          <Trackpoint>
            <Time>2021-03-31T14:21:54.000Z</Time>
            <Position>
              <LatitudeDegrees>42.45444525964558124542236328125</LatitudeDegrees>
              <LongitudeDegrees>2.85753739066421985626220703125</LongitudeDegrees>
            </Position>
            <AltitudeMeters>344</AltitudeMeters>
            <DistanceMeters>2230.9071009106</DistanceMeters>
          </Trackpoint>
          <Trackpoint>
            <Time>2021-03-31T14:21:55.000Z</Time>
            <Position>
              <LatitudeDegrees>42.4544416554272174835205078125</LatitudeDegrees>
              <LongitudeDegrees>2.85753102041780948638916015625</LongitudeDegrees>
            </Position>
            <AltitudeMeters>344</AltitudeMeters>
            <DistanceMeters>2231.5654653</DistanceMeters>
          </Trackpoint>
          <Trackpoint>
            <Time>2021-03-31T14:22:01.000Z</Time>
            <Position>
              <LatitudeDegrees>42.4544356204569339752197265625</LatitudeDegrees>
              <LongitudeDegrees>2.8575254045426845550537109375</LongitudeDegrees>
            </Position>
            <AltitudeMeters>344.399993896484375</AltitudeMeters>
            <DistanceMeters>2232.3773739035</DistanceMeters>
          </Trackpoint>
          <Trackpoint>
            <Time>2021-03-31T14:22:08.000Z</Time>
            <Position>
              <LatitudeDegrees>42.454408295452594757080078125</LatitudeDegrees>
              <LongitudeDegrees>2.85748408176004886627197265625</LongitudeDegrees>
            </Position>
            <AltitudeMeters>344.20001220703125</AltitudeMeters>
            <DistanceMeters>2236.9346950268</DistanceMeters>
          </Trackpoint>
          <Trackpoint>
            <Time>2021-03-31T14:22:09.000Z</Time>
            <Position>
              <LatitudeDegrees>42.4544030986726284027099609375</LatitudeDegrees>
              <LongitudeDegrees>2.85747469402849674224853515625</LongitudeDegrees>
            </Position>
            <AltitudeMeters>344.600006103515625</AltitudeMeters>
            <DistanceMeters>2237.9037811686</DistanceMeters>
          </Trackpoint>
          <Trackpoint>
            <Time>2021-03-31T14:22:12.000Z</Time>
            <Position>
              <LatitudeDegrees>42.4543930403888225555419921875</LatitudeDegrees>
              <LongitudeDegrees>2.857453487813472747802734375</LongitudeDegrees>
            </Position>
            <AltitudeMeters>345</AltitudeMeters>
            <DistanceMeters>2239.9770193091</DistanceMeters>
          </Trackpoint>
          <Trackpoint>
            <Time>2021-03-31T14:22:17.000Z</Time>
            <Position>
              <LatitudeDegrees>42.454374097287654876708984375</LatitudeDegrees>
              <LongitudeDegrees>2.8574254922568798065185546875</LongitudeDegrees>
            </Position>
            <AltitudeMeters>346.20001220703125</AltitudeMeters>
            <DistanceMeters>2243.0955754382</DistanceMeters>
          </Trackpoint>
          <Trackpoint>
            <Time>2021-03-31T14:22:20.000Z</Time>
            <Position>
              <LatitudeDegrees>42.45435976423323154449462890625</LatitudeDegrees>
              <LongitudeDegrees>2.8574006818234920501708984375</LongitudeDegrees>
            </Position>
            <AltitudeMeters>346.399993896484375</AltitudeMeters>
            <DistanceMeters>2245.6823275803</DistanceMeters>
          </Trackpoint>
          <Trackpoint>
            <Time>2021-03-31T14:22:23.000Z</Time>
            <Position>
              <LatitudeDegrees>42.45436194352805614471435546875</LatitudeDegrees>
              <LongitudeDegrees>2.8573693335056304931640625</LongitudeDegrees>
            </Position>
            <AltitudeMeters>346.399993896484375</AltitudeMeters>
            <DistanceMeters>2248.2673336864</DistanceMeters>
          </Trackpoint>
          <Trackpoint>
            <Time>2021-03-31T14:22:24.000Z</Time>
            <Position>
              <LatitudeDegrees>42.45436370372772216796875</LatitudeDegrees>
              <LongitudeDegrees>2.85736237652599811553955078125</LongitudeDegrees>
            </Position>
            <AltitudeMeters>347.600006103515625</AltitudeMeters>
            <DistanceMeters>2248.8683353984</DistanceMeters>
          </Trackpoint>
          <Trackpoint>
            <Time>2021-03-31T14:22:26.000Z</Time>
            <Position>
              <LatitudeDegrees>42.45436999015510082244873046875</LatitudeDegrees>
              <LongitudeDegrees>2.857350893318653106689453125</LongitudeDegrees>
            </Position>
            <AltitudeMeters>348.399993896484375</AltitudeMeters>
            <DistanceMeters>2250.0399034158</DistanceMeters>
          </Trackpoint>
          <Trackpoint>
            <Time>2021-03-31T14:22:30.000Z</Time>
            <Position>
              <LatitudeDegrees>42.45437351055443286895751953125</LatitudeDegrees>
              <LongitudeDegrees>2.8573188744485378265380859375</LongitudeDegrees>
            </Position>
            <AltitudeMeters>347.79998779296875</AltitudeMeters>
            <DistanceMeters>2252.6972554398</DistanceMeters>
          </Trackpoint>
          <Trackpoint>
            <Time>2021-03-31T14:22:33.000Z</Time>
            <Position>
              <LatitudeDegrees>42.45437443256378173828125</LatitudeDegrees>
              <LongitudeDegrees>2.8572903759777545928955078125</LongitudeDegrees>
            </Position>
            <AltitudeMeters>348</AltitudeMeters>
            <DistanceMeters>2255.036534458</DistanceMeters>
          </Trackpoint>
          <Trackpoint>
            <Time>2021-03-31T14:22:35.000Z</Time>
            <Position>
              <LatitudeDegrees>42.45437518693506717681884765625</LatitudeDegrees>
              <LongitudeDegrees>2.85726799629628658294677734375</LongitudeDegrees>
            </Position>
            <AltitudeMeters>348.600006103515625</AltitudeMeters>
            <DistanceMeters>2256.876718869</DistanceMeters>
          </Trackpoint>
          <Trackpoint>
            <Time>2021-03-31T14:22:37.000Z</Time>
            <Position>
              <LatitudeDegrees>42.45437552221119403839111328125</LatitudeDegrees>
              <LongitudeDegrees>2.85724905319511890411376953125</LongitudeDegrees>
            </Position>
            <AltitudeMeters>348.79998779296875</AltitudeMeters>
            <DistanceMeters>2258.4323732287</DistanceMeters>
          </Trackpoint>
          <Trackpoint>
            <Time>2021-03-31T14:22:40.000Z</Time>
            <Position>
              <LatitudeDegrees>42.45436881668865680694580078125</LatitudeDegrees>
              <LongitudeDegrees>2.8572286851704120635986328125</LongitudeDegrees>
            </Position>
            <AltitudeMeters>349.20001220703125</AltitudeMeters>
            <DistanceMeters>2260.2651821214</DistanceMeters>
          </Trackpoint>
          <Trackpoint>
            <Time>2021-03-31T14:22:41.000Z</Time>
            <Position>
              <LatitudeDegrees>42.45436697266995906829833984375</LatitudeDegrees>
              <LongitudeDegrees>2.85721804015338420867919921875</LongitudeDegrees>
            </Position>
            <AltitudeMeters>349.399993896484375</AltitudeMeters>
            <DistanceMeters>2261.1666846893</DistanceMeters>
          </Trackpoint>
          <Trackpoint>
            <Time>2021-03-31T14:22:43.000Z</Time>
            <Position>
              <LatitudeDegrees>42.45436060242354869842529296875</LatitudeDegrees>
              <LongitudeDegrees>2.85719775594770908355712890625</LongitudeDegrees>
            </Position>
            <AltitudeMeters>350</AltitudeMeters>
            <DistanceMeters>2262.974691236</DistanceMeters>
          </Trackpoint>
          <Trackpoint>
            <Time>2021-03-31T14:22:50.000Z</Time>
            <Position>
              <LatitudeDegrees>42.45435632765293121337890625</LatitudeDegrees>
              <LongitudeDegrees>2.85714796744287014007568359375</LongitudeDegrees>
            </Position>
            <AltitudeMeters>350.79998779296875</AltitudeMeters>
            <DistanceMeters>2267.0905657978</DistanceMeters>
          </Trackpoint>
          <Trackpoint>
            <Time>2021-03-31T14:22:51.000Z</Time>
            <Position>
              <LatitudeDegrees>42.45435859076678752899169921875</LatitudeDegrees>
              <LongitudeDegrees>2.8571426868438720703125</LongitudeDegrees>
            </Position>
            <AltitudeMeters>351</AltitudeMeters>
            <DistanceMeters>2267.5933999061</DistanceMeters>
          </Trackpoint>
          <Trackpoint>
            <Time>2021-03-31T14:22:52.000Z</Time>
            <Position>
              <LatitudeDegrees>42.45436026714742183685302734375</LatitudeDegrees>
              <LongitudeDegrees>2.8571351431310176849365234375</LongitudeDegrees>
            </Position>
            <AltitudeMeters>351.20001220703125</AltitudeMeters>
            <DistanceMeters>2268.2379024401</DistanceMeters>
          </Trackpoint>
          <Trackpoint>
            <Time>2021-03-31T14:22:57.000Z</Time>
            <Position>
              <LatitudeDegrees>42.45436211116611957550048828125</LatitudeDegrees>
              <LongitudeDegrees>2.857094071805477142333984375</LongitudeDegrees>
            </Position>
            <AltitudeMeters>352</AltitudeMeters>
            <DistanceMeters>2271.6177022421</DistanceMeters>
          </Trackpoint>
          <Trackpoint>
            <Time>2021-03-31T14:22:59.000Z</Time>
            <Position>
              <LatitudeDegrees>42.4543571658432483673095703125</LatitudeDegrees>
              <LongitudeDegrees>2.85707856528460979461669921875</LongitudeDegrees>
            </Position>
            <AltitudeMeters>352.399993896484375</AltitudeMeters>
            <DistanceMeters>2273.0045714799</DistanceMeters>
          </Trackpoint>
          <Trackpoint>
            <Time>2021-03-31T14:23:02.000Z</Time>
            <Position>
              <LatitudeDegrees>42.454351969063282012939453125</LatitudeDegrees>
              <LongitudeDegrees>2.85705425776541233062744140625</LongitudeDegrees>
            </Position>
            <AltitudeMeters>354</AltitudeMeters>
            <DistanceMeters>2275.0821605971</DistanceMeters>
          </Trackpoint>
          <Trackpoint>
            <Time>2021-03-31T14:23:09.000Z</Time>
            <Position>
              <LatitudeDegrees>42.45431148447096347808837890625</LatitudeDegrees>
              <LongitudeDegrees>2.8570027090609073638916015625</LongitudeDegrees>
            </Position>
            <AltitudeMeters>352.600006103515625</AltitudeMeters>
            <DistanceMeters>2281.2640117366</DistanceMeters>
          </Trackpoint>
          <Trackpoint>
            <Time>2021-03-31T14:23:11.000Z</Time>
            <Position>
              <LatitudeDegrees>42.45430293492972850799560546875</LatitudeDegrees>
              <LongitudeDegrees>2.85698535852134227752685546875</LongitudeDegrees>
            </Position>
            <AltitudeMeters>351.600006103515625</AltitudeMeters>
            <DistanceMeters>2282.9744925953</DistanceMeters>
          </Trackpoint>
          <Trackpoint>
            <Time>2021-03-31T14:23:17.000Z</Time>
            <Position>
              <LatitudeDegrees>42.4542964808642864227294921875</LatitudeDegrees>
              <LongitudeDegrees>2.85691738128662109375</LongitudeDegrees>
            </Position>
            <AltitudeMeters>350.600006103515625</AltitudeMeters>
            <DistanceMeters>2288.602770144</DistanceMeters>
          </Trackpoint>
          <Trackpoint>
            <Time>2021-03-31T14:23:24.000Z</Time>
            <Position>
              <LatitudeDegrees>42.4543373845517635345458984375</LatitudeDegrees>
              <LongitudeDegrees>2.8568675927817821502685546875</LongitudeDegrees>
            </Position>
            <AltitudeMeters>352.399993896484375</AltitudeMeters>
            <DistanceMeters>2294.7214870795</DistanceMeters>
          </Trackpoint>
          <Trackpoint>
            <Time>2021-03-31T14:23:25.000Z</Time>
            <Position>
              <LatitudeDegrees>42.454344592988491058349609375</LatitudeDegrees>
              <LongitudeDegrees>2.85686683841049671173095703125</LongitudeDegrees>
            </Position>
            <AltitudeMeters>352.399993896484375</AltitudeMeters>
            <DistanceMeters>2295.527815489</DistanceMeters>
          </Trackpoint>
          <Trackpoint>
            <Time>2021-03-31T14:23:26.000Z</Time>
            <Position>
              <LatitudeDegrees>42.45435096323490142822265625</LatitudeDegrees>
              <LongitudeDegrees>2.85686750896275043487548828125</LongitudeDegrees>
            </Position>
            <AltitudeMeters>352.79998779296875</AltitudeMeters>
            <DistanceMeters>2296.2389303045</DistanceMeters>
          </Trackpoint>
          <Trackpoint>
            <Time>2021-03-31T14:23:28.000Z</Time>
            <Position>
              <LatitudeDegrees>42.45436093769967555999755859375</LatitudeDegrees>
              <LongitudeDegrees>2.85686465911567211151123046875</LongitudeDegrees>
            </Position>
            <AltitudeMeters>353.79998779296875</AltitudeMeters>
            <DistanceMeters>2297.3713042953</DistanceMeters>
          </Trackpoint>
          <Trackpoint>
            <Time>2021-03-31T14:23:33.000Z</Time>
            <Position>
              <LatitudeDegrees>42.45439387857913970947265625</LatitudeDegrees>
              <LongitudeDegrees>2.85682660527527332305908203125</LongitudeDegrees>
            </Position>
            <AltitudeMeters>354.79998779296875</AltitudeMeters>
            <DistanceMeters>2302.1886994899</DistanceMeters>
          </Trackpoint>
          <Trackpoint>
            <Time>2021-03-31T14:23:34.000Z</Time>
            <Position>
              <LatitudeDegrees>42.45439614169299602508544921875</LatitudeDegrees>
              <LongitudeDegrees>2.856822498142719268798828125</LongitudeDegrees>
            </Position>
            <AltitudeMeters>355.20001220703125</AltitudeMeters>
            <DistanceMeters>2302.6136718759</DistanceMeters>
          </Trackpoint>
          <Trackpoint>
            <Time>2021-03-31T14:23:36.000Z</Time>
            <Position>
              <LatitudeDegrees>42.45440536178648471832275390625</LatitudeDegrees>
              <LongitudeDegrees>2.85681478679180145263671875</LongitudeDegrees>
            </Position>
            <AltitudeMeters>355.600006103515625</AltitudeMeters>
            <DistanceMeters>2303.8231644902</DistanceMeters>
          </Trackpoint>
          <Trackpoint>
            <Time>2021-03-31T14:23:38.000Z</Time>
            <Position>
              <LatitudeDegrees>42.45441357605159282684326171875</LatitudeDegrees>
              <LongitudeDegrees>2.85681252367794513702392578125</LongitudeDegrees>
            </Position>
            <AltitudeMeters>356</AltitudeMeters>
            <DistanceMeters>2304.7542323388</DistanceMeters>
          </Trackpoint>
          <Trackpoint>
            <Time>2021-03-31T14:23:42.000Z</Time>
            <Position>
              <LatitudeDegrees>42.4544282443821430206298828125</LatitudeDegrees>
              <LongitudeDegrees>2.85678436048328876495361328125</LongitudeDegrees>
            </Position>
            <AltitudeMeters>356.399993896484375</AltitudeMeters>
            <DistanceMeters>2307.5843697569</DistanceMeters>
          </Trackpoint>
          <Trackpoint>
            <Time>2021-03-31T14:23:47.000Z</Time>
            <Position>
              <LatitudeDegrees>42.45444140397012233734130859375</LatitudeDegrees>
              <LongitudeDegrees>2.85671286284923553466796875</LongitudeDegrees>
            </Position>
            <AltitudeMeters>355</AltitudeMeters>
            <DistanceMeters>2313.6363107726</DistanceMeters>
          </Trackpoint>
          <Trackpoint>
            <Time>2021-03-31T14:23:53.000Z</Time>
            <Position>
              <LatitudeDegrees>42.4544587545096874237060546875</LatitudeDegrees>
              <LongitudeDegrees>2.8566396050155162811279296875</LongitudeDegrees>
            </Position>
            <AltitudeMeters>354.600006103515625</AltitudeMeters>
            <DistanceMeters>2319.9539794788</DistanceMeters>
          </Trackpoint>
          <Trackpoint>
            <Time>2021-03-31T14:24:00.000Z</Time>
            <Position>
              <LatitudeDegrees>42.454482056200504302978515625</LatitudeDegrees>
              <LongitudeDegrees>2.8565708734095096588134765625</LongitudeDegrees>
            </Position>
            <AltitudeMeters>355.399993896484375</AltitudeMeters>
            <DistanceMeters>2326.164976707</DistanceMeters>
          </Trackpoint>
          <Trackpoint>
            <Time>2021-03-31T14:24:01.000Z</Time>
            <Position>
              <LatitudeDegrees>42.454483397305011749267578125</LatitudeDegrees>
              <LongitudeDegrees>2.85655838437378406524658203125</LongitudeDegrees>
            </Position>
            <AltitudeMeters>355.399993896484375</AltitudeMeters>
            <DistanceMeters>2327.197231046</DistanceMeters>
          </Trackpoint>
          <Trackpoint>
            <Time>2021-03-31T14:24:08.000Z</Time>
            <Position>
              <LatitudeDegrees>42.45451457798480987548828125</LatitudeDegrees>
              <LongitudeDegrees>2.85647255368530750274658203125</LongitudeDegrees>
            </Position>
            <AltitudeMeters>354.600006103515625</AltitudeMeters>
            <DistanceMeters>2335.0529004903</DistanceMeters>
          </Trackpoint>
          <Trackpoint>
            <Time>2021-03-31T14:24:13.000Z</Time>
            <Position>
              <LatitudeDegrees>42.45452689938247203826904296875</LatitudeDegrees>
              <LongitudeDegrees>2.85640516318380832672119140625</LongitudeDegrees>
            </Position>
            <AltitudeMeters>353.79998779296875</AltitudeMeters>
            <DistanceMeters>2340.7529193539</DistanceMeters>
          </Trackpoint>
          <Trackpoint>
            <Time>2021-03-31T14:24:14.000Z</Time>
            <Position>
              <LatitudeDegrees>42.4545315094292163848876953125</LatitudeDegrees>
              <LongitudeDegrees>2.8563918359577655792236328125</LongitudeDegrees>
            </Position>
            <AltitudeMeters>353.600006103515625</AltitudeMeters>
            <DistanceMeters>2341.9624119682</DistanceMeters>
          </Trackpoint>
          <Trackpoint>
            <Time>2021-03-31T14:24:17.000Z</Time>
            <Position>
              <LatitudeDegrees>42.4545385502278804779052734375</LatitudeDegrees>
              <LongitudeDegrees>2.85635235719382762908935546875</LongitudeDegrees>
            </Position>
            <AltitudeMeters>353.399993896484375</AltitudeMeters>
            <DistanceMeters>2345.297836106</DistanceMeters>
          </Trackpoint>
          <Trackpoint>
            <Time>2021-03-31T14:24:18.000Z</Time>
            <Position>
              <LatitudeDegrees>42.45453963987529277801513671875</LatitudeDegrees>
              <LongitudeDegrees>2.85632587037980556488037109375</LongitudeDegrees>
            </Position>
            <AltitudeMeters>353.399993896484375</AltitudeMeters>
            <DistanceMeters>2347.4751716642</DistanceMeters>
          </Trackpoint>
          <Trackpoint>
            <Time>2021-03-31T14:24:24.000Z</Time>
            <Position>
              <LatitudeDegrees>42.454575262963771820068359375</LatitudeDegrees>
              <LongitudeDegrees>2.8562483377754688262939453125</LongitudeDegrees>
            </Position>
            <AltitudeMeters>353.600006103515625</AltitudeMeters>
            <DistanceMeters>2354.9756633978</DistanceMeters>
          </Trackpoint>
          <Trackpoint>
            <Time>2021-03-31T14:24:28.000Z</Time>
            <Position>
              <LatitudeDegrees>42.454590015113353729248046875</LatitudeDegrees>
              <LongitudeDegrees>2.8561926819384098052978515625</LongitudeDegrees>
            </Position>
            <AltitudeMeters>353.600006103515625</AltitudeMeters>
            <DistanceMeters>2359.8322629975</DistanceMeters>
          </Trackpoint>
          <Trackpoint>
            <Time>2021-03-31T14:24:31.000Z</Time>
            <Position>
              <LatitudeDegrees>42.45459060184657573699951171875</LatitudeDegrees>
              <LongitudeDegrees>2.856155969202518463134765625</LongitudeDegrees>
            </Position>
            <AltitudeMeters>353.399993896484375</AltitudeMeters>
            <DistanceMeters>2362.849267647</DistanceMeters>
          </Trackpoint>
          <Trackpoint>
            <Time>2021-03-31T14:24:32.000Z</Time>
            <Position>
              <LatitudeDegrees>42.454592026770114898681640625</LatitudeDegrees>
              <LongitudeDegrees>2.85614767111837863922119140625</LongitudeDegrees>
            </Position>
            <AltitudeMeters>353.399993896484375</AltitudeMeters>
            <DistanceMeters>2363.5475685334</DistanceMeters>
          </Trackpoint>
          <Trackpoint>
            <Time>2021-03-31T14:24:40.000Z</Time>
            <Position>
              <LatitudeDegrees>42.45461675338447093963623046875</LatitudeDegrees>
              <LongitudeDegrees>2.8560448251664638519287109375</LongitudeDegrees>
            </Position>
            <AltitudeMeters>353.399993896484375</AltitudeMeters>
            <DistanceMeters>2372.4304063664</DistanceMeters>
          </Trackpoint>
          <Trackpoint>
            <Time>2021-03-31T14:24:42.000Z</Time>
            <Position>
              <LatitudeDegrees>42.45462496764957904815673828125</LatitudeDegrees>
              <LongitudeDegrees>2.85602412186563014984130859375</LongitudeDegrees>
            </Position>
            <AltitudeMeters>353.399993896484375</AltitudeMeters>
            <DistanceMeters>2374.3615774027</DistanceMeters>
          </Trackpoint>
          <Trackpoint>
            <Time>2021-03-31T14:24:46.000Z</Time>
            <Position>
              <LatitudeDegrees>42.45463603176176548004150390625</LatitudeDegrees>
              <LongitudeDegrees>2.85597584210336208343505859375</LongitudeDegrees>
            </Position>
            <AltitudeMeters>353.399993896484375</AltitudeMeters>
            <DistanceMeters>2378.5145818583</DistanceMeters>
          </Trackpoint>
          <Trackpoint>
            <Time>2021-03-31T14:24:54.000Z</Time>
            <Position>
              <LatitudeDegrees>42.45463737286627292633056640625</LatitudeDegrees>
              <LongitudeDegrees>2.85586084239184856414794921875</LongitudeDegrees>
            </Position>
            <AltitudeMeters>354.20001220703125</AltitudeMeters>
            <DistanceMeters>2387.9595871621</DistanceMeters>
          </Trackpoint>
          <Trackpoint>
            <Time>2021-03-31T14:24:57.000Z</Time>
            <Position>
              <LatitudeDegrees>42.45463904924690723419189453125</LatitudeDegrees>
              <LongitudeDegrees>2.85583234392106533050537109375</LongitudeDegrees>
            </Position>
            <AltitudeMeters>354.79998779296875</AltitudeMeters>
            <DistanceMeters>2390.3084968469</DistanceMeters>
          </Trackpoint>
          <Trackpoint>
            <Time>2021-03-31T14:25:00.000Z</Time>
            <Position>
              <LatitudeDegrees>42.4546320922672748565673828125</LatitudeDegrees>
              <LongitudeDegrees>2.855794541537761688232421875</LongitudeDegrees>
            </Position>
            <AltitudeMeters>355</AltitudeMeters>
            <DistanceMeters>2393.5085135168</DistanceMeters>
          </Trackpoint>
          <Trackpoint>
            <Time>2021-03-31T14:25:01.000Z</Time>
            <Position>
              <LatitudeDegrees>42.454633601009845733642578125</LatitudeDegrees>
              <LongitudeDegrees>2.85578750073909759521484375</LongitudeDegrees>
            </Position>
            <AltitudeMeters>355</AltitudeMeters>
            <DistanceMeters>2394.1095152287</DistanceMeters>
          </Trackpoint>
          <Trackpoint>
            <Time>2021-03-31T14:25:05.000Z</Time>
            <Position>
              <LatitudeDegrees>42.4546314217150211334228515625</LatitudeDegrees>
              <LongitudeDegrees>2.8557340241968631744384765625</LongitudeDegrees>
            </Position>
            <AltitudeMeters>355.600006103515625</AltitudeMeters>
            <DistanceMeters>2398.5085439646</DistanceMeters>
          </Trackpoint>
          <Trackpoint>
            <Time>2021-03-31T14:25:07.000Z</Time>
            <Position>
              <LatitudeDegrees>42.4546428211033344268798828125</LatitudeDegrees>
              <LongitudeDegrees>2.8557132370769977569580078125</LongitudeDegrees>
            </Position>
            <AltitudeMeters>355.79998779296875</AltitudeMeters>
            <DistanceMeters>2400.6376513774</DistanceMeters>
          </Trackpoint>
          <Trackpoint>
            <Time>2021-03-31T14:25:10.000Z</Time>
            <Position>
              <LatitudeDegrees>42.4546636082231998443603515625</LatitudeDegrees>
              <LongitudeDegrees>2.8556679747998714447021484375</LongitudeDegrees>
            </Position>
            <AltitudeMeters>356</AltitudeMeters>
            <DistanceMeters>2405.0150732458</DistanceMeters>
          </Trackpoint>
          <Trackpoint>
            <Time>2021-03-31T14:25:12.000Z</Time>
            <Position>
              <LatitudeDegrees>42.45467106811702251434326171875</LatitudeDegrees>
              <LongitudeDegrees>2.855647020041942596435546875</LongitudeDegrees>
            </Position>
            <AltitudeMeters>357.20001220703125</AltitudeMeters>
            <DistanceMeters>2406.925086566</DistanceMeters>
          </Trackpoint>
          <Trackpoint>
            <Time>2021-03-31T14:25:13.000Z</Time>
            <Position>
              <LatitudeDegrees>42.45467475615441799163818359375</LatitudeDegrees>
              <LongitudeDegrees>2.855632603168487548828125</LongitudeDegrees>
            </Position>
            <AltitudeMeters>357.399993896484375</AltitudeMeters>
            <DistanceMeters>2408.1785750188</DistanceMeters>
          </Trackpoint>
          <Trackpoint>
            <Time>2021-03-31T14:25:15.000Z</Time>
            <Position>
              <LatitudeDegrees>42.4546830542385578155517578125</LatitudeDegrees>
              <LongitudeDegrees>2.85561156459152698516845703125</LongitudeDegrees>
            </Position>
            <AltitudeMeters>357.79998779296875</AltitudeMeters>
            <DistanceMeters>2410.1352948281</DistanceMeters>
          </Trackpoint>
          <Trackpoint>
            <Time>2021-03-31T14:25:19.000Z</Time>
            <Position>
              <LatitudeDegrees>42.4546976387500762939453125</LatitudeDegrees>
              <LongitudeDegrees>2.85552824847400188446044921875</LongitudeDegrees>
            </Position>
            <AltitudeMeters>358.20001220703125</AltitudeMeters>
            <DistanceMeters>2417.1672716915</DistanceMeters>
          </Trackpoint>
          <Trackpoint>
            <Time>2021-03-31T14:25:20.000Z</Time>
            <Position>
              <LatitudeDegrees>42.45470761321485042572021484375</LatitudeDegrees>
              <LongitudeDegrees>2.8555217944085597991943359375</LongitudeDegrees>
            </Position>
            <AltitudeMeters>358.399993896484375</AltitudeMeters>
            <DistanceMeters>2418.398958682</DistanceMeters>
          </Trackpoint>
          <Trackpoint>
            <Time>2021-03-31T14:25:21.000Z</Time>
            <Position>
              <LatitudeDegrees>42.45471842586994171142578125</LatitudeDegrees>
              <LongitudeDegrees>2.855514921247959136962890625</LongitudeDegrees>
            </Position>
            <AltitudeMeters>358.600006103515625</AltitudeMeters>
            <DistanceMeters>2419.7293326832</DistanceMeters>
          </Trackpoint>
          <Trackpoint>
            <Time>2021-03-31T14:25:24.000Z</Time>
            <Position>
              <LatitudeDegrees>42.45475153438746929168701171875</LatitudeDegrees>
              <LongitudeDegrees>2.8554889373481273651123046875</LongitudeDegrees>
            </Position>
            <AltitudeMeters>358.79998779296875</AltitudeMeters>
            <DistanceMeters>2423.9875475086</DistanceMeters>
          </Trackpoint>
          <Trackpoint>
            <Time>2021-03-31T14:25:27.000Z</Time>
            <Position>
              <LatitudeDegrees>42.45474751107394695281982421875</LatitudeDegrees>
              <LongitudeDegrees>2.8554386459290981292724609375</LongitudeDegrees>
            </Position>
            <AltitudeMeters>358.399993896484375</AltitudeMeters>
            <DistanceMeters>2428.1427257431</DistanceMeters>
          </Trackpoint>
          <Trackpoint>
            <Time>2021-03-31T14:25:34.000Z</Time>
            <Position>
              <LatitudeDegrees>42.45475354604423046112060546875</LatitudeDegrees>
              <LongitudeDegrees>2.85535390488803386688232421875</LongitudeDegrees>
            </Position>
            <AltitudeMeters>357.20001220703125</AltitudeMeters>
            <DistanceMeters>2435.1341350282</DistanceMeters>
          </Trackpoint>
          <Trackpoint>
            <Time>2021-03-31T14:25:36.000Z</Time>
            <Position>
              <LatitudeDegrees>42.45476762764155864715576171875</LatitudeDegrees>
              <LongitudeDegrees>2.85532104782760143280029296875</LongitudeDegrees>
            </Position>
            <AltitudeMeters>356.79998779296875</AltitudeMeters>
            <DistanceMeters>2438.254138619</DistanceMeters>
          </Trackpoint>
          <Trackpoint>
            <Time>2021-03-31T14:25:40.000Z</Time>
            <Position>
              <LatitudeDegrees>42.45477550663053989410400390625</LatitudeDegrees>
              <LongitudeDegrees>2.85525281913578510284423828125</LongitudeDegrees>
            </Position>
            <AltitudeMeters>357</AltitudeMeters>
            <DistanceMeters>2443.9255698575</DistanceMeters>
          </Trackpoint>
          <Trackpoint>
            <Time>2021-03-31T14:25:44.000Z</Time>
            <Position>
              <LatitudeDegrees>42.45480584912002086639404296875</LatitudeDegrees>
              <LongitudeDegrees>2.85522960126399993896484375</LongitudeDegrees>
            </Position>
            <AltitudeMeters>357.399993896484375</AltitudeMeters>
            <DistanceMeters>2447.804243259</DistanceMeters>
          </Trackpoint>
          <Trackpoint>
            <Time>2021-03-31T14:25:47.000Z</Time>
            <Position>
              <LatitudeDegrees>42.45483334176242351531982421875</LatitudeDegrees>
              <LongitudeDegrees>2.8552019409835338592529296875</LongitudeDegrees>
            </Position>
            <AltitudeMeters>357.20001220703125</AltitudeMeters>
            <DistanceMeters>2451.617171671</DistanceMeters>
          </Trackpoint>
          <Trackpoint>
            <Time>2021-03-31T14:25:53.000Z</Time>
            <Position>
              <LatitudeDegrees>42.454840131103992462158203125</LatitudeDegrees>
              <LongitudeDegrees>2.855117954313755035400390625</LongitudeDegrees>
            </Position>
            <AltitudeMeters>357.600006103515625</AltitudeMeters>
            <DistanceMeters>2458.5547726574</DistanceMeters>
          </Trackpoint>
          <Trackpoint>
            <Time>2021-03-31T14:25:58.000Z</Time>
            <Position>
              <LatitudeDegrees>42.4548719823360443115234375</LatitudeDegrees>
              <LongitudeDegrees>2.85505953244864940643310546875</LongitudeDegrees>
            </Position>
            <AltitudeMeters>357.20001220703125</AltitudeMeters>
            <DistanceMeters>2464.5195443369</DistanceMeters>
          </Trackpoint>
          <Trackpoint>
            <Time>2021-03-31T14:26:01.000Z</Time>
            <Position>
              <LatitudeDegrees>42.454897463321685791015625</LatitudeDegrees>
              <LongitudeDegrees>2.85503220744431018829345703125</LongitudeDegrees>
            </Position>
            <AltitudeMeters>357</AltitudeMeters>
            <DistanceMeters>2468.1343085913</DistanceMeters>
          </Trackpoint>
          <Trackpoint>
            <Time>2021-03-31T14:26:02.000Z</Time>
            <Position>
              <LatitudeDegrees>42.454901821911334991455078125</LatitudeDegrees>
              <LongitudeDegrees>2.85502173006534576416015625</LongitudeDegrees>
            </Position>
            <AltitudeMeters>357</AltitudeMeters>
            <DistanceMeters>2469.1218551754</DistanceMeters>
          </Trackpoint>
          <Trackpoint>
            <Time>2021-03-31T14:26:07.000Z</Time>
            <Position>
              <LatitudeDegrees>42.45489520020782947540283203125</LatitudeDegrees>
              <LongitudeDegrees>2.85494386218488216400146484375</LongitudeDegrees>
            </Position>
            <AltitudeMeters>356.20001220703125</AltitudeMeters>
            <DistanceMeters>2475.5577669716</DistanceMeters>
          </Trackpoint>
          <Trackpoint>
            <Time>2021-03-31T14:26:08.000Z</Time>
            <Position>
              <LatitudeDegrees>42.45489536784589290618896484375</LatitudeDegrees>
              <LongitudeDegrees>2.85492911003530025482177734375</LongitudeDegrees>
            </Position>
            <AltitudeMeters>356</AltitudeMeters>
            <DistanceMeters>2476.7709868447</DistanceMeters>
          </Trackpoint>
          <Trackpoint>
            <Time>2021-03-31T14:26:13.000Z</Time>
            <Position>
              <LatitudeDegrees>42.454908192157745361328125</LatitudeDegrees>
              <LongitudeDegrees>2.85485903732478618621826171875</LongitudeDegrees>
            </Position>
            <AltitudeMeters>355.20001220703125</AltitudeMeters>
            <DistanceMeters>2482.7000751048</DistanceMeters>
          </Trackpoint>
          <Trackpoint>
            <Time>2021-03-31T14:26:14.000Z</Time>
            <Position>
              <LatitudeDegrees>42.4549100361764430999755859375</LatitudeDegrees>
              <LongitudeDegrees>2.85484135150909423828125</LongitudeDegrees>
            </Position>
            <AltitudeMeters>355</AltitudeMeters>
            <DistanceMeters>2484.166075853</DistanceMeters>
          </Trackpoint>
          <Trackpoint>
            <Time>2021-03-31T14:26:19.000Z</Time>
            <Position>
              <LatitudeDegrees>42.45491154491901397705078125</LatitudeDegrees>
              <LongitudeDegrees>2.8547623939812183380126953125</LongitudeDegrees>
            </Position>
            <AltitudeMeters>354.600006103515625</AltitudeMeters>
            <DistanceMeters>2490.6516055982</DistanceMeters>
          </Trackpoint>
          <Trackpoint>
            <Time>2021-03-31T14:26:22.000Z</Time>
            <Position>
              <LatitudeDegrees>42.45493945665657520294189453125</LatitudeDegrees>
              <LongitudeDegrees>2.8547362424433231353759765625</LongitudeDegrees>
            </Position>
            <AltitudeMeters>353.79998779296875</AltitudeMeters>
            <DistanceMeters>2494.4276472697</DistanceMeters>
          </Trackpoint>
          <Trackpoint>
            <Time>2021-03-31T14:26:23.000Z</Time>
            <Position>
              <LatitudeDegrees>42.45494700036942958831787109375</LatitudeDegrees>
              <LongitudeDegrees>2.85473012365400791168212890625</LongitudeDegrees>
            </Position>
            <AltitudeMeters>353.79998779296875</AltitudeMeters>
            <DistanceMeters>2495.4060071744</DistanceMeters>
          </Trackpoint>
          <Trackpoint>
            <Time>2021-03-31T14:26:26.000Z</Time>
            <Position>
              <LatitudeDegrees>42.454956807196140289306640625</LatitudeDegrees>
              <LongitudeDegrees>2.8547124378383159637451171875</LongitudeDegrees>
            </Position>
            <AltitudeMeters>353.600006103515625</AltitudeMeters>
            <DistanceMeters>2497.223975265</DistanceMeters>
          </Trackpoint>
          <Trackpoint>
            <Time>2021-03-31T14:26:27.000Z</Time>
            <Position>
              <LatitudeDegrees>42.45495873503386974334716796875</LatitudeDegrees>
              <LongitudeDegrees>2.854710929095745086669921875</LongitudeDegrees>
            </Position>
            <AltitudeMeters>353.600006103515625</AltitudeMeters>
            <DistanceMeters>2497.4567422271</DistanceMeters>
          </Trackpoint>
          <Trackpoint>
            <Time>2021-03-31T14:26:29.000Z</Time>
            <Position>
              <LatitudeDegrees>42.4549524486064910888671875</LatitudeDegrees>
              <LongitudeDegrees>2.8547058999538421630859375</LongitudeDegrees>
            </Position>
            <AltitudeMeters>353.399993896484375</AltitudeMeters>
            <DistanceMeters>2498.2686508306</DistanceMeters>
          </Trackpoint>
          <Trackpoint>
            <Time>2021-03-31T14:26:31.000Z</Time>
            <Position>
              <LatitudeDegrees>42.454940378665924072265625</LatitudeDegrees>
              <LongitudeDegrees>2.8546980209648609161376953125</LongitudeDegrees>
            </Position>
            <AltitudeMeters>352.79998779296875</AltitudeMeters>
            <DistanceMeters>2499.7590866076</DistanceMeters>
          </Trackpoint>
          <Trackpoint>
            <Time>2021-03-31T14:26:32.000Z</Time>
            <Position>
              <LatitudeDegrees>42.45493643917143344879150390625</LatitudeDegrees>
              <LongitudeDegrees>2.85469089634716510772705078125</LongitudeDegrees>
            </Position>
            <AltitudeMeters>352.600006103515625</AltitudeMeters>
            <DistanceMeters>2500.495160372</DistanceMeters>
          </Trackpoint>
          <Trackpoint>
            <Time>2021-03-31T14:26:33.000Z</Time>
            <Position>
              <LatitudeDegrees>42.45492604561150074005126953125</LatitudeDegrees>
              <LongitudeDegrees>2.8546735458076000213623046875</LongitudeDegrees>
            </Position>
            <AltitudeMeters>352.399993896484375</AltitudeMeters>
            <DistanceMeters>2502.3328895658</DistanceMeters>
          </Trackpoint>
          <Trackpoint>
            <Time>2021-03-31T14:26:37.000Z</Time>
            <Position>
              <LatitudeDegrees>42.45490810833871364593505859375</LatitudeDegrees>
              <LongitudeDegrees>2.85462853498756885528564453125</LongitudeDegrees>
            </Position>
            <AltitudeMeters>351.79998779296875</AltitudeMeters>
            <DistanceMeters>2506.5334573098</DistanceMeters>
          </Trackpoint>
          <Trackpoint>
            <Time>2021-03-31T14:26:38.000Z</Time>
            <Position>
              <LatitudeDegrees>42.45490542612969875335693359375</LatitudeDegrees>
              <LongitudeDegrees>2.85461897961795330047607421875</LongitudeDegrees>
            </Position>
            <AltitudeMeters>351.600006103515625</AltitudeMeters>
            <DistanceMeters>2507.372710527</DistanceMeters>
          </Trackpoint>
          <Trackpoint>
            <Time>2021-03-31T14:26:44.000Z</Time>
            <Position>
              <LatitudeDegrees>42.454876005649566650390625</LatitudeDegrees>
              <LongitudeDegrees>2.85456667654216289520263671875</LongitudeDegrees>
            </Position>
            <AltitudeMeters>351.600006103515625</AltitudeMeters>
            <DistanceMeters>2512.7742081888</DistanceMeters>
          </Trackpoint>
          <Trackpoint>
            <Time>2021-03-31T14:26:46.000Z</Time>
            <Position>
              <LatitudeDegrees>42.4548704735934734344482421875</LatitudeDegrees>
              <LongitudeDegrees>2.85454387776553630828857421875</LongitudeDegrees>
            </Position>
            <AltitudeMeters>351.399993896484375</AltitudeMeters>
            <DistanceMeters>2514.7447240783</DistanceMeters>
          </Trackpoint>
          <Trackpoint>
            <Time>2021-03-31T14:26:49.000Z</Time>
            <Position>
              <LatitudeDegrees>42.45486301369965076446533203125</LatitudeDegrees>
              <LongitudeDegrees>2.854519821703433990478515625</LongitudeDegrees>
            </Position>
            <AltitudeMeters>351.20001220703125</AltitudeMeters>
            <DistanceMeters>2516.8865174469</DistanceMeters>
          </Trackpoint>
          <Trackpoint>
            <Time>2021-03-31T14:26:52.000Z</Time>
            <Position>
              <LatitudeDegrees>42.45485278777778148651123046875</LatitudeDegrees>
              <LongitudeDegrees>2.85447967238724231719970703125</LongitudeDegrees>
            </Position>
            <AltitudeMeters>351</AltitudeMeters>
            <DistanceMeters>2520.3754346208</DistanceMeters>
          </Trackpoint>
          <Trackpoint>
            <Time>2021-03-31T14:26:55.000Z</Time>
            <Position>
              <LatitudeDegrees>42.45484272949397563934326171875</LatitudeDegrees>
              <LongitudeDegrees>2.85445134155452251434326171875</LongitudeDegrees>
            </Position>
            <AltitudeMeters>350.79998779296875</AltitudeMeters>
            <DistanceMeters>2522.9569451119</DistanceMeters>
          </Trackpoint>
          <Trackpoint>
            <Time>2021-03-31T14:27:00.000Z</Time>
            <Position>
              <LatitudeDegrees>42.454825378954410552978515625</LatitudeDegrees>
              <LongitudeDegrees>2.85437892191112041473388671875</LongitudeDegrees>
            </Position>
            <AltitudeMeters>349.600006103515625</AltitudeMeters>
            <DistanceMeters>2529.2099628635</DistanceMeters>
          </Trackpoint>
          <Trackpoint>
            <Time>2021-03-31T14:27:01.000Z</Time>
            <Position>
              <LatitudeDegrees>42.4548237025737762451171875</LatitudeDegrees>
              <LongitudeDegrees>2.85436416976153850555419921875</LongitudeDegrees>
            </Position>
            <AltitudeMeters>349.600006103515625</AltitudeMeters>
            <DistanceMeters>2530.4342964332</DistanceMeters>
          </Trackpoint>
          <Trackpoint>
            <Time>2021-03-31T14:27:08.000Z</Time>
            <Position>
              <LatitudeDegrees>42.45481875725090503692626953125</LatitudeDegrees>
              <LongitudeDegrees>2.854283116757869720458984375</LongitudeDegrees>
            </Position>
            <AltitudeMeters>349.20001220703125</AltitudeMeters>
            <DistanceMeters>2537.1132617447</DistanceMeters>
          </Trackpoint>
          <Trackpoint>
            <Time>2021-03-31T14:27:09.000Z</Time>
            <Position>
              <LatitudeDegrees>42.45481967926025390625</LatitudeDegrees>
              <LongitudeDegrees>2.85427431575953960418701171875</LongitudeDegrees>
            </Position>
            <AltitudeMeters>349.399993896484375</AltitudeMeters>
            <DistanceMeters>2537.8431757877</DistanceMeters>
          </Trackpoint>
          <Trackpoint>
            <Time>2021-03-31T14:27:12.000Z</Time>
            <Position>
              <LatitudeDegrees>42.45481959544122219085693359375</LatitudeDegrees>
              <LongitudeDegrees>2.8542673587799072265625</LongitudeDegrees>
            </Position>
            <AltitudeMeters>349.399993896484375</AltitudeMeters>
            <DistanceMeters>2538.413336074</DistanceMeters>
          </Trackpoint>
          <Trackpoint>
            <Time>2021-03-31T14:27:13.000Z</Time>
            <Position>
              <LatitudeDegrees>42.4548178352415561676025390625</LatitudeDegrees>
              <LongitudeDegrees>2.85427071154117584228515625</LongitudeDegrees>
            </Position>
            <AltitudeMeters>349.399993896484375</AltitudeMeters>
            <DistanceMeters>2538.7425182687</DistanceMeters>
          </Trackpoint>
          <Trackpoint>
            <Time>2021-03-31T14:27:14.000Z</Time>
            <Position>
              <LatitudeDegrees>42.454816661775112152099609375</LatitudeDegrees>
              <LongitudeDegrees>2.85427465103566646575927734375</LongitudeDegrees>
            </Position>
            <AltitudeMeters>349.600006103515625</AltitudeMeters>
            <DistanceMeters>2539.0717004634</DistanceMeters>
          </Trackpoint>
          <Trackpoint>
            <Time>2021-03-31T14:27:19.000Z</Time>
            <Position>
              <LatitudeDegrees>42.45482169091701507568359375</LatitudeDegrees>
              <LongitudeDegrees>2.85423156805336475372314453125</LongitudeDegrees>
            </Position>
            <AltitudeMeters>350</AltitudeMeters>
            <DistanceMeters>2542.6538420892</DistanceMeters>
          </Trackpoint>
          <Trackpoint>
            <Time>2021-03-31T14:27:22.000Z</Time>
            <Position>
              <LatitudeDegrees>42.4548161588609218597412109375</LatitudeDegrees>
              <LongitudeDegrees>2.85421614535152912139892578125</LongitudeDegrees>
            </Position>
            <AltitudeMeters>350</AltitudeMeters>
            <DistanceMeters>2544.0568947128</DistanceMeters>
          </Trackpoint>
          <Trackpoint>
            <Time>2021-03-31T14:27:23.000Z</Time>
            <Position>
              <LatitudeDegrees>42.454817332327365875244140625</LatitudeDegrees>
              <LongitudeDegrees>2.85421832464635372161865234375</LongitudeDegrees>
            </Position>
            <AltitudeMeters>350</AltitudeMeters>
            <DistanceMeters>2544.289661675</DistanceMeters>
          </Trackpoint>
          <Trackpoint>
            <Time>2021-03-31T14:27:31.000Z</Time>
            <Position>
              <LatitudeDegrees>42.454817332327365875244140625</LatitudeDegrees>
              <LongitudeDegrees>2.85421832464635372161865234375</LongitudeDegrees>
            </Position>
            <AltitudeMeters>350.600006103515625</AltitudeMeters>
            <DistanceMeters>2544.289661675</DistanceMeters>
          </Trackpoint>
          <Trackpoint>
            <Time>2021-03-31T14:27:32.000Z</Time>
            <Position>
              <LatitudeDegrees>42.4548158235847949981689453125</LatitudeDegrees>
              <LongitudeDegrees>2.85421329550445079803466796875</LongitudeDegrees>
            </Position>
            <AltitudeMeters>350.600006103515625</AltitudeMeters>
            <DistanceMeters>2544.7353764737</DistanceMeters>
          </Trackpoint>
          <Trackpoint>
            <Time>2021-03-31T14:27:37.000Z</Time>
            <Position>
              <LatitudeDegrees>42.454815991222858428955078125</LatitudeDegrees>
              <LongitudeDegrees>2.85411656834185123443603515625</LongitudeDegrees>
            </Position>
            <AltitudeMeters>351.399993896484375</AltitudeMeters>
            <DistanceMeters>2552.6779273257</DistanceMeters>
          </Trackpoint>
          <Trackpoint>
            <Time>2021-03-31T14:27:40.000Z</Time>
            <Position>
              <LatitudeDegrees>42.45483149774372577667236328125</LatitudeDegrees>
              <LongitudeDegrees>2.8540660254657268524169921875</LongitudeDegrees>
            </Position>
            <AltitudeMeters>351.79998779296875</AltitudeMeters>
            <DistanceMeters>2557.1734040615</DistanceMeters>
          </Trackpoint>
          <Trackpoint>
            <Time>2021-03-31T14:27:41.000Z</Time>
            <Position>
              <LatitudeDegrees>42.45483552105724811553955078125</LatitudeDegrees>
              <LongitudeDegrees>2.85405018366873264312744140625</LongitudeDegrees>
            </Position>
            <AltitudeMeters>352</AltitudeMeters>
            <DistanceMeters>2558.5504719803</DistanceMeters>
          </Trackpoint>
          <Trackpoint>
            <Time>2021-03-31T14:27:44.000Z</Time>
            <Position>
              <LatitudeDegrees>42.4548449926078319549560546875</LatitudeDegrees>
              <LongitudeDegrees>2.85405588336288928985595703125</LongitudeDegrees>
            </Position>
            <AltitudeMeters>352.20001220703125</AltitudeMeters>
            <DistanceMeters>2559.7026096619</DistanceMeters>
          </Trackpoint>
          <Trackpoint>
            <Time>2021-03-31T14:27:49.000Z</Time>
            <Position>
              <LatitudeDegrees>42.45487038977444171905517578125</LatitudeDegrees>
              <LongitudeDegrees>2.85404297523200511932373046875</LongitudeDegrees>
            </Position>
            <AltitudeMeters>352.20001220703125</AltitudeMeters>
            <DistanceMeters>2562.7226058885</DistanceMeters>
          </Trackpoint>
          <Trackpoint>
            <Time>2021-03-31T14:27:56.000Z</Time>
            <Position>
              <LatitudeDegrees>42.454863600432872772216796875</LatitudeDegrees>
              <LongitudeDegrees>2.85398363135755062103271484375</LongitudeDegrees>
            </Position>
            <AltitudeMeters>352.399993896484375</AltitudeMeters>
            <DistanceMeters>2567.6530182228</DistanceMeters>
          </Trackpoint>
          <Trackpoint>
            <Time>2021-03-31T14:28:00.000Z</Time>
            <Position>
              <LatitudeDegrees>42.454859912395477294921875</LatitudeDegrees>
              <LongitudeDegrees>2.8539463318884372711181640625</LongitudeDegrees>
            </Position>
            <AltitudeMeters>352.600006103515625</AltitudeMeters>
            <DistanceMeters>2570.7424827074</DistanceMeters>
          </Trackpoint>
          <Trackpoint>
            <Time>2021-03-31T14:28:02.000Z</Time>
            <Position>
              <LatitudeDegrees>42.4548518657684326171875</LatitudeDegrees>
              <LongitudeDegrees>2.8539030812680721282958984375</LongitudeDegrees>
            </Position>
            <AltitudeMeters>352.600006103515625</AltitudeMeters>
            <DistanceMeters>2574.4044034492</DistanceMeters>
          </Trackpoint>
          <Trackpoint>
            <Time>2021-03-31T14:28:04.000Z</Time>
            <Position>
              <LatitudeDegrees>42.4548312462866306304931640625</LatitudeDegrees>
              <LongitudeDegrees>2.85387131385505199432373046875</LongitudeDegrees>
            </Position>
            <AltitudeMeters>352.79998779296875</AltitudeMeters>
            <DistanceMeters>2577.8764564518</DistanceMeters>
          </Trackpoint>
          <Trackpoint>
            <Time>2021-03-31T14:28:09.000Z</Time>
            <Position>
              <LatitudeDegrees>42.45483099482953548431396484375</LatitudeDegrees>
              <LongitudeDegrees>2.85381817258894443511962890625</LongitudeDegrees>
            </Position>
            <AltitudeMeters>353.79998779296875</AltitudeMeters>
            <DistanceMeters>2582.2394142952</DistanceMeters>
          </Trackpoint>
          <Trackpoint>
            <Time>2021-03-31T14:28:10.000Z</Time>
            <Position>
              <LatitudeDegrees>42.4548339284956455230712890625</LatitudeDegrees>
              <LongitudeDegrees>2.85380534827709197998046875</LongitudeDegrees>
            </Position>
            <AltitudeMeters>354</AltitudeMeters>
            <DistanceMeters>2583.3394280422</DistanceMeters>
          </Trackpoint>
          <Trackpoint>
            <Time>2021-03-31T14:28:16.000Z</Time>
            <Position>
              <LatitudeDegrees>42.4548265524208545684814453125</LatitudeDegrees>
              <LongitudeDegrees>2.85375178791582584381103515625</LongitudeDegrees>
            </Position>
            <AltitudeMeters>354.399993896484375</AltitudeMeters>
            <DistanceMeters>2587.8137636885</DistanceMeters>
          </Trackpoint>
          <Trackpoint>
            <Time>2021-03-31T14:28:21.000Z</Time>
            <Position>
              <LatitudeDegrees>42.45481724850833415985107421875</LatitudeDegrees>
              <LongitudeDegrees>2.85370904020965099334716796875</LongitudeDegrees>
            </Position>
            <AltitudeMeters>354.20001220703125</AltitudeMeters>
            <DistanceMeters>2591.4732176596</DistanceMeters>
          </Trackpoint>
          <Trackpoint>
            <Time>2021-03-31T14:28:22.000Z</Time>
            <Position>
              <LatitudeDegrees>42.45481976307928562164306640625</LatitudeDegrees>
              <LongitudeDegrees>2.8537012450397014617919921875</LongitudeDegrees>
            </Position>
            <AltitudeMeters>354.20001220703125</AltitudeMeters>
            <DistanceMeters>2592.171518546</DistanceMeters>
          </Trackpoint>
          <Trackpoint>
            <Time>2021-03-31T14:28:25.000Z</Time>
            <Position>
              <LatitudeDegrees>42.45482437312602996826171875</LatitudeDegrees>
              <LongitudeDegrees>2.85365782678127288818359375</LongitudeDegrees>
            </Position>
            <AltitudeMeters>354.79998779296875</AltitudeMeters>
            <DistanceMeters>2595.7750237738</DistanceMeters>
          </Trackpoint>
          <Trackpoint>
            <Time>2021-03-31T14:28:26.000Z</Time>
            <Position>
              <LatitudeDegrees>42.454833425581455230712890625</LatitudeDegrees>
              <LongitudeDegrees>2.85364307463169097900390625</LongitudeDegrees>
            </Position>
            <AltitudeMeters>355.20001220703125</AltitudeMeters>
            <DistanceMeters>2597.3537261202</DistanceMeters>
          </Trackpoint>
          <Trackpoint>
            <Time>2021-03-31T14:28:31.000Z</Time>
            <Position>
              <LatitudeDegrees>42.45484977029263973236083984375</LatitudeDegrees>
              <LongitudeDegrees>2.85357828252017498016357421875</LongitudeDegrees>
            </Position>
            <AltitudeMeters>355.399993896484375</AltitudeMeters>
            <DistanceMeters>2602.9771883728</DistanceMeters>
          </Trackpoint>
          <Trackpoint>
            <Time>2021-03-31T14:28:34.000Z</Time>
            <Position>
              <LatitudeDegrees>42.45486251078546047210693359375</LatitudeDegrees>
              <LongitudeDegrees>2.853535450994968414306640625</LongitudeDegrees>
            </Position>
            <AltitudeMeters>356.20001220703125</AltitudeMeters>
            <DistanceMeters>2606.768742368</DistanceMeters>
          </Trackpoint>
          <Trackpoint>
            <Time>2021-03-31T14:28:38.000Z</Time>
            <Position>
              <LatitudeDegrees>42.4548815377056598663330078125</LatitudeDegrees>
              <LongitudeDegrees>2.8534943796694278717041015625</LongitudeDegrees>
            </Position>
            <AltitudeMeters>356.79998779296875</AltitudeMeters>
            <DistanceMeters>2610.750803924</DistanceMeters>
          </Trackpoint>
          <Trackpoint>
            <Time>2021-03-31T14:28:40.000Z</Time>
            <Position>
              <LatitudeDegrees>42.45489117689430713653564453125</LatitudeDegrees>
              <LongitudeDegrees>2.8534752689301967620849609375</LongitudeDegrees>
            </Position>
            <AltitudeMeters>357.20001220703125</AltitudeMeters>
            <DistanceMeters>2612.6513382114</DistanceMeters>
          </Trackpoint>
          <Trackpoint>
            <Time>2021-03-31T14:28:41.000Z</Time>
            <Position>
              <LatitudeDegrees>42.4548972956836223602294921875</LatitudeDegrees>
              <LongitudeDegrees>2.85346780903637409210205078125</LongitudeDegrees>
            </Position>
            <AltitudeMeters>357.399993896484375</AltitudeMeters>
            <DistanceMeters>2613.5628024361</DistanceMeters>
          </Trackpoint>
          <Trackpoint>
            <Time>2021-03-31T14:28:45.000Z</Time>
            <Position>
              <LatitudeDegrees>42.45491934008896350860595703125</LatitudeDegrees>
              <LongitudeDegrees>2.85344920121133327484130859375</LongitudeDegrees>
            </Position>
            <AltitudeMeters>357.600006103515625</AltitudeMeters>
            <DistanceMeters>2616.4544889314</DistanceMeters>
          </Trackpoint>
          <Trackpoint>
            <Time>2021-03-31T14:28:51.000Z</Time>
            <Position>
              <LatitudeDegrees>42.4549418874084949493408203125</LatitudeDegrees>
              <LongitudeDegrees>2.8533974848687648773193359375</LongitudeDegrees>
            </Position>
            <AltitudeMeters>358.20001220703125</AltitudeMeters>
            <DistanceMeters>2621.3876477588</DistanceMeters>
          </Trackpoint>
          <Trackpoint>
            <Time>2021-03-31T14:28:54.000Z</Time>
            <Position>
              <LatitudeDegrees>42.45496795512735843658447265625</LatitudeDegrees>
              <LongitudeDegrees>2.85337150096893310546875</LongitudeDegrees>
            </Position>
            <AltitudeMeters>358.399993896484375</AltitudeMeters>
            <DistanceMeters>2624.9886462</DistanceMeters>
          </Trackpoint>
          <Trackpoint>
            <Time>2021-03-31T14:28:58.000Z</Time>
            <Position>
              <LatitudeDegrees>42.4549841322004795074462890625</LatitudeDegrees>
              <LongitudeDegrees>2.85332749597728252410888671875</LongitudeDegrees>
            </Position>
            <AltitudeMeters>359</AltitudeMeters>
            <DistanceMeters>2629.0247653639</DistanceMeters>
          </Trackpoint>
          <Trackpoint>
            <Time>2021-03-31T14:29:01.000Z</Time>
            <Position>
              <LatitudeDegrees>42.4550035782158374786376953125</LatitudeDegrees>
              <LongitudeDegrees>2.8532942198216915130615234375</LongitudeDegrees>
            </Position>
            <AltitudeMeters>359.399993896484375</AltitudeMeters>
            <DistanceMeters>2632.5110933596</DistanceMeters>
          </Trackpoint>
          <Trackpoint>
            <Time>2021-03-31T14:29:04.000Z</Time>
            <Position>
              <LatitudeDegrees>42.4550060927867889404296875</LatitudeDegrees>
              <LongitudeDegrees>2.85325281322002410888671875</LongitudeDegrees>
            </Position>
            <AltitudeMeters>359.79998779296875</AltitudeMeters>
            <DistanceMeters>2635.9228038596</DistanceMeters>
          </Trackpoint>
          <Trackpoint>
            <Time>2021-03-31T14:29:09.000Z</Time>
            <Position>
              <LatitudeDegrees>42.4550008960068225860595703125</LatitudeDegrees>
              <LongitudeDegrees>2.85319648683071136474609375</LongitudeDegrees>
            </Position>
            <AltitudeMeters>360.399993896484375</AltitudeMeters>
            <DistanceMeters>2640.583958644</DistanceMeters>
          </Trackpoint>
          <Trackpoint>
            <Time>2021-03-31T14:29:10.000Z</Time>
            <Position>
              <LatitudeDegrees>42.4550022371113300323486328125</LatitudeDegrees>
              <LongitudeDegrees>2.85317980684340000152587890625</LongitudeDegrees>
            </Position>
            <AltitudeMeters>360.600006103515625</AltitudeMeters>
            <DistanceMeters>2641.9643014021</DistanceMeters>
          </Trackpoint>
          <Trackpoint>
            <Time>2021-03-31T14:29:11.000Z</Time>
            <Position>
              <LatitudeDegrees>42.45499444194138050079345703125</LatitudeDegrees>
              <LongitudeDegrees>2.853164970874786376953125</LongitudeDegrees>
            </Position>
            <AltitudeMeters>360.79998779296875</AltitudeMeters>
            <DistanceMeters>2643.4577634477</DistanceMeters>
          </Trackpoint>
          <Trackpoint>
            <Time>2021-03-31T14:29:15.000Z</Time>
            <Position>
              <LatitudeDegrees>42.45500081218779087066650390625</LatitudeDegrees>
              <LongitudeDegrees>2.8531078062951564788818359375</LongitudeDegrees>
            </Position>
            <AltitudeMeters>361.600006103515625</AltitudeMeters>
            <DistanceMeters>2648.2043454524</DistanceMeters>
          </Trackpoint>
          <Trackpoint>
            <Time>2021-03-31T14:29:16.000Z</Time>
            <Position>
              <LatitudeDegrees>42.45500047691166400909423828125</LatitudeDegrees>
              <LongitudeDegrees>2.8530853427946567535400390625</LongitudeDegrees>
            </Position>
            <AltitudeMeters>361.600006103515625</AltitudeMeters>
            <DistanceMeters>2650.0518759382</DistanceMeters>
          </Trackpoint>
          <Trackpoint>
            <Time>2021-03-31T14:29:17.000Z</Time>
            <Position>
              <LatitudeDegrees>42.45500165037810802459716796875</LatitudeDegrees>
              <LongitudeDegrees>2.85306715406477451324462890625</LongitudeDegrees>
            </Position>
            <AltitudeMeters>361.79998779296875</AltitudeMeters>
            <DistanceMeters>2651.5513721984</DistanceMeters>
          </Trackpoint>
          <Trackpoint>
            <Time>2021-03-31T14:29:19.000Z</Time>
            <Position>
              <LatitudeDegrees>42.4550163187086582183837890625</LatitudeDegrees>
              <LongitudeDegrees>2.85304854623973369598388671875</LongitudeDegrees>
            </Position>
            <AltitudeMeters>362.20001220703125</AltitudeMeters>
            <DistanceMeters>2653.7880354162</DistanceMeters>
          </Trackpoint>
          <Trackpoint>
            <Time>2021-03-31T14:29:22.000Z</Time>
            <Position>
              <LatitudeDegrees>42.455017156898975372314453125</LatitudeDegrees>
              <LongitudeDegrees>2.85300613380968570709228515625</LongitudeDegrees>
            </Position>
            <AltitudeMeters>362.399993896484375</AltitudeMeters>
            <DistanceMeters>2657.2717723094</DistanceMeters>
          </Trackpoint>
          <Trackpoint>
            <Time>2021-03-31T14:29:24.000Z</Time>
            <Position>
              <LatitudeDegrees>42.455021180212497711181640625</LatitudeDegrees>
              <LongitudeDegrees>2.85298266448080539703369140625</LongitudeDegrees>
            </Position>
            <AltitudeMeters>362.600006103515625</AltitudeMeters>
            <DistanceMeters>2659.2537115751</DistanceMeters>
          </Trackpoint>
          <Trackpoint>
            <Time>2021-03-31T14:29:25.000Z</Time>
            <Position>
              <LatitudeDegrees>42.45503132231533527374267578125</LatitudeDegrees>
              <LongitudeDegrees>2.85297277383506298065185546875</LongitudeDegrees>
            </Position>
            <AltitudeMeters>362.79998779296875</AltitudeMeters>
            <DistanceMeters>2660.6438325623</DistanceMeters>
          </Trackpoint>
          <Trackpoint>
            <Time>2021-03-31T14:29:26.000Z</Time>
            <Position>
              <LatitudeDegrees>42.45504431426525115966796875</LatitudeDegrees>
              <LongitudeDegrees>2.85297227092087268829345703125</LongitudeDegrees>
            </Position>
            <AltitudeMeters>363</AltitudeMeters>
            <DistanceMeters>2662.0912363536</DistanceMeters>
          </Trackpoint>
          <Trackpoint>
            <Time>2021-03-31T14:29:30.000Z</Time>
            <Position>
              <LatitudeDegrees>42.4550565518438816070556640625</LatitudeDegrees>
              <LongitudeDegrees>2.85294176079332828521728515625</LongitudeDegrees>
            </Position>
            <AltitudeMeters>363.399993896484375</AltitudeMeters>
            <DistanceMeters>2664.9420377847</DistanceMeters>
          </Trackpoint>
          <Trackpoint>
            <Time>2021-03-31T14:29:32.000Z</Time>
            <Position>
              <LatitudeDegrees>42.455059401690959930419921875</LatitudeDegrees>
              <LongitudeDegrees>2.852928601205348968505859375</LongitudeDegrees>
            </Position>
            <AltitudeMeters>363.600006103515625</AltitudeMeters>
            <DistanceMeters>2666.0744117755</DistanceMeters>
          </Trackpoint>
          <Trackpoint>
            <Time>2021-03-31T14:29:33.000Z</Time>
            <Position>
              <LatitudeDegrees>42.45506216771900653839111328125</LatitudeDegrees>
              <LongitudeDegrees>2.8529227338731288909912109375</LongitudeDegrees>
            </Position>
            <AltitudeMeters>363.79998779296875</AltitudeMeters>
            <DistanceMeters>2666.6445720617</DistanceMeters>
          </Trackpoint>
          <Trackpoint>
            <Time>2021-03-31T14:29:35.000Z</Time>
            <Position>
              <LatitudeDegrees>42.455060742795467376708984375</LatitudeDegrees>
              <LongitudeDegrees>2.85290555097162723541259765625</LongitudeDegrees>
            </Position>
            <AltitudeMeters>364</AltitudeMeters>
            <DistanceMeters>2668.063623522</DistanceMeters>
          </Trackpoint>
          <Trackpoint>
            <Time>2021-03-31T14:29:39.000Z</Time>
            <Position>
              <LatitudeDegrees>42.45508144609630107879638671875</LatitudeDegrees>
              <LongitudeDegrees>2.85288761369884014129638671875</LongitudeDegrees>
            </Position>
            <AltitudeMeters>364.600006103515625</AltitudeMeters>
            <DistanceMeters>2670.798016196</DistanceMeters>
          </Trackpoint>
          <Trackpoint>
            <Time>2021-03-31T14:29:40.000Z</Time>
            <Position>
              <LatitudeDegrees>42.4550890736281871795654296875</LatitudeDegrees>
              <LongitudeDegrees>2.852886021137237548828125</LongitudeDegrees>
            </Position>
            <AltitudeMeters>364.79998779296875</AltitudeMeters>
            <DistanceMeters>2671.6532566253</DistanceMeters>
          </Trackpoint>
          <Trackpoint>
            <Time>2021-03-31T14:29:43.000Z</Time>
            <Position>
              <LatitudeDegrees>42.4550972878932952880859375</LatitudeDegrees>
              <LongitudeDegrees>2.85286313854157924652099609375</LongitudeDegrees>
            </Position>
            <AltitudeMeters>365.20001220703125</AltitudeMeters>
            <DistanceMeters>2673.7438443415</DistanceMeters>
          </Trackpoint>
          <Trackpoint>
            <Time>2021-03-31T14:29:46.000Z</Time>
            <Position>
              <LatitudeDegrees>42.45508857071399688720703125</LatitudeDegrees>
              <LongitudeDegrees>2.8528315387666225433349609375</LongitudeDegrees>
            </Position>
            <AltitudeMeters>365.399993896484375</AltitudeMeters>
            <DistanceMeters>2676.5143253426</DistanceMeters>
          </Trackpoint>
          <Trackpoint>
            <Time>2021-03-31T14:29:51.000Z</Time>
            <Position>
              <LatitudeDegrees>42.45506443083286285400390625</LatitudeDegrees>
              <LongitudeDegrees>2.85279641859233379364013671875</LongitudeDegrees>
            </Position>
            <AltitudeMeters>366</AltitudeMeters>
            <DistanceMeters>2680.4553571216</DistanceMeters>
          </Trackpoint>
          <Trackpoint>
            <Time>2021-03-31T14:29:55.000Z</Time>
            <Position>
              <LatitudeDegrees>42.45504121296107769012451171875</LatitudeDegrees>
              <LongitudeDegrees>2.8527681715786457061767578125</LongitudeDegrees>
            </Position>
            <AltitudeMeters>366.600006103515625</AltitudeMeters>
            <DistanceMeters>2683.9287102752</DistanceMeters>
          </Trackpoint>
          <Trackpoint>
            <Time>2021-03-31T14:29:57.000Z</Time>
            <Position>
              <LatitudeDegrees>42.45504087768495082855224609375</LatitudeDegrees>
              <LongitudeDegrees>2.85275392234325408935546875</LongitudeDegrees>
            </Position>
            <AltitudeMeters>366.79998779296875</AltitudeMeters>
            <DistanceMeters>2685.1002782926</DistanceMeters>
          </Trackpoint>
          <Trackpoint>
            <Time>2021-03-31T14:29:59.000Z</Time>
            <Position>
              <LatitudeDegrees>42.4550324119627475738525390625</LatitudeDegrees>
              <LongitudeDegrees>2.8527366556227207183837890625</LongitudeDegrees>
            </Position>
            <AltitudeMeters>367.20001220703125</AltitudeMeters>
            <DistanceMeters>2686.8054717171</DistanceMeters>
          </Trackpoint>
          <Trackpoint>
            <Time>2021-03-31T14:30:02.000Z</Time>
            <Position>
              <LatitudeDegrees>42.45502428151667118072509765625</LatitudeDegrees>
              <LongitudeDegrees>2.85271008498966693878173828125</LongitudeDegrees>
            </Position>
            <AltitudeMeters>367.79998779296875</AltitudeMeters>
            <DistanceMeters>2689.1677983758</DistanceMeters>
          </Trackpoint>
          <Trackpoint>
            <Time>2021-03-31T14:30:04.000Z</Time>
            <Position>
              <LatitudeDegrees>42.455017827451229095458984375</LatitudeDegrees>
              <LongitudeDegrees>2.85269013606011867523193359375</LongitudeDegrees>
            </Position>
            <AltitudeMeters>368.20001220703125</AltitudeMeters>
            <DistanceMeters>2690.9582388628</DistanceMeters>
          </Trackpoint>
          <Trackpoint>
            <Time>2021-03-31T14:30:10.000Z</Time>
            <Position>
              <LatitudeDegrees>42.45503249578177928924560546875</LatitudeDegrees>
              <LongitudeDegrees>2.85264353267848491668701171875</LongitudeDegrees>
            </Position>
            <AltitudeMeters>369</AltitudeMeters>
            <DistanceMeters>2695.118846576</DistanceMeters>
          </Trackpoint>
          <Trackpoint>
            <Time>2021-03-31T14:30:12.000Z</Time>
            <Position>
              <LatitudeDegrees>42.4550458230078220367431640625</LatitudeDegrees>
              <LongitudeDegrees>2.85263179801404476165771484375</LongitudeDegrees>
            </Position>
            <AltitudeMeters>369.399993896484375</AltitudeMeters>
            <DistanceMeters>2696.8864456396</DistanceMeters>
          </Trackpoint>
          <Trackpoint>
            <Time>2021-03-31T14:30:14.000Z</Time>
            <Position>
              <LatitudeDegrees>42.45505101978778839111328125</LatitudeDegrees>
              <LongitudeDegrees>2.85261536948382854461669921875</LongitudeDegrees>
            </Position>
            <AltitudeMeters>370</AltitudeMeters>
            <DistanceMeters>2698.3524463878</DistanceMeters>
          </Trackpoint>
          <Trackpoint>
            <Time>2021-03-31T14:30:16.000Z</Time>
            <Position>
              <LatitudeDegrees>42.45506099425256252288818359375</LatitudeDegrees>
              <LongitudeDegrees>2.85258988849818706512451171875</LongitudeDegrees>
            </Position>
            <AltitudeMeters>370.20001220703125</AltitudeMeters>
            <DistanceMeters>2700.7224057858</DistanceMeters>
          </Trackpoint>
          <Trackpoint>
            <Time>2021-03-31T14:30:17.000Z</Time>
            <Position>
              <LatitudeDegrees>42.45506334118545055389404296875</LatitudeDegrees>
              <LongitudeDegrees>2.85257630981504917144775390625</LongitudeDegrees>
            </Position>
            <AltitudeMeters>370.20001220703125</AltitudeMeters>
            <DistanceMeters>2701.8745434673</DistanceMeters>
          </Trackpoint>
          <Trackpoint>
            <Time>2021-03-31T14:30:18.000Z</Time>
            <Position>
              <LatitudeDegrees>42.4550733156502246856689453125</LatitudeDegrees>
              <LongitudeDegrees>2.8525723703205585479736328125</LongitudeDegrees>
            </Position>
            <AltitudeMeters>370.20001220703125</AltitudeMeters>
            <DistanceMeters>2703.0305933424</DistanceMeters>
          </Trackpoint>
          <Trackpoint>
            <Time>2021-03-31T14:30:22.000Z</Time>
            <Position>
              <LatitudeDegrees>42.45510122738778591156005859375</LatitudeDegrees>
              <LongitudeDegrees>2.8525733761489391326904296875</LongitudeDegrees>
            </Position>
            <AltitudeMeters>370.399993896484375</AltitudeMeters>
            <DistanceMeters>2706.1389983667</DistanceMeters>
          </Trackpoint>
          <Trackpoint>
            <Time>2021-03-31T14:30:24.000Z</Time>
            <Position>
              <LatitudeDegrees>42.4551179073750972747802734375</LatitudeDegrees>
              <LongitudeDegrees>2.85256884992122650146484375</LongitudeDegrees>
            </Position>
            <AltitudeMeters>370.600006103515625</AltitudeMeters>
            <DistanceMeters>2708.0323922371</DistanceMeters>
          </Trackpoint>
          <Trackpoint>
            <Time>2021-03-31T14:30:27.000Z</Time>
            <Position>
              <LatitudeDegrees>42.45512637309730052947998046875</LatitudeDegrees>
              <LongitudeDegrees>2.85254362039268016815185546875</LongitudeDegrees>
            </Position>
            <AltitudeMeters>371.399993896484375</AltitudeMeters>
            <DistanceMeters>2710.3090704925</DistanceMeters>
          </Trackpoint>
          <Trackpoint>
            <Time>2021-03-31T14:30:32.000Z</Time>
            <Position>
              <LatitudeDegrees>42.455153949558734893798828125</LatitudeDegrees>
              <LongitudeDegrees>2.852500118315219879150390625</LongitudeDegrees>
            </Position>
            <AltitudeMeters>371.600006103515625</AltitudeMeters>
            <DistanceMeters>2715.018408848</DistanceMeters>
          </Trackpoint>
          <Trackpoint>
            <Time>2021-03-31T14:30:35.000Z</Time>
            <Position>
              <LatitudeDegrees>42.45516208000481128692626953125</LatitudeDegrees>
              <LongitudeDegrees>2.85246424376964569091796875</LongitudeDegrees>
            </Position>
            <AltitudeMeters>371.399993896484375</AltitudeMeters>
            <DistanceMeters>2718.1005575172</DistanceMeters>
          </Trackpoint>
          <Trackpoint>
            <Time>2021-03-31T14:30:38.000Z</Time>
            <Position>
              <LatitudeDegrees>42.45517012663185596466064453125</LatitudeDegrees>
              <LongitudeDegrees>2.85242459736764430999755859375</LongitudeDegrees>
            </Position>
            <AltitudeMeters>371.399993896484375</AltitudeMeters>
            <DistanceMeters>2721.4776844838</DistanceMeters>
          </Trackpoint>
          <Trackpoint>
            <Time>2021-03-31T14:30:40.000Z</Time>
            <Position>
              <LatitudeDegrees>42.45517901144921779632568359375</LatitudeDegrees>
              <LongitudeDegrees>2.85240598954260349273681640625</LongitudeDegrees>
            </Position>
            <AltitudeMeters>371.399993896484375</AltitudeMeters>
            <DistanceMeters>2723.3006129331</DistanceMeters>
          </Trackpoint>
          <Trackpoint>
            <Time>2021-03-31T14:30:44.000Z</Time>
            <Position>
              <LatitudeDegrees>42.45519728399813175201416015625</LatitudeDegrees>
              <LongitudeDegrees>2.85236768424510955810546875</LongitudeDegrees>
            </Position>
            <AltitudeMeters>371.79998779296875</AltitudeMeters>
            <DistanceMeters>2727.0466426706</DistanceMeters>
          </Trackpoint>
          <Trackpoint>
            <Time>2021-03-31T14:30:46.000Z</Time>
            <Position>
              <LatitudeDegrees>42.45520600117743015289306640625</LatitudeDegrees>
              <LongitudeDegrees>2.852343209087848663330078125</LongitudeDegrees>
            </Position>
            <AltitudeMeters>371.79998779296875</AltitudeMeters>
            <DistanceMeters>2729.275216664</DistanceMeters>
          </Trackpoint>
          <Trackpoint>
            <Time>2021-03-31T14:30:47.000Z</Time>
            <Position>
              <LatitudeDegrees>42.45521371252834796905517578125</LatitudeDegrees>
              <LongitudeDegrees>2.85233424045145511627197265625</LongitudeDegrees>
            </Position>
            <AltitudeMeters>371.79998779296875</AltitudeMeters>
            <DistanceMeters>2730.4075906548</DistanceMeters>
          </Trackpoint>
          <Trackpoint>
            <Time>2021-03-31T14:30:49.000Z</Time>
            <Position>
              <LatitudeDegrees>42.4552235193550586700439453125</LatitudeDegrees>
              <LongitudeDegrees>2.85231630317866802215576171875</LongitudeDegrees>
            </Position>
            <AltitudeMeters>372</AltitudeMeters>
            <DistanceMeters>2732.2403995475</DistanceMeters>
          </Trackpoint>
          <Trackpoint>
            <Time>2021-03-31T14:30:51.000Z</Time>
            <Position>
              <LatitudeDegrees>42.4552319012582302093505859375</LatitudeDegrees>
              <LongitudeDegrees>2.8522947616875171661376953125</LongitudeDegrees>
            </Position>
            <AltitudeMeters>372.20001220703125</AltitudeMeters>
            <DistanceMeters>2734.2382218089</DistanceMeters>
          </Trackpoint>
          <Trackpoint>
            <Time>2021-03-31T14:30:52.000Z</Time>
            <Position>
              <LatitudeDegrees>42.45523852296173572540283203125</LatitudeDegrees>
              <LongitudeDegrees>2.85228495486080646514892578125</LongitudeDegrees>
            </Position>
            <AltitudeMeters>372.600006103515625</AltitudeMeters>
            <DistanceMeters>2735.3299956365</DistanceMeters>
          </Trackpoint>
          <Trackpoint>
            <Time>2021-03-31T14:30:57.000Z</Time>
            <Position>
              <LatitudeDegrees>42.4552694521844387054443359375</LatitudeDegrees>
              <LongitudeDegrees>2.85224103368818759918212890625</LongitudeDegrees>
            </Position>
            <AltitudeMeters>373</AltitudeMeters>
            <DistanceMeters>2740.3159559703</DistanceMeters>
          </Trackpoint>
          <Trackpoint>
            <Time>2021-03-31T14:31:02.000Z</Time>
            <Position>
              <LatitudeDegrees>42.455278672277927398681640625</LatitudeDegrees>
              <LongitudeDegrees>2.85218286328017711639404296875</LongitudeDegrees>
            </Position>
            <AltitudeMeters>373.399993896484375</AltitudeMeters>
            <DistanceMeters>2745.2022144692</DistanceMeters>
          </Trackpoint>
          <Trackpoint>
            <Time>2021-03-31T14:31:03.000Z</Time>
            <Position>
              <LatitudeDegrees>42.45528529398143291473388671875</LatitudeDegrees>
              <LongitudeDegrees>2.85216861404478549957275390625</LongitudeDegrees>
            </Position>
            <AltitudeMeters>373.399993896484375</AltitudeMeters>
            <DistanceMeters>2746.5858243153</DistanceMeters>
          </Trackpoint>
          <Trackpoint>
            <Time>2021-03-31T14:31:05.000Z</Time>
            <Position>
              <LatitudeDegrees>42.45529568754136562347412109375</LatitudeDegrees>
              <LongitudeDegrees>2.85214179195463657379150390625</LongitudeDegrees>
            </Position>
            <AltitudeMeters>373.600006103515625</AltitudeMeters>
            <DistanceMeters>2749.0747261696</DistanceMeters>
          </Trackpoint>
          <Trackpoint>
            <Time>2021-03-31T14:31:10.000Z</Time>
            <Position>
              <LatitudeDegrees>42.45531613938510417938232421875</LatitudeDegrees>
              <LongitudeDegrees>2.85210206173360347747802734375</LongitudeDegrees>
            </Position>
            <AltitudeMeters>374.20001220703125</AltitudeMeters>
            <DistanceMeters>2753.0533847383</DistanceMeters>
          </Trackpoint>
          <Trackpoint>
            <Time>2021-03-31T14:31:11.000Z</Time>
            <Position>
              <LatitudeDegrees>42.455318905413150787353515625</LatitudeDegrees>
              <LongitudeDegrees>2.8520976193249225616455078125</LongitudeDegrees>
            </Position>
            <AltitudeMeters>374.399993896484375</AltitudeMeters>
            <DistanceMeters>2753.5379278092</DistanceMeters>
          </Trackpoint>
          <Trackpoint>
            <Time>2021-03-31T14:31:13.000Z</Time>
            <Position>
              <LatitudeDegrees>42.4553244374692440032958984375</LatitudeDegrees>
              <LongitudeDegrees>2.852087058126926422119140625</LongitudeDegrees>
            </Position>
            <AltitudeMeters>374.600006103515625</AltitudeMeters>
            <DistanceMeters>2754.5961005168</DistanceMeters>
          </Trackpoint>
          <Trackpoint>
            <Time>2021-03-31T14:31:14.000Z</Time>
            <Position>
              <LatitudeDegrees>42.45533189736306667327880859375</LatitudeDegrees>
              <LongitudeDegrees>2.85208311863243579864501953125</LongitudeDegrees>
            </Position>
            <AltitudeMeters>375</AltitudeMeters>
            <DistanceMeters>2755.4875301141</DistanceMeters>
          </Trackpoint>
          <Trackpoint>
            <Time>2021-03-31T14:31:16.000Z</Time>
            <Position>
              <LatitudeDegrees>42.45533793233335018157958984375</LatitudeDegrees>
              <LongitudeDegrees>2.85207088105380535125732421875</LongitudeDegrees>
            </Position>
            <AltitudeMeters>375.79998779296875</AltitudeMeters>
            <DistanceMeters>2756.6970227284</DistanceMeters>
          </Trackpoint>
          <Trackpoint>
            <Time>2021-03-31T14:31:17.000Z</Time>
            <Position>
              <LatitudeDegrees>42.4553398601710796356201171875</LatitudeDegrees>
              <LongitudeDegrees>2.85206333734095096588134765625</LongitudeDegrees>
            </Position>
            <AltitudeMeters>376</AltitudeMeters>
            <DistanceMeters>2757.3415252624</DistanceMeters>
          </Trackpoint>
          <Trackpoint>
            <Time>2021-03-31T14:31:21.000Z</Time>
            <Position>
              <LatitudeDegrees>42.45536676608026027679443359375</LatitudeDegrees>
              <LongitudeDegrees>2.85205964930355548858642578125</LongitudeDegrees>
            </Position>
            <AltitudeMeters>376.79998779296875</AltitudeMeters>
            <DistanceMeters>2760.3510379594</DistanceMeters>
          </Trackpoint>
          <Trackpoint>
            <Time>2021-03-31T14:31:22.000Z</Time>
            <Position>
              <LatitudeDegrees>42.45537020266056060791015625</LatitudeDegrees>
              <LongitudeDegrees>2.85205344669520854949951171875</LongitudeDegrees>
            </Position>
            <AltitudeMeters>377.600006103515625</AltitudeMeters>
            <DistanceMeters>2760.9955404935</DistanceMeters>
          </Trackpoint>
          <Trackpoint>
            <Time>2021-03-31T14:31:25.000Z</Time>
            <Position>
              <LatitudeDegrees>42.4553834460675716400146484375</LatitudeDegrees>
              <LongitudeDegrees>2.8520218469202518463134765625</LongitudeDegrees>
            </Position>
            <AltitudeMeters>378.600006103515625</AltitudeMeters>
            <DistanceMeters>2763.9794398507</DistanceMeters>
          </Trackpoint>
          <Trackpoint>
            <Time>2021-03-31T14:31:26.000Z</Time>
            <Position>
              <LatitudeDegrees>42.4553924985229969024658203125</LatitudeDegrees>
              <LongitudeDegrees>2.8520198352634906768798828125</LongitudeDegrees>
            </Position>
            <AltitudeMeters>378.600006103515625</AltitudeMeters>
            <DistanceMeters>2764.9984878334</DistanceMeters>
          </Trackpoint>
          <Trackpoint>
            <Time>2021-03-31T14:31:28.000Z</Time>
            <Position>
              <LatitudeDegrees>42.45540507137775421142578125</LatitudeDegrees>
              <LongitudeDegrees>2.85200701095163822174072265625</LongitudeDegrees>
            </Position>
            <AltitudeMeters>378.600006103515625</AltitudeMeters>
            <DistanceMeters>2766.7506938689</DistanceMeters>
          </Trackpoint>
          <Trackpoint>
            <Time>2021-03-31T14:31:33.000Z</Time>
            <Position>
              <LatitudeDegrees>42.45542024262249469757080078125</LatitudeDegrees>
              <LongitudeDegrees>2.851968705654144287109375</LongitudeDegrees>
            </Position>
            <AltitudeMeters>379.399993896484375</AltitudeMeters>
            <DistanceMeters>2770.3214736071</DistanceMeters>
          </Trackpoint>
          <Trackpoint>
            <Time>2021-03-31T14:31:39.000Z</Time>
            <Position>
              <LatitudeDegrees>42.45543566532433032989501953125</LatitudeDegrees>
              <LongitudeDegrees>2.85190961323678493499755859375</LongitudeDegrees>
            </Position>
            <AltitudeMeters>379.79998779296875</AltitudeMeters>
            <DistanceMeters>2775.4687296029</DistanceMeters>
          </Trackpoint>
          <Trackpoint>
            <Time>2021-03-31T14:31:44.000Z</Time>
            <Position>
              <LatitudeDegrees>42.45545469224452972412109375</LatitudeDegrees>
              <LongitudeDegrees>2.85186032764613628387451171875</LongitudeDegrees>
            </Position>
            <AltitudeMeters>380.79998779296875</AltitudeMeters>
            <DistanceMeters>2780.0359472007</DistanceMeters>
          </Trackpoint>
          <Trackpoint>
            <Time>2021-03-31T14:31:45.000Z</Time>
            <Position>
              <LatitudeDegrees>42.4554562009871006011962890625</LatitudeDegrees>
              <LongitudeDegrees>2.85185261629521846771240234375</LongitudeDegrees>
            </Position>
            <AltitudeMeters>381</AltitudeMeters>
            <DistanceMeters>2780.6943115902</DistanceMeters>
          </Trackpoint>
          <Trackpoint>
            <Time>2021-03-31T14:31:52.000Z</Time>
            <Position>
              <LatitudeDegrees>42.45549299754202365875244140625</LatitudeDegrees>
              <LongitudeDegrees>2.85177868790924549102783203125</LongitudeDegrees>
            </Position>
            <AltitudeMeters>381.79998779296875</AltitudeMeters>
            <DistanceMeters>2788.0181530738</DistanceMeters>
          </Trackpoint>
          <Trackpoint>
            <Time>2021-03-31T14:32:00.000Z</Time>
            <Position>
              <LatitudeDegrees>42.45552652515470981597900390625</LatitudeDegrees>
              <LongitudeDegrees>2.85169369541108608245849609375</LongitudeDegrees>
            </Position>
            <AltitudeMeters>382.600006103515625</AltitudeMeters>
            <DistanceMeters>2795.9328002733</DistanceMeters>
          </Trackpoint>
          <Trackpoint>
            <Time>2021-03-31T14:32:03.000Z</Time>
            <Position>
              <LatitudeDegrees>42.4555346556007862091064453125</LatitudeDegrees>
              <LongitudeDegrees>2.851665280759334564208984375</LongitudeDegrees>
            </Position>
            <AltitudeMeters>383</AltitudeMeters>
            <DistanceMeters>2798.4361726091</DistanceMeters>
          </Trackpoint>
          <Trackpoint>
            <Time>2021-03-31T14:32:05.000Z</Time>
            <Position>
              <LatitudeDegrees>42.4555452167987823486328125</LatitudeDegrees>
              <LongitudeDegrees>2.8516470082104206085205078125</LongitudeDegrees>
            </Position>
            <AltitudeMeters>383.399993896484375</AltitudeMeters>
            <DistanceMeters>2800.3414523079</DistanceMeters>
          </Trackpoint>
          <Trackpoint>
            <Time>2021-03-31T14:32:11.000Z</Time>
            <Position>
              <LatitudeDegrees>42.45556868612766265869140625</LatitudeDegrees>
              <LongitudeDegrees>2.851605601608753204345703125</LongitudeDegrees>
            </Position>
            <AltitudeMeters>383.399993896484375</AltitudeMeters>
            <DistanceMeters>2804.6281999752</DistanceMeters>
          </Trackpoint>
          <Trackpoint>
            <Time>2021-03-31T14:32:14.000Z</Time>
            <Position>
              <LatitudeDegrees>42.45556374080479145050048828125</LatitudeDegrees>
              <LongitudeDegrees>2.8515400551259517669677734375</LongitudeDegrees>
            </Position>
            <AltitudeMeters>383.79998779296875</AltitudeMeters>
            <DistanceMeters>2810.0388845744</DistanceMeters>
          </Trackpoint>
          <Trackpoint>
            <Time>2021-03-31T14:32:16.000Z</Time>
            <Position>
              <LatitudeDegrees>42.4555678479373455047607421875</LatitudeDegrees>
              <LongitudeDegrees>2.851507365703582763671875</LongitudeDegrees>
            </Position>
            <AltitudeMeters>384</AltitudeMeters>
            <DistanceMeters>2812.7633520153</DistanceMeters>
          </Trackpoint>
          <Trackpoint>
            <Time>2021-03-31T14:32:17.000Z</Time>
            <Position>
              <LatitudeDegrees>42.4555639922618865966796875</LatitudeDegrees>
              <LongitudeDegrees>2.85149001516401767730712890625</LongitudeDegrees>
            </Position>
            <AltitudeMeters>384.20001220703125</AltitudeMeters>
            <DistanceMeters>2814.2507553664</DistanceMeters>
          </Trackpoint>
          <Trackpoint>
            <Time>2021-03-31T14:32:24.000Z</Time>
            <Position>
              <LatitudeDegrees>42.45559056289494037628173828125</LatitudeDegrees>
              <LongitudeDegrees>2.85140804015100002288818359375</LongitudeDegrees>
            </Position>
            <AltitudeMeters>384.79998779296875</AltitudeMeters>
            <DistanceMeters>2821.6029004679</DistanceMeters>
          </Trackpoint>
          <Trackpoint>
            <Time>2021-03-31T14:32:26.000Z</Time>
            <Position>
              <LatitudeDegrees>42.45559173636138439178466796875</LatitudeDegrees>
              <LongitudeDegrees>2.85137702710926532745361328125</LongitudeDegrees>
            </Position>
            <AltitudeMeters>385.20001220703125</AltitudeMeters>
            <DistanceMeters>2824.152734784</DistanceMeters>
          </Trackpoint>
          <Trackpoint>
            <Time>2021-03-31T14:32:32.000Z</Time>
            <Position>
              <LatitudeDegrees>42.45561000891029834747314453125</LatitudeDegrees>
              <LongitudeDegrees>2.851303517818450927734375</LongitudeDegrees>
            </Position>
            <AltitudeMeters>385.600006103515625</AltitudeMeters>
            <DistanceMeters>2830.5230694329</DistanceMeters>
          </Trackpoint>
          <Trackpoint>
            <Time>2021-03-31T14:32:38.000Z</Time>
            <Position>
              <LatitudeDegrees>42.45563331060111522674560546875</LatitudeDegrees>
              <LongitudeDegrees>2.8512228839099407196044921875</LongitudeDegrees>
            </Position>
            <AltitudeMeters>386</AltitudeMeters>
            <DistanceMeters>2837.6342175882</DistanceMeters>
          </Trackpoint>
          <Trackpoint>
            <Time>2021-03-31T14:32:45.000Z</Time>
            <Position>
              <LatitudeDegrees>42.45567220263183116912841796875</LatitudeDegrees>
              <LongitudeDegrees>2.85117921419441699981689453125</LongitudeDegrees>
            </Position>
            <AltitudeMeters>386.20001220703125</AltitudeMeters>
            <DistanceMeters>2843.2544673514</DistanceMeters>
          </Trackpoint>
          <Trackpoint>
            <Time>2021-03-31T14:32:47.000Z</Time>
            <Position>
              <LatitudeDegrees>42.45568460784852504730224609375</LatitudeDegrees>
              <LongitudeDegrees>2.851176448166370391845703125</LongitudeDegrees>
            </Position>
            <AltitudeMeters>386.20001220703125</AltitudeMeters>
            <DistanceMeters>2844.6542982656</DistanceMeters>
          </Trackpoint>
          <Trackpoint>
            <Time>2021-03-31T14:32:49.000Z</Time>
            <Position>
              <LatitudeDegrees>42.4556838534772396087646484375</LatitudeDegrees>
              <LongitudeDegrees>2.851167730987071990966796875</LongitudeDegrees>
            </Position>
            <AltitudeMeters>386.399993896484375</AltitudeMeters>
            <DistanceMeters>2845.3780001613</DistanceMeters>
          </Trackpoint>
          <Trackpoint>
            <Time>2021-03-31T14:32:51.000Z</Time>
            <Position>
              <LatitudeDegrees>42.45569231919944286346435546875</LatitudeDegrees>
              <LongitudeDegrees>2.85115323029458522796630859375</LongitudeDegrees>
            </Position>
            <AltitudeMeters>386.399993896484375</AltitudeMeters>
            <DistanceMeters>2846.8984275912</DistanceMeters>
          </Trackpoint>
          <Trackpoint>
            <Time>2021-03-31T14:32:54.000Z</Time>
            <Position>
              <LatitudeDegrees>42.45570304803550243377685546875</LatitudeDegrees>
              <LongitudeDegrees>2.85111718811094760894775390625</LongitudeDegrees>
            </Position>
            <AltitudeMeters>386.600006103515625</AltitudeMeters>
            <DistanceMeters>2850.0899673808</DistanceMeters>
          </Trackpoint>
          <Trackpoint>
            <Time>2021-03-31T14:32:55.000Z</Time>
            <Position>
              <LatitudeDegrees>42.455704472959041595458984375</LatitudeDegrees>
              <LongitudeDegrees>2.8511025197803974151611328125</LongitudeDegrees>
            </Position>
            <AltitudeMeters>386.600006103515625</AltitudeMeters>
            <DistanceMeters>2851.3069030968</DistanceMeters>
          </Trackpoint>
          <Trackpoint>
            <Time>2021-03-31T14:32:56.000Z</Time>
            <Position>
              <LatitudeDegrees>42.45570606552064418792724609375</LatitudeDegrees>
              <LongitudeDegrees>2.85109003074467182159423828125</LongitudeDegrees>
            </Position>
            <AltitudeMeters>386.600006103515625</AltitudeMeters>
            <DistanceMeters>2852.3478685973</DistanceMeters>
          </Trackpoint>
          <Trackpoint>
            <Time>2021-03-31T14:32:59.000Z</Time>
            <Position>
              <LatitudeDegrees>42.455722577869892120361328125</LatitudeDegrees>
              <LongitudeDegrees>2.85105817951261997222900390625</LongitudeDegrees>
            </Position>
            <AltitudeMeters>386.600006103515625</AltitudeMeters>
            <DistanceMeters>2855.5450621377</DistanceMeters>
          </Trackpoint>
          <Trackpoint>
            <Time>2021-03-31T14:33:01.000Z</Time>
            <Position>
              <LatitudeDegrees>42.4557277746498584747314453125</LatitudeDegrees>
              <LongitudeDegrees>2.8510393202304840087890625</LongitudeDegrees>
            </Position>
            <AltitudeMeters>386.600006103515625</AltitudeMeters>
            <DistanceMeters>2857.1964503676</DistanceMeters>
          </Trackpoint>
          <Trackpoint>
            <Time>2021-03-31T14:33:05.000Z</Time>
            <Position>
              <LatitudeDegrees>42.45572886429727077484130859375</LatitudeDegrees>
              <LongitudeDegrees>2.85098190419375896453857421875</LongitudeDegrees>
            </Position>
            <AltitudeMeters>387.20001220703125</AltitudeMeters>
            <DistanceMeters>2861.9124951386</DistanceMeters>
          </Trackpoint>
          <Trackpoint>
            <Time>2021-03-31T14:33:07.000Z</Time>
            <Position>
              <LatitudeDegrees>42.45571888983249664306640625</LatitudeDegrees>
              <LongitudeDegrees>2.850941084325313568115234375</LongitudeDegrees>
            </Position>
            <AltitudeMeters>387.79998779296875</AltitudeMeters>
            <DistanceMeters>2865.4425809014</DistanceMeters>
          </Trackpoint>
          <Trackpoint>
            <Time>2021-03-31T14:33:10.000Z</Time>
            <Position>
              <LatitudeDegrees>42.45571888983249664306640625</LatitudeDegrees>
              <LongitudeDegrees>2.850906215608119964599609375</LongitudeDegrees>
            </Position>
            <AltitudeMeters>388</AltitudeMeters>
            <DistanceMeters>2868.3060245294</DistanceMeters>
          </Trackpoint>
          <Trackpoint>
            <Time>2021-03-31T14:33:11.000Z</Time>
            <Position>
              <LatitudeDegrees>42.45572065003216266632080078125</LatitudeDegrees>
              <LongitudeDegrees>2.85089523531496524810791015625</LongitudeDegrees>
            </Position>
            <AltitudeMeters>388</AltitudeMeters>
            <DistanceMeters>2869.2273427078</DistanceMeters>
          </Trackpoint>
          <Trackpoint>
            <Time>2021-03-31T14:33:15.000Z</Time>
            <Position>
              <LatitudeDegrees>42.45573992840945720672607421875</LatitudeDegrees>
              <LongitudeDegrees>2.850849889218807220458984375</LongitudeDegrees>
            </Position>
            <AltitudeMeters>388.399993896484375</AltitudeMeters>
            <DistanceMeters>2873.5256605653</DistanceMeters>
          </Trackpoint>
          <Trackpoint>
            <Time>2021-03-31T14:33:20.000Z</Time>
            <Position>
              <LatitudeDegrees>42.45575032196938991546630859375</LatitudeDegrees>
              <LongitudeDegrees>2.85082197748124599456787109375</LongitudeDegrees>
            </Position>
            <AltitudeMeters>389.600006103515625</AltitudeMeters>
            <DistanceMeters>2876.0931410042</DistanceMeters>
          </Trackpoint>
          <Trackpoint>
            <Time>2021-03-31T14:33:21.000Z</Time>
            <Position>
              <LatitudeDegrees>42.45575434528291225433349609375</LatitudeDegrees>
              <LongitudeDegrees>2.8508175350725650787353515625</LongitudeDegrees>
            </Position>
            <AltitudeMeters>389.600006103515625</AltitudeMeters>
            <DistanceMeters>2876.6633012904</DistanceMeters>
          </Trackpoint>
          <Trackpoint>
            <Time>2021-03-31T14:33:22.000Z</Time>
            <Position>
              <LatitudeDegrees>42.45575845241546630859375</LatitudeDegrees>
              <LongitudeDegrees>2.8508111648261547088623046875</LongitudeDegrees>
            </Position>
            <AltitudeMeters>390</AltitudeMeters>
            <DistanceMeters>2877.3485486728</DistanceMeters>
          </Trackpoint>
          <Trackpoint>
            <Time>2021-03-31T14:33:24.000Z</Time>
            <Position>
              <LatitudeDegrees>42.45576909743249416351318359375</LatitudeDegrees>
              <LongitudeDegrees>2.850795574486255645751953125</LongitudeDegrees>
            </Position>
            <AltitudeMeters>390.600006103515625</AltitudeMeters>
            <DistanceMeters>2879.0904171194</DistanceMeters>
          </Trackpoint>
          <Trackpoint>
            <Time>2021-03-31T14:33:27.000Z</Time>
            <Position>
              <LatitudeDegrees>42.45577412657439708709716796875</LatitudeDegrees>
              <LongitudeDegrees>2.850776799023151397705078125</LongitudeDegrees>
            </Position>
            <AltitudeMeters>391</AltitudeMeters>
            <DistanceMeters>2880.7308325486</DistanceMeters>
          </Trackpoint>
          <Trackpoint>
            <Time>2021-03-31T14:33:30.000Z</Time>
            <Position>
              <LatitudeDegrees>42.45579089038074016571044921875</LatitudeDegrees>
              <LongitudeDegrees>2.85076598636806011199951171875</LongitudeDegrees>
            </Position>
            <AltitudeMeters>391.600006103515625</AltitudeMeters>
            <DistanceMeters>2882.7953412266</DistanceMeters>
          </Trackpoint>
          <Trackpoint>
            <Time>2021-03-31T14:33:33.000Z</Time>
            <Position>
              <LatitudeDegrees>42.45579265058040618896484375</LatitudeDegrees>
              <LongitudeDegrees>2.850747965276241302490234375</LongitudeDegrees>
            </Position>
            <AltitudeMeters>392</AltitudeMeters>
            <DistanceMeters>2884.2918234209</DistanceMeters>
          </Trackpoint>
          <Trackpoint>
            <Time>2021-03-31T14:33:36.000Z</Time>
            <Position>
              <LatitudeDegrees>42.4557931534945964813232421875</LatitudeDegrees>
              <LongitudeDegrees>2.85072206519544124603271484375</LongitudeDegrees>
            </Position>
            <AltitudeMeters>392.399993896484375</AltitudeMeters>
            <DistanceMeters>2886.4188091516</DistanceMeters>
          </Trackpoint>
          <Trackpoint>
            <Time>2021-03-31T14:33:38.000Z</Time>
            <Position>
              <LatitudeDegrees>42.45580312795937061309814453125</LatitudeDegrees>
              <LongitudeDegrees>2.8507032059133052825927734375</LongitudeDegrees>
            </Position>
            <AltitudeMeters>392.79998779296875</AltitudeMeters>
            <DistanceMeters>2888.3240888503</DistanceMeters>
          </Trackpoint>
          <Trackpoint>
            <Time>2021-03-31T14:33:43.000Z</Time>
            <Position>
              <LatitudeDegrees>42.45584386400878429412841796875</LatitudeDegrees>
              <LongitudeDegrees>2.8506686724722385406494140625</LongitudeDegrees>
            </Position>
            <AltitudeMeters>393.20001220703125</AltitudeMeters>
            <DistanceMeters>2893.6726664346</DistanceMeters>
          </Trackpoint>
          <Trackpoint>
            <Time>2021-03-31T14:33:51.000Z</Time>
            <Position>
              <LatitudeDegrees>42.45587714016437530517578125</LatitudeDegrees>
              <LongitudeDegrees>2.8505952470004558563232421875</LongitudeDegrees>
            </Position>
            <AltitudeMeters>393.399993896484375</AltitudeMeters>
            <DistanceMeters>2900.7481695125</DistanceMeters>
          </Trackpoint>
          <Trackpoint>
            <Time>2021-03-31T14:33:56.000Z</Time>
            <Position>
              <LatitudeDegrees>42.45587454177439212799072265625</LatitudeDegrees>
              <LongitudeDegrees>2.85053975880146026611328125</LongitudeDegrees>
            </Position>
            <AltitudeMeters>393.399993896484375</AltitudeMeters>
            <DistanceMeters>2905.3134095316</DistanceMeters>
          </Trackpoint>
          <Trackpoint>
            <Time>2021-03-31T14:33:58.000Z</Time>
            <Position>
              <LatitudeDegrees>42.455888204276561737060546875</LatitudeDegrees>
              <LongitudeDegrees>2.85052576102316379547119140625</LongitudeDegrees>
            </Position>
            <AltitudeMeters>393.600006103515625</AltitudeMeters>
            <DistanceMeters>2907.2186892304</DistanceMeters>
          </Trackpoint>
          <Trackpoint>
            <Time>2021-03-31T14:34:00.000Z</Time>
            <Position>
              <LatitudeDegrees>42.4559046328067779541015625</LatitudeDegrees>
              <LongitudeDegrees>2.8505164571106433868408203125</LongitudeDegrees>
            </Position>
            <AltitudeMeters>393.79998779296875</AltitudeMeters>
            <DistanceMeters>2909.2029052795</DistanceMeters>
          </Trackpoint>
          <Trackpoint>
            <Time>2021-03-31T14:34:05.000Z</Time>
            <Position>
              <LatitudeDegrees>42.455930449068546295166015625</LatitudeDegrees>
              <LongitudeDegrees>2.85048770718276500701904296875</LongitudeDegrees>
            </Position>
            <AltitudeMeters>394.399993896484375</AltitudeMeters>
            <DistanceMeters>2912.9211100931</DistanceMeters>
          </Trackpoint>
          <Trackpoint>
            <Time>2021-03-31T14:34:08.000Z</Time>
            <Position>
              <LatitudeDegrees>42.45593883097171783447265625</LatitudeDegrees>
              <LongitudeDegrees>2.85046272911131381988525390625</LongitudeDegrees>
            </Position>
            <AltitudeMeters>394.79998779296875</AltitudeMeters>
            <DistanceMeters>2915.1738646206</DistanceMeters>
          </Trackpoint>
          <Trackpoint>
            <Time>2021-03-31T14:34:09.000Z</Time>
            <Position>
              <LatitudeDegrees>42.455941177904605865478515625</LatitudeDegrees>
              <LongitudeDegrees>2.8504514135420322418212890625</LongitudeDegrees>
            </Position>
            <AltitudeMeters>394.79998779296875</AltitudeMeters>
            <DistanceMeters>2916.1429507624</DistanceMeters>
          </Trackpoint>
          <Trackpoint>
            <Time>2021-03-31T14:34:15.000Z</Time>
            <Position>
              <LatitudeDegrees>42.45595400221645832061767578125</LatitudeDegrees>
              <LongitudeDegrees>2.85038310103118419647216796875</LongitudeDegrees>
            </Position>
            <AltitudeMeters>395.600006103515625</AltitudeMeters>
            <DistanceMeters>2921.931006015</DistanceMeters>
          </Trackpoint>
          <Trackpoint>
            <Time>2021-03-31T14:34:18.000Z</Time>
            <Position>
              <LatitudeDegrees>42.45596372522413730621337890625</LatitudeDegrees>
              <LongitudeDegrees>2.85036667250096797943115234375</LongitudeDegrees>
            </Position>
            <AltitudeMeters>395.79998779296875</AltitudeMeters>
            <DistanceMeters>2923.6572520075</DistanceMeters>
          </Trackpoint>
          <Trackpoint>
            <Time>2021-03-31T14:34:22.000Z</Time>
            <Position>
              <LatitudeDegrees>42.4559839256107807159423828125</LatitudeDegrees>
              <LongitudeDegrees>2.85034772939980030059814453125</LongitudeDegrees>
            </Position>
            <AltitudeMeters>396.79998779296875</AltitudeMeters>
            <DistanceMeters>2926.3916446815</DistanceMeters>
          </Trackpoint>
          <Trackpoint>
            <Time>2021-03-31T14:34:23.000Z</Time>
            <Position>
              <LatitudeDegrees>42.45598685927689075469970703125</LatitudeDegrees>
              <LongitudeDegrees>2.850337922573089599609375</LongitudeDegrees>
            </Position>
            <AltitudeMeters>397</AltitudeMeters>
            <DistanceMeters>2927.2625789048</DistanceMeters>
          </Trackpoint>
          <Trackpoint>
            <Time>2021-03-31T14:34:30.000Z</Time>
            <Position>
              <LatitudeDegrees>42.4560268409550189971923828125</LatitudeDegrees>
              <LongitudeDegrees>2.850310094654560089111328125</LongitudeDegrees>
            </Position>
            <AltitudeMeters>398.20001220703125</AltitudeMeters>
            <DistanceMeters>2932.2639099026</DistanceMeters>
          </Trackpoint>
          <Trackpoint>
            <Time>2021-03-31T14:34:31.000Z</Time>
            <Position>
              <LatitudeDegrees>42.45603010989725589752197265625</LatitudeDegrees>
              <LongitudeDegrees>2.85030146129429340362548828125</LongitudeDegrees>
            </Position>
            <AltitudeMeters>398.399993896484375</AltitudeMeters>
            <DistanceMeters>2933.0589604362</DistanceMeters>
          </Trackpoint>
          <Trackpoint>
            <Time>2021-03-31T14:34:39.000Z</Time>
            <Position>
              <LatitudeDegrees>42.456056512892246246337890625</LatitudeDegrees>
              <LongitudeDegrees>2.85026022233068943023681640625</LongitudeDegrees>
            </Position>
            <AltitudeMeters>399.399993896484375</AltitudeMeters>
            <DistanceMeters>2937.5423687563</DistanceMeters>
          </Trackpoint>
          <Trackpoint>
            <Time>2021-03-31T14:34:42.000Z</Time>
            <Position>
              <LatitudeDegrees>42.4560610391199588775634765625</LatitudeDegrees>
              <LongitudeDegrees>2.85022904165089130401611328125</LongitudeDegrees>
            </Position>
            <AltitudeMeters>400.20001220703125</AltitudeMeters>
            <DistanceMeters>2940.1517130492</DistanceMeters>
          </Trackpoint>
          <Trackpoint>
            <Time>2021-03-31T14:34:44.000Z</Time>
            <Position>
              <LatitudeDegrees>42.4560710974037647247314453125</LatitudeDegrees>
              <LongitudeDegrees>2.85020540468394756317138671875</LongitudeDegrees>
            </Position>
            <AltitudeMeters>400.600006103515625</AltitudeMeters>
            <DistanceMeters>2942.392409928</DistanceMeters>
          </Trackpoint>
          <Trackpoint>
            <Time>2021-03-31T14:34:51.000Z</Time>
            <Position>
              <LatitudeDegrees>42.45610320009291172027587890625</LatitudeDegrees>
              <LongitudeDegrees>2.85012745298445224761962890625</LongitudeDegrees>
            </Position>
            <AltitudeMeters>400.79998779296875</AltitudeMeters>
            <DistanceMeters>2949.7236454988</DistanceMeters>
          </Trackpoint>
          <Trackpoint>
            <Time>2021-03-31T14:34:59.000Z</Time>
            <Position>
              <LatitudeDegrees>42.45613521896302700042724609375</LatitudeDegrees>
              <LongitudeDegrees>2.85005805082619190216064453125</LongitudeDegrees>
            </Position>
            <AltitudeMeters>400.600006103515625</AltitudeMeters>
            <DistanceMeters>2956.4457361353</DistanceMeters>
          </Trackpoint>
          <Trackpoint>
            <Time>2021-03-31T14:35:04.000Z</Time>
            <Position>
              <LatitudeDegrees>42.456172518432140350341796875</LatitudeDegrees>
              <LongitudeDegrees>2.850015722215175628662109375</LongitudeDegrees>
            </Position>
            <AltitudeMeters>399.79998779296875</AltitudeMeters>
            <DistanceMeters>2961.8605914624</DistanceMeters>
          </Trackpoint>
          <Trackpoint>
            <Time>2021-03-31T14:35:05.000Z</Time>
            <Position>
              <LatitudeDegrees>42.45618081651628017425537109375</LatitudeDegrees>
              <LongitudeDegrees>2.85000524483621120452880859375</LongitudeDegrees>
            </Position>
            <AltitudeMeters>399.79998779296875</AltitudeMeters>
            <DistanceMeters>2963.1248396701</DistanceMeters>
          </Trackpoint>
          <Trackpoint>
            <Time>2021-03-31T14:35:06.000Z</Time>
            <Position>
              <LatitudeDegrees>42.4561840854585170745849609375</LatitudeDegrees>
              <LongitudeDegrees>2.8499900735914707183837890625</LongitudeDegrees>
            </Position>
            <AltitudeMeters>399.600006103515625</AltitudeMeters>
            <DistanceMeters>2964.4277803331</DistanceMeters>
          </Trackpoint>
          <Trackpoint>
            <Time>2021-03-31T14:35:09.000Z</Time>
            <Position>
              <LatitudeDegrees>42.4561881087720394134521484375</LatitudeDegrees>
              <LongitudeDegrees>2.8499749861657619476318359375</LongitudeDegrees>
            </Position>
            <AltitudeMeters>399.399993896484375</AltitudeMeters>
            <DistanceMeters>2965.74793364</DistanceMeters>
          </Trackpoint>
          <Trackpoint>
            <Time>2021-03-31T14:35:10.000Z</Time>
            <Position>
              <LatitudeDegrees>42.45618785731494426727294921875</LatitudeDegrees>
              <LongitudeDegrees>2.84998093731701374053955078125</LongitudeDegrees>
            </Position>
            <AltitudeMeters>399.20001220703125</AltitudeMeters>
            <DistanceMeters>2966.2324767109</DistanceMeters>
          </Trackpoint>
          <Trackpoint>
            <Time>2021-03-31T14:35:12.000Z</Time>
            <Position>
              <LatitudeDegrees>42.45619255118072032928466796875</LatitudeDegrees>
              <LongitudeDegrees>2.8499964438378810882568359375</LongitudeDegrees>
            </Position>
            <AltitudeMeters>399.20001220703125</AltitudeMeters>
            <DistanceMeters>2967.6095446298</DistanceMeters>
          </Trackpoint>
          <Trackpoint>
            <Time>2021-03-31T14:35:19.000Z</Time>
            <Position>
              <LatitudeDegrees>42.456193305552005767822265625</LatitudeDegrees>
              <LongitudeDegrees>2.84994875080883502960205078125</LongitudeDegrees>
            </Position>
            <AltitudeMeters>399.20001220703125</AltitudeMeters>
            <DistanceMeters>2971.5264438981</DistanceMeters>
          </Trackpoint>
          <Trackpoint>
            <Time>2021-03-31T14:35:21.000Z</Time>
            <Position>
              <LatitudeDegrees>42.45619674213230609893798828125</LatitudeDegrees>
              <LongitudeDegrees>2.84993265755474567413330078125</LongitudeDegrees>
            </Position>
            <AltitudeMeters>399.399993896484375</AltitudeMeters>
            <DistanceMeters>2972.903511817</DistanceMeters>
          </Trackpoint>
          <Trackpoint>
            <Time>2021-03-31T14:35:28.000Z</Time>
            <Position>
              <LatitudeDegrees>42.45619808323681354522705078125</LatitudeDegrees>
              <LongitudeDegrees>2.84991773776710033416748046875</LongitudeDegrees>
            </Position>
            <AltitudeMeters>399.399993896484375</AltitudeMeters>
            <DistanceMeters>2974.1425085868</DistanceMeters>
          </Trackpoint>
          <Trackpoint>
            <Time>2021-03-31T14:35:31.000Z</Time>
            <Position>
              <LatitudeDegrees>42.45621082372963428497314453125</LatitudeDegrees>
              <LongitudeDegrees>2.8499146364629268646240234375</LongitudeDegrees>
            </Position>
            <AltitudeMeters>399.399993896484375</AltitudeMeters>
            <DistanceMeters>2975.5836600646</DistanceMeters>
          </Trackpoint>
          <Trackpoint>
            <Time>2021-03-31T14:35:33.000Z</Time>
            <Position>
              <LatitudeDegrees>42.45621082372963428497314453125</LatitudeDegrees>
              <LongitudeDegrees>2.8499146364629268646240234375</LongitudeDegrees>
            </Position>
            <AltitudeMeters>399.20001220703125</AltitudeMeters>
            <DistanceMeters>2975.5836600646</DistanceMeters>
          </Trackpoint>
          <Trackpoint>
            <Time>2021-03-31T14:35:42.000Z</Time>
            <Position>
              <LatitudeDegrees>42.45621082372963428497314453125</LatitudeDegrees>
              <LongitudeDegrees>2.8499146364629268646240234375</LongitudeDegrees>
            </Position>
            <AltitudeMeters>399.20001220703125</AltitudeMeters>
            <DistanceMeters>2975.5836600646</DistanceMeters>
          </Trackpoint>
          <Trackpoint>
            <Time>2021-03-31T14:35:43.000Z</Time>
            <Position>
              <LatitudeDegrees>42.45621375739574432373046875</LatitudeDegrees>
              <LongitudeDegrees>2.8499082662165164947509765625</LongitudeDegrees>
            </Position>
            <AltitudeMeters>399</AltitudeMeters>
            <DistanceMeters>2976.1995035599</DistanceMeters>
          </Trackpoint>
          <Trackpoint>
            <Time>2021-03-31T14:35:48.000Z</Time>
            <Position>
              <LatitudeDegrees>42.45624284259974956512451171875</LatitudeDegrees>
              <LongitudeDegrees>2.8498375229537487030029296875</LongitudeDegrees>
            </Position>
            <AltitudeMeters>401</AltitudeMeters>
            <DistanceMeters>2982.8500159027</DistanceMeters>
          </Trackpoint>
          <Trackpoint>
            <Time>2021-03-31T14:35:49.000Z</Time>
            <Position>
              <LatitudeDegrees>42.45625256560742855072021484375</LatitudeDegrees>
              <LongitudeDegrees>2.84982302226126194000244140625</LongitudeDegrees>
            </Position>
            <AltitudeMeters>401</AltitudeMeters>
            <DistanceMeters>2984.4626727217</DistanceMeters>
          </Trackpoint>
          <Trackpoint>
            <Time>2021-03-31T14:35:50.000Z</Time>
            <Position>
              <LatitudeDegrees>42.4562608636915683746337890625</LatitudeDegrees>
              <LongitudeDegrees>2.8498080186545848846435546875</LongitudeDegrees>
            </Position>
            <AltitudeMeters>401</AltitudeMeters>
            <DistanceMeters>2986.0008144669</DistanceMeters>
          </Trackpoint>
          <Trackpoint>
            <Time>2021-03-31T14:35:55.000Z</Time>
            <Position>
              <LatitudeDegrees>42.4562895298004150390625</LatitudeDegrees>
              <LongitudeDegrees>2.849742136895656585693359375</LongitudeDegrees>
            </Position>
            <AltitudeMeters>400.79998779296875</AltitudeMeters>
            <DistanceMeters>2992.2812104662</DistanceMeters>
          </Trackpoint>
          <Trackpoint>
            <Time>2021-03-31T14:35:59.000Z</Time>
            <Position>
              <LatitudeDegrees>42.45630688033998012542724609375</LatitudeDegrees>
              <LongitudeDegrees>2.84971640445291996002197265625</LongitudeDegrees>
            </Position>
            <AltitudeMeters>401.20001220703125</AltitudeMeters>
            <DistanceMeters>2995.1430768737</DistanceMeters>
          </Trackpoint>
          <Trackpoint>
            <Time>2021-03-31T14:36:04.000Z</Time>
            <Position>
              <LatitudeDegrees>42.4563262425363063812255859375</LatitudeDegrees>
              <LongitudeDegrees>2.84968136809766292572021484375</LongitudeDegrees>
            </Position>
            <AltitudeMeters>401.79998779296875</AltitudeMeters>
            <DistanceMeters>2998.7390564993</DistanceMeters>
          </Trackpoint>
          <Trackpoint>
            <Time>2021-03-31T14:36:07.000Z</Time>
            <Position>
              <LatitudeDegrees>42.45633973740041255950927734375</LatitudeDegrees>
              <LongitudeDegrees>2.84965597093105316162109375</LongitudeDegrees>
            </Position>
            <AltitudeMeters>401.79998779296875</AltitudeMeters>
            <DistanceMeters>3001.310051629</DistanceMeters>
          </Trackpoint>
          <Trackpoint>
            <Time>2021-03-31T14:36:08.000Z</Time>
            <Position>
              <LatitudeDegrees>42.45634309016168117523193359375</LatitudeDegrees>
              <LongitudeDegrees>2.84964658319950103759765625</LongitudeDegrees>
            </Position>
            <AltitudeMeters>402</AltitudeMeters>
            <DistanceMeters>3002.1652920584</DistanceMeters>
          </Trackpoint>
          <Trackpoint>
            <Time>2021-03-31T14:36:09.000Z</Time>
            <Position>
              <LatitudeDegrees>42.4563480354845523834228515625</LatitudeDegrees>
              <LongitudeDegrees>2.84963719546794891357421875</LongitudeDegrees>
            </Position>
            <AltitudeMeters>402.20001220703125</AltitudeMeters>
            <DistanceMeters>3003.1060085361</DistanceMeters>
          </Trackpoint>
          <Trackpoint>
            <Time>2021-03-31T14:36:13.000Z</Time>
            <Position>
              <LatitudeDegrees>42.45636873878538608551025390625</LatitudeDegrees>
              <LongitudeDegrees>2.8495941124856472015380859375</LongitudeDegrees>
            </Position>
            <AltitudeMeters>402.600006103515625</AltitudeMeters>
            <DistanceMeters>3007.3280188275</DistanceMeters>
          </Trackpoint>
          <Trackpoint>
            <Time>2021-03-31T14:36:16.000Z</Time>
            <Position>
              <LatitudeDegrees>42.4563775397837162017822265625</LatitudeDegrees>
              <LongitudeDegrees>2.84956611692905426025390625</LongitudeDegrees>
            </Position>
            <AltitudeMeters>402.600006103515625</AltitudeMeters>
            <DistanceMeters>3009.827781396</DistanceMeters>
          </Trackpoint>
          <Trackpoint>
            <Time>2021-03-31T14:36:17.000Z</Time>
            <Position>
              <LatitudeDegrees>42.45637929998338222503662109375</LatitudeDegrees>
              <LongitudeDegrees>2.84955765120685100555419921875</LongitudeDegrees>
            </Position>
            <AltitudeMeters>402.600006103515625</AltitudeMeters>
            <DistanceMeters>3010.5388962116</DistanceMeters>
          </Trackpoint>
          <Trackpoint>
            <Time>2021-03-31T14:36:18.000Z</Time>
            <Position>
              <LatitudeDegrees>42.4563845805823802947998046875</LatitudeDegrees>
              <LongitudeDegrees>2.8495505265891551971435546875</LongitudeDegrees>
            </Position>
            <AltitudeMeters>402.79998779296875</AltitudeMeters>
            <DistanceMeters>3011.3673199013</DistanceMeters>
          </Trackpoint>
          <Trackpoint>
            <Time>2021-03-31T14:36:19.000Z</Time>
            <Position>
              <LatitudeDegrees>42.45638868771493434906005859375</LatitudeDegrees>
              <LongitudeDegrees>2.84954331815242767333984375</LongitudeDegrees>
            </Position>
            <AltitudeMeters>403</AltitudeMeters>
            <DistanceMeters>3012.1155609985</DistanceMeters>
          </Trackpoint>
          <Trackpoint>
            <Time>2021-03-31T14:36:20.000Z</Time>
            <Position>
              <LatitudeDegrees>42.456393130123615264892578125</LatitudeDegrees>
              <LongitudeDegrees>2.84953434951603412628173828125</LongitudeDegrees>
            </Position>
            <AltitudeMeters>403.20001220703125</AltitudeMeters>
            <DistanceMeters>3012.9968024944</DistanceMeters>
          </Trackpoint>
          <Trackpoint>
            <Time>2021-03-31T14:36:23.000Z</Time>
            <Position>
              <LatitudeDegrees>42.4564083851873874664306640625</LatitudeDegrees>
              <LongitudeDegrees>2.849506773054599761962890625</LongitudeDegrees>
            </Position>
            <AltitudeMeters>403.399993896484375</AltitudeMeters>
            <DistanceMeters>3015.8269399126</DistanceMeters>
          </Trackpoint>
          <Trackpoint>
            <Time>2021-03-31T14:36:26.000Z</Time>
            <Position>
              <LatitudeDegrees>42.4564137496054172515869140625</LatitudeDegrees>
              <LongitudeDegrees>2.84947433508932590484619140625</LongitudeDegrees>
            </Position>
            <AltitudeMeters>403.79998779296875</AltitudeMeters>
            <DistanceMeters>3018.5580281834</DistanceMeters>
          </Trackpoint>
          <Trackpoint>
            <Time>2021-03-31T14:36:28.000Z</Time>
            <Position>
              <LatitudeDegrees>42.456425987184047698974609375</LatitudeDegrees>
              <LongitudeDegrees>2.849462516605854034423828125</LongitudeDegrees>
            </Position>
            <AltitudeMeters>404</AltitudeMeters>
            <DistanceMeters>3020.2311461403</DistanceMeters>
          </Trackpoint>
          <Trackpoint>
            <Time>2021-03-31T14:36:29.000Z</Time>
            <Position>
              <LatitudeDegrees>42.45642657391726970672607421875</LatitudeDegrees>
              <LongitudeDegrees>2.849457822740077972412109375</LongitudeDegrees>
            </Position>
            <AltitudeMeters>404.20001220703125</AltitudeMeters>
            <DistanceMeters>3020.6229513209</DistanceMeters>
          </Trackpoint>
          <Trackpoint>
            <Time>2021-03-31T14:36:32.000Z</Time>
            <Position>
              <LatitudeDegrees>42.4564311839640140533447265625</LatitudeDegrees>
              <LongitudeDegrees>2.84942303784191608428955078125</LongitudeDegrees>
            </Position>
            <AltitudeMeters>404.79998779296875</AltitudeMeters>
            <DistanceMeters>3023.5271020399</DistanceMeters>
          </Trackpoint>
          <Trackpoint>
            <Time>2021-03-31T14:36:34.000Z</Time>
            <Position>
              <LatitudeDegrees>42.45642959140241146087646484375</LatitudeDegrees>
              <LongitudeDegrees>2.8494043461978435516357421875</LongitudeDegrees>
            </Position>
            <AltitudeMeters>405.20001220703125</AltitudeMeters>
            <DistanceMeters>3025.0711033939</DistanceMeters>
          </Trackpoint>
          <Trackpoint>
            <Time>2021-03-31T14:36:37.000Z</Time>
            <Position>
              <LatitudeDegrees>42.45643344707787036895751953125</LatitudeDegrees>
              <LongitudeDegrees>2.84937836229801177978515625</LongitudeDegrees>
            </Position>
            <AltitudeMeters>405.600006103515625</AltitudeMeters>
            <DistanceMeters>3027.2463643108</DistanceMeters>
          </Trackpoint>
          <Trackpoint>
            <Time>2021-03-31T14:36:38.000Z</Time>
            <Position>
              <LatitudeDegrees>42.45643277652561664581298828125</LatitudeDegrees>
              <LongitudeDegrees>2.84937107004225254058837890625</LongitudeDegrees>
            </Position>
            <AltitudeMeters>405.79998779296875</AltitudeMeters>
            <DistanceMeters>3027.8473660227</DistanceMeters>
          </Trackpoint>
          <Trackpoint>
            <Time>2021-03-31T14:36:41.000Z</Time>
            <Position>
              <LatitudeDegrees>42.456431686878204345703125</LatitudeDegrees>
              <LongitudeDegrees>2.84934257157146930694580078125</LongitudeDegrees>
            </Position>
            <AltitudeMeters>406.20001220703125</AltitudeMeters>
            <DistanceMeters>3030.1905020576</DistanceMeters>
          </Trackpoint>
          <Trackpoint>
            <Time>2021-03-31T14:36:42.000Z</Time>
            <Position>
              <LatitudeDegrees>42.4564315192401409149169921875</LatitudeDegrees>
              <LongitudeDegrees>2.849333100020885467529296875</LongitudeDegrees>
            </Position>
            <AltitudeMeters>406.399993896484375</AltitudeMeters>
            <DistanceMeters>3030.9625027346</DistanceMeters>
          </Trackpoint>
          <Trackpoint>
            <Time>2021-03-31T14:36:44.000Z</Time>
            <Position>
              <LatitudeDegrees>42.45642875321209430694580078125</LatitudeDegrees>
              <LongitudeDegrees>2.8493146598339080810546875</LongitudeDegrees>
            </Position>
            <AltitudeMeters>406.600006103515625</AltitudeMeters>
            <DistanceMeters>3032.5065040886</DistanceMeters>
          </Trackpoint>
          <Trackpoint>
            <Time>2021-03-31T14:36:46.000Z</Time>
            <Position>
              <LatitudeDegrees>42.45642724446952342987060546875</LatitudeDegrees>
              <LongitudeDegrees>2.84929521381855010986328125</LongitudeDegrees>
            </Position>
            <AltitudeMeters>406.79998779296875</AltitudeMeters>
            <DistanceMeters>3034.1135516495</DistanceMeters>
          </Trackpoint>
          <Trackpoint>
            <Time>2021-03-31T14:36:47.000Z</Time>
            <Position>
              <LatitudeDegrees>42.45643076486885547637939453125</LatitudeDegrees>
              <LongitudeDegrees>2.8492900170385837554931640625</LongitudeDegrees>
            </Position>
            <AltitudeMeters>406.79998779296875</AltitudeMeters>
            <DistanceMeters>3034.6993356582</DistanceMeters>
          </Trackpoint>
          <Trackpoint>
            <Time>2021-03-31T14:36:50.000Z</Time>
            <Position>
              <LatitudeDegrees>42.4564459361135959625244140625</LatitudeDegrees>
              <LongitudeDegrees>2.8492658771574497222900390625</LongitudeDegrees>
            </Position>
            <AltitudeMeters>407.399993896484375</AltitudeMeters>
            <DistanceMeters>3037.3052169844</DistanceMeters>
          </Trackpoint>
          <Trackpoint>
            <Time>2021-03-31T14:36:54.000Z</Time>
            <Position>
              <LatitudeDegrees>42.45646999217569828033447265625</LatitudeDegrees>
              <LongitudeDegrees>2.84924148581922054290771484375</LongitudeDegrees>
            </Position>
            <AltitudeMeters>407.79998779296875</AltitudeMeters>
            <DistanceMeters>3040.6487532318</DistanceMeters>
          </Trackpoint>
          <Trackpoint>
            <Time>2021-03-31T14:37:01.000Z</Time>
            <Position>
              <LatitudeDegrees>42.4565322697162628173828125</LatitudeDegrees>
              <LongitudeDegrees>2.84919572062790393829345703125</LongitudeDegrees>
            </Position>
            <AltitudeMeters>407.600006103515625</AltitudeMeters>
            <DistanceMeters>3048.5331077545</DistanceMeters>
          </Trackpoint>
          <Trackpoint>
            <Time>2021-03-31T14:37:07.000Z</Time>
            <Position>
              <LatitudeDegrees>42.456580884754657745361328125</LatitudeDegrees>
              <LongitudeDegrees>2.84915247000753879547119140625</LongitudeDegrees>
            </Position>
            <AltitudeMeters>407</AltitudeMeters>
            <DistanceMeters>3055.0060942909</DistanceMeters>
          </Trackpoint>
          <Trackpoint>
            <Time>2021-03-31T14:37:09.000Z</Time>
            <Position>
              <LatitudeDegrees>42.4565931223332881927490234375</LatitudeDegrees>
              <LongitudeDegrees>2.84913964569568634033203125</LongitudeDegrees>
            </Position>
            <AltitudeMeters>407</AltitudeMeters>
            <DistanceMeters>3056.7271012849</DistanceMeters>
          </Trackpoint>
          <Trackpoint>
            <Time>2021-03-31T14:37:12.000Z</Time>
            <Position>
              <LatitudeDegrees>42.45661315508186817169189453125</LatitudeDegrees>
              <LongitudeDegrees>2.849124558269977569580078125</LongitudeDegrees>
            </Position>
            <AltitudeMeters>407.20001220703125</AltitudeMeters>
            <DistanceMeters>3059.276935601</DistanceMeters>
          </Trackpoint>
          <Trackpoint>
            <Time>2021-03-31T14:37:16.000Z</Time>
            <Position>
              <LatitudeDegrees>42.45663779787719249725341796875</LatitudeDegrees>
              <LongitudeDegrees>2.849084995687007904052734375</LongitudeDegrees>
            </Position>
            <AltitudeMeters>407.600006103515625</AltitudeMeters>
            <DistanceMeters>3063.5277217594</DistanceMeters>
          </Trackpoint>
          <Trackpoint>
            <Time>2021-03-31T14:37:22.000Z</Time>
            <Position>
              <LatitudeDegrees>42.4566705711185932159423828125</LatitudeDegrees>
              <LongitudeDegrees>2.84902405925095081329345703125</LongitudeDegrees>
            </Position>
            <AltitudeMeters>407.79998779296875</AltitudeMeters>
            <DistanceMeters>3069.7197896354</DistanceMeters>
          </Trackpoint>
          <Trackpoint>
            <Time>2021-03-31T14:37:23.000Z</Time>
            <Position>
              <LatitudeDegrees>42.45667819865047931671142578125</LatitudeDegrees>
              <LongitudeDegrees>2.84901400096714496612548828125</LongitudeDegrees>
            </Position>
            <AltitudeMeters>407.79998779296875</AltitudeMeters>
            <DistanceMeters>3070.9066729175</DistanceMeters>
          </Trackpoint>
          <Trackpoint>
            <Time>2021-03-31T14:37:24.000Z</Time>
            <Position>
              <LatitudeDegrees>42.45668641291558742523193359375</LatitudeDegrees>
              <LongitudeDegrees>2.84900545142590999603271484375</LongitudeDegrees>
            </Position>
            <AltitudeMeters>408</AltitudeMeters>
            <DistanceMeters>3072.054885076</DistanceMeters>
          </Trackpoint>
          <Trackpoint>
            <Time>2021-03-31T14:37:28.000Z</Time>
            <Position>
              <LatitudeDegrees>42.456712312996387481689453125</LatitudeDegrees>
              <LongitudeDegrees>2.848977707326412200927734375</LongitudeDegrees>
            </Position>
            <AltitudeMeters>408.399993896484375</AltitudeMeters>
            <DistanceMeters>3075.7303434637</DistanceMeters>
          </Trackpoint>
          <Trackpoint>
            <Time>2021-03-31T14:37:32.000Z</Time>
            <Position>
              <LatitudeDegrees>42.45673586614429950714111328125</LatitudeDegrees>
              <LongitudeDegrees>2.8489391505718231201171875</LongitudeDegrees>
            </Position>
            <AltitudeMeters>408.79998779296875</AltitudeMeters>
            <DistanceMeters>3079.8407294586</DistanceMeters>
          </Trackpoint>
          <Trackpoint>
            <Time>2021-03-31T14:37:36.000Z</Time>
            <Position>
              <LatitudeDegrees>42.45674558915197849273681640625</LatitudeDegrees>
              <LongitudeDegrees>2.84890050999820232391357421875</LongitudeDegrees>
            </Position>
            <AltitudeMeters>409.20001220703125</AltitudeMeters>
            <DistanceMeters>3083.1923581815</DistanceMeters>
          </Trackpoint>
          <Trackpoint>
            <Time>2021-03-31T14:37:38.000Z</Time>
            <Position>
              <LatitudeDegrees>42.45675623416900634765625</LatitudeDegrees>
              <LongitudeDegrees>2.8488829918205738067626953125</LongitudeDegrees>
            </Position>
            <AltitudeMeters>409.600006103515625</AltitudeMeters>
            <DistanceMeters>3085.0544938786</DistanceMeters>
          </Trackpoint>
          <Trackpoint>
            <Time>2021-03-31T14:37:44.000Z</Time>
            <Position>
              <LatitudeDegrees>42.45677542872726917266845703125</LatitudeDegrees>
              <LongitudeDegrees>2.8488263301551342010498046875</LongitudeDegrees>
            </Position>
            <AltitudeMeters>410</AltitudeMeters>
            <DistanceMeters>3090.1753670457</DistanceMeters>
          </Trackpoint>
          <Trackpoint>
            <Time>2021-03-31T14:37:52.000Z</Time>
            <Position>
              <LatitudeDegrees>42.45684030465781688690185546875</LatitudeDegrees>
              <LongitudeDegrees>2.84877629019320011138916015625</LongitudeDegrees>
            </Position>
            <AltitudeMeters>410</AltitudeMeters>
            <DistanceMeters>3098.4840934471</DistanceMeters>
          </Trackpoint>
          <Trackpoint>
            <Time>2021-03-31T14:38:00.000Z</Time>
            <Position>
              <LatitudeDegrees>42.4568925239145755767822265625</LatitudeDegrees>
              <LongitudeDegrees>2.84869699738919734954833984375</LongitudeDegrees>
            </Position>
            <AltitudeMeters>410.20001220703125</AltitudeMeters>
            <DistanceMeters>3107.212078603</DistanceMeters>
          </Trackpoint>
          <Trackpoint>
            <Time>2021-03-31T14:38:06.000Z</Time>
            <Position>
              <LatitudeDegrees>42.4569029174745082855224609375</LatitudeDegrees>
              <LongitudeDegrees>2.84864821471273899078369140625</LongitudeDegrees>
            </Position>
            <AltitudeMeters>410.20001220703125</AltitudeMeters>
            <DistanceMeters>3111.3802757046</DistanceMeters>
          </Trackpoint>
          <Trackpoint>
            <Time>2021-03-31T14:38:09.000Z</Time>
            <Position>
              <LatitudeDegrees>42.4569055996835231781005859375</LatitudeDegrees>
              <LongitudeDegrees>2.848622314631938934326171875</LongitudeDegrees>
            </Position>
            <AltitudeMeters>410.600006103515625</AltitudeMeters>
            <DistanceMeters>3113.5262810603</DistanceMeters>
          </Trackpoint>
          <Trackpoint>
            <Time>2021-03-31T14:38:12.000Z</Time>
            <Position>
              <LatitudeDegrees>42.45691305957734584808349609375</LatitudeDegrees>
              <LongitudeDegrees>2.8486003540456295013427734375</LongitudeDegrees>
            </Position>
            <AltitudeMeters>410.79998779296875</AltitudeMeters>
            <DistanceMeters>3115.5104971094</DistanceMeters>
          </Trackpoint>
          <Trackpoint>
            <Time>2021-03-31T14:38:14.000Z</Time>
            <Position>
              <LatitudeDegrees>42.45691875927150249481201171875</LatitudeDegrees>
              <LongitudeDegrees>2.848584093153476715087890625</LongitudeDegrees>
            </Position>
            <AltitudeMeters>411</AltitudeMeters>
            <DistanceMeters>3116.9918169857</DistanceMeters>
          </Trackpoint>
          <Trackpoint>
            <Time>2021-03-31T14:38:18.000Z</Time>
            <Position>
              <LatitudeDegrees>42.45692244730889797210693359375</LatitudeDegrees>
              <LongitudeDegrees>2.84854796715080738067626953125</LongitudeDegrees>
            </Position>
            <AltitudeMeters>411.79998779296875</AltitudeMeters>
            <DistanceMeters>3119.9862895451</DistanceMeters>
          </Trackpoint>
          <Trackpoint>
            <Time>2021-03-31T14:38:23.000Z</Time>
            <Position>
              <LatitudeDegrees>42.4569314159452915191650390625</LatitudeDegrees>
              <LongitudeDegrees>2.848512344062328338623046875</LongitudeDegrees>
            </Position>
            <AltitudeMeters>412.600006103515625</AltitudeMeters>
            <DistanceMeters>3123.0786755097</DistanceMeters>
          </Trackpoint>
          <Trackpoint>
            <Time>2021-03-31T14:38:24.000Z</Time>
            <Position>
              <LatitudeDegrees>42.45693661272525787353515625</LatitudeDegrees>
              <LongitudeDegrees>2.84850169904530048370361328125</LongitudeDegrees>
            </Position>
            <AltitudeMeters>412.79998779296875</AltitudeMeters>
            <DistanceMeters>3124.1282798762</DistanceMeters>
          </Trackpoint>
          <Trackpoint>
            <Time>2021-03-31T14:38:25.000Z</Time>
            <Position>
              <LatitudeDegrees>42.4569377861917018890380859375</LatitudeDegrees>
              <LongitudeDegrees>2.84849499352276325225830078125</LongitudeDegrees>
            </Position>
            <AltitudeMeters>413.20001220703125</AltitudeMeters>
            <DistanceMeters>3124.6984401624</DistanceMeters>
          </Trackpoint>
          <Trackpoint>
            <Time>2021-03-31T14:38:30.000Z</Time>
            <Position>
              <LatitudeDegrees>42.4569434858858585357666015625</LatitudeDegrees>
              <LongitudeDegrees>2.84845970571041107177734375</LongitudeDegrees>
            </Position>
            <AltitudeMeters>413.79998779296875</AltitudeMeters>
            <DistanceMeters>3127.6656483676</DistanceMeters>
          </Trackpoint>
          <Trackpoint>
            <Time>2021-03-31T14:38:35.000Z</Time>
            <Position>
              <LatitudeDegrees>42.456939630210399627685546875</LatitudeDegrees>
              <LongitudeDegrees>2.84843866713345050811767578125</LongitudeDegrees>
            </Position>
            <AltitudeMeters>414.600006103515625</AltitudeMeters>
            <DistanceMeters>3129.4434354064</DistanceMeters>
          </Trackpoint>
          <Trackpoint>
            <Time>2021-03-31T14:38:37.000Z</Time>
            <Position>
              <LatitudeDegrees>42.45693703182041645050048828125</LatitudeDegrees>
              <LongitudeDegrees>2.84843288362026214599609375</LongitudeDegrees>
            </Position>
            <AltitudeMeters>414.79998779296875</AltitudeMeters>
            <DistanceMeters>3129.9975316066</DistanceMeters>
          </Trackpoint>
          <Trackpoint>
            <Time>2021-03-31T14:38:38.000Z</Time>
            <Position>
              <LatitudeDegrees>42.45693317614495754241943359375</LatitudeDegrees>
              <LongitudeDegrees>2.848429195582866668701171875</LongitudeDegrees>
            </Position>
            <AltitudeMeters>415</AltitudeMeters>
            <DistanceMeters>3130.5180143569</DistanceMeters>
          </Trackpoint>
          <Trackpoint>
            <Time>2021-03-31T14:38:42.000Z</Time>
            <Position>
              <LatitudeDegrees>42.45693384669721126556396484375</LatitudeDegrees>
              <LongitudeDegrees>2.848411761224269866943359375</LongitudeDegrees>
            </Position>
            <AltitudeMeters>415.20001220703125</AltitudeMeters>
            <DistanceMeters>3131.9497361709</DistanceMeters>
          </Trackpoint>
          <Trackpoint>
            <Time>2021-03-31T14:38:46.000Z</Time>
            <Position>
              <LatitudeDegrees>42.4569200165569782257080078125</LatitudeDegrees>
              <LongitudeDegrees>2.84840581007301807403564453125</LongitudeDegrees>
            </Position>
            <AltitudeMeters>416.20001220703125</AltitudeMeters>
            <DistanceMeters>3133.567982805</DistanceMeters>
          </Trackpoint>
          <Trackpoint>
            <Time>2021-03-31T14:38:47.000Z</Time>
            <Position>
              <LatitudeDegrees>42.4569203518331050872802734375</LatitudeDegrees>
              <LongitudeDegrees>2.84840094856917858123779296875</LongitudeDegrees>
            </Position>
            <AltitudeMeters>416.399993896484375</AltitudeMeters>
            <DistanceMeters>3133.9597879856</DistanceMeters>
          </Trackpoint>
          <Trackpoint>
            <Time>2021-03-31T14:38:52.000Z</Time>
            <Position>
              <LatitudeDegrees>42.45690903626382350921630859375</LatitudeDegrees>
              <LongitudeDegrees>2.84838485531508922576904296875</LongitudeDegrees>
            </Position>
            <AltitudeMeters>417.20001220703125</AltitudeMeters>
            <DistanceMeters>3135.7827164349</DistanceMeters>
          </Trackpoint>
          <Trackpoint>
            <Time>2021-03-31T14:38:58.000Z</Time>
            <Position>
              <LatitudeDegrees>42.4569015763700008392333984375</LatitudeDegrees>
              <LongitudeDegrees>2.848362140357494354248046875</LongitudeDegrees>
            </Position>
            <AltitudeMeters>418.20001220703125</AltitudeMeters>
            <DistanceMeters>3137.8208124003</DistanceMeters>
          </Trackpoint>
          <Trackpoint>
            <Time>2021-03-31T14:38:59.000Z</Time>
            <Position>
              <LatitudeDegrees>42.45689981617033481597900390625</LatitudeDegrees>
              <LongitudeDegrees>2.84835618920624256134033203125</LongitudeDegrees>
            </Position>
            <AltitudeMeters>418.20001220703125</AltitudeMeters>
            <DistanceMeters>3138.3412951506</DistanceMeters>
          </Trackpoint>
          <Trackpoint>
            <Time>2021-03-31T14:39:04.000Z</Time>
            <Position>
              <LatitudeDegrees>42.456885986030101776123046875</LatitudeDegrees>
              <LongitudeDegrees>2.84830505959689617156982421875</LongitudeDegrees>
            </Position>
            <AltitudeMeters>419.399993896484375</AltitudeMeters>
            <DistanceMeters>3142.8126024814</DistanceMeters>
          </Trackpoint>
          <Trackpoint>
            <Time>2021-03-31T14:39:06.000Z</Time>
            <Position>
              <LatitudeDegrees>42.45688221417367458343505859375</LatitudeDegrees>
              <LongitudeDegrees>2.8482873737812042236328125</LongitudeDegrees>
            </Position>
            <AltitudeMeters>419.600006103515625</AltitudeMeters>
            <DistanceMeters>3144.3270790962</DistanceMeters>
          </Trackpoint>
          <Trackpoint>
            <Time>2021-03-31T14:39:09.000Z</Time>
            <Position>
              <LatitudeDegrees>42.4568958766758441925048828125</LatitudeDegrees>
              <LongitudeDegrees>2.84826382063329219818115234375</LongitudeDegrees>
            </Position>
            <AltitudeMeters>420</AltitudeMeters>
            <DistanceMeters>3146.7867846106</DistanceMeters>
          </Trackpoint>
          <Trackpoint>
            <Time>2021-03-31T14:39:11.000Z</Time>
            <Position>
              <LatitudeDegrees>42.45691892690956592559814453125</LatitudeDegrees>
              <LongitudeDegrees>2.84826499409973621368408203125</LongitudeDegrees>
            </Position>
            <AltitudeMeters>420.20001220703125</AltitudeMeters>
            <DistanceMeters>3149.3542650495</DistanceMeters>
          </Trackpoint>
          <Trackpoint>
            <Time>2021-03-31T14:39:12.000Z</Time>
            <Position>
              <LatitudeDegrees>42.4569220282137393951416015625</LatitudeDegrees>
              <LongitudeDegrees>2.84826147370040416717529296875</LongitudeDegrees>
            </Position>
            <AltitudeMeters>420.399993896484375</AltitudeMeters>
            <DistanceMeters>3149.8099971618</DistanceMeters>
          </Trackpoint>
          <Trackpoint>
            <Time>2021-03-31T14:39:14.000Z</Time>
            <Position>
              <LatitudeDegrees>42.4569196812808513641357421875</LatitudeDegrees>
              <LongitudeDegrees>2.84825141541659832000732421875</LongitudeDegrees>
            </Position>
            <AltitudeMeters>420.600006103515625</AltitudeMeters>
            <DistanceMeters>3150.6809313851</DistanceMeters>
          </Trackpoint>
          <Trackpoint>
            <Time>2021-03-31T14:39:20.000Z</Time>
            <Position>
              <LatitudeDegrees>42.456941641867160797119140625</LatitudeDegrees>
              <LongitudeDegrees>2.84821403212845325469970703125</LongitudeDegrees>
            </Position>
            <AltitudeMeters>421.20001220703125</AltitudeMeters>
            <DistanceMeters>3154.6035899556</DistanceMeters>
          </Trackpoint>
          <Trackpoint>
            <Time>2021-03-31T14:39:23.000Z</Time>
            <Position>
              <LatitudeDegrees>42.45695295743644237518310546875</LatitudeDegrees>
              <LongitudeDegrees>2.84820464439690113067626953125</LongitudeDegrees>
            </Position>
            <AltitudeMeters>421.399993896484375</AltitudeMeters>
            <DistanceMeters>3156.0818587063</DistanceMeters>
          </Trackpoint>
          <Trackpoint>
            <Time>2021-03-31T14:39:25.000Z</Time>
            <Position>
              <LatitudeDegrees>42.45696100406348705291748046875</LatitudeDegrees>
              <LongitudeDegrees>2.8482107631862163543701171875</LongitudeDegrees>
            </Position>
            <AltitudeMeters>421.600006103515625</AltitudeMeters>
            <DistanceMeters>3157.1053277423</DistanceMeters>
          </Trackpoint>
          <Trackpoint>
            <Time>2021-03-31T14:39:33.000Z</Time>
            <Position>
              <LatitudeDegrees>42.45697391219437122344970703125</LatitudeDegrees>
              <LongitudeDegrees>2.8482204861938953399658203125</LongitudeDegrees>
            </Position>
            <AltitudeMeters>421.399993896484375</AltitudeMeters>
            <DistanceMeters>3158.7484932411</DistanceMeters>
          </Trackpoint>
          <Trackpoint>
            <Time>2021-03-31T14:39:34.000Z</Time>
            <Position>
              <LatitudeDegrees>42.45697391219437122344970703125</LatitudeDegrees>
              <LongitudeDegrees>2.8482204861938953399658203125</LongitudeDegrees>
            </Position>
            <AltitudeMeters>421.399993896484375</AltitudeMeters>
            <DistanceMeters>3158.7484932411</DistanceMeters>
          </Trackpoint>
          <Trackpoint>
            <Time>2021-03-31T14:39:43.000Z</Time>
            <Position>
              <LatitudeDegrees>42.45697391219437122344970703125</LatitudeDegrees>
              <LongitudeDegrees>2.8482191450893878936767578125</LongitudeDegrees>
            </Position>
            <AltitudeMeters>421.79998779296875</AltitudeMeters>
            <DistanceMeters>3158.7484932411</DistanceMeters>
          </Trackpoint>
          <Trackpoint>
            <Time>2021-03-31T14:39:49.000Z</Time>
            <Position>
              <LatitudeDegrees>42.45697927661240100860595703125</LatitudeDegrees>
              <LongitudeDegrees>2.8482151217758655548095703125</LongitudeDegrees>
            </Position>
            <AltitudeMeters>422.600006103515625</AltitudeMeters>
            <DistanceMeters>3159.4337406235</DistanceMeters>
          </Trackpoint>
          <Trackpoint>
            <Time>2021-03-31T14:39:51.000Z</Time>
            <Position>
              <LatitudeDegrees>42.45698011480271816253662109375</LatitudeDegrees>
              <LongitudeDegrees>2.8482097573578357696533203125</LongitudeDegrees>
            </Position>
            <AltitudeMeters>422.79998779296875</AltitudeMeters>
            <DistanceMeters>3159.8794554222</DistanceMeters>
          </Trackpoint>
          <Trackpoint>
            <Time>2021-03-31T14:39:54.000Z</Time>
            <Position>
              <LatitudeDegrees>42.4569887481629848480224609375</LatitudeDegrees>
              <LongitudeDegrees>2.84820078872144222259521484375</LongitudeDegrees>
            </Position>
            <AltitudeMeters>423.399993896484375</AltitudeMeters>
            <DistanceMeters>3161.0889480365</DistanceMeters>
          </Trackpoint>
          <Trackpoint>
            <Time>2021-03-31T14:39:55.000Z</Time>
            <Position>
              <LatitudeDegrees>42.45699226856231689453125</LatitudeDegrees>
              <LongitudeDegrees>2.8481943346560001373291015625</LongitudeDegrees>
            </Position>
            <AltitudeMeters>423.600006103515625</AltitudeMeters>
            <DistanceMeters>3161.7473124259</DistanceMeters>
          </Trackpoint>
          <Trackpoint>
            <Time>2021-03-31T14:39:56.000Z</Time>
            <Position>
              <LatitudeDegrees>42.45699335820972919464111328125</LatitudeDegrees>
              <LongitudeDegrees>2.84818603657186031341552734375</LongitudeDegrees>
            </Position>
            <AltitudeMeters>423.79998779296875</AltitudeMeters>
            <DistanceMeters>3162.4325598083</DistanceMeters>
          </Trackpoint>
          <Trackpoint>
            <Time>2021-03-31T14:40:03.000Z</Time>
            <Position>
              <LatitudeDegrees>42.4569961242377758026123046875</LatitudeDegrees>
              <LongitudeDegrees>2.84815083257853984832763671875</LongitudeDegrees>
            </Position>
            <AltitudeMeters>424.79998779296875</AltitudeMeters>
            <DistanceMeters>3165.338264796</DistanceMeters>
          </Trackpoint>
          <Trackpoint>
            <Time>2021-03-31T14:40:09.000Z</Time>
            <Position>
              <LatitudeDegrees>42.45699872262775897979736328125</LatitudeDegrees>
              <LongitudeDegrees>2.84811194054782390594482421875</LongitudeDegrees>
            </Position>
            <AltitudeMeters>425.79998779296875</AltitudeMeters>
            <DistanceMeters>3168.545328417</DistanceMeters>
          </Trackpoint>
          <Trackpoint>
            <Time>2021-03-31T14:40:15.000Z</Time>
            <Position>
              <LatitudeDegrees>42.457012049853801727294921875</LatitudeDegrees>
              <LongitudeDegrees>2.848067097365856170654296875</LongitudeDegrees>
            </Position>
            <AltitudeMeters>426.79998779296875</AltitudeMeters>
            <DistanceMeters>3172.5160353404</DistanceMeters>
          </Trackpoint>
          <Trackpoint>
            <Time>2021-03-31T14:40:20.000Z</Time>
            <Position>
              <LatitudeDegrees>42.4570125527679920196533203125</LatitudeDegrees>
              <LongitudeDegrees>2.8480236791074275970458984375</LongitudeDegrees>
            </Position>
            <AltitudeMeters>427.79998779296875</AltitudeMeters>
            <DistanceMeters>3176.0817537299</DistanceMeters>
          </Trackpoint>
          <Trackpoint>
            <Time>2021-03-31T14:40:39.000Z</Time>
            <Position>
              <LatitudeDegrees>42.4570155702531337738037109375</LatitudeDegrees>
              <LongitudeDegrees>2.8478949330747127532958984375</LongitudeDegrees>
            </Position>
            <AltitudeMeters>428.79998779296875</AltitudeMeters>
            <DistanceMeters>3186.6592131196</DistanceMeters>
          </Trackpoint>
          <Trackpoint>
            <Time>2021-03-31T14:40:48.000Z</Time>
            <Position>
              <LatitudeDegrees>42.45704398490488529205322265625</LatitudeDegrees>
              <LongitudeDegrees>2.84776442684233188629150390625</LongitudeDegrees>
            </Position>
            <AltitudeMeters>429.20001220703125</AltitudeMeters>
            <DistanceMeters>3197.8328354917</DistanceMeters>
          </Trackpoint>
          <Trackpoint>
            <Time>2021-03-31T14:40:49.000Z</Time>
            <Position>
              <LatitudeDegrees>42.45704666711390018463134765625</LatitudeDegrees>
              <LongitudeDegrees>2.84773886203765869140625</LongitudeDegrees>
            </Position>
            <AltitudeMeters>429.20001220703125</AltitudeMeters>
            <DistanceMeters>3199.9534434397</DistanceMeters>
          </Trackpoint>
          <Trackpoint>
            <Time>2021-03-31T14:40:51.000Z</Time>
            <Position>
              <LatitudeDegrees>42.457056976854801177978515625</LatitudeDegrees>
              <LongitudeDegrees>2.847690246999263763427734375</LongitudeDegrees>
            </Position>
            <AltitudeMeters>429.20001220703125</AltitudeMeters>
            <DistanceMeters>3204.1064478952</DistanceMeters>
          </Trackpoint>
          <Trackpoint>
            <Time>2021-03-31T14:40:54.000Z</Time>
            <Position>
              <LatitudeDegrees>42.457081116735935211181640625</LatitudeDegrees>
              <LongitudeDegrees>2.84762419760227203369140625</LongitudeDegrees>
            </Position>
            <AltitudeMeters>429.20001220703125</AltitudeMeters>
            <DistanceMeters>3210.1598808229</DistanceMeters>
          </Trackpoint>
          <Trackpoint>
            <Time>2021-03-31T14:40:55.000Z</Time>
            <Position>
              <LatitudeDegrees>42.45707985945045948028564453125</LatitudeDegrees>
              <LongitudeDegrees>2.84761690534651279449462890625</LongitudeDegrees>
            </Position>
            <AltitudeMeters>429.20001220703125</AltitudeMeters>
            <DistanceMeters>3210.7830126605</DistanceMeters>
          </Trackpoint>
          <Trackpoint>
            <Time>2021-03-31T14:40:59.000Z</Time>
            <Position>
              <LatitudeDegrees>42.4570661969482898712158203125</LatitudeDegrees>
              <LongitudeDegrees>2.84759293310344219207763671875</LongitudeDegrees>
            </Position>
            <AltitudeMeters>429.399993896484375</AltitudeMeters>
            <DistanceMeters>3213.2719145149</DistanceMeters>
          </Trackpoint>
          <Trackpoint>
            <Time>2021-03-31T14:41:02.000Z</Time>
            <Position>
              <LatitudeDegrees>42.45703794993460178375244140625</LatitudeDegrees>
              <LongitudeDegrees>2.8475556336343288421630859375</LongitudeDegrees>
            </Position>
            <AltitudeMeters>429.600006103515625</AltitudeMeters>
            <DistanceMeters>3217.6606675331</DistanceMeters>
          </Trackpoint>
          <Trackpoint>
            <Time>2021-03-31T14:41:05.000Z</Time>
            <Position>
              <LatitudeDegrees>42.4570353515446186065673828125</LatitudeDegrees>
              <LongitudeDegrees>2.84752839244902133941650390625</LongitudeDegrees>
            </Position>
            <AltitudeMeters>429.600006103515625</AltitudeMeters>
            <DistanceMeters>3219.9154253999</DistanceMeters>
          </Trackpoint>
          <Trackpoint>
            <Time>2021-03-31T14:41:07.000Z</Time>
            <Position>
              <LatitudeDegrees>42.45704566128551959991455078125</LatitudeDegrees>
              <LongitudeDegrees>2.847512550652027130126953125</LongitudeDegrees>
            </Position>
            <AltitudeMeters>429.79998779296875</AltitudeMeters>
            <DistanceMeters>3221.6468945389</DistanceMeters>
          </Trackpoint>
          <Trackpoint>
            <Time>2021-03-31T14:41:09.000Z</Time>
            <Position>
              <LatitudeDegrees>42.45704918168485164642333984375</LatitudeDegrees>
              <LongitudeDegrees>2.8475026600062847137451171875</LongitudeDegrees>
            </Position>
            <AltitudeMeters>430</AltitudeMeters>
            <DistanceMeters>3222.5483971068</DistanceMeters>
          </Trackpoint>
          <Trackpoint>
            <Time>2021-03-31T14:41:13.000Z</Time>
            <Position>
              <LatitudeDegrees>42.45702772401273250579833984375</LatitudeDegrees>
              <LongitudeDegrees>2.847446836531162261962890625</LongitudeDegrees>
            </Position>
            <AltitudeMeters>430</AltitudeMeters>
            <DistanceMeters>3227.7175359324</DistanceMeters>
          </Trackpoint>
          <Trackpoint>
            <Time>2021-03-31T14:41:15.000Z</Time>
            <Position>
              <LatitudeDegrees>42.457014732062816619873046875</LatitudeDegrees>
              <LongitudeDegrees>2.8474148176610469818115234375</LongitudeDegrees>
            </Position>
            <AltitudeMeters>429.79998779296875</AltitudeMeters>
            <DistanceMeters>3230.7180335935</DistanceMeters>
          </Trackpoint>
          <Trackpoint>
            <Time>2021-03-31T14:41:18.000Z</Time>
            <Position>
              <LatitudeDegrees>42.4570043385028839111328125</LatitudeDegrees>
              <LongitudeDegrees>2.8473960421979427337646484375</LongitudeDegrees>
            </Position>
            <AltitudeMeters>429.600006103515625</AltitudeMeters>
            <DistanceMeters>3232.6445229962</DistanceMeters>
          </Trackpoint>
          <Trackpoint>
            <Time>2021-03-31T14:41:23.000Z</Time>
            <Position>
              <LatitudeDegrees>42.4569827131927013397216796875</LatitudeDegrees>
              <LongitudeDegrees>2.84733988344669342041015625</LongitudeDegrees>
            </Position>
            <AltitudeMeters>429.20001220703125</AltitudeMeters>
            <DistanceMeters>3237.8458794564</DistanceMeters>
          </Trackpoint>
          <Trackpoint>
            <Time>2021-03-31T14:41:24.000Z</Time>
            <Position>
              <LatitudeDegrees>42.45697676204144954681396484375</LatitudeDegrees>
              <LongitudeDegrees>2.8473276458680629730224609375</LongitudeDegrees>
            </Position>
            <AltitudeMeters>429</AltitudeMeters>
            <DistanceMeters>3239.0478828803</DistanceMeters>
          </Trackpoint>
          <Trackpoint>
            <Time>2021-03-31T14:41:26.000Z</Time>
            <Position>
              <LatitudeDegrees>42.456978522241115570068359375</LatitudeDegrees>
              <LongitudeDegrees>2.84731616266071796417236328125</LongitudeDegrees>
            </Position>
            <AltitudeMeters>428.79998779296875</AltitudeMeters>
            <DistanceMeters>3240.016969022</DistanceMeters>
          </Trackpoint>
          <Trackpoint>
            <Time>2021-03-31T14:41:28.000Z</Time>
            <Position>
              <LatitudeDegrees>42.45698346756398677825927734375</LatitudeDegrees>
              <LongitudeDegrees>2.84730476327240467071533203125</LongitudeDegrees>
            </Position>
            <AltitudeMeters>428.600006103515625</AltitudeMeters>
            <DistanceMeters>3241.1045994805</DistanceMeters>
          </Trackpoint>
          <Trackpoint>
            <Time>2021-03-31T14:41:34.000Z</Time>
            <Position>
              <LatitudeDegrees>42.45699428021907806396484375</LatitudeDegrees>
              <LongitudeDegrees>2.8472377918660640716552734375</LongitudeDegrees>
            </Position>
            <AltitudeMeters>428.20001220703125</AltitudeMeters>
            <DistanceMeters>3246.7344812127</DistanceMeters>
          </Trackpoint>
          <Trackpoint>
            <Time>2021-03-31T14:41:36.000Z</Time>
            <Position>
              <LatitudeDegrees>42.45699520222842693328857421875</LatitudeDegrees>
              <LongitudeDegrees>2.84720216877758502960205078125</LongitudeDegrees>
            </Position>
            <AltitudeMeters>428.20001220703125</AltitudeMeters>
            <DistanceMeters>3249.6634012562</DistanceMeters>
          </Trackpoint>
          <Trackpoint>
            <Time>2021-03-31T14:41:40.000Z</Time>
            <Position>
              <LatitudeDegrees>42.45697793550789356231689453125</LatitudeDegrees>
              <LongitudeDegrees>2.84711348824203014373779296875</LongitudeDegrees>
            </Position>
            <AltitudeMeters>427.79998779296875</AltitudeMeters>
            <DistanceMeters>3257.1951301561</DistanceMeters>
          </Trackpoint>
          <Trackpoint>
            <Time>2021-03-31T14:41:43.000Z</Time>
            <Position>
              <LatitudeDegrees>42.45698145590722560882568359375</LatitudeDegrees>
              <LongitudeDegrees>2.84707543440163135528564453125</LongitudeDegrees>
            </Position>
            <AltitudeMeters>427.600006103515625</AltitudeMeters>
            <DistanceMeters>3260.3468097224</DistanceMeters>
          </Trackpoint>
          <Trackpoint>
            <Time>2021-03-31T14:41:51.000Z</Time>
            <Position>
              <LatitudeDegrees>42.456989586353302001953125</LatitudeDegrees>
              <LongitudeDegrees>2.84695758484303951263427734375</LongitudeDegrees>
            </Position>
            <AltitudeMeters>427</AltitudeMeters>
            <DistanceMeters>3270.0665144379</DistanceMeters>
          </Trackpoint>
          <Trackpoint>
            <Time>2021-03-31T14:41:57.000Z</Time>
            <Position>
              <LatitudeDegrees>42.45697961188852787017822265625</LatitudeDegrees>
              <LongitudeDegrees>2.8468579240143299102783203125</LongitudeDegrees>
            </Position>
            <AltitudeMeters>426.79998779296875</AltitudeMeters>
            <DistanceMeters>3278.3250958767</DistanceMeters>
          </Trackpoint>
          <Trackpoint>
            <Time>2021-03-31T14:41:59.000Z</Time>
            <Position>
              <LatitudeDegrees>42.456978857517242431640625</LatitudeDegrees>
              <LongitudeDegrees>2.84683370031416416168212890625</LongitudeDegrees>
            </Position>
            <AltitudeMeters>426.79998779296875</AltitudeMeters>
            <DistanceMeters>3280.313857673</DistanceMeters>
          </Trackpoint>
          <Trackpoint>
            <Time>2021-03-31T14:42:00.000Z</Time>
            <Position>
              <LatitudeDegrees>42.45698363520205020904541015625</LatitudeDegrees>
              <LongitudeDegrees>2.8468213789165019989013671875</LongitudeDegrees>
            </Position>
            <AltitudeMeters>426.79998779296875</AltitudeMeters>
            <DistanceMeters>3281.4541782454</DistanceMeters>
          </Trackpoint>
          <Trackpoint>
            <Time>2021-03-31T14:42:05.000Z</Time>
            <Position>
              <LatitudeDegrees>42.456994950771331787109375</LatitudeDegrees>
              <LongitudeDegrees>2.84677217714488506317138671875</LongitudeDegrees>
            </Position>
            <AltitudeMeters>426.79998779296875</AltitudeMeters>
            <DistanceMeters>3285.6868690757</DistanceMeters>
          </Trackpoint>
          <Trackpoint>
            <Time>2021-03-31T14:42:06.000Z</Time>
            <Position>
              <LatitudeDegrees>42.45699562132358551025390625</LatitudeDegrees>
              <LongitudeDegrees>2.84675910137593746185302734375</LongitudeDegrees>
            </Position>
            <AltitudeMeters>426.79998779296875</AltitudeMeters>
            <DistanceMeters>3286.7661650783</DistanceMeters>
          </Trackpoint>
          <Trackpoint>
            <Time>2021-03-31T14:42:11.000Z</Time>
            <Position>
              <LatitudeDegrees>42.45698153972625732421875</LatitudeDegrees>
              <LongitudeDegrees>2.84669036976993083953857421875</LongitudeDegrees>
            </Position>
            <AltitudeMeters>426.79998779296875</AltitudeMeters>
            <DistanceMeters>3292.6240051655</DistanceMeters>
          </Trackpoint>
          <Trackpoint>
            <Time>2021-03-31T14:42:16.000Z</Time>
            <Position>
              <LatitudeDegrees>42.45697491802275180816650390625</LatitudeDegrees>
              <LongitudeDegrees>2.846611998975276947021484375</LongitudeDegrees>
            </Position>
            <AltitudeMeters>426.79998779296875</AltitudeMeters>
            <DistanceMeters>3299.1011754704</DistanceMeters>
          </Trackpoint>
          <Trackpoint>
            <Time>2021-03-31T14:42:17.000Z</Time>
            <Position>
              <LatitudeDegrees>42.4569775164127349853515625</LatitudeDegrees>
              <LongitudeDegrees>2.84659984521567821502685546875</LongitudeDegrees>
            </Position>
            <AltitudeMeters>426.79998779296875</AltitudeMeters>
            <DistanceMeters>3300.1377945407</DistanceMeters>
          </Trackpoint>
          <Trackpoint>
            <Time>2021-03-31T14:42:18.000Z</Time>
            <Position>
              <LatitudeDegrees>42.45698179118335247039794921875</LatitudeDegrees>
              <LongitudeDegrees>2.8465880267322063446044921875</LongitudeDegrees>
            </Position>
            <AltitudeMeters>426.79998779296875</AltitudeMeters>
            <DistanceMeters>3301.2212657852</DistanceMeters>
          </Trackpoint>
          <Trackpoint>
            <Time>2021-03-31T14:42:25.000Z</Time>
            <Position>
              <LatitudeDegrees>42.45698967017233371734619140625</LatitudeDegrees>
              <LongitudeDegrees>2.84652843140065670013427734375</LongitudeDegrees>
            </Position>
            <AltitudeMeters>427.600006103515625</AltitudeMeters>
            <DistanceMeters>3306.1936243104</DistanceMeters>
          </Trackpoint>
          <Trackpoint>
            <Time>2021-03-31T14:42:26.000Z</Time>
            <Position>
              <LatitudeDegrees>42.456994950771331787109375</LatitudeDegrees>
              <LongitudeDegrees>2.8465176187455654144287109375</LongitudeDegrees>
            </Position>
            <AltitudeMeters>427.79998779296875</AltitudeMeters>
            <DistanceMeters>3307.2602965337</DistanceMeters>
          </Trackpoint>
          <Trackpoint>
            <Time>2021-03-31T14:42:29.000Z</Time>
            <Position>
              <LatitudeDegrees>42.4569978006184101104736328125</LatitudeDegrees>
              <LongitudeDegrees>2.846496999263763427734375</LongitudeDegrees>
            </Position>
            <AltitudeMeters>428.399993896484375</AltitudeMeters>
            <DistanceMeters>3308.9813035278</DistanceMeters>
          </Trackpoint>
          <Trackpoint>
            <Time>2021-03-31T14:42:32.000Z</Time>
            <Position>
              <LatitudeDegrees>42.45699721388518810272216796875</LatitudeDegrees>
              <LongitudeDegrees>2.84646791405975818634033203125</LongitudeDegrees>
            </Position>
            <AltitudeMeters>429</AltitudeMeters>
            <DistanceMeters>3311.3702380837</DistanceMeters>
          </Trackpoint>
          <Trackpoint>
            <Time>2021-03-31T14:42:35.000Z</Time>
            <Position>
              <LatitudeDegrees>42.45699536986649036407470703125</LatitudeDegrees>
              <LongitudeDegrees>2.84644595347344875335693359375</LongitudeDegrees>
            </Position>
            <AltitudeMeters>429.399993896484375</AltitudeMeters>
            <DistanceMeters>3313.1832322441</DistanceMeters>
          </Trackpoint>
          <Trackpoint>
            <Time>2021-03-31T14:42:38.000Z</Time>
            <Position>
              <LatitudeDegrees>42.4569907598197460174560546875</LatitudeDegrees>
              <LongitudeDegrees>2.846426256000995635986328125</LongitudeDegrees>
            </Position>
            <AltitudeMeters>429.79998779296875</AltitudeMeters>
            <DistanceMeters>3314.8831217882</DistanceMeters>
          </Trackpoint>
          <Trackpoint>
            <Time>2021-03-31T14:42:40.000Z</Time>
            <Position>
              <LatitudeDegrees>42.45699319057166576385498046875</LatitudeDegrees>
              <LongitudeDegrees>2.84641611389815807342529296875</LongitudeDegrees>
            </Position>
            <AltitudeMeters>430.20001220703125</AltitudeMeters>
            <DistanceMeters>3315.7592248059</DistanceMeters>
          </Trackpoint>
          <Trackpoint>
            <Time>2021-03-31T14:42:43.000Z</Time>
            <Position>
              <LatitudeDegrees>42.456986904144287109375</LatitudeDegrees>
              <LongitudeDegrees>2.84638694487512111663818359375</LongitudeDegrees>
            </Position>
            <AltitudeMeters>430.79998779296875</AltitudeMeters>
            <DistanceMeters>3318.2535629286</DistanceMeters>
          </Trackpoint>
          <Trackpoint>
            <Time>2021-03-31T14:42:46.000Z</Time>
            <Position>
              <LatitudeDegrees>42.45698598213493824005126953125</LatitudeDegrees>
              <LongitudeDegrees>2.84636314027011394500732421875</LongitudeDegrees>
            </Position>
            <AltitudeMeters>431.20001220703125</AltitudeMeters>
            <DistanceMeters>3320.2102827379</DistanceMeters>
          </Trackpoint>
          <Trackpoint>
            <Time>2021-03-31T14:42:48.000Z</Time>
            <Position>
              <LatitudeDegrees>42.456992603838443756103515625</LatitudeDegrees>
              <LongitudeDegrees>2.8463456220924854278564453125</LongitudeDegrees>
            </Position>
            <AltitudeMeters>431.399993896484375</AltitudeMeters>
            <DistanceMeters>3321.8229395569</DistanceMeters>
          </Trackpoint>
          <Trackpoint>
            <Time>2021-03-31T14:42:51.000Z</Time>
            <Position>
              <LatitudeDegrees>42.45700174011290073394775390625</LatitudeDegrees>
              <LongitudeDegrees>2.8463275171816349029541015625</LongitudeDegrees>
            </Position>
            <AltitudeMeters>432.20001220703125</AltitudeMeters>
            <DistanceMeters>3323.6259446927</DistanceMeters>
          </Trackpoint>
          <Trackpoint>
            <Time>2021-03-31T14:42:52.000Z</Time>
            <Position>
              <LatitudeDegrees>42.45700308121740818023681640625</LatitudeDegrees>
              <LongitudeDegrees>2.84632005728781223297119140625</LongitudeDegrees>
            </Position>
            <AltitudeMeters>432.399993896484375</AltitudeMeters>
            <DistanceMeters>3324.256280606</DistanceMeters>
          </Trackpoint>
          <Trackpoint>
            <Time>2021-03-31T14:42:56.000Z</Time>
            <Position>
              <LatitudeDegrees>42.45699386112391948699951171875</LatitudeDegrees>
              <LongitudeDegrees>2.84628787077963352203369140625</LongitudeDegrees>
            </Position>
            <AltitudeMeters>433</AltitudeMeters>
            <DistanceMeters>3327.0912000114</DistanceMeters>
          </Trackpoint>
          <Trackpoint>
            <Time>2021-03-31T14:43:00.000Z</Time>
            <Position>
              <LatitudeDegrees>42.4569927714765071868896484375</LatitudeDegrees>
              <LongitudeDegrees>2.8462624736130237579345703125</LongitudeDegrees>
            </Position>
            <AltitudeMeters>433.399993896484375</AltitudeMeters>
            <DistanceMeters>3329.1817877275</DistanceMeters>
          </Trackpoint>
          <Trackpoint>
            <Time>2021-03-31T14:43:01.000Z</Time>
            <Position>
              <LatitudeDegrees>42.45699637569487094879150390625</LatitudeDegrees>
              <LongitudeDegrees>2.84625769592821598052978515625</LongitudeDegrees>
            </Position>
            <AltitudeMeters>433.600006103515625</AltitudeMeters>
            <DistanceMeters>3329.7439733512</DistanceMeters>
          </Trackpoint>
          <Trackpoint>
            <Time>2021-03-31T14:43:04.000Z</Time>
            <Position>
              <LatitudeDegrees>42.45703744702041149139404296875</LatitudeDegrees>
              <LongitudeDegrees>2.84624143503606319427490234375</LongitudeDegrees>
            </Position>
            <AltitudeMeters>434.79998779296875</AltitudeMeters>
            <DistanceMeters>3334.5066986244</DistanceMeters>
          </Trackpoint>
          <Trackpoint>
            <Time>2021-03-31T14:43:10.000Z</Time>
            <Position>
              <LatitudeDegrees>42.4570360220968723297119140625</LatitudeDegrees>
              <LongitudeDegrees>2.8461984358727931976318359375</LongitudeDegrees>
            </Position>
            <AltitudeMeters>435.600006103515625</AltitudeMeters>
            <DistanceMeters>3338.0406193538</DistanceMeters>
          </Trackpoint>
          <Trackpoint>
            <Time>2021-03-31T14:43:13.000Z</Time>
            <Position>
              <LatitudeDegrees>42.45703627355396747589111328125</LatitudeDegrees>
              <LongitudeDegrees>2.84617236815392971038818359375</LongitudeDegrees>
            </Position>
            <AltitudeMeters>436</AltitudeMeters>
            <DistanceMeters>3340.1824127223</DistanceMeters>
          </Trackpoint>
          <Trackpoint>
            <Time>2021-03-31T14:43:17.000Z</Time>
            <Position>
              <LatitudeDegrees>42.4570365250110626220703125</LatitudeDegrees>
              <LongitudeDegrees>2.84612190909683704376220703125</LongitudeDegrees>
            </Position>
            <AltitudeMeters>437</AltitudeMeters>
            <DistanceMeters>3344.3245311711</DistanceMeters>
          </Trackpoint>
          <Trackpoint>
            <Time>2021-03-31T14:43:23.000Z</Time>
            <Position>
              <LatitudeDegrees>42.45706527493894100189208984375</LatitudeDegrees>
              <LongitudeDegrees>2.84608854912221431732177734375</LongitudeDegrees>
            </Position>
            <AltitudeMeters>437.600006103515625</AltitudeMeters>
            <DistanceMeters>3348.5369058235</DistanceMeters>
          </Trackpoint>
          <Trackpoint>
            <Time>2021-03-31T14:43:28.000Z</Time>
            <Position>
              <LatitudeDegrees>42.4570806138217449188232421875</LatitudeDegrees>
              <LongitudeDegrees>2.8460690192878246307373046875</LongitudeDegrees>
            </Position>
            <AltitudeMeters>438</AltitudeMeters>
            <DistanceMeters>3350.8800418584</DistanceMeters>
          </Trackpoint>
          <Trackpoint>
            <Time>2021-03-31T14:43:29.000Z</Time>
            <Position>
              <LatitudeDegrees>42.45708069764077663421630859375</LatitudeDegrees>
              <LongitudeDegrees>2.84605988301336765289306640625</LongitudeDegrees>
            </Position>
            <AltitudeMeters>438.20001220703125</AltitudeMeters>
            <DistanceMeters>3351.6342930208</DistanceMeters>
          </Trackpoint>
          <Trackpoint>
            <Time>2021-03-31T14:43:34.000Z</Time>
            <Position>
              <LatitudeDegrees>42.4570936895906925201416015625</LatitudeDegrees>
              <LongitudeDegrees>2.84602451138198375701904296875</LongitudeDegrees>
            </Position>
            <AltitudeMeters>439.20001220703125</AltitudeMeters>
            <DistanceMeters>3354.8791457345</DistanceMeters>
          </Trackpoint>
          <Trackpoint>
            <Time>2021-03-31T14:43:36.000Z</Time>
            <Position>
              <LatitudeDegrees>42.45710567571222782135009765625</LatitudeDegrees>
              <LongitudeDegrees>2.84600682556629180908203125</LongitudeDegrees>
            </Position>
            <AltitudeMeters>439.600006103515625</AltitudeMeters>
            <DistanceMeters>3356.849661624</DistanceMeters>
          </Trackpoint>
          <Trackpoint>
            <Time>2021-03-31T14:43:39.000Z</Time>
            <Position>
              <LatitudeDegrees>42.45712545700371265411376953125</LatitudeDegrees>
              <LongitudeDegrees>2.845991067588329315185546875</LongitudeDegrees>
            </Position>
            <AltitudeMeters>440.20001220703125</AltitudeMeters>
            <DistanceMeters>3359.4030349208</DistanceMeters>
          </Trackpoint>
          <Trackpoint>
            <Time>2021-03-31T14:43:40.000Z</Time>
            <Position>
              <LatitudeDegrees>42.457130737602710723876953125</LatitudeDegrees>
              <LongitudeDegrees>2.84598981030285358428955078125</LongitudeDegrees>
            </Position>
            <AltitudeMeters>440.399993896484375</AltitudeMeters>
            <DistanceMeters>3359.9964765618</DistanceMeters>
          </Trackpoint>
          <Trackpoint>
            <Time>2021-03-31T14:43:44.000Z</Time>
            <Position>
              <LatitudeDegrees>42.45716099627315998077392578125</LatitudeDegrees>
              <LongitudeDegrees>2.84599081613123416900634765625</LongitudeDegrees>
            </Position>
            <AltitudeMeters>440.79998779296875</AltitudeMeters>
            <DistanceMeters>3363.3655722995</DistanceMeters>
          </Trackpoint>
          <Trackpoint>
            <Time>2021-03-31T14:43:49.000Z</Time>
            <Position>
              <LatitudeDegrees>42.45719569735229015350341796875</LatitudeDegrees>
              <LongitudeDegrees>2.845966257154941558837890625</LongitudeDegrees>
            </Position>
            <AltitudeMeters>441.399993896484375</AltitudeMeters>
            <DistanceMeters>3367.721280119</DistanceMeters>
          </Trackpoint>
          <Trackpoint>
            <Time>2021-03-31T14:43:53.000Z</Time>
            <Position>
              <LatitudeDegrees>42.45719871483743190765380859375</LatitudeDegrees>
              <LongitudeDegrees>2.84594806842505931854248046875</LongitudeDegrees>
            </Position>
            <AltitudeMeters>441.79998779296875</AltitudeMeters>
            <DistanceMeters>3369.2505903554</DistanceMeters>
          </Trackpoint>
          <Trackpoint>
            <Time>2021-03-31T14:43:57.000Z</Time>
            <Position>
              <LatitudeDegrees>42.45721614919602870941162109375</LatitudeDegrees>
              <LongitudeDegrees>2.84592996351420879364013671875</LongitudeDegrees>
            </Position>
            <AltitudeMeters>442.399993896484375</AltitudeMeters>
            <DistanceMeters>3371.6937196048</DistanceMeters>
          </Trackpoint>
          <Trackpoint>
            <Time>2021-03-31T14:44:02.000Z</Time>
            <Position>
              <LatitudeDegrees>42.45723945088684558868408203125</LatitudeDegrees>
              <LongitudeDegrees>2.8459017165005207061767578125</LongitudeDegrees>
            </Position>
            <AltitudeMeters>443</AltitudeMeters>
            <DistanceMeters>3375.1735662266</DistanceMeters>
          </Trackpoint>
          <Trackpoint>
            <Time>2021-03-31T14:44:08.000Z</Time>
            <Position>
              <LatitudeDegrees>42.4572445638477802276611328125</LatitudeDegrees>
              <LongitudeDegrees>2.84586064517498016357421875</LongitudeDegrees>
            </Position>
            <AltitudeMeters>443.399993896484375</AltitudeMeters>
            <DistanceMeters>3378.5945279439</DistanceMeters>
          </Trackpoint>
          <Trackpoint>
            <Time>2021-03-31T14:44:09.000Z</Time>
            <Position>
              <LatitudeDegrees>42.45724816806614398956298828125</LatitudeDegrees>
              <LongitudeDegrees>2.84585016779601573944091796875</LongitudeDegrees>
            </Position>
            <AltitudeMeters>443.600006103515625</AltitudeMeters>
            <DistanceMeters>3379.5447950876</DistanceMeters>
          </Trackpoint>
          <Trackpoint>
            <Time>2021-03-31T14:44:18.000Z</Time>
            <Position>
              <LatitudeDegrees>42.457270212471485137939453125</LatitudeDegrees>
              <LongitudeDegrees>2.84579166211187839508056640625</LongitudeDegrees>
            </Position>
            <AltitudeMeters>444.600006103515625</AltitudeMeters>
            <DistanceMeters>3384.938764526</DistanceMeters>
          </Trackpoint>
          <Trackpoint>
            <Time>2021-03-31T14:44:24.000Z</Time>
            <Position>
              <LatitudeDegrees>42.45727465488016605377197265625</LatitudeDegrees>
              <LongitudeDegrees>2.84575277008116245269775390625</LongitudeDegrees>
            </Position>
            <AltitudeMeters>445.600006103515625</AltitudeMeters>
            <DistanceMeters>3388.1696728146</DistanceMeters>
          </Trackpoint>
          <Trackpoint>
            <Time>2021-03-31T14:44:25.000Z</Time>
            <Position>
              <LatitudeDegrees>42.45727515779435634613037109375</LatitudeDegrees>
              <LongitudeDegrees>2.84574623219668865203857421875</LongitudeDegrees>
            </Position>
            <AltitudeMeters>445.600006103515625</AltitudeMeters>
            <DistanceMeters>3388.7072250876</DistanceMeters>
          </Trackpoint>
          <Trackpoint>
            <Time>2021-03-31T14:44:30.000Z</Time>
            <Position>
              <LatitudeDegrees>42.45726920664310455322265625</LatitudeDegrees>
              <LongitudeDegrees>2.845715470612049102783203125</LongitudeDegrees>
            </Position>
            <AltitudeMeters>446.20001220703125</AltitudeMeters>
            <DistanceMeters>3391.3182991416</DistanceMeters>
          </Trackpoint>
          <Trackpoint>
            <Time>2021-03-31T14:44:36.000Z</Time>
            <Position>
              <LatitudeDegrees>42.457276917994022369384765625</LatitudeDegrees>
              <LongitudeDegrees>2.84566861577332019805908203125</LongitudeDegrees>
            </Position>
            <AltitudeMeters>446.79998779296875</AltitudeMeters>
            <DistanceMeters>3395.2593309206</DistanceMeters>
          </Trackpoint>
          <Trackpoint>
            <Time>2021-03-31T14:44:39.000Z</Time>
            <Position>
              <LatitudeDegrees>42.45729175396263599395751953125</LatitudeDegrees>
              <LongitudeDegrees>2.84565570764243602752685546875</LongitudeDegrees>
            </Position>
            <AltitudeMeters>447</AltitudeMeters>
            <DistanceMeters>3397.2206602059</DistanceMeters>
          </Trackpoint>
          <Trackpoint>
            <Time>2021-03-31T14:44:45.000Z</Time>
            <Position>
              <LatitudeDegrees>42.45730114169418811798095703125</LatitudeDegrees>
              <LongitudeDegrees>2.845622934401035308837890625</LongitudeDegrees>
            </Position>
            <AltitudeMeters>447.399993896484375</AltitudeMeters>
            <DistanceMeters>3400.1092222416</DistanceMeters>
          </Trackpoint>
          <Trackpoint>
            <Time>2021-03-31T14:44:47.000Z</Time>
            <Position>
              <LatitudeDegrees>42.45730181224644184112548828125</LatitudeDegrees>
              <LongitudeDegrees>2.84561212174594402313232421875</LongitudeDegrees>
            </Position>
            <AltitudeMeters>447.79998779296875</AltitudeMeters>
            <DistanceMeters>3401.000651839</DistanceMeters>
          </Trackpoint>
          <Trackpoint>
            <Time>2021-03-31T14:44:51.000Z</Time>
            <Position>
              <LatitudeDegrees>42.4572966992855072021484375</LatitudeDegrees>
              <LongitudeDegrees>2.845579683780670166015625</LongitudeDegrees>
            </Position>
            <AltitudeMeters>448.79998779296875</AltitudeMeters>
            <DistanceMeters>3403.7251192799</DistanceMeters>
          </Trackpoint>
          <Trackpoint>
            <Time>2021-03-31T14:44:58.000Z</Time>
            <Position>
              <LatitudeDegrees>42.45734238065779209136962890625</LatitudeDegrees>
              <LongitudeDegrees>2.8455624170601367950439453125</LongitudeDegrees>
            </Position>
            <AltitudeMeters>449.79998779296875</AltitudeMeters>
            <DistanceMeters>3409.0040221874</DistanceMeters>
          </Trackpoint>
          <Trackpoint>
            <Time>2021-03-31T14:44:59.000Z</Time>
            <Position>
              <LatitudeDegrees>42.45733869262039661407470703125</LatitudeDegrees>
              <LongitudeDegrees>2.845555208623409271240234375</LongitudeDegrees>
            </Position>
            <AltitudeMeters>450</AltitudeMeters>
            <DistanceMeters>3409.7214581478</DistanceMeters>
          </Trackpoint>
          <Trackpoint>
            <Time>2021-03-31T14:45:06.000Z</Time>
            <Position>
              <LatitudeDegrees>42.45734372176229953765869140625</LatitudeDegrees>
              <LongitudeDegrees>2.8455195017158985137939453125</LongitudeDegrees>
            </Position>
            <AltitudeMeters>450.79998779296875</AltitudeMeters>
            <DistanceMeters>3412.705357505</DistanceMeters>
          </Trackpoint>
          <Trackpoint>
            <Time>2021-03-31T14:45:07.000Z</Time>
            <Position>
              <LatitudeDegrees>42.457346655428409576416015625</LatitudeDegrees>
              <LongitudeDegrees>2.84551388584077358245849609375</LongitudeDegrees>
            </Position>
            <AltitudeMeters>451</AltitudeMeters>
            <DistanceMeters>3413.2675431287</DistanceMeters>
          </Trackpoint>
          <Trackpoint>
            <Time>2021-03-31T14:45:12.000Z</Time>
            <Position>
              <LatitudeDegrees>42.45736300013959407806396484375</LatitudeDegrees>
              <LongitudeDegrees>2.845491506159305572509765625</LongitudeDegrees>
            </Position>
            <AltitudeMeters>452</AltitudeMeters>
            <DistanceMeters>3415.8525492348</DistanceMeters>
          </Trackpoint>
          <Trackpoint>
            <Time>2021-03-31T14:45:14.000Z</Time>
            <Position>
              <LatitudeDegrees>42.45736652053892612457275390625</LatitudeDegrees>
              <LongitudeDegrees>2.84548320807516574859619140625</LongitudeDegrees>
            </Position>
            <AltitudeMeters>452.20001220703125</AltitudeMeters>
            <DistanceMeters>3416.636159596</DistanceMeters>
          </Trackpoint>
          <Trackpoint>
            <Time>2021-03-31T14:45:17.000Z</Time>
            <Position>
              <LatitudeDegrees>42.4573585577309131622314453125</LatitudeDegrees>
              <LongitudeDegrees>2.84547306597232818603515625</LongitudeDegrees>
            </Position>
            <AltitudeMeters>452.399993896484375</AltitudeMeters>
            <DistanceMeters>3417.853095312</DistanceMeters>
          </Trackpoint>
          <Trackpoint>
            <Time>2021-03-31T14:45:22.000Z</Time>
            <Position>
              <LatitudeDegrees>42.45737154968082904815673828125</LatitudeDegrees>
              <LongitudeDegrees>2.84545538015663623809814453125</LongitudeDegrees>
            </Position>
            <AltitudeMeters>453.399993896484375</AltitudeMeters>
            <DistanceMeters>3419.9044401447</DistanceMeters>
          </Trackpoint>
          <Trackpoint>
            <Time>2021-03-31T14:45:23.000Z</Time>
            <Position>
              <LatitudeDegrees>42.45737859047949314117431640625</LatitudeDegrees>
              <LongitudeDegrees>2.845450602471828460693359375</LongitudeDegrees>
            </Position>
            <AltitudeMeters>453.399993896484375</AltitudeMeters>
            <DistanceMeters>3420.7805431625</DistanceMeters>
          </Trackpoint>
          <Trackpoint>
            <Time>2021-03-31T14:45:28.000Z</Time>
            <Position>
              <LatitudeDegrees>42.45739669539034366607666015625</LatitudeDegrees>
              <LongitudeDegrees>2.8454279713332653045654296875</LongitudeDegrees>
            </Position>
            <AltitudeMeters>454.399993896484375</AltitudeMeters>
            <DistanceMeters>3423.5231794267</DistanceMeters>
          </Trackpoint>
          <Trackpoint>
            <Time>2021-03-31T14:45:31.000Z</Time>
            <Position>
              <LatitudeDegrees>42.45741899125277996063232421875</LatitudeDegrees>
              <LongitudeDegrees>2.84542554058134555816650390625</LongitudeDegrees>
            </Position>
            <AltitudeMeters>454.600006103515625</AltitudeMeters>
            <DistanceMeters>3426.0120812811</DistanceMeters>
          </Trackpoint>
          <Trackpoint>
            <Time>2021-03-31T14:45:35.000Z</Time>
            <Position>
              <LatitudeDegrees>42.45744950138032436370849609375</LatitudeDegrees>
              <LongitudeDegrees>2.8454014845192432403564453125</LongitudeDegrees>
            </Position>
            <AltitudeMeters>455.600006103515625</AltitudeMeters>
            <DistanceMeters>3429.9416398719</DistanceMeters>
          </Trackpoint>
          <Trackpoint>
            <Time>2021-03-31T14:45:37.000Z</Time>
            <Position>
              <LatitudeDegrees>42.45746140368282794952392578125</LatitudeDegrees>
              <LongitudeDegrees>2.8454095311462879180908203125</LongitudeDegrees>
            </Position>
            <AltitudeMeters>455.79998779296875</AltitudeMeters>
            <DistanceMeters>3431.4229597482</DistanceMeters>
          </Trackpoint>
          <Trackpoint>
            <Time>2021-03-31T14:45:44.000Z</Time>
            <Position>
              <LatitudeDegrees>42.4574844539165496826171875</LatitudeDegrees>
              <LongitudeDegrees>2.84541330300271511077880859375</LongitudeDegrees>
            </Position>
            <AltitudeMeters>456.399993896484375</AltitudeMeters>
            <DistanceMeters>3434.0079658543</DistanceMeters>
          </Trackpoint>
          <Trackpoint>
            <Time>2021-03-31T14:45:45.000Z</Time>
            <Position>
              <LatitudeDegrees>42.4574883095920085906982421875</LatitudeDegrees>
              <LongitudeDegrees>2.84540810622274875640869140625</LongitudeDegrees>
            </Position>
            <AltitudeMeters>456.600006103515625</AltitudeMeters>
            <DistanceMeters>3434.6089675663</DistanceMeters>
          </Trackpoint>
          <Trackpoint>
            <Time>2021-03-31T14:45:49.000Z</Time>
            <Position>
              <LatitudeDegrees>42.457483448088169097900390625</LatitudeDegrees>
              <LongitudeDegrees>2.8453760035336017608642578125</LongitudeDegrees>
            </Position>
            <AltitudeMeters>457.79998779296875</AltitudeMeters>
            <DistanceMeters>3437.3000865358</DistanceMeters>
          </Trackpoint>
          <Trackpoint>
            <Time>2021-03-31T14:45:52.000Z</Time>
            <Position>
              <LatitudeDegrees>42.45746861211955547332763671875</LatitudeDegrees>
              <LongitudeDegrees>2.8453798592090606689453125</LongitudeDegrees>
            </Position>
            <AltitudeMeters>458.20001220703125</AltitudeMeters>
            <DistanceMeters>3438.9785929702</DistanceMeters>
          </Trackpoint>
          <Trackpoint>
            <Time>2021-03-31T14:45:56.000Z</Time>
            <Position>
              <LatitudeDegrees>42.4574520997703075408935546875</LatitudeDegrees>
              <LongitudeDegrees>2.8453649394214153289794921875</LongitudeDegrees>
            </Position>
            <AltitudeMeters>458.79998779296875</AltitudeMeters>
            <DistanceMeters>3441.1868142634</DistanceMeters>
          </Trackpoint>
          <Trackpoint>
            <Time>2021-03-31T14:46:02.000Z</Time>
            <Position>
              <LatitudeDegrees>42.45745427906513214111328125</LatitudeDegrees>
              <LongitudeDegrees>2.8453019075095653533935546875</LongitudeDegrees>
            </Position>
            <AltitudeMeters>459.79998779296875</AltitudeMeters>
            <DistanceMeters>3446.3690384331</DistanceMeters>
          </Trackpoint>
          <Trackpoint>
            <Time>2021-03-31T14:46:09.000Z</Time>
            <Position>
              <LatitudeDegrees>42.457478754222393035888671875</LatitudeDegrees>
              <LongitudeDegrees>2.84525756724178791046142578125</LongitudeDegrees>
            </Position>
            <AltitudeMeters>461</AltitudeMeters>
            <DistanceMeters>3450.9164415444</DistanceMeters>
          </Trackpoint>
          <Trackpoint>
            <Time>2021-03-31T14:46:11.000Z</Time>
            <Position>
              <LatitudeDegrees>42.4574866332113742828369140625</LatitudeDegrees>
              <LongitudeDegrees>2.845238037407398223876953125</LongitudeDegrees>
            </Position>
            <AltitudeMeters>461.399993896484375</AltitudeMeters>
            <DistanceMeters>3452.7443168914</DistanceMeters>
          </Trackpoint>
          <Trackpoint>
            <Time>2021-03-31T14:46:19.000Z</Time>
            <Position>
              <LatitudeDegrees>42.45754002593457698822021484375</LatitudeDegrees>
              <LongitudeDegrees>2.84517408348619937896728515625</LongitudeDegrees>
            </Position>
            <AltitudeMeters>462</AltitudeMeters>
            <DistanceMeters>3460.674921057</DistanceMeters>
          </Trackpoint>
          <Trackpoint>
            <Time>2021-03-31T14:46:20.000Z</Time>
            <Position>
              <LatitudeDegrees>42.457539774477481842041015625</LatitudeDegrees>
              <LongitudeDegrees>2.84516536630690097808837890625</LongitudeDegrees>
            </Position>
            <AltitudeMeters>462.20001220703125</AltitudeMeters>
            <DistanceMeters>3461.3923570174</DistanceMeters>
          </Trackpoint>
          <Trackpoint>
            <Time>2021-03-31T14:46:27.000Z</Time>
            <Position>
              <LatitudeDegrees>42.45755754411220550537109375</LatitudeDegrees>
              <LongitudeDegrees>2.84508255310356616973876953125</LongitudeDegrees>
            </Position>
            <AltitudeMeters>463</AltitudeMeters>
            <DistanceMeters>3468.4742384461</DistanceMeters>
          </Trackpoint>
          <Trackpoint>
            <Time>2021-03-31T14:46:30.000Z</Time>
            <Position>
              <LatitudeDegrees>42.4575644172728061676025390625</LatitudeDegrees>
              <LongitudeDegrees>2.84506243653595447540283203125</LongitudeDegrees>
            </Position>
            <AltitudeMeters>463.20001220703125</AltitudeMeters>
            <DistanceMeters>3470.2922065367</DistanceMeters>
          </Trackpoint>
          <Trackpoint>
            <Time>2021-03-31T14:46:34.000Z</Time>
            <Position>
              <LatitudeDegrees>42.45755595155060291290283203125</LatitudeDegrees>
              <LongitudeDegrees>2.845048941671848297119140625</LongitudeDegrees>
            </Position>
            <AltitudeMeters>463.79998779296875</AltitudeMeters>
            <DistanceMeters>3471.7458357494</DistanceMeters>
          </Trackpoint>
          <Trackpoint>
            <Time>2021-03-31T14:46:38.000Z</Time>
            <Position>
              <LatitudeDegrees>42.457571960985660552978515625</LatitudeDegrees>
              <LongitudeDegrees>2.84501038491725921630859375</LongitudeDegrees>
            </Position>
            <AltitudeMeters>464</AltitudeMeters>
            <DistanceMeters>3475.3792875189</DistanceMeters>
          </Trackpoint>
          <Trackpoint>
            <Time>2021-03-31T14:46:40.000Z</Time>
            <Position>
              <LatitudeDegrees>42.45757724158465862274169921875</LatitudeDegrees>
              <LongitudeDegrees>2.84500426612794399261474609375</LongitudeDegrees>
            </Position>
            <AltitudeMeters>464.399993896484375</AltitudeMeters>
            <DistanceMeters>3476.1512881959</DistanceMeters>
          </Trackpoint>
          <Trackpoint>
            <Time>2021-03-31T14:46:41.000Z</Time>
            <Position>
              <LatitudeDegrees>42.45757908560335636138916015625</LatitudeDegrees>
              <LongitudeDegrees>2.84499890170991420745849609375</LongitudeDegrees>
            </Position>
            <AltitudeMeters>464.600006103515625</AltitudeMeters>
            <DistanceMeters>3476.6358312667</DistanceMeters>
          </Trackpoint>
          <Trackpoint>
            <Time>2021-03-31T14:46:48.000Z</Time>
            <Position>
              <LatitudeDegrees>42.4576039798557758331298828125</LatitudeDegrees>
              <LongitudeDegrees>2.8449507057666778564453125</LongitudeDegrees>
            </Position>
            <AltitudeMeters>465.399993896484375</AltitudeMeters>
            <DistanceMeters>3481.4672645538</DistanceMeters>
          </Trackpoint>
          <Trackpoint>
            <Time>2021-03-31T14:46:49.000Z</Time>
            <Position>
              <LatitudeDegrees>42.4576126970350742340087890625</LatitudeDegrees>
              <LongitudeDegrees>2.84494944848120212554931640625</LongitudeDegrees>
            </Position>
            <AltitudeMeters>465.600006103515625</AltitudeMeters>
            <DistanceMeters>3482.4456244585</DistanceMeters>
          </Trackpoint>
          <Trackpoint>
            <Time>2021-03-31T14:46:54.000Z</Time>
            <Position>
              <LatitudeDegrees>42.45765812695026397705078125</LatitudeDegrees>
              <LongitudeDegrees>2.84492547623813152313232421875</LongitudeDegrees>
            </Position>
            <AltitudeMeters>466.600006103515625</AltitudeMeters>
            <DistanceMeters>3487.8713086741</DistanceMeters>
          </Trackpoint>
          <Trackpoint>
            <Time>2021-03-31T14:46:57.000Z</Time>
            <Position>
              <LatitudeDegrees>42.4576722085475921630859375</LatitudeDegrees>
              <LongitudeDegrees>2.84491474740207195281982421875</LongitudeDegrees>
            </Position>
            <AltitudeMeters>467.20001220703125</AltitudeMeters>
            <DistanceMeters>3489.6692984869</DistanceMeters>
          </Trackpoint>
          <Trackpoint>
            <Time>2021-03-31T14:47:01.000Z</Time>
            <Position>
              <LatitudeDegrees>42.4577097594738006591796875</LatitudeDegrees>
              <LongitudeDegrees>2.8449123166501522064208984375</LongitudeDegrees>
            </Position>
            <AltitudeMeters>467.600006103515625</AltitudeMeters>
            <DistanceMeters>3493.8537122122</DistanceMeters>
          </Trackpoint>
          <Trackpoint>
            <Time>2021-03-31T14:47:05.000Z</Time>
            <Position>
              <LatitudeDegrees>42.45775192044675350189208984375</LatitudeDegrees>
              <LongitudeDegrees>2.84491541795432567596435546875</LongitudeDegrees>
            </Position>
            <AltitudeMeters>468</AltitudeMeters>
            <DistanceMeters>3498.5524925758</DistanceMeters>
          </Trackpoint>
          <Trackpoint>
            <Time>2021-03-31T14:47:12.000Z</Time>
            <Position>
              <LatitudeDegrees>42.45781562291085720062255859375</LatitudeDegrees>
              <LongitudeDegrees>2.84495028667151927947998046875</LongitudeDegrees>
            </Position>
            <AltitudeMeters>468.399993896484375</AltitudeMeters>
            <DistanceMeters>3506.1990437576</DistanceMeters>
          </Trackpoint>
          <Trackpoint>
            <Time>2021-03-31T14:47:14.000Z</Time>
            <Position>
              <LatitudeDegrees>42.457826100289821624755859375</LatitudeDegrees>
              <LongitudeDegrees>2.8449533879756927490234375</LongitudeDegrees>
            </Position>
            <AltitudeMeters>468.79998779296875</AltitudeMeters>
            <DistanceMeters>3507.3897250758</DistanceMeters>
          </Trackpoint>
          <Trackpoint>
            <Time>2021-03-31T14:47:16.000Z</Time>
            <Position>
              <LatitudeDegrees>42.45784445665776729583740234375</LatitudeDegrees>
              <LongitudeDegrees>2.84495271742343902587890625</LongitudeDegrees>
            </Position>
            <AltitudeMeters>468.79998779296875</AltitudeMeters>
            <DistanceMeters>3509.4344562057</DistanceMeters>
          </Trackpoint>
          <Trackpoint>
            <Time>2021-03-31T14:47:18.000Z</Time>
            <Position>
              <LatitudeDegrees>42.4578584544360637664794921875</LatitudeDegrees>
              <LongitudeDegrees>2.844941318035125732421875</LongitudeDegrees>
            </Position>
            <AltitudeMeters>469</AltitudeMeters>
            <DistanceMeters>3511.2524242963</DistanceMeters>
          </Trackpoint>
          <Trackpoint>
            <Time>2021-03-31T14:47:27.000Z</Time>
            <Position>
              <LatitudeDegrees>42.4579224921762943267822265625</LatitudeDegrees>
              <LongitudeDegrees>2.84494307823479175567626953125</LongitudeDegrees>
            </Position>
            <AltitudeMeters>469.600006103515625</AltitudeMeters>
            <DistanceMeters>3518.381328155</DistanceMeters>
          </Trackpoint>
          <Trackpoint>
            <Time>2021-03-31T14:47:28.000Z</Time>
            <Position>
              <LatitudeDegrees>42.45792726986110210418701171875</LatitudeDegrees>
              <LongitudeDegrees>2.84494291059672832489013671875</LongitudeDegrees>
            </Position>
            <AltitudeMeters>469.79998779296875</AltitudeMeters>
            <DistanceMeters>3518.918880428</DistanceMeters>
          </Trackpoint>
          <Trackpoint>
            <Time>2021-03-31T14:47:34.000Z</Time>
            <Position>
              <LatitudeDegrees>42.45796431787312030792236328125</LatitudeDegrees>
              <LongitudeDegrees>2.8449319303035736083984375</LongitudeDegrees>
            </Position>
            <AltitudeMeters>470</AltitudeMeters>
            <DistanceMeters>3523.1408907194</DistanceMeters>
          </Trackpoint>
          <Trackpoint>
            <Time>2021-03-31T14:47:37.000Z</Time>
            <Position>
              <LatitudeDegrees>42.45798527263104915618896484375</LatitudeDegrees>
              <LongitudeDegrees>2.84492933191359043121337890625</LongitudeDegrees>
            </Position>
            <AltitudeMeters>470.20001220703125</AltitudeMeters>
            <DistanceMeters>3525.4840267543</DistanceMeters>
          </Trackpoint>
          <Trackpoint>
            <Time>2021-03-31T14:47:38.000Z</Time>
            <Position>
              <LatitudeDegrees>42.45798929594457149505615234375</LatitudeDegrees>
              <LongitudeDegrees>2.844925560057163238525390625</LongitudeDegrees>
            </Position>
            <AltitudeMeters>470.399993896484375</AltitudeMeters>
            <DistanceMeters>3526.0381229545</DistanceMeters>
          </Trackpoint>
          <Trackpoint>
            <Time>2021-03-31T14:47:41.000Z</Time>
            <Position>
              <LatitudeDegrees>42.45800740085542201995849609375</LatitudeDegrees>
              <LongitudeDegrees>2.84491675905883312225341796875</LongitudeDegrees>
            </Position>
            <AltitudeMeters>470.79998779296875</AltitudeMeters>
            <DistanceMeters>3528.1778072202</DistanceMeters>
          </Trackpoint>
          <Trackpoint>
            <Time>2021-03-31T14:47:45.000Z</Time>
            <Position>
              <LatitudeDegrees>42.45802885852754116058349609375</LatitudeDegrees>
              <LongitudeDegrees>2.84488457255065441131591796875</LongitudeDegrees>
            </Position>
            <AltitudeMeters>471.20001220703125</AltitudeMeters>
            <DistanceMeters>3531.7384570665</DistanceMeters>
          </Trackpoint>
          <Trackpoint>
            <Time>2021-03-31T14:47:50.000Z</Time>
            <Position>
              <LatitudeDegrees>42.45805065147578716278076171875</LatitudeDegrees>
              <LongitudeDegrees>2.8448543138802051544189453125</LongitudeDegrees>
            </Position>
            <AltitudeMeters>471.79998779296875</AltitudeMeters>
            <DistanceMeters>3535.210510069</DistanceMeters>
          </Trackpoint>
          <Trackpoint>
            <Time>2021-03-31T14:47:53.000Z</Time>
            <Position>
              <LatitudeDegrees>42.4580599553883075714111328125</LatitudeDegrees>
              <LongitudeDegrees>2.84483361057937145233154296875</LongitudeDegrees>
            </Position>
            <AltitudeMeters>472</AltitudeMeters>
            <DistanceMeters>3537.1992718653</DistanceMeters>
          </Trackpoint>
          <Trackpoint>
            <Time>2021-03-31T14:47:56.000Z</Time>
            <Position>
              <LatitudeDegrees>42.45806724764406681060791015625</LatitudeDegrees>
              <LongitudeDegrees>2.84481567330658435821533203125</LongitudeDegrees>
            </Position>
            <AltitudeMeters>472.79998779296875</AltitudeMeters>
            <DistanceMeters>3538.8777782998</DistanceMeters>
          </Trackpoint>
          <Trackpoint>
            <Time>2021-03-31T14:48:00.000Z</Time>
            <Position>
              <LatitudeDegrees>42.45808635838329792022705078125</LatitudeDegrees>
              <LongitudeDegrees>2.844790779054164886474609375</LongitudeDegrees>
            </Position>
            <AltitudeMeters>473.600006103515625</AltitudeMeters>
            <DistanceMeters>3541.8282009292</DistanceMeters>
          </Trackpoint>
          <Trackpoint>
            <Time>2021-03-31T14:48:05.000Z</Time>
            <Position>
              <LatitudeDegrees>42.45810479857027530670166015625</LatitudeDegrees>
              <LongitudeDegrees>2.84476269967854022979736328125</LongitudeDegrees>
            </Position>
            <AltitudeMeters>473.79998779296875</AltitudeMeters>
            <DistanceMeters>3544.9147411684</DistanceMeters>
          </Trackpoint>
          <Trackpoint>
            <Time>2021-03-31T14:48:07.000Z</Time>
            <Position>
              <LatitudeDegrees>42.45810194872319698333740234375</LatitudeDegrees>
              <LongitudeDegrees>2.84474392421543598175048828125</LongitudeDegrees>
            </Position>
            <AltitudeMeters>474</AltitudeMeters>
            <DistanceMeters>3546.4877131788</DistanceMeters>
          </Trackpoint>
          <Trackpoint>
            <Time>2021-03-31T14:48:13.000Z</Time>
            <Position>
              <LatitudeDegrees>42.4580961652100086212158203125</LatitudeDegrees>
              <LongitudeDegrees>2.84467485733330249786376953125</LongitudeDegrees>
            </Position>
            <AltitudeMeters>474.79998779296875</AltitudeMeters>
            <DistanceMeters>3552.1956476397</DistanceMeters>
          </Trackpoint>
          <Trackpoint>
            <Time>2021-03-31T14:48:15.000Z</Time>
            <Position>
              <LatitudeDegrees>42.45809759013354778289794921875</LatitudeDegrees>
              <LongitudeDegrees>2.8446541540324687957763671875</LongitudeDegrees>
            </Position>
            <AltitudeMeters>475</AltitudeMeters>
            <DistanceMeters>3553.9008410642</DistanceMeters>
          </Trackpoint>
          <Trackpoint>
            <Time>2021-03-31T14:48:18.000Z</Time>
            <Position>
              <LatitudeDegrees>42.45809624902904033660888671875</LatitudeDegrees>
              <LongitudeDegrees>2.84462590701878070831298828125</LongitudeDegrees>
            </Position>
            <AltitudeMeters>475.600006103515625</AltitudeMeters>
            <DistanceMeters>3556.224627998</DistanceMeters>
          </Trackpoint>
          <Trackpoint>
            <Time>2021-03-31T14:48:20.000Z</Time>
            <Position>
              <LatitudeDegrees>42.4581015296280384063720703125</LatitudeDegrees>
              <LongitudeDegrees>2.84460595808923244476318359375</LongitudeDegrees>
            </Position>
            <AltitudeMeters>475.79998779296875</AltitudeMeters>
            <DistanceMeters>3557.9639024469</DistanceMeters>
          </Trackpoint>
          <Trackpoint>
            <Time>2021-03-31T14:48:24.000Z</Time>
            <Position>
              <LatitudeDegrees>42.4581229873001575469970703125</LatitudeDegrees>
              <LongitudeDegrees>2.844578213989734649658203125</LongitudeDegrees>
            </Position>
            <AltitudeMeters>476.399993896484375</AltitudeMeters>
            <DistanceMeters>3561.2639436878</DistanceMeters>
          </Trackpoint>
          <Trackpoint>
            <Time>2021-03-31T14:48:31.000Z</Time>
            <Position>
              <LatitudeDegrees>42.45814100839197635650634765625</LatitudeDegrees>
              <LongitudeDegrees>2.84452297724783420562744140625</LongitudeDegrees>
            </Position>
            <AltitudeMeters>476.79998779296875</AltitudeMeters>
            <DistanceMeters>3566.2235735362</DistanceMeters>
          </Trackpoint>
          <Trackpoint>
            <Time>2021-03-31T14:48:32.000Z</Time>
            <Position>
              <LatitudeDegrees>42.458144612610340118408203125</LatitudeDegrees>
              <LongitudeDegrees>2.844518534839153289794921875</LongitudeDegrees>
            </Position>
            <AltitudeMeters>477</AltitudeMeters>
            <DistanceMeters>3566.76946045</DistanceMeters>
          </Trackpoint>
          <Trackpoint>
            <Time>2021-03-31T14:48:40.000Z</Time>
            <Position>
              <LatitudeDegrees>42.45817855931818485260009765625</LatitudeDegrees>
              <LongitudeDegrees>2.8444761224091053009033203125</LongitudeDegrees>
            </Position>
            <AltitudeMeters>478</AltitudeMeters>
            <DistanceMeters>3571.908815818</DistanceMeters>
          </Trackpoint>
          <Trackpoint>
            <Time>2021-03-31T14:48:41.000Z</Time>
            <Position>
              <LatitudeDegrees>42.45817847549915313720703125</LatitudeDegrees>
              <LongitudeDegrees>2.8444700874388217926025390625</LongitudeDegrees>
            </Position>
            <AltitudeMeters>478</AltitudeMeters>
            <DistanceMeters>3572.4116499263</DistanceMeters>
          </Trackpoint>
          <Trackpoint>
            <Time>2021-03-31T14:48:46.000Z</Time>
            <Position>
              <LatitudeDegrees>42.45817084796726703643798828125</LatitudeDegrees>
              <LongitudeDegrees>2.84444184042513370513916015625</LongitudeDegrees>
            </Position>
            <AltitudeMeters>479.20001220703125</AltitudeMeters>
            <DistanceMeters>3574.8823444999</DistanceMeters>
          </Trackpoint>
          <Trackpoint>
            <Time>2021-03-31T14:48:49.000Z</Time>
            <Position>
              <LatitudeDegrees>42.45816866867244243621826171875</LatitudeDegrees>
              <LongitudeDegrees>2.84442541189491748809814453125</LongitudeDegrees>
            </Position>
            <AltitudeMeters>479.600006103515625</AltitudeMeters>
            <DistanceMeters>3576.2462344322</DistanceMeters>
          </Trackpoint>
          <Trackpoint>
            <Time>2021-03-31T14:48:52.000Z</Time>
            <Position>
              <LatitudeDegrees>42.45817487128078937530517578125</LatitudeDegrees>
              <LongitudeDegrees>2.84438802860677242279052734375</LongitudeDegrees>
            </Position>
            <AltitudeMeters>480.20001220703125</AltitudeMeters>
            <DistanceMeters>3579.3921784531</DistanceMeters>
          </Trackpoint>
          <Trackpoint>
            <Time>2021-03-31T14:48:58.000Z</Time>
            <Position>
              <LatitudeDegrees>42.4581779725849628448486328125</LatitudeDegrees>
              <LongitudeDegrees>2.8443068079650402069091796875</LongitudeDegrees>
            </Position>
            <AltitudeMeters>480.600006103515625</AltitudeMeters>
            <DistanceMeters>3586.0697916105</DistanceMeters>
          </Trackpoint>
          <Trackpoint>
            <Time>2021-03-31T14:49:05.000Z</Time>
            <Position>
              <LatitudeDegrees>42.458204962313175201416015625</LatitudeDegrees>
              <LongitudeDegrees>2.84425006248056888580322265625</LongitudeDegrees>
            </Position>
            <AltitudeMeters>481</AltitudeMeters>
            <DistanceMeters>3591.614012044</DistanceMeters>
          </Trackpoint>
          <Trackpoint>
            <Time>2021-03-31T14:49:10.000Z</Time>
            <Position>
              <LatitudeDegrees>42.4582115001976490020751953125</LatitudeDegrees>
              <LongitudeDegrees>2.84421670250594615936279296875</LongitudeDegrees>
            </Position>
            <AltitudeMeters>481.20001220703125</AltitudeMeters>
            <DistanceMeters>3594.4473383504</DistanceMeters>
          </Trackpoint>
          <Trackpoint>
            <Time>2021-03-31T14:49:12.000Z</Time>
            <Position>
              <LatitudeDegrees>42.45821409858763217926025390625</LatitudeDegrees>
              <LongitudeDegrees>2.84420530311763286590576171875</LongitudeDegrees>
            </Position>
            <AltitudeMeters>481.600006103515625</AltitudeMeters>
            <DistanceMeters>3595.4256982551</DistanceMeters>
          </Trackpoint>
          <Trackpoint>
            <Time>2021-03-31T14:49:17.000Z</Time>
            <Position>
              <LatitudeDegrees>42.45821175165474414825439453125</LatitudeDegrees>
              <LongitudeDegrees>2.84419172443449497222900390625</LongitudeDegrees>
            </Position>
            <AltitudeMeters>482.20001220703125</AltitudeMeters>
            <DistanceMeters>3596.5699714237</DistanceMeters>
          </Trackpoint>
          <Trackpoint>
            <Time>2021-03-31T14:49:18.000Z</Time>
            <Position>
              <LatitudeDegrees>42.4582148529589176177978515625</LatitudeDegrees>
              <LongitudeDegrees>2.8441904671490192413330078125</LongitudeDegrees>
            </Position>
            <AltitudeMeters>482.399993896484375</AltitudeMeters>
            <DistanceMeters>3596.9255288315</DistanceMeters>
          </Trackpoint>
          <Trackpoint>
            <Time>2021-03-31T14:49:26.000Z</Time>
            <Position>
              <LatitudeDegrees>42.45821577496826648712158203125</LatitudeDegrees>
              <LongitudeDegrees>2.84412416629493236541748046875</LongitudeDegrees>
            </Position>
            <AltitudeMeters>483.399993896484375</AltitudeMeters>
            <DistanceMeters>3602.3703190906</DistanceMeters>
          </Trackpoint>
          <Trackpoint>
            <Time>2021-03-31T14:49:27.000Z</Time>
            <Position>
              <LatitudeDegrees>42.45821644552052021026611328125</LatitudeDegrees>
              <LongitudeDegrees>2.8441138565540313720703125</LongitudeDegrees>
            </Position>
            <AltitudeMeters>483.79998779296875</AltitudeMeters>
            <DistanceMeters>3603.2202638626</DistanceMeters>
          </Trackpoint>
          <Trackpoint>
            <Time>2021-03-31T14:49:31.000Z</Time>
            <Position>
              <LatitudeDegrees>42.4582207202911376953125</LatitudeDegrees>
              <LongitudeDegrees>2.84408510662615299224853515625</LongitudeDegrees>
            </Position>
            <AltitudeMeters>484.600006103515625</AltitudeMeters>
            <DistanceMeters>3605.6280240411</DistanceMeters>
          </Trackpoint>
          <Trackpoint>
            <Time>2021-03-31T14:49:39.000Z</Time>
            <Position>
              <LatitudeDegrees>42.45822273194789886474609375</LatitudeDegrees>
              <LongitudeDegrees>2.84401956014335155487060546875</LongitudeDegrees>
            </Position>
            <AltitudeMeters>485.20001220703125</AltitudeMeters>
            <DistanceMeters>3611.0152928937</DistanceMeters>
          </Trackpoint>
          <Trackpoint>
            <Time>2021-03-31T14:49:43.000Z</Time>
            <Position>
              <LatitudeDegrees>42.458214350044727325439453125</LatitudeDegrees>
              <LongitudeDegrees>2.84398519434034824371337890625</LongitudeDegrees>
            </Position>
            <AltitudeMeters>485.600006103515625</AltitudeMeters>
            <DistanceMeters>3613.9870625285</DistanceMeters>
          </Trackpoint>
          <Trackpoint>
            <Time>2021-03-31T14:49:46.000Z</Time>
            <Position>
              <LatitudeDegrees>42.458213008940219879150390625</LatitudeDegrees>
              <LongitudeDegrees>2.84395468421280384063720703125</LongitudeDegrees>
            </Position>
            <AltitudeMeters>485.79998779296875</AltitudeMeters>
            <DistanceMeters>3616.4976388285</DistanceMeters>
          </Trackpoint>
          <Trackpoint>
            <Time>2021-03-31T14:49:52.000Z</Time>
            <Position>
              <LatitudeDegrees>42.45820035226643085479736328125</LatitudeDegrees>
              <LongitudeDegrees>2.8439247608184814453125</LongitudeDegrees>
            </Position>
            <AltitudeMeters>486.600006103515625</AltitudeMeters>
            <DistanceMeters>3619.3293711396</DistanceMeters>
          </Trackpoint>
          <Trackpoint>
            <Time>2021-03-31T14:49:53.000Z</Time>
            <Position>
              <LatitudeDegrees>42.45820001699030399322509765625</LatitudeDegrees>
              <LongitudeDegrees>2.8439175523817539215087890625</LongitudeDegrees>
            </Position>
            <AltitudeMeters>486.600006103515625</AltitudeMeters>
            <DistanceMeters>3619.9303728516</DistanceMeters>
          </Trackpoint>
          <Trackpoint>
            <Time>2021-03-31T14:50:00.000Z</Time>
            <Position>
              <LatitudeDegrees>42.45821175165474414825439453125</LatitudeDegrees>
              <LongitudeDegrees>2.84385007806122303009033203125</LongitudeDegrees>
            </Position>
            <AltitudeMeters>487.600006103515625</AltitudeMeters>
            <DistanceMeters>3625.6232582674</DistanceMeters>
          </Trackpoint>
          <Trackpoint>
            <Time>2021-03-31T14:50:01.000Z</Time>
            <Position>
              <LatitudeDegrees>42.45821342803537845611572265625</LatitudeDegrees>
              <LongitudeDegrees>2.8438431210815906524658203125</LongitudeDegrees>
            </Position>
            <AltitudeMeters>488</AltitudeMeters>
            <DistanceMeters>3626.2242599793</DistanceMeters>
          </Trackpoint>
          <Trackpoint>
            <Time>2021-03-31T14:50:09.000Z</Time>
            <Position>
              <LatitudeDegrees>42.45823840610682964324951171875</LatitudeDegrees>
              <LongitudeDegrees>2.843777239322662353515625</LongitudeDegrees>
            </Position>
            <AltitudeMeters>488.600006103515625</AltitudeMeters>
            <DistanceMeters>3632.3074543102</DistanceMeters>
          </Trackpoint>
          <Trackpoint>
            <Time>2021-03-31T14:50:13.000Z</Time>
            <Position>
              <LatitudeDegrees>42.45823991484940052032470703125</LatitudeDegrees>
              <LongitudeDegrees>2.84374429844319820404052734375</LongitudeDegrees>
            </Position>
            <AltitudeMeters>489.20001220703125</AltitudeMeters>
            <DistanceMeters>3635.0186315868</DistanceMeters>
          </Trackpoint>
          <Trackpoint>
            <Time>2021-03-31T14:50:17.000Z</Time>
            <Position>
              <LatitudeDegrees>42.45824729092419147491455078125</LatitudeDegrees>
              <LongitudeDegrees>2.843700461089611053466796875</LongitudeDegrees>
            </Position>
            <AltitudeMeters>489.79998779296875</AltitudeMeters>
            <DistanceMeters>3638.7112479263</DistanceMeters>
          </Trackpoint>
          <Trackpoint>
            <Time>2021-03-31T14:50:18.000Z</Time>
            <Position>
              <LatitudeDegrees>42.45825114659965038299560546875</LatitudeDegrees>
              <LongitudeDegrees>2.84368998371064662933349609375</LongitudeDegrees>
            </Position>
            <AltitudeMeters>489.79998779296875</AltitudeMeters>
            <DistanceMeters>3639.6709706974</DistanceMeters>
          </Trackpoint>
          <Trackpoint>
            <Time>2021-03-31T14:50:22.000Z</Time>
            <Position>
              <LatitudeDegrees>42.45826162397861480712890625</LatitudeDegrees>
              <LongitudeDegrees>2.84365075640380382537841796875</LongitudeDegrees>
            </Position>
            <AltitudeMeters>490</AltitudeMeters>
            <DistanceMeters>3643.0972076094</DistanceMeters>
          </Trackpoint>
          <Trackpoint>
            <Time>2021-03-31T14:50:23.000Z</Time>
            <Position>
              <LatitudeDegrees>42.4582634679973125457763671875</LatitudeDegrees>
              <LongitudeDegrees>2.8436402790248394012451171875</LongitudeDegrees>
            </Position>
            <AltitudeMeters>490</AltitudeMeters>
            <DistanceMeters>3643.9784491053</DistanceMeters>
          </Trackpoint>
          <Trackpoint>
            <Time>2021-03-31T14:50:25.000Z</Time>
            <Position>
              <LatitudeDegrees>42.45825768448412418365478515625</LatitudeDegrees>
              <LongitudeDegrees>2.84361169673502445220947265625</LongitudeDegrees>
            </Position>
            <AltitudeMeters>490.20001220703125</AltitudeMeters>
            <DistanceMeters>3646.4123205372</DistanceMeters>
          </Trackpoint>
          <Trackpoint>
            <Time>2021-03-31T14:50:31.000Z</Time>
            <Position>
              <LatitudeDegrees>42.45825014077126979827880859375</LatitudeDegrees>
              <LongitudeDegrees>2.84355805255472660064697265625</LongitudeDegrees>
            </Position>
            <AltitudeMeters>490.79998779296875</AltitudeMeters>
            <DistanceMeters>3650.8967357991</DistanceMeters>
          </Trackpoint>
          <Trackpoint>
            <Time>2021-03-31T14:50:38.000Z</Time>
            <Position>
              <LatitudeDegrees>42.45827545411884784698486328125</LatitudeDegrees>
              <LongitudeDegrees>2.84350876696407794952392578125</LongitudeDegrees>
            </Position>
            <AltitudeMeters>491.79998779296875</AltitudeMeters>
            <DistanceMeters>3655.8271481335</DistanceMeters>
          </Trackpoint>
          <Trackpoint>
            <Time>2021-03-31T14:50:46.000Z</Time>
            <Position>
              <LatitudeDegrees>42.45829020626842975616455078125</LatitudeDegrees>
              <LongitudeDegrees>2.84342654049396514892578125</LongitudeDegrees>
            </Position>
            <AltitudeMeters>492.600006103515625</AltitudeMeters>
            <DistanceMeters>3662.7751542266</DistanceMeters>
          </Trackpoint>
          <Trackpoint>
            <Time>2021-03-31T14:50:49.000Z</Time>
            <Position>
              <LatitudeDegrees>42.4582815729081630706787109375</LatitudeDegrees>
              <LongitudeDegrees>2.84339443780481815338134765625</LongitudeDegrees>
            </Position>
            <AltitudeMeters>492.79998779296875</AltitudeMeters>
            <DistanceMeters>3665.5812594739</DistanceMeters>
          </Trackpoint>
          <Trackpoint>
            <Time>2021-03-31T14:50:53.000Z</Time>
            <Position>
              <LatitudeDegrees>42.45827243663370609283447265625</LatitudeDegrees>
              <LongitudeDegrees>2.8433428891003131866455078125</LongitudeDegrees>
            </Position>
            <AltitudeMeters>492.600006103515625</AltitudeMeters>
            <DistanceMeters>3669.9348936404</DistanceMeters>
          </Trackpoint>
          <Trackpoint>
            <Time>2021-03-31T14:50:59.000Z</Time>
            <Position>
              <LatitudeDegrees>42.45826807804405689239501953125</LatitudeDegrees>
              <LongitudeDegrees>2.8432848863303661346435546875</LongitudeDegrees>
            </Position>
            <AltitudeMeters>493</AltitudeMeters>
            <DistanceMeters>3674.7222033249</DistanceMeters>
          </Trackpoint>
          <Trackpoint>
            <Time>2021-03-31T14:51:03.000Z</Time>
            <Position>
              <LatitudeDegrees>42.45827059261500835418701171875</LatitudeDegrees>
              <LongitudeDegrees>2.84323685802519321441650390625</LongitudeDegrees>
            </Position>
            <AltitudeMeters>493.20001220703125</AltitudeMeters>
            <DistanceMeters>3678.6758171558</DistanceMeters>
          </Trackpoint>
          <Trackpoint>
            <Time>2021-03-31T14:51:09.000Z</Time>
            <Position>
              <LatitudeDegrees>42.45829808525741100311279296875</LatitudeDegrees>
              <LongitudeDegrees>2.84319411031901836395263671875</LongitudeDegrees>
            </Position>
            <AltitudeMeters>493.399993896484375</AltitudeMeters>
            <DistanceMeters>3683.3330957194</DistanceMeters>
          </Trackpoint>
          <Trackpoint>
            <Time>2021-03-31T14:51:10.000Z</Time>
            <Position>
              <LatitudeDegrees>42.45829825289547443389892578125</LatitudeDegrees>
              <LongitudeDegrees>2.843182124197483062744140625</LongitudeDegrees>
            </Position>
            <AltitudeMeters>493.399993896484375</AltitudeMeters>
            <DistanceMeters>3684.3206423036</DistanceMeters>
          </Trackpoint>
          <Trackpoint>
            <Time>2021-03-31T14:51:13.000Z</Time>
            <Position>
              <LatitudeDegrees>42.45830361731350421905517578125</LatitudeDegrees>
              <LongitudeDegrees>2.843164689838886260986328125</LongitudeDegrees>
            </Position>
            <AltitudeMeters>494</AltitudeMeters>
            <DistanceMeters>3685.8704811126</DistanceMeters>
          </Trackpoint>
          <Trackpoint>
            <Time>2021-03-31T14:51:14.000Z</Time>
            <Position>
              <LatitudeDegrees>42.45830043219029903411865234375</LatitudeDegrees>
              <LongitudeDegrees>2.84315572120249271392822265625</LongitudeDegrees>
            </Position>
            <AltitudeMeters>494</AltitudeMeters>
            <DistanceMeters>3686.6879318187</DistanceMeters>
          </Trackpoint>
          <Trackpoint>
            <Time>2021-03-31T14:51:18.000Z</Time>
            <Position>
              <LatitudeDegrees>42.45830479077994823455810546875</LatitudeDegrees>
              <LongitudeDegrees>2.843120433390140533447265625</LongitudeDegrees>
            </Position>
            <AltitudeMeters>494.399993896484375</AltitudeMeters>
            <DistanceMeters>3689.6260865254</DistanceMeters>
          </Trackpoint>
          <Trackpoint>
            <Time>2021-03-31T14:51:21.000Z</Time>
            <Position>
              <LatitudeDegrees>42.45829909108579158782958984375</LatitudeDegrees>
              <LongitudeDegrees>2.84309218637645244598388671875</LongitudeDegrees>
            </Position>
            <AltitudeMeters>494.399993896484375</AltitudeMeters>
            <DistanceMeters>3692.0319707704</DistanceMeters>
          </Trackpoint>
          <Trackpoint>
            <Time>2021-03-31T14:51:29.000Z</Time>
            <Position>
              <LatitudeDegrees>42.45829741470515727996826171875</LatitudeDegrees>
              <LongitudeDegrees>2.84302546642720699310302734375</LongitudeDegrees>
            </Position>
            <AltitudeMeters>494.79998779296875</AltitudeMeters>
            <DistanceMeters>3697.5139498296</DistanceMeters>
          </Trackpoint>
          <Trackpoint>
            <Time>2021-03-31T14:51:30.000Z</Time>
            <Position>
              <LatitudeDegrees>42.45829406194388866424560546875</LatitudeDegrees>
              <LongitudeDegrees>2.84301725216209888458251953125</LongitudeDegrees>
            </Position>
            <AltitudeMeters>495</AltitudeMeters>
            <DistanceMeters>3698.2859505066</DistanceMeters>
          </Trackpoint>
          <Trackpoint>
            <Time>2021-03-31T14:51:42.000Z</Time>
            <Position>
              <LatitudeDegrees>42.4582658149302005767822265625</LatitudeDegrees>
              <LongitudeDegrees>2.84291851334273815155029296875</LongitudeDegrees>
            </Position>
            <AltitudeMeters>495</AltitudeMeters>
            <DistanceMeters>3706.9818035494</DistanceMeters>
          </Trackpoint>
          <Trackpoint>
            <Time>2021-03-31T14:51:51.000Z</Time>
            <Position>
              <LatitudeDegrees>42.45829322375357151031494140625</LatitudeDegrees>
              <LongitudeDegrees>2.84282614476978778839111328125</LongitudeDegrees>
            </Position>
            <AltitudeMeters>494.20001220703125</AltitudeMeters>
            <DistanceMeters>3715.1574151986</DistanceMeters>
          </Trackpoint>
          <Trackpoint>
            <Time>2021-03-31T14:51:53.000Z</Time>
            <Position>
              <LatitudeDegrees>42.458302862942218780517578125</LatitudeDegrees>
              <LongitudeDegrees>2.84280695021152496337890625</LongitudeDegrees>
            </Position>
            <AltitudeMeters>494</AltitudeMeters>
            <DistanceMeters>3717.0650631763</DistanceMeters>
          </Trackpoint>
          <Trackpoint>
            <Time>2021-03-31T14:51:57.000Z</Time>
            <Position>
              <LatitudeDegrees>42.45831929147243499755859375</LatitudeDegrees>
              <LongitudeDegrees>2.84276126883924007415771484375</LongitudeDegrees>
            </Position>
            <AltitudeMeters>493.20001220703125</AltitudeMeters>
            <DistanceMeters>3721.2375908735</DistanceMeters>
          </Trackpoint>
          <Trackpoint>
            <Time>2021-03-31T14:52:00.000Z</Time>
            <Position>
              <LatitudeDegrees>42.45834150351583957672119140625</LatitudeDegrees>
              <LongitudeDegrees>2.8427303396165370941162109375</LongitudeDegrees>
            </Position>
            <AltitudeMeters>492.79998779296875</AltitudeMeters>
            <DistanceMeters>3724.7804437151</DistanceMeters>
          </Trackpoint>
          <Trackpoint>
            <Time>2021-03-31T14:52:02.000Z</Time>
            <Position>
              <LatitudeDegrees>42.45834569446742534637451171875</LatitudeDegrees>
              <LongitudeDegrees>2.84269429743289947509765625</LongitudeDegrees>
            </Position>
            <AltitudeMeters>492.600006103515625</AltitudeMeters>
            <DistanceMeters>3727.7764236859</DistanceMeters>
          </Trackpoint>
          <Trackpoint>
            <Time>2021-03-31T14:52:09.000Z</Time>
            <Position>
              <LatitudeDegrees>42.4583539925515651702880859375</LatitudeDegrees>
              <LongitudeDegrees>2.84261559136211872100830078125</LongitudeDegrees>
            </Position>
            <AltitudeMeters>492.399993896484375</AltitudeMeters>
            <DistanceMeters>3734.3042817373</DistanceMeters>
          </Trackpoint>
          <Trackpoint>
            <Time>2021-03-31T14:52:14.000Z</Time>
            <Position>
              <LatitudeDegrees>42.4583838321268558502197265625</LatitudeDegrees>
              <LongitudeDegrees>2.842559181153774261474609375</LongitudeDegrees>
            </Position>
            <AltitudeMeters>492.399993896484375</AltitudeMeters>
            <DistanceMeters>3740.0043006009</DistanceMeters>
          </Trackpoint>
          <Trackpoint>
            <Time>2021-03-31T14:52:20.000Z</Time>
            <Position>
              <LatitudeDegrees>42.45842012576758861541748046875</LatitudeDegrees>
              <LongitudeDegrees>2.84249941818416118621826171875</LongitudeDegrees>
            </Position>
            <AltitudeMeters>492.20001220703125</AltitudeMeters>
            <DistanceMeters>3746.3604442438</DistanceMeters>
          </Trackpoint>
          <Trackpoint>
            <Time>2021-03-31T14:52:24.000Z</Time>
            <Position>
              <LatitudeDegrees>42.45843420736491680145263671875</LatitudeDegrees>
              <LongitudeDegrees>2.84244175069034099578857421875</LongitudeDegrees>
            </Position>
            <AltitudeMeters>492.399993896484375</AltitudeMeters>
            <DistanceMeters>3751.3491204891</DistanceMeters>
          </Trackpoint>
          <Trackpoint>
            <Time>2021-03-31T14:52:28.000Z</Time>
            <Position>
              <LatitudeDegrees>42.458447031676769256591796875</LatitudeDegrees>
              <LongitudeDegrees>2.84238274209201335906982421875</LongitudeDegrees>
            </Position>
            <AltitudeMeters>492.20001220703125</AltitudeMeters>
            <DistanceMeters>3756.4007534954</DistanceMeters>
          </Trackpoint>
          <Trackpoint>
            <Time>2021-03-31T14:52:33.000Z</Time>
            <Position>
              <LatitudeDegrees>42.45847561396658420562744140625</LatitudeDegrees>
              <LongitudeDegrees>2.842344604432582855224609375</LongitudeDegrees>
            </Position>
            <AltitudeMeters>492.600006103515625</AltitudeMeters>
            <DistanceMeters>3760.8649867679</DistanceMeters>
          </Trackpoint>
          <Trackpoint>
            <Time>2021-03-31T14:52:34.000Z</Time>
            <Position>
              <LatitudeDegrees>42.458479218184947967529296875</LatitudeDegrees>
              <LongitudeDegrees>2.84233798272907733917236328125</LongitudeDegrees>
            </Position>
            <AltitudeMeters>492.79998779296875</AltitudeMeters>
            <DistanceMeters>3761.5436132474</DistanceMeters>
          </Trackpoint>
          <Trackpoint>
            <Time>2021-03-31T14:52:40.000Z</Time>
            <Position>
              <LatitudeDegrees>42.45849271304905414581298828125</LatitudeDegrees>
              <LongitudeDegrees>2.842274196445941925048828125</LongitudeDegrees>
            </Position>
            <AltitudeMeters>493.79998779296875</AltitudeMeters>
            <DistanceMeters>3766.9925481294</DistanceMeters>
          </Trackpoint>
          <Trackpoint>
            <Time>2021-03-31T14:52:41.000Z</Time>
            <Position>
              <LatitudeDegrees>42.45849908329546451568603515625</LatitudeDegrees>
              <LongitudeDegrees>2.84225718118250370025634765625</LongitudeDegrees>
            </Position>
            <AltitudeMeters>494</AltitudeMeters>
            <DistanceMeters>3768.5597688518</DistanceMeters>
          </Trackpoint>
          <Trackpoint>
            <Time>2021-03-31T14:52:44.000Z</Time>
            <Position>
              <LatitudeDegrees>42.458515428006649017333984375</LatitudeDegrees>
              <LongitudeDegrees>2.84224628470838069915771484375</LongitudeDegrees>
            </Position>
            <AltitudeMeters>494.600006103515625</AltitudeMeters>
            <DistanceMeters>3770.5889841825</DistanceMeters>
          </Trackpoint>
          <Trackpoint>
            <Time>2021-03-31T14:52:46.000Z</Time>
            <Position>
              <LatitudeDegrees>42.4585310183465480804443359375</LatitudeDegrees>
              <LongitudeDegrees>2.8422405011951923370361328125</LongitudeDegrees>
            </Position>
            <AltitudeMeters>494.79998779296875</AltitudeMeters>
            <DistanceMeters>3772.3894834031</DistanceMeters>
          </Trackpoint>
          <Trackpoint>
            <Time>2021-03-31T14:52:47.000Z</Time>
            <Position>
              <LatitudeDegrees>42.458536885678768157958984375</LatitudeDegrees>
              <LongitudeDegrees>2.84223522059619426727294921875</LongitudeDegrees>
            </Position>
            <AltitudeMeters>494.79998779296875</AltitudeMeters>
            <DistanceMeters>3773.1730937643</DistanceMeters>
          </Trackpoint>
          <Trackpoint>
            <Time>2021-03-31T14:52:52.000Z</Time>
            <Position>
              <LatitudeDegrees>42.4585598520934581756591796875</LatitudeDegrees>
              <LongitudeDegrees>2.84220990724861621856689453125</LongitudeDegrees>
            </Position>
            <AltitudeMeters>495</AltitudeMeters>
            <DistanceMeters>3776.4676577545</DistanceMeters>
          </Trackpoint>
          <Trackpoint>
            <Time>2021-03-31T14:52:55.000Z</Time>
            <Position>
              <LatitudeDegrees>42.45857368223369121551513671875</LatitudeDegrees>
              <LongitudeDegrees>2.8421989269554615020751953125</LongitudeDegrees>
            </Position>
            <AltitudeMeters>495</AltitudeMeters>
            <DistanceMeters>3778.2505169493</DistanceMeters>
          </Trackpoint>
          <Trackpoint>
            <Time>2021-03-31T14:52:58.000Z</Time>
            <Position>
              <LatitudeDegrees>42.45857016183435916900634765625</LatitudeDegrees>
              <LongitudeDegrees>2.84218090586364269256591796875</LongitudeDegrees>
            </Position>
            <AltitudeMeters>495.600006103515625</AltitudeMeters>
            <DistanceMeters>3779.7827766777</DistanceMeters>
          </Trackpoint>
          <Trackpoint>
            <Time>2021-03-31T14:53:02.000Z</Time>
            <Position>
              <LatitudeDegrees>42.45858239941298961639404296875</LatitudeDegrees>
              <LongitudeDegrees>2.84215676598250865936279296875</LongitudeDegrees>
            </Position>
            <AltitudeMeters>496</AltitudeMeters>
            <DistanceMeters>3782.1867835255</DistanceMeters>
          </Trackpoint>
          <Trackpoint>
            <Time>2021-03-31T14:53:06.000Z</Time>
            <Position>
              <LatitudeDegrees>42.45858424343168735504150390625</LatitudeDegrees>
              <LongitudeDegrees>2.8421345539391040802001953125</LongitudeDegrees>
            </Position>
            <AltitudeMeters>496.79998779296875</AltitudeMeters>
            <DistanceMeters>3784.0195924182</DistanceMeters>
          </Trackpoint>
          <Trackpoint>
            <Time>2021-03-31T14:53:08.000Z</Time>
            <Position>
              <LatitudeDegrees>42.458588518202304840087890625</LatitudeDegrees>
              <LongitudeDegrees>2.84212256781756877899169921875</LongitudeDegrees>
            </Position>
            <AltitudeMeters>497.20001220703125</AltitudeMeters>
            <DistanceMeters>3785.1113662458</DistanceMeters>
          </Trackpoint>
          <Trackpoint>
            <Time>2021-03-31T14:53:12.000Z</Time>
            <Position>
              <LatitudeDegrees>42.45859765447676181793212890625</LatitudeDegrees>
              <LongitudeDegrees>2.84210647456347942352294921875</LongitudeDegrees>
            </Position>
            <AltitudeMeters>497.600006103515625</AltitudeMeters>
            <DistanceMeters>3786.7790783147</DistanceMeters>
          </Trackpoint>
          <Trackpoint>
            <Time>2021-03-31T14:53:14.000Z</Time>
            <Position>
              <LatitudeDegrees>42.4586044438183307647705078125</LatitudeDegrees>
              <LongitudeDegrees>2.84209088422358036041259765625</LongitudeDegrees>
            </Position>
            <AltitudeMeters>497.79998779296875</AltitudeMeters>
            <DistanceMeters>3788.2634430449</DistanceMeters>
          </Trackpoint>
          <Trackpoint>
            <Time>2021-03-31T14:53:18.000Z</Time>
            <Position>
              <LatitudeDegrees>42.4586158432066440582275390625</LatitudeDegrees>
              <LongitudeDegrees>2.84206339158117771148681640625</LongitudeDegrees>
            </Position>
            <AltitudeMeters>498.20001220703125</AltitudeMeters>
            <DistanceMeters>3790.8519400453</DistanceMeters>
          </Trackpoint>
          <Trackpoint>
            <Time>2021-03-31T14:53:19.000Z</Time>
            <Position>
              <LatitudeDegrees>42.45861777104437351226806640625</LatitudeDegrees>
              <LongitudeDegrees>2.84205534495413303375244140625</LongitudeDegrees>
            </Position>
            <AltitudeMeters>498.20001220703125</AltitudeMeters>
            <DistanceMeters>3791.5371874277</DistanceMeters>
          </Trackpoint>
          <Trackpoint>
            <Time>2021-03-31T14:53:20.000Z</Time>
            <Position>
              <LatitudeDegrees>42.458618693053722381591796875</LatitudeDegrees>
              <LongitudeDegrees>2.84204545430839061737060546875</LongitudeDegrees>
            </Position>
            <AltitudeMeters>498.20001220703125</AltitudeMeters>
            <DistanceMeters>3792.3546381338</DistanceMeters>
          </Trackpoint>
          <Trackpoint>
            <Time>2021-03-31T14:53:22.000Z</Time>
            <Position>
              <LatitudeDegrees>42.45862112380564212799072265625</LatitudeDegrees>
              <LongitudeDegrees>2.8420312888920307159423828125</LongitudeDegrees>
            </Position>
            <AltitudeMeters>498.399993896484375</AltitudeMeters>
            <DistanceMeters>3793.5491054118</DistanceMeters>
          </Trackpoint>
          <Trackpoint>
            <Time>2021-03-31T14:53:24.000Z</Time>
            <Position>
              <LatitudeDegrees>42.45863202027976512908935546875</LatitudeDegrees>
              <LongitudeDegrees>2.84202466718852519989013671875</LongitudeDegrees>
            </Position>
            <AltitudeMeters>498.600006103515625</AltitudeMeters>
            <DistanceMeters>3794.879479413</DistanceMeters>
          </Trackpoint>
          <Trackpoint>
            <Time>2021-03-31T14:53:27.000Z</Time>
            <Position>
              <LatitudeDegrees>42.45864543132483959197998046875</LatitudeDegrees>
              <LongitudeDegrees>2.84200589172542095184326171875</LongitudeDegrees>
            </Position>
            <AltitudeMeters>499.20001220703125</AltitudeMeters>
            <DistanceMeters>3797.0254847686</DistanceMeters>
          </Trackpoint>
          <Trackpoint>
            <Time>2021-03-31T14:53:28.000Z</Time>
            <Position>
              <LatitudeDegrees>42.45864911936223506927490234375</LatitudeDegrees>
              <LongitudeDegrees>2.842000611126422882080078125</LongitudeDegrees>
            </Position>
            <AltitudeMeters>499.399993896484375</AltitudeMeters>
            <DistanceMeters>3797.6189264096</DistanceMeters>
          </Trackpoint>
          <Trackpoint>
            <Time>2021-03-31T14:53:35.000Z</Time>
            <Position>
              <LatitudeDegrees>42.45864249765872955322265625</LatitudeDegrees>
              <LongitudeDegrees>2.8419412672519683837890625</LongitudeDegrees>
            </Position>
            <AltitudeMeters>500.399993896484375</AltitudeMeters>
            <DistanceMeters>3802.5465907202</DistanceMeters>
          </Trackpoint>
          <Trackpoint>
            <Time>2021-03-31T14:53:39.000Z</Time>
            <Position>
              <LatitudeDegrees>42.45864911936223506927490234375</LatitudeDegrees>
              <LongitudeDegrees>2.8418968431651592254638671875</LongitudeDegrees>
            </Position>
            <AltitudeMeters>501</AltitudeMeters>
            <DistanceMeters>3806.2672233531</DistanceMeters>
          </Trackpoint>
          <Trackpoint>
            <Time>2021-03-31T14:53:42.000Z</Time>
            <Position>
              <LatitudeDegrees>42.45864341966807842254638671875</LatitudeDegrees>
              <LongitudeDegrees>2.8418768942356109619140625</LongitudeDegrees>
            </Position>
            <AltitudeMeters>501.20001220703125</AltitudeMeters>
            <DistanceMeters>3808.0245753792</DistanceMeters>
          </Trackpoint>
          <Trackpoint>
            <Time>2021-03-31T14:53:47.000Z</Time>
            <Position>
              <LatitudeDegrees>42.458632774651050567626953125</LatitudeDegrees>
              <LongitudeDegrees>2.84184671938419342041015625</LongitudeDegrees>
            </Position>
            <AltitudeMeters>501.600006103515625</AltitudeMeters>
            <DistanceMeters>3810.7721459256</DistanceMeters>
          </Trackpoint>
          <Trackpoint>
            <Time>2021-03-31T14:53:52.000Z</Time>
            <Position>
              <LatitudeDegrees>42.4586205370724201202392578125</LatitudeDegrees>
              <LongitudeDegrees>2.8418044745922088623046875</LongitudeDegrees>
            </Position>
            <AltitudeMeters>502</AltitudeMeters>
            <DistanceMeters>3814.4988411869</DistanceMeters>
          </Trackpoint>
          <Trackpoint>
            <Time>2021-03-31T14:54:01.000Z</Time>
            <Position>
              <LatitudeDegrees>42.45863436721265316009521484375</LatitudeDegrees>
              <LongitudeDegrees>2.84169249236583709716796875</LongitudeDegrees>
            </Position>
            <AltitudeMeters>502.20001220703125</AltitudeMeters>
            <DistanceMeters>3823.8221193577</DistanceMeters>
          </Trackpoint>
          <Trackpoint>
            <Time>2021-03-31T14:54:10.000Z</Time>
            <Position>
              <LatitudeDegrees>42.45864928700029850006103515625</LatitudeDegrees>
              <LongitudeDegrees>2.841580174863338470458984375</LongitudeDegrees>
            </Position>
            <AltitudeMeters>501.79998779296875</AltitudeMeters>
            <DistanceMeters>3833.192736378</DistanceMeters>
          </Trackpoint>
          <Trackpoint>
            <Time>2021-03-31T14:54:17.000Z</Time>
            <Position>
              <LatitudeDegrees>42.45866529643535614013671875</LatitudeDegrees>
              <LongitudeDegrees>2.841513790190219879150390625</LongitudeDegrees>
            </Position>
            <AltitudeMeters>502</AltitudeMeters>
            <DistanceMeters>3838.9275021455</DistanceMeters>
          </Trackpoint>
          <Trackpoint>
            <Time>2021-03-31T14:54:20.000Z</Time>
            <Position>
              <LatitudeDegrees>42.4586684815585613250732421875</LatitudeDegrees>
              <LongitudeDegrees>2.8414747305214405059814453125</LongitudeDegrees>
            </Position>
            <AltitudeMeters>502.399993896484375</AltitudeMeters>
            <DistanceMeters>3842.1542153556</DistanceMeters>
          </Trackpoint>
          <Trackpoint>
            <Time>2021-03-31T14:54:21.000Z</Time>
            <Position>
              <LatitudeDegrees>42.45867124758660793304443359375</LatitudeDegrees>
              <LongitudeDegrees>2.8414611518383026123046875</LongitudeDegrees>
            </Position>
            <AltitudeMeters>502.399993896484375</AltitudeMeters>
            <DistanceMeters>3843.3180501663</DistanceMeters>
          </Trackpoint>
          <Trackpoint>
            <Time>2021-03-31T14:54:23.000Z</Time>
            <Position>
              <LatitudeDegrees>42.4586818926036357879638671875</LatitudeDegrees>
              <LongitudeDegrees>2.84143810160458087921142578125</LongitudeDegrees>
            </Position>
            <AltitudeMeters>502.79998779296875</AltitudeMeters>
            <DistanceMeters>3845.5506724355</DistanceMeters>
          </Trackpoint>
          <Trackpoint>
            <Time>2021-03-31T14:54:25.000Z</Time>
            <Position>
              <LatitudeDegrees>42.4586939625442028045654296875</LatitudeDegrees>
              <LongitudeDegrees>2.84141966141760349273681640625</LongitudeDegrees>
            </Position>
            <AltitudeMeters>502.79998779296875</AltitudeMeters>
            <DistanceMeters>3847.5754328424</DistanceMeters>
          </Trackpoint>
          <Trackpoint>
            <Time>2021-03-31T14:54:28.000Z</Time>
            <Position>
              <LatitudeDegrees>42.458705194294452667236328125</LatitudeDegrees>
              <LongitudeDegrees>2.841387055814266204833984375</LongitudeDegrees>
            </Position>
            <AltitudeMeters>502.600006103515625</AltitudeMeters>
            <DistanceMeters>3850.5304428122</DistanceMeters>
          </Trackpoint>
          <Trackpoint>
            <Time>2021-03-31T14:54:30.000Z</Time>
            <Position>
              <LatitudeDegrees>42.45871734805405139923095703125</LatitudeDegrees>
              <LongitudeDegrees>2.84136903472244739532470703125</LongitudeDegrees>
            </Position>
            <AltitudeMeters>502.600006103515625</AltitudeMeters>
            <DistanceMeters>3852.5372846331</DistanceMeters>
          </Trackpoint>
          <Trackpoint>
            <Time>2021-03-31T14:54:34.000Z</Time>
            <Position>
              <LatitudeDegrees>42.45872388593852519989013671875</LatitudeDegrees>
              <LongitudeDegrees>2.8413355909287929534912109375</LongitudeDegrees>
            </Position>
            <AltitudeMeters>502.600006103515625</AltitudeMeters>
            <DistanceMeters>3855.3785675019</DistanceMeters>
          </Trackpoint>
          <Trackpoint>
            <Time>2021-03-31T14:54:38.000Z</Time>
            <Position>
              <LatitudeDegrees>42.45871684513986110687255859375</LatitudeDegrees>
              <LongitudeDegrees>2.84128890372812747955322265625</LongitudeDegrees>
            </Position>
            <AltitudeMeters>502.600006103515625</AltitudeMeters>
            <DistanceMeters>3859.2908532242</DistanceMeters>
          </Trackpoint>
          <Trackpoint>
            <Time>2021-03-31T14:54:43.000Z</Time>
            <Position>
              <LatitudeDegrees>42.45870645157992839813232421875</LatitudeDegrees>
              <LongitudeDegrees>2.8412246145308017730712890625</LongitudeDegrees>
            </Position>
            <AltitudeMeters>502.79998779296875</AltitudeMeters>
            <DistanceMeters>3864.6948579632</DistanceMeters>
          </Trackpoint>
          <Trackpoint>
            <Time>2021-03-31T14:54:46.000Z</Time>
            <Position>
              <LatitudeDegrees>42.45871223509311676025390625</LatitudeDegrees>
              <LongitudeDegrees>2.84119267947971820831298828125</LongitudeDegrees>
            </Position>
            <AltitudeMeters>503.20001220703125</AltitudeMeters>
            <DistanceMeters>3867.3926796056</DistanceMeters>
          </Trackpoint>
          <Trackpoint>
            <Time>2021-03-31T14:54:53.000Z</Time>
            <Position>
              <LatitudeDegrees>42.45873595587909221649169921875</LatitudeDegrees>
              <LongitudeDegrees>2.841095365583896636962890625</LongitudeDegrees>
            </Position>
            <AltitudeMeters>503.79998779296875</AltitudeMeters>
            <DistanceMeters>3875.8088497337</DistanceMeters>
          </Trackpoint>
          <Trackpoint>
            <Time>2021-03-31T14:55:00.000Z</Time>
            <Position>
              <LatitudeDegrees>42.45877769775688648223876953125</LatitudeDegrees>
              <LongitudeDegrees>2.84100576303899288177490234375</LongitudeDegrees>
            </Position>
            <AltitudeMeters>503.79998779296875</AltitudeMeters>
            <DistanceMeters>3884.5109311548</DistanceMeters>
          </Trackpoint>
          <Trackpoint>
            <Time>2021-03-31T14:55:10.000Z</Time>
            <Position>
              <LatitudeDegrees>42.45879982598125934600830078125</LatitudeDegrees>
              <LongitudeDegrees>2.84089998342096805572509765625</LongitudeDegrees>
            </Position>
            <AltitudeMeters>504.600006103515625</AltitudeMeters>
            <DistanceMeters>3893.5399693171</DistanceMeters>
          </Trackpoint>
          <Trackpoint>
            <Time>2021-03-31T14:55:11.000Z</Time>
            <Position>
              <LatitudeDegrees>42.45879731141030788421630859375</LatitudeDegrees>
              <LongitudeDegrees>2.84088791348040103912353515625</LongitudeDegrees>
            </Position>
            <AltitudeMeters>504.79998779296875</AltitudeMeters>
            <DistanceMeters>3894.5722236561</DistanceMeters>
          </Trackpoint>
          <Trackpoint>
            <Time>2021-03-31T14:55:18.000Z</Time>
            <Position>
              <LatitudeDegrees>42.45878993533551692962646484375</LatitudeDegrees>
              <LongitudeDegrees>2.8408310003578662872314453125</LongitudeDegrees>
            </Position>
            <AltitudeMeters>505.600006103515625</AltitudeMeters>
            <DistanceMeters>3899.3178543467</DistanceMeters>
          </Trackpoint>
          <Trackpoint>
            <Time>2021-03-31T14:55:19.000Z</Time>
            <Position>
              <LatitudeDegrees>42.4587928690016269683837890625</LatitudeDegrees>
              <LongitudeDegrees>2.8408227860927581787109375</LongitudeDegrees>
            </Position>
            <AltitudeMeters>505.79998779296875</AltitudeMeters>
            <DistanceMeters>3900.0660954439</DistanceMeters>
          </Trackpoint>
          <Trackpoint>
            <Time>2021-03-31T14:55:23.000Z</Time>
            <Position>
              <LatitudeDegrees>42.45879982598125934600830078125</LatitudeDegrees>
              <LongitudeDegrees>2.84079688601195812225341796875</LongitudeDegrees>
            </Position>
            <AltitudeMeters>506.20001220703125</AltitudeMeters>
            <DistanceMeters>3902.3308434255</DistanceMeters>
          </Trackpoint>
          <Trackpoint>
            <Time>2021-03-31T14:55:25.000Z</Time>
            <Position>
              <LatitudeDegrees>42.45879446156322956085205078125</LatitudeDegrees>
              <LongitudeDegrees>2.84078347496688365936279296875</LongitudeDegrees>
            </Position>
            <AltitudeMeters>506.600006103515625</AltitudeMeters>
            <DistanceMeters>3903.5843318782</DistanceMeters>
          </Trackpoint>
          <Trackpoint>
            <Time>2021-03-31T14:55:26.000Z</Time>
            <Position>
              <LatitudeDegrees>42.45879597030580043792724609375</LatitudeDegrees>
              <LongitudeDegrees>2.840776182711124420166015625</LongitudeDegrees>
            </Position>
            <AltitudeMeters>506.600006103515625</AltitudeMeters>
            <DistanceMeters>3904.2146677915</DistanceMeters>
          </Trackpoint>
          <Trackpoint>
            <Time>2021-03-31T14:55:27.000Z</Time>
            <Position>
              <LatitudeDegrees>42.458800412714481353759765625</LatitudeDegrees>
              <LongitudeDegrees>2.840767465531826019287109375</LongitudeDegrees>
            </Position>
            <AltitudeMeters>506.79998779296875</AltitudeMeters>
            <DistanceMeters>3905.0856020148</DistanceMeters>
          </Trackpoint>
          <Trackpoint>
            <Time>2021-03-31T14:55:30.000Z</Time>
            <Position>
              <LatitudeDegrees>42.45880032889544963836669921875</LatitudeDegrees>
              <LongitudeDegrees>2.84073988907039165496826171875</LongitudeDegrees>
            </Position>
            <AltitudeMeters>507.600006103515625</AltitudeMeters>
            <DistanceMeters>3907.3503499964</DistanceMeters>
          </Trackpoint>
          <Trackpoint>
            <Time>2021-03-31T14:55:31.000Z</Time>
            <Position>
              <LatitudeDegrees>42.45879999361932277679443359375</LatitudeDegrees>
              <LongitudeDegrees>2.8407290764153003692626953125</LongitudeDegrees>
            </Position>
            <AltitudeMeters>507.79998779296875</AltitudeMeters>
            <DistanceMeters>3908.2367001815</DistanceMeters>
          </Trackpoint>
          <Trackpoint>
            <Time>2021-03-31T14:55:32.000Z</Time>
            <Position>
              <LatitudeDegrees>42.45880267582833766937255859375</LatitudeDegrees>
              <LongitudeDegrees>2.8407223708927631378173828125</LongitudeDegrees>
            </Position>
            <AltitudeMeters>508</AltitudeMeters>
            <DistanceMeters>3908.8670360947</DistanceMeters>
          </Trackpoint>
          <Trackpoint>
            <Time>2021-03-31T14:55:35.000Z</Time>
            <Position>
              <LatitudeDegrees>42.45881256647408008575439453125</LatitudeDegrees>
              <LongitudeDegrees>2.8407074511051177978515625</LongitudeDegrees>
            </Position>
            <AltitudeMeters>508.20001220703125</AltitudeMeters>
            <DistanceMeters>3910.5129470684</DistanceMeters>
          </Trackpoint>
          <Trackpoint>
            <Time>2021-03-31T14:55:39.000Z</Time>
            <Position>
              <LatitudeDegrees>42.4588215351104736328125</LatitudeDegrees>
              <LongitudeDegrees>2.84068993292748928070068359375</LongitudeDegrees>
            </Position>
            <AltitudeMeters>508.600006103515625</AltitudeMeters>
            <DistanceMeters>3912.2651531039</DistanceMeters>
          </Trackpoint>
          <Trackpoint>
            <Time>2021-03-31T14:55:40.000Z</Time>
            <Position>
              <LatitudeDegrees>42.45882413350045680999755859375</LatitudeDegrees>
              <LongitudeDegrees>2.8406841494143009185791015625</LongitudeDegrees>
            </Position>
            <AltitudeMeters>508.79998779296875</AltitudeMeters>
            <DistanceMeters>3912.8192493041</DistanceMeters>
          </Trackpoint>
          <Trackpoint>
            <Time>2021-03-31T14:55:45.000Z</Time>
            <Position>
              <LatitudeDegrees>42.45882916264235973358154296875</LatitudeDegrees>
              <LongitudeDegrees>2.8406727500259876251220703125</LongitudeDegrees>
            </Position>
            <AltitudeMeters>510</AltitudeMeters>
            <DistanceMeters>3913.9110231317</DistanceMeters>
          </Trackpoint>
          <Trackpoint>
            <Time>2021-03-31T14:55:46.000Z</Time>
            <Position>
              <LatitudeDegrees>42.45883553288877010345458984375</LatitudeDegrees>
              <LongitudeDegrees>2.8406700678169727325439453125</LongitudeDegrees>
            </Position>
            <AltitudeMeters>510.20001220703125</AltitudeMeters>
            <DistanceMeters>3914.6592642289</DistanceMeters>
          </Trackpoint>
          <Trackpoint>
            <Time>2021-03-31T14:55:51.000Z</Time>
            <Position>
              <LatitudeDegrees>42.4588421545922756195068359375</LatitudeDegrees>
              <LongitudeDegrees>2.84063796512782573699951171875</LongitudeDegrees>
            </Position>
            <AltitudeMeters>511</AltitudeMeters>
            <DistanceMeters>3917.398606034</DistanceMeters>
          </Trackpoint>
          <Trackpoint>
            <Time>2021-03-31T14:55:52.000Z</Time>
            <Position>
              <LatitudeDegrees>42.45884659700095653533935546875</LatitudeDegrees>
              <LongitudeDegrees>2.840627320110797882080078125</LongitudeDegrees>
            </Position>
            <AltitudeMeters>511</AltitudeMeters>
            <DistanceMeters>3918.3952546224</DistanceMeters>
          </Trackpoint>
          <Trackpoint>
            <Time>2021-03-31T14:56:00.000Z</Time>
            <Position>
              <LatitudeDegrees>42.45885296724736690521240234375</LatitudeDegrees>
              <LongitudeDegrees>2.84056051634252071380615234375</LongitudeDegrees>
            </Position>
            <AltitudeMeters>512</AltitudeMeters>
            <DistanceMeters>3923.9264298133</DistanceMeters>
          </Trackpoint>
          <Trackpoint>
            <Time>2021-03-31T14:56:04.000Z</Time>
            <Position>
              <LatitudeDegrees>42.4588565714657306671142578125</LatitudeDegrees>
              <LongitudeDegrees>2.84051877446472644805908203125</LongitudeDegrees>
            </Position>
            <AltitudeMeters>512</AltitudeMeters>
            <DistanceMeters>3927.3776137883</DistanceMeters>
          </Trackpoint>
          <Trackpoint>
            <Time>2021-03-31T14:56:06.000Z</Time>
            <Position>
              <LatitudeDegrees>42.458863444626331329345703125</LatitudeDegrees>
              <LongitudeDegrees>2.8405051119625568389892578125</LongitudeDegrees>
            </Position>
            <AltitudeMeters>512</AltitudeMeters>
            <DistanceMeters>3928.7348667473</DistanceMeters>
          </Trackpoint>
          <Trackpoint>
            <Time>2021-03-31T14:56:07.000Z</Time>
            <Position>
              <LatitudeDegrees>42.458860091865062713623046875</LatitudeDegrees>
              <LongitudeDegrees>2.84049882553517818450927734375</LongitudeDegrees>
            </Position>
            <AltitudeMeters>512.20001220703125</AltitudeMeters>
            <DistanceMeters>3929.3723253263</DistanceMeters>
          </Trackpoint>
          <Trackpoint>
            <Time>2021-03-31T14:56:13.000Z</Time>
            <Position>
              <LatitudeDegrees>42.45887853205204010009765625</LatitudeDegrees>
              <LongitudeDegrees>2.840448953211307525634765625</LongitudeDegrees>
            </Position>
            <AltitudeMeters>512.4000244140625</AltitudeMeters>
            <DistanceMeters>3933.9533620709</DistanceMeters>
          </Trackpoint>
          <Trackpoint>
            <Time>2021-03-31T14:56:19.000Z</Time>
            <Position>
              <LatitudeDegrees>42.4588991515338420867919921875</LatitudeDegrees>
              <LongitudeDegrees>2.840381227433681488037109375</LongitudeDegrees>
            </Position>
            <AltitudeMeters>512.4000244140625</AltitudeMeters>
            <DistanceMeters>3939.9693862055</DistanceMeters>
          </Trackpoint>
          <Trackpoint>
            <Time>2021-03-31T14:56:21.000Z</Time>
            <Position>
              <LatitudeDegrees>42.45890174992382526397705078125</LatitudeDegrees>
              <LongitudeDegrees>2.8403549082577228546142578125</LongitudeDegrees>
            </Position>
            <AltitudeMeters>512.20001220703125</AltitudeMeters>
            <DistanceMeters>3942.1487944301</DistanceMeters>
          </Trackpoint>
          <Trackpoint>
            <Time>2021-03-31T14:56:22.000Z</Time>
            <Position>
              <LatitudeDegrees>42.458901666104793548583984375</LatitudeDegrees>
              <LongitudeDegrees>2.84034510143101215362548828125</LongitudeDegrees>
            </Position>
            <AltitudeMeters>512.4000244140625</AltitudeMeters>
            <DistanceMeters>3942.9551228396</DistanceMeters>
          </Trackpoint>
          <Trackpoint>
            <Time>2021-03-31T14:56:27.000Z</Time>
            <Position>
              <LatitudeDegrees>42.458930499851703643798828125</LatitudeDegrees>
              <LongitudeDegrees>2.84031140618026256561279296875</LongitudeDegrees>
            </Position>
            <AltitudeMeters>512.5999755859375</AltitudeMeters>
            <DistanceMeters>3947.1920783468</DistanceMeters>
          </Trackpoint>
          <Trackpoint>
            <Time>2021-03-31T14:56:29.000Z</Time>
            <Position>
              <LatitudeDegrees>42.4589489400386810302734375</LatitudeDegrees>
              <LongitudeDegrees>2.84029128961265087127685546875</LongitudeDegrees>
            </Position>
            <AltitudeMeters>512.5999755859375</AltitudeMeters>
            <DistanceMeters>3949.8272498375</DistanceMeters>
          </Trackpoint>
          <Trackpoint>
            <Time>2021-03-31T14:56:33.000Z</Time>
            <Position>
              <LatitudeDegrees>42.45897953398525714874267578125</LatitudeDegrees>
              <LongitudeDegrees>2.84022800624370574951171875</LongitudeDegrees>
            </Position>
            <AltitudeMeters>512.5999755859375</AltitudeMeters>
            <DistanceMeters>3956.0397007807</DistanceMeters>
          </Trackpoint>
          <Trackpoint>
            <Time>2021-03-31T14:56:34.000Z</Time>
            <Position>
              <LatitudeDegrees>42.4589766003191471099853515625</LatitudeDegrees>
              <LongitudeDegrees>2.84021727740764617919921875</LongitudeDegrees>
            </Position>
            <AltitudeMeters>512.5999755859375</AltitudeMeters>
            <DistanceMeters>3956.9756053779</DistanceMeters>
          </Trackpoint>
          <Trackpoint>
            <Time>2021-03-31T14:56:40.000Z</Time>
            <Position>
              <LatitudeDegrees>42.45898238383233547210693359375</LatitudeDegrees>
              <LongitudeDegrees>2.84016539342701435089111328125</LongitudeDegrees>
            </Position>
            <AltitudeMeters>512.79998779296875</AltitudeMeters>
            <DistanceMeters>3961.2844146298</DistanceMeters>
          </Trackpoint>
          <Trackpoint>
            <Time>2021-03-31T14:56:45.000Z</Time>
            <Position>
              <LatitudeDegrees>42.45901130139827728271484375</LatitudeDegrees>
              <LongitudeDegrees>2.84014360047876834869384765625</LongitudeDegrees>
            </Position>
            <AltitudeMeters>512.5999755859375</AltitudeMeters>
            <DistanceMeters>3964.9672362137</DistanceMeters>
          </Trackpoint>
          <Trackpoint>
            <Time>2021-03-31T14:56:47.000Z</Time>
            <Position>
              <LatitudeDegrees>42.45902345515787601470947265625</LatitudeDegrees>
              <LongitudeDegrees>2.8401373140513896942138671875</LongitudeDegrees>
            </Position>
            <AltitudeMeters>512.79998779296875</AltitudeMeters>
            <DistanceMeters>3966.4146400049</DistanceMeters>
          </Trackpoint>
          <Trackpoint>
            <Time>2021-03-31T14:56:50.000Z</Time>
            <Position>
              <LatitudeDegrees>42.459035106003284454345703125</LatitudeDegrees>
              <LongitudeDegrees>2.84011007286608219146728515625</LongitudeDegrees>
            </Position>
            <AltitudeMeters>513.4000244140625</AltitudeMeters>
            <DistanceMeters>3968.999646111</DistanceMeters>
          </Trackpoint>
          <Trackpoint>
            <Time>2021-03-31T14:56:54.000Z</Time>
            <Position>
              <LatitudeDegrees>42.459048517048358917236328125</LatitudeDegrees>
              <LongitudeDegrees>2.84009900875389575958251953125</LongitudeDegrees>
            </Position>
            <AltitudeMeters>514</AltitudeMeters>
            <DistanceMeters>3970.7466909983</DistanceMeters>
          </Trackpoint>
          <Trackpoint>
            <Time>2021-03-31T14:56:56.000Z</Time>
            <Position>
              <LatitudeDegrees>42.45904826559126377105712890625</LatitudeDegrees>
              <LongitudeDegrees>2.84007914364337921142578125</LongitudeDegrees>
            </Position>
            <AltitudeMeters>514.4000244140625</AltitudeMeters>
            <DistanceMeters>3972.3760597333</DistanceMeters>
          </Trackpoint>
          <Trackpoint>
            <Time>2021-03-31T14:57:00.000Z</Time>
            <Position>
              <LatitudeDegrees>42.45907433331012725830078125</LatitudeDegrees>
              <LongitudeDegrees>2.840041927993297576904296875</LongitudeDegrees>
            </Position>
            <AltitudeMeters>515.4000244140625</AltitudeMeters>
            <DistanceMeters>3976.5895061004</DistanceMeters>
          </Trackpoint>
          <Trackpoint>
            <Time>2021-03-31T14:57:01.000Z</Time>
            <Position>
              <LatitudeDegrees>42.4590812064707279205322265625</LatitudeDegrees>
              <LongitudeDegrees>2.84003488719463348388671875</LongitudeDegrees>
            </Position>
            <AltitudeMeters>515.4000244140625</AltitudeMeters>
            <DistanceMeters>3977.5445127605</DistanceMeters>
          </Trackpoint>
          <Trackpoint>
            <Time>2021-03-31T14:57:06.000Z</Time>
            <Position>
              <LatitudeDegrees>42.45910962112247943878173828125</LatitudeDegrees>
              <LongitudeDegrees>2.8399805724620819091796875</LongitudeDegrees>
            </Position>
            <AltitudeMeters>515.79998779296875</AltitudeMeters>
            <DistanceMeters>3983.0116466558</DistanceMeters>
          </Trackpoint>
          <Trackpoint>
            <Time>2021-03-31T14:57:09.000Z</Time>
            <Position>
              <LatitudeDegrees>42.45911188423633575439453125</LatitudeDegrees>
              <LongitudeDegrees>2.83995685167610645294189453125</LongitudeDegrees>
            </Position>
            <AltitudeMeters>515.79998779296875</AltitudeMeters>
            <DistanceMeters>3984.9729759411</DistanceMeters>
          </Trackpoint>
          <Trackpoint>
            <Time>2021-03-31T14:57:12.000Z</Time>
            <Position>
              <LatitudeDegrees>42.459118254482746124267578125</LatitudeDegrees>
              <LongitudeDegrees>2.8399296104907989501953125</LongitudeDegrees>
            </Position>
            <AltitudeMeters>516.5999755859375</AltitudeMeters>
            <DistanceMeters>3987.319962654</DistanceMeters>
          </Trackpoint>
          <Trackpoint>
            <Time>2021-03-31T14:57:16.000Z</Time>
            <Position>
              <LatitudeDegrees>42.45910978876054286956787109375</LatitudeDegrees>
              <LongitudeDegrees>2.83989784307777881622314453125</LongitudeDegrees>
            </Position>
            <AltitudeMeters>517.4000244140625</AltitudeMeters>
            <DistanceMeters>3990.0937011295</DistanceMeters>
          </Trackpoint>
          <Trackpoint>
            <Time>2021-03-31T14:57:18.000Z</Time>
            <Position>
              <LatitudeDegrees>42.4591107107698917388916015625</LatitudeDegrees>
              <LongitudeDegrees>2.83988929353654384613037109375</LongitudeDegrees>
            </Position>
            <AltitudeMeters>517.79998779296875</AltitudeMeters>
            <DistanceMeters>3990.7984381048</DistanceMeters>
          </Trackpoint>
          <Trackpoint>
            <Time>2021-03-31T14:57:24.000Z</Time>
            <Position>
              <LatitudeDegrees>42.4591623432934284210205078125</LatitudeDegrees>
              <LongitudeDegrees>2.839840762317180633544921875</LongitudeDegrees>
            </Position>
            <AltitudeMeters>518.79998779296875</AltitudeMeters>
            <DistanceMeters>3997.7917845156</DistanceMeters>
          </Trackpoint>
          <Trackpoint>
            <Time>2021-03-31T14:57:29.000Z</Time>
            <Position>
              <LatitudeDegrees>42.45915454812347888946533203125</LatitudeDegrees>
              <LongitudeDegrees>2.8398063965141773223876953125</LongitudeDegrees>
            </Position>
            <AltitudeMeters>519</AltitudeMeters>
            <DistanceMeters>4000.742207145</DistanceMeters>
          </Trackpoint>
          <Trackpoint>
            <Time>2021-03-31T14:57:32.000Z</Time>
            <Position>
              <LatitudeDegrees>42.45914616622030735015869140625</LatitudeDegrees>
              <LongitudeDegrees>2.8398003615438938140869140625</LongitudeDegrees>
            </Position>
            <AltitudeMeters>519</AltitudeMeters>
            <DistanceMeters>4001.7961043898</DistanceMeters>
          </Trackpoint>
          <Trackpoint>
            <Time>2021-03-31T14:57:36.000Z</Time>
            <Position>
              <LatitudeDegrees>42.45912202633917331695556640625</LatitudeDegrees>
              <LongitudeDegrees>2.83981067128479480743408203125</LongitudeDegrees>
            </Position>
            <AltitudeMeters>519.79998779296875</AltitudeMeters>
            <DistanceMeters>4004.6150522911</DistanceMeters>
          </Trackpoint>
          <Trackpoint>
            <Time>2021-03-31T14:57:38.000Z</Time>
            <Position>
              <LatitudeDegrees>42.4591073580086231231689453125</LatitudeDegrees>
              <LongitudeDegrees>2.83981720916926860809326171875</LongitudeDegrees>
            </Position>
            <AltitudeMeters>520.20001220703125</AltitudeMeters>
            <DistanceMeters>4006.3360592852</DistanceMeters>
          </Trackpoint>
          <Trackpoint>
            <Time>2021-03-31T14:57:45.000Z</Time>
            <Position>
              <LatitudeDegrees>42.4590825475752353668212890625</LatitudeDegrees>
              <LongitudeDegrees>2.83976691775023937225341796875</LongitudeDegrees>
            </Position>
            <AltitudeMeters>518.79998779296875</AltitudeMeters>
            <DistanceMeters>4011.304784373</DistanceMeters>
          </Trackpoint>
          <Trackpoint>
            <Time>2021-03-31T14:57:50.000Z</Time>
            <Position>
              <LatitudeDegrees>42.45907056145370006561279296875</LatitudeDegrees>
              <LongitudeDegrees>2.83972769044339656829833984375</LongitudeDegrees>
            </Position>
            <AltitudeMeters>517.79998779296875</AltitudeMeters>
            <DistanceMeters>4014.7911123687</DistanceMeters>
          </Trackpoint>
          <Trackpoint>
            <Time>2021-03-31T14:57:53.000Z</Time>
            <Position>
              <LatitudeDegrees>42.459051869809627532958984375</LatitudeDegrees>
              <LongitudeDegrees>2.8397024609148502349853515625</LongitudeDegrees>
            </Position>
            <AltitudeMeters>517.4000244140625</AltitudeMeters>
            <DistanceMeters>4017.7277299815</DistanceMeters>
          </Trackpoint>
          <Trackpoint>
            <Time>2021-03-31T14:57:54.000Z</Time>
            <Position>
              <LatitudeDegrees>42.45904424227774143218994140625</LatitudeDegrees>
              <LongitudeDegrees>2.839697934687137603759765625</LongitudeDegrees>
            </Position>
            <AltitudeMeters>517</AltitudeMeters>
            <DistanceMeters>4018.65879783</DistanceMeters>
          </Trackpoint>
          <Trackpoint>
            <Time>2021-03-31T14:57:56.000Z</Time>
            <Position>
              <LatitudeDegrees>42.45902915485203266143798828125</LatitudeDegrees>
              <LongitudeDegrees>2.83968930132687091827392578125</LongitudeDegrees>
            </Position>
            <AltitudeMeters>516.5999755859375</AltitudeMeters>
            <DistanceMeters>4020.4817262794</DistanceMeters>
          </Trackpoint>
          <Trackpoint>
            <Time>2021-03-31T14:57:58.000Z</Time>
            <Position>
              <LatitudeDegrees>42.45901842601597309112548828125</LatitudeDegrees>
              <LongitudeDegrees>2.839681170880794525146484375</LongitudeDegrees>
            </Position>
            <AltitudeMeters>516</AltitudeMeters>
            <DistanceMeters>4021.8522210442</DistanceMeters>
          </Trackpoint>
          <Trackpoint>
            <Time>2021-03-31T14:58:00.000Z</Time>
            <Position>
              <LatitudeDegrees>42.45899981819093227386474609375</LatitudeDegrees>
              <LongitudeDegrees>2.83967413008213043212890625</LongitudeDegrees>
            </Position>
            <AltitudeMeters>515.5999755859375</AltitudeMeters>
            <DistanceMeters>4024.0024301362</DistanceMeters>
          </Trackpoint>
          <Trackpoint>
            <Time>2021-03-31T14:58:01.000Z</Time>
            <Position>
              <LatitudeDegrees>42.45898984372615814208984375</LatitudeDegrees>
              <LongitudeDegrees>2.83966784365475177764892578125</LongitudeDegrees>
            </Position>
            <AltitudeMeters>515.5999755859375</AltitudeMeters>
            <DistanceMeters>4025.2230703834</DistanceMeters>
          </Trackpoint>
          <Trackpoint>
            <Time>2021-03-31T14:58:03.000Z</Time>
            <Position>
              <LatitudeDegrees>42.45897366665303707122802734375</LatitudeDegrees>
              <LongitudeDegrees>2.83965107984840869903564453125</LongitudeDegrees>
            </Position>
            <AltitudeMeters>515.20001220703125</AltitudeMeters>
            <DistanceMeters>4027.487818365</DistanceMeters>
          </Trackpoint>
          <Trackpoint>
            <Time>2021-03-31T14:58:04.000Z</Time>
            <Position>
              <LatitudeDegrees>42.4589648656547069549560546875</LatitudeDegrees>
              <LongitudeDegrees>2.839642278850078582763671875</LongitudeDegrees>
            </Position>
            <AltitudeMeters>515.20001220703125</AltitudeMeters>
            <DistanceMeters>4028.704754081</DistanceMeters>
          </Trackpoint>
          <Trackpoint>
            <Time>2021-03-31T14:58:07.000Z</Time>
            <Position>
              <LatitudeDegrees>42.45894885621964931488037109375</LatitudeDegrees>
              <LongitudeDegrees>2.83962341956794261932373046875</LongitudeDegrees>
            </Position>
            <AltitudeMeters>515</AltitudeMeters>
            <DistanceMeters>4031.0670807397</DistanceMeters>
          </Trackpoint>
          <Trackpoint>
            <Time>2021-03-31T14:58:08.000Z</Time>
            <Position>
              <LatitudeDegrees>42.45894692838191986083984375</LatitudeDegrees>
              <LongitudeDegrees>2.8396199829876422882080078125</LongitudeDegrees>
            </Position>
            <AltitudeMeters>515</AltitudeMeters>
            <DistanceMeters>4031.4351176219</DistanceMeters>
          </Trackpoint>
          <Trackpoint>
            <Time>2021-03-31T14:58:10.000Z</Time>
            <Position>
              <LatitudeDegrees>42.4589380435645580291748046875</LatitudeDegrees>
              <LongitudeDegrees>2.8396126069128513336181640625</LongitudeDegrees>
            </Position>
            <AltitudeMeters>514.79998779296875</AltitudeMeters>
            <DistanceMeters>4032.5989524326</DistanceMeters>
          </Trackpoint>
          <Trackpoint>
            <Time>2021-03-31T14:58:11.000Z</Time>
            <Position>
              <LatitudeDegrees>42.45893125422298908233642578125</LatitudeDegrees>
              <LongitudeDegrees>2.83960883505642414093017578125</LongitudeDegrees>
            </Position>
            <AltitudeMeters>514.5999755859375</AltitudeMeters>
            <DistanceMeters>4033.4164031387</DistanceMeters>
          </Trackpoint>
          <Trackpoint>
            <Time>2021-03-31T14:58:13.000Z</Time>
            <Position>
              <LatitudeDegrees>42.45891767553985118865966796875</LatitudeDegrees>
              <LongitudeDegrees>2.8396045602858066558837890625</LongitudeDegrees>
            </Position>
            <AltitudeMeters>514.4000244140625</AltitudeMeters>
            <DistanceMeters>4034.9691524457</DistanceMeters>
          </Trackpoint>
          <Trackpoint>
            <Time>2021-03-31T14:58:14.000Z</Time>
            <Position>
              <LatitudeDegrees>42.45891013182699680328369140625</LatitudeDegrees>
              <LongitudeDegrees>2.839601375162601470947265625</LongitudeDegrees>
            </Position>
            <AltitudeMeters>514</AltitudeMeters>
            <DistanceMeters>4035.8503939417</DistanceMeters>
          </Trackpoint>
          <Trackpoint>
            <Time>2021-03-31T14:58:17.000Z</Time>
            <Position>
              <LatitudeDegrees>42.45889169164001941680908203125</LatitudeDegrees>
              <LongitudeDegrees>2.83958603627979755401611328125</LongitudeDegrees>
            </Position>
            <AltitudeMeters>513.4000244140625</AltitudeMeters>
            <DistanceMeters>4038.2600285931</DistanceMeters>
          </Trackpoint>
          <Trackpoint>
            <Time>2021-03-31T14:58:20.000Z</Time>
            <Position>
              <LatitudeDegrees>42.458870150148868560791015625</LatitudeDegrees>
              <LongitudeDegrees>2.83956541679799556732177734375</LongitudeDegrees>
            </Position>
            <AltitudeMeters>512.79998779296875</AltitudeMeters>
            <DistanceMeters>4041.1951083071</DistanceMeters>
          </Trackpoint>
          <Trackpoint>
            <Time>2021-03-31T14:58:21.000Z</Time>
            <Position>
              <LatitudeDegrees>42.45885975658893585205078125</LatitudeDegrees>
              <LongitudeDegrees>2.83956122584640979766845703125</LongitudeDegrees>
            </Position>
            <AltitudeMeters>512.79998779296875</AltitudeMeters>
            <DistanceMeters>4042.4008621408</DistanceMeters>
          </Trackpoint>
          <Trackpoint>
            <Time>2021-03-31T14:58:22.000Z</Time>
            <Position>
              <LatitudeDegrees>42.45884835720062255859375</LatitudeDegrees>
              <LongitudeDegrees>2.83955611288547515869140625</LongitudeDegrees>
            </Position>
            <AltitudeMeters>512.5999755859375</AltitudeMeters>
            <DistanceMeters>4043.7380065369</DistanceMeters>
          </Trackpoint>
          <Trackpoint>
            <Time>2021-03-31T14:58:24.000Z</Time>
            <Position>
              <LatitudeDegrees>42.4588220380246639251708984375</LatitudeDegrees>
              <LongitudeDegrees>2.8395482338964939117431640625</LongitudeDegrees>
            </Position>
            <AltitudeMeters>512.20001220703125</AltitudeMeters>
            <DistanceMeters>4046.7369990574</DistanceMeters>
          </Trackpoint>
          <Trackpoint>
            <Time>2021-03-31T14:58:26.000Z</Time>
            <Position>
              <LatitudeDegrees>42.45880208909511566162109375</LatitudeDegrees>
              <LongitudeDegrees>2.839540354907512664794921875</LongitudeDegrees>
            </Position>
            <AltitudeMeters>512</AltitudeMeters>
            <DistanceMeters>4049.0471451953</DistanceMeters>
          </Trackpoint>
          <Trackpoint>
            <Time>2021-03-31T14:58:27.000Z</Time>
            <Position>
              <LatitudeDegrees>42.458793036639690399169921875</LatitudeDegrees>
              <LongitudeDegrees>2.8395366668701171875</LongitudeDegrees>
            </Position>
            <AltitudeMeters>512</AltitudeMeters>
            <DistanceMeters>4050.0967495618</DistanceMeters>
          </Trackpoint>
          <Trackpoint>
            <Time>2021-03-31T14:58:33.000Z</Time>
            <Position>
              <LatitudeDegrees>42.45875758118927478790283203125</LatitudeDegrees>
              <LongitudeDegrees>2.83947975374758243560791015625</LongitudeDegrees>
            </Position>
            <AltitudeMeters>511</AltitudeMeters>
            <DistanceMeters>4056.2132523785</DistanceMeters>
          </Trackpoint>
          <Trackpoint>
            <Time>2021-03-31T14:58:35.000Z</Time>
            <Position>
              <LatitudeDegrees>42.45874919928610324859619140625</LatitudeDegrees>
              <LongitudeDegrees>2.83944907598197460174560546875</LongitudeDegrees>
            </Position>
            <AltitudeMeters>510.20001220703125</AltitudeMeters>
            <DistanceMeters>4058.9010137435</DistanceMeters>
          </Trackpoint>
          <Trackpoint>
            <Time>2021-03-31T14:58:36.000Z</Time>
            <Position>
              <LatitudeDegrees>42.45874701999127864837646484375</LatitudeDegrees>
              <LongitudeDegrees>2.83943675458431243896484375</LongitudeDegrees>
            </Position>
            <AltitudeMeters>510</AltitudeMeters>
            <DistanceMeters>4059.941979244</DistanceMeters>
          </Trackpoint>
          <Trackpoint>
            <Time>2021-03-31T14:58:44.000Z</Time>
            <Position>
              <LatitudeDegrees>42.4587063677608966827392578125</LatitudeDegrees>
              <LongitudeDegrees>2.8393678553402423858642578125</LongitudeDegrees>
            </Position>
            <AltitudeMeters>509.20001220703125</AltitudeMeters>
            <DistanceMeters>4067.1864809034</DistanceMeters>
          </Trackpoint>
          <Trackpoint>
            <Time>2021-03-31T14:58:45.000Z</Time>
            <Position>
              <LatitudeDegrees>42.45870259590446949005126953125</LatitudeDegrees>
              <LongitudeDegrees>2.83935771323740482330322265625</LongitudeDegrees>
            </Position>
            <AltitudeMeters>508.79998779296875</AltitudeMeters>
            <DistanceMeters>4068.1223855006</DistanceMeters>
          </Trackpoint>
          <Trackpoint>
            <Time>2021-03-31T14:58:46.000Z</Time>
            <Position>
              <LatitudeDegrees>42.45869882404804229736328125</LatitudeDegrees>
              <LongitudeDegrees>2.83934648148715496063232421875</LongitudeDegrees>
            </Position>
            <AltitudeMeters>508.600006103515625</AltitudeMeters>
            <DistanceMeters>4069.1369931659</DistanceMeters>
          </Trackpoint>
          <Trackpoint>
            <Time>2021-03-31T14:58:50.000Z</Time>
            <Position>
              <LatitudeDegrees>42.458662949502468109130859375</LatitudeDegrees>
              <LongitudeDegrees>2.8393075056374073028564453125</LongitudeDegrees>
            </Position>
            <AltitudeMeters>507.399993896484375</AltitudeMeters>
            <DistanceMeters>4074.2543383456</DistanceMeters>
          </Trackpoint>
          <Trackpoint>
            <Time>2021-03-31T14:58:51.000Z</Time>
            <Position>
              <LatitudeDegrees>42.45865590870380401611328125</LatitudeDegrees>
              <LongitudeDegrees>2.83930121921002864837646484375</LongitudeDegrees>
            </Position>
            <AltitudeMeters>507</AltitudeMeters>
            <DistanceMeters>4075.1902429428</DistanceMeters>
          </Trackpoint>
          <Trackpoint>
            <Time>2021-03-31T14:58:56.000Z</Time>
            <Position>
              <LatitudeDegrees>42.4586171843111515045166015625</LatitudeDegrees>
              <LongitudeDegrees>2.83926299773156642913818359375</LongitudeDegrees>
            </Position>
            <AltitudeMeters>506.20001220703125</AltitudeMeters>
            <DistanceMeters>4080.5219106599</DistanceMeters>
          </Trackpoint>
          <Trackpoint>
            <Time>2021-03-31T14:58:59.000Z</Time>
            <Position>
              <LatitudeDegrees>42.458601929247379302978515625</LatitudeDegrees>
              <LongitudeDegrees>2.83923164941370487213134765625</LongitudeDegrees>
            </Position>
            <AltitudeMeters>506</AltitudeMeters>
            <DistanceMeters>4083.606987737</DistanceMeters>
          </Trackpoint>
          <Trackpoint>
            <Time>2021-03-31T14:59:03.000Z</Time>
            <Position>
              <LatitudeDegrees>42.45858910493552684783935546875</LatitudeDegrees>
              <LongitudeDegrees>2.839184291660785675048828125</LongitudeDegrees>
            </Position>
            <AltitudeMeters>505.20001220703125</AltitudeMeters>
            <DistanceMeters>4087.7491061858</DistanceMeters>
          </Trackpoint>
          <Trackpoint>
            <Time>2021-03-31T14:59:06.000Z</Time>
            <Position>
              <LatitudeDegrees>42.45857535861432552337646484375</LatitudeDegrees>
              <LongitudeDegrees>2.8391505964100360870361328125</LongitudeDegrees>
            </Position>
            <AltitudeMeters>504.79998779296875</AltitudeMeters>
            <DistanceMeters>4090.9122256429</DistanceMeters>
          </Trackpoint>
          <Trackpoint>
            <Time>2021-03-31T14:59:07.000Z</Time>
            <Position>
              <LatitudeDegrees>42.45856965892016887664794921875</LatitudeDegrees>
              <LongitudeDegrees>2.8391284681856632232666015625</LongitudeDegrees>
            </Position>
            <AltitudeMeters>504.600006103515625</AltitudeMeters>
            <DistanceMeters>4092.8363699571</DistanceMeters>
          </Trackpoint>
          <Trackpoint>
            <Time>2021-03-31T14:59:11.000Z</Time>
            <Position>
              <LatitudeDegrees>42.4585571698844432830810546875</LatitudeDegrees>
              <LongitudeDegrees>2.8390808589756488800048828125</LongitudeDegrees>
            </Position>
            <AltitudeMeters>504</AltitudeMeters>
            <DistanceMeters>4096.9871994953</DistanceMeters>
          </Trackpoint>
          <Trackpoint>
            <Time>2021-03-31T14:59:13.000Z</Time>
            <Position>
              <LatitudeDegrees>42.45855976827442646026611328125</LatitudeDegrees>
              <LongitudeDegrees>2.8390594013035297393798828125</LongitudeDegrees>
            </Position>
            <AltitudeMeters>503.399993896484375</AltitudeMeters>
            <DistanceMeters>4098.7725893644</DistanceMeters>
          </Trackpoint>
          <Trackpoint>
            <Time>2021-03-31T14:59:14.000Z</Time>
            <Position>
              <LatitudeDegrees>42.4585615284740924835205078125</LatitudeDegrees>
              <LongitudeDegrees>2.83904758282005786895751953125</LongitudeDegrees>
            </Position>
            <AltitudeMeters>503.20001220703125</AltitudeMeters>
            <DistanceMeters>4099.7692379528</DistanceMeters>
          </Trackpoint>
          <Trackpoint>
            <Time>2021-03-31T14:59:15.000Z</Time>
            <Position>
              <LatitudeDegrees>42.45856328867375850677490234375</LatitudeDegrees>
              <LongitudeDegrees>2.83903785981237888336181640625</LongitudeDegrees>
            </Position>
            <AltitudeMeters>503.20001220703125</AltitudeMeters>
            <DistanceMeters>4100.5976616426</DistanceMeters>
          </Trackpoint>
          <Trackpoint>
            <Time>2021-03-31T14:59:17.000Z</Time>
            <Position>
              <LatitudeDegrees>42.4585712514817714691162109375</LatitudeDegrees>
              <LongitudeDegrees>2.83902411349117755889892578125</LongitudeDegrees>
            </Position>
            <AltitudeMeters>503</AltitudeMeters>
            <DistanceMeters>4102.0325335634</DistanceMeters>
          </Trackpoint>
          <Trackpoint>
            <Time>2021-03-31T14:59:19.000Z</Time>
            <Position>
              <LatitudeDegrees>42.45856739580631256103515625</LatitudeDegrees>
              <LongitudeDegrees>2.83900349400937557220458984375</LongitudeDegrees>
            </Position>
            <AltitudeMeters>503</AltitudeMeters>
            <DistanceMeters>4103.7769921504</DistanceMeters>
          </Trackpoint>
          <Trackpoint>
            <Time>2021-03-31T14:59:23.000Z</Time>
            <Position>
              <LatitudeDegrees>42.4585467763245105743408203125</LatitudeDegrees>
              <LongitudeDegrees>2.83896409906446933746337890625</LongitudeDegrees>
            </Position>
            <AltitudeMeters>501.79998779296875</AltitudeMeters>
            <DistanceMeters>4107.7431481188</DistanceMeters>
          </Trackpoint>
          <Trackpoint>
            <Time>2021-03-31T14:59:27.000Z</Time>
            <Position>
              <LatitudeDegrees>42.4585353769361972808837890625</LatitudeDegrees>
              <LongitudeDegrees>2.8389202617108821868896484375</LongitudeDegrees>
            </Position>
            <AltitudeMeters>500.79998779296875</AltitudeMeters>
            <DistanceMeters>4111.5608101494</DistanceMeters>
          </Trackpoint>
          <Trackpoint>
            <Time>2021-03-31T14:59:34.000Z</Time>
            <Position>
              <LatitudeDegrees>42.45854082517325878143310546875</LatitudeDegrees>
              <LongitudeDegrees>2.83883233554661273956298828125</LongitudeDegrees>
            </Position>
            <AltitudeMeters>501</AltitudeMeters>
            <DistanceMeters>4118.8065581747</DistanceMeters>
          </Trackpoint>
          <Trackpoint>
            <Time>2021-03-31T14:59:35.000Z</Time>
            <Position>
              <LatitudeDegrees>42.45854384265840053558349609375</LatitudeDegrees>
              <LongitudeDegrees>2.83881640993058681488037109375</LongitudeDegrees>
            </Position>
            <AltitudeMeters>501</AltitudeMeters>
            <DistanceMeters>4120.1571415456</DistanceMeters>
          </Trackpoint>
          <Trackpoint>
            <Time>2021-03-31T14:59:37.000Z</Time>
            <Position>
              <LatitudeDegrees>42.45854736305773258209228515625</LatitudeDegrees>
              <LongitudeDegrees>2.83878908492624759674072265625</LongitudeDegrees>
            </Position>
            <AltitudeMeters>501</AltitudeMeters>
            <DistanceMeters>4122.433819801</DistanceMeters>
          </Trackpoint>
          <Trackpoint>
            <Time>2021-03-31T14:59:38.000Z</Time>
            <Position>
              <LatitudeDegrees>42.45854233391582965850830078125</LatitudeDegrees>
              <LongitudeDegrees>2.83876930363476276397705078125</LongitudeDegrees>
            </Position>
            <AltitudeMeters>500.79998779296875</AltitudeMeters>
            <DistanceMeters>4124.1495717996</DistanceMeters>
          </Trackpoint>
          <Trackpoint>
            <Time>2021-03-31T14:59:40.000Z</Time>
            <Position>
              <LatitudeDegrees>42.45855021290481090545654296875</LatitudeDegrees>
              <LongitudeDegrees>2.8387271426618099212646484375</LongitudeDegrees>
            </Position>
            <AltitudeMeters>500.79998779296875</AltitudeMeters>
            <DistanceMeters>4127.7216157544</DistanceMeters>
          </Trackpoint>
          <Trackpoint>
            <Time>2021-03-31T14:59:47.000Z</Time>
            <Position>
              <LatitudeDegrees>42.45857569389045238494873046875</LatitudeDegrees>
              <LongitudeDegrees>2.8386493586003780364990234375</LongitudeDegrees>
            </Position>
            <AltitudeMeters>500.600006103515625</AltitudeMeters>
            <DistanceMeters>4134.711087377</DistanceMeters>
          </Trackpoint>
          <Trackpoint>
            <Time>2021-03-31T14:59:51.000Z</Time>
            <Position>
              <LatitudeDegrees>42.458576448261737823486328125</LatitudeDegrees>
              <LongitudeDegrees>2.83859680406749248504638671875</LongitudeDegrees>
            </Position>
            <AltitudeMeters>499.600006103515625</AltitudeMeters>
            <DistanceMeters>4139.0272254313</DistanceMeters>
          </Trackpoint>
          <Trackpoint>
            <Time>2021-03-31T14:59:52.000Z</Time>
            <Position>
              <LatitudeDegrees>42.4585719220340251922607421875</LatitudeDegrees>
              <LongitudeDegrees>2.8385823033750057220458984375</LongitudeDegrees>
            </Position>
            <AltitudeMeters>499.399993896484375</AltitudeMeters>
            <DistanceMeters>4140.3232170279</DistanceMeters>
          </Trackpoint>
          <Trackpoint>
            <Time>2021-03-31T14:59:54.000Z</Time>
            <Position>
              <LatitudeDegrees>42.45857141911983489990234375</LatitudeDegrees>
              <LongitudeDegrees>2.8385678865015506744384765625</LongitudeDegrees>
            </Position>
            <AltitudeMeters>499.20001220703125</AltitudeMeters>
            <DistanceMeters>4141.51010031</DistanceMeters>
          </Trackpoint>
          <Trackpoint>
            <Time>2021-03-31T14:59:59.000Z</Time>
            <Position>
              <LatitudeDegrees>42.45855255983769893646240234375</LatitudeDegrees>
              <LongitudeDegrees>2.83851767890155315399169921875</LongitudeDegrees>
            </Position>
            <AltitudeMeters>498.399993896484375</AltitudeMeters>
            <DistanceMeters>4146.1362521852</DistanceMeters>
          </Trackpoint>
          <Trackpoint>
            <Time>2021-03-31T15:00:02.000Z</Time>
            <Position>
              <LatitudeDegrees>42.458515428006649017333984375</LatitudeDegrees>
              <LongitudeDegrees>2.83848700113594532012939453125</LongitudeDegrees>
            </Position>
            <AltitudeMeters>497.79998779296875</AltitudeMeters>
            <DistanceMeters>4150.9770215839</DistanceMeters>
          </Trackpoint>
          <Trackpoint>
            <Time>2021-03-31T15:00:03.000Z</Time>
            <Position>
              <LatitudeDegrees>42.45850964449346065521240234375</LatitudeDegrees>
              <LongitudeDegrees>2.83848364837467670440673828125</LongitudeDegrees>
            </Position>
            <AltitudeMeters>497.20001220703125</AltitudeMeters>
            <DistanceMeters>4151.6753224703</DistanceMeters>
          </Trackpoint>
          <Trackpoint>
            <Time>2021-03-31T15:00:04.000Z</Time>
            <Position>
              <LatitudeDegrees>42.45850562117993831634521484375</LatitudeDegrees>
              <LongitudeDegrees>2.83847694285213947296142578125</LongitudeDegrees>
            </Position>
            <AltitudeMeters>497</AltitudeMeters>
            <DistanceMeters>4152.3736233568</DistanceMeters>
          </Trackpoint>
          <Trackpoint>
            <Time>2021-03-31T15:00:07.000Z</Time>
            <Position>
              <LatitudeDegrees>42.45850495062768459320068359375</LatitudeDegrees>
              <LongitudeDegrees>2.83844693563878536224365234375</LongitudeDegrees>
            </Position>
            <AltitudeMeters>496.20001220703125</AltitudeMeters>
            <DistanceMeters>4154.8369973378</DistanceMeters>
          </Trackpoint>
          <Trackpoint>
            <Time>2021-03-31T15:00:08.000Z</Time>
            <Position>
              <LatitudeDegrees>42.4585078842937946319580078125</LatitudeDegrees>
              <LongitudeDegrees>2.83844475634396076202392578125</LongitudeDegrees>
            </Position>
            <AltitudeMeters>496</AltitudeMeters>
            <DistanceMeters>4155.2171041953</DistanceMeters>
          </Trackpoint>
          <Trackpoint>
            <Time>2021-03-31T15:00:12.000Z</Time>
            <Position>
              <LatitudeDegrees>42.45849388651549816131591796875</LatitudeDegrees>
              <LongitudeDegrees>2.83842447213828563690185546875</LongitudeDegrees>
            </Position>
            <AltitudeMeters>496</AltitudeMeters>
            <DistanceMeters>4157.4977453401</DistanceMeters>
          </Trackpoint>
          <Trackpoint>
            <Time>2021-03-31T15:00:13.000Z</Time>
            <Position>
              <LatitudeDegrees>42.45849019847810268402099609375</LatitudeDegrees>
              <LongitudeDegrees>2.83841592259705066680908203125</LongitudeDegrees>
            </Position>
            <AltitudeMeters>496</AltitudeMeters>
            <DistanceMeters>4158.3096539436</DistanceMeters>
          </Trackpoint>
          <Trackpoint>
            <Time>2021-03-31T15:00:15.000Z</Time>
            <Position>
              <LatitudeDegrees>42.4584716744720935821533203125</LatitudeDegrees>
              <LongitudeDegrees>2.83839471638202667236328125</LongitudeDegrees>
            </Position>
            <AltitudeMeters>495.600006103515625</AltitudeMeters>
            <DistanceMeters>4161.0108206854</DistanceMeters>
          </Trackpoint>
          <Trackpoint>
            <Time>2021-03-31T15:00:17.000Z</Time>
            <Position>
              <LatitudeDegrees>42.45844761840999126434326171875</LatitudeDegrees>
              <LongitudeDegrees>2.8383766114711761474609375</LongitudeDegrees>
            </Position>
            <AltitudeMeters>495.20001220703125</AltitudeMeters>
            <DistanceMeters>4164.0753401423</DistanceMeters>
          </Trackpoint>
          <Trackpoint>
            <Time>2021-03-31T15:00:18.000Z</Time>
            <Position>
              <LatitudeDegrees>42.45843864977359771728515625</LatitudeDegrees>
              <LongitudeDegrees>2.8383637033402919769287109375</LongitudeDegrees>
            </Position>
            <AltitudeMeters>495</AltitudeMeters>
            <DistanceMeters>4165.5351682283</DistanceMeters>
          </Trackpoint>
          <Trackpoint>
            <Time>2021-03-31T15:00:19.000Z</Time>
            <Position>
              <LatitudeDegrees>42.45843202807009220123291015625</LatitudeDegrees>
              <LongitudeDegrees>2.838347442448139190673828125</LongitudeDegrees>
            </Position>
            <AltitudeMeters>494.79998779296875</AltitudeMeters>
            <DistanceMeters>4167.061523273</DistanceMeters>
          </Trackpoint>
          <Trackpoint>
            <Time>2021-03-31T15:00:27.000Z</Time>
            <Position>
              <LatitudeDegrees>42.45841828174889087677001953125</LatitudeDegrees>
              <LongitudeDegrees>2.8382359631359577178955078125</LongitudeDegrees>
            </Position>
            <AltitudeMeters>494.600006103515625</AltitudeMeters>
            <DistanceMeters>4176.3430602834</DistanceMeters>
          </Trackpoint>
          <Trackpoint>
            <Time>2021-03-31T15:00:31.000Z</Time>
            <Position>
              <LatitudeDegrees>42.45839833281934261322021484375</LatitudeDegrees>
              <LongitudeDegrees>2.83819028176367282867431640625</LongitudeDegrees>
            </Position>
            <AltitudeMeters>494</AltitudeMeters>
            <DistanceMeters>4180.7018767326</DistanceMeters>
          </Trackpoint>
          <Trackpoint>
            <Time>2021-03-31T15:00:35.000Z</Time>
            <Position>
              <LatitudeDegrees>42.45838223956525325775146484375</LatitudeDegrees>
              <LongitudeDegrees>2.83817184157669544219970703125</LongitudeDegrees>
            </Position>
            <AltitudeMeters>492.79998779296875</AltitudeMeters>
            <DistanceMeters>4183.0488634456</DistanceMeters>
          </Trackpoint>
          <Trackpoint>
            <Time>2021-03-31T15:00:39.000Z</Time>
            <Position>
              <LatitudeDegrees>42.45835709385573863983154296875</LatitudeDegrees>
              <LongitudeDegrees>2.838169075548648834228515625</LongitudeDegrees>
            </Position>
            <AltitudeMeters>491.600006103515625</AltitudeMeters>
            <DistanceMeters>4185.8549686929</DistanceMeters>
          </Trackpoint>
          <Trackpoint>
            <Time>2021-03-31T15:00:41.000Z</Time>
            <Position>
              <LatitudeDegrees>42.45834368281066417694091796875</LatitudeDegrees>
              <LongitudeDegrees>2.8381668962538242340087890625</LongitudeDegrees>
            </Position>
            <AltitudeMeters>490.399993896484375</AltitudeMeters>
            <DistanceMeters>4187.3574729728</DistanceMeters>
          </Trackpoint>
          <Trackpoint>
            <Time>2021-03-31T15:00:43.000Z</Time>
            <Position>
              <LatitudeDegrees>42.4583311937749385833740234375</LatitudeDegrees>
              <LongitudeDegrees>2.83816413022577762603759765625</LongitudeDegrees>
            </Position>
            <AltitudeMeters>490.20001220703125</AltitudeMeters>
            <DistanceMeters>4188.7605255965</DistanceMeters>
          </Trackpoint>
          <Trackpoint>
            <Time>2021-03-31T15:00:48.000Z</Time>
            <Position>
              <LatitudeDegrees>42.4583043716847896575927734375</LatitudeDegrees>
              <LongitudeDegrees>2.8381149284541606903076171875</LongitudeDegrees>
            </Position>
            <AltitudeMeters>489.20001220703125</AltitudeMeters>
            <DistanceMeters>4193.7852737232</DistanceMeters>
          </Trackpoint>
          <Trackpoint>
            <Time>2021-03-31T15:00:51.000Z</Time>
            <Position>
              <LatitudeDegrees>42.4582998454570770263671875</LatitudeDegrees>
              <LongitudeDegrees>2.8380837477743625640869140625</LongitudeDegrees>
            </Position>
            <AltitudeMeters>488.600006103515625</AltitudeMeters>
            <DistanceMeters>4196.3946180161</DistanceMeters>
          </Trackpoint>
          <Trackpoint>
            <Time>2021-03-31T15:00:54.000Z</Time>
            <Position>
              <LatitudeDegrees>42.45828769169747829437255859375</LatitudeDegrees>
              <LongitudeDegrees>2.83804762177169322967529296875</LongitudeDegrees>
            </Position>
            <AltitudeMeters>488</AltitudeMeters>
            <DistanceMeters>4199.653355486</DistanceMeters>
          </Trackpoint>
          <Trackpoint>
            <Time>2021-03-31T15:01:00.000Z</Time>
            <Position>
              <LatitudeDegrees>42.458281405270099639892578125</LatitudeDegrees>
              <LongitudeDegrees>2.83798056654632091522216796875</LongitudeDegrees>
            </Position>
            <AltitudeMeters>486.79998779296875</AltitudeMeters>
            <DistanceMeters>4205.2040870438</DistanceMeters>
          </Trackpoint>
          <Trackpoint>
            <Time>2021-03-31T15:01:01.000Z</Time>
            <Position>
              <LatitudeDegrees>42.45827771723270416259765625</LatitudeDegrees>
              <LongitudeDegrees>2.83797084353864192962646484375</LongitudeDegrees>
            </Position>
            <AltitudeMeters>486.79998779296875</AltitudeMeters>
            <DistanceMeters>4206.1005672743</DistanceMeters>
          </Trackpoint>
          <Trackpoint>
            <Time>2021-03-31T15:01:07.000Z</Time>
            <Position>
              <LatitudeDegrees>42.45824796147644519805908203125</LatitudeDegrees>
              <LongitudeDegrees>2.83793379552662372589111328125</LongitudeDegrees>
            </Position>
            <AltitudeMeters>485.79998779296875</AltitudeMeters>
            <DistanceMeters>4210.5980522642</DistanceMeters>
          </Trackpoint>
          <Trackpoint>
            <Time>2021-03-31T15:01:09.000Z</Time>
            <Position>
              <LatitudeDegrees>42.4582354724407196044921875</LatitudeDegrees>
              <LongitudeDegrees>2.8379181213676929473876953125</LongitudeDegrees>
            </Position>
            <AltitudeMeters>485.600006103515625</AltitudeMeters>
            <DistanceMeters>4212.4938292618</DistanceMeters>
          </Trackpoint>
          <Trackpoint>
            <Time>2021-03-31T15:01:10.000Z</Time>
            <Position>
              <LatitudeDegrees>42.4582242406904697418212890625</LatitudeDegrees>
              <LongitudeDegrees>2.83791468478739261627197265625</LongitudeDegrees>
            </Position>
            <AltitudeMeters>485.600006103515625</AltitudeMeters>
            <DistanceMeters>4213.7793268266</DistanceMeters>
          </Trackpoint>
          <Trackpoint>
            <Time>2021-03-31T15:01:16.000Z</Time>
            <Position>
              <LatitudeDegrees>42.45816648937761783599853515625</LatitudeDegrees>
              <LongitudeDegrees>2.83790923655033111572265625</LongitudeDegrees>
            </Position>
            <AltitudeMeters>485.600006103515625</AltitudeMeters>
            <DistanceMeters>4220.2229509225</DistanceMeters>
          </Trackpoint>
          <Trackpoint>
            <Time>2021-03-31T15:01:24.000Z</Time>
            <Position>
              <LatitudeDegrees>42.458117790520191192626953125</LatitudeDegrees>
              <LongitudeDegrees>2.8379278443753719329833984375</LongitudeDegrees>
            </Position>
            <AltitudeMeters>486</AltitudeMeters>
            <DistanceMeters>4225.8544363812</DistanceMeters>
          </Trackpoint>
          <Trackpoint>
            <Time>2021-03-31T15:01:28.000Z</Time>
            <Position>
              <LatitudeDegrees>42.4581166170537471771240234375</LatitudeDegrees>
              <LongitudeDegrees>2.837939076125621795654296875</LongitudeDegrees>
            </Position>
            <AltitudeMeters>486.20001220703125</AltitudeMeters>
            <DistanceMeters>4226.7855042298</DistanceMeters>
          </Trackpoint>
          <Trackpoint>
            <Time>2021-03-31T15:01:30.000Z</Time>
            <Position>
              <LatitudeDegrees>42.4581120908260345458984375</LatitudeDegrees>
              <LongitudeDegrees>2.83793949522078037261962890625</LongitudeDegrees>
            </Position>
            <AltitudeMeters>486.20001220703125</AltitudeMeters>
            <DistanceMeters>4227.288338338</DistanceMeters>
          </Trackpoint>
          <Trackpoint>
            <Time>2021-03-31T15:01:36.000Z</Time>
            <Position>
              <LatitudeDegrees>42.4581058882176876068115234375</LatitudeDegrees>
              <LongitudeDegrees>2.83792558126151561737060546875</LongitudeDegrees>
            </Position>
            <AltitudeMeters>485.600006103515625</AltitudeMeters>
            <DistanceMeters>4228.6254827341</DistanceMeters>
          </Trackpoint>
          <Trackpoint>
            <Time>2021-03-31T15:01:47.000Z</Time>
            <Position>
              <LatitudeDegrees>42.4581045471131801605224609375</LatitudeDegrees>
              <LongitudeDegrees>2.837933041155338287353515625</LongitudeDegrees>
            </Position>
            <AltitudeMeters>486.20001220703125</AltitudeMeters>
            <DistanceMeters>4229.2558186473</DistanceMeters>
          </Trackpoint>
          <Trackpoint>
            <Time>2021-03-31T15:01:58.000Z</Time>
            <Position>
              <LatitudeDegrees>42.4581085704267024993896484375</LatitudeDegrees>
              <LongitudeDegrees>2.83793010748922824859619140625</LongitudeDegrees>
            </Position>
            <AltitudeMeters>486.600006103515625</AltitudeMeters>
            <DistanceMeters>4229.7763013976</DistanceMeters>
          </Trackpoint>
          <Trackpoint>
            <Time>2021-03-31T15:02:00.000Z</Time>
            <Position>
              <LatitudeDegrees>42.4581085704267024993896484375</LatitudeDegrees>
              <LongitudeDegrees>2.8379298560321331024169921875</LongitudeDegrees>
            </Position>
            <AltitudeMeters>486.79998779296875</AltitudeMeters>
            <DistanceMeters>4229.7763013976</DistanceMeters>
          </Trackpoint>
          <Trackpoint>
            <Time>2021-03-31T15:02:01.000Z</Time>
            <Position>
              <LatitudeDegrees>42.4581085704267024993896484375</LatitudeDegrees>
              <LongitudeDegrees>2.8379288502037525177001953125</LongitudeDegrees>
            </Position>
            <AltitudeMeters>487</AltitudeMeters>
            <DistanceMeters>4229.871328112</DistanceMeters>
          </Trackpoint>
          <Trackpoint>
            <Time>2021-03-31T15:02:10.000Z</Time>
            <Position>
              <LatitudeDegrees>42.45814737863838672637939453125</LatitudeDegrees>
              <LongitudeDegrees>2.8378842584788799285888671875</LongitudeDegrees>
            </Position>
            <AltitudeMeters>486.79998779296875</AltitudeMeters>
            <DistanceMeters>4235.5339954563</DistanceMeters>
          </Trackpoint>
          <Trackpoint>
            <Time>2021-03-31T15:02:14.000Z</Time>
            <Position>
              <LatitudeDegrees>42.45818777941167354583740234375</LatitudeDegrees>
              <LongitudeDegrees>2.83782918937504291534423828125</LongitudeDegrees>
            </Position>
            <AltitudeMeters>486.399993896484375</AltitudeMeters>
            <DistanceMeters>4241.9114137665</DistanceMeters>
          </Trackpoint>
          <Trackpoint>
            <Time>2021-03-31T15:02:16.000Z</Time>
            <Position>
              <LatitudeDegrees>42.45819884352385997772216796875</LatitudeDegrees>
              <LongitudeDegrees>2.83781477250158786773681640625</LongitudeDegrees>
            </Position>
            <AltitudeMeters>486.20001220703125</AltitudeMeters>
            <DistanceMeters>4243.616607191</DistanceMeters>
          </Trackpoint>
          <Trackpoint>
            <Time>2021-03-31T15:02:17.000Z</Time>
            <Position>
              <LatitudeDegrees>42.45820035226643085479736328125</LatitudeDegrees>
              <LongitudeDegrees>2.83781544305384159088134765625</LongitudeDegrees>
            </Position>
            <AltitudeMeters>486.20001220703125</AltitudeMeters>
            <DistanceMeters>4243.8066606197</DistanceMeters>
          </Trackpoint>
          <Trackpoint>
            <Time>2021-03-31T15:02:18.000Z</Time>
            <Position>
              <LatitudeDegrees>42.458200268447399139404296875</LatitudeDegrees>
              <LongitudeDegrees>2.83781510777771472930908203125</LongitudeDegrees>
            </Position>
            <AltitudeMeters>486</AltitudeMeters>
            <DistanceMeters>4243.8066606197</DistanceMeters>
          </Trackpoint>
          <Trackpoint>
            <Time>2021-03-31T15:02:24.000Z</Time>
            <Position>
              <LatitudeDegrees>42.45818995870649814605712890625</LatitudeDegrees>
              <LongitudeDegrees>2.8378200531005859375</LongitudeDegrees>
            </Position>
            <AltitudeMeters>486.20001220703125</AltitudeMeters>
            <DistanceMeters>4245.0235963357</DistanceMeters>
          </Trackpoint>
          <Trackpoint>
            <Time>2021-03-31T15:02:32.000Z</Time>
            <Position>
              <LatitudeDegrees>42.45819364674389362335205078125</LatitudeDegrees>
              <LongitudeDegrees>2.837832458317279815673828125</LongitudeDegrees>
            </Position>
            <AltitudeMeters>485.79998779296875</AltitudeMeters>
            <DistanceMeters>4246.1236100827</DistanceMeters>
          </Trackpoint>
          <Trackpoint>
            <Time>2021-03-31T15:02:38.000Z</Time>
            <Position>
              <LatitudeDegrees>42.45819364674389362335205078125</LatitudeDegrees>
              <LongitudeDegrees>2.837832458317279815673828125</LongitudeDegrees>
            </Position>
            <AltitudeMeters>485.79998779296875</AltitudeMeters>
            <DistanceMeters>4246.1236100827</DistanceMeters>
          </Trackpoint>
          <Trackpoint>
            <Time>2021-03-31T15:02:48.000Z</Time>
            <Position>
              <LatitudeDegrees>42.45816774666309356689453125</LatitudeDegrees>
              <LongitudeDegrees>2.83786070533096790313720703125</LongitudeDegrees>
            </Position>
            <AltitudeMeters>485.79998779296875</AltitudeMeters>
            <DistanceMeters>4249.8223349728</DistanceMeters>
          </Trackpoint>
          <Trackpoint>
            <Time>2021-03-31T15:02:52.000Z</Time>
            <Position>
              <LatitudeDegrees>42.458137236535549163818359375</LatitudeDegrees>
              <LongitudeDegrees>2.83790295012295246124267578125</LongitudeDegrees>
            </Position>
            <AltitudeMeters>485.79998779296875</AltitudeMeters>
            <DistanceMeters>4254.677074875</DistanceMeters>
          </Trackpoint>
          <Trackpoint>
            <Time>2021-03-31T15:02:59.000Z</Time>
            <Position>
              <LatitudeDegrees>42.458121478557586669921875</LatitudeDegrees>
              <LongitudeDegrees>2.83794603310525417327880859375</LongitudeDegrees>
            </Position>
            <AltitudeMeters>485.79998779296875</AltitudeMeters>
            <DistanceMeters>4258.6249745625</DistanceMeters>
          </Trackpoint>
          <Trackpoint>
            <Time>2021-03-31T15:03:01.000Z</Time>
            <Position>
              <LatitudeDegrees>42.4581270106136798858642578125</LatitudeDegrees>
              <LongitudeDegrees>2.83794636838138103485107421875</LongitudeDegrees>
            </Position>
            <AltitudeMeters>485.79998779296875</AltitudeMeters>
            <DistanceMeters>4259.2408180578</DistanceMeters>
          </Trackpoint>
          <Trackpoint>
            <Time>2021-03-31T15:03:05.000Z</Time>
            <Position>
              <LatitudeDegrees>42.458144612610340118408203125</LatitudeDegrees>
              <LongitudeDegrees>2.83793278969824314117431640625</LongitudeDegrees>
            </Position>
            <AltitudeMeters>485.79998779296875</AltitudeMeters>
            <DistanceMeters>4261.4975774854</DistanceMeters>
          </Trackpoint>
          <Trackpoint>
            <Time>2021-03-31T15:03:10.000Z</Time>
            <Position>
              <LatitudeDegrees>42.45815341360867023468017578125</LatitudeDegrees>
              <LongitudeDegrees>2.837918959558010101318359375</LongitudeDegrees>
            </Position>
            <AltitudeMeters>485.79998779296875</AltitudeMeters>
            <DistanceMeters>4263.0000817653</DistanceMeters>
          </Trackpoint>
          <Trackpoint>
            <Time>2021-03-31T15:03:21.000Z</Time>
            <Position>
              <LatitudeDegrees>42.4581736139953136444091796875</LatitudeDegrees>
              <LongitudeDegrees>2.83790261484682559967041015625</LongitudeDegrees>
            </Position>
            <AltitudeMeters>485.79998779296875</AltitudeMeters>
            <DistanceMeters>4265.6163382406</DistanceMeters>
          </Trackpoint>
          <Trackpoint>
            <Time>2021-03-31T15:03:34.000Z</Time>
            <Position>
              <LatitudeDegrees>42.4581736139953136444091796875</LatitudeDegrees>
              <LongitudeDegrees>2.83790512941777706146240234375</LongitudeDegrees>
            </Position>
            <AltitudeMeters>485.79998779296875</AltitudeMeters>
            <DistanceMeters>4265.8063916693</DistanceMeters>
          </Trackpoint>
          <Trackpoint>
            <Time>2021-03-31T15:03:42.000Z</Time>
            <Position>
              <LatitudeDegrees>42.45817151851952075958251953125</LatitudeDegrees>
              <LongitudeDegrees>2.8379018604755401611328125</LongitudeDegrees>
            </Position>
            <AltitudeMeters>485.79998779296875</AltitudeMeters>
            <DistanceMeters>4266.1619490771</DistanceMeters>
          </Trackpoint>
          <Trackpoint>
            <Time>2021-03-31T15:03:59.000Z</Time>
            <Position>
              <LatitudeDegrees>42.45815408416092395782470703125</LatitudeDegrees>
              <LongitudeDegrees>2.83790596760809421539306640625</LongitudeDegrees>
            </Position>
            <AltitudeMeters>485.79998779296875</AltitudeMeters>
            <DistanceMeters>4268.1324649666</DistanceMeters>
          </Trackpoint>
          <Trackpoint>
            <Time>2021-03-31T15:04:24.000Z</Time>
            <Position>
              <LatitudeDegrees>42.45816171169281005859375</LatitudeDegrees>
              <LongitudeDegrees>2.83797922544181346893310546875</LongitudeDegrees>
            </Position>
            <AltitudeMeters>485.79998779296875</AltitudeMeters>
            <DistanceMeters>4274.2082326138</DistanceMeters>
          </Trackpoint>
          <Trackpoint>
            <Time>2021-03-31T15:04:45.000Z</Time>
            <Position>
              <LatitudeDegrees>42.45816900394856929779052734375</LatitudeDegrees>
              <LongitudeDegrees>2.83800269477069377899169921875</LongitudeDegrees>
            </Position>
            <AltitudeMeters>485.79998779296875</AltitudeMeters>
            <DistanceMeters>4276.29882033</DistanceMeters>
          </Trackpoint>
          <Trackpoint>
            <Time>2021-03-31T15:04:55.000Z</Time>
            <Position>
              <LatitudeDegrees>42.458164729177951812744140625</LatitudeDegrees>
              <LongitudeDegrees>2.8379975818097591400146484375</LongitudeDegrees>
            </Position>
            <AltitudeMeters>485.79998779296875</AltitudeMeters>
            <DistanceMeters>4276.9291562432</DistanceMeters>
          </Trackpoint>
          <Trackpoint>
            <Time>2021-03-31T15:04:59.000Z</Time>
            <Position>
              <LatitudeDegrees>42.4581632204353809356689453125</LatitudeDegrees>
              <LongitudeDegrees>2.83798894844949245452880859375</LongitudeDegrees>
            </Position>
            <AltitudeMeters>485.79998779296875</AltitudeMeters>
            <DistanceMeters>4277.6652300076</DistanceMeters>
          </Trackpoint>
          <Trackpoint>
            <Time>2021-03-31T15:05:18.000Z</Time>
            <Position>
              <LatitudeDegrees>42.45814302004873752593994140625</LatitudeDegrees>
              <LongitudeDegrees>2.83794553019106388092041015625</LongitudeDegrees>
            </Position>
            <AltitudeMeters>485.79998779296875</AltitudeMeters>
            <DistanceMeters>4281.8808189868</DistanceMeters>
          </Trackpoint>
          <Trackpoint>
            <Time>2021-03-31T15:05:21.000Z</Time>
            <Position>
              <LatitudeDegrees>42.458144612610340118408203125</LatitudeDegrees>
              <LongitudeDegrees>2.83794519491493701934814453125</LongitudeDegrees>
            </Position>
            <AltitudeMeters>485.79998779296875</AltitudeMeters>
            <DistanceMeters>4282.0708724156</DistanceMeters>
          </Trackpoint>
          <Trackpoint>
            <Time>2021-03-31T15:05:30.000Z</Time>
            <Position>
              <LatitudeDegrees>42.45814905501902103424072265625</LatitudeDegrees>
              <LongitudeDegrees>2.8379456140100955963134765625</LongitudeDegrees>
            </Position>
            <AltitudeMeters>485.79998779296875</AltitudeMeters>
            <DistanceMeters>4282.5737065238</DistanceMeters>
          </Trackpoint>
          <Trackpoint>
            <Time>2021-03-31T15:05:38.000Z</Time>
            <Position>
              <LatitudeDegrees>42.45814352296292781829833984375</LatitudeDegrees>
              <LongitudeDegrees>2.83794603310525417327880859375</LongitudeDegrees>
            </Position>
            <AltitudeMeters>485.79998779296875</AltitudeMeters>
            <DistanceMeters>4283.1895500191</DistanceMeters>
          </Trackpoint>
          <Trackpoint>
            <Time>2021-03-31T15:06:04.000Z</Time>
            <Position>
              <LatitudeDegrees>42.458139918744564056396484375</LatitudeDegrees>
              <LongitudeDegrees>2.837969250977039337158203125</LongitudeDegrees>
            </Position>
            <AltitudeMeters>485.79998779296875</AltitudeMeters>
            <DistanceMeters>4285.1370181463</DistanceMeters>
          </Trackpoint>
          <Trackpoint>
            <Time>2021-03-31T15:06:05.000Z</Time>
            <Position>
              <LatitudeDegrees>42.4581400863826274871826171875</LatitudeDegrees>
              <LongitudeDegrees>2.83796983771026134490966796875</LongitudeDegrees>
            </Position>
            <AltitudeMeters>485.79998779296875</AltitudeMeters>
            <DistanceMeters>4285.1370181463</DistanceMeters>
          </Trackpoint>
          <Trackpoint>
            <Time>2021-03-31T15:06:25.000Z</Time>
            <Position>
              <LatitudeDegrees>42.45813698507845401763916015625</LatitudeDegrees>
              <LongitudeDegrees>2.8379858471453189849853515625</LongitudeDegrees>
            </Position>
            <AltitudeMeters>485.79998779296875</AltitudeMeters>
            <DistanceMeters>4286.4942711052</DistanceMeters>
          </Trackpoint>
          <Trackpoint>
            <Time>2021-03-31T15:06:33.000Z</Time>
            <Position>
              <LatitudeDegrees>42.45813329704105854034423828125</LatitudeDegrees>
              <LongitudeDegrees>2.83798836171627044677734375</LongitudeDegrees>
            </Position>
            <AltitudeMeters>485.79998779296875</AltitudeMeters>
            <DistanceMeters>4286.9598050295</DistanceMeters>
          </Trackpoint>
          <Trackpoint>
            <Time>2021-03-31T15:06:48.000Z</Time>
            <Position>
              <LatitudeDegrees>42.45813195593655109405517578125</LatitudeDegrees>
              <LongitudeDegrees>2.837989367544651031494140625</LongitudeDegrees>
            </Position>
            <AltitudeMeters>485.79998779296875</AltitudeMeters>
            <DistanceMeters>4287.1498584582</DistanceMeters>
          </Trackpoint>
          <Trackpoint>
            <Time>2021-03-31T15:06:53.000Z</Time>
            <Position>
              <LatitudeDegrees>42.45813178829848766326904296875</LatitudeDegrees>
              <LongitudeDegrees>2.8379895351827144622802734375</LongitudeDegrees>
            </Position>
            <AltitudeMeters>485.79998779296875</AltitudeMeters>
            <DistanceMeters>4287.2448851726</DistanceMeters>
          </Trackpoint>
          <Trackpoint>
            <Time>2021-03-31T15:07:03.000Z</Time>
            <Position>
              <LatitudeDegrees>42.45813162066042423248291015625</LatitudeDegrees>
              <LongitudeDegrees>2.8379903733730316162109375</LongitudeDegrees>
            </Position>
            <AltitudeMeters>485.79998779296875</AltitudeMeters>
            <DistanceMeters>4287.3792732409</DistanceMeters>
          </Trackpoint>
          <Trackpoint>
            <Time>2021-03-31T15:07:18.000Z</Time>
            <Position>
              <LatitudeDegrees>42.4581317044794559478759765625</LatitudeDegrees>
              <LongitudeDegrees>2.83799112774431705474853515625</LongitudeDegrees>
            </Position>
            <AltitudeMeters>485.79998779296875</AltitudeMeters>
            <DistanceMeters>4287.5136613091</DistanceMeters>
          </Trackpoint>
          <Trackpoint>
            <Time>2021-03-31T15:07:53.000Z</Time>
            <Position>
              <LatitudeDegrees>42.45813245885074138641357421875</LatitudeDegrees>
              <LongitudeDegrees>2.8379871882498264312744140625</LongitudeDegrees>
            </Position>
            <AltitudeMeters>485.79998779296875</AltitudeMeters>
            <DistanceMeters>4287.8428435038</DistanceMeters>
          </Trackpoint>
          <Trackpoint>
            <Time>2021-03-31T15:08:02.000Z</Time>
            <Position>
              <LatitudeDegrees>42.4581323750317096710205078125</LatitudeDegrees>
              <LongitudeDegrees>2.83798626624047756195068359375</LongitudeDegrees>
            </Position>
            <AltitudeMeters>485.79998779296875</AltitudeMeters>
            <DistanceMeters>4287.9772315721</DistanceMeters>
          </Trackpoint>
          <Trackpoint>
            <Time>2021-03-31T15:08:18.000Z</Time>
            <Position>
              <LatitudeDegrees>42.45813262648880481719970703125</LatitudeDegrees>
              <LongitudeDegrees>2.837985344231128692626953125</LongitudeDegrees>
            </Position>
            <AltitudeMeters>485.79998779296875</AltitudeMeters>
            <DistanceMeters>4288.1116196403</DistanceMeters>
          </Trackpoint>
          <Trackpoint>
            <Time>2021-03-31T15:08:36.000Z</Time>
            <Position>
              <LatitudeDegrees>42.45813312940299510955810546875</LatitudeDegrees>
              <LongitudeDegrees>2.837984673678874969482421875</LongitudeDegrees>
            </Position>
            <AltitudeMeters>485.79998779296875</AltitudeMeters>
            <DistanceMeters>4288.2460077086</DistanceMeters>
          </Trackpoint>
          <Trackpoint>
            <Time>2021-03-31T15:08:52.000Z</Time>
            <Position>
              <LatitudeDegrees>42.45813363231718540191650390625</LatitudeDegrees>
              <LongitudeDegrees>2.83798458985984325408935546875</LongitudeDegrees>
            </Position>
            <AltitudeMeters>485.79998779296875</AltitudeMeters>
            <DistanceMeters>4288.2460077086</DistanceMeters>
          </Trackpoint>
          <Trackpoint>
            <Time>2021-03-31T15:09:43.000Z</Time>
            <Position>
              <LatitudeDegrees>42.45813614688813686370849609375</LatitudeDegrees>
              <LongitudeDegrees>2.83798878081142902374267578125</LongitudeDegrees>
            </Position>
            <AltitudeMeters>485.79998779296875</AltitudeMeters>
            <DistanceMeters>4288.6917225073</DistanceMeters>
          </Trackpoint>
          <Trackpoint>
            <Time>2021-03-31T15:09:51.000Z</Time>
            <Position>
              <LatitudeDegrees>42.45813664980232715606689453125</LatitudeDegrees>
              <LongitudeDegrees>2.83798911608755588531494140625</LongitudeDegrees>
            </Position>
            <AltitudeMeters>485.79998779296875</AltitudeMeters>
            <DistanceMeters>4288.6917225073</DistanceMeters>
          </Trackpoint>
          <Trackpoint>
            <Time>2021-03-31T15:09:54.000Z</Time>
            <Position>
              <LatitudeDegrees>42.45813681744039058685302734375</LatitudeDegrees>
              <LongitudeDegrees>2.8379891999065876007080078125</LongitudeDegrees>
            </Position>
            <AltitudeMeters>485.79998779296875</AltitudeMeters>
            <DistanceMeters>4288.7867492217</DistanceMeters>
          </Trackpoint>
          <Trackpoint>
            <Time>2021-03-31T15:10:00.000Z</Time>
            <Position>
              <LatitudeDegrees>42.45813715271651744842529296875</LatitudeDegrees>
              <LongitudeDegrees>2.83798928372561931610107421875</LongitudeDegrees>
            </Position>
            <AltitudeMeters>485.79998779296875</AltitudeMeters>
            <DistanceMeters>4288.7867492217</DistanceMeters>
          </Trackpoint>
          <Trackpoint>
            <Time>2021-03-31T15:10:18.000Z</Time>
            <Position>
              <LatitudeDegrees>42.458137236535549163818359375</LatitudeDegrees>
              <LongitudeDegrees>2.83798970282077789306640625</LongitudeDegrees>
            </Position>
            <AltitudeMeters>485.79998779296875</AltitudeMeters>
            <DistanceMeters>4288.7867492217</DistanceMeters>
          </Trackpoint>
          <Trackpoint>
            <Time>2021-03-31T15:10:21.000Z</Time>
            <Position>
              <LatitudeDegrees>42.458137236535549163818359375</LatitudeDegrees>
              <LongitudeDegrees>2.8379898704588413238525390625</LongitudeDegrees>
            </Position>
            <AltitudeMeters>485.79998779296875</AltitudeMeters>
            <DistanceMeters>4288.7867492217</DistanceMeters>
          </Trackpoint>
          <Trackpoint>
            <Time>2021-03-31T15:10:36.000Z</Time>
            <Position>
              <LatitudeDegrees>42.4581370688974857330322265625</LatitudeDegrees>
              <LongitudeDegrees>2.83799062483012676239013671875</LongitudeDegrees>
            </Position>
            <AltitudeMeters>485.79998779296875</AltitudeMeters>
            <DistanceMeters>4288.9211372899</DistanceMeters>
          </Trackpoint>
          <Trackpoint>
            <Time>2021-03-31T15:10:54.000Z</Time>
            <Position>
              <LatitudeDegrees>42.45813664980232715606689453125</LatitudeDegrees>
              <LongitudeDegrees>2.83799096010625362396240234375</LongitudeDegrees>
            </Position>
            <AltitudeMeters>485.79998779296875</AltitudeMeters>
            <DistanceMeters>4288.9211372899</DistanceMeters>
          </Trackpoint>
          <Trackpoint>
            <Time>2021-03-31T15:10:55.000Z</Time>
            <Position>
              <LatitudeDegrees>42.458136565983295440673828125</LatitudeDegrees>
              <LongitudeDegrees>2.83799096010625362396240234375</LongitudeDegrees>
            </Position>
            <AltitudeMeters>485.79998779296875</AltitudeMeters>
            <DistanceMeters>4288.9211372899</DistanceMeters>
          </Trackpoint>
          <Trackpoint>
            <Time>2021-03-31T15:11:26.000Z</Time>
            <Position>
              <LatitudeDegrees>42.45813631452620029449462890625</LatitudeDegrees>
              <LongitudeDegrees>2.83799179829657077789306640625</LongitudeDegrees>
            </Position>
            <AltitudeMeters>485.79998779296875</AltitudeMeters>
            <DistanceMeters>4289.0161640043</DistanceMeters>
          </Trackpoint>
          <Trackpoint>
            <Time>2021-03-31T15:11:29.000Z</Time>
            <Position>
              <LatitudeDegrees>42.45813631452620029449462890625</LatitudeDegrees>
              <LongitudeDegrees>2.837992049753665924072265625</LongitudeDegrees>
            </Position>
            <AltitudeMeters>485.79998779296875</AltitudeMeters>
            <DistanceMeters>4289.0161640043</DistanceMeters>
          </Trackpoint>
          <Trackpoint>
            <Time>2021-03-31T15:11:30.000Z</Time>
            <Position>
              <LatitudeDegrees>42.45813631452620029449462890625</LatitudeDegrees>
              <LongitudeDegrees>2.83799213357269763946533203125</LongitudeDegrees>
            </Position>
            <AltitudeMeters>485.79998779296875</AltitudeMeters>
            <DistanceMeters>4289.0161640043</DistanceMeters>
          </Trackpoint>
          <Trackpoint>
            <Time>2021-03-31T15:11:34.000Z</Time>
            <Position>
              <LatitudeDegrees>42.45813631452620029449462890625</LatitudeDegrees>
              <LongitudeDegrees>2.83799246884882450103759765625</LongitudeDegrees>
            </Position>
            <AltitudeMeters>485.79998779296875</AltitudeMeters>
            <DistanceMeters>4289.0161640043</DistanceMeters>
          </Trackpoint>
          <Trackpoint>
            <Time>2021-03-31T15:11:46.000Z</Time>
            <Position>
              <LatitudeDegrees>42.45813614688813686370849609375</LatitudeDegrees>
              <LongitudeDegrees>2.8379935584962368011474609375</LongitudeDegrees>
            </Position>
            <AltitudeMeters>485.79998779296875</AltitudeMeters>
            <DistanceMeters>4289.1111907186</DistanceMeters>
          </Trackpoint>
          <Trackpoint>
            <Time>2021-03-31T15:11:56.000Z</Time>
            <Position>
              <LatitudeDegrees>42.4581360630691051483154296875</LatitudeDegrees>
              <LongitudeDegrees>2.8379945643246173858642578125</LongitudeDegrees>
            </Position>
            <AltitudeMeters>485.79998779296875</AltitudeMeters>
            <DistanceMeters>4289.2455787869</DistanceMeters>
          </Trackpoint>
          <Trackpoint>
            <Time>2021-03-31T15:12:34.000Z</Time>
            <Position>
              <LatitudeDegrees>42.45813664980232715606689453125</LatitudeDegrees>
              <LongitudeDegrees>2.83799707889556884765625</LongitudeDegrees>
            </Position>
            <AltitudeMeters>485.79998779296875</AltitudeMeters>
            <DistanceMeters>4289.478345749</DistanceMeters>
          </Trackpoint>
          <Trackpoint>
            <Time>2021-03-31T15:12:38.000Z</Time>
            <Position>
              <LatitudeDegrees>42.4581367336213588714599609375</LatitudeDegrees>
              <LongitudeDegrees>2.83799699507653713226318359375</LongitudeDegrees>
            </Position>
            <AltitudeMeters>485.79998779296875</AltitudeMeters>
            <DistanceMeters>4289.478345749</DistanceMeters>
          </Trackpoint>
          <Trackpoint>
            <Time>2021-03-31T15:12:40.000Z</Time>
            <Position>
              <LatitudeDegrees>42.45813681744039058685302734375</LatitudeDegrees>
              <LongitudeDegrees>2.8379969112575054168701171875</LongitudeDegrees>
            </Position>
            <AltitudeMeters>485.79998779296875</AltitudeMeters>
            <DistanceMeters>4289.478345749</DistanceMeters>
          </Trackpoint>
          <Trackpoint>
            <Time>2021-03-31T15:12:42.000Z</Time>
            <Position>
              <LatitudeDegrees>42.45813698507845401763916015625</LatitudeDegrees>
              <LongitudeDegrees>2.837996743619441986083984375</LongitudeDegrees>
            </Position>
            <AltitudeMeters>485.79998779296875</AltitudeMeters>
            <DistanceMeters>4289.478345749</DistanceMeters>
          </Trackpoint>
          <Trackpoint>
            <Time>2021-03-31T15:13:02.000Z</Time>
            <Position>
              <LatitudeDegrees>42.4581387452781200408935546875</LatitudeDegrees>
              <LongitudeDegrees>2.83799397759139537811279296875</LongitudeDegrees>
            </Position>
            <AltitudeMeters>485.79998779296875</AltitudeMeters>
            <DistanceMeters>4289.7634258921</DistanceMeters>
          </Trackpoint>
          <Trackpoint>
            <Time>2021-03-31T15:13:07.000Z</Time>
            <Position>
              <LatitudeDegrees>42.45813916437327861785888671875</LatitudeDegrees>
              <LongitudeDegrees>2.8379930555820465087890625</LongitudeDegrees>
            </Position>
            <AltitudeMeters>485.79998779296875</AltitudeMeters>
            <DistanceMeters>4289.8978139604</DistanceMeters>
          </Trackpoint>
          <Trackpoint>
            <Time>2021-03-31T15:13:15.000Z</Time>
            <Position>
              <LatitudeDegrees>42.45813958346843719482421875</LatitudeDegrees>
              <LongitudeDegrees>2.83799163065850734710693359375</LongitudeDegrees>
            </Position>
            <AltitudeMeters>485.79998779296875</AltitudeMeters>
            <DistanceMeters>4290.0322020286</DistanceMeters>
          </Trackpoint>
          <Trackpoint>
            <Time>2021-03-31T15:13:22.000Z</Time>
            <Position>
              <LatitudeDegrees>42.4581397511065006256103515625</LatitudeDegrees>
              <LongitudeDegrees>2.8379905410110950469970703125</LongitudeDegrees>
            </Position>
            <AltitudeMeters>485.79998779296875</AltitudeMeters>
            <DistanceMeters>4290.0322020286</DistanceMeters>
          </Trackpoint>
          <Trackpoint>
            <Time>2021-03-31T15:13:48.000Z</Time>
            <Position>
              <LatitudeDegrees>42.4581389129161834716796875</LatitudeDegrees>
              <LongitudeDegrees>2.837986685335636138916015625</LongitudeDegrees>
            </Position>
            <AltitudeMeters>485.79998779296875</AltitudeMeters>
            <DistanceMeters>4290.3473699853</DistanceMeters>
          </Trackpoint>
          <Trackpoint>
            <Time>2021-03-31T15:14:00.000Z</Time>
            <Position>
              <LatitudeDegrees>42.4581384100019931793212890625</LatitudeDegrees>
              <LongitudeDegrees>2.8379850089550018310546875</LongitudeDegrees>
            </Position>
            <AltitudeMeters>485.79998779296875</AltitudeMeters>
            <DistanceMeters>4290.4817580535</DistanceMeters>
          </Trackpoint>
          <Trackpoint>
            <Time>2021-03-31T15:14:02.000Z</Time>
            <Position>
              <LatitudeDegrees>42.45813832618296146392822265625</LatitudeDegrees>
              <LongitudeDegrees>2.83798475749790668487548828125</LongitudeDegrees>
            </Position>
            <AltitudeMeters>485.79998779296875</AltitudeMeters>
            <DistanceMeters>4290.4817580535</DistanceMeters>
          </Trackpoint>
          <Trackpoint>
            <Time>2021-03-31T15:14:05.000Z</Time>
            <Position>
              <LatitudeDegrees>42.45813824236392974853515625</LatitudeDegrees>
              <LongitudeDegrees>2.83798433840274810791015625</LongitudeDegrees>
            </Position>
            <AltitudeMeters>485.79998779296875</AltitudeMeters>
            <DistanceMeters>4290.4817580535</DistanceMeters>
          </Trackpoint>
          <Trackpoint>
            <Time>2021-03-31T15:14:29.000Z</Time>
            <Position>
              <LatitudeDegrees>42.45813732035458087921142578125</LatitudeDegrees>
              <LongitudeDegrees>2.8379818238317966461181640625</LongitudeDegrees>
            </Position>
            <AltitudeMeters>485.79998779296875</AltitudeMeters>
            <DistanceMeters>4290.7145250157</DistanceMeters>
          </Trackpoint>
          <Trackpoint>
            <Time>2021-03-31T15:14:33.000Z</Time>
            <Position>
              <LatitudeDegrees>42.45813715271651744842529296875</LatitudeDegrees>
              <LongitudeDegrees>2.83798140473663806915283203125</LongitudeDegrees>
            </Position>
            <AltitudeMeters>485.79998779296875</AltitudeMeters>
            <DistanceMeters>4290.7145250157</DistanceMeters>
          </Trackpoint>
          <Trackpoint>
            <Time>2021-03-31T15:14:37.000Z</Time>
            <Position>
              <LatitudeDegrees>42.45813698507845401763916015625</LatitudeDegrees>
              <LongitudeDegrees>2.83798106946051120758056640625</LongitudeDegrees>
            </Position>
            <AltitudeMeters>485.79998779296875</AltitudeMeters>
            <DistanceMeters>4290.7145250157</DistanceMeters>
          </Trackpoint>
          <Trackpoint>
            <Time>2021-03-31T15:14:40.000Z</Time>
            <Position>
              <LatitudeDegrees>42.45813690125942230224609375</LatitudeDegrees>
              <LongitudeDegrees>2.8379808180034160614013671875</LongitudeDegrees>
            </Position>
            <AltitudeMeters>485.79998779296875</AltitudeMeters>
            <DistanceMeters>4290.7145250157</DistanceMeters>
          </Trackpoint>
          <Trackpoint>
            <Time>2021-03-31T15:14:42.000Z</Time>
            <Position>
              <LatitudeDegrees>42.45813681744039058685302734375</LatitudeDegrees>
              <LongitudeDegrees>2.837980650365352630615234375</LongitudeDegrees>
            </Position>
            <AltitudeMeters>485.79998779296875</AltitudeMeters>
            <DistanceMeters>4290.7145250157</DistanceMeters>
          </Trackpoint>
          <Trackpoint>
            <Time>2021-03-31T15:14:54.000Z</Time>
            <Position>
              <LatitudeDegrees>42.45813664980232715606689453125</LatitudeDegrees>
              <LongitudeDegrees>2.83797922544181346893310546875</LongitudeDegrees>
            </Position>
            <AltitudeMeters>485.79998779296875</AltitudeMeters>
            <DistanceMeters>4290.879116113</DistanceMeters>
          </Trackpoint>
          <Trackpoint>
            <Time>2021-03-31T15:15:02.000Z</Time>
            <Position>
              <LatitudeDegrees>42.458136565983295440673828125</LatitudeDegrees>
              <LongitudeDegrees>2.837978303432464599609375</LongitudeDegrees>
            </Position>
            <AltitudeMeters>485.79998779296875</AltitudeMeters>
            <DistanceMeters>4290.879116113</DistanceMeters>
          </Trackpoint>
          <Trackpoint>
            <Time>2021-03-31T15:15:12.000Z</Time>
            <Position>
              <LatitudeDegrees>42.4581363983452320098876953125</LatitudeDegrees>
              <LongitudeDegrees>2.8379771299660205841064453125</LongitudeDegrees>
            </Position>
            <AltitudeMeters>485.79998779296875</AltitudeMeters>
            <DistanceMeters>4290.9741428274</DistanceMeters>
          </Trackpoint>
          <Trackpoint>
            <Time>2021-03-31T15:15:15.000Z</Time>
            <Position>
              <LatitudeDegrees>42.4581363983452320098876953125</LatitudeDegrees>
              <LongitudeDegrees>2.8379767946898937225341796875</LongitudeDegrees>
            </Position>
            <AltitudeMeters>485.79998779296875</AltitudeMeters>
            <DistanceMeters>4290.9741428274</DistanceMeters>
          </Trackpoint>
          <Trackpoint>
            <Time>2021-03-31T15:15:18.000Z</Time>
            <Position>
              <LatitudeDegrees>42.4581363983452320098876953125</LatitudeDegrees>
              <LongitudeDegrees>2.8379764594137668609619140625</LongitudeDegrees>
            </Position>
            <AltitudeMeters>485.600006103515625</AltitudeMeters>
            <DistanceMeters>4290.9741428274</DistanceMeters>
          </Trackpoint>
          <Trackpoint>
            <Time>2021-03-31T15:15:21.000Z</Time>
            <Position>
              <LatitudeDegrees>42.45813631452620029449462890625</LatitudeDegrees>
              <LongitudeDegrees>2.8379761241376399993896484375</LongitudeDegrees>
            </Position>
            <AltitudeMeters>485.600006103515625</AltitudeMeters>
            <DistanceMeters>4290.9741428274</DistanceMeters>
          </Trackpoint>
          <Trackpoint>
            <Time>2021-03-31T15:15:23.000Z</Time>
            <Position>
              <LatitudeDegrees>42.45813631452620029449462890625</LatitudeDegrees>
              <LongitudeDegrees>2.837975956499576568603515625</LongitudeDegrees>
            </Position>
            <AltitudeMeters>485.79998779296875</AltitudeMeters>
            <DistanceMeters>4290.9741428274</DistanceMeters>
          </Trackpoint>
          <Trackpoint>
            <Time>2021-03-31T15:15:25.000Z</Time>
            <Position>
              <LatitudeDegrees>42.45813631452620029449462890625</LatitudeDegrees>
              <LongitudeDegrees>2.8379757888615131378173828125</LongitudeDegrees>
            </Position>
            <AltitudeMeters>485.79998779296875</AltitudeMeters>
            <DistanceMeters>4290.9741428274</DistanceMeters>
          </Trackpoint>
          <Trackpoint>
            <Time>2021-03-31T15:15:34.000Z</Time>
            <Position>
              <LatitudeDegrees>42.45813614688813686370849609375</LatitudeDegrees>
              <LongitudeDegrees>2.83797495067119598388671875</LongitudeDegrees>
            </Position>
            <AltitudeMeters>485.600006103515625</AltitudeMeters>
            <DistanceMeters>4291.0691695418</DistanceMeters>
          </Trackpoint>
          <Trackpoint>
            <Time>2021-03-31T15:15:42.000Z</Time>
            <Position>
              <LatitudeDegrees>42.458135895431041717529296875</LatitudeDegrees>
              <LongitudeDegrees>2.83797419629991054534912109375</LongitudeDegrees>
            </Position>
            <AltitudeMeters>485.79998779296875</AltitudeMeters>
            <DistanceMeters>4291.1641962561</DistanceMeters>
          </Trackpoint>
          <Trackpoint>
            <Time>2021-03-31T15:15:47.000Z</Time>
            <Position>
              <LatitudeDegrees>42.4581357277929782867431640625</LatitudeDegrees>
              <LongitudeDegrees>2.83797369338572025299072265625</LongitudeDegrees>
            </Position>
            <AltitudeMeters>486</AltitudeMeters>
            <DistanceMeters>4291.1641962561</DistanceMeters>
          </Trackpoint>
          <Trackpoint>
            <Time>2021-03-31T15:15:51.000Z</Time>
            <Position>
              <LatitudeDegrees>42.4581174552440643310546875</LatitudeDegrees>
              <LongitudeDegrees>2.83792373724281787872314453125</LongitudeDegrees>
            </Position>
            <AltitudeMeters>485.79998779296875</AltitudeMeters>
            <DistanceMeters>4295.7432613903</DistanceMeters>
          </Trackpoint>
          <Trackpoint>
            <Time>2021-03-31T15:15:54.000Z</Time>
            <Position>
              <LatitudeDegrees>42.45809121988713741302490234375</LatitudeDegrees>
              <LongitudeDegrees>2.83783279359340667724609375</LongitudeDegrees>
            </Position>
            <AltitudeMeters>485.399993896484375</AltitudeMeters>
            <DistanceMeters>4303.761624333</DistanceMeters>
          </Trackpoint>
          <Trackpoint>
            <Time>2021-03-31T15:16:02.000Z</Time>
            <Position>
              <LatitudeDegrees>42.458032630383968353271484375</LatitudeDegrees>
              <LongitudeDegrees>2.83763389103114604949951171875</LongitudeDegrees>
            </Position>
            <AltitudeMeters>486.399993896484375</AltitudeMeters>
            <DistanceMeters>4321.3479860433</DistanceMeters>
          </Trackpoint>
          <Trackpoint>
            <Time>2021-03-31T15:16:06.000Z</Time>
            <Position>
              <LatitudeDegrees>42.4580207280814647674560546875</LatitudeDegrees>
              <LongitudeDegrees>2.83758091740310192108154296875</LongitudeDegrees>
            </Position>
            <AltitudeMeters>486.399993896484375</AltitudeMeters>
            <DistanceMeters>4325.8953891546</DistanceMeters>
          </Trackpoint>
          <Trackpoint>
            <Time>2021-03-31T15:16:08.000Z</Time>
            <Position>
              <LatitudeDegrees>42.45802600868046283721923828125</LatitudeDegrees>
              <LongitudeDegrees>2.837543785572052001953125</LongitudeDegrees>
            </Position>
            <AltitudeMeters>486.600006103515625</AltitudeMeters>
            <DistanceMeters>4328.9994335431</DistanceMeters>
          </Trackpoint>
          <Trackpoint>
            <Time>2021-03-31T15:16:10.000Z</Time>
            <Position>
              <LatitudeDegrees>42.458023913204669952392578125</LatitudeDegrees>
              <LongitudeDegrees>2.83751905895769596099853515625</LongitudeDegrees>
            </Position>
            <AltitudeMeters>486.79998779296875</AltitudeMeters>
            <DistanceMeters>4331.0419553464</DistanceMeters>
          </Trackpoint>
          <Trackpoint>
            <Time>2021-03-31T15:16:11.000Z</Time>
            <Position>
              <LatitudeDegrees>42.4580213986337184906005859375</LatitudeDegrees>
              <LongitudeDegrees>2.8375074081122875213623046875</LongitudeDegrees>
            </Position>
            <AltitudeMeters>486.79998779296875</AltitudeMeters>
            <DistanceMeters>4332.0386039349</DistanceMeters>
          </Trackpoint>
          <Trackpoint>
            <Time>2021-03-31T15:16:12.000Z</Time>
            <Position>
              <LatitudeDegrees>42.45801963843405246734619140625</LatitudeDegrees>
              <LongitudeDegrees>2.8374953381717205047607421875</LongitudeDegrees>
            </Position>
            <AltitudeMeters>487</AltitudeMeters>
            <DistanceMeters>4333.0532116002</DistanceMeters>
          </Trackpoint>
          <Trackpoint>
            <Time>2021-03-31T15:16:13.000Z</Time>
            <Position>
              <LatitudeDegrees>42.45801745913922786712646484375</LatitudeDegrees>
              <LongitudeDegrees>2.8374836035072803497314453125</LongitudeDegrees>
            </Position>
            <AltitudeMeters>487</AltitudeMeters>
            <DistanceMeters>4334.0543801601</DistanceMeters>
          </Trackpoint>
          <Trackpoint>
            <Time>2021-03-31T15:16:15.000Z</Time>
            <Position>
              <LatitudeDegrees>42.458011843264102935791015625</LatitudeDegrees>
              <LongitudeDegrees>2.83746457658708095550537109375</LongitudeDegrees>
            </Position>
            <AltitudeMeters>487</AltitudeMeters>
            <DistanceMeters>4335.7382578289</DistanceMeters>
          </Trackpoint>
          <Trackpoint>
            <Time>2021-03-31T15:16:18.000Z</Time>
            <Position>
              <LatitudeDegrees>42.4580046348273754119873046875</LatitudeDegrees>
              <LongitudeDegrees>2.83743180334568023681640625</LongitudeDegrees>
            </Position>
            <AltitudeMeters>487.20001220703125</AltitudeMeters>
            <DistanceMeters>4338.5459716205</DistanceMeters>
          </Trackpoint>
          <Trackpoint>
            <Time>2021-03-31T15:16:19.000Z</Time>
            <Position>
              <LatitudeDegrees>42.4580061435699462890625</LatitudeDegrees>
              <LongitudeDegrees>2.83741378225386142730712890625</LongitudeDegrees>
            </Position>
            <AltitudeMeters>487.20001220703125</AltitudeMeters>
            <DistanceMeters>4340.0364073974</DistanceMeters>
          </Trackpoint>
          <Trackpoint>
            <Time>2021-03-31T15:16:21.000Z</Time>
            <Position>
              <LatitudeDegrees>42.4579949118196964263916015625</LatitudeDegrees>
              <LongitudeDegrees>2.8373924084007740020751953125</LongitudeDegrees>
            </Position>
            <AltitudeMeters>487.399993896484375</AltitudeMeters>
            <DistanceMeters>4342.1908120233</DistanceMeters>
          </Trackpoint>
          <Trackpoint>
            <Time>2021-03-31T15:16:29.000Z</Time>
            <Position>
              <LatitudeDegrees>42.4579570256173610687255859375</LatitudeDegrees>
              <LongitudeDegrees>2.8373109363019466400146484375</LongitudeDegrees>
            </Position>
            <AltitudeMeters>487.600006103515625</AltitudeMeters>
            <DistanceMeters>4350.0991816057</DistanceMeters>
          </Trackpoint>
          <Trackpoint>
            <Time>2021-03-31T15:16:32.000Z</Time>
            <Position>
              <LatitudeDegrees>42.45793967507779598236083984375</LatitudeDegrees>
              <LongitudeDegrees>2.8372807614505290985107421875</LongitudeDegrees>
            </Position>
            <AltitudeMeters>488</AltitudeMeters>
            <DistanceMeters>4353.2408170959</DistanceMeters>
          </Trackpoint>
          <Trackpoint>
            <Time>2021-03-31T15:16:34.000Z</Time>
            <Position>
              <LatitudeDegrees>42.457931376993656158447265625</LatitudeDegrees>
              <LongitudeDegrees>2.83725771121680736541748046875</LongitudeDegrees>
            </Position>
            <AltitudeMeters>488.20001220703125</AltitudeMeters>
            <DistanceMeters>4355.3486115855</DistanceMeters>
          </Trackpoint>
          <Trackpoint>
            <Time>2021-03-31T15:16:36.000Z</Time>
            <Position>
              <LatitudeDegrees>42.45792140252888202667236328125</LatitudeDegrees>
              <LongitudeDegrees>2.83724061213433742523193359375</LongitudeDegrees>
            </Position>
            <AltitudeMeters>488.20001220703125</AltitudeMeters>
            <DistanceMeters>4357.136528547</DistanceMeters>
          </Trackpoint>
          <Trackpoint>
            <Time>2021-03-31T15:16:37.000Z</Time>
            <Position>
              <LatitudeDegrees>42.45791553519666194915771484375</LatitudeDegrees>
              <LongitudeDegrees>2.837232649326324462890625</LongitudeDegrees>
            </Position>
            <AltitudeMeters>488.399993896484375</AltitudeMeters>
            <DistanceMeters>4358.0578467253</DistanceMeters>
          </Trackpoint>
          <Trackpoint>
            <Time>2021-03-31T15:16:39.000Z</Time>
            <Position>
              <LatitudeDegrees>42.4579094164073467254638671875</LatitudeDegrees>
              <LongitudeDegrees>2.8372200764715671539306640625</LongitudeDegrees>
            </Position>
            <AltitudeMeters>488.399993896484375</AltitudeMeters>
            <DistanceMeters>4359.2968434951</DistanceMeters>
          </Trackpoint>
          <Trackpoint>
            <Time>2021-03-31T15:16:41.000Z</Time>
            <Position>
              <LatitudeDegrees>42.4578996933996677398681640625</LatitudeDegrees>
              <LongitudeDegrees>2.8372033126652240753173828125</LongitudeDegrees>
            </Position>
            <AltitudeMeters>488.399993896484375</AltitudeMeters>
            <DistanceMeters>4361.0490495306</DistanceMeters>
          </Trackpoint>
          <Trackpoint>
            <Time>2021-03-31T15:16:44.000Z</Time>
            <Position>
              <LatitudeDegrees>42.45789038948714733123779296875</LatitudeDegrees>
              <LongitudeDegrees>2.83717154525220394134521484375</LongitudeDegrees>
            </Position>
            <AltitudeMeters>488.600006103515625</AltitudeMeters>
            <DistanceMeters>4363.8551547779</DistanceMeters>
          </Trackpoint>
          <Trackpoint>
            <Time>2021-03-31T15:16:48.000Z</Time>
            <Position>
              <LatitudeDegrees>42.457874715328216552734375</LatitudeDegrees>
              <LongitudeDegrees>2.83713734708726406097412109375</LongitudeDegrees>
            </Position>
            <AltitudeMeters>489</AltitudeMeters>
            <DistanceMeters>4367.1606641936</DistanceMeters>
          </Trackpoint>
          <Trackpoint>
            <Time>2021-03-31T15:16:49.000Z</Time>
            <Position>
              <LatitudeDegrees>42.45787211693823337554931640625</LatitudeDegrees>
              <LongitudeDegrees>2.8371245227754116058349609375</LongitudeDegrees>
            </Position>
            <AltitudeMeters>489</AltitudeMeters>
            <DistanceMeters>4368.2482946521</DistanceMeters>
          </Trackpoint>
          <Trackpoint>
            <Time>2021-03-31T15:16:52.000Z</Time>
            <Position>
              <LatitudeDegrees>42.4578614719212055206298828125</LatitudeDegrees>
              <LongitudeDegrees>2.8370839543640613555908203125</LongitudeDegrees>
            </Position>
            <AltitudeMeters>489.399993896484375</AltitudeMeters>
            <DistanceMeters>4371.7834927793</DistanceMeters>
          </Trackpoint>
          <Trackpoint>
            <Time>2021-03-31T15:16:53.000Z</Time>
            <Position>
              <LatitudeDegrees>42.4578591249883174896240234375</LatitudeDegrees>
              <LongitudeDegrees>2.83707364462316036224365234375</LongitudeDegrees>
            </Position>
            <AltitudeMeters>489.399993896484375</AltitudeMeters>
            <DistanceMeters>4372.6749223766</DistanceMeters>
          </Trackpoint>
          <Trackpoint>
            <Time>2021-03-31T15:16:58.000Z</Time>
            <Position>
              <LatitudeDegrees>42.45785987935960292816162109375</LatitudeDegrees>
              <LongitudeDegrees>2.83701715059578418731689453125</LongitudeDegrees>
            </Position>
            <AltitudeMeters>489.600006103515625</AltitudeMeters>
            <DistanceMeters>4377.3147178724</DistanceMeters>
          </Trackpoint>
          <Trackpoint>
            <Time>2021-03-31T15:16:59.000Z</Time>
            <Position>
              <LatitudeDegrees>42.45785702951252460479736328125</LatitudeDegrees>
              <LongitudeDegrees>2.837008349597454071044921875</LongitudeDegrees>
            </Position>
            <AltitudeMeters>489.79998779296875</AltitudeMeters>
            <DistanceMeters>4378.109768406</DistanceMeters>
          </Trackpoint>
          <Trackpoint>
            <Time>2021-03-31T15:17:06.000Z</Time>
            <Position>
              <LatitudeDegrees>42.457860969007015228271484375</LatitudeDegrees>
              <LongitudeDegrees>2.83689728938043117523193359375</LongitudeDegrees>
            </Position>
            <AltitudeMeters>489.79998779296875</AltitudeMeters>
            <DistanceMeters>4387.2402484444</DistanceMeters>
          </Trackpoint>
          <Trackpoint>
            <Time>2021-03-31T15:17:07.000Z</Time>
            <Position>
              <LatitudeDegrees>42.457870356738567352294921875</LatitudeDegrees>
              <LongitudeDegrees>2.8368851356208324432373046875</LongitudeDegrees>
            </Position>
            <AltitudeMeters>489.79998779296875</AltitudeMeters>
            <DistanceMeters>4388.6845294622</DistanceMeters>
          </Trackpoint>
          <Trackpoint>
            <Time>2021-03-31T15:17:08.000Z</Time>
            <Position>
              <LatitudeDegrees>42.457880079746246337890625</LatitudeDegrees>
              <LongitudeDegrees>2.836872898042201995849609375</LongitudeDegrees>
            </Position>
            <AltitudeMeters>490</AltitudeMeters>
            <DistanceMeters>4390.162798213</DistanceMeters>
          </Trackpoint>
          <Trackpoint>
            <Time>2021-03-31T15:17:12.000Z</Time>
            <Position>
              <LatitudeDegrees>42.45789826847612857818603515625</LatitudeDegrees>
              <LongitudeDegrees>2.83682269044220447540283203125</LongitudeDegrees>
            </Position>
            <AltitudeMeters>490.600006103515625</AltitudeMeters>
            <DistanceMeters>4394.7556468468</DistanceMeters>
          </Trackpoint>
          <Trackpoint>
            <Time>2021-03-31T15:17:16.000Z</Time>
            <Position>
              <LatitudeDegrees>42.4579144455492496490478515625</LatitudeDegrees>
              <LongitudeDegrees>2.83677575178444385528564453125</LongitudeDegrees>
            </Position>
            <AltitudeMeters>491</AltitudeMeters>
            <DistanceMeters>4399.0106795459</DistanceMeters>
          </Trackpoint>
          <Trackpoint>
            <Time>2021-03-31T15:17:19.000Z</Time>
            <Position>
              <LatitudeDegrees>42.457931041717529296875</LatitudeDegrees>
              <LongitudeDegrees>2.83674993552267551422119140625</LongitudeDegrees>
            </Position>
            <AltitudeMeters>491.399993896484375</AltitudeMeters>
            <DistanceMeters>4401.8200009607</DistanceMeters>
          </Trackpoint>
          <Trackpoint>
            <Time>2021-03-31T15:17:25.000Z</Time>
            <Position>
              <LatitudeDegrees>42.4579538404941558837890625</LatitudeDegrees>
              <LongitudeDegrees>2.836694531142711639404296875</LongitudeDegrees>
            </Position>
            <AltitudeMeters>492</AltitudeMeters>
            <DistanceMeters>4407.0291640139</DistanceMeters>
          </Trackpoint>
          <Trackpoint>
            <Time>2021-03-31T15:17:27.000Z</Time>
            <Position>
              <LatitudeDegrees>42.4579674191772937774658203125</LatitudeDegrees>
              <LongitudeDegrees>2.8366760909557342529296875</LongitudeDegrees>
            </Position>
            <AltitudeMeters>492.20001220703125</AltitudeMeters>
            <DistanceMeters>4409.1667370958</DistanceMeters>
          </Trackpoint>
          <Trackpoint>
            <Time>2021-03-31T15:17:28.000Z</Time>
            <Position>
              <LatitudeDegrees>42.4579734541475772857666015625</LatitudeDegrees>
              <LongitudeDegrees>2.8366685472428798675537109375</LongitudeDegrees>
            </Position>
            <AltitudeMeters>492.20001220703125</AltitudeMeters>
            <DistanceMeters>4410.0782013205</DistanceMeters>
          </Trackpoint>
          <Trackpoint>
            <Time>2021-03-31T15:17:30.000Z</Time>
            <Position>
              <LatitudeDegrees>42.4579858593642711639404296875</LatitudeDegrees>
              <LongitudeDegrees>2.83665396273136138916015625</LongitudeDegrees>
            </Position>
            <AltitudeMeters>492.399993896484375</AltitudeMeters>
            <DistanceMeters>4411.9060766675</DistanceMeters>
          </Trackpoint>
          <Trackpoint>
            <Time>2021-03-31T15:17:34.000Z</Time>
            <Position>
              <LatitudeDegrees>42.4580061435699462890625</LatitudeDegrees>
              <LongitudeDegrees>2.83660727553069591522216796875</LongitudeDegrees>
            </Position>
            <AltitudeMeters>493.399993896484375</AltitudeMeters>
            <DistanceMeters>4416.3551133683</DistanceMeters>
          </Trackpoint>
          <Trackpoint>
            <Time>2021-03-31T15:17:37.000Z</Time>
            <Position>
              <LatitudeDegrees>42.45801595039665699005126953125</LatitudeDegrees>
              <LongitudeDegrees>2.83657743595540523529052734375</LongitudeDegrees>
            </Position>
            <AltitudeMeters>494</AltitudeMeters>
            <DistanceMeters>4419.0361469096</DistanceMeters>
          </Trackpoint>
          <Trackpoint>
            <Time>2021-03-31T15:17:41.000Z</Time>
            <Position>
              <LatitudeDegrees>42.4580190517008304595947265625</LatitudeDegrees>
              <LongitudeDegrees>2.83652697689831256866455078125</LongitudeDegrees>
            </Position>
            <AltitudeMeters>494.399993896484375</AltitudeMeters>
            <DistanceMeters>4423.194583682</DistanceMeters>
          </Trackpoint>
          <Trackpoint>
            <Time>2021-03-31T15:17:43.000Z</Time>
            <Position>
              <LatitudeDegrees>42.45802232064306735992431640625</LatitudeDegrees>
              <LongitudeDegrees>2.8365069441497325897216796875</LongitudeDegrees>
            </Position>
            <AltitudeMeters>494.600006103515625</AltitudeMeters>
            <DistanceMeters>4424.8838155063</DistanceMeters>
          </Trackpoint>
          <Trackpoint>
            <Time>2021-03-31T15:17:49.000Z</Time>
            <Position>
              <LatitudeDegrees>42.45803958736360073089599609375</LatitudeDegrees>
              <LongitudeDegrees>2.83644609153270721435546875</LongitudeDegrees>
            </Position>
            <AltitudeMeters>494.79998779296875</AltitudeMeters>
            <DistanceMeters>4430.2382989277</DistanceMeters>
          </Trackpoint>
          <Trackpoint>
            <Time>2021-03-31T15:17:55.000Z</Time>
            <Position>
              <LatitudeDegrees>42.45806490071117877960205078125</LatitudeDegrees>
              <LongitudeDegrees>2.83637861721217632293701171875</LongitudeDegrees>
            </Position>
            <AltitudeMeters>495.600006103515625</AltitudeMeters>
            <DistanceMeters>4436.4536562808</DistanceMeters>
          </Trackpoint>
          <Trackpoint>
            <Time>2021-03-31T15:17:57.000Z</Time>
            <Position>
              <LatitudeDegrees>42.4580683372914791107177734375</LatitudeDegrees>
              <LongitudeDegrees>2.83635799773037433624267578125</LongitudeDegrees>
            </Position>
            <AltitudeMeters>496</AltitudeMeters>
            <DistanceMeters>4438.1851254198</DistanceMeters>
          </Trackpoint>
          <Trackpoint>
            <Time>2021-03-31T15:18:04.000Z</Time>
            <Position>
              <LatitudeDegrees>42.45806892402470111846923828125</LatitudeDegrees>
              <LongitudeDegrees>2.836272083222866058349609375</LongitudeDegrees>
            </Position>
            <AltitudeMeters>496.399993896484375</AltitudeMeters>
            <DistanceMeters>4445.2401790241</DistanceMeters>
          </Trackpoint>
          <Trackpoint>
            <Time>2021-03-31T15:18:05.000Z</Time>
            <Position>
              <LatitudeDegrees>42.458069510757923126220703125</LatitudeDegrees>
              <LongitudeDegrees>2.8362571634352207183837890625</LongitudeDegrees>
            </Position>
            <AltitudeMeters>496.399993896484375</AltitudeMeters>
            <DistanceMeters>4446.4645125937</DistanceMeters>
          </Trackpoint>
          <Trackpoint>
            <Time>2021-03-31T15:18:06.000Z</Time>
            <Position>
              <LatitudeDegrees>42.45807194150984287261962890625</LatitudeDegrees>
              <LongitudeDegrees>2.8362442553043365478515625</LongitudeDegrees>
            </Position>
            <AltitudeMeters>496.399993896484375</AltitudeMeters>
            <DistanceMeters>4447.5562864213</DistanceMeters>
          </Trackpoint>
          <Trackpoint>
            <Time>2021-03-31T15:18:09.000Z</Time>
            <Position>
              <LatitudeDegrees>42.4580804072320461273193359375</LatitudeDegrees>
              <LongitudeDegrees>2.83620108850300312042236328125</LongitudeDegrees>
            </Position>
            <AltitudeMeters>496.79998779296875</AltitudeMeters>
            <DistanceMeters>4451.2243668323</DistanceMeters>
          </Trackpoint>
          <Trackpoint>
            <Time>2021-03-31T15:18:11.000Z</Time>
            <Position>
              <LatitudeDegrees>42.45808283798396587371826171875</LatitudeDegrees>
              <LongitudeDegrees>2.83617761917412281036376953125</LongitudeDegrees>
            </Position>
            <AltitudeMeters>497.399993896484375</AltitudeMeters>
            <DistanceMeters>4453.1695151634</DistanceMeters>
          </Trackpoint>
          <Trackpoint>
            <Time>2021-03-31T15:18:18.000Z</Time>
            <Position>
              <LatitudeDegrees>42.45807579718530178070068359375</LatitudeDegrees>
              <LongitudeDegrees>2.83610385842621326446533203125</LongitudeDegrees>
            </Position>
            <AltitudeMeters>497.79998779296875</AltitudeMeters>
            <DistanceMeters>4459.2778926784</DistanceMeters>
          </Trackpoint>
          <Trackpoint>
            <Time>2021-03-31T15:18:21.000Z</Time>
            <Position>
              <LatitudeDegrees>42.4580706842243671417236328125</LatitudeDegrees>
              <LongitudeDegrees>2.836074270308017730712890625</LongitudeDegrees>
            </Position>
            <AltitudeMeters>498.20001220703125</AltitudeMeters>
            <DistanceMeters>4461.7740402595</DistanceMeters>
          </Trackpoint>
          <Trackpoint>
            <Time>2021-03-31T15:18:26.000Z</Time>
            <Position>
              <LatitudeDegrees>42.4580676667392253875732421875</LatitudeDegrees>
              <LongitudeDegrees>2.83601702190935611724853515625</LongitudeDegrees>
            </Position>
            <AltitudeMeters>498.79998779296875</AltitudeMeters>
            <DistanceMeters>4466.4862539617</DistanceMeters>
          </Trackpoint>
          <Trackpoint>
            <Time>2021-03-31T15:18:27.000Z</Time>
            <Position>
              <LatitudeDegrees>42.45806825347244739532470703125</LatitudeDegrees>
              <LongitudeDegrees>2.83600260503590106964111328125</LongitudeDegrees>
            </Position>
            <AltitudeMeters>499</AltitudeMeters>
            <DistanceMeters>4467.6731372438</DistanceMeters>
          </Trackpoint>
          <Trackpoint>
            <Time>2021-03-31T15:18:28.000Z</Time>
            <Position>
              <LatitudeDegrees>42.4580676667392253875732421875</LatitudeDegrees>
              <LongitudeDegrees>2.83598634414374828338623046875</LongitudeDegrees>
            </Position>
            <AltitudeMeters>499</AltitudeMeters>
            <DistanceMeters>4469.0102816399</DistanceMeters>
          </Trackpoint>
          <Trackpoint>
            <Time>2021-03-31T15:18:31.000Z</Time>
            <Position>
              <LatitudeDegrees>42.45807512663304805755615234375</LatitudeDegrees>
              <LongitudeDegrees>2.83596505410969257354736328125</LongitudeDegrees>
            </Position>
            <AltitudeMeters>499.20001220703125</AltitudeMeters>
            <DistanceMeters>4470.9484539234</DistanceMeters>
          </Trackpoint>
          <Trackpoint>
            <Time>2021-03-31T15:18:32.000Z</Time>
            <Position>
              <LatitudeDegrees>42.45807831175625324249267578125</LatitudeDegrees>
              <LongitudeDegrees>2.83595784567296504974365234375</LongitudeDegrees>
            </Position>
            <AltitudeMeters>499.20001220703125</AltitudeMeters>
            <DistanceMeters>4471.6467548098</DistanceMeters>
          </Trackpoint>
          <Trackpoint>
            <Time>2021-03-31T15:18:33.000Z</Time>
            <Position>
              <LatitudeDegrees>42.45807982049882411956787109375</LatitudeDegrees>
              <LongitudeDegrees>2.835950218141078948974609375</LongitudeDegrees>
            </Position>
            <AltitudeMeters>499.399993896484375</AltitudeMeters>
            <DistanceMeters>4472.2982251413</DistanceMeters>
          </Trackpoint>
          <Trackpoint>
            <Time>2021-03-31T15:18:41.000Z</Time>
            <Position>
              <LatitudeDegrees>42.458066828548908233642578125</LatitudeDegrees>
              <LongitudeDegrees>2.835864387452602386474609375</LongitudeDegrees>
            </Position>
            <AltitudeMeters>499.79998779296875</AltitudeMeters>
            <DistanceMeters>4479.4933226565</DistanceMeters>
          </Trackpoint>
          <Trackpoint>
            <Time>2021-03-31T15:18:44.000Z</Time>
            <Position>
              <LatitudeDegrees>42.45806154794991016387939453125</LatitudeDegrees>
              <LongitudeDegrees>2.8358390741050243377685546875</LongitudeDegrees>
            </Position>
            <AltitudeMeters>500.399993896484375</AltitudeMeters>
            <DistanceMeters>4481.6519146618</DistanceMeters>
          </Trackpoint>
          <Trackpoint>
            <Time>2021-03-31T15:18:49.000Z</Time>
            <Position>
              <LatitudeDegrees>42.45805014856159687042236328125</LatitudeDegrees>
              <LongitudeDegrees>2.83577847294509410858154296875</LongitudeDegrees>
            </Position>
            <AltitudeMeters>501</AltitudeMeters>
            <DistanceMeters>4486.7868755396</DistanceMeters>
          </Trackpoint>
          <Trackpoint>
            <Time>2021-03-31T15:18:53.000Z</Time>
            <Position>
              <LatitudeDegrees>42.45804076083004474639892578125</LatitudeDegrees>
              <LongitudeDegrees>2.83572851680219173431396484375</LongitudeDegrees>
            </Position>
            <AltitudeMeters>501</AltitudeMeters>
            <DistanceMeters>4491.0195663699</DistanceMeters>
          </Trackpoint>
          <Trackpoint>
            <Time>2021-03-31T15:18:55.000Z</Time>
            <Position>
              <LatitudeDegrees>42.4580334685742855072021484375</LatitudeDegrees>
              <LongitudeDegrees>2.8357073105871677398681640625</LongitudeDegrees>
            </Position>
            <AltitudeMeters>501.20001220703125</AltitudeMeters>
            <DistanceMeters>4492.939011912</DistanceMeters>
          </Trackpoint>
          <Trackpoint>
            <Time>2021-03-31T15:18:56.000Z</Time>
            <Position>
              <LatitudeDegrees>42.45803229510784149169921875</LatitudeDegrees>
              <LongitudeDegrees>2.835695743560791015625</LongitudeDegrees>
            </Position>
            <AltitudeMeters>501.20001220703125</AltitudeMeters>
            <DistanceMeters>4493.898734683</DistanceMeters>
          </Trackpoint>
          <Trackpoint>
            <Time>2021-03-31T15:18:57.000Z</Time>
            <Position>
              <LatitudeDegrees>42.458032630383968353271484375</LatitudeDegrees>
              <LongitudeDegrees>2.83568593673408031463623046875</LongitudeDegrees>
            </Position>
            <AltitudeMeters>501.20001220703125</AltitudeMeters>
            <DistanceMeters>4494.7050630925</DistanceMeters>
          </Trackpoint>
          <Trackpoint>
            <Time>2021-03-31T15:18:58.000Z</Time>
            <Position>
              <LatitudeDegrees>42.45803321711719036102294921875</LatitudeDegrees>
              <LongitudeDegrees>2.83567520789802074432373046875</LongitudeDegrees>
            </Position>
            <AltitudeMeters>501.20001220703125</AltitudeMeters>
            <DistanceMeters>4495.5863045885</DistanceMeters>
          </Trackpoint>
          <Trackpoint>
            <Time>2021-03-31T15:19:00.000Z</Time>
            <Position>
              <LatitudeDegrees>42.45802969671785831451416015625</LatitudeDegrees>
              <LongitudeDegrees>2.835651151835918426513671875</LongitudeDegrees>
            </Position>
            <AltitudeMeters>501.399993896484375</AltitudeMeters>
            <DistanceMeters>4497.5976410215</DistanceMeters>
          </Trackpoint>
          <Trackpoint>
            <Time>2021-03-31T15:19:04.000Z</Time>
            <Position>
              <LatitudeDegrees>42.4580317921936511993408203125</LatitudeDegrees>
              <LongitudeDegrees>2.83561418764293193817138671875</LongitudeDegrees>
            </Position>
            <AltitudeMeters>502</AltitudeMeters>
            <DistanceMeters>4500.6414640176</DistanceMeters>
          </Trackpoint>
          <Trackpoint>
            <Time>2021-03-31T15:19:05.000Z</Time>
            <Position>
              <LatitudeDegrees>42.45803254656493663787841796875</LatitudeDegrees>
              <LongitudeDegrees>2.8356067277491092681884765625</LongitudeDegrees>
            </Position>
            <AltitudeMeters>502.20001220703125</AltitudeMeters>
            <DistanceMeters>4501.2499318756</DistanceMeters>
          </Trackpoint>
          <Trackpoint>
            <Time>2021-03-31T15:19:08.000Z</Time>
            <Position>
              <LatitudeDegrees>42.45803791098296642303466796875</LatitudeDegrees>
              <LongitudeDegrees>2.8355735354125499725341796875</LongitudeDegrees>
            </Position>
            <AltitudeMeters>502.399993896484375</AltitudeMeters>
            <DistanceMeters>4504.0399006737</DistanceMeters>
          </Trackpoint>
          <Trackpoint>
            <Time>2021-03-31T15:19:10.000Z</Time>
            <Position>
              <LatitudeDegrees>42.45802667923271656036376953125</LatitudeDegrees>
              <LongitudeDegrees>2.83554361201822757720947265625</LongitudeDegrees>
            </Position>
            <AltitudeMeters>502.399993896484375</AltitudeMeters>
            <DistanceMeters>4506.7956753905</DistanceMeters>
          </Trackpoint>
          <Trackpoint>
            <Time>2021-03-31T15:19:11.000Z</Time>
            <Position>
              <LatitudeDegrees>42.45801595039665699005126953125</LatitudeDegrees>
              <LongitudeDegrees>2.835527770221233367919921875</LongitudeDegrees>
            </Position>
            <AltitudeMeters>502.600006103515625</AltitudeMeters>
            <DistanceMeters>4508.5607182719</DistanceMeters>
          </Trackpoint>
          <Trackpoint>
            <Time>2021-03-31T15:19:13.000Z</Time>
            <Position>
              <LatitudeDegrees>42.45799683965742588043212890625</LatitudeDegrees>
              <LongitudeDegrees>2.835496254265308380126953125</LongitudeDegrees>
            </Position>
            <AltitudeMeters>502.600006103515625</AltitudeMeters>
            <DistanceMeters>4511.9123469948</DistanceMeters>
          </Trackpoint>
          <Trackpoint>
            <Time>2021-03-31T15:19:14.000Z</Time>
            <Position>
              <LatitudeDegrees>42.45799499563872814178466796875</LatitudeDegrees>
              <LongitudeDegrees>2.83547739498317241668701171875</LongitudeDegrees>
            </Position>
            <AltitudeMeters>502.600006103515625</AltitudeMeters>
            <DistanceMeters>4513.4737952456</DistanceMeters>
          </Trackpoint>
          <Trackpoint>
            <Time>2021-03-31T15:19:15.000Z</Time>
            <Position>
              <LatitudeDegrees>42.45799516327679157257080078125</LatitudeDegrees>
              <LongitudeDegrees>2.835462391376495361328125</LongitudeDegrees>
            </Position>
            <AltitudeMeters>502.600006103515625</AltitudeMeters>
            <DistanceMeters>4514.7054822361</DistanceMeters>
          </Trackpoint>
          <Trackpoint>
            <Time>2021-03-31T15:19:16.000Z</Time>
            <Position>
              <LatitudeDegrees>42.4579872004687786102294921875</LatitudeDegrees>
              <LongitudeDegrees>2.8354503214359283447265625</LongitudeDegrees>
            </Position>
            <AltitudeMeters>502.79998779296875</AltitudeMeters>
            <DistanceMeters>4516.0358562372</DistanceMeters>
          </Trackpoint>
          <Trackpoint>
            <Time>2021-03-31T15:19:18.000Z</Time>
            <Position>
              <LatitudeDegrees>42.4579865299165248870849609375</LatitudeDegrees>
              <LongitudeDegrees>2.8354273550212383270263671875</LongitudeDegrees>
            </Position>
            <AltitudeMeters>503</AltitudeMeters>
            <DistanceMeters>4517.926863977</DistanceMeters>
          </Trackpoint>
          <Trackpoint>
            <Time>2021-03-31T15:19:20.000Z</Time>
            <Position>
              <LatitudeDegrees>42.45798041112720966339111328125</LatitudeDegrees>
              <LongitudeDegrees>2.83540363423526287078857421875</LongitudeDegrees>
            </Position>
            <AltitudeMeters>503</AltitudeMeters>
            <DistanceMeters>4519.991372655</DistanceMeters>
          </Trackpoint>
          <Trackpoint>
            <Time>2021-03-31T15:19:23.000Z</Time>
            <Position>
              <LatitudeDegrees>42.45797823183238506317138671875</LatitudeDegrees>
              <LongitudeDegrees>2.8353663347661495208740234375</LongitudeDegrees>
            </Position>
            <AltitudeMeters>503.600006103515625</AltitudeMeters>
            <DistanceMeters>4523.0632499123</DistanceMeters>
          </Trackpoint>
          <Trackpoint>
            <Time>2021-03-31T15:19:26.000Z</Time>
            <Position>
              <LatitudeDegrees>42.45799013413488864898681640625</LatitudeDegrees>
              <LongitudeDegrees>2.8353388421237468719482421875</LongitudeDegrees>
            </Position>
            <AltitudeMeters>504</AltitudeMeters>
            <DistanceMeters>4525.6795063876</DistanceMeters>
          </Trackpoint>
          <Trackpoint>
            <Time>2021-03-31T15:19:27.000Z</Time>
            <Position>
              <LatitudeDegrees>42.45799566619098186492919921875</LatitudeDegrees>
              <LongitudeDegrees>2.83532819710671901702880859375</LongitudeDegrees>
            </Position>
            <AltitudeMeters>504.20001220703125</AltitudeMeters>
            <DistanceMeters>4526.7461786109</DistanceMeters>
          </Trackpoint>
          <Trackpoint>
            <Time>2021-03-31T15:19:29.000Z</Time>
            <Position>
              <LatitudeDegrees>42.457997761666774749755859375</LatitudeDegrees>
              <LongitudeDegrees>2.835305817425251007080078125</LongitudeDegrees>
            </Position>
            <AltitudeMeters>504.399993896484375</AltitudeMeters>
            <DistanceMeters>4528.5985902953</DistanceMeters>
          </Trackpoint>
          <Trackpoint>
            <Time>2021-03-31T15:19:31.000Z</Time>
            <Position>
              <LatitudeDegrees>42.457987368106842041015625</LatitudeDegrees>
              <LongitudeDegrees>2.83527438528835773468017578125</LongitudeDegrees>
            </Position>
            <AltitudeMeters>504.600006103515625</AltitudeMeters>
            <DistanceMeters>4531.4271319212</DistanceMeters>
          </Trackpoint>
          <Trackpoint>
            <Time>2021-03-31T15:19:35.000Z</Time>
            <Position>
              <LatitudeDegrees>42.45799340307712554931640625</LatitudeDegrees>
              <LongitudeDegrees>2.83521956764161586761474609375</LongitudeDegrees>
            </Position>
            <AltitudeMeters>505.399993896484375</AltitudeMeters>
            <DistanceMeters>4535.977512706</DistanceMeters>
          </Trackpoint>
          <Trackpoint>
            <Time>2021-03-31T15:19:36.000Z</Time>
            <Position>
              <LatitudeDegrees>42.45799868367612361907958984375</LatitudeDegrees>
              <LongitudeDegrees>2.83520959317684173583984375</LongitudeDegrees>
            </Position>
            <AltitudeMeters>505.79998779296875</AltitudeMeters>
            <DistanceMeters>4536.9831809225</DistanceMeters>
          </Trackpoint>
          <Trackpoint>
            <Time>2021-03-31T15:19:39.000Z</Time>
            <Position>
              <LatitudeDegrees>42.4580079875886440277099609375</LatitudeDegrees>
              <LongitudeDegrees>2.8351752273738384246826171875</LongitudeDegrees>
            </Position>
            <AltitudeMeters>506</AltitudeMeters>
            <DistanceMeters>4539.9881894822</DistanceMeters>
          </Trackpoint>
          <Trackpoint>
            <Time>2021-03-31T15:19:41.000Z</Time>
            <Position>
              <LatitudeDegrees>42.45801460929214954376220703125</LatitudeDegrees>
              <LongitudeDegrees>2.835158295929431915283203125</LongitudeDegrees>
            </Position>
            <AltitudeMeters>506.20001220703125</AltitudeMeters>
            <DistanceMeters>4541.5611614926</DistanceMeters>
          </Trackpoint>
          <Trackpoint>
            <Time>2021-03-31T15:19:43.000Z</Time>
            <Position>
              <LatitudeDegrees>42.4580200575292110443115234375</LatitudeDegrees>
              <LongitudeDegrees>2.83514396287500858306884765625</LongitudeDegrees>
            </Position>
            <AltitudeMeters>506.20001220703125</AltitudeMeters>
            <DistanceMeters>4542.8847304671</DistanceMeters>
          </Trackpoint>
          <Trackpoint>
            <Time>2021-03-31T15:19:45.000Z</Time>
            <Position>
              <LatitudeDegrees>42.45802315883338451385498046875</LatitudeDegrees>
              <LongitudeDegrees>2.8351246006786823272705078125</LongitudeDegrees>
            </Position>
            <AltitudeMeters>506.20001220703125</AltitudeMeters>
            <DistanceMeters>4544.508547674</DistanceMeters>
          </Trackpoint>
          <Trackpoint>
            <Time>2021-03-31T15:19:47.000Z</Time>
            <Position>
              <LatitudeDegrees>42.45801393873989582061767578125</LatitudeDegrees>
              <LongitudeDegrees>2.835104651749134063720703125</LongitudeDegrees>
            </Position>
            <AltitudeMeters>506.399993896484375</AltitudeMeters>
            <DistanceMeters>4546.4397187103</DistanceMeters>
          </Trackpoint>
          <Trackpoint>
            <Time>2021-03-31T15:19:50.000Z</Time>
            <Position>
              <LatitudeDegrees>42.45802734978497028350830078125</LatitudeDegrees>
              <LongitudeDegrees>2.83506810665130615234375</LongitudeDegrees>
            </Position>
            <AltitudeMeters>506.79998779296875</AltitudeMeters>
            <DistanceMeters>4549.7913474332</DistanceMeters>
          </Trackpoint>
          <Trackpoint>
            <Time>2021-03-31T15:19:52.000Z</Time>
            <Position>
              <LatitudeDegrees>42.4580369889736175537109375</LatitudeDegrees>
              <LongitudeDegrees>2.8350414521992206573486328125</LongitudeDegrees>
            </Position>
            <AltitudeMeters>507</AltitudeMeters>
            <DistanceMeters>4552.2326279278</DistanceMeters>
          </Trackpoint>
          <Trackpoint>
            <Time>2021-03-31T15:19:53.000Z</Time>
            <Position>
              <LatitudeDegrees>42.458033971488475799560546875</LatitudeDegrees>
              <LongitudeDegrees>2.8350350819528102874755859375</LongitudeDegrees>
            </Position>
            <AltitudeMeters>507</AltitudeMeters>
            <DistanceMeters>4552.848471423</DistanceMeters>
          </Trackpoint>
          <Trackpoint>
            <Time>2021-03-31T15:19:55.000Z</Time>
            <Position>
              <LatitudeDegrees>42.45802667923271656036376953125</LatitudeDegrees>
              <LongitudeDegrees>2.83503969199955463409423828125</LongitudeDegrees>
            </Position>
            <AltitudeMeters>507.399993896484375</AltitudeMeters>
            <DistanceMeters>4553.7399010204</DistanceMeters>
          </Trackpoint>
          <Trackpoint>
            <Time>2021-03-31T15:19:58.000Z</Time>
            <Position>
              <LatitudeDegrees>42.45803321711719036102294921875</LatitudeDegrees>
              <LongitudeDegrees>2.83502644859254360198974609375</LongitudeDegrees>
            </Position>
            <AltitudeMeters>507.600006103515625</AltitudeMeters>
            <DistanceMeters>4555.0463023553</DistanceMeters>
          </Trackpoint>
          <Trackpoint>
            <Time>2021-03-31T15:20:01.000Z</Time>
            <Position>
              <LatitudeDegrees>42.45804034173488616943359375</LatitudeDegrees>
              <LongitudeDegrees>2.8350313939154148101806640625</LongitudeDegrees>
            </Position>
            <AltitudeMeters>507.79998779296875</AltitudeMeters>
            <DistanceMeters>4555.9377319527</DistanceMeters>
          </Trackpoint>
          <Trackpoint>
            <Time>2021-03-31T15:20:07.000Z</Time>
            <Position>
              <LatitudeDegrees>42.45806490071117877960205078125</LatitudeDegrees>
              <LongitudeDegrees>2.8349747322499752044677734375</LongitudeDegrees>
            </Position>
            <AltitudeMeters>508.600006103515625</AltitudeMeters>
            <DistanceMeters>4561.3333752374</DistanceMeters>
          </Trackpoint>
          <Trackpoint>
            <Time>2021-03-31T15:20:10.000Z</Time>
            <Position>
              <LatitudeDegrees>42.45806506834924221038818359375</LatitudeDegrees>
              <LongitudeDegrees>2.83493064343929290771484375</LongitudeDegrees>
            </Position>
            <AltitudeMeters>508.79998779296875</AltitudeMeters>
            <DistanceMeters>4564.9543793794</DistanceMeters>
          </Trackpoint>
          <Trackpoint>
            <Time>2021-03-31T15:20:17.000Z</Time>
            <Position>
              <LatitudeDegrees>42.45807697065174579620361328125</LatitudeDegrees>
              <LongitudeDegrees>2.83484405837953090667724609375</LongitudeDegrees>
            </Position>
            <AltitudeMeters>509.399993896484375</AltitudeMeters>
            <DistanceMeters>4572.186405566</DistanceMeters>
          </Trackpoint>
          <Trackpoint>
            <Time>2021-03-31T15:20:20.000Z</Time>
            <Position>
              <LatitudeDegrees>42.4580790661275386810302734375</LatitudeDegrees>
              <LongitudeDegrees>2.834804244339466094970703125</LongitudeDegrees>
            </Position>
            <AltitudeMeters>509.79998779296875</AltitudeMeters>
            <DistanceMeters>4575.464482894</DistanceMeters>
          </Trackpoint>
          <Trackpoint>
            <Time>2021-03-31T15:20:22.000Z</Time>
            <Position>
              <LatitudeDegrees>42.45808065868914127349853515625</LatitudeDegrees>
              <LongitudeDegrees>2.834769375622272491455078125</LongitudeDegrees>
            </Position>
            <AltitudeMeters>510</AltitudeMeters>
            <DistanceMeters>4578.3310783597</DistanceMeters>
          </Trackpoint>
          <Trackpoint>
            <Time>2021-03-31T15:20:25.000Z</Time>
            <Position>
              <LatitudeDegrees>42.45808417908847332000732421875</LatitudeDegrees>
              <LongitudeDegrees>2.8347236104309558868408203125</LongitudeDegrees>
            </Position>
            <AltitudeMeters>510</AltitudeMeters>
            <DistanceMeters>4582.1083155486</DistanceMeters>
          </Trackpoint>
          <Trackpoint>
            <Time>2021-03-31T15:20:27.000Z</Time>
            <Position>
              <LatitudeDegrees>42.45809004642069339752197265625</LatitudeDegrees>
              <LongitudeDegrees>2.834699638187885284423828125</LongitudeDegrees>
            </Position>
            <AltitudeMeters>510.20001220703125</AltitudeMeters>
            <DistanceMeters>4584.1815536891</DistanceMeters>
          </Trackpoint>
          <Trackpoint>
            <Time>2021-03-31T15:20:29.000Z</Time>
            <Position>
              <LatitudeDegrees>42.4580975063145160675048828125</LatitudeDegrees>
              <LongitudeDegrees>2.83467289991676807403564453125</LongitudeDegrees>
            </Position>
            <AltitudeMeters>510.399993896484375</AltitudeMeters>
            <DistanceMeters>4586.5285404021</DistanceMeters>
          </Trackpoint>
          <Trackpoint>
            <Time>2021-03-31T15:20:32.000Z</Time>
            <Position>
              <LatitudeDegrees>42.458111084997653961181640625</LatitudeDegrees>
              <LongitudeDegrees>2.83463316969573497772216796875</LongitudeDegrees>
            </Position>
            <AltitudeMeters>511</AltitudeMeters>
            <DistanceMeters>4590.1220079913</DistanceMeters>
          </Trackpoint>
          <Trackpoint>
            <Time>2021-03-31T15:20:35.000Z</Time>
            <Position>
              <LatitudeDegrees>42.45811368338763713836669921875</LatitudeDegrees>
              <LongitudeDegrees>2.83460953272879123687744140625</LongitudeDegrees>
            </Position>
            <AltitudeMeters>511.20001220703125</AltitudeMeters>
            <DistanceMeters>4592.0833372766</DistanceMeters>
          </Trackpoint>
          <Trackpoint>
            <Time>2021-03-31T15:20:39.000Z</Time>
            <Position>
              <LatitudeDegrees>42.4581132642924785614013671875</LatitudeDegrees>
              <LongitudeDegrees>2.83456980250775814056396484375</LongitudeDegrees>
            </Position>
            <AltitudeMeters>511.600006103515625</AltitudeMeters>
            <DistanceMeters>4595.3448446046</DistanceMeters>
          </Trackpoint>
          <Trackpoint>
            <Time>2021-03-31T15:20:40.000Z</Time>
            <Position>
              <LatitudeDegrees>42.45810806751251220703125</LatitudeDegrees>
              <LongitudeDegrees>2.83456091769039630889892578125</LongitudeDegrees>
            </Position>
            <AltitudeMeters>511.79998779296875</AltitudeMeters>
            <DistanceMeters>4596.2759124532</DistanceMeters>
          </Trackpoint>
          <Trackpoint>
            <Time>2021-03-31T15:20:42.000Z</Time>
            <Position>
              <LatitudeDegrees>42.458105050027370452880859375</LatitudeDegrees>
              <LongitudeDegrees>2.8345445729792118072509765625</LongitudeDegrees>
            </Position>
            <AltitudeMeters>512</AltitudeMeters>
            <DistanceMeters>4597.6595222992</DistanceMeters>
          </Trackpoint>
          <Trackpoint>
            <Time>2021-03-31T15:20:44.000Z</Time>
            <Position>
              <LatitudeDegrees>42.45810681022703647613525390625</LatitudeDegrees>
              <LongitudeDegrees>2.8345249593257904052734375</LongitudeDegrees>
            </Position>
            <AltitudeMeters>512.20001220703125</AltitudeMeters>
            <DistanceMeters>4599.2833395062</DistanceMeters>
          </Trackpoint>
          <Trackpoint>
            <Time>2021-03-31T15:20:45.000Z</Time>
            <Position>
              <LatitudeDegrees>42.45811016298830509185791015625</LatitudeDegrees>
              <LongitudeDegrees>2.83451179973781108856201171875</LongitudeDegrees>
            </Position>
            <AltitudeMeters>512.20001220703125</AltitudeMeters>
            <DistanceMeters>4600.4315516647</DistanceMeters>
          </Trackpoint>
          <Trackpoint>
            <Time>2021-03-31T15:20:50.000Z</Time>
            <Position>
              <LatitudeDegrees>42.45810932479798793792724609375</LatitudeDegrees>
              <LongitudeDegrees>2.8344305790960788726806640625</LongitudeDegrees>
            </Position>
            <AltitudeMeters>512.5999755859375</AltitudeMeters>
            <DistanceMeters>4607.1023999402</DistanceMeters>
          </Trackpoint>
          <Trackpoint>
            <Time>2021-03-31T15:20:52.000Z</Time>
            <Position>
              <LatitudeDegrees>42.45811385102570056915283203125</LatitudeDegrees>
              <LongitudeDegrees>2.83441272564232349395751953125</LongitudeDegrees>
            </Position>
            <AltitudeMeters>512.79998779296875</AltitudeMeters>
            <DistanceMeters>4608.6522387493</DistanceMeters>
          </Trackpoint>
          <Trackpoint>
            <Time>2021-03-31T15:20:57.000Z</Time>
            <Position>
              <LatitudeDegrees>42.4581172876060009002685546875</LatitudeDegrees>
              <LongitudeDegrees>2.8343514539301395416259765625</LongitudeDegrees>
            </Position>
            <AltitudeMeters>513</AltitudeMeters>
            <DistanceMeters>4613.6967164645</DistanceMeters>
          </Trackpoint>
          <Trackpoint>
            <Time>2021-03-31T15:21:01.000Z</Time>
            <Position>
              <LatitudeDegrees>42.45813312940299510955810546875</LatitudeDegrees>
              <LongitudeDegrees>2.83431163989007472991943359375</LongitudeDegrees>
            </Position>
            <AltitudeMeters>513.4000244140625</AltitudeMeters>
            <DistanceMeters>4617.4112765739</DistanceMeters>
          </Trackpoint>
          <Trackpoint>
            <Time>2021-03-31T15:21:06.000Z</Time>
            <Position>
              <LatitudeDegrees>42.45813765563070774078369140625</LatitudeDegrees>
              <LongitudeDegrees>2.834258414804935455322265625</LongitudeDegrees>
            </Position>
            <AltitudeMeters>513.5999755859375</AltitudeMeters>
            <DistanceMeters>4621.8103053098</DistanceMeters>
          </Trackpoint>
          <Trackpoint>
            <Time>2021-03-31T15:21:08.000Z</Time>
            <Position>
              <LatitudeDegrees>42.4581417627632617950439453125</LatitudeDegrees>
              <LongitudeDegrees>2.83423469401895999908447265625</LongitudeDegrees>
            </Position>
            <AltitudeMeters>513.79998779296875</AltitudeMeters>
            <DistanceMeters>4623.8103862743</DistanceMeters>
          </Trackpoint>
          <Trackpoint>
            <Time>2021-03-31T15:21:12.000Z</Time>
            <Position>
              <LatitudeDegrees>42.45814268477261066436767578125</LatitudeDegrees>
              <LongitudeDegrees>2.83418440259993076324462890625</LongitudeDegrees>
            </Position>
            <AltitudeMeters>513.79998779296875</AltitudeMeters>
            <DistanceMeters>4627.941590031</DistanceMeters>
          </Trackpoint>
          <Trackpoint>
            <Time>2021-03-31T15:21:15.000Z</Time>
            <Position>
              <LatitudeDegrees>42.4581477977335453033447265625</LatitudeDegrees>
              <LongitudeDegrees>2.8341539762914180755615234375</LongitudeDegrees>
            </Position>
            <AltitudeMeters>514</AltitudeMeters>
            <DistanceMeters>4630.5055509611</DistanceMeters>
          </Trackpoint>
          <Trackpoint>
            <Time>2021-03-31T15:21:16.000Z</Time>
            <Position>
              <LatitudeDegrees>42.4581508152186870574951171875</LatitudeDegrees>
              <LongitudeDegrees>2.8341455943882465362548828125</LongitudeDegrees>
            </Position>
            <AltitudeMeters>514.20001220703125</AltitudeMeters>
            <DistanceMeters>4631.2657646761</DistanceMeters>
          </Trackpoint>
          <Trackpoint>
            <Time>2021-03-31T15:21:21.000Z</Time>
            <Position>
              <LatitudeDegrees>42.45815089903771877288818359375</LatitudeDegrees>
              <LongitudeDegrees>2.83408130519092082977294921875</LongitudeDegrees>
            </Position>
            <AltitudeMeters>514.79998779296875</AltitudeMeters>
            <DistanceMeters>4636.5446675835</DistanceMeters>
          </Trackpoint>
          <Trackpoint>
            <Time>2021-03-31T15:21:24.000Z</Time>
            <Position>
              <LatitudeDegrees>42.45815559290349483489990234375</LatitudeDegrees>
              <LongitudeDegrees>2.83404492773115634918212890625</LongitudeDegrees>
            </Position>
            <AltitudeMeters>515.20001220703125</AltitudeMeters>
            <DistanceMeters>4639.5766006006</DistanceMeters>
          </Trackpoint>
          <Trackpoint>
            <Time>2021-03-31T15:21:27.000Z</Time>
            <Position>
              <LatitudeDegrees>42.45815190486609935760498046875</LatitudeDegrees>
              <LongitudeDegrees>2.83401106484234333038330078125</LongitudeDegrees>
            </Position>
            <AltitudeMeters>515.4000244140625</AltitudeMeters>
            <DistanceMeters>4642.3859220154</DistanceMeters>
          </Trackpoint>
          <Trackpoint>
            <Time>2021-03-31T15:21:35.000Z</Time>
            <Position>
              <LatitudeDegrees>42.45817151851952075958251953125</LatitudeDegrees>
              <LongitudeDegrees>2.83390880562365055084228515625</LongitudeDegrees>
            </Position>
            <AltitudeMeters>516</AltitudeMeters>
            <DistanceMeters>4651.0620223628</DistanceMeters>
          </Trackpoint>
          <Trackpoint>
            <Time>2021-03-31T15:21:38.000Z</Time>
            <Position>
              <LatitudeDegrees>42.4581783078610897064208984375</LatitudeDegrees>
              <LongitudeDegrees>2.83387762494385242462158203125</LongitudeDegrees>
            </Position>
            <AltitudeMeters>516.20001220703125</AltitudeMeters>
            <DistanceMeters>4653.7329323932</DistanceMeters>
          </Trackpoint>
          <Trackpoint>
            <Time>2021-03-31T15:21:39.000Z</Time>
            <Position>
              <LatitudeDegrees>42.45817755348980426788330078125</LatitudeDegrees>
              <LongitudeDegrees>2.8338649682700634002685546875</LongitudeDegrees>
            </Position>
            <AltitudeMeters>516.20001220703125</AltitudeMeters>
            <DistanceMeters>4654.7738978937</DistanceMeters>
          </Trackpoint>
          <Trackpoint>
            <Time>2021-03-31T15:21:43.000Z</Time>
            <Position>
              <LatitudeDegrees>42.458176128566265106201171875</LatitudeDegrees>
              <LongitudeDegrees>2.83381492830812931060791015625</LongitudeDegrees>
            </Position>
            <AltitudeMeters>516.4000244140625</AltitudeMeters>
            <DistanceMeters>4658.8853821881</DistanceMeters>
          </Trackpoint>
          <Trackpoint>
            <Time>2021-03-31T15:21:49.000Z</Time>
            <Position>
              <LatitudeDegrees>42.45818040333688259124755859375</LatitudeDegrees>
              <LongitudeDegrees>2.8337298519909381866455078125</LongitudeDegrees>
            </Position>
            <AltitudeMeters>517.4000244140625</AltitudeMeters>
            <DistanceMeters>4665.8877614331</DistanceMeters>
          </Trackpoint>
          <Trackpoint>
            <Time>2021-03-31T15:21:51.000Z</Time>
            <Position>
              <LatitudeDegrees>42.45818786323070526123046875</LatitudeDegrees>
              <LongitudeDegrees>2.83370210789144039154052734375</LongitudeDegrees>
            </Position>
            <AltitudeMeters>517.4000244140625</AltitudeMeters>
            <DistanceMeters>4668.3142011792</DistanceMeters>
          </Trackpoint>
          <Trackpoint>
            <Time>2021-03-31T15:22:02.000Z</Time>
            <Position>
              <LatitudeDegrees>42.4582059681415557861328125</LatitudeDegrees>
              <LongitudeDegrees>2.8335808217525482177734375</LongitudeDegrees>
            </Position>
            <AltitudeMeters>518.20001220703125</AltitudeMeters>
            <DistanceMeters>4678.4762853263</DistanceMeters>
          </Trackpoint>
          <Trackpoint>
            <Time>2021-03-31T15:22:04.000Z</Time>
            <Position>
              <LatitudeDegrees>42.45820387266576290130615234375</LatitudeDegrees>
              <LongitudeDegrees>2.83355324529111385345458984375</LongitudeDegrees>
            </Position>
            <AltitudeMeters>518.4000244140625</AltitudeMeters>
            <DistanceMeters>4680.7529635818</DistanceMeters>
          </Trackpoint>
          <Trackpoint>
            <Time>2021-03-31T15:22:09.000Z</Time>
            <Position>
              <LatitudeDegrees>42.458209991455078125</LatitudeDegrees>
              <LongitudeDegrees>2.8334743715822696685791015625</LongitudeDegrees>
            </Position>
            <AltitudeMeters>519</AltitudeMeters>
            <DistanceMeters>4687.2662806425</DistanceMeters>
          </Trackpoint>
          <Trackpoint>
            <Time>2021-03-31T15:22:14.000Z</Time>
            <Position>
              <LatitudeDegrees>42.4582034535706043243408203125</LatitudeDegrees>
              <LongitudeDegrees>2.8334150277078151702880859375</LongitudeDegrees>
            </Position>
            <AltitudeMeters>519.4000244140625</AltitudeMeters>
            <DistanceMeters>4692.1930286045</DistanceMeters>
          </Trackpoint>
          <Trackpoint>
            <Time>2021-03-31T15:22:18.000Z</Time>
            <Position>
              <LatitudeDegrees>42.4581856839358806610107421875</LatitudeDegrees>
              <LongitudeDegrees>2.83337353728711605072021484375</LongitudeDegrees>
            </Position>
            <AltitudeMeters>519.79998779296875</AltitudeMeters>
            <DistanceMeters>4696.1329145683</DistanceMeters>
          </Trackpoint>
          <Trackpoint>
            <Time>2021-03-31T15:22:21.000Z</Time>
            <Position>
              <LatitudeDegrees>42.45817336253821849822998046875</LatitudeDegrees>
              <LongitudeDegrees>2.83333665691316127777099609375</LongitudeDegrees>
            </Position>
            <AltitudeMeters>520</AltitudeMeters>
            <DistanceMeters>4699.4574917696</DistanceMeters>
          </Trackpoint>
          <Trackpoint>
            <Time>2021-03-31T15:22:26.000Z</Time>
            <Position>
              <LatitudeDegrees>42.45814603753387928009033203125</LatitudeDegrees>
              <LongitudeDegrees>2.83328033052384853363037109375</LongitudeDegrees>
            </Position>
            <AltitudeMeters>520</AltitudeMeters>
            <DistanceMeters>4704.9927469014</DistanceMeters>
          </Trackpoint>
          <Trackpoint>
            <Time>2021-03-31T15:22:27.000Z</Time>
            <Position>
              <LatitudeDegrees>42.45814234949648380279541015625</LatitudeDegrees>
              <LongitudeDegrees>2.83327035605907440185546875</LongitudeDegrees>
            </Position>
            <AltitudeMeters>520</AltitudeMeters>
            <DistanceMeters>4705.9042111261</DistanceMeters>
          </Trackpoint>
          <Trackpoint>
            <Time>2021-03-31T15:22:34.000Z</Time>
            <Position>
              <LatitudeDegrees>42.4581166170537471771240234375</LatitudeDegrees>
              <LongitudeDegrees>2.83319701440632343292236328125</LongitudeDegrees>
            </Position>
            <AltitudeMeters>519.5999755859375</AltitudeMeters>
            <DistanceMeters>4712.5730285989</DistanceMeters>
          </Trackpoint>
          <Trackpoint>
            <Time>2021-03-31T15:22:37.000Z</Time>
            <Position>
              <LatitudeDegrees>42.458101026713848114013671875</LatitudeDegrees>
              <LongitudeDegrees>2.8331659175455570220947265625</LongitudeDegrees>
            </Position>
            <AltitudeMeters>520.5999755859375</AltitudeMeters>
            <DistanceMeters>4715.661031307</DistanceMeters>
          </Trackpoint>
          <Trackpoint>
            <Time>2021-03-31T15:22:41.000Z</Time>
            <Position>
              <LatitudeDegrees>42.4580747075378894805908203125</LatitudeDegrees>
              <LongitudeDegrees>2.83312627114355564117431640625</LongitudeDegrees>
            </Position>
            <AltitudeMeters>521.79998779296875</AltitudeMeters>
            <DistanceMeters>4720.042576984</DistanceMeters>
          </Trackpoint>
          <Trackpoint>
            <Time>2021-03-31T15:22:42.000Z</Time>
            <Position>
              <LatitudeDegrees>42.45806808583438396453857421875</LatitudeDegrees>
              <LongitudeDegrees>2.83311302773654460906982421875</LongitudeDegrees>
            </Position>
            <AltitudeMeters>521.79998779296875</AltitudeMeters>
            <DistanceMeters>4721.3558723052</DistanceMeters>
          </Trackpoint>
          <Trackpoint>
            <Time>2021-03-31T15:22:44.000Z</Time>
            <Position>
              <LatitudeDegrees>42.45805819518864154815673828125</LatitudeDegrees>
              <LongitudeDegrees>2.83308587037026882171630859375</LongitudeDegrees>
            </Position>
            <AltitudeMeters>522</AltitudeMeters>
            <DistanceMeters>4723.8411433745</DistanceMeters>
          </Trackpoint>
          <Trackpoint>
            <Time>2021-03-31T15:22:49.000Z</Time>
            <Position>
              <LatitudeDegrees>42.45802290737628936767578125</LatitudeDegrees>
              <LongitudeDegrees>2.833039350807666778564453125</LongitudeDegrees>
            </Position>
            <AltitudeMeters>522</AltitudeMeters>
            <DistanceMeters>4729.3198269846</DistanceMeters>
          </Trackpoint>
          <Trackpoint>
            <Time>2021-03-31T15:22:54.000Z</Time>
            <Position>
              <LatitudeDegrees>42.45799365453422069549560546875</LatitudeDegrees>
              <LongitudeDegrees>2.8329898975789546966552734375</LongitudeDegrees>
            </Position>
            <AltitudeMeters>522.79998779296875</AltitudeMeters>
            <DistanceMeters>4734.5246544872</DistanceMeters>
          </Trackpoint>
          <Trackpoint>
            <Time>2021-03-31T15:22:57.000Z</Time>
            <Position>
              <LatitudeDegrees>42.45797521434724330902099609375</LatitudeDegrees>
              <LongitudeDegrees>2.832958884537220001220703125</LongitudeDegrees>
            </Position>
            <AltitudeMeters>522.79998779296875</AltitudeMeters>
            <DistanceMeters>4737.7944573115</DistanceMeters>
          </Trackpoint>
          <Trackpoint>
            <Time>2021-03-31T15:23:01.000Z</Time>
            <Position>
              <LatitudeDegrees>42.45794218964874744415283203125</LatitudeDegrees>
              <LongitudeDegrees>2.83293449319899082183837890625</LongitudeDegrees>
            </Position>
            <AltitudeMeters>523</AltitudeMeters>
            <DistanceMeters>4741.9799499111</DistanceMeters>
          </Trackpoint>
          <Trackpoint>
            <Time>2021-03-31T15:23:03.000Z</Time>
            <Position>
              <LatitudeDegrees>42.4579245038330554962158203125</LatitudeDegrees>
              <LongitudeDegrees>2.83291605301201343536376953125</LongitudeDegrees>
            </Position>
            <AltitudeMeters>523.4000244140625</AltitudeMeters>
            <DistanceMeters>4744.4634035972</DistanceMeters>
          </Trackpoint>
          <Trackpoint>
            <Time>2021-03-31T15:23:04.000Z</Time>
            <Position>
              <LatitudeDegrees>42.457915954291820526123046875</LatitudeDegrees>
              <LongitudeDegrees>2.832907922565937042236328125</LongitudeDegrees>
            </Position>
            <AltitudeMeters>523.79998779296875</AltitudeMeters>
            <DistanceMeters>4745.6272384079</DistanceMeters>
          </Trackpoint>
          <Trackpoint>
            <Time>2021-03-31T15:23:05.000Z</Time>
            <Position>
              <LatitudeDegrees>42.45791050605475902557373046875</LatitudeDegrees>
              <LongitudeDegrees>2.832897193729877471923828125</LongitudeDegrees>
            </Position>
            <AltitudeMeters>524</AltitudeMeters>
            <DistanceMeters>4746.6939106312</DistanceMeters>
          </Trackpoint>
          <Trackpoint>
            <Time>2021-03-31T15:23:06.000Z</Time>
            <Position>
              <LatitudeDegrees>42.4579043872654438018798828125</LatitudeDegrees>
              <LongitudeDegrees>2.83288738690316677093505859375</LongitudeDegrees>
            </Position>
            <AltitudeMeters>524</AltitudeMeters>
            <DistanceMeters>4747.7435149977</DistanceMeters>
          </Trackpoint>
          <Trackpoint>
            <Time>2021-03-31T15:23:10.000Z</Time>
            <Position>
              <LatitudeDegrees>42.45787127874791622161865234375</LatitudeDegrees>
              <LongitudeDegrees>2.83286509104073047637939453125</LongitudeDegrees>
            </Position>
            <AltitudeMeters>524.79998779296875</AltitudeMeters>
            <DistanceMeters>4751.8582924318</DistanceMeters>
          </Trackpoint>
          <Trackpoint>
            <Time>2021-03-31T15:23:16.000Z</Time>
            <Position>
              <LatitudeDegrees>42.4578182213008403778076171875</LatitudeDegrees>
              <LongitudeDegrees>2.83285603858530521392822265625</LongitudeDegrees>
            </Position>
            <AltitudeMeters>524.20001220703125</AltitudeMeters>
            <DistanceMeters>4757.8101820385</DistanceMeters>
          </Trackpoint>
          <Trackpoint>
            <Time>2021-03-31T15:23:20.000Z</Time>
            <Position>
              <LatitudeDegrees>42.4577826820313930511474609375</LatitudeDegrees>
              <LongitudeDegrees>2.8328648395836353302001953125</LongitudeDegrees>
            </Position>
            <AltitudeMeters>524.20001220703125</AltitudeMeters>
            <DistanceMeters>4761.8328549046</DistanceMeters>
          </Trackpoint>
          <Trackpoint>
            <Time>2021-03-31T15:23:26.000Z</Time>
            <Position>
              <LatitudeDegrees>42.4577216617763042449951171875</LatitudeDegrees>
              <LongitudeDegrees>2.83289828337728977203369140625</LongitudeDegrees>
            </Position>
            <AltitudeMeters>524</AltitudeMeters>
            <DistanceMeters>4769.1591619131</DistanceMeters>
          </Trackpoint>
          <Trackpoint>
            <Time>2021-03-31T15:23:27.000Z</Time>
            <Position>
              <LatitudeDegrees>42.45771319605410099029541015625</LatitudeDegrees>
              <LongitudeDegrees>2.832905910909175872802734375</LongitudeDegrees>
            </Position>
            <AltitudeMeters>523.79998779296875</AltitudeMeters>
            <DistanceMeters>4770.2915359039</DistanceMeters>
          </Trackpoint>
          <Trackpoint>
            <Time>2021-03-31T15:23:37.000Z</Time>
            <Position>
              <LatitudeDegrees>42.45763122104108333587646484375</LatitudeDegrees>
              <LongitudeDegrees>2.83299031667411327362060546875</LongitudeDegrees>
            </Position>
            <AltitudeMeters>524.20001220703125</AltitudeMeters>
            <DistanceMeters>4781.7492517034</DistanceMeters>
          </Trackpoint>
          <Trackpoint>
            <Time>2021-03-31T15:23:47.000Z</Time>
            <Position>
              <LatitudeDegrees>42.45754002593457698822021484375</LatitudeDegrees>
              <LongitudeDegrees>2.83304731361567974090576171875</LongitudeDegrees>
            </Position>
            <AltitudeMeters>524.20001220703125</AltitudeMeters>
            <DistanceMeters>4792.9269141459</DistanceMeters>
          </Trackpoint>
          <Trackpoint>
            <Time>2021-03-31T15:23:49.000Z</Time>
            <Position>
              <LatitudeDegrees>42.457516305148601531982421875</LatitudeDegrees>
              <LongitudeDegrees>2.8330643288791179656982421875</LongitudeDegrees>
            </Position>
            <AltitudeMeters>524.20001220703125</AltitudeMeters>
            <DistanceMeters>4795.9138382371</DistanceMeters>
          </Trackpoint>
          <Trackpoint>
            <Time>2021-03-31T15:23:55.000Z</Time>
            <Position>
              <LatitudeDegrees>42.457470037043094635009765625</LatitudeDegrees>
              <LongitudeDegrees>2.83311621285974979400634765625</LongitudeDegrees>
            </Position>
            <AltitudeMeters>524</AltitudeMeters>
            <DistanceMeters>4802.59820943</DistanceMeters>
          </Trackpoint>
          <Trackpoint>
            <Time>2021-03-31T15:24:03.000Z</Time>
            <Position>
              <LatitudeDegrees>42.4574021436274051666259765625</LatitudeDegrees>
              <LongitudeDegrees>2.8331910632550716400146484375</LongitudeDegrees>
            </Position>
            <AltitudeMeters>524.4000244140625</AltitudeMeters>
            <DistanceMeters>4812.3392588228</DistanceMeters>
          </Trackpoint>
          <Trackpoint>
            <Time>2021-03-31T15:24:13.000Z</Time>
            <Position>
              <LatitudeDegrees>42.457311786711215972900390625</LatitudeDegrees>
              <LongitudeDegrees>2.83327613957226276397705078125</LongitudeDegrees>
            </Position>
            <AltitudeMeters>524.79998779296875</AltitudeMeters>
            <DistanceMeters>4824.5848069701</DistanceMeters>
          </Trackpoint>
          <Trackpoint>
            <Time>2021-03-31T15:24:14.000Z</Time>
            <Position>
              <LatitudeDegrees>42.45730382390320301055908203125</LatitudeDegrees>
              <LongitudeDegrees>2.8332872875034809112548828125</LongitudeDegrees>
            </Position>
            <AltitudeMeters>525</AltitudeMeters>
            <DistanceMeters>4825.8597241282</DistanceMeters>
          </Trackpoint>
          <Trackpoint>
            <Time>2021-03-31T15:24:17.000Z</Time>
            <Position>
              <LatitudeDegrees>42.45727951638400554656982421875</LatitudeDegrees>
              <LongitudeDegrees>2.83332240767776966094970703125</LongitudeDegrees>
            </Position>
            <AltitudeMeters>526.20001220703125</AltitudeMeters>
            <DistanceMeters>4829.8144797971</DistanceMeters>
          </Trackpoint>
          <Trackpoint>
            <Time>2021-03-31T15:24:18.000Z</Time>
            <Position>
              <LatitudeDegrees>42.45727415196597576141357421875</LatitudeDegrees>
              <LongitudeDegrees>2.833331041038036346435546875</LongitudeDegrees>
            </Position>
            <AltitudeMeters>526.4000244140625</AltitudeMeters>
            <DistanceMeters>4830.7455476457</DistanceMeters>
          </Trackpoint>
          <Trackpoint>
            <Time>2021-03-31T15:24:21.000Z</Time>
            <Position>
              <LatitudeDegrees>42.4572536163032054901123046875</LatitudeDegrees>
              <LongitudeDegrees>2.83335777930915355682373046875</LongitudeDegrees>
            </Position>
            <AltitudeMeters>526</AltitudeMeters>
            <DistanceMeters>4833.9172199425</DistanceMeters>
          </Trackpoint>
          <Trackpoint>
            <Time>2021-03-31T15:24:22.000Z</Time>
            <Position>
              <LatitudeDegrees>42.45724800042808055877685546875</LatitudeDegrees>
              <LongitudeDegrees>2.83336716704070568084716796875</LongitudeDegrees>
            </Position>
            <AltitudeMeters>525.5999755859375</AltitudeMeters>
            <DistanceMeters>4834.9093279671</DistanceMeters>
          </Trackpoint>
          <Trackpoint>
            <Time>2021-03-31T15:24:26.000Z</Time>
            <Position>
              <LatitudeDegrees>42.45721966959536075592041015625</LatitudeDegrees>
              <LongitudeDegrees>2.83341519534587860107421875</LongitudeDegrees>
            </Position>
            <AltitudeMeters>525.4000244140625</AltitudeMeters>
            <DistanceMeters>4839.9582789275</DistanceMeters>
          </Trackpoint>
          <Trackpoint>
            <Time>2021-03-31T15:24:28.000Z</Time>
            <Position>
              <LatitudeDegrees>42.45720106177031993865966796875</LatitudeDegrees>
              <LongitudeDegrees>2.8334317915141582489013671875</LongitudeDegrees>
            </Position>
            <AltitudeMeters>526</AltitudeMeters>
            <DistanceMeters>4842.4362724671</DistanceMeters>
          </Trackpoint>
          <Trackpoint>
            <Time>2021-03-31T15:24:30.000Z</Time>
            <Position>
              <LatitudeDegrees>42.4571902491152286529541015625</LatitudeDegrees>
              <LongitudeDegrees>2.833455093204975128173828125</LongitudeDegrees>
            </Position>
            <AltitudeMeters>526.5999755859375</AltitudeMeters>
            <DistanceMeters>4844.6970297002</DistanceMeters>
          </Trackpoint>
          <Trackpoint>
            <Time>2021-03-31T15:24:33.000Z</Time>
            <Position>
              <LatitudeDegrees>42.45716686360538005828857421875</LatitudeDegrees>
              <LongitudeDegrees>2.833493985235691070556640625</LongitudeDegrees>
            </Position>
            <AltitudeMeters>527.4000244140625</AltitudeMeters>
            <DistanceMeters>4848.8150976406</DistanceMeters>
          </Trackpoint>
          <Trackpoint>
            <Time>2021-03-31T15:24:35.000Z</Time>
            <Position>
              <LatitudeDegrees>42.45715563185513019561767578125</LatitudeDegrees>
              <LongitudeDegrees>2.83352709375321865081787109375</LongitudeDegrees>
            </Position>
            <AltitudeMeters>527.79998779296875</AltitudeMeters>
            <DistanceMeters>4851.8080620294</DistanceMeters>
          </Trackpoint>
          <Trackpoint>
            <Time>2021-03-31T15:24:36.000Z</Time>
            <Position>
              <LatitudeDegrees>42.45715781114995479583740234375</LatitudeDegrees>
              <LongitudeDegrees>2.83354000188410282135009765625</LongitudeDegrees>
            </Position>
            <AltitudeMeters>527.79998779296875</AltitudeMeters>
            <DistanceMeters>4852.899835857</DistanceMeters>
          </Trackpoint>
          <Trackpoint>
            <Time>2021-03-31T15:24:38.000Z</Time>
            <Position>
              <LatitudeDegrees>42.45715093798935413360595703125</LatitudeDegrees>
              <LongitudeDegrees>2.8335612080991268157958984375</LongitudeDegrees>
            </Position>
            <AltitudeMeters>528.20001220703125</AltitudeMeters>
            <DistanceMeters>4854.8003701444</DistanceMeters>
          </Trackpoint>
          <Trackpoint>
            <Time>2021-03-31T15:24:39.000Z</Time>
            <Position>
              <LatitudeDegrees>42.45714825578033924102783203125</LatitudeDegrees>
              <LongitudeDegrees>2.83357000909745693206787109375</LongitudeDegrees>
            </Position>
            <AltitudeMeters>528.4000244140625</AltitudeMeters>
            <DistanceMeters>4855.5781973242</DistanceMeters>
          </Trackpoint>
          <Trackpoint>
            <Time>2021-03-31T15:24:40.000Z</Time>
            <Position>
              <LatitudeDegrees>42.457139454782009124755859375</LatitudeDegrees>
              <LongitudeDegrees>2.8335754573345184326171875</LongitudeDegrees>
            </Position>
            <AltitudeMeters>528.4000244140625</AltitudeMeters>
            <DistanceMeters>4856.6533018702</DistanceMeters>
          </Trackpoint>
          <Trackpoint>
            <Time>2021-03-31T15:24:41.000Z</Time>
            <Position>
              <LatitudeDegrees>42.45713367126882076263427734375</LatitudeDegrees>
              <LongitudeDegrees>2.83358710817992687225341796875</LongitudeDegrees>
            </Position>
            <AltitudeMeters>528.5999755859375</AltitudeMeters>
            <DistanceMeters>4857.8054395518</DistanceMeters>
          </Trackpoint>
          <Trackpoint>
            <Time>2021-03-31T15:24:44.000Z</Time>
            <Position>
              <LatitudeDegrees>42.4571181647479534149169921875</LatitudeDegrees>
              <LongitudeDegrees>2.83361795358359813690185546875</LongitudeDegrees>
            </Position>
            <AltitudeMeters>528.79998779296875</AltitudeMeters>
            <DistanceMeters>4860.8699590087</DistanceMeters>
          </Trackpoint>
          <Trackpoint>
            <Time>2021-03-31T15:24:47.000Z</Time>
            <Position>
              <LatitudeDegrees>42.4570913426578044891357421875</LatitudeDegrees>
              <LongitudeDegrees>2.83364586532115936279296875</LongitudeDegrees>
            </Position>
            <AltitudeMeters>529</AltitudeMeters>
            <DistanceMeters>4864.6328249197</DistanceMeters>
          </Trackpoint>
          <Trackpoint>
            <Time>2021-03-31T15:24:49.000Z</Time>
            <Position>
              <LatitudeDegrees>42.45708757080137729644775390625</LatitudeDegrees>
              <LongitudeDegrees>2.833670340478420257568359375</LongitudeDegrees>
            </Position>
            <AltitudeMeters>529.20001220703125</AltitudeMeters>
            <DistanceMeters>4866.6841697524</DistanceMeters>
          </Trackpoint>
          <Trackpoint>
            <Time>2021-03-31T15:24:52.000Z</Time>
            <Position>
              <LatitudeDegrees>42.4570769257843494415283203125</LatitudeDegrees>
              <LongitudeDegrees>2.83371962606906890869140625</LongitudeDegrees>
            </Position>
            <AltitudeMeters>529.4000244140625</AltitudeMeters>
            <DistanceMeters>4870.9019002553</DistanceMeters>
          </Trackpoint>
          <Trackpoint>
            <Time>2021-03-31T15:24:53.000Z</Time>
            <Position>
              <LatitudeDegrees>42.45707047171890735626220703125</LatitudeDegrees>
              <LongitudeDegrees>2.83372792415320873260498046875</LongitudeDegrees>
            </Position>
            <AltitudeMeters>529.5999755859375</AltitudeMeters>
            <DistanceMeters>4871.8894468395</DistanceMeters>
          </Trackpoint>
          <Trackpoint>
            <Time>2021-03-31T15:24:56.000Z</Time>
            <Position>
              <LatitudeDegrees>42.4570551328361034393310546875</LatitudeDegrees>
              <LongitudeDegrees>2.833756841719150543212890625</LongitudeDegrees>
            </Position>
            <AltitudeMeters>530.20001220703125</AltitudeMeters>
            <DistanceMeters>4874.8121942312</DistanceMeters>
          </Trackpoint>
          <Trackpoint>
            <Time>2021-03-31T15:24:58.000Z</Time>
            <Position>
              <LatitudeDegrees>42.4570400454103946685791015625</LatitudeDegrees>
              <LongitudeDegrees>2.8337754495441913604736328125</LongitudeDegrees>
            </Position>
            <AltitudeMeters>530.5999755859375</AltitudeMeters>
            <DistanceMeters>4877.0829151849</DistanceMeters>
          </Trackpoint>
          <Trackpoint>
            <Time>2021-03-31T15:25:03.000Z</Time>
            <Position>
              <LatitudeDegrees>42.45699771679937839508056640625</LatitudeDegrees>
              <LongitudeDegrees>2.833814509212970733642578125</LongitudeDegrees>
            </Position>
            <AltitudeMeters>531.5999755859375</AltitudeMeters>
            <DistanceMeters>4882.7813496096</DistanceMeters>
          </Trackpoint>
          <Trackpoint>
            <Time>2021-03-31T15:25:06.000Z</Time>
            <Position>
              <LatitudeDegrees>42.456974498927593231201171875</LatitudeDegrees>
              <LongitudeDegrees>2.83384057693183422088623046875</LongitudeDegrees>
            </Position>
            <AltitudeMeters>531.79998779296875</AltitudeMeters>
            <DistanceMeters>4886.1356714858</DistanceMeters>
          </Trackpoint>
          <Trackpoint>
            <Time>2021-03-31T15:25:10.000Z</Time>
            <Position>
              <LatitudeDegrees>42.456952035427093505859375</LatitudeDegrees>
              <LongitudeDegrees>2.83388801850378513336181640625</LongitudeDegrees>
            </Position>
            <AltitudeMeters>531.4000244140625</AltitudeMeters>
            <DistanceMeters>4890.7657256408</DistanceMeters>
          </Trackpoint>
          <Trackpoint>
            <Time>2021-03-31T15:25:12.000Z</Time>
            <Position>
              <LatitudeDegrees>42.4569404684007167816162109375</LatitudeDegrees>
              <LongitudeDegrees>2.8339058719575405120849609375</LongitudeDegrees>
            </Position>
            <AltitudeMeters>531.20001220703125</AltitudeMeters>
            <DistanceMeters>4892.715510804</DistanceMeters>
          </Trackpoint>
          <Trackpoint>
            <Time>2021-03-31T15:25:18.000Z</Time>
            <Position>
              <LatitudeDegrees>42.456887662410736083984375</LatitudeDegrees>
              <LongitudeDegrees>2.8339724242687225341796875</LongitudeDegrees>
            </Position>
            <AltitudeMeters>532.4000244140625</AltitudeMeters>
            <DistanceMeters>4900.7406279495</DistanceMeters>
          </Trackpoint>
          <Trackpoint>
            <Time>2021-03-31T15:25:19.000Z</Time>
            <Position>
              <LatitudeDegrees>42.45688254944980144500732421875</LatitudeDegrees>
              <LongitudeDegrees>2.83399027772247791290283203125</LongitudeDegrees>
            </Position>
            <AltitudeMeters>532.79998779296875</AltitudeMeters>
            <DistanceMeters>4902.3135999599</DistanceMeters>
          </Trackpoint>
          <Trackpoint>
            <Time>2021-03-31T15:25:22.000Z</Time>
            <Position>
              <LatitudeDegrees>42.456845752894878387451171875</LatitudeDegrees>
              <LongitudeDegrees>2.83401601016521453857421875</LongitudeDegrees>
            </Position>
            <AltitudeMeters>533.5999755859375</AltitudeMeters>
            <DistanceMeters>4906.9221506862</DistanceMeters>
          </Trackpoint>
          <Trackpoint>
            <Time>2021-03-31T15:25:23.000Z</Time>
            <Position>
              <LatitudeDegrees>42.45683343149721622467041015625</LatitudeDegrees>
              <LongitudeDegrees>2.83402137458324432373046875</LongitudeDegrees>
            </Position>
            <AltitudeMeters>533.79998779296875</AltitudeMeters>
            <DistanceMeters>4908.363302164</DistanceMeters>
          </Trackpoint>
          <Trackpoint>
            <Time>2021-03-31T15:25:24.000Z</Time>
            <Position>
              <LatitudeDegrees>42.45682370848953723907470703125</LatitudeDegrees>
              <LongitudeDegrees>2.8340272419154644012451171875</LongitudeDegrees>
            </Position>
            <AltitudeMeters>533.79998779296875</AltitudeMeters>
            <DistanceMeters>4909.5501854461</DistanceMeters>
          </Trackpoint>
          <Trackpoint>
            <Time>2021-03-31T15:25:26.000Z</Time>
            <Position>
              <LatitudeDegrees>42.4568060226738452911376953125</LatitudeDegrees>
              <LongitudeDegrees>2.83404526300728321075439453125</LongitudeDegrees>
            </Position>
            <AltitudeMeters>534</AltitudeMeters>
            <DistanceMeters>4912.0135594271</DistanceMeters>
          </Trackpoint>
          <Trackpoint>
            <Time>2021-03-31T15:25:27.000Z</Time>
            <Position>
              <LatitudeDegrees>42.45679805986583232879638671875</LatitudeDegrees>
              <LongitudeDegrees>2.83405414782464504241943359375</LongitudeDegrees>
            </Position>
            <AltitudeMeters>534.20001220703125</AltitudeMeters>
            <DistanceMeters>4913.1617715855</DistanceMeters>
          </Trackpoint>
          <Trackpoint>
            <Time>2021-03-31T15:25:28.000Z</Time>
            <Position>
              <LatitudeDegrees>42.45678666047751903533935546875</LatitudeDegrees>
              <LongitudeDegrees>2.83406252972781658172607421875</LongitudeDegrees>
            </Position>
            <AltitudeMeters>534.20001220703125</AltitudeMeters>
            <DistanceMeters>4914.6029230634</DistanceMeters>
          </Trackpoint>
          <Trackpoint>
            <Time>2021-03-31T15:25:30.000Z</Time>
            <Position>
              <LatitudeDegrees>42.456774003803730010986328125</LatitudeDegrees>
              <LongitudeDegrees>2.83407812006771564483642578125</LongitudeDegrees>
            </Position>
            <AltitudeMeters>534.4000244140625</AltitudeMeters>
            <DistanceMeters>4916.5058315357</DistanceMeters>
          </Trackpoint>
          <Trackpoint>
            <Time>2021-03-31T15:25:32.000Z</Time>
            <Position>
              <LatitudeDegrees>42.45676067657768726348876953125</LatitudeDegrees>
              <LongitudeDegrees>2.83409153111279010772705078125</LongitudeDegrees>
            </Position>
            <AltitudeMeters>534.79998779296875</AltitudeMeters>
            <DistanceMeters>4918.3533620215</DistanceMeters>
          </Trackpoint>
          <Trackpoint>
            <Time>2021-03-31T15:25:38.000Z</Time>
            <Position>
              <LatitudeDegrees>42.45672740042209625244140625</LatitudeDegrees>
              <LongitudeDegrees>2.83414919860661029815673828125</LongitudeDegrees>
            </Position>
            <AltitudeMeters>535.4000244140625</AltitudeMeters>
            <DistanceMeters>4924.3648814574</DistanceMeters>
          </Trackpoint>
          <Trackpoint>
            <Time>2021-03-31T15:25:40.000Z</Time>
            <Position>
              <LatitudeDegrees>42.45671130716800689697265625</LatitudeDegrees>
              <LongitudeDegrees>2.8341615200042724609375</LongitudeDegrees>
            </Position>
            <AltitudeMeters>535.79998779296875</AltitudeMeters>
            <DistanceMeters>4926.4228187383</DistanceMeters>
          </Trackpoint>
          <Trackpoint>
            <Time>2021-03-31T15:25:41.000Z</Time>
            <Position>
              <LatitudeDegrees>42.45670401491224765777587890625</LatitudeDegrees>
              <LongitudeDegrees>2.83416948281228542327880859375</LongitudeDegrees>
            </Position>
            <AltitudeMeters>536</AltitudeMeters>
            <DistanceMeters>4927.4637842389</DistanceMeters>
          </Trackpoint>
          <Trackpoint>
            <Time>2021-03-31T15:25:43.000Z</Time>
            <Position>
              <LatitudeDegrees>42.4566913582384586334228515625</LatitudeDegrees>
              <LongitudeDegrees>2.8341858275234699249267578125</LongitudeDegrees>
            </Position>
            <AltitudeMeters>536.20001220703125</AltitudeMeters>
            <DistanceMeters>4929.4112523661</DistanceMeters>
          </Trackpoint>
          <Trackpoint>
            <Time>2021-03-31T15:25:45.000Z</Time>
            <Position>
              <LatitudeDegrees>42.4566812999546527862548828125</LatitudeDegrees>
              <LongitudeDegrees>2.83419965766370296478271484375</LongitudeDegrees>
            </Position>
            <AltitudeMeters>536.20001220703125</AltitudeMeters>
            <DistanceMeters>4931.0070222609</DistanceMeters>
          </Trackpoint>
          <Trackpoint>
            <Time>2021-03-31T15:25:51.000Z</Time>
            <Position>
              <LatitudeDegrees>42.4566209502518177032470703125</LatitudeDegrees>
              <LongitudeDegrees>2.8342274017632007598876953125</LongitudeDegrees>
            </Position>
            <AltitudeMeters>536.5999755859375</AltitudeMeters>
            <DistanceMeters>4938.1003702677</DistanceMeters>
          </Trackpoint>
          <Trackpoint>
            <Time>2021-03-31T15:25:53.000Z</Time>
            <Position>
              <LatitudeDegrees>42.4566041864454746246337890625</LatitudeDegrees>
              <LongitudeDegrees>2.8342357836663722991943359375</LongitudeDegrees>
            </Position>
            <AltitudeMeters>536.79998779296875</AltitudeMeters>
            <DistanceMeters>4940.089132064</DistanceMeters>
          </Trackpoint>
          <Trackpoint>
            <Time>2021-03-31T15:25:59.000Z</Time>
            <Position>
              <LatitudeDegrees>42.45654677040874958038330078125</LatitudeDegrees>
              <LongitudeDegrees>2.83426889218389987945556640625</LongitudeDegrees>
            </Position>
            <AltitudeMeters>537.5999755859375</AltitudeMeters>
            <DistanceMeters>4947.0345383418</DistanceMeters>
          </Trackpoint>
          <Trackpoint>
            <Time>2021-03-31T15:26:00.000Z</Time>
            <Position>
              <LatitudeDegrees>42.45653956197202205657958984375</LatitudeDegrees>
              <LongitudeDegrees>2.83427509479224681854248046875</LongitudeDegrees>
            </Position>
            <AltitudeMeters>537.5999755859375</AltitudeMeters>
            <DistanceMeters>4947.9848054855</DistanceMeters>
          </Trackpoint>
          <Trackpoint>
            <Time>2021-03-31T15:26:03.000Z</Time>
            <Position>
              <LatitudeDegrees>42.4565106444060802459716796875</LatitudeDegrees>
              <LongitudeDegrees>2.83428750000894069671630859375</LongitudeDegrees>
            </Position>
            <AltitudeMeters>538</AltitudeMeters>
            <DistanceMeters>4951.3605952408</DistanceMeters>
          </Trackpoint>
          <Trackpoint>
            <Time>2021-03-31T15:26:07.000Z</Time>
            <Position>
              <LatitudeDegrees>42.45648256503045558929443359375</LatitudeDegrees>
              <LongitudeDegrees>2.83430392853915691375732421875</LongitudeDegrees>
            </Position>
            <AltitudeMeters>538.4000244140625</AltitudeMeters>
            <DistanceMeters>4954.7643561134</DistanceMeters>
          </Trackpoint>
          <Trackpoint>
            <Time>2021-03-31T15:26:16.000Z</Time>
            <Position>
              <LatitudeDegrees>42.4563912861049175262451171875</LatitudeDegrees>
              <LongitudeDegrees>2.83435530960559844970703125</LongitudeDegrees>
            </Position>
            <AltitudeMeters>538.4000244140625</AltitudeMeters>
            <DistanceMeters>4965.7653144581</DistanceMeters>
          </Trackpoint>
          <Trackpoint>
            <Time>2021-03-31T15:26:20.000Z</Time>
            <Position>
              <LatitudeDegrees>42.45635415427386760711669921875</LatitudeDegrees>
              <LongitudeDegrees>2.83436243422329425811767578125</LongitudeDegrees>
            </Position>
            <AltitudeMeters>539.20001220703125</AltitudeMeters>
            <DistanceMeters>4969.9378421553</DistanceMeters>
          </Trackpoint>
          <Trackpoint>
            <Time>2021-03-31T15:26:26.000Z</Time>
            <Position>
              <LatitudeDegrees>42.45630302466452121734619140625</LatitudeDegrees>
              <LongitudeDegrees>2.834400571882724761962890625</LongitudeDegrees>
            </Position>
            <AltitudeMeters>540.20001220703125</AltitudeMeters>
            <DistanceMeters>4976.4331109832</DistanceMeters>
          </Trackpoint>
          <Trackpoint>
            <Time>2021-03-31T15:26:27.000Z</Time>
            <Position>
              <LatitudeDegrees>42.45629690587520599365234375</LatitudeDegrees>
              <LongitudeDegrees>2.83440384082496166229248046875</LongitudeDegrees>
            </Position>
            <AltitudeMeters>540</AltitudeMeters>
            <DistanceMeters>4977.1630250262</DistanceMeters>
          </Trackpoint>
          <Trackpoint>
            <Time>2021-03-31T15:26:31.000Z</Time>
            <Position>
              <LatitudeDegrees>42.45624870993196964263916015625</LatitudeDegrees>
              <LongitudeDegrees>2.8344004042446613311767578125</LongitudeDegrees>
            </Position>
            <AltitudeMeters>540.20001220703125</AltitudeMeters>
            <DistanceMeters>4982.5351870039</DistanceMeters>
          </Trackpoint>
          <Trackpoint>
            <Time>2021-03-31T15:26:33.000Z</Time>
            <Position>
              <LatitudeDegrees>42.45622758753597736358642578125</LatitudeDegrees>
              <LongitudeDegrees>2.83440652303397655487060546875</LongitudeDegrees>
            </Position>
            <AltitudeMeters>540.4000244140625</AltitudeMeters>
            <DistanceMeters>4984.9391938517</DistanceMeters>
          </Trackpoint>
          <Trackpoint>
            <Time>2021-03-31T15:26:37.000Z</Time>
            <Position>
              <LatitudeDegrees>42.4561820738017559051513671875</LatitudeDegrees>
              <LongitudeDegrees>2.8344128094613552093505859375</LongitudeDegrees>
            </Position>
            <AltitudeMeters>540.5999755859375</AltitudeMeters>
            <DistanceMeters>4990.0300011937</DistanceMeters>
          </Trackpoint>
          <Trackpoint>
            <Time>2021-03-31T15:26:38.000Z</Time>
            <Position>
              <LatitudeDegrees>42.4561720155179500579833984375</LatitudeDegrees>
              <LongitudeDegrees>2.8344161622226238250732421875</LongitudeDegrees>
            </Position>
            <AltitudeMeters>540.5999755859375</AltitudeMeters>
            <DistanceMeters>4991.1782133522</DistanceMeters>
          </Trackpoint>
          <Trackpoint>
            <Time>2021-03-31T15:26:39.000Z</Time>
            <Position>
              <LatitudeDegrees>42.4561629630625247955322265625</LatitudeDegrees>
              <LongitudeDegrees>2.83441976644098758697509765625</LongitudeDegrees>
            </Position>
            <AltitudeMeters>540.79998779296875</AltitudeMeters>
            <DistanceMeters>4992.232110597</DistanceMeters>
          </Trackpoint>
          <Trackpoint>
            <Time>2021-03-31T15:26:42.000Z</Time>
            <Position>
              <LatitudeDegrees>42.45613689534366130828857421875</LatitudeDegrees>
              <LongitudeDegrees>2.83442093990743160247802734375</LongitudeDegrees>
            </Position>
            <AltitudeMeters>541.4000244140625</AltitudeMeters>
            <DistanceMeters>4995.136261316</DistanceMeters>
          </Trackpoint>
          <Trackpoint>
            <Time>2021-03-31T15:26:48.000Z</Time>
            <Position>
              <LatitudeDegrees>42.456077970564365386962890625</LatitudeDegrees>
              <LongitudeDegrees>2.8344218619167804718017578125</LongitudeDegrees>
            </Position>
            <AltitudeMeters>541.79998779296875</AltitudeMeters>
            <DistanceMeters>5001.6951700803</DistanceMeters>
          </Trackpoint>
          <Trackpoint>
            <Time>2021-03-31T15:26:52.000Z</Time>
            <Position>
              <LatitudeDegrees>42.45604301802814006805419921875</LatitudeDegrees>
              <LongitudeDegrees>2.834424711763858795166015625</LongitudeDegrees>
            </Position>
            <AltitudeMeters>542.20001220703125</AltitudeMeters>
            <DistanceMeters>5005.5924240596</DistanceMeters>
          </Trackpoint>
          <Trackpoint>
            <Time>2021-03-31T15:26:54.000Z</Time>
            <Position>
              <LatitudeDegrees>42.45603212155401706695556640625</LatitudeDegrees>
              <LongitudeDegrees>2.8344258852303028106689453125</LongitudeDegrees>
            </Position>
            <AltitudeMeters>542.4000244140625</AltitudeMeters>
            <DistanceMeters>5006.8093597756</DistanceMeters>
          </Trackpoint>
          <Trackpoint>
            <Time>2021-03-31T15:26:55.000Z</Time>
            <Position>
              <LatitudeDegrees>42.45602734386920928955078125</LatitudeDegrees>
              <LongitudeDegrees>2.8344221971929073333740234375</LongitudeDegrees>
            </Position>
            <AltitudeMeters>542.4000244140625</AltitudeMeters>
            <DistanceMeters>5007.4252032708</DistanceMeters>
          </Trackpoint>
          <Trackpoint>
            <Time>2021-03-31T15:27:00.000Z</Time>
            <Position>
              <LatitudeDegrees>42.45597143657505512237548828125</LatitudeDegrees>
              <LongitudeDegrees>2.8344101272523403167724609375</LongitudeDegrees>
            </Position>
            <AltitudeMeters>542.79998779296875</AltitudeMeters>
            <DistanceMeters>5013.7271296589</DistanceMeters>
          </Trackpoint>
          <Trackpoint>
            <Time>2021-03-31T15:27:02.000Z</Time>
            <Position>
              <LatitudeDegrees>42.455951906740665435791015625</LatitudeDegrees>
              <LongitudeDegrees>2.83440618775784969329833984375</LongitudeDegrees>
            </Position>
            <AltitudeMeters>543</AltitudeMeters>
            <DistanceMeters>5015.9230487879</DistanceMeters>
          </Trackpoint>
          <Trackpoint>
            <Time>2021-03-31T15:27:08.000Z</Time>
            <Position>
              <LatitudeDegrees>42.4558887071907520294189453125</LatitudeDegrees>
              <LongitudeDegrees>2.83438942395150661468505859375</LongitudeDegrees>
            </Position>
            <AltitudeMeters>543.5999755859375</AltitudeMeters>
            <DistanceMeters>5023.0911123315</DistanceMeters>
          </Trackpoint>
          <Trackpoint>
            <Time>2021-03-31T15:27:11.000Z</Time>
            <Position>
              <LatitudeDegrees>42.4558643996715545654296875</LatitudeDegrees>
              <LongitudeDegrees>2.83438171260058879852294921875</LongitudeDegrees>
            </Position>
            <AltitudeMeters>543.79998779296875</AltitudeMeters>
            <DistanceMeters>5025.8713543059</DistanceMeters>
          </Trackpoint>
          <Trackpoint>
            <Time>2021-03-31T15:27:13.000Z</Time>
            <Position>
              <LatitudeDegrees>42.45584989897906780242919921875</LatitudeDegrees>
              <LongitudeDegrees>2.83437919802963733673095703125</LongitudeDegrees>
            </Position>
            <AltitudeMeters>544</AltitudeMeters>
            <DistanceMeters>5027.5007230409</DistanceMeters>
          </Trackpoint>
          <Trackpoint>
            <Time>2021-03-31T15:27:20.000Z</Time>
            <Position>
              <LatitudeDegrees>42.455774880945682525634765625</LatitudeDegrees>
              <LongitudeDegrees>2.8343829698860645294189453125</LongitudeDegrees>
            </Position>
            <AltitudeMeters>544.5999755859375</AltitudeMeters>
            <DistanceMeters>5035.8565922994</DistanceMeters>
          </Trackpoint>
          <Trackpoint>
            <Time>2021-03-31T15:27:22.000Z</Time>
            <Position>
              <LatitudeDegrees>42.4557522498071193695068359375</LatitudeDegrees>
              <LongitudeDegrees>2.834381796419620513916015625</LongitudeDegrees>
            </Position>
            <AltitudeMeters>544.5999755859375</AltitudeMeters>
            <DistanceMeters>5038.3779359524</DistanceMeters>
          </Trackpoint>
          <Trackpoint>
            <Time>2021-03-31T15:27:23.000Z</Time>
            <Position>
              <LatitudeDegrees>42.455743364989757537841796875</LatitudeDegrees>
              <LongitudeDegrees>2.83438288606703281402587890625</LongitudeDegrees>
            </Position>
            <AltitudeMeters>544.79998779296875</AltitudeMeters>
            <DistanceMeters>5039.3700439769</DistanceMeters>
          </Trackpoint>
          <Trackpoint>
            <Time>2021-03-31T15:27:24.000Z</Time>
            <Position>
              <LatitudeDegrees>42.45573766529560089111328125</LatitudeDegrees>
              <LongitudeDegrees>2.8343833051621913909912109375</LongitudeDegrees>
            </Position>
            <AltitudeMeters>544.79998779296875</AltitudeMeters>
            <DistanceMeters>5040.0003798902</DistanceMeters>
          </Trackpoint>
          <Trackpoint>
            <Time>2021-03-31T15:27:26.000Z</Time>
            <Position>
              <LatitudeDegrees>42.45572551153600215911865234375</LatitudeDegrees>
              <LongitudeDegrees>2.83439009450376033782958984375</LongitudeDegrees>
            </Position>
            <AltitudeMeters>545</AltitudeMeters>
            <DistanceMeters>5041.4632975629</DistanceMeters>
          </Trackpoint>
          <Trackpoint>
            <Time>2021-03-31T15:27:27.000Z</Time>
            <Position>
              <LatitudeDegrees>42.45571629144251346588134765625</LatitudeDegrees>
              <LongitudeDegrees>2.8343930281698703765869140625</LongitudeDegrees>
            </Position>
            <AltitudeMeters>545</AltitudeMeters>
            <DistanceMeters>5042.5214702705</DistanceMeters>
          </Trackpoint>
          <Trackpoint>
            <Time>2021-03-31T15:27:34.000Z</Time>
            <Position>
              <LatitudeDegrees>42.4556563608348369598388671875</LatitudeDegrees>
              <LongitudeDegrees>2.83443845808506011962890625</LongitudeDegrees>
            </Position>
            <AltitudeMeters>545.5999755859375</AltitudeMeters>
            <DistanceMeters>5050.1650685457</DistanceMeters>
          </Trackpoint>
          <Trackpoint>
            <Time>2021-03-31T15:27:36.000Z</Time>
            <Position>
              <LatitudeDegrees>42.4556426145136356353759765625</LatitudeDegrees>
              <LongitudeDegrees>2.83445656299591064453125</LongitudeDegrees>
            </Position>
            <AltitudeMeters>546</AltitudeMeters>
            <DistanceMeters>5052.2984129922</DistanceMeters>
          </Trackpoint>
          <Trackpoint>
            <Time>2021-03-31T15:27:40.000Z</Time>
            <Position>
              <LatitudeDegrees>42.455616630613803863525390625</LatitudeDegrees>
              <LongitudeDegrees>2.8344872407615184783935546875</LongitudeDegrees>
            </Position>
            <AltitudeMeters>546.20001220703125</AltitudeMeters>
            <DistanceMeters>5056.1337740609</DistanceMeters>
          </Trackpoint>
          <Trackpoint>
            <Time>2021-03-31T15:27:42.000Z</Time>
            <Position>
              <LatitudeDegrees>42.45560397394001483917236328125</LatitudeDegrees>
              <LongitudeDegrees>2.8345050103962421417236328125</LongitudeDegrees>
            </Position>
            <AltitudeMeters>546.20001220703125</AltitudeMeters>
            <DistanceMeters>5058.1629893916</DistanceMeters>
          </Trackpoint>
          <Trackpoint>
            <Time>2021-03-31T15:27:45.000Z</Time>
            <Position>
              <LatitudeDegrees>42.45558821596205234527587890625</LatitudeDegrees>
              <LongitudeDegrees>2.83453057520091533660888671875</LongitudeDegrees>
            </Position>
            <AltitudeMeters>546.5999755859375</AltitudeMeters>
            <DistanceMeters>5060.9006824805</DistanceMeters>
          </Trackpoint>
          <Trackpoint>
            <Time>2021-03-31T15:27:46.000Z</Time>
            <Position>
              <LatitudeDegrees>42.45558301918208599090576171875</LatitudeDegrees>
              <LongitudeDegrees>2.834538705646991729736328125</LongitudeDegrees>
            </Position>
            <AltitudeMeters>546.5999755859375</AltitudeMeters>
            <DistanceMeters>5061.7921120778</DistanceMeters>
          </Trackpoint>
          <Trackpoint>
            <Time>2021-03-31T15:27:50.000Z</Time>
            <Position>
              <LatitudeDegrees>42.4555490724742412567138671875</LatitudeDegrees>
              <LongitudeDegrees>2.8345465846359729766845703125</LongitudeDegrees>
            </Position>
            <AltitudeMeters>547</AltitudeMeters>
            <DistanceMeters>5065.6251179967</DistanceMeters>
          </Trackpoint>
          <Trackpoint>
            <Time>2021-03-31T15:27:55.000Z</Time>
            <Position>
              <LatitudeDegrees>42.455518059432506561279296875</LatitudeDegrees>
              <LongitudeDegrees>2.83456913195550441741943359375</LongitudeDegrees>
            </Position>
            <AltitudeMeters>547.20001220703125</AltitudeMeters>
            <DistanceMeters>5069.5420172651</DistanceMeters>
          </Trackpoint>
          <Trackpoint>
            <Time>2021-03-31T15:28:00.000Z</Time>
            <Position>
              <LatitudeDegrees>42.45547707192599773406982421875</LatitudeDegrees>
              <LongitudeDegrees>2.8345968760550022125244140625</LongitudeDegrees>
            </Position>
            <AltitudeMeters>547.79998779296875</AltitudeMeters>
            <DistanceMeters>5074.6416858973</DistanceMeters>
          </Trackpoint>
          <Trackpoint>
            <Time>2021-03-31T15:28:02.000Z</Time>
            <Position>
              <LatitudeDegrees>42.4554535187780857086181640625</LatitudeDegrees>
              <LongitudeDegrees>2.83459997735917568206787109375</LongitudeDegrees>
            </Position>
            <AltitudeMeters>548</AltitudeMeters>
            <DistanceMeters>5077.2751434551</DistanceMeters>
          </Trackpoint>
          <Trackpoint>
            <Time>2021-03-31T15:28:05.000Z</Time>
            <Position>
              <LatitudeDegrees>42.45540867559611797332763671875</LatitudeDegrees>
              <LongitudeDegrees>2.8345905058085918426513671875</LongitudeDegrees>
            </Position>
            <AltitudeMeters>548.4000244140625</AltitudeMeters>
            <DistanceMeters>5082.3258826044</DistanceMeters>
          </Trackpoint>
          <Trackpoint>
            <Time>2021-03-31T15:28:09.000Z</Time>
            <Position>
              <LatitudeDegrees>42.45534162037074565887451171875</LatitudeDegrees>
              <LongitudeDegrees>2.83456712029874324798583984375</LongitudeDegrees>
            </Position>
            <AltitudeMeters>549</AltitudeMeters>
            <DistanceMeters>5090.031840215</DistanceMeters>
          </Trackpoint>
          <Trackpoint>
            <Time>2021-03-31T15:28:12.000Z</Time>
            <Position>
              <LatitudeDegrees>42.45531261898577213287353515625</LatitudeDegrees>
              <LongitudeDegrees>2.83453878946602344512939453125</LongitudeDegrees>
            </Position>
            <AltitudeMeters>549.4000244140625</AltitudeMeters>
            <DistanceMeters>5094.0116334361</DistanceMeters>
          </Trackpoint>
          <Trackpoint>
            <Time>2021-03-31T15:28:16.000Z</Time>
            <Position>
              <LatitudeDegrees>42.4552858807146549224853515625</LatitudeDegrees>
              <LongitudeDegrees>2.83448263071477413177490234375</LongitudeDegrees>
            </Position>
            <AltitudeMeters>549.5999755859375</AltitudeMeters>
            <DistanceMeters>5099.5001974575</DistanceMeters>
          </Trackpoint>
          <Trackpoint>
            <Time>2021-03-31T15:28:17.000Z</Time>
            <Position>
              <LatitudeDegrees>42.45527104474604129791259765625</LatitudeDegrees>
              <LongitudeDegrees>2.83448564819991588592529296875</LongitudeDegrees>
            </Position>
            <AltitudeMeters>549.5999755859375</AltitudeMeters>
            <DistanceMeters>5101.1733154143</DistanceMeters>
          </Trackpoint>
          <Trackpoint>
            <Time>2021-03-31T15:28:20.000Z</Time>
            <Position>
              <LatitudeDegrees>42.45523081161081790924072265625</LatitudeDegrees>
              <LongitudeDegrees>2.8344686329364776611328125</LongitudeDegrees>
            </Position>
            <AltitudeMeters>549.5999755859375</AltitudeMeters>
            <DistanceMeters>5105.8644023133</DistanceMeters>
          </Trackpoint>
          <Trackpoint>
            <Time>2021-03-31T15:28:21.000Z</Time>
            <Position>
              <LatitudeDegrees>42.45522125624120235443115234375</LatitudeDegrees>
              <LongitudeDegrees>2.83446888439357280731201171875</LongitudeDegrees>
            </Position>
            <AltitudeMeters>549.79998779296875</AltitudeMeters>
            <DistanceMeters>5106.9310745366</DistanceMeters>
          </Trackpoint>
          <Trackpoint>
            <Time>2021-03-31T15:28:23.000Z</Time>
            <Position>
              <LatitudeDegrees>42.45520181022584438323974609375</LatitudeDegrees>
              <LongitudeDegrees>2.834454886615276336669921875</LongitudeDegrees>
            </Position>
            <AltitudeMeters>550</AltitudeMeters>
            <DistanceMeters>5109.3797416759</DistanceMeters>
          </Trackpoint>
          <Trackpoint>
            <Time>2021-03-31T15:28:25.000Z</Time>
            <Position>
              <LatitudeDegrees>42.45517917908728122711181640625</LatitudeDegrees>
              <LongitudeDegrees>2.83442328684031963348388671875</LongitudeDegrees>
            </Position>
            <AltitudeMeters>550.20001220703125</AltitudeMeters>
            <DistanceMeters>5112.9957547692</DistanceMeters>
          </Trackpoint>
          <Trackpoint>
            <Time>2021-03-31T15:28:27.000Z</Time>
            <Position>
              <LatitudeDegrees>42.4551655165851116180419921875</LatitudeDegrees>
              <LongitudeDegrees>2.83440358936786651611328125</LongitudeDegrees>
            </Position>
            <AltitudeMeters>550.5999755859375</AltitudeMeters>
            <DistanceMeters>5115.216210069</DistanceMeters>
          </Trackpoint>
          <Trackpoint>
            <Time>2021-03-31T15:28:30.000Z</Time>
            <Position>
              <LatitudeDegrees>42.455143220722675323486328125</LatitudeDegrees>
              <LongitudeDegrees>2.8343789465725421905517578125</LongitudeDegrees>
            </Position>
            <AltitudeMeters>551.20001220703125</AltitudeMeters>
            <DistanceMeters>5118.41763737</DistanceMeters>
          </Trackpoint>
          <Trackpoint>
            <Time>2021-03-31T15:28:33.000Z</Time>
            <Position>
              <LatitudeDegrees>42.45512067340314388275146484375</LatitudeDegrees>
              <LongitudeDegrees>2.834351621568202972412109375</LongitudeDegrees>
            </Position>
            <AltitudeMeters>551.5999755859375</AltitudeMeters>
            <DistanceMeters>5121.7827103054</DistanceMeters>
          </Trackpoint>
          <Trackpoint>
            <Time>2021-03-31T15:28:37.000Z</Time>
            <Position>
              <LatitudeDegrees>42.45510608889162540435791015625</LatitudeDegrees>
              <LongitudeDegrees>2.834307365119457244873046875</LongitudeDegrees>
            </Position>
            <AltitudeMeters>551.79998779296875</AltitudeMeters>
            <DistanceMeters>5125.7636378555</DistanceMeters>
          </Trackpoint>
          <Trackpoint>
            <Time>2021-03-31T15:28:41.000Z</Time>
            <Position>
              <LatitudeDegrees>42.45507490821182727813720703125</LatitudeDegrees>
              <LongitudeDegrees>2.83427710644900798797607421875</LongitudeDegrees>
            </Position>
            <AltitudeMeters>552</AltitudeMeters>
            <DistanceMeters>5130.0324426372</DistanceMeters>
          </Trackpoint>
          <Trackpoint>
            <Time>2021-03-31T15:28:49.000Z</Time>
            <Position>
              <LatitudeDegrees>42.45503148995339870452880859375</LatitudeDegrees>
              <LongitudeDegrees>2.83421206288039684295654296875</LongitudeDegrees>
            </Position>
            <AltitudeMeters>552.4000244140625</AltitudeMeters>
            <DistanceMeters>5137.2344395196</DistanceMeters>
          </Trackpoint>
          <Trackpoint>
            <Time>2021-03-31T15:28:53.000Z</Time>
            <Position>
              <LatitudeDegrees>42.45500944554805755615234375</LatitudeDegrees>
              <LongitudeDegrees>2.83418356440961360931396484375</LongitudeDegrees>
            </Position>
            <AltitudeMeters>553.4000244140625</AltitudeMeters>
            <DistanceMeters>5140.6235776455</DistanceMeters>
          </Trackpoint>
          <Trackpoint>
            <Time>2021-03-31T15:28:56.000Z</Time>
            <Position>
              <LatitudeDegrees>42.45499025098979473114013671875</LatitudeDegrees>
              <LongitudeDegrees>2.83416621387004852294921875</LongitudeDegrees>
            </Position>
            <AltitudeMeters>554.20001220703125</AltitudeMeters>
            <DistanceMeters>5143.1928160308</DistanceMeters>
          </Trackpoint>
          <Trackpoint>
            <Time>2021-03-31T15:28:59.000Z</Time>
            <Position>
              <LatitudeDegrees>42.4549737386405467987060546875</LatitudeDegrees>
              <LongitudeDegrees>2.83414073288440704345703125</LongitudeDegrees>
            </Position>
            <AltitudeMeters>554.20001220703125</AltitudeMeters>
            <DistanceMeters>5145.9763040565</DistanceMeters>
          </Trackpoint>
          <Trackpoint>
            <Time>2021-03-31T15:29:01.000Z</Time>
            <Position>
              <LatitudeDegrees>42.45496259070932865142822265625</LatitudeDegrees>
              <LongitudeDegrees>2.83411801792681217193603515625</LongitudeDegrees>
            </Position>
            <AltitudeMeters>554.20001220703125</AltitudeMeters>
            <DistanceMeters>5148.2170009353</DistanceMeters>
          </Trackpoint>
          <Trackpoint>
            <Time>2021-03-31T15:29:06.000Z</Time>
            <Position>
              <LatitudeDegrees>42.45492537505924701690673828125</LatitudeDegrees>
              <LongitudeDegrees>2.83407778479158878326416015625</LongitudeDegrees>
            </Position>
            <AltitudeMeters>554</AltitudeMeters>
            <DistanceMeters>5153.5155391926</DistanceMeters>
          </Trackpoint>
          <Trackpoint>
            <Time>2021-03-31T15:29:10.000Z</Time>
            <Position>
              <LatitudeDegrees>42.45490425266325473785400390625</LatitudeDegrees>
              <LongitudeDegrees>2.83401911146938800811767578125</LongitudeDegrees>
            </Position>
            <AltitudeMeters>554.5999755859375</AltitudeMeters>
            <DistanceMeters>5158.8759219443</DistanceMeters>
          </Trackpoint>
          <Trackpoint>
            <Time>2021-03-31T15:29:14.000Z</Time>
            <Position>
              <LatitudeDegrees>42.454884387552738189697265625</LatitudeDegrees>
              <LongitudeDegrees>2.833961360156536102294921875</LongitudeDegrees>
            </Position>
            <AltitudeMeters>555.20001220703125</AltitudeMeters>
            <DistanceMeters>5164.1084348949</DistanceMeters>
          </Trackpoint>
          <Trackpoint>
            <Time>2021-03-31T15:29:17.000Z</Time>
            <Position>
              <LatitudeDegrees>42.45486728847026824951171875</LatitudeDegrees>
              <LongitudeDegrees>2.8339246474206447601318359375</LongitudeDegrees>
            </Position>
            <AltitudeMeters>555.79998779296875</AltitudeMeters>
            <DistanceMeters>5167.6741532844</DistanceMeters>
          </Trackpoint>
          <Trackpoint>
            <Time>2021-03-31T15:29:18.000Z</Time>
            <Position>
              <LatitudeDegrees>42.4548617564141750335693359375</LatitudeDegrees>
              <LongitudeDegrees>2.8339176066219806671142578125</LongitudeDegrees>
            </Position>
            <AltitudeMeters>556</AltitudeMeters>
            <DistanceMeters>5168.5187691966</DistanceMeters>
          </Trackpoint>
          <Trackpoint>
            <Time>2021-03-31T15:29:21.000Z</Time>
            <Position>
              <LatitudeDegrees>42.454844824969768524169921875</LatitudeDegrees>
              <LongitudeDegrees>2.83388885669410228729248046875</LongitudeDegrees>
            </Position>
            <AltitudeMeters>556.20001220703125</AltitudeMeters>
            <DistanceMeters>5171.5387654231</DistanceMeters>
          </Trackpoint>
          <Trackpoint>
            <Time>2021-03-31T15:29:26.000Z</Time>
            <Position>
              <LatitudeDegrees>42.45480316691100597381591796875</LatitudeDegrees>
              <LongitudeDegrees>2.83385516144335269927978515625</LongitudeDegrees>
            </Position>
            <AltitudeMeters>556.4000244140625</AltitudeMeters>
            <DistanceMeters>5176.9377548435</DistanceMeters>
          </Trackpoint>
          <Trackpoint>
            <Time>2021-03-31T15:29:29.000Z</Time>
            <Position>
              <LatitudeDegrees>42.4547859840095043182373046875</LatitudeDegrees>
              <LongitudeDegrees>2.83382431603968143463134765625</LongitudeDegrees>
            </Position>
            <AltitudeMeters>556.5999755859375</AltitudeMeters>
            <DistanceMeters>5180.1108503723</DistanceMeters>
          </Trackpoint>
          <Trackpoint>
            <Time>2021-03-31T15:29:31.000Z</Time>
            <Position>
              <LatitudeDegrees>42.45477341115474700927734375</LatitudeDegrees>
              <LongitudeDegrees>2.8338061273097991943359375</LongitudeDegrees>
            </Position>
            <AltitudeMeters>556.79998779296875</AltitudeMeters>
            <DistanceMeters>5182.1577884441</DistanceMeters>
          </Trackpoint>
          <Trackpoint>
            <Time>2021-03-31T15:29:34.000Z</Time>
            <Position>
              <LatitudeDegrees>42.454748935997486114501953125</LatitudeDegrees>
              <LongitudeDegrees>2.83378140069544315338134765625</LongitudeDegrees>
            </Position>
            <AltitudeMeters>557</AltitudeMeters>
            <DistanceMeters>5185.5562392341</DistanceMeters>
          </Trackpoint>
          <Trackpoint>
            <Time>2021-03-31T15:29:35.000Z</Time>
            <Position>
              <LatitudeDegrees>42.4547430686652660369873046875</LatitudeDegrees>
              <LongitudeDegrees>2.83376966603100299835205078125</LongitudeDegrees>
            </Position>
            <AltitudeMeters>557.20001220703125</AltitudeMeters>
            <DistanceMeters>5186.7200740448</DistanceMeters>
          </Trackpoint>
          <Trackpoint>
            <Time>2021-03-31T15:29:36.000Z</Time>
            <Position>
              <LatitudeDegrees>42.45473711751401424407958984375</LatitudeDegrees>
              <LongitudeDegrees>2.8337556682527065277099609375</LongitudeDegrees>
            </Position>
            <AltitudeMeters>557.20001220703125</AltitudeMeters>
            <DistanceMeters>5188.0436430192</DistanceMeters>
          </Trackpoint>
          <Trackpoint>
            <Time>2021-03-31T15:29:37.000Z</Time>
            <Position>
              <LatitudeDegrees>42.45473527349531650543212890625</LatitudeDegrees>
              <LongitudeDegrees>2.833741419017314910888671875</LongitudeDegrees>
            </Position>
            <AltitudeMeters>557.4000244140625</AltitudeMeters>
            <DistanceMeters>5189.2305263013</DistanceMeters>
          </Trackpoint>
          <Trackpoint>
            <Time>2021-03-31T15:29:43.000Z</Time>
            <Position>
              <LatitudeDegrees>42.4547102116048336029052734375</LatitudeDegrees>
              <LongitudeDegrees>2.833666987717151641845703125</LongitudeDegrees>
            </Position>
            <AltitudeMeters>557.79998779296875</AltitudeMeters>
            <DistanceMeters>5195.9499297138</DistanceMeters>
          </Trackpoint>
          <Trackpoint>
            <Time>2021-03-31T15:29:47.000Z</Time>
            <Position>
              <LatitudeDegrees>42.4546869099140167236328125</LatitudeDegrees>
              <LongitudeDegrees>2.83360856585204601287841796875</LongitudeDegrees>
            </Position>
            <AltitudeMeters>558.20001220703125</AltitudeMeters>
            <DistanceMeters>5201.4038339856</DistanceMeters>
          </Trackpoint>
          <Trackpoint>
            <Time>2021-03-31T15:29:49.000Z</Time>
            <Position>
              <LatitudeDegrees>42.45467794127762317657470703125</LatitudeDegrees>
              <LongitudeDegrees>2.83359649591147899627685546875</LongitudeDegrees>
            </Position>
            <AltitudeMeters>558.4000244140625</AltitudeMeters>
            <DistanceMeters>5202.8068866093</DistanceMeters>
          </Trackpoint>
          <Trackpoint>
            <Time>2021-03-31T15:29:53.000Z</Time>
            <Position>
              <LatitudeDegrees>42.45466746389865875244140625</LatitudeDegrees>
              <LongitudeDegrees>2.83354394137859344482421875</LongitudeDegrees>
            </Position>
            <AltitudeMeters>558.79998779296875</AltitudeMeters>
            <DistanceMeters>5207.2771840458</DistanceMeters>
          </Trackpoint>
          <Trackpoint>
            <Time>2021-03-31T15:29:54.000Z</Time>
            <Position>
              <LatitudeDegrees>42.45465950109064579010009765625</LatitudeDegrees>
              <LongitudeDegrees>2.8335306979715824127197265625</LongitudeDegrees>
            </Position>
            <AltitudeMeters>559</AltitudeMeters>
            <DistanceMeters>5208.6802366694</DistanceMeters>
          </Trackpoint>
          <Trackpoint>
            <Time>2021-03-31T15:29:57.000Z</Time>
            <Position>
              <LatitudeDegrees>42.4546485207974910736083984375</LatitudeDegrees>
              <LongitudeDegrees>2.83348317258059978485107421875</LongitudeDegrees>
            </Position>
            <AltitudeMeters>559.4000244140625</AltitudeMeters>
            <DistanceMeters>5212.7719064664</DistanceMeters>
          </Trackpoint>
          <Trackpoint>
            <Time>2021-03-31T15:29:59.000Z</Time>
            <Position>
              <LatitudeDegrees>42.4546428211033344268798828125</LatitudeDegrees>
              <LongitudeDegrees>2.833464145660400390625</LongitudeDegrees>
            </Position>
            <AltitudeMeters>559.5999755859375</AltitudeMeters>
            <DistanceMeters>5214.4611382907</DistanceMeters>
          </Trackpoint>
          <Trackpoint>
            <Time>2021-03-31T15:30:03.000Z</Time>
            <Position>
              <LatitudeDegrees>42.45463435538113117218017578125</LatitudeDegrees>
              <LongitudeDegrees>2.833404131233692169189453125</LongitudeDegrees>
            </Position>
            <AltitudeMeters>559.5999755859375</AltitudeMeters>
            <DistanceMeters>5219.4786927872</DistanceMeters>
          </Trackpoint>
          <Trackpoint>
            <Time>2021-03-31T15:30:05.000Z</Time>
            <Position>
              <LatitudeDegrees>42.4546270631253719329833984375</LatitudeDegrees>
              <LongitudeDegrees>2.83337739296257495880126953125</LongitudeDegrees>
            </Position>
            <AltitudeMeters>560</AltitudeMeters>
            <DistanceMeters>5221.8179718054</DistanceMeters>
          </Trackpoint>
          <Trackpoint>
            <Time>2021-03-31T15:30:06.000Z</Time>
            <Position>
              <LatitudeDegrees>42.45462186634540557861328125</LatitudeDegrees>
              <LongitudeDegrees>2.8333670832216739654541015625</LongitudeDegrees>
            </Position>
            <AltitudeMeters>560</AltitudeMeters>
            <DistanceMeters>5222.8414408414</DistanceMeters>
          </Trackpoint>
          <Trackpoint>
            <Time>2021-03-31T15:30:15.000Z</Time>
            <Position>
              <LatitudeDegrees>42.45456377975642681121826171875</LatitudeDegrees>
              <LongitudeDegrees>2.833288796246051788330078125</LongitudeDegrees>
            </Position>
            <AltitudeMeters>560.79998779296875</AltitudeMeters>
            <DistanceMeters>5231.9590547695</DistanceMeters>
          </Trackpoint>
          <Trackpoint>
            <Time>2021-03-31T15:30:16.000Z</Time>
            <Position>
              <LatitudeDegrees>42.45455774478614330291748046875</LatitudeDegrees>
              <LongitudeDegrees>2.8332804143428802490234375</LongitudeDegrees>
            </Position>
            <AltitudeMeters>561</AltitudeMeters>
            <DistanceMeters>5232.9140614296</DistanceMeters>
          </Trackpoint>
          <Trackpoint>
            <Time>2021-03-31T15:30:17.000Z</Time>
            <Position>
              <LatitudeDegrees>42.45455020107328891754150390625</LatitudeDegrees>
              <LongitudeDegrees>2.8332725353538990020751953125</LongitudeDegrees>
            </Position>
            <AltitudeMeters>561</AltitudeMeters>
            <DistanceMeters>5233.9722341372</DistanceMeters>
          </Trackpoint>
          <Trackpoint>
            <Time>2021-03-31T15:30:20.000Z</Time>
            <Position>
              <LatitudeDegrees>42.4545294977724552154541015625</LatitudeDegrees>
              <LongitudeDegrees>2.83323624171316623687744140625</LongitudeDegrees>
            </Position>
            <AltitudeMeters>561.4000244140625</AltitudeMeters>
            <DistanceMeters>5237.739896565</DistanceMeters>
          </Trackpoint>
          <Trackpoint>
            <Time>2021-03-31T15:30:24.000Z</Time>
            <Position>
              <LatitudeDegrees>42.45450041256844997406005859375</LatitudeDegrees>
              <LongitudeDegrees>2.83318561501801013946533203125</LongitudeDegrees>
            </Position>
            <AltitudeMeters>561.5999755859375</AltitudeMeters>
            <DistanceMeters>5243.009382789</DistanceMeters>
          </Trackpoint>
          <Trackpoint>
            <Time>2021-03-31T15:30:30.000Z</Time>
            <Position>
              <LatitudeDegrees>42.4544731713831424713134765625</LatitudeDegrees>
              <LongitudeDegrees>2.83313532359898090362548828125</LongitudeDegrees>
            </Position>
            <AltitudeMeters>561.79998779296875</AltitudeMeters>
            <DistanceMeters>5248.1337815146</DistanceMeters>
          </Trackpoint>
          <Trackpoint>
            <Time>2021-03-31T15:30:31.000Z</Time>
            <Position>
              <LatitudeDegrees>42.45447040535509586334228515625</LatitudeDegrees>
              <LongitudeDegrees>2.8331313841044902801513671875</LongitudeDegrees>
            </Position>
            <AltitudeMeters>561.79998779296875</AltitudeMeters>
            <DistanceMeters>5248.5794963133</DistanceMeters>
          </Trackpoint>
          <Trackpoint>
            <Time>2021-03-31T15:30:35.000Z</Time>
            <Position>
              <LatitudeDegrees>42.45446001179516315460205078125</LatitudeDegrees>
              <LongitudeDegrees>2.83311612904071807861328125</LongitudeDegrees>
            </Position>
            <AltitudeMeters>561.79998779296875</AltitudeMeters>
            <DistanceMeters>5250.2846897378</DistanceMeters>
          </Trackpoint>
          <Trackpoint>
            <Time>2021-03-31T15:30:37.000Z</Time>
            <Position>
              <LatitudeDegrees>42.45445967651903629302978515625</LatitudeDegrees>
              <LongitudeDegrees>2.83310808241367340087890625</LongitudeDegrees>
            </Position>
            <AltitudeMeters>561.79998779296875</AltitudeMeters>
            <DistanceMeters>5250.9430541273</DistanceMeters>
          </Trackpoint>
          <Trackpoint>
            <Time>2021-03-31T15:30:39.000Z</Time>
            <Position>
              <LatitudeDegrees>42.45446495711803436279296875</LatitudeDegrees>
              <LongitudeDegrees>2.83310229890048503875732421875</LongitudeDegrees>
            </Position>
            <AltitudeMeters>561.79998779296875</AltitudeMeters>
            <DistanceMeters>5251.7032678422</DistanceMeters>
          </Trackpoint>
          <Trackpoint>
            <Time>2021-03-31T15:30:41.000Z</Time>
            <Position>
              <LatitudeDegrees>42.4544611014425754547119140625</LatitudeDegrees>
              <LongitudeDegrees>2.8330797515809535980224609375</LongitudeDegrees>
            </Position>
            <AltitudeMeters>561.79998779296875</AltitudeMeters>
            <DistanceMeters>5253.6038021296</DistanceMeters>
          </Trackpoint>
          <Trackpoint>
            <Time>2021-03-31T15:30:43.000Z</Time>
            <Position>
              <LatitudeDegrees>42.4544393084943294525146484375</LatitudeDegrees>
              <LongitudeDegrees>2.83304831944406032562255859375</LongitudeDegrees>
            </Position>
            <AltitudeMeters>562.20001220703125</AltitudeMeters>
            <DistanceMeters>5257.1466549712</DistanceMeters>
          </Trackpoint>
          <Trackpoint>
            <Time>2021-03-31T15:30:44.000Z</Time>
            <Position>
              <LatitudeDegrees>42.454433776438236236572265625</LatitudeDegrees>
              <LongitudeDegrees>2.83303775824606418609619140625</LongitudeDegrees>
            </Position>
            <AltitudeMeters>562.20001220703125</AltitudeMeters>
            <DistanceMeters>5258.2090859363</DistanceMeters>
          </Trackpoint>
          <Trackpoint>
            <Time>2021-03-31T15:30:45.000Z</Time>
            <Position>
              <LatitudeDegrees>42.45442916639149188995361328125</LatitudeDegrees>
              <LongitudeDegrees>2.83302627503871917724609375</LongitudeDegrees>
            </Position>
            <AltitudeMeters>562.4000244140625</AltitudeMeters>
            <DistanceMeters>5259.2841904823</DistanceMeters>
          </Trackpoint>
          <Trackpoint>
            <Time>2021-03-31T15:30:46.000Z</Time>
            <Position>
              <LatitudeDegrees>42.45441994629800319671630859375</LatitudeDegrees>
              <LongitudeDegrees>2.83301445655524730682373046875</LongitudeDegrees>
            </Position>
            <AltitudeMeters>562.5999755859375</AltitudeMeters>
            <DistanceMeters>5260.7000566379</DistanceMeters>
          </Trackpoint>
          <Trackpoint>
            <Time>2021-03-31T15:30:51.000Z</Time>
            <Position>
              <LatitudeDegrees>42.454404942691326141357421875</LatitudeDegrees>
              <LongitudeDegrees>2.83295243047177791595458984375</LongitudeDegrees>
            </Position>
            <AltitudeMeters>562.79998779296875</AltitudeMeters>
            <DistanceMeters>5266.0595970256</DistanceMeters>
          </Trackpoint>
          <Trackpoint>
            <Time>2021-03-31T15:30:52.000Z</Time>
            <Position>
              <LatitudeDegrees>42.45440192520618438720703125</LatitudeDegrees>
              <LongitudeDegrees>2.83293901942670345306396484375</LongitudeDegrees>
            </Position>
            <AltitudeMeters>563</AltitudeMeters>
            <DistanceMeters>5267.2078091841</DistanceMeters>
          </Trackpoint>
          <Trackpoint>
            <Time>2021-03-31T15:30:57.000Z</Time>
            <Position>
              <LatitudeDegrees>42.45439848862588405609130859375</LatitudeDegrees>
              <LongitudeDegrees>2.8328673541545867919921875</LongitudeDegrees>
            </Position>
            <AltitudeMeters>563</AltitudeMeters>
            <DistanceMeters>5273.1055930443</DistanceMeters>
          </Trackpoint>
          <Trackpoint>
            <Time>2021-03-31T15:30:58.000Z</Time>
            <Position>
              <LatitudeDegrees>42.454400248825550079345703125</LatitudeDegrees>
              <LongitudeDegrees>2.83285134471952915191650390625</LongitudeDegrees>
            </Position>
            <AltitudeMeters>563.20001220703125</AltitudeMeters>
            <DistanceMeters>5274.4359670455</DistanceMeters>
          </Trackpoint>
          <Trackpoint>
            <Time>2021-03-31T15:31:06.000Z</Time>
            <Position>
              <LatitudeDegrees>42.45440871454775333404541015625</LatitudeDegrees>
              <LongitudeDegrees>2.83274606801569461822509765625</LongitudeDegrees>
            </Position>
            <AltitudeMeters>563.79998779296875</AltitudeMeters>
            <DistanceMeters>5283.1323392902</DistanceMeters>
          </Trackpoint>
          <Trackpoint>
            <Time>2021-03-31T15:31:07.000Z</Time>
            <Position>
              <LatitudeDegrees>42.45440687052905559539794921875</LatitudeDegrees>
              <LongitudeDegrees>2.832731902599334716796875</LongitudeDegrees>
            </Position>
            <AltitudeMeters>563.79998779296875</AltitudeMeters>
            <DistanceMeters>5284.3115898032</DistanceMeters>
          </Trackpoint>
          <Trackpoint>
            <Time>2021-03-31T15:31:09.000Z</Time>
            <Position>
              <LatitudeDegrees>42.45439731515944004058837890625</LatitudeDegrees>
              <LongitudeDegrees>2.8327096067368984222412109375</LongitudeDegrees>
            </Position>
            <AltitudeMeters>563.79998779296875</AltitudeMeters>
            <DistanceMeters>5286.4300675568</DistanceMeters>
          </Trackpoint>
          <Trackpoint>
            <Time>2021-03-31T15:31:13.000Z</Time>
            <Position>
              <LatitudeDegrees>42.45439396239817142486572265625</LatitudeDegrees>
              <LongitudeDegrees>2.83267088234424591064453125</LongitudeDegrees>
            </Position>
            <AltitudeMeters>564.20001220703125</AltitudeMeters>
            <DistanceMeters>5289.6329048678</DistanceMeters>
          </Trackpoint>
          <Trackpoint>
            <Time>2021-03-31T15:31:14.000Z</Time>
            <Position>
              <LatitudeDegrees>42.454387843608856201171875</LatitudeDegrees>
              <LongitudeDegrees>2.83265822567045688629150390625</LongitudeDegrees>
            </Position>
            <AltitudeMeters>564.4000244140625</AltitudeMeters>
            <DistanceMeters>5290.879168543</DistanceMeters>
          </Trackpoint>
          <Trackpoint>
            <Time>2021-03-31T15:31:19.000Z</Time>
            <Position>
              <LatitudeDegrees>42.454364039003849029541015625</LatitudeDegrees>
              <LongitudeDegrees>2.8326137177646160125732421875</LongitudeDegrees>
            </Position>
            <AltitudeMeters>565</AltitudeMeters>
            <DistanceMeters>5295.3946876284</DistanceMeters>
          </Trackpoint>
          <Trackpoint>
            <Time>2021-03-31T15:31:25.000Z</Time>
            <Position>
              <LatitudeDegrees>42.45431936345994472503662109375</LatitudeDegrees>
              <LongitudeDegrees>2.83253274857997894287109375</LongitudeDegrees>
            </Position>
            <AltitudeMeters>565.4000244140625</AltitudeMeters>
            <DistanceMeters>5303.6979781599</DistanceMeters>
          </Trackpoint>
          <Trackpoint>
            <Time>2021-03-31T15:31:30.000Z</Time>
            <Position>
              <LatitudeDegrees>42.45429639704525470733642578125</LatitudeDegrees>
              <LongitudeDegrees>2.83248824067413806915283203125</LongitudeDegrees>
            </Position>
            <AltitudeMeters>566</AltitudeMeters>
            <DistanceMeters>5308.1591762593</DistanceMeters>
          </Trackpoint>
          <Trackpoint>
            <Time>2021-03-31T15:31:38.000Z</Time>
            <Position>
              <LatitudeDegrees>42.45424929074943065643310546875</LatitudeDegrees>
              <LongitudeDegrees>2.8323944471776485443115234375</LongitudeDegrees>
            </Position>
            <AltitudeMeters>566.4000244140625</AltitudeMeters>
            <DistanceMeters>5317.4766413079</DistanceMeters>
          </Trackpoint>
          <Trackpoint>
            <Time>2021-03-31T15:31:43.000Z</Time>
            <Position>
              <LatitudeDegrees>42.45421417057514190673828125</LatitudeDegrees>
              <LongitudeDegrees>2.8323408029973506927490234375</LongitudeDegrees>
            </Position>
            <AltitudeMeters>567</AltitudeMeters>
            <DistanceMeters>5323.3667647105</DistanceMeters>
          </Trackpoint>
          <Trackpoint>
            <Time>2021-03-31T15:31:46.000Z</Time>
            <Position>
              <LatitudeDegrees>42.45420277118682861328125</LatitudeDegrees>
              <LongitudeDegrees>2.8323059342801570892333984375</LongitudeDegrees>
            </Position>
            <AltitudeMeters>567.4000244140625</AltitudeMeters>
            <DistanceMeters>5326.4983239097</DistanceMeters>
          </Trackpoint>
          <Trackpoint>
            <Time>2021-03-31T15:31:47.000Z</Time>
            <Position>
              <LatitudeDegrees>42.45420101098716259002685546875</LatitudeDegrees>
              <LongitudeDegrees>2.8322918526828289031982421875</LongitudeDegrees>
            </Position>
            <AltitudeMeters>567.5999755859375</AltitudeMeters>
            <DistanceMeters>5327.6698919272</DistanceMeters>
          </Trackpoint>
          <Trackpoint>
            <Time>2021-03-31T15:31:48.000Z</Time>
            <Position>
              <LatitudeDegrees>42.454197742044925689697265625</LatitudeDegrees>
              <LongitudeDegrees>2.83228171057999134063720703125</LongitudeDegrees>
            </Position>
            <AltitudeMeters>567.79998779296875</AltitudeMeters>
            <DistanceMeters>5328.5813561518</DistanceMeters>
          </Trackpoint>
          <Trackpoint>
            <Time>2021-03-31T15:31:50.000Z</Time>
            <Position>
              <LatitudeDegrees>42.4541925452649593353271484375</LatitudeDegrees>
              <LongitudeDegrees>2.83225790597498416900634765625</LongitudeDegrees>
            </Position>
            <AltitudeMeters>568</AltitudeMeters>
            <DistanceMeters>5330.6194521172</DistanceMeters>
          </Trackpoint>
          <Trackpoint>
            <Time>2021-03-31T15:31:52.000Z</Time>
            <Position>
              <LatitudeDegrees>42.45418324135243892669677734375</LatitudeDegrees>
              <LongitudeDegrees>2.8322331793606281280517578125</LongitudeDegrees>
            </Position>
            <AltitudeMeters>568</AltitudeMeters>
            <DistanceMeters>5332.9000932621</DistanceMeters>
          </Trackpoint>
          <Trackpoint>
            <Time>2021-03-31T15:31:55.000Z</Time>
            <Position>
              <LatitudeDegrees>42.4541710875928401947021484375</LatitudeDegrees>
              <LongitudeDegrees>2.83219738863408565521240234375</LongitudeDegrees>
            </Position>
            <AltitudeMeters>568.4000244140625</AltitudeMeters>
            <DistanceMeters>5336.1337952462</DistanceMeters>
          </Trackpoint>
          <Trackpoint>
            <Time>2021-03-31T15:31:56.000Z</Time>
            <Position>
              <LatitudeDegrees>42.45417251251637935638427734375</LatitudeDegrees>
              <LongitudeDegrees>2.8321835584938526153564453125</LongitudeDegrees>
            </Position>
            <AltitudeMeters>568.4000244140625</AltitudeMeters>
            <DistanceMeters>5337.2780684148</DistanceMeters>
          </Trackpoint>
          <Trackpoint>
            <Time>2021-03-31T15:31:58.000Z</Time>
            <Position>
              <LatitudeDegrees>42.4541744403541088104248046875</LatitudeDegrees>
              <LongitudeDegrees>2.83215547911822795867919921875</LongitudeDegrees>
            </Position>
            <AltitudeMeters>568.5999755859375</AltitudeMeters>
            <DistanceMeters>5339.5960191227</DistanceMeters>
          </Trackpoint>
          <Trackpoint>
            <Time>2021-03-31T15:31:59.000Z</Time>
            <Position>
              <LatitudeDegrees>42.4541680701076984405517578125</LatitudeDegrees>
              <LongitudeDegrees>2.83214458264410495758056640625</LongitudeDegrees>
            </Position>
            <AltitudeMeters>568.79998779296875</AltitudeMeters>
            <DistanceMeters>5340.7363396952</DistanceMeters>
          </Trackpoint>
          <Trackpoint>
            <Time>2021-03-31T15:32:01.000Z</Time>
            <Position>
              <LatitudeDegrees>42.4541692435741424560546875</LatitudeDegrees>
              <LongitudeDegrees>2.8321185149252414703369140625</LongitudeDegrees>
            </Position>
            <AltitudeMeters>569</AltitudeMeters>
            <DistanceMeters>5342.8781330637</DistanceMeters>
          </Trackpoint>
          <Trackpoint>
            <Time>2021-03-31T15:32:03.000Z</Time>
            <Position>
              <LatitudeDegrees>42.45417251251637935638427734375</LatitudeDegrees>
              <LongitudeDegrees>2.832090854644775390625</LongitudeDegrees>
            </Position>
            <AltitudeMeters>569.20001220703125</AltitudeMeters>
            <DistanceMeters>5345.1784862531</DistanceMeters>
          </Trackpoint>
          <Trackpoint>
            <Time>2021-03-31T15:32:12.000Z</Time>
            <Position>
              <LatitudeDegrees>42.45414451695978641510009765625</LatitudeDegrees>
              <LongitudeDegrees>2.8319696523249149322509765625</LongitudeDegrees>
            </Position>
            <AltitudeMeters>569.5999755859375</AltitudeMeters>
            <DistanceMeters>5355.6080740132</DistanceMeters>
          </Trackpoint>
          <Trackpoint>
            <Time>2021-03-31T15:32:13.000Z</Time>
            <Position>
              <LatitudeDegrees>42.4541419185698032379150390625</LatitudeDegrees>
              <LongitudeDegrees>2.83196051605045795440673828125</LongitudeDegrees>
            </Position>
            <AltitudeMeters>569.79998779296875</AltitudeMeters>
            <DistanceMeters>5356.4144024227</DistanceMeters>
          </Trackpoint>
          <Trackpoint>
            <Time>2021-03-31T15:32:19.000Z</Time>
            <Position>
              <LatitudeDegrees>42.45412775315344333648681640625</LatitudeDegrees>
              <LongitudeDegrees>2.8318989090621471405029296875</LongitudeDegrees>
            </Position>
            <AltitudeMeters>570.20001220703125</AltitudeMeters>
            <DistanceMeters>5361.7137927405</DistanceMeters>
          </Trackpoint>
          <Trackpoint>
            <Time>2021-03-31T15:32:20.000Z</Time>
            <Position>
              <LatitudeDegrees>42.454121299088001251220703125</LatitudeDegrees>
              <LongitudeDegrees>2.831889688968658447265625</LongitudeDegrees>
            </Position>
            <AltitudeMeters>570.20001220703125</AltitudeMeters>
            <DistanceMeters>5362.7590865985</DistanceMeters>
          </Trackpoint>
          <Trackpoint>
            <Time>2021-03-31T15:32:28.000Z</Time>
            <Position>
              <LatitudeDegrees>42.45408919639885425567626953125</LatitudeDegrees>
              <LongitudeDegrees>2.83179606311023235321044921875</LongitudeDegrees>
            </Position>
            <AltitudeMeters>570.79998779296875</AltitudeMeters>
            <DistanceMeters>5371.2377916041</DistanceMeters>
          </Trackpoint>
          <Trackpoint>
            <Time>2021-03-31T15:32:29.000Z</Time>
            <Position>
              <LatitudeDegrees>42.45408785529434680938720703125</LatitudeDegrees>
              <LongitudeDegrees>2.83178550191223621368408203125</LongitudeDegrees>
            </Position>
            <AltitudeMeters>571</AltitudeMeters>
            <DistanceMeters>5372.1138946218</DistanceMeters>
          </Trackpoint>
          <Trackpoint>
            <Time>2021-03-31T15:32:30.000Z</Time>
            <Position>
              <LatitudeDegrees>42.45408332906663417816162109375</LatitudeDegrees>
              <LongitudeDegrees>2.83177276141941547393798828125</LongitudeDegrees>
            </Position>
            <AltitudeMeters>571.20001220703125</AltitudeMeters>
            <DistanceMeters>5373.2777294325</DistanceMeters>
          </Trackpoint>
          <Trackpoint>
            <Time>2021-03-31T15:32:37.000Z</Time>
            <Position>
              <LatitudeDegrees>42.4540396593511104583740234375</LatitudeDegrees>
              <LongitudeDegrees>2.8316782973706722259521484375</LongitudeDegrees>
            </Position>
            <AltitudeMeters>572</AltitudeMeters>
            <DistanceMeters>5382.4319147813</DistanceMeters>
          </Trackpoint>
          <Trackpoint>
            <Time>2021-03-31T15:32:38.000Z</Time>
            <Position>
              <LatitudeDegrees>42.4540346302092075347900390625</LatitudeDegrees>
              <LongitudeDegrees>2.83166497014462947845458984375</LongitudeDegrees>
            </Position>
            <AltitudeMeters>572</AltitudeMeters>
            <DistanceMeters>5383.6636017718</DistanceMeters>
          </Trackpoint>
          <Trackpoint>
            <Time>2021-03-31T15:32:44.000Z</Time>
            <Position>
              <LatitudeDegrees>42.4539943970739841461181640625</LatitudeDegrees>
              <LongitudeDegrees>2.83159489743411540985107421875</LongitudeDegrees>
            </Position>
            <AltitudeMeters>572.5999755859375</AltitudeMeters>
            <DistanceMeters>5390.9546963416</DistanceMeters>
          </Trackpoint>
          <Trackpoint>
            <Time>2021-03-31T15:32:45.000Z</Time>
            <Position>
              <LatitudeDegrees>42.45398693718016147613525390625</LatitudeDegrees>
              <LongitudeDegrees>2.8315879404544830322265625</LongitudeDegrees>
            </Position>
            <AltitudeMeters>572.79998779296875</AltitudeMeters>
            <DistanceMeters>5391.9603645581</DistanceMeters>
          </Trackpoint>
          <Trackpoint>
            <Time>2021-03-31T15:32:47.000Z</Time>
            <Position>
              <LatitudeDegrees>42.45397436432540416717529296875</LatitudeDegrees>
              <LongitudeDegrees>2.83157075755298137664794921875</LongitudeDegrees>
            </Position>
            <AltitudeMeters>573</AltitudeMeters>
            <DistanceMeters>5393.9445806072</DistanceMeters>
          </Trackpoint>
          <Trackpoint>
            <Time>2021-03-31T15:32:49.000Z</Time>
            <Position>
              <LatitudeDegrees>42.45396112091839313507080078125</LatitudeDegrees>
              <LongitudeDegrees>2.8315529040992259979248046875</LongitudeDegrees>
            </Position>
            <AltitudeMeters>573.4000244140625</AltitudeMeters>
            <DistanceMeters>5396.0221697245</DistanceMeters>
          </Trackpoint>
          <Trackpoint>
            <Time>2021-03-31T15:32:51.000Z</Time>
            <Position>
              <LatitudeDegrees>42.4539461173117160797119140625</LatitudeDegrees>
              <LongitudeDegrees>2.83153387717902660369873046875</LongitudeDegrees>
            </Position>
            <AltitudeMeters>573.5999755859375</AltitudeMeters>
            <DistanceMeters>5398.3107160617</DistanceMeters>
          </Trackpoint>
          <Trackpoint>
            <Time>2021-03-31T15:32:54.000Z</Time>
            <Position>
              <LatitudeDegrees>42.45393455028533935546875</LatitudeDegrees>
              <LongitudeDegrees>2.8315042890608310699462890625</LongitudeDegrees>
            </Position>
            <AltitudeMeters>573.79998779296875</AltitudeMeters>
            <DistanceMeters>5401.0615712124</DistanceMeters>
          </Trackpoint>
          <Trackpoint>
            <Time>2021-03-31T15:32:59.000Z</Time>
            <Position>
              <LatitudeDegrees>42.45389356277883052825927734375</LatitudeDegrees>
              <LongitudeDegrees>2.83146095462143421173095703125</LongitudeDegrees>
            </Position>
            <AltitudeMeters>574</AltitudeMeters>
            <DistanceMeters>5406.8480661319</DistanceMeters>
          </Trackpoint>
          <Trackpoint>
            <Time>2021-03-31T15:33:04.000Z</Time>
            <Position>
              <LatitudeDegrees>42.4538619630038738250732421875</LatitudeDegrees>
              <LongitudeDegrees>2.83141150139272212982177734375</LongitudeDegrees>
            </Position>
            <AltitudeMeters>574.5999755859375</AltitudeMeters>
            <DistanceMeters>5412.2202281097</DistanceMeters>
          </Trackpoint>
          <Trackpoint>
            <Time>2021-03-31T15:33:07.000Z</Time>
            <Position>
              <LatitudeDegrees>42.4538368172943592071533203125</LatitudeDegrees>
              <LongitudeDegrees>2.83138652332127094268798828125</LongitudeDegrees>
            </Position>
            <AltitudeMeters>575.20001220703125</AltitudeMeters>
            <DistanceMeters>5415.6909804742</DistanceMeters>
          </Trackpoint>
          <Trackpoint>
            <Time>2021-03-31T15:33:08.000Z</Time>
            <Position>
              <LatitudeDegrees>42.4538297764956951141357421875</LatitudeDegrees>
              <LongitudeDegrees>2.8313772194087505340576171875</LongitudeDegrees>
            </Position>
            <AltitudeMeters>575.20001220703125</AltitudeMeters>
            <DistanceMeters>5416.7909942212</DistanceMeters>
          </Trackpoint>
          <Trackpoint>
            <Time>2021-03-31T15:33:14.000Z</Time>
            <Position>
              <LatitudeDegrees>42.4537643976509571075439453125</LatitudeDegrees>
              <LongitudeDegrees>2.831336818635463714599609375</LongitudeDegrees>
            </Position>
            <AltitudeMeters>575.79998779296875</AltitudeMeters>
            <DistanceMeters>5424.7884957969</DistanceMeters>
          </Trackpoint>
          <Trackpoint>
            <Time>2021-03-31T15:33:16.000Z</Time>
            <Position>
              <LatitudeDegrees>42.4537560157477855682373046875</LatitudeDegrees>
              <LongitudeDegrees>2.83130588941276073455810546875</LongitudeDegrees>
            </Position>
            <AltitudeMeters>576</AltitudeMeters>
            <DistanceMeters>5427.4946724349</DistanceMeters>
          </Trackpoint>
          <Trackpoint>
            <Time>2021-03-31T15:33:20.000Z</Time>
            <Position>
              <LatitudeDegrees>42.453733719885349273681640625</LatitudeDegrees>
              <LongitudeDegrees>2.83126297406852245330810546875</LongitudeDegrees>
            </Position>
            <AltitudeMeters>576.20001220703125</AltitudeMeters>
            <DistanceMeters>5431.8045294215</DistanceMeters>
          </Trackpoint>
          <Trackpoint>
            <Time>2021-03-31T15:33:24.000Z</Time>
            <Position>
              <LatitudeDegrees>42.453700862824916839599609375</LatitudeDegrees>
              <LongitudeDegrees>2.83123196102678775787353515625</LongitudeDegrees>
            </Position>
            <AltitudeMeters>576.20001220703125</AltitudeMeters>
            <DistanceMeters>5436.2596509713</DistanceMeters>
          </Trackpoint>
          <Trackpoint>
            <Time>2021-03-31T15:33:28.000Z</Time>
            <Position>
              <LatitudeDegrees>42.45366389863193035125732421875</LatitudeDegrees>
              <LongitudeDegrees>2.83121368847787380218505859375</LongitudeDegrees>
            </Position>
            <AltitudeMeters>576.79998779296875</AltitudeMeters>
            <DistanceMeters>5440.6391352294</DistanceMeters>
          </Trackpoint>
          <Trackpoint>
            <Time>2021-03-31T15:33:30.000Z</Time>
            <Position>
              <LatitudeDegrees>42.4536477215588092803955078125</LatitudeDegrees>
              <LongitudeDegrees>2.8311948291957378387451171875</LongitudeDegrees>
            </Position>
            <AltitudeMeters>577.20001220703125</AltitudeMeters>
            <DistanceMeters>5443.0167028634</DistanceMeters>
          </Trackpoint>
          <Trackpoint>
            <Time>2021-03-31T15:33:32.000Z</Time>
            <Position>
              <LatitudeDegrees>42.4536276049911975860595703125</LatitudeDegrees>
              <LongitudeDegrees>2.83117814920842647552490234375</LongitudeDegrees>
            </Position>
            <AltitudeMeters>577.5999755859375</AltitudeMeters>
            <DistanceMeters>5445.64157397</DistanceMeters>
          </Trackpoint>
          <Trackpoint>
            <Time>2021-03-31T15:33:39.000Z</Time>
            <Position>
              <LatitudeDegrees>42.4535595439374446868896484375</LatitudeDegrees>
              <LongitudeDegrees>2.83113422803580760955810546875</LongitudeDegrees>
            </Position>
            <AltitudeMeters>578.20001220703125</AltitudeMeters>
            <DistanceMeters>5454.031953935</DistanceMeters>
          </Trackpoint>
          <Trackpoint>
            <Time>2021-03-31T15:33:42.000Z</Time>
            <Position>
              <LatitudeDegrees>42.45353699661791324615478515625</LatitudeDegrees>
              <LongitudeDegrees>2.8311039693653583526611328125</LongitudeDegrees>
            </Position>
            <AltitudeMeters>578.5999755859375</AltitudeMeters>
            <DistanceMeters>5457.5645968048</DistanceMeters>
          </Trackpoint>
          <Trackpoint>
            <Time>2021-03-31T15:33:50.000Z</Time>
            <Position>
              <LatitudeDegrees>42.453472875058650970458984375</LatitudeDegrees>
              <LongitudeDegrees>2.83104051835834980010986328125</LongitudeDegrees>
            </Position>
            <AltitudeMeters>579.20001220703125</AltitudeMeters>
            <DistanceMeters>5466.4010593895</DistanceMeters>
          </Trackpoint>
          <Trackpoint>
            <Time>2021-03-31T15:33:52.000Z</Time>
            <Position>
              <LatitudeDegrees>42.45345569215714931488037109375</LatitudeDegrees>
              <LongitudeDegrees>2.83102937042713165283203125</LongitudeDegrees>
            </Position>
            <AltitudeMeters>579.5999755859375</AltitudeMeters>
            <DistanceMeters>5468.5216673375</DistanceMeters>
          </Trackpoint>
          <Trackpoint>
            <Time>2021-03-31T15:33:59.000Z</Time>
            <Position>
              <LatitudeDegrees>42.45339819230139255523681640625</LatitudeDegrees>
              <LongitudeDegrees>2.83098033629357814788818359375</LongitudeDegrees>
            </Position>
            <AltitudeMeters>580.4000244140625</AltitudeMeters>
            <DistanceMeters>5476.0827131625</DistanceMeters>
          </Trackpoint>
          <Trackpoint>
            <Time>2021-03-31T15:34:00.000Z</Time>
            <Position>
              <LatitudeDegrees>42.45338813401758670806884765625</LatitudeDegrees>
              <LongitudeDegrees>2.830974720418453216552734375</LongitudeDegrees>
            </Position>
            <AltitudeMeters>580.4000244140625</AltitudeMeters>
            <DistanceMeters>5477.2922057767</DistanceMeters>
          </Trackpoint>
          <Trackpoint>
            <Time>2021-03-31T15:34:02.000Z</Time>
            <Position>
              <LatitudeDegrees>42.45336902327835559844970703125</LatitudeDegrees>
              <LongitudeDegrees>2.8309614770114421844482421875</LongitudeDegrees>
            </Position>
            <AltitudeMeters>580.5999755859375</AltitudeMeters>
            <DistanceMeters>5479.6811403327</DistanceMeters>
          </Trackpoint>
          <Trackpoint>
            <Time>2021-03-31T15:34:08.000Z</Time>
            <Position>
              <LatitudeDegrees>42.4533121101558208465576171875</LatitudeDegrees>
              <LongitudeDegrees>2.8309254348278045654296875</LongitudeDegrees>
            </Position>
            <AltitudeMeters>581.20001220703125</AltitudeMeters>
            <DistanceMeters>5486.6731953859</DistanceMeters>
          </Trackpoint>
          <Trackpoint>
            <Time>2021-03-31T15:34:09.000Z</Time>
            <Position>
              <LatitudeDegrees>42.4533043988049030303955078125</LatitudeDegrees>
              <LongitudeDegrees>2.83091898076236248016357421875</LongitudeDegrees>
            </Position>
            <AltitudeMeters>581.4000244140625</AltitudeMeters>
            <DistanceMeters>5487.6833432158</DistanceMeters>
          </Trackpoint>
          <Trackpoint>
            <Time>2021-03-31T15:34:10.000Z</Time>
            <Position>
              <LatitudeDegrees>42.45329744182527065277099609375</LatitudeDegrees>
              <LongitudeDegrees>2.83091512508690357208251953125</LongitudeDegrees>
            </Position>
            <AltitudeMeters>581.5999755859375</AltitudeMeters>
            <DistanceMeters>5488.522596433</DistanceMeters>
          </Trackpoint>
          <Trackpoint>
            <Time>2021-03-31T15:34:14.000Z</Time>
            <Position>
              <LatitudeDegrees>42.45325268246233463287353515625</LatitudeDegrees>
              <LongitudeDegrees>2.83090774901211261749267578125</LongitudeDegrees>
            </Position>
            <AltitudeMeters>582</AltitudeMeters>
            <DistanceMeters>5493.5419503036</DistanceMeters>
          </Trackpoint>
          <Trackpoint>
            <Time>2021-03-31T15:34:17.000Z</Time>
            <Position>
              <LatitudeDegrees>42.453240193426609039306640625</LatitudeDegrees>
              <LongitudeDegrees>2.83087958581745624542236328125</LongitudeDegrees>
            </Position>
            <AltitudeMeters>582</AltitudeMeters>
            <DistanceMeters>5496.239771946</DistanceMeters>
          </Trackpoint>
          <Trackpoint>
            <Time>2021-03-31T15:34:18.000Z</Time>
            <Position>
              <LatitudeDegrees>42.45323474518954753875732421875</LatitudeDegrees>
              <LongitudeDegrees>2.83086919225752353668212890625</LongitudeDegrees>
            </Position>
            <AltitudeMeters>582</AltitudeMeters>
            <DistanceMeters>5497.2893763124</DistanceMeters>
          </Trackpoint>
          <Trackpoint>
            <Time>2021-03-31T15:34:21.000Z</Time>
            <Position>
              <LatitudeDegrees>42.4532111920416355133056640625</LatitudeDegrees>
              <LongitudeDegrees>2.83084237016737461090087890625</LongitudeDegrees>
            </Position>
            <AltitudeMeters>582.4000244140625</AltitudeMeters>
            <DistanceMeters>5500.7129766431</DistanceMeters>
          </Trackpoint>
          <Trackpoint>
            <Time>2021-03-31T15:34:24.000Z</Time>
            <Position>
              <LatitudeDegrees>42.45319954119622707366943359375</LatitudeDegrees>
              <LongitudeDegrees>2.83082015812397003173828125</LongitudeDegrees>
            </Position>
            <AltitudeMeters>582.5999755859375</AltitudeMeters>
            <DistanceMeters>5502.9516575999</DistanceMeters>
          </Trackpoint>
          <Trackpoint>
            <Time>2021-03-31T15:34:26.000Z</Time>
            <Position>
              <LatitudeDegrees>42.45319300331175327301025390625</LatitudeDegrees>
              <LongitudeDegrees>2.83079467713832855224609375</LongitudeDegrees>
            </Position>
            <AltitudeMeters>582.79998779296875</AltitudeMeters>
            <DistanceMeters>5505.1680424008</DistanceMeters>
          </Trackpoint>
          <Trackpoint>
            <Time>2021-03-31T15:34:28.000Z</Time>
            <Position>
              <LatitudeDegrees>42.45318361558020114898681640625</LatitudeDegrees>
              <LongitudeDegrees>2.83077565021812915802001953125</LongitudeDegrees>
            </Position>
            <AltitudeMeters>583</AltitudeMeters>
            <DistanceMeters>5507.0494753563</DistanceMeters>
          </Trackpoint>
          <Trackpoint>
            <Time>2021-03-31T15:34:29.000Z</Time>
            <Position>
              <LatitudeDegrees>42.4531830288469791412353515625</LatitudeDegrees>
              <LongitudeDegrees>2.830768860876560211181640625</LongitudeDegrees>
            </Position>
            <AltitudeMeters>583.20001220703125</AltitudeMeters>
            <DistanceMeters>5507.61166098</DistanceMeters>
          </Trackpoint>
          <Trackpoint>
            <Time>2021-03-31T15:34:32.000Z</Time>
            <Position>
              <LatitudeDegrees>42.45317892171442508697509765625</LatitudeDegrees>
              <LongitudeDegrees>2.8307351656258106231689453125</LongitudeDegrees>
            </Position>
            <AltitudeMeters>583.5999755859375</AltitudeMeters>
            <DistanceMeters>5510.4177662274</DistanceMeters>
          </Trackpoint>
          <Trackpoint>
            <Time>2021-03-31T15:34:36.000Z</Time>
            <Position>
              <LatitudeDegrees>42.453162409365177154541015625</LatitudeDegrees>
              <LongitudeDegrees>2.830693423748016357421875</LongitudeDegrees>
            </Position>
            <AltitudeMeters>584</AltitudeMeters>
            <DistanceMeters>5514.3057410173</DistanceMeters>
          </Trackpoint>
          <Trackpoint>
            <Time>2021-03-31T15:34:37.000Z</Time>
            <Position>
              <LatitudeDegrees>42.4531545303761959075927734375</LatitudeDegrees>
              <LongitudeDegrees>2.83068227581679821014404296875</LongitudeDegrees>
            </Position>
            <AltitudeMeters>584</AltitudeMeters>
            <DistanceMeters>5515.5735555176</DistanceMeters>
          </Trackpoint>
          <Trackpoint>
            <Time>2021-03-31T15:34:43.000Z</Time>
            <Position>
              <LatitudeDegrees>42.4531137943267822265625</LatitudeDegrees>
              <LongitudeDegrees>2.83060449175536632537841796875</LongitudeDegrees>
            </Position>
            <AltitudeMeters>584.79998779296875</AltitudeMeters>
            <DistanceMeters>5523.4062012621</DistanceMeters>
          </Trackpoint>
          <Trackpoint>
            <Time>2021-03-31T15:34:44.000Z</Time>
            <Position>
              <LatitudeDegrees>42.45310599915683269500732421875</LatitudeDegrees>
              <LongitudeDegrees>2.83059309236705303192138671875</LongitudeDegrees>
            </Position>
            <AltitudeMeters>585</AltitudeMeters>
            <DistanceMeters>5524.6811184202</DistanceMeters>
          </Trackpoint>
          <Trackpoint>
            <Time>2021-03-31T15:34:52.000Z</Time>
            <Position>
              <LatitudeDegrees>42.45306551456451416015625</LatitudeDegrees>
              <LongitudeDegrees>2.8305058367550373077392578125</LongitudeDegrees>
            </Position>
            <AltitudeMeters>585</AltitudeMeters>
            <DistanceMeters>5533.1454333072</DistanceMeters>
          </Trackpoint>
          <Trackpoint>
            <Time>2021-03-31T15:35:00.000Z</Time>
            <Position>
              <LatitudeDegrees>42.4530170671641826629638671875</LatitudeDegrees>
              <LongitudeDegrees>2.8304116241633892059326171875</LongitudeDegrees>
            </Position>
            <AltitudeMeters>585.5999755859375</AltitudeMeters>
            <DistanceMeters>5542.5765654223</DistanceMeters>
          </Trackpoint>
          <Trackpoint>
            <Time>2021-03-31T15:35:01.000Z</Time>
            <Position>
              <LatitudeDegrees>42.45301966555416584014892578125</LatitudeDegrees>
              <LongitudeDegrees>2.83040114678442478179931640625</LongitudeDegrees>
            </Position>
            <AltitudeMeters>585.79998779296875</AltitudeMeters>
            <DistanceMeters>5543.488029647</DistanceMeters>
          </Trackpoint>
          <Trackpoint>
            <Time>2021-03-31T15:35:02.000Z</Time>
            <Position>
              <LatitudeDegrees>42.45301798917353153228759765625</LatitudeDegrees>
              <LongitudeDegrees>2.83039108850061893463134765625</LongitudeDegrees>
            </Position>
            <AltitudeMeters>586</AltitudeMeters>
            <DistanceMeters>5544.337974419</DistanceMeters>
          </Trackpoint>
          <Trackpoint>
            <Time>2021-03-31T15:35:06.000Z</Time>
            <Position>
              <LatitudeDegrees>42.45298714376986026763916015625</LatitudeDegrees>
              <LongitudeDegrees>2.830361835658550262451171875</LongitudeDegrees>
            </Position>
            <AltitudeMeters>586.5999755859375</AltitudeMeters>
            <DistanceMeters>5548.5277797376</DistanceMeters>
          </Trackpoint>
          <Trackpoint>
            <Time>2021-03-31T15:35:07.000Z</Time>
            <Position>
              <LatitudeDegrees>42.4529788456857204437255859375</LatitudeDegrees>
              <LongitudeDegrees>2.830355465412139892578125</LongitudeDegrees>
            </Position>
            <AltitudeMeters>586.5999755859375</AltitudeMeters>
            <DistanceMeters>5549.5859524451</DistanceMeters>
          </Trackpoint>
          <Trackpoint>
            <Time>2021-03-31T15:35:08.000Z</Time>
            <Position>
              <LatitudeDegrees>42.4529661051928997039794921875</LatitudeDegrees>
              <LongitudeDegrees>2.83034783788025379180908203125</LongitudeDegrees>
            </Position>
            <AltitudeMeters>586.5999755859375</AltitudeMeters>
            <DistanceMeters>5551.1357912542</DistanceMeters>
          </Trackpoint>
          <Trackpoint>
            <Time>2021-03-31T15:35:13.000Z</Time>
            <Position>
              <LatitudeDegrees>42.45292277075350284576416015625</LatitudeDegrees>
              <LongitudeDegrees>2.8303304873406887054443359375</LongitudeDegrees>
            </Position>
            <AltitudeMeters>586.5999755859375</AltitudeMeters>
            <DistanceMeters>5556.1641323368</DistanceMeters>
          </Trackpoint>
          <Trackpoint>
            <Time>2021-03-31T15:35:14.000Z</Time>
            <Position>
              <LatitudeDegrees>42.45291598141193389892578125</LatitudeDegrees>
              <LongitudeDegrees>2.83032939769327640533447265625</LongitudeDegrees>
            </Position>
            <AltitudeMeters>586.79998779296875</AltitudeMeters>
            <DistanceMeters>5556.9243460518</DistanceMeters>
          </Trackpoint>
          <Trackpoint>
            <Time>2021-03-31T15:35:15.000Z</Time>
            <Position>
              <LatitudeDegrees>42.4529070965945720672607421875</LatitudeDegrees>
              <LongitudeDegrees>2.830331660807132720947265625</LongitudeDegrees>
            </Position>
            <AltitudeMeters>587</AltitudeMeters>
            <DistanceMeters>5557.9300142683</DistanceMeters>
          </Trackpoint>
          <Trackpoint>
            <Time>2021-03-31T15:35:16.000Z</Time>
            <Position>
              <LatitudeDegrees>42.452898211777210235595703125</LatitudeDegrees>
              <LongitudeDegrees>2.83032638020813465118408203125</LongitudeDegrees>
            </Position>
            <AltitudeMeters>587</AltitudeMeters>
            <DistanceMeters>5559.0093102709</DistanceMeters>
          </Trackpoint>
          <Trackpoint>
            <Time>2021-03-31T15:35:19.000Z</Time>
            <Position>
              <LatitudeDegrees>42.452874071896076202392578125</LatitudeDegrees>
              <LongitudeDegrees>2.83031347207725048065185546875</LongitudeDegrees>
            </Position>
            <AltitudeMeters>587.4000244140625</AltitudeMeters>
            <DistanceMeters>5561.8994349586</DistanceMeters>
          </Trackpoint>
          <Trackpoint>
            <Time>2021-03-31T15:35:20.000Z</Time>
            <Position>
              <LatitudeDegrees>42.4528641812503337860107421875</LatitudeDegrees>
              <LongitudeDegrees>2.83031146042048931121826171875</LongitudeDegrees>
            </Position>
            <AltitudeMeters>587.4000244140625</AltitudeMeters>
            <DistanceMeters>5563.0116941338</DistanceMeters>
          </Trackpoint>
          <Trackpoint>
            <Time>2021-03-31T15:35:23.000Z</Time>
            <Position>
              <LatitudeDegrees>42.4528336711227893829345703125</LatitudeDegrees>
              <LongitudeDegrees>2.83030257560312747955322265625</LongitudeDegrees>
            </Position>
            <AltitudeMeters>588</AltitudeMeters>
            <DistanceMeters>5566.4850472874</DistanceMeters>
          </Trackpoint>
          <Trackpoint>
            <Time>2021-03-31T15:35:24.000Z</Time>
            <Position>
              <LatitudeDegrees>42.452825792133808135986328125</LatitudeDegrees>
              <LongitudeDegrees>2.8303006477653980255126953125</LongitudeDegrees>
            </Position>
            <AltitudeMeters>588</AltitudeMeters>
            <DistanceMeters>5567.3764768847</DistanceMeters>
          </Trackpoint>
          <Trackpoint>
            <Time>2021-03-31T15:35:25.000Z</Time>
            <Position>
              <LatitudeDegrees>42.4528162367641925811767578125</LatitudeDegrees>
              <LongitudeDegrees>2.83029855228960514068603515625</LongitudeDegrees>
            </Position>
            <AltitudeMeters>588.20001220703125</AltitudeMeters>
            <DistanceMeters>5568.4515814307</DistanceMeters>
          </Trackpoint>
          <Trackpoint>
            <Time>2021-03-31T15:35:33.000Z</Time>
            <Position>
              <LatitudeDegrees>42.45273719541728496551513671875</LatitudeDegrees>
              <LongitudeDegrees>2.830258570611476898193359375</LongitudeDegrees>
            </Position>
            <AltitudeMeters>588.79998779296875</AltitudeMeters>
            <DistanceMeters>5577.8419326742</DistanceMeters>
          </Trackpoint>
          <Trackpoint>
            <Time>2021-03-31T15:35:34.000Z</Time>
            <Position>
              <LatitudeDegrees>42.45273493230342864990234375</LatitudeDegrees>
              <LongitudeDegrees>2.83025077544152736663818359375</LongitudeDegrees>
            </Position>
            <AltitudeMeters>589</AltitudeMeters>
            <DistanceMeters>5578.5337375972</DistanceMeters>
          </Trackpoint>
          <Trackpoint>
            <Time>2021-03-31T15:35:37.000Z</Time>
            <Position>
              <LatitudeDegrees>42.45271305553615093231201171875</LatitudeDegrees>
              <LongitudeDegrees>2.830253876745700836181640625</LongitudeDegrees>
            </Position>
            <AltitudeMeters>589.4000244140625</AltitudeMeters>
            <DistanceMeters>5580.9824047365</DistanceMeters>
          </Trackpoint>
          <Trackpoint>
            <Time>2021-03-31T15:35:38.000Z</Time>
            <Position>
              <LatitudeDegrees>42.45270702056586742401123046875</LatitudeDegrees>
              <LongitudeDegrees>2.83025731332600116729736328125</LongitudeDegrees>
            </Position>
            <AltitudeMeters>589.4000244140625</AltitudeMeters>
            <DistanceMeters>5581.7123187795</DistanceMeters>
          </Trackpoint>
          <Trackpoint>
            <Time>2021-03-31T15:35:47.000Z</Time>
            <Position>
              <LatitudeDegrees>42.45266854763031005859375</LatitudeDegrees>
              <LongitudeDegrees>2.83026167191565036773681640625</LongitudeDegrees>
            </Position>
            <AltitudeMeters>589.79998779296875</AltitudeMeters>
            <DistanceMeters>5586.0085352837</DistanceMeters>
          </Trackpoint>
          <Trackpoint>
            <Time>2021-03-31T15:35:48.000Z</Time>
            <Position>
              <LatitudeDegrees>42.4526660330593585968017578125</LatitudeDegrees>
              <LongitudeDegrees>2.8302604146301746368408203125</LongitudeDegrees>
            </Position>
            <AltitudeMeters>590</AltitudeMeters>
            <DistanceMeters>5586.3090361397</DistanceMeters>
          </Trackpoint>
          <Trackpoint>
            <Time>2021-03-31T15:35:50.000Z</Time>
            <Position>
              <LatitudeDegrees>42.45266117155551910400390625</LatitudeDegrees>
              <LongitudeDegrees>2.83025815151631832122802734375</LongitudeDegrees>
            </Position>
            <AltitudeMeters>590.4000244140625</AltitudeMeters>
            <DistanceMeters>5586.8791964259</DistanceMeters>
          </Trackpoint>
          <Trackpoint>
            <Time>2021-03-31T15:35:53.000Z</Time>
            <Position>
              <LatitudeDegrees>42.4526537954807281494140625</LatitudeDegrees>
              <LongitudeDegrees>2.830264605581760406494140625</LongitudeDegrees>
            </Position>
            <AltitudeMeters>590.79998779296875</AltitudeMeters>
            <DistanceMeters>5587.8575563306</DistanceMeters>
          </Trackpoint>
          <Trackpoint>
            <Time>2021-03-31T15:35:56.000Z</Time>
            <Position>
              <LatitudeDegrees>42.4526439048349857330322265625</LatitudeDegrees>
              <LongitudeDegrees>2.83029352314770221710205078125</LongitudeDegrees>
            </Position>
            <AltitudeMeters>591.4000244140625</AltitudeMeters>
            <DistanceMeters>5590.4738128059</DistanceMeters>
          </Trackpoint>
          <Trackpoint>
            <Time>2021-03-31T15:35:58.000Z</Time>
            <Position>
              <LatitudeDegrees>42.45263862423598766326904296875</LatitudeDegrees>
              <LongitudeDegrees>2.8303123824298381805419921875</LongitudeDegrees>
            </Position>
            <AltitudeMeters>591.5999755859375</AltitudeMeters>
            <DistanceMeters>5592.1306601854</DistanceMeters>
          </Trackpoint>
          <Trackpoint>
            <Time>2021-03-31T15:36:00.000Z</Time>
            <Position>
              <LatitudeDegrees>42.45262655429542064666748046875</LatitudeDegrees>
              <LongitudeDegrees>2.83032554201781749725341796875</LongitudeDegrees>
            </Position>
            <AltitudeMeters>591.79998779296875</AltitudeMeters>
            <DistanceMeters>5593.8569061778</DistanceMeters>
          </Trackpoint>
          <Trackpoint>
            <Time>2021-03-31T15:36:04.000Z</Time>
            <Position>
              <LatitudeDegrees>42.45260057039558887481689453125</LatitudeDegrees>
              <LongitudeDegrees>2.830343060195446014404296875</LongitudeDegrees>
            </Position>
            <AltitudeMeters>592</AltitudeMeters>
            <DistanceMeters>5597.0878144664</DistanceMeters>
          </Trackpoint>
          <Trackpoint>
            <Time>2021-03-31T15:36:05.000Z</Time>
            <Position>
              <LatitudeDegrees>42.45260191150009632110595703125</LatitudeDegrees>
              <LongitudeDegrees>2.83036275766789913177490234375</LongitudeDegrees>
            </Position>
            <AltitudeMeters>592</AltitudeMeters>
            <DistanceMeters>5598.7144098058</DistanceMeters>
          </Trackpoint>
          <Trackpoint>
            <Time>2021-03-31T15:36:08.000Z</Time>
            <Position>
              <LatitudeDegrees>42.45260543189942836761474609375</LatitudeDegrees>
              <LongitudeDegrees>2.83040097914636135101318359375</LongitudeDegrees>
            </Position>
            <AltitudeMeters>592.4000244140625</AltitudeMeters>
            <DistanceMeters>5601.8775292629</DistanceMeters>
          </Trackpoint>
          <Trackpoint>
            <Time>2021-03-31T15:36:11.000Z</Time>
            <Position>
              <LatitudeDegrees>42.45258866809308528900146484375</LatitudeDegrees>
              <LongitudeDegrees>2.8304153122007846832275390625</LongitudeDegrees>
            </Position>
            <AltitudeMeters>592.4000244140625</AltitudeMeters>
            <DistanceMeters>5604.0857505561</DistanceMeters>
          </Trackpoint>
          <Trackpoint>
            <Time>2021-03-31T15:36:16.000Z</Time>
            <Position>
              <LatitudeDegrees>42.45254960842430591583251953125</LatitudeDegrees>
              <LongitudeDegrees>2.83045646734535694122314453125</LongitudeDegrees>
            </Position>
            <AltitudeMeters>592.79998779296875</AltitudeMeters>
            <DistanceMeters>5609.5923826211</DistanceMeters>
          </Trackpoint>
          <Trackpoint>
            <Time>2021-03-31T15:36:22.000Z</Time>
            <Position>
              <LatitudeDegrees>42.4524633586406707763671875</LatitudeDegrees>
              <LongitudeDegrees>2.830420173704624176025390625</LongitudeDegrees>
            </Position>
            <AltitudeMeters>592.5999755859375</AltitudeMeters>
            <DistanceMeters>5619.6436758341</DistanceMeters>
          </Trackpoint>
          <Trackpoint>
            <Time>2021-03-31T15:36:29.000Z</Time>
            <Position>
              <LatitudeDegrees>42.452387250959873199462890625</LatitudeDegrees>
              <LongitudeDegrees>2.83045127056539058685302734375</LongitudeDegrees>
            </Position>
            <AltitudeMeters>593.20001220703125</AltitudeMeters>
            <DistanceMeters>5628.4908619753</DistanceMeters>
          </Trackpoint>
          <Trackpoint>
            <Time>2021-03-31T15:36:30.000Z</Time>
            <Position>
              <LatitudeDegrees>42.4523810483515262603759765625</LatitudeDegrees>
              <LongitudeDegrees>2.83045613206923007965087890625</LongitudeDegrees>
            </Position>
            <AltitudeMeters>593.4000244140625</AltitudeMeters>
            <DistanceMeters>5629.2859125089</DistanceMeters>
          </Trackpoint>
          <Trackpoint>
            <Time>2021-03-31T15:36:34.000Z</Time>
            <Position>
              <LatitudeDegrees>42.45232983492314815521240234375</LatitudeDegrees>
              <LongitudeDegrees>2.830471806228160858154296875</LongitudeDegrees>
            </Position>
            <AltitudeMeters>594.79998779296875</AltitudeMeters>
            <DistanceMeters>5635.1290896442</DistanceMeters>
          </Trackpoint>
          <Trackpoint>
            <Time>2021-03-31T15:36:36.000Z</Time>
            <Position>
              <LatitudeDegrees>42.45230502448976039886474609375</LatitudeDegrees>
              <LongitudeDegrees>2.8304649330675601959228515625</LongitudeDegrees>
            </Position>
            <AltitudeMeters>595.20001220703125</AltitudeMeters>
            <DistanceMeters>5637.9464354154</DistanceMeters>
          </Trackpoint>
          <Trackpoint>
            <Time>2021-03-31T15:36:42.000Z</Time>
            <Position>
              <LatitudeDegrees>42.45225288905203342437744140625</LatitudeDegrees>
              <LongitudeDegrees>2.8304796852171421051025390625</LongitudeDegrees>
            </Position>
            <AltitudeMeters>595.79998779296875</AltitudeMeters>
            <DistanceMeters>5643.8747621203</DistanceMeters>
          </Trackpoint>
          <Trackpoint>
            <Time>2021-03-31T15:36:44.000Z</Time>
            <Position>
              <LatitudeDegrees>42.452237047255039215087890625</LatitudeDegrees>
              <LongitudeDegrees>2.830489575862884521484375</LongitudeDegrees>
            </Position>
            <AltitudeMeters>595.79998779296875</AltitudeMeters>
            <DistanceMeters>5645.8152625395</DistanceMeters>
          </Trackpoint>
          <Trackpoint>
            <Time>2021-03-31T15:36:50.000Z</Time>
            <Position>
              <LatitudeDegrees>42.45218331925570964813232421875</LatitudeDegrees>
              <LongitudeDegrees>2.830516733229160308837890625</LongitudeDegrees>
            </Position>
            <AltitudeMeters>596.4000244140625</AltitudeMeters>
            <DistanceMeters>5652.1983421188</DistanceMeters>
          </Trackpoint>
          <Trackpoint>
            <Time>2021-03-31T15:36:52.000Z</Time>
            <Position>
              <LatitudeDegrees>42.45217778719961643218994140625</LatitudeDegrees>
              <LongitudeDegrees>2.83052938990294933319091796875</LongitudeDegrees>
            </Position>
            <AltitudeMeters>596.4000244140625</AltitudeMeters>
            <DistanceMeters>5653.407834733</DistanceMeters>
          </Trackpoint>
          <Trackpoint>
            <Time>2021-03-31T15:36:54.000Z</Time>
            <Position>
              <LatitudeDegrees>42.45216404087841510772705078125</LatitudeDegrees>
              <LongitudeDegrees>2.83054145984351634979248046875</LongitudeDegrees>
            </Position>
            <AltitudeMeters>596.4000244140625</AltitudeMeters>
            <DistanceMeters>5655.2307631824</DistanceMeters>
          </Trackpoint>
          <Trackpoint>
            <Time>2021-03-31T15:36:57.000Z</Time>
            <Position>
              <LatitudeDegrees>42.452140152454376220703125</LatitudeDegrees>
              <LongitudeDegrees>2.83056400716304779052734375</LongitudeDegrees>
            </Position>
            <AltitudeMeters>596.5999755859375</AltitudeMeters>
            <DistanceMeters>5658.4700453294</DistanceMeters>
          </Trackpoint>
          <Trackpoint>
            <Time>2021-03-31T15:37:00.000Z</Time>
            <Position>
              <LatitudeDegrees>42.45211609639227390289306640625</LatitudeDegrees>
              <LongitudeDegrees>2.8305832855403423309326171875</LongitudeDegrees>
            </Position>
            <AltitudeMeters>596.79998779296875</AltitudeMeters>
            <DistanceMeters>5661.5813540489</DistanceMeters>
          </Trackpoint>
          <Trackpoint>
            <Time>2021-03-31T15:37:06.000Z</Time>
            <Position>
              <LatitudeDegrees>42.45205993764102458953857421875</LatitudeDegrees>
              <LongitudeDegrees>2.83061304129660129547119140625</LongitudeDegrees>
            </Position>
            <AltitudeMeters>597.4000244140625</AltitudeMeters>
            <DistanceMeters>5668.2926893335</DistanceMeters>
          </Trackpoint>
          <Trackpoint>
            <Time>2021-03-31T15:37:09.000Z</Time>
            <Position>
              <LatitudeDegrees>42.4520410783588886260986328125</LatitudeDegrees>
              <LongitudeDegrees>2.83063600771129131317138671875</LongitudeDegrees>
            </Position>
            <AltitudeMeters>598.20001220703125</AltitudeMeters>
            <DistanceMeters>5671.1148387667</DistanceMeters>
          </Trackpoint>
          <Trackpoint>
            <Time>2021-03-31T15:37:11.000Z</Time>
            <Position>
              <LatitudeDegrees>42.452023141086101531982421875</LatitudeDegrees>
              <LongitudeDegrees>2.830654196441173553466796875</LongitudeDegrees>
            </Position>
            <AltitudeMeters>598.79998779296875</AltitudeMeters>
            <DistanceMeters>5673.6073661173</DistanceMeters>
          </Trackpoint>
          <Trackpoint>
            <Time>2021-03-31T15:37:12.000Z</Time>
            <Position>
              <LatitudeDegrees>42.452015094459056854248046875</LatitudeDegrees>
              <LongitudeDegrees>2.830661237239837646484375</LongitudeDegrees>
            </Position>
            <AltitudeMeters>599</AltitudeMeters>
            <DistanceMeters>5674.6697970824</DistanceMeters>
          </Trackpoint>
          <Trackpoint>
            <Time>2021-03-31T15:37:13.000Z</Time>
            <Position>
              <LatitudeDegrees>42.45201065205037593841552734375</LatitudeDegrees>
              <LongitudeDegrees>2.83066953532397747039794921875</LongitudeDegrees>
            </Position>
            <AltitudeMeters>599.20001220703125</AltitudeMeters>
            <DistanceMeters>5675.5090502996</DistanceMeters>
          </Trackpoint>
          <Trackpoint>
            <Time>2021-03-31T15:37:22.000Z</Time>
            <Position>
              <LatitudeDegrees>42.45194929651916027069091796875</LatitudeDegrees>
              <LongitudeDegrees>2.83075922168791294097900390625</LongitudeDegrees>
            </Position>
            <AltitudeMeters>600.20001220703125</AltitudeMeters>
            <DistanceMeters>5685.5531537455</DistanceMeters>
          </Trackpoint>
          <Trackpoint>
            <Time>2021-03-31T15:37:23.000Z</Time>
            <Position>
              <LatitudeDegrees>42.45194175280630588531494140625</LatitudeDegrees>
              <LongitudeDegrees>2.83076777122914791107177734375</LongitudeDegrees>
            </Position>
            <AltitudeMeters>600.4000244140625</AltitudeMeters>
            <DistanceMeters>5686.6407842039</DistanceMeters>
          </Trackpoint>
          <Trackpoint>
            <Time>2021-03-31T15:37:26.000Z</Time>
            <Position>
              <LatitudeDegrees>42.45191174559295177459716796875</LatitudeDegrees>
              <LongitudeDegrees>2.8307992033660411834716796875</LongitudeDegrees>
            </Position>
            <AltitudeMeters>600.4000244140625</AltitudeMeters>
            <DistanceMeters>5690.8627944953</DistanceMeters>
          </Trackpoint>
          <Trackpoint>
            <Time>2021-03-31T15:37:29.000Z</Time>
            <Position>
              <LatitudeDegrees>42.45189347304403781890869140625</LatitudeDegrees>
              <LongitudeDegrees>2.830835916101932525634765625</LongitudeDegrees>
            </Position>
            <AltitudeMeters>600.4000244140625</AltitudeMeters>
            <DistanceMeters>5694.499972246</DistanceMeters>
          </Trackpoint>
          <Trackpoint>
            <Time>2021-03-31T15:37:30.000Z</Time>
            <Position>
              <LatitudeDegrees>42.45188894681632518768310546875</LatitudeDegrees>
              <LongitudeDegrees>2.8308444656431674957275390625</LongitudeDegrees>
            </Position>
            <AltitudeMeters>600.5999755859375</AltitudeMeters>
            <DistanceMeters>5695.3657068155</DistanceMeters>
          </Trackpoint>
          <Trackpoint>
            <Time>2021-03-31T15:37:32.000Z</Time>
            <Position>
              <LatitudeDegrees>42.451874949038028717041015625</LatitudeDegrees>
              <LongitudeDegrees>2.83086173236370086669921875</LongitudeDegrees>
            </Position>
            <AltitudeMeters>600.79998779296875</AltitudeMeters>
            <DistanceMeters>5697.4735013051</DistanceMeters>
          </Trackpoint>
          <Trackpoint>
            <Time>2021-03-31T15:37:38.000Z</Time>
            <Position>
              <LatitudeDegrees>42.45183211751282215118408203125</LatitudeDegrees>
              <LongitudeDegrees>2.83091126941144466400146484375</LongitudeDegrees>
            </Position>
            <AltitudeMeters>601.20001220703125</AltitudeMeters>
            <DistanceMeters>5703.740943569</DistanceMeters>
          </Trackpoint>
          <Trackpoint>
            <Time>2021-03-31T15:37:40.000Z</Time>
            <Position>
              <LatitudeDegrees>42.4518157728016376495361328125</LatitudeDegrees>
              <LongitudeDegrees>2.8309302963316440582275390625</LongitudeDegrees>
            </Position>
            <AltitudeMeters>601.4000244140625</AltitudeMeters>
            <DistanceMeters>5706.1393094074</DistanceMeters>
          </Trackpoint>
          <Trackpoint>
            <Time>2021-03-31T15:37:43.000Z</Time>
            <Position>
              <LatitudeDegrees>42.4517936445772647857666015625</LatitudeDegrees>
              <LongitudeDegrees>2.830952592194080352783203125</LongitudeDegrees>
            </Position>
            <AltitudeMeters>601.5999755859375</AltitudeMeters>
            <DistanceMeters>5709.2082456614</DistanceMeters>
          </Trackpoint>
          <Trackpoint>
            <Time>2021-03-31T15:37:47.000Z</Time>
            <Position>
              <LatitudeDegrees>42.45177042670547962188720703125</LatitudeDegrees>
              <LongitudeDegrees>2.83098838292062282562255859375</LongitudeDegrees>
            </Position>
            <AltitudeMeters>602.20001220703125</AltitudeMeters>
            <DistanceMeters>5713.1228388364</DistanceMeters>
          </Trackpoint>
          <Trackpoint>
            <Time>2021-03-31T15:37:49.000Z</Time>
            <Position>
              <LatitudeDegrees>42.451762296259403228759765625</LatitudeDegrees>
              <LongitudeDegrees>2.83100548200309276580810546875</LongitudeDegrees>
            </Position>
            <AltitudeMeters>602.4000244140625</AltitudeMeters>
            <DistanceMeters>5714.7932560361</DistanceMeters>
          </Trackpoint>
          <Trackpoint>
            <Time>2021-03-31T15:37:55.000Z</Time>
            <Position>
              <LatitudeDegrees>42.4517177045345306396484375</LatitudeDegrees>
              <LongitudeDegrees>2.83105091191828250885009765625</LongitudeDegrees>
            </Position>
            <AltitudeMeters>603</AltitudeMeters>
            <DistanceMeters>5721.0020720536</DistanceMeters>
          </Trackpoint>
          <Trackpoint>
            <Time>2021-03-31T15:37:58.000Z</Time>
            <Position>
              <LatitudeDegrees>42.45170135982334613800048828125</LatitudeDegrees>
              <LongitudeDegrees>2.831086702644824981689453125</LongitudeDegrees>
            </Position>
            <AltitudeMeters>603.20001220703125</AltitudeMeters>
            <DistanceMeters>5724.4597911301</DistanceMeters>
          </Trackpoint>
          <Trackpoint>
            <Time>2021-03-31T15:38:02.000Z</Time>
            <Position>
              <LatitudeDegrees>42.45166833512485027313232421875</LatitudeDegrees>
              <LongitudeDegrees>2.83112458884716033935546875</LongitudeDegrees>
            </Position>
            <AltitudeMeters>603.4000244140625</AltitudeMeters>
            <DistanceMeters>5729.275311487</DistanceMeters>
          </Trackpoint>
          <Trackpoint>
            <Time>2021-03-31T15:38:08.000Z</Time>
            <Position>
              <LatitudeDegrees>42.4516263417899608612060546875</LatitudeDegrees>
              <LongitudeDegrees>2.831176556646823883056640625</LongitudeDegrees>
            </Position>
            <AltitudeMeters>603.4000244140625</AltitudeMeters>
            <DistanceMeters>5735.6051178965</DistanceMeters>
          </Trackpoint>
          <Trackpoint>
            <Time>2021-03-31T15:38:09.000Z</Time>
            <Position>
              <LatitudeDegrees>42.451618798077106475830078125</LatitudeDegrees>
              <LongitudeDegrees>2.8311871178448200225830078125</LongitudeDegrees>
            </Position>
            <AltitudeMeters>603.4000244140625</AltitudeMeters>
            <DistanceMeters>5736.8108717302</DistanceMeters>
          </Trackpoint>
          <Trackpoint>
            <Time>2021-03-31T15:38:10.000Z</Time>
            <Position>
              <LatitudeDegrees>42.4516062252223491668701171875</LatitudeDegrees>
              <LongitudeDegrees>2.83119499683380126953125</LongitudeDegrees>
            </Position>
            <AltitudeMeters>603.4000244140625</AltitudeMeters>
            <DistanceMeters>5738.3490134754</DistanceMeters>
          </Trackpoint>
          <Trackpoint>
            <Time>2021-03-31T15:38:13.000Z</Time>
            <Position>
              <LatitudeDegrees>42.4515820853412151336669921875</LatitudeDegrees>
              <LongitudeDegrees>2.8312065638601779937744140625</LongitudeDegrees>
            </Position>
            <AltitudeMeters>603.20001220703125</AltitudeMeters>
            <DistanceMeters>5741.1998149065</DistanceMeters>
          </Trackpoint>
          <Trackpoint>
            <Time>2021-03-31T15:38:15.000Z</Time>
            <Position>
              <LatitudeDegrees>42.4515737034380435943603515625</LatitudeDegrees>
              <LongitudeDegrees>2.83120648004114627838134765625</LongitudeDegrees>
            </Position>
            <AltitudeMeters>603.20001220703125</AltitudeMeters>
            <DistanceMeters>5742.1308827551</DistanceMeters>
          </Trackpoint>
          <Trackpoint>
            <Time>2021-03-31T15:38:16.000Z</Time>
            <Position>
              <LatitudeDegrees>42.4515673331916332244873046875</LatitudeDegrees>
              <LongitudeDegrees>2.831208407878875732421875</LongitudeDegrees>
            </Position>
            <AltitudeMeters>603.20001220703125</AltitudeMeters>
            <DistanceMeters>5742.8607967981</DistanceMeters>
          </Trackpoint>
          <Trackpoint>
            <Time>2021-03-31T15:38:19.000Z</Time>
            <Position>
              <LatitudeDegrees>42.45155484415590763092041015625</LatitudeDegrees>
              <LongitudeDegrees>2.8312270157039165496826171875</LongitudeDegrees>
            </Position>
            <AltitudeMeters>603.4000244140625</AltitudeMeters>
            <DistanceMeters>5744.9274912985</DistanceMeters>
          </Trackpoint>
          <Trackpoint>
            <Time>2021-03-31T15:38:20.000Z</Time>
            <Position>
              <LatitudeDegrees>42.45155149139463901519775390625</LatitudeDegrees>
              <LongitudeDegrees>2.83123833127319812774658203125</LongitudeDegrees>
            </Position>
            <AltitudeMeters>603.79998779296875</AltitudeMeters>
            <DistanceMeters>5745.933159515</DistanceMeters>
          </Trackpoint>
          <Trackpoint>
            <Time>2021-03-31T15:38:23.000Z</Time>
            <Position>
              <LatitudeDegrees>42.45152332819998264312744140625</LatitudeDegrees>
              <LongitudeDegrees>2.83125040121376514434814453125</LongitudeDegrees>
            </Position>
            <AltitudeMeters>604.5999755859375</AltitudeMeters>
            <DistanceMeters>5749.2222371334</DistanceMeters>
          </Trackpoint>
          <Trackpoint>
            <Time>2021-03-31T15:38:24.000Z</Time>
            <Position>
              <LatitudeDegrees>42.451514191925525665283203125</LatitudeDegrees>
              <LongitudeDegrees>2.831250987946987152099609375</LongitudeDegrees>
            </Position>
            <AltitudeMeters>604.5999755859375</AltitudeMeters>
            <DistanceMeters>5750.2368447988</DistanceMeters>
          </Trackpoint>
          <Trackpoint>
            <Time>2021-03-31T15:38:31.000Z</Time>
            <Position>
              <LatitudeDegrees>42.4514736235141754150390625</LatitudeDegrees>
              <LongitudeDegrees>2.8313131816685199737548828125</LongitudeDegrees>
            </Position>
            <AltitudeMeters>605.20001220703125</AltitudeMeters>
            <DistanceMeters>5757.0536456159</DistanceMeters>
          </Trackpoint>
          <Trackpoint>
            <Time>2021-03-31T15:38:37.000Z</Time>
            <Position>
              <LatitudeDegrees>42.45143045671284198760986328125</LatitudeDegrees>
              <LongitudeDegrees>2.83134394325315952301025390625</LongitudeDegrees>
            </Position>
            <AltitudeMeters>605.5999755859375</AltitudeMeters>
            <DistanceMeters>5762.4818257379</DistanceMeters>
          </Trackpoint>
          <Trackpoint>
            <Time>2021-03-31T15:38:41.000Z</Time>
            <Position>
              <LatitudeDegrees>42.45139726437628269195556640625</LatitudeDegrees>
              <LongitudeDegrees>2.83136104233562946319580078125</LongitudeDegrees>
            </Position>
            <AltitudeMeters>606</AltitudeMeters>
            <DistanceMeters>5766.4342974011</DistanceMeters>
          </Trackpoint>
          <Trackpoint>
            <Time>2021-03-31T15:38:42.000Z</Time>
            <Position>
              <LatitudeDegrees>42.45139106176793575286865234375</LatitudeDegrees>
              <LongitudeDegrees>2.83137076534330844879150390625</LongitudeDegrees>
            </Position>
            <AltitudeMeters>606</AltitudeMeters>
            <DistanceMeters>5767.4924701086</DistanceMeters>
          </Trackpoint>
          <Trackpoint>
            <Time>2021-03-31T15:38:52.000Z</Time>
            <Position>
              <LatitudeDegrees>42.4513041414320468902587890625</LatitudeDegrees>
              <LongitudeDegrees>2.83142323605716228485107421875</LongitudeDegrees>
            </Position>
            <AltitudeMeters>606.5999755859375</AltitudeMeters>
            <DistanceMeters>5778.082727397</DistanceMeters>
          </Trackpoint>
          <Trackpoint>
            <Time>2021-03-31T15:38:53.000Z</Time>
            <Position>
              <LatitudeDegrees>42.451298944652080535888671875</LatitudeDegrees>
              <LongitudeDegrees>2.8314323723316192626953125</LongitudeDegrees>
            </Position>
            <AltitudeMeters>606.79998779296875</AltitudeMeters>
            <DistanceMeters>5779.0282312669</DistanceMeters>
          </Trackpoint>
          <Trackpoint>
            <Time>2021-03-31T15:38:58.000Z</Time>
            <Position>
              <LatitudeDegrees>42.45125108398497104644775390625</LatitudeDegrees>
              <LongitudeDegrees>2.83146732486784458160400390625</LongitudeDegrees>
            </Position>
            <AltitudeMeters>607.20001220703125</AltitudeMeters>
            <DistanceMeters>5785.0786800026</DistanceMeters>
          </Trackpoint>
          <Trackpoint>
            <Time>2021-03-31T15:39:00.000Z</Time>
            <Position>
              <LatitudeDegrees>42.451228201389312744140625</LatitudeDegrees>
              <LongitudeDegrees>2.8314754553139209747314453125</LongitudeDegrees>
            </Position>
            <AltitudeMeters>607.4000244140625</AltitudeMeters>
            <DistanceMeters>5787.7121375605</DistanceMeters>
          </Trackpoint>
          <Trackpoint>
            <Time>2021-03-31T15:39:02.000Z</Time>
            <Position>
              <LatitudeDegrees>42.45120414532721042633056640625</LatitudeDegrees>
              <LongitudeDegrees>2.831492722034454345703125</LongitudeDegrees>
            </Position>
            <AltitudeMeters>607.5999755859375</AltitudeMeters>
            <DistanceMeters>5790.7410907901</DistanceMeters>
          </Trackpoint>
          <Trackpoint>
            <Time>2021-03-31T15:39:04.000Z</Time>
            <Position>
              <LatitudeDegrees>42.45118059217929840087890625</LatitudeDegrees>
              <LongitudeDegrees>2.8315021097660064697265625</LongitudeDegrees>
            </Position>
            <AltitudeMeters>607.79998779296875</AltitudeMeters>
            <DistanceMeters>5793.4738317619</DistanceMeters>
          </Trackpoint>
          <Trackpoint>
            <Time>2021-03-31T15:39:10.000Z</Time>
            <Position>
              <LatitudeDegrees>42.45112719945609569549560546875</LatitudeDegrees>
              <LongitudeDegrees>2.83154091797769069671630859375</LongitudeDegrees>
            </Position>
            <AltitudeMeters>608.4000244140625</AltitudeMeters>
            <DistanceMeters>5800.217381641</DistanceMeters>
          </Trackpoint>
          <Trackpoint>
            <Time>2021-03-31T15:39:13.000Z</Time>
            <Position>
              <LatitudeDegrees>42.45111512951552867889404296875</LatitudeDegrees>
              <LongitudeDegrees>2.8315706737339496612548828125</LongitudeDegrees>
            </Position>
            <AltitudeMeters>608.5999755859375</AltitudeMeters>
            <DistanceMeters>5803.0073504391</DistanceMeters>
          </Trackpoint>
          <Trackpoint>
            <Time>2021-03-31T15:39:16.000Z</Time>
            <Position>
              <LatitudeDegrees>42.451095767319202423095703125</LatitudeDegrees>
              <LongitudeDegrees>2.8315948136150836944580078125</LongitudeDegrees>
            </Position>
            <AltitudeMeters>608.79998779296875</AltitudeMeters>
            <DistanceMeters>5805.93472854</DistanceMeters>
          </Trackpoint>
          <Trackpoint>
            <Time>2021-03-31T15:39:17.000Z</Time>
            <Position>
              <LatitudeDegrees>42.45109518058598041534423828125</LatitudeDegrees>
              <LongitudeDegrees>2.83160747028887271881103515625</LongitudeDegrees>
            </Position>
            <AltitudeMeters>609</AltitudeMeters>
            <DistanceMeters>5806.9756940405</DistanceMeters>
          </Trackpoint>
          <Trackpoint>
            <Time>2021-03-31T15:39:21.000Z</Time>
            <Position>
              <LatitudeDegrees>42.45108260773122310638427734375</LatitudeDegrees>
              <LongitudeDegrees>2.83165122382342815399169921875</LongitudeDegrees>
            </Position>
            <AltitudeMeters>609.4000244140625</AltitudeMeters>
            <DistanceMeters>5810.8321867351</DistanceMeters>
          </Trackpoint>
          <Trackpoint>
            <Time>2021-03-31T15:39:24.000Z</Time>
            <Position>
              <LatitudeDegrees>42.45106995105743408203125</LatitudeDegrees>
              <LongitudeDegrees>2.8316917084157466888427734375</LongitudeDegrees>
            </Position>
            <AltitudeMeters>609.4000244140625</AltitudeMeters>
            <DistanceMeters>5814.4432018811</DistanceMeters>
          </Trackpoint>
          <Trackpoint>
            <Time>2021-03-31T15:39:28.000Z</Time>
            <Position>
              <LatitudeDegrees>42.45104053057730197906494140625</LatitudeDegrees>
              <LongitudeDegrees>2.831734456121921539306640625</LongitudeDegrees>
            </Position>
            <AltitudeMeters>609.5999755859375</AltitudeMeters>
            <DistanceMeters>5819.2436971769</DistanceMeters>
          </Trackpoint>
          <Trackpoint>
            <Time>2021-03-31T15:39:30.000Z</Time>
            <Position>
              <LatitudeDegrees>42.45103416033089160919189453125</LatitudeDegrees>
              <LongitudeDegrees>2.83175851218402385711669921875</LongitudeDegrees>
            </Position>
            <AltitudeMeters>609.79998779296875</AltitudeMeters>
            <DistanceMeters>5821.3429059099</DistanceMeters>
          </Trackpoint>
          <Trackpoint>
            <Time>2021-03-31T15:39:32.000Z</Time>
            <Position>
              <LatitudeDegrees>42.451024688780307769775390625</LatitudeDegrees>
              <LongitudeDegrees>2.831778712570667266845703125</LongitudeDegrees>
            </Position>
            <AltitudeMeters>610</AltitudeMeters>
            <DistanceMeters>5823.3088338633</DistanceMeters>
          </Trackpoint>
          <Trackpoint>
            <Time>2021-03-31T15:39:34.000Z</Time>
            <Position>
              <LatitudeDegrees>42.4510111100971698760986328125</LatitudeDegrees>
              <LongitudeDegrees>2.83179220743477344512939453125</LongitudeDegrees>
            </Position>
            <AltitudeMeters>610.20001220703125</AltitudeMeters>
            <DistanceMeters>5825.1806430577</DistanceMeters>
          </Trackpoint>
          <Trackpoint>
            <Time>2021-03-31T15:39:36.000Z</Time>
            <Position>
              <LatitudeDegrees>42.45100633241236209869384765625</LatitudeDegrees>
              <LongitudeDegrees>2.83181659877300262451171875</LongitudeDegrees>
            </Position>
            <AltitudeMeters>610.20001220703125</AltitudeMeters>
            <DistanceMeters>5827.2517022821</DistanceMeters>
          </Trackpoint>
          <Trackpoint>
            <Time>2021-03-31T15:39:40.000Z</Time>
            <Position>
              <LatitudeDegrees>42.4509976990520954132080078125</LatitudeDegrees>
              <LongitudeDegrees>2.83187669701874256134033203125</LongitudeDegrees>
            </Position>
            <AltitudeMeters>610.79998779296875</AltitudeMeters>
            <DistanceMeters>5832.2809412026</DistanceMeters>
          </Trackpoint>
          <Trackpoint>
            <Time>2021-03-31T15:39:42.000Z</Time>
            <Position>
              <LatitudeDegrees>42.45097833685576915740966796875</LatitudeDegrees>
              <LongitudeDegrees>2.831890694797039031982421875</LongitudeDegrees>
            </Position>
            <AltitudeMeters>611</AltitudeMeters>
            <DistanceMeters>5834.724070452</DistanceMeters>
          </Trackpoint>
          <Trackpoint>
            <Time>2021-03-31T15:39:49.000Z</Time>
            <Position>
              <LatitudeDegrees>42.45093575678765773773193359375</LatitudeDegrees>
              <LongitudeDegrees>2.83193151466548442840576171875</LongitudeDegrees>
            </Position>
            <AltitudeMeters>611.5999755859375</AltitudeMeters>
            <DistanceMeters>5840.5292616882</DistanceMeters>
          </Trackpoint>
          <Trackpoint>
            <Time>2021-03-31T15:39:54.000Z</Time>
            <Position>
              <LatitudeDegrees>42.4508954398334026336669921875</LatitudeDegrees>
              <LongitudeDegrees>2.83195850439369678497314453125</LongitudeDegrees>
            </Position>
            <AltitudeMeters>612</AltitudeMeters>
            <DistanceMeters>5845.5342024527</DistanceMeters>
          </Trackpoint>
          <Trackpoint>
            <Time>2021-03-31T15:39:57.000Z</Time>
            <Position>
              <LatitudeDegrees>42.45086534880101680755615234375</LatitudeDegrees>
              <LongitudeDegrees>2.8319947980344295501708984375</LongitudeDegrees>
            </Position>
            <AltitudeMeters>612.5999755859375</AltitudeMeters>
            <DistanceMeters>5850.0176107727</DistanceMeters>
          </Trackpoint>
          <Trackpoint>
            <Time>2021-03-31T15:39:58.000Z</Time>
            <Position>
              <LatitudeDegrees>42.45085696689784526824951171875</LatitudeDegrees>
              <LongitudeDegrees>2.83199873752892017364501953125</LongitudeDegrees>
            </Position>
            <AltitudeMeters>612.5999755859375</AltitudeMeters>
            <DistanceMeters>5851.0051573569</DistanceMeters>
          </Trackpoint>
          <Trackpoint>
            <Time>2021-03-31T15:40:02.000Z</Time>
            <Position>
              <LatitudeDegrees>42.4508307315409183502197265625</LatitudeDegrees>
              <LongitudeDegrees>2.83202690072357654571533203125</LongitudeDegrees>
            </Position>
            <AltitudeMeters>613</AltitudeMeters>
            <DistanceMeters>5854.7294287512</DistanceMeters>
          </Trackpoint>
          <Trackpoint>
            <Time>2021-03-31T15:40:06.000Z</Time>
            <Position>
              <LatitudeDegrees>42.45078857056796550750732421875</LatitudeDegrees>
              <LongitudeDegrees>2.83203444443643093109130859375</LongitudeDegrees>
            </Position>
            <AltitudeMeters>613.20001220703125</AltitudeMeters>
            <DistanceMeters>5859.4617209633</DistanceMeters>
          </Trackpoint>
          <Trackpoint>
            <Time>2021-03-31T15:40:11.000Z</Time>
            <Position>
              <LatitudeDegrees>42.45073928497731685638427734375</LatitudeDegrees>
              <LongitudeDegrees>2.83203385770320892333984375</LongitudeDegrees>
            </Position>
            <AltitudeMeters>613.79998779296875</AltitudeMeters>
            <DistanceMeters>5864.9469934917</DistanceMeters>
          </Trackpoint>
          <Trackpoint>
            <Time>2021-03-31T15:40:13.000Z</Time>
            <Position>
              <LatitudeDegrees>42.45071598328649997711181640625</LatitudeDegrees>
              <LongitudeDegrees>2.83203913830220699310302734375</LongitudeDegrees>
            </Position>
            <AltitudeMeters>614</AltitudeMeters>
            <DistanceMeters>5867.577019833</DistanceMeters>
          </Trackpoint>
          <Trackpoint>
            <Time>2021-03-31T15:40:21.000Z</Time>
            <Position>
              <LatitudeDegrees>42.45064792223274707794189453125</LatitudeDegrees>
              <LongitudeDegrees>2.83204919658601284027099609375</LongitudeDegrees>
            </Position>
            <AltitudeMeters>614.79998779296875</AltitudeMeters>
            <DistanceMeters>5875.198138628</DistanceMeters>
          </Trackpoint>
          <Trackpoint>
            <Time>2021-03-31T15:40:23.000Z</Time>
            <Position>
              <LatitudeDegrees>42.45063652284443378448486328125</LatitudeDegrees>
              <LongitudeDegrees>2.83204860985279083251953125</LongitudeDegrees>
            </Position>
            <AltitudeMeters>615.20001220703125</AltitudeMeters>
            <DistanceMeters>5876.4659531283</DistanceMeters>
          </Trackpoint>
          <Trackpoint>
            <Time>2021-03-31T15:40:25.000Z</Time>
            <Position>
              <LatitudeDegrees>42.4506164900958538055419921875</LatitudeDegrees>
              <LongitudeDegrees>2.8320464305579662322998046875</LongitudeDegrees>
            </Position>
            <AltitudeMeters>615.4000244140625</AltitudeMeters>
            <DistanceMeters>5878.7026163461</DistanceMeters>
          </Trackpoint>
          <Trackpoint>
            <Time>2021-03-31T15:40:27.000Z</Time>
            <Position>
              <LatitudeDegrees>42.45059184730052947998046875</LatitudeDegrees>
              <LongitudeDegrees>2.83204902894794940948486328125</LongitudeDegrees>
            </Position>
            <AltitudeMeters>615.5999755859375</AltitudeMeters>
            <DistanceMeters>5881.4534714968</DistanceMeters>
          </Trackpoint>
          <Trackpoint>
            <Time>2021-03-31T15:40:29.000Z</Time>
            <Position>
              <LatitudeDegrees>42.450564019381999969482421875</LatitudeDegrees>
              <LongitudeDegrees>2.83204467035830020904541015625</LongitudeDegrees>
            </Position>
            <AltitudeMeters>615.5999755859375</AltitudeMeters>
            <DistanceMeters>5884.570579492</DistanceMeters>
          </Trackpoint>
          <Trackpoint>
            <Time>2021-03-31T15:40:37.000Z</Time>
            <Position>
              <LatitudeDegrees>42.45046771131455898284912109375</LatitudeDegrees>
              <LongitudeDegrees>2.83203695900738239288330078125</LongitudeDegrees>
            </Position>
            <AltitudeMeters>616</AltitudeMeters>
            <DistanceMeters>5895.3090186798</DistanceMeters>
          </Trackpoint>
          <Trackpoint>
            <Time>2021-03-31T15:40:41.000Z</Time>
            <Position>
              <LatitudeDegrees>42.45043636299669742584228515625</LatitudeDegrees>
              <LongitudeDegrees>2.83203209750354290008544921875</LongitudeDegrees>
            </Position>
            <AltitudeMeters>616.20001220703125</AltitudeMeters>
            <DistanceMeters>5898.8185805142</DistanceMeters>
          </Trackpoint>
          <Trackpoint>
            <Time>2021-03-31T15:40:42.000Z</Time>
            <Position>
              <LatitudeDegrees>42.45043066330254077911376953125</LatitudeDegrees>
              <LongitudeDegrees>2.83203385770320892333984375</LongitudeDegrees>
            </Position>
            <AltitudeMeters>616.20001220703125</AltitudeMeters>
            <DistanceMeters>5899.4630830482</DistanceMeters>
          </Trackpoint>
          <Trackpoint>
            <Time>2021-03-31T15:40:43.000Z</Time>
            <Position>
              <LatitudeDegrees>42.45042379014194011688232421875</LatitudeDegrees>
              <LongitudeDegrees>2.8320358693599700927734375</LongitudeDegrees>
            </Position>
            <AltitudeMeters>616.4000244140625</AltitudeMeters>
            <DistanceMeters>5900.2466934094</DistanceMeters>
          </Trackpoint>
          <Trackpoint>
            <Time>2021-03-31T15:40:47.000Z</Time>
            <Position>
              <LatitudeDegrees>42.4503921903669834136962890625</LatitudeDegrees>
              <LongitudeDegrees>2.83203260041773319244384765625</LongitudeDegrees>
            </Position>
            <AltitudeMeters>617</AltitudeMeters>
            <DistanceMeters>5903.7742202116</DistanceMeters>
          </Trackpoint>
          <Trackpoint>
            <Time>2021-03-31T15:40:50.000Z</Time>
            <Position>
              <LatitudeDegrees>42.4503667093813419342041015625</LatitudeDegrees>
              <LongitudeDegrees>2.83202069811522960662841796875</LongitudeDegrees>
            </Position>
            <AltitudeMeters>617.20001220703125</AltitudeMeters>
            <DistanceMeters>5906.7732127321</DistanceMeters>
          </Trackpoint>
          <Trackpoint>
            <Time>2021-03-31T15:40:51.000Z</Time>
            <Position>
              <LatitudeDegrees>42.45035254396498203277587890625</LatitudeDegrees>
              <LongitudeDegrees>2.832024134695529937744140625</LongitudeDegrees>
            </Position>
            <AltitudeMeters>617.4000244140625</AltitudeMeters>
            <DistanceMeters>5908.3746313876</DistanceMeters>
          </Trackpoint>
          <Trackpoint>
            <Time>2021-03-31T15:40:53.000Z</Time>
            <Position>
              <LatitudeDegrees>42.450332343578338623046875</LatitudeDegrees>
              <LongitudeDegrees>2.832044251263141632080078125</LongitudeDegrees>
            </Position>
            <AltitudeMeters>617.4000244140625</AltitudeMeters>
            <DistanceMeters>5911.1646001857</DistanceMeters>
          </Trackpoint>
          <Trackpoint>
            <Time>2021-03-31T15:40:57.000Z</Time>
            <Position>
              <LatitudeDegrees>42.4503023363649845123291015625</LatitudeDegrees>
              <LongitudeDegrees>2.83206545747816562652587890625</LongitudeDegrees>
            </Position>
            <AltitudeMeters>617.20001220703125</AltitudeMeters>
            <DistanceMeters>5914.9322626135</DistanceMeters>
          </Trackpoint>
          <Trackpoint>
            <Time>2021-03-31T15:41:03.000Z</Time>
            <Position>
              <LatitudeDegrees>42.45027174241840839385986328125</LatitudeDegrees>
              <LongitudeDegrees>2.83207031898200511932373046875</LongitudeDegrees>
            </Position>
            <AltitudeMeters>618.4000244140625</AltitudeMeters>
            <DistanceMeters>5918.3611340795</DistanceMeters>
          </Trackpoint>
          <Trackpoint>
            <Time>2021-03-31T15:41:08.000Z</Time>
            <Position>
              <LatitudeDegrees>42.4502584151923656463623046875</LatitudeDegrees>
              <LongitudeDegrees>2.832072079181671142578125</LongitudeDegrees>
            </Position>
            <AltitudeMeters>619.4000244140625</AltitudeMeters>
            <DistanceMeters>5919.8515698564</DistanceMeters>
          </Trackpoint>
          <Trackpoint>
            <Time>2021-03-31T15:41:12.000Z</Time>
            <Position>
              <LatitudeDegrees>42.45020384900271892547607421875</LatitudeDegrees>
              <LongitudeDegrees>2.83209697343409061431884765625</LongitudeDegrees>
            </Position>
            <AltitudeMeters>620.20001220703125</AltitudeMeters>
            <DistanceMeters>5926.2593586787</DistanceMeters>
          </Trackpoint>
          <Trackpoint>
            <Time>2021-03-31T15:41:16.000Z</Time>
            <Position>
              <LatitudeDegrees>42.45016730390489101409912109375</LatitudeDegrees>
              <LongitudeDegrees>2.83211298286914825439453125</LongitudeDegrees>
            </Position>
            <AltitudeMeters>620.4000244140625</AltitudeMeters>
            <DistanceMeters>5930.5345048426</DistanceMeters>
          </Trackpoint>
          <Trackpoint>
            <Time>2021-03-31T15:41:18.000Z</Time>
            <Position>
              <LatitudeDegrees>42.450153641402721405029296875</LatitudeDegrees>
              <LongitudeDegrees>2.83211776055395603179931640625</LongitudeDegrees>
            </Position>
            <AltitudeMeters>620.5999755859375</AltitudeMeters>
            <DistanceMeters>5932.101725565</DistanceMeters>
          </Trackpoint>
          <Trackpoint>
            <Time>2021-03-31T15:41:24.000Z</Time>
            <Position>
              <LatitudeDegrees>42.4501145817339420318603515625</LatitudeDegrees>
              <LongitudeDegrees>2.832162268459796905517578125</LongitudeDegrees>
            </Position>
            <AltitudeMeters>621.20001220703125</AltitudeMeters>
            <DistanceMeters>5937.7827019961</DistanceMeters>
          </Trackpoint>
          <Trackpoint>
            <Time>2021-03-31T15:41:25.000Z</Time>
            <Position>
              <LatitudeDegrees>42.45011701248586177825927734375</LatitudeDegrees>
              <LongitudeDegrees>2.8321664594113826751708984375</LongitudeDegrees>
            </Position>
            <AltitudeMeters>621.20001220703125</AltitudeMeters>
            <DistanceMeters>5938.2284167948</DistanceMeters>
          </Trackpoint>
          <Trackpoint>
            <Time>2021-03-31T15:41:27.000Z</Time>
            <Position>
              <LatitudeDegrees>42.450108714401721954345703125</LatitudeDegrees>
              <LongitudeDegrees>2.832174338400363922119140625</LongitudeDegrees>
            </Position>
            <AltitudeMeters>621.5999755859375</AltitudeMeters>
            <DistanceMeters>5939.3567965086</DistanceMeters>
          </Trackpoint>
          <Trackpoint>
            <Time>2021-03-31T15:41:30.000Z</Time>
            <Position>
              <LatitudeDegrees>42.4500716663897037506103515625</LatitudeDegrees>
              <LongitudeDegrees>2.8321835584938526153564453125</LongitudeDegrees>
            </Position>
            <AltitudeMeters>622</AltitudeMeters>
            <DistanceMeters>5943.5498334553</DistanceMeters>
          </Trackpoint>
          <Trackpoint>
            <Time>2021-03-31T15:41:35.000Z</Time>
            <Position>
              <LatitudeDegrees>42.450022213160991668701171875</LatitudeDegrees>
              <LongitudeDegrees>2.832219265401363372802734375</LongitudeDegrees>
            </Position>
            <AltitudeMeters>622.79998779296875</AltitudeMeters>
            <DistanceMeters>5949.7854977477</DistanceMeters>
          </Trackpoint>
          <Trackpoint>
            <Time>2021-03-31T15:41:38.000Z</Time>
            <Position>
              <LatitudeDegrees>42.4499955587089061737060546875</LatitudeDegrees>
              <LongitudeDegrees>2.8322395496070384979248046875</LongitudeDegrees>
            </Position>
            <AltitudeMeters>623.20001220703125</AltitudeMeters>
            <DistanceMeters>5953.1879318766</DistanceMeters>
          </Trackpoint>
          <Trackpoint>
            <Time>2021-03-31T15:41:44.000Z</Time>
            <Position>
              <LatitudeDegrees>42.44993797503411769866943359375</LatitudeDegrees>
              <LongitudeDegrees>2.8322747536003589630126953125</LongitudeDegrees>
            </Position>
            <AltitudeMeters>623.79998779296875</AltitudeMeters>
            <DistanceMeters>5960.2199087399</DistanceMeters>
          </Trackpoint>
          <Trackpoint>
            <Time>2021-03-31T15:41:45.000Z</Time>
            <Position>
              <LatitudeDegrees>42.44992733001708984375</LatitudeDegrees>
              <LongitudeDegrees>2.83227902837097644805908203125</LongitudeDegrees>
            </Position>
            <AltitudeMeters>623.79998779296875</AltitudeMeters>
            <DistanceMeters>5961.4552560268</DistanceMeters>
          </Trackpoint>
          <Trackpoint>
            <Time>2021-03-31T15:41:52.000Z</Time>
            <Position>
              <LatitudeDegrees>42.44986035861074924468994140625</LatitudeDegrees>
              <LongitudeDegrees>2.832286655902862548828125</LongitudeDegrees>
            </Position>
            <AltitudeMeters>624.79998779296875</AltitudeMeters>
            <DistanceMeters>5968.9364600608</DistanceMeters>
          </Trackpoint>
          <Trackpoint>
            <Time>2021-03-31T15:41:53.000Z</Time>
            <Position>
              <LatitudeDegrees>42.44985147379338741302490234375</LatitudeDegrees>
              <LongitudeDegrees>2.832292020320892333984375</LongitudeDegrees>
            </Position>
            <AltitudeMeters>624.79998779296875</AltitudeMeters>
            <DistanceMeters>5970.0199313054</DistanceMeters>
          </Trackpoint>
          <Trackpoint>
            <Time>2021-03-31T15:41:58.000Z</Time>
            <Position>
              <LatitudeDegrees>42.44979565031826496124267578125</LatitudeDegrees>
              <LongitudeDegrees>2.83231657929718494415283203125</LongitudeDegrees>
            </Position>
            <AltitudeMeters>625</AltitudeMeters>
            <DistanceMeters>5976.5526291611</DistanceMeters>
          </Trackpoint>
          <Trackpoint>
            <Time>2021-03-31T15:42:00.000Z</Time>
            <Position>
              <LatitudeDegrees>42.449782155454158782958984375</LatitudeDegrees>
              <LongitudeDegrees>2.832321189343929290771484375</LongitudeDegrees>
            </Position>
            <AltitudeMeters>625</AltitudeMeters>
            <DistanceMeters>5978.1024679702</DistanceMeters>
          </Trackpoint>
          <Trackpoint>
            <Time>2021-03-31T15:42:02.000Z</Time>
            <Position>
              <LatitudeDegrees>42.44976379908621311187744140625</LatitudeDegrees>
              <LongitudeDegrees>2.8323268890380859375</LongitudeDegrees>
            </Position>
            <AltitudeMeters>625.4000244140625</AltitudeMeters>
            <DistanceMeters>5980.1973706294</DistanceMeters>
          </Trackpoint>
          <Trackpoint>
            <Time>2021-03-31T15:42:05.000Z</Time>
            <Position>
              <LatitudeDegrees>42.4497316963970661163330078125</LatitudeDegrees>
              <LongitudeDegrees>2.83233786933124065399169921875</LongitudeDegrees>
            </Position>
            <AltitudeMeters>625.79998779296875</AltitudeMeters>
            <DistanceMeters>5983.8826433428</DistanceMeters>
          </Trackpoint>
          <Trackpoint>
            <Time>2021-03-31T15:42:09.000Z</Time>
            <Position>
              <LatitudeDegrees>42.44969691149890422821044921875</LatitudeDegrees>
              <LongitudeDegrees>2.83236200921237468719482421875</LongitudeDegrees>
            </Position>
            <AltitudeMeters>626</AltitudeMeters>
            <DistanceMeters>5988.2321272374</DistanceMeters>
          </Trackpoint>
          <Trackpoint>
            <Time>2021-03-31T15:42:20.000Z</Time>
            <Position>
              <LatitudeDegrees>42.449613176286220550537109375</LatitudeDegrees>
              <LongitudeDegrees>2.832452952861785888671875</LongitudeDegrees>
            </Position>
            <AltitudeMeters>626.79998779296875</AltitudeMeters>
            <DistanceMeters>6000.1752879375</DistanceMeters>
          </Trackpoint>
          <Trackpoint>
            <Time>2021-03-31T15:42:21.000Z</Time>
            <Position>
              <LatitudeDegrees>42.4496046267449855804443359375</LatitudeDegrees>
              <LongitudeDegrees>2.83246167004108428955078125</LongitudeDegrees>
            </Position>
            <AltitudeMeters>627</AltitudeMeters>
            <DistanceMeters>6001.3697552155</DistanceMeters>
          </Trackpoint>
          <Trackpoint>
            <Time>2021-03-31T15:42:32.000Z</Time>
            <Position>
              <LatitudeDegrees>42.449522651731967926025390625</LatitudeDegrees>
              <LongitudeDegrees>2.832563929259777069091796875</LongitudeDegrees>
            </Position>
            <AltitudeMeters>627.20001220703125</AltitudeMeters>
            <DistanceMeters>6013.7706504187</DistanceMeters>
          </Trackpoint>
          <Trackpoint>
            <Time>2021-03-31T15:42:39.000Z</Time>
            <Position>
              <LatitudeDegrees>42.44946439750492572784423828125</LatitudeDegrees>
              <LongitudeDegrees>2.832626290619373321533203125</LongitudeDegrees>
            </Position>
            <AltitudeMeters>628</AltitudeMeters>
            <DistanceMeters>6022.033057932</DistanceMeters>
          </Trackpoint>
          <Trackpoint>
            <Time>2021-03-31T15:42:44.000Z</Time>
            <Position>
              <LatitudeDegrees>42.44942584075033664703369140625</LatitudeDegrees>
              <LongitudeDegrees>2.83266744576394557952880859375</LongitudeDegrees>
            </Position>
            <AltitudeMeters>628.20001220703125</AltitudeMeters>
            <DistanceMeters>6027.4960610116</DistanceMeters>
          </Trackpoint>
          <Trackpoint>
            <Time>2021-03-31T15:42:52.000Z</Time>
            <Position>
              <LatitudeDegrees>42.44935710914433002471923828125</LatitudeDegrees>
              <LongitudeDegrees>2.83271203748881816864013671875</LongitudeDegrees>
            </Position>
            <AltitudeMeters>629</AltitudeMeters>
            <DistanceMeters>6035.9774281745</DistanceMeters>
          </Trackpoint>
          <Trackpoint>
            <Time>2021-03-31T15:42:53.000Z</Time>
            <Position>
              <LatitudeDegrees>42.44935107417404651641845703125</LatitudeDegrees>
              <LongitudeDegrees>2.832715474069118499755859375</LongitudeDegrees>
            </Position>
            <AltitudeMeters>629</AltitudeMeters>
            <DistanceMeters>6036.7073422176</DistanceMeters>
          </Trackpoint>
          <Trackpoint>
            <Time>2021-03-31T15:43:02.000Z</Time>
            <Position>
              <LatitudeDegrees>42.4492777325212955474853515625</LatitudeDegrees>
              <LongitudeDegrees>2.832779176533222198486328125</LongitudeDegrees>
            </Position>
            <AltitudeMeters>630</AltitudeMeters>
            <DistanceMeters>6046.4033272556</DistanceMeters>
          </Trackpoint>
          <Trackpoint>
            <Time>2021-03-31T15:43:03.000Z</Time>
            <Position>
              <LatitudeDegrees>42.44926775805652141571044921875</LatitudeDegrees>
              <LongitudeDegrees>2.83278596587479114532470703125</LongitudeDegrees>
            </Position>
            <AltitudeMeters>630</AltitudeMeters>
            <DistanceMeters>6047.6459627902</DistanceMeters>
          </Trackpoint>
          <Trackpoint>
            <Time>2021-03-31T15:43:05.000Z</Time>
            <Position>
              <LatitudeDegrees>42.449247054755687713623046875</LatitudeDegrees>
              <LongitudeDegrees>2.83279895782470703125</LongitudeDegrees>
            </Position>
            <AltitudeMeters>630.20001220703125</AltitudeMeters>
            <DistanceMeters>6050.18515057</DistanceMeters>
          </Trackpoint>
          <Trackpoint>
            <Time>2021-03-31T15:43:06.000Z</Time>
            <Position>
              <LatitudeDegrees>42.449239008128643035888671875</LatitudeDegrees>
              <LongitudeDegrees>2.83280507661402225494384765625</LongitudeDegrees>
            </Position>
            <AltitudeMeters>630.4000244140625</AltitudeMeters>
            <DistanceMeters>6051.217404909</DistanceMeters>
          </Trackpoint>
          <Trackpoint>
            <Time>2021-03-31T15:43:09.000Z</Time>
            <Position>
              <LatitudeDegrees>42.44921864010393619537353515625</LatitudeDegrees>
              <LongitudeDegrees>2.8328276239335536956787109375</LongitudeDegrees>
            </Position>
            <AltitudeMeters>630.4000244140625</AltitudeMeters>
            <DistanceMeters>6054.1432402545</DistanceMeters>
          </Trackpoint>
          <Trackpoint>
            <Time>2021-03-31T15:43:11.000Z</Time>
            <Position>
              <LatitudeDegrees>42.449201457202434539794921875</LatitudeDegrees>
              <LongitudeDegrees>2.8328353352844715118408203125</LongitudeDegrees>
            </Position>
            <AltitudeMeters>630.5999755859375</AltitudeMeters>
            <DistanceMeters>6056.1590612782</DistanceMeters>
          </Trackpoint>
          <Trackpoint>
            <Time>2021-03-31T15:43:18.000Z</Time>
            <Position>
              <LatitudeDegrees>42.4491476453840732574462890625</LatitudeDegrees>
              <LongitudeDegrees>2.832866013050079345703125</LongitudeDegrees>
            </Position>
            <AltitudeMeters>630.79998779296875</AltitudeMeters>
            <DistanceMeters>6062.6571100201</DistanceMeters>
          </Trackpoint>
          <Trackpoint>
            <Time>2021-03-31T15:43:20.000Z</Time>
            <Position>
              <LatitudeDegrees>42.449129708111286163330078125</LatitudeDegrees>
              <LongitudeDegrees>2.83287984319031238555908203125</LongitudeDegrees>
            </Position>
            <AltitudeMeters>630.79998779296875</AltitudeMeters>
            <DistanceMeters>6064.953534337</DistanceMeters>
          </Trackpoint>
          <Trackpoint>
            <Time>2021-03-31T15:43:23.000Z</Time>
            <Position>
              <LatitudeDegrees>42.449102886021137237548828125</LatitudeDegrees>
              <LongitudeDegrees>2.832903228700160980224609375</LongitudeDegrees>
            </Position>
            <AltitudeMeters>631.20001220703125</AltitudeMeters>
            <DistanceMeters>6068.5014811465</DistanceMeters>
          </Trackpoint>
          <Trackpoint>
            <Time>2021-03-31T15:43:25.000Z</Time>
            <Position>
              <LatitudeDegrees>42.44908721186220645904541015625</LatitudeDegrees>
              <LongitudeDegrees>2.832915969192981719970703125</LongitudeDegrees>
            </Position>
            <AltitudeMeters>631.4000244140625</AltitudeMeters>
            <DistanceMeters>6070.5351416421</DistanceMeters>
          </Trackpoint>
          <Trackpoint>
            <Time>2021-03-31T15:43:30.000Z</Time>
            <Position>
              <LatitudeDegrees>42.44903507642447948455810546875</LatitudeDegrees>
              <LongitudeDegrees>2.83291772939264774322509765625</LongitudeDegrees>
            </Position>
            <AltitudeMeters>631.5999755859375</AltitudeMeters>
            <DistanceMeters>6076.3395550674</DistanceMeters>
          </Trackpoint>
          <Trackpoint>
            <Time>2021-03-31T15:43:32.000Z</Time>
            <Position>
              <LatitudeDegrees>42.4490205757319927215576171875</LatitudeDegrees>
              <LongitudeDegrees>2.832925021648406982421875</LongitudeDegrees>
            </Position>
            <AltitudeMeters>631.79998779296875</AltitudeMeters>
            <DistanceMeters>6078.0631835512</DistanceMeters>
          </Trackpoint>
          <Trackpoint>
            <Time>2021-03-31T15:43:35.000Z</Time>
            <Position>
              <LatitudeDegrees>42.4490091763436794281005859375</LatitudeDegrees>
              <LongitudeDegrees>2.8329409472644329071044921875</LongitudeDegrees>
            </Position>
            <AltitudeMeters>632.20001220703125</AltitudeMeters>
            <DistanceMeters>6079.8861120005</DistanceMeters>
          </Trackpoint>
          <Trackpoint>
            <Time>2021-03-31T15:43:37.000Z</Time>
            <Position>
              <LatitudeDegrees>42.44899861514568328857421875</LatitudeDegrees>
              <LongitudeDegrees>2.83296517096459865570068359375</LongitudeDegrees>
            </Position>
            <AltitudeMeters>632.4000244140625</AltitudeMeters>
            <DistanceMeters>6082.1943028726</DistanceMeters>
          </Trackpoint>
          <Trackpoint>
            <Time>2021-03-31T15:43:38.000Z</Time>
            <Position>
              <LatitudeDegrees>42.44899299927055835723876953125</LatitudeDegrees>
              <LongitudeDegrees>2.83296592533588409423828125</LongitudeDegrees>
            </Position>
            <AltitudeMeters>632.4000244140625</AltitudeMeters>
            <DistanceMeters>6082.8246387859</DistanceMeters>
          </Trackpoint>
          <Trackpoint>
            <Time>2021-03-31T15:43:41.000Z</Time>
            <Position>
              <LatitudeDegrees>42.44896919466555118560791015625</LatitudeDegrees>
              <LongitudeDegrees>2.83296952955424785614013671875</LongitudeDegrees>
            </Position>
            <AltitudeMeters>633</AltitudeMeters>
            <DistanceMeters>6085.492165775</DistanceMeters>
          </Trackpoint>
          <Trackpoint>
            <Time>2021-03-31T15:43:43.000Z</Time>
            <Position>
              <LatitudeDegrees>42.4489572085440158843994140625</LatitudeDegrees>
              <LongitudeDegrees>2.83297522924840450286865234375</LongitudeDegrees>
            </Position>
            <AltitudeMeters>633.20001220703125</AltitudeMeters>
            <DistanceMeters>6086.9080319306</DistanceMeters>
          </Trackpoint>
          <Trackpoint>
            <Time>2021-03-31T15:43:45.000Z</Time>
            <Position>
              <LatitudeDegrees>42.44893432594835758209228515625</LatitudeDegrees>
              <LongitudeDegrees>2.832976989448070526123046875</LongitudeDegrees>
            </Position>
            <AltitudeMeters>633.5999755859375</AltitudeMeters>
            <DistanceMeters>6089.4578662467</DistanceMeters>
          </Trackpoint>
          <Trackpoint>
            <Time>2021-03-31T15:43:49.000Z</Time>
            <Position>
              <LatitudeDegrees>42.44891504757106304168701171875</LatitudeDegrees>
              <LongitudeDegrees>2.832983024418354034423828125</LongitudeDegrees>
            </Position>
            <AltitudeMeters>633.79998779296875</AltitudeMeters>
            <DistanceMeters>6091.6578937406</DistanceMeters>
          </Trackpoint>
          <Trackpoint>
            <Time>2021-03-31T15:43:53.000Z</Time>
            <Position>
              <LatitudeDegrees>42.4488847889006137847900390625</LatitudeDegrees>
              <LongitudeDegrees>2.83298830501735210418701171875</LongitudeDegrees>
            </Position>
            <AltitudeMeters>634.4000244140625</AltitudeMeters>
            <DistanceMeters>6095.0523565174</DistanceMeters>
          </Trackpoint>
          <Trackpoint>
            <Time>2021-03-31T15:43:55.000Z</Time>
            <Position>
              <LatitudeDegrees>42.448864169418811798095703125</LatitudeDegrees>
              <LongitudeDegrees>2.8329932503402233123779296875</LongitudeDegrees>
            </Position>
            <AltitudeMeters>634.5999755859375</AltitudeMeters>
            <DistanceMeters>6097.3819650559</DistanceMeters>
          </Trackpoint>
          <Trackpoint>
            <Time>2021-03-31T15:44:01.000Z</Time>
            <Position>
              <LatitudeDegrees>42.4487972818315029144287109375</LatitudeDegrees>
              <LongitudeDegrees>2.83299936912953853607177734375</LongitudeDegrees>
            </Position>
            <AltitudeMeters>634.79998779296875</AltitudeMeters>
            <DistanceMeters>6104.8432264289</DistanceMeters>
          </Trackpoint>
          <Trackpoint>
            <Time>2021-03-31T15:44:05.000Z</Time>
            <Position>
              <LatitudeDegrees>42.4487650953233242034912109375</LatitudeDegrees>
              <LongitudeDegrees>2.83300976268947124481201171875</LongitudeDegrees>
            </Position>
            <AltitudeMeters>635.4000244140625</AltitudeMeters>
            <DistanceMeters>6108.5260480128</DistanceMeters>
          </Trackpoint>
          <Trackpoint>
            <Time>2021-03-31T15:44:06.000Z</Time>
            <Position>
              <LatitudeDegrees>42.44875344447791576385498046875</LatitudeDegrees>
              <LongitudeDegrees>2.83301479183137416839599609375</LongitudeDegrees>
            </Position>
            <AltitudeMeters>635.79998779296875</AltitudeMeters>
            <DistanceMeters>6109.8866235054</DistanceMeters>
          </Trackpoint>
          <Trackpoint>
            <Time>2021-03-31T15:44:11.000Z</Time>
            <Position>
              <LatitudeDegrees>42.44872025214135646820068359375</LatitudeDegrees>
              <LongitudeDegrees>2.83305435441434383392333984375</LongitudeDegrees>
            </Position>
            <AltitudeMeters>636.5999755859375</AltitudeMeters>
            <DistanceMeters>6114.8060345342</DistanceMeters>
          </Trackpoint>
          <Trackpoint>
            <Time>2021-03-31T15:44:12.000Z</Time>
            <Position>
              <LatitudeDegrees>42.44871086440980434417724609375</LatitudeDegrees>
              <LongitudeDegrees>2.83306323923170566558837890625</LongitudeDegrees>
            </Position>
            <AltitudeMeters>636.5999755859375</AltitudeMeters>
            <DistanceMeters>6116.0809516922</DistanceMeters>
          </Trackpoint>
          <Trackpoint>
            <Time>2021-03-31T15:44:13.000Z</Time>
            <Position>
              <LatitudeDegrees>42.448699213564395904541015625</LatitudeDegrees>
              <LongitudeDegrees>2.8330670110881328582763671875</LongitudeDegrees>
            </Position>
            <AltitudeMeters>636.5999755859375</AltitudeMeters>
            <DistanceMeters>6117.4147151868</DistanceMeters>
          </Trackpoint>
          <Trackpoint>
            <Time>2021-03-31T15:44:14.000Z</Time>
            <Position>
              <LatitudeDegrees>42.4486909992992877960205078125</LatitudeDegrees>
              <LongitudeDegrees>2.8330747224390506744384765625</LongitudeDegrees>
            </Position>
            <AltitudeMeters>636.5999755859375</AltitudeMeters>
            <DistanceMeters>6118.526974362</DistanceMeters>
          </Trackpoint>
          <Trackpoint>
            <Time>2021-03-31T15:44:17.000Z</Time>
            <Position>
              <LatitudeDegrees>42.44866669178009033203125</LatitudeDegrees>
              <LongitudeDegrees>2.83308419398963451385498046875</LongitudeDegrees>
            </Position>
            <AltitudeMeters>637.20001220703125</AltitudeMeters>
            <DistanceMeters>6121.3427170913</DistanceMeters>
          </Trackpoint>
          <Trackpoint>
            <Time>2021-03-31T15:44:19.000Z</Time>
            <Position>
              <LatitudeDegrees>42.4486487545073032379150390625</LatitudeDegrees>
              <LongitudeDegrees>2.8330851159989833831787109375</LongitudeDegrees>
            </Position>
            <AltitudeMeters>637.4000244140625</AltitudeMeters>
            <DistanceMeters>6123.3427980559</DistanceMeters>
          </Trackpoint>
          <Trackpoint>
            <Time>2021-03-31T15:44:21.000Z</Time>
            <Position>
              <LatitudeDegrees>42.44860474951565265655517578125</LatitudeDegrees>
              <LongitudeDegrees>2.8330965153872966766357421875</LongitudeDegrees>
            </Position>
            <AltitudeMeters>637.5999755859375</AltitudeMeters>
            <DistanceMeters>6128.3296638578</DistanceMeters>
          </Trackpoint>
          <Trackpoint>
            <Time>2021-03-31T15:44:23.000Z</Time>
            <Position>
              <LatitudeDegrees>42.4485709704458713531494140625</LatitudeDegrees>
              <LongitudeDegrees>2.83311738632619380950927734375</LongitudeDegrees>
            </Position>
            <AltitudeMeters>637.5999755859375</AltitudeMeters>
            <DistanceMeters>6132.4630528586</DistanceMeters>
          </Trackpoint>
          <Trackpoint>
            <Time>2021-03-31T15:44:24.000Z</Time>
            <Position>
              <LatitudeDegrees>42.44856535457074642181396484375</LatitudeDegrees>
              <LongitudeDegrees>2.8331270255148410797119140625</LongitudeDegrees>
            </Position>
            <AltitudeMeters>637.79998779296875</AltitudeMeters>
            <DistanceMeters>6133.4687210751</DistanceMeters>
          </Trackpoint>
          <Trackpoint>
            <Time>2021-03-31T15:44:26.000Z</Time>
            <Position>
              <LatitudeDegrees>42.44856149889528751373291015625</LatitudeDegrees>
              <LongitudeDegrees>2.83314538188278675079345703125</LongitudeDegrees>
            </Position>
            <AltitudeMeters>637.79998779296875</AltitudeMeters>
            <DistanceMeters>6135.0359417976</DistanceMeters>
          </Trackpoint>
          <Trackpoint>
            <Time>2021-03-31T15:44:30.000Z</Time>
            <Position>
              <LatitudeDegrees>42.448539622128009796142578125</LatitudeDegrees>
              <LongitudeDegrees>2.8331598825752735137939453125</LongitudeDegrees>
            </Position>
            <AltitudeMeters>638.20001220703125</AltitudeMeters>
            <DistanceMeters>6137.7454532201</DistanceMeters>
          </Trackpoint>
          <Trackpoint>
            <Time>2021-03-31T15:44:32.000Z</Time>
            <Position>
              <LatitudeDegrees>42.44851179420948028564453125</LatitudeDegrees>
              <LongitudeDegrees>2.83316432498395442962646484375</LongitudeDegrees>
            </Position>
            <AltitudeMeters>638.5999755859375</AltitudeMeters>
            <DistanceMeters>6140.8640093492</DistanceMeters>
          </Trackpoint>
          <Trackpoint>
            <Time>2021-03-31T15:44:34.000Z</Time>
            <Position>
              <LatitudeDegrees>42.448498047888278961181640625</LatitudeDegrees>
              <LongitudeDegrees>2.83316440880298614501953125</LongitudeDegrees>
            </Position>
            <AltitudeMeters>638.79998779296875</AltitudeMeters>
            <DistanceMeters>6142.3962690776</DistanceMeters>
          </Trackpoint>
          <Trackpoint>
            <Time>2021-03-31T15:44:36.000Z</Time>
            <Position>
              <LatitudeDegrees>42.4484829604625701904296875</LatitudeDegrees>
              <LongitudeDegrees>2.83317237161099910736083984375</LongitudeDegrees>
            </Position>
            <AltitudeMeters>639.20001220703125</AltitudeMeters>
            <DistanceMeters>6144.1967682982</DistanceMeters>
          </Trackpoint>
          <Trackpoint>
            <Time>2021-03-31T15:44:37.000Z</Time>
            <Position>
              <LatitudeDegrees>42.4484673701226711273193359375</LatitudeDegrees>
              <LongitudeDegrees>2.8331826813519001007080078125</LongitudeDegrees>
            </Position>
            <AltitudeMeters>639.20001220703125</AltitudeMeters>
            <DistanceMeters>6146.1255999381</DistanceMeters>
          </Trackpoint>
          <Trackpoint>
            <Time>2021-03-31T15:44:44.000Z</Time>
            <Position>
              <LatitudeDegrees>42.4483781866729259490966796875</LatitudeDegrees>
              <LongitudeDegrees>2.8331892192363739013671875</LongitudeDegrees>
            </Position>
            <AltitudeMeters>639.4000244140625</AltitudeMeters>
            <DistanceMeters>6156.0666842151</DistanceMeters>
          </Trackpoint>
          <Trackpoint>
            <Time>2021-03-31T15:44:49.000Z</Time>
            <Position>
              <LatitudeDegrees>42.4483124725520610809326171875</LatitudeDegrees>
              <LongitudeDegrees>2.83314655534923076629638671875</LongitudeDegrees>
            </Position>
            <AltitudeMeters>639.5999755859375</AltitudeMeters>
            <DistanceMeters>6164.1768677406</DistanceMeters>
          </Trackpoint>
          <Trackpoint>
            <Time>2021-03-31T15:44:51.000Z</Time>
            <Position>
              <LatitudeDegrees>42.44828171096742153167724609375</LatitudeDegrees>
              <LongitudeDegrees>2.8331270255148410797119140625</LongitudeDegrees>
            </Position>
            <AltitudeMeters>639.79998779296875</AltitudeMeters>
            <DistanceMeters>6167.9588832201</DistanceMeters>
          </Trackpoint>
          <Trackpoint>
            <Time>2021-03-31T15:44:56.000Z</Time>
            <Position>
              <LatitudeDegrees>42.44821398518979549407958984375</LatitudeDegrees>
              <LongitudeDegrees>2.8330712020397186279296875</LongitudeDegrees>
            </Position>
            <AltitudeMeters>640.20001220703125</AltitudeMeters>
            <DistanceMeters>6176.7820509633</DistanceMeters>
          </Trackpoint>
          <Trackpoint>
            <Time>2021-03-31T15:45:00.000Z</Time>
            <Position>
              <LatitudeDegrees>42.4482021667063236236572265625</LatitudeDegrees>
              <LongitudeDegrees>2.83303272910416126251220703125</LongitudeDegrees>
            </Position>
            <AltitudeMeters>640.5999755859375</AltitudeMeters>
            <DistanceMeters>6180.2043322416</DistanceMeters>
          </Trackpoint>
          <Trackpoint>
            <Time>2021-03-31T15:45:01.000Z</Time>
            <Position>
              <LatitudeDegrees>42.44819772429764270782470703125</LatitudeDegrees>
              <LongitudeDegrees>2.83303029835224151611328125</LongitudeDegrees>
            </Position>
            <AltitudeMeters>640.79998779296875</AltitudeMeters>
            <DistanceMeters>6180.7334185953</DistanceMeters>
          </Trackpoint>
          <Trackpoint>
            <Time>2021-03-31T15:45:03.000Z</Time>
            <Position>
              <LatitudeDegrees>42.4481911025941371917724609375</LatitudeDegrees>
              <LongitudeDegrees>2.83304295502603054046630859375</LongitudeDegrees>
            </Position>
            <AltitudeMeters>641</AltitudeMeters>
            <DistanceMeters>6182.0083357534</DistanceMeters>
          </Trackpoint>
          <Trackpoint>
            <Time>2021-03-31T15:45:05.000Z</Time>
            <Position>
              <LatitudeDegrees>42.44818062521517276763916015625</LatitudeDegrees>
              <LongitudeDegrees>2.8330391831696033477783203125</LongitudeDegrees>
            </Position>
            <AltitudeMeters>641</AltitudeMeters>
            <DistanceMeters>6183.2178283676</DistanceMeters>
          </Trackpoint>
          <Trackpoint>
            <Time>2021-03-31T15:45:07.000Z</Time>
            <Position>
              <LatitudeDegrees>42.4481672979891300201416015625</LatitudeDegrees>
              <LongitudeDegrees>2.83302971161901950836181640625</LongitudeDegrees>
            </Position>
            <AltitudeMeters>641</AltitudeMeters>
            <DistanceMeters>6184.8909463245</DistanceMeters>
          </Trackpoint>
          <Trackpoint>
            <Time>2021-03-31T15:45:11.000Z</Time>
            <Position>
              <LatitudeDegrees>42.448160089552402496337890625</LatitudeDegrees>
              <LongitudeDegrees>2.83300674520432949066162109375</LongitudeDegrees>
            </Position>
            <AltitudeMeters>641</AltitudeMeters>
            <DistanceMeters>6186.9422911573</DistanceMeters>
          </Trackpoint>
          <Trackpoint>
            <Time>2021-03-31T15:45:12.000Z</Time>
            <Position>
              <LatitudeDegrees>42.44815397076308727264404296875</LatitudeDegrees>
              <LongitudeDegrees>2.83300171606242656707763671875</LongitudeDegrees>
            </Position>
            <AltitudeMeters>641.20001220703125</AltitudeMeters>
            <DistanceMeters>6187.7373416909</DistanceMeters>
          </Trackpoint>
          <Trackpoint>
            <Time>2021-03-31T15:45:15.000Z</Time>
            <Position>
              <LatitudeDegrees>42.44813385419547557830810546875</LatitudeDegrees>
              <LongitudeDegrees>2.832993082702159881591796875</LongitudeDegrees>
            </Position>
            <AltitudeMeters>641.20001220703125</AltitudeMeters>
            <DistanceMeters>6190.0843284039</DistanceMeters>
          </Trackpoint>
          <Trackpoint>
            <Time>2021-03-31T15:45:17.000Z</Time>
            <Position>
              <LatitudeDegrees>42.44812865741550922393798828125</LatitudeDegrees>
              <LongitudeDegrees>2.8329784981906414031982421875</LongitudeDegrees>
            </Position>
            <AltitudeMeters>641.20001220703125</AltitudeMeters>
            <DistanceMeters>6191.4147024051</DistanceMeters>
          </Trackpoint>
          <Trackpoint>
            <Time>2021-03-31T15:45:18.000Z</Time>
            <Position>
              <LatitudeDegrees>42.4481267295777797698974609375</LatitudeDegrees>
              <LongitudeDegrees>2.8329694457352161407470703125</LongitudeDegrees>
            </Position>
            <AltitudeMeters>641.20001220703125</AltitudeMeters>
            <DistanceMeters>6192.1867030821</DistanceMeters>
          </Trackpoint>
          <Trackpoint>
            <Time>2021-03-31T15:45:25.000Z</Time>
            <Position>
              <LatitudeDegrees>42.44808666408061981201171875</LatitudeDegrees>
              <LongitudeDegrees>2.8328866325318813323974609375</LongitudeDegrees>
            </Position>
            <AltitudeMeters>641.4000244140625</AltitudeMeters>
            <DistanceMeters>6200.319679779</DistanceMeters>
          </Trackpoint>
          <Trackpoint>
            <Time>2021-03-31T15:45:28.000Z</Time>
            <Position>
              <LatitudeDegrees>42.44807937182486057281494140625</LatitudeDegrees>
              <LongitudeDegrees>2.83282502554357051849365234375</LongitudeDegrees>
            </Position>
            <AltitudeMeters>641.4000244140625</AltitudeMeters>
            <DistanceMeters>6205.4440785046</DistanceMeters>
          </Trackpoint>
          <Trackpoint>
            <Time>2021-03-31T15:45:31.000Z</Time>
            <Position>
              <LatitudeDegrees>42.44807300157845020294189453125</LatitudeDegrees>
              <LongitudeDegrees>2.83278143964707851409912109375</LongitudeDegrees>
            </Position>
            <AltitudeMeters>641.5999755859375</AltitudeMeters>
            <DistanceMeters>6209.0936487197</DistanceMeters>
          </Trackpoint>
          <Trackpoint>
            <Time>2021-03-31T15:45:35.000Z</Time>
            <Position>
              <LatitudeDegrees>42.44806176982820034027099609375</LatitudeDegrees>
              <LongitudeDegrees>2.83272712491452693939208984375</LongitudeDegrees>
            </Position>
            <AltitudeMeters>641.5999755859375</AltitudeMeters>
            <DistanceMeters>6213.7266274275</DistanceMeters>
          </Trackpoint>
          <Trackpoint>
            <Time>2021-03-31T15:45:36.000Z</Time>
            <Position>
              <LatitudeDegrees>42.44806277565658092498779296875</LatitudeDegrees>
              <LongitudeDegrees>2.83271513879299163818359375</LongitudeDegrees>
            </Position>
            <AltitudeMeters>641.5999755859375</AltitudeMeters>
            <DistanceMeters>6214.7141740117</DistanceMeters>
          </Trackpoint>
          <Trackpoint>
            <Time>2021-03-31T15:45:40.000Z</Time>
            <Position>
              <LatitudeDegrees>42.44805607013404369354248046875</LatitudeDegrees>
              <LongitudeDegrees>2.8326666913926601409912109375</LongitudeDegrees>
            </Position>
            <AltitudeMeters>641.79998779296875</AltitudeMeters>
            <DistanceMeters>6218.7636948256</DistanceMeters>
          </Trackpoint>
          <Trackpoint>
            <Time>2021-03-31T15:45:41.000Z</Time>
            <Position>
              <LatitudeDegrees>42.44804902933537960052490234375</LatitudeDegrees>
              <LongitudeDegrees>2.8326635062694549560546875</LongitudeDegrees>
            </Position>
            <AltitudeMeters>642</AltitudeMeters>
            <DistanceMeters>6219.6029480428</DistanceMeters>
          </Trackpoint>
          <Trackpoint>
            <Time>2021-03-31T15:45:46.000Z</Time>
            <Position>
              <LatitudeDegrees>42.44805305264890193939208984375</LatitudeDegrees>
              <LongitudeDegrees>2.8326006419956684112548828125</LongitudeDegrees>
            </Position>
            <AltitudeMeters>642.5999755859375</AltitudeMeters>
            <DistanceMeters>6224.7860433941</DistanceMeters>
          </Trackpoint>
          <Trackpoint>
            <Time>2021-03-31T15:45:47.000Z</Time>
            <Position>
              <LatitudeDegrees>42.448057495057582855224609375</LatitudeDegrees>
              <LongitudeDegrees>2.83258044160902500152587890625</LongitudeDegrees>
            </Position>
            <AltitudeMeters>642.5999755859375</AltitudeMeters>
            <DistanceMeters>6226.5175125332</DistanceMeters>
          </Trackpoint>
          <Trackpoint>
            <Time>2021-03-31T15:45:49.000Z</Time>
            <Position>
              <LatitudeDegrees>42.448077611625194549560546875</LatitudeDegrees>
              <LongitudeDegrees>2.83254959620535373687744140625</LongitudeDegrees>
            </Position>
            <AltitudeMeters>642.79998779296875</AltitudeMeters>
            <DistanceMeters>6229.8986479605</DistanceMeters>
          </Trackpoint>
          <Trackpoint>
            <Time>2021-03-31T15:45:50.000Z</Time>
            <Position>
              <LatitudeDegrees>42.44808658026158809661865234375</LatitudeDegrees>
              <LongitudeDegrees>2.83253618516027927398681640625</LongitudeDegrees>
            </Position>
            <AltitudeMeters>643</AltitudeMeters>
            <DistanceMeters>6231.3830126907</DistanceMeters>
          </Trackpoint>
          <Trackpoint>
            <Time>2021-03-31T15:45:54.000Z</Time>
            <Position>
              <LatitudeDegrees>42.44811809621751308441162109375</LatitudeDegrees>
              <LongitudeDegrees>2.83246544189751148223876953125</LongitudeDegrees>
            </Position>
            <AltitudeMeters>643</AltitudeMeters>
            <DistanceMeters>6238.1692774854</DistanceMeters>
          </Trackpoint>
          <Trackpoint>
            <Time>2021-03-31T15:45:58.000Z</Time>
            <Position>
              <LatitudeDegrees>42.44815950281918048858642578125</LatitudeDegrees>
              <LongitudeDegrees>2.832410037517547607421875</LongitudeDegrees>
            </Position>
            <AltitudeMeters>643</AltitudeMeters>
            <DistanceMeters>6244.6450535012</DistanceMeters>
          </Trackpoint>
          <Trackpoint>
            <Time>2021-03-31T15:46:03.000Z</Time>
            <Position>
              <LatitudeDegrees>42.44820862077176570892333984375</LatitudeDegrees>
              <LongitudeDegrees>2.832364104688167572021484375</LongitudeDegrees>
            </Position>
            <AltitudeMeters>643.20001220703125</AltitudeMeters>
            <DistanceMeters>6251.2874140383</DistanceMeters>
          </Trackpoint>
          <Trackpoint>
            <Time>2021-03-31T15:46:05.000Z</Time>
            <Position>
              <LatitudeDegrees>42.44824089109897613525390625</LatitudeDegrees>
              <LongitudeDegrees>2.8323335945606231689453125</LongitudeDegrees>
            </Position>
            <AltitudeMeters>643.4000244140625</AltitudeMeters>
            <DistanceMeters>6255.6668982964</DistanceMeters>
          </Trackpoint>
          <Trackpoint>
            <Time>2021-03-31T15:46:11.000Z</Time>
            <Position>
              <LatitudeDegrees>42.44827047921717166900634765625</LatitudeDegrees>
              <LongitudeDegrees>2.83223594538867473602294921875</LongitudeDegrees>
            </Position>
            <AltitudeMeters>643.79998779296875</AltitudeMeters>
            <DistanceMeters>6264.3362308107</DistanceMeters>
          </Trackpoint>
          <Trackpoint>
            <Time>2021-03-31T15:46:12.000Z</Time>
            <Position>
              <LatitudeDegrees>42.44827718473970890045166015625</LatitudeDegrees>
              <LongitudeDegrees>2.8322264738380908966064453125</LongitudeDegrees>
            </Position>
            <AltitudeMeters>644</AltitudeMeters>
            <DistanceMeters>6265.4113353567</DistanceMeters>
          </Trackpoint>
          <Trackpoint>
            <Time>2021-03-31T15:46:17.000Z</Time>
            <Position>
              <LatitudeDegrees>42.4482829682528972625732421875</LatitudeDegrees>
              <LongitudeDegrees>2.832166291773319244384765625</LongitudeDegrees>
            </Position>
            <AltitudeMeters>644.4000244140625</AltitudeMeters>
            <DistanceMeters>6270.3963900578</DistanceMeters>
          </Trackpoint>
          <Trackpoint>
            <Time>2021-03-31T15:46:20.000Z</Time>
            <Position>
              <LatitudeDegrees>42.44828590191900730133056640625</LatitudeDegrees>
              <LongitudeDegrees>2.832125723361968994140625</LongitudeDegrees>
            </Position>
            <AltitudeMeters>644.5999755859375</AltitudeMeters>
            <DistanceMeters>6273.7426259716</DistanceMeters>
          </Trackpoint>
          <Trackpoint>
            <Time>2021-03-31T15:46:22.000Z</Time>
            <Position>
              <LatitudeDegrees>42.44829495437443256378173828125</LatitudeDegrees>
              <LongitudeDegrees>2.83208825625479221343994140625</LongitudeDegrees>
            </Position>
            <AltitudeMeters>644.79998779296875</AltitudeMeters>
            <DistanceMeters>6276.9819081186</DistanceMeters>
          </Trackpoint>
          <Trackpoint>
            <Time>2021-03-31T15:46:25.000Z</Time>
            <Position>
              <LatitudeDegrees>42.4483027495443820953369140625</LatitudeDegrees>
              <LongitudeDegrees>2.83204483799636363983154296875</LongitudeDegrees>
            </Position>
            <AltitudeMeters>645</AltitudeMeters>
            <DistanceMeters>6280.652449503</DistanceMeters>
          </Trackpoint>
          <Trackpoint>
            <Time>2021-03-31T15:46:28.000Z</Time>
            <Position>
              <LatitudeDegrees>42.44832730852067470550537109375</LatitudeDegrees>
              <LongitudeDegrees>2.83200443722307682037353515625</LongitudeDegrees>
            </Position>
            <AltitudeMeters>645</AltitudeMeters>
            <DistanceMeters>6284.951817652</DistanceMeters>
          </Trackpoint>
          <Trackpoint>
            <Time>2021-03-31T15:46:31.000Z</Time>
            <Position>
              <LatitudeDegrees>42.44831674732267856597900390625</LatitudeDegrees>
              <LongitudeDegrees>2.8319585882127285003662109375</LongitudeDegrees>
            </Position>
            <AltitudeMeters>645.4000244140625</AltitudeMeters>
            <DistanceMeters>6288.89628488</DistanceMeters>
          </Trackpoint>
          <Trackpoint>
            <Time>2021-03-31T15:46:33.000Z</Time>
            <Position>
              <LatitudeDegrees>42.44831004180014133453369140625</LatitudeDegrees>
              <LongitudeDegrees>2.83192849718034267425537109375</LongitudeDegrees>
            </Position>
            <AltitudeMeters>645.5999755859375</AltitudeMeters>
            <DistanceMeters>6291.4742950163</DistanceMeters>
          </Trackpoint>
          <Trackpoint>
            <Time>2021-03-31T15:46:34.000Z</Time>
            <Position>
              <LatitudeDegrees>42.4483027495443820953369140625</LatitudeDegrees>
              <LongitudeDegrees>2.83191525377333164215087890625</LongitudeDegrees>
            </Position>
            <AltitudeMeters>645.79998779296875</AltitudeMeters>
            <DistanceMeters>6292.8315479752</DistanceMeters>
          </Trackpoint>
          <Trackpoint>
            <Time>2021-03-31T15:46:36.000Z</Time>
            <Position>
              <LatitudeDegrees>42.44830970652401447296142578125</LatitudeDegrees>
              <LongitudeDegrees>2.83189438283443450927734375</LongitudeDegrees>
            </Position>
            <AltitudeMeters>646</AltitudeMeters>
            <DistanceMeters>6294.7153791891</DistanceMeters>
          </Trackpoint>
          <Trackpoint>
            <Time>2021-03-31T15:46:39.000Z</Time>
            <Position>
              <LatitudeDegrees>42.448336780071258544921875</LatitudeDegrees>
              <LongitudeDegrees>2.83185859210789203643798828125</LongitudeDegrees>
            </Position>
            <AltitudeMeters>646.20001220703125</AltitudeMeters>
            <DistanceMeters>6298.9245370601</DistanceMeters>
          </Trackpoint>
          <Trackpoint>
            <Time>2021-03-31T15:46:43.000Z</Time>
            <Position>
              <LatitudeDegrees>42.44835220277309417724609375</LatitudeDegrees>
              <LongitudeDegrees>2.83180846832692623138427734375</LongitudeDegrees>
            </Position>
            <AltitudeMeters>646.5999755859375</AltitudeMeters>
            <DistanceMeters>6303.3857351596</DistanceMeters>
          </Trackpoint>
          <Trackpoint>
            <Time>2021-03-31T15:46:45.000Z</Time>
            <Position>
              <LatitudeDegrees>42.44836301542818546295166015625</LatitudeDegrees>
              <LongitudeDegrees>2.8317869268357753753662109375</LongitudeDegrees>
            </Position>
            <AltitudeMeters>646.79998779296875</AltitudeMeters>
            <DistanceMeters>6305.5275285281</DistanceMeters>
          </Trackpoint>
          <Trackpoint>
            <Time>2021-03-31T15:46:49.000Z</Time>
            <Position>
              <LatitudeDegrees>42.44839101098477840423583984375</LatitudeDegrees>
              <LongitudeDegrees>2.83174040727317333221435546875</LongitudeDegrees>
            </Position>
            <AltitudeMeters>647</AltitudeMeters>
            <DistanceMeters>6310.4579408625</DistanceMeters>
          </Trackpoint>
          <Trackpoint>
            <Time>2021-03-31T15:46:51.000Z</Time>
            <Position>
              <LatitudeDegrees>42.44840324856340885162353515625</LatitudeDegrees>
              <LongitudeDegrees>2.83171978779137134552001953125</LongitudeDegrees>
            </Position>
            <AltitudeMeters>647.20001220703125</AltitudeMeters>
            <DistanceMeters>6312.6290465494</DistanceMeters>
          </Trackpoint>
          <Trackpoint>
            <Time>2021-03-31T15:46:52.000Z</Time>
            <Position>
              <LatitudeDegrees>42.44841246865689754486083984375</LatitudeDegrees>
              <LongitudeDegrees>2.83171006478369235992431640625</LongitudeDegrees>
            </Position>
            <AltitudeMeters>647.4000244140625</AltitudeMeters>
            <DistanceMeters>6313.9319872125</DistanceMeters>
          </Trackpoint>
          <Trackpoint>
            <Time>2021-03-31T15:46:53.000Z</Time>
            <Position>
              <LatitudeDegrees>42.44842018000781536102294921875</LatitudeDegrees>
              <LongitudeDegrees>2.83170017413794994354248046875</LongitudeDegrees>
            </Position>
            <AltitudeMeters>647.5999755859375</AltitudeMeters>
            <DistanceMeters>6315.1112377255</DistanceMeters>
          </Trackpoint>
          <Trackpoint>
            <Time>2021-03-31T15:46:56.000Z</Time>
            <Position>
              <LatitudeDegrees>42.448430322110652923583984375</LatitudeDegrees>
              <LongitudeDegrees>2.83165843226015567779541015625</LongitudeDegrees>
            </Position>
            <AltitudeMeters>647.5999755859375</AltitudeMeters>
            <DistanceMeters>6318.719751302</DistanceMeters>
          </Trackpoint>
          <Trackpoint>
            <Time>2021-03-31T15:46:57.000Z</Time>
            <Position>
              <LatitudeDegrees>42.44843761436641216278076171875</LatitudeDegrees>
              <LongitudeDegrees>2.83164015971124172210693359375</LongitudeDegrees>
            </Position>
            <AltitudeMeters>647.5999755859375</AltitudeMeters>
            <DistanceMeters>6320.4249447265</DistanceMeters>
          </Trackpoint>
          <Trackpoint>
            <Time>2021-03-31T15:46:58.000Z</Time>
            <Position>
              <LatitudeDegrees>42.44844063185155391693115234375</LatitudeDegrees>
              <LongitudeDegrees>2.83162607811391353607177734375</LongitudeDegrees>
            </Position>
            <AltitudeMeters>647.5999755859375</AltitudeMeters>
            <DistanceMeters>6321.6269481504</DistanceMeters>
          </Trackpoint>
          <Trackpoint>
            <Time>2021-03-31T15:47:02.000Z</Time>
            <Position>
              <LatitudeDegrees>42.448446415364742279052734375</LatitudeDegrees>
              <LongitudeDegrees>2.83157310448586940765380859375</LongitudeDegrees>
            </Position>
            <AltitudeMeters>647.79998779296875</AltitudeMeters>
            <DistanceMeters>6326.024950395</DistanceMeters>
          </Trackpoint>
          <Trackpoint>
            <Time>2021-03-31T15:47:03.000Z</Time>
            <Position>
              <LatitudeDegrees>42.44845270179212093353271484375</LatitudeDegrees>
              <LongitudeDegrees>2.83156790770590305328369140625</LongitudeDegrees>
            </Position>
            <AltitudeMeters>648</AltitudeMeters>
            <DistanceMeters>6326.842401101</DistanceMeters>
          </Trackpoint>
          <Trackpoint>
            <Time>2021-03-31T15:47:11.000Z</Time>
            <Position>
              <LatitudeDegrees>42.448462508618831634521484375</LatitudeDegrees>
              <LongitudeDegrees>2.83145852386951446533203125</LongitudeDegrees>
            </Position>
            <AltitudeMeters>649</AltitudeMeters>
            <DistanceMeters>6335.892417308</DistanceMeters>
          </Trackpoint>
          <Trackpoint>
            <Time>2021-03-31T15:47:12.000Z</Time>
            <Position>
              <LatitudeDegrees>42.44845991022884845733642578125</LatitudeDegrees>
              <LongitudeDegrees>2.83144377171993255615234375</LongitudeDegrees>
            </Position>
            <AltitudeMeters>649.20001220703125</AltitudeMeters>
            <DistanceMeters>6337.1386809833</DistanceMeters>
          </Trackpoint>
          <Trackpoint>
            <Time>2021-03-31T15:47:14.000Z</Time>
            <Position>
              <LatitudeDegrees>42.44846292771399021148681640625</LatitudeDegrees>
              <LongitudeDegrees>2.83142231404781341552734375</LongitudeDegrees>
            </Position>
            <AltitudeMeters>649.4000244140625</AltitudeMeters>
            <DistanceMeters>6338.9316414441</DistanceMeters>
          </Trackpoint>
          <Trackpoint>
            <Time>2021-03-31T15:47:18.000Z</Time>
            <Position>
              <LatitudeDegrees>42.448471225798130035400390625</LatitudeDegrees>
              <LongitudeDegrees>2.8313705138862133026123046875</LongitudeDegrees>
            </Position>
            <AltitudeMeters>649.79998779296875</AltitudeMeters>
            <DistanceMeters>6343.2852756106</DistanceMeters>
          </Trackpoint>
          <Trackpoint>
            <Time>2021-03-31T15:47:20.000Z</Time>
            <Position>
              <LatitudeDegrees>42.44847650639712810516357421875</LatitudeDegrees>
              <LongitudeDegrees>2.83134997822344303131103515625</LongitudeDegrees>
            </Position>
            <AltitudeMeters>650</AltitudeMeters>
            <DistanceMeters>6345.0731925721</DistanceMeters>
          </Trackpoint>
          <Trackpoint>
            <Time>2021-03-31T15:47:22.000Z</Time>
            <Position>
              <LatitudeDegrees>42.4484918452799320220947265625</LatitudeDegrees>
              <LongitudeDegrees>2.83133002929389476776123046875</LongitudeDegrees>
            </Position>
            <AltitudeMeters>650.20001220703125</AltitudeMeters>
            <DistanceMeters>6347.4393386782</DistanceMeters>
          </Trackpoint>
          <Trackpoint>
            <Time>2021-03-31T15:47:24.000Z</Time>
            <Position>
              <LatitudeDegrees>42.44849829934537410736083984375</LatitudeDegrees>
              <LongitudeDegrees>2.831308655440807342529296875</LongitudeDegrees>
            </Position>
            <AltitudeMeters>650.4000244140625</AltitudeMeters>
            <DistanceMeters>6349.3327325485</DistanceMeters>
          </Trackpoint>
          <Trackpoint>
            <Time>2021-03-31T15:47:30.000Z</Time>
            <Position>
              <LatitudeDegrees>42.44851984083652496337890625</LatitudeDegrees>
              <LongitudeDegrees>2.831236906349658966064453125</LongitudeDegrees>
            </Position>
            <AltitudeMeters>651</AltitudeMeters>
            <DistanceMeters>6355.6945563925</DistanceMeters>
          </Trackpoint>
          <Trackpoint>
            <Time>2021-03-31T15:47:32.000Z</Time>
            <Position>
              <LatitudeDegrees>42.4485196731984615325927734375</LatitudeDegrees>
              <LongitudeDegrees>2.83120832405984401702880859375</LongitudeDegrees>
            </Position>
            <AltitudeMeters>651.20001220703125</AltitudeMeters>
            <DistanceMeters>6358.0415431055</DistanceMeters>
          </Trackpoint>
          <Trackpoint>
            <Time>2021-03-31T15:47:35.000Z</Time>
            <Position>
              <LatitudeDegrees>42.448538281023502349853515625</LatitudeDegrees>
              <LongitudeDegrees>2.83117312006652355194091796875</LongitudeDegrees>
            </Position>
            <AltitudeMeters>651.5999755859375</AltitudeMeters>
            <DistanceMeters>6361.5983868043</DistanceMeters>
          </Trackpoint>
          <Trackpoint>
            <Time>2021-03-31T15:47:36.000Z</Time>
            <Position>
              <LatitudeDegrees>42.44855077005922794342041015625</LatitudeDegrees>
              <LongitudeDegrees>2.831163816154003143310546875</LongitudeDegrees>
            </Position>
            <AltitudeMeters>651.79998779296875</AltitudeMeters>
            <DistanceMeters>6363.1856458657</DistanceMeters>
          </Trackpoint>
          <Trackpoint>
            <Time>2021-03-31T15:47:42.000Z</Time>
            <Position>
              <LatitudeDegrees>42.4485682882368564605712890625</LatitudeDegrees>
              <LongitudeDegrees>2.831095419824123382568359375</LongitudeDegrees>
            </Position>
            <AltitudeMeters>652.20001220703125</AltitudeMeters>
            <DistanceMeters>6369.1314636629</DistanceMeters>
          </Trackpoint>
          <Trackpoint>
            <Time>2021-03-31T15:47:43.000Z</Time>
            <Position>
              <LatitudeDegrees>42.44857591576874256134033203125</LatitudeDegrees>
              <LongitudeDegrees>2.831083349883556365966796875</LongitudeDegrees>
            </Position>
            <AltitudeMeters>652.4000244140625</AltitudeMeters>
            <DistanceMeters>6370.4378649978</DistanceMeters>
          </Trackpoint>
          <Trackpoint>
            <Time>2021-03-31T15:47:47.000Z</Time>
            <Position>
              <LatitudeDegrees>42.44858446530997753143310546875</LatitudeDegrees>
              <LongitudeDegrees>2.83103733323514461517333984375</LongitudeDegrees>
            </Position>
            <AltitudeMeters>652.5999755859375</AltitudeMeters>
            <DistanceMeters>6374.3351189771</DistanceMeters>
          </Trackpoint>
          <Trackpoint>
            <Time>2021-03-31T15:47:48.000Z</Time>
            <Position>
              <LatitudeDegrees>42.44858513586223125457763671875</LatitudeDegrees>
              <LongitudeDegrees>2.8310228325426578521728515625</LongitudeDegrees>
            </Position>
            <AltitudeMeters>652.79998779296875</AltitudeMeters>
            <DistanceMeters>6375.5295862551</DistanceMeters>
          </Trackpoint>
          <Trackpoint>
            <Time>2021-03-31T15:47:51.000Z</Time>
            <Position>
              <LatitudeDegrees>42.4485813640058040618896484375</LatitudeDegrees>
              <LongitudeDegrees>2.83098352141678333282470703125</LongitudeDegrees>
            </Position>
            <AltitudeMeters>653.20001220703125</AltitudeMeters>
            <DistanceMeters>6378.7855515106</DistanceMeters>
          </Trackpoint>
          <Trackpoint>
            <Time>2021-03-31T15:47:53.000Z</Time>
            <Position>
              <LatitudeDegrees>42.448583208024501800537109375</LatitudeDegrees>
              <LongitudeDegrees>2.83096692524850368499755859375</LongitudeDegrees>
            </Position>
            <AltitudeMeters>653.4000244140625</AltitudeMeters>
            <DistanceMeters>6380.1626194295</DistanceMeters>
          </Trackpoint>
          <Trackpoint>
            <Time>2021-03-31T15:47:54.000Z</Time>
            <Position>
              <LatitudeDegrees>42.4485873989760875701904296875</LatitudeDegrees>
              <LongitudeDegrees>2.8309551067650318145751953125</LongitudeDegrees>
            </Position>
            <AltitudeMeters>653.4000244140625</AltitudeMeters>
            <DistanceMeters>6381.2377239755</DistanceMeters>
          </Trackpoint>
          <Trackpoint>
            <Time>2021-03-31T15:47:57.000Z</Time>
            <Position>
              <LatitudeDegrees>42.448596619069576263427734375</LatitudeDegrees>
              <LongitudeDegrees>2.8309081681072711944580078125</LongitudeDegrees>
            </Position>
            <AltitudeMeters>653.5999755859375</AltitudeMeters>
            <DistanceMeters>6385.2265827965</DistanceMeters>
          </Trackpoint>
          <Trackpoint>
            <Time>2021-03-31T15:48:00.000Z</Time>
            <Position>
              <LatitudeDegrees>42.4486132152378559112548828125</LatitudeDegrees>
              <LongitudeDegrees>2.8308686055243015289306640625</LongitudeDegrees>
            </Position>
            <AltitudeMeters>653.79998779296875</AltitudeMeters>
            <DistanceMeters>6388.9641660075</DistanceMeters>
          </Trackpoint>
          <Trackpoint>
            <Time>2021-03-31T15:48:02.000Z</Time>
            <Position>
              <LatitudeDegrees>42.4486283026635646820068359375</LatitudeDegrees>
              <LongitudeDegrees>2.83084069378674030303955078125</LongitudeDegrees>
            </Position>
            <AltitudeMeters>654</AltitudeMeters>
            <DistanceMeters>6391.8054488763</DistanceMeters>
          </Trackpoint>
          <Trackpoint>
            <Time>2021-03-31T15:48:05.000Z</Time>
            <Position>
              <LatitudeDegrees>42.4486303143203258514404296875</LatitudeDegrees>
              <LongitudeDegrees>2.83079425804316997528076171875</LongitudeDegrees>
            </Position>
            <AltitudeMeters>654.5999755859375</AltitudeMeters>
            <DistanceMeters>6395.6254755167</DistanceMeters>
          </Trackpoint>
          <Trackpoint>
            <Time>2021-03-31T15:48:06.000Z</Time>
            <Position>
              <LatitudeDegrees>42.44863358326256275177001953125</LatitudeDegrees>
              <LongitudeDegrees>2.8307827748358249664306640625</LongitudeDegrees>
            </Position>
            <AltitudeMeters>654.5999755859375</AltitudeMeters>
            <DistanceMeters>6396.6400831821</DistanceMeters>
          </Trackpoint>
          <Trackpoint>
            <Time>2021-03-31T15:48:07.000Z</Time>
            <Position>
              <LatitudeDegrees>42.4486326612532138824462890625</LatitudeDegrees>
              <LongitudeDegrees>2.83076894469559192657470703125</LongitudeDegrees>
            </Position>
            <AltitudeMeters>654.79998779296875</AltitudeMeters>
            <DistanceMeters>6397.7804037545</DistanceMeters>
          </Trackpoint>
          <Trackpoint>
            <Time>2021-03-31T15:48:09.000Z</Time>
            <Position>
              <LatitudeDegrees>42.448639534413814544677734375</LatitudeDegrees>
              <LongitudeDegrees>2.83074765466153621673583984375</LongitudeDegrees>
            </Position>
            <AltitudeMeters>655</AltitudeMeters>
            <DistanceMeters>6399.6904170747</DistanceMeters>
          </Trackpoint>
          <Trackpoint>
            <Time>2021-03-31T15:48:10.000Z</Time>
            <Position>
              <LatitudeDegrees>42.44864590466022491455078125</LatitudeDegrees>
              <LongitudeDegrees>2.83073625527322292327880859375</LongitudeDegrees>
            </Position>
            <AltitudeMeters>655.20001220703125</AltitudeMeters>
            <DistanceMeters>6400.8696675877</DistanceMeters>
          </Trackpoint>
          <Trackpoint>
            <Time>2021-03-31T15:48:13.000Z</Time>
            <Position>
              <LatitudeDegrees>42.44866426102817058563232421875</LatitudeDegrees>
              <LongitudeDegrees>2.83071764744818210601806640625</LongitudeDegrees>
            </Position>
            <AltitudeMeters>655.5999755859375</AltitudeMeters>
            <DistanceMeters>6403.4230408845</DistanceMeters>
          </Trackpoint>
          <Trackpoint>
            <Time>2021-03-31T15:48:16.000Z</Time>
            <Position>
              <LatitudeDegrees>42.44868169538676738739013671875</LatitudeDegrees>
              <LongitudeDegrees>2.83070021308958530426025390625</LongitudeDegrees>
            </Position>
            <AltitudeMeters>655.79998779296875</AltitudeMeters>
            <DistanceMeters>6405.8364201142</DistanceMeters>
          </Trackpoint>
          <Trackpoint>
            <Time>2021-03-31T15:48:19.000Z</Time>
            <Position>
              <LatitudeDegrees>42.44869577698409557342529296875</LatitudeDegrees>
              <LongitudeDegrees>2.830666601657867431640625</LongitudeDegrees>
            </Position>
            <AltitudeMeters>656</AltitudeMeters>
            <DistanceMeters>6409.0109382369</DistanceMeters>
          </Trackpoint>
          <Trackpoint>
            <Time>2021-03-31T15:48:22.000Z</Time>
            <Position>
              <LatitudeDegrees>42.4487205035984516143798828125</LatitudeDegrees>
              <LongitudeDegrees>2.830630056560039520263671875</LongitudeDegrees>
            </Position>
            <AltitudeMeters>656</AltitudeMeters>
            <DistanceMeters>6413.0826971137</DistanceMeters>
          </Trackpoint>
          <Trackpoint>
            <Time>2021-03-31T15:48:29.000Z</Time>
            <Position>
              <LatitudeDegrees>42.44879066012799739837646484375</LatitudeDegrees>
              <LongitudeDegrees>2.8305618278682231903076171875</LongitudeDegrees>
            </Position>
            <AltitudeMeters>656.5999755859375</AltitudeMeters>
            <DistanceMeters>6422.6940280321</DistanceMeters>
          </Trackpoint>
          <Trackpoint>
            <Time>2021-03-31T15:48:30.000Z</Time>
            <Position>
              <LatitudeDegrees>42.44880574755370616912841796875</LatitudeDegrees>
              <LongitudeDegrees>2.83054799772799015045166015625</LongitudeDegrees>
            </Position>
            <AltitudeMeters>656.5999755859375</AltitudeMeters>
            <DistanceMeters>6424.718788439</DistanceMeters>
          </Trackpoint>
          <Trackpoint>
            <Time>2021-03-31T15:48:37.000Z</Time>
            <Position>
              <LatitudeDegrees>42.44885453023016452789306640625</LatitudeDegrees>
              <LongitudeDegrees>2.830463759601116180419921875</LongitudeDegrees>
            </Position>
            <AltitudeMeters>657.5999755859375</AltitudeMeters>
            <DistanceMeters>6433.5132528765</DistanceMeters>
          </Trackpoint>
          <Trackpoint>
            <Time>2021-03-31T15:48:38.000Z</Time>
            <Position>
              <LatitudeDegrees>42.4488613195717334747314453125</LatitudeDegrees>
              <LongitudeDegrees>2.8304545395076274871826171875</LongitudeDegrees>
            </Position>
            <AltitudeMeters>657.5999755859375</AltitudeMeters>
            <DistanceMeters>6434.5883574225</DistanceMeters>
          </Trackpoint>
          <Trackpoint>
            <Time>2021-03-31T15:48:41.000Z</Time>
            <Position>
              <LatitudeDegrees>42.44886173866689205169677734375</LatitudeDegrees>
              <LongitudeDegrees>2.8304280526936054229736328125</LongitudeDegrees>
            </Position>
            <AltitudeMeters>658</AltitudeMeters>
            <DistanceMeters>6436.7656929807</DistanceMeters>
          </Trackpoint>
          <Trackpoint>
            <Time>2021-03-31T15:48:46.000Z</Time>
            <Position>
              <LatitudeDegrees>42.4489038996398448944091796875</LatitudeDegrees>
              <LongitudeDegrees>2.83036879263818264007568359375</LongitudeDegrees>
            </Position>
            <AltitudeMeters>658.4000244140625</AltitudeMeters>
            <DistanceMeters>6443.526628342</DistanceMeters>
          </Trackpoint>
          <Trackpoint>
            <Time>2021-03-31T15:48:48.000Z</Time>
            <Position>
              <LatitudeDegrees>42.4489089287817478179931640625</LatitudeDegrees>
              <LongitudeDegrees>2.83033761195838451385498046875</LongitudeDegrees>
            </Position>
            <AltitudeMeters>658.5999755859375</AltitudeMeters>
            <DistanceMeters>6446.1463340693</DistanceMeters>
          </Trackpoint>
          <Trackpoint>
            <Time>2021-03-31T15:48:54.000Z</Time>
            <Position>
              <LatitudeDegrees>42.44895167648792266845703125</LatitudeDegrees>
              <LongitudeDegrees>2.8302763402462005615234375</LongitudeDegrees>
            </Position>
            <AltitudeMeters>659.20001220703125</AltitudeMeters>
            <DistanceMeters>6453.0715586861</DistanceMeters>
          </Trackpoint>
          <Trackpoint>
            <Time>2021-03-31T15:49:00.000Z</Time>
            <Position>
              <LatitudeDegrees>42.448997609317302703857421875</LatitudeDegrees>
              <LongitudeDegrees>2.83021129667758941650390625</LongitudeDegrees>
            </Position>
            <AltitudeMeters>659.79998779296875</AltitudeMeters>
            <DistanceMeters>6460.4653454555</DistanceMeters>
          </Trackpoint>
          <Trackpoint>
            <Time>2021-03-31T15:49:02.000Z</Time>
            <Position>
              <LatitudeDegrees>42.4490031413733959197998046875</LatitudeDegrees>
              <LongitudeDegrees>2.830180786550045013427734375</LongitudeDegrees>
            </Position>
            <AltitudeMeters>660</AltitudeMeters>
            <DistanceMeters>6463.0433555918</DistanceMeters>
          </Trackpoint>
          <Trackpoint>
            <Time>2021-03-31T15:49:05.000Z</Time>
            <Position>
              <LatitudeDegrees>42.4490162171423435211181640625</LatitudeDegrees>
              <LongitudeDegrees>2.8301544673740863800048828125</LongitudeDegrees>
            </Position>
            <AltitudeMeters>660.4000244140625</AltitudeMeters>
            <DistanceMeters>6465.6492369179</DistanceMeters>
          </Trackpoint>
          <Trackpoint>
            <Time>2021-03-31T15:49:08.000Z</Time>
            <Position>
              <LatitudeDegrees>42.44903909973800182342529296875</LatitudeDegrees>
              <LongitudeDegrees>2.83012504689395427703857421875</LongitudeDegrees>
            </Position>
            <AltitudeMeters>660.79998779296875</AltitudeMeters>
            <DistanceMeters>6469.1587987523</DistanceMeters>
          </Trackpoint>
          <Trackpoint>
            <Time>2021-03-31T15:49:09.000Z</Time>
            <Position>
              <LatitudeDegrees>42.44904697872698307037353515625</LatitudeDegrees>
              <LongitudeDegrees>2.8301145695149898529052734375</LongitudeDegrees>
            </Position>
            <AltitudeMeters>660.79998779296875</AltitudeMeters>
            <DistanceMeters>6470.3904857429</DistanceMeters>
          </Trackpoint>
          <Trackpoint>
            <Time>2021-03-31T15:49:16.000Z</Time>
            <Position>
              <LatitudeDegrees>42.44908712804317474365234375</LatitudeDegrees>
              <LongitudeDegrees>2.8300475142896175384521484375</LongitudeDegrees>
            </Position>
            <AltitudeMeters>661.5999755859375</AltitudeMeters>
            <DistanceMeters>6477.4825606009</DistanceMeters>
          </Trackpoint>
          <Trackpoint>
            <Time>2021-03-31T15:49:17.000Z</Time>
            <Position>
              <LatitudeDegrees>42.44910280220210552215576171875</LatitudeDegrees>
              <LongitudeDegrees>2.83003938384354114532470703125</LongitudeDegrees>
            </Position>
            <AltitudeMeters>661.5999755859375</AltitudeMeters>
            <DistanceMeters>6479.3543697954</DistanceMeters>
          </Trackpoint>
          <Trackpoint>
            <Time>2021-03-31T15:49:19.000Z</Time>
            <Position>
              <LatitudeDegrees>42.4491241760551929473876953125</LatitudeDegrees>
              <LongitudeDegrees>2.83002278767526149749755859375</LongitudeDegrees>
            </Position>
            <AltitudeMeters>662</AltitudeMeters>
            <DistanceMeters>6482.0986518061</DistanceMeters>
          </Trackpoint>
          <Trackpoint>
            <Time>2021-03-31T15:49:22.000Z</Time>
            <Position>
              <LatitudeDegrees>42.4491395987570285797119140625</LatitudeDegrees>
              <LongitudeDegrees>2.8299908526241779327392578125</LongitudeDegrees>
            </Position>
            <AltitudeMeters>662.20001220703125</AltitudeMeters>
            <DistanceMeters>6485.2330932509</DistanceMeters>
          </Trackpoint>
          <Trackpoint>
            <Time>2021-03-31T15:49:23.000Z</Time>
            <Position>
              <LatitudeDegrees>42.44914052076637744903564453125</LatitudeDegrees>
              <LongitudeDegrees>2.829977609217166900634765625</LongitudeDegrees>
            </Position>
            <AltitudeMeters>662.20001220703125</AltitudeMeters>
            <DistanceMeters>6486.3248670785</DistanceMeters>
          </Trackpoint>
          <Trackpoint>
            <Time>2021-03-31T15:49:24.000Z</Time>
            <Position>
              <LatitudeDegrees>42.4491452984511852264404296875</LatitudeDegrees>
              <LongitudeDegrees>2.82996562309563159942626953125</LongitudeDegrees>
            </Position>
            <AltitudeMeters>662.4000244140625</AltitudeMeters>
            <DistanceMeters>6487.4411782131</DistanceMeters>
          </Trackpoint>
          <Trackpoint>
            <Time>2021-03-31T15:49:28.000Z</Time>
            <Position>
              <LatitudeDegrees>42.44917438365519046783447265625</LatitudeDegrees>
              <LongitudeDegrees>2.82993410713970661163330078125</LongitudeDegrees>
            </Position>
            <AltitudeMeters>663</AltitudeMeters>
            <DistanceMeters>6491.5865654655</DistanceMeters>
          </Trackpoint>
          <Trackpoint>
            <Time>2021-03-31T15:49:33.000Z</Time>
            <Position>
              <LatitudeDegrees>42.449199445545673370361328125</LatitudeDegrees>
              <LongitudeDegrees>2.82987426035106182098388671875</LongitudeDegrees>
            </Position>
            <AltitudeMeters>663.4000244140625</AltitudeMeters>
            <DistanceMeters>6497.2380591072</DistanceMeters>
          </Trackpoint>
          <Trackpoint>
            <Time>2021-03-31T15:49:35.000Z</Time>
            <Position>
              <LatitudeDegrees>42.44920824654400348663330078125</LatitudeDegrees>
              <LongitudeDegrees>2.82985380850732326507568359375</LongitudeDegrees>
            </Position>
            <AltitudeMeters>663.4000244140625</AltitudeMeters>
            <DistanceMeters>6499.1808848724</DistanceMeters>
          </Trackpoint>
          <Trackpoint>
            <Time>2021-03-31T15:49:41.000Z</Time>
            <Position>
              <LatitudeDegrees>42.44923599064350128173828125</LatitudeDegrees>
              <LongitudeDegrees>2.82979144714772701263427734375</LongitudeDegrees>
            </Position>
            <AltitudeMeters>664</AltitudeMeters>
            <DistanceMeters>6505.162286286</DistanceMeters>
          </Trackpoint>
          <Trackpoint>
            <Time>2021-03-31T15:49:43.000Z</Time>
            <Position>
              <LatitudeDegrees>42.44924479164183139801025390625</LatitudeDegrees>
              <LongitudeDegrees>2.829770743846893310546875</LongitudeDegrees>
            </Position>
            <AltitudeMeters>664.20001220703125</AltitudeMeters>
            <DistanceMeters>6507.1259162515</DistanceMeters>
          </Trackpoint>
          <Trackpoint>
            <Time>2021-03-31T15:49:52.000Z</Time>
            <Position>
              <LatitudeDegrees>42.44926641695201396942138671875</LatitudeDegrees>
              <LongitudeDegrees>2.8296793811023235321044921875</LongitudeDegrees>
            </Position>
            <AltitudeMeters>665</AltitudeMeters>
            <DistanceMeters>6515.005688179</DistanceMeters>
          </Trackpoint>
          <Trackpoint>
            <Time>2021-03-31T15:49:56.000Z</Time>
            <Position>
              <LatitudeDegrees>42.44929843582212924957275390625</LatitudeDegrees>
              <LongitudeDegrees>2.8296594321727752685546875</LongitudeDegrees>
            </Position>
            <AltitudeMeters>665.20001220703125</AltitudeMeters>
            <DistanceMeters>6518.9260440439</DistanceMeters>
          </Trackpoint>
          <Trackpoint>
            <Time>2021-03-31T15:49:57.000Z</Time>
            <Position>
              <LatitudeDegrees>42.44931134395301342010498046875</LatitudeDegrees>
              <LongitudeDegrees>2.82965683378279209136962890625</LongitudeDegrees>
            </Position>
            <AltitudeMeters>665.20001220703125</AltitudeMeters>
            <DistanceMeters>6520.3796732565</DistanceMeters>
          </Trackpoint>
          <Trackpoint>
            <Time>2021-03-31T15:50:00.000Z</Time>
            <Position>
              <LatitudeDegrees>42.44932106696069240570068359375</LatitudeDegrees>
              <LongitudeDegrees>2.82962447963654994964599609375</LongitudeDegrees>
            </Position>
            <AltitudeMeters>665.4000244140625</AltitudeMeters>
            <DistanceMeters>6523.2494170982</DistanceMeters>
          </Trackpoint>
          <Trackpoint>
            <Time>2021-03-31T15:50:02.000Z</Time>
            <Position>
              <LatitudeDegrees>42.44931922294199466705322265625</LatitudeDegrees>
              <LongitudeDegrees>2.82959564588963985443115234375</LongitudeDegrees>
            </Position>
            <AltitudeMeters>665.5999755859375</AltitudeMeters>
            <DistanceMeters>6525.6250849575</DistanceMeters>
          </Trackpoint>
          <Trackpoint>
            <Time>2021-03-31T15:50:05.000Z</Time>
            <Position>
              <LatitudeDegrees>42.44932073168456554412841796875</LatitudeDegrees>
              <LongitudeDegrees>2.82955725677311420440673828125</LongitudeDegrees>
            </Position>
            <AltitudeMeters>666</AltitudeMeters>
            <DistanceMeters>6528.7824896503</DistanceMeters>
          </Trackpoint>
          <Trackpoint>
            <Time>2021-03-31T15:50:07.000Z</Time>
            <Position>
              <LatitudeDegrees>42.4493122659623622894287109375</LatitudeDegrees>
              <LongitudeDegrees>2.82954568974673748016357421875</LongitudeDegrees>
            </Position>
            <AltitudeMeters>666.20001220703125</AltitudeMeters>
            <DistanceMeters>6530.1230064209</DistanceMeters>
          </Trackpoint>
          <Trackpoint>
            <Time>2021-03-31T15:50:08.000Z</Time>
            <Position>
              <LatitudeDegrees>42.4493095837533473968505859375</LatitudeDegrees>
              <LongitudeDegrees>2.82954342663288116455078125</LongitudeDegrees>
            </Position>
            <AltitudeMeters>666.4000244140625</AltitudeMeters>
            <DistanceMeters>6530.4785638287</DistanceMeters>
          </Trackpoint>
          <Trackpoint>
            <Time>2021-03-31T15:50:10.000Z</Time>
            <Position>
              <LatitudeDegrees>42.44930438697338104248046875</LatitudeDegrees>
              <LongitudeDegrees>2.82953538000583648681640625</LongitudeDegrees>
            </Position>
            <AltitudeMeters>666.5999755859375</AltitudeMeters>
            <DistanceMeters>6531.3546668464</DistanceMeters>
          </Trackpoint>
          <Trackpoint>
            <Time>2021-03-31T15:50:13.000Z</Time>
            <Position>
              <LatitudeDegrees>42.4492877908051013946533203125</LatitudeDegrees>
              <LongitudeDegrees>2.8295338712632656097412109375</LongitudeDegrees>
            </Position>
            <AltitudeMeters>667</AltitudeMeters>
            <DistanceMeters>6533.2070785309</DistanceMeters>
          </Trackpoint>
          <Trackpoint>
            <Time>2021-03-31T15:50:15.000Z</Time>
            <Position>
              <LatitudeDegrees>42.449264489114284515380859375</LatitudeDegrees>
              <LongitudeDegrees>2.82954451628029346466064453125</LongitudeDegrees>
            </Position>
            <AltitudeMeters>667.20001220703125</AltitudeMeters>
            <DistanceMeters>6535.9431219099</DistanceMeters>
          </Trackpoint>
          <Trackpoint>
            <Time>2021-03-31T15:50:16.000Z</Time>
            <Position>
              <LatitudeDegrees>42.44925937615334987640380859375</LatitudeDegrees>
              <LongitudeDegrees>2.82955038361251354217529296875</LongitudeDegrees>
            </Position>
            <AltitudeMeters>667.20001220703125</AltitudeMeters>
            <DistanceMeters>6536.6913630071</DistanceMeters>
          </Trackpoint>
          <Trackpoint>
            <Time>2021-03-31T15:50:20.000Z</Time>
            <Position>
              <LatitudeDegrees>42.4492259323596954345703125</LatitudeDegrees>
              <LongitudeDegrees>2.82957787625491619110107421875</LongitudeDegrees>
            </Position>
            <AltitudeMeters>667.5999755859375</AltitudeMeters>
            <DistanceMeters>6541.0460341236</DistanceMeters>
          </Trackpoint>
          <Trackpoint>
            <Time>2021-03-31T15:50:21.000Z</Time>
            <Position>
              <LatitudeDegrees>42.449214197695255279541015625</LatitudeDegrees>
              <LongitudeDegrees>2.82958391122519969940185546875</LongitudeDegrees>
            </Position>
            <AltitudeMeters>668.20001220703125</AltitudeMeters>
            <DistanceMeters>6542.4426358964</DistanceMeters>
          </Trackpoint>
          <Trackpoint>
            <Time>2021-03-31T15:50:28.000Z</Time>
            <Position>
              <LatitudeDegrees>42.4491654150187969207763671875</LatitudeDegrees>
              <LongitudeDegrees>2.82963705249130725860595703125</LongitudeDegrees>
            </Position>
            <AltitudeMeters>668.5999755859375</AltitudeMeters>
            <DistanceMeters>6549.4088135291</DistanceMeters>
          </Trackpoint>
          <Trackpoint>
            <Time>2021-03-31T15:50:29.000Z</Time>
            <Position>
              <LatitudeDegrees>42.449156530201435089111328125</LatitudeDegrees>
              <LongitudeDegrees>2.82964711077511310577392578125</LongitudeDegrees>
            </Position>
            <AltitudeMeters>668.5999755859375</AltitudeMeters>
            <DistanceMeters>6550.6978185972</DistanceMeters>
          </Trackpoint>
          <Trackpoint>
            <Time>2021-03-31T15:50:30.000Z</Time>
            <Position>
              <LatitudeDegrees>42.449143789708614349365234375</LatitudeDegrees>
              <LongitudeDegrees>2.8296554088592529296875</LongitudeDegrees>
            </Position>
            <AltitudeMeters>668.79998779296875</AltitudeMeters>
            <DistanceMeters>6552.267917597</DistanceMeters>
          </Trackpoint>
          <Trackpoint>
            <Time>2021-03-31T15:50:36.000Z</Time>
            <Position>
              <LatitudeDegrees>42.44908981025218963623046875</LatitudeDegrees>
              <LongitudeDegrees>2.829711399972438812255859375</LongitudeDegrees>
            </Position>
            <AltitudeMeters>669</AltitudeMeters>
            <DistanceMeters>6559.8337390711</DistanceMeters>
          </Trackpoint>
          <Trackpoint>
            <Time>2021-03-31T15:50:39.000Z</Time>
            <Position>
              <LatitudeDegrees>42.44907430373132228851318359375</LatitudeDegrees>
              <LongitudeDegrees>2.82973746769130229949951171875</LongitudeDegrees>
            </Position>
            <AltitudeMeters>669.20001220703125</AltitudeMeters>
            <DistanceMeters>6562.5813096175</DistanceMeters>
          </Trackpoint>
          <Trackpoint>
            <Time>2021-03-31T15:50:42.000Z</Time>
            <Position>
              <LatitudeDegrees>42.4490554444491863250732421875</LatitudeDegrees>
              <LongitudeDegrees>2.829768396914005279541015625</LongitudeDegrees>
            </Position>
            <AltitudeMeters>669.5999755859375</AltitudeMeters>
            <DistanceMeters>6565.8758736077</DistanceMeters>
          </Trackpoint>
          <Trackpoint>
            <Time>2021-03-31T15:50:49.000Z</Time>
            <Position>
              <LatitudeDegrees>42.4490059912204742431640625</LatitudeDegrees>
              <LongitudeDegrees>2.82982329837977886199951171875</LongitudeDegrees>
            </Position>
            <AltitudeMeters>670.20001220703125</AltitudeMeters>
            <DistanceMeters>6572.9914648425</DistanceMeters>
          </Trackpoint>
          <Trackpoint>
            <Time>2021-03-31T15:50:52.000Z</Time>
            <Position>
              <LatitudeDegrees>42.44898444972932338714599609375</LatitudeDegrees>
              <LongitudeDegrees>2.82984827645123004913330078125</LongitudeDegrees>
            </Position>
            <AltitudeMeters>670.79998779296875</AltitudeMeters>
            <DistanceMeters>6576.1460082709</DistanceMeters>
          </Trackpoint>
          <Trackpoint>
            <Time>2021-03-31T15:50:58.000Z</Time>
            <Position>
              <LatitudeDegrees>42.44893231429159641265869140625</LatitudeDegrees>
              <LongitudeDegrees>2.8298959694802761077880859375</LongitudeDegrees>
            </Position>
            <AltitudeMeters>670.79998779296875</AltitudeMeters>
            <DistanceMeters>6583.1464528897</DistanceMeters>
          </Trackpoint>
          <Trackpoint>
            <Time>2021-03-31T15:51:00.000Z</Time>
            <Position>
              <LatitudeDegrees>42.44892141781747341156005859375</LatitudeDegrees>
              <LongitudeDegrees>2.8299120627343654632568359375</LongitudeDegrees>
            </Position>
            <AltitudeMeters>670.79998779296875</AltitudeMeters>
            <DistanceMeters>6584.9394133505</DistanceMeters>
          </Trackpoint>
          <Trackpoint>
            <Time>2021-03-31T15:51:02.000Z</Time>
            <Position>
              <LatitudeDegrees>42.44891119189560413360595703125</LatitudeDegrees>
              <LongitudeDegrees>2.82993427477777004241943359375</LongitudeDegrees>
            </Position>
            <AltitudeMeters>670.79998779296875</AltitudeMeters>
            <DistanceMeters>6587.0896224425</DistanceMeters>
          </Trackpoint>
          <Trackpoint>
            <Time>2021-03-31T15:51:03.000Z</Time>
            <Position>
              <LatitudeDegrees>42.4489032290875911712646484375</LatitudeDegrees>
              <LongitudeDegrees>2.82994030974805355072021484375</LongitudeDegrees>
            </Position>
            <AltitudeMeters>670.79998779296875</AltitudeMeters>
            <DistanceMeters>6588.1042301079</DistanceMeters>
          </Trackpoint>
          <Trackpoint>
            <Time>2021-03-31T15:51:09.000Z</Time>
            <Position>
              <LatitudeDegrees>42.44885335676372051239013671875</LatitudeDegrees>
              <LongitudeDegrees>2.82998439855873584747314453125</LongitudeDegrees>
            </Position>
            <AltitudeMeters>671.4000244140625</AltitudeMeters>
            <DistanceMeters>6594.7316196259</DistanceMeters>
          </Trackpoint>
          <Trackpoint>
            <Time>2021-03-31T15:51:18.000Z</Time>
            <Position>
              <LatitudeDegrees>42.44878529570996761322021484375</LatitudeDegrees>
              <LongitudeDegrees>2.8300629369914531707763671875</LongitudeDegrees>
            </Position>
            <AltitudeMeters>672.4000244140625</AltitudeMeters>
            <DistanceMeters>6604.6808757779</DistanceMeters>
          </Trackpoint>
          <Trackpoint>
            <Time>2021-03-31T15:51:23.000Z</Time>
            <Position>
              <LatitudeDegrees>42.44874791242182254791259765625</LatitudeDegrees>
              <LongitudeDegrees>2.8300988115370273590087890625</LongitudeDegrees>
            </Position>
            <AltitudeMeters>672.5999755859375</AltitudeMeters>
            <DistanceMeters>6609.7796589741</DistanceMeters>
          </Trackpoint>
          <Trackpoint>
            <Time>2021-03-31T15:51:34.000Z</Time>
            <Position>
              <LatitudeDegrees>42.44866199791431427001953125</LatitudeDegrees>
              <LongitudeDegrees>2.8301729075610637664794921875</LongitudeDegrees>
            </Position>
            <AltitudeMeters>673.20001220703125</AltitudeMeters>
            <DistanceMeters>6621.114159297</DistanceMeters>
          </Trackpoint>
          <Trackpoint>
            <Time>2021-03-31T15:51:36.000Z</Time>
            <Position>
              <LatitudeDegrees>42.44864263571798801422119140625</LatitudeDegrees>
              <LongitudeDegrees>2.8301879949867725372314453125</LongitudeDegrees>
            </Position>
            <AltitudeMeters>673.4000244140625</AltitudeMeters>
            <DistanceMeters>6623.6012464213</DistanceMeters>
          </Trackpoint>
          <Trackpoint>
            <Time>2021-03-31T15:51:37.000Z</Time>
            <Position>
              <LatitudeDegrees>42.4486319907009601593017578125</LatitudeDegrees>
              <LongitudeDegrees>2.83019252121448516845703125</LongitudeDegrees>
            </Position>
            <AltitudeMeters>673.5999755859375</AltitudeMeters>
            <DistanceMeters>6624.8438819559</DistanceMeters>
          </Trackpoint>
          <Trackpoint>
            <Time>2021-03-31T15:51:44.000Z</Time>
            <Position>
              <LatitudeDegrees>42.44857105426490306854248046875</LatitudeDegrees>
              <LongitudeDegrees>2.83022479154169559478759765625</LongitudeDegrees>
            </Position>
            <AltitudeMeters>674</AltitudeMeters>
            <DistanceMeters>6632.1256817938</DistanceMeters>
          </Trackpoint>
          <Trackpoint>
            <Time>2021-03-31T15:51:45.000Z</Time>
            <Position>
              <LatitudeDegrees>42.4485632590949535369873046875</LatitudeDegrees>
              <LongitudeDegrees>2.83023669384419918060302734375</LongitudeDegrees>
            </Position>
            <AltitudeMeters>674</AltitudeMeters>
            <DistanceMeters>6633.4286224569</DistanceMeters>
          </Trackpoint>
          <Trackpoint>
            <Time>2021-03-31T15:51:47.000Z</Time>
            <Position>
              <LatitudeDegrees>42.4485473334789276123046875</LatitudeDegrees>
              <LongitudeDegrees>2.830246500670909881591796875</LongitudeDegrees>
            </Position>
            <AltitudeMeters>674.4000244140625</AltitudeMeters>
            <DistanceMeters>6635.373770788</DistanceMeters>
          </Trackpoint>
          <Trackpoint>
            <Time>2021-03-31T15:51:49.000Z</Time>
            <Position>
              <LatitudeDegrees>42.44853082112967967987060546875</LatitudeDegrees>
              <LongitudeDegrees>2.83024842850863933563232421875</LongitudeDegrees>
            </Position>
            <AltitudeMeters>674.5999755859375</AltitudeMeters>
            <DistanceMeters>6637.2188558319</DistanceMeters>
          </Trackpoint>
          <Trackpoint>
            <Time>2021-03-31T15:51:50.000Z</Time>
            <Position>
              <LatitudeDegrees>42.44852093048393726348876953125</LatitudeDegrees>
              <LongitudeDegrees>2.83025194890797138214111328125</LongitudeDegrees>
            </Position>
            <AltitudeMeters>674.79998779296875</AltitudeMeters>
            <DistanceMeters>6638.3591764044</DistanceMeters>
          </Trackpoint>
          <Trackpoint>
            <Time>2021-03-31T15:51:54.000Z</Time>
            <Position>
              <LatitudeDegrees>42.44848899543285369873046875</LatitudeDegrees>
              <LongitudeDegrees>2.83028027974069118499755859375</LongitudeDegrees>
            </Position>
            <AltitudeMeters>675.4000244140625</AltitudeMeters>
            <DistanceMeters>6642.6067748712</DistanceMeters>
          </Trackpoint>
          <Trackpoint>
            <Time>2021-03-31T15:51:56.000Z</Time>
            <Position>
              <LatitudeDegrees>42.4484670348465442657470703125</LatitudeDegrees>
              <LongitudeDegrees>2.83028799109160900115966796875</LongitudeDegrees>
            </Position>
            <AltitudeMeters>675.5999755859375</AltitudeMeters>
            <DistanceMeters>6645.1316974382</DistanceMeters>
          </Trackpoint>
          <Trackpoint>
            <Time>2021-03-31T15:51:57.000Z</Time>
            <Position>
              <LatitudeDegrees>42.44845655746757984161376953125</LatitudeDegrees>
              <LongitudeDegrees>2.83029042184352874755859375</LongitudeDegrees>
            </Position>
            <AltitudeMeters>675.5999755859375</AltitudeMeters>
            <DistanceMeters>6646.3147704912</DistanceMeters>
          </Trackpoint>
          <Trackpoint>
            <Time>2021-03-31T15:52:02.000Z</Time>
            <Position>
              <LatitudeDegrees>42.44842135347425937652587890625</LatitudeDegrees>
              <LongitudeDegrees>2.8303210996091365814208984375</LongitudeDegrees>
            </Position>
            <AltitudeMeters>675.79998779296875</AltitudeMeters>
            <DistanceMeters>6650.9739875683</DistanceMeters>
          </Trackpoint>
          <Trackpoint>
            <Time>2021-03-31T15:52:05.000Z</Time>
            <Position>
              <LatitudeDegrees>42.4483962915837764739990234375</LatitudeDegrees>
              <LongitudeDegrees>2.8303506039083003997802734375</LongitudeDegrees>
            </Position>
            <AltitudeMeters>675.79998779296875</AltitudeMeters>
            <DistanceMeters>6654.6690485398</DistanceMeters>
          </Trackpoint>
          <Trackpoint>
            <Time>2021-03-31T15:52:14.000Z</Time>
            <Position>
              <LatitudeDegrees>42.44832144118845462799072265625</LatitudeDegrees>
              <LongitudeDegrees>2.8304324112832546234130859375</LongitudeDegrees>
            </Position>
            <AltitudeMeters>676.5999755859375</AltitudeMeters>
            <DistanceMeters>6665.371689321</DistanceMeters>
          </Trackpoint>
          <Trackpoint>
            <Time>2021-03-31T15:52:15.000Z</Time>
            <Position>
              <LatitudeDegrees>42.44831523858010768890380859375</LatitudeDegrees>
              <LongitudeDegrees>2.83044104464352130889892578125</LongitudeDegrees>
            </Position>
            <AltitudeMeters>676.5999755859375</AltitudeMeters>
            <DistanceMeters>6666.3592359052</DistanceMeters>
          </Trackpoint>
          <Trackpoint>
            <Time>2021-03-31T15:52:22.000Z</Time>
            <Position>
              <LatitudeDegrees>42.44826025329530239105224609375</LatitudeDegrees>
              <LongitudeDegrees>2.830502986907958984375</LongitudeDegrees>
            </Position>
            <AltitudeMeters>677.5999755859375</AltitudeMeters>
            <DistanceMeters>6674.3176877759</DistanceMeters>
          </Trackpoint>
          <Trackpoint>
            <Time>2021-03-31T15:52:30.000Z</Time>
            <Position>
              <LatitudeDegrees>42.4481968022882938385009765625</LatitudeDegrees>
              <LongitudeDegrees>2.83056526444852352142333984375</LongitudeDegrees>
            </Position>
            <AltitudeMeters>677.5999755859375</AltitudeMeters>
            <DistanceMeters>6683.0373921091</DistanceMeters>
          </Trackpoint>
          <Trackpoint>
            <Time>2021-03-31T15:52:37.000Z</Time>
            <Position>
              <LatitudeDegrees>42.4481361173093318939208984375</LatitudeDegrees>
              <LongitudeDegrees>2.83062578178942203521728515625</LongitudeDegrees>
            </Position>
            <AltitudeMeters>678.5999755859375</AltitudeMeters>
            <DistanceMeters>6691.4234660025</DistanceMeters>
          </Trackpoint>
          <Trackpoint>
            <Time>2021-03-31T15:52:38.000Z</Time>
            <Position>
              <LatitudeDegrees>42.44812865741550922393798828125</LatitudeDegrees>
              <LongitudeDegrees>2.83062838017940521240234375</LongitudeDegrees>
            </Position>
            <AltitudeMeters>678.79998779296875</AltitudeMeters>
            <DistanceMeters>6692.2787064318</DistanceMeters>
          </Trackpoint>
          <Trackpoint>
            <Time>2021-03-31T15:52:41.000Z</Time>
            <Position>
              <LatitudeDegrees>42.4481066130101680755615234375</LatitudeDegrees>
              <LongitudeDegrees>2.83066400326788425445556640625</LongitudeDegrees>
            </Position>
            <AltitudeMeters>679.20001220703125</AltitudeMeters>
            <DistanceMeters>6696.0963684625</DistanceMeters>
          </Trackpoint>
          <Trackpoint>
            <Time>2021-03-31T15:52:45.000Z</Time>
            <Position>
              <LatitudeDegrees>42.4480864964425563812255859375</LatitudeDegrees>
              <LongitudeDegrees>2.8307137079536914825439453125</LongitudeDegrees>
            </Position>
            <AltitudeMeters>679.5999755859375</AltitudeMeters>
            <DistanceMeters>6700.7517077053</DistanceMeters>
          </Trackpoint>
          <Trackpoint>
            <Time>2021-03-31T15:52:46.000Z</Time>
            <Position>
              <LatitudeDegrees>42.44807727634906768798828125</LatitudeDegrees>
              <LongitudeDegrees>2.83072519116103649139404296875</LongitudeDegrees>
            </Position>
            <AltitudeMeters>679.79998779296875</AltitudeMeters>
            <DistanceMeters>6702.1483094781</DistanceMeters>
          </Trackpoint>
          <Trackpoint>
            <Time>2021-03-31T15:52:56.000Z</Time>
            <Position>
              <LatitudeDegrees>42.44798884727060794830322265625</LatitudeDegrees>
              <LongitudeDegrees>2.8308280371129512786865234375</LongitudeDegrees>
            </Position>
            <AltitudeMeters>680.79998779296875</AltitudeMeters>
            <DistanceMeters>6715.1179765516</DistanceMeters>
          </Trackpoint>
          <Trackpoint>
            <Time>2021-03-31T15:53:03.000Z</Time>
            <Position>
              <LatitudeDegrees>42.447933442890644073486328125</LatitudeDegrees>
              <LongitudeDegrees>2.83088427968323230743408203125</LongitudeDegrees>
            </Position>
            <AltitudeMeters>681.79998779296875</AltitudeMeters>
            <DistanceMeters>6722.8227622425</DistanceMeters>
          </Trackpoint>
          <Trackpoint>
            <Time>2021-03-31T15:53:06.000Z</Time>
            <Position>
              <LatitudeDegrees>42.44791978038847446441650390625</LatitudeDegrees>
              <LongitudeDegrees>2.83090422861278057098388671875</LongitudeDegrees>
            </Position>
            <AltitudeMeters>682</AltitudeMeters>
            <DistanceMeters>6725.0574058995</DistanceMeters>
          </Trackpoint>
          <Trackpoint>
            <Time>2021-03-31T15:53:08.000Z</Time>
            <Position>
              <LatitudeDegrees>42.4479014240205287933349609375</LatitudeDegrees>
              <LongitudeDegrees>2.83092400990426540374755859375</LongitudeDegrees>
            </Position>
            <AltitudeMeters>682</AltitudeMeters>
            <DistanceMeters>6727.6667501923</DistanceMeters>
          </Trackpoint>
          <Trackpoint>
            <Time>2021-03-31T15:53:14.000Z</Time>
            <Position>
              <LatitudeDegrees>42.4478554911911487579345703125</LatitudeDegrees>
              <LongitudeDegrees>2.83097715117037296295166015625</LongitudeDegrees>
            </Position>
            <AltitudeMeters>682.20001220703125</AltitudeMeters>
            <DistanceMeters>6734.3888408288</DistanceMeters>
          </Trackpoint>
          <Trackpoint>
            <Time>2021-03-31T15:53:17.000Z</Time>
            <Position>
              <LatitudeDegrees>42.4478313513100147247314453125</LatitudeDegrees>
              <LongitudeDegrees>2.83098788000643253326416015625</LongitudeDegrees>
            </Position>
            <AltitudeMeters>682.79998779296875</AltitudeMeters>
            <DistanceMeters>6737.2173824547</DistanceMeters>
          </Trackpoint>
          <Trackpoint>
            <Time>2021-03-31T15:53:22.000Z</Time>
            <Position>
              <LatitudeDegrees>42.44779237546026706695556640625</LatitudeDegrees>
              <LongitudeDegrees>2.83103884197771549224853515625</LongitudeDegrees>
            </Position>
            <AltitudeMeters>683.5999755859375</AltitudeMeters>
            <DistanceMeters>6743.2454026613</DistanceMeters>
          </Trackpoint>
          <Trackpoint>
            <Time>2021-03-31T15:53:25.000Z</Time>
            <Position>
              <LatitudeDegrees>42.44775700382888317108154296875</LatitudeDegrees>
              <LongitudeDegrees>2.83105744980275630950927734375</LongitudeDegrees>
            </Position>
            <AltitudeMeters>683.79998779296875</AltitudeMeters>
            <DistanceMeters>6747.4695512208</DistanceMeters>
          </Trackpoint>
          <Trackpoint>
            <Time>2021-03-31T15:53:28.000Z</Time>
            <Position>
              <LatitudeDegrees>42.44772565551102161407470703125</LatitudeDegrees>
              <LongitudeDegrees>2.83107236959040164947509765625</LongitudeDegrees>
            </Position>
            <AltitudeMeters>683.79998779296875</AltitudeMeters>
            <DistanceMeters>6751.1670552081</DistanceMeters>
          </Trackpoint>
          <Trackpoint>
            <Time>2021-03-31T15:53:29.000Z</Time>
            <Position>
              <LatitudeDegrees>42.4477160163223743438720703125</LatitudeDegrees>
              <LongitudeDegrees>2.83107689581811428070068359375</LongitudeDegrees>
            </Position>
            <AltitudeMeters>683.79998779296875</AltitudeMeters>
            <DistanceMeters>6752.2994291989</DistanceMeters>
          </Trackpoint>
          <Trackpoint>
            <Time>2021-03-31T15:53:30.000Z</Time>
            <Position>
              <LatitudeDegrees>42.44770604185760021209716796875</LatitudeDegrees>
              <LongitudeDegrees>2.8310810029506683349609375</LongitudeDegrees>
            </Position>
            <AltitudeMeters>683.79998779296875</AltitudeMeters>
            <DistanceMeters>6753.4632640096</DistanceMeters>
          </Trackpoint>
          <Trackpoint>
            <Time>2021-03-31T15:53:37.000Z</Time>
            <Position>
              <LatitudeDegrees>42.447647787630558013916015625</LatitudeDegrees>
              <LongitudeDegrees>2.8311214037239551544189453125</LongitudeDegrees>
            </Position>
            <AltitudeMeters>684.79998779296875</AltitudeMeters>
            <DistanceMeters>6760.7469237428</DistanceMeters>
          </Trackpoint>
          <Trackpoint>
            <Time>2021-03-31T15:53:39.000Z</Time>
            <Position>
              <LatitudeDegrees>42.4476415850222110748291015625</LatitudeDegrees>
              <LongitudeDegrees>2.83114579506218433380126953125</LongitudeDegrees>
            </Position>
            <AltitudeMeters>685.4000244140625</AltitudeMeters>
            <DistanceMeters>6762.8654014964</DistanceMeters>
          </Trackpoint>
          <Trackpoint>
            <Time>2021-03-31T15:53:42.000Z</Time>
            <Position>
              <LatitudeDegrees>42.447623312473297119140625</LatitudeDegrees>
              <LongitudeDegrees>2.83116507343947887420654296875</LongitudeDegrees>
            </Position>
            <AltitudeMeters>685.5999755859375</AltitudeMeters>
            <DistanceMeters>6765.4434116327</DistanceMeters>
          </Trackpoint>
          <Trackpoint>
            <Time>2021-03-31T15:53:46.000Z</Time>
            <Position>
              <LatitudeDegrees>42.44758651591837406158447265625</LatitudeDegrees>
              <LongitudeDegrees>2.83119893632829189300537109375</LongitudeDegrees>
            </Position>
            <AltitudeMeters>685.79998779296875</AltitudeMeters>
            <DistanceMeters>6770.3939295318</DistanceMeters>
          </Trackpoint>
          <Trackpoint>
            <Time>2021-03-31T15:53:47.000Z</Time>
            <Position>
              <LatitudeDegrees>42.44757813401520252227783203125</LatitudeDegrees>
              <LongitudeDegrees>2.83120639622211456298828125</LongitudeDegrees>
            </Position>
            <AltitudeMeters>686</AltitudeMeters>
            <DistanceMeters>6771.506188707</DistanceMeters>
          </Trackpoint>
          <Trackpoint>
            <Time>2021-03-31T15:53:48.000Z</Time>
            <Position>
              <LatitudeDegrees>42.44756807573139667510986328125</LatitudeDegrees>
              <LongitudeDegrees>2.83121385611593723297119140625</LongitudeDegrees>
            </Position>
            <AltitudeMeters>686.20001220703125</AltitudeMeters>
            <DistanceMeters>6772.781105865</DistanceMeters>
          </Trackpoint>
          <Trackpoint>
            <Time>2021-03-31T15:53:51.000Z</Time>
            <Position>
              <LatitudeDegrees>42.44753890670835971832275390625</LatitudeDegrees>
              <LongitudeDegrees>2.83123028464615345001220703125</LongitudeDegrees>
            </Position>
            <AltitudeMeters>686.4000244140625</AltitudeMeters>
            <DistanceMeters>6776.2958099173</DistanceMeters>
          </Trackpoint>
          <Trackpoint>
            <Time>2021-03-31T15:53:55.000Z</Time>
            <Position>
              <LatitudeDegrees>42.44749967940151691436767578125</LatitudeDegrees>
              <LongitudeDegrees>2.83124989829957485198974609375</LongitudeDegrees>
            </Position>
            <AltitudeMeters>686.79998779296875</AltitudeMeters>
            <DistanceMeters>6780.9492090312</DistanceMeters>
          </Trackpoint>
          <Trackpoint>
            <Time>2021-03-31T15:53:56.000Z</Time>
            <Position>
              <LatitudeDegrees>42.4474923871457576751708984375</LatitudeDegrees>
              <LongitudeDegrees>2.83125677146017551422119140625</LongitudeDegrees>
            </Position>
            <AltitudeMeters>687</AltitudeMeters>
            <DistanceMeters>6781.9321730079</DistanceMeters>
          </Trackpoint>
          <Trackpoint>
            <Time>2021-03-31T15:53:57.000Z</Time>
            <Position>
              <LatitudeDegrees>42.4474866874516010284423828125</LatitudeDegrees>
              <LongitudeDegrees>2.83126029185950756072998046875</LongitudeDegrees>
            </Position>
            <AltitudeMeters>687.20001220703125</AltitudeMeters>
            <DistanceMeters>6782.6304738943</DistanceMeters>
          </Trackpoint>
          <Trackpoint>
            <Time>2021-03-31T15:54:02.000Z</Time>
            <Position>
              <LatitudeDegrees>42.44744360446929931640625</LatitudeDegrees>
              <LongitudeDegrees>2.8312873654067516326904296875</LongitudeDegrees>
            </Position>
            <AltitudeMeters>688</AltitudeMeters>
            <DistanceMeters>6787.9170688848</DistanceMeters>
          </Trackpoint>
          <Trackpoint>
            <Time>2021-03-31T15:54:03.000Z</Time>
            <Position>
              <LatitudeDegrees>42.44743329472839832305908203125</LatitudeDegrees>
              <LongitudeDegrees>2.83129432238638401031494140625</LongitudeDegrees>
            </Position>
            <AltitudeMeters>688</AltitudeMeters>
            <DistanceMeters>6789.1990493499</DistanceMeters>
          </Trackpoint>
          <Trackpoint>
            <Time>2021-03-31T15:54:13.000Z</Time>
            <Position>
              <LatitudeDegrees>42.44733019731938838958740234375</LatitudeDegrees>
              <LongitudeDegrees>2.831356935203075408935546875</LongitudeDegrees>
            </Position>
            <AltitudeMeters>689</AltitudeMeters>
            <DistanceMeters>6801.7734932157</DistanceMeters>
          </Trackpoint>
          <Trackpoint>
            <Time>2021-03-31T15:54:14.000Z</Time>
            <Position>
              <LatitudeDegrees>42.44732298888266086578369140625</LatitudeDegrees>
              <LongitudeDegrees>2.831359617412090301513671875</LongitudeDegrees>
            </Position>
            <AltitudeMeters>689</AltitudeMeters>
            <DistanceMeters>6802.6019169054</DistanceMeters>
          </Trackpoint>
          <Trackpoint>
            <Time>2021-03-31T15:54:20.000Z</Time>
            <Position>
              <LatitudeDegrees>42.447265572845935821533203125</LatitudeDegrees>
              <LongitudeDegrees>2.83138476312160491943359375</LongitudeDegrees>
            </Position>
            <AltitudeMeters>689.4000244140625</AltitudeMeters>
            <DistanceMeters>6809.3179597759</DistanceMeters>
          </Trackpoint>
          <Trackpoint>
            <Time>2021-03-31T15:54:22.000Z</Time>
            <Position>
              <LatitudeDegrees>42.4472469650208950042724609375</LatitudeDegrees>
              <LongitudeDegrees>2.83140630461275577545166015625</LongitudeDegrees>
            </Position>
            <AltitudeMeters>689.4000244140625</AltitudeMeters>
            <DistanceMeters>6812.0424272168</DistanceMeters>
          </Trackpoint>
          <Trackpoint>
            <Time>2021-03-31T15:54:26.000Z</Time>
            <Position>
              <LatitudeDegrees>42.4472097493708133697509765625</LatitudeDegrees>
              <LongitudeDegrees>2.83144284971058368682861328125</LongitudeDegrees>
            </Position>
            <AltitudeMeters>690</AltitudeMeters>
            <DistanceMeters>6817.1580074903</DistanceMeters>
          </Trackpoint>
          <Trackpoint>
            <Time>2021-03-31T15:54:30.000Z</Time>
            <Position>
              <LatitudeDegrees>42.4471735395491123199462890625</LatitudeDegrees>
              <LongitudeDegrees>2.8314798139035701751708984375</LongitudeDegrees>
            </Position>
            <AltitudeMeters>690.79998779296875</AltitudeMeters>
            <DistanceMeters>6822.2024852055</DistanceMeters>
          </Trackpoint>
          <Trackpoint>
            <Time>2021-03-31T15:54:32.000Z</Time>
            <Position>
              <LatitudeDegrees>42.44715568609535694122314453125</LatitudeDegrees>
              <LongitudeDegrees>2.83149565570056438446044921875</LongitudeDegrees>
            </Position>
            <AltitudeMeters>691.20001220703125</AltitudeMeters>
            <DistanceMeters>6824.5762517697</DistanceMeters>
          </Trackpoint>
          <Trackpoint>
            <Time>2021-03-31T15:54:40.000Z</Time>
            <Position>
              <LatitudeDegrees>42.44707857258617877960205078125</LatitudeDegrees>
              <LongitudeDegrees>2.831544689834117889404296875</LongitudeDegrees>
            </Position>
            <AltitudeMeters>691.79998779296875</AltitudeMeters>
            <DistanceMeters>6834.0570418698</DistanceMeters>
          </Trackpoint>
          <Trackpoint>
            <Time>2021-03-31T15:54:44.000Z</Time>
            <Position>
              <LatitudeDegrees>42.44703616015613079071044921875</LatitudeDegrees>
              <LongitudeDegrees>2.83157260157167911529541015625</LongitudeDegrees>
            </Position>
            <AltitudeMeters>692.4000244140625</AltitudeMeters>
            <DistanceMeters>6839.3050637023</DistanceMeters>
          </Trackpoint>
          <Trackpoint>
            <Time>2021-03-31T15:54:50.000Z</Time>
            <Position>
              <LatitudeDegrees>42.44698285125195980072021484375</LatitudeDegrees>
              <LongitudeDegrees>2.83160814084112644195556640625</LongitudeDegrees>
            </Position>
            <AltitudeMeters>692.79998779296875</AltitudeMeters>
            <DistanceMeters>6845.9188137954</DistanceMeters>
          </Trackpoint>
          <Trackpoint>
            <Time>2021-03-31T15:54:52.000Z</Time>
            <Position>
              <LatitudeDegrees>42.446965165436267852783203125</LatitudeDegrees>
              <LongitudeDegrees>2.8316139243543148040771484375</LongitudeDegrees>
            </Position>
            <AltitudeMeters>693</AltitudeMeters>
            <DistanceMeters>6847.9435742024</DistanceMeters>
          </Trackpoint>
          <Trackpoint>
            <Time>2021-03-31T15:54:53.000Z</Time>
            <Position>
              <LatitudeDegrees>42.44695502333343029022216796875</LatitudeDegrees>
              <LongitudeDegrees>2.83162423409521579742431640625</LongitudeDegrees>
            </Position>
            <AltitudeMeters>693.20001220703125</AltitudeMeters>
            <DistanceMeters>6849.3530481531</DistanceMeters>
          </Trackpoint>
          <Trackpoint>
            <Time>2021-03-31T15:54:55.000Z</Time>
            <Position>
              <LatitudeDegrees>42.44692853651940822601318359375</LatitudeDegrees>
              <LongitudeDegrees>2.8316415846347808837890625</LongitudeDegrees>
            </Position>
            <AltitudeMeters>693.4000244140625</AltitudeMeters>
            <DistanceMeters>6852.6283696358</DistanceMeters>
          </Trackpoint>
          <Trackpoint>
            <Time>2021-03-31T15:54:57.000Z</Time>
            <Position>
              <LatitudeDegrees>42.446912191808223724365234375</LatitudeDegrees>
              <LongitudeDegrees>2.83165642060339450836181640625</LongitudeDegrees>
            </Position>
            <AltitudeMeters>693.5999755859375</AltitudeMeters>
            <DistanceMeters>6854.8201726991</DistanceMeters>
          </Trackpoint>
          <Trackpoint>
            <Time>2021-03-31T15:55:06.000Z</Time>
            <Position>
              <LatitudeDegrees>42.44683130644261837005615234375</LatitudeDegrees>
              <LongitudeDegrees>2.83166480250656604766845703125</LongitudeDegrees>
            </Position>
            <AltitudeMeters>693.5999755859375</AltitudeMeters>
            <DistanceMeters>6863.8492108614</DistanceMeters>
          </Trackpoint>
          <Trackpoint>
            <Time>2021-03-31T15:55:13.000Z</Time>
            <Position>
              <LatitudeDegrees>42.44678311049938201904296875</LatitudeDegrees>
              <LongitudeDegrees>2.83167603425681591033935546875</LongitudeDegrees>
            </Position>
            <AltitudeMeters>694.5999755859375</AltitudeMeters>
            <DistanceMeters>6869.2915128317</DistanceMeters>
          </Trackpoint>
          <Trackpoint>
            <Time>2021-03-31T15:55:22.000Z</Time>
            <Position>
              <LatitudeDegrees>42.44670306332409381866455078125</LatitudeDegrees>
              <LongitudeDegrees>2.8316900320351123809814453125</LongitudeDegrees>
            </Position>
            <AltitudeMeters>695.20001220703125</AltitudeMeters>
            <DistanceMeters>6878.2744278988</DistanceMeters>
          </Trackpoint>
          <Trackpoint>
            <Time>2021-03-31T15:55:30.000Z</Time>
            <Position>
              <LatitudeDegrees>42.446625195443630218505859375</LatitudeDegrees>
              <LongitudeDegrees>2.831692211329936981201171875</LongitudeDegrees>
            </Position>
            <AltitudeMeters>695.5999755859375</AltitudeMeters>
            <DistanceMeters>6886.9432395917</DistanceMeters>
          </Trackpoint>
          <Trackpoint>
            <Time>2021-03-31T15:55:31.000Z</Time>
            <Position>
              <LatitudeDegrees>42.44661840610206127166748046875</LatitudeDegrees>
              <LongitudeDegrees>2.831693552434444427490234375</LongitudeDegrees>
            </Position>
            <AltitudeMeters>695.79998779296875</AltitudeMeters>
            <DistanceMeters>6887.7034533067</DistanceMeters>
          </Trackpoint>
          <Trackpoint>
            <Time>2021-03-31T15:55:35.000Z</Time>
            <Position>
              <LatitudeDegrees>42.44658588431775569915771484375</LatitudeDegrees>
              <LongitudeDegrees>2.831700257956981658935546875</LongitudeDegrees>
            </Position>
            <AltitudeMeters>696</AltitudeMeters>
            <DistanceMeters>6891.3641408709</DistanceMeters>
          </Trackpoint>
          <Trackpoint>
            <Time>2021-03-31T15:55:36.000Z</Time>
            <Position>
              <LatitudeDegrees>42.44657482020556926727294921875</LatitudeDegrees>
              <LongitudeDegrees>2.83170486800372600555419921875</LongitudeDegrees>
            </Position>
            <AltitudeMeters>696.20001220703125</AltitudeMeters>
            <DistanceMeters>6892.653145939</DistanceMeters>
          </Trackpoint>
          <Trackpoint>
            <Time>2021-03-31T15:55:39.000Z</Time>
            <Position>
              <LatitudeDegrees>42.446540705859661102294921875</LatitudeDegrees>
              <LongitudeDegrees>2.8317131660878658294677734375</LongitudeDegrees>
            </Position>
            <AltitudeMeters>696.20001220703125</AltitudeMeters>
            <DistanceMeters>6896.5108092187</DistanceMeters>
          </Trackpoint>
          <Trackpoint>
            <Time>2021-03-31T15:55:41.000Z</Time>
            <Position>
              <LatitudeDegrees>42.4465234391391277313232421875</LatitudeDegrees>
              <LongitudeDegrees>2.83171894960105419158935546875</LongitudeDegrees>
            </Position>
            <AltitudeMeters>696.20001220703125</AltitudeMeters>
            <DistanceMeters>6898.4927484845</DistanceMeters>
          </Trackpoint>
          <Trackpoint>
            <Time>2021-03-31T15:55:47.000Z</Time>
            <Position>
              <LatitudeDegrees>42.44646233506500720977783203125</LatitudeDegrees>
              <LongitudeDegrees>2.8317218832671642303466796875</LongitudeDegrees>
            </Position>
            <AltitudeMeters>696.5999755859375</AltitudeMeters>
            <DistanceMeters>6905.2989436152</DistanceMeters>
          </Trackpoint>
          <Trackpoint>
            <Time>2021-03-31T15:55:49.000Z</Time>
            <Position>
              <LatitudeDegrees>42.44644221849739551544189453125</LatitudeDegrees>
              <LongitudeDegrees>2.83171609975397586822509765625</LongitudeDegrees>
            </Position>
            <AltitudeMeters>696.79998779296875</AltitudeMeters>
            <DistanceMeters>6907.5874899524</DistanceMeters>
          </Trackpoint>
          <Trackpoint>
            <Time>2021-03-31T15:55:58.000Z</Time>
            <Position>
              <LatitudeDegrees>42.4463397078216075897216796875</LatitudeDegrees>
              <LongitudeDegrees>2.831680141389369964599609375</LongitudeDegrees>
            </Position>
            <AltitudeMeters>697.5999755859375</AltitudeMeters>
            <DistanceMeters>6919.3731013435</DistanceMeters>
          </Trackpoint>
          <Trackpoint>
            <Time>2021-03-31T15:55:59.000Z</Time>
            <Position>
              <LatitudeDegrees>42.44633107446134090423583984375</LatitudeDegrees>
              <LongitudeDegrees>2.83167234621942043304443359375</LongitudeDegrees>
            </Position>
            <AltitudeMeters>697.5999755859375</AltitudeMeters>
            <DistanceMeters>6920.525239025</DistanceMeters>
          </Trackpoint>
          <Trackpoint>
            <Time>2021-03-31T15:56:03.000Z</Time>
            <Position>
              <LatitudeDegrees>42.44628933258354663848876953125</LatitudeDegrees>
              <LongitudeDegrees>2.83164015971124172210693359375</LongitudeDegrees>
            </Position>
            <AltitudeMeters>698</AltitudeMeters>
            <DistanceMeters>6925.8704389154</DistanceMeters>
          </Trackpoint>
          <Trackpoint>
            <Time>2021-03-31T15:56:07.000Z</Time>
            <Position>
              <LatitudeDegrees>42.446258068084716796875</LatitudeDegrees>
              <LongitudeDegrees>2.83161853440105915069580078125</LongitudeDegrees>
            </Position>
            <AltitudeMeters>698.20001220703125</AltitudeMeters>
            <DistanceMeters>6929.7781056447</DistanceMeters>
          </Trackpoint>
          <Trackpoint>
            <Time>2021-03-31T15:56:13.000Z</Time>
            <Position>
              <LatitudeDegrees>42.44619746692478656768798828125</LatitudeDegrees>
              <LongitudeDegrees>2.83157126046717166900634765625</LongitudeDegrees>
            </Position>
            <AltitudeMeters>698</AltitudeMeters>
            <DistanceMeters>6937.5610198024</DistanceMeters>
          </Trackpoint>
          <Trackpoint>
            <Time>2021-03-31T15:56:17.000Z</Time>
            <Position>
              <LatitudeDegrees>42.4461539648473262786865234375</LatitudeDegrees>
              <LongitudeDegrees>2.83154779113829135894775390625</LongitudeDegrees>
            </Position>
            <AltitudeMeters>697.5999755859375</AltitudeMeters>
            <DistanceMeters>6942.7727824546</DistanceMeters>
          </Trackpoint>
          <Trackpoint>
            <Time>2021-03-31T15:56:27.000Z</Time>
            <Position>
              <LatitudeDegrees>42.446043491363525390625</LatitudeDegrees>
              <LongitudeDegrees>2.83149397931993007659912109375</LongitudeDegrees>
            </Position>
            <AltitudeMeters>697.4000244140625</AltitudeMeters>
            <DistanceMeters>6955.8388692923</DistanceMeters>
          </Trackpoint>
          <Trackpoint>
            <Time>2021-03-31T15:56:36.000Z</Time>
            <Position>
              <LatitudeDegrees>42.44594885967671871185302734375</LatitudeDegrees>
              <LongitudeDegrees>2.83147059381008148193359375</LongitudeDegrees>
            </Position>
            <AltitudeMeters>696.79998779296875</AltitudeMeters>
            <DistanceMeters>6966.5448844381</DistanceMeters>
          </Trackpoint>
          <Trackpoint>
            <Time>2021-03-31T15:56:38.000Z</Time>
            <Position>
              <LatitudeDegrees>42.44592807255685329437255859375</LatitudeDegrees>
              <LongitudeDegrees>2.83146522939205169677734375</LongitudeDegrees>
            </Position>
            <AltitudeMeters>696.79998779296875</AltitudeMeters>
            <DistanceMeters>6968.8995536159</DistanceMeters>
          </Trackpoint>
          <Trackpoint>
            <Time>2021-03-31T15:56:41.000Z</Time>
            <Position>
              <LatitudeDegrees>42.44589789770543575286865234375</LatitudeDegrees>
              <LongitudeDegrees>2.83144737593829631805419921875</LongitudeDegrees>
            </Position>
            <AltitudeMeters>696.79998779296875</AltitudeMeters>
            <DistanceMeters>6972.5651714013</DistanceMeters>
          </Trackpoint>
          <Trackpoint>
            <Time>2021-03-31T15:56:45.000Z</Time>
            <Position>
              <LatitudeDegrees>42.44585732929408550262451171875</LatitudeDegrees>
              <LongitudeDegrees>2.83142256550490856170654296875</LongitudeDegrees>
            </Position>
            <AltitudeMeters>696.79998779296875</AltitudeMeters>
            <DistanceMeters>6977.5193360912</DistanceMeters>
          </Trackpoint>
          <Trackpoint>
            <Time>2021-03-31T15:56:51.000Z</Time>
            <Position>
              <LatitudeDegrees>42.44579748250544071197509765625</LatitudeDegrees>
              <LongitudeDegrees>2.83140622079372406005859375</LongitudeDegrees>
            </Position>
            <AltitudeMeters>697.20001220703125</AltitudeMeters>
            <DistanceMeters>6984.313580036</DistanceMeters>
          </Trackpoint>
          <Trackpoint>
            <Time>2021-03-31T15:56:56.000Z</Time>
            <Position>
              <LatitudeDegrees>42.44573662988841533660888671875</LatitudeDegrees>
              <LongitudeDegrees>2.83140881918370723724365234375</LongitudeDegrees>
            </Position>
            <AltitudeMeters>696.5999755859375</AltitudeMeters>
            <DistanceMeters>6991.0898576806</DistanceMeters>
          </Trackpoint>
          <Trackpoint>
            <Time>2021-03-31T15:57:03.000Z</Time>
            <Position>
              <LatitudeDegrees>42.4456711672246456146240234375</LatitudeDegrees>
              <LongitudeDegrees>2.8313934803009033203125</LongitudeDegrees>
            </Position>
            <AltitudeMeters>696.79998779296875</AltitudeMeters>
            <DistanceMeters>6998.4836444501</DistanceMeters>
          </Trackpoint>
          <Trackpoint>
            <Time>2021-03-31T15:57:09.000Z</Time>
            <Position>
              <LatitudeDegrees>42.4455940537154674530029296875</LatitudeDegrees>
              <LongitudeDegrees>2.8313644789159297943115234375</LongitudeDegrees>
            </Position>
            <AltitudeMeters>696.79998779296875</AltitudeMeters>
            <DistanceMeters>7007.390846684</DistanceMeters>
          </Trackpoint>
          <Trackpoint>
            <Time>2021-03-31T15:57:10.000Z</Time>
            <Position>
              <LatitudeDegrees>42.44558424688875675201416015625</LatitudeDegrees>
              <LongitudeDegrees>2.8313581086695194244384765625</LongitudeDegrees>
            </Position>
            <AltitudeMeters>697</AltitudeMeters>
            <DistanceMeters>7008.6003392983</DistanceMeters>
          </Trackpoint>
          <Trackpoint>
            <Time>2021-03-31T15:57:13.000Z</Time>
            <Position>
              <LatitudeDegrees>42.4455471150577068328857421875</LatitudeDegrees>
              <LongitudeDegrees>2.8313540853559970855712890625</LongitudeDegrees>
            </Position>
            <AltitudeMeters>697</AltitudeMeters>
            <DistanceMeters>7012.7468155793</DistanceMeters>
          </Trackpoint>
          <Trackpoint>
            <Time>2021-03-31T15:57:16.000Z</Time>
            <Position>
              <LatitudeDegrees>42.4455003440380096435546875</LatitudeDegrees>
              <LongitudeDegrees>2.8313550911843776702880859375</LongitudeDegrees>
            </Position>
            <AltitudeMeters>697</AltitudeMeters>
            <DistanceMeters>7017.9542448454</DistanceMeters>
          </Trackpoint>
          <Trackpoint>
            <Time>2021-03-31T15:57:18.000Z</Time>
            <Position>
              <LatitudeDegrees>42.4454777128994464874267578125</LatitudeDegrees>
              <LongitudeDegrees>2.831344194710254669189453125</LongitudeDegrees>
            </Position>
            <AltitudeMeters>697</AltitudeMeters>
            <DistanceMeters>7020.6302214185</DistanceMeters>
          </Trackpoint>
          <Trackpoint>
            <Time>2021-03-31T15:57:20.000Z</Time>
            <Position>
              <LatitudeDegrees>42.4454602785408496856689453125</LatitudeDegrees>
              <LongitudeDegrees>2.8313393332064151763916015625</LongitudeDegrees>
            </Position>
            <AltitudeMeters>697</AltitudeMeters>
            <DistanceMeters>7022.6098812824</DistanceMeters>
          </Trackpoint>
          <Trackpoint>
            <Time>2021-03-31T15:57:22.000Z</Time>
            <Position>
              <LatitudeDegrees>42.44544695131480693817138671875</LatitudeDegrees>
              <LongitudeDegrees>2.8313510678708553314208984375</LongitudeDegrees>
            </Position>
            <AltitudeMeters>696.79998779296875</AltitudeMeters>
            <DistanceMeters>7024.380032837</DistanceMeters>
          </Trackpoint>
          <Trackpoint>
            <Time>2021-03-31T15:57:23.000Z</Time>
            <Position>
              <LatitudeDegrees>42.44543756358325481414794921875</LatitudeDegrees>
              <LongitudeDegrees>2.83135525882244110107421875</LongitudeDegrees>
            </Position>
            <AltitudeMeters>696.5999755859375</AltitudeMeters>
            <DistanceMeters>7025.4800465839</DistanceMeters>
          </Trackpoint>
          <Trackpoint>
            <Time>2021-03-31T15:57:24.000Z</Time>
            <Position>
              <LatitudeDegrees>42.44542499072849750518798828125</LatitudeDegrees>
              <LongitudeDegrees>2.8313550911843776702880859375</LongitudeDegrees>
            </Position>
            <AltitudeMeters>696.5999755859375</AltitudeMeters>
            <DistanceMeters>7026.8798774981</DistanceMeters>
          </Trackpoint>
          <Trackpoint>
            <Time>2021-03-31T15:57:30.000Z</Time>
            <Position>
              <LatitudeDegrees>42.4453694187104701995849609375</LatitudeDegrees>
              <LongitudeDegrees>2.8313524089753627777099609375</LongitudeDegrees>
            </Position>
            <AltitudeMeters>696.5999755859375</AltitudeMeters>
            <DistanceMeters>7033.0690280275</DistanceMeters>
          </Trackpoint>
          <Trackpoint>
            <Time>2021-03-31T15:57:39.000Z</Time>
            <Position>
              <LatitudeDegrees>42.44527143426239490509033203125</LatitudeDegrees>
              <LongitudeDegrees>2.83135467208921909332275390625</LongitudeDegrees>
            </Position>
            <AltitudeMeters>696.4000244140625</AltitudeMeters>
            <DistanceMeters>7043.9768365712</DistanceMeters>
          </Trackpoint>
          <Trackpoint>
            <Time>2021-03-31T15:57:40.000Z</Time>
            <Position>
              <LatitudeDegrees>42.44526053778827190399169921875</LatitudeDegrees>
              <LongitudeDegrees>2.831352241337299346923828125</LongitudeDegrees>
            </Position>
            <AltitudeMeters>696.4000244140625</AltitudeMeters>
            <DistanceMeters>7045.2011701408</DistanceMeters>
          </Trackpoint>
          <Trackpoint>
            <Time>2021-03-31T15:57:42.000Z</Time>
            <Position>
              <LatitudeDegrees>42.4452386610209941864013671875</LatitudeDegrees>
              <LongitudeDegrees>2.83135383389890193939208984375</LongitudeDegrees>
            </Position>
            <AltitudeMeters>696.4000244140625</AltitudeMeters>
            <DistanceMeters>7047.638748919</DistanceMeters>
          </Trackpoint>
          <Trackpoint>
            <Time>2021-03-31T15:57:45.000Z</Time>
            <Position>
              <LatitudeDegrees>42.44520404376089572906494140625</LatitudeDegrees>
              <LongitudeDegrees>2.83135400153696537017822265625</LongitudeDegrees>
            </Position>
            <AltitudeMeters>696.20001220703125</AltitudeMeters>
            <DistanceMeters>7051.4917277243</DistanceMeters>
          </Trackpoint>
          <Trackpoint>
            <Time>2021-03-31T15:57:55.000Z</Time>
            <Position>
              <LatitudeDegrees>42.4450887925922870635986328125</LatitudeDegrees>
              <LongitudeDegrees>2.8313567675650119781494140625</LongitudeDegrees>
            </Position>
            <AltitudeMeters>695.5999755859375</AltitudeMeters>
            <DistanceMeters>7064.3213899732</DistanceMeters>
          </Trackpoint>
          <Trackpoint>
            <Time>2021-03-31T15:57:56.000Z</Time>
            <Position>
              <LatitudeDegrees>42.44507865048944950103759765625</LatitudeDegrees>
              <LongitudeDegrees>2.83135525882244110107421875</LongitudeDegrees>
            </Position>
            <AltitudeMeters>695.5999755859375</AltitudeMeters>
            <DistanceMeters>7065.4617105456</DistanceMeters>
          </Trackpoint>
          <Trackpoint>
            <Time>2021-03-31T15:58:03.000Z</Time>
            <Position>
              <LatitudeDegrees>42.44500271044671535491943359375</LatitudeDegrees>
              <LongitudeDegrees>2.8313277661800384521484375</LongitudeDegrees>
            </Position>
            <AltitudeMeters>696</AltitudeMeters>
            <DistanceMeters>7074.2108795356</DistanceMeters>
          </Trackpoint>
          <Trackpoint>
            <Time>2021-03-31T15:58:05.000Z</Time>
            <Position>
              <LatitudeDegrees>42.4449761398136615753173828125</LatitudeDegrees>
              <LongitudeDegrees>2.83132013864815235137939453125</LongitudeDegrees>
            </Position>
            <AltitudeMeters>695.79998779296875</AltitudeMeters>
            <DistanceMeters>7077.2368500434</DistanceMeters>
          </Trackpoint>
          <Trackpoint>
            <Time>2021-03-31T15:58:12.000Z</Time>
            <Position>
              <LatitudeDegrees>42.44490967132151126861572265625</LatitudeDegrees>
              <LongitudeDegrees>2.83127319999039173126220703125</LongitudeDegrees>
            </Position>
            <AltitudeMeters>694.5999755859375</AltitudeMeters>
            <DistanceMeters>7085.579740983</DistanceMeters>
          </Trackpoint>
          <Trackpoint>
            <Time>2021-03-31T15:58:13.000Z</Time>
            <Position>
              <LatitudeDegrees>42.4449057318270206451416015625</LatitudeDegrees>
              <LongitudeDegrees>2.83126833848655223846435546875</LongitudeDegrees>
            </Position>
            <AltitudeMeters>694.4000244140625</AltitudeMeters>
            <DistanceMeters>7086.1731826241</DistanceMeters>
          </Trackpoint>
          <Trackpoint>
            <Time>2021-03-31T15:58:14.000Z</Time>
            <Position>
              <LatitudeDegrees>42.44489860720932483673095703125</LatitudeDegrees>
              <LongitudeDegrees>2.831267081201076507568359375</LongitudeDegrees>
            </Position>
            <AltitudeMeters>694.4000244140625</AltitudeMeters>
            <DistanceMeters>7086.9682331577</DistanceMeters>
          </Trackpoint>
          <Trackpoint>
            <Time>2021-03-31T15:58:18.000Z</Time>
            <Position>
              <LatitudeDegrees>42.44490682147443294525146484375</LatitudeDegrees>
              <LongitudeDegrees>2.8312766365706920623779296875</LongitudeDegrees>
            </Position>
            <AltitudeMeters>694.20001220703125</AltitudeMeters>
            <DistanceMeters>7088.1702365816</DistanceMeters>
          </Trackpoint>
          <Trackpoint>
            <Time>2021-03-31T15:58:20.000Z</Time>
            <Position>
              <LatitudeDegrees>42.44490967132151126861572265625</LatitudeDegrees>
              <LongitudeDegrees>2.83127336762845516204833984375</LongitudeDegrees>
            </Position>
            <AltitudeMeters>694.20001220703125</AltitudeMeters>
            <DistanceMeters>7088.5844484265</DistanceMeters>
          </Trackpoint>
          <Trackpoint>
            <Time>2021-03-31T15:58:21.000Z</Time>
            <Position>
              <LatitudeDegrees>42.44490765966475009918212890625</LatitudeDegrees>
              <LongitudeDegrees>2.831273116171360015869140625</LongitudeDegrees>
            </Position>
            <AltitudeMeters>694.4000244140625</AltitudeMeters>
            <DistanceMeters>7088.8172153886</DistanceMeters>
          </Trackpoint>
          <Trackpoint>
            <Time>2021-03-31T15:58:22.000Z</Time>
            <Position>
              <LatitudeDegrees>42.4449102580547332763671875</LatitudeDegrees>
              <LongitudeDegrees>2.83127319999039173126220703125</LongitudeDegrees>
            </Position>
            <AltitudeMeters>694.4000244140625</AltitudeMeters>
            <DistanceMeters>7089.1022955317</DistanceMeters>
          </Trackpoint>
          <Trackpoint>
            <Time>2021-03-31T15:58:25.000Z</Time>
            <Position>
              <LatitudeDegrees>42.44491419754922389984130859375</LatitudeDegrees>
              <LongitudeDegrees>2.83127705566585063934326171875</LongitudeDegrees>
            </Position>
            <AltitudeMeters>694.5999755859375</AltitudeMeters>
            <DistanceMeters>7089.6398478047</DistanceMeters>
          </Trackpoint>
          <Trackpoint>
            <Time>2021-03-31T15:58:32.000Z</Time>
            <Position>
              <LatitudeDegrees>42.4449094198644161224365234375</LatitudeDegrees>
              <LongitudeDegrees>2.83127638511359691619873046875</LongitudeDegrees>
            </Position>
            <AltitudeMeters>694.5999755859375</AltitudeMeters>
            <DistanceMeters>7090.1774000777</DistanceMeters>
          </Trackpoint>
          <Trackpoint>
            <Time>2021-03-31T15:58:33.000Z</Time>
            <Position>
              <LatitudeDegrees>42.4449094198644161224365234375</LatitudeDegrees>
              <LongitudeDegrees>2.83127638511359691619873046875</LongitudeDegrees>
            </Position>
            <AltitudeMeters>694.5999755859375</AltitudeMeters>
            <DistanceMeters>7090.1774000777</DistanceMeters>
          </Trackpoint>
          <Trackpoint>
            <Time>2021-03-31T15:58:41.000Z</Time>
            <Position>
              <LatitudeDegrees>42.4449094198644161224365234375</LatitudeDegrees>
              <LongitudeDegrees>2.8312766365706920623779296875</LongitudeDegrees>
            </Position>
            <AltitudeMeters>694.20001220703125</AltitudeMeters>
            <DistanceMeters>7090.1774000777</DistanceMeters>
          </Trackpoint>
          <Trackpoint>
            <Time>2021-03-31T15:58:45.000Z</Time>
            <Position>
              <LatitudeDegrees>42.44491000659763813018798828125</LatitudeDegrees>
              <LongitudeDegrees>2.83127755858004093170166015625</LongitudeDegrees>
            </Position>
            <AltitudeMeters>694.4000244140625</AltitudeMeters>
            <DistanceMeters>7090.311788146</DistanceMeters>
          </Trackpoint>
          <Trackpoint>
            <Time>2021-03-31T15:58:52.000Z</Time>
            <Position>
              <LatitudeDegrees>42.444880418479442596435546875</LatitudeDegrees>
              <LongitudeDegrees>2.8312035463750362396240234375</LongitudeDegrees>
            </Position>
            <AltitudeMeters>694.5999755859375</AltitudeMeters>
            <DistanceMeters>7097.2252673437</DistanceMeters>
          </Trackpoint>
          <Trackpoint>
            <Time>2021-03-31T15:59:02.000Z</Time>
            <Position>
              <LatitudeDegrees>42.44481914676725864410400390625</LatitudeDegrees>
              <LongitudeDegrees>2.83105309121310710906982421875</LongitudeDegrees>
            </Position>
            <AltitudeMeters>695.20001220703125</AltitudeMeters>
            <DistanceMeters>7111.3392138632</DistanceMeters>
          </Trackpoint>
          <Trackpoint>
            <Time>2021-03-31T15:59:05.000Z</Time>
            <Position>
              <LatitudeDegrees>42.444806657731533050537109375</LatitudeDegrees>
              <LongitudeDegrees>2.8310032188892364501953125</LongitudeDegrees>
            </Position>
            <AltitudeMeters>695.5999755859375</AltitudeMeters>
            <DistanceMeters>7115.6647564178</DistanceMeters>
          </Trackpoint>
          <Trackpoint>
            <Time>2021-03-31T15:59:10.000Z</Time>
            <Position>
              <LatitudeDegrees>42.4447830207645893096923828125</LatitudeDegrees>
              <LongitudeDegrees>2.83093457110226154327392578125</LongitudeDegrees>
            </Position>
            <AltitudeMeters>696</AltitudeMeters>
            <DistanceMeters>7121.8859225174</DistanceMeters>
          </Trackpoint>
          <Trackpoint>
            <Time>2021-03-31T15:59:15.000Z</Time>
            <Position>
              <LatitudeDegrees>42.44477388449013233184814453125</LatitudeDegrees>
              <LongitudeDegrees>2.8308763168752193450927734375</LongitudeDegrees>
            </Position>
            <AltitudeMeters>696.20001220703125</AltitudeMeters>
            <DistanceMeters>7126.7777220407</DistanceMeters>
          </Trackpoint>
          <Trackpoint>
            <Time>2021-03-31T15:59:18.000Z</Time>
            <Position>
              <LatitudeDegrees>42.44476365856826305389404296875</LatitudeDegrees>
              <LongitudeDegrees>2.83083918504416942596435546875</LongitudeDegrees>
            </Position>
            <AltitudeMeters>696.20001220703125</AltitudeMeters>
            <DistanceMeters>7130.0309127195</DistanceMeters>
          </Trackpoint>
          <Trackpoint>
            <Time>2021-03-31T15:59:20.000Z</Time>
            <Position>
              <LatitudeDegrees>42.444753013551235198974609375</LatitudeDegrees>
              <LongitudeDegrees>2.83082309179008007049560546875</LongitudeDegrees>
            </Position>
            <AltitudeMeters>696.5999755859375</AltitudeMeters>
            <DistanceMeters>7131.8061582459</DistanceMeters>
          </Trackpoint>
          <Trackpoint>
            <Time>2021-03-31T15:59:21.000Z</Time>
            <Position>
              <LatitudeDegrees>42.444748990237712860107421875</LatitudeDegrees>
              <LongitudeDegrees>2.8308112733066082000732421875</LongitudeDegrees>
            </Position>
            <AltitudeMeters>696.5999755859375</AltitudeMeters>
            <DistanceMeters>7132.8812627919</DistanceMeters>
          </Trackpoint>
          <Trackpoint>
            <Time>2021-03-31T15:59:23.000Z</Time>
            <Position>
              <LatitudeDegrees>42.4447451345622539520263671875</LatitudeDegrees>
              <LongitudeDegrees>2.830780930817127227783203125</LongitudeDegrees>
            </Position>
            <AltitudeMeters>696.5999755859375</AltitudeMeters>
            <DistanceMeters>7135.4097592072</DistanceMeters>
          </Trackpoint>
          <Trackpoint>
            <Time>2021-03-31T15:59:26.000Z</Time>
            <Position>
              <LatitudeDegrees>42.4447488225996494293212890625</LatitudeDegrees>
              <LongitudeDegrees>2.83073273487389087677001953125</LongitudeDegrees>
            </Position>
            <AltitudeMeters>696.5999755859375</AltitudeMeters>
            <DistanceMeters>7139.3884177759</DistanceMeters>
          </Trackpoint>
          <Trackpoint>
            <Time>2021-03-31T15:59:30.000Z</Time>
            <Position>
              <LatitudeDegrees>42.44475846178829669952392578125</LatitudeDegrees>
              <LongitudeDegrees>2.8306711278855800628662109375</LongitudeDegrees>
            </Position>
            <AltitudeMeters>696.5999755859375</AltitudeMeters>
            <DistanceMeters>7144.5601763189</DistanceMeters>
          </Trackpoint>
          <Trackpoint>
            <Time>2021-03-31T15:59:33.000Z</Time>
            <Position>
              <LatitudeDegrees>42.44476340711116790771484375</LatitudeDegrees>
              <LongitudeDegrees>2.8306181542575359344482421875</LongitudeDegrees>
            </Position>
            <AltitudeMeters>696.5999755859375</AltitudeMeters>
            <DistanceMeters>7148.9458419269</DistanceMeters>
          </Trackpoint>
          <Trackpoint>
            <Time>2021-03-31T15:59:34.000Z</Time>
            <Position>
              <LatitudeDegrees>42.444769442081451416015625</LatitudeDegrees>
              <LongitudeDegrees>2.8306008875370025634765625</LongitudeDegrees>
            </Position>
            <AltitudeMeters>696.5999755859375</AltitudeMeters>
            <DistanceMeters>7150.5159409267</DistanceMeters>
          </Trackpoint>
          <Trackpoint>
            <Time>2021-03-31T15:59:40.000Z</Time>
            <Position>
              <LatitudeDegrees>42.4447830207645893096923828125</LatitudeDegrees>
              <LongitudeDegrees>2.83051564358174800872802734375</LongitudeDegrees>
            </Position>
            <AltitudeMeters>697.5999755859375</AltitudeMeters>
            <DistanceMeters>7157.6789636375</DistanceMeters>
          </Trackpoint>
          <Trackpoint>
            <Time>2021-03-31T15:59:41.000Z</Time>
            <Position>
              <LatitudeDegrees>42.444788552820682525634765625</LatitudeDegrees>
              <LongitudeDegrees>2.83050474710762500762939453125</LongitudeDegrees>
            </Position>
            <AltitudeMeters>697.79998779296875</AltitudeMeters>
            <DistanceMeters>7158.762434882</DistanceMeters>
          </Trackpoint>
          <Trackpoint>
            <Time>2021-03-31T15:59:45.000Z</Time>
            <Position>
              <LatitudeDegrees>42.444812022149562835693359375</LatitudeDegrees>
              <LongitudeDegrees>2.83045076765120029449462890625</LongitudeDegrees>
            </Position>
            <AltitudeMeters>697.79998779296875</AltitudeMeters>
            <DistanceMeters>7163.9079362311</DistanceMeters>
          </Trackpoint>
          <Trackpoint>
            <Time>2021-03-31T15:59:46.000Z</Time>
            <Position>
              <LatitudeDegrees>42.44482702575623989105224609375</LatitudeDegrees>
              <LongitudeDegrees>2.8304397873580455780029296875</LongitudeDegrees>
            </Position>
            <AltitudeMeters>698</AltitudeMeters>
            <DistanceMeters>7165.8084705185</DistanceMeters>
          </Trackpoint>
          <Trackpoint>
            <Time>2021-03-31T15:59:49.000Z</Time>
            <Position>
              <LatitudeDegrees>42.44484613649547100067138671875</LatitudeDegrees>
              <LongitudeDegrees>2.83039276488125324249267578125</LongitudeDegrees>
            </Position>
            <AltitudeMeters>698</AltitudeMeters>
            <DistanceMeters>7170.2187748913</DistanceMeters>
          </Trackpoint>
          <Trackpoint>
            <Time>2021-03-31T15:59:51.000Z</Time>
            <Position>
              <LatitudeDegrees>42.44484881870448589324951171875</LatitudeDegrees>
              <LongitudeDegrees>2.83036493696272373199462890625</LongitudeDegrees>
            </Position>
            <AltitudeMeters>698</AltitudeMeters>
            <DistanceMeters>7172.5230502544</DistanceMeters>
          </Trackpoint>
          <Trackpoint>
            <Time>2021-03-31T15:59:54.000Z</Time>
            <Position>
              <LatitudeDegrees>42.4448661692440509796142578125</LatitudeDegrees>
              <LongitudeDegrees>2.83033073879778385162353515625</LongitudeDegrees>
            </Position>
            <AltitudeMeters>698.4000244140625</AltitudeMeters>
            <DistanceMeters>7175.9307882588</DistanceMeters>
          </Trackpoint>
          <Trackpoint>
            <Time>2021-03-31T15:59:56.000Z</Time>
            <Position>
              <LatitudeDegrees>42.444881759583950042724609375</LatitudeDegrees>
              <LongitudeDegrees>2.83031749539077281951904296875</LongitudeDegrees>
            </Position>
            <AltitudeMeters>698.5999755859375</AltitudeMeters>
            <DistanceMeters>7177.9777263307</DistanceMeters>
          </Trackpoint>
          <Trackpoint>
            <Time>2021-03-31T15:59:58.000Z</Time>
            <Position>
              <LatitudeDegrees>42.44490011595189571380615234375</LatitudeDegrees>
              <LongitudeDegrees>2.83030542545020580291748046875</LongitudeDegrees>
            </Position>
            <AltitudeMeters>698.79998779296875</AltitudeMeters>
            <DistanceMeters>7180.2484472844</DistanceMeters>
          </Trackpoint>
          <Trackpoint>
            <Time>2021-03-31T15:59:59.000Z</Time>
            <Position>
              <LatitudeDegrees>42.4449037201702594757080078125</LatitudeDegrees>
              <LongitudeDegrees>2.8302872367203235626220703125</LongitudeDegrees>
            </Position>
            <AltitudeMeters>698.79998779296875</AltitudeMeters>
            <DistanceMeters>7181.7924486384</DistanceMeters>
          </Trackpoint>
          <Trackpoint>
            <Time>2021-03-31T16:00:03.000Z</Time>
            <Position>
              <LatitudeDegrees>42.44493766687810420989990234375</LatitudeDegrees>
              <LongitudeDegrees>2.830249182879924774169921875</LongitudeDegrees>
            </Position>
            <AltitudeMeters>699.5999755859375</AltitudeMeters>
            <DistanceMeters>7186.6953114239</DistanceMeters>
          </Trackpoint>
          <Trackpoint>
            <Time>2021-03-31T16:00:05.000Z</Time>
            <Position>
              <LatitudeDegrees>42.44496130384504795074462890625</LatitudeDegrees>
              <LongitudeDegrees>2.8302253782749176025390625</LongitudeDegrees>
            </Position>
            <AltitudeMeters>700</AltitudeMeters>
            <DistanceMeters>7189.972011119</DistanceMeters>
          </Trackpoint>
          <Trackpoint>
            <Time>2021-03-31T16:00:06.000Z</Time>
            <Position>
              <LatitudeDegrees>42.44496817700564861297607421875</LatitudeDegrees>
              <LongitudeDegrees>2.83021272160112857818603515625</LongitudeDegrees>
            </Position>
            <AltitudeMeters>700</AltitudeMeters>
            <DistanceMeters>7191.2610161871</DistanceMeters>
          </Trackpoint>
          <Trackpoint>
            <Time>2021-03-31T16:00:08.000Z</Time>
            <Position>
              <LatitudeDegrees>42.4449761398136615753173828125</LatitudeDegrees>
              <LongitudeDegrees>2.83018070273101329803466796875</LongitudeDegrees>
            </Position>
            <AltitudeMeters>700.4000244140625</AltitudeMeters>
            <DistanceMeters>7194.0380083159</DistanceMeters>
          </Trackpoint>
          <Trackpoint>
            <Time>2021-03-31T16:00:12.000Z</Time>
            <Position>
              <LatitudeDegrees>42.44496901519596576690673828125</LatitudeDegrees>
              <LongitudeDegrees>2.830119095742702484130859375</LongitudeDegrees>
            </Position>
            <AltitudeMeters>700.79998779296875</AltitudeMeters>
            <DistanceMeters>7199.158881483</DistanceMeters>
          </Trackpoint>
          <Trackpoint>
            <Time>2021-03-31T16:00:13.000Z</Time>
            <Position>
              <LatitudeDegrees>42.44496432133018970489501953125</LatitudeDegrees>
              <LongitudeDegrees>2.8301068581640720367431640625</LongitudeDegrees>
            </Position>
            <AltitudeMeters>700.79998779296875</AltitudeMeters>
            <DistanceMeters>7200.2912554738</DistanceMeters>
          </Trackpoint>
          <Trackpoint>
            <Time>2021-03-31T16:00:15.000Z</Time>
            <Position>
              <LatitudeDegrees>42.444954849779605865478515625</LatitudeDegrees>
              <LongitudeDegrees>2.8300790302455425262451171875</LongitudeDegrees>
            </Position>
            <AltitudeMeters>701</AltitudeMeters>
            <DistanceMeters>7202.8054260151</DistanceMeters>
          </Trackpoint>
          <Trackpoint>
            <Time>2021-03-31T16:00:19.000Z</Time>
            <Position>
              <LatitudeDegrees>42.44491972960531711578369140625</LatitudeDegrees>
              <LongitudeDegrees>2.83003234304487705230712890625</LongitudeDegrees>
            </Position>
            <AltitudeMeters>701.5999755859375</AltitudeMeters>
            <DistanceMeters>7208.2808121927</DistanceMeters>
          </Trackpoint>
          <Trackpoint>
            <Time>2021-03-31T16:00:21.000Z</Time>
            <Position>
              <LatitudeDegrees>42.44490313343703746795654296875</LatitudeDegrees>
              <LongitudeDegrees>2.83001809380948543548583984375</LongitudeDegrees>
            </Position>
            <AltitudeMeters>701.79998779296875</AltitudeMeters>
            <DistanceMeters>7210.4705543217</DistanceMeters>
          </Trackpoint>
          <Trackpoint>
            <Time>2021-03-31T16:00:23.000Z</Time>
            <Position>
              <LatitudeDegrees>42.4448859505355358123779296875</LatitudeDegrees>
              <LongitudeDegrees>2.82999797724187374114990234375</LongitudeDegrees>
            </Position>
            <AltitudeMeters>701.79998779296875</AltitudeMeters>
            <DistanceMeters>7212.9972644448</DistanceMeters>
          </Trackpoint>
          <Trackpoint>
            <Time>2021-03-31T16:00:24.000Z</Time>
            <Position>
              <LatitudeDegrees>42.444883100688457489013671875</LatitudeDegrees>
              <LongitudeDegrees>2.8299878351390361785888671875</LongitudeDegrees>
            </Position>
            <AltitudeMeters>701.79998779296875</AltitudeMeters>
            <DistanceMeters>7213.8886940421</DistanceMeters>
          </Trackpoint>
          <Trackpoint>
            <Time>2021-03-31T16:00:28.000Z</Time>
            <Position>
              <LatitudeDegrees>42.44487932883203029632568359375</LatitudeDegrees>
              <LongitudeDegrees>2.82995003275573253631591796875</LongitudeDegrees>
            </Position>
            <AltitudeMeters>702.20001220703125</AltitudeMeters>
            <DistanceMeters>7217.0202532413</DistanceMeters>
          </Trackpoint>
          <Trackpoint>
            <Time>2021-03-31T16:00:29.000Z</Time>
            <Position>
              <LatitudeDegrees>42.4448762275278568267822265625</LatitudeDegrees>
              <LongitudeDegrees>2.829941399395465850830078125</LongitudeDegrees>
            </Position>
            <AltitudeMeters>702.20001220703125</AltitudeMeters>
            <DistanceMeters>7217.8096044145</DistanceMeters>
          </Trackpoint>
          <Trackpoint>
            <Time>2021-03-31T16:00:30.000Z</Time>
            <Position>
              <LatitudeDegrees>42.44487740099430084228515625</LatitudeDegrees>
              <LongitudeDegrees>2.8299325145781040191650390625</LongitudeDegrees>
            </Position>
            <AltitudeMeters>702.4000244140625</AltitudeMeters>
            <DistanceMeters>7218.5456781789</DistanceMeters>
          </Trackpoint>
          <Trackpoint>
            <Time>2021-03-31T16:00:33.000Z</Time>
            <Position>
              <LatitudeDegrees>42.44486038573086261749267578125</LatitudeDegrees>
              <LongitudeDegrees>2.8299053572118282318115234375</LongitudeDegrees>
            </Position>
            <AltitudeMeters>702.5999755859375</AltitudeMeters>
            <DistanceMeters>7221.4715135244</DistanceMeters>
          </Trackpoint>
          <Trackpoint>
            <Time>2021-03-31T16:00:34.000Z</Time>
            <Position>
              <LatitudeDegrees>42.44485183618962764739990234375</LatitudeDegrees>
              <LongitudeDegrees>2.82989555038511753082275390625</LongitudeDegrees>
            </Position>
            <AltitudeMeters>702.79998779296875</AltitudeMeters>
            <DistanceMeters>7222.7177771997</DistanceMeters>
          </Trackpoint>
          <Trackpoint>
            <Time>2021-03-31T16:00:37.000Z</Time>
            <Position>
              <LatitudeDegrees>42.44482912123203277587890625</LatitudeDegrees>
              <LongitudeDegrees>2.8298641182482242584228515625</LongitudeDegrees>
            </Position>
            <AltitudeMeters>703.20001220703125</AltitudeMeters>
            <DistanceMeters>7226.3312921835</DistanceMeters>
          </Trackpoint>
          <Trackpoint>
            <Time>2021-03-31T16:00:38.000Z</Time>
            <Position>
              <LatitudeDegrees>42.44481881149113178253173828125</LatitudeDegrees>
              <LongitudeDegrees>2.829853557050228118896484375</LongitudeDegrees>
            </Position>
            <AltitudeMeters>703.4000244140625</AltitudeMeters>
            <DistanceMeters>7227.7724436613</DistanceMeters>
          </Trackpoint>
          <Trackpoint>
            <Time>2021-03-31T16:00:41.000Z</Time>
            <Position>
              <LatitudeDegrees>42.4447964318096637725830078125</LatitudeDegrees>
              <LongitudeDegrees>2.82982950098812580108642578125</LongitudeDegrees>
            </Position>
            <AltitudeMeters>703.5999755859375</AltitudeMeters>
            <DistanceMeters>7230.952645796</DistanceMeters>
          </Trackpoint>
          <Trackpoint>
            <Time>2021-03-31T16:00:42.000Z</Time>
            <Position>
              <LatitudeDegrees>42.44478645734488964080810546875</LatitudeDegrees>
              <LongitudeDegrees>2.82982212491333484649658203125</LongitudeDegrees>
            </Position>
            <AltitudeMeters>703.5999755859375</AltitudeMeters>
            <DistanceMeters>7232.2204602962</DistanceMeters>
          </Trackpoint>
          <Trackpoint>
            <Time>2021-03-31T16:00:44.000Z</Time>
            <Position>
              <LatitudeDegrees>42.44476919062435626983642578125</LatitudeDegrees>
              <LongitudeDegrees>2.82980737276375293731689453125</LongitudeDegrees>
            </Position>
            <AltitudeMeters>703.79998779296875</AltitudeMeters>
            <DistanceMeters>7234.495154518</DistanceMeters>
          </Trackpoint>
          <Trackpoint>
            <Time>2021-03-31T16:00:45.000Z</Time>
            <Position>
              <LatitudeDegrees>42.44476080872118473052978515625</LatitudeDegrees>
              <LongitudeDegrees>2.8297990746796131134033203125</LongitudeDegrees>
            </Position>
            <AltitudeMeters>703.79998779296875</AltitudeMeters>
            <DistanceMeters>7235.6512043931</DistanceMeters>
          </Trackpoint>
          <Trackpoint>
            <Time>2021-03-31T16:00:49.000Z</Time>
            <Position>
              <LatitudeDegrees>42.44473792612552642822265625</LatitudeDegrees>
              <LongitudeDegrees>2.82976311631500720977783203125</LongitudeDegrees>
            </Position>
            <AltitudeMeters>704.20001220703125</AltitudeMeters>
            <DistanceMeters>7239.5507747196</DistanceMeters>
          </Trackpoint>
          <Trackpoint>
            <Time>2021-03-31T16:00:50.000Z</Time>
            <Position>
              <LatitudeDegrees>42.44473348371684551239013671875</LatitudeDegrees>
              <LongitudeDegrees>2.8297533094882965087890625</LongitudeDegrees>
            </Position>
            <AltitudeMeters>704.20001220703125</AltitudeMeters>
            <DistanceMeters>7240.4962785895</DistanceMeters>
          </Trackpoint>
          <Trackpoint>
            <Time>2021-03-31T16:00:56.000Z</Time>
            <Position>
              <LatitudeDegrees>42.444686628878116607666015625</LatitudeDegrees>
              <LongitudeDegrees>2.82971802167594432830810546875</LongitudeDegrees>
            </Position>
            <AltitudeMeters>704.5999755859375</AltitudeMeters>
            <DistanceMeters>7246.4625639784</DistanceMeters>
          </Trackpoint>
          <Trackpoint>
            <Time>2021-03-31T16:00:58.000Z</Time>
            <Position>
              <LatitudeDegrees>42.44467363692820072174072265625</LatitudeDegrees>
              <LongitudeDegrees>2.8297058679163455963134765625</LongitudeDegrees>
            </Position>
            <AltitudeMeters>704.79998779296875</AltitudeMeters>
            <DistanceMeters>7248.2199160046</DistanceMeters>
          </Trackpoint>
          <Trackpoint>
            <Time>2021-03-31T16:01:05.000Z</Time>
            <Position>
              <LatitudeDegrees>42.4446123652160167694091796875</LatitudeDegrees>
              <LongitudeDegrees>2.82967477105557918548583984375</LongitudeDegrees>
            </Position>
            <AltitudeMeters>705.5999755859375</AltitudeMeters>
            <DistanceMeters>7255.5029558254</DistanceMeters>
          </Trackpoint>
          <Trackpoint>
            <Time>2021-03-31T16:01:07.000Z</Time>
            <Position>
              <LatitudeDegrees>42.44460054673254489898681640625</LatitudeDegrees>
              <LongitudeDegrees>2.8296673111617565155029296875</LongitudeDegrees>
            </Position>
            <AltitudeMeters>706</AltitudeMeters>
            <DistanceMeters>7256.9503596167</DistanceMeters>
          </Trackpoint>
          <Trackpoint>
            <Time>2021-03-31T16:01:14.000Z</Time>
            <Position>
              <LatitudeDegrees>42.44456115178763866424560546875</LatitudeDegrees>
              <LongitudeDegrees>2.829664461314678192138671875</LongitudeDegrees>
            </Position>
            <AltitudeMeters>706.79998779296875</AltitudeMeters>
            <DistanceMeters>7261.3411697023</DistanceMeters>
          </Trackpoint>
          <Trackpoint>
            <Time>2021-03-31T16:01:19.000Z</Time>
            <Position>
              <LatitudeDegrees>42.4445023946464061737060546875</LatitudeDegrees>
              <LongitudeDegrees>2.82966437749564647674560546875</LongitudeDegrees>
            </Position>
            <AltitudeMeters>707</AltitudeMeters>
            <DistanceMeters>7267.8807753508</DistanceMeters>
          </Trackpoint>
          <Trackpoint>
            <Time>2021-03-31T16:01:24.000Z</Time>
            <Position>
              <LatitudeDegrees>42.44443961419165134429931640625</LatitudeDegrees>
              <LongitudeDegrees>2.82964861951768398284912109375</LongitudeDegrees>
            </Position>
            <AltitudeMeters>707.5999755859375</AltitudeMeters>
            <DistanceMeters>7274.9881129415</DistanceMeters>
          </Trackpoint>
          <Trackpoint>
            <Time>2021-03-31T16:01:32.000Z</Time>
            <Position>
              <LatitudeDegrees>42.44436032138764858245849609375</LatitudeDegrees>
              <LongitudeDegrees>2.829630933701992034912109375</LongitudeDegrees>
            </Position>
            <AltitudeMeters>708</AltitudeMeters>
            <DistanceMeters>7283.9327469359</DistanceMeters>
          </Trackpoint>
          <Trackpoint>
            <Time>2021-03-31T16:01:36.000Z</Time>
            <Position>
              <LatitudeDegrees>42.4443210102617740631103515625</LatitudeDegrees>
              <LongitudeDegrees>2.82963034696877002716064453125</LongitudeDegrees>
            </Position>
            <AltitudeMeters>708.20001220703125</AltitudeMeters>
            <DistanceMeters>7288.3081054424</DistanceMeters>
          </Trackpoint>
          <Trackpoint>
            <Time>2021-03-31T16:01:43.000Z</Time>
            <Position>
              <LatitudeDegrees>42.44424934498965740203857421875</LatitudeDegrees>
              <LongitudeDegrees>2.82960704527795314788818359375</LongitudeDegrees>
            </Position>
            <AltitudeMeters>709.20001220703125</AltitudeMeters>
            <DistanceMeters>7296.5112834644</DistanceMeters>
          </Trackpoint>
          <Trackpoint>
            <Time>2021-03-31T16:01:44.000Z</Time>
            <Position>
              <LatitudeDegrees>42.44424414820969104766845703125</LatitudeDegrees>
              <LongitudeDegrees>2.829606123268604278564453125</LongitudeDegrees>
            </Position>
            <AltitudeMeters>709.20001220703125</AltitudeMeters>
            <DistanceMeters>7297.0970674731</DistanceMeters>
          </Trackpoint>
          <Trackpoint>
            <Time>2021-03-31T16:01:46.000Z</Time>
            <Position>
              <LatitudeDegrees>42.44422051124274730682373046875</LatitudeDegrees>
              <LongitudeDegrees>2.8295912034809589385986328125</LongitudeDegrees>
            </Position>
            <AltitudeMeters>709.4000244140625</AltitudeMeters>
            <DistanceMeters>7299.9981071567</DistanceMeters>
          </Trackpoint>
          <Trackpoint>
            <Time>2021-03-31T16:01:51.000Z</Time>
            <Position>
              <LatitudeDegrees>42.4441899172961711883544921875</LatitudeDegrees>
              <LongitudeDegrees>2.82956714741885662078857421875</LongitudeDegrees>
            </Position>
            <AltitudeMeters>710</AltitudeMeters>
            <DistanceMeters>7303.9345536733</DistanceMeters>
          </Trackpoint>
          <Trackpoint>
            <Time>2021-03-31T16:01:56.000Z</Time>
            <Position>
              <LatitudeDegrees>42.444149516522884368896484375</LatitudeDegrees>
              <LongitudeDegrees>2.82953797839581966400146484375</LongitudeDegrees>
            </Position>
            <AltitudeMeters>710.20001220703125</AltitudeMeters>
            <DistanceMeters>7309.0289073811</DistanceMeters>
          </Trackpoint>
          <Trackpoint>
            <Time>2021-03-31T16:02:04.000Z</Time>
            <Position>
              <LatitudeDegrees>42.4440869875252246856689453125</LatitudeDegrees>
              <LongitudeDegrees>2.829504199326038360595703125</LongitudeDegrees>
            </Position>
            <AltitudeMeters>711.20001220703125</AltitudeMeters>
            <DistanceMeters>7316.520966856</DistanceMeters>
          </Trackpoint>
          <Trackpoint>
            <Time>2021-03-31T16:02:06.000Z</Time>
            <Position>
              <LatitudeDegrees>42.4440648593008518218994140625</LatitudeDegrees>
              <LongitudeDegrees>2.82949841581284999847412109375</LongitudeDegrees>
            </Position>
            <AltitudeMeters>711.4000244140625</AltitudeMeters>
            <DistanceMeters>7319.0279437615</DistanceMeters>
          </Trackpoint>
          <Trackpoint>
            <Time>2021-03-31T16:02:07.000Z</Time>
            <Position>
              <LatitudeDegrees>42.44405530393123626708984375</LatitudeDegrees>
              <LongitudeDegrees>2.82949514687061309814453125</LongitudeDegrees>
            </Position>
            <AltitudeMeters>711.4000244140625</AltitudeMeters>
            <DistanceMeters>7320.1238452932</DistanceMeters>
          </Trackpoint>
          <Trackpoint>
            <Time>2021-03-31T16:02:11.000Z</Time>
            <Position>
              <LatitudeDegrees>42.44403141550719738006591796875</LatitudeDegrees>
              <LongitudeDegrees>2.82947712577879428863525390625</LongitudeDegrees>
            </Position>
            <AltitudeMeters>711.79998779296875</AltitudeMeters>
            <DistanceMeters>7323.1661845831</DistanceMeters>
          </Trackpoint>
          <Trackpoint>
            <Time>2021-03-31T16:02:15.000Z</Time>
            <Position>
              <LatitudeDegrees>42.444003336131572723388671875</LatitudeDegrees>
              <LongitudeDegrees>2.8294671513140201568603515625</LongitudeDegrees>
            </Position>
            <AltitudeMeters>712.20001220703125</AltitudeMeters>
            <DistanceMeters>7326.3970928717</DistanceMeters>
          </Trackpoint>
          <Trackpoint>
            <Time>2021-03-31T16:02:16.000Z</Time>
            <Position>
              <LatitudeDegrees>42.44399629533290863037109375</LatitudeDegrees>
              <LongitudeDegrees>2.8294607810676097869873046875</LongitudeDegrees>
            </Position>
            <AltitudeMeters>712.4000244140625</AltitudeMeters>
            <DistanceMeters>7327.3378093494</DistanceMeters>
          </Trackpoint>
          <Trackpoint>
            <Time>2021-03-31T16:02:17.000Z</Time>
            <Position>
              <LatitudeDegrees>42.4439924396574497222900390625</LatitudeDegrees>
              <LongitudeDegrees>2.8294584341347217559814453125</LongitudeDegrees>
            </Position>
            <AltitudeMeters>712.4000244140625</AltitudeMeters>
            <DistanceMeters>7327.8129429213</DistanceMeters>
          </Trackpoint>
          <Trackpoint>
            <Time>2021-03-31T16:02:21.000Z</Time>
            <Position>
              <LatitudeDegrees>42.44397458620369434356689453125</LatitudeDegrees>
              <LongitudeDegrees>2.82945147715508937835693359375</LongitudeDegrees>
            </Position>
            <AltitudeMeters>712.5999755859375</AltitudeMeters>
            <DistanceMeters>7329.8818209347</DistanceMeters>
          </Trackpoint>
          <Trackpoint>
            <Time>2021-03-31T16:02:22.000Z</Time>
            <Position>
              <LatitudeDegrees>42.4439729936420917510986328125</LatitudeDegrees>
              <LongitudeDegrees>2.82945181243121623992919921875</LongitudeDegrees>
            </Position>
            <AltitudeMeters>712.5999755859375</AltitudeMeters>
            <DistanceMeters>7330.0718743635</DistanceMeters>
          </Trackpoint>
          <Trackpoint>
            <Time>2021-03-31T16:02:25.000Z</Time>
            <Position>
              <LatitudeDegrees>42.44394541718065738677978515625</LatitudeDegrees>
              <LongitudeDegrees>2.82943882048130035400390625</LongitudeDegrees>
            </Position>
            <AltitudeMeters>712.79998779296875</AltitudeMeters>
            <DistanceMeters>7333.3208987344</DistanceMeters>
          </Trackpoint>
          <Trackpoint>
            <Time>2021-03-31T16:02:30.000Z</Time>
            <Position>
              <LatitudeDegrees>42.4438972212374210357666015625</LatitudeDegrees>
              <LongitudeDegrees>2.82940722070634365081787109375</LongitudeDegrees>
            </Position>
            <AltitudeMeters>713.20001220703125</AltitudeMeters>
            <DistanceMeters>7339.2796117312</DistanceMeters>
          </Trackpoint>
          <Trackpoint>
            <Time>2021-03-31T16:02:33.000Z</Time>
            <Position>
              <LatitudeDegrees>42.443851791322231292724609375</LatitudeDegrees>
              <LongitudeDegrees>2.82942281104624271392822265625</LongitudeDegrees>
            </Position>
            <AltitudeMeters>713.4000244140625</AltitudeMeters>
            <DistanceMeters>7344.4948384999</DistanceMeters>
          </Trackpoint>
          <Trackpoint>
            <Time>2021-03-31T16:02:36.000Z</Time>
            <Position>
              <LatitudeDegrees>42.443822957575321197509765625</LatitudeDegrees>
              <LongitudeDegrees>2.82940118573606014251708984375</LongitudeDegrees>
            </Position>
            <AltitudeMeters>713.4000244140625</AltitudeMeters>
            <DistanceMeters>7348.1641496039</DistanceMeters>
          </Trackpoint>
          <Trackpoint>
            <Time>2021-03-31T16:02:38.000Z</Time>
            <Position>
              <LatitudeDegrees>42.4438003264367580413818359375</LatitudeDegrees>
              <LongitudeDegrees>2.82939062453806400299072265625</LongitudeDegrees>
            </Position>
            <AltitudeMeters>713.5999755859375</AltitudeMeters>
            <DistanceMeters>7350.8282892558</DistanceMeters>
          </Trackpoint>
          <Trackpoint>
            <Time>2021-03-31T16:02:40.000Z</Time>
            <Position>
              <LatitudeDegrees>42.4437818862497806549072265625</LatitudeDegrees>
              <LongitudeDegrees>2.829386852681636810302734375</LongitudeDegrees>
            </Position>
            <AltitudeMeters>713.79998779296875</AltitudeMeters>
            <DistanceMeters>7352.9058783731</DistanceMeters>
          </Trackpoint>
          <Trackpoint>
            <Time>2021-03-31T16:02:42.000Z</Time>
            <Position>
              <LatitudeDegrees>42.443745173513889312744140625</LatitudeDegrees>
              <LongitudeDegrees>2.82938241027295589447021484375</LongitudeDegrees>
            </Position>
            <AltitudeMeters>714.20001220703125</AltitudeMeters>
            <DistanceMeters>7357.0085680386</DistanceMeters>
          </Trackpoint>
          <Trackpoint>
            <Time>2021-03-31T16:02:44.000Z</Time>
            <Position>
              <LatitudeDegrees>42.443715669214725494384765625</LatitudeDegrees>
              <LongitudeDegrees>2.8293870203197002410888671875</LongitudeDegrees>
            </Position>
            <AltitudeMeters>714.4000244140625</AltitudeMeters>
            <DistanceMeters>7360.3140774543</DistanceMeters>
          </Trackpoint>
          <Trackpoint>
            <Time>2021-03-31T16:02:51.000Z</Time>
            <Position>
              <LatitudeDegrees>42.44366898201406002044677734375</LatitudeDegrees>
              <LongitudeDegrees>2.82938241027295589447021484375</LongitudeDegrees>
            </Position>
            <AltitudeMeters>714.79998779296875</AltitudeMeters>
            <DistanceMeters>7365.5258401065</DistanceMeters>
          </Trackpoint>
          <Trackpoint>
            <Time>2021-03-31T16:02:55.000Z</Time>
            <Position>
              <LatitudeDegrees>42.44362874887883663177490234375</LatitudeDegrees>
              <LongitudeDegrees>2.82937050797045230865478515625</LongitudeDegrees>
            </Position>
            <AltitudeMeters>715.20001220703125</AltitudeMeters>
            <DistanceMeters>7370.1108175287</DistanceMeters>
          </Trackpoint>
          <Trackpoint>
            <Time>2021-03-31T16:02:59.000Z</Time>
            <Position>
              <LatitudeDegrees>42.44359019212424755096435546875</LatitudeDegrees>
              <LongitudeDegrees>2.82937034033238887786865234375</LongitudeDegrees>
            </Position>
            <AltitudeMeters>715.5999755859375</AltitudeMeters>
            <DistanceMeters>7374.4028282399</DistanceMeters>
          </Trackpoint>
          <Trackpoint>
            <Time>2021-03-31T16:03:10.000Z</Time>
            <Position>
              <LatitudeDegrees>42.443479634821414947509765625</LatitudeDegrees>
              <LongitudeDegrees>2.82935743220150470733642578125</LongitudeDegrees>
            </Position>
            <AltitudeMeters>716.4000244140625</AltitudeMeters>
            <DistanceMeters>7386.7537424315</DistanceMeters>
          </Trackpoint>
          <Trackpoint>
            <Time>2021-03-31T16:03:12.000Z</Time>
            <Position>
              <LatitudeDegrees>42.44346228428184986114501953125</LatitudeDegrees>
              <LongitudeDegrees>2.82937310636043548583984375</LongitudeDegrees>
            </Position>
            <AltitudeMeters>716.5999755859375</AltitudeMeters>
            <DistanceMeters>7389.0736401794</DistanceMeters>
          </Trackpoint>
          <Trackpoint>
            <Time>2021-03-31T16:03:16.000Z</Time>
            <Position>
              <LatitudeDegrees>42.44343630038201808929443359375</LatitudeDegrees>
              <LongitudeDegrees>2.82939682714641094207763671875</LongitudeDegrees>
            </Position>
            <AltitudeMeters>716.79998779296875</AltitudeMeters>
            <DistanceMeters>7392.5599681751</DistanceMeters>
          </Trackpoint>
          <Trackpoint>
            <Time>2021-03-31T16:03:17.000Z</Time>
            <Position>
              <LatitudeDegrees>42.44343076832592487335205078125</LatitudeDegrees>
              <LongitudeDegrees>2.82940051518380641937255859375</LongitudeDegrees>
            </Position>
            <AltitudeMeters>717</AltitudeMeters>
            <DistanceMeters>7393.2452155575</DistanceMeters>
          </Trackpoint>
          <Trackpoint>
            <Time>2021-03-31T16:03:19.000Z</Time>
            <Position>
              <LatitudeDegrees>42.4434216320514678955078125</LatitudeDegrees>
              <LongitudeDegrees>2.8294111602008342742919921875</LongitudeDegrees>
            </Position>
            <AltitudeMeters>717</AltitudeMeters>
            <DistanceMeters>7394.5823599535</DistanceMeters>
          </Trackpoint>
          <Trackpoint>
            <Time>2021-03-31T16:03:23.000Z</Time>
            <Position>
              <LatitudeDegrees>42.44338097982108592987060546875</LatitudeDegrees>
              <LongitudeDegrees>2.8294265829026699066162109375</LongitudeDegrees>
            </Position>
            <AltitudeMeters>717</AltitudeMeters>
            <DistanceMeters>7399.2821011147</DistanceMeters>
          </Trackpoint>
          <Trackpoint>
            <Time>2021-03-31T16:03:26.000Z</Time>
            <Position>
              <LatitudeDegrees>42.44335390627384185791015625</LatitudeDegrees>
              <LongitudeDegrees>2.8294487111270427703857421875</LongitudeDegrees>
            </Position>
            <AltitudeMeters>717.20001220703125</AltitudeMeters>
            <DistanceMeters>7402.8019398725</DistanceMeters>
          </Trackpoint>
          <Trackpoint>
            <Time>2021-03-31T16:03:30.000Z</Time>
            <Position>
              <LatitudeDegrees>42.44332146830856800079345703125</LatitudeDegrees>
              <LongitudeDegrees>2.82946304418146610260009765625</LongitudeDegrees>
            </Position>
            <AltitudeMeters>717.5999755859375</AltitudeMeters>
            <DistanceMeters>7406.6006320366</DistanceMeters>
          </Trackpoint>
          <Trackpoint>
            <Time>2021-03-31T16:03:34.000Z</Time>
            <Position>
              <LatitudeDegrees>42.4432950653135776519775390625</LatitudeDegrees>
              <LongitudeDegrees>2.8294755332171916961669921875</LongitudeDegrees>
            </Position>
            <AltitudeMeters>718.20001220703125</AltitudeMeters>
            <DistanceMeters>7409.7148417439</DistanceMeters>
          </Trackpoint>
          <Trackpoint>
            <Time>2021-03-31T16:03:38.000Z</Time>
            <Position>
              <LatitudeDegrees>42.44328207336366176605224609375</LatitudeDegrees>
              <LongitudeDegrees>2.829488106071949005126953125</LongitudeDegrees>
            </Position>
            <AltitudeMeters>718.4000244140625</AltitudeMeters>
            <DistanceMeters>7411.495166667</DistanceMeters>
          </Trackpoint>
          <Trackpoint>
            <Time>2021-03-31T16:03:40.000Z</Time>
            <Position>
              <LatitudeDegrees>42.44326581247150897979736328125</LatitudeDegrees>
              <LongitudeDegrees>2.8294936381280422210693359375</LongitudeDegrees>
            </Position>
            <AltitudeMeters>718.4000244140625</AltitudeMeters>
            <DistanceMeters>7413.362145378</DistanceMeters>
          </Trackpoint>
          <Trackpoint>
            <Time>2021-03-31T16:03:41.000Z</Time>
            <Position>
              <LatitudeDegrees>42.4432591907680034637451171875</LatitudeDegrees>
              <LongitudeDegrees>2.82949338667094707489013671875</LongitudeDegrees>
            </Position>
            <AltitudeMeters>718.4000244140625</AltitudeMeters>
            <DistanceMeters>7414.0982191424</DistanceMeters>
          </Trackpoint>
          <Trackpoint>
            <Time>2021-03-31T16:03:44.000Z</Time>
            <Position>
              <LatitudeDegrees>42.44323429651558399200439453125</LatitudeDegrees>
              <LongitudeDegrees>2.82948978245258331298828125</LongitudeDegrees>
            </Position>
            <AltitudeMeters>718.5999755859375</AltitudeMeters>
            <DistanceMeters>7416.8849494382</DistanceMeters>
          </Trackpoint>
          <Trackpoint>
            <Time>2021-03-31T16:03:46.000Z</Time>
            <Position>
              <LatitudeDegrees>42.44322440586984157562255859375</LatitudeDegrees>
              <LongitudeDegrees>2.8295011818408966064453125</LongitudeDegrees>
            </Position>
            <AltitudeMeters>719</AltitudeMeters>
            <DistanceMeters>7418.3323532295</DistanceMeters>
          </Trackpoint>
          <Trackpoint>
            <Time>2021-03-31T16:03:51.000Z</Time>
            <Position>
              <LatitudeDegrees>42.44317025877535343170166015625</LatitudeDegrees>
              <LongitudeDegrees>2.8294859267771244049072265625</LongitudeDegrees>
            </Position>
            <AltitudeMeters>719.5999755859375</AltitudeMeters>
            <DistanceMeters>7424.4878548954</DistanceMeters>
          </Trackpoint>
          <Trackpoint>
            <Time>2021-03-31T16:03:53.000Z</Time>
            <Position>
              <LatitudeDegrees>42.443141005933284759521484375</LatitudeDegrees>
              <LongitudeDegrees>2.82948617823421955108642578125</LongitudeDegrees>
            </Position>
            <AltitudeMeters>720</AltitudeMeters>
            <DistanceMeters>7427.7438201509</DistanceMeters>
          </Trackpoint>
          <Trackpoint>
            <Time>2021-03-31T16:03:57.000Z</Time>
            <Position>
              <LatitudeDegrees>42.4430970847606658935546875</LatitudeDegrees>
              <LongitudeDegrees>2.829502858221530914306640625</LongitudeDegrees>
            </Position>
            <AltitudeMeters>720.4000244140625</AltitudeMeters>
            <DistanceMeters>7432.8204172564</DistanceMeters>
          </Trackpoint>
          <Trackpoint>
            <Time>2021-03-31T16:04:00.000Z</Time>
            <Position>
              <LatitudeDegrees>42.44306079111993312835693359375</LatitudeDegrees>
              <LongitudeDegrees>2.82950428314507007598876953125</LongitudeDegrees>
            </Position>
            <AltitudeMeters>720.79998779296875</AltitudeMeters>
            <DistanceMeters>7436.8621258415</DistanceMeters>
          </Trackpoint>
          <Trackpoint>
            <Time>2021-03-31T16:04:01.000Z</Time>
            <Position>
              <LatitudeDegrees>42.4430516548454761505126953125</LatitudeDegrees>
              <LongitudeDegrees>2.82950193621218204498291015625</LongitudeDegrees>
            </Position>
            <AltitudeMeters>720.79998779296875</AltitudeMeters>
            <DistanceMeters>7437.8987449118</DistanceMeters>
          </Trackpoint>
          <Trackpoint>
            <Time>2021-03-31T16:04:08.000Z</Time>
            <Position>
              <LatitudeDegrees>42.44295316748321056365966796875</LatitudeDegrees>
              <LongitudeDegrees>2.829470671713352203369140625</LongitudeDegrees>
            </Position>
            <AltitudeMeters>721.4000244140625</AltitudeMeters>
            <DistanceMeters>7449.1577063701</DistanceMeters>
          </Trackpoint>
          <Trackpoint>
            <Time>2021-03-31T16:04:12.000Z</Time>
            <Position>
              <LatitudeDegrees>42.4429178796708583831787109375</LatitudeDegrees>
              <LongitudeDegrees>2.82945466227829456329345703125</LongitudeDegrees>
            </Position>
            <AltitudeMeters>721.79998779296875</AltitudeMeters>
            <DistanceMeters>7453.3009147066</DistanceMeters>
          </Trackpoint>
          <Trackpoint>
            <Time>2021-03-31T16:04:17.000Z</Time>
            <Position>
              <LatitudeDegrees>42.44286582805216312408447265625</LatitudeDegrees>
              <LongitudeDegrees>2.82941468060016632080078125</LongitudeDegrees>
            </Position>
            <AltitudeMeters>722.20001220703125</AltitudeMeters>
            <DistanceMeters>7459.9602469116</DistanceMeters>
          </Trackpoint>
          <Trackpoint>
            <Time>2021-03-31T16:04:20.000Z</Time>
            <Position>
              <LatitudeDegrees>42.44284386746585369110107421875</LatitudeDegrees>
              <LongitudeDegrees>2.8293853439390659332275390625</LongitudeDegrees>
            </Position>
            <AltitudeMeters>722.5999755859375</AltitudeMeters>
            <DistanceMeters>7463.3917509088</DistanceMeters>
          </Trackpoint>
          <Trackpoint>
            <Time>2021-03-31T16:04:21.000Z</Time>
            <Position>
              <LatitudeDegrees>42.44284537620842456817626953125</LatitudeDegrees>
              <LongitudeDegrees>2.82938341610133647918701171875</LongitudeDegrees>
            </Position>
            <AltitudeMeters>722.79998779296875</AltitudeMeters>
            <DistanceMeters>7463.624517871</DistanceMeters>
          </Trackpoint>
          <Trackpoint>
            <Time>2021-03-31T16:04:23.000Z</Time>
            <Position>
              <LatitudeDegrees>42.44283196516335010528564453125</LatitudeDegrees>
              <LongitudeDegrees>2.829367406666278839111328125</LongitudeDegrees>
            </Position>
            <AltitudeMeters>723</AltitudeMeters>
            <DistanceMeters>7465.615548649</DistanceMeters>
          </Trackpoint>
          <Trackpoint>
            <Time>2021-03-31T16:04:31.000Z</Time>
            <Position>
              <LatitudeDegrees>42.44277077727019786834716796875</LatitudeDegrees>
              <LongitudeDegrees>2.82931468449532985687255859375</LongitudeDegrees>
            </Position>
            <AltitudeMeters>723.5999755859375</AltitudeMeters>
            <DistanceMeters>7473.6855493499</DistanceMeters>
          </Trackpoint>
          <Trackpoint>
            <Time>2021-03-31T16:04:33.000Z</Time>
            <Position>
              <LatitudeDegrees>42.442757785320281982421875</LatitudeDegrees>
              <LongitudeDegrees>2.82929909415543079376220703125</LongitudeDegrees>
            </Position>
            <AltitudeMeters>723.5999755859375</AltitudeMeters>
            <DistanceMeters>7475.6167203862</DistanceMeters>
          </Trackpoint>
          <Trackpoint>
            <Time>2021-03-31T16:04:35.000Z</Time>
            <Position>
              <LatitudeDegrees>42.44273699820041656494140625</LatitudeDegrees>
              <LongitudeDegrees>2.82927076332271099090576171875</LongitudeDegrees>
            </Position>
            <AltitudeMeters>723.79998779296875</AltitudeMeters>
            <DistanceMeters>7478.8975512446</DistanceMeters>
          </Trackpoint>
          <Trackpoint>
            <Time>2021-03-31T16:04:37.000Z</Time>
            <Position>
              <LatitudeDegrees>42.44272115640342235565185546875</LatitudeDegrees>
              <LongitudeDegrees>2.829245030879974365234375</LongitudeDegrees>
            </Position>
            <AltitudeMeters>724.20001220703125</AltitudeMeters>
            <DistanceMeters>7481.6500472276</DistanceMeters>
          </Trackpoint>
          <Trackpoint>
            <Time>2021-03-31T16:04:38.000Z</Time>
            <Position>
              <LatitudeDegrees>42.4427150376141071319580078125</LatitudeDegrees>
              <LongitudeDegrees>2.82923338003456592559814453125</LongitudeDegrees>
            </Position>
            <AltitudeMeters>724.4000244140625</AltitudeMeters>
            <DistanceMeters>7482.821615245</DistanceMeters>
          </Trackpoint>
          <Trackpoint>
            <Time>2021-03-31T16:04:39.000Z</Time>
            <Position>
              <LatitudeDegrees>42.44271394796669483184814453125</LatitudeDegrees>
              <LongitudeDegrees>2.8292177058756351470947265625</LongitudeDegrees>
            </Position>
            <AltitudeMeters>724.4000244140625</AltitudeMeters>
            <DistanceMeters>7484.1176068417</DistanceMeters>
          </Trackpoint>
          <Trackpoint>
            <Time>2021-03-31T16:04:44.000Z</Time>
            <Position>
              <LatitudeDegrees>42.442678324878215789794921875</LatitudeDegrees>
              <LongitudeDegrees>2.8291342221200466156005859375</LongitudeDegrees>
            </Position>
            <AltitudeMeters>724.79998779296875</AltitudeMeters>
            <DistanceMeters>7492.038526683</DistanceMeters>
          </Trackpoint>
          <Trackpoint>
            <Time>2021-03-31T16:04:45.000Z</Time>
            <Position>
              <LatitudeDegrees>42.44267840869724750518798828125</LatitudeDegrees>
              <LongitudeDegrees>2.82911871559917926788330078125</LongitudeDegrees>
            </Position>
            <AltitudeMeters>724.79998779296875</AltitudeMeters>
            <DistanceMeters>7493.3134438411</DistanceMeters>
          </Trackpoint>
          <Trackpoint>
            <Time>2021-03-31T16:04:48.000Z</Time>
            <Position>
              <LatitudeDegrees>42.44268025271594524383544921875</LatitudeDegrees>
              <LongitudeDegrees>2.8290852718055248260498046875</LongitudeDegrees>
            </Position>
            <AltitudeMeters>725</AltitudeMeters>
            <DistanceMeters>7496.0675796788</DistanceMeters>
          </Trackpoint>
          <Trackpoint>
            <Time>2021-03-31T16:04:50.000Z</Time>
            <Position>
              <LatitudeDegrees>42.44268008507788181304931640625</LatitudeDegrees>
              <LongitudeDegrees>2.82906523905694484710693359375</LongitudeDegrees>
            </Position>
            <AltitudeMeters>725.20001220703125</AltitudeMeters>
            <DistanceMeters>7497.7134906525</DistanceMeters>
          </Trackpoint>
          <Trackpoint>
            <Time>2021-03-31T16:04:52.000Z</Time>
            <Position>
              <LatitudeDegrees>42.4426746368408203125</LatitudeDegrees>
              <LongitudeDegrees>2.82904009334743022918701171875</LongitudeDegrees>
            </Position>
            <AltitudeMeters>725.4000244140625</AltitudeMeters>
            <DistanceMeters>7499.8636997445</DistanceMeters>
          </Trackpoint>
          <Trackpoint>
            <Time>2021-03-31T16:04:54.000Z</Time>
            <Position>
              <LatitudeDegrees>42.442666925489902496337890625</LatitudeDegrees>
              <LongitudeDegrees>2.82902777194976806640625</LongitudeDegrees>
            </Position>
            <AltitudeMeters>725.5999755859375</AltitudeMeters>
            <DistanceMeters>7501.1872687189</DistanceMeters>
          </Trackpoint>
          <Trackpoint>
            <Time>2021-03-31T16:04:55.000Z</Time>
            <Position>
              <LatitudeDegrees>42.4426577053964138031005859375</LatitudeDegrees>
              <LongitudeDegrees>2.8290205635130405426025390625</LongitudeDegrees>
            </Position>
            <AltitudeMeters>725.79998779296875</AltitudeMeters>
            <DistanceMeters>7502.374152001</DistanceMeters>
          </Trackpoint>
          <Trackpoint>
            <Time>2021-03-31T16:04:56.000Z</Time>
            <Position>
              <LatitudeDegrees>42.4426556937396526336669921875</LatitudeDegrees>
              <LongitudeDegrees>2.82901628874242305755615234375</LongitudeDegrees>
            </Position>
            <AltitudeMeters>726</AltitudeMeters>
            <DistanceMeters>7502.7883638459</DistanceMeters>
          </Trackpoint>
          <Trackpoint>
            <Time>2021-03-31T16:05:00.000Z</Time>
            <Position>
              <LatitudeDegrees>42.44263431988656520843505859375</LatitudeDegrees>
              <LongitudeDegrees>2.82896465621888637542724609375</LongitudeDegrees>
            </Position>
            <AltitudeMeters>726.4000244140625</AltitudeMeters>
            <DistanceMeters>7507.6514667861</DistanceMeters>
          </Trackpoint>
          <Trackpoint>
            <Time>2021-03-31T16:05:01.000Z</Time>
            <Position>
              <LatitudeDegrees>42.4426328949630260467529296875</LatitudeDegrees>
              <LongitudeDegrees>2.82895308919250965118408203125</LongitudeDegrees>
            </Position>
            <AltitudeMeters>726.4000244140625</AltitudeMeters>
            <DistanceMeters>7508.6111895571</DistanceMeters>
          </Trackpoint>
          <Trackpoint>
            <Time>2021-03-31T16:05:04.000Z</Time>
            <Position>
              <LatitudeDegrees>42.4426181428134441375732421875</LatitudeDegrees>
              <LongitudeDegrees>2.8289164602756500244140625</LongitudeDegrees>
            </Position>
            <AltitudeMeters>727</AltitudeMeters>
            <DistanceMeters>7512.0374264691</DistanceMeters>
          </Trackpoint>
          <Trackpoint>
            <Time>2021-03-31T16:05:05.000Z</Time>
            <Position>
              <LatitudeDegrees>42.44261621497571468353271484375</LatitudeDegrees>
              <LongitudeDegrees>2.828906737267971038818359375</LongitudeDegrees>
            </Position>
            <AltitudeMeters>727</AltitudeMeters>
            <DistanceMeters>7512.8658501589</DistanceMeters>
          </Trackpoint>
          <Trackpoint>
            <Time>2021-03-31T16:05:06.000Z</Time>
            <Position>
              <LatitudeDegrees>42.44262141175568103790283203125</LatitudeDegrees>
              <LongitudeDegrees>2.8288968466222286224365234375</LongitudeDegrees>
            </Position>
            <AltitudeMeters>727</AltitudeMeters>
            <DistanceMeters>7513.8624987473</DistanceMeters>
          </Trackpoint>
          <Trackpoint>
            <Time>2021-03-31T16:05:09.000Z</Time>
            <Position>
              <LatitudeDegrees>42.44261822663247585296630859375</LatitudeDegrees>
              <LongitudeDegrees>2.82886080443859100341796875</LongitudeDegrees>
            </Position>
            <AltitudeMeters>727</AltitudeMeters>
            <DistanceMeters>7516.8433703012</DistanceMeters>
          </Trackpoint>
          <Trackpoint>
            <Time>2021-03-31T16:05:11.000Z</Time>
            <Position>
              <LatitudeDegrees>42.44261336512863636016845703125</LatitudeDegrees>
              <LongitudeDegrees>2.8288348205387592315673828125</LongitudeDegrees>
            </Position>
            <AltitudeMeters>727</AltitudeMeters>
            <DistanceMeters>7519.0433977951</DistanceMeters>
          </Trackpoint>
          <Trackpoint>
            <Time>2021-03-31T16:05:14.000Z</Time>
            <Position>
              <LatitudeDegrees>42.4425953440368175506591796875</LatitudeDegrees>
              <LongitudeDegrees>2.82879483886063098907470703125</LongitudeDegrees>
            </Position>
            <AltitudeMeters>727.20001220703125</AltitudeMeters>
            <DistanceMeters>7522.8916864236</DistanceMeters>
          </Trackpoint>
          <Trackpoint>
            <Time>2021-03-31T16:05:16.000Z</Time>
            <Position>
              <LatitudeDegrees>42.44258503429591655731201171875</LatitudeDegrees>
              <LongitudeDegrees>2.8287689387798309326171875</LongitudeDegrees>
            </Position>
            <AltitudeMeters>727.5999755859375</AltitudeMeters>
            <DistanceMeters>7525.3088044305</DistanceMeters>
          </Trackpoint>
          <Trackpoint>
            <Time>2021-03-31T16:05:19.000Z</Time>
            <Position>
              <LatitudeDegrees>42.44257296435534954071044921875</LatitudeDegrees>
              <LongitudeDegrees>2.82872736454010009765625</LongitudeDegrees>
            </Position>
            <AltitudeMeters>727.79998779296875</AltitudeMeters>
            <DistanceMeters>7528.9793458148</DistanceMeters>
          </Trackpoint>
          <Trackpoint>
            <Time>2021-03-31T16:05:22.000Z</Time>
            <Position>
              <LatitudeDegrees>42.44256273843348026275634765625</LatitudeDegrees>
              <LongitudeDegrees>2.82869182527065277099609375</LongitudeDegrees>
            </Position>
            <AltitudeMeters>727.79998779296875</AltitudeMeters>
            <DistanceMeters>7532.1137872597</DistanceMeters>
          </Trackpoint>
          <Trackpoint>
            <Time>2021-03-31T16:05:23.000Z</Time>
            <Position>
              <LatitudeDegrees>42.44256190024316310882568359375</LatitudeDegrees>
              <LongitudeDegrees>2.82868118025362491607666015625</LongitudeDegrees>
            </Position>
            <AltitudeMeters>728</AltitudeMeters>
            <DistanceMeters>7532.9950287556</DistanceMeters>
          </Trackpoint>
          <Trackpoint>
            <Time>2021-03-31T16:05:25.000Z</Time>
            <Position>
              <LatitudeDegrees>42.44255754165351390838623046875</LatitudeDegrees>
              <LongitudeDegrees>2.82866458408534526824951171875</LongitudeDegrees>
            </Position>
            <AltitudeMeters>728.20001220703125</AltitudeMeters>
            <DistanceMeters>7534.4424325469</DistanceMeters>
          </Trackpoint>
          <Trackpoint>
            <Time>2021-03-31T16:05:26.000Z</Time>
            <Position>
              <LatitudeDegrees>42.44255368597805500030517578125</LatitudeDegrees>
              <LongitudeDegrees>2.82865754328668117523193359375</LongitudeDegrees>
            </Position>
            <AltitudeMeters>728.20001220703125</AltitudeMeters>
            <DistanceMeters>7535.1661344425</DistanceMeters>
          </Trackpoint>
          <Trackpoint>
            <Time>2021-03-31T16:05:28.000Z</Time>
            <Position>
              <LatitudeDegrees>42.44254630990326404571533203125</LatitudeDegrees>
              <LongitudeDegrees>2.828635163605213165283203125</LongitudeDegrees>
            </Position>
            <AltitudeMeters>728.4000244140625</AltitudeMeters>
            <DistanceMeters>7537.1774708756</DistanceMeters>
          </Trackpoint>
          <Trackpoint>
            <Time>2021-03-31T16:05:29.000Z</Time>
            <Position>
              <LatitudeDegrees>42.4425420351326465606689453125</LatitudeDegrees>
              <LongitudeDegrees>2.82861881889402866363525390625</LongitudeDegrees>
            </Position>
            <AltitudeMeters>728.4000244140625</AltitudeMeters>
            <DistanceMeters>7538.5997005066</DistanceMeters>
          </Trackpoint>
          <Trackpoint>
            <Time>2021-03-31T16:05:32.000Z</Time>
            <Position>
              <LatitudeDegrees>42.44252518750727176666259765625</LatitudeDegrees>
              <LongitudeDegrees>2.8285773284733295440673828125</LongitudeDegrees>
            </Position>
            <AltitudeMeters>728.5999755859375</AltitudeMeters>
            <DistanceMeters>7542.4899971688</DistanceMeters>
          </Trackpoint>
          <Trackpoint>
            <Time>2021-03-31T16:05:34.000Z</Time>
            <Position>
              <LatitudeDegrees>42.44250255636870861053466796875</LatitudeDegrees>
              <LongitudeDegrees>2.8285595588386058807373046875</LongitudeDegrees>
            </Position>
            <AltitudeMeters>728.79998779296875</AltitudeMeters>
            <DistanceMeters>7545.400359982</DistanceMeters>
          </Trackpoint>
          <Trackpoint>
            <Time>2021-03-31T16:05:36.000Z</Time>
            <Position>
              <LatitudeDegrees>42.44248596020042896270751953125</LatitudeDegrees>
              <LongitudeDegrees>2.8285302221775054931640625</LongitudeDegrees>
            </Position>
            <AltitudeMeters>729</AltitudeMeters>
            <DistanceMeters>7548.4367571974</DistanceMeters>
          </Trackpoint>
          <Trackpoint>
            <Time>2021-03-31T16:05:37.000Z</Time>
            <Position>
              <LatitudeDegrees>42.44248227216303348541259765625</LatitudeDegrees>
              <LongitudeDegrees>2.82852058298885822296142578125</LongitudeDegrees>
            </Position>
            <AltitudeMeters>729.20001220703125</AltitudeMeters>
            <DistanceMeters>7549.3281867947</DistanceMeters>
          </Trackpoint>
          <Trackpoint>
            <Time>2021-03-31T16:05:38.000Z</Time>
            <Position>
              <LatitudeDegrees>42.4424694478511810302734375</LatitudeDegrees>
              <LongitudeDegrees>2.82850801013410091400146484375</LongitudeDegrees>
            </Position>
            <AltitudeMeters>729.20001220703125</AltitudeMeters>
            <DistanceMeters>7551.0906697866</DistanceMeters>
          </Trackpoint>
          <Trackpoint>
            <Time>2021-03-31T16:05:39.000Z</Time>
            <Position>
              <LatitudeDegrees>42.44245679117739200592041015625</LatitudeDegrees>
              <LongitudeDegrees>2.828497029840946197509765625</LongitudeDegrees>
            </Position>
            <AltitudeMeters>729.4000244140625</AltitudeMeters>
            <DistanceMeters>7552.7637877435</DistanceMeters>
          </Trackpoint>
          <Trackpoint>
            <Time>2021-03-31T16:05:43.000Z</Time>
            <Position>
              <LatitudeDegrees>42.44242661632597446441650390625</LatitudeDegrees>
              <LongitudeDegrees>2.8284599818289279937744140625</LongitudeDegrees>
            </Position>
            <AltitudeMeters>729.4000244140625</AltitudeMeters>
            <DistanceMeters>7557.2952768844</DistanceMeters>
          </Trackpoint>
          <Trackpoint>
            <Time>2021-03-31T16:05:44.000Z</Time>
            <Position>
              <LatitudeDegrees>42.44241756387054920196533203125</LatitudeDegrees>
              <LongitudeDegrees>2.828451432287693023681640625</LongitudeDegrees>
            </Position>
            <AltitudeMeters>729.4000244140625</AltitudeMeters>
            <DistanceMeters>7558.5232926685</DistanceMeters>
          </Trackpoint>
          <Trackpoint>
            <Time>2021-03-31T16:05:46.000Z</Time>
            <Position>
              <LatitudeDegrees>42.44240398518741130828857421875</LatitudeDegrees>
              <LongitudeDegrees>2.8284371830523014068603515625</LongitudeDegrees>
            </Position>
            <AltitudeMeters>729.5999755859375</AltitudeMeters>
            <DistanceMeters>7560.4333059887</DistanceMeters>
          </Trackpoint>
          <Trackpoint>
            <Time>2021-03-31T16:05:47.000Z</Time>
            <Position>
              <LatitudeDegrees>42.442395351827144622802734375</LatitudeDegrees>
              <LongitudeDegrees>2.82842896878719329833984375</LongitudeDegrees>
            </Position>
            <AltitudeMeters>729.4000244140625</AltitudeMeters>
            <DistanceMeters>7561.6125565017</DistanceMeters>
          </Trackpoint>
          <Trackpoint>
            <Time>2021-03-31T16:05:52.000Z</Time>
            <Position>
              <LatitudeDegrees>42.44234740734100341796875</LatitudeDegrees>
              <LongitudeDegrees>2.82839921303093433380126953125</LongitudeDegrees>
            </Position>
            <AltitudeMeters>729.79998779296875</AltitudeMeters>
            <DistanceMeters>7567.4827159297</DistanceMeters>
          </Trackpoint>
          <Trackpoint>
            <Time>2021-03-31T16:05:56.000Z</Time>
            <Position>
              <LatitudeDegrees>42.44231681339442729949951171875</LatitudeDegrees>
              <LongitudeDegrees>2.82837742008268833160400390625</LongitudeDegrees>
            </Position>
            <AltitudeMeters>729.79998779296875</AltitudeMeters>
            <DistanceMeters>7571.3298311205</DistanceMeters>
          </Trackpoint>
          <Trackpoint>
            <Time>2021-03-31T16:05:59.000Z</Time>
            <Position>
              <LatitudeDegrees>42.442290075123310089111328125</LatitudeDegrees>
              <LongitudeDegrees>2.8283610753715038299560546875</LongitudeDegrees>
            </Position>
            <AltitudeMeters>730</AltitudeMeters>
            <DistanceMeters>7574.5941059564</DistanceMeters>
          </Trackpoint>
          <Trackpoint>
            <Time>2021-03-31T16:06:02.000Z</Time>
            <Position>
              <LatitudeDegrees>42.442264594137668609619140625</LatitudeDegrees>
              <LongitudeDegrees>2.8283424675464630126953125</LongitudeDegrees>
            </Position>
            <AltitudeMeters>730.20001220703125</AltitudeMeters>
            <DistanceMeters>7577.8152172295</DistanceMeters>
          </Trackpoint>
          <Trackpoint>
            <Time>2021-03-31T16:06:06.000Z</Time>
            <Position>
              <LatitudeDegrees>42.4422315694391727447509765625</LatitudeDegrees>
              <LongitudeDegrees>2.82832478173077106475830078125</LongitudeDegrees>
            </Position>
            <AltitudeMeters>730.5999755859375</AltitudeMeters>
            <DistanceMeters>7581.7654035663</DistanceMeters>
          </Trackpoint>
          <Trackpoint>
            <Time>2021-03-31T16:06:10.000Z</Time>
            <Position>
              <LatitudeDegrees>42.44219426997005939483642578125</LatitudeDegrees>
              <LongitudeDegrees>2.828316986560821533203125</LongitudeDegrees>
            </Position>
            <AltitudeMeters>731</AltitudeMeters>
            <DistanceMeters>7585.9659713103</DistanceMeters>
          </Trackpoint>
          <Trackpoint>
            <Time>2021-03-31T16:06:12.000Z</Time>
            <Position>
              <LatitudeDegrees>42.4421755783259868621826171875</LatitudeDegrees>
              <LongitudeDegrees>2.82830961048603057861328125</LongitudeDegrees>
            </Position>
            <AltitudeMeters>731.20001220703125</AltitudeMeters>
            <DistanceMeters>7588.1329137993</DistanceMeters>
          </Trackpoint>
          <Trackpoint>
            <Time>2021-03-31T16:06:15.000Z</Time>
            <Position>
              <LatitudeDegrees>42.4421460740268230438232421875</LatitudeDegrees>
              <LongitudeDegrees>2.82830432988703250885009765625</LongitudeDegrees>
            </Position>
            <AltitudeMeters>732</AltitudeMeters>
            <DistanceMeters>7591.4452457391</DistanceMeters>
          </Trackpoint>
          <Trackpoint>
            <Time>2021-03-31T16:06:16.000Z</Time>
            <Position>
              <LatitudeDegrees>42.4421350099146366119384765625</LatitudeDegrees>
              <LongitudeDegrees>2.82830131240189075469970703125</LongitudeDegrees>
            </Position>
            <AltitudeMeters>732.5999755859375</AltitudeMeters>
            <DistanceMeters>7592.7023310098</DistanceMeters>
          </Trackpoint>
          <Trackpoint>
            <Time>2021-03-31T16:06:21.000Z</Time>
            <Position>
              <LatitudeDegrees>42.4420796893537044525146484375</LatitudeDegrees>
              <LongitudeDegrees>2.82828605733811855316162109375</LongitudeDegrees>
            </Position>
            <AltitudeMeters>732.79998779296875</AltitudeMeters>
            <DistanceMeters>7598.9856019901</DistanceMeters>
          </Trackpoint>
          <Trackpoint>
            <Time>2021-03-31T16:06:26.000Z</Time>
            <Position>
              <LatitudeDegrees>42.44202545844018459320068359375</LatitudeDegrees>
              <LongitudeDegrees>2.8282742388546466827392578125</LongitudeDegrees>
            </Position>
            <AltitudeMeters>732.79998779296875</AltitudeMeters>
            <DistanceMeters>7605.0998898864</DistanceMeters>
          </Trackpoint>
          <Trackpoint>
            <Time>2021-03-31T16:06:36.000Z</Time>
            <Position>
              <LatitudeDegrees>42.441908530890941619873046875</LatitudeDegrees>
              <LongitudeDegrees>2.8282222710549831390380859375</LongitudeDegrees>
            </Position>
            <AltitudeMeters>733.5999755859375</AltitudeMeters>
            <DistanceMeters>7618.7962692637</DistanceMeters>
          </Trackpoint>
          <Trackpoint>
            <Time>2021-03-31T16:06:37.000Z</Time>
            <Position>
              <LatitudeDegrees>42.441899143159389495849609375</LatitudeDegrees>
              <LongitudeDegrees>2.828218080103397369384765625</LongitudeDegrees>
            </Position>
            <AltitudeMeters>733.5999755859375</AltitudeMeters>
            <DistanceMeters>7619.8962830106</DistanceMeters>
          </Trackpoint>
          <Trackpoint>
            <Time>2021-03-31T16:06:46.000Z</Time>
            <Position>
              <LatitudeDegrees>42.44180836714804172515869140625</LatitudeDegrees>
              <LongitudeDegrees>2.8281696327030658721923828125</LongitudeDegrees>
            </Position>
            <AltitudeMeters>734.5999755859375</AltitudeMeters>
            <DistanceMeters>7630.7555540857</DistanceMeters>
          </Trackpoint>
          <Trackpoint>
            <Time>2021-03-31T16:06:49.000Z</Time>
            <Position>
              <LatitudeDegrees>42.4417735822498798370361328125</LatitudeDegrees>
              <LongitudeDegrees>2.828157059848308563232421875</LongitudeDegrees>
            </Position>
            <AltitudeMeters>734.5999755859375</AltitudeMeters>
            <DistanceMeters>7634.7624825749</DistanceMeters>
          </Trackpoint>
          <Trackpoint>
            <Time>2021-03-31T16:06:51.000Z</Time>
            <Position>
              <LatitudeDegrees>42.44175220839679241180419921875</LatitudeDegrees>
              <LongitudeDegrees>2.828145660459995269775390625</LongitudeDegrees>
            </Position>
            <AltitudeMeters>734.79998779296875</AltitudeMeters>
            <DistanceMeters>7637.3176235238</DistanceMeters>
          </Trackpoint>
          <Trackpoint>
            <Time>2021-03-31T16:06:54.000Z</Time>
            <Position>
              <LatitudeDegrees>42.44172387756407260894775390625</LatitudeDegrees>
              <LongitudeDegrees>2.82811741344630718231201171875</LongitudeDegrees>
            </Position>
            <AltitudeMeters>735</AltitudeMeters>
            <DistanceMeters>7641.2333699152</DistanceMeters>
          </Trackpoint>
          <Trackpoint>
            <Time>2021-03-31T16:07:02.000Z</Time>
            <Position>
              <LatitudeDegrees>42.4416553974151611328125</LatitudeDegrees>
              <LongitudeDegrees>2.82805203460156917572021484375</LongitudeDegrees>
            </Position>
            <AltitudeMeters>735.4000244140625</AltitudeMeters>
            <DistanceMeters>7650.556648086</DistanceMeters>
          </Trackpoint>
          <Trackpoint>
            <Time>2021-03-31T16:07:03.000Z</Time>
            <Position>
              <LatitudeDegrees>42.44164609350264072418212890625</LatitudeDegrees>
              <LongitudeDegrees>2.8280405513942241668701171875</LongitudeDegrees>
            </Position>
            <AltitudeMeters>735.4000244140625</AltitudeMeters>
            <DistanceMeters>7651.9597007096</DistanceMeters>
          </Trackpoint>
          <Trackpoint>
            <Time>2021-03-31T16:07:08.000Z</Time>
            <Position>
              <LatitudeDegrees>42.4416062794625759124755859375</LatitudeDegrees>
              <LongitudeDegrees>2.82800626941025257110595703125</LongitudeDegrees>
            </Position>
            <AltitudeMeters>735.79998779296875</AltitudeMeters>
            <DistanceMeters>7657.209442923</DistanceMeters>
          </Trackpoint>
          <Trackpoint>
            <Time>2021-03-31T16:07:09.000Z</Time>
            <Position>
              <LatitudeDegrees>42.4415965564548969268798828125</LatitudeDegrees>
              <LongitudeDegrees>2.82799839042127132415771484375</LongitudeDegrees>
            </Position>
            <AltitudeMeters>735.79998779296875</AltitudeMeters>
            <DistanceMeters>7658.4701147495</DistanceMeters>
          </Trackpoint>
          <Trackpoint>
            <Time>2021-03-31T16:07:14.000Z</Time>
            <Position>
              <LatitudeDegrees>42.44154936634004116058349609375</LatitudeDegrees>
              <LongitudeDegrees>2.82795161940157413482666015625</LongitudeDegrees>
            </Position>
            <AltitudeMeters>735.79998779296875</AltitudeMeters>
            <DistanceMeters>7664.97719001</DistanceMeters>
          </Trackpoint>
          <Trackpoint>
            <Time>2021-03-31T16:07:18.000Z</Time>
            <Position>
              <LatitudeDegrees>42.4414993263781070709228515625</LatitudeDegrees>
              <LongitudeDegrees>2.82791742123663425445556640625</LongitudeDegrees>
            </Position>
            <AltitudeMeters>736</AltitudeMeters>
            <DistanceMeters>7671.215026125</DistanceMeters>
          </Trackpoint>
          <Trackpoint>
            <Time>2021-03-31T16:07:21.000Z</Time>
            <Position>
              <LatitudeDegrees>42.4414735101163387298583984375</LatitudeDegrees>
              <LongitudeDegrees>2.82790887169539928436279296875</LongitudeDegrees>
            </Position>
            <AltitudeMeters>736.5999755859375</AltitudeMeters>
            <DistanceMeters>7674.1715636265</DistanceMeters>
          </Trackpoint>
          <Trackpoint>
            <Time>2021-03-31T16:07:24.000Z</Time>
            <Position>
              <LatitudeDegrees>42.4414406530559062957763671875</LatitudeDegrees>
              <LongitudeDegrees>2.82789294607937335968017578125</LongitudeDegrees>
            </Position>
            <AltitudeMeters>736.5999755859375</AltitudeMeters>
            <DistanceMeters>7678.0560530058</DistanceMeters>
          </Trackpoint>
          <Trackpoint>
            <Time>2021-03-31T16:07:27.000Z</Time>
            <Position>
              <LatitudeDegrees>42.44141022674739360809326171875</LatitudeDegrees>
              <LongitudeDegrees>2.82787282951176166534423828125</LongitudeDegrees>
            </Position>
            <AltitudeMeters>736.4000244140625</AltitudeMeters>
            <DistanceMeters>7681.8237154336</DistanceMeters>
          </Trackpoint>
          <Trackpoint>
            <Time>2021-03-31T16:07:29.000Z</Time>
            <Position>
              <LatitudeDegrees>42.4413843266665935516357421875</LatitudeDegrees>
              <LongitudeDegrees>2.82785455696284770965576171875</LongitudeDegrees>
            </Position>
            <AltitudeMeters>736.4000244140625</AltitudeMeters>
            <DistanceMeters>7685.0741291671</DistanceMeters>
          </Trackpoint>
          <Trackpoint>
            <Time>2021-03-31T16:07:34.000Z</Time>
            <Position>
              <LatitudeDegrees>42.44134895503520965576171875</LatitudeDegrees>
              <LongitudeDegrees>2.8278249688446521759033203125</LongitudeDegrees>
            </Position>
            <AltitudeMeters>736.79998779296875</AltitudeMeters>
            <DistanceMeters>7689.7002810423</DistanceMeters>
          </Trackpoint>
          <Trackpoint>
            <Time>2021-03-31T16:07:37.000Z</Time>
            <Position>
              <LatitudeDegrees>42.4413202889263629913330078125</LatitudeDegrees>
              <LongitudeDegrees>2.82780460081994533538818359375</LongitudeDegrees>
            </Position>
            <AltitudeMeters>737</AltitudeMeters>
            <DistanceMeters>7693.3025330948</DistanceMeters>
          </Trackpoint>
          <Trackpoint>
            <Time>2021-03-31T16:07:45.000Z</Time>
            <Position>
              <LatitudeDegrees>42.44124024175107479095458984375</LatitudeDegrees>
              <LongitudeDegrees>2.82775632105767726898193359375</LongitudeDegrees>
            </Position>
            <AltitudeMeters>737</AltitudeMeters>
            <DistanceMeters>7703.0547002954</DistanceMeters>
          </Trackpoint>
          <Trackpoint>
            <Time>2021-03-31T16:07:47.000Z</Time>
            <Position>
              <LatitudeDegrees>42.44122498668730258941650390625</LatitudeDegrees>
              <LongitudeDegrees>2.82773964107036590576171875</LongitudeDegrees>
            </Position>
            <AltitudeMeters>737</AltitudeMeters>
            <DistanceMeters>7705.2361792171</DistanceMeters>
          </Trackpoint>
          <Trackpoint>
            <Time>2021-03-31T16:07:49.000Z</Time>
            <Position>
              <LatitudeDegrees>42.44120973162353038787841796875</LatitudeDegrees>
              <LongitudeDegrees>2.82773301936686038970947265625</LongitudeDegrees>
            </Position>
            <AltitudeMeters>737.20001220703125</AltitudeMeters>
            <DistanceMeters>7707.0190384119</DistanceMeters>
          </Trackpoint>
          <Trackpoint>
            <Time>2021-03-31T16:07:54.000Z</Time>
            <Position>
              <LatitudeDegrees>42.4411808140575885772705078125</LatitudeDegrees>
              <LongitudeDegrees>2.82769764773547649383544921875</LongitudeDegrees>
            </Position>
            <AltitudeMeters>737.4000244140625</AltitudeMeters>
            <DistanceMeters>7711.3550064879</DistanceMeters>
          </Trackpoint>
          <Trackpoint>
            <Time>2021-03-31T16:07:57.000Z</Time>
            <Position>
              <LatitudeDegrees>42.44115374051034450531005859375</LatitudeDegrees>
              <LongitudeDegrees>2.82768356613814830780029296875</LongitudeDegrees>
            </Position>
            <AltitudeMeters>737.4000244140625</AltitudeMeters>
            <DistanceMeters>7714.5831186632</DistanceMeters>
          </Trackpoint>
          <Trackpoint>
            <Time>2021-03-31T16:07:58.000Z</Time>
            <Position>
              <LatitudeDegrees>42.4411432631313800811767578125</LatitudeDegrees>
              <LongitudeDegrees>2.82767795026302337646484375</LongitudeDegrees>
            </Position>
            <AltitudeMeters>737.4000244140625</AltitudeMeters>
            <DistanceMeters>7715.836607116</DistanceMeters>
          </Trackpoint>
          <Trackpoint>
            <Time>2021-03-31T16:08:01.000Z</Time>
            <Position>
              <LatitudeDegrees>42.441116608679294586181640625</LatitudeDegrees>
              <LongitudeDegrees>2.827660180628299713134765625</LongitudeDegrees>
            </Position>
            <AltitudeMeters>737.20001220703125</AltitudeMeters>
            <DistanceMeters>7719.1434821626</DistanceMeters>
          </Trackpoint>
          <Trackpoint>
            <Time>2021-03-31T16:08:03.000Z</Time>
            <Position>
              <LatitudeDegrees>42.44110512547194957733154296875</LatitudeDegrees>
              <LongitudeDegrees>2.82764718867838382720947265625</LongitudeDegrees>
            </Position>
            <AltitudeMeters>737.20001220703125</AltitudeMeters>
            <DistanceMeters>7720.8057707632</DistanceMeters>
          </Trackpoint>
          <Trackpoint>
            <Time>2021-03-31T16:08:07.000Z</Time>
            <Position>
              <LatitudeDegrees>42.4410614557564258575439453125</LatitudeDegrees>
              <LongitudeDegrees>2.8276311792433261871337890625</LongitudeDegrees>
            </Position>
            <AltitudeMeters>737.4000244140625</AltitudeMeters>
            <DistanceMeters>7725.8412900666</DistanceMeters>
          </Trackpoint>
          <Trackpoint>
            <Time>2021-03-31T16:08:09.000Z</Time>
            <Position>
              <LatitudeDegrees>42.44104913435876369476318359375</LatitudeDegrees>
              <LongitudeDegrees>2.82762204296886920928955078125</LongitudeDegrees>
            </Position>
            <AltitudeMeters>737.5999755859375</AltitudeMeters>
            <DistanceMeters>7727.408510789</DistanceMeters>
          </Trackpoint>
          <Trackpoint>
            <Time>2021-03-31T16:08:13.000Z</Time>
            <Position>
              <LatitudeDegrees>42.4410145170986652374267578125</LatitudeDegrees>
              <LongitudeDegrees>2.827603854238986968994140625</LongitudeDegrees>
            </Position>
            <AltitudeMeters>737.79998779296875</AltitudeMeters>
            <DistanceMeters>7731.5408073122</DistanceMeters>
          </Trackpoint>
          <Trackpoint>
            <Time>2021-03-31T16:08:14.000Z</Time>
            <Position>
              <LatitudeDegrees>42.44100269861519336700439453125</LatitudeDegrees>
              <LongitudeDegrees>2.827597148716449737548828125</LongitudeDegrees>
            </Position>
            <AltitudeMeters>737.79998779296875</AltitudeMeters>
            <DistanceMeters>7732.9693720732</DistanceMeters>
          </Trackpoint>
          <Trackpoint>
            <Time>2021-03-31T16:08:22.000Z</Time>
            <Position>
              <LatitudeDegrees>42.44092307053506374359130859375</LatitudeDegrees>
              <LongitudeDegrees>2.827536128461360931396484375</LongitudeDegrees>
            </Position>
            <AltitudeMeters>737.5999755859375</AltitudeMeters>
            <DistanceMeters>7743.1509867573</DistanceMeters>
          </Trackpoint>
          <Trackpoint>
            <Time>2021-03-31T16:08:28.000Z</Time>
            <Position>
              <LatitudeDegrees>42.4408502317965030670166015625</LatitudeDegrees>
              <LongitudeDegrees>2.827501595020294189453125</LongitudeDegrees>
            </Position>
            <AltitudeMeters>737.79998779296875</AltitudeMeters>
            <DistanceMeters>7751.7392150027</DistanceMeters>
          </Trackpoint>
          <Trackpoint>
            <Time>2021-03-31T16:08:38.000Z</Time>
            <Position>
              <LatitudeDegrees>42.44077504612505435943603515625</LatitudeDegrees>
              <LongitudeDegrees>2.8274400718510150909423828125</LongitudeDegrees>
            </Position>
            <AltitudeMeters>737.5999755859375</AltitudeMeters>
            <DistanceMeters>7761.5145036905</DistanceMeters>
          </Trackpoint>
          <Trackpoint>
            <Time>2021-03-31T16:08:44.000Z</Time>
            <Position>
              <LatitudeDegrees>42.44072240777313709259033203125</LatitudeDegrees>
              <LongitudeDegrees>2.827384583652019500732421875</LongitudeDegrees>
            </Position>
            <AltitudeMeters>737.79998779296875</AltitudeMeters>
            <DistanceMeters>7768.9375439343</DistanceMeters>
          </Trackpoint>
          <Trackpoint>
            <Time>2021-03-31T16:08:47.000Z</Time>
            <Position>
              <LatitudeDegrees>42.440698184072971343994140625</LatitudeDegrees>
              <LongitudeDegrees>2.82737477682530879974365234375</LongitudeDegrees>
            </Position>
            <AltitudeMeters>738</AltitudeMeters>
            <DistanceMeters>7771.7532866636</DistanceMeters>
          </Trackpoint>
          <Trackpoint>
            <Time>2021-03-31T16:08:49.000Z</Time>
            <Position>
              <LatitudeDegrees>42.44069541804492473602294921875</LatitudeDegrees>
              <LongitudeDegrees>2.82736723311245441436767578125</LongitudeDegrees>
            </Position>
            <AltitudeMeters>738</AltitudeMeters>
            <DistanceMeters>7772.438534046</DistanceMeters>
          </Trackpoint>
          <Trackpoint>
            <Time>2021-03-31T16:08:51.000Z</Time>
            <Position>
              <LatitudeDegrees>42.44070296175777912139892578125</LatitudeDegrees>
              <LongitudeDegrees>2.8273642994463443756103515625</LongitudeDegrees>
            </Position>
            <AltitudeMeters>738.20001220703125</AltitudeMeters>
            <DistanceMeters>7773.3146370638</DistanceMeters>
          </Trackpoint>
          <Trackpoint>
            <Time>2021-03-31T16:09:02.000Z</Time>
            <Position>
              <LatitudeDegrees>42.44072743691504001617431640625</LatitudeDegrees>
              <LongitudeDegrees>2.82737997360527515411376953125</LongitudeDegrees>
            </Position>
            <AltitudeMeters>738</AltitudeMeters>
            <DistanceMeters>7776.328647167</DistanceMeters>
          </Trackpoint>
          <Trackpoint>
            <Time>2021-03-31T16:09:22.000Z</Time>
            <Position>
              <LatitudeDegrees>42.44067278690636157989501953125</LatitudeDegrees>
              <LongitudeDegrees>2.827344350516796112060546875</LongitudeDegrees>
            </Position>
            <AltitudeMeters>738</AltitudeMeters>
            <DistanceMeters>7783.0788890691</DistanceMeters>
          </Trackpoint>
          <Trackpoint>
            <Time>2021-03-31T16:09:25.000Z</Time>
            <Position>
              <LatitudeDegrees>42.440626434981822967529296875</LatitudeDegrees>
              <LongitudeDegrees>2.82730503939092159271240234375</LongitudeDegrees>
            </Position>
            <AltitudeMeters>738</AltitudeMeters>
            <DistanceMeters>7789.1657933438</DistanceMeters>
          </Trackpoint>
          <Trackpoint>
            <Time>2021-03-31T16:09:29.000Z</Time>
            <Position>
              <LatitudeDegrees>42.44056549854576587677001953125</LatitudeDegrees>
              <LongitudeDegrees>2.82728643156588077545166015625</LongitudeDegrees>
            </Position>
            <AltitudeMeters>738</AltitudeMeters>
            <DistanceMeters>7796.1189961512</DistanceMeters>
          </Trackpoint>
          <Trackpoint>
            <Time>2021-03-31T16:09:33.000Z</Time>
            <Position>
              <LatitudeDegrees>42.4405260197818279266357421875</LatitudeDegrees>
              <LongitudeDegrees>2.8272710926830768585205078125</LongitudeDegrees>
            </Position>
            <AltitudeMeters>738.20001220703125</AltitudeMeters>
            <DistanceMeters>7800.6901663396</DistanceMeters>
          </Trackpoint>
          <Trackpoint>
            <Time>2021-03-31T16:09:37.000Z</Time>
            <Position>
              <LatitudeDegrees>42.4404881335794925689697265625</LatitudeDegrees>
              <LongitudeDegrees>2.82725893892347812652587890625</LongitudeDegrees>
            </Position>
            <AltitudeMeters>738.20001220703125</AltitudeMeters>
            <DistanceMeters>7805.0240513177</DistanceMeters>
          </Trackpoint>
          <Trackpoint>
            <Time>2021-03-31T16:09:39.000Z</Time>
            <Position>
              <LatitudeDegrees>42.44045686908066272735595703125</LatitudeDegrees>
              <LongitudeDegrees>2.827233709394931793212890625</LongitudeDegrees>
            </Position>
            <AltitudeMeters>738.20001220703125</AltitudeMeters>
            <DistanceMeters>7809.0724570219</DistanceMeters>
          </Trackpoint>
          <Trackpoint>
            <Time>2021-03-31T16:09:42.000Z</Time>
            <Position>
              <LatitudeDegrees>42.440425939857959747314453125</LatitudeDegrees>
              <LongitudeDegrees>2.8272052109241485595703125</LongitudeDegrees>
            </Position>
            <AltitudeMeters>738.20001220703125</AltitudeMeters>
            <DistanceMeters>7813.236319024</DistanceMeters>
          </Trackpoint>
          <Trackpoint>
            <Time>2021-03-31T16:09:43.000Z</Time>
            <Position>
              <LatitudeDegrees>42.44040925987064838409423828125</LatitudeDegrees>
              <LongitudeDegrees>2.8271936438977718353271484375</LongitudeDegrees>
            </Position>
            <AltitudeMeters>738.20001220703125</AltitudeMeters>
            <DistanceMeters>7815.3225828726</DistanceMeters>
          </Trackpoint>
          <Trackpoint>
            <Time>2021-03-31T16:09:47.000Z</Time>
            <Position>
              <LatitudeDegrees>42.44032778777182102203369140625</LatitudeDegrees>
              <LongitudeDegrees>2.8271339647471904754638671875</LongitudeDegrees>
            </Position>
            <AltitudeMeters>738.20001220703125</AltitudeMeters>
            <DistanceMeters>7825.6311200915</DistanceMeters>
          </Trackpoint>
          <Trackpoint>
            <Time>2021-03-31T16:09:52.000Z</Time>
            <Position>
              <LatitudeDegrees>42.440287806093692779541015625</LatitudeDegrees>
              <LongitudeDegrees>2.8271155245602130889892578125</LongitudeDegrees>
            </Position>
            <AltitudeMeters>738.20001220703125</AltitudeMeters>
            <DistanceMeters>7830.3327822587</DistanceMeters>
          </Trackpoint>
          <Trackpoint>
            <Time>2021-03-31T16:09:54.000Z</Time>
            <Position>
              <LatitudeDegrees>42.44026559405028820037841796875</LatitudeDegrees>
              <LongitudeDegrees>2.82710529863834381103515625</LongitudeDegrees>
            </Position>
            <AltitudeMeters>738.4000244140625</AltitudeMeters>
            <DistanceMeters>7832.9421265516</DistanceMeters>
          </Trackpoint>
          <Trackpoint>
            <Time>2021-03-31T16:09:59.000Z</Time>
            <Position>
              <LatitudeDegrees>42.44022536091506481170654296875</LatitudeDegrees>
              <LongitudeDegrees>2.82708610408008098602294921875</LongitudeDegrees>
            </Position>
            <AltitudeMeters>738.5999755859375</AltitudeMeters>
            <DistanceMeters>7837.6896596798</DistanceMeters>
          </Trackpoint>
          <Trackpoint>
            <Time>2021-03-31T16:10:07.000Z</Time>
            <Position>
              <LatitudeDegrees>42.44014841504395008087158203125</LatitudeDegrees>
              <LongitudeDegrees>2.82703463919460773468017578125</LongitudeDegrees>
            </Position>
            <AltitudeMeters>738.5999755859375</AltitudeMeters>
            <DistanceMeters>7847.2406717852</DistanceMeters>
          </Trackpoint>
          <Trackpoint>
            <Time>2021-03-31T16:10:08.000Z</Time>
            <Position>
              <LatitudeDegrees>42.44014263153076171875</LatitudeDegrees>
              <LongitudeDegrees>2.82703363336622714996337890625</LongitudeDegrees>
            </Position>
            <AltitudeMeters>738.79998779296875</AltitudeMeters>
            <DistanceMeters>7847.8921421167</DistanceMeters>
          </Trackpoint>
          <Trackpoint>
            <Time>2021-03-31T16:10:09.000Z</Time>
            <Position>
              <LatitudeDegrees>42.44013332761824131011962890625</LatitudeDegrees>
              <LongitudeDegrees>2.8270296938717365264892578125</LongitudeDegrees>
            </Position>
            <AltitudeMeters>738.79998779296875</AltitudeMeters>
            <DistanceMeters>7848.9714381194</DistanceMeters>
          </Trackpoint>
          <Trackpoint>
            <Time>2021-03-31T16:10:12.000Z</Time>
            <Position>
              <LatitudeDegrees>42.44010432623326778411865234375</LatitudeDegrees>
              <LongitudeDegrees>2.82702005468308925628662109375</LongitudeDegrees>
            </Position>
            <AltitudeMeters>739.20001220703125</AltitudeMeters>
            <DistanceMeters>7852.2932980524</DistanceMeters>
          </Trackpoint>
          <Trackpoint>
            <Time>2021-03-31T16:10:15.000Z</Time>
            <Position>
              <LatitudeDegrees>42.44007498957216739654541015625</LatitudeDegrees>
              <LongitudeDegrees>2.8270005248486995697021484375</LongitudeDegrees>
            </Position>
            <AltitudeMeters>739.4000244140625</AltitudeMeters>
            <DistanceMeters>7855.9292342336</DistanceMeters>
          </Trackpoint>
          <Trackpoint>
            <Time>2021-03-31T16:10:16.000Z</Time>
            <Position>
              <LatitudeDegrees>42.440064847469329833984375</LatitudeDegrees>
              <LongitudeDegrees>2.82699541188776493072509765625</LongitudeDegrees>
            </Position>
            <AltitudeMeters>739.5999755859375</AltitudeMeters>
            <DistanceMeters>7857.1387268478</DistanceMeters>
          </Trackpoint>
          <Trackpoint>
            <Time>2021-03-31T16:10:20.000Z</Time>
            <Position>
              <LatitudeDegrees>42.44003509171307086944580078125</LatitudeDegrees>
              <LongitudeDegrees>2.8269745409488677978515625</LongitudeDegrees>
            </Position>
            <AltitudeMeters>739.79998779296875</AltitudeMeters>
            <DistanceMeters>7860.87026512</DistanceMeters>
          </Trackpoint>
          <Trackpoint>
            <Time>2021-03-31T16:10:22.000Z</Time>
            <Position>
              <LatitudeDegrees>42.44000776670873165130615234375</LatitudeDegrees>
              <LongitudeDegrees>2.826971523463726043701171875</LongitudeDegrees>
            </Position>
            <AltitudeMeters>739.79998779296875</AltitudeMeters>
            <DistanceMeters>7863.9229752094</DistanceMeters>
          </Trackpoint>
          <Trackpoint>
            <Time>2021-03-31T16:10:28.000Z</Time>
            <Position>
              <LatitudeDegrees>42.43994414806365966796875</LatitudeDegrees>
              <LongitudeDegrees>2.82695450820028781890869140625</LongitudeDegrees>
            </Position>
            <AltitudeMeters>739.79998779296875</AltitudeMeters>
            <DistanceMeters>7871.1400023625</DistanceMeters>
          </Trackpoint>
          <Trackpoint>
            <Time>2021-03-31T16:10:33.000Z</Time>
            <Position>
              <LatitudeDegrees>42.43990886025130748748779296875</LatitudeDegrees>
              <LongitudeDegrees>2.8269291110336780548095703125</LongitudeDegrees>
            </Position>
            <AltitudeMeters>739.79998779296875</AltitudeMeters>
            <DistanceMeters>7875.5870089301</DistanceMeters>
          </Trackpoint>
          <Trackpoint>
            <Time>2021-03-31T16:10:44.000Z</Time>
            <Position>
              <LatitudeDegrees>42.43979654274880886077880859375</LatitudeDegrees>
              <LongitudeDegrees>2.82688795588910579681396484375</LongitudeDegrees>
            </Position>
            <AltitudeMeters>739.4000244140625</AltitudeMeters>
            <DistanceMeters>7888.5371664472</DistanceMeters>
          </Trackpoint>
          <Trackpoint>
            <Time>2021-03-31T16:10:49.000Z</Time>
            <Position>
              <LatitudeDegrees>42.439748682081699371337890625</LatitudeDegrees>
              <LongitudeDegrees>2.82686063088476657867431640625</LongitudeDegrees>
            </Position>
            <AltitudeMeters>739.4000244140625</AltitudeMeters>
            <DistanceMeters>7894.3189778412</DistanceMeters>
          </Trackpoint>
          <Trackpoint>
            <Time>2021-03-31T16:10:51.000Z</Time>
            <Position>
              <LatitudeDegrees>42.43971825577318668365478515625</LatitudeDegrees>
              <LongitudeDegrees>2.82685543410480022430419921875</LongitudeDegrees>
            </Position>
            <AltitudeMeters>739.4000244140625</AltitudeMeters>
            <DistanceMeters>7897.732011479</DistanceMeters>
          </Trackpoint>
          <Trackpoint>
            <Time>2021-03-31T16:10:53.000Z</Time>
            <Position>
              <LatitudeDegrees>42.439697049558162689208984375</LatitudeDegrees>
              <LongitudeDegrees>2.826856188476085662841796875</LongitudeDegrees>
            </Position>
            <AltitudeMeters>739.4000244140625</AltitudeMeters>
            <DistanceMeters>7900.0943381377</DistanceMeters>
          </Trackpoint>
          <Trackpoint>
            <Time>2021-03-31T16:10:59.000Z</Time>
            <Position>
              <LatitudeDegrees>42.4396271444857120513916015625</LatitudeDegrees>
              <LongitudeDegrees>2.82686046324670314788818359375</LongitudeDegrees>
            </Position>
            <AltitudeMeters>739.4000244140625</AltitudeMeters>
            <DistanceMeters>7907.883051353</DistanceMeters>
          </Trackpoint>
          <Trackpoint>
            <Time>2021-03-31T16:11:07.000Z</Time>
            <Position>
              <LatitudeDegrees>42.43953133933246135711669921875</LatitudeDegrees>
              <LongitudeDegrees>2.82686658203601837158203125</LongitudeDegrees>
            </Position>
            <AltitudeMeters>739.79998779296875</AltitudeMeters>
            <DistanceMeters>7918.5578129263</DistanceMeters>
          </Trackpoint>
          <Trackpoint>
            <Time>2021-03-31T16:11:08.000Z</Time>
            <Position>
              <LatitudeDegrees>42.43952077813446521759033203125</LatitudeDegrees>
              <LongitudeDegrees>2.82686733640730381011962890625</LongitudeDegrees>
            </Position>
            <AltitudeMeters>740</AltitudeMeters>
            <DistanceMeters>7919.7370634393</DistanceMeters>
          </Trackpoint>
          <Trackpoint>
            <Time>2021-03-31T16:11:12.000Z</Time>
            <Position>
              <LatitudeDegrees>42.43947819806635379791259765625</LatitudeDegrees>
              <LongitudeDegrees>2.82686549238860607147216796875</LongitudeDegrees>
            </Position>
            <AltitudeMeters>740.20001220703125</AltitudeMeters>
            <DistanceMeters>7924.4788869646</DistanceMeters>
          </Trackpoint>
          <Trackpoint>
            <Time>2021-03-31T16:11:22.000Z</Time>
            <Position>
              <LatitudeDegrees>42.4393714964389801025390625</LatitudeDegrees>
              <LongitudeDegrees>2.82683028839528560638427734375</LongitudeDegrees>
            </Position>
            <AltitudeMeters>739.5999755859375</AltitudeMeters>
            <DistanceMeters>7936.7015538049</DistanceMeters>
          </Trackpoint>
          <Trackpoint>
            <Time>2021-03-31T16:11:30.000Z</Time>
            <Position>
              <LatitudeDegrees>42.43933252058923244476318359375</LatitudeDegrees>
              <LongitudeDegrees>2.82673875801265239715576171875</LongitudeDegrees>
            </Position>
            <AltitudeMeters>740</AltitudeMeters>
            <DistanceMeters>7945.3812961842</DistanceMeters>
          </Trackpoint>
          <Trackpoint>
            <Time>2021-03-31T16:11:35.000Z</Time>
            <Position>
              <LatitudeDegrees>42.4393136613070964813232421875</LatitudeDegrees>
              <LongitudeDegrees>2.8266830183565616607666015625</LongitudeDegrees>
            </Position>
            <AltitudeMeters>740.20001220703125</AltitudeMeters>
            <DistanceMeters>7950.4186084445</DistanceMeters>
          </Trackpoint>
          <Trackpoint>
            <Time>2021-03-31T16:11:36.000Z</Time>
            <Position>
              <LatitudeDegrees>42.4393089674413204193115234375</LatitudeDegrees>
              <LongitudeDegrees>2.8266665898263454437255859375</LongitudeDegrees>
            </Position>
            <AltitudeMeters>740.20001220703125</AltitudeMeters>
            <DistanceMeters>7951.8660122358</DistanceMeters>
          </Trackpoint>
          <Trackpoint>
            <Time>2021-03-31T16:11:38.000Z</Time>
            <Position>
              <LatitudeDegrees>42.4392942152917385101318359375</LatitudeDegrees>
              <LongitudeDegrees>2.82662912271916866302490234375</LongitudeDegrees>
            </Position>
            <AltitudeMeters>740.20001220703125</AltitudeMeters>
            <DistanceMeters>7955.3549294097</DistanceMeters>
          </Trackpoint>
          <Trackpoint>
            <Time>2021-03-31T16:11:44.000Z</Time>
            <Position>
              <LatitudeDegrees>42.43926513008773326873779296875</LatitudeDegrees>
              <LongitudeDegrees>2.8265200741589069366455078125</LongitudeDegrees>
            </Position>
            <AltitudeMeters>740.4000244140625</AltitudeMeters>
            <DistanceMeters>7964.8794319141</DistanceMeters>
          </Trackpoint>
          <Trackpoint>
            <Time>2021-03-31T16:11:45.000Z</Time>
            <Position>
              <LatitudeDegrees>42.43926378898322582244873046875</LatitudeDegrees>
              <LongitudeDegrees>2.82650523819029331207275390625</LongitudeDegrees>
            </Position>
            <AltitudeMeters>740.4000244140625</AltitudeMeters>
            <DistanceMeters>7966.1037654837</DistanceMeters>
          </Trackpoint>
          <Trackpoint>
            <Time>2021-03-31T16:11:46.000Z</Time>
            <Position>
              <LatitudeDegrees>42.439268566668033599853515625</LatitudeDegrees>
              <LongitudeDegrees>2.82649643719196319580078125</LongitudeDegrees>
            </Position>
            <AltitudeMeters>740.5999755859375</AltitudeMeters>
            <DistanceMeters>7967.0052680516</DistanceMeters>
          </Trackpoint>
          <Trackpoint>
            <Time>2021-03-31T16:11:48.000Z</Time>
            <Position>
              <LatitudeDegrees>42.439275942742824554443359375</LatitudeDegrees>
              <LongitudeDegrees>2.8264711238443851470947265625</LongitudeDegrees>
            </Position>
            <AltitudeMeters>741</AltitudeMeters>
            <DistanceMeters>7969.2419312694</DistanceMeters>
          </Trackpoint>
          <Trackpoint>
            <Time>2021-03-31T16:11:51.000Z</Time>
            <Position>
              <LatitudeDegrees>42.43927418254315853118896484375</LatitudeDegrees>
              <LongitudeDegrees>2.82642762176692485809326171875</LongitudeDegrees>
            </Position>
            <AltitudeMeters>741.4000244140625</AltitudeMeters>
            <DistanceMeters>7972.8202896078</DistanceMeters>
          </Trackpoint>
          <Trackpoint>
            <Time>2021-03-31T16:11:52.000Z</Time>
            <Position>
              <LatitudeDegrees>42.43927250616252422332763671875</LatitudeDegrees>
              <LongitudeDegrees>2.8264090977609157562255859375</LongitudeDegrees>
            </Position>
            <AltitudeMeters>741.5999755859375</AltitudeMeters>
            <DistanceMeters>7974.3525493362</DistanceMeters>
          </Trackpoint>
          <Trackpoint>
            <Time>2021-03-31T16:12:01.000Z</Time>
            <Position>
              <LatitudeDegrees>42.43926194496452808380126953125</LatitudeDegrees>
              <LongitudeDegrees>2.826294936239719390869140625</LongitudeDegrees>
            </Position>
            <AltitudeMeters>741.79998779296875</AltitudeMeters>
            <DistanceMeters>7983.8032893129</DistanceMeters>
          </Trackpoint>
          <Trackpoint>
            <Time>2021-03-31T16:12:06.000Z</Time>
            <Position>
              <LatitudeDegrees>42.43925423361361026763916015625</LatitudeDegrees>
              <LongitudeDegrees>2.82622343860566616058349609375</LongitudeDegrees>
            </Position>
            <AltitudeMeters>742</AltitudeMeters>
            <DistanceMeters>7989.7384664971</DistanceMeters>
          </Trackpoint>
          <Trackpoint>
            <Time>2021-03-31T16:12:07.000Z</Time>
            <Position>
              <LatitudeDegrees>42.4392512999475002288818359375</LatitudeDegrees>
              <LongitudeDegrees>2.82620717771351337432861328125</LongitudeDegrees>
            </Position>
            <AltitudeMeters>742.20001220703125</AltitudeMeters>
            <DistanceMeters>7991.1122517703</DistanceMeters>
          </Trackpoint>
          <Trackpoint>
            <Time>2021-03-31T16:12:08.000Z</Time>
            <Position>
              <LatitudeDegrees>42.4392481148242950439453125</LatitudeDegrees>
              <LongitudeDegrees>2.82619141973555088043212890625</LongitudeDegrees>
            </Position>
            <AltitudeMeters>742.20001220703125</AltitudeMeters>
            <DistanceMeters>7992.4561324528</DistanceMeters>
          </Trackpoint>
          <Trackpoint>
            <Time>2021-03-31T16:12:13.000Z</Time>
            <Position>
              <LatitudeDegrees>42.43923864327371120452880859375</LatitudeDegrees>
              <LongitudeDegrees>2.82612495124340057373046875</LongitudeDegrees>
            </Position>
            <AltitudeMeters>742.79998779296875</AltitudeMeters>
            <DistanceMeters>7998.0166164015</DistanceMeters>
          </Trackpoint>
          <Trackpoint>
            <Time>2021-03-31T16:12:14.000Z</Time>
            <Position>
              <LatitudeDegrees>42.4392365477979183197021484375</LatitudeDegrees>
              <LongitudeDegrees>2.82610877417027950286865234375</LongitudeDegrees>
            </Position>
            <AltitudeMeters>742.79998779296875</AltitudeMeters>
            <DistanceMeters>7999.3671997724</DistanceMeters>
          </Trackpoint>
          <Trackpoint>
            <Time>2021-03-31T16:12:22.000Z</Time>
            <Position>
              <LatitudeDegrees>42.4392127431929111480712890625</LatitudeDegrees>
              <LongitudeDegrees>2.82600232400000095367431640625</LongitudeDegrees>
            </Position>
            <AltitudeMeters>743</AltitudeMeters>
            <DistanceMeters>8008.5041060718</DistanceMeters>
          </Trackpoint>
          <Trackpoint>
            <Time>2021-03-31T16:12:23.000Z</Time>
            <Position>
              <LatitudeDegrees>42.43920662440359592437744140625</LatitudeDegrees>
              <LongitudeDegrees>2.82598438672721385955810546875</LongitudeDegrees>
            </Position>
            <AltitudeMeters>743.20001220703125</AltitudeMeters>
            <DistanceMeters>8010.1279232788</DistanceMeters>
          </Trackpoint>
          <Trackpoint>
            <Time>2021-03-31T16:12:34.000Z</Time>
            <Position>
              <LatitudeDegrees>42.43917343206703662872314453125</LatitudeDegrees>
              <LongitudeDegrees>2.8258431516587734222412109375</LongitudeDegrees>
            </Position>
            <AltitudeMeters>743.5999755859375</AltitudeMeters>
            <DistanceMeters>8022.3032152631</DistanceMeters>
          </Trackpoint>
          <Trackpoint>
            <Time>2021-03-31T16:12:46.000Z</Time>
            <Position>
              <LatitudeDegrees>42.439143173396587371826171875</LatitudeDegrees>
              <LongitudeDegrees>2.825688757002353668212890625</LongitudeDegrees>
            </Position>
            <AltitudeMeters>744.20001220703125</AltitudeMeters>
            <DistanceMeters>8035.4248183495</DistanceMeters>
          </Trackpoint>
          <Trackpoint>
            <Time>2021-03-31T16:12:57.000Z</Time>
            <Position>
              <LatitudeDegrees>42.43914258666336536407470703125</LatitudeDegrees>
              <LongitudeDegrees>2.82554634846746921539306640625</LongitudeDegrees>
            </Position>
            <AltitudeMeters>745.20001220703125</AltitudeMeters>
            <DistanceMeters>8047.1227574172</DistanceMeters>
          </Trackpoint>
          <Trackpoint>
            <Time>2021-03-31T16:12:59.000Z</Time>
            <Position>
              <LatitudeDegrees>42.43914510123431682586669921875</LatitudeDegrees>
              <LongitudeDegrees>2.8255219571292400360107421875</LongitudeDegrees>
            </Position>
            <AltitudeMeters>745.4000244140625</AltitudeMeters>
            <DistanceMeters>8049.1452866826</DistanceMeters>
          </Trackpoint>
          <Trackpoint>
            <Time>2021-03-31T16:13:04.000Z</Time>
            <Position>
              <LatitudeDegrees>42.4391584284603595733642578125</LatitudeDegrees>
              <LongitudeDegrees>2.82545163296163082122802734375</LongitudeDegrees>
            </Position>
            <AltitudeMeters>745.5999755859375</AltitudeMeters>
            <DistanceMeters>8055.1085442685</DistanceMeters>
          </Trackpoint>
          <Trackpoint>
            <Time>2021-03-31T16:13:07.000Z</Time>
            <Position>
              <LatitudeDegrees>42.43916287086904048919677734375</LatitudeDegrees>
              <LongitudeDegrees>2.82542045228183269500732421875</LongitudeDegrees>
            </Position>
            <AltitudeMeters>746</AltitudeMeters>
            <DistanceMeters>8057.7178885614</DistanceMeters>
          </Trackpoint>
          <Trackpoint>
            <Time>2021-03-31T16:13:09.000Z</Time>
            <Position>
              <LatitudeDegrees>42.439158260822296142578125</LatitudeDegrees>
              <LongitudeDegrees>2.82539932988584041595458984375</LongitudeDegrees>
            </Position>
            <AltitudeMeters>746.20001220703125</AltitudeMeters>
            <DistanceMeters>8059.525895108</DistanceMeters>
          </Trackpoint>
          <Trackpoint>
            <Time>2021-03-31T16:13:13.000Z</Time>
            <Position>
              <LatitudeDegrees>42.43916236795485019683837890625</LatitudeDegrees>
              <LongitudeDegrees>2.82534199766814708709716796875</LongitudeDegrees>
            </Position>
            <AltitudeMeters>746.5999755859375</AltitudeMeters>
            <DistanceMeters>8064.2581873201</DistanceMeters>
          </Trackpoint>
          <Trackpoint>
            <Time>2021-03-31T16:13:16.000Z</Time>
            <Position>
              <LatitudeDegrees>42.4391637928783893585205078125</LatitudeDegrees>
              <LongitudeDegrees>2.82530243508517742156982421875</LongitudeDegrees>
            </Position>
            <AltitudeMeters>747</AltitudeMeters>
            <DistanceMeters>8067.5113779989</DistanceMeters>
          </Trackpoint>
          <Trackpoint>
            <Time>2021-03-31T16:13:18.000Z</Time>
            <Position>
              <LatitudeDegrees>42.43917167186737060546875</LatitudeDegrees>
              <LongitudeDegrees>2.82527728937566280364990234375</LongitudeDegrees>
            </Position>
            <AltitudeMeters>747.20001220703125</AltitudeMeters>
            <DistanceMeters>8069.7561012905</DistanceMeters>
          </Trackpoint>
          <Trackpoint>
            <Time>2021-03-31T16:13:20.000Z</Time>
            <Position>
              <LatitudeDegrees>42.439184077084064483642578125</LatitudeDegrees>
              <LongitudeDegrees>2.82524979673326015472412109375</LongitudeDegrees>
            </Position>
            <AltitudeMeters>747.4000244140625</AltitudeMeters>
            <DistanceMeters>8072.4049443204</DistanceMeters>
          </Trackpoint>
          <Trackpoint>
            <Time>2021-03-31T16:13:23.000Z</Time>
            <Position>
              <LatitudeDegrees>42.43919514119625091552734375</LatitudeDegrees>
              <LongitudeDegrees>2.825209982693195343017578125</LongitudeDegrees>
            </Position>
            <AltitudeMeters>747.5999755859375</AltitudeMeters>
            <DistanceMeters>8075.9016175257</DistanceMeters>
          </Trackpoint>
          <Trackpoint>
            <Time>2021-03-31T16:13:27.000Z</Time>
            <Position>
              <LatitudeDegrees>42.43920452892780303955078125</LatitudeDegrees>
              <LongitudeDegrees>2.8251534886658191680908203125</LongitudeDegrees>
            </Position>
            <AltitudeMeters>747.5999755859375</AltitudeMeters>
            <DistanceMeters>8080.6577022066</DistanceMeters>
          </Trackpoint>
          <Trackpoint>
            <Time>2021-03-31T16:13:30.000Z</Time>
            <Position>
              <LatitudeDegrees>42.4392150901257991790771484375</LatitudeDegrees>
              <LongitudeDegrees>2.82511384226381778717041015625</LongitudeDegrees>
            </Position>
            <AltitudeMeters>747.5999755859375</AltitudeMeters>
            <DistanceMeters>8084.1180318679</DistanceMeters>
          </Trackpoint>
          <Trackpoint>
            <Time>2021-03-31T16:13:33.000Z</Time>
            <Position>
              <LatitudeDegrees>42.4392224662005901336669921875</LatitudeDegrees>
              <LongitudeDegrees>2.82507092691957950592041015625</LongitudeDegrees>
            </Position>
            <AltitudeMeters>747.79998779296875</AltitudeMeters>
            <DistanceMeters>8087.7365413461</DistanceMeters>
          </Trackpoint>
          <Trackpoint>
            <Time>2021-03-31T16:13:41.000Z</Time>
            <Position>
              <LatitudeDegrees>42.43924518115818500518798828125</LatitudeDegrees>
              <LongitudeDegrees>2.82495995052158832550048828125</LongitudeDegrees>
            </Position>
            <AltitudeMeters>748</AltitudeMeters>
            <DistanceMeters>8097.1963541117</DistanceMeters>
          </Trackpoint>
          <Trackpoint>
            <Time>2021-03-31T16:13:45.000Z</Time>
            <Position>
              <LatitudeDegrees>42.43925624527037143707275390625</LatitudeDegrees>
              <LongitudeDegrees>2.82490144483745098114013671875</LongitudeDegrees>
            </Position>
            <AltitudeMeters>748.20001220703125</AltitudeMeters>
            <DistanceMeters>8102.1587142823</DistanceMeters>
          </Trackpoint>
          <Trackpoint>
            <Time>2021-03-31T16:13:47.000Z</Time>
            <Position>
              <LatitudeDegrees>42.43926219642162322998046875</LatitudeDegrees>
              <LongitudeDegrees>2.824874706566333770751953125</LongitudeDegrees>
            </Position>
            <AltitudeMeters>748.20001220703125</AltitudeMeters>
            <DistanceMeters>8104.4531716401</DistanceMeters>
          </Trackpoint>
          <Trackpoint>
            <Time>2021-03-31T16:13:48.000Z</Time>
            <Position>
              <LatitudeDegrees>42.4392657168209552764892578125</LatitudeDegrees>
              <LongitudeDegrees>2.82485920004546642303466796875</LongitudeDegrees>
            </Position>
            <AltitudeMeters>748.20001220703125</AltitudeMeters>
            <DistanceMeters>8105.7903160361</DistanceMeters>
          </Trackpoint>
          <Trackpoint>
            <Time>2021-03-31T16:13:55.000Z</Time>
            <Position>
              <LatitudeDegrees>42.43927082978188991546630859375</LatitudeDegrees>
              <LongitudeDegrees>2.824745960533618927001953125</LongitudeDegrees>
            </Position>
            <AltitudeMeters>748</AltitudeMeters>
            <DistanceMeters>8115.1087501903</DistanceMeters>
          </Trackpoint>
          <Trackpoint>
            <Time>2021-03-31T16:13:59.000Z</Time>
            <Position>
              <LatitudeDegrees>42.43927267380058765411376953125</LatitudeDegrees>
              <LongitudeDegrees>2.82468594610691070556640625</LongitudeDegrees>
            </Position>
            <AltitudeMeters>747.79998779296875</AltitudeMeters>
            <DistanceMeters>8120.0428241756</DistanceMeters>
          </Trackpoint>
          <Trackpoint>
            <Time>2021-03-31T16:14:00.000Z</Time>
            <Position>
              <LatitudeDegrees>42.4392767809331417083740234375</LatitudeDegrees>
              <LongitudeDegrees>2.82467127777636051177978515625</LongitudeDegrees>
            </Position>
            <AltitudeMeters>747.79998779296875</AltitudeMeters>
            <DistanceMeters>8121.3353272287</DistanceMeters>
          </Trackpoint>
          <Trackpoint>
            <Time>2021-03-31T16:14:09.000Z</Time>
            <Position>
              <LatitudeDegrees>42.43928977288305759429931640625</LatitudeDegrees>
              <LongitudeDegrees>2.8245283663272857666015625</LongitudeDegrees>
            </Position>
            <AltitudeMeters>748</AltitudeMeters>
            <DistanceMeters>8133.1630042732</DistanceMeters>
          </Trackpoint>
          <Trackpoint>
            <Time>2021-03-31T16:14:13.000Z</Time>
            <Position>
              <LatitudeDegrees>42.4392883479595184326171875</LatitudeDegrees>
              <LongitudeDegrees>2.82446022145450115203857421875</LongitudeDegrees>
            </Position>
            <AltitudeMeters>748</AltitudeMeters>
            <DistanceMeters>8138.7631342261</DistanceMeters>
          </Trackpoint>
          <Trackpoint>
            <Time>2021-03-31T16:14:15.000Z</Time>
            <Position>
              <LatitudeDegrees>42.4392955563962459564208984375</LatitudeDegrees>
              <LongitudeDegrees>2.82442887313663959503173828125</LongitudeDegrees>
            </Position>
            <AltitudeMeters>748</AltitudeMeters>
            <DistanceMeters>8141.4609558685</DistanceMeters>
          </Trackpoint>
          <Trackpoint>
            <Time>2021-03-31T16:14:16.000Z</Time>
            <Position>
              <LatitudeDegrees>42.43929714895784854888916015625</LatitudeDegrees>
              <LongitudeDegrees>2.8244118578732013702392578125</LongitudeDegrees>
            </Position>
            <AltitudeMeters>748</AltitudeMeters>
            <DistanceMeters>8142.8672228208</DistanceMeters>
          </Trackpoint>
          <Trackpoint>
            <Time>2021-03-31T16:14:18.000Z</Time>
            <Position>
              <LatitudeDegrees>42.4393039382994174957275390625</LatitudeDegrees>
              <LongitudeDegrees>2.8243768215179443359375</LongitudeDegrees>
            </Position>
            <AltitudeMeters>747.79998779296875</AltitudeMeters>
            <DistanceMeters>8145.8420295229</DistanceMeters>
          </Trackpoint>
          <Trackpoint>
            <Time>2021-03-31T16:14:27.000Z</Time>
            <Position>
              <LatitudeDegrees>42.4393401481211185455322265625</LatitudeDegrees>
              <LongitudeDegrees>2.82424028031527996063232421875</LongitudeDegrees>
            </Position>
            <AltitudeMeters>747.5999755859375</AltitudeMeters>
            <DistanceMeters>8157.7598343706</DistanceMeters>
          </Trackpoint>
          <Trackpoint>
            <Time>2021-03-31T16:14:29.000Z</Time>
            <Position>
              <LatitudeDegrees>42.43933436460793018341064453125</LatitudeDegrees>
              <LongitudeDegrees>2.824197448790073394775390625</LongitudeDegrees>
            </Position>
            <AltitudeMeters>747.4000244140625</AltitudeMeters>
            <DistanceMeters>8161.3381927089</DistanceMeters>
          </Trackpoint>
          <Trackpoint>
            <Time>2021-03-31T16:14:32.000Z</Time>
            <Position>
              <LatitudeDegrees>42.43933637626469135284423828125</LatitudeDegrees>
              <LongitudeDegrees>2.8241421282291412353515625</LongitudeDegrees>
            </Position>
            <AltitudeMeters>747</AltitudeMeters>
            <DistanceMeters>8165.8875811524</DistanceMeters>
          </Trackpoint>
          <Trackpoint>
            <Time>2021-03-31T16:14:36.000Z</Time>
            <Position>
              <LatitudeDegrees>42.43935213424265384674072265625</LatitudeDegrees>
              <LongitudeDegrees>2.8240728937089443206787109375</LongitudeDegrees>
            </Position>
            <AltitudeMeters>746.79998779296875</AltitudeMeters>
            <DistanceMeters>8171.839470759</DistanceMeters>
          </Trackpoint>
          <Trackpoint>
            <Time>2021-03-31T16:14:38.000Z</Time>
            <Position>
              <LatitudeDegrees>42.439362443983554840087890625</LatitudeDegrees>
              <LongitudeDegrees>2.82404489815235137939453125</LongitudeDegrees>
            </Position>
            <AltitudeMeters>746.79998779296875</AltitudeMeters>
            <DistanceMeters>8174.4104658888</DistanceMeters>
          </Trackpoint>
          <Trackpoint>
            <Time>2021-03-31T16:14:45.000Z</Time>
            <Position>
              <LatitudeDegrees>42.4393813870847225189208984375</LatitudeDegrees>
              <LongitudeDegrees>2.8239195048809051513671875</LongitudeDegrees>
            </Position>
            <AltitudeMeters>746.20001220703125</AltitudeMeters>
            <DistanceMeters>8184.9237021019</DistanceMeters>
          </Trackpoint>
          <Trackpoint>
            <Time>2021-03-31T16:14:49.000Z</Time>
            <Position>
              <LatitudeDegrees>42.43938918225467205047607421875</LatitudeDegrees>
              <LongitudeDegrees>2.82385203056037425994873046875</LongitudeDegrees>
            </Position>
            <AltitudeMeters>746.20001220703125</AltitudeMeters>
            <DistanceMeters>8190.5343033606</DistanceMeters>
          </Trackpoint>
          <Trackpoint>
            <Time>2021-03-31T16:14:52.000Z</Time>
            <Position>
              <LatitudeDegrees>42.43940745480358600616455078125</LatitudeDegrees>
              <LongitudeDegrees>2.82381095923483371734619140625</LongitudeDegrees>
            </Position>
            <AltitudeMeters>746.20001220703125</AltitudeMeters>
            <DistanceMeters>8194.4730431756</DistanceMeters>
          </Trackpoint>
          <Trackpoint>
            <Time>2021-03-31T16:14:53.000Z</Time>
            <Position>
              <LatitudeDegrees>42.439416088163852691650390625</LatitudeDegrees>
              <LongitudeDegrees>2.8237993083894252777099609375</LongitudeDegrees>
            </Position>
            <AltitudeMeters>746</AltitudeMeters>
            <DistanceMeters>8195.8302961346</DistanceMeters>
          </Trackpoint>
          <Trackpoint>
            <Time>2021-03-31T16:14:54.000Z</Time>
            <Position>
              <LatitudeDegrees>42.4394197762012481689453125</LatitudeDegrees>
              <LongitudeDegrees>2.82378396950662136077880859375</LongitudeDegrees>
            </Position>
            <AltitudeMeters>746</AltitudeMeters>
            <DistanceMeters>8197.1572719846</DistanceMeters>
          </Trackpoint>
          <Trackpoint>
            <Time>2021-03-31T16:15:01.000Z</Time>
            <Position>
              <LatitudeDegrees>42.439453639090061187744140625</LatitudeDegrees>
              <LongitudeDegrees>2.823729403316974639892578125</LongitudeDegrees>
            </Position>
            <AltitudeMeters>746</AltitudeMeters>
            <DistanceMeters>8203.0135703321</DistanceMeters>
          </Trackpoint>
          <Trackpoint>
            <Time>2021-03-31T16:15:06.000Z</Time>
            <Position>
              <LatitudeDegrees>42.439469397068023681640625</LatitudeDegrees>
              <LongitudeDegrees>2.823752202093601226806640625</LongitudeDegrees>
            </Position>
            <AltitudeMeters>746</AltitudeMeters>
            <DistanceMeters>8205.5775312622</DistanceMeters>
          </Trackpoint>
          <Trackpoint>
            <Time>2021-03-31T16:15:08.000Z</Time>
            <Position>
              <LatitudeDegrees>42.439469732344150543212890625</LatitudeDegrees>
              <LongitudeDegrees>2.82375496812164783477783203125</LongitudeDegrees>
            </Position>
            <AltitudeMeters>746</AltitudeMeters>
            <DistanceMeters>8205.8102982243</DistanceMeters>
          </Trackpoint>
          <Trackpoint>
            <Time>2021-03-31T16:15:11.000Z</Time>
            <Position>
              <LatitudeDegrees>42.43946562521159648895263671875</LatitudeDegrees>
              <LongitudeDegrees>2.82373535446822643280029296875</LongitudeDegrees>
            </Position>
            <AltitudeMeters>746.20001220703125</AltitudeMeters>
            <DistanceMeters>8207.4888046588</DistanceMeters>
          </Trackpoint>
          <Trackpoint>
            <Time>2021-03-31T16:15:12.000Z</Time>
            <Position>
              <LatitudeDegrees>42.439467720687389373779296875</LatitudeDegrees>
              <LongitudeDegrees>2.82371699810028076171875</LongitudeDegrees>
            </Position>
            <AltitudeMeters>746.20001220703125</AltitudeMeters>
            <DistanceMeters>8209.0151597035</DistanceMeters>
          </Trackpoint>
          <Trackpoint>
            <Time>2021-03-31T16:15:13.000Z</Time>
            <Position>
              <LatitudeDegrees>42.4394685588777065277099609375</LatitudeDegrees>
              <LongitudeDegrees>2.82369746826589107513427734375</LongitudeDegrees>
            </Position>
            <AltitudeMeters>746.20001220703125</AltitudeMeters>
            <DistanceMeters>8210.6222072644</DistanceMeters>
          </Trackpoint>
          <Trackpoint>
            <Time>2021-03-31T16:15:14.000Z</Time>
            <Position>
              <LatitudeDegrees>42.43947333656251430511474609375</LatitudeDegrees>
              <LongitudeDegrees>2.82367743551731109619140625</LongitudeDegrees>
            </Position>
            <AltitudeMeters>746.20001220703125</AltitudeMeters>
            <DistanceMeters>8212.3536764034</DistanceMeters>
          </Trackpoint>
          <Trackpoint>
            <Time>2021-03-31T16:15:15.000Z</Time>
            <Position>
              <LatitudeDegrees>42.4394772760570049285888671875</LatitudeDegrees>
              <LongitudeDegrees>2.82366008497774600982666015625</LongitudeDegrees>
            </Position>
            <AltitudeMeters>746.4000244140625</AltitudeMeters>
            <DistanceMeters>8213.8441121804</DistanceMeters>
          </Trackpoint>
          <Trackpoint>
            <Time>2021-03-31T16:15:16.000Z</Time>
            <Position>
              <LatitudeDegrees>42.4394786171615123748779296875</LatitudeDegrees>
              <LongitudeDegrees>2.82363996841013431549072265625</LongitudeDegrees>
            </Position>
            <AltitudeMeters>746.4000244140625</AltitudeMeters>
            <DistanceMeters>8215.5009595599</DistanceMeters>
          </Trackpoint>
          <Trackpoint>
            <Time>2021-03-31T16:15:18.000Z</Time>
            <Position>
              <LatitudeDegrees>42.43949512951076030731201171875</LatitudeDegrees>
              <LongitudeDegrees>2.82360878773033618927001953125</LongitudeDegrees>
            </Position>
            <AltitudeMeters>746</AltitudeMeters>
            <DistanceMeters>8218.6555029882</DistanceMeters>
          </Trackpoint>
          <Trackpoint>
            <Time>2021-03-31T16:15:22.000Z</Time>
            <Position>
              <LatitudeDegrees>42.43952983058989048004150390625</LatitudeDegrees>
              <LongitudeDegrees>2.82353603281080722808837890625</LongitudeDegrees>
            </Position>
            <AltitudeMeters>746.20001220703125</AltitudeMeters>
            <DistanceMeters>8225.7704596672</DistanceMeters>
          </Trackpoint>
          <Trackpoint>
            <Time>2021-03-31T16:15:30.000Z</Time>
            <Position>
              <LatitudeDegrees>42.4395929463207721710205078125</LatitudeDegrees>
              <LongitudeDegrees>2.82343662343919277191162109375</LongitudeDegrees>
            </Position>
            <AltitudeMeters>746.5999755859375</AltitudeMeters>
            <DistanceMeters>8236.5416444745</DistanceMeters>
          </Trackpoint>
          <Trackpoint>
            <Time>2021-03-31T16:15:32.000Z</Time>
            <Position>
              <LatitudeDegrees>42.43960426189005374908447265625</LatitudeDegrees>
              <LongitudeDegrees>2.8234112262725830078125</LongitudeDegrees>
            </Position>
            <AltitudeMeters>746.5999755859375</AltitudeMeters>
            <DistanceMeters>8238.9792232527</DistanceMeters>
          </Trackpoint>
          <Trackpoint>
            <Time>2021-03-31T16:15:35.000Z</Time>
            <Position>
              <LatitudeDegrees>42.43962253443896770477294921875</LatitudeDegrees>
              <LongitudeDegrees>2.82337208278477191925048828125</LongitudeDegrees>
            </Position>
            <AltitudeMeters>746.5999755859375</AltitudeMeters>
            <DistanceMeters>8242.7826667535</DistanceMeters>
          </Trackpoint>
          <Trackpoint>
            <Time>2021-03-31T16:15:39.000Z</Time>
            <Position>
              <LatitudeDegrees>42.43966050446033477783203125</LatitudeDegrees>
              <LongitudeDegrees>2.82332665286958217620849609375</LongitudeDegrees>
            </Position>
            <AltitudeMeters>746.4000244140625</AltitudeMeters>
            <DistanceMeters>8248.4205625562</DistanceMeters>
          </Trackpoint>
          <Trackpoint>
            <Time>2021-03-31T16:15:40.000Z</Time>
            <Position>
              <LatitudeDegrees>42.43966779671609401702880859375</LatitudeDegrees>
              <LongitudeDegrees>2.823307625949382781982421875</LongitudeDegrees>
            </Position>
            <AltitudeMeters>746.20001220703125</AltitudeMeters>
            <DistanceMeters>8250.1830455481</DistanceMeters>
          </Trackpoint>
          <Trackpoint>
            <Time>2021-03-31T16:15:49.000Z</Time>
            <Position>
              <LatitudeDegrees>42.43969880975782871246337890625</LatitudeDegrees>
              <LongitudeDegrees>2.82314811833202838897705078125</LongitudeDegrees>
            </Position>
            <AltitudeMeters>745.79998779296875</AltitudeMeters>
            <DistanceMeters>8263.7322689246</DistanceMeters>
          </Trackpoint>
          <Trackpoint>
            <Time>2021-03-31T16:15:56.000Z</Time>
            <Position>
              <LatitudeDegrees>42.43972755968570709228515625</LatitudeDegrees>
              <LongitudeDegrees>2.82302968204021453857421875</LongitudeDegrees>
            </Position>
            <AltitudeMeters>745.20001220703125</AltitudeMeters>
            <DistanceMeters>8273.9731335277</DistanceMeters>
          </Trackpoint>
          <Trackpoint>
            <Time>2021-03-31T16:15:59.000Z</Time>
            <Position>
              <LatitudeDegrees>42.43975463323295116424560546875</LatitudeDegrees>
              <LongitudeDegrees>2.82298517413437366485595703125</LongitudeDegrees>
            </Position>
            <AltitudeMeters>745</AltitudeMeters>
            <DistanceMeters>8278.7111468287</DistanceMeters>
          </Trackpoint>
          <Trackpoint>
            <Time>2021-03-31T16:16:00.000Z</Time>
            <Position>
              <LatitudeDegrees>42.4397542141377925872802734375</LatitudeDegrees>
              <LongitudeDegrees>2.82296455465257167816162109375</LongitudeDegrees>
            </Position>
            <AltitudeMeters>745</AltitudeMeters>
            <DistanceMeters>8280.4057158916</DistanceMeters>
          </Trackpoint>
          <Trackpoint>
            <Time>2021-03-31T16:16:01.000Z</Time>
            <Position>
              <LatitudeDegrees>42.43976368568837642669677734375</LatitudeDegrees>
              <LongitudeDegrees>2.82295114360749721527099609375</LongitudeDegrees>
            </Position>
            <AltitudeMeters>745</AltitudeMeters>
            <DistanceMeters>8281.9320709364</DistanceMeters>
          </Trackpoint>
          <Trackpoint>
            <Time>2021-03-31T16:16:02.000Z</Time>
            <Position>
              <LatitudeDegrees>42.43977676145732402801513671875</LatitudeDegrees>
              <LongitudeDegrees>2.82293873839080333709716796875</LongitudeDegrees>
            </Position>
            <AltitudeMeters>745</AltitudeMeters>
            <DistanceMeters>8283.7073164627</DistanceMeters>
          </Trackpoint>
          <Trackpoint>
            <Time>2021-03-31T16:16:03.000Z</Time>
            <Position>
              <LatitudeDegrees>42.43979000486433506011962890625</LatitudeDegrees>
              <LongitudeDegrees>2.82292683608829975128173828125</LongitudeDegrees>
            </Position>
            <AltitudeMeters>744.79998779296875</AltitudeMeters>
            <DistanceMeters>8285.4749155263</DistanceMeters>
          </Trackpoint>
          <Trackpoint>
            <Time>2021-03-31T16:16:04.000Z</Time>
            <Position>
              <LatitudeDegrees>42.43979821912944316864013671875</LatitudeDegrees>
              <LongitudeDegrees>2.8229141794145107269287109375</LongitudeDegrees>
            </Position>
            <AltitudeMeters>744.79998779296875</AltitudeMeters>
            <DistanceMeters>8286.8585253724</DistanceMeters>
          </Trackpoint>
          <Trackpoint>
            <Time>2021-03-31T16:16:06.000Z</Time>
            <Position>
              <LatitudeDegrees>42.4398033320903778076171875</LatitudeDegrees>
              <LongitudeDegrees>2.82288408838212490081787109375</LongitudeDegrees>
            </Position>
            <AltitudeMeters>744.4000244140625</AltitudeMeters>
            <DistanceMeters>8289.3941543729</DistanceMeters>
          </Trackpoint>
          <Trackpoint>
            <Time>2021-03-31T16:16:09.000Z</Time>
            <Position>
              <LatitudeDegrees>42.439817078411579132080078125</LatitudeDegrees>
              <LongitudeDegrees>2.82284368760883808135986328125</LongitudeDegrees>
            </Position>
            <AltitudeMeters>744.20001220703125</AltitudeMeters>
            <DistanceMeters>8293.04743413</DistanceMeters>
          </Trackpoint>
          <Trackpoint>
            <Time>2021-03-31T16:16:11.000Z</Time>
            <Position>
              <LatitudeDegrees>42.43983040563762187957763671875</LatitudeDegrees>
              <LongitudeDegrees>2.8228129260241985321044921875</LongitudeDegrees>
            </Position>
            <AltitudeMeters>744</AltitudeMeters>
            <DistanceMeters>8295.9763541736</DistanceMeters>
          </Trackpoint>
          <Trackpoint>
            <Time>2021-03-31T16:16:12.000Z</Time>
            <Position>
              <LatitudeDegrees>42.43983811698853969573974609375</LatitudeDegrees>
              <LongitudeDegrees>2.82279809005558490753173828125</LongitudeDegrees>
            </Position>
            <AltitudeMeters>744</AltitudeMeters>
            <DistanceMeters>8297.4637575247</DistanceMeters>
          </Trackpoint>
          <Trackpoint>
            <Time>2021-03-31T16:16:16.000Z</Time>
            <Position>
              <LatitudeDegrees>42.43986577726900577545166015625</LatitudeDegrees>
              <LongitudeDegrees>2.82273757271468639373779296875</LongitudeDegrees>
            </Position>
            <AltitudeMeters>743.4000244140625</AltitudeMeters>
            <DistanceMeters>8303.3107968966</DistanceMeters>
          </Trackpoint>
          <Trackpoint>
            <Time>2021-03-31T16:16:18.000Z</Time>
            <Position>
              <LatitudeDegrees>42.4398796074092388153076171875</LatitudeDegrees>
              <LongitudeDegrees>2.82270488329231739044189453125</LongitudeDegrees>
            </Position>
            <AltitudeMeters>743.4000244140625</AltitudeMeters>
            <DistanceMeters>8306.4046425668</DistanceMeters>
          </Trackpoint>
          <Trackpoint>
            <Time>2021-03-31T16:16:20.000Z</Time>
            <Position>
              <LatitudeDegrees>42.43988513946533203125</LatitudeDegrees>
              <LongitudeDegrees>2.82266716472804546356201171875</LongitudeDegrees>
            </Position>
            <AltitudeMeters>743.20001220703125</AltitudeMeters>
            <DistanceMeters>8309.5649059335</DistanceMeters>
          </Trackpoint>
          <Trackpoint>
            <Time>2021-03-31T16:16:21.000Z</Time>
            <Position>
              <LatitudeDegrees>42.4398864805698394775390625</LatitudeDegrees>
              <LongitudeDegrees>2.82264503650367259979248046875</LongitudeDegrees>
            </Position>
            <AltitudeMeters>743.20001220703125</AltitudeMeters>
            <DistanceMeters>8311.3878343828</DistanceMeters>
          </Trackpoint>
          <Trackpoint>
            <Time>2021-03-31T16:16:22.000Z</Time>
            <Position>
              <LatitudeDegrees>42.43989394046366214752197265625</LatitudeDegrees>
              <LongitudeDegrees>2.822632379829883575439453125</LongitudeDegrees>
            </Position>
            <AltitudeMeters>743.20001220703125</AltitudeMeters>
            <DistanceMeters>8312.7215978774</DistanceMeters>
          </Trackpoint>
          <Trackpoint>
            <Time>2021-03-31T16:16:24.000Z</Time>
            <Position>
              <LatitudeDegrees>42.4399091117084026336669921875</LatitudeDegrees>
              <LongitudeDegrees>2.8226000256836414337158203125</LongitudeDegrees>
            </Position>
            <AltitudeMeters>742.79998779296875</AltitudeMeters>
            <DistanceMeters>8315.8704109769</DistanceMeters>
          </Trackpoint>
          <Trackpoint>
            <Time>2021-03-31T16:16:25.000Z</Time>
            <Position>
              <LatitudeDegrees>42.43991640396416187286376953125</LatitudeDegrees>
              <LongitudeDegrees>2.82258569262921810150146484375</LongitudeDegrees>
            </Position>
            <AltitudeMeters>742.5999755859375</AltitudeMeters>
            <DistanceMeters>8317.3052828977</DistanceMeters>
          </Trackpoint>
          <Trackpoint>
            <Time>2021-03-31T16:16:27.000Z</Time>
            <Position>
              <LatitudeDegrees>42.43993149138987064361572265625</LatitudeDegrees>
              <LongitudeDegrees>2.8225561045110225677490234375</LongitudeDegrees>
            </Position>
            <AltitudeMeters>742.5999755859375</AltitudeMeters>
            <DistanceMeters>8320.2602928674</DistanceMeters>
          </Trackpoint>
          <Trackpoint>
            <Time>2021-03-31T16:16:32.000Z</Time>
            <Position>
              <LatitudeDegrees>42.439991421997547149658203125</LatitudeDegrees>
              <LongitudeDegrees>2.8224984370172023773193359375</LongitudeDegrees>
            </Position>
            <AltitudeMeters>742.4000244140625</AltitudeMeters>
            <DistanceMeters>8328.441425222</DistanceMeters>
          </Trackpoint>
          <Trackpoint>
            <Time>2021-03-31T16:16:39.000Z</Time>
            <Position>
              <LatitudeDegrees>42.44005286134779453277587890625</LatitudeDegrees>
              <LongitudeDegrees>2.82240070402622222900390625</LongitudeDegrees>
            </Position>
            <AltitudeMeters>741.79998779296875</AltitudeMeters>
            <DistanceMeters>8338.9868219147</DistanceMeters>
          </Trackpoint>
          <Trackpoint>
            <Time>2021-03-31T16:16:40.000Z</Time>
            <Position>
              <LatitudeDegrees>42.44005856104195117950439453125</LatitudeDegrees>
              <LongitudeDegrees>2.8223871253430843353271484375</LongitudeDegrees>
            </Position>
            <AltitudeMeters>741.79998779296875</AltitudeMeters>
            <DistanceMeters>8340.2688023798</DistanceMeters>
          </Trackpoint>
          <Trackpoint>
            <Time>2021-03-31T16:16:46.000Z</Time>
            <Position>
              <LatitudeDegrees>42.44010482914745807647705078125</LatitudeDegrees>
              <LongitudeDegrees>2.8222940862178802490234375</LongitudeDegrees>
            </Position>
            <AltitudeMeters>740.79998779296875</AltitudeMeters>
            <DistanceMeters>8349.4839442061</DistanceMeters>
          </Trackpoint>
          <Trackpoint>
            <Time>2021-03-31T16:16:49.000Z</Time>
            <Position>
              <LatitudeDegrees>42.440134920179843902587890625</LatitudeDegrees>
              <LongitudeDegrees>2.8222556971013545989990234375</LongitudeDegrees>
            </Position>
            <AltitudeMeters>740.5999755859375</AltitudeMeters>
            <DistanceMeters>8354.084650585</DistanceMeters>
          </Trackpoint>
          <Trackpoint>
            <Time>2021-03-31T16:16:51.000Z</Time>
            <Position>
              <LatitudeDegrees>42.440150342881679534912109375</LatitudeDegrees>
              <LongitudeDegrees>2.82223440706729888916015625</LongitudeDegrees>
            </Position>
            <AltitudeMeters>740.4000244140625</AltitudeMeters>
            <DistanceMeters>8356.5370027032</DistanceMeters>
          </Trackpoint>
          <Trackpoint>
            <Time>2021-03-31T16:16:53.000Z</Time>
            <Position>
              <LatitudeDegrees>42.44016316719353199005126953125</LatitudeDegrees>
              <LongitudeDegrees>2.82219626940786838531494140625</LongitudeDegrees>
            </Position>
            <AltitudeMeters>740.4000244140625</AltitudeMeters>
            <DistanceMeters>8359.9790166913</DistanceMeters>
          </Trackpoint>
          <Trackpoint>
            <Time>2021-03-31T16:16:54.000Z</Time>
            <Position>
              <LatitudeDegrees>42.440168447792530059814453125</LatitudeDegrees>
              <LongitudeDegrees>2.82218034379184246063232421875</LongitudeDegrees>
            </Position>
            <AltitudeMeters>740</AltitudeMeters>
            <DistanceMeters>8361.4138886122</DistanceMeters>
          </Trackpoint>
          <Trackpoint>
            <Time>2021-03-31T16:16:56.000Z</Time>
            <Position>
              <LatitudeDegrees>42.4401907436549663543701171875</LatitudeDegrees>
              <LongitudeDegrees>2.82216290943324565887451171875</LongitudeDegrees>
            </Position>
            <AltitudeMeters>739.79998779296875</AltitudeMeters>
            <DistanceMeters>8364.2789085925</DistanceMeters>
          </Trackpoint>
          <Trackpoint>
            <Time>2021-03-31T16:17:00.000Z</Time>
            <Position>
              <LatitudeDegrees>42.44020658545196056365966796875</LatitudeDegrees>
              <LongitudeDegrees>2.8221098519861698150634765625</LongitudeDegrees>
            </Position>
            <AltitudeMeters>739.4000244140625</AltitudeMeters>
            <DistanceMeters>8368.9805707597</DistanceMeters>
          </Trackpoint>
          <Trackpoint>
            <Time>2021-03-31T16:17:01.000Z</Time>
            <Position>
              <LatitudeDegrees>42.440203316509723663330078125</LatitudeDegrees>
              <LongitudeDegrees>2.82210440374910831451416015625</LongitudeDegrees>
            </Position>
            <AltitudeMeters>739.4000244140625</AltitudeMeters>
            <DistanceMeters>8369.5507310459</DistanceMeters>
          </Trackpoint>
          <Trackpoint>
            <Time>2021-03-31T16:17:04.000Z</Time>
            <Position>
              <LatitudeDegrees>42.44020893238484859466552734375</LatitudeDegrees>
              <LongitudeDegrees>2.82209635712206363677978515625</LongitudeDegrees>
            </Position>
            <AltitudeMeters>739.20001220703125</AltitudeMeters>
            <DistanceMeters>8370.4621952706</DistanceMeters>
          </Trackpoint>
          <Trackpoint>
            <Time>2021-03-31T16:17:07.000Z</Time>
            <Position>
              <LatitudeDegrees>42.4402148835361003875732421875</LatitudeDegrees>
              <LongitudeDegrees>2.822089903056621551513671875</LongitudeDegrees>
            </Position>
            <AltitudeMeters>738.79998779296875</AltitudeMeters>
            <DistanceMeters>8371.3121400426</DistanceMeters>
          </Trackpoint>
          <Trackpoint>
            <Time>2021-03-31T16:17:09.000Z</Time>
            <Position>
              <LatitudeDegrees>42.4402163922786712646484375</LatitudeDegrees>
              <LongitudeDegrees>2.82208428718149662017822265625</LongitudeDegrees>
            </Position>
            <AltitudeMeters>738.79998779296875</AltitudeMeters>
            <DistanceMeters>8371.7966831135</DistanceMeters>
          </Trackpoint>
          <Trackpoint>
            <Time>2021-03-31T16:17:10.000Z</Time>
            <Position>
              <LatitudeDegrees>42.4402190744876861572265625</LatitudeDegrees>
              <LongitudeDegrees>2.82207607291638851165771484375</LongitudeDegrees>
            </Position>
            <AltitudeMeters>738.5999755859375</AltitudeMeters>
            <DistanceMeters>8372.5388654786</DistanceMeters>
          </Trackpoint>
          <Trackpoint>
            <Time>2021-03-31T16:17:16.000Z</Time>
            <Position>
              <LatitudeDegrees>42.4402271211147308349609375</LatitudeDegrees>
              <LongitudeDegrees>2.821973897516727447509765625</LongitudeDegrees>
            </Position>
            <AltitudeMeters>738</AltitudeMeters>
            <DistanceMeters>8380.978607358</DistanceMeters>
          </Trackpoint>
          <Trackpoint>
            <Time>2021-03-31T16:17:18.000Z</Time>
            <Position>
              <LatitudeDegrees>42.4402190744876861572265625</LatitudeDegrees>
              <LongitudeDegrees>2.82193324528634548187255859375</LongitudeDegrees>
            </Position>
            <AltitudeMeters>737.5999755859375</AltitudeMeters>
            <DistanceMeters>8384.4363264344</DistanceMeters>
          </Trackpoint>
          <Trackpoint>
            <Time>2021-03-31T16:17:24.000Z</Time>
            <Position>
              <LatitudeDegrees>42.440224103629589080810546875</LatitudeDegrees>
              <LongitudeDegrees>2.8218433074653148651123046875</LongitudeDegrees>
            </Position>
            <AltitudeMeters>736.4000244140625</AltitudeMeters>
            <DistanceMeters>8391.8447543801</DistanceMeters>
          </Trackpoint>
          <Trackpoint>
            <Time>2021-03-31T16:17:26.000Z</Time>
            <Position>
              <LatitudeDegrees>42.44023407809436321258544921875</LatitudeDegrees>
              <LongitudeDegrees>2.82181221060454845428466796875</LongitudeDegrees>
            </Position>
            <AltitudeMeters>736.20001220703125</AltitudeMeters>
            <DistanceMeters>8394.631484676</DistanceMeters>
          </Trackpoint>
          <Trackpoint>
            <Time>2021-03-31T16:17:32.000Z</Time>
            <Position>
              <LatitudeDegrees>42.44026106782257556915283203125</LatitudeDegrees>
              <LongitudeDegrees>2.82173224724829196929931640625</LongitudeDegrees>
            </Position>
            <AltitudeMeters>735.4000244140625</AltitudeMeters>
            <DistanceMeters>8401.8535149681</DistanceMeters>
          </Trackpoint>
          <Trackpoint>
            <Time>2021-03-31T16:17:35.000Z</Time>
            <Position>
              <LatitudeDegrees>42.44027246721088886260986328125</LatitudeDegrees>
              <LongitudeDegrees>2.821695618331432342529296875</LongitudeDegrees>
            </Position>
            <AltitudeMeters>735</AltitudeMeters>
            <DistanceMeters>8405.1191726783</DistanceMeters>
          </Trackpoint>
          <Trackpoint>
            <Time>2021-03-31T16:17:40.000Z</Time>
            <Position>
              <LatitudeDegrees>42.44029090739786624908447265625</LatitudeDegrees>
              <LongitudeDegrees>2.8216213546693325042724609375</LongitudeDegrees>
            </Position>
            <AltitudeMeters>734.20001220703125</AltitudeMeters>
            <DistanceMeters>8411.5557859745</DistanceMeters>
          </Trackpoint>
          <Trackpoint>
            <Time>2021-03-31T16:17:45.000Z</Time>
            <Position>
              <LatitudeDegrees>42.44030498899519443511962890625</LatitudeDegrees>
              <LongitudeDegrees>2.82154080457985401153564453125</LongitudeDegrees>
            </Position>
            <AltitudeMeters>733.5999755859375</AltitudeMeters>
            <DistanceMeters>8418.3553441508</DistanceMeters>
          </Trackpoint>
          <Trackpoint>
            <Time>2021-03-31T16:17:49.000Z</Time>
            <Position>
              <LatitudeDegrees>42.44032108224928379058837890625</LatitudeDegrees>
              <LongitudeDegrees>2.82147374935448169708251953125</LongitudeDegrees>
            </Position>
            <AltitudeMeters>733.20001220703125</AltitudeMeters>
            <DistanceMeters>8424.1465188082</DistanceMeters>
          </Trackpoint>
          <Trackpoint>
            <Time>2021-03-31T16:17:53.000Z</Time>
            <Position>
              <LatitudeDegrees>42.44034421630203723907470703125</LatitudeDegrees>
              <LongitudeDegrees>2.8214158304035663604736328125</LongitudeDegrees>
            </Position>
            <AltitudeMeters>732.4000244140625</AltitudeMeters>
            <DistanceMeters>8429.5555342157</DistanceMeters>
          </Trackpoint>
          <Trackpoint>
            <Time>2021-03-31T16:17:54.000Z</Time>
            <Position>
              <LatitudeDegrees>42.44035058654844760894775390625</LatitudeDegrees>
              <LongitudeDegrees>2.8214010782539844512939453125</LongitudeDegrees>
            </Position>
            <AltitudeMeters>732.20001220703125</AltitudeMeters>
            <DistanceMeters>8430.9618011681</DistanceMeters>
          </Trackpoint>
          <Trackpoint>
            <Time>2021-03-31T16:17:55.000Z</Time>
            <Position>
              <LatitudeDegrees>42.44035360403358936309814453125</LatitudeDegrees>
              <LongitudeDegrees>2.8213856555521488189697265625</LongitudeDegrees>
            </Position>
            <AltitudeMeters>732</AltitudeMeters>
            <DistanceMeters>8432.2750964893</DistanceMeters>
          </Trackpoint>
          <Trackpoint>
            <Time>2021-03-31T16:17:59.000Z</Time>
            <Position>
              <LatitudeDegrees>42.44037330150604248046875</LatitudeDegrees>
              <LongitudeDegrees>2.82132572494447231292724609375</LongitudeDegrees>
            </Position>
            <AltitudeMeters>731.5999755859375</AltitudeMeters>
            <DistanceMeters>8437.6640412695</DistanceMeters>
          </Trackpoint>
          <Trackpoint>
            <Time>2021-03-31T16:18:02.000Z</Time>
            <Position>
              <LatitudeDegrees>42.440389059484004974365234375</LatitudeDegrees>
              <LongitudeDegrees>2.82127878628671169281005859375</LongitudeDegrees>
            </Position>
            <AltitudeMeters>731.20001220703125</AltitudeMeters>
            <DistanceMeters>8441.8988649751</DistanceMeters>
          </Trackpoint>
          <Trackpoint>
            <Time>2021-03-31T16:18:03.000Z</Time>
            <Position>
              <LatitudeDegrees>42.44039216078817844390869140625</LatitudeDegrees>
              <LongitudeDegrees>2.82125950790941715240478515625</LongitudeDegrees>
            </Position>
            <AltitudeMeters>731.20001220703125</AltitudeMeters>
            <DistanceMeters>8443.5226821821</DistanceMeters>
          </Trackpoint>
          <Trackpoint>
            <Time>2021-03-31T16:18:04.000Z</Time>
            <Position>
              <LatitudeDegrees>42.44038277305662631988525390625</LatitudeDegrees>
              <LongitudeDegrees>2.82122991979122161865234375</LongitudeDegrees>
            </Position>
            <AltitudeMeters>731</AltitudeMeters>
            <DistanceMeters>8446.168113951</DistanceMeters>
          </Trackpoint>
          <Trackpoint>
            <Time>2021-03-31T16:18:06.000Z</Time>
            <Position>
              <LatitudeDegrees>42.440397106111049652099609375</LatitudeDegrees>
              <LongitudeDegrees>2.82119496725499629974365234375</LongitudeDegrees>
            </Position>
            <AltitudeMeters>730.4000244140625</AltitudeMeters>
            <DistanceMeters>8449.4544449488</DistanceMeters>
          </Trackpoint>
          <Trackpoint>
            <Time>2021-03-31T16:18:09.000Z</Time>
            <Position>
              <LatitudeDegrees>42.4403999559581279754638671875</LatitudeDegrees>
              <LongitudeDegrees>2.82113797031342983245849609375</LongitudeDegrees>
            </Position>
            <AltitudeMeters>730</AltitudeMeters>
            <DistanceMeters>8454.1464942207</DistanceMeters>
          </Trackpoint>
          <Trackpoint>
            <Time>2021-03-31T16:18:11.000Z</Time>
            <Position>
              <LatitudeDegrees>42.44041009806096553802490234375</LatitudeDegrees>
              <LongitudeDegrees>2.8211033530533313751220703125</LongitudeDegrees>
            </Position>
            <AltitudeMeters>730</AltitudeMeters>
            <DistanceMeters>8457.2051146934</DistanceMeters>
          </Trackpoint>
          <Trackpoint>
            <Time>2021-03-31T16:18:12.000Z</Time>
            <Position>
              <LatitudeDegrees>42.4404217489063739776611328125</LatitudeDegrees>
              <LongitudeDegrees>2.821090780198574066162109375</LongitudeDegrees>
            </Position>
            <AltitudeMeters>729.79998779296875</AltitudeMeters>
            <DistanceMeters>8458.8619620729</DistanceMeters>
          </Trackpoint>
          <Trackpoint>
            <Time>2021-03-31T16:18:16.000Z</Time>
            <Position>
              <LatitudeDegrees>42.4404509179294109344482421875</LatitudeDegrees>
              <LongitudeDegrees>2.82102473080158233642578125</LongitudeDegrees>
            </Position>
            <AltitudeMeters>728.79998779296875</AltitudeMeters>
            <DistanceMeters>8465.1846314789</DistanceMeters>
          </Trackpoint>
          <Trackpoint>
            <Time>2021-03-31T16:18:24.000Z</Time>
            <Position>
              <LatitudeDegrees>42.4404686875641345977783203125</LatitudeDegrees>
              <LongitudeDegrees>2.82090428285300731658935546875</LongitudeDegrees>
            </Position>
            <AltitudeMeters>728.20001220703125</AltitudeMeters>
            <DistanceMeters>8475.2740344222</DistanceMeters>
          </Trackpoint>
          <Trackpoint>
            <Time>2021-03-31T16:18:26.000Z</Time>
            <Position>
              <LatitudeDegrees>42.44048285298049449920654296875</LatitudeDegrees>
              <LongitudeDegrees>2.8208847530186176300048828125</LongitudeDegrees>
            </Position>
            <AltitudeMeters>727.79998779296875</AltitudeMeters>
            <DistanceMeters>8477.5227769172</DistanceMeters>
          </Trackpoint>
          <Trackpoint>
            <Time>2021-03-31T16:18:32.000Z</Time>
            <Position>
              <LatitudeDegrees>42.440527193248271942138671875</LatitudeDegrees>
              <LongitudeDegrees>2.82080688513815402984619140625</LongitudeDegrees>
            </Position>
            <AltitudeMeters>727.4000244140625</AltitudeMeters>
            <DistanceMeters>8485.6011655226</DistanceMeters>
          </Trackpoint>
          <Trackpoint>
            <Time>2021-03-31T16:18:36.000Z</Time>
            <Position>
              <LatitudeDegrees>42.44056315161287784576416015625</LatitudeDegrees>
              <LongitudeDegrees>2.82076028175652027130126953125</LongitudeDegrees>
            </Position>
            <AltitudeMeters>726.5999755859375</AltitudeMeters>
            <DistanceMeters>8491.1396824432</DistanceMeters>
          </Trackpoint>
          <Trackpoint>
            <Time>2021-03-31T16:18:37.000Z</Time>
            <Position>
              <LatitudeDegrees>42.4405709467828273773193359375</LatitudeDegrees>
              <LongitudeDegrees>2.820747792720794677734375</LongitudeDegrees>
            </Position>
            <AltitudeMeters>726.4000244140625</AltitudeMeters>
            <DistanceMeters>8492.4835631257</DistanceMeters>
          </Trackpoint>
          <Trackpoint>
            <Time>2021-03-31T16:18:39.000Z</Time>
            <Position>
              <LatitudeDegrees>42.440574467182159423828125</LatitudeDegrees>
              <LongitudeDegrees>2.82071367837488651275634765625</LongitudeDegrees>
            </Position>
            <AltitudeMeters>726.20001220703125</AltitudeMeters>
            <DistanceMeters>8495.3121047516</DistanceMeters>
          </Trackpoint>
          <Trackpoint>
            <Time>2021-03-31T16:18:47.000Z</Time>
            <Position>
              <LatitudeDegrees>42.4405999481678009033203125</LatitudeDegrees>
              <LongitudeDegrees>2.82058484852313995361328125</LongitudeDegrees>
            </Position>
            <AltitudeMeters>725.79998779296875</AltitudeMeters>
            <DistanceMeters>8506.2669993627</DistanceMeters>
          </Trackpoint>
          <Trackpoint>
            <Time>2021-03-31T16:18:50.000Z</Time>
            <Position>
              <LatitudeDegrees>42.440600953996181488037109375</LatitudeDegrees>
              <LongitudeDegrees>2.82052575610578060150146484375</LongitudeDegrees>
            </Position>
            <AltitudeMeters>725.5999755859375</AltitudeMeters>
            <DistanceMeters>8511.121739265</DistanceMeters>
          </Trackpoint>
          <Trackpoint>
            <Time>2021-03-31T16:18:53.000Z</Time>
            <Position>
              <LatitudeDegrees>42.44060573168098926544189453125</LatitudeDegrees>
              <LongitudeDegrees>2.8204713575541973114013671875</LongitudeDegrees>
            </Position>
            <AltitudeMeters>725.5999755859375</AltitudeMeters>
            <DistanceMeters>8515.6212316127</DistanceMeters>
          </Trackpoint>
          <Trackpoint>
            <Time>2021-03-31T16:18:55.000Z</Time>
            <Position>
              <LatitudeDegrees>42.44060589931905269622802734375</LatitudeDegrees>
              <LongitudeDegrees>2.8204348124563694000244140625</LongitudeDegrees>
            </Position>
            <AltitudeMeters>725.4000244140625</AltitudeMeters>
            <DistanceMeters>8518.6232336599</DistanceMeters>
          </Trackpoint>
          <Trackpoint>
            <Time>2021-03-31T16:18:59.000Z</Time>
            <Position>
              <LatitudeDegrees>42.44061159901320934295654296875</LatitudeDegrees>
              <LongitudeDegrees>2.82036901451647281646728515625</LongitudeDegrees>
            </Position>
            <AltitudeMeters>725.20001220703125</AltitudeMeters>
            <DistanceMeters>8524.0638761388</DistanceMeters>
          </Trackpoint>
          <Trackpoint>
            <Time>2021-03-31T16:19:01.000Z</Time>
            <Position>
              <LatitudeDegrees>42.44061000645160675048828125</LatitudeDegrees>
              <LongitudeDegrees>2.820333726704120635986328125</LongitudeDegrees>
            </Position>
            <AltitudeMeters>725</AltitudeMeters>
            <DistanceMeters>8526.9664717569</DistanceMeters>
          </Trackpoint>
          <Trackpoint>
            <Time>2021-03-31T16:19:03.000Z</Time>
            <Position>
              <LatitudeDegrees>42.440607659518718719482421875</LatitudeDegrees>
              <LongitudeDegrees>2.82030480913817882537841796875</LongitudeDegrees>
            </Position>
            <AltitudeMeters>724.79998779296875</AltitudeMeters>
            <DistanceMeters>8529.3554063128</DistanceMeters>
          </Trackpoint>
          <Trackpoint>
            <Time>2021-03-31T16:19:08.000Z</Time>
            <Position>
              <LatitudeDegrees>42.44059416465461254119873046875</LatitudeDegrees>
              <LongitudeDegrees>2.8202153742313385009765625</LongitudeDegrees>
            </Position>
            <AltitudeMeters>724.5999755859375</AltitudeMeters>
            <DistanceMeters>8536.8528876141</DistanceMeters>
          </Trackpoint>
          <Trackpoint>
            <Time>2021-03-31T16:19:13.000Z</Time>
            <Position>
              <LatitudeDegrees>42.44056683965027332305908203125</LatitudeDegrees>
              <LongitudeDegrees>2.82011185772716999053955078125</LongitudeDegrees>
            </Position>
            <AltitudeMeters>723.79998779296875</AltitudeMeters>
            <DistanceMeters>8545.882925836</DistanceMeters>
          </Trackpoint>
          <Trackpoint>
            <Time>2021-03-31T16:19:15.000Z</Time>
            <Position>
              <LatitudeDegrees>42.44056214578449726104736328125</LatitudeDegrees>
              <LongitudeDegrees>2.82007480971515178680419921875</LongitudeDegrees>
            </Position>
            <AltitudeMeters>723.5999755859375</AltitudeMeters>
            <DistanceMeters>8548.9709285441</DistanceMeters>
          </Trackpoint>
          <Trackpoint>
            <Time>2021-03-31T16:19:20.000Z</Time>
            <Position>
              <LatitudeDegrees>42.44054404087364673614501953125</LatitudeDegrees>
              <LongitudeDegrees>2.81997020356357097625732421875</LongitudeDegrees>
            </Position>
            <AltitudeMeters>723</AltitudeMeters>
            <DistanceMeters>8557.7966545428</DistanceMeters>
          </Trackpoint>
          <Trackpoint>
            <Time>2021-03-31T16:19:23.000Z</Time>
            <Position>
              <LatitudeDegrees>42.44054202921688556671142578125</LatitudeDegrees>
              <LongitudeDegrees>2.81993315555155277252197265625</LongitudeDegrees>
            </Position>
            <AltitudeMeters>722.5999755859375</AltitudeMeters>
            <DistanceMeters>8560.8493646323</DistanceMeters>
          </Trackpoint>
          <Trackpoint>
            <Time>2021-03-31T16:19:24.000Z</Time>
            <Position>
              <LatitudeDegrees>42.44053758680820465087890625</LatitudeDegrees>
              <LongitudeDegrees>2.81991488300263881683349609375</LongitudeDegrees>
            </Position>
            <AltitudeMeters>722.4000244140625</AltitudeMeters>
            <DistanceMeters>8562.4280669787</DistanceMeters>
          </Trackpoint>
          <Trackpoint>
            <Time>2021-03-31T16:19:31.000Z</Time>
            <Position>
              <LatitudeDegrees>42.440557368099689483642578125</LatitudeDegrees>
              <LongitudeDegrees>2.81983072869479656219482421875</LongitudeDegrees>
            </Position>
            <AltitudeMeters>722</AltitudeMeters>
            <DistanceMeters>8569.6831559231</DistanceMeters>
          </Trackpoint>
          <Trackpoint>
            <Time>2021-03-31T16:19:33.000Z</Time>
            <Position>
              <LatitudeDegrees>42.44056818075478076934814453125</LatitudeDegrees>
              <LongitudeDegrees>2.819806002080440521240234375</LongitudeDegrees>
            </Position>
            <AltitudeMeters>722</AltitudeMeters>
            <DistanceMeters>8572.0454825818</DistanceMeters>
          </Trackpoint>
          <Trackpoint>
            <Time>2021-03-31T16:19:35.000Z</Time>
            <Position>
              <LatitudeDegrees>42.44056784547865390777587890625</LatitudeDegrees>
              <LongitudeDegrees>2.81977607868611812591552734375</LongitudeDegrees>
            </Position>
            <AltitudeMeters>722</AltitudeMeters>
            <DistanceMeters>8574.5051880962</DistanceMeters>
          </Trackpoint>
          <Trackpoint>
            <Time>2021-03-31T16:19:38.000Z</Time>
            <Position>
              <LatitudeDegrees>42.44058511219918727874755859375</LatitudeDegrees>
              <LongitudeDegrees>2.8197391144931316375732421875</LongitudeDegrees>
            </Position>
            <AltitudeMeters>721.79998779296875</AltitudeMeters>
            <DistanceMeters>8578.0986556854</DistanceMeters>
          </Trackpoint>
          <Trackpoint>
            <Time>2021-03-31T16:19:43.000Z</Time>
            <Position>
              <LatitudeDegrees>42.44060221128165721893310546875</LatitudeDegrees>
              <LongitudeDegrees>2.8196894936263561248779296875</LongitudeDegrees>
            </Position>
            <AltitudeMeters>721.5999755859375</AltitudeMeters>
            <DistanceMeters>8582.5961406753</DistanceMeters>
          </Trackpoint>
          <Trackpoint>
            <Time>2021-03-31T16:19:45.000Z</Time>
            <Position>
              <LatitudeDegrees>42.440604977309703826904296875</LatitudeDegrees>
              <LongitudeDegrees>2.81968471594154834747314453125</LongitudeDegrees>
            </Position>
            <AltitudeMeters>721.4000244140625</AltitudeMeters>
            <DistanceMeters>8583.0989747836</DistanceMeters>
          </Trackpoint>
          <Trackpoint>
            <Time>2021-03-31T16:19:48.000Z</Time>
            <Position>
              <LatitudeDegrees>42.44060606695711612701416015625</LatitudeDegrees>
              <LongitudeDegrees>2.819674909114837646484375</LongitudeDegrees>
            </Position>
            <AltitudeMeters>721.4000244140625</AltitudeMeters>
            <DistanceMeters>8583.9108833871</DistanceMeters>
          </Trackpoint>
          <Trackpoint>
            <Time>2021-03-31T16:19:52.000Z</Time>
            <Position>
              <LatitudeDegrees>42.44061042554676532745361328125</LatitudeDegrees>
              <LongitudeDegrees>2.819681279361248016357421875</LongitudeDegrees>
            </Position>
            <AltitudeMeters>721.4000244140625</AltitudeMeters>
            <DistanceMeters>8584.6219982026</DistanceMeters>
          </Trackpoint>
          <Trackpoint>
            <Time>2021-03-31T16:19:54.000Z</Time>
            <Position>
              <LatitudeDegrees>42.44061578996479511260986328125</LatitudeDegrees>
              <LongitudeDegrees>2.81968706287443637847900390625</LongitudeDegrees>
            </Position>
            <AltitudeMeters>721.4000244140625</AltitudeMeters>
            <DistanceMeters>8585.3822119176</DistanceMeters>
          </Trackpoint>
          <Trackpoint>
            <Time>2021-03-31T16:19:57.000Z</Time>
            <Position>
              <LatitudeDegrees>42.44061813689768314361572265625</LatitudeDegrees>
              <LongitudeDegrees>2.8196854703128337860107421875</LongitudeDegrees>
            </Position>
            <AltitudeMeters>721.4000244140625</AltitudeMeters>
            <DistanceMeters>8585.6827127735</DistanceMeters>
          </Trackpoint>
          <Trackpoint>
            <Time>2021-03-31T16:20:02.000Z</Time>
            <Position>
              <LatitudeDegrees>42.44062065146863460540771484375</LatitudeDegrees>
              <LongitudeDegrees>2.81968102790415287017822265625</LongitudeDegrees>
            </Position>
            <AltitudeMeters>721.5999755859375</AltitudeMeters>
            <DistanceMeters>8586.1482466978</DistanceMeters>
          </Trackpoint>
          <Trackpoint>
            <Time>2021-03-31T16:20:05.000Z</Time>
            <Position>
              <LatitudeDegrees>42.4406524188816547393798828125</LatitudeDegrees>
              <LongitudeDegrees>2.81965009868144989013671875</LongitudeDegrees>
            </Position>
            <AltitudeMeters>721.4000244140625</AltitudeMeters>
            <DistanceMeters>8590.5029178143</DistanceMeters>
          </Trackpoint>
          <Trackpoint>
            <Time>2021-03-31T16:20:12.000Z</Time>
            <Position>
              <LatitudeDegrees>42.44074788875877857208251953125</LatitudeDegrees>
              <LongitudeDegrees>2.81956451945006847381591796875</LongitudeDegrees>
            </Position>
            <AltitudeMeters>720.79998779296875</AltitudeMeters>
            <DistanceMeters>8603.2435871121</DistanceMeters>
          </Trackpoint>
          <Trackpoint>
            <Time>2021-03-31T16:20:21.000Z</Time>
            <Position>
              <LatitudeDegrees>42.44085182435810565948486328125</LatitudeDegrees>
              <LongitudeDegrees>2.81948992051184177398681640625</LongitudeDegrees>
            </Position>
            <AltitudeMeters>720.4000244140625</AltitudeMeters>
            <DistanceMeters>8616.3345301932</DistanceMeters>
          </Trackpoint>
          <Trackpoint>
            <Time>2021-03-31T16:20:22.000Z</Time>
            <Position>
              <LatitudeDegrees>42.44086322374641895294189453125</LatitudeDegrees>
              <LongitudeDegrees>2.81948246061801910400390625</LongitudeDegrees>
            </Position>
            <AltitudeMeters>720.4000244140625</AltitudeMeters>
            <DistanceMeters>8617.7440041439</DistanceMeters>
          </Trackpoint>
          <Trackpoint>
            <Time>2021-03-31T16:20:31.000Z</Time>
            <Position>
              <LatitudeDegrees>42.4409675784409046173095703125</LatitudeDegrees>
              <LongitudeDegrees>2.8194071911275386810302734375</LongitudeDegrees>
            </Position>
            <AltitudeMeters>720</AltitudeMeters>
            <DistanceMeters>8630.9016872828</DistanceMeters>
          </Trackpoint>
          <Trackpoint>
            <Time>2021-03-31T16:20:40.000Z</Time>
            <Position>
              <LatitudeDegrees>42.44108115322887897491455078125</LatitudeDegrees>
              <LongitudeDegrees>2.81933217309415340423583984375</LongitudeDegrees>
            </Position>
            <AltitudeMeters>719.79998779296875</AltitudeMeters>
            <DistanceMeters>8644.9643568061</DistanceMeters>
          </Trackpoint>
          <Trackpoint>
            <Time>2021-03-31T16:20:46.000Z</Time>
            <Position>
              <LatitudeDegrees>42.44114778935909271240234375</LatitudeDegrees>
              <LongitudeDegrees>2.819286994636058807373046875</LongitudeDegrees>
            </Position>
            <AltitudeMeters>719.20001220703125</AltitudeMeters>
            <DistanceMeters>8653.2573093682</DistanceMeters>
          </Trackpoint>
          <Trackpoint>
            <Time>2021-03-31T16:20:50.000Z</Time>
            <Position>
              <LatitudeDegrees>42.4411761201918125152587890625</LatitudeDegrees>
              <LongitudeDegrees>2.81924382783472537994384765625</LongitudeDegrees>
            </Position>
            <AltitudeMeters>719</AltitudeMeters>
            <DistanceMeters>8658.0029400588</DistanceMeters>
          </Trackpoint>
          <Trackpoint>
            <Time>2021-03-31T16:20:58.000Z</Time>
            <Position>
              <LatitudeDegrees>42.4412337876856327056884765625</LatitudeDegrees>
              <LongitudeDegrees>2.81914626248180866241455078125</LongitudeDegrees>
            </Position>
            <AltitudeMeters>718.20001220703125</AltitudeMeters>
            <DistanceMeters>8668.2706633937</DistanceMeters>
          </Trackpoint>
          <Trackpoint>
            <Time>2021-03-31T16:20:59.000Z</Time>
            <Position>
              <LatitudeDegrees>42.441237308084964752197265625</LatitudeDegrees>
              <LongitudeDegrees>2.81913134269416332244873046875</LongitudeDegrees>
            </Position>
            <AltitudeMeters>718</AltitudeMeters>
            <DistanceMeters>8669.5561609586</DistanceMeters>
          </Trackpoint>
          <Trackpoint>
            <Time>2021-03-31T16:21:07.000Z</Time>
            <Position>
              <LatitudeDegrees>42.44126823730766773223876953125</LatitudeDegrees>
              <LongitudeDegrees>2.81899471767246723175048828125</LongitudeDegrees>
            </Position>
            <AltitudeMeters>717.4000244140625</AltitudeMeters>
            <DistanceMeters>8681.2941721352</DistanceMeters>
          </Trackpoint>
          <Trackpoint>
            <Time>2021-03-31T16:21:09.000Z</Time>
            <Position>
              <LatitudeDegrees>42.44128055870532989501953125</LatitudeDegrees>
              <LongitudeDegrees>2.8189730085432529449462890625</LongitudeDegrees>
            </Position>
            <AltitudeMeters>717</AltitudeMeters>
            <DistanceMeters>8683.5449215404</DistanceMeters>
          </Trackpoint>
          <Trackpoint>
            <Time>2021-03-31T16:21:14.000Z</Time>
            <Position>
              <LatitudeDegrees>42.44130813516676425933837890625</LatitudeDegrees>
              <LongitudeDegrees>2.8189146704971790313720703125</LongitudeDegrees>
            </Position>
            <AltitudeMeters>716.5999755859375</AltitudeMeters>
            <DistanceMeters>8689.2362205314</DistanceMeters>
          </Trackpoint>
          <Trackpoint>
            <Time>2021-03-31T16:21:17.000Z</Time>
            <Position>
              <LatitudeDegrees>42.4413269944489002227783203125</LatitudeDegrees>
              <LongitudeDegrees>2.8188714198768138885498046875</LongitudeDegrees>
            </Position>
            <AltitudeMeters>716.20001220703125</AltitudeMeters>
            <DistanceMeters>8693.3619561139</DistanceMeters>
          </Trackpoint>
          <Trackpoint>
            <Time>2021-03-31T16:21:18.000Z</Time>
            <Position>
              <LatitudeDegrees>42.44133043102920055389404296875</LatitudeDegrees>
              <LongitudeDegrees>2.81885591335594654083251953125</LongitudeDegrees>
            </Position>
            <AltitudeMeters>715.79998779296875</AltitudeMeters>
            <DistanceMeters>8694.6923301151</DistanceMeters>
          </Trackpoint>
          <Trackpoint>
            <Time>2021-03-31T16:21:21.000Z</Time>
            <Position>
              <LatitudeDegrees>42.4413538165390491485595703125</LatitudeDegrees>
              <LongitudeDegrees>2.8188167698681354522705078125</LongitudeDegrees>
            </Position>
            <AltitudeMeters>715.20001220703125</AltitudeMeters>
            <DistanceMeters>8698.8300861419</DistanceMeters>
          </Trackpoint>
          <Trackpoint>
            <Time>2021-03-31T16:21:25.000Z</Time>
            <Position>
              <LatitudeDegrees>42.44137384928762912750244140625</LatitudeDegrees>
              <LongitudeDegrees>2.818772010505199432373046875</LongitudeDegrees>
            </Position>
            <AltitudeMeters>714.79998779296875</AltitudeMeters>
            <DistanceMeters>8703.1294542909</DistanceMeters>
          </Trackpoint>
          <Trackpoint>
            <Time>2021-03-31T16:21:29.000Z</Time>
            <Position>
              <LatitudeDegrees>42.44141726754605770111083984375</LatitudeDegrees>
              <LongitudeDegrees>2.818731106817722320556640625</LongitudeDegrees>
            </Position>
            <AltitudeMeters>714.4000244140625</AltitudeMeters>
            <DistanceMeters>8709.014976633</DistanceMeters>
          </Trackpoint>
          <Trackpoint>
            <Time>2021-03-31T16:21:30.000Z</Time>
            <Position>
              <LatitudeDegrees>42.44142539799213409423828125</LatitudeDegrees>
              <LongitudeDegrees>2.81871928833425045013427734375</LongitudeDegrees>
            </Position>
            <AltitudeMeters>714.4000244140625</AltitudeMeters>
            <DistanceMeters>8710.3453506342</DistanceMeters>
          </Trackpoint>
          <Trackpoint>
            <Time>2021-03-31T16:21:34.000Z</Time>
            <Position>
              <LatitudeDegrees>42.44146051816642284393310546875</LatitudeDegrees>
              <LongitudeDegrees>2.81866966746747493743896484375</LongitudeDegrees>
            </Position>
            <AltitudeMeters>714</AltitudeMeters>
            <DistanceMeters>8715.9936477295</DistanceMeters>
          </Trackpoint>
          <Trackpoint>
            <Time>2021-03-31T16:21:35.000Z</Time>
            <Position>
              <LatitudeDegrees>42.44146554730832576751708984375</LatitudeDegrees>
              <LongitudeDegrees>2.8186489641666412353515625</LongitudeDegrees>
            </Position>
            <AltitudeMeters>713.5999755859375</AltitudeMeters>
            <DistanceMeters>8717.7840882165</DistanceMeters>
          </Trackpoint>
          <Trackpoint>
            <Time>2021-03-31T16:21:36.000Z</Time>
            <Position>
              <LatitudeDegrees>42.4414718337357044219970703125</LatitudeDegrees>
              <LongitudeDegrees>2.81862775795161724090576171875</LongitudeDegrees>
            </Position>
            <AltitudeMeters>713.4000244140625</AltitudeMeters>
            <DistanceMeters>8719.6607154605</DistanceMeters>
          </Trackpoint>
          <Trackpoint>
            <Time>2021-03-31T16:21:40.000Z</Time>
            <Position>
              <LatitudeDegrees>42.44150494225323200225830078125</LatitudeDegrees>
              <LongitudeDegrees>2.8185723535716533660888671875</LongitudeDegrees>
            </Position>
            <AltitudeMeters>712.79998779296875</AltitudeMeters>
            <DistanceMeters>8725.5154716622</DistanceMeters>
          </Trackpoint>
          <Trackpoint>
            <Time>2021-03-31T16:21:41.000Z</Time>
            <Position>
              <LatitudeDegrees>42.44151617400348186492919921875</LatitudeDegrees>
              <LongitudeDegrees>2.81855978071689605712890625</LongitudeDegrees>
            </Position>
            <AltitudeMeters>712.4000244140625</AltitudeMeters>
            <DistanceMeters>8727.1365059756</DistanceMeters>
          </Trackpoint>
          <Trackpoint>
            <Time>2021-03-31T16:21:46.000Z</Time>
            <Position>
              <LatitudeDegrees>42.44155523367226123809814453125</LatitudeDegrees>
              <LongitudeDegrees>2.8185014426708221435546875</LongitudeDegrees>
            </Position>
            <AltitudeMeters>711.79998779296875</AltitudeMeters>
            <DistanceMeters>8733.60670183</DistanceMeters>
          </Trackpoint>
          <Trackpoint>
            <Time>2021-03-31T16:21:48.000Z</Time>
            <Position>
              <LatitudeDegrees>42.44157283566892147064208984375</LatitudeDegrees>
              <LongitudeDegrees>2.81848140992224216461181640625</LongitudeDegrees>
            </Position>
            <AltitudeMeters>711.79998779296875</AltitudeMeters>
            <DistanceMeters>8736.1653744198</DistanceMeters>
          </Trackpoint>
          <Trackpoint>
            <Time>2021-03-31T16:21:51.000Z</Time>
            <Position>
              <LatitudeDegrees>42.44160066358745098114013671875</LatitudeDegrees>
              <LongitudeDegrees>2.81845324672758579254150390625</LongitudeDegrees>
            </Position>
            <AltitudeMeters>711.5999755859375</AltitudeMeters>
            <DistanceMeters>8740.0323896243</DistanceMeters>
          </Trackpoint>
          <Trackpoint>
            <Time>2021-03-31T16:21:52.000Z</Time>
            <Position>
              <LatitudeDegrees>42.44160669855773448944091796875</LatitudeDegrees>
              <LongitudeDegrees>2.81844520010054111480712890625</LongitudeDegrees>
            </Position>
            <AltitudeMeters>711.4000244140625</AltitudeMeters>
            <DistanceMeters>8740.973106102</DistanceMeters>
          </Trackpoint>
          <Trackpoint>
            <Time>2021-03-31T16:21:54.000Z</Time>
            <Position>
              <LatitudeDegrees>42.441621534526348114013671875</LatitudeDegrees>
              <LongitudeDegrees>2.818423993885517120361328125</LongitudeDegrees>
            </Position>
            <AltitudeMeters>711.20001220703125</AltitudeMeters>
            <DistanceMeters>8743.3733537499</DistanceMeters>
          </Trackpoint>
          <Trackpoint>
            <Time>2021-03-31T16:21:57.000Z</Time>
            <Position>
              <LatitudeDegrees>42.44163469411432743072509765625</LatitudeDegrees>
              <LongitudeDegrees>2.81838619150221347808837890625</LongitudeDegrees>
            </Position>
            <AltitudeMeters>711.20001220703125</AltitudeMeters>
            <DistanceMeters>8746.8048577471</DistanceMeters>
          </Trackpoint>
          <Trackpoint>
            <Time>2021-03-31T16:22:00.000Z</Time>
            <Position>
              <LatitudeDegrees>42.44164005853235721588134765625</LatitudeDegrees>
              <LongitudeDegrees>2.818344868719577789306640625</LongitudeDegrees>
            </Position>
            <AltitudeMeters>710.79998779296875</AltitudeMeters>
            <DistanceMeters>8750.2521147147</DistanceMeters>
          </Trackpoint>
          <Trackpoint>
            <Time>2021-03-31T16:22:01.000Z</Time>
            <Position>
              <LatitudeDegrees>42.44163972325623035430908203125</LatitudeDegrees>
              <LongitudeDegrees>2.81832936219871044158935546875</LongitudeDegrees>
            </Position>
            <AltitudeMeters>710.79998779296875</AltitudeMeters>
            <DistanceMeters>8751.5305684042</DistanceMeters>
          </Trackpoint>
          <Trackpoint>
            <Time>2021-03-31T16:22:06.000Z</Time>
            <Position>
              <LatitudeDegrees>42.4416639469563961029052734375</LatitudeDegrees>
              <LongitudeDegrees>2.8182400949299335479736328125</LongitudeDegrees>
            </Position>
            <AltitudeMeters>710.4000244140625</AltitudeMeters>
            <DistanceMeters>8759.3424348015</DistanceMeters>
          </Trackpoint>
          <Trackpoint>
            <Time>2021-03-31T16:22:10.000Z</Time>
            <Position>
              <LatitudeDegrees>42.44169001467525959014892578125</LatitudeDegrees>
              <LongitudeDegrees>2.8181716986000537872314453125</LongitudeDegrees>
            </Position>
            <AltitudeMeters>709.5999755859375</AltitudeMeters>
            <DistanceMeters>8765.6658182703</DistanceMeters>
          </Trackpoint>
          <Trackpoint>
            <Time>2021-03-31T16:22:11.000Z</Time>
            <Position>
              <LatitudeDegrees>42.4417004920542240142822265625</LatitudeDegrees>
              <LongitudeDegrees>2.81815552152693271636962890625</LongitudeDegrees>
            </Position>
            <AltitudeMeters>709.4000244140625</AltitudeMeters>
            <DistanceMeters>8767.4334173339</DistanceMeters>
          </Trackpoint>
          <Trackpoint>
            <Time>2021-03-31T16:22:18.000Z</Time>
            <Position>
              <LatitudeDegrees>42.44172069244086742401123046875</LatitudeDegrees>
              <LongitudeDegrees>2.81805980019271373748779296875</LongitudeDegrees>
            </Position>
            <AltitudeMeters>709</AltitudeMeters>
            <DistanceMeters>8775.6112377124</DistanceMeters>
          </Trackpoint>
          <Trackpoint>
            <Time>2021-03-31T16:22:22.000Z</Time>
            <Position>
              <LatitudeDegrees>42.4417333491146564483642578125</LatitudeDegrees>
              <LongitudeDegrees>2.81799919903278350830078125</LongitudeDegrees>
            </Position>
            <AltitudeMeters>708.20001220703125</AltitudeMeters>
            <DistanceMeters>8780.7847419967</DistanceMeters>
          </Trackpoint>
          <Trackpoint>
            <Time>2021-03-31T16:22:28.000Z</Time>
            <Position>
              <LatitudeDegrees>42.4417648650705814361572265625</LatitudeDegrees>
              <LongitudeDegrees>2.81791261397302150726318359375</LongitudeDegrees>
            </Position>
            <AltitudeMeters>707</AltitudeMeters>
            <DistanceMeters>8788.7147768236</DistanceMeters>
          </Trackpoint>
          <Trackpoint>
            <Time>2021-03-31T16:22:29.000Z</Time>
            <Position>
              <LatitudeDegrees>42.441769056022167205810546875</LatitudeDegrees>
              <LongitudeDegrees>2.81789601780474185943603515625</LongitudeDegrees>
            </Position>
            <AltitudeMeters>706.79998779296875</AltitudeMeters>
            <DistanceMeters>8790.1559283015</DistanceMeters>
          </Trackpoint>
          <Trackpoint>
            <Time>2021-03-31T16:22:34.000Z</Time>
            <Position>
              <LatitudeDegrees>42.44178707711398601531982421875</LatitudeDegrees>
              <LongitudeDegrees>2.8178216703236103057861328125</LongitudeDegrees>
            </Position>
            <AltitudeMeters>706</AltitudeMeters>
            <DistanceMeters>8796.5841185451</DistanceMeters>
          </Trackpoint>
          <Trackpoint>
            <Time>2021-03-31T16:22:35.000Z</Time>
            <Position>
              <LatitudeDegrees>42.441795878112316131591796875</LatitudeDegrees>
              <LongitudeDegrees>2.8178079240024089813232421875</LongitudeDegrees>
            </Position>
            <AltitudeMeters>706</AltitudeMeters>
            <DistanceMeters>8798.0775805907</DistanceMeters>
          </Trackpoint>
          <Trackpoint>
            <Time>2021-03-31T16:22:37.000Z</Time>
            <Position>
              <LatitudeDegrees>42.4418087862432003021240234375</LatitudeDegrees>
              <LongitudeDegrees>2.81777858734130859375</LongitudeDegrees>
            </Position>
            <AltitudeMeters>705.79998779296875</AltitudeMeters>
            <DistanceMeters>8800.8804659801</DistanceMeters>
          </Trackpoint>
          <Trackpoint>
            <Time>2021-03-31T16:22:44.000Z</Time>
            <Position>
              <LatitudeDegrees>42.44184038601815700531005859375</LatitudeDegrees>
              <LongitudeDegrees>2.817677669227123260498046875</LongitudeDegrees>
            </Position>
            <AltitudeMeters>705.20001220703125</AltitudeMeters>
            <DistanceMeters>8809.8844665528</DistanceMeters>
          </Trackpoint>
          <Trackpoint>
            <Time>2021-03-31T16:22:45.000Z</Time>
            <Position>
              <LatitudeDegrees>42.4418418109416961669921875</LatitudeDegrees>
              <LongitudeDegrees>2.81766132451593875885009765625</LongitudeDegrees>
            </Position>
            <AltitudeMeters>705.20001220703125</AltitudeMeters>
            <DistanceMeters>8811.2350499237</DistanceMeters>
          </Trackpoint>
          <Trackpoint>
            <Time>2021-03-31T16:22:53.000Z</Time>
            <Position>
              <LatitudeDegrees>42.44187005795538425445556640625</LatitudeDegrees>
              <LongitudeDegrees>2.81756124459207057952880859375</LongitudeDegrees>
            </Position>
            <AltitudeMeters>705.20001220703125</AltitudeMeters>
            <DistanceMeters>8820.0361859717</DistanceMeters>
          </Trackpoint>
          <Trackpoint>
            <Time>2021-03-31T16:22:54.000Z</Time>
            <Position>
              <LatitudeDegrees>42.44187508709728717803955078125</LatitudeDegrees>
              <LongitudeDegrees>2.81754012219607830047607421875</LongitudeDegrees>
            </Position>
            <AltitudeMeters>705</AltitudeMeters>
            <DistanceMeters>8821.8591144211</DistanceMeters>
          </Trackpoint>
          <Trackpoint>
            <Time>2021-03-31T16:23:01.000Z</Time>
            <Position>
              <LatitudeDegrees>42.44190752506256103515625</LatitudeDegrees>
              <LongitudeDegrees>2.81743459403514862060546875</LongitudeDegrees>
            </Position>
            <AltitudeMeters>704.4000244140625</AltitudeMeters>
            <DistanceMeters>8831.2489848354</DistanceMeters>
          </Trackpoint>
          <Trackpoint>
            <Time>2021-03-31T16:23:03.000Z</Time>
            <Position>
              <LatitudeDegrees>42.44190626777708530426025390625</LatitudeDegrees>
              <LongitudeDegrees>2.81740852631628513336181640625</LongitudeDegrees>
            </Position>
            <AltitudeMeters>704</AltitudeMeters>
            <DistanceMeters>8833.3949901911</DistanceMeters>
          </Trackpoint>
          <Trackpoint>
            <Time>2021-03-31T16:23:05.000Z</Time>
            <Position>
              <LatitudeDegrees>42.441909201443195343017578125</LatitudeDegrees>
              <LongitudeDegrees>2.81739092431962490081787109375</LongitudeDegrees>
            </Position>
            <AltitudeMeters>703.79998779296875</AltitudeMeters>
            <DistanceMeters>8834.8793549213</DistanceMeters>
          </Trackpoint>
          <Trackpoint>
            <Time>2021-03-31T16:23:07.000Z</Time>
            <Position>
              <LatitudeDegrees>42.44191129691898822784423828125</LatitudeDegrees>
              <LongitudeDegrees>2.8173791058361530303955078125</LongitudeDegrees>
            </Position>
            <AltitudeMeters>703.79998779296875</AltitudeMeters>
            <DistanceMeters>8835.8760035097</DistanceMeters>
          </Trackpoint>
          <Trackpoint>
            <Time>2021-03-31T16:23:11.000Z</Time>
            <Position>
              <LatitudeDegrees>42.4419090338051319122314453125</LatitudeDegrees>
              <LongitudeDegrees>2.81733979471027851104736328125</LongitudeDegrees>
            </Position>
            <AltitudeMeters>703.79998779296875</AltitudeMeters>
            <DistanceMeters>8839.1152856567</DistanceMeters>
          </Trackpoint>
          <Trackpoint>
            <Time>2021-03-31T16:23:13.000Z</Time>
            <Position>
              <LatitudeDegrees>42.441903166472911834716796875</LatitudeDegrees>
              <LongitudeDegrees>2.8173247911036014556884765625</LongitudeDegrees>
            </Position>
            <AltitudeMeters>703.4000244140625</AltitudeMeters>
            <DistanceMeters>8840.5118874296</DistanceMeters>
          </Trackpoint>
          <Trackpoint>
            <Time>2021-03-31T16:23:14.000Z</Time>
            <Position>
              <LatitudeDegrees>42.4418999813497066497802734375</LatitudeDegrees>
              <LongitudeDegrees>2.8173185884952545166015625</LongitudeDegrees>
            </Position>
            <AltitudeMeters>703.4000244140625</AltitudeMeters>
            <DistanceMeters>8841.1422233428</DistanceMeters>
          </Trackpoint>
          <Trackpoint>
            <Time>2021-03-31T16:23:15.000Z</Time>
            <Position>
              <LatitudeDegrees>42.44190056808292865753173828125</LatitudeDegrees>
              <LongitudeDegrees>2.81732034869492053985595703125</LongitudeDegrees>
            </Position>
            <AltitudeMeters>703.4000244140625</AltitudeMeters>
            <DistanceMeters>8841.3068144402</DistanceMeters>
          </Trackpoint>
          <Trackpoint>
            <Time>2021-03-31T16:23:18.000Z</Time>
            <Position>
              <LatitudeDegrees>42.44189537130296230316162109375</LatitudeDegrees>
              <LongitudeDegrees>2.817293442785739898681640625</LongitudeDegrees>
            </Position>
            <AltitudeMeters>703.4000244140625</AltitudeMeters>
            <DistanceMeters>8843.5933870415</DistanceMeters>
          </Trackpoint>
          <Trackpoint>
            <Time>2021-03-31T16:23:28.000Z</Time>
            <Position>
              <LatitudeDegrees>42.4418257176876068115234375</LatitudeDegrees>
              <LongitudeDegrees>2.81717785634100437164306640625</LongitudeDegrees>
            </Position>
            <AltitudeMeters>704</AltitudeMeters>
            <DistanceMeters>8855.8507281836</DistanceMeters>
          </Trackpoint>
          <Trackpoint>
            <Time>2021-03-31T16:23:29.000Z</Time>
            <Position>
              <LatitudeDegrees>42.44181725196540355682373046875</LatitudeDegrees>
              <LongitudeDegrees>2.8171710669994354248046875</LongitudeDegrees>
            </Position>
            <AltitudeMeters>704</AltitudeMeters>
            <DistanceMeters>8856.9425020112</DistanceMeters>
          </Trackpoint>
          <Trackpoint>
            <Time>2021-03-31T16:23:37.000Z</Time>
            <Position>
              <LatitudeDegrees>42.44173745624721050262451171875</LatitudeDegrees>
              <LongitudeDegrees>2.817115746438503265380859375</LongitudeDegrees>
            </Position>
            <AltitudeMeters>703</AltitudeMeters>
            <DistanceMeters>8866.9184968232</DistanceMeters>
          </Trackpoint>
          <Trackpoint>
            <Time>2021-03-31T16:23:40.000Z</Time>
            <Position>
              <LatitudeDegrees>42.44170694611966609954833984375</LatitudeDegrees>
              <LongitudeDegrees>2.8171038441359996795654296875</LongitudeDegrees>
            </Position>
            <AltitudeMeters>702.79998779296875</AltitudeMeters>
            <DistanceMeters>8870.4524175526</DistanceMeters>
          </Trackpoint>
          <Trackpoint>
            <Time>2021-03-31T16:23:48.000Z</Time>
            <Position>
              <LatitudeDegrees>42.44162010960280895233154296875</LatitudeDegrees>
              <LongitudeDegrees>2.81706771813333034515380859375</LongitudeDegrees>
            </Position>
            <AltitudeMeters>702.5999755859375</AltitudeMeters>
            <DistanceMeters>8880.5628312606</DistanceMeters>
          </Trackpoint>
          <Trackpoint>
            <Time>2021-03-31T16:23:50.000Z</Time>
            <Position>
              <LatitudeDegrees>42.4416046030819416046142578125</LatitudeDegrees>
              <LongitudeDegrees>2.81705506145954132080078125</LongitudeDegrees>
            </Position>
            <AltitudeMeters>702.20001220703125</AltitudeMeters>
            <DistanceMeters>8882.5786522843</DistanceMeters>
          </Trackpoint>
          <Trackpoint>
            <Time>2021-03-31T16:23:52.000Z</Time>
            <Position>
              <LatitudeDegrees>42.44158188812434673309326171875</LatitudeDegrees>
              <LongitudeDegrees>2.81704877503216266632080078125</LongitudeDegrees>
            </Position>
            <AltitudeMeters>701.79998779296875</AltitudeMeters>
            <DistanceMeters>8885.1566624206</DistanceMeters>
          </Trackpoint>
          <Trackpoint>
            <Time>2021-03-31T16:23:58.000Z</Time>
            <Position>
              <LatitudeDegrees>42.44151927530765533447265625</LatitudeDegrees>
              <LongitudeDegrees>2.817005775868892669677734375</LongitudeDegrees>
            </Position>
            <AltitudeMeters>701.20001220703125</AltitudeMeters>
            <DistanceMeters>8892.9691067682</DistanceMeters>
          </Trackpoint>
          <Trackpoint>
            <Time>2021-03-31T16:24:05.000Z</Time>
            <Position>
              <LatitudeDegrees>42.4414557404816150665283203125</LatitudeDegrees>
              <LongitudeDegrees>2.816951461136341094970703125</LongitudeDegrees>
            </Position>
            <AltitudeMeters>700.79998779296875</AltitudeMeters>
            <DistanceMeters>8901.330377714</DistanceMeters>
          </Trackpoint>
          <Trackpoint>
            <Time>2021-03-31T16:24:08.000Z</Time>
            <Position>
              <LatitudeDegrees>42.4414279125630855560302734375</LatitudeDegrees>
              <LongitudeDegrees>2.81692304648458957672119140625</LongitudeDegrees>
            </Position>
            <AltitudeMeters>700.4000244140625</AltitudeMeters>
            <DistanceMeters>8905.2078868732</DistanceMeters>
          </Trackpoint>
          <Trackpoint>
            <Time>2021-03-31T16:24:18.000Z</Time>
            <Position>
              <LatitudeDegrees>42.44134032167494297027587890625</LatitudeDegrees>
              <LongitudeDegrees>2.81680854968726634979248046875</LongitudeDegrees>
            </Position>
            <AltitudeMeters>699.79998779296875</AltitudeMeters>
            <DistanceMeters>8918.7537775172</DistanceMeters>
          </Trackpoint>
          <Trackpoint>
            <Time>2021-03-31T16:24:20.000Z</Time>
            <Position>
              <LatitudeDegrees>42.4413303472101688385009765625</LatitudeDegrees>
              <LongitudeDegrees>2.81677720136940479278564453125</LongitudeDegrees>
            </Position>
            <AltitudeMeters>699.4000244140625</AltitudeMeters>
            <DistanceMeters>8921.5566629067</DistanceMeters>
          </Trackpoint>
          <Trackpoint>
            <Time>2021-03-31T16:24:27.000Z</Time>
            <Position>
              <LatitudeDegrees>42.44130377657711505889892578125</LatitudeDegrees>
              <LongitudeDegrees>2.8166693262755870819091796875</LongitudeDegrees>
            </Position>
            <AltitudeMeters>699</AltitudeMeters>
            <DistanceMeters>8930.8978420976</DistanceMeters>
          </Trackpoint>
          <Trackpoint>
            <Time>2021-03-31T16:24:31.000Z</Time>
            <Position>
              <LatitudeDegrees>42.44129053317010402679443359375</LatitudeDegrees>
              <LongitudeDegrees>2.8166052885353565216064453125</LongitudeDegrees>
            </Position>
            <AltitudeMeters>698.79998779296875</AltitudeMeters>
            <DistanceMeters>8936.3608451772</DistanceMeters>
          </Trackpoint>
          <Trackpoint>
            <Time>2021-03-31T16:24:38.000Z</Time>
            <Position>
              <LatitudeDegrees>42.44125700555741786956787109375</LatitudeDegrees>
              <LongitudeDegrees>2.81652524136006832122802734375</LongitudeDegrees>
            </Position>
            <AltitudeMeters>698.4000244140625</AltitudeMeters>
            <DistanceMeters>8943.9212938339</DistanceMeters>
          </Trackpoint>
          <Trackpoint>
            <Time>2021-03-31T16:24:39.000Z</Time>
            <Position>
              <LatitudeDegrees>42.44125667028129100799560546875</LatitudeDegrees>
              <LongitudeDegrees>2.8165191225707530975341796875</LongitudeDegrees>
            </Position>
            <AltitudeMeters>698.4000244140625</AltitudeMeters>
            <DistanceMeters>8944.4241279421</DistanceMeters>
          </Trackpoint>
          <Trackpoint>
            <Time>2021-03-31T16:24:41.000Z</Time>
            <Position>
              <LatitudeDegrees>42.441256754100322723388671875</LatitudeDegrees>
              <LongitudeDegrees>2.816511578857898712158203125</LongitudeDegrees>
            </Position>
            <AltitudeMeters>698.20001220703125</AltitudeMeters>
            <DistanceMeters>8945.0399714374</DistanceMeters>
          </Trackpoint>
          <Trackpoint>
            <Time>2021-03-31T16:24:42.000Z</Time>
            <Position>
              <LatitudeDegrees>42.44125516153872013092041015625</LatitudeDegrees>
              <LongitudeDegrees>2.81650898046791553497314453125</LongitudeDegrees>
            </Position>
            <AltitudeMeters>698</AltitudeMeters>
            <DistanceMeters>8945.3404722934</DistanceMeters>
          </Trackpoint>
          <Trackpoint>
            <Time>2021-03-31T16:24:43.000Z</Time>
            <Position>
              <LatitudeDegrees>42.44125030003488063812255859375</LatitudeDegrees>
              <LongitudeDegrees>2.8165023587644100189208984375</LongitudeDegrees>
            </Position>
            <AltitudeMeters>698</AltitudeMeters>
            <DistanceMeters>8946.1124729704</DistanceMeters>
          </Trackpoint>
          <Trackpoint>
            <Time>2021-03-31T16:24:44.000Z</Time>
            <Position>
              <LatitudeDegrees>42.4412455223500728607177734375</LatitudeDegrees>
              <LongitudeDegrees>2.81649489887058734893798828125</LongitudeDegrees>
            </Position>
            <AltitudeMeters>698</AltitudeMeters>
            <DistanceMeters>8946.9188013799</DistanceMeters>
          </Trackpoint>
          <Trackpoint>
            <Time>2021-03-31T16:24:49.000Z</Time>
            <Position>
              <LatitudeDegrees>42.4412230588495731353759765625</LatitudeDegrees>
              <LongitudeDegrees>2.81644661910831928253173828125</LongitudeDegrees>
            </Position>
            <AltitudeMeters>697.79998779296875</AltitudeMeters>
            <DistanceMeters>8951.6069999747</DistanceMeters>
          </Trackpoint>
          <Trackpoint>
            <Time>2021-03-31T16:24:53.000Z</Time>
            <Position>
              <LatitudeDegrees>42.44122582487761974334716796875</LatitudeDegrees>
              <LongitudeDegrees>2.81641124747693538665771484375</LongitudeDegrees>
            </Position>
            <AltitudeMeters>697.79998779296875</AltitudeMeters>
            <DistanceMeters>8954.5282021655</DistanceMeters>
          </Trackpoint>
          <Trackpoint>
            <Time>2021-03-31T16:24:55.000Z</Time>
            <Position>
              <LatitudeDegrees>42.4412260763347148895263671875</LatitudeDegrees>
              <LongitudeDegrees>2.81639582477509975433349609375</LongitudeDegrees>
            </Position>
            <AltitudeMeters>698</AltitudeMeters>
            <DistanceMeters>8955.7960166657</DistanceMeters>
          </Trackpoint>
          <Trackpoint>
            <Time>2021-03-31T16:25:04.000Z</Time>
            <Position>
              <LatitudeDegrees>42.44120621122419834136962890625</LatitudeDegrees>
              <LongitudeDegrees>2.8162948228418827056884765625</LongitudeDegrees>
            </Position>
            <AltitudeMeters>698.79998779296875</AltitudeMeters>
            <DistanceMeters>8964.3816158884</DistanceMeters>
          </Trackpoint>
          <Trackpoint>
            <Time>2021-03-31T16:25:11.000Z</Time>
            <Position>
              <LatitudeDegrees>42.44121593423187732696533203125</LatitudeDegrees>
              <LongitudeDegrees>2.816184349358081817626953125</LongitudeDegrees>
            </Position>
            <AltitudeMeters>698.79998779296875</AltitudeMeters>
            <DistanceMeters>8973.5195104422</DistanceMeters>
          </Trackpoint>
          <Trackpoint>
            <Time>2021-03-31T16:25:12.000Z</Time>
            <Position>
              <LatitudeDegrees>42.441215179860591888427734375</LatitudeDegrees>
              <LongitudeDegrees>2.81617135740816593170166015625</LongitudeDegrees>
            </Position>
            <AltitudeMeters>698.79998779296875</AltitudeMeters>
            <DistanceMeters>8974.5861826655</DistanceMeters>
          </Trackpoint>
          <Trackpoint>
            <Time>2021-03-31T16:25:15.000Z</Time>
            <Position>
              <LatitudeDegrees>42.441214509308338165283203125</LatitudeDegrees>
              <LongitudeDegrees>2.8161335550248622894287109375</LongitudeDegrees>
            </Position>
            <AltitudeMeters>698.79998779296875</AltitudeMeters>
            <DistanceMeters>8977.6916812796</DistanceMeters>
          </Trackpoint>
          <Trackpoint>
            <Time>2021-03-31T16:25:19.000Z</Time>
            <Position>
              <LatitudeDegrees>42.4412141740322113037109375</LatitudeDegrees>
              <LongitudeDegrees>2.8160664997994899749755859375</LongitudeDegrees>
            </Position>
            <AltitudeMeters>698.79998779296875</AltitudeMeters>
            <DistanceMeters>8983.1999529552</DistanceMeters>
          </Trackpoint>
          <Trackpoint>
            <Time>2021-03-31T16:25:20.000Z</Time>
            <Position>
              <LatitudeDegrees>42.44121476076543331146240234375</LatitudeDegrees>
              <LongitudeDegrees>2.81605417840182781219482421875</LongitudeDegrees>
            </Position>
            <AltitudeMeters>698.79998779296875</AltitudeMeters>
            <DistanceMeters>8984.2145606205</DistanceMeters>
          </Trackpoint>
          <Trackpoint>
            <Time>2021-03-31T16:25:23.000Z</Time>
            <Position>
              <LatitudeDegrees>42.44122180156409740447998046875</LatitudeDegrees>
              <LongitudeDegrees>2.815987206995487213134765625</LongitudeDegrees>
            </Position>
            <AltitudeMeters>698.79998779296875</AltitudeMeters>
            <DistanceMeters>8989.7701705137</DistanceMeters>
          </Trackpoint>
          <Trackpoint>
            <Time>2021-03-31T16:25:24.000Z</Time>
            <Position>
              <LatitudeDegrees>42.44121928699314594268798828125</LatitudeDegrees>
              <LongitudeDegrees>2.81596180982887744903564453125</LongitudeDegrees>
            </Position>
            <AltitudeMeters>699</AltitudeMeters>
            <DistanceMeters>8991.8736765055</DistanceMeters>
          </Trackpoint>
          <Trackpoint>
            <Time>2021-03-31T16:25:26.000Z</Time>
            <Position>
              <LatitudeDegrees>42.4412160180509090423583984375</LatitudeDegrees>
              <LongitudeDegrees>2.815914787352085113525390625</LongitudeDegrees>
            </Position>
            <AltitudeMeters>699.20001220703125</AltitudeMeters>
            <DistanceMeters>8995.7523499071</DistanceMeters>
          </Trackpoint>
          <Trackpoint>
            <Time>2021-03-31T16:25:27.000Z</Time>
            <Position>
              <LatitudeDegrees>42.441217862069606781005859375</LatitudeDegrees>
              <LongitudeDegrees>2.81589366495609283447265625</LongitudeDegrees>
            </Position>
            <AltitudeMeters>699.4000244140625</AltitudeMeters>
            <DistanceMeters>8997.4993947943</DistanceMeters>
          </Trackpoint>
          <Trackpoint>
            <Time>2021-03-31T16:25:28.000Z</Time>
            <Position>
              <LatitudeDegrees>42.44122263975441455841064453125</LatitudeDegrees>
              <LongitudeDegrees>2.81586994417011737823486328125</LongitudeDegrees>
            </Position>
            <AltitudeMeters>699.4000244140625</AltitudeMeters>
            <DistanceMeters>8999.519690454</DistanceMeters>
          </Trackpoint>
          <Trackpoint>
            <Time>2021-03-31T16:25:31.000Z</Time>
            <Position>
              <LatitudeDegrees>42.44123705662786960601806640625</LatitudeDegrees>
              <LongitudeDegrees>2.81582350842654705047607421875</LongitudeDegrees>
            </Position>
            <AltitudeMeters>699.5999755859375</AltitudeMeters>
            <DistanceMeters>9003.6574464809</DistanceMeters>
          </Trackpoint>
          <Trackpoint>
            <Time>2021-03-31T16:25:32.000Z</Time>
            <Position>
              <LatitudeDegrees>42.44123764336109161376953125</LatitudeDegrees>
              <LongitudeDegrees>2.815812528133392333984375</LongitudeDegrees>
            </Position>
            <AltitudeMeters>699.5999755859375</AltitudeMeters>
            <DistanceMeters>9004.5589490488</DistanceMeters>
          </Trackpoint>
          <Trackpoint>
            <Time>2021-03-31T16:25:33.000Z</Time>
            <Position>
              <LatitudeDegrees>42.4412421695888042449951171875</LatitudeDegrees>
              <LongitudeDegrees>2.815800122916698455810546875</LongitudeDegrees>
            </Position>
            <AltitudeMeters>699.79998779296875</AltitudeMeters>
            <DistanceMeters>9005.6953032768</DistanceMeters>
          </Trackpoint>
          <Trackpoint>
            <Time>2021-03-31T16:25:36.000Z</Time>
            <Position>
              <LatitudeDegrees>42.441252730786800384521484375</LatitudeDegrees>
              <LongitudeDegrees>2.81576014123857021331787109375</LongitudeDegrees>
            </Position>
            <AltitudeMeters>700</AltitudeMeters>
            <DistanceMeters>9009.1842204507</DistanceMeters>
          </Trackpoint>
          <Trackpoint>
            <Time>2021-03-31T16:25:37.000Z</Time>
            <Position>
              <LatitudeDegrees>42.44125105440616607666015625</LatitudeDegrees>
              <LongitudeDegrees>2.81574840657413005828857421875</LongitudeDegrees>
            </Position>
            <AltitudeMeters>700.20001220703125</AltitudeMeters>
            <DistanceMeters>9010.1671844274</DistanceMeters>
          </Trackpoint>
          <Trackpoint>
            <Time>2021-03-31T16:25:42.000Z</Time>
            <Position>
              <LatitudeDegrees>42.4412555806338787078857421875</LatitudeDegrees>
              <LongitudeDegrees>2.815671376883983612060546875</LongitudeDegrees>
            </Position>
            <AltitudeMeters>700.4000244140625</AltitudeMeters>
            <DistanceMeters>9016.5147982384</DistanceMeters>
          </Trackpoint>
          <Trackpoint>
            <Time>2021-03-31T16:25:43.000Z</Time>
            <Position>
              <LatitudeDegrees>42.44125952012836933135986328125</LatitudeDegrees>
              <LongitudeDegrees>2.81565821729600429534912109375</LongitudeDegrees>
            </Position>
            <AltitudeMeters>700.4000244140625</AltitudeMeters>
            <DistanceMeters>9017.6863662558</DistanceMeters>
          </Trackpoint>
          <Trackpoint>
            <Time>2021-03-31T16:25:46.000Z</Time>
            <Position>
              <LatitudeDegrees>42.441271841526031494140625</LatitudeDegrees>
              <LongitudeDegrees>2.81561479903757572174072265625</LongitudeDegrees>
            </Position>
            <AltitudeMeters>700.5999755859375</AltitudeMeters>
            <DistanceMeters>9021.5052107744</DistanceMeters>
          </Trackpoint>
          <Trackpoint>
            <Time>2021-03-31T16:25:48.000Z</Time>
            <Position>
              <LatitudeDegrees>42.44128282181918621063232421875</LatitudeDegrees>
              <LongitudeDegrees>2.81558278016746044158935546875</LongitudeDegrees>
            </Position>
            <AltitudeMeters>700.5999755859375</AltitudeMeters>
            <DistanceMeters>9024.4046936885</DistanceMeters>
          </Trackpoint>
          <Trackpoint>
            <Time>2021-03-31T16:25:51.000Z</Time>
            <Position>
              <LatitudeDegrees>42.44131408631801605224609375</LatitudeDegrees>
              <LongitudeDegrees>2.8155491687357425689697265625</LongitudeDegrees>
            </Position>
            <AltitudeMeters>700.5999755859375</AltitudeMeters>
            <DistanceMeters>9028.8466208637</DistanceMeters>
          </Trackpoint>
          <Trackpoint>
            <Time>2021-03-31T16:25:54.000Z</Time>
            <Position>
              <LatitudeDegrees>42.441346943378448486328125</LatitudeDegrees>
              <LongitudeDegrees>2.81552058644592761993408203125</LongitudeDegrees>
            </Position>
            <AltitudeMeters>700.79998779296875</AltitudeMeters>
            <DistanceMeters>9033.1909113429</DistanceMeters>
          </Trackpoint>
          <Trackpoint>
            <Time>2021-03-31T16:25:56.000Z</Time>
            <Position>
              <LatitudeDegrees>42.44135029613971710205078125</LatitudeDegrees>
              <LongitudeDegrees>2.815480269491672515869140625</LongitudeDegrees>
            </Position>
            <AltitudeMeters>700.79998779296875</AltitudeMeters>
            <DistanceMeters>9036.5222720183</DistanceMeters>
          </Trackpoint>
          <Trackpoint>
            <Time>2021-03-31T16:25:58.000Z</Time>
            <Position>
              <LatitudeDegrees>42.44135356508195400238037109375</LatitudeDegrees>
              <LongitudeDegrees>2.81543408520519733428955078125</LongitudeDegrees>
            </Position>
            <AltitudeMeters>700.79998779296875</AltitudeMeters>
            <DistanceMeters>9040.3316463561</DistanceMeters>
          </Trackpoint>
          <Trackpoint>
            <Time>2021-03-31T16:25:59.000Z</Time>
            <Position>
              <LatitudeDegrees>42.44136278517544269561767578125</LatitudeDegrees>
              <LongitudeDegrees>2.81541665084660053253173828125</LongitudeDegrees>
            </Position>
            <AltitudeMeters>700.79998779296875</AltitudeMeters>
            <DistanceMeters>9042.091565735</DistanceMeters>
          </Trackpoint>
          <Trackpoint>
            <Time>2021-03-31T16:26:00.000Z</Time>
            <Position>
              <LatitudeDegrees>42.4413712508976459503173828125</LatitudeDegrees>
              <LongitudeDegrees>2.815405167639255523681640625</LongitudeDegrees>
            </Position>
            <AltitudeMeters>700.79998779296875</AltitudeMeters>
            <DistanceMeters>9043.4287101311</DistanceMeters>
          </Trackpoint>
          <Trackpoint>
            <Time>2021-03-31T16:26:01.000Z</Time>
            <Position>
              <LatitudeDegrees>42.44137569330632686614990234375</LatitudeDegrees>
              <LongitudeDegrees>2.8153959475457668304443359375</LongitudeDegrees>
            </Position>
            <AltitudeMeters>700.79998779296875</AltitudeMeters>
            <DistanceMeters>9044.330212699</DistanceMeters>
          </Trackpoint>
          <Trackpoint>
            <Time>2021-03-31T16:26:06.000Z</Time>
            <Position>
              <LatitudeDegrees>42.4414205364882946014404296875</LatitudeDegrees>
              <LongitudeDegrees>2.8153174929320812225341796875</LongitudeDegrees>
            </Position>
            <AltitudeMeters>701</AltitudeMeters>
            <DistanceMeters>9052.4814888245</DistanceMeters>
          </Trackpoint>
          <Trackpoint>
            <Time>2021-03-31T16:26:07.000Z</Time>
            <Position>
              <LatitudeDegrees>42.44143151678144931793212890625</LatitudeDegrees>
              <LongitudeDegrees>2.815304584801197052001953125</LongitudeDegrees>
            </Position>
            <AltitudeMeters>701</AltitudeMeters>
            <DistanceMeters>9054.0997354586</DistanceMeters>
          </Trackpoint>
          <Trackpoint>
            <Time>2021-03-31T16:26:13.000Z</Time>
            <Position>
              <LatitudeDegrees>42.44146537967026233673095703125</LatitudeDegrees>
              <LongitudeDegrees>2.8152103722095489501953125</LongitudeDegrees>
            </Position>
            <AltitudeMeters>701</AltitudeMeters>
            <DistanceMeters>9062.7073935154</DistanceMeters>
          </Trackpoint>
          <Trackpoint>
            <Time>2021-03-31T16:26:14.000Z</Time>
            <Position>
              <LatitudeDegrees>42.44146839715540409088134765625</LatitudeDegrees>
              <LongitudeDegrees>2.8152028284966945648193359375</LongitudeDegrees>
            </Position>
            <AltitudeMeters>701</AltitudeMeters>
            <DistanceMeters>9063.4056944018</DistanceMeters>
          </Trackpoint>
          <Trackpoint>
            <Time>2021-03-31T16:26:16.000Z</Time>
            <Position>
              <LatitudeDegrees>42.44147728197276592254638671875</LatitudeDegrees>
              <LongitudeDegrees>2.81520970165729522705078125</LongitudeDegrees>
            </Position>
            <AltitudeMeters>701</AltitudeMeters>
            <DistanceMeters>9064.5460149743</DistanceMeters>
          </Trackpoint>
          <Trackpoint>
            <Time>2021-03-31T16:26:18.000Z</Time>
            <Position>
              <LatitudeDegrees>42.4414850771427154541015625</LatitudeDegrees>
              <LongitudeDegrees>2.8152115456759929656982421875</LongitudeDegrees>
            </Position>
            <AltitudeMeters>701.20001220703125</AltitudeMeters>
            <DistanceMeters>9065.4323651594</DistanceMeters>
          </Trackpoint>
          <Trackpoint>
            <Time>2021-03-31T16:26:20.000Z</Time>
            <Position>
              <LatitudeDegrees>42.44148910045623779296875</LatitudeDegrees>
              <LongitudeDegrees>2.815195620059967041015625</LongitudeDegrees>
            </Position>
            <AltitudeMeters>701.20001220703125</AltitudeMeters>
            <DistanceMeters>9066.8192343971</DistanceMeters>
          </Trackpoint>
          <Trackpoint>
            <Time>2021-03-31T16:26:24.000Z</Time>
            <Position>
              <LatitudeDegrees>42.441500835120677947998046875</LatitudeDegrees>
              <LongitudeDegrees>2.815157063305377960205078125</LongitudeDegrees>
            </Position>
            <AltitudeMeters>701.4000244140625</AltitudeMeters>
            <DistanceMeters>9070.2428347278</DistanceMeters>
          </Trackpoint>
          <Trackpoint>
            <Time>2021-03-31T16:26:25.000Z</Time>
            <Position>
              <LatitudeDegrees>42.44150326587259769439697265625</LatitudeDegrees>
              <LongitudeDegrees>2.815150357782840728759765625</LongitudeDegrees>
            </Position>
            <AltitudeMeters>701.4000244140625</AltitudeMeters>
            <DistanceMeters>9070.8586782231</DistanceMeters>
          </Trackpoint>
          <Trackpoint>
            <Time>2021-03-31T16:26:28.000Z</Time>
            <Position>
              <LatitudeDegrees>42.441515587270259857177734375</LatitudeDegrees>
              <LongitudeDegrees>2.81511423178017139434814453125</LongitudeDegrees>
            </Position>
            <AltitudeMeters>701.79998779296875</AltitudeMeters>
            <DistanceMeters>9074.1270999267</DistanceMeters>
          </Trackpoint>
          <Trackpoint>
            <Time>2021-03-31T16:26:31.000Z</Time>
            <Position>
              <LatitudeDegrees>42.44152153842151165008544921875</LatitudeDegrees>
              <LongitudeDegrees>2.81507818959653377532958984375</LongitudeDegrees>
            </Position>
            <AltitudeMeters>701.79998779296875</AltitudeMeters>
            <DistanceMeters>9077.1590329438</DistanceMeters>
          </Trackpoint>
          <Trackpoint>
            <Time>2021-03-31T16:26:39.000Z</Time>
            <Position>
              <LatitudeDegrees>42.44148918427526950836181640625</LatitudeDegrees>
              <LongitudeDegrees>2.81493519432842731475830078125</LongitudeDegrees>
            </Position>
            <AltitudeMeters>702.20001220703125</AltitudeMeters>
            <DistanceMeters>9089.4439695577</DistanceMeters>
          </Trackpoint>
          <Trackpoint>
            <Time>2021-03-31T16:26:41.000Z</Time>
            <Position>
              <LatitudeDegrees>42.44148784317076206207275390625</LatitudeDegrees>
              <LongitudeDegrees>2.81491189263761043548583984375</LongitudeDegrees>
            </Position>
            <AltitudeMeters>702.20001220703125</AltitudeMeters>
            <DistanceMeters>9091.3634150998</DistanceMeters>
          </Trackpoint>
          <Trackpoint>
            <Time>2021-03-31T16:26:42.000Z</Time>
            <Position>
              <LatitudeDegrees>42.44148197583854198455810546875</LatitudeDegrees>
              <LongitudeDegrees>2.8148933686316013336181640625</LongitudeDegrees>
            </Position>
            <AltitudeMeters>702.20001220703125</AltitudeMeters>
            <DistanceMeters>9093.0229853199</DistanceMeters>
          </Trackpoint>
          <Trackpoint>
            <Time>2021-03-31T16:26:43.000Z</Time>
            <Position>
              <LatitudeDegrees>42.44148063473403453826904296875</LatitudeDegrees>
              <LongitudeDegrees>2.81487710773944854736328125</LongitudeDegrees>
            </Position>
            <AltitudeMeters>702.20001220703125</AltitudeMeters>
            <DistanceMeters>9094.3668660024</DistanceMeters>
          </Trackpoint>
          <Trackpoint>
            <Time>2021-03-31T16:26:45.000Z</Time>
            <Position>
              <LatitudeDegrees>42.44146739132702350616455078125</LatitudeDegrees>
              <LongitudeDegrees>2.8148370422422885894775390625</LongitudeDegrees>
            </Position>
            <AltitudeMeters>702.4000244140625</AltitudeMeters>
            <DistanceMeters>9097.9728762741</DistanceMeters>
          </Trackpoint>
          <Trackpoint>
            <Time>2021-03-31T16:26:46.000Z</Time>
            <Position>
              <LatitudeDegrees>42.44145163334906101226806640625</LatitudeDegrees>
              <LongitudeDegrees>2.8148112259805202484130859375</LongitudeDegrees>
            </Position>
            <AltitudeMeters>702.4000244140625</AltitudeMeters>
            <DistanceMeters>9100.7253722571</DistanceMeters>
          </Trackpoint>
          <Trackpoint>
            <Time>2021-03-31T16:26:51.000Z</Time>
            <Position>
              <LatitudeDegrees>42.441437803208827972412109375</LatitudeDegrees>
              <LongitudeDegrees>2.81472682021558284759521484375</LongitudeDegrees>
            </Position>
            <AltitudeMeters>702.4000244140625</AltitudeMeters>
            <DistanceMeters>9107.8276259146</DistanceMeters>
          </Trackpoint>
          <Trackpoint>
            <Time>2021-03-31T16:26:52.000Z</Time>
            <Position>
              <LatitudeDegrees>42.441437132656574249267578125</LatitudeDegrees>
              <LongitudeDegrees>2.81470335088670253753662109375</LongitudeDegrees>
            </Position>
            <AltitudeMeters>702.4000244140625</AltitudeMeters>
            <DistanceMeters>9109.7564575545</DistanceMeters>
          </Trackpoint>
          <Trackpoint>
            <Time>2021-03-31T16:26:53.000Z</Time>
            <Position>
              <LatitudeDegrees>42.4414299242198467254638671875</LatitudeDegrees>
              <LongitudeDegrees>2.81468474306166172027587890625</LongitudeDegrees>
            </Position>
            <AltitudeMeters>702.4000244140625</AltitudeMeters>
            <DistanceMeters>9111.4827035469</DistanceMeters>
          </Trackpoint>
          <Trackpoint>
            <Time>2021-03-31T16:26:56.000Z</Time>
            <Position>
              <LatitudeDegrees>42.44141492061316967010498046875</LatitudeDegrees>
              <LongitudeDegrees>2.8146444261074066162109375</LongitudeDegrees>
            </Position>
            <AltitudeMeters>702.5999755859375</AltitudeMeters>
            <DistanceMeters>9115.1923984806</DistanceMeters>
          </Trackpoint>
          <Trackpoint>
            <Time>2021-03-31T16:26:59.000Z</Time>
            <Position>
              <LatitudeDegrees>42.44140067137777805328369140625</LatitudeDegrees>
              <LongitudeDegrees>2.8145889379084110260009765625</LongitudeDegrees>
            </Position>
            <AltitudeMeters>702.79998779296875</AltitudeMeters>
            <DistanceMeters>9120.01915694</DistanceMeters>
          </Trackpoint>
          <Trackpoint>
            <Time>2021-03-31T16:27:07.000Z</Time>
            <Position>
              <LatitudeDegrees>42.44134065695106983184814453125</LatitudeDegrees>
              <LongitudeDegrees>2.81454443000257015228271484375</LongitudeDegrees>
            </Position>
            <AltitudeMeters>703.20001220703125</AltitudeMeters>
            <DistanceMeters>9127.6343490533</DistanceMeters>
          </Trackpoint>
          <Trackpoint>
            <Time>2021-03-31T16:27:14.000Z</Time>
            <Position>
              <LatitudeDegrees>42.44129120372235774993896484375</LatitudeDegrees>
              <LongitudeDegrees>2.81445926986634731292724609375</LongitudeDegrees>
            </Position>
            <AltitudeMeters>703.4000244140625</AltitudeMeters>
            <DistanceMeters>9136.5354664393</DistanceMeters>
          </Trackpoint>
          <Trackpoint>
            <Time>2021-03-31T16:27:16.000Z</Time>
            <Position>
              <LatitudeDegrees>42.44127930141985416412353515625</LatitudeDegrees>
              <LongitudeDegrees>2.81443093903362751007080078125</LongitudeDegrees>
            </Position>
            <AltitudeMeters>703.4000244140625</AltitudeMeters>
            <DistanceMeters>9139.2131297297</DistanceMeters>
          </Trackpoint>
          <Trackpoint>
            <Time>2021-03-31T16:27:19.000Z</Time>
            <Position>
              <LatitudeDegrees>42.44125130586326122283935546875</LatitudeDegrees>
              <LongitudeDegrees>2.81439221464097499847412109375</LongitudeDegrees>
            </Position>
            <AltitudeMeters>703.4000244140625</AltitudeMeters>
            <DistanceMeters>9143.6662239203</DistanceMeters>
          </Trackpoint>
          <Trackpoint>
            <Time>2021-03-31T16:27:20.000Z</Time>
            <Position>
              <LatitudeDegrees>42.4412438459694385528564453125</LatitudeDegrees>
              <LongitudeDegrees>2.8143877722322940826416015625</LongitudeDegrees>
            </Position>
            <AltitudeMeters>703.5999755859375</AltitudeMeters>
            <DistanceMeters>9144.577688145</DistanceMeters>
          </Trackpoint>
          <Trackpoint>
            <Time>2021-03-31T16:27:21.000Z</Time>
            <Position>
              <LatitudeDegrees>42.44123253040015697479248046875</LatitudeDegrees>
              <LongitudeDegrees>2.81437645666301250457763671875</LongitudeDegrees>
            </Position>
            <AltitudeMeters>703.5999755859375</AltitudeMeters>
            <DistanceMeters>9146.1449088674</DistanceMeters>
          </Trackpoint>
          <Trackpoint>
            <Time>2021-03-31T16:27:28.000Z</Time>
            <Position>
              <LatitudeDegrees>42.4411767907440662384033203125</LatitudeDegrees>
              <LongitudeDegrees>2.814302109181880950927734375</LongitudeDegrees>
            </Position>
            <AltitudeMeters>703.4000244140625</AltitudeMeters>
            <DistanceMeters>9154.8501028065</DistanceMeters>
          </Trackpoint>
          <Trackpoint>
            <Time>2021-03-31T16:27:31.000Z</Time>
            <Position>
              <LatitudeDegrees>42.44116924703121185302734375</LatitudeDegrees>
              <LongitudeDegrees>2.81425642780959606170654296875</LongitudeDegrees>
            </Position>
            <AltitudeMeters>703.4000244140625</AltitudeMeters>
            <DistanceMeters>9158.6948700477</DistanceMeters>
          </Trackpoint>
          <Trackpoint>
            <Time>2021-03-31T16:27:36.000Z</Time>
            <Position>
              <LatitudeDegrees>42.4411576800048351287841796875</LatitudeDegrees>
              <LongitudeDegrees>2.81415400095283985137939453125</LongitudeDegrees>
            </Position>
            <AltitudeMeters>703.20001220703125</AltitudeMeters>
            <DistanceMeters>9167.2049354458</DistanceMeters>
          </Trackpoint>
          <Trackpoint>
            <Time>2021-03-31T16:27:37.000Z</Time>
            <Position>
              <LatitudeDegrees>42.4411563389003276824951171875</LatitudeDegrees>
              <LongitudeDegrees>2.81414058990776538848876953125</LongitudeDegrees>
            </Position>
            <AltitudeMeters>703.20001220703125</AltitudeMeters>
            <DistanceMeters>9168.3212465804</DistanceMeters>
          </Trackpoint>
          <Trackpoint>
            <Time>2021-03-31T16:27:39.000Z</Time>
            <Position>
              <LatitudeDegrees>42.44115357287228107452392578125</LatitudeDegrees>
              <LongitudeDegrees>2.81410840339958667755126953125</LongitudeDegrees>
            </Position>
            <AltitudeMeters>703.4000244140625</AltitudeMeters>
            <DistanceMeters>9170.9819945828</DistanceMeters>
          </Trackpoint>
          <Trackpoint>
            <Time>2021-03-31T16:27:40.000Z</Time>
            <Position>
              <LatitudeDegrees>42.44114653207361698150634765625</LatitudeDegrees>
              <LongitudeDegrees>2.81408493407070636749267578125</LongitudeDegrees>
            </Position>
            <AltitudeMeters>703.4000244140625</AltitudeMeters>
            <DistanceMeters>9173.0639255838</DistanceMeters>
          </Trackpoint>
          <Trackpoint>
            <Time>2021-03-31T16:27:41.000Z</Time>
            <Position>
              <LatitudeDegrees>42.44113706052303314208984375</LatitudeDegrees>
              <LongitudeDegrees>2.81406783498823642730712890625</LongitudeDegrees>
            </Position>
            <AltitudeMeters>703.4000244140625</AltitudeMeters>
            <DistanceMeters>9174.82127761</DistanceMeters>
          </Trackpoint>
          <Trackpoint>
            <Time>2021-03-31T16:27:49.000Z</Time>
            <Position>
              <LatitudeDegrees>42.4410886131227016448974609375</LatitudeDegrees>
              <LongitudeDegrees>2.8139846026897430419921875</LongitudeDegrees>
            </Position>
            <AltitudeMeters>703.79998779296875</AltitudeMeters>
            <DistanceMeters>9183.528545943</DistanceMeters>
          </Trackpoint>
          <Trackpoint>
            <Time>2021-03-31T16:27:54.000Z</Time>
            <Position>
              <LatitudeDegrees>42.44103957898914813995361328125</LatitudeDegrees>
              <LongitudeDegrees>2.8139274381101131439208984375</LongitudeDegrees>
            </Position>
            <AltitudeMeters>704</AltitudeMeters>
            <DistanceMeters>9190.7280347296</DistanceMeters>
          </Trackpoint>
          <Trackpoint>
            <Time>2021-03-31T16:27:57.000Z</Time>
            <Position>
              <LatitudeDegrees>42.4410151876509189605712890625</LatitudeDegrees>
              <LongitudeDegrees>2.81387790106236934661865234375</LongitudeDegrees>
            </Position>
            <AltitudeMeters>704</AltitudeMeters>
            <DistanceMeters>9195.6179879424</DistanceMeters>
          </Trackpoint>
          <Trackpoint>
            <Time>2021-03-31T16:28:01.000Z</Time>
            <Position>
              <LatitudeDegrees>42.44098643772304058074951171875</LatitudeDegrees>
              <LongitudeDegrees>2.813834734261035919189453125</LongitudeDegrees>
            </Position>
            <AltitudeMeters>704.20001220703125</AltitudeMeters>
            <DistanceMeters>9200.3939667005</DistanceMeters>
          </Trackpoint>
          <Trackpoint>
            <Time>2021-03-31T16:28:03.000Z</Time>
            <Position>
              <LatitudeDegrees>42.44096137583255767822265625</LatitudeDegrees>
              <LongitudeDegrees>2.81380715779960155487060546875</LongitudeDegrees>
            </Position>
            <AltitudeMeters>704.20001220703125</AltitudeMeters>
            <DistanceMeters>9203.9874342897</DistanceMeters>
          </Trackpoint>
          <Trackpoint>
            <Time>2021-03-31T16:28:07.000Z</Time>
            <Position>
              <LatitudeDegrees>42.44093597866594791412353515625</LatitudeDegrees>
              <LongitudeDegrees>2.81375904567539691925048828125</LongitudeDegrees>
            </Position>
            <AltitudeMeters>704.4000244140625</AltitudeMeters>
            <DistanceMeters>9208.845892875</DistanceMeters>
          </Trackpoint>
          <Trackpoint>
            <Time>2021-03-31T16:28:09.000Z</Time>
            <Position>
              <LatitudeDegrees>42.44093329645693302154541015625</LatitudeDegrees>
              <LongitudeDegrees>2.81373004429042339324951171875</LongitudeDegrees>
            </Position>
            <AltitudeMeters>704.4000244140625</AltitudeMeters>
            <DistanceMeters>9211.2461405229</DistanceMeters>
          </Trackpoint>
          <Trackpoint>
            <Time>2021-03-31T16:28:11.000Z</Time>
            <Position>
              <LatitudeDegrees>42.44092407636344432830810546875</LatitudeDegrees>
              <LongitudeDegrees>2.81371110118925571441650390625</LongitudeDegrees>
            </Position>
            <AltitudeMeters>704.5999755859375</AltitudeMeters>
            <DistanceMeters>9213.10827622</DistanceMeters>
          </Trackpoint>
          <Trackpoint>
            <Time>2021-03-31T16:28:15.000Z</Time>
            <Position>
              <LatitudeDegrees>42.44090546853840351104736328125</LatitudeDegrees>
              <LongitudeDegrees>2.81366785056889057159423828125</LongitudeDegrees>
            </Position>
            <AltitudeMeters>704.5999755859375</AltitudeMeters>
            <DistanceMeters>9217.2208585206</DistanceMeters>
          </Trackpoint>
          <Trackpoint>
            <Time>2021-03-31T16:28:22.000Z</Time>
            <Position>
              <LatitudeDegrees>42.44084713049232959747314453125</LatitudeDegrees>
              <LongitudeDegrees>2.8135412000119686126708984375</LongitudeDegrees>
            </Position>
            <AltitudeMeters>705</AltitudeMeters>
            <DistanceMeters>9229.483723725</DistanceMeters>
          </Trackpoint>
          <Trackpoint>
            <Time>2021-03-31T16:28:24.000Z</Time>
            <Position>
              <LatitudeDegrees>42.440839670598506927490234375</LatitudeDegrees>
              <LongitudeDegrees>2.813521921634674072265625</LongitudeDegrees>
            </Position>
            <AltitudeMeters>705</AltitudeMeters>
            <DistanceMeters>9231.2716406865</DistanceMeters>
          </Trackpoint>
          <Trackpoint>
            <Time>2021-03-31T16:28:26.000Z</Time>
            <Position>
              <LatitudeDegrees>42.44083774276077747344970703125</LatitudeDegrees>
              <LongitudeDegrees>2.81349333934485912322998046875</LongitudeDegrees>
            </Position>
            <AltitudeMeters>705</AltitudeMeters>
            <DistanceMeters>9233.6282265672</DistanceMeters>
          </Trackpoint>
          <Trackpoint>
            <Time>2021-03-31T16:28:30.000Z</Time>
            <Position>
              <LatitudeDegrees>42.44082500226795673370361328125</LatitudeDegrees>
              <LongitudeDegrees>2.8134382702410221099853515625</LongitudeDegrees>
            </Position>
            <AltitudeMeters>704.5999755859375</AltitudeMeters>
            <DistanceMeters>9238.3690978235</DistanceMeters>
          </Trackpoint>
          <Trackpoint>
            <Time>2021-03-31T16:28:35.000Z</Time>
            <Position>
              <LatitudeDegrees>42.44083438999950885772705078125</LatitudeDegrees>
              <LongitudeDegrees>2.81334020197391510009765625</LongitudeDegrees>
            </Position>
            <AltitudeMeters>704.5999755859375</AltitudeMeters>
            <DistanceMeters>9246.4926314544</DistanceMeters>
          </Trackpoint>
          <Trackpoint>
            <Time>2021-03-31T16:28:39.000Z</Time>
            <Position>
              <LatitudeDegrees>42.44082131423056125640869140625</LatitudeDegrees>
              <LongitudeDegrees>2.81328848563134670257568359375</LongitudeDegrees>
            </Position>
            <AltitudeMeters>704.79998779296875</AltitudeMeters>
            <DistanceMeters>9250.9830836253</DistanceMeters>
          </Trackpoint>
          <Trackpoint>
            <Time>2021-03-31T16:28:41.000Z</Time>
            <Position>
              <LatitudeDegrees>42.440825589001178741455078125</LatitudeDegrees>
              <LongitudeDegrees>2.81326987780630588531494140625</LongitudeDegrees>
            </Position>
            <AltitudeMeters>704.79998779296875</AltitudeMeters>
            <DistanceMeters>9252.5845022808</DistanceMeters>
          </Trackpoint>
          <Trackpoint>
            <Time>2021-03-31T16:28:44.000Z</Time>
            <Position>
              <LatitudeDegrees>42.4408250860869884490966796875</LatitudeDegrees>
              <LongitudeDegrees>2.81322218477725982666015625</LongitudeDegrees>
            </Position>
            <AltitudeMeters>704.79998779296875</AltitudeMeters>
            <DistanceMeters>9256.5025540868</DistanceMeters>
          </Trackpoint>
          <Trackpoint>
            <Time>2021-03-31T16:28:46.000Z</Time>
            <Position>
              <LatitudeDegrees>42.44081712327897548675537109375</LatitudeDegrees>
              <LongitudeDegrees>2.81318807043135166168212890625</LongitudeDegrees>
            </Position>
            <AltitudeMeters>705</AltitudeMeters>
            <DistanceMeters>9259.4422450837</DistanceMeters>
          </Trackpoint>
          <Trackpoint>
            <Time>2021-03-31T16:28:48.000Z</Time>
            <Position>
              <LatitudeDegrees>42.4408170394599437713623046875</LatitudeDegrees>
              <LongitudeDegrees>2.81316812150180339813232421875</LongitudeDegrees>
            </Position>
            <AltitudeMeters>705.20001220703125</AltitudeMeters>
            <DistanceMeters>9261.0826605128</DistanceMeters>
          </Trackpoint>
          <Trackpoint>
            <Time>2021-03-31T16:28:52.000Z</Time>
            <Position>
              <LatitudeDegrees>42.4408267624676227569580078125</LatitudeDegrees>
              <LongitudeDegrees>2.81309352256357669830322265625</LongitudeDegrees>
            </Position>
            <AltitudeMeters>705</AltitudeMeters>
            <DistanceMeters>9267.3052779518</DistanceMeters>
          </Trackpoint>
          <Trackpoint>
            <Time>2021-03-31T16:28:56.000Z</Time>
            <Position>
              <LatitudeDegrees>42.4408277682960033416748046875</LatitudeDegrees>
              <LongitudeDegrees>2.81303401105105876922607421875</LongitudeDegrees>
            </Position>
            <AltitudeMeters>704.79998779296875</AltitudeMeters>
            <DistanceMeters>9272.1952311646</DistanceMeters>
          </Trackpoint>
          <Trackpoint>
            <Time>2021-03-31T16:28:58.000Z</Time>
            <Position>
              <LatitudeDegrees>42.44084411300718784332275390625</LatitudeDegrees>
              <LongitudeDegrees>2.81300769187510013580322265625</LongitudeDegrees>
            </Position>
            <AltitudeMeters>704.79998779296875</AltitudeMeters>
            <DistanceMeters>9275.0189800026</DistanceMeters>
          </Trackpoint>
          <Trackpoint>
            <Time>2021-03-31T16:29:03.000Z</Time>
            <Position>
              <LatitudeDegrees>42.440880574285984039306640625</LatitudeDegrees>
              <LongitudeDegrees>2.81292538158595561981201171875</LongitudeDegrees>
            </Position>
            <AltitudeMeters>705.20001220703125</AltitudeMeters>
            <DistanceMeters>9282.9044797581</DistanceMeters>
          </Trackpoint>
          <Trackpoint>
            <Time>2021-03-31T16:29:05.000Z</Time>
            <Position>
              <LatitudeDegrees>42.44088828563690185546875</LatitudeDegrees>
              <LongitudeDegrees>2.8128843940794467926025390625</LongitudeDegrees>
            </Position>
            <AltitudeMeters>705.20001220703125</AltitudeMeters>
            <DistanceMeters>9286.3778329116</DistanceMeters>
          </Trackpoint>
          <Trackpoint>
            <Time>2021-03-31T16:29:08.000Z</Time>
            <Position>
              <LatitudeDegrees>42.44090664200484752655029296875</LatitudeDegrees>
              <LongitudeDegrees>2.81283519230782985687255859375</LongitudeDegrees>
            </Position>
            <AltitudeMeters>705.5999755859375</AltitudeMeters>
            <DistanceMeters>9290.906331957</DistanceMeters>
          </Trackpoint>
          <Trackpoint>
            <Time>2021-03-31T16:29:09.000Z</Time>
            <Position>
              <LatitudeDegrees>42.44091602973639965057373046875</LatitudeDegrees>
              <LongitudeDegrees>2.81281809322535991668701171875</LongitudeDegrees>
            </Position>
            <AltitudeMeters>705.79998779296875</AltitudeMeters>
            <DistanceMeters>9292.6559593215</DistanceMeters>
          </Trackpoint>
          <Trackpoint>
            <Time>2021-03-31T16:29:10.000Z</Time>
            <Position>
              <LatitudeDegrees>42.440916113555431365966796875</LatitudeDegrees>
              <LongitudeDegrees>2.81279730610549449920654296875</LongitudeDegrees>
            </Position>
            <AltitudeMeters>705.79998779296875</AltitudeMeters>
            <DistanceMeters>9294.361152746</DistanceMeters>
          </Trackpoint>
          <Trackpoint>
            <Time>2021-03-31T16:29:12.000Z</Time>
            <Position>
              <LatitudeDegrees>42.44092575274407863616943359375</LatitudeDegrees>
              <LongitudeDegrees>2.81276495195925235748291015625</LongitudeDegrees>
            </Position>
            <AltitudeMeters>705.79998779296875</AltitudeMeters>
            <DistanceMeters>9297.224596374</DistanceMeters>
          </Trackpoint>
          <Trackpoint>
            <Time>2021-03-31T16:29:14.000Z</Time>
            <Position>
              <LatitudeDegrees>42.44093078188598155975341796875</LatitudeDegrees>
              <LongitudeDegrees>2.8127254731953144073486328125</LongitudeDegrees>
            </Position>
            <AltitudeMeters>706</AltitudeMeters>
            <DistanceMeters>9300.5136739924</DistanceMeters>
          </Trackpoint>
          <Trackpoint>
            <Time>2021-03-31T16:29:22.000Z</Time>
            <Position>
              <LatitudeDegrees>42.4410168640315532684326171875</LatitudeDegrees>
              <LongitudeDegrees>2.81261759810149669647216796875</LongitudeDegrees>
            </Position>
            <AltitudeMeters>705.4000244140625</AltitudeMeters>
            <DistanceMeters>9313.5638556668</DistanceMeters>
          </Trackpoint>
          <Trackpoint>
            <Time>2021-03-31T16:29:25.000Z</Time>
            <Position>
              <LatitudeDegrees>42.44104125536978244781494140625</LatitudeDegrees>
              <LongitudeDegrees>2.81256848014891147613525390625</LongitudeDegrees>
            </Position>
            <AltitudeMeters>705.4000244140625</AltitudeMeters>
            <DistanceMeters>9318.4260300908</DistanceMeters>
          </Trackpoint>
          <Trackpoint>
            <Time>2021-03-31T16:29:28.000Z</Time>
            <Position>
              <LatitudeDegrees>42.44105793535709381103515625</LatitudeDegrees>
              <LongitudeDegrees>2.8125326894223690032958984375</LongitudeDegrees>
            </Position>
            <AltitudeMeters>705.4000244140625</AltitudeMeters>
            <DistanceMeters>9321.9019820874</DistanceMeters>
          </Trackpoint>
          <Trackpoint>
            <Time>2021-03-31T16:29:30.000Z</Time>
            <Position>
              <LatitudeDegrees>42.441071681678295135498046875</LatitudeDegrees>
              <LongitudeDegrees>2.81250511296093463897705078125</LongitudeDegrees>
            </Position>
            <AltitudeMeters>705.5999755859375</AltitudeMeters>
            <DistanceMeters>9324.6363747613</DistanceMeters>
          </Trackpoint>
          <Trackpoint>
            <Time>2021-03-31T16:29:34.000Z</Time>
            <Position>
              <LatitudeDegrees>42.44107344187796115875244140625</LatitudeDegrees>
              <LongitudeDegrees>2.81244208104908466339111328125</LongitudeDegrees>
            </Position>
            <AltitudeMeters>705.79998779296875</AltitudeMeters>
            <DistanceMeters>9329.8168561281</DistanceMeters>
          </Trackpoint>
          <Trackpoint>
            <Time>2021-03-31T16:29:38.000Z</Time>
            <Position>
              <LatitudeDegrees>42.4410611204802989959716796875</LatitudeDegrees>
              <LongitudeDegrees>2.81237460672855377197265625</LongitudeDegrees>
            </Position>
            <AltitudeMeters>705.5999755859375</AltitudeMeters>
            <DistanceMeters>9335.5263723916</DistanceMeters>
          </Trackpoint>
          <Trackpoint>
            <Time>2021-03-31T16:29:39.000Z</Time>
            <Position>
              <LatitudeDegrees>42.44105600751936435699462890625</LatitudeDegrees>
              <LongitudeDegrees>2.81235985457897186279296875</LongitudeDegrees>
            </Position>
            <AltitudeMeters>705.5999755859375</AltitudeMeters>
            <DistanceMeters>9336.8635167876</DistanceMeters>
          </Trackpoint>
          <Trackpoint>
            <Time>2021-03-31T16:29:47.000Z</Time>
            <Position>
              <LatitudeDegrees>42.4410111643373966217041015625</LatitudeDegrees>
              <LongitudeDegrees>2.81223823316395282745361328125</LongitudeDegrees>
            </Position>
            <AltitudeMeters>704.5999755859375</AltitudeMeters>
            <DistanceMeters>9348.0306720069</DistanceMeters>
          </Trackpoint>
          <Trackpoint>
            <Time>2021-03-31T16:29:48.000Z</Time>
            <Position>
              <LatitudeDegrees>42.44100504554808139801025390625</LatitudeDegrees>
              <LongitudeDegrees>2.8122223913669586181640625</LongitudeDegrees>
            </Position>
            <AltitudeMeters>704.5999755859375</AltitudeMeters>
            <DistanceMeters>9349.4966727551</DistanceMeters>
          </Trackpoint>
          <Trackpoint>
            <Time>2021-03-31T16:29:50.000Z</Time>
            <Position>
              <LatitudeDegrees>42.4409890361130237579345703125</LatitudeDegrees>
              <LongitudeDegrees>2.8121923841536045074462890625</LongitudeDegrees>
            </Position>
            <AltitudeMeters>704.20001220703125</AltitudeMeters>
            <DistanceMeters>9352.5375276149</DistanceMeters>
          </Trackpoint>
          <Trackpoint>
            <Time>2021-03-31T16:29:52.000Z</Time>
            <Position>
              <LatitudeDegrees>42.44097336195409297943115234375</LatitudeDegrees>
              <LongitudeDegrees>2.81217117793858051300048828125</LongitudeDegrees>
            </Position>
            <AltitudeMeters>703.79998779296875</AltitudeMeters>
            <DistanceMeters>9355.0009015959</DistanceMeters>
          </Trackpoint>
          <Trackpoint>
            <Time>2021-03-31T16:29:54.000Z</Time>
            <Position>
              <LatitudeDegrees>42.44096162728965282440185546875</LatitudeDegrees>
              <LongitudeDegrees>2.81214737333357334136962890625</LongitudeDegrees>
            </Position>
            <AltitudeMeters>703.79998779296875</AltitudeMeters>
            <DistanceMeters>9357.3517326795</DistanceMeters>
          </Trackpoint>
          <Trackpoint>
            <Time>2021-03-31T16:29:57.000Z</Time>
            <Position>
              <LatitudeDegrees>42.44093748740851879119873046875</LatitudeDegrees>
              <LongitudeDegrees>2.81211485154926776885986328125</LongitudeDegrees>
            </Position>
            <AltitudeMeters>703.5999755859375</AltitudeMeters>
            <DistanceMeters>9361.1409042969</DistanceMeters>
          </Trackpoint>
          <Trackpoint>
            <Time>2021-03-31T16:30:01.000Z</Time>
            <Position>
              <LatitudeDegrees>42.4409062229096889495849609375</LatitudeDegrees>
              <LongitudeDegrees>2.81206103973090648651123046875</LongitudeDegrees>
            </Position>
            <AltitudeMeters>703.4000244140625</AltitudeMeters>
            <DistanceMeters>9366.7667747128</DistanceMeters>
          </Trackpoint>
          <Trackpoint>
            <Time>2021-03-31T16:30:10.000Z</Time>
            <Position>
              <LatitudeDegrees>42.44084780104458332061767578125</LatitudeDegrees>
              <LongitudeDegrees>2.81194034032523632049560546875</LongitudeDegrees>
            </Position>
            <AltitudeMeters>702.5999755859375</AltitudeMeters>
            <DistanceMeters>9378.6226664939</DistanceMeters>
          </Trackpoint>
          <Trackpoint>
            <Time>2021-03-31T16:30:11.000Z</Time>
            <Position>
              <LatitudeDegrees>42.44084109552204608917236328125</LatitudeDegrees>
              <LongitudeDegrees>2.81192827038466930389404296875</LongitudeDegrees>
            </Position>
            <AltitudeMeters>702.4000244140625</AltitudeMeters>
            <DistanceMeters>9379.8616632637</DistanceMeters>
          </Trackpoint>
          <Trackpoint>
            <Time>2021-03-31T16:30:12.000Z</Time>
            <Position>
              <LatitudeDegrees>42.4408344738185405731201171875</LatitudeDegrees>
              <LongitudeDegrees>2.8119164519011974334716796875</LongitudeDegrees>
            </Position>
            <AltitudeMeters>702.4000244140625</AltitudeMeters>
            <DistanceMeters>9381.082303511</DistanceMeters>
          </Trackpoint>
          <Trackpoint>
            <Time>2021-03-31T16:30:21.000Z</Time>
            <Position>
              <LatitudeDegrees>42.44076423346996307373046875</LatitudeDegrees>
              <LongitudeDegrees>2.811816371977329254150390625</LongitudeDegrees>
            </Position>
            <AltitudeMeters>702</AltitudeMeters>
            <DistanceMeters>9392.4267580804</DistanceMeters>
          </Trackpoint>
          <Trackpoint>
            <Time>2021-03-31T16:30:24.000Z</Time>
            <Position>
              <LatitudeDegrees>42.44073917157948017120361328125</LatitudeDegrees>
              <LongitudeDegrees>2.8117771446704864501953125</LongitudeDegrees>
            </Position>
            <AltitudeMeters>701.79998779296875</AltitudeMeters>
            <DistanceMeters>9396.6892120456</DistanceMeters>
          </Trackpoint>
          <Trackpoint>
            <Time>2021-03-31T16:30:28.000Z</Time>
            <Position>
              <LatitudeDegrees>42.44071084074676036834716796875</LatitudeDegrees>
              <LongitudeDegrees>2.81173196621239185333251953125</LongitudeDegrees>
            </Position>
            <AltitudeMeters>701.4000244140625</AltitudeMeters>
            <DistanceMeters>9401.5588096411</DistanceMeters>
          </Trackpoint>
          <Trackpoint>
            <Time>2021-03-31T16:30:35.000Z</Time>
            <Position>
              <LatitudeDegrees>42.44064747355878353118896484375</LatitudeDegrees>
              <LongitudeDegrees>2.81163607724010944366455078125</LongitudeDegrees>
            </Position>
            <AltitudeMeters>700.79998779296875</AltitudeMeters>
            <DistanceMeters>9412.1311455336</DistanceMeters>
          </Trackpoint>
          <Trackpoint>
            <Time>2021-03-31T16:30:43.000Z</Time>
            <Position>
              <LatitudeDegrees>42.440585531294345855712890625</LatitudeDegrees>
              <LongitudeDegrees>2.81153976917266845703125</LongitudeDegrees>
            </Position>
            <AltitudeMeters>700.4000244140625</AltitudeMeters>
            <DistanceMeters>9422.6246078867</DistanceMeters>
          </Trackpoint>
          <Trackpoint>
            <Time>2021-03-31T16:30:45.000Z</Time>
            <Position>
              <LatitudeDegrees>42.44056834839284420013427734375</LatitudeDegrees>
              <LongitudeDegrees>2.81151437200605869293212890625</LongitudeDegrees>
            </Position>
            <AltitudeMeters>700.4000244140625</AltitudeMeters>
            <DistanceMeters>9425.4563401979</DistanceMeters>
          </Trackpoint>
          <Trackpoint>
            <Time>2021-03-31T16:30:53.000Z</Time>
            <Position>
              <LatitudeDegrees>42.440510429441928863525390625</LatitudeDegrees>
              <LongitudeDegrees>2.81141580082476139068603515625</LongitudeDegrees>
            </Position>
            <AltitudeMeters>700.20001220703125</AltitudeMeters>
            <DistanceMeters>9435.8059666056</DistanceMeters>
          </Trackpoint>
          <Trackpoint>
            <Time>2021-03-31T16:31:06.000Z</Time>
            <Position>
              <LatitudeDegrees>42.44042585603892803192138671875</LatitudeDegrees>
              <LongitudeDegrees>2.811250425875186920166015625</LongitudeDegrees>
            </Position>
            <AltitudeMeters>700.5999755859375</AltitudeMeters>
            <DistanceMeters>9452.3324209175</DistanceMeters>
          </Trackpoint>
          <Trackpoint>
            <Time>2021-03-31T16:31:18.000Z</Time>
            <Position>
              <LatitudeDegrees>42.44034538976848125457763671875</LatitudeDegrees>
              <LongitudeDegrees>2.8111101128160953521728515625</LongitudeDegrees>
            </Position>
            <AltitudeMeters>700.79998779296875</AltitudeMeters>
            <DistanceMeters>9466.9279179419</DistanceMeters>
          </Trackpoint>
          <Trackpoint>
            <Time>2021-03-31T16:31:28.000Z</Time>
            <Position>
              <LatitudeDegrees>42.4402383528649806976318359375</LatitudeDegrees>
              <LongitudeDegrees>2.81108320690691471099853515625</LongitudeDegrees>
            </Position>
            <AltitudeMeters>700.79998779296875</AltitudeMeters>
            <DistanceMeters>9479.0444761507</DistanceMeters>
          </Trackpoint>
          <Trackpoint>
            <Time>2021-03-31T16:31:33.000Z</Time>
            <Position>
              <LatitudeDegrees>42.44018563069403171539306640625</LatitudeDegrees>
              <LongitudeDegrees>2.8110903315246105194091796875</LongitudeDegrees>
            </Position>
            <AltitudeMeters>700.5999755859375</AltitudeMeters>
            <DistanceMeters>9484.9414944129</DistanceMeters>
          </Trackpoint>
          <Trackpoint>
            <Time>2021-03-31T16:31:38.000Z</Time>
            <Position>
              <LatitudeDegrees>42.44013114832341670989990234375</LatitudeDegrees>
              <LongitudeDegrees>2.81109695322811603546142578125</LongitudeDegrees>
            </Position>
            <AltitudeMeters>700</AltitudeMeters>
            <DistanceMeters>9491.0298820322</DistanceMeters>
          </Trackpoint>
          <Trackpoint>
            <Time>2021-03-31T16:31:46.000Z</Time>
            <Position>
              <LatitudeDegrees>42.44005638174712657928466796875</LatitudeDegrees>
              <LongitudeDegrees>2.811077423393726348876953125</LongitudeDegrees>
            </Position>
            <AltitudeMeters>699.4000244140625</AltitudeMeters>
            <DistanceMeters>9499.5048586124</DistanceMeters>
          </Trackpoint>
          <Trackpoint>
            <Time>2021-03-31T16:31:50.000Z</Time>
            <Position>
              <LatitudeDegrees>42.440057136118412017822265625</LatitudeDegrees>
              <LongitudeDegrees>2.811071388423442840576171875</LongitudeDegrees>
            </Position>
            <AltitudeMeters>699.5999755859375</AltitudeMeters>
            <DistanceMeters>9500.0076927207</DistanceMeters>
          </Trackpoint>
          <Trackpoint>
            <Time>2021-03-31T16:31:52.000Z</Time>
            <Position>
              <LatitudeDegrees>42.440057136118412017822265625</LatitudeDegrees>
              <LongitudeDegrees>2.81107398681342601776123046875</LongitudeDegrees>
            </Position>
            <AltitudeMeters>699.4000244140625</AltitudeMeters>
            <DistanceMeters>9500.2404596828</DistanceMeters>
          </Trackpoint>
          <Trackpoint>
            <Time>2021-03-31T16:31:54.000Z</Time>
            <Position>
              <LatitudeDegrees>42.44005554355680942535400390625</LatitudeDegrees>
              <LongitudeDegrees>2.811076752841472625732421875</LongitudeDegrees>
            </Position>
            <AltitudeMeters>699.4000244140625</AltitudeMeters>
            <DistanceMeters>9500.5092358193</DistanceMeters>
          </Trackpoint>
          <Trackpoint>
            <Time>2021-03-31T16:31:57.000Z</Time>
            <Position>
              <LatitudeDegrees>42.4400554597377777099609375</LatitudeDegrees>
              <LongitudeDegrees>2.8110735677182674407958984375</LongitudeDegrees>
            </Position>
            <AltitudeMeters>699</AltitudeMeters>
            <DistanceMeters>9500.7780119558</DistanceMeters>
          </Trackpoint>
          <Trackpoint>
            <Time>2021-03-31T16:31:59.000Z</Time>
            <Position>
              <LatitudeDegrees>42.4400554597377777099609375</LatitudeDegrees>
              <LongitudeDegrees>2.8110735677182674407958984375</LongitudeDegrees>
            </Position>
            <AltitudeMeters>699</AltitudeMeters>
            <DistanceMeters>9500.7780119558</DistanceMeters>
          </Trackpoint>
          <Trackpoint>
            <Time>2021-03-31T16:32:09.000Z</Time>
            <Position>
              <LatitudeDegrees>42.440057136118412017822265625</LatitudeDegrees>
              <LongitudeDegrees>2.8110735677182674407958984375</LongitudeDegrees>
            </Position>
            <AltitudeMeters>699</AltitudeMeters>
            <DistanceMeters>9500.9680653846</DistanceMeters>
          </Trackpoint>
          <Trackpoint>
            <Time>2021-03-31T16:32:11.000Z</Time>
            <Position>
              <LatitudeDegrees>42.440057136118412017822265625</LatitudeDegrees>
              <LongitudeDegrees>2.8110735677182674407958984375</LongitudeDegrees>
            </Position>
            <AltitudeMeters>699</AltitudeMeters>
            <DistanceMeters>9500.9680653846</DistanceMeters>
          </Trackpoint>
          <Trackpoint>
            <Time>2021-03-31T16:32:13.000Z</Time>
            <Position>
              <LatitudeDegrees>42.440057136118412017822265625</LatitudeDegrees>
              <LongitudeDegrees>2.8110735677182674407958984375</LongitudeDegrees>
            </Position>
            <AltitudeMeters>699</AltitudeMeters>
            <DistanceMeters>9500.9680653846</DistanceMeters>
          </Trackpoint>
          <Trackpoint>
            <Time>2021-03-31T16:32:15.000Z</Time>
            <Position>
              <LatitudeDegrees>42.440057136118412017822265625</LatitudeDegrees>
              <LongitudeDegrees>2.81107298098504543304443359375</LongitudeDegrees>
            </Position>
            <AltitudeMeters>699</AltitudeMeters>
            <DistanceMeters>9500.9680653846</DistanceMeters>
          </Trackpoint>
          <Trackpoint>
            <Time>2021-03-31T16:32:23.000Z</Time>
            <Position>
              <LatitudeDegrees>42.4400554597377777099609375</LatitudeDegrees>
              <LongitudeDegrees>2.8110645152628421783447265625</LongitudeDegrees>
            </Position>
            <AltitudeMeters>699</AltitudeMeters>
            <DistanceMeters>9501.685501345</DistanceMeters>
          </Trackpoint>
          <Trackpoint>
            <Time>2021-03-31T16:32:24.000Z</Time>
            <Position>
              <LatitudeDegrees>42.44005353190004825592041015625</LatitudeDegrees>
              <LongitudeDegrees>2.81106225214898586273193359375</LongitudeDegrees>
            </Position>
            <AltitudeMeters>699</AltitudeMeters>
            <DistanceMeters>9501.9705814881</DistanceMeters>
          </Trackpoint>
          <Trackpoint>
            <Time>2021-03-31T16:32:45.000Z</Time>
            <Position>
              <LatitudeDegrees>42.44002939201891422271728515625</LatitudeDegrees>
              <LongitudeDegrees>2.81102838926017284393310546875</LongitudeDegrees>
            </Position>
            <AltitudeMeters>699</AltitudeMeters>
            <DistanceMeters>9505.839931142</DistanceMeters>
          </Trackpoint>
          <Trackpoint>
            <Time>2021-03-31T16:32:50.000Z</Time>
            <Position>
              <LatitudeDegrees>42.440026961266994476318359375</LatitudeDegrees>
              <LongitudeDegrees>2.81100911088287830352783203125</LongitudeDegrees>
            </Position>
            <AltitudeMeters>699</AltitudeMeters>
            <DistanceMeters>9507.4469787029</DistanceMeters>
          </Trackpoint>
          <Trackpoint>
            <Time>2021-03-31T16:33:00.000Z</Time>
            <Position>
              <LatitudeDegrees>42.44001966901123523712158203125</LatitudeDegrees>
              <LongitudeDegrees>2.81100173480808734893798828125</LongitudeDegrees>
            </Position>
            <AltitudeMeters>699</AltitudeMeters>
            <DistanceMeters>9508.4615863682</DistanceMeters>
          </Trackpoint>
          <Trackpoint>
            <Time>2021-03-31T16:33:01.000Z</Time>
            <Position>
              <LatitudeDegrees>42.4400194175541400909423828125</LatitudeDegrees>
              <LongitudeDegrees>2.81100173480808734893798828125</LongitudeDegrees>
            </Position>
            <AltitudeMeters>699</AltitudeMeters>
            <DistanceMeters>9508.4615863682</DistanceMeters>
          </Trackpoint>
          <Trackpoint>
            <Time>2021-03-31T16:33:08.000Z</Time>
            <Position>
              <LatitudeDegrees>42.44001648388803005218505859375</LatitudeDegrees>
              <LongitudeDegrees>2.81100542284548282623291015625</LongitudeDegrees>
            </Position>
            <AltitudeMeters>699</AltitudeMeters>
            <DistanceMeters>9508.8970534799</DistanceMeters>
          </Trackpoint>
          <Trackpoint>
            <Time>2021-03-31T16:33:16.000Z</Time>
            <Position>
              <LatitudeDegrees>42.44001614861190319061279296875</LatitudeDegrees>
              <LongitudeDegrees>2.811021097004413604736328125</LongitudeDegrees>
            </Position>
            <AltitudeMeters>699</AltitudeMeters>
            <DistanceMeters>9510.186058548</DistanceMeters>
          </Trackpoint>
          <Trackpoint>
            <Time>2021-03-31T16:33:21.000Z</Time>
            <Position>
              <LatitudeDegrees>42.440016232430934906005859375</LatitudeDegrees>
              <LongitudeDegrees>2.81102486886084079742431640625</LongitudeDegrees>
            </Position>
            <AltitudeMeters>699</AltitudeMeters>
            <DistanceMeters>9510.486559404</DistanceMeters>
          </Trackpoint>
          <Trackpoint>
            <Time>2021-03-31T16:33:25.000Z</Time>
            <Position>
              <LatitudeDegrees>42.44002436287701129913330078125</LatitudeDegrees>
              <LongitudeDegrees>2.81103090383112430572509765625</LongitudeDegrees>
            </Position>
            <AltitudeMeters>699</AltitudeMeters>
            <DistanceMeters>9511.518813743</DistanceMeters>
          </Trackpoint>
          <Trackpoint>
            <Time>2021-03-31T16:33:33.000Z</Time>
            <Position>
              <LatitudeDegrees>42.44004674255847930908203125</LatitudeDegrees>
              <LongitudeDegrees>2.81104557216167449951171875</LongitudeDegrees>
            </Position>
            <AltitudeMeters>699</AltitudeMeters>
            <DistanceMeters>9514.2844013384</DistanceMeters>
          </Trackpoint>
          <Trackpoint>
            <Time>2021-03-31T16:33:42.000Z</Time>
            <Position>
              <LatitudeDegrees>42.44005235843360424041748046875</LatitudeDegrees>
              <LongitudeDegrees>2.8110618330538272857666015625</LongitudeDegrees>
            </Position>
            <AltitudeMeters>699</AltitudeMeters>
            <DistanceMeters>9515.7565488672</DistanceMeters>
          </Trackpoint>
          <Trackpoint>
            <Time>2021-03-31T16:33:45.000Z</Time>
            <Position>
              <LatitudeDegrees>42.4400529451668262481689453125</LatitudeDegrees>
              <LongitudeDegrees>2.811062000691890716552734375</LongitudeDegrees>
            </Position>
            <AltitudeMeters>699</AltitudeMeters>
            <DistanceMeters>9515.7565488672</DistanceMeters>
          </Trackpoint>
          <Trackpoint>
            <Time>2021-03-31T16:34:14.000Z</Time>
            <Position>
              <LatitudeDegrees>42.44003157131373882293701171875</LatitudeDegrees>
              <LongitudeDegrees>2.81100994907319545745849609375</LongitudeDegrees>
            </Position>
            <AltitudeMeters>699</AltitudeMeters>
            <DistanceMeters>9520.6483483906</DistanceMeters>
          </Trackpoint>
          <Trackpoint>
            <Time>2021-03-31T16:34:17.000Z</Time>
            <Position>
              <LatitudeDegrees>42.4400288052856922149658203125</LatitudeDegrees>
              <LongitudeDegrees>2.8110078535974025726318359375</LongitudeDegrees>
            </Position>
            <AltitudeMeters>699</AltitudeMeters>
            <DistanceMeters>9520.9909720818</DistanceMeters>
          </Trackpoint>
          <Trackpoint>
            <Time>2021-03-31T16:34:31.000Z</Time>
            <Position>
              <LatitudeDegrees>42.44003240950405597686767578125</LatitudeDegrees>
              <LongitudeDegrees>2.81100533902645111083984375</LongitudeDegrees>
            </Position>
            <AltitudeMeters>699</AltitudeMeters>
            <DistanceMeters>9521.4366868805</DistanceMeters>
          </Trackpoint>
          <Trackpoint>
            <Time>2021-03-31T16:34:34.000Z</Time>
            <Position>
              <LatitudeDegrees>42.44003257714211940765380859375</LatitudeDegrees>
              <LongitudeDegrees>2.81101145781576633453369140625</LongitudeDegrees>
            </Position>
            <AltitudeMeters>699</AltitudeMeters>
            <DistanceMeters>9521.9395209887</DistanceMeters>
          </Trackpoint>
          <Trackpoint>
            <Time>2021-03-31T16:34:48.000Z</Time>
            <Position>
              <LatitudeDegrees>42.44003291241824626922607421875</LatitudeDegrees>
              <LongitudeDegrees>2.81103325076401233673095703125</LongitudeDegrees>
            </Position>
            <AltitudeMeters>699</AltitudeMeters>
            <DistanceMeters>9523.7299614758</DistanceMeters>
          </Trackpoint>
          <Trackpoint>
            <Time>2021-03-31T16:35:00.000Z</Time>
            <Position>
              <LatitudeDegrees>42.44003073312342166900634765625</LatitudeDegrees>
              <LongitudeDegrees>2.8110460750758647918701171875</LongitudeDegrees>
            </Position>
            <AltitudeMeters>695.5999755859375</AltitudeMeters>
            <DistanceMeters>9524.8134327203</DistanceMeters>
          </Trackpoint>
          <Trackpoint>
            <Time>2021-03-31T16:35:23.000Z</Time>
            <Position>
              <LatitudeDegrees>42.44002738036215305328369140625</LatitudeDegrees>
              <LongitudeDegrees>2.811059318482875823974609375</LongitudeDegrees>
            </Position>
            <AltitudeMeters>696.5999755859375</AltitudeMeters>
            <DistanceMeters>9525.9616448787</DistanceMeters>
          </Trackpoint>
          <Trackpoint>
            <Time>2021-03-31T16:35:24.000Z</Time>
            <Position>
              <LatitudeDegrees>42.44002738036215305328369140625</LatitudeDegrees>
              <LongitudeDegrees>2.811059318482875823974609375</LongitudeDegrees>
            </Position>
            <AltitudeMeters>696.5999755859375</AltitudeMeters>
            <DistanceMeters>9525.9616448787</DistanceMeters>
          </Trackpoint>
          <Trackpoint>
            <Time>2021-03-31T16:35:43.000Z</Time>
            <Position>
              <LatitudeDegrees>42.44002721272408962249755859375</LatitudeDegrees>
              <LongitudeDegrees>2.8110598213970661163330078125</LongitudeDegrees>
            </Position>
            <AltitudeMeters>696.79998779296875</AltitudeMeters>
            <DistanceMeters>9526.0566715931</DistanceMeters>
          </Trackpoint>
          <Trackpoint>
            <Time>2021-03-31T16:35:51.000Z</Time>
            <Position>
              <LatitudeDegrees>42.4400271289050579071044921875</LatitudeDegrees>
              <LongitudeDegrees>2.81105956993997097015380859375</LongitudeDegrees>
            </Position>
            <AltitudeMeters>696.79998779296875</AltitudeMeters>
            <DistanceMeters>9526.0566715931</DistanceMeters>
          </Trackpoint>
          <Trackpoint>
            <Time>2021-03-31T16:35:55.000Z</Time>
            <Position>
              <LatitudeDegrees>42.44002704508602619171142578125</LatitudeDegrees>
              <LongitudeDegrees>2.8110594861209392547607421875</LongitudeDegrees>
            </Position>
            <AltitudeMeters>696.79998779296875</AltitudeMeters>
            <DistanceMeters>9526.0566715931</DistanceMeters>
          </Trackpoint>
          <Trackpoint>
            <Time>2021-03-31T16:36:07.000Z</Time>
            <Position>
              <LatitudeDegrees>42.44002704508602619171142578125</LatitudeDegrees>
              <LongitudeDegrees>2.81105889938771724700927734375</LongitudeDegrees>
            </Position>
            <AltitudeMeters>697.20001220703125</AltitudeMeters>
            <DistanceMeters>9526.0566715931</DistanceMeters>
          </Trackpoint>
          <Trackpoint>
            <Time>2021-03-31T16:36:11.000Z</Time>
            <Position>
              <LatitudeDegrees>42.440026961266994476318359375</LatitudeDegrees>
              <LongitudeDegrees>2.811058647930622100830078125</LongitudeDegrees>
            </Position>
            <AltitudeMeters>697.79998779296875</AltitudeMeters>
            <DistanceMeters>9526.1516983075</DistanceMeters>
          </Trackpoint>
          <Trackpoint>
            <Time>2021-03-31T16:36:29.000Z</Time>
            <Position>
              <LatitudeDegrees>42.44002662599086761474609375</LatitudeDegrees>
              <LongitudeDegrees>2.81105755828320980072021484375</LongitudeDegrees>
            </Position>
            <AltitudeMeters>697.4000244140625</AltitudeMeters>
            <DistanceMeters>9526.2467250218</DistanceMeters>
          </Trackpoint>
          <Trackpoint>
            <Time>2021-03-31T16:36:33.000Z</Time>
            <Position>
              <LatitudeDegrees>42.44002654217183589935302734375</LatitudeDegrees>
              <LongitudeDegrees>2.811057306826114654541015625</LongitudeDegrees>
            </Position>
            <AltitudeMeters>697.5999755859375</AltitudeMeters>
            <DistanceMeters>9526.2467250218</DistanceMeters>
          </Trackpoint>
          <Trackpoint>
            <Time>2021-03-31T16:36:35.000Z</Time>
            <Position>
              <LatitudeDegrees>42.4400264583528041839599609375</LatitudeDegrees>
              <LongitudeDegrees>2.8110571391880512237548828125</LongitudeDegrees>
            </Position>
            <AltitudeMeters>697.5999755859375</AltitudeMeters>
            <DistanceMeters>9526.2467250218</DistanceMeters>
          </Trackpoint>
          <Trackpoint>
            <Time>2021-03-31T16:36:46.000Z</Time>
            <Position>
              <LatitudeDegrees>42.4400261230766773223876953125</LatitudeDegrees>
              <LongitudeDegrees>2.8110564686357975006103515625</LongitudeDegrees>
            </Position>
            <AltitudeMeters>697.20001220703125</AltitudeMeters>
            <DistanceMeters>9526.3811130901</DistanceMeters>
          </Trackpoint>
          <Trackpoint>
            <Time>2021-03-31T16:36:53.000Z</Time>
            <Position>
              <LatitudeDegrees>42.44002587161958217620849609375</LatitudeDegrees>
              <LongitudeDegrees>2.81105604954063892364501953125</LongitudeDegrees>
            </Position>
            <AltitudeMeters>697</AltitudeMeters>
            <DistanceMeters>9526.3811130901</DistanceMeters>
          </Trackpoint>
          <Trackpoint>
            <Time>2021-03-31T16:36:56.000Z</Time>
            <Position>
              <LatitudeDegrees>42.4400257878005504608154296875</LatitudeDegrees>
              <LongitudeDegrees>2.81105588190257549285888671875</LongitudeDegrees>
            </Position>
            <AltitudeMeters>697.20001220703125</AltitudeMeters>
            <DistanceMeters>9526.3811130901</DistanceMeters>
          </Trackpoint>
          <Trackpoint>
            <Time>2021-03-31T16:37:00.000Z</Time>
            <Position>
              <LatitudeDegrees>42.440025620162487030029296875</LatitudeDegrees>
              <LongitudeDegrees>2.81105571426451206207275390625</LongitudeDegrees>
            </Position>
            <AltitudeMeters>697.4000244140625</AltitudeMeters>
            <DistanceMeters>9526.3811130901</DistanceMeters>
          </Trackpoint>
          <Trackpoint>
            <Time>2021-03-31T16:37:03.000Z</Time>
            <Position>
              <LatitudeDegrees>42.44002553634345531463623046875</LatitudeDegrees>
              <LongitudeDegrees>2.81105554662644863128662109375</LongitudeDegrees>
            </Position>
            <AltitudeMeters>697.79998779296875</AltitudeMeters>
            <DistanceMeters>9526.3811130901</DistanceMeters>
          </Trackpoint>
          <Trackpoint>
            <Time>2021-03-31T16:37:05.000Z</Time>
            <Position>
              <LatitudeDegrees>42.44002553634345531463623046875</LatitudeDegrees>
              <LongitudeDegrees>2.81105537898838520050048828125</LongitudeDegrees>
            </Position>
            <AltitudeMeters>697.79998779296875</AltitudeMeters>
            <DistanceMeters>9526.3811130901</DistanceMeters>
          </Trackpoint>
          <Trackpoint>
            <Time>2021-03-31T16:37:21.000Z</Time>
            <Position>
              <LatitudeDegrees>42.44002503342926502227783203125</LatitudeDegrees>
              <LongitudeDegrees>2.81105420552194118499755859375</LongitudeDegrees>
            </Position>
            <AltitudeMeters>697.79998779296875</AltitudeMeters>
            <DistanceMeters>9526.5155011583</DistanceMeters>
          </Trackpoint>
          <Trackpoint>
            <Time>2021-03-31T16:37:22.000Z</Time>
            <Position>
              <LatitudeDegrees>42.44002503342926502227783203125</LatitudeDegrees>
              <LongitudeDegrees>2.8110541217029094696044921875</LongitudeDegrees>
            </Position>
            <AltitudeMeters>697.79998779296875</AltitudeMeters>
            <DistanceMeters>9526.6105278727</DistanceMeters>
          </Trackpoint>
          <Trackpoint>
            <Time>2021-03-31T16:37:30.000Z</Time>
            <Position>
              <LatitudeDegrees>42.4400247819721698760986328125</LatitudeDegrees>
              <LongitudeDegrees>2.8110534511506557464599609375</LongitudeDegrees>
            </Position>
            <AltitudeMeters>697.79998779296875</AltitudeMeters>
            <DistanceMeters>9526.744915941</DistanceMeters>
          </Trackpoint>
          <Trackpoint>
            <Time>2021-03-31T16:37:34.000Z</Time>
            <Position>
              <LatitudeDegrees>42.4400246143341064453125</LatitudeDegrees>
              <LongitudeDegrees>2.8110531158745288848876953125</LongitudeDegrees>
            </Position>
            <AltitudeMeters>697.79998779296875</AltitudeMeters>
            <DistanceMeters>9526.744915941</DistanceMeters>
          </Trackpoint>
          <Trackpoint>
            <Time>2021-03-31T16:38:07.000Z</Time>
            <Position>
              <LatitudeDegrees>42.4400231055915355682373046875</LatitudeDegrees>
              <LongitudeDegrees>2.81105102039873600006103515625</LongitudeDegrees>
            </Position>
            <AltitudeMeters>697.79998779296875</AltitudeMeters>
            <DistanceMeters>9526.9776829031</DistanceMeters>
          </Trackpoint>
          <Trackpoint>
            <Time>2021-03-31T16:38:13.000Z</Time>
            <Position>
              <LatitudeDegrees>42.440022937953472137451171875</LatitudeDegrees>
              <LongitudeDegrees>2.81105068512260913848876953125</LongitudeDegrees>
            </Position>
            <AltitudeMeters>697.79998779296875</AltitudeMeters>
            <DistanceMeters>9526.9776829031</DistanceMeters>
          </Trackpoint>
          <Trackpoint>
            <Time>2021-03-31T16:38:18.000Z</Time>
            <Position>
              <LatitudeDegrees>42.4400227703154087066650390625</LatitudeDegrees>
              <LongitudeDegrees>2.81105051748454570770263671875</LongitudeDegrees>
            </Position>
            <AltitudeMeters>697.79998779296875</AltitudeMeters>
            <DistanceMeters>9526.9776829031</DistanceMeters>
          </Trackpoint>
          <Trackpoint>
            <Time>2021-03-31T16:38:21.000Z</Time>
            <Position>
              <LatitudeDegrees>42.44002268649637699127197265625</LatitudeDegrees>
              <LongitudeDegrees>2.8110504336655139923095703125</LongitudeDegrees>
            </Position>
            <AltitudeMeters>697.79998779296875</AltitudeMeters>
            <DistanceMeters>9526.9776829031</DistanceMeters>
          </Trackpoint>
          <Trackpoint>
            <Time>2021-03-31T16:38:36.000Z</Time>
            <Position>
              <LatitudeDegrees>42.44002218358218669891357421875</LatitudeDegrees>
              <LongitudeDegrees>2.8110500983893871307373046875</LongitudeDegrees>
            </Position>
            <AltitudeMeters>697.79998779296875</AltitudeMeters>
            <DistanceMeters>9526.9776829031</DistanceMeters>
          </Trackpoint>
          <Trackpoint>
            <Time>2021-03-31T16:38:38.000Z</Time>
            <Position>
              <LatitudeDegrees>42.4400220997631549835205078125</LatitudeDegrees>
              <LongitudeDegrees>2.81105001457035541534423828125</LongitudeDegrees>
            </Position>
            <AltitudeMeters>697.79998779296875</AltitudeMeters>
            <DistanceMeters>9526.9776829031</DistanceMeters>
          </Trackpoint>
          <Trackpoint>
            <Time>2021-03-31T16:38:55.000Z</Time>
            <Position>
              <LatitudeDegrees>42.4400217644870281219482421875</LatitudeDegrees>
              <LongitudeDegrees>2.81104951165616512298583984375</LongitudeDegrees>
            </Position>
            <AltitudeMeters>697.79998779296875</AltitudeMeters>
            <DistanceMeters>9527.1120709713</DistanceMeters>
          </Trackpoint>
          <Trackpoint>
            <Time>2021-03-31T16:39:11.000Z</Time>
            <Position>
              <LatitudeDegrees>42.440021596848964691162109375</LatitudeDegrees>
              <LongitudeDegrees>2.81104884110391139984130859375</LongitudeDegrees>
            </Position>
            <AltitudeMeters>697.79998779296875</AltitudeMeters>
            <DistanceMeters>9527.2070976857</DistanceMeters>
          </Trackpoint>
          <Trackpoint>
            <Time>2021-03-31T16:39:16.000Z</Time>
            <Position>
              <LatitudeDegrees>42.44002151302993297576904296875</LatitudeDegrees>
              <LongitudeDegrees>2.811048589646816253662109375</LongitudeDegrees>
            </Position>
            <AltitudeMeters>697.79998779296875</AltitudeMeters>
            <DistanceMeters>9527.2070976857</DistanceMeters>
          </Trackpoint>
          <Trackpoint>
            <Time>2021-03-31T16:39:21.000Z</Time>
            <Position>
              <LatitudeDegrees>42.4400214292109012603759765625</LatitudeDegrees>
              <LongitudeDegrees>2.81104825437068939208984375</LongitudeDegrees>
            </Position>
            <AltitudeMeters>697.79998779296875</AltitudeMeters>
            <DistanceMeters>9527.2070976857</DistanceMeters>
          </Trackpoint>
          <Trackpoint>
            <Time>2021-03-31T16:39:24.000Z</Time>
            <Position>
              <LatitudeDegrees>42.4400214292109012603759765625</LatitudeDegrees>
              <LongitudeDegrees>2.81104800291359424591064453125</LongitudeDegrees>
            </Position>
            <AltitudeMeters>697.79998779296875</AltitudeMeters>
            <DistanceMeters>9527.2070976857</DistanceMeters>
          </Trackpoint>
          <Trackpoint>
            <Time>2021-03-31T16:39:30.000Z</Time>
            <Position>
              <LatitudeDegrees>42.44002126157283782958984375</LatitudeDegrees>
              <LongitudeDegrees>2.8110475838184356689453125</LongitudeDegrees>
            </Position>
            <AltitudeMeters>697.79998779296875</AltitudeMeters>
            <DistanceMeters>9527.2070976857</DistanceMeters>
          </Trackpoint>
          <Trackpoint>
            <Time>2021-03-31T16:39:38.000Z</Time>
            <Position>
              <LatitudeDegrees>42.44002117775380611419677734375</LatitudeDegrees>
              <LongitudeDegrees>2.81104699708521366119384765625</LongitudeDegrees>
            </Position>
            <AltitudeMeters>697.79998779296875</AltitudeMeters>
            <DistanceMeters>9527.3021244001</DistanceMeters>
          </Trackpoint>
          <Trackpoint>
            <Time>2021-03-31T16:39:46.000Z</Time>
            <Position>
              <LatitudeDegrees>42.44002101011574268341064453125</LatitudeDegrees>
              <LongitudeDegrees>2.8110464103519916534423828125</LongitudeDegrees>
            </Position>
            <AltitudeMeters>697.79998779296875</AltitudeMeters>
            <DistanceMeters>9527.3021244001</DistanceMeters>
          </Trackpoint>
          <Trackpoint>
            <Time>2021-03-31T16:39:51.000Z</Time>
            <Position>
              <LatitudeDegrees>42.44002084247767925262451171875</LatitudeDegrees>
              <LongitudeDegrees>2.81104624271392822265625</LongitudeDegrees>
            </Position>
            <AltitudeMeters>697.79998779296875</AltitudeMeters>
            <DistanceMeters>9527.3021244001</DistanceMeters>
          </Trackpoint>
          <Trackpoint>
            <Time>2021-03-31T16:40:00.000Z</Time>
            <Position>
              <LatitudeDegrees>42.4400205910205841064453125</LatitudeDegrees>
              <LongitudeDegrees>2.8110460750758647918701171875</LongitudeDegrees>
            </Position>
            <AltitudeMeters>697.79998779296875</AltitudeMeters>
            <DistanceMeters>9527.3021244001</DistanceMeters>
          </Trackpoint>
          <Trackpoint>
            <Time>2021-03-31T16:40:01.000Z</Time>
            <Position>
              <LatitudeDegrees>42.44002050720155239105224609375</LatitudeDegrees>
              <LongitudeDegrees>2.8110460750758647918701171875</LongitudeDegrees>
            </Position>
            <AltitudeMeters>697.79998779296875</AltitudeMeters>
            <DistanceMeters>9527.3021244001</DistanceMeters>
          </Trackpoint>
          <Trackpoint>
            <Time>2021-03-31T16:40:12.000Z</Time>
            <Position>
              <LatitudeDegrees>42.44002000428736209869384765625</LatitudeDegrees>
              <LongitudeDegrees>2.8110457397997379302978515625</LongitudeDegrees>
            </Position>
            <AltitudeMeters>697.79998779296875</AltitudeMeters>
            <DistanceMeters>9527.3021244001</DistanceMeters>
          </Trackpoint>
          <Trackpoint>
            <Time>2021-03-31T16:40:15.000Z</Time>
            <Position>
              <LatitudeDegrees>42.44001983664929866790771484375</LatitudeDegrees>
              <LongitudeDegrees>2.81104565598070621490478515625</LongitudeDegrees>
            </Position>
            <AltitudeMeters>697.79998779296875</AltitudeMeters>
            <DistanceMeters>9527.3021244001</DistanceMeters>
          </Trackpoint>
          <Trackpoint>
            <Time>2021-03-31T16:40:26.000Z</Time>
            <Position>
              <LatitudeDegrees>42.44001924991607666015625</LatitudeDegrees>
              <LongitudeDegrees>2.81104498542845249176025390625</LongitudeDegrees>
            </Position>
            <AltitudeMeters>697.79998779296875</AltitudeMeters>
            <DistanceMeters>9527.4365124683</DistanceMeters>
          </Trackpoint>
          <Trackpoint>
            <Time>2021-03-31T16:40:42.000Z</Time>
            <Position>
              <LatitudeDegrees>42.44001849554479122161865234375</LatitudeDegrees>
              <LongitudeDegrees>2.811043895781040191650390625</LongitudeDegrees>
            </Position>
            <AltitudeMeters>697.79998779296875</AltitudeMeters>
            <DistanceMeters>9527.5709005366</DistanceMeters>
          </Trackpoint>
          <Trackpoint>
            <Time>2021-03-31T16:40:46.000Z</Time>
            <Position>
              <LatitudeDegrees>42.4400184117257595062255859375</LatitudeDegrees>
              <LongitudeDegrees>2.81104364432394504547119140625</LongitudeDegrees>
            </Position>
            <AltitudeMeters>697.79998779296875</AltitudeMeters>
            <DistanceMeters>9527.5709005366</DistanceMeters>
          </Trackpoint>
          <Trackpoint>
            <Time>2021-03-31T16:40:53.000Z</Time>
            <Position>
              <LatitudeDegrees>42.440018244087696075439453125</LatitudeDegrees>
              <LongitudeDegrees>2.811043225228786468505859375</LongitudeDegrees>
            </Position>
            <AltitudeMeters>697.79998779296875</AltitudeMeters>
            <DistanceMeters>9527.5709005366</DistanceMeters>
          </Trackpoint>
          <Trackpoint>
            <Time>2021-03-31T16:41:01.000Z</Time>
            <Position>
              <LatitudeDegrees>42.4400180764496326446533203125</LatitudeDegrees>
              <LongitudeDegrees>2.81104280613362789154052734375</LongitudeDegrees>
            </Position>
            <AltitudeMeters>697.79998779296875</AltitudeMeters>
            <DistanceMeters>9527.5709005366</DistanceMeters>
          </Trackpoint>
          <Trackpoint>
            <Time>2021-03-31T16:41:06.000Z</Time>
            <Position>
              <LatitudeDegrees>42.44001799263060092926025390625</LatitudeDegrees>
              <LongitudeDegrees>2.81104263849556446075439453125</LongitudeDegrees>
            </Position>
            <AltitudeMeters>697.79998779296875</AltitudeMeters>
            <DistanceMeters>9527.5709005366</DistanceMeters>
          </Trackpoint>
          <Trackpoint>
            <Time>2021-03-31T16:41:12.000Z</Time>
            <Position>
              <LatitudeDegrees>42.44001782499253749847412109375</LatitudeDegrees>
              <LongitudeDegrees>2.81104247085750102996826171875</LongitudeDegrees>
            </Position>
            <AltitudeMeters>697.79998779296875</AltitudeMeters>
            <DistanceMeters>9527.665927251</DistanceMeters>
          </Trackpoint>
          <Trackpoint>
            <Time>2021-03-31T16:41:16.000Z</Time>
            <Position>
              <LatitudeDegrees>42.4400177411735057830810546875</LatitudeDegrees>
              <LongitudeDegrees>2.81104230321943759918212890625</LongitudeDegrees>
            </Position>
            <AltitudeMeters>697.79998779296875</AltitudeMeters>
            <DistanceMeters>9527.665927251</DistanceMeters>
          </Trackpoint>
          <Trackpoint>
            <Time>2021-03-31T16:41:20.000Z</Time>
            <Position>
              <LatitudeDegrees>42.44001765735447406768798828125</LatitudeDegrees>
              <LongitudeDegrees>2.81104213558137416839599609375</LongitudeDegrees>
            </Position>
            <AltitudeMeters>697.79998779296875</AltitudeMeters>
            <DistanceMeters>9527.665927251</DistanceMeters>
          </Trackpoint>
          <Trackpoint>
            <Time>2021-03-31T16:41:24.000Z</Time>
            <Position>
              <LatitudeDegrees>42.44001765735447406768798828125</LatitudeDegrees>
              <LongitudeDegrees>2.8110420517623424530029296875</LongitudeDegrees>
            </Position>
            <AltitudeMeters>697.79998779296875</AltitudeMeters>
            <DistanceMeters>9527.7609539653</DistanceMeters>
          </Trackpoint>
          <Trackpoint>
            <Time>2021-03-31T16:41:35.000Z</Time>
            <Position>
              <LatitudeDegrees>42.44001748971641063690185546875</LatitudeDegrees>
              <LongitudeDegrees>2.8110417164862155914306640625</LongitudeDegrees>
            </Position>
            <AltitudeMeters>697.79998779296875</AltitudeMeters>
            <DistanceMeters>9527.7609539653</DistanceMeters>
          </Trackpoint>
          <Trackpoint>
            <Time>2021-03-31T16:41:45.000Z</Time>
            <Position>
              <LatitudeDegrees>42.4400174058973789215087890625</LatitudeDegrees>
              <LongitudeDegrees>2.8110417164862155914306640625</LongitudeDegrees>
            </Position>
            <AltitudeMeters>697.79998779296875</AltitudeMeters>
            <DistanceMeters>9527.7609539653</DistanceMeters>
          </Trackpoint>
          <Trackpoint>
            <Time>2021-03-31T16:42:02.000Z</Time>
            <Position>
              <LatitudeDegrees>42.4400174058973789215087890625</LatitudeDegrees>
              <LongitudeDegrees>2.8110423870384693145751953125</LongitudeDegrees>
            </Position>
            <AltitudeMeters>697.79998779296875</AltitudeMeters>
            <DistanceMeters>9527.8559806797</DistanceMeters>
          </Trackpoint>
          <Trackpoint>
            <Time>2021-03-31T16:42:14.000Z</Time>
            <Position>
              <LatitudeDegrees>42.440017573535442352294921875</LatitudeDegrees>
              <LongitudeDegrees>2.8110427223145961761474609375</LongitudeDegrees>
            </Position>
            <AltitudeMeters>697.79998779296875</AltitudeMeters>
            <DistanceMeters>9527.8559806797</DistanceMeters>
          </Trackpoint>
          <Trackpoint>
            <Time>2021-03-31T16:42:21.000Z</Time>
            <Position>
              <LatitudeDegrees>42.4400177411735057830810546875</LatitudeDegrees>
              <LongitudeDegrees>2.81104288995265960693359375</LongitudeDegrees>
            </Position>
            <AltitudeMeters>697.79998779296875</AltitudeMeters>
            <DistanceMeters>9527.8559806797</DistanceMeters>
          </Trackpoint>
          <Trackpoint>
            <Time>2021-03-31T16:42:29.000Z</Time>
            <Position>
              <LatitudeDegrees>42.4400179088115692138671875</LatitudeDegrees>
              <LongitudeDegrees>2.81104297377169132232666015625</LongitudeDegrees>
            </Position>
            <AltitudeMeters>697.79998779296875</AltitudeMeters>
            <DistanceMeters>9527.8559806797</DistanceMeters>
          </Trackpoint>
          <Trackpoint>
            <Time>2021-03-31T16:42:32.000Z</Time>
            <Position>
              <LatitudeDegrees>42.44001799263060092926025390625</LatitudeDegrees>
              <LongitudeDegrees>2.8110430575907230377197265625</LongitudeDegrees>
            </Position>
            <AltitudeMeters>697.79998779296875</AltitudeMeters>
            <DistanceMeters>9527.9510073941</DistanceMeters>
          </Trackpoint>
          <Trackpoint>
            <Time>2021-03-31T16:42:46.000Z</Time>
            <Position>
              <LatitudeDegrees>42.44001849554479122161865234375</LatitudeDegrees>
              <LongitudeDegrees>2.811043225228786468505859375</LongitudeDegrees>
            </Position>
            <AltitudeMeters>697.79998779296875</AltitudeMeters>
            <DistanceMeters>9528.0460341084</DistanceMeters>
          </Trackpoint>
          <Trackpoint>
            <Time>2021-03-31T16:42:47.000Z</Time>
            <Position>
              <LatitudeDegrees>42.44001849554479122161865234375</LatitudeDegrees>
              <LongitudeDegrees>2.811043225228786468505859375</LongitudeDegrees>
            </Position>
            <AltitudeMeters>697.79998779296875</AltitudeMeters>
            <DistanceMeters>9528.0460341084</DistanceMeters>
          </Trackpoint>
          <Trackpoint>
            <Time>2021-03-31T16:43:03.000Z</Time>
            <Position>
              <LatitudeDegrees>42.44001899845898151397705078125</LatitudeDegrees>
              <LongitudeDegrees>2.81104314140975475311279296875</LongitudeDegrees>
            </Position>
            <AltitudeMeters>697.79998779296875</AltitudeMeters>
            <DistanceMeters>9528.1410608228</DistanceMeters>
          </Trackpoint>
          <Trackpoint>
            <Time>2021-03-31T16:43:09.000Z</Time>
            <Position>
              <LatitudeDegrees>42.4400190822780132293701171875</LatitudeDegrees>
              <LongitudeDegrees>2.811042554676532745361328125</LongitudeDegrees>
            </Position>
            <AltitudeMeters>697.79998779296875</AltitudeMeters>
            <DistanceMeters>9528.1410608228</DistanceMeters>
          </Trackpoint>
          <Trackpoint>
            <Time>2021-03-31T16:43:15.000Z</Time>
            <Position>
              <LatitudeDegrees>42.44001899845898151397705078125</LatitudeDegrees>
              <LongitudeDegrees>2.81104154884815216064453125</LongitudeDegrees>
            </Position>
            <AltitudeMeters>697.79998779296875</AltitudeMeters>
            <DistanceMeters>9528.1410608228</DistanceMeters>
          </Trackpoint>
          <Trackpoint>
            <Time>2021-03-31T16:43:27.000Z</Time>
            <Position>
              <LatitudeDegrees>42.4400180764496326446533203125</LatitudeDegrees>
              <LongitudeDegrees>2.8110390342772006988525390625</LongitudeDegrees>
            </Position>
            <AltitudeMeters>697.79998779296875</AltitudeMeters>
            <DistanceMeters>9528.3738277849</DistanceMeters>
          </Trackpoint>
          <Trackpoint>
            <Time>2021-03-31T16:43:32.000Z</Time>
            <Position>
              <LatitudeDegrees>42.44001765735447406768798828125</LatitudeDegrees>
              <LongitudeDegrees>2.8110380284488201141357421875</LongitudeDegrees>
            </Position>
            <AltitudeMeters>697.79998779296875</AltitudeMeters>
            <DistanceMeters>9528.4688544993</DistanceMeters>
          </Trackpoint>
          <Trackpoint>
            <Time>2021-03-31T16:43:33.000Z</Time>
            <Position>
              <LatitudeDegrees>42.440017573535442352294921875</LatitudeDegrees>
              <LongitudeDegrees>2.811037860810756683349609375</LongitudeDegrees>
            </Position>
            <AltitudeMeters>697.79998779296875</AltitudeMeters>
            <DistanceMeters>9528.4688544993</DistanceMeters>
          </Trackpoint>
          <Trackpoint>
            <Time>2021-03-31T16:44:01.000Z</Time>
            <Position>
              <LatitudeDegrees>42.4400157295167446136474609375</LatitudeDegrees>
              <LongitudeDegrees>2.8110343404114246368408203125</LongitudeDegrees>
            </Position>
            <AltitudeMeters>697.79998779296875</AltitudeMeters>
            <DistanceMeters>9528.8244119071</DistanceMeters>
          </Trackpoint>
          <Trackpoint>
            <Time>2021-03-31T16:44:08.000Z</Time>
            <Position>
              <LatitudeDegrees>42.4400153942406177520751953125</LatitudeDegrees>
              <LongitudeDegrees>2.811033837497234344482421875</LongitudeDegrees>
            </Position>
            <AltitudeMeters>697.79998779296875</AltitudeMeters>
            <DistanceMeters>9528.8244119071</DistanceMeters>
          </Trackpoint>
          <Trackpoint>
            <Time>2021-03-31T16:44:11.000Z</Time>
            <Position>
              <LatitudeDegrees>42.44001531042158603668212890625</LatitudeDegrees>
              <LongitudeDegrees>2.81103358604013919830322265625</LongitudeDegrees>
            </Position>
            <AltitudeMeters>697.79998779296875</AltitudeMeters>
            <DistanceMeters>9528.8244119071</DistanceMeters>
          </Trackpoint>
          <Trackpoint>
            <Time>2021-03-31T16:44:21.000Z</Time>
            <Position>
              <LatitudeDegrees>42.4400152266025543212890625</LatitudeDegrees>
              <LongitudeDegrees>2.8110329993069171905517578125</LongitudeDegrees>
            </Position>
            <AltitudeMeters>697.79998779296875</AltitudeMeters>
            <DistanceMeters>9528.8244119071</DistanceMeters>
          </Trackpoint>
          <Trackpoint>
            <Time>2021-03-31T16:44:33.000Z</Time>
            <Position>
              <LatitudeDegrees>42.44001531042158603668212890625</LatitudeDegrees>
              <LongitudeDegrees>2.81103224493563175201416015625</LongitudeDegrees>
            </Position>
            <AltitudeMeters>697.79998779296875</AltitudeMeters>
            <DistanceMeters>9528.8244119071</DistanceMeters>
          </Trackpoint>
          <Trackpoint>
            <Time>2021-03-31T16:44:48.000Z</Time>
            <Position>
              <LatitudeDegrees>42.44001564569771289825439453125</LatitudeDegrees>
              <LongitudeDegrees>2.81103123910725116729736328125</LongitudeDegrees>
            </Position>
            <AltitudeMeters>697.79998779296875</AltitudeMeters>
            <DistanceMeters>9528.9194386214</DistanceMeters>
          </Trackpoint>
          <Trackpoint>
            <Time>2021-03-31T16:44:50.000Z</Time>
            <Position>
              <LatitudeDegrees>42.44001564569771289825439453125</LatitudeDegrees>
              <LongitudeDegrees>2.811031155288219451904296875</LongitudeDegrees>
            </Position>
            <AltitudeMeters>697.79998779296875</AltitudeMeters>
            <DistanceMeters>9528.9194386214</DistanceMeters>
          </Trackpoint>
          <Trackpoint>
            <Time>2021-03-31T16:44:53.000Z</Time>
            <Position>
              <LatitudeDegrees>42.44001564569771289825439453125</LatitudeDegrees>
              <LongitudeDegrees>2.81103090383112430572509765625</LongitudeDegrees>
            </Position>
            <AltitudeMeters>697.79998779296875</AltitudeMeters>
            <DistanceMeters>9528.9194386214</DistanceMeters>
          </Trackpoint>
          <Trackpoint>
            <Time>2021-03-31T16:45:20.000Z</Time>
            <Position>
              <LatitudeDegrees>42.4400153942406177520751953125</LatitudeDegrees>
              <LongitudeDegrees>2.81103056855499744415283203125</LongitudeDegrees>
            </Position>
            <AltitudeMeters>697.79998779296875</AltitudeMeters>
            <DistanceMeters>9528.9194386214</DistanceMeters>
          </Trackpoint>
          <Trackpoint>
            <Time>2021-03-31T16:45:21.000Z</Time>
            <Position>
              <LatitudeDegrees>42.4400153942406177520751953125</LatitudeDegrees>
              <LongitudeDegrees>2.8110306523740291595458984375</LongitudeDegrees>
            </Position>
            <AltitudeMeters>697.79998779296875</AltitudeMeters>
            <DistanceMeters>9528.9194386214</DistanceMeters>
          </Trackpoint>
          <Trackpoint>
            <Time>2021-03-31T16:45:22.000Z</Time>
            <Position>
              <LatitudeDegrees>42.4400153942406177520751953125</LatitudeDegrees>
              <LongitudeDegrees>2.8110306523740291595458984375</LongitudeDegrees>
            </Position>
            <AltitudeMeters>697.79998779296875</AltitudeMeters>
            <DistanceMeters>9528.9194386214</DistanceMeters>
          </Trackpoint>
          <Trackpoint>
            <Time>2021-03-31T16:45:23.000Z</Time>
            <Position>
              <LatitudeDegrees>42.4400153942406177520751953125</LatitudeDegrees>
              <LongitudeDegrees>2.81103073619306087493896484375</LongitudeDegrees>
            </Position>
            <AltitudeMeters>697.79998779296875</AltitudeMeters>
            <DistanceMeters>9528.9194386214</DistanceMeters>
          </Trackpoint>
          <Trackpoint>
            <Time>2021-03-31T16:45:47.000Z</Time>
            <Position>
              <LatitudeDegrees>42.44001581333577632904052734375</LatitudeDegrees>
              <LongitudeDegrees>2.81103140674531459808349609375</LongitudeDegrees>
            </Position>
            <AltitudeMeters>697.79998779296875</AltitudeMeters>
            <DistanceMeters>9529.0538266897</DistanceMeters>
          </Trackpoint>
          <Trackpoint>
            <Time>2021-03-31T16:45:49.000Z</Time>
            <Position>
              <LatitudeDegrees>42.44001564569771289825439453125</LatitudeDegrees>
              <LongitudeDegrees>2.8110314905643463134765625</LongitudeDegrees>
            </Position>
            <AltitudeMeters>697.79998779296875</AltitudeMeters>
            <DistanceMeters>9529.0538266897</DistanceMeters>
          </Trackpoint>
          <Trackpoint>
            <Time>2021-03-31T16:46:32.000Z</Time>
            <Position>
              <LatitudeDegrees>42.4400110356509685516357421875</LatitudeDegrees>
              <LongitudeDegrees>2.8110314905643463134765625</LongitudeDegrees>
            </Position>
            <AltitudeMeters>697.79998779296875</AltitudeMeters>
            <DistanceMeters>9529.556660798</DistanceMeters>
          </Trackpoint>
          <Trackpoint>
            <Time>2021-03-31T16:46:40.000Z</Time>
            <Position>
              <LatitudeDegrees>42.43995714001357555389404296875</LatitudeDegrees>
              <LongitudeDegrees>2.81103693880140781402587890625</LongitudeDegrees>
            </Position>
            <AltitudeMeters>697.79998779296875</AltitudeMeters>
            <DistanceMeters>9535.5711837412</DistanceMeters>
          </Trackpoint>
          <Trackpoint>
            <Time>2021-03-31T16:46:44.000Z</Time>
            <Position>
              <LatitudeDegrees>42.43991791270673274993896484375</LatitudeDegrees>
              <LongitudeDegrees>2.8109964542090892791748046875</LongitudeDegrees>
            </Position>
            <AltitudeMeters>697.79998779296875</AltitudeMeters>
            <DistanceMeters>9541.0597477626</DistanceMeters>
          </Trackpoint>
          <Trackpoint>
            <Time>2021-03-31T16:46:48.000Z</Time>
            <Position>
              <LatitudeDegrees>42.439912967383861541748046875</LatitudeDegrees>
              <LongitudeDegrees>2.8109605796635150909423828125</LongitudeDegrees>
            </Position>
            <AltitudeMeters>697.79998779296875</AltitudeMeters>
            <DistanceMeters>9544.0572343867</DistanceMeters>
          </Trackpoint>
          <Trackpoint>
            <Time>2021-03-31T16:46:50.000Z</Time>
            <Position>
              <LatitudeDegrees>42.4399201758205890655517578125</LatitudeDegrees>
              <LongitudeDegrees>2.81094440259039402008056640625</LongitudeDegrees>
            </Position>
            <AltitudeMeters>697.79998779296875</AltitudeMeters>
            <DistanceMeters>9545.6128887464</DistanceMeters>
          </Trackpoint>
          <Trackpoint>
            <Time>2021-03-31T16:46:56.000Z</Time>
            <Position>
              <LatitudeDegrees>42.439942471683025360107421875</LatitudeDegrees>
              <LongitudeDegrees>2.81091280281543731689453125</LongitudeDegrees>
            </Position>
            <AltitudeMeters>698</AltitudeMeters>
            <DistanceMeters>9549.203842542</DistanceMeters>
          </Trackpoint>
          <Trackpoint>
            <Time>2021-03-31T16:47:04.000Z</Time>
            <Position>
              <LatitudeDegrees>42.43995311670005321502685546875</LatitudeDegrees>
              <LongitudeDegrees>2.810907103121280670166015625</LongitudeDegrees>
            </Position>
            <AltitudeMeters>697.79998779296875</AltitudeMeters>
            <DistanceMeters>9550.4822962316</DistanceMeters>
          </Trackpoint>
          <Trackpoint>
            <Time>2021-03-31T16:47:16.000Z</Time>
            <Position>
              <LatitudeDegrees>42.43995311670005321502685546875</LatitudeDegrees>
              <LongitudeDegrees>2.810907103121280670166015625</LongitudeDegrees>
            </Position>
            <AltitudeMeters>697.79998779296875</AltitudeMeters>
            <DistanceMeters>9550.5773229459</DistanceMeters>
          </Trackpoint>
          <Trackpoint>
            <Time>2021-03-31T16:47:26.000Z</Time>
            <Position>
              <LatitudeDegrees>42.43996283970773220062255859375</LatitudeDegrees>
              <LongitudeDegrees>2.810903750360012054443359375</LongitudeDegrees>
            </Position>
            <AltitudeMeters>698</AltitudeMeters>
            <DistanceMeters>9551.6936340805</DistanceMeters>
          </Trackpoint>
          <Trackpoint>
            <Time>2021-03-31T16:47:27.000Z</Time>
            <Position>
              <LatitudeDegrees>42.43996283970773220062255859375</LatitudeDegrees>
              <LongitudeDegrees>2.8109032474458217620849609375</LongitudeDegrees>
            </Position>
            <AltitudeMeters>698.20001220703125</AltitudeMeters>
            <DistanceMeters>9551.6936340805</DistanceMeters>
          </Trackpoint>
          <Trackpoint>
            <Time>2021-03-31T16:47:33.000Z</Time>
            <Position>
              <LatitudeDegrees>42.4399634264409542083740234375</LatitudeDegrees>
              <LongitudeDegrees>2.81089528463780879974365234375</LongitudeDegrees>
            </Position>
            <AltitudeMeters>698.20001220703125</AltitudeMeters>
            <DistanceMeters>9552.35199847</DistanceMeters>
          </Trackpoint>
          <Trackpoint>
            <Time>2021-03-31T16:47:35.000Z</Time>
            <Position>
              <LatitudeDegrees>42.4399634264409542083740234375</LatitudeDegrees>
              <LongitudeDegrees>2.81088824383914470672607421875</LongitudeDegrees>
            </Position>
            <AltitudeMeters>698.20001220703125</AltitudeMeters>
            <DistanceMeters>9552.9221587562</DistanceMeters>
          </Trackpoint>
          <Trackpoint>
            <Time>2021-03-31T16:47:38.000Z</Time>
            <Position>
              <LatitudeDegrees>42.4399634264409542083740234375</LatitudeDegrees>
              <LongitudeDegrees>2.81088539399206638336181640625</LongitudeDegrees>
            </Position>
            <AltitudeMeters>698.20001220703125</AltitudeMeters>
            <DistanceMeters>9553.1549257184</DistanceMeters>
          </Trackpoint>
          <Trackpoint>
            <Time>2021-03-31T16:47:46.000Z</Time>
            <Position>
              <LatitudeDegrees>42.43996015749871730804443359375</LatitudeDegrees>
              <LongitudeDegrees>2.81087793409824371337890625</LongitudeDegrees>
            </Position>
            <AltitudeMeters>698.4000244140625</AltitudeMeters>
            <DistanceMeters>9553.8660405339</DistanceMeters>
          </Trackpoint>
          <Trackpoint>
            <Time>2021-03-31T16:47:57.000Z</Time>
            <Position>
              <LatitudeDegrees>42.4399412982165813446044921875</LatitudeDegrees>
              <LongitudeDegrees>2.81085018999874591827392578125</LongitudeDegrees>
            </Position>
            <AltitudeMeters>698.79998779296875</AltitudeMeters>
            <DistanceMeters>9556.9642611942</DistanceMeters>
          </Trackpoint>
          <Trackpoint>
            <Time>2021-03-31T16:48:01.000Z</Time>
            <Position>
              <LatitudeDegrees>42.44000223465263843536376953125</LatitudeDegrees>
              <LongitudeDegrees>2.810834012925624847412109375</LongitudeDegrees>
            </Position>
            <AltitudeMeters>698.5999755859375</AltitudeMeters>
            <DistanceMeters>9563.8757808815</DistanceMeters>
          </Trackpoint>
          <Trackpoint>
            <Time>2021-03-31T16:48:10.000Z</Time>
            <Position>
              <LatitudeDegrees>42.440144978463649749755859375</LatitudeDegrees>
              <LongitudeDegrees>2.81081833876669406890869140625</LongitudeDegrees>
            </Position>
            <AltitudeMeters>698</AltitudeMeters>
            <DistanceMeters>9579.8156447738</DistanceMeters>
          </Trackpoint>
          <Trackpoint>
            <Time>2021-03-31T16:48:11.000Z</Time>
            <Position>
              <LatitudeDegrees>42.4401598982512950897216796875</LatitudeDegrees>
              <LongitudeDegrees>2.810817919671535491943359375</LongitudeDegrees>
            </Position>
            <AltitudeMeters>697.79998779296875</AltitudeMeters>
            <DistanceMeters>9581.4779333745</DistanceMeters>
          </Trackpoint>
          <Trackpoint>
            <Time>2021-03-31T16:48:18.000Z</Time>
            <Position>
              <LatitudeDegrees>42.4402212537825107574462890625</LatitudeDegrees>
              <LongitudeDegrees>2.81080828048288822174072265625</LongitudeDegrees>
            </Position>
            <AltitudeMeters>697.20001220703125</AltitudeMeters>
            <DistanceMeters>9588.351459395</DistanceMeters>
          </Trackpoint>
          <Trackpoint>
            <Time>2021-03-31T16:48:21.000Z</Time>
            <Position>
              <LatitudeDegrees>42.44021697901189327239990234375</LatitudeDegrees>
              <LongitudeDegrees>2.81080643646419048309326171875</LongitudeDegrees>
            </Position>
            <AltitudeMeters>697.20001220703125</AltitudeMeters>
            <DistanceMeters>9588.8542935032</DistanceMeters>
          </Trackpoint>
          <Trackpoint>
            <Time>2021-03-31T16:48:26.000Z</Time>
            <Position>
              <LatitudeDegrees>42.44021044112741947174072265625</LatitudeDegrees>
              <LongitudeDegrees>2.81081490218639373779296875</LongitudeDegrees>
            </Position>
            <AltitudeMeters>697</AltitudeMeters>
            <DistanceMeters>9589.8599617198</DistanceMeters>
          </Trackpoint>
          <Trackpoint>
            <Time>2021-03-31T16:48:27.000Z</Time>
            <Position>
              <LatitudeDegrees>42.44020826183259487152099609375</LatitudeDegrees>
              <LongitudeDegrees>2.81081666238605976104736328125</LongitudeDegrees>
            </Position>
            <AltitudeMeters>696.79998779296875</AltitudeMeters>
            <DistanceMeters>9590.1287378563</DistanceMeters>
          </Trackpoint>
          <Trackpoint>
            <Time>2021-03-31T16:48:40.000Z</Time>
            <Position>
              <LatitudeDegrees>42.44021848775446414947509765625</LatitudeDegrees>
              <LongitudeDegrees>2.81081817112863063812255859375</LongitudeDegrees>
            </Position>
            <AltitudeMeters>696.79998779296875</AltitudeMeters>
            <DistanceMeters>9591.2730110249</DistanceMeters>
          </Trackpoint>
          <Trackpoint>
            <Time>2021-03-31T16:48:44.000Z</Time>
            <Position>
              <LatitudeDegrees>42.44021848775446414947509765625</LatitudeDegrees>
              <LongitudeDegrees>2.81081817112863063812255859375</LongitudeDegrees>
            </Position>
            <AltitudeMeters>696.79998779296875</AltitudeMeters>
            <DistanceMeters>9591.2730110249</DistanceMeters>
          </Trackpoint>
          <Trackpoint>
            <Time>2021-03-31T16:48:54.000Z</Time>
            <Position>
              <LatitudeDegrees>42.4402190744876861572265625</LatitudeDegrees>
              <LongitudeDegrees>2.81081934459507465362548828125</LongitudeDegrees>
            </Position>
            <AltitudeMeters>697.20001220703125</AltitudeMeters>
            <DistanceMeters>9591.4073990931</DistanceMeters>
          </Trackpoint>
          <Trackpoint>
            <Time>2021-03-31T16:48:56.000Z</Time>
            <Position>
              <LatitudeDegrees>42.4402199126780033111572265625</LatitudeDegrees>
              <LongitudeDegrees>2.81082102097570896148681640625</LongitudeDegrees>
            </Position>
            <AltitudeMeters>697</AltitudeMeters>
            <DistanceMeters>9591.5974525218</DistanceMeters>
          </Trackpoint>
          <Trackpoint>
            <Time>2021-03-31T16:49:07.000Z</Time>
            <Position>
              <LatitudeDegrees>42.4402199126780033111572265625</LatitudeDegrees>
              <LongitudeDegrees>2.81082353554666042327880859375</LongitudeDegrees>
            </Position>
            <AltitudeMeters>697.4000244140625</AltitudeMeters>
            <DistanceMeters>9591.830219484</DistanceMeters>
          </Trackpoint>
          <Trackpoint>
            <Time>2021-03-31T16:49:22.000Z</Time>
            <Position>
              <LatitudeDegrees>42.440220750868320465087890625</LatitudeDegrees>
              <LongitudeDegrees>2.81084516085684299468994140625</LongitudeDegrees>
            </Position>
            <AltitudeMeters>697.5999755859375</AltitudeMeters>
            <DistanceMeters>9593.6105444071</DistanceMeters>
          </Trackpoint>
          <Trackpoint>
            <Time>2021-03-31T16:49:32.000Z</Time>
            <Position>
              <LatitudeDegrees>42.440223433077335357666015625</LatitudeDegrees>
              <LongitudeDegrees>2.810846753418445587158203125</LongitudeDegrees>
            </Position>
            <AltitudeMeters>697.4000244140625</AltitudeMeters>
            <DistanceMeters>9593.9397266018</DistanceMeters>
          </Trackpoint>
          <Trackpoint>
            <Time>2021-03-31T16:49:36.000Z</Time>
            <Position>
              <LatitudeDegrees>42.4402242712676525115966796875</LatitudeDegrees>
              <LongitudeDegrees>2.810847759246826171875</LongitudeDegrees>
            </Position>
            <AltitudeMeters>697.5999755859375</AltitudeMeters>
            <DistanceMeters>9594.0741146701</DistanceMeters>
          </Trackpoint>
          <Trackpoint>
            <Time>2021-03-31T16:49:39.000Z</Time>
            <Position>
              <LatitudeDegrees>42.4402276240289211273193359375</LatitudeDegrees>
              <LongitudeDegrees>2.810854800045490264892578125</LongitudeDegrees>
            </Position>
            <AltitudeMeters>697.79998779296875</AltitudeMeters>
            <DistanceMeters>9594.7659195931</DistanceMeters>
          </Trackpoint>
          <Trackpoint>
            <Time>2021-03-31T16:49:40.000Z</Time>
            <Position>
              <LatitudeDegrees>42.44022988714277744293212890625</LatitudeDegrees>
              <LongitudeDegrees>2.8108598291873931884765625</LongitudeDegrees>
            </Position>
            <AltitudeMeters>697.79998779296875</AltitudeMeters>
            <DistanceMeters>9595.250462664</DistanceMeters>
          </Trackpoint>
          <Trackpoint>
            <Time>2021-03-31T16:49:46.000Z</Time>
            <Position>
              <LatitudeDegrees>42.44023323990404605865478515625</LatitudeDegrees>
              <LongitudeDegrees>2.81087785027921199798583984375</LongitudeDegrees>
            </Position>
            <AltitudeMeters>697.79998779296875</AltitudeMeters>
            <DistanceMeters>9596.7768177087</DistanceMeters>
          </Trackpoint>
          <Trackpoint>
            <Time>2021-03-31T16:50:01.000Z</Time>
            <Position>
              <LatitudeDegrees>42.44018780998885631561279296875</LatitudeDegrees>
              <LongitudeDegrees>2.81089813448488712310791015625</LongitudeDegrees>
            </Position>
            <AltitudeMeters>698.4000244140625</AltitudeMeters>
            <DistanceMeters>9602.1000103486</DistanceMeters>
          </Trackpoint>
          <Trackpoint>
            <Time>2021-03-31T16:50:02.000Z</Time>
            <Position>
              <LatitudeDegrees>42.44017523713409900665283203125</LatitudeDegrees>
              <LongitudeDegrees>2.81090400181710720062255859375</LongitudeDegrees>
            </Position>
            <AltitudeMeters>698.4000244140625</AltitudeMeters>
            <DistanceMeters>9603.5782790993</DistanceMeters>
          </Trackpoint>
          <Trackpoint>
            <Time>2021-03-31T16:50:05.000Z</Time>
            <Position>
              <LatitudeDegrees>42.44013299234211444854736328125</LatitudeDegrees>
              <LongitudeDegrees>2.8109169937670230865478515625</LongitudeDegrees>
            </Position>
            <AltitudeMeters>698.79998779296875</AltitudeMeters>
            <DistanceMeters>9608.399421782</DistanceMeters>
          </Trackpoint>
          <Trackpoint>
            <Time>2021-03-31T16:50:10.000Z</Time>
            <Position>
              <LatitudeDegrees>42.4400795996189117431640625</LatitudeDegrees>
              <LongitudeDegrees>2.81093015335500240325927734375</LongitudeDegrees>
            </Position>
            <AltitudeMeters>699.4000244140625</AltitudeMeters>
            <DistanceMeters>9614.4394142351</DistanceMeters>
          </Trackpoint>
          <Trackpoint>
            <Time>2021-03-31T16:50:12.000Z</Time>
            <Position>
              <LatitudeDegrees>42.44006258435547351837158203125</LatitudeDegrees>
              <LongitudeDegrees>2.810933254659175872802734375</LongitudeDegrees>
            </Position>
            <AltitudeMeters>699.5999755859375</AltitudeMeters>
            <DistanceMeters>9616.3470622128</DistanceMeters>
          </Trackpoint>
          <Trackpoint>
            <Time>2021-03-31T16:50:17.000Z</Time>
            <Position>
              <LatitudeDegrees>42.44001992046833038330078125</LatitudeDegrees>
              <LongitudeDegrees>2.810945324599742889404296875</LongitudeDegrees>
            </Position>
            <AltitudeMeters>699.79998779296875</AltitudeMeters>
            <DistanceMeters>9621.1980805815</DistanceMeters>
          </Trackpoint>
          <Trackpoint>
            <Time>2021-03-31T16:50:20.000Z</Time>
            <Position>
              <LatitudeDegrees>42.43999385274946689605712890625</LatitudeDegrees>
              <LongitudeDegrees>2.810952030122280120849609375</LongitudeDegrees>
            </Position>
            <AltitudeMeters>700</AltitudeMeters>
            <DistanceMeters>9624.1515622294</DistanceMeters>
          </Trackpoint>
          <Trackpoint>
            <Time>2021-03-31T16:50:23.000Z</Time>
            <Position>
              <LatitudeDegrees>42.4399758316576480865478515625</LatitudeDegrees>
              <LongitudeDegrees>2.8109635971486568450927734375</LongitudeDegrees>
            </Position>
            <AltitudeMeters>700.20001220703125</AltitudeMeters>
            <DistanceMeters>9626.3720175292</DistanceMeters>
          </Trackpoint>
          <Trackpoint>
            <Time>2021-03-31T16:50:25.000Z</Time>
            <Position>
              <LatitudeDegrees>42.4399624206125736236572265625</LatitudeDegrees>
              <LongitudeDegrees>2.810968458652496337890625</LongitudeDegrees>
            </Position>
            <AltitudeMeters>700.20001220703125</AltitudeMeters>
            <DistanceMeters>9627.9160188833</DistanceMeters>
          </Trackpoint>
          <Trackpoint>
            <Time>2021-03-31T16:50:29.000Z</Time>
            <Position>
              <LatitudeDegrees>42.439933754503726959228515625</LatitudeDegrees>
              <LongitudeDegrees>2.81098379753530025482177734375</LongitudeDegrees>
            </Position>
            <AltitudeMeters>700.4000244140625</AltitudeMeters>
            <DistanceMeters>9631.3462068674</DistanceMeters>
          </Trackpoint>
          <Trackpoint>
            <Time>2021-03-31T16:50:31.000Z</Time>
            <Position>
              <LatitudeDegrees>42.43993618525564670562744140625</LatitudeDegrees>
              <LongitudeDegrees>2.8109944425523281097412109375</LongitudeDegrees>
            </Position>
            <AltitudeMeters>700.4000244140625</AltitudeMeters>
            <DistanceMeters>9632.257671092</DistanceMeters>
          </Trackpoint>
          <Trackpoint>
            <Time>2021-03-31T16:50:33.000Z</Time>
            <Position>
              <LatitudeDegrees>42.4399449862539768218994140625</LatitudeDegrees>
              <LongitudeDegrees>2.81099754385650157928466796875</LongitudeDegrees>
            </Position>
            <AltitudeMeters>700.79998779296875</AltitudeMeters>
            <DistanceMeters>9633.2678189219</DistanceMeters>
          </Trackpoint>
          <Trackpoint>
            <Time>2021-03-31T16:50:34.000Z</Time>
            <Position>
              <LatitudeDegrees>42.439949512481689453125</LatitudeDegrees>
              <LongitudeDegrees>2.81099368818104267120361328125</LongitudeDegrees>
            </Position>
            <AltitudeMeters>700.79998779296875</AltitudeMeters>
            <DistanceMeters>9633.8612605629</DistanceMeters>
          </Trackpoint>
          <Trackpoint>
            <Time>2021-03-31T16:50:35.000Z</Time>
            <Position>
              <LatitudeDegrees>42.4399543739855289459228515625</LatitudeDegrees>
              <LongitudeDegrees>2.8109894134104251861572265625</LongitudeDegrees>
            </Position>
            <AltitudeMeters>701.20001220703125</AltitudeMeters>
            <DistanceMeters>9634.505763097</DistanceMeters>
          </Trackpoint>
          <Trackpoint>
            <Time>2021-03-31T16:50:37.000Z</Time>
            <Position>
              <LatitudeDegrees>42.43996627628803253173828125</LatitudeDegrees>
              <LongitudeDegrees>2.8109790198504924774169921875</LongitudeDegrees>
            </Position>
            <AltitudeMeters>701.79998779296875</AltitudeMeters>
            <DistanceMeters>9636.0844654434</DistanceMeters>
          </Trackpoint>
          <Trackpoint>
            <Time>2021-03-31T16:50:38.000Z</Time>
            <Position>
              <LatitudeDegrees>42.43997256271541118621826171875</LatitudeDegrees>
              <LongitudeDegrees>2.8109746612608432769775390625</LongitudeDegrees>
            </Position>
            <AltitudeMeters>702.20001220703125</AltitudeMeters>
            <DistanceMeters>9636.8680758046</DistanceMeters>
          </Trackpoint>
          <Trackpoint>
            <Time>2021-03-31T16:50:39.000Z</Time>
            <Position>
              <LatitudeDegrees>42.439978681504726409912109375</LatitudeDegrees>
              <LongitudeDegrees>2.81097021885216236114501953125</LongitudeDegrees>
            </Position>
            <AltitudeMeters>702.4000244140625</AltitudeMeters>
            <DistanceMeters>9637.6400764816</DistanceMeters>
          </Trackpoint>
          <Trackpoint>
            <Time>2021-03-31T16:50:41.000Z</Time>
            <Position>
              <LatitudeDegrees>42.439995110034942626953125</LatitudeDegrees>
              <LongitudeDegrees>2.81096820719540119171142578125</LongitudeDegrees>
            </Position>
            <AltitudeMeters>702.5999755859375</AltitudeMeters>
            <DistanceMeters>9639.4753471738</DistanceMeters>
          </Trackpoint>
          <Trackpoint>
            <Time>2021-03-31T16:50:44.000Z</Time>
            <Position>
              <LatitudeDegrees>42.4400127120316028594970703125</LatitudeDegrees>
              <LongitudeDegrees>2.81098078005015850067138671875</LongitudeDegrees>
            </Position>
            <AltitudeMeters>702.5999755859375</AltitudeMeters>
            <DistanceMeters>9641.6917319747</DistanceMeters>
          </Trackpoint>
          <Trackpoint>
            <Time>2021-03-31T16:50:45.000Z</Time>
            <Position>
              <LatitudeDegrees>42.44001396931707859039306640625</LatitudeDegrees>
              <LongitudeDegrees>2.8109897486865520477294921875</LongitudeDegrees>
            </Position>
            <AltitudeMeters>702.5999755859375</AltitudeMeters>
            <DistanceMeters>9642.4399730719</DistanceMeters>
          </Trackpoint>
          <Trackpoint>
            <Time>2021-03-31T16:50:46.000Z</Time>
            <Position>
              <LatitudeDegrees>42.44001430459320545196533203125</LatitudeDegrees>
              <LongitudeDegrees>2.8109998069703578948974609375</LongitudeDegrees>
            </Position>
            <AltitudeMeters>702.79998779296875</AltitudeMeters>
            <DistanceMeters>9643.2683967616</DistanceMeters>
          </Trackpoint>
          <Trackpoint>
            <Time>2021-03-31T16:50:47.000Z</Time>
            <Position>
              <LatitudeDegrees>42.4400133825838565826416015625</LatitudeDegrees>
              <LongitudeDegrees>2.81100626103579998016357421875</LongitudeDegrees>
            </Position>
            <AltitudeMeters>702.79998779296875</AltitudeMeters>
            <DistanceMeters>9643.8059490346</DistanceMeters>
          </Trackpoint>
          <Trackpoint>
            <Time>2021-03-31T16:50:52.000Z</Time>
            <Position>
              <LatitudeDegrees>42.4400117062032222747802734375</LatitudeDegrees>
              <LongitudeDegrees>2.8110078535974025726318359375</LongitudeDegrees>
            </Position>
            <AltitudeMeters>702.79998779296875</AltitudeMeters>
            <DistanceMeters>9644.0387159968</DistanceMeters>
          </Trackpoint>
          <Trackpoint>
            <Time>2021-03-31T16:50:59.000Z</Time>
            <Position>
              <LatitudeDegrees>42.4400130473077297210693359375</LatitudeDegrees>
              <LongitudeDegrees>2.8110202588140964508056640625</LongitudeDegrees>
            </Position>
            <AltitudeMeters>703</AltitudeMeters>
            <DistanceMeters>9645.0709703358</DistanceMeters>
          </Trackpoint>
          <Trackpoint>
            <Time>2021-03-31T16:51:02.000Z</Time>
            <Position>
              <LatitudeDegrees>42.4400130473077297210693359375</LatitudeDegrees>
              <LongitudeDegrees>2.8110202588140964508056640625</LongitudeDegrees>
            </Position>
            <AltitudeMeters>703.20001220703125</AltitudeMeters>
            <DistanceMeters>9645.0709703358</DistanceMeters>
          </Trackpoint>
          <Trackpoint>
            <Time>2021-03-31T16:51:04.000Z</Time>
            <Position>
              <LatitudeDegrees>42.4400130473077297210693359375</LatitudeDegrees>
              <LongitudeDegrees>2.8110202588140964508056640625</LongitudeDegrees>
            </Position>
            <AltitudeMeters>703.4000244140625</AltitudeMeters>
            <DistanceMeters>9645.0709703358</DistanceMeters>
          </Trackpoint>
          <Trackpoint>
            <Time>2021-03-31T16:51:11.000Z</Time>
            <Position>
              <LatitudeDegrees>42.4400130473077297210693359375</LatitudeDegrees>
              <LongitudeDegrees>2.8110202588140964508056640625</LongitudeDegrees>
            </Position>
            <AltitudeMeters>703</AltitudeMeters>
            <DistanceMeters>9645.0709703358</DistanceMeters>
          </Trackpoint>
          <Trackpoint>
            <Time>2021-03-31T16:51:14.000Z</Time>
            <Position>
              <LatitudeDegrees>42.4400130473077297210693359375</LatitudeDegrees>
              <LongitudeDegrees>2.8110202588140964508056640625</LongitudeDegrees>
            </Position>
            <AltitudeMeters>702.5999755859375</AltitudeMeters>
            <DistanceMeters>9645.0709703358</DistanceMeters>
          </Trackpoint>
          <Trackpoint>
            <Time>2021-03-31T16:51:30.000Z</Time>
            <Position>
              <LatitudeDegrees>42.44001095183193683624267578125</LatitudeDegrees>
              <LongitudeDegrees>2.811017744243144989013671875</LongitudeDegrees>
            </Position>
            <AltitudeMeters>702.79998779296875</AltitudeMeters>
            <DistanceMeters>9645.3861382924</DistanceMeters>
          </Trackpoint>
          <Trackpoint>
            <Time>2021-03-31T16:51:40.000Z</Time>
            <Position>
              <LatitudeDegrees>42.440007515251636505126953125</LatitudeDegrees>
              <LongitudeDegrees>2.81101296655833721160888671875</LongitudeDegrees>
            </Position>
            <AltitudeMeters>702.79998779296875</AltitudeMeters>
            <DistanceMeters>9645.9402344926</DistanceMeters>
          </Trackpoint>
          <Trackpoint>
            <Time>2021-03-31T16:51:58.000Z</Time>
            <Position>
              <LatitudeDegrees>42.44001665152609348297119140625</LatitudeDegrees>
              <LongitudeDegrees>2.811009027063846588134765625</LongitudeDegrees>
            </Position>
            <AltitudeMeters>702.79998779296875</AltitudeMeters>
            <DistanceMeters>9647.0069067159</DistanceMeters>
          </Trackpoint>
          <Trackpoint>
            <Time>2021-03-31T16:52:06.000Z</Time>
            <Position>
              <LatitudeDegrees>42.4400232732295989990234375</LatitudeDegrees>
              <LongitudeDegrees>2.81100810505449771881103515625</LongitudeDegrees>
            </Position>
            <AltitudeMeters>703.20001220703125</AltitudeMeters>
            <DistanceMeters>9647.7551478131</DistanceMeters>
          </Trackpoint>
          <Trackpoint>
            <Time>2021-03-31T16:52:13.000Z</Time>
            <Position>
              <LatitudeDegrees>42.4400232732295989990234375</LatitudeDegrees>
              <LongitudeDegrees>2.811009697616100311279296875</LongitudeDegrees>
            </Position>
            <AltitudeMeters>703.20001220703125</AltitudeMeters>
            <DistanceMeters>9647.8895358813</DistanceMeters>
          </Trackpoint>
          <Trackpoint>
            <Time>2021-03-31T16:52:45.000Z</Time>
            <Position>
              <LatitudeDegrees>42.4400073476135730743408203125</LatitudeDegrees>
              <LongitudeDegrees>2.811007015407085418701171875</LongitudeDegrees>
            </Position>
            <AltitudeMeters>703.20001220703125</AltitudeMeters>
            <DistanceMeters>9649.6749257504</DistanceMeters>
          </Trackpoint>
          <Trackpoint>
            <Time>2021-03-31T16:53:07.000Z</Time>
            <Position>
              <LatitudeDegrees>42.440013550221920013427734375</LatitudeDegrees>
              <LongitudeDegrees>2.8110021539032459259033203125</LongitudeDegrees>
            </Position>
            <AltitudeMeters>703.20001220703125</AltitudeMeters>
            <DistanceMeters>9650.4699762841</DistanceMeters>
          </Trackpoint>
          <Trackpoint>
            <Time>2021-03-31T16:53:10.000Z</Time>
            <Position>
              <LatitudeDegrees>42.44001396931707859039306640625</LatitudeDegrees>
              <LongitudeDegrees>2.81100307591259479522705078125</LongitudeDegrees>
            </Position>
            <AltitudeMeters>703.20001220703125</AltitudeMeters>
            <DistanceMeters>9650.4699762841</DistanceMeters>
          </Trackpoint>
          <Trackpoint>
            <Time>2021-03-31T16:53:16.000Z</Time>
            <Position>
              <LatitudeDegrees>42.4400152266025543212890625</LatitudeDegrees>
              <LongitudeDegrees>2.81100357882678508758544921875</LongitudeDegrees>
            </Position>
            <AltitudeMeters>703.20001220703125</AltitudeMeters>
            <DistanceMeters>9650.6043643523</DistanceMeters>
          </Trackpoint>
          <Trackpoint>
            <Time>2021-03-31T16:53:19.000Z</Time>
            <Position>
              <LatitudeDegrees>42.44001514278352260589599609375</LatitudeDegrees>
              <LongitudeDegrees>2.81100357882678508758544921875</LongitudeDegrees>
            </Position>
            <AltitudeMeters>703.20001220703125</AltitudeMeters>
            <DistanceMeters>9650.6043643523</DistanceMeters>
          </Trackpoint>
          <Trackpoint>
            <Time>2021-03-31T16:53:26.000Z</Time>
            <Position>
              <LatitudeDegrees>42.440013885498046875</LatitudeDegrees>
              <LongitudeDegrees>2.81100802123546600341796875</LongitudeDegrees>
            </Position>
            <AltitudeMeters>703.20001220703125</AltitudeMeters>
            <DistanceMeters>9651.0075285571</DistanceMeters>
          </Trackpoint>
          <Trackpoint>
            <Time>2021-03-31T16:53:44.000Z</Time>
            <Position>
              <LatitudeDegrees>42.440012879669666290283203125</LatitudeDegrees>
              <LongitudeDegrees>2.81101682223379611968994140625</LongitudeDegrees>
            </Position>
            <AltitudeMeters>703.20001220703125</AltitudeMeters>
            <DistanceMeters>9651.7312304527</DistanceMeters>
          </Trackpoint>
          <Trackpoint>
            <Time>2021-03-31T16:53:47.000Z</Time>
            <Position>
              <LatitudeDegrees>42.440012879669666290283203125</LatitudeDegrees>
              <LongitudeDegrees>2.81101615168154239654541015625</LongitudeDegrees>
            </Position>
            <AltitudeMeters>703.20001220703125</AltitudeMeters>
            <DistanceMeters>9651.7312304527</DistanceMeters>
          </Trackpoint>
          <Trackpoint>
            <Time>2021-03-31T16:53:50.000Z</Time>
            <Position>
              <LatitudeDegrees>42.44001480750739574432373046875</LatitudeDegrees>
              <LongitudeDegrees>2.81101548112928867340087890625</LongitudeDegrees>
            </Position>
            <AltitudeMeters>703.20001220703125</AltitudeMeters>
            <DistanceMeters>9651.9639974149</DistanceMeters>
          </Trackpoint>
          <Trackpoint>
            <Time>2021-03-31T16:53:57.000Z</Time>
            <Position>
              <LatitudeDegrees>42.44002251885831356048583984375</LatitudeDegrees>
              <LongitudeDegrees>2.8110182471573352813720703125</LongitudeDegrees>
            </Position>
            <AltitudeMeters>703.20001220703125</AltitudeMeters>
            <DistanceMeters>9652.8452389108</DistanceMeters>
          </Trackpoint>
          <Trackpoint>
            <Time>2021-03-31T16:54:11.000Z</Time>
            <Position>
              <LatitudeDegrees>42.44002251885831356048583984375</LatitudeDegrees>
              <LongitudeDegrees>2.81103442423045635223388671875</LongitudeDegrees>
            </Position>
            <AltitudeMeters>703.20001220703125</AltitudeMeters>
            <DistanceMeters>9654.175612912</DistanceMeters>
          </Trackpoint>
          <Trackpoint>
            <Time>2021-03-31T16:54:15.000Z</Time>
            <Position>
              <LatitudeDegrees>42.440021596848964691162109375</LatitudeDegrees>
              <LongitudeDegrees>2.81103626824915409088134765625</LongitudeDegrees>
            </Position>
            <AltitudeMeters>703.20001220703125</AltitudeMeters>
            <DistanceMeters>9654.3656663407</DistanceMeters>
          </Trackpoint>
          <Trackpoint>
            <Time>2021-03-31T16:54:24.000Z</Time>
            <Position>
              <LatitudeDegrees>42.43998345918953418731689453125</LatitudeDegrees>
              <LongitudeDegrees>2.81105521135032176971435546875</LongitudeDegrees>
            </Position>
            <AltitudeMeters>703.20001220703125</AltitudeMeters>
            <DistanceMeters>9658.8871808071</DistanceMeters>
          </Trackpoint>
          <Trackpoint>
            <Time>2021-03-31T16:54:26.000Z</Time>
            <Position>
              <LatitudeDegrees>42.4399553798139095306396484375</LatitudeDegrees>
              <LongitudeDegrees>2.81106971204280853271484375</LongitudeDegrees>
            </Position>
            <AltitudeMeters>703.20001220703125</AltitudeMeters>
            <DistanceMeters>9662.2307170544</DistanceMeters>
          </Trackpoint>
          <Trackpoint>
            <Time>2021-03-31T16:54:32.000Z</Time>
            <Position>
              <LatitudeDegrees>42.439898215234279632568359375</LatitudeDegrees>
              <LongitudeDegrees>2.81108572147786617279052734375</LongitudeDegrees>
            </Position>
            <AltitudeMeters>703.20001220703125</AltitudeMeters>
            <DistanceMeters>9668.7280709293</DistanceMeters>
          </Trackpoint>
          <Trackpoint>
            <Time>2021-03-31T16:54:33.000Z</Time>
            <Position>
              <LatitudeDegrees>42.439893186092376708984375</LatitudeDegrees>
              <LongitudeDegrees>2.81107909977436065673828125</LongitudeDegrees>
            </Position>
            <AltitudeMeters>703.20001220703125</AltitudeMeters>
            <DistanceMeters>9669.5116812905</DistanceMeters>
          </Trackpoint>
          <Trackpoint>
            <Time>2021-03-31T16:54:43.000Z</Time>
            <Position>
              <LatitudeDegrees>42.4398621730506420135498046875</LatitudeDegrees>
              <LongitudeDegrees>2.81108002178370952606201171875</LongitudeDegrees>
            </Position>
            <AltitudeMeters>703.20001220703125</AltitudeMeters>
            <DistanceMeters>9672.9641732755</DistanceMeters>
          </Trackpoint>
          <Trackpoint>
            <Time>2021-03-31T16:54:50.000Z</Time>
            <Position>
              <LatitudeDegrees>42.4398014880716800689697265625</LatitudeDegrees>
              <LongitudeDegrees>2.81113768927752971649169921875</LongitudeDegrees>
            </Position>
            <AltitudeMeters>703.20001220703125</AltitudeMeters>
            <DistanceMeters>9681.213455431</DistanceMeters>
          </Trackpoint>
          <Trackpoint>
            <Time>2021-03-31T16:54:57.000Z</Time>
            <Position>
              <LatitudeDegrees>42.43972445838153362274169921875</LatitudeDegrees>
              <LongitudeDegrees>2.8111647628247737884521484375</LongitudeDegrees>
            </Position>
            <AltitudeMeters>703.20001220703125</AltitudeMeters>
            <DistanceMeters>9690.0708424128</DistanceMeters>
          </Trackpoint>
          <Trackpoint>
            <Time>2021-03-31T16:55:00.000Z</Time>
            <Position>
              <LatitudeDegrees>42.43968925438821315765380859375</LatitudeDegrees>
              <LongitudeDegrees>2.8111602365970611572265625</LongitudeDegrees>
            </Position>
            <AltitudeMeters>703.20001220703125</AltitudeMeters>
            <DistanceMeters>9694.006141779</DistanceMeters>
          </Trackpoint>
          <Trackpoint>
            <Time>2021-03-31T16:55:04.000Z</Time>
            <Position>
              <LatitudeDegrees>42.4396469257771968841552734375</LatitudeDegrees>
              <LongitudeDegrees>2.811173982918262481689453125</LongitudeDegrees>
            </Position>
            <AltitudeMeters>703.20001220703125</AltitudeMeters>
            <DistanceMeters>9698.8497085021</DistanceMeters>
          </Trackpoint>
          <Trackpoint>
            <Time>2021-03-31T16:55:08.000Z</Time>
            <Position>
              <LatitudeDegrees>42.4396110512316226959228515625</LatitudeDegrees>
              <LongitudeDegrees>2.8111843764781951904296875</LongitudeDegrees>
            </Position>
            <AltitudeMeters>702.79998779296875</AltitudeMeters>
            <DistanceMeters>9702.9336466985</DistanceMeters>
          </Trackpoint>
          <Trackpoint>
            <Time>2021-03-31T16:55:12.000Z</Time>
            <Position>
              <LatitudeDegrees>42.43961297906935214996337890625</LatitudeDegrees>
              <LongitudeDegrees>2.81121346168220043182373046875</LongitudeDegrees>
            </Position>
            <AltitudeMeters>702.79998779296875</AltitudeMeters>
            <DistanceMeters>9705.3320125369</DistanceMeters>
          </Trackpoint>
          <Trackpoint>
            <Time>2021-03-31T16:55:15.000Z</Time>
            <Position>
              <LatitudeDegrees>42.4395909346640110015869140625</LatitudeDegrees>
              <LongitudeDegrees>2.811222933232784271240234375</LongitudeDegrees>
            </Position>
            <AltitudeMeters>703</AltitudeMeters>
            <DistanceMeters>9707.9065175592</DistanceMeters>
          </Trackpoint>
          <Trackpoint>
            <Time>2021-03-31T16:55:17.000Z</Time>
            <Position>
              <LatitudeDegrees>42.43956821970641613006591796875</LatitudeDegrees>
              <LongitudeDegrees>2.81122393906116485595703125</LongitudeDegrees>
            </Position>
            <AltitudeMeters>703.20001220703125</AltitudeMeters>
            <DistanceMeters>9710.4385827786</DistanceMeters>
          </Trackpoint>
          <Trackpoint>
            <Time>2021-03-31T16:55:23.000Z</Time>
            <Position>
              <LatitudeDegrees>42.43951273150742053985595703125</LatitudeDegrees>
              <LongitudeDegrees>2.811233662068843841552734375</LongitudeDegrees>
            </Position>
            <AltitudeMeters>703.5999755859375</AltitudeMeters>
            <DistanceMeters>9716.665552206</DistanceMeters>
          </Trackpoint>
          <Trackpoint>
            <Time>2021-03-31T16:55:25.000Z</Time>
            <Position>
              <LatitudeDegrees>42.43949244730174541473388671875</LatitudeDegrees>
              <LongitudeDegrees>2.81122469343245029449462890625</LongitudeDegrees>
            </Position>
            <AltitudeMeters>703.5999755859375</AltitudeMeters>
            <DistanceMeters>9719.0393187702</DistanceMeters>
          </Trackpoint>
          <Trackpoint>
            <Time>2021-03-31T16:55:32.000Z</Time>
            <Position>
              <LatitudeDegrees>42.43942421860992908477783203125</LatitudeDegrees>
              <LongitudeDegrees>2.8111441433429718017578125</LongitudeDegrees>
            </Position>
            <AltitudeMeters>703.4000244140625</AltitudeMeters>
            <DistanceMeters>9729.111253975</DistanceMeters>
          </Trackpoint>
          <Trackpoint>
            <Time>2021-03-31T16:55:35.000Z</Time>
            <Position>
              <LatitudeDegrees>42.439402006566524505615234375</LatitudeDegrees>
              <LongitudeDegrees>2.8111159801483154296875</LongitudeDegrees>
            </Position>
            <AltitudeMeters>703.20001220703125</AltitudeMeters>
            <DistanceMeters>9732.4977266361</DistanceMeters>
          </Trackpoint>
          <Trackpoint>
            <Time>2021-03-31T16:55:40.000Z</Time>
            <Position>
              <LatitudeDegrees>42.439369820058345794677734375</LatitudeDegrees>
              <LongitudeDegrees>2.81107566319406032562255859375</LongitudeDegrees>
            </Position>
            <AltitudeMeters>703</AltitudeMeters>
            <DistanceMeters>9737.3765873131</DistanceMeters>
          </Trackpoint>
          <Trackpoint>
            <Time>2021-03-31T16:55:46.000Z</Time>
            <Position>
              <LatitudeDegrees>42.4393270723521709442138671875</LatitudeDegrees>
              <LongitudeDegrees>2.810995280742645263671875</LongitudeDegrees>
            </Position>
            <AltitudeMeters>703.20001220703125</AltitudeMeters>
            <DistanceMeters>9745.5145588442</DistanceMeters>
          </Trackpoint>
          <Trackpoint>
            <Time>2021-03-31T16:55:53.000Z</Time>
            <Position>
              <LatitudeDegrees>42.4392747692763805389404296875</LatitudeDegrees>
              <LongitudeDegrees>2.810926549136638641357421875</LongitudeDegrees>
            </Position>
            <AltitudeMeters>703</AltitudeMeters>
            <DistanceMeters>9753.6236288688</DistanceMeters>
          </Trackpoint>
          <Trackpoint>
            <Time>2021-03-31T16:56:00.000Z</Time>
            <Position>
              <LatitudeDegrees>42.43920913897454738616943359375</LatitudeDegrees>
              <LongitudeDegrees>2.81087902374565601348876953125</LongitudeDegrees>
            </Position>
            <AltitudeMeters>703.5999755859375</AltitudeMeters>
            <DistanceMeters>9761.9056854171</DistanceMeters>
          </Trackpoint>
          <Trackpoint>
            <Time>2021-03-31T16:56:02.000Z</Time>
            <Position>
              <LatitudeDegrees>42.4391886033117771148681640625</LatitudeDegrees>
              <LongitudeDegrees>2.81087567098438739776611328125</LongitudeDegrees>
            </Position>
            <AltitudeMeters>704</AltitudeMeters>
            <DistanceMeters>9764.2060386065</DistanceMeters>
          </Trackpoint>
          <Trackpoint>
            <Time>2021-03-31T16:56:06.000Z</Time>
            <Position>
              <LatitudeDegrees>42.43913001380860805511474609375</LatitudeDegrees>
              <LongitudeDegrees>2.81081783585250377655029296875</LongitudeDegrees>
            </Position>
            <AltitudeMeters>704</AltitudeMeters>
            <DistanceMeters>9772.2732414013</DistanceMeters>
          </Trackpoint>
          <Trackpoint>
            <Time>2021-03-31T16:56:08.000Z</Time>
            <Position>
              <LatitudeDegrees>42.43911325000226497650146484375</LatitudeDegrees>
              <LongitudeDegrees>2.81080442480742931365966796875</LongitudeDegrees>
            </Position>
            <AltitudeMeters>703.79998779296875</AltitudeMeters>
            <DistanceMeters>9774.4401838903</DistanceMeters>
          </Trackpoint>
          <Trackpoint>
            <Time>2021-03-31T16:56:14.000Z</Time>
            <Position>
              <LatitudeDegrees>42.43906698189675807952880859375</LatitudeDegrees>
              <LongitudeDegrees>2.81075597740709781646728515625</LongitudeDegrees>
            </Position>
            <AltitudeMeters>703.79998779296875</AltitudeMeters>
            <DistanceMeters>9780.9493404159</DistanceMeters>
          </Trackpoint>
          <Trackpoint>
            <Time>2021-03-31T16:56:15.000Z</Time>
            <Position>
              <LatitudeDegrees>42.43905960582196712493896484375</LatitudeDegrees>
              <LongitudeDegrees>2.81074742786586284637451171875</LongitudeDegrees>
            </Position>
            <AltitudeMeters>703.5999755859375</AltitudeMeters>
            <DistanceMeters>9782.0286364186</DistanceMeters>
          </Trackpoint>
          <Trackpoint>
            <Time>2021-03-31T16:56:16.000Z</Time>
            <Position>
              <LatitudeDegrees>42.439053319394588470458984375</LatitudeDegrees>
              <LongitudeDegrees>2.81073971651494503021240234375</LongitudeDegrees>
            </Position>
            <AltitudeMeters>703.4000244140625</AltitudeMeters>
            <DistanceMeters>9782.9741402884</DistanceMeters>
          </Trackpoint>
          <Trackpoint>
            <Time>2021-03-31T16:56:22.000Z</Time>
            <Position>
              <LatitudeDegrees>42.43899070657789707183837890625</LatitudeDegrees>
              <LongitudeDegrees>2.8106839768588542938232421875</LongitudeDegrees>
            </Position>
            <AltitudeMeters>703.79998779296875</AltitudeMeters>
            <DistanceMeters>9791.3116176327</DistanceMeters>
          </Trackpoint>
          <Trackpoint>
            <Time>2021-03-31T16:56:25.000Z</Time>
            <Position>
              <LatitudeDegrees>42.4389505572617053985595703125</LatitudeDegrees>
              <LongitudeDegrees>2.81062622554600238800048828125</LongitudeDegrees>
            </Position>
            <AltitudeMeters>703.5999755859375</AltitudeMeters>
            <DistanceMeters>9797.8283997769</DistanceMeters>
          </Trackpoint>
          <Trackpoint>
            <Time>2021-03-31T16:56:26.000Z</Time>
            <Position>
              <LatitudeDegrees>42.4389369785785675048828125</LatitudeDegrees>
              <LongitudeDegrees>2.81061599962413311004638671875</LongitudeDegrees>
            </Position>
            <AltitudeMeters>703.5999755859375</AltitudeMeters>
            <DistanceMeters>9799.5546457694</DistanceMeters>
          </Trackpoint>
          <Trackpoint>
            <Time>2021-03-31T16:56:27.000Z</Time>
            <Position>
              <LatitudeDegrees>42.4389220587909221649169921875</LatitudeDegrees>
              <LongitudeDegrees>2.8106088750064373016357421875</LongitudeDegrees>
            </Position>
            <AltitudeMeters>703.5999755859375</AltitudeMeters>
            <DistanceMeters>9801.3171287613</DistanceMeters>
          </Trackpoint>
          <Trackpoint>
            <Time>2021-03-31T16:56:32.000Z</Time>
            <Position>
              <LatitudeDegrees>42.43888425640761852264404296875</LatitudeDegrees>
              <LongitudeDegrees>2.81056989915668964385986328125</LongitudeDegrees>
            </Position>
            <AltitudeMeters>703.4000244140625</AltitudeMeters>
            <DistanceMeters>9806.604577737</DistanceMeters>
          </Trackpoint>
          <Trackpoint>
            <Time>2021-03-31T16:56:33.000Z</Time>
            <Position>
              <LatitudeDegrees>42.4388717673718929290771484375</LatitudeDegrees>
              <LongitudeDegrees>2.81056269071996212005615234375</LongitudeDegrees>
            </Position>
            <AltitudeMeters>703.4000244140625</AltitudeMeters>
            <DistanceMeters>9808.1190543518</DistanceMeters>
          </Trackpoint>
          <Trackpoint>
            <Time>2021-03-31T16:56:35.000Z</Time>
            <Position>
              <LatitudeDegrees>42.43884720839560031890869140625</LatitudeDegrees>
              <LongitudeDegrees>2.8105433285236358642578125</LongitudeDegrees>
            </Position>
            <AltitudeMeters>703.4000244140625</AltitudeMeters>
            <DistanceMeters>9811.2793177185</DistanceMeters>
          </Trackpoint>
          <Trackpoint>
            <Time>2021-03-31T16:56:38.000Z</Time>
            <Position>
              <LatitudeDegrees>42.43880898691713809967041015625</LatitudeDegrees>
              <LongitudeDegrees>2.81051927246153354644775390625</LongitudeDegrees>
            </Position>
            <AltitudeMeters>703.4000244140625</AltitudeMeters>
            <DistanceMeters>9815.9694420471</DistanceMeters>
          </Trackpoint>
          <Trackpoint>
            <Time>2021-03-31T16:56:42.000Z</Time>
            <Position>
              <LatitudeDegrees>42.43879012763500213623046875</LatitudeDegrees>
              <LongitudeDegrees>2.810458503663539886474609375</LongitudeDegrees>
            </Position>
            <AltitudeMeters>703.4000244140625</AltitudeMeters>
            <DistanceMeters>9821.3834634856</DistanceMeters>
          </Trackpoint>
          <Trackpoint>
            <Time>2021-03-31T16:56:47.000Z</Time>
            <Position>
              <LatitudeDegrees>42.43873354978859424591064453125</LatitudeDegrees>
              <LongitudeDegrees>2.810437381267547607421875</LongitudeDegrees>
            </Position>
            <AltitudeMeters>703.20001220703125</AltitudeMeters>
            <DistanceMeters>9827.9154701603</DistanceMeters>
          </Trackpoint>
          <Trackpoint>
            <Time>2021-03-31T16:56:48.000Z</Time>
            <Position>
              <LatitudeDegrees>42.43872173130512237548828125</LatitudeDegrees>
              <LongitudeDegrees>2.81043109484016895294189453125</LongitudeDegrees>
            </Position>
            <AltitudeMeters>703.20001220703125</AltitudeMeters>
            <DistanceMeters>9829.3281438289</DistanceMeters>
          </Trackpoint>
          <Trackpoint>
            <Time>2021-03-31T16:56:50.000Z</Time>
            <Position>
              <LatitudeDegrees>42.4386982619762420654296875</LatitudeDegrees>
              <LongitudeDegrees>2.81041600741446018218994140625</LongitudeDegrees>
            </Position>
            <AltitudeMeters>703</AltitudeMeters>
            <DistanceMeters>9832.2198303242</DistanceMeters>
          </Trackpoint>
          <Trackpoint>
            <Time>2021-03-31T16:56:51.000Z</Time>
            <Position>
              <LatitudeDegrees>42.4386883713304996490478515625</LatitudeDegrees>
              <LongitudeDegrees>2.81040796078741550445556640625</LongitudeDegrees>
            </Position>
            <AltitudeMeters>702.79998779296875</AltitudeMeters>
            <DistanceMeters>9833.5018107893</DistanceMeters>
          </Trackpoint>
          <Trackpoint>
            <Time>2021-03-31T16:56:54.000Z</Time>
            <Position>
              <LatitudeDegrees>42.43865040130913257598876953125</LatitudeDegrees>
              <LongitudeDegrees>2.81037208624184131622314453125</LongitudeDegrees>
            </Position>
            <AltitudeMeters>702.79998779296875</AltitudeMeters>
            <DistanceMeters>9838.6543271401</DistanceMeters>
          </Trackpoint>
          <Trackpoint>
            <Time>2021-03-31T16:56:56.000Z</Time>
            <Position>
              <LatitudeDegrees>42.4386258423328399658203125</LatitudeDegrees>
              <LongitudeDegrees>2.8103555738925933837890625</LongitudeDegrees>
            </Position>
            <AltitudeMeters>702.79998779296875</AltitudeMeters>
            <DistanceMeters>9841.7055578449</DistanceMeters>
          </Trackpoint>
          <Trackpoint>
            <Time>2021-03-31T16:56:59.000Z</Time>
            <Position>
              <LatitudeDegrees>42.438600026071071624755859375</LatitudeDegrees>
              <LongitudeDegrees>2.81030394136905670166015625</LongitudeDegrees>
            </Position>
            <AltitudeMeters>702.79998779296875</AltitudeMeters>
            <DistanceMeters>9846.8290754083</DistanceMeters>
          </Trackpoint>
          <Trackpoint>
            <Time>2021-03-31T16:57:00.000Z</Time>
            <Position>
              <LatitudeDegrees>42.43859508074820041656494140625</LatitudeDegrees>
              <LongitudeDegrees>2.81029027886688709259033203125</LongitudeDegrees>
            </Position>
            <AltitudeMeters>702.79998779296875</AltitudeMeters>
            <DistanceMeters>9848.0753390836</DistanceMeters>
          </Trackpoint>
          <Trackpoint>
            <Time>2021-03-31T16:57:03.000Z</Time>
            <Position>
              <LatitudeDegrees>42.438573203980922698974609375</LatitudeDegrees>
              <LongitudeDegrees>2.81026077456772327423095703125</LongitudeDegrees>
            </Position>
            <AltitudeMeters>703</AltitudeMeters>
            <DistanceMeters>9851.509473594</DistanceMeters>
          </Trackpoint>
          <Trackpoint>
            <Time>2021-03-31T16:57:07.000Z</Time>
            <Position>
              <LatitudeDegrees>42.43853665888309478759765625</LatitudeDegrees>
              <LongitudeDegrees>2.81020662747323513031005859375</LongitudeDegrees>
            </Position>
            <AltitudeMeters>703</AltitudeMeters>
            <DistanceMeters>9857.5367447455</DistanceMeters>
          </Trackpoint>
          <Trackpoint>
            <Time>2021-03-31T16:57:08.000Z</Time>
            <Position>
              <LatitudeDegrees>42.43852852843701839447021484375</LatitudeDegrees>
              <LongitudeDegrees>2.810194306075572967529296875</LongitudeDegrees>
            </Position>
            <AltitudeMeters>703</AltitudeMeters>
            <DistanceMeters>9858.8939977045</DistanceMeters>
          </Trackpoint>
          <Trackpoint>
            <Time>2021-03-31T16:57:10.000Z</Time>
            <Position>
              <LatitudeDegrees>42.43850304745137691497802734375</LatitudeDegrees>
              <LongitudeDegrees>2.81016203574836254119873046875</LongitudeDegrees>
            </Position>
            <AltitudeMeters>703.20001220703125</AltitudeMeters>
            <DistanceMeters>9862.774998543</DistanceMeters>
          </Trackpoint>
          <Trackpoint>
            <Time>2021-03-31T16:57:14.000Z</Time>
            <Position>
              <LatitudeDegrees>42.438476644456386566162109375</LatitudeDegrees>
              <LongitudeDegrees>2.810144014656543731689453125</LongitudeDegrees>
            </Position>
            <AltitudeMeters>703.20001220703125</AltitudeMeters>
            <DistanceMeters>9866.0668204903</DistanceMeters>
          </Trackpoint>
          <Trackpoint>
            <Time>2021-03-31T16:57:19.000Z</Time>
            <Position>
              <LatitudeDegrees>42.4384281970560550689697265625</LatitudeDegrees>
              <LongitudeDegrees>2.81008207239210605621337890625</LongitudeDegrees>
            </Position>
            <AltitudeMeters>702.79998779296875</AltitudeMeters>
            <DistanceMeters>9873.4813403932</DistanceMeters>
          </Trackpoint>
          <Trackpoint>
            <Time>2021-03-31T16:57:20.000Z</Time>
            <Position>
              <LatitudeDegrees>42.43841822259128093719482421875</LatitudeDegrees>
              <LongitudeDegrees>2.810064218938350677490234375</LongitudeDegrees>
            </Position>
            <AltitudeMeters>702.5999755859375</AltitudeMeters>
            <DistanceMeters>9875.3215248042</DistanceMeters>
          </Trackpoint>
          <Trackpoint>
            <Time>2021-03-31T16:57:23.000Z</Time>
            <Position>
              <LatitudeDegrees>42.43840598501265048980712890625</LatitudeDegrees>
              <LongitudeDegrees>2.81002658419311046600341796875</LongitudeDegrees>
            </Position>
            <AltitudeMeters>702.20001220703125</AltitudeMeters>
            <DistanceMeters>9878.6999884528</DistanceMeters>
          </Trackpoint>
          <Trackpoint>
            <Time>2021-03-31T16:57:25.000Z</Time>
            <Position>
              <LatitudeDegrees>42.4384027160704135894775390625</LatitudeDegrees>
              <LongitudeDegrees>2.8099923022091388702392578125</LongitudeDegrees>
            </Position>
            <AltitudeMeters>702</AltitudeMeters>
            <DistanceMeters>9881.5380913735</DistanceMeters>
          </Trackpoint>
          <Trackpoint>
            <Time>2021-03-31T16:57:28.000Z</Time>
            <Position>
              <LatitudeDegrees>42.438402883708477020263671875</LatitudeDegrees>
              <LongitudeDegrees>2.809930108487606048583984375</LongitudeDegrees>
            </Position>
            <AltitudeMeters>702.20001220703125</AltitudeMeters>
            <DistanceMeters>9886.646605925</DistanceMeters>
          </Trackpoint>
          <Trackpoint>
            <Time>2021-03-31T16:57:32.000Z</Time>
            <Position>
              <LatitudeDegrees>42.438416965305805206298828125</LatitudeDegrees>
              <LongitudeDegrees>2.80988979153335094451904296875</LongitudeDegrees>
            </Position>
            <AltitudeMeters>702.79998779296875</AltitudeMeters>
            <DistanceMeters>9890.3122237104</DistanceMeters>
          </Trackpoint>
          <Trackpoint>
            <Time>2021-03-31T16:57:35.000Z</Time>
            <Position>
              <LatitudeDegrees>42.43843599222600460052490234375</LatitudeDegrees>
              <LongitudeDegrees>2.80984821729362010955810546875</LongitudeDegrees>
            </Position>
            <AltitudeMeters>703</AltitudeMeters>
            <DistanceMeters>9894.330404478</DistanceMeters>
          </Trackpoint>
          <Trackpoint>
            <Time>2021-03-31T16:57:36.000Z</Time>
            <Position>
              <LatitudeDegrees>42.43843867443501949310302734375</LatitudeDegrees>
              <LongitudeDegrees>2.8098367340862751007080078125</LongitudeDegrees>
            </Position>
            <AltitudeMeters>703</AltitudeMeters>
            <DistanceMeters>9895.3179510622</DistanceMeters>
          </Trackpoint>
          <Trackpoint>
            <Time>2021-03-31T16:57:43.000Z</Time>
            <Position>
              <LatitudeDegrees>42.4384613893926143646240234375</LatitudeDegrees>
              <LongitudeDegrees>2.80971159227192401885986328125</LongitudeDegrees>
            </Position>
            <AltitudeMeters>703</AltitudeMeters>
            <DistanceMeters>9905.9035175843</DistanceMeters>
          </Trackpoint>
          <Trackpoint>
            <Time>2021-03-31T16:57:50.000Z</Time>
            <Position>
              <LatitudeDegrees>42.4385016225278377532958984375</LatitudeDegrees>
              <LongitudeDegrees>2.809604890644550323486328125</LongitudeDegrees>
            </Position>
            <AltitudeMeters>702.4000244140625</AltitudeMeters>
            <DistanceMeters>9915.7460101594</DistanceMeters>
          </Trackpoint>
          <Trackpoint>
            <Time>2021-03-31T16:57:57.000Z</Time>
            <Position>
              <LatitudeDegrees>42.43853263556957244873046875</LatitudeDegrees>
              <LongitudeDegrees>2.80950925312936305999755859375</LongitudeDegrees>
            </Position>
            <AltitudeMeters>702.20001220703125</AltitudeMeters>
            <DistanceMeters>9924.3268751114</DistanceMeters>
          </Trackpoint>
          <Trackpoint>
            <Time>2021-03-31T16:58:04.000Z</Time>
            <Position>
              <LatitudeDegrees>42.43856021203100681304931640625</LatitudeDegrees>
              <LongitudeDegrees>2.8093988634645938873291015625</LongitudeDegrees>
            </Position>
            <AltitudeMeters>701.5999755859375</AltitudeMeters>
            <DistanceMeters>9933.8996080416</DistanceMeters>
          </Trackpoint>
          <Trackpoint>
            <Time>2021-03-31T16:58:08.000Z</Time>
            <Position>
              <LatitudeDegrees>42.4385837651789188385009765625</LatitudeDegrees>
              <LongitudeDegrees>2.8093390166759490966796875</LongitudeDegrees>
            </Position>
            <AltitudeMeters>701.5999755859375</AltitudeMeters>
            <DistanceMeters>9939.4698273067</DistanceMeters>
          </Trackpoint>
          <Trackpoint>
            <Time>2021-03-31T16:58:09.000Z</Time>
            <Position>
              <LatitudeDegrees>42.438581921160221099853515625</LatitudeDegrees>
              <LongitudeDegrees>2.80932535417377948760986328125</LongitudeDegrees>
            </Position>
            <AltitudeMeters>701.4000244140625</AltitudeMeters>
            <DistanceMeters>9940.6101478791</DistanceMeters>
          </Trackpoint>
          <Trackpoint>
            <Time>2021-03-31T16:58:17.000Z</Time>
            <Position>
              <LatitudeDegrees>42.43858401663601398468017578125</LatitudeDegrees>
              <LongitudeDegrees>2.80920783989131450653076171875</LongitudeDegrees>
            </Position>
            <AltitudeMeters>701.20001220703125</AltitudeMeters>
            <DistanceMeters>9950.2660030605</DistanceMeters>
          </Trackpoint>
          <Trackpoint>
            <Time>2021-03-31T16:58:21.000Z</Time>
            <Position>
              <LatitudeDegrees>42.4385770596563816070556640625</LatitudeDegrees>
              <LongitudeDegrees>2.8091507591307163238525390625</LongitudeDegrees>
            </Position>
            <AltitudeMeters>701.20001220703125</AltitudeMeters>
            <DistanceMeters>9955.0192389333</DistanceMeters>
          </Trackpoint>
          <Trackpoint>
            <Time>2021-03-31T16:58:23.000Z</Time>
            <Position>
              <LatitudeDegrees>42.43858653120696544647216796875</LatitudeDegrees>
              <LongitudeDegrees>2.8091299720108509063720703125</LongitudeDegrees>
            </Position>
            <AltitudeMeters>701.20001220703125</AltitudeMeters>
            <DistanceMeters>9957.0283293172</DistanceMeters>
          </Trackpoint>
          <Trackpoint>
            <Time>2021-03-31T16:58:30.000Z</Time>
            <Position>
              <LatitudeDegrees>42.43859491311013698577880859375</LatitudeDegrees>
              <LongitudeDegrees>2.8089904971420764923095703125</LongitudeDegrees>
            </Position>
            <AltitudeMeters>701</AltitudeMeters>
            <DistanceMeters>9968.5230271613</DistanceMeters>
          </Trackpoint>
          <Trackpoint>
            <Time>2021-03-31T16:58:31.000Z</Time>
            <Position>
              <LatitudeDegrees>42.43859893642365932464599609375</LatitudeDegrees>
              <LongitudeDegrees>2.80897356569766998291015625</LongitudeDegrees>
            </Position>
            <AltitudeMeters>701</AltitudeMeters>
            <DistanceMeters>9969.9828552474</DistanceMeters>
          </Trackpoint>
          <Trackpoint>
            <Time>2021-03-31T16:58:34.000Z</Time>
            <Position>
              <LatitudeDegrees>42.43860128335654735565185546875</LatitudeDegrees>
              <LongitudeDegrees>2.80891246162354946136474609375</LongitudeDegrees>
            </Position>
            <AltitudeMeters>701.20001220703125</AltitudeMeters>
            <DistanceMeters>9975.0085018539</DistanceMeters>
          </Trackpoint>
          <Trackpoint>
            <Time>2021-03-31T16:58:35.000Z</Time>
            <Position>
              <LatitudeDegrees>42.43859726004302501678466796875</LatitudeDegrees>
              <LongitudeDegrees>2.80889217741787433624267578125</LongitudeDegrees>
            </Position>
            <AltitudeMeters>701.20001220703125</AltitudeMeters>
            <DistanceMeters>9976.7347478464</DistanceMeters>
          </Trackpoint>
          <Trackpoint>
            <Time>2021-03-31T16:58:39.000Z</Time>
            <Position>
              <LatitudeDegrees>42.43860262446105480194091796875</LatitudeDegrees>
              <LongitudeDegrees>2.8088453225791454315185546875</LongitudeDegrees>
            </Position>
            <AltitudeMeters>701.4000244140625</AltitudeMeters>
            <DistanceMeters>9980.6296841008</DistanceMeters>
          </Trackpoint>
          <Trackpoint>
            <Time>2021-03-31T16:58:40.000Z</Time>
            <Position>
              <LatitudeDegrees>42.43860513903200626373291015625</LatitudeDegrees>
              <LongitudeDegrees>2.80883132480084896087646484375</LongitudeDegrees>
            </Position>
            <AltitudeMeters>701.4000244140625</AltitudeMeters>
            <DistanceMeters>9981.8165673828</DistanceMeters>
          </Trackpoint>
          <Trackpoint>
            <Time>2021-03-31T16:58:44.000Z</Time>
            <Position>
              <LatitudeDegrees>42.438602708280086517333984375</LatitudeDegrees>
              <LongitudeDegrees>2.808784134685993194580078125</LongitudeDegrees>
            </Position>
            <AltitudeMeters>701.5999755859375</AltitudeMeters>
            <DistanceMeters>9985.7033807165</DistanceMeters>
          </Trackpoint>
          <Trackpoint>
            <Time>2021-03-31T16:58:49.000Z</Time>
            <Position>
              <LatitudeDegrees>42.4385908059775829315185546875</LatitudeDegrees>
              <LongitudeDegrees>2.8086994774639606475830078125</LongitudeDegrees>
            </Position>
            <AltitudeMeters>701.79998779296875</AltitudeMeters>
            <DistanceMeters>9992.7827114945</DistanceMeters>
          </Trackpoint>
          <Trackpoint>
            <Time>2021-03-31T16:58:50.000Z</Time>
            <Position>
              <LatitudeDegrees>42.43859189562499523162841796875</LatitudeDegrees>
              <LongitudeDegrees>2.80868464149534702301025390625</LongitudeDegrees>
            </Position>
            <AltitudeMeters>701.79998779296875</AltitudeMeters>
            <DistanceMeters>9994.0070450641</DistanceMeters>
          </Trackpoint>
          <Trackpoint>
            <Time>2021-03-31T16:58:51.000Z</Time>
            <Position>
              <LatitudeDegrees>42.4385936558246612548828125</LatitudeDegrees>
              <LongitudeDegrees>2.8086703084409236907958984375</LongitudeDegrees>
            </Position>
            <AltitudeMeters>702</AltitudeMeters>
            <DistanceMeters>9995.2015123421</DistanceMeters>
          </Trackpoint>
          <Trackpoint>
            <Time>2021-03-31T16:58:53.000Z</Time>
            <Position>
              <LatitudeDegrees>42.43859164416790008544921875</LatitudeDegrees>
              <LongitudeDegrees>2.80862496234476566314697265625</LongitudeDegrees>
            </Position>
            <AltitudeMeters>702.20001220703125</AltitudeMeters>
            <DistanceMeters>9998.9330506142</DistanceMeters>
          </Trackpoint>
          <Trackpoint>
            <Time>2021-03-31T16:58:59.000Z</Time>
            <Position>
              <LatitudeDegrees>42.43858787231147289276123046875</LatitudeDegrees>
              <LongitudeDegrees>2.808530330657958984375</LongitudeDegrees>
            </Position>
            <AltitudeMeters>702.79998779296875</AltitudeMeters>
            <DistanceMeters>10006.717124929</DistanceMeters>
          </Trackpoint>
          <Trackpoint>
            <Time>2021-03-31T16:59:00.000Z</Time>
            <Position>
              <LatitudeDegrees>42.438583932816982269287109375</LatitudeDegrees>
              <LongitudeDegrees>2.8085154108703136444091796875</LongitudeDegrees>
            </Position>
            <AltitudeMeters>702.79998779296875</AltitudeMeters>
            <DistanceMeters>10008.020065592</DistanceMeters>
          </Trackpoint>
          <Trackpoint>
            <Time>2021-03-31T16:59:06.000Z</Time>
            <Position>
              <LatitudeDegrees>42.4385616369545459747314453125</LatitudeDegrees>
              <LongitudeDegrees>2.80842966400086879730224609375</LongitudeDegrees>
            </Position>
            <AltitudeMeters>702.79998779296875</AltitudeMeters>
            <DistanceMeters>10015.487980436</DistanceMeters>
          </Trackpoint>
          <Trackpoint>
            <Time>2021-03-31T16:59:11.000Z</Time>
            <Position>
              <LatitudeDegrees>42.43853774853050708770751953125</LatitudeDegrees>
              <LongitudeDegrees>2.808361351490020751953125</LongitudeDegrees>
            </Position>
            <AltitudeMeters>703.20001220703125</AltitudeMeters>
            <DistanceMeters>10021.697523609</DistanceMeters>
          </Trackpoint>
          <Trackpoint>
            <Time>2021-03-31T16:59:16.000Z</Time>
            <Position>
              <LatitudeDegrees>42.43851654231548309326171875</LatitudeDegrees>
              <LongitudeDegrees>2.80828549526631832122802734375</LongitudeDegrees>
            </Position>
            <AltitudeMeters>703.5999755859375</AltitudeMeters>
            <DistanceMeters>10028.36024496</DistanceMeters>
          </Trackpoint>
          <Trackpoint>
            <Time>2021-03-31T16:59:17.000Z</Time>
            <Position>
              <LatitudeDegrees>42.43851092644035816192626953125</LatitudeDegrees>
              <LongitudeDegrees>2.80827258713543415069580078125</LongitudeDegrees>
            </Position>
            <AltitudeMeters>703.5999755859375</AltitudeMeters>
            <DistanceMeters>10029.588260744</DistanceMeters>
          </Trackpoint>
          <Trackpoint>
            <Time>2021-03-31T16:59:18.000Z</Time>
            <Position>
              <LatitudeDegrees>42.4385073222219944000244140625</LatitudeDegrees>
              <LongitudeDegrees>2.80826018191874027252197265625</LongitudeDegrees>
            </Position>
            <AltitudeMeters>703.79998779296875</AltitudeMeters>
            <DistanceMeters>10030.684162276</DistanceMeters>
          </Trackpoint>
          <Trackpoint>
            <Time>2021-03-31T16:59:23.000Z</Time>
            <Position>
              <LatitudeDegrees>42.438494749367237091064453125</LatitudeDegrees>
              <LongitudeDegrees>2.80817552469670772552490234375</LongitudeDegrees>
            </Position>
            <AltitudeMeters>704.20001220703125</AltitudeMeters>
            <DistanceMeters>10037.777510282</DistanceMeters>
          </Trackpoint>
          <Trackpoint>
            <Time>2021-03-31T16:59:25.000Z</Time>
            <Position>
              <LatitudeDegrees>42.43849734775722026824951171875</LatitudeDegrees>
              <LongitudeDegrees>2.808143757283687591552734375</LongitudeDegrees>
            </Position>
            <AltitudeMeters>704.20001220703125</AltitudeMeters>
            <DistanceMeters>10040.402381389</DistanceMeters>
          </Trackpoint>
          <Trackpoint>
            <Time>2021-03-31T16:59:35.000Z</Time>
            <Position>
              <LatitudeDegrees>42.438499443233013153076171875</LatitudeDegrees>
              <LongitudeDegrees>2.80801040120422840118408203125</LongitudeDegrees>
            </Position>
            <AltitudeMeters>705</AltitudeMeters>
            <DistanceMeters>10051.358924468</DistanceMeters>
          </Trackpoint>
          <Trackpoint>
            <Time>2021-03-31T16:59:38.000Z</Time>
            <Position>
              <LatitudeDegrees>42.43848058395087718963623046875</LatitudeDegrees>
              <LongitudeDegrees>2.80796111561357975006103515625</LongitudeDegrees>
            </Position>
            <AltitudeMeters>705.20001220703125</AltitudeMeters>
            <DistanceMeters>10055.919216789</DistanceMeters>
          </Trackpoint>
          <Trackpoint>
            <Time>2021-03-31T16:59:44.000Z</Time>
            <Position>
              <LatitudeDegrees>42.43846884928643703460693359375</LatitudeDegrees>
              <LongitudeDegrees>2.8078772127628326416015625</LongitudeDegrees>
            </Position>
            <AltitudeMeters>705.5999755859375</AltitudeMeters>
            <DistanceMeters>10062.933192585</DistanceMeters>
          </Trackpoint>
          <Trackpoint>
            <Time>2021-03-31T16:59:52.000Z</Time>
            <Position>
              <LatitudeDegrees>42.43844169192016124725341796875</LatitudeDegrees>
              <LongitudeDegrees>2.8077439405024051666259765625</LongitudeDegrees>
            </Position>
            <AltitudeMeters>706.20001220703125</AltitudeMeters>
            <DistanceMeters>10074.289580733</DistanceMeters>
          </Trackpoint>
          <Trackpoint>
            <Time>2021-03-31T16:59:54.000Z</Time>
            <Position>
              <LatitudeDegrees>42.4384483136236667633056640625</LatitudeDegrees>
              <LongitudeDegrees>2.80771560966968536376953125</LongitudeDegrees>
            </Position>
            <AltitudeMeters>706.4000244140625</AltitudeMeters>
            <DistanceMeters>10076.730861228</DistanceMeters>
          </Trackpoint>
          <Trackpoint>
            <Time>2021-03-31T16:59:58.000Z</Time>
            <Position>
              <LatitudeDegrees>42.43844085372984409332275390625</LatitudeDegrees>
              <LongitudeDegrees>2.80766372568905353546142578125</LongitudeDegrees>
            </Position>
            <AltitudeMeters>706.5999755859375</AltitudeMeters>
            <DistanceMeters>10081.073072602</DistanceMeters>
          </Trackpoint>
          <Trackpoint>
            <Time>2021-03-31T17:00:02.000Z</Time>
            <Position>
              <LatitudeDegrees>42.43842492811381816864013671875</LatitudeDegrees>
              <LongitudeDegrees>2.80761142261326313018798828125</LongitudeDegrees>
            </Position>
            <AltitudeMeters>706.5999755859375</AltitudeMeters>
            <DistanceMeters>10085.720646469</DistanceMeters>
          </Trackpoint>
          <Trackpoint>
            <Time>2021-03-31T17:00:09.000Z</Time>
            <Position>
              <LatitudeDegrees>42.4383909814059734344482421875</LatitudeDegrees>
              <LongitudeDegrees>2.807509414851665496826171875</LongitudeDegrees>
            </Position>
            <AltitudeMeters>707.4000244140625</AltitudeMeters>
            <DistanceMeters>10094.912240194</DistanceMeters>
          </Trackpoint>
          <Trackpoint>
            <Time>2021-03-31T17:00:15.000Z</Time>
            <Position>
              <LatitudeDegrees>42.43837111629545688629150390625</LatitudeDegrees>
              <LongitudeDegrees>2.80744462274014949798583984375</LongitudeDegrees>
            </Position>
            <AltitudeMeters>708</AltitudeMeters>
            <DistanceMeters>10100.676062818</DistanceMeters>
          </Trackpoint>
          <Trackpoint>
            <Time>2021-03-31T17:00:19.000Z</Time>
            <Position>
              <LatitudeDegrees>42.43836172856390476226806640625</LatitudeDegrees>
              <LongitudeDegrees>2.80741025693714618682861328125</LongitudeDegrees>
            </Position>
            <AltitudeMeters>708.20001220703125</AltitudeMeters>
            <DistanceMeters>10103.685575515</DistanceMeters>
          </Trackpoint>
          <Trackpoint>
            <Time>2021-03-31T17:00:21.000Z</Time>
            <Position>
              <LatitudeDegrees>42.4383561126887798309326171875</LatitudeDegrees>
              <LongitudeDegrees>2.80739131383597850799560546875</LongitudeDegrees>
            </Position>
            <AltitudeMeters>708.4000244140625</AltitudeMeters>
            <DistanceMeters>10105.364081949</DistanceMeters>
          </Trackpoint>
          <Trackpoint>
            <Time>2021-03-31T17:00:27.000Z</Time>
            <Position>
              <LatitudeDegrees>42.43833188898861408233642578125</LatitudeDegrees>
              <LongitudeDegrees>2.80732878483831882476806640625</LongitudeDegrees>
            </Position>
            <AltitudeMeters>709</AltitudeMeters>
            <DistanceMeters>10111.164604756</DistanceMeters>
          </Trackpoint>
          <Trackpoint>
            <Time>2021-03-31T17:00:28.000Z</Time>
            <Position>
              <LatitudeDegrees>42.4383329786360263824462890625</LatitudeDegrees>
              <LongitudeDegrees>2.807319648563861846923828125</LongitudeDegrees>
            </Position>
            <AltitudeMeters>709.20001220703125</AltitudeMeters>
            <DistanceMeters>10111.924818471</DistanceMeters>
          </Trackpoint>
          <Trackpoint>
            <Time>2021-03-31T17:00:31.000Z</Time>
            <Position>
              <LatitudeDegrees>42.43832954205572605133056640625</LatitudeDegrees>
              <LongitudeDegrees>2.8072782419621944427490234375</LongitudeDegrees>
            </Position>
            <AltitudeMeters>709.4000244140625</AltitudeMeters>
            <DistanceMeters>10115.348418802</DistanceMeters>
          </Trackpoint>
          <Trackpoint>
            <Time>2021-03-31T17:00:36.000Z</Time>
            <Position>
              <LatitudeDegrees>42.43829769082367420196533203125</LatitudeDegrees>
              <LongitudeDegrees>2.8072138689458370208740234375</LongitudeDegrees>
            </Position>
            <AltitudeMeters>710.20001220703125</AltitudeMeters>
            <DistanceMeters>10121.71449947</DistanceMeters>
          </Trackpoint>
          <Trackpoint>
            <Time>2021-03-31T17:00:38.000Z</Time>
            <Position>
              <LatitudeDegrees>42.43829785846173763275146484375</LatitudeDegrees>
              <LongitudeDegrees>2.80719014815986156463623046875</LongitudeDegrees>
            </Position>
            <AltitudeMeters>710.4000244140625</AltitudeMeters>
            <DistanceMeters>10123.661967598</DistanceMeters>
          </Trackpoint>
          <Trackpoint>
            <Time>2021-03-31T17:00:43.000Z</Time>
            <Position>
              <LatitudeDegrees>42.43827321566641330718994140625</LatitudeDegrees>
              <LongitudeDegrees>2.80710180290043354034423828125</LongitudeDegrees>
            </Position>
            <AltitudeMeters>711</AltitudeMeters>
            <DistanceMeters>10131.419314401</DistanceMeters>
          </Trackpoint>
          <Trackpoint>
            <Time>2021-03-31T17:00:50.000Z</Time>
            <Position>
              <LatitudeDegrees>42.43826852180063724517822265625</LatitudeDegrees>
              <LongitudeDegrees>2.8070381842553615570068359375</LongitudeDegrees>
            </Position>
            <AltitudeMeters>711.20001220703125</AltitudeMeters>
            <DistanceMeters>10136.670776431</DistanceMeters>
          </Trackpoint>
          <Trackpoint>
            <Time>2021-03-31T17:00:52.000Z</Time>
            <Position>
              <LatitudeDegrees>42.438282184302806854248046875</LatitudeDegrees>
              <LongitudeDegrees>2.80704664997756481170654296875</LongitudeDegrees>
            </Position>
            <AltitudeMeters>711.4000244140625</AltitudeMeters>
            <DistanceMeters>10138.343894388</DistanceMeters>
          </Trackpoint>
          <Trackpoint>
            <Time>2021-03-31T17:00:55.000Z</Time>
            <Position>
              <LatitudeDegrees>42.43830624036490917205810546875</LatitudeDegrees>
              <LongitudeDegrees>2.807047404348850250244140625</LongitudeDegrees>
            </Position>
            <AltitudeMeters>711.4000244140625</AltitudeMeters>
            <DistanceMeters>10141.023243334</DistanceMeters>
          </Trackpoint>
          <Trackpoint>
            <Time>2021-03-31T17:00:56.000Z</Time>
            <Position>
              <LatitudeDegrees>42.43830959312617778778076171875</LatitudeDegrees>
              <LongitudeDegrees>2.80705151148140430450439453125</LongitudeDegrees>
            </Position>
            <AltitudeMeters>711.4000244140625</AltitudeMeters>
            <DistanceMeters>10141.526077442</DistanceMeters>
          </Trackpoint>
          <Trackpoint>
            <Time>2021-03-31T17:01:03.000Z</Time>
            <Position>
              <LatitudeDegrees>42.438325099647045135498046875</LatitudeDegrees>
              <LongitudeDegrees>2.807080261409282684326171875</LongitudeDegrees>
            </Position>
            <AltitudeMeters>711.4000244140625</AltitudeMeters>
            <DistanceMeters>10144.451912788</DistanceMeters>
          </Trackpoint>
          <Trackpoint>
            <Time>2021-03-31T17:01:06.000Z</Time>
            <Position>
              <LatitudeDegrees>42.438325099647045135498046875</LatitudeDegrees>
              <LongitudeDegrees>2.807080261409282684326171875</LongitudeDegrees>
            </Position>
            <AltitudeMeters>711.4000244140625</AltitudeMeters>
            <DistanceMeters>10144.451912788</DistanceMeters>
          </Trackpoint>
          <Trackpoint>
            <Time>2021-03-31T17:01:09.000Z</Time>
            <Position>
              <LatitudeDegrees>42.43832501582801342010498046875</LatitudeDegrees>
              <LongitudeDegrees>2.807080261409282684326171875</LongitudeDegrees>
            </Position>
            <AltitudeMeters>711.4000244140625</AltitudeMeters>
            <DistanceMeters>10144.451912788</DistanceMeters>
          </Trackpoint>
          <Trackpoint>
            <Time>2021-03-31T17:01:24.000Z</Time>
            <Position>
              <LatitudeDegrees>42.43830506689846515655517578125</LatitudeDegrees>
              <LongitudeDegrees>2.80704933218657970428466796875</LongitudeDegrees>
            </Position>
            <AltitudeMeters>712</AltitudeMeters>
            <DistanceMeters>10147.827702543</DistanceMeters>
          </Trackpoint>
          <Trackpoint>
            <Time>2021-03-31T17:01:25.000Z</Time>
            <Position>
              <LatitudeDegrees>42.43829869665205478668212890625</LatitudeDegrees>
              <LongitudeDegrees>2.8070479072630405426025390625</LongitudeDegrees>
            </Position>
            <AltitudeMeters>712.20001220703125</AltitudeMeters>
            <DistanceMeters>10148.551404439</DistanceMeters>
          </Trackpoint>
          <Trackpoint>
            <Time>2021-03-31T17:01:30.000Z</Time>
            <Position>
              <LatitudeDegrees>42.4382592178881168365478515625</LatitudeDegrees>
              <LongitudeDegrees>2.80696593225002288818359375</LongitudeDegrees>
            </Position>
            <AltitudeMeters>712.20001220703125</AltitudeMeters>
            <DistanceMeters>10156.591136224</DistanceMeters>
          </Trackpoint>
          <Trackpoint>
            <Time>2021-03-31T17:01:32.000Z</Time>
            <Position>
              <LatitudeDegrees>42.43826148100197315216064453125</LatitudeDegrees>
              <LongitudeDegrees>2.80694472603499889373779296875</LongitudeDegrees>
            </Position>
            <AltitudeMeters>712.4000244140625</AltitudeMeters>
            <DistanceMeters>10158.348488251</DistanceMeters>
          </Trackpoint>
          <Trackpoint>
            <Time>2021-03-31T17:01:34.000Z</Time>
            <Position>
              <LatitudeDegrees>42.43825997225940227508544921875</LatitudeDegrees>
              <LongitudeDegrees>2.80693315900862216949462890625</LongitudeDegrees>
            </Position>
            <AltitudeMeters>712.5999755859375</AltitudeMeters>
            <DistanceMeters>10159.308211022</DistanceMeters>
          </Trackpoint>
          <Trackpoint>
            <Time>2021-03-31T17:01:38.000Z</Time>
            <Position>
              <LatitudeDegrees>42.438215799629688262939453125</LatitudeDegrees>
              <LongitudeDegrees>2.80690692365169525146484375</LongitudeDegrees>
            </Position>
            <AltitudeMeters>712.5999755859375</AltitudeMeters>
            <DistanceMeters>10164.6761691</DistanceMeters>
          </Trackpoint>
          <Trackpoint>
            <Time>2021-03-31T17:01:45.000Z</Time>
            <Position>
              <LatitudeDegrees>42.43816475383937358856201171875</LatitudeDegrees>
              <LongitudeDegrees>2.8068645112216472625732421875</LongitudeDegrees>
            </Position>
            <AltitudeMeters>713.5999755859375</AltitudeMeters>
            <DistanceMeters>10171.340245627</DistanceMeters>
          </Trackpoint>
          <Trackpoint>
            <Time>2021-03-31T17:01:52.000Z</Time>
            <Position>
              <LatitudeDegrees>42.43812519125640392303466796875</LatitudeDegrees>
              <LongitudeDegrees>2.80680592171847820281982421875</LongitudeDegrees>
            </Position>
            <AltitudeMeters>714.5999755859375</AltitudeMeters>
            <DistanceMeters>10177.863260283</DistanceMeters>
          </Trackpoint>
          <Trackpoint>
            <Time>2021-03-31T17:01:53.000Z</Time>
            <Position>
              <LatitudeDegrees>42.43811228312551975250244140625</LatitudeDegrees>
              <LongitudeDegrees>2.80680189840495586395263671875</LongitudeDegrees>
            </Position>
            <AltitudeMeters>714.79998779296875</AltitudeMeters>
            <DistanceMeters>10179.335407812</DistanceMeters>
          </Trackpoint>
          <Trackpoint>
            <Time>2021-03-31T17:02:00.000Z</Time>
            <Position>
              <LatitudeDegrees>42.43805478326976299285888671875</LatitudeDegrees>
              <LongitudeDegrees>2.806756384670734405517578125</LongitudeDegrees>
            </Position>
            <AltitudeMeters>715.5999755859375</AltitudeMeters>
            <DistanceMeters>10186.747491532</DistanceMeters>
          </Trackpoint>
          <Trackpoint>
            <Time>2021-03-31T17:02:01.000Z</Time>
            <Position>
              <LatitudeDegrees>42.43804304860532283782958984375</LatitudeDegrees>
              <LongitudeDegrees>2.80675160698592662811279296875</LongitudeDegrees>
            </Position>
            <AltitudeMeters>715.5999755859375</AltitudeMeters>
            <DistanceMeters>10188.111381465</DistanceMeters>
          </Trackpoint>
          <Trackpoint>
            <Time>2021-03-31T17:02:03.000Z</Time>
            <Position>
              <LatitudeDegrees>42.43802041746675968170166015625</LatitudeDegrees>
              <LongitudeDegrees>2.80674288980662822723388671875</LongitudeDegrees>
            </Position>
            <AltitudeMeters>715.5999755859375</AltitudeMeters>
            <DistanceMeters>10190.729363134</DistanceMeters>
          </Trackpoint>
          <Trackpoint>
            <Time>2021-03-31T17:02:05.000Z</Time>
            <Position>
              <LatitudeDegrees>42.4380047433078289031982421875</LatitudeDegrees>
              <LongitudeDegrees>2.8067292273044586181640625</LongitudeDegrees>
            </Position>
            <AltitudeMeters>715.79998779296875</AltitudeMeters>
            <DistanceMeters>10192.802601275</DistanceMeters>
          </Trackpoint>
          <Trackpoint>
            <Time>2021-03-31T17:02:09.000Z</Time>
            <Position>
              <LatitudeDegrees>42.437966354191303253173828125</LatitudeDegrees>
              <LongitudeDegrees>2.806707434356212615966796875</LongitudeDegrees>
            </Position>
            <AltitudeMeters>716</AltitudeMeters>
            <DistanceMeters>10197.436554423</DistanceMeters>
          </Trackpoint>
          <Trackpoint>
            <Time>2021-03-31T17:02:12.000Z</Time>
            <Position>
              <LatitudeDegrees>42.4379353411495685577392578125</LatitudeDegrees>
              <LongitudeDegrees>2.80668857507407665252685546875</LongitudeDegrees>
            </Position>
            <AltitudeMeters>716.5999755859375</AltitudeMeters>
            <DistanceMeters>10201.219763532</DistanceMeters>
          </Trackpoint>
          <Trackpoint>
            <Time>2021-03-31T17:02:17.000Z</Time>
            <Position>
              <LatitudeDegrees>42.437889575958251953125</LatitudeDegrees>
              <LongitudeDegrees>2.806655131280422210693359375</LongitudeDegrees>
            </Position>
            <AltitudeMeters>717.4000244140625</AltitudeMeters>
            <DistanceMeters>10207.007038671</DistanceMeters>
          </Trackpoint>
          <Trackpoint>
            <Time>2021-03-31T17:02:19.000Z</Time>
            <Position>
              <LatitudeDegrees>42.4378803558647632598876953125</LatitudeDegrees>
              <LongitudeDegrees>2.8066556341946125030517578125</LongitudeDegrees>
            </Position>
            <AltitudeMeters>717.79998779296875</AltitudeMeters>
            <DistanceMeters>10208.030507707</DistanceMeters>
          </Trackpoint>
          <Trackpoint>
            <Time>2021-03-31T17:02:21.000Z</Time>
            <Position>
              <LatitudeDegrees>42.43787641637027263641357421875</LatitudeDegrees>
              <LongitudeDegrees>2.8066433966159820556640625</LongitudeDegrees>
            </Position>
            <AltitudeMeters>717.79998779296875</AltitudeMeters>
            <DistanceMeters>10209.126409239</DistanceMeters>
          </Trackpoint>
          <Trackpoint>
            <Time>2021-03-31T17:02:22.000Z</Time>
            <Position>
              <LatitudeDegrees>42.43786669336259365081787109375</LatitudeDegrees>
              <LongitudeDegrees>2.8066353499889373779296875</LongitudeDegrees>
            </Position>
            <AltitudeMeters>717.79998779296875</AltitudeMeters>
            <DistanceMeters>10210.394223739</DistanceMeters>
          </Trackpoint>
          <Trackpoint>
            <Time>2021-03-31T17:02:24.000Z</Time>
            <Position>
              <LatitudeDegrees>42.43784490041434764862060546875</LatitudeDegrees>
              <LongitudeDegrees>2.80662772245705127716064453125</LongitudeDegrees>
            </Position>
            <AltitudeMeters>718</AltitudeMeters>
            <DistanceMeters>10212.901200644</DistanceMeters>
          </Trackpoint>
          <Trackpoint>
            <Time>2021-03-31T17:02:29.000Z</Time>
            <Position>
              <LatitudeDegrees>42.43778555653989315032958984375</LatitudeDegrees>
              <LongitudeDegrees>2.8065966255962848663330078125</LongitudeDegrees>
            </Position>
            <AltitudeMeters>718.4000244140625</AltitudeMeters>
            <DistanceMeters>10219.983082073</DistanceMeters>
          </Trackpoint>
          <Trackpoint>
            <Time>2021-03-31T17:02:31.000Z</Time>
            <Position>
              <LatitudeDegrees>42.43777315132319927215576171875</LatitudeDegrees>
              <LongitudeDegrees>2.80659000389277935028076171875</LongitudeDegrees>
            </Position>
            <AltitudeMeters>718.4000244140625</AltitudeMeters>
            <DistanceMeters>10221.467446803</DistanceMeters>
          </Trackpoint>
          <Trackpoint>
            <Time>2021-03-31T17:02:32.000Z</Time>
            <Position>
              <LatitudeDegrees>42.43776376359164714813232421875</LatitudeDegrees>
              <LongitudeDegrees>2.80659017153084278106689453125</LongitudeDegrees>
            </Position>
            <AltitudeMeters>718.5999755859375</AltitudeMeters>
            <DistanceMeters>10222.512740661</DistanceMeters>
          </Trackpoint>
          <Trackpoint>
            <Time>2021-03-31T17:02:35.000Z</Time>
            <Position>
              <LatitudeDegrees>42.4377361871302127838134765625</LatitudeDegrees>
              <LongitudeDegrees>2.8065882436931133270263671875</LongitudeDegrees>
            </Position>
            <AltitudeMeters>718.79998779296875</AltitudeMeters>
            <DistanceMeters>10225.587556109</DistanceMeters>
          </Trackpoint>
          <Trackpoint>
            <Time>2021-03-31T17:02:37.000Z</Time>
            <Position>
              <LatitudeDegrees>42.43771045468747615814208984375</LatitudeDegrees>
              <LongitudeDegrees>2.806580364704132080078125</LongitudeDegrees>
            </Position>
            <AltitudeMeters>718.79998779296875</AltitudeMeters>
            <DistanceMeters>10228.522635823</DistanceMeters>
          </Trackpoint>
          <Trackpoint>
            <Time>2021-03-31T17:02:44.000Z</Time>
            <Position>
              <LatitudeDegrees>42.43765412829816341400146484375</LatitudeDegrees>
              <LongitudeDegrees>2.80653837136924266815185546875</LongitudeDegrees>
            </Position>
            <AltitudeMeters>719.79998779296875</AltitudeMeters>
            <DistanceMeters>10235.678721591</DistanceMeters>
          </Trackpoint>
          <Trackpoint>
            <Time>2021-03-31T17:02:45.000Z</Time>
            <Position>
              <LatitudeDegrees>42.4376503564417362213134765625</LatitudeDegrees>
              <LongitudeDegrees>2.806532084941864013671875</LongitudeDegrees>
            </Position>
            <AltitudeMeters>719.79998779296875</AltitudeMeters>
            <DistanceMeters>10236.33708598</DistanceMeters>
          </Trackpoint>
          <Trackpoint>
            <Time>2021-03-31T17:02:53.000Z</Time>
            <Position>
              <LatitudeDegrees>42.43759780190885066986083984375</LatitudeDegrees>
              <LongitudeDegrees>2.80646326951682567596435546875</LongitudeDegrees>
            </Position>
            <AltitudeMeters>719.5999755859375</AltitudeMeters>
            <DistanceMeters>10244.471727962</DistanceMeters>
          </Trackpoint>
          <Trackpoint>
            <Time>2021-03-31T17:03:00.000Z</Time>
            <Position>
              <LatitudeDegrees>42.4375380389392375946044921875</LatitudeDegrees>
              <LongitudeDegrees>2.80635748989880084991455078125</LongitudeDegrees>
            </Position>
            <AltitudeMeters>718.79998779296875</AltitudeMeters>
            <DistanceMeters>10255.414663753</DistanceMeters>
          </Trackpoint>
          <Trackpoint>
            <Time>2021-03-31T17:03:01.000Z</Time>
            <Position>
              <LatitudeDegrees>42.43752689100801944732666015625</LatitudeDegrees>
              <LongitudeDegrees>2.80634977854788303375244140625</LongitudeDegrees>
            </Position>
            <AltitudeMeters>718.5999755859375</AltitudeMeters>
            <DistanceMeters>10256.811265526</DistanceMeters>
          </Trackpoint>
          <Trackpoint>
            <Time>2021-03-31T17:03:04.000Z</Time>
            <Position>
              <LatitudeDegrees>42.43749805726110935211181640625</LatitudeDegrees>
              <LongitudeDegrees>2.80632832087576389312744140625</LongitudeDegrees>
            </Position>
            <AltitudeMeters>718.20001220703125</AltitudeMeters>
            <DistanceMeters>10260.47195309</DistanceMeters>
          </Trackpoint>
          <Trackpoint>
            <Time>2021-03-31T17:03:06.000Z</Time>
            <Position>
              <LatitudeDegrees>42.43748581968247890472412109375</LatitudeDegrees>
              <LongitudeDegrees>2.80631457455456256866455078125</LongitudeDegrees>
            </Position>
            <AltitudeMeters>718.20001220703125</AltitudeMeters>
            <DistanceMeters>10262.239552154</DistanceMeters>
          </Trackpoint>
          <Trackpoint>
            <Time>2021-03-31T17:03:08.000Z</Time>
            <Position>
              <LatitudeDegrees>42.43747995235025882720947265625</LatitudeDegrees>
              <LongitudeDegrees>2.8062918595969676971435546875</LongitudeDegrees>
            </Position>
            <AltitudeMeters>718.20001220703125</AltitudeMeters>
            <DistanceMeters>10264.216929988</DistanceMeters>
          </Trackpoint>
          <Trackpoint>
            <Time>2021-03-31T17:03:09.000Z</Time>
            <Position>
              <LatitudeDegrees>42.4374729953706264495849609375</LatitudeDegrees>
              <LongitudeDegrees>2.80628842301666736602783203125</LongitudeDegrees>
            </Position>
            <AltitudeMeters>718.20001220703125</AltitudeMeters>
            <DistanceMeters>10265.039885475</DistanceMeters>
          </Trackpoint>
          <Trackpoint>
            <Time>2021-03-31T17:03:11.000Z</Time>
            <Position>
              <LatitudeDegrees>42.43745497427880764007568359375</LatitudeDegrees>
              <LongitudeDegrees>2.80628121457993984222412109375</LongitudeDegrees>
            </Position>
            <AltitudeMeters>718.20001220703125</AltitudeMeters>
            <DistanceMeters>10267.130473191</DistanceMeters>
          </Trackpoint>
          <Trackpoint>
            <Time>2021-03-31T17:03:13.000Z</Time>
            <Position>
              <LatitudeDegrees>42.43743686936795711517333984375</LatitudeDegrees>
              <LongitudeDegrees>2.80627249740064144134521484375</LongitudeDegrees>
            </Position>
            <AltitudeMeters>718.20001220703125</AltitudeMeters>
            <DistanceMeters>10269.268046273</DistanceMeters>
          </Trackpoint>
          <Trackpoint>
            <Time>2021-03-31T17:03:16.000Z</Time>
            <Position>
              <LatitudeDegrees>42.43741340003907680511474609375</LatitudeDegrees>
              <LongitudeDegrees>2.806254811584949493408203125</LongitudeDegrees>
            </Position>
            <AltitudeMeters>718.20001220703125</AltitudeMeters>
            <DistanceMeters>10272.256481583</DistanceMeters>
          </Trackpoint>
          <Trackpoint>
            <Time>2021-03-31T17:03:18.000Z</Time>
            <Position>
              <LatitudeDegrees>42.43740032427012920379638671875</LatitudeDegrees>
              <LongitudeDegrees>2.8062450885772705078125</LongitudeDegrees>
            </Position>
            <AltitudeMeters>718.4000244140625</AltitudeMeters>
            <DistanceMeters>10273.918770184</DistanceMeters>
          </Trackpoint>
          <Trackpoint>
            <Time>2021-03-31T17:03:19.000Z</Time>
            <Position>
              <LatitudeDegrees>42.4373935349285602569580078125</LatitudeDegrees>
              <LongitudeDegrees>2.806241400539875030517578125</LongitudeDegrees>
            </Position>
            <AltitudeMeters>718.4000244140625</AltitudeMeters>
            <DistanceMeters>10274.725098594</DistanceMeters>
          </Trackpoint>
          <Trackpoint>
            <Time>2021-03-31T17:03:23.000Z</Time>
            <Position>
              <LatitudeDegrees>42.43735908530652523040771484375</LatitudeDegrees>
              <LongitudeDegrees>2.80621130950748920440673828125</LongitudeDegrees>
            </Position>
            <AltitudeMeters>718.5999755859375</AltitudeMeters>
            <DistanceMeters>10279.286380883</DistanceMeters>
          </Trackpoint>
          <Trackpoint>
            <Time>2021-03-31T17:03:25.000Z</Time>
            <Position>
              <LatitudeDegrees>42.43732924573123455047607421875</LatitudeDegrees>
              <LongitudeDegrees>2.80618247576057910919189453125</LongitudeDegrees>
            </Position>
            <AltitudeMeters>719</AltitudeMeters>
            <DistanceMeters>10283.364787534</DistanceMeters>
          </Trackpoint>
          <Trackpoint>
            <Time>2021-03-31T17:03:27.000Z</Time>
            <Position>
              <LatitudeDegrees>42.43730275891721248626708984375</LatitudeDegrees>
              <LongitudeDegrees>2.806164287030696868896484375</LongitudeDegrees>
            </Position>
            <AltitudeMeters>718.79998779296875</AltitudeMeters>
            <DistanceMeters>10286.667563994</DistanceMeters>
          </Trackpoint>
          <Trackpoint>
            <Time>2021-03-31T17:03:29.000Z</Time>
            <Position>
              <LatitudeDegrees>42.4372808821499347686767578125</LatitudeDegrees>
              <LongitudeDegrees>2.80615028925240039825439453125</LongitudeDegrees>
            </Position>
            <AltitudeMeters>718.5999755859375</AltitudeMeters>
            <DistanceMeters>10289.360360196</DistanceMeters>
          </Trackpoint>
          <Trackpoint>
            <Time>2021-03-31T17:03:31.000Z</Time>
            <Position>
              <LatitudeDegrees>42.43726193904876708984375</LatitudeDegrees>
              <LongitudeDegrees>2.80613637529313564300537109375</LongitudeDegrees>
            </Position>
            <AltitudeMeters>718.5999755859375</AltitudeMeters>
            <DistanceMeters>10291.758726034</DistanceMeters>
          </Trackpoint>
          <Trackpoint>
            <Time>2021-03-31T17:03:32.000Z</Time>
            <Position>
              <LatitudeDegrees>42.43725565262138843536376953125</LatitudeDegrees>
              <LongitudeDegrees>2.80612916685640811920166015625</LongitudeDegrees>
            </Position>
            <AltitudeMeters>718.5999755859375</AltitudeMeters>
            <DistanceMeters>10292.675130481</DistanceMeters>
          </Trackpoint>
          <Trackpoint>
            <Time>2021-03-31T17:03:34.000Z</Time>
            <Position>
              <LatitudeDegrees>42.43723302148282527923583984375</LatitudeDegrees>
              <LongitudeDegrees>2.80611525289714336395263671875</LongitudeDegrees>
            </Position>
            <AltitudeMeters>719</AltitudeMeters>
            <DistanceMeters>10295.442350173</DistanceMeters>
          </Trackpoint>
          <Trackpoint>
            <Time>2021-03-31T17:03:36.000Z</Time>
            <Position>
              <LatitudeDegrees>42.4372128210961818695068359375</LatitudeDegrees>
              <LongitudeDegrees>2.806102931499481201171875</LongitudeDegrees>
            </Position>
            <AltitudeMeters>719.20001220703125</AltitudeMeters>
            <DistanceMeters>10297.905724154</DistanceMeters>
          </Trackpoint>
          <Trackpoint>
            <Time>2021-03-31T17:03:39.000Z</Time>
            <Position>
              <LatitudeDegrees>42.437179796397686004638671875</LatitudeDegrees>
              <LongitudeDegrees>2.80608608387410640716552734375</LongitudeDegrees>
            </Position>
            <AltitudeMeters>719</AltitudeMeters>
            <DistanceMeters>10301.832984085</DistanceMeters>
          </Trackpoint>
          <Trackpoint>
            <Time>2021-03-31T17:03:40.000Z</Time>
            <Position>
              <LatitudeDegrees>42.4371605180203914642333984375</LatitudeDegrees>
              <LongitudeDegrees>2.80608222819864749908447265625</LongitudeDegrees>
            </Position>
            <AltitudeMeters>719</AltitudeMeters>
            <DistanceMeters>10303.999926574</DistanceMeters>
          </Trackpoint>
          <Trackpoint>
            <Time>2021-03-31T17:03:44.000Z</Time>
            <Position>
              <LatitudeDegrees>42.43711500428617000579833984375</LatitudeDegrees>
              <LongitudeDegrees>2.806073091924190521240234375</LongitudeDegrees>
            </Position>
            <AltitudeMeters>719.20001220703125</AltitudeMeters>
            <DistanceMeters>10309.120799741</DistanceMeters>
          </Trackpoint>
          <Trackpoint>
            <Time>2021-03-31T17:03:46.000Z</Time>
            <Position>
              <LatitudeDegrees>42.437077201902866363525390625</LatitudeDegrees>
              <LongitudeDegrees>2.806081138551235198974609375</LongitudeDegrees>
            </Position>
            <AltitudeMeters>719.4000244140625</AltitudeMeters>
            <DistanceMeters>10313.379014566</DistanceMeters>
          </Trackpoint>
          <Trackpoint>
            <Time>2021-03-31T17:03:49.000Z</Time>
            <Position>
              <LatitudeDegrees>42.437044680118560791015625</LatitudeDegrees>
              <LongitudeDegrees>2.80608172528445720672607421875</LongitudeDegrees>
            </Position>
            <AltitudeMeters>720</AltitudeMeters>
            <DistanceMeters>10316.997524045</DistanceMeters>
          </Trackpoint>
          <Trackpoint>
            <Time>2021-03-31T17:03:54.000Z</Time>
            <Position>
              <LatitudeDegrees>42.43699438869953155517578125</LatitudeDegrees>
              <LongitudeDegrees>2.80607183463871479034423828125</LongitudeDegrees>
            </Position>
            <AltitudeMeters>720.79998779296875</AltitudeMeters>
            <DistanceMeters>10322.654607296</DistanceMeters>
          </Trackpoint>
          <Trackpoint>
            <Time>2021-03-31T17:03:56.000Z</Time>
            <Position>
              <LatitudeDegrees>42.43697552941739559173583984375</LatitudeDegrees>
              <LongitudeDegrees>2.8060581721365451812744140625</LongitudeDegrees>
            </Position>
            <AltitudeMeters>721.20001220703125</AltitudeMeters>
            <DistanceMeters>10325.034073188</DistanceMeters>
          </Trackpoint>
          <Trackpoint>
            <Time>2021-03-31T17:03:57.000Z</Time>
            <Position>
              <LatitudeDegrees>42.436968572437763214111328125</LatitudeDegrees>
              <LongitudeDegrees>2.806054987013339996337890625</LongitudeDegrees>
            </Position>
            <AltitudeMeters>721.20001220703125</AltitudeMeters>
            <DistanceMeters>10325.851523894</DistanceMeters>
          </Trackpoint>
          <Trackpoint>
            <Time>2021-03-31T17:03:58.000Z</Time>
            <Position>
              <LatitudeDegrees>42.43696228601038455963134765625</LatitudeDegrees>
              <LongitudeDegrees>2.80605004169046878814697265625</LongitudeDegrees>
            </Position>
            <AltitudeMeters>721.4000244140625</AltitudeMeters>
            <DistanceMeters>10326.657852304</DistanceMeters>
          </Trackpoint>
          <Trackpoint>
            <Time>2021-03-31T17:04:01.000Z</Time>
            <Position>
              <LatitudeDegrees>42.43694468401372432708740234375</LatitudeDegrees>
              <LongitudeDegrees>2.8060249797999858856201171875</LongitudeDegrees>
            </Position>
            <AltitudeMeters>722.20001220703125</AltitudeMeters>
            <DistanceMeters>10329.500723813</DistanceMeters>
          </Trackpoint>
          <Trackpoint>
            <Time>2021-03-31T17:04:05.000Z</Time>
            <Position>
              <LatitudeDegrees>42.43690646253526210784912109375</LatitudeDegrees>
              <LongitudeDegrees>2.806000672280788421630859375</LongitudeDegrees>
            </Position>
            <AltitudeMeters>723.4000244140625</AltitudeMeters>
            <DistanceMeters>10334.200464974</DistanceMeters>
          </Trackpoint>
          <Trackpoint>
            <Time>2021-03-31T17:04:06.000Z</Time>
            <Position>
              <LatitudeDegrees>42.4368953146040439605712890625</LatitudeDegrees>
              <LongitudeDegrees>2.8059968166053295135498046875</LongitudeDegrees>
            </Position>
            <AltitudeMeters>723.79998779296875</AltitudeMeters>
            <DistanceMeters>10335.482445439</DistanceMeters>
          </Trackpoint>
          <Trackpoint>
            <Time>2021-03-31T17:04:08.000Z</Time>
            <Position>
              <LatitudeDegrees>42.43687746115028858184814453125</LatitudeDegrees>
              <LongitudeDegrees>2.805983237922191619873046875</LongitudeDegrees>
            </Position>
            <AltitudeMeters>724.20001220703125</AltitudeMeters>
            <DistanceMeters>10337.763086584</DistanceMeters>
          </Trackpoint>
          <Trackpoint>
            <Time>2021-03-31T17:04:10.000Z</Time>
            <Position>
              <LatitudeDegrees>42.43686270900070667266845703125</LatitudeDegrees>
              <LongitudeDegrees>2.80596789903938770294189453125</LongitudeDegrees>
            </Position>
            <AltitudeMeters>724.20001220703125</AltitudeMeters>
            <DistanceMeters>10339.836324725</DistanceMeters>
          </Trackpoint>
          <Trackpoint>
            <Time>2021-03-31T17:04:12.000Z</Time>
            <Position>
              <LatitudeDegrees>42.436849214136600494384765625</LatitudeDegrees>
              <LongitudeDegrees>2.805949710309505462646484375</LongitudeDegrees>
            </Position>
            <AltitudeMeters>724.4000244140625</AltitudeMeters>
            <DistanceMeters>10341.954802478</DistanceMeters>
          </Trackpoint>
          <Trackpoint>
            <Time>2021-03-31T17:04:13.000Z</Time>
            <Position>
              <LatitudeDegrees>42.4368373118340969085693359375</LatitudeDegrees>
              <LongitudeDegrees>2.80593772418797016143798828125</LongitudeDegrees>
            </Position>
            <AltitudeMeters>724.5999755859375</AltitudeMeters>
            <DistanceMeters>10343.606190708</DistanceMeters>
          </Trackpoint>
          <Trackpoint>
            <Time>2021-03-31T17:04:21.000Z</Time>
            <Position>
              <LatitudeDegrees>42.43673815391957759857177734375</LatitudeDegrees>
              <LongitudeDegrees>2.80584686435759067535400390625</LongitudeDegrees>
            </Position>
            <AltitudeMeters>725.4000244140625</AltitudeMeters>
            <DistanceMeters>10356.929600284</DistanceMeters>
          </Trackpoint>
          <Trackpoint>
            <Time>2021-03-31T17:04:23.000Z</Time>
            <Position>
              <LatitudeDegrees>42.4367135949432849884033203125</LatitudeDegrees>
              <LongitudeDegrees>2.80583010055124759674072265625</LongitudeDegrees>
            </Position>
            <AltitudeMeters>725.5999755859375</AltitudeMeters>
            <DistanceMeters>10359.989696569</DistanceMeters>
          </Trackpoint>
          <Trackpoint>
            <Time>2021-03-31T17:04:24.000Z</Time>
            <Position>
              <LatitudeDegrees>42.43670194409787654876708984375</LatitudeDegrees>
              <LongitudeDegrees>2.80582171864807605743408203125</LongitudeDegrees>
            </Position>
            <AltitudeMeters>725.5999755859375</AltitudeMeters>
            <DistanceMeters>10361.455697317</DistanceMeters>
          </Trackpoint>
          <Trackpoint>
            <Time>2021-03-31T17:04:26.000Z</Time>
            <Position>
              <LatitudeDegrees>42.4366871081292629241943359375</LatitudeDegrees>
              <LongitudeDegrees>2.80580579303205013275146484375</LongitudeDegrees>
            </Position>
            <AltitudeMeters>725.5999755859375</AltitudeMeters>
            <DistanceMeters>10363.563491807</DistanceMeters>
          </Trackpoint>
          <Trackpoint>
            <Time>2021-03-31T17:04:27.000Z</Time>
            <Position>
              <LatitudeDegrees>42.43668015114963054656982421875</LatitudeDegrees>
              <LongitudeDegrees>2.8058010153472423553466796875</LongitudeDegrees>
            </Position>
            <AltitudeMeters>725.79998779296875</AltitudeMeters>
            <DistanceMeters>10364.43442603</DistanceMeters>
          </Trackpoint>
          <Trackpoint>
            <Time>2021-03-31T17:04:33.000Z</Time>
            <Position>
              <LatitudeDegrees>42.43662416003644466400146484375</LatitudeDegrees>
              <LongitudeDegrees>2.80576027929782867431640625</LongitudeDegrees>
            </Position>
            <AltitudeMeters>726.20001220703125</AltitudeMeters>
            <DistanceMeters>10371.507376157</DistanceMeters>
          </Trackpoint>
          <Trackpoint>
            <Time>2021-03-31T17:04:34.000Z</Time>
            <Position>
              <LatitudeDegrees>42.43661678396165370941162109375</LatitudeDegrees>
              <LongitudeDegrees>2.80575617216527462005615234375</LongitudeDegrees>
            </Position>
            <AltitudeMeters>726.20001220703125</AltitudeMeters>
            <DistanceMeters>10372.393726342</DistanceMeters>
          </Trackpoint>
          <Trackpoint>
            <Time>2021-03-31T17:04:39.000Z</Time>
            <Position>
              <LatitudeDegrees>42.4365741200745105743408203125</LatitudeDegrees>
              <LongitudeDegrees>2.8057393245398998260498046875</LongitudeDegrees>
            </Position>
            <AltitudeMeters>726.5999755859375</AltitudeMeters>
            <DistanceMeters>10377.340594762</DistanceMeters>
          </Trackpoint>
          <Trackpoint>
            <Time>2021-03-31T17:04:40.000Z</Time>
            <Position>
              <LatitudeDegrees>42.43656632490456104278564453125</LatitudeDegrees>
              <LongitudeDegrees>2.80573421157896518707275390625</LongitudeDegrees>
            </Position>
            <AltitudeMeters>726.5999755859375</AltitudeMeters>
            <DistanceMeters>10378.314328826</DistanceMeters>
          </Trackpoint>
          <Trackpoint>
            <Time>2021-03-31T17:04:43.000Z</Time>
            <Position>
              <LatitudeDegrees>42.436534054577350616455078125</LatitudeDegrees>
              <LongitudeDegrees>2.8057158552110195159912109375</LongitudeDegrees>
            </Position>
            <AltitudeMeters>726.79998779296875</AltitudeMeters>
            <DistanceMeters>10382.211582805</DistanceMeters>
          </Trackpoint>
          <Trackpoint>
            <Time>2021-03-31T17:04:47.000Z</Time>
            <Position>
              <LatitudeDegrees>42.43648988194763660430908203125</LatitudeDegrees>
              <LongitudeDegrees>2.80569917522370815277099609375</LongitudeDegrees>
            </Position>
            <AltitudeMeters>727</AltitudeMeters>
            <DistanceMeters>10387.314791645</DistanceMeters>
          </Trackpoint>
          <Trackpoint>
            <Time>2021-03-31T17:04:51.000Z</Time>
            <Position>
              <LatitudeDegrees>42.43643154390156269073486328125</LatitudeDegrees>
              <LongitudeDegrees>2.8056739456951618194580078125</LongitudeDegrees>
            </Position>
            <AltitudeMeters>727.20001220703125</AltitudeMeters>
            <DistanceMeters>10394.130267654</DistanceMeters>
          </Trackpoint>
          <Trackpoint>
            <Time>2021-03-31T17:04:57.000Z</Time>
            <Position>
              <LatitudeDegrees>42.4363602139055728912353515625</LatitudeDegrees>
              <LongitudeDegrees>2.8056578524410724639892578125</LongitudeDegrees>
            </Position>
            <AltitudeMeters>727.4000244140625</AltitudeMeters>
            <DistanceMeters>10402.177857868</DistanceMeters>
          </Trackpoint>
          <Trackpoint>
            <Time>2021-03-31T17:04:59.000Z</Time>
            <Position>
              <LatitudeDegrees>42.4363350681960582733154296875</LatitudeDegrees>
              <LongitudeDegrees>2.8056581877171993255615234375</LongitudeDegrees>
            </Position>
            <AltitudeMeters>727.4000244140625</AltitudeMeters>
            <DistanceMeters>10404.97429242</DistanceMeters>
          </Trackpoint>
          <Trackpoint>
            <Time>2021-03-31T17:05:03.000Z</Time>
            <Position>
              <LatitudeDegrees>42.4363003671169281005859375</LatitudeDegrees>
              <LongitudeDegrees>2.80567922629415988922119140625</LongitudeDegrees>
            </Position>
            <AltitudeMeters>727.5999755859375</AltitudeMeters>
            <DistanceMeters>10409.204849299</DistanceMeters>
          </Trackpoint>
          <Trackpoint>
            <Time>2021-03-31T17:05:08.000Z</Time>
            <Position>
              <LatitudeDegrees>42.43623725138604640960693359375</LatitudeDegrees>
              <LongitudeDegrees>2.8056984208524227142333984375</LongitudeDegrees>
            </Position>
            <AltitudeMeters>727.79998779296875</AltitudeMeters>
            <DistanceMeters>10416.404338086</DistanceMeters>
          </Trackpoint>
          <Trackpoint>
            <Time>2021-03-31T17:05:18.000Z</Time>
            <Position>
              <LatitudeDegrees>42.43615242652595043182373046875</LatitudeDegrees>
              <LongitudeDegrees>2.8056826628744602203369140625</LongitudeDegrees>
            </Position>
            <AltitudeMeters>728.4000244140625</AltitudeMeters>
            <DistanceMeters>10425.934527427</DistanceMeters>
          </Trackpoint>
          <Trackpoint>
            <Time>2021-03-31T17:05:23.000Z</Time>
            <Position>
              <LatitudeDegrees>42.4360893107950687408447265625</LatitudeDegrees>
              <LongitudeDegrees>2.80570722185075283050537109375</LongitudeDegrees>
            </Position>
            <AltitudeMeters>728.5999755859375</AltitudeMeters>
            <DistanceMeters>10433.242940535</DistanceMeters>
          </Trackpoint>
          <Trackpoint>
            <Time>2021-03-31T17:05:26.000Z</Time>
            <Position>
              <LatitudeDegrees>42.43607967160642147064208984375</LatitudeDegrees>
              <LongitudeDegrees>2.80570420436561107635498046875</LongitudeDegrees>
            </Position>
            <AltitudeMeters>729</AltitudeMeters>
            <DistanceMeters>10434.351132936</DistanceMeters>
          </Trackpoint>
          <Trackpoint>
            <Time>2021-03-31T17:05:32.000Z</Time>
            <Position>
              <LatitudeDegrees>42.436070702970027923583984375</LatitudeDegrees>
              <LongitudeDegrees>2.80571811832487583160400390625</LongitudeDegrees>
            </Position>
            <AltitudeMeters>728.5999755859375</AltitudeMeters>
            <DistanceMeters>10435.871560366</DistanceMeters>
          </Trackpoint>
          <Trackpoint>
            <Time>2021-03-31T17:05:38.000Z</Time>
            <Position>
              <LatitudeDegrees>42.4360624887049198150634765625</LatitudeDegrees>
              <LongitudeDegrees>2.80570571310818195343017578125</LongitudeDegrees>
            </Position>
            <AltitudeMeters>728.5999755859375</AltitudeMeters>
            <DistanceMeters>10437.24205513</DistanceMeters>
          </Trackpoint>
          <Trackpoint>
            <Time>2021-03-31T17:05:40.000Z</Time>
            <Position>
              <LatitudeDegrees>42.4360624887049198150634765625</LatitudeDegrees>
              <LongitudeDegrees>2.80570571310818195343017578125</LongitudeDegrees>
            </Position>
            <AltitudeMeters>728.5999755859375</AltitudeMeters>
            <DistanceMeters>10437.24205513</DistanceMeters>
          </Trackpoint>
          <Trackpoint>
            <Time>2021-03-31T17:05:50.000Z</Time>
            <Position>
              <LatitudeDegrees>42.4360482394695281982421875</LatitudeDegrees>
              <LongitudeDegrees>2.805724404752254486083984375</LongitudeDegrees>
            </Position>
            <AltitudeMeters>728.4000244140625</AltitudeMeters>
            <DistanceMeters>10439.448230827</DistanceMeters>
          </Trackpoint>
          <Trackpoint>
            <Time>2021-03-31T17:05:53.000Z</Time>
            <Position>
              <LatitudeDegrees>42.43600331246852874755859375</LatitudeDegrees>
              <LongitudeDegrees>2.80576120130717754364013671875</LongitudeDegrees>
            </Position>
            <AltitudeMeters>728.5999755859375</AltitudeMeters>
            <DistanceMeters>10445.290635208</DistanceMeters>
          </Trackpoint>
          <Trackpoint>
            <Time>2021-03-31T17:06:00.000Z</Time>
            <Position>
              <LatitudeDegrees>42.43591840378940105438232421875</LatitudeDegrees>
              <LongitudeDegrees>2.805827669799327850341796875</LongitudeDegrees>
            </Position>
            <AltitudeMeters>729.5999755859375</AltitudeMeters>
            <DistanceMeters>10456.205064577</DistanceMeters>
          </Trackpoint>
          <Trackpoint>
            <Time>2021-03-31T17:06:01.000Z</Time>
            <Position>
              <LatitudeDegrees>42.43591303937137126922607421875</LatitudeDegrees>
              <LongitudeDegrees>2.805836386978626251220703125</LongitudeDegrees>
            </Position>
            <AltitudeMeters>730</AltitudeMeters>
            <DistanceMeters>10457.136132426</DistanceMeters>
          </Trackpoint>
          <Trackpoint>
            <Time>2021-03-31T17:06:06.000Z</Time>
            <Position>
              <LatitudeDegrees>42.435850761830806732177734375</LatitudeDegrees>
              <LongitudeDegrees>2.80585147440433502197265625</LongitudeDegrees>
            </Position>
            <AltitudeMeters>729.5999755859375</AltitudeMeters>
            <DistanceMeters>10464.177092565</DistanceMeters>
          </Trackpoint>
          <Trackpoint>
            <Time>2021-03-31T17:06:07.000Z</Time>
            <Position>
              <LatitudeDegrees>42.4358351714909076690673828125</LatitudeDegrees>
              <LongitudeDegrees>2.80584904365241527557373046875</LongitudeDegrees>
            </Position>
            <AltitudeMeters>729.4000244140625</AltitudeMeters>
            <DistanceMeters>10465.918961011</DistanceMeters>
          </Trackpoint>
          <Trackpoint>
            <Time>2021-03-31T17:06:09.000Z</Time>
            <Position>
              <LatitudeDegrees>42.4358036555349826812744140625</LatitudeDegrees>
              <LongitudeDegrees>2.80585817992687225341796875</LongitudeDegrees>
            </Position>
            <AltitudeMeters>729.4000244140625</AltitudeMeters>
            <DistanceMeters>10469.507399252</DistanceMeters>
          </Trackpoint>
          <Trackpoint>
            <Time>2021-03-31T17:06:12.000Z</Time>
            <Position>
              <LatitudeDegrees>42.43577406741678714752197265625</LatitudeDegrees>
              <LongitudeDegrees>2.80589262954890727996826171875</LongitudeDegrees>
            </Position>
            <AltitudeMeters>729.79998779296875</AltitudeMeters>
            <DistanceMeters>10473.849610626</DistanceMeters>
          </Trackpoint>
          <Trackpoint>
            <Time>2021-03-31T17:06:15.000Z</Time>
            <Position>
              <LatitudeDegrees>42.43572880513966083526611328125</LatitudeDegrees>
              <LongitudeDegrees>2.805907465517520904541015625</LongitudeDegrees>
            </Position>
            <AltitudeMeters>730</AltitudeMeters>
            <DistanceMeters>10479.031834796</DistanceMeters>
          </Trackpoint>
          <Trackpoint>
            <Time>2021-03-31T17:06:18.000Z</Time>
            <Position>
              <LatitudeDegrees>42.43569628335535526275634765625</LatitudeDegrees>
              <LongitudeDegrees>2.80593596398830413818359375</LongitudeDegrees>
            </Position>
            <AltitudeMeters>730.20001220703125</AltitudeMeters>
            <DistanceMeters>10483.341691782</DistanceMeters>
          </Trackpoint>
          <Trackpoint>
            <Time>2021-03-31T17:06:24.000Z</Time>
            <Position>
              <LatitudeDegrees>42.4356403760612010955810546875</LatitudeDegrees>
              <LongitudeDegrees>2.80598156154155731201171875</LongitudeDegrees>
            </Position>
            <AltitudeMeters>730.4000244140625</AltitudeMeters>
            <DistanceMeters>10490.603623098</DistanceMeters>
          </Trackpoint>
          <Trackpoint>
            <Time>2021-03-31T17:06:27.000Z</Time>
            <Position>
              <LatitudeDegrees>42.43560357950627803802490234375</LatitudeDegrees>
              <LongitudeDegrees>2.8059880994260311126708984375</LongitudeDegrees>
            </Position>
            <AltitudeMeters>730.4000244140625</AltitudeMeters>
            <DistanceMeters>10494.734826855</DistanceMeters>
          </Trackpoint>
          <Trackpoint>
            <Time>2021-03-31T17:06:32.000Z</Time>
            <Position>
              <LatitudeDegrees>42.4355599097907543182373046875</LatitudeDegrees>
              <LongitudeDegrees>2.80602657236158847808837890625</LongitudeDegrees>
            </Position>
            <AltitudeMeters>730</AltitudeMeters>
            <DistanceMeters>10500.532235286</DistanceMeters>
          </Trackpoint>
          <Trackpoint>
            <Time>2021-03-31T17:06:39.000Z</Time>
            <Position>
              <LatitudeDegrees>42.43548355065286159515380859375</LatitudeDegrees>
              <LongitudeDegrees>2.80601081438362598419189453125</LongitudeDegrees>
            </Position>
            <AltitudeMeters>729.79998779296875</AltitudeMeters>
            <DistanceMeters>10509.128871001</DistanceMeters>
          </Trackpoint>
          <Trackpoint>
            <Time>2021-03-31T17:06:42.000Z</Time>
            <Position>
              <LatitudeDegrees>42.43546410463750362396240234375</LatitudeDegrees>
              <LongitudeDegrees>2.80599354766309261322021484375</LongitudeDegrees>
            </Position>
            <AltitudeMeters>729.5999755859375</AltitudeMeters>
            <DistanceMeters>10511.715623144</DistanceMeters>
          </Trackpoint>
          <Trackpoint>
            <Time>2021-03-31T17:06:46.000Z</Time>
            <Position>
              <LatitudeDegrees>42.43542873300611972808837890625</LatitudeDegrees>
              <LongitudeDegrees>2.8059525601565837860107421875</LongitudeDegrees>
            </Position>
            <AltitudeMeters>729.5999755859375</AltitudeMeters>
            <DistanceMeters>10516.89610451</DistanceMeters>
          </Trackpoint>
          <Trackpoint>
            <Time>2021-03-31T17:06:47.000Z</Time>
            <Position>
              <LatitudeDegrees>42.4354207701981067657470703125</LatitudeDegrees>
              <LongitudeDegrees>2.805938310921192169189453125</LongitudeDegrees>
            </Position>
            <AltitudeMeters>729.5999755859375</AltitudeMeters>
            <DistanceMeters>10518.365181864</DistanceMeters>
          </Trackpoint>
          <Trackpoint>
            <Time>2021-03-31T17:06:50.000Z</Time>
            <Position>
              <LatitudeDegrees>42.4354036711156368255615234375</LatitudeDegrees>
              <LongitudeDegrees>2.80590084381401538848876953125</LongitudeDegrees>
            </Position>
            <AltitudeMeters>729.79998779296875</AltitudeMeters>
            <DistanceMeters>10521.983691342</DistanceMeters>
          </Trackpoint>
          <Trackpoint>
            <Time>2021-03-31T17:06:54.000Z</Time>
            <Position>
              <LatitudeDegrees>42.43538799695670604705810546875</LatitudeDegrees>
              <LongitudeDegrees>2.80584954656660556793212890625</LongitudeDegrees>
            </Position>
            <AltitudeMeters>729.79998779296875</AltitudeMeters>
            <DistanceMeters>10526.543983663</DistanceMeters>
          </Trackpoint>
          <Trackpoint>
            <Time>2021-03-31T17:07:01.000Z</Time>
            <Position>
              <LatitudeDegrees>42.43536285124719142913818359375</LatitudeDegrees>
              <LongitudeDegrees>2.8057725168764591217041015625</LongitudeDegrees>
            </Position>
            <AltitudeMeters>730</AltitudeMeters>
            <DistanceMeters>10533.463338062</DistanceMeters>
          </Trackpoint>
          <Trackpoint>
            <Time>2021-03-31T17:07:09.000Z</Time>
            <Position>
              <LatitudeDegrees>42.4353644438087940216064453125</LatitudeDegrees>
              <LongitudeDegrees>2.80568039976060390472412109375</LongitudeDegrees>
            </Position>
            <AltitudeMeters>729.79998779296875</AltitudeMeters>
            <DistanceMeters>10541.032142787</DistanceMeters>
          </Trackpoint>
          <Trackpoint>
            <Time>2021-03-31T17:07:11.000Z</Time>
            <Position>
              <LatitudeDegrees>42.43536754511296749114990234375</LatitudeDegrees>
              <LongitudeDegrees>2.80565575696527957916259765625</LongitudeDegrees>
            </Position>
            <AltitudeMeters>729.79998779296875</AltitudeMeters>
            <DistanceMeters>10543.087884934</DistanceMeters>
          </Trackpoint>
          <Trackpoint>
            <Time>2021-03-31T17:07:14.000Z</Time>
            <Position>
              <LatitudeDegrees>42.43537642993032932281494140625</LatitudeDegrees>
              <LongitudeDegrees>2.80560479499399662017822265625</LongitudeDegrees>
            </Position>
            <AltitudeMeters>730</AltitudeMeters>
            <DistanceMeters>10547.389352897</DistanceMeters>
          </Trackpoint>
          <Trackpoint>
            <Time>2021-03-31T17:07:16.000Z</Time>
            <Position>
              <LatitudeDegrees>42.43538640439510345458984375</LatitudeDegrees>
              <LongitudeDegrees>2.80557378195226192474365234375</LongitudeDegrees>
            </Position>
            <AltitudeMeters>730</AltitudeMeters>
            <DistanceMeters>10550.167970423</DistanceMeters>
          </Trackpoint>
          <Trackpoint>
            <Time>2021-03-31T17:07:18.000Z</Time>
            <Position>
              <LatitudeDegrees>42.4353991448879241943359375</LatitudeDegrees>
              <LongitudeDegrees>2.80554628930985927581787109375</LongitudeDegrees>
            </Position>
            <AltitudeMeters>730</AltitudeMeters>
            <DistanceMeters>10552.835497413</DistanceMeters>
          </Trackpoint>
          <Trackpoint>
            <Time>2021-03-31T17:07:21.000Z</Time>
            <Position>
              <LatitudeDegrees>42.43541456758975982666015625</LatitudeDegrees>
              <LongitudeDegrees>2.8054972551763057708740234375</LongitudeDegrees>
            </Position>
            <AltitudeMeters>730.20001220703125</AltitudeMeters>
            <DistanceMeters>10557.212919281</DistanceMeters>
          </Trackpoint>
          <Trackpoint>
            <Time>2021-03-31T17:07:30.000Z</Time>
            <Position>
              <LatitudeDegrees>42.43542118929326534271240234375</LatitudeDegrees>
              <LongitudeDegrees>2.80537228100001811981201171875</LongitudeDegrees>
            </Position>
            <AltitudeMeters>731</AltitudeMeters>
            <DistanceMeters>10567.504799415</DistanceMeters>
          </Trackpoint>
          <Trackpoint>
            <Time>2021-03-31T17:07:31.000Z</Time>
            <Position>
              <LatitudeDegrees>42.435422278940677642822265625</LatitudeDegrees>
              <LongitudeDegrees>2.8053597919642925262451171875</LongitudeDegrees>
            </Position>
            <AltitudeMeters>731</AltitudeMeters>
            <DistanceMeters>10568.537053754</DistanceMeters>
          </Trackpoint>
          <Trackpoint>
            <Time>2021-03-31T17:07:37.000Z</Time>
            <Position>
              <LatitudeDegrees>42.4354445748031139373779296875</LatitudeDegrees>
              <LongitudeDegrees>2.80530019663274288177490234375</LongitudeDegrees>
            </Position>
            <AltitudeMeters>731.4000244140625</AltitudeMeters>
            <DistanceMeters>10574.024795087</DistanceMeters>
          </Trackpoint>
          <Trackpoint>
            <Time>2021-03-31T17:07:46.000Z</Time>
            <Position>
              <LatitudeDegrees>42.43546024896204471588134765625</LatitudeDegrees>
              <LongitudeDegrees>2.80516239814460277557373046875</LongitudeDegrees>
            </Position>
            <AltitudeMeters>731.79998779296875</AltitudeMeters>
            <DistanceMeters>10585.477781179</DistanceMeters>
          </Trackpoint>
          <Trackpoint>
            <Time>2021-03-31T17:07:53.000Z</Time>
            <Position>
              <LatitudeDegrees>42.43545102886855602264404296875</LatitudeDegrees>
              <LongitudeDegrees>2.80504086054861545562744140625</LongitudeDegrees>
            </Position>
            <AltitudeMeters>731.79998779296875</AltitudeMeters>
            <DistanceMeters>10595.51378998</DistanceMeters>
          </Trackpoint>
          <Trackpoint>
            <Time>2021-03-31T17:07:54.000Z</Time>
            <Position>
              <LatitudeDegrees>42.4354608356952667236328125</LatitudeDegrees>
              <LongitudeDegrees>2.8050298802554607391357421875</LongitudeDegrees>
            </Position>
            <AltitudeMeters>731.79998779296875</AltitudeMeters>
            <DistanceMeters>10596.929656136</DistanceMeters>
          </Trackpoint>
          <Trackpoint>
            <Time>2021-03-31T17:07:55.000Z</Time>
            <Position>
              <LatitudeDegrees>42.43546326644718647003173828125</LatitudeDegrees>
              <LongitudeDegrees>2.80501437373459339141845703125</LongitudeDegrees>
            </Position>
            <AltitudeMeters>731.79998779296875</AltitudeMeters>
            <DistanceMeters>10598.232596799</DistanceMeters>
          </Trackpoint>
          <Trackpoint>
            <Time>2021-03-31T17:07:58.000Z</Time>
            <Position>
              <LatitudeDegrees>42.4354640208184719085693359375</LatitudeDegrees>
              <LongitudeDegrees>2.80497849918901920318603515625</LongitudeDegrees>
            </Position>
            <AltitudeMeters>732</AltitudeMeters>
            <DistanceMeters>10601.179957235</DistanceMeters>
          </Trackpoint>
          <Trackpoint>
            <Time>2021-03-31T17:08:00.000Z</Time>
            <Position>
              <LatitudeDegrees>42.4354613386094570159912109375</LatitudeDegrees>
              <LongitudeDegrees>2.8049440495669841766357421875</LongitudeDegrees>
            </Position>
            <AltitudeMeters>732.20001220703125</AltitudeMeters>
            <DistanceMeters>10604.026003364</DistanceMeters>
          </Trackpoint>
          <Trackpoint>
            <Time>2021-03-31T17:08:01.000Z</Time>
            <Position>
              <LatitudeDegrees>42.4354633502662181854248046875</LatitudeDegrees>
              <LongitudeDegrees>2.80492611229419708251953125</LongitudeDegrees>
            </Position>
            <AltitudeMeters>732.4000244140625</AltitudeMeters>
            <DistanceMeters>10605.513406715</DistanceMeters>
          </Trackpoint>
          <Trackpoint>
            <Time>2021-03-31T17:08:04.000Z</Time>
            <Position>
              <LatitudeDegrees>42.43547097779810428619384765625</LatitudeDegrees>
              <LongitudeDegrees>2.80487707816064357757568359375</LongitudeDegrees>
            </Position>
            <AltitudeMeters>732.79998779296875</AltitudeMeters>
            <DistanceMeters>10609.629281277</DistanceMeters>
          </Trackpoint>
          <Trackpoint>
            <Time>2021-03-31T17:08:06.000Z</Time>
            <Position>
              <LatitudeDegrees>42.43547952733933925628662109375</LatitudeDegrees>
              <LongitudeDegrees>2.80483248643577098846435546875</LongitudeDegrees>
            </Position>
            <AltitudeMeters>733.20001220703125</AltitudeMeters>
            <DistanceMeters>10613.413683639</DistanceMeters>
          </Trackpoint>
          <Trackpoint>
            <Time>2021-03-31T17:08:07.000Z</Time>
            <Position>
              <LatitudeDegrees>42.43547650985419750213623046875</LatitudeDegrees>
              <LongitudeDegrees>2.804807089269161224365234375</LongitudeDegrees>
            </Position>
            <AltitudeMeters>733.20001220703125</AltitudeMeters>
            <DistanceMeters>10615.527894565</DistanceMeters>
          </Trackpoint>
          <Trackpoint>
            <Time>2021-03-31T17:08:12.000Z</Time>
            <Position>
              <LatitudeDegrees>42.435488998889923095703125</LatitudeDegrees>
              <LongitudeDegrees>2.80470617115497589111328125</LongitudeDegrees>
            </Position>
            <AltitudeMeters>734</AltitudeMeters>
            <DistanceMeters>10623.933328409</DistanceMeters>
          </Trackpoint>
          <Trackpoint>
            <Time>2021-03-31T17:08:14.000Z</Time>
            <Position>
              <LatitudeDegrees>42.43550710380077362060546875</LatitudeDegrees>
              <LongitudeDegrees>2.80467725358903408050537109375</LongitudeDegrees>
            </Position>
            <AltitudeMeters>734.20001220703125</AltitudeMeters>
            <DistanceMeters>10627.047538116</DistanceMeters>
          </Trackpoint>
          <Trackpoint>
            <Time>2021-03-31T17:08:16.000Z</Time>
            <Position>
              <LatitudeDegrees>42.43551380932331085205078125</LatitudeDegrees>
              <LongitudeDegrees>2.8046530298888683319091796875</LongitudeDegrees>
            </Position>
            <AltitudeMeters>734.4000244140625</AltitudeMeters>
            <DistanceMeters>10629.170274121</DistanceMeters>
          </Trackpoint>
          <Trackpoint>
            <Time>2021-03-31T17:08:20.000Z</Time>
            <Position>
              <LatitudeDegrees>42.43551422841846942901611328125</LatitudeDegrees>
              <LongitudeDegrees>2.80458656139671802520751953125</LongitudeDegrees>
            </Position>
            <AltitudeMeters>735.20001220703125</AltitudeMeters>
            <DistanceMeters>10634.629143259</DistanceMeters>
          </Trackpoint>
          <Trackpoint>
            <Time>2021-03-31T17:08:21.000Z</Time>
            <Position>
              <LatitudeDegrees>42.4355143122375011444091796875</LatitudeDegrees>
              <LongitudeDegrees>2.8045728988945484161376953125</LongitudeDegrees>
            </Position>
            <AltitudeMeters>735.4000244140625</AltitudeMeters>
            <DistanceMeters>10635.745454393</DistanceMeters>
          </Trackpoint>
          <Trackpoint>
            <Time>2021-03-31T17:08:24.000Z</Time>
            <Position>
              <LatitudeDegrees>42.43552453815937042236328125</LatitudeDegrees>
              <LongitudeDegrees>2.80452822335064411163330078125</LongitudeDegrees>
            </Position>
            <AltitudeMeters>735.79998779296875</AltitudeMeters>
            <DistanceMeters>10639.58787225</DistanceMeters>
          </Trackpoint>
          <Trackpoint>
            <Time>2021-03-31T17:08:26.000Z</Time>
            <Position>
              <LatitudeDegrees>42.4355297349393367767333984375</LatitudeDegrees>
              <LongitudeDegrees>2.80450508929789066314697265625</LongitudeDegrees>
            </Position>
            <AltitudeMeters>736.20001220703125</AltitudeMeters>
            <DistanceMeters>10641.574362473</DistanceMeters>
          </Trackpoint>
          <Trackpoint>
            <Time>2021-03-31T17:08:27.000Z</Time>
            <Position>
              <LatitudeDegrees>42.43553400970995426177978515625</LatitudeDegrees>
              <LongitudeDegrees>2.8044877387583255767822265625</LongitudeDegrees>
            </Position>
            <AltitudeMeters>736.4000244140625</AltitudeMeters>
            <DistanceMeters>10643.076866753</DistanceMeters>
          </Trackpoint>
          <Trackpoint>
            <Time>2021-03-31T17:08:28.000Z</Time>
            <Position>
              <LatitudeDegrees>42.43553618900477886199951171875</LatitudeDegrees>
              <LongitudeDegrees>2.80447139404714107513427734375</LongitudeDegrees>
            </Position>
            <AltitudeMeters>736.5999755859375</AltitudeMeters>
            <DistanceMeters>10644.437442245</DistanceMeters>
          </Trackpoint>
          <Trackpoint>
            <Time>2021-03-31T17:08:29.000Z</Time>
            <Position>
              <LatitudeDegrees>42.435539625585079193115234375</LatitudeDegrees>
              <LongitudeDegrees>2.80445630662143230438232421875</LongitudeDegrees>
            </Position>
            <AltitudeMeters>736.79998779296875</AltitudeMeters>
            <DistanceMeters>10645.73691302</DistanceMeters>
          </Trackpoint>
          <Trackpoint>
            <Time>2021-03-31T17:08:31.000Z</Time>
            <Position>
              <LatitudeDegrees>42.43554457090795040130615234375</LatitudeDegrees>
              <LongitudeDegrees>2.80443568713963031768798828125</LongitudeDegrees>
            </Position>
            <AltitudeMeters>737.20001220703125</AltitudeMeters>
            <DistanceMeters>10647.519772215</DistanceMeters>
          </Trackpoint>
          <Trackpoint>
            <Time>2021-03-31T17:08:33.000Z</Time>
            <Position>
              <LatitudeDegrees>42.4355508573353290557861328125</LatitudeDegrees>
              <LongitudeDegrees>2.80441272072494029998779296875</LongitudeDegrees>
            </Position>
            <AltitudeMeters>737.5999755859375</AltitudeMeters>
            <DistanceMeters>10649.531108648</DistanceMeters>
          </Trackpoint>
          <Trackpoint>
            <Time>2021-03-31T17:08:34.000Z</Time>
            <Position>
              <LatitudeDegrees>42.435552366077899932861328125</LatitudeDegrees>
              <LongitudeDegrees>2.80440517701208591461181640625</LongitudeDegrees>
            </Position>
            <AltitudeMeters>737.79998779296875</AltitudeMeters>
            <DistanceMeters>10650.168567227</DistanceMeters>
          </Trackpoint>
          <Trackpoint>
            <Time>2021-03-31T17:08:35.000Z</Time>
            <Position>
              <LatitudeDegrees>42.43555395863950252532958984375</LatitudeDegrees>
              <LongitudeDegrees>2.80440299771726131439208984375</LongitudeDegrees>
            </Position>
            <AltitudeMeters>737.79998779296875</AltitudeMeters>
            <DistanceMeters>10650.419984281</DistanceMeters>
          </Trackpoint>
          <Trackpoint>
            <Time>2021-03-31T17:08:39.000Z</Time>
            <Position>
              <LatitudeDegrees>42.43556267581880092620849609375</LatitudeDegrees>
              <LongitudeDegrees>2.804372571408748626708984375</LongitudeDegrees>
            </Position>
            <AltitudeMeters>738.5999755859375</AltitudeMeters>
            <DistanceMeters>10653.101017823</DistanceMeters>
          </Trackpoint>
          <Trackpoint>
            <Time>2021-03-31T17:08:45.000Z</Time>
            <Position>
              <LatitudeDegrees>42.43559427559375762939453125</LatitudeDegrees>
              <LongitudeDegrees>2.80431230552494525909423828125</LongitudeDegrees>
            </Position>
            <AltitudeMeters>739.79998779296875</AltitudeMeters>
            <DistanceMeters>10659.173812253</DistanceMeters>
          </Trackpoint>
          <Trackpoint>
            <Time>2021-03-31T17:08:47.000Z</Time>
            <Position>
              <LatitudeDegrees>42.4355974607169628143310546875</LatitudeDegrees>
              <LongitudeDegrees>2.80429579317569732666015625</LongitudeDegrees>
            </Position>
            <AltitudeMeters>740</AltitudeMeters>
            <DistanceMeters>10660.576864877</DistanceMeters>
          </Trackpoint>
          <Trackpoint>
            <Time>2021-03-31T17:08:49.000Z</Time>
            <Position>
              <LatitudeDegrees>42.43559972383081912994384765625</LatitudeDegrees>
              <LongitudeDegrees>2.80426771380007266998291015625</LongitudeDegrees>
            </Position>
            <AltitudeMeters>740.4000244140625</AltitudeMeters>
            <DistanceMeters>10662.896762625</DistanceMeters>
          </Trackpoint>
          <Trackpoint>
            <Time>2021-03-31T17:08:52.000Z</Time>
            <Position>
              <LatitudeDegrees>42.435599975287914276123046875</LatitudeDegrees>
              <LongitudeDegrees>2.80423686839640140533447265625</LongitudeDegrees>
            </Position>
            <AltitudeMeters>741</AltitudeMeters>
            <DistanceMeters>10665.428827844</DistanceMeters>
          </Trackpoint>
          <Trackpoint>
            <Time>2021-03-31T17:08:57.000Z</Time>
            <Position>
              <LatitudeDegrees>42.43557206355035305023193359375</LatitudeDegrees>
              <LongitudeDegrees>2.80411264859139919281005859375</LongitudeDegrees>
            </Position>
            <AltitudeMeters>741.79998779296875</AltitudeMeters>
            <DistanceMeters>10676.095550077</DistanceMeters>
          </Trackpoint>
          <Trackpoint>
            <Time>2021-03-31T17:08:58.000Z</Time>
            <Position>
              <LatitudeDegrees>42.43557147681713104248046875</LatitudeDegrees>
              <LongitudeDegrees>2.80409395694732666015625</LongitudeDegrees>
            </Position>
            <AltitudeMeters>742</AltitudeMeters>
            <DistanceMeters>10677.633691822</DistanceMeters>
          </Trackpoint>
          <Trackpoint>
            <Time>2021-03-31T17:08:59.000Z</Time>
            <Position>
              <LatitudeDegrees>42.435572482645511627197265625</LatitudeDegrees>
              <LongitudeDegrees>2.80407358892261981964111328125</LongitudeDegrees>
            </Position>
            <AltitudeMeters>742.20001220703125</AltitudeMeters>
            <DistanceMeters>10679.312198257</DistanceMeters>
          </Trackpoint>
          <Trackpoint>
            <Time>2021-03-31T17:09:02.000Z</Time>
            <Position>
              <LatitudeDegrees>42.4355669505894184112548828125</LatitudeDegrees>
              <LongitudeDegrees>2.80402681790292263031005859375</LongitudeDegrees>
            </Position>
            <AltitudeMeters>742.5999755859375</AltitudeMeters>
            <DistanceMeters>10683.203655336</DistanceMeters>
          </Trackpoint>
          <Trackpoint>
            <Time>2021-03-31T17:09:05.000Z</Time>
            <Position>
              <LatitudeDegrees>42.43555982597172260284423828125</LatitudeDegrees>
              <LongitudeDegrees>2.80399211682379245758056640625</LongitudeDegrees>
            </Position>
            <AltitudeMeters>743.20001220703125</AltitudeMeters>
            <DistanceMeters>10686.163245535</DistanceMeters>
          </Trackpoint>
          <Trackpoint>
            <Time>2021-03-31T17:09:06.000Z</Time>
            <Position>
              <LatitudeDegrees>42.43556133471429347991943359375</LatitudeDegrees>
              <LongitudeDegrees>2.80398474074900150299072265625</LongitudeDegrees>
            </Position>
            <AltitudeMeters>743.20001220703125</AltitudeMeters>
            <DistanceMeters>10686.800704114</DistanceMeters>
          </Trackpoint>
          <Trackpoint>
            <Time>2021-03-31T17:09:07.000Z</Time>
            <Position>
              <LatitudeDegrees>42.43556384928524494171142578125</LatitudeDegrees>
              <LongitudeDegrees>2.80398222617805004119873046875</LongitudeDegrees>
            </Position>
            <AltitudeMeters>743.4000244140625</AltitudeMeters>
            <DistanceMeters>10687.156261522</DistanceMeters>
          </Trackpoint>
          <Trackpoint>
            <Time>2021-03-31T17:09:10.000Z</Time>
            <Position>
              <LatitudeDegrees>42.43556653149425983428955078125</LatitudeDegrees>
              <LongitudeDegrees>2.80396454036235809326171875</LongitudeDegrees>
            </Position>
            <AltitudeMeters>743.79998779296875</AltitudeMeters>
            <DistanceMeters>10688.640626252</DistanceMeters>
          </Trackpoint>
          <Trackpoint>
            <Time>2021-03-31T17:09:13.000Z</Time>
            <Position>
              <LatitudeDegrees>42.43556552566587924957275390625</LatitudeDegrees>
              <LongitudeDegrees>2.80393746681511402130126953125</LongitudeDegrees>
            </Position>
            <AltitudeMeters>744.20001220703125</AltitudeMeters>
            <DistanceMeters>10690.865144603</DistanceMeters>
          </Trackpoint>
          <Trackpoint>
            <Time>2021-03-31T17:09:14.000Z</Time>
            <Position>
              <LatitudeDegrees>42.43556099943816661834716796875</LatitudeDegrees>
              <LongitudeDegrees>2.8039295040071010589599609375</LongitudeDegrees>
            </Position>
            <AltitudeMeters>744.4000244140625</AltitudeMeters>
            <DistanceMeters>10691.682595309</DistanceMeters>
          </Trackpoint>
          <Trackpoint>
            <Time>2021-03-31T17:09:17.000Z</Time>
            <Position>
              <LatitudeDegrees>42.4355518631637096405029296875</LatitudeDegrees>
              <LongitudeDegrees>2.80391382984817028045654296875</LongitudeDegrees>
            </Position>
            <AltitudeMeters>744.5999755859375</AltitudeMeters>
            <DistanceMeters>10693.325760808</DistanceMeters>
          </Trackpoint>
          <Trackpoint>
            <Time>2021-03-31T17:09:19.000Z</Time>
            <Position>
              <LatitudeDegrees>42.4355413019657135009765625</LatitudeDegrees>
              <LongitudeDegrees>2.803898490965366363525390625</LongitudeDegrees>
            </Position>
            <AltitudeMeters>745.20001220703125</AltitudeMeters>
            <DistanceMeters>10695.0520068</DistanceMeters>
          </Trackpoint>
          <Trackpoint>
            <Time>2021-03-31T17:09:21.000Z</Time>
            <Position>
              <LatitudeDegrees>42.43553451262414455413818359375</LatitudeDegrees>
              <LongitudeDegrees>2.80388868413865566253662109375</LongitudeDegrees>
            </Position>
            <AltitudeMeters>745.5999755859375</AltitudeMeters>
            <DistanceMeters>10696.156117447</DistanceMeters>
          </Trackpoint>
          <Trackpoint>
            <Time>2021-03-31T17:09:24.000Z</Time>
            <Position>
              <LatitudeDegrees>42.4355320818722248077392578125</LatitudeDegrees>
              <LongitudeDegrees>2.8038802184164524078369140625</LongitudeDegrees>
            </Position>
            <AltitudeMeters>746</AltitudeMeters>
            <DistanceMeters>10696.904358544</DistanceMeters>
          </Trackpoint>
          <Trackpoint>
            <Time>2021-03-31T17:09:28.000Z</Time>
            <Position>
              <LatitudeDegrees>42.4355185031890869140625</LatitudeDegrees>
              <LongitudeDegrees>2.80386907048523426055908203125</LongitudeDegrees>
            </Position>
            <AltitudeMeters>746.5999755859375</AltitudeMeters>
            <DistanceMeters>10698.671957608</DistanceMeters>
          </Trackpoint>
          <Trackpoint>
            <Time>2021-03-31T17:09:30.000Z</Time>
            <Position>
              <LatitudeDegrees>42.43551070801913738250732421875</LatitudeDegrees>
              <LongitudeDegrees>2.80384652316570281982421875</LongitudeDegrees>
            </Position>
            <AltitudeMeters>746.79998779296875</AltitudeMeters>
            <DistanceMeters>10700.716688737</DistanceMeters>
          </Trackpoint>
          <Trackpoint>
            <Time>2021-03-31T17:09:31.000Z</Time>
            <Position>
              <LatitudeDegrees>42.43551104329526424407958984375</LatitudeDegrees>
              <LongitudeDegrees>2.8038351237773895263671875</LongitudeDegrees>
            </Position>
            <AltitudeMeters>746.79998779296875</AltitudeMeters>
            <DistanceMeters>10701.652593335</DistanceMeters>
          </Trackpoint>
          <Trackpoint>
            <Time>2021-03-31T17:09:32.000Z</Time>
            <Position>
              <LatitudeDegrees>42.435502745211124420166015625</LatitudeDegrees>
              <LongitudeDegrees>2.80381827615201473236083984375</LongitudeDegrees>
            </Position>
            <AltitudeMeters>747</AltitudeMeters>
            <DistanceMeters>10703.317595878</DistanceMeters>
          </Trackpoint>
          <Trackpoint>
            <Time>2021-03-31T17:09:38.000Z</Time>
            <Position>
              <LatitudeDegrees>42.4354811199009418487548828125</LatitudeDegrees>
              <LongitudeDegrees>2.803771756589412689208984375</LongitudeDegrees>
            </Position>
            <AltitudeMeters>747.5999755859375</AltitudeMeters>
            <DistanceMeters>10707.833114963</DistanceMeters>
          </Trackpoint>
          <Trackpoint>
            <Time>2021-03-31T17:09:39.000Z</Time>
            <Position>
              <LatitudeDegrees>42.43548036552965641021728515625</LatitudeDegrees>
              <LongitudeDegrees>2.80376027338206768035888671875</LongitudeDegrees>
            </Position>
            <AltitudeMeters>747.79998779296875</AltitudeMeters>
            <DistanceMeters>10708.783382107</DistanceMeters>
          </Trackpoint>
          <Trackpoint>
            <Time>2021-03-31T17:09:46.000Z</Time>
            <Position>
              <LatitudeDegrees>42.43545773439109325408935546875</LatitudeDegrees>
              <LongitudeDegrees>2.80369338579475879669189453125</LongitudeDegrees>
            </Position>
            <AltitudeMeters>748.79998779296875</AltitudeMeters>
            <DistanceMeters>10714.827111023</DistanceMeters>
          </Trackpoint>
          <Trackpoint>
            <Time>2021-03-31T17:09:50.000Z</Time>
            <Position>
              <LatitudeDegrees>42.43542890064418315887451171875</LatitudeDegrees>
              <LongitudeDegrees>2.80364225618541240692138671875</LongitudeDegrees>
            </Position>
            <AltitudeMeters>749</AltitudeMeters>
            <DistanceMeters>10720.11199763</DistanceMeters>
          </Trackpoint>
          <Trackpoint>
            <Time>2021-03-31T17:09:54.000Z</Time>
            <Position>
              <LatitudeDegrees>42.43542169220745563507080078125</LatitudeDegrees>
              <LongitudeDegrees>2.8035861812531948089599609375</LongitudeDegrees>
            </Position>
            <AltitudeMeters>749.20001220703125</AltitudeMeters>
            <DistanceMeters>10724.787659622</DistanceMeters>
          </Trackpoint>
          <Trackpoint>
            <Time>2021-03-31T17:09:57.000Z</Time>
            <Position>
              <LatitudeDegrees>42.43541993200778961181640625</LatitudeDegrees>
              <LongitudeDegrees>2.803549803793430328369140625</LongitudeDegrees>
            </Position>
            <AltitudeMeters>749.79998779296875</AltitudeMeters>
            <DistanceMeters>10727.780624011</DistanceMeters>
          </Trackpoint>
          <Trackpoint>
            <Time>2021-03-31T17:10:00.000Z</Time>
            <Position>
              <LatitudeDegrees>42.4354090355336666107177734375</LatitudeDegrees>
              <LongitudeDegrees>2.80350931920111179351806640625</LongitudeDegrees>
            </Position>
            <AltitudeMeters>750</AltitudeMeters>
            <DistanceMeters>10731.32092712</DistanceMeters>
          </Trackpoint>
          <Trackpoint>
            <Time>2021-03-31T17:10:01.000Z</Time>
            <Position>
              <LatitudeDegrees>42.43540157563984394073486328125</LatitudeDegrees>
              <LongitudeDegrees>2.80349917709827423095703125</LongitudeDegrees>
            </Position>
            <AltitudeMeters>750</AltitudeMeters>
            <DistanceMeters>10732.500177633</DistanceMeters>
          </Trackpoint>
          <Trackpoint>
            <Time>2021-03-31T17:10:02.000Z</Time>
            <Position>
              <LatitudeDegrees>42.43539453484117984771728515625</LatitudeDegrees>
              <LongitudeDegrees>2.8034918010234832763671875</LongitudeDegrees>
            </Position>
            <AltitudeMeters>750</AltitudeMeters>
            <DistanceMeters>10733.487724217</DistanceMeters>
          </Trackpoint>
          <Trackpoint>
            <Time>2021-03-31T17:10:06.000Z</Time>
            <Position>
              <LatitudeDegrees>42.435381710529327392578125</LatitudeDegrees>
              <LongitudeDegrees>2.80344930477440357208251953125</LongitudeDegrees>
            </Position>
            <AltitudeMeters>750.20001220703125</AltitudeMeters>
            <DistanceMeters>10737.258980029</DistanceMeters>
          </Trackpoint>
          <Trackpoint>
            <Time>2021-03-31T17:10:08.000Z</Time>
            <Position>
              <LatitudeDegrees>42.43536922149360179901123046875</LatitudeDegrees>
              <LongitudeDegrees>2.80342734418809413909912109375</LongitudeDegrees>
            </Position>
            <AltitudeMeters>750.20001220703125</AltitudeMeters>
            <DistanceMeters>10739.535658285</DistanceMeters>
          </Trackpoint>
          <Trackpoint>
            <Time>2021-03-31T17:10:09.000Z</Time>
            <Position>
              <LatitudeDegrees>42.43535866029560565948486328125</LatitudeDegrees>
              <LongitudeDegrees>2.8034259192645549774169921875</LongitudeDegrees>
            </Position>
            <AltitudeMeters>750.20001220703125</AltitudeMeters>
            <DistanceMeters>10740.714908798</DistanceMeters>
          </Trackpoint>
          <Trackpoint>
            <Time>2021-03-31T17:10:12.000Z</Time>
            <Position>
              <LatitudeDegrees>42.43534885346889495849609375</LatitudeDegrees>
              <LongitudeDegrees>2.80341594479978084564208984375</LongitudeDegrees>
            </Position>
            <AltitudeMeters>750.79998779296875</AltitudeMeters>
            <DistanceMeters>10742.07879873</DistanceMeters>
          </Trackpoint>
          <Trackpoint>
            <Time>2021-03-31T17:10:14.000Z</Time>
            <Position>
              <LatitudeDegrees>42.4353409744799137115478515625</LatitudeDegrees>
              <LongitudeDegrees>2.80339716933667659759521484375</LongitudeDegrees>
            </Position>
            <AltitudeMeters>751.4000244140625</AltitudeMeters>
            <DistanceMeters>10743.854044256</DistanceMeters>
          </Trackpoint>
          <Trackpoint>
            <Time>2021-03-31T17:10:15.000Z</Time>
            <Position>
              <LatitudeDegrees>42.43533569388091564178466796875</LatitudeDegrees>
              <LongitudeDegrees>2.803388535976409912109375</LongitudeDegrees>
            </Position>
            <AltitudeMeters>751.5999755859375</AltitudeMeters>
            <DistanceMeters>10744.775362435</DistanceMeters>
          </Trackpoint>
          <Trackpoint>
            <Time>2021-03-31T17:10:17.000Z</Time>
            <Position>
              <LatitudeDegrees>42.43531909771263599395751953125</LatitudeDegrees>
              <LongitudeDegrees>2.80336297117173671722412109375</LongitudeDegrees>
            </Position>
            <AltitudeMeters>752</AltitudeMeters>
            <DistanceMeters>10747.575024263</DistanceMeters>
          </Trackpoint>
          <Trackpoint>
            <Time>2021-03-31T17:10:18.000Z</Time>
            <Position>
              <LatitudeDegrees>42.43530903942883014678955078125</LatitudeDegrees>
              <LongitudeDegrees>2.80334587208926677703857421875</LongitudeDegrees>
            </Position>
            <AltitudeMeters>752</AltitudeMeters>
            <DistanceMeters>10749.373014076</DistanceMeters>
          </Trackpoint>
          <Trackpoint>
            <Time>2021-03-31T17:10:22.000Z</Time>
            <Position>
              <LatitudeDegrees>42.43529059924185276031494140625</LatitudeDegrees>
              <LongitudeDegrees>2.80331653542816638946533203125</LongitudeDegrees>
            </Position>
            <AltitudeMeters>752.5999755859375</AltitudeMeters>
            <DistanceMeters>10752.538987047</DistanceMeters>
          </Trackpoint>
          <Trackpoint>
            <Time>2021-03-31T17:10:23.000Z</Time>
            <Position>
              <LatitudeDegrees>42.43528456427156925201416015625</LatitudeDegrees>
              <LongitudeDegrees>2.803311757743358612060546875</LongitudeDegrees>
            </Position>
            <AltitudeMeters>752.5999755859375</AltitudeMeters>
            <DistanceMeters>10753.316814227</DistanceMeters>
          </Trackpoint>
          <Trackpoint>
            <Time>2021-03-31T17:10:26.000Z</Time>
            <Position>
              <LatitudeDegrees>42.4352672137320041656494140625</LatitudeDegrees>
              <LongitudeDegrees>2.80328518711030483245849609375</LongitudeDegrees>
            </Position>
            <AltitudeMeters>753.20001220703125</AltitudeMeters>
            <DistanceMeters>10756.23027812</DistanceMeters>
          </Trackpoint>
          <Trackpoint>
            <Time>2021-03-31T17:10:28.000Z</Time>
            <Position>
              <LatitudeDegrees>42.4352538026869297027587890625</LatitudeDegrees>
              <LongitudeDegrees>2.803265489637851715087890625</LongitudeDegrees>
            </Position>
            <AltitudeMeters>753.4000244140625</AltitudeMeters>
            <DistanceMeters>10758.430305614</DistanceMeters>
          </Trackpoint>
          <Trackpoint>
            <Time>2021-03-31T17:10:34.000Z</Time>
            <Position>
              <LatitudeDegrees>42.4352206103503704071044921875</LatitudeDegrees>
              <LongitudeDegrees>2.8032079897820949554443359375</LongitudeDegrees>
            </Position>
            <AltitudeMeters>754.20001220703125</AltitudeMeters>
            <DistanceMeters>10764.426784948</DistanceMeters>
          </Trackpoint>
          <Trackpoint>
            <Time>2021-03-31T17:10:37.000Z</Time>
            <Position>
              <LatitudeDegrees>42.4351917766034603118896484375</LatitudeDegrees>
              <LongitudeDegrees>2.80315459705889225006103515625</LongitudeDegrees>
            </Position>
            <AltitudeMeters>754.4000244140625</AltitudeMeters>
            <DistanceMeters>10769.860784393</DistanceMeters>
          </Trackpoint>
          <Trackpoint>
            <Time>2021-03-31T17:10:38.000Z</Time>
            <Position>
              <LatitudeDegrees>42.43517794646322727203369140625</LatitudeDegrees>
              <LongitudeDegrees>2.8031379170715808868408203125</LongitudeDegrees>
            </Position>
            <AltitudeMeters>754.5999755859375</AltitudeMeters>
            <DistanceMeters>10771.920914469</DistanceMeters>
          </Trackpoint>
          <Trackpoint>
            <Time>2021-03-31T17:10:41.000Z</Time>
            <Position>
              <LatitudeDegrees>42.4351428262889385223388671875</LatitudeDegrees>
              <LongitudeDegrees>2.8030993603169918060302734375</LongitudeDegrees>
            </Position>
            <AltitudeMeters>755</AltitudeMeters>
            <DistanceMeters>10776.951051067</DistanceMeters>
          </Trackpoint>
          <Trackpoint>
            <Time>2021-03-31T17:10:42.000Z</Time>
            <Position>
              <LatitudeDegrees>42.43514056317508220672607421875</LatitudeDegrees>
              <LongitudeDegrees>2.8030829317867755889892578125</LongitudeDegrees>
            </Position>
            <AltitudeMeters>755.20001220703125</AltitudeMeters>
            <DistanceMeters>10778.32483634</DistanceMeters>
          </Trackpoint>
          <Trackpoint>
            <Time>2021-03-31T17:10:44.000Z</Time>
            <Position>
              <LatitudeDegrees>42.43513134308159351348876953125</LatitudeDegrees>
              <LongitudeDegrees>2.8030574508011341094970703125</LongitudeDegrees>
            </Position>
            <AltitudeMeters>755.4000244140625</AltitudeMeters>
            <DistanceMeters>10780.656382183</DistanceMeters>
          </Trackpoint>
          <Trackpoint>
            <Time>2021-03-31T17:10:46.000Z</Time>
            <Position>
              <LatitudeDegrees>42.43512731976807117462158203125</LatitudeDegrees>
              <LongitudeDegrees>2.803051583468914031982421875</LongitudeDegrees>
            </Position>
            <AltitudeMeters>755.5999755859375</AltitudeMeters>
            <DistanceMeters>10781.314746573</DistanceMeters>
          </Trackpoint>
          <Trackpoint>
            <Time>2021-03-31T17:10:47.000Z</Time>
            <Position>
              <LatitudeDegrees>42.43512379936873912811279296875</LatitudeDegrees>
              <LongitudeDegrees>2.8030561096966266632080078125</LongitudeDegrees>
            </Position>
            <AltitudeMeters>755.79998779296875</AltitudeMeters>
            <DistanceMeters>10781.852298846</DistanceMeters>
          </Trackpoint>
          <Trackpoint>
            <Time>2021-03-31T17:10:48.000Z</Time>
            <Position>
              <LatitudeDegrees>42.43512614630162715911865234375</LatitudeDegrees>
              <LongitudeDegrees>2.80305786989629268646240234375</LongitudeDegrees>
            </Position>
            <AltitudeMeters>755.79998779296875</AltitudeMeters>
            <DistanceMeters>10782.152799702</DistanceMeters>
          </Trackpoint>
          <Trackpoint>
            <Time>2021-03-31T17:10:50.000Z</Time>
            <Position>
              <LatitudeDegrees>42.4351206980645656585693359375</LatitudeDegrees>
              <LongitudeDegrees>2.8030681796371936798095703125</LongitudeDegrees>
            </Position>
            <AltitudeMeters>756</AltitudeMeters>
            <DistanceMeters>10783.19809356</DistanceMeters>
          </Trackpoint>
          <Trackpoint>
            <Time>2021-03-31T17:10:51.000Z</Time>
            <Position>
              <LatitudeDegrees>42.435115836560726165771484375</LatitudeDegrees>
              <LongitudeDegrees>2.80306206084787845611572265625</LongitudeDegrees>
            </Position>
            <AltitudeMeters>756.20001220703125</AltitudeMeters>
            <DistanceMeters>10783.934167324</DistanceMeters>
          </Trackpoint>
          <Trackpoint>
            <Time>2021-03-31T17:10:53.000Z</Time>
            <Position>
              <LatitudeDegrees>42.435095049440860748291015625</LatitudeDegrees>
              <LongitudeDegrees>2.80304445885121822357177734375</LongitudeDegrees>
            </Position>
            <AltitudeMeters>756.4000244140625</AltitudeMeters>
            <DistanceMeters>10786.665255595</DistanceMeters>
          </Trackpoint>
          <Trackpoint>
            <Time>2021-03-31T17:10:59.000Z</Time>
            <Position>
              <LatitudeDegrees>42.43505372665822505950927734375</LatitudeDegrees>
              <LongitudeDegrees>2.80298025347292423248291015625</LongitudeDegrees>
            </Position>
            <AltitudeMeters>757.20001220703125</AltitudeMeters>
            <DistanceMeters>10793.66311988</DistanceMeters>
          </Trackpoint>
          <Trackpoint>
            <Time>2021-03-31T17:11:01.000Z</Time>
            <Position>
              <LatitudeDegrees>42.4350496195256710052490234375</LatitudeDegrees>
              <LongitudeDegrees>2.80297606252133846282958984375</LongitudeDegrees>
            </Position>
            <AltitudeMeters>757.4000244140625</AltitudeMeters>
            <DistanceMeters>10794.233280166</DistanceMeters>
          </Trackpoint>
          <Trackpoint>
            <Time>2021-03-31T17:11:02.000Z</Time>
            <Position>
              <LatitudeDegrees>42.43504283018410205841064453125</LatitudeDegrees>
              <LongitudeDegrees>2.80297270976006984710693359375</LongitudeDegrees>
            </Position>
            <AltitudeMeters>757.5999755859375</AltitudeMeters>
            <DistanceMeters>10795.039608576</DistanceMeters>
          </Trackpoint>
          <Trackpoint>
            <Time>2021-03-31T17:11:04.000Z</Time>
            <Position>
              <LatitudeDegrees>42.435034029185771942138671875</LatitudeDegrees>
              <LongitudeDegrees>2.80296935699880123138427734375</LongitudeDegrees>
            </Position>
            <AltitudeMeters>757.79998779296875</AltitudeMeters>
            <DistanceMeters>10796.054216241</DistanceMeters>
          </Trackpoint>
          <Trackpoint>
            <Time>2021-03-31T17:11:08.000Z</Time>
            <Position>
              <LatitudeDegrees>42.43501952849328517913818359375</LatitudeDegrees>
              <LongitudeDegrees>2.802942954003810882568359375</LongitudeDegrees>
            </Position>
            <AltitudeMeters>758.5999755859375</AltitudeMeters>
            <DistanceMeters>10798.75705398</DistanceMeters>
          </Trackpoint>
          <Trackpoint>
            <Time>2021-03-31T17:11:11.000Z</Time>
            <Position>
              <LatitudeDegrees>42.43501089513301849365234375</LatitudeDegrees>
              <LongitudeDegrees>2.80290850438177585601806640625</LongitudeDegrees>
            </Position>
            <AltitudeMeters>759</AltitudeMeters>
            <DistanceMeters>10801.74548929</DistanceMeters>
          </Trackpoint>
          <Trackpoint>
            <Time>2021-03-31T17:11:15.000Z</Time>
            <Position>
              <LatitudeDegrees>42.43499304167926311492919921875</LatitudeDegrees>
              <LongitudeDegrees>2.80284413136541843414306640625</LongitudeDegrees>
            </Position>
            <AltitudeMeters>759.4000244140625</AltitudeMeters>
            <DistanceMeters>10807.394585692</DistanceMeters>
          </Trackpoint>
          <Trackpoint>
            <Time>2021-03-31T17:11:22.000Z</Time>
            <Position>
              <LatitudeDegrees>42.43496370501816272735595703125</LatitudeDegrees>
              <LongitudeDegrees>2.8027620725333690643310546875</LongitudeDegrees>
            </Position>
            <AltitudeMeters>759.79998779296875</AltitudeMeters>
            <DistanceMeters>10814.884837019</DistanceMeters>
          </Trackpoint>
          <Trackpoint>
            <Time>2021-03-31T17:11:23.000Z</Time>
            <Position>
              <LatitudeDegrees>42.43496051989495754241943359375</LatitudeDegrees>
              <LongitudeDegrees>2.80274623073637485504150390625</LongitudeDegrees>
            </Position>
            <AltitudeMeters>760</AltitudeMeters>
            <DistanceMeters>10816.228717702</DistanceMeters>
          </Trackpoint>
          <Trackpoint>
            <Time>2021-03-31T17:11:28.000Z</Time>
            <Position>
              <LatitudeDegrees>42.43494090624153614044189453125</LatitudeDegrees>
              <LongitudeDegrees>2.8026903234422206878662109375</LongitudeDegrees>
            </Position>
            <AltitudeMeters>760.79998779296875</AltitudeMeters>
            <DistanceMeters>10821.314200858</DistanceMeters>
          </Trackpoint>
          <Trackpoint>
            <Time>2021-03-31T17:11:30.000Z</Time>
            <Position>
              <LatitudeDegrees>42.4349297583103179931640625</LatitudeDegrees>
              <LongitudeDegrees>2.80266291461884975433349609375</LongitudeDegrees>
            </Position>
            <AltitudeMeters>761.4000244140625</AltitudeMeters>
            <DistanceMeters>10823.885195988</DistanceMeters>
          </Trackpoint>
          <Trackpoint>
            <Time>2021-03-31T17:11:33.000Z</Time>
            <Position>
              <LatitudeDegrees>42.43491978384554386138916015625</LatitudeDegrees>
              <LongitudeDegrees>2.80262536369264125823974609375</LongitudeDegrees>
            </Position>
            <AltitudeMeters>761.79998779296875</AltitudeMeters>
            <DistanceMeters>10827.163273316</DistanceMeters>
          </Trackpoint>
          <Trackpoint>
            <Time>2021-03-31T17:11:35.000Z</Time>
            <Position>
              <LatitudeDegrees>42.4349124915897846221923828125</LatitudeDegrees>
              <LongitudeDegrees>2.80262385495007038116455078125</LongitudeDegrees>
            </Position>
            <AltitudeMeters>762</AltitudeMeters>
            <DistanceMeters>10827.980724022</DistanceMeters>
          </Trackpoint>
          <Trackpoint>
            <Time>2021-03-31T17:11:37.000Z</Time>
            <Position>
              <LatitudeDegrees>42.434918023645877838134765625</LatitudeDegrees>
              <LongitudeDegrees>2.8026259504258632659912109375</LongitudeDegrees>
            </Position>
            <AltitudeMeters>762.4000244140625</AltitudeMeters>
            <DistanceMeters>10828.618182601</DistanceMeters>
          </Trackpoint>
          <Trackpoint>
            <Time>2021-03-31T17:11:42.000Z</Time>
            <Position>
              <LatitudeDegrees>42.4349322728812694549560546875</LatitudeDegrees>
              <LongitudeDegrees>2.8026068396866321563720703125</LongitudeDegrees>
            </Position>
            <AltitudeMeters>762.79998779296875</AltitudeMeters>
            <DistanceMeters>10830.85080487</DistanceMeters>
          </Trackpoint>
          <Trackpoint>
            <Time>2021-03-31T17:11:45.000Z</Time>
            <Position>
              <LatitudeDegrees>42.43493470363318920135498046875</LatitudeDegrees>
              <LongitudeDegrees>2.80258529819548130035400390625</LongitudeDegrees>
            </Position>
            <AltitudeMeters>763</AltitudeMeters>
            <DistanceMeters>10832.643765331</DistanceMeters>
          </Trackpoint>
          <Trackpoint>
            <Time>2021-03-31T17:11:46.000Z</Time>
            <Position>
              <LatitudeDegrees>42.43493453599512577056884765625</LatitudeDegrees>
              <LongitudeDegrees>2.8025790117681026458740234375</LongitudeDegrees>
            </Position>
            <AltitudeMeters>763</AltitudeMeters>
            <DistanceMeters>10833.164248081</DistanceMeters>
          </Trackpoint>
          <Trackpoint>
            <Time>2021-03-31T17:11:51.000Z</Time>
            <Position>
              <LatitudeDegrees>42.43490318767726421356201171875</LatitudeDegrees>
              <LongitudeDegrees>2.80252528376877307891845703125</LongitudeDegrees>
            </Position>
            <AltitudeMeters>763.5999755859375</AltitudeMeters>
            <DistanceMeters>10838.790118497</DistanceMeters>
          </Trackpoint>
          <Trackpoint>
            <Time>2021-03-31T17:11:57.000Z</Time>
            <Position>
              <LatitudeDegrees>42.4348707497119903564453125</LatitudeDegrees>
              <LongitudeDegrees>2.8024415485560894012451171875</LongitudeDegrees>
            </Position>
            <AltitudeMeters>764</AltitudeMeters>
            <DistanceMeters>10846.558516072</DistanceMeters>
          </Trackpoint>
          <Trackpoint>
            <Time>2021-03-31T17:12:04.000Z</Time>
            <Position>
              <LatitudeDegrees>42.43480863980948925018310546875</LatitudeDegrees>
              <LongitudeDegrees>2.80229528434574604034423828125</LongitudeDegrees>
            </Position>
            <AltitudeMeters>764.4000244140625</AltitudeMeters>
            <DistanceMeters>10860.420695797</DistanceMeters>
          </Trackpoint>
          <Trackpoint>
            <Time>2021-03-31T17:12:07.000Z</Time>
            <Position>
              <LatitudeDegrees>42.4348082207143306732177734375</LatitudeDegrees>
              <LongitudeDegrees>2.80226142145693302154541015625</LongitudeDegrees>
            </Position>
            <AltitudeMeters>764.5999755859375</AltitudeMeters>
            <DistanceMeters>10863.204183822</DistanceMeters>
          </Trackpoint>
          <Trackpoint>
            <Time>2021-03-31T17:12:11.000Z</Time>
            <Position>
              <LatitudeDegrees>42.4347931332886219024658203125</LatitudeDegrees>
              <LongitudeDegrees>2.80222244560718536376953125</LongitudeDegrees>
            </Position>
            <AltitudeMeters>765.4000244140625</AltitudeMeters>
            <DistanceMeters>10866.820196916</DistanceMeters>
          </Trackpoint>
          <Trackpoint>
            <Time>2021-03-31T17:12:15.000Z</Time>
            <Position>
              <LatitudeDegrees>42.4347768723964691162109375</LatitudeDegrees>
              <LongitudeDegrees>2.8021632693707942962646484375</LongitudeDegrees>
            </Position>
            <AltitudeMeters>766.20001220703125</AltitudeMeters>
            <DistanceMeters>10872.007645981</DistanceMeters>
          </Trackpoint>
          <Trackpoint>
            <Time>2021-03-31T17:12:17.000Z</Time>
            <Position>
              <LatitudeDegrees>42.43476924486458301544189453125</LatitudeDegrees>
              <LongitudeDegrees>2.80213518999516963958740234375</LongitudeDegrees>
            </Position>
            <AltitudeMeters>766.4000244140625</AltitudeMeters>
            <DistanceMeters>10874.467351495</DistanceMeters>
          </Trackpoint>
          <Trackpoint>
            <Time>2021-03-31T17:12:21.000Z</Time>
            <Position>
              <LatitudeDegrees>42.4347720108926296234130859375</LatitudeDegrees>
              <LongitudeDegrees>2.80211205594241619110107421875</LongitudeDegrees>
            </Position>
            <AltitudeMeters>767.20001220703125</AltitudeMeters>
            <DistanceMeters>10876.391495809</DistanceMeters>
          </Trackpoint>
          <Trackpoint>
            <Time>2021-03-31T17:12:23.000Z</Time>
            <Position>
              <LatitudeDegrees>42.43476287461817264556884765625</LatitudeDegrees>
              <LongitudeDegrees>2.8021203540265560150146484375</LongitudeDegrees>
            </Position>
            <AltitudeMeters>767.20001220703125</AltitudeMeters>
            <DistanceMeters>10877.612136057</DistanceMeters>
          </Trackpoint>
          <Trackpoint>
            <Time>2021-03-31T17:12:28.000Z</Time>
            <Position>
              <LatitudeDegrees>42.43473890237510204315185546875</LatitudeDegrees>
              <LongitudeDegrees>2.8020489402115345001220703125</LongitudeDegrees>
            </Position>
            <AltitudeMeters>767.20001220703125</AltitudeMeters>
            <DistanceMeters>10884.057161397</DistanceMeters>
          </Trackpoint>
          <Trackpoint>
            <Time>2021-03-31T17:12:33.000Z</Time>
            <Position>
              <LatitudeDegrees>42.43472264148294925689697265625</LatitudeDegrees>
              <LongitudeDegrees>2.8019882552325725555419921875</LongitudeDegrees>
            </Position>
            <AltitudeMeters>767.5999755859375</AltitudeMeters>
            <DistanceMeters>10889.360809964</DistanceMeters>
          </Trackpoint>
          <Trackpoint>
            <Time>2021-03-31T17:12:37.000Z</Time>
            <Position>
              <LatitudeDegrees>42.43470855988562107086181640625</LatitudeDegrees>
              <LongitudeDegrees>2.8019379638135433197021484375</LongitudeDegrees>
            </Position>
            <AltitudeMeters>768.4000244140625</AltitudeMeters>
            <DistanceMeters>10893.779296727</DistanceMeters>
          </Trackpoint>
          <Trackpoint>
            <Time>2021-03-31T17:12:39.000Z</Time>
            <Position>
              <LatitudeDegrees>42.43470118381083011627197265625</LatitudeDegrees>
              <LongitudeDegrees>2.80190619640052318572998046875</LongitudeDegrees>
            </Position>
            <AltitudeMeters>768.5999755859375</AltitudeMeters>
            <DistanceMeters>10896.516989816</DistanceMeters>
          </Trackpoint>
          <Trackpoint>
            <Time>2021-03-31T17:12:42.000Z</Time>
            <Position>
              <LatitudeDegrees>42.434694059193134307861328125</LatitudeDegrees>
              <LongitudeDegrees>2.80187183059751987457275390625</LongitudeDegrees>
            </Position>
            <AltitudeMeters>769</AltitudeMeters>
            <DistanceMeters>10899.447450991</DistanceMeters>
          </Trackpoint>
          <Trackpoint>
            <Time>2021-03-31T17:12:48.000Z</Time>
            <Position>
              <LatitudeDegrees>42.43467335589230060577392578125</LatitudeDegrees>
              <LongitudeDegrees>2.8017981536686420440673828125</LongitudeDegrees>
            </Position>
            <AltitudeMeters>769.5999755859375</AltitudeMeters>
            <DistanceMeters>10905.923227007</DistanceMeters>
          </Trackpoint>
          <Trackpoint>
            <Time>2021-03-31T17:12:51.000Z</Time>
            <Position>
              <LatitudeDegrees>42.43467285297811031341552734375</LatitudeDegrees>
              <LongitudeDegrees>2.80176186002790927886962890625</LongitudeDegrees>
            </Position>
            <AltitudeMeters>769.5999755859375</AltitudeMeters>
            <DistanceMeters>10908.90409856</DistanceMeters>
          </Trackpoint>
          <Trackpoint>
            <Time>2021-03-31T17:12:57.000Z</Time>
            <Position>
              <LatitudeDegrees>42.4346513114869594573974609375</LatitudeDegrees>
              <LongitudeDegrees>2.80167787335813045501708984375</LongitudeDegrees>
            </Position>
            <AltitudeMeters>770</AltitudeMeters>
            <DistanceMeters>10916.208185884</DistanceMeters>
          </Trackpoint>
          <Trackpoint>
            <Time>2021-03-31T17:13:00.000Z</Time>
            <Position>
              <LatitudeDegrees>42.43464921601116657257080078125</LatitudeDegrees>
              <LongitudeDegrees>2.80163261108100414276123046875</LongitudeDegrees>
            </Position>
            <AltitudeMeters>770.4000244140625</AltitudeMeters>
            <DistanceMeters>10919.933669409</DistanceMeters>
          </Trackpoint>
          <Trackpoint>
            <Time>2021-03-31T17:13:01.000Z</Time>
            <Position>
              <LatitudeDegrees>42.434649802744388580322265625</LatitudeDegrees>
              <LongitudeDegrees>2.8016134165227413177490234375</LongitudeDegrees>
            </Position>
            <AltitudeMeters>770.79998779296875</AltitudeMeters>
            <DistanceMeters>10921.509509192</DistanceMeters>
          </Trackpoint>
          <Trackpoint>
            <Time>2021-03-31T17:13:02.000Z</Time>
            <Position>
              <LatitudeDegrees>42.4346496351063251495361328125</LatitudeDegrees>
              <LongitudeDegrees>2.80159883201122283935546875</LongitudeDegrees>
            </Position>
            <AltitudeMeters>770.79998779296875</AltitudeMeters>
            <DistanceMeters>10922.70397647</DistanceMeters>
          </Trackpoint>
          <Trackpoint>
            <Time>2021-03-31T17:13:07.000Z</Time>
            <Position>
              <LatitudeDegrees>42.43462465703487396240234375</LatitudeDegrees>
              <LongitudeDegrees>2.80154393054544925689697265625</LongitudeDegrees>
            </Position>
            <AltitudeMeters>771.4000244140625</AltitudeMeters>
            <DistanceMeters>10928.00166253</DistanceMeters>
          </Trackpoint>
          <Trackpoint>
            <Time>2021-03-31T17:13:08.000Z</Time>
            <Position>
              <LatitudeDegrees>42.43462004698812961578369140625</LatitudeDegrees>
              <LongitudeDegrees>2.80153353698551654815673828125</LongitudeDegrees>
            </Position>
            <AltitudeMeters>771.4000244140625</AltitudeMeters>
            <DistanceMeters>10929.00283109</DistanceMeters>
          </Trackpoint>
          <Trackpoint>
            <Time>2021-03-31T17:13:11.000Z</Time>
            <Position>
              <LatitudeDegrees>42.4345990084111690521240234375</LatitudeDegrees>
              <LongitudeDegrees>2.8014987520873546600341796875</LongitudeDegrees>
            </Position>
            <AltitudeMeters>771.79998779296875</AltitudeMeters>
            <DistanceMeters>10932.696669947</DistanceMeters>
          </Trackpoint>
          <Trackpoint>
            <Time>2021-03-31T17:13:14.000Z</Time>
            <Position>
              <LatitudeDegrees>42.4345869384706020355224609375</LatitudeDegrees>
              <LongitudeDegrees>2.8014571778476238250732421875</LongitudeDegrees>
            </Position>
            <AltitudeMeters>771.79998779296875</AltitudeMeters>
            <DistanceMeters>10936.365981051</DistanceMeters>
          </Trackpoint>
          <Trackpoint>
            <Time>2021-03-31T17:13:16.000Z</Time>
            <Position>
              <LatitudeDegrees>42.4345783889293670654296875</LatitudeDegrees>
              <LongitudeDegrees>2.801432199776172637939453125</LongitudeDegrees>
            </Position>
            <AltitudeMeters>771.79998779296875</AltitudeMeters>
            <DistanceMeters>10938.626738285</DistanceMeters>
          </Trackpoint>
          <Trackpoint>
            <Time>2021-03-31T17:13:17.000Z</Time>
            <Position>
              <LatitudeDegrees>42.434574030339717864990234375</LatitudeDegrees>
              <LongitudeDegrees>2.801422812044620513916015625</LongitudeDegrees>
            </Position>
            <AltitudeMeters>771.5999755859375</AltitudeMeters>
            <DistanceMeters>10939.538202509</DistanceMeters>
          </Trackpoint>
          <Trackpoint>
            <Time>2021-03-31T17:13:20.000Z</Time>
            <Position>
              <LatitudeDegrees>42.43456070311367511749267578125</LatitudeDegrees>
              <LongitudeDegrees>2.8013790585100650787353515625</LongitudeDegrees>
            </Position>
            <AltitudeMeters>771.20001220703125</AltitudeMeters>
            <DistanceMeters>10943.426177299</DistanceMeters>
          </Trackpoint>
          <Trackpoint>
            <Time>2021-03-31T17:13:24.000Z</Time>
            <Position>
              <LatitudeDegrees>42.43454595096409320831298828125</LatitudeDegrees>
              <LongitudeDegrees>2.8013165295124053955078125</LongitudeDegrees>
            </Position>
            <AltitudeMeters>770.5999755859375</AltitudeMeters>
            <DistanceMeters>10948.820146738</DistanceMeters>
          </Trackpoint>
          <Trackpoint>
            <Time>2021-03-31T17:13:25.000Z</Time>
            <Position>
              <LatitudeDegrees>42.43453773669898509979248046875</LatitudeDegrees>
              <LongitudeDegrees>2.8013019450008869171142578125</LongitudeDegrees>
            </Position>
            <AltitudeMeters>770.5999755859375</AltitudeMeters>
            <DistanceMeters>10950.328649062</DistanceMeters>
          </Trackpoint>
          <Trackpoint>
            <Time>2021-03-31T17:13:31.000Z</Time>
            <Position>
              <LatitudeDegrees>42.43450236506760120391845703125</LatitudeDegrees>
              <LongitudeDegrees>2.80124419368803501129150390625</LongitudeDegrees>
            </Position>
            <AltitudeMeters>770</AltitudeMeters>
            <DistanceMeters>10956.492946401</DistanceMeters>
          </Trackpoint>
          <Trackpoint>
            <Time>2021-03-31T17:13:33.000Z</Time>
            <Position>
              <LatitudeDegrees>42.43447889573872089385986328125</LatitudeDegrees>
              <LongitudeDegrees>2.8012065589427947998046875</LongitudeDegrees>
            </Position>
            <AltitudeMeters>769.5999755859375</AltitudeMeters>
            <DistanceMeters>10960.540236688</DistanceMeters>
          </Trackpoint>
          <Trackpoint>
            <Time>2021-03-31T17:13:34.000Z</Time>
            <Position>
              <LatitudeDegrees>42.43446716107428073883056640625</LatitudeDegrees>
              <LongitudeDegrees>2.801192812621593475341796875</LongitudeDegrees>
            </Position>
            <AltitudeMeters>769.4000244140625</AltitudeMeters>
            <DistanceMeters>10962.26648268</DistanceMeters>
          </Trackpoint>
          <Trackpoint>
            <Time>2021-03-31T17:13:40.000Z</Time>
            <Position>
              <LatitudeDegrees>42.43439801037311553955078125</LatitudeDegrees>
              <LongitudeDegrees>2.8011480532586574554443359375</LongitudeDegrees>
            </Position>
            <AltitudeMeters>768.79998779296875</AltitudeMeters>
            <DistanceMeters>10970.79615594</DistanceMeters>
          </Trackpoint>
          <Trackpoint>
            <Time>2021-03-31T17:13:41.000Z</Time>
            <Position>
              <LatitudeDegrees>42.43438728153705596923828125</LatitudeDegrees>
              <LongitudeDegrees>2.8011381626129150390625</LongitudeDegrees>
            </Position>
            <AltitudeMeters>768.5999755859375</AltitudeMeters>
            <DistanceMeters>10972.237307418</DistanceMeters>
          </Trackpoint>
          <Trackpoint>
            <Time>2021-03-31T17:13:44.000Z</Time>
            <Position>
              <LatitudeDegrees>42.43435568176209926605224609375</LatitudeDegrees>
              <LongitudeDegrees>2.80111544765532016754150390625</LongitudeDegrees>
            </Position>
            <AltitudeMeters>767.79998779296875</AltitudeMeters>
            <DistanceMeters>10976.218234968</DistanceMeters>
          </Trackpoint>
          <Trackpoint>
            <Time>2021-03-31T17:13:45.000Z</Time>
            <Position>
              <LatitudeDegrees>42.434340678155422210693359375</LatitudeDegrees>
              <LongitudeDegrees>2.80111159197986125946044921875</LongitudeDegrees>
            </Position>
            <AltitudeMeters>767.5999755859375</AltitudeMeters>
            <DistanceMeters>10977.915466356</DistanceMeters>
          </Trackpoint>
          <Trackpoint>
            <Time>2021-03-31T17:13:50.000Z</Time>
            <Position>
              <LatitudeDegrees>42.43429415859282016754150390625</LatitudeDegrees>
              <LongitudeDegrees>2.801102288067340850830078125</LongitudeDegrees>
            </Position>
            <AltitudeMeters>767.20001220703125</AltitudeMeters>
            <DistanceMeters>10983.149704785</DistanceMeters>
          </Trackpoint>
          <Trackpoint>
            <Time>2021-03-31T17:13:51.000Z</Time>
            <Position>
              <LatitudeDegrees>42.4342855252325534820556640625</LatitudeDegrees>
              <LongitudeDegrees>2.8011024557054042816162109375</LongitudeDegrees>
            </Position>
            <AltitudeMeters>767.20001220703125</AltitudeMeters>
            <DistanceMeters>10984.109427556</DistanceMeters>
          </Trackpoint>
          <Trackpoint>
            <Time>2021-03-31T17:13:58.000Z</Time>
            <Position>
              <LatitudeDegrees>42.43420698679983615875244140625</LatitudeDegrees>
              <LongitudeDegrees>2.8010939061641693115234375</LongitudeDegrees>
            </Position>
            <AltitudeMeters>766.4000244140625</AltitudeMeters>
            <DistanceMeters>10992.878699532</DistanceMeters>
          </Trackpoint>
          <Trackpoint>
            <Time>2021-03-31T17:13:59.000Z</Time>
            <Position>
              <LatitudeDegrees>42.4341976828873157501220703125</LatitudeDegrees>
              <LongitudeDegrees>2.80109298415482044219970703125</LongitudeDegrees>
            </Position>
            <AltitudeMeters>766.20001220703125</AltitudeMeters>
            <DistanceMeters>10993.919665033</DistanceMeters>
          </Trackpoint>
          <Trackpoint>
            <Time>2021-03-31T17:14:04.000Z</Time>
            <Position>
              <LatitudeDegrees>42.43411227129399776458740234375</LatitudeDegrees>
              <LongitudeDegrees>2.80110052786767482757568359375</LongitudeDegrees>
            </Position>
            <AltitudeMeters>765.79998779296875</AltitudeMeters>
            <DistanceMeters>11003.446063527</DistanceMeters>
          </Trackpoint>
          <Trackpoint>
            <Time>2021-03-31T17:14:06.000Z</Time>
            <Position>
              <LatitudeDegrees>42.43409098125994205474853515625</LatitudeDegrees>
              <LongitudeDegrees>2.801105640828609466552734375</LongitudeDegrees>
            </Position>
            <AltitudeMeters>765.4000244140625</AltitudeMeters>
            <DistanceMeters>11005.853823705</DistanceMeters>
          </Trackpoint>
          <Trackpoint>
            <Time>2021-03-31T17:14:11.000Z</Time>
            <Position>
              <LatitudeDegrees>42.43404102511703968048095703125</LatitudeDegrees>
              <LongitudeDegrees>2.80110388062894344329833984375</LongitudeDegrees>
            </Position>
            <AltitudeMeters>764.79998779296875</AltitudeMeters>
            <DistanceMeters>11011.41593139</DistanceMeters>
          </Trackpoint>
          <Trackpoint>
            <Time>2021-03-31T17:14:12.000Z</Time>
            <Position>
              <LatitudeDegrees>42.43402727879583835601806640625</LatitudeDegrees>
              <LongitudeDegrees>2.80110203661024570465087890625</LongitudeDegrees>
            </Position>
            <AltitudeMeters>764.5999755859375</AltitudeMeters>
            <DistanceMeters>11012.954073135</DistanceMeters>
          </Trackpoint>
          <Trackpoint>
            <Time>2021-03-31T17:14:16.000Z</Time>
            <Position>
              <LatitudeDegrees>42.43398838676512241363525390625</LatitudeDegrees>
              <LongitudeDegrees>2.80108896084129810333251953125</LongitudeDegrees>
            </Position>
            <AltitudeMeters>764.5999755859375</AltitudeMeters>
            <DistanceMeters>11017.414259051</DistanceMeters>
          </Trackpoint>
          <Trackpoint>
            <Time>2021-03-31T17:14:19.000Z</Time>
            <Position>
              <LatitudeDegrees>42.4339626543223857879638671875</LatitudeDegrees>
              <LongitudeDegrees>2.8010831773281097412109375</LongitudeDegrees>
            </Position>
            <AltitudeMeters>764.4000244140625</AltitudeMeters>
            <DistanceMeters>11020.316854669</DistanceMeters>
          </Trackpoint>
          <Trackpoint>
            <Time>2021-03-31T17:14:20.000Z</Time>
            <Position>
              <LatitudeDegrees>42.4339536018669605255126953125</LatitudeDegrees>
              <LongitudeDegrees>2.8010809980332851409912109375</LongitudeDegrees>
            </Position>
            <AltitudeMeters>764.20001220703125</AltitudeMeters>
            <DistanceMeters>11021.340323705</DistanceMeters>
          </Trackpoint>
          <Trackpoint>
            <Time>2021-03-31T17:14:22.000Z</Time>
            <Position>
              <LatitudeDegrees>42.43392686359584331512451171875</LatitudeDegrees>
              <LongitudeDegrees>2.80107202939689159393310546875</LongitudeDegrees>
            </Position>
            <AltitudeMeters>764</AltitudeMeters>
            <DistanceMeters>11024.404843162</DistanceMeters>
          </Trackpoint>
          <Trackpoint>
            <Time>2021-03-31T17:14:27.000Z</Time>
            <Position>
              <LatitudeDegrees>42.4338667653501033782958984375</LatitudeDegrees>
              <LongitudeDegrees>2.80105769634246826171875</LongitudeDegrees>
            </Position>
            <AltitudeMeters>763.79998779296875</AltitudeMeters>
            <DistanceMeters>11031.196428432</DistanceMeters>
          </Trackpoint>
          <Trackpoint>
            <Time>2021-03-31T17:14:32.000Z</Time>
            <Position>
              <LatitudeDegrees>42.4338211677968502044677734375</LatitudeDegrees>
              <LongitudeDegrees>2.8010571934282779693603515625</LongitudeDegrees>
            </Position>
            <AltitudeMeters>763</AltitudeMeters>
            <DistanceMeters>11036.27124646</DistanceMeters>
          </Trackpoint>
          <Trackpoint>
            <Time>2021-03-31T17:14:35.000Z</Time>
            <Position>
              <LatitudeDegrees>42.433795519173145294189453125</LatitudeDegrees>
              <LongitudeDegrees>2.80104923062026500701904296875</LongitudeDegrees>
            </Position>
            <AltitudeMeters>762.79998779296875</AltitudeMeters>
            <DistanceMeters>11039.197081805</DistanceMeters>
          </Trackpoint>
          <Trackpoint>
            <Time>2021-03-31T17:14:41.000Z</Time>
            <Position>
              <LatitudeDegrees>42.43371807038784027099609375</LatitudeDegrees>
              <LongitudeDegrees>2.80102894641458988189697265625</LongitudeDegrees>
            </Position>
            <AltitudeMeters>762.5999755859375</AltitudeMeters>
            <DistanceMeters>11047.97664515</DistanceMeters>
          </Trackpoint>
          <Trackpoint>
            <Time>2021-03-31T17:14:42.000Z</Time>
            <Position>
              <LatitudeDegrees>42.4337048269808292388916015625</LatitudeDegrees>
              <LongitudeDegrees>2.8010260127484798431396484375</LongitudeDegrees>
            </Position>
            <AltitudeMeters>762.5999755859375</AltitudeMeters>
            <DistanceMeters>11049.473127345</DistanceMeters>
          </Trackpoint>
          <Trackpoint>
            <Time>2021-03-31T17:14:47.000Z</Time>
            <Position>
              <LatitudeDegrees>42.43362159468233585357666015625</LatitudeDegrees>
              <LongitudeDegrees>2.80098217539489269256591796875</LongitudeDegrees>
            </Position>
            <AltitudeMeters>762.20001220703125</AltitudeMeters>
            <DistanceMeters>11059.412394737</DistanceMeters>
          </Trackpoint>
          <Trackpoint>
            <Time>2021-03-31T17:14:48.000Z</Time>
            <Position>
              <LatitudeDegrees>42.4336069263517856597900390625</LatitudeDegrees>
              <LongitudeDegrees>2.8009740449488162994384765625</LongitudeDegrees>
            </Position>
            <AltitudeMeters>762</AltitudeMeters>
            <DistanceMeters>11061.179993801</DistanceMeters>
          </Trackpoint>
          <Trackpoint>
            <Time>2021-03-31T17:14:49.000Z</Time>
            <Position>
              <LatitudeDegrees>42.4335908330976963043212890625</LatitudeDegrees>
              <LongitudeDegrees>2.8009686805307865142822265625</LongitudeDegrees>
            </Position>
            <AltitudeMeters>761.5999755859375</AltitudeMeters>
            <DistanceMeters>11063.022630157</DistanceMeters>
          </Trackpoint>
          <Trackpoint>
            <Time>2021-03-31T17:14:51.000Z</Time>
            <Position>
              <LatitudeDegrees>42.4335613287985324859619140625</LatitudeDegrees>
              <LongitudeDegrees>2.8009597957134246826171875</LongitudeDegrees>
            </Position>
            <AltitudeMeters>761.4000244140625</AltitudeMeters>
            <DistanceMeters>11066.386361089</DistanceMeters>
          </Trackpoint>
          <Trackpoint>
            <Time>2021-03-31T17:14:57.000Z</Time>
            <Position>
              <LatitudeDegrees>42.43351916782557964324951171875</LatitudeDegrees>
              <LongitudeDegrees>2.8009356558322906494140625</LongitudeDegrees>
            </Position>
            <AltitudeMeters>761.20001220703125</AltitudeMeters>
            <DistanceMeters>11071.480714797</DistanceMeters>
          </Trackpoint>
          <Trackpoint>
            <Time>2021-03-31T17:14:58.000Z</Time>
            <Position>
              <LatitudeDegrees>42.43350642733275890350341796875</LatitudeDegrees>
              <LongitudeDegrees>2.8009291179478168487548828125</LongitudeDegrees>
            </Position>
            <AltitudeMeters>761.20001220703125</AltitudeMeters>
            <DistanceMeters>11072.998169737</DistanceMeters>
          </Trackpoint>
          <Trackpoint>
            <Time>2021-03-31T17:15:03.000Z</Time>
            <Position>
              <LatitudeDegrees>42.43344725109636783599853515625</LatitudeDegrees>
              <LongitudeDegrees>2.80089919455349445343017578125</LongitudeDegrees>
            </Position>
            <AltitudeMeters>760.79998779296875</AltitudeMeters>
            <DistanceMeters>11080.028220119</DistanceMeters>
          </Trackpoint>
          <Trackpoint>
            <Time>2021-03-31T17:15:05.000Z</Time>
            <Position>
              <LatitudeDegrees>42.4334198422729969024658203125</LatitudeDegrees>
              <LongitudeDegrees>2.8008818440139293670654296875</LongitudeDegrees>
            </Position>
            <AltitudeMeters>760.4000244140625</AltitudeMeters>
            <DistanceMeters>11083.395975456</DistanceMeters>
          </Trackpoint>
          <Trackpoint>
            <Time>2021-03-31T17:15:06.000Z</Time>
            <Position>
              <LatitudeDegrees>42.43340827524662017822265625</LatitudeDegrees>
              <LongitudeDegrees>2.80087203718721866607666015625</LongitudeDegrees>
            </Position>
            <AltitudeMeters>760.4000244140625</AltitudeMeters>
            <DistanceMeters>11084.916402886</DistanceMeters>
          </Trackpoint>
          <Trackpoint>
            <Time>2021-03-31T17:15:15.000Z</Time>
            <Position>
              <LatitudeDegrees>42.43330107070505619049072265625</LatitudeDegrees>
              <LongitudeDegrees>2.800817973911762237548828125</LongitudeDegrees>
            </Position>
            <AltitudeMeters>760.5999755859375</AltitudeMeters>
            <DistanceMeters>11097.648564224</DistanceMeters>
          </Trackpoint>
          <Trackpoint>
            <Time>2021-03-31T17:15:17.000Z</Time>
            <Position>
              <LatitudeDegrees>42.43328011594712734222412109375</LatitudeDegrees>
              <LongitudeDegrees>2.80081093311309814453125</LongitudeDegrees>
            </Position>
            <AltitudeMeters>760.4000244140625</AltitudeMeters>
            <DistanceMeters>11100.052571072</DistanceMeters>
          </Trackpoint>
          <Trackpoint>
            <Time>2021-03-31T17:15:22.000Z</Time>
            <Position>
              <LatitudeDegrees>42.433236949145793914794921875</LatitudeDegrees>
              <LongitudeDegrees>2.8007789142429828643798828125</LongitudeDegrees>
            </Position>
            <AltitudeMeters>760.4000244140625</AltitudeMeters>
            <DistanceMeters>11105.529606214</DistanceMeters>
          </Trackpoint>
          <Trackpoint>
            <Time>2021-03-31T17:15:26.000Z</Time>
            <Position>
              <LatitudeDegrees>42.4331955425441265106201171875</LatitudeDegrees>
              <LongitudeDegrees>2.80075452290475368499755859375</LongitudeDegrees>
            </Position>
            <AltitudeMeters>760.4000244140625</AltitudeMeters>
            <DistanceMeters>11110.556151139</DistanceMeters>
          </Trackpoint>
          <Trackpoint>
            <Time>2021-03-31T17:15:29.000Z</Time>
            <Position>
              <LatitudeDegrees>42.43316419422626495361328125</LatitudeDegrees>
              <LongitudeDegrees>2.800740860402584075927734375</LongitudeDegrees>
            </Position>
            <AltitudeMeters>760.4000244140625</AltitudeMeters>
            <DistanceMeters>11114.220536991</DistanceMeters>
          </Trackpoint>
          <Trackpoint>
            <Time>2021-03-31T17:15:33.000Z</Time>
            <Position>
              <LatitudeDegrees>42.43313494138419628143310546875</LatitudeDegrees>
              <LongitudeDegrees>2.8007023036479949951171875</LongitudeDegrees>
            </Position>
            <AltitudeMeters>759.5999755859375</AltitudeMeters>
            <DistanceMeters>11118.761978899</DistanceMeters>
          </Trackpoint>
          <Trackpoint>
            <Time>2021-03-31T17:15:36.000Z</Time>
            <Position>
              <LatitudeDegrees>42.43310811929404735565185546875</LatitudeDegrees>
              <LongitudeDegrees>2.800683192908763885498046875</LongitudeDegrees>
            </Position>
            <AltitudeMeters>759.4000244140625</AltitudeMeters>
            <DistanceMeters>11122.135092641</DistanceMeters>
          </Trackpoint>
          <Trackpoint>
            <Time>2021-03-31T17:15:40.000Z</Time>
            <Position>
              <LatitudeDegrees>42.433064281940460205078125</LatitudeDegrees>
              <LongitudeDegrees>2.80064128339290618896484375</LongitudeDegrees>
            </Position>
            <AltitudeMeters>759.4000244140625</AltitudeMeters>
            <DistanceMeters>11128.106672991</DistanceMeters>
          </Trackpoint>
          <Trackpoint>
            <Time>2021-03-31T17:15:46.000Z</Time>
            <Position>
              <LatitudeDegrees>42.4329953826963901519775390625</LatitudeDegrees>
              <LongitudeDegrees>2.8005708754062652587890625</LongitudeDegrees>
            </Position>
            <AltitudeMeters>759.20001220703125</AltitudeMeters>
            <DistanceMeters>11137.712365111</DistanceMeters>
          </Trackpoint>
          <Trackpoint>
            <Time>2021-03-31T17:15:53.000Z</Time>
            <Position>
              <LatitudeDegrees>42.432902343571186065673828125</LatitudeDegrees>
              <LongitudeDegrees>2.80048680491745471954345703125</LongitudeDegrees>
            </Position>
            <AltitudeMeters>758.79998779296875</AltitudeMeters>
            <DistanceMeters>11150.159776554</DistanceMeters>
          </Trackpoint>
          <Trackpoint>
            <Time>2021-03-31T17:15:54.000Z</Time>
            <Position>
              <LatitudeDegrees>42.43289035744965076446533203125</LatitudeDegrees>
              <LongitudeDegrees>2.8004768304526805877685546875</LongitudeDegrees>
            </Position>
            <AltitudeMeters>758.5999755859375</AltitudeMeters>
            <DistanceMeters>11151.721224805</DistanceMeters>
          </Trackpoint>
          <Trackpoint>
            <Time>2021-03-31T17:15:55.000Z</Time>
            <Position>
              <LatitudeDegrees>42.4328797124326229095458984375</LatitudeDegrees>
              <LongitudeDegrees>2.8004684485495090484619140625</LongitudeDegrees>
            </Position>
            <AltitudeMeters>758.4000244140625</AltitudeMeters>
            <DistanceMeters>11153.091719569</DistanceMeters>
          </Trackpoint>
          <Trackpoint>
            <Time>2021-03-31T17:15:56.000Z</Time>
            <Position>
              <LatitudeDegrees>42.43286923505365848541259765625</LatitudeDegrees>
              <LongitudeDegrees>2.800459563732147216796875</LongitudeDegrees>
            </Position>
            <AltitudeMeters>758.20001220703125</AltitudeMeters>
            <DistanceMeters>11154.465504843</DistanceMeters>
          </Trackpoint>
          <Trackpoint>
            <Time>2021-03-31T17:15:57.000Z</Time>
            <Position>
              <LatitudeDegrees>42.4328565783798694610595703125</LatitudeDegrees>
              <LongitudeDegrees>2.8004510141909122467041015625</LongitudeDegrees>
            </Position>
            <AltitudeMeters>758.20001220703125</AltitudeMeters>
            <DistanceMeters>11156.035603842</DistanceMeters>
          </Trackpoint>
          <Trackpoint>
            <Time>2021-03-31T17:16:00.000Z</Time>
            <Position>
              <LatitudeDegrees>42.43280586786568164825439453125</LatitudeDegrees>
              <LongitudeDegrees>2.80044472776353359222412109375</LongitudeDegrees>
            </Position>
            <AltitudeMeters>758</AltitudeMeters>
            <DistanceMeters>11161.703053173</DistanceMeters>
          </Trackpoint>
          <Trackpoint>
            <Time>2021-03-31T17:16:04.000Z</Time>
            <Position>
              <LatitudeDegrees>42.4327464401721954345703125</LatitudeDegrees>
              <LongitudeDegrees>2.80043366365134716033935546875</LongitudeDegrees>
            </Position>
            <AltitudeMeters>758</AltitudeMeters>
            <DistanceMeters>11168.38066633</DistanceMeters>
          </Trackpoint>
          <Trackpoint>
            <Time>2021-03-31T17:16:09.000Z</Time>
            <Position>
              <LatitudeDegrees>42.43267712183296680450439453125</LatitudeDegrees>
              <LongitudeDegrees>2.80042075552046298980712890625</LongitudeDegrees>
            </Position>
            <AltitudeMeters>758.20001220703125</AltitudeMeters>
            <DistanceMeters>11176.168220079</DistanceMeters>
          </Trackpoint>
          <Trackpoint>
            <Time>2021-03-31T17:16:10.000Z</Time>
            <Position>
              <LatitudeDegrees>42.432666979730129241943359375</LatitudeDegrees>
              <LongitudeDegrees>2.800415642559528350830078125</LongitudeDegrees>
            </Position>
            <AltitudeMeters>758.20001220703125</AltitudeMeters>
            <DistanceMeters>11177.373973913</DistanceMeters>
          </Trackpoint>
          <Trackpoint>
            <Time>2021-03-31T17:16:11.000Z</Time>
            <Position>
              <LatitudeDegrees>42.432656921446323394775390625</LatitudeDegrees>
              <LongitudeDegrees>2.80041052959859371185302734375</LongitudeDegrees>
            </Position>
            <AltitudeMeters>758.20001220703125</AltitudeMeters>
            <DistanceMeters>11178.568441191</DistanceMeters>
          </Trackpoint>
          <Trackpoint>
            <Time>2021-03-31T17:16:14.000Z</Time>
            <Position>
              <LatitudeDegrees>42.43262800388038158416748046875</LatitudeDegrees>
              <LongitudeDegrees>2.800404243171215057373046875</LongitudeDegrees>
            </Position>
            <AltitudeMeters>757.4000244140625</AltitudeMeters>
            <DistanceMeters>11181.827178661</DistanceMeters>
          </Trackpoint>
          <Trackpoint>
            <Time>2021-03-31T17:16:17.000Z</Time>
            <Position>
              <LatitudeDegrees>42.43258743546903133392333984375</LatitudeDegrees>
              <LongitudeDegrees>2.8004044108092784881591796875</LongitudeDegrees>
            </Position>
            <AltitudeMeters>756.20001220703125</AltitudeMeters>
            <DistanceMeters>11186.341697742</DistanceMeters>
          </Trackpoint>
          <Trackpoint>
            <Time>2021-03-31T17:16:19.000Z</Time>
            <Position>
              <LatitudeDegrees>42.4325588531792163848876953125</LatitudeDegrees>
              <LongitudeDegrees>2.800405584275722503662109375</LongitudeDegrees>
            </Position>
            <AltitudeMeters>756</AltitudeMeters>
            <DistanceMeters>11189.521899877</DistanceMeters>
          </Trackpoint>
          <Trackpoint>
            <Time>2021-03-31T17:16:26.000Z</Time>
            <Position>
              <LatitudeDegrees>42.4324703402817249298095703125</LatitudeDegrees>
              <LongitudeDegrees>2.80041136778891086578369140625</LongitudeDegrees>
            </Position>
            <AltitudeMeters>755.20001220703125</AltitudeMeters>
            <DistanceMeters>11199.384555881</DistanceMeters>
          </Trackpoint>
          <Trackpoint>
            <Time>2021-03-31T17:16:28.000Z</Time>
            <Position>
              <LatitudeDegrees>42.43244762532413005828857421875</LatitudeDegrees>
              <LongitudeDegrees>2.80040902085602283477783203125</LongitudeDegrees>
            </Position>
            <AltitudeMeters>755</AltitudeMeters>
            <DistanceMeters>11201.920184881</DistanceMeters>
          </Trackpoint>
          <Trackpoint>
            <Time>2021-03-31T17:16:30.000Z</Time>
            <Position>
              <LatitudeDegrees>42.4324284307658672332763671875</LatitudeDegrees>
              <LongitudeDegrees>2.8004086017608642578125</LongitudeDegrees>
            </Position>
            <AltitudeMeters>754.5999755859375</AltitudeMeters>
            <DistanceMeters>11204.057757963</DistanceMeters>
          </Trackpoint>
          <Trackpoint>
            <Time>2021-03-31T17:16:31.000Z</Time>
            <Position>
              <LatitudeDegrees>42.432415522634983062744140625</LatitudeDegrees>
              <LongitudeDegrees>2.80040793120861053466796875</LongitudeDegrees>
            </Position>
            <AltitudeMeters>754.5999755859375</AltitudeMeters>
            <DistanceMeters>11205.498909441</DistanceMeters>
          </Trackpoint>
          <Trackpoint>
            <Time>2021-03-31T17:16:34.000Z</Time>
            <Position>
              <LatitudeDegrees>42.43237554095685482025146484375</LatitudeDegrees>
              <LongitudeDegrees>2.80041270889341831207275390625</LongitudeDegrees>
            </Position>
            <AltitudeMeters>754</AltitudeMeters>
            <DistanceMeters>11209.966175825</DistanceMeters>
          </Trackpoint>
          <Trackpoint>
            <Time>2021-03-31T17:16:35.000Z</Time>
            <Position>
              <LatitudeDegrees>42.43236514739692211151123046875</LatitudeDegrees>
              <LongitudeDegrees>2.80041237361729145050048828125</LongitudeDegrees>
            </Position>
            <AltitudeMeters>753.79998779296875</AltitudeMeters>
            <DistanceMeters>11211.1222257</DistanceMeters>
          </Trackpoint>
          <Trackpoint>
            <Time>2021-03-31T17:16:39.000Z</Time>
            <Position>
              <LatitudeDegrees>42.43231720291078090667724609375</LatitudeDegrees>
              <LongitudeDegrees>2.8004141338169574737548828125</LongitudeDegrees>
            </Position>
            <AltitudeMeters>753.4000244140625</AltitudeMeters>
            <DistanceMeters>11216.459817964</DistanceMeters>
          </Trackpoint>
          <Trackpoint>
            <Time>2021-03-31T17:16:40.000Z</Time>
            <Position>
              <LatitudeDegrees>42.43230781517922878265380859375</LatitudeDegrees>
              <LongitudeDegrees>2.800409607589244842529296875</LongitudeDegrees>
            </Position>
            <AltitudeMeters>753</AltitudeMeters>
            <DistanceMeters>11217.568010365</DistanceMeters>
          </Trackpoint>
          <Trackpoint>
            <Time>2021-03-31T17:16:43.000Z</Time>
            <Position>
              <LatitudeDegrees>42.43227411992847919464111328125</LatitudeDegrees>
              <LongitudeDegrees>2.8003913350403308868408203125</LongitudeDegrees>
            </Position>
            <AltitudeMeters>752.4000244140625</AltitudeMeters>
            <DistanceMeters>11221.606366225</DistanceMeters>
          </Trackpoint>
          <Trackpoint>
            <Time>2021-03-31T17:16:47.000Z</Time>
            <Position>
              <LatitudeDegrees>42.43221662007272243499755859375</LatitudeDegrees>
              <LongitudeDegrees>2.8003725595772266387939453125</LongitudeDegrees>
            </Position>
            <AltitudeMeters>751.79998779296875</AltitudeMeters>
            <DistanceMeters>11228.188638385</DistanceMeters>
          </Trackpoint>
          <Trackpoint>
            <Time>2021-03-31T17:16:52.000Z</Time>
            <Position>
              <LatitudeDegrees>42.43215358816087245941162109375</LatitudeDegrees>
              <LongitudeDegrees>2.80033090151846408843994140625</LongitudeDegrees>
            </Position>
            <AltitudeMeters>750.79998779296875</AltitudeMeters>
            <DistanceMeters>11235.993566039</DistanceMeters>
          </Trackpoint>
          <Trackpoint>
            <Time>2021-03-31T17:16:54.000Z</Time>
            <Position>
              <LatitudeDegrees>42.4321290291845798492431640625</LatitudeDegrees>
              <LongitudeDegrees>2.8003219328820705413818359375</LongitudeDegrees>
            </Position>
            <AltitudeMeters>750.5999755859375</AltitudeMeters>
            <DistanceMeters>11238.82529835</DistanceMeters>
          </Trackpoint>
          <Trackpoint>
            <Time>2021-03-31T17:16:58.000Z</Time>
            <Position>
              <LatitudeDegrees>42.43207094259560108184814453125</LatitudeDegrees>
              <LongitudeDegrees>2.80031648464500904083251953125</LongitudeDegrees>
            </Position>
            <AltitudeMeters>750.20001220703125</AltitudeMeters>
            <DistanceMeters>11245.306649723</DistanceMeters>
          </Trackpoint>
          <Trackpoint>
            <Time>2021-03-31T17:17:03.000Z</Time>
            <Position>
              <LatitudeDegrees>42.432005144655704498291015625</LatitudeDegrees>
              <LongitudeDegrees>2.80030810274183750152587890625</LongitudeDegrees>
            </Position>
            <AltitudeMeters>749.79998779296875</AltitudeMeters>
            <DistanceMeters>11252.662478572</DistanceMeters>
          </Trackpoint>
          <Trackpoint>
            <Time>2021-03-31T17:17:06.000Z</Time>
            <Position>
              <LatitudeDegrees>42.43197253905236721038818359375</LatitudeDegrees>
              <LongitudeDegrees>2.80029301531612873077392578125</LongitudeDegrees>
            </Position>
            <AltitudeMeters>749.5999755859375</AltitudeMeters>
            <DistanceMeters>11256.496662246</DistanceMeters>
          </Trackpoint>
          <Trackpoint>
            <Time>2021-03-31T17:17:11.000Z</Time>
            <Position>
              <LatitudeDegrees>42.4319208227097988128662109375</LatitudeDegrees>
              <LongitudeDegrees>2.80026711523532867431640625</LongitudeDegrees>
            </Position>
            <AltitudeMeters>749.5999755859375</AltitudeMeters>
            <DistanceMeters>11262.633063372</DistanceMeters>
          </Trackpoint>
          <Trackpoint>
            <Time>2021-03-31T17:17:12.000Z</Time>
            <Position>
              <LatitudeDegrees>42.4319107644259929656982421875</LatitudeDegrees>
              <LongitudeDegrees>2.8002582304179668426513671875</LongitudeDegrees>
            </Position>
            <AltitudeMeters>749.4000244140625</AltitudeMeters>
            <DistanceMeters>11263.970207768</DistanceMeters>
          </Trackpoint>
          <Trackpoint>
            <Time>2021-03-31T17:17:14.000Z</Time>
            <Position>
              <LatitudeDegrees>42.431897856295108795166015625</LatitudeDegrees>
              <LongitudeDegrees>2.8002409636974334716796875</LongitudeDegrees>
            </Position>
            <AltitudeMeters>749.4000244140625</AltitudeMeters>
            <DistanceMeters>11265.98826735</DistanceMeters>
          </Trackpoint>
          <Trackpoint>
            <Time>2021-03-31T17:17:16.000Z</Time>
            <Position>
              <LatitudeDegrees>42.43188721127808094024658203125</LatitudeDegrees>
              <LongitudeDegrees>2.8002221882343292236328125</LongitudeDegrees>
            </Position>
            <AltitudeMeters>749.20001220703125</AltitudeMeters>
            <DistanceMeters>11267.933415681</DistanceMeters>
          </Trackpoint>
          <Trackpoint>
            <Time>2021-03-31T17:17:19.000Z</Time>
            <Position>
              <LatitudeDegrees>42.4318735487759113311767578125</LatitudeDegrees>
              <LongitudeDegrees>2.8001898340880870819091796875</LongitudeDegrees>
            </Position>
            <AltitudeMeters>749.20001220703125</AltitudeMeters>
            <DistanceMeters>11270.994987066</DistanceMeters>
          </Trackpoint>
          <Trackpoint>
            <Time>2021-03-31T17:17:28.000Z</Time>
            <Position>
              <LatitudeDegrees>42.43183423765003681182861328125</LatitudeDegrees>
              <LongitudeDegrees>2.8000647760927677154541015625</LongitudeDegrees>
            </Position>
            <AltitudeMeters>749.4000244140625</AltitudeMeters>
            <DistanceMeters>11282.161333628</DistanceMeters>
          </Trackpoint>
          <Trackpoint>
            <Time>2021-03-31T17:17:29.000Z</Time>
            <Position>
              <LatitudeDegrees>42.43183105252683162689208984375</LatitudeDegrees>
              <LongitudeDegrees>2.80004390515387058258056640625</LongitudeDegrees>
            </Position>
            <AltitudeMeters>749.4000244140625</AltitudeMeters>
            <DistanceMeters>11283.913539664</DistanceMeters>
          </Trackpoint>
          <Trackpoint>
            <Time>2021-03-31T17:17:37.000Z</Time>
            <Position>
              <LatitudeDegrees>42.4318148754537105560302734375</LatitudeDegrees>
              <LongitudeDegrees>2.7999246306717395782470703125</LongitudeDegrees>
            </Position>
            <AltitudeMeters>749.5999755859375</AltitudeMeters>
            <DistanceMeters>11293.875947515</DistanceMeters>
          </Trackpoint>
          <Trackpoint>
            <Time>2021-03-31T17:17:40.000Z</Time>
            <Position>
              <LatitudeDegrees>42.431801967322826385498046875</LatitudeDegrees>
              <LongitudeDegrees>2.79987995512783527374267578125</LongitudeDegrees>
            </Position>
            <AltitudeMeters>749.79998779296875</AltitudeMeters>
            <DistanceMeters>11297.816979294</DistanceMeters>
          </Trackpoint>
          <Trackpoint>
            <Time>2021-03-31T17:17:44.000Z</Time>
            <Position>
              <LatitudeDegrees>42.431779168546199798583984375</LatitudeDegrees>
              <LongitudeDegrees>2.799824215471744537353515625</LongitudeDegrees>
            </Position>
            <AltitudeMeters>749.79998779296875</AltitudeMeters>
            <DistanceMeters>11303.052080249</DistanceMeters>
          </Trackpoint>
          <Trackpoint>
            <Time>2021-03-31T17:17:48.000Z</Time>
            <Position>
              <LatitudeDegrees>42.43175846524536609649658203125</LatitudeDegrees>
              <LongitudeDegrees>2.7997554838657379150390625</LongitudeDegrees>
            </Position>
            <AltitudeMeters>749.79998779296875</AltitudeMeters>
            <DistanceMeters>11309.150841178</DistanceMeters>
          </Trackpoint>
          <Trackpoint>
            <Time>2021-03-31T17:17:54.000Z</Time>
            <Position>
              <LatitudeDegrees>42.43173985742032527923583984375</LatitudeDegrees>
              <LongitudeDegrees>2.79967593960464000701904296875</LongitudeDegrees>
            </Position>
            <AltitudeMeters>749.4000244140625</AltitudeMeters>
            <DistanceMeters>11316.005950062</DistanceMeters>
          </Trackpoint>
          <Trackpoint>
            <Time>2021-03-31T17:17:57.000Z</Time>
            <Position>
              <LatitudeDegrees>42.4317233450710773468017578125</LatitudeDegrees>
              <LongitudeDegrees>2.799627073109149932861328125</LongitudeDegrees>
            </Position>
            <AltitudeMeters>749.20001220703125</AltitudeMeters>
            <DistanceMeters>11320.420347526</DistanceMeters>
          </Trackpoint>
          <Trackpoint>
            <Time>2021-03-31T17:18:00.000Z</Time>
            <Position>
              <LatitudeDegrees>42.431709431111812591552734375</LatitudeDegrees>
              <LongitudeDegrees>2.79958222992718219757080078125</LongitudeDegrees>
            </Position>
            <AltitudeMeters>748.5999755859375</AltitudeMeters>
            <DistanceMeters>11324.415992049</DistanceMeters>
          </Trackpoint>
          <Trackpoint>
            <Time>2021-03-31T17:18:05.000Z</Time>
            <Position>
              <LatitudeDegrees>42.4316914938390254974365234375</LatitudeDegrees>
              <LongitudeDegrees>2.7995028533041477203369140625</LongitudeDegrees>
            </Position>
            <AltitudeMeters>748.20001220703125</AltitudeMeters>
            <DistanceMeters>11331.23544171</DistanceMeters>
          </Trackpoint>
          <Trackpoint>
            <Time>2021-03-31T17:18:06.000Z</Time>
            <Position>
              <LatitudeDegrees>42.43168990127742290496826171875</LatitudeDegrees>
              <LongitudeDegrees>2.799488604068756103515625</LongitudeDegrees>
            </Position>
            <AltitudeMeters>748.20001220703125</AltitudeMeters>
            <DistanceMeters>11332.422324992</DistanceMeters>
          </Trackpoint>
          <Trackpoint>
            <Time>2021-03-31T17:18:08.000Z</Time>
            <Position>
              <LatitudeDegrees>42.43168336339294910430908203125</LatitudeDegrees>
              <LongitudeDegrees>2.799466140568256378173828125</LongitudeDegrees>
            </Position>
            <AltitudeMeters>748.4000244140625</AltitudeMeters>
            <DistanceMeters>11334.404264258</DistanceMeters>
          </Trackpoint>
          <Trackpoint>
            <Time>2021-03-31T17:18:13.000Z</Time>
            <Position>
              <LatitudeDegrees>42.4316676892340183258056640625</LatitudeDegrees>
              <LongitudeDegrees>2.79939598403871059417724609375</LongitudeDegrees>
            </Position>
            <AltitudeMeters>748.5999755859375</AltitudeMeters>
            <DistanceMeters>11340.424789721</DistanceMeters>
          </Trackpoint>
          <Trackpoint>
            <Time>2021-03-31T17:18:14.000Z</Time>
            <Position>
              <LatitudeDegrees>42.4316681921482086181640625</LatitudeDegrees>
              <LongitudeDegrees>2.79937955550849437713623046875</LongitudeDegrees>
            </Position>
            <AltitudeMeters>748.5999755859375</AltitudeMeters>
            <DistanceMeters>11341.775373092</DistanceMeters>
          </Trackpoint>
          <Trackpoint>
            <Time>2021-03-31T17:18:21.000Z</Time>
            <Position>
              <LatitudeDegrees>42.431675232946872711181640625</LatitudeDegrees>
              <LongitudeDegrees>2.79928140342235565185546875</LongitudeDegrees>
            </Position>
            <AltitudeMeters>748.79998779296875</AltitudeMeters>
            <DistanceMeters>11349.876644325</DistanceMeters>
          </Trackpoint>
          <Trackpoint>
            <Time>2021-03-31T17:18:22.000Z</Time>
            <Position>
              <LatitudeDegrees>42.4316717125475406646728515625</LatitudeDegrees>
              <LongitudeDegrees>2.799268662929534912109375</LongitudeDegrees>
            </Position>
            <AltitudeMeters>748.79998779296875</AltitudeMeters>
            <DistanceMeters>11350.992955459</DistanceMeters>
          </Trackpoint>
          <Trackpoint>
            <Time>2021-03-31T17:18:32.000Z</Time>
            <Position>
              <LatitudeDegrees>42.4316841177642345428466796875</LatitudeDegrees>
              <LongitudeDegrees>2.79912675730884075164794921875</LongitudeDegrees>
            </Position>
            <AltitudeMeters>749.4000244140625</AltitudeMeters>
            <DistanceMeters>11362.732505139</DistanceMeters>
          </Trackpoint>
          <Trackpoint>
            <Time>2021-03-31T17:18:35.000Z</Time>
            <Position>
              <LatitudeDegrees>42.43168503977358341217041015625</LatitudeDegrees>
              <LongitudeDegrees>2.7990814112126827239990234375</LongitudeDegrees>
            </Position>
            <AltitudeMeters>749.5999755859375</AltitudeMeters>
            <DistanceMeters>11366.459200401</DistanceMeters>
          </Trackpoint>
          <Trackpoint>
            <Time>2021-03-31T17:18:39.000Z</Time>
            <Position>
              <LatitudeDegrees>42.4317015521228313446044921875</LatitudeDegrees>
              <LongitudeDegrees>2.79900957830250263214111328125</LongitudeDegrees>
            </Position>
            <AltitudeMeters>749.79998779296875</AltitudeMeters>
            <DistanceMeters>11372.639590628</DistanceMeters>
          </Trackpoint>
          <Trackpoint>
            <Time>2021-03-31T17:18:41.000Z</Time>
            <Position>
              <LatitudeDegrees>42.43170951493084430694580078125</LatitudeDegrees>
              <LongitudeDegrees>2.7989985980093479156494140625</LongitudeDegrees>
            </Position>
            <AltitudeMeters>749.79998779296875</AltitudeMeters>
            <DistanceMeters>11373.900262454</DistanceMeters>
          </Trackpoint>
          <Trackpoint>
            <Time>2021-03-31T17:18:43.000Z</Time>
            <Position>
              <LatitudeDegrees>42.4317300505936145782470703125</LatitudeDegrees>
              <LongitudeDegrees>2.7989888750016689300537109375</LongitudeDegrees>
            </Position>
            <AltitudeMeters>750</AltitudeMeters>
            <DistanceMeters>11376.322977809</DistanceMeters>
          </Trackpoint>
          <Trackpoint>
            <Time>2021-03-31T17:18:47.000Z</Time>
            <Position>
              <LatitudeDegrees>42.43173466064035892486572265625</LatitudeDegrees>
              <LongitudeDegrees>2.79898091219365596771240234375</LongitudeDegrees>
            </Position>
            <AltitudeMeters>750.4000244140625</AltitudeMeters>
            <DistanceMeters>11377.151401498</DistanceMeters>
          </Trackpoint>
          <Trackpoint>
            <Time>2021-03-31T17:18:49.000Z</Time>
            <Position>
              <LatitudeDegrees>42.43172644637525081634521484375</LatitudeDegrees>
              <LongitudeDegrees>2.7989908866584300994873046875</LongitudeDegrees>
            </Position>
            <AltitudeMeters>750.5999755859375</AltitudeMeters>
            <DistanceMeters>11378.375735068</DistanceMeters>
          </Trackpoint>
          <Trackpoint>
            <Time>2021-03-31T17:18:50.000Z</Time>
            <Position>
              <LatitudeDegrees>42.431720159947872161865234375</LatitudeDegrees>
              <LongitudeDegrees>2.798989377915859222412109375</LongitudeDegrees>
            </Position>
            <AltitudeMeters>750.5999755859375</AltitudeMeters>
            <DistanceMeters>11379.086849883</DistanceMeters>
          </Trackpoint>
          <Trackpoint>
            <Time>2021-03-31T17:18:52.000Z</Time>
            <Position>
              <LatitudeDegrees>42.43171353824436664581298828125</LatitudeDegrees>
              <LongitudeDegrees>2.798975966870784759521484375</LongitudeDegrees>
            </Position>
            <AltitudeMeters>750.5999755859375</AltitudeMeters>
            <DistanceMeters>11380.417223885</DistanceMeters>
          </Trackpoint>
          <Trackpoint>
            <Time>2021-03-31T17:18:53.000Z</Time>
            <Position>
              <LatitudeDegrees>42.43171085603535175323486328125</LatitudeDegrees>
              <LongitudeDegrees>2.79896758496761322021484375</LongitudeDegrees>
            </Position>
            <AltitudeMeters>750.5999755859375</AltitudeMeters>
            <DistanceMeters>11381.165464982</DistanceMeters>
          </Trackpoint>
          <Trackpoint>
            <Time>2021-03-31T17:18:56.000Z</Time>
            <Position>
              <LatitudeDegrees>42.431717813014984130859375</LatitudeDegrees>
              <LongitudeDegrees>2.79895945452153682708740234375</LongitudeDegrees>
            </Position>
            <AltitudeMeters>750.20001220703125</AltitudeMeters>
            <DistanceMeters>11382.188934018</DistanceMeters>
          </Trackpoint>
          <Trackpoint>
            <Time>2021-03-31T17:18:58.000Z</Time>
            <Position>
              <LatitudeDegrees>42.431717813014984130859375</LatitudeDegrees>
              <LongitudeDegrees>2.79895945452153682708740234375</LongitudeDegrees>
            </Position>
            <AltitudeMeters>750.20001220703125</AltitudeMeters>
            <DistanceMeters>11382.188934018</DistanceMeters>
          </Trackpoint>
          <Trackpoint>
            <Time>2021-03-31T17:19:02.000Z</Time>
            <Position>
              <LatitudeDegrees>42.431717813014984130859375</LatitudeDegrees>
              <LongitudeDegrees>2.79895945452153682708740234375</LongitudeDegrees>
            </Position>
            <AltitudeMeters>750</AltitudeMeters>
            <DistanceMeters>11382.188934018</DistanceMeters>
          </Trackpoint>
          <Trackpoint>
            <Time>2021-03-31T17:19:08.000Z</Time>
            <Position>
              <LatitudeDegrees>42.431721501052379608154296875</LatitudeDegrees>
              <LongitudeDegrees>2.79895945452153682708740234375</LongitudeDegrees>
            </Position>
            <AltitudeMeters>750</AltitudeMeters>
            <DistanceMeters>11382.592098223</DistanceMeters>
          </Trackpoint>
          <Trackpoint>
            <Time>2021-03-31T17:19:24.000Z</Time>
            <Position>
              <LatitudeDegrees>42.43173616938292980194091796875</LatitudeDegrees>
              <LongitudeDegrees>2.79893866740167140960693359375</LongitudeDegrees>
            </Position>
            <AltitudeMeters>749.79998779296875</AltitudeMeters>
            <DistanceMeters>11384.954424881</DistanceMeters>
          </Trackpoint>
          <Trackpoint>
            <Time>2021-03-31T17:19:28.000Z</Time>
            <Position>
              <LatitudeDegrees>42.4317370913922786712646484375</LatitudeDegrees>
              <LongitudeDegrees>2.79893296770751476287841796875</LongitudeDegrees>
            </Position>
            <AltitudeMeters>750</AltitudeMeters>
            <DistanceMeters>11385.438967952</DistanceMeters>
          </Trackpoint>
          <Trackpoint>
            <Time>2021-03-31T17:19:30.000Z</Time>
            <Position>
              <LatitudeDegrees>42.43173751048743724822998046875</LatitudeDegrees>
              <LongitudeDegrees>2.79892793856561183929443359375</LongitudeDegrees>
            </Position>
            <AltitudeMeters>750</AltitudeMeters>
            <DistanceMeters>11385.863940338</DistanceMeters>
          </Trackpoint>
          <Trackpoint>
            <Time>2021-03-31T17:19:39.000Z</Time>
            <Position>
              <LatitudeDegrees>42.4317377619445323944091796875</LatitudeDegrees>
              <LongitudeDegrees>2.79886524192988872528076171875</LongitudeDegrees>
            </Position>
            <AltitudeMeters>750.5999755859375</AltitudeMeters>
            <DistanceMeters>11391.014703834</DistanceMeters>
          </Trackpoint>
          <Trackpoint>
            <Time>2021-03-31T17:19:40.000Z</Time>
            <Position>
              <LatitudeDegrees>42.431739605963230133056640625</LatitudeDegrees>
              <LongitudeDegrees>2.79884462244808673858642578125</LongitudeDegrees>
            </Position>
            <AltitudeMeters>750.79998779296875</AltitudeMeters>
            <DistanceMeters>11392.719897259</DistanceMeters>
          </Trackpoint>
          <Trackpoint>
            <Time>2021-03-31T17:19:50.000Z</Time>
            <Position>
              <LatitudeDegrees>42.43174253962934017181396484375</LatitudeDegrees>
              <LongitudeDegrees>2.79866851866245269775390625</LongitudeDegrees>
            </Position>
            <AltitudeMeters>751.5999755859375</AltitudeMeters>
            <DistanceMeters>11407.190191402</DistanceMeters>
          </Trackpoint>
          <Trackpoint>
            <Time>2021-03-31T17:19:51.000Z</Time>
            <Position>
              <LatitudeDegrees>42.43174086324870586395263671875</LatitudeDegrees>
              <LongitudeDegrees>2.79865653254091739654541015625</LongitudeDegrees>
            </Position>
            <AltitudeMeters>751.79998779296875</AltitudeMeters>
            <DistanceMeters>11408.18683999</DistanceMeters>
          </Trackpoint>
          <Trackpoint>
            <Time>2021-03-31T17:19:57.000Z</Time>
            <Position>
              <LatitudeDegrees>42.43172627873718738555908203125</LatitudeDegrees>
              <LongitudeDegrees>2.798581682145595550537109375</LongitudeDegrees>
            </Position>
            <AltitudeMeters>752.5999755859375</AltitudeMeters>
            <DistanceMeters>11414.545824368</DistanceMeters>
          </Trackpoint>
          <Trackpoint>
            <Time>2021-03-31T17:19:58.000Z</Time>
            <Position>
              <LatitudeDegrees>42.43172963149845600128173828125</LatitudeDegrees>
              <LongitudeDegrees>2.7985691092908382415771484375</LongitudeDegrees>
            </Position>
            <AltitudeMeters>752.79998779296875</AltitudeMeters>
            <DistanceMeters>11415.645838115</DistanceMeters>
          </Trackpoint>
          <Trackpoint>
            <Time>2021-03-31T17:20:00.000Z</Time>
            <Position>
              <LatitudeDegrees>42.4317245185375213623046875</LatitudeDegrees>
              <LongitudeDegrees>2.79853214509785175323486328125</LongitudeDegrees>
            </Position>
            <AltitudeMeters>752.79998779296875</AltitudeMeters>
            <DistanceMeters>11418.733840823</DistanceMeters>
          </Trackpoint>
          <Trackpoint>
            <Time>2021-03-31T17:20:04.000Z</Time>
            <Position>
              <LatitudeDegrees>42.4317146278917789459228515625</LatitudeDegrees>
              <LongitudeDegrees>2.7984668500721454620361328125</LongitudeDegrees>
            </Position>
            <AltitudeMeters>753</AltitudeMeters>
            <DistanceMeters>11424.209227</DistanceMeters>
          </Trackpoint>
          <Trackpoint>
            <Time>2021-03-31T17:20:08.000Z</Time>
            <Position>
              <LatitudeDegrees>42.43169258348643779754638671875</LatitudeDegrees>
              <LongitudeDegrees>2.79840960167348384857177734375</LongitudeDegrees>
            </Position>
            <AltitudeMeters>753.20001220703125</AltitudeMeters>
            <DistanceMeters>11429.513726807</DistanceMeters>
          </Trackpoint>
          <Trackpoint>
            <Time>2021-03-31T17:20:13.000Z</Time>
            <Position>
              <LatitudeDegrees>42.43167347274720668792724609375</LatitudeDegrees>
              <LongitudeDegrees>2.79834690503776073455810546875</LongitudeDegrees>
            </Position>
            <AltitudeMeters>753.5999755859375</AltitudeMeters>
            <DistanceMeters>11435.086377244</DistanceMeters>
          </Trackpoint>
          <Trackpoint>
            <Time>2021-03-31T17:20:15.000Z</Time>
            <Position>
              <LatitudeDegrees>42.4316775798797607421875</LatitudeDegrees>
              <LongitudeDegrees>2.79832117259502410888671875</LongitudeDegrees>
            </Position>
            <AltitudeMeters>753.79998779296875</AltitudeMeters>
            <DistanceMeters>11437.249148521</DistanceMeters>
          </Trackpoint>
          <Trackpoint>
            <Time>2021-03-31T17:20:17.000Z</Time>
            <Position>
              <LatitudeDegrees>42.43167288601398468017578125</LatitudeDegrees>
              <LongitudeDegrees>2.7982884831726551055908203125</LongitudeDegrees>
            </Position>
            <AltitudeMeters>754</AltitudeMeters>
            <DistanceMeters>11439.98684161</DistanceMeters>
          </Trackpoint>
          <Trackpoint>
            <Time>2021-03-31T17:20:20.000Z</Time>
            <Position>
              <LatitudeDegrees>42.4316720478236675262451171875</LatitudeDegrees>
              <LongitudeDegrees>2.79824431054294109344482421875</LongitudeDegrees>
            </Position>
            <AltitudeMeters>754.20001220703125</AltitudeMeters>
            <DistanceMeters>11443.617807268</DistanceMeters>
          </Trackpoint>
          <Trackpoint>
            <Time>2021-03-31T17:20:29.000Z</Time>
            <Position>
              <LatitudeDegrees>42.4316928349435329437255859375</LatitudeDegrees>
              <LongitudeDegrees>2.798120677471160888671875</LongitudeDegrees>
            </Position>
            <AltitudeMeters>753</AltitudeMeters>
            <DistanceMeters>11454.034399731</DistanceMeters>
          </Trackpoint>
          <Trackpoint>
            <Time>2021-03-31T17:20:30.000Z</Time>
            <Position>
              <LatitudeDegrees>42.43169627152383327484130859375</LatitudeDegrees>
              <LongitudeDegrees>2.7981074340641498565673828125</LongitudeDegrees>
            </Position>
            <AltitudeMeters>753</AltitudeMeters>
            <DistanceMeters>11455.190449606</DistanceMeters>
          </Trackpoint>
          <Trackpoint>
            <Time>2021-03-31T17:20:33.000Z</Time>
            <Position>
              <LatitudeDegrees>42.43169811554253101348876953125</LatitudeDegrees>
              <LongitudeDegrees>2.7980522811412811279296875</LongitudeDegrees>
            </Position>
            <AltitudeMeters>752.79998779296875</AltitudeMeters>
            <DistanceMeters>11459.724926871</DistanceMeters>
          </Trackpoint>
          <Trackpoint>
            <Time>2021-03-31T17:20:39.000Z</Time>
            <Position>
              <LatitudeDegrees>42.4317052401602268218994140625</LatitudeDegrees>
              <LongitudeDegrees>2.7979592420160770416259765625</LongitudeDegrees>
            </Position>
            <AltitudeMeters>752.20001220703125</AltitudeMeters>
            <DistanceMeters>11467.408587443</DistanceMeters>
          </Trackpoint>
          <Trackpoint>
            <Time>2021-03-31T17:20:43.000Z</Time>
            <Position>
              <LatitudeDegrees>42.4317163042724132537841796875</LatitudeDegrees>
              <LongitudeDegrees>2.79790484346449375152587890625</LongitudeDegrees>
            </Position>
            <AltitudeMeters>751.79998779296875</AltitudeMeters>
            <DistanceMeters>11472.044488859</DistanceMeters>
          </Trackpoint>
          <Trackpoint>
            <Time>2021-03-31T17:20:47.000Z</Time>
            <Position>
              <LatitudeDegrees>42.43172678165137767791748046875</LatitudeDegrees>
              <LongitudeDegrees>2.79782764613628387451171875</LongitudeDegrees>
            </Position>
            <AltitudeMeters>751</AltitudeMeters>
            <DistanceMeters>11478.492315776</DistanceMeters>
          </Trackpoint>
          <Trackpoint>
            <Time>2021-03-31T17:20:50.000Z</Time>
            <Position>
              <LatitudeDegrees>42.43172585964202880859375</LatitudeDegrees>
              <LongitudeDegrees>2.79778934083878993988037109375</LongitudeDegrees>
            </Position>
            <AltitudeMeters>750.5999755859375</AltitudeMeters>
            <DistanceMeters>11481.641128875</DistanceMeters>
          </Trackpoint>
          <Trackpoint>
            <Time>2021-03-31T17:20:53.000Z</Time>
            <Position>
              <LatitudeDegrees>42.4317245185375213623046875</LatitudeDegrees>
              <LongitudeDegrees>2.79773854650557041168212890625</LongitudeDegrees>
            </Position>
            <AltitudeMeters>750.20001220703125</AltitudeMeters>
            <DistanceMeters>11485.815820186</DistanceMeters>
          </Trackpoint>
          <Trackpoint>
            <Time>2021-03-31T17:20:54.000Z</Time>
            <Position>
              <LatitudeDegrees>42.43172829039394855499267578125</LatitudeDegrees>
              <LongitudeDegrees>2.79771323315799236297607421875</LongitudeDegrees>
            </Position>
            <AltitudeMeters>750</AltitudeMeters>
            <DistanceMeters>11487.936428134</DistanceMeters>
          </Trackpoint>
          <Trackpoint>
            <Time>2021-03-31T17:20:56.000Z</Time>
            <Position>
              <LatitudeDegrees>42.4317391030490398406982421875</LatitudeDegrees>
              <LongitudeDegrees>2.7976849861443042755126953125</LongitudeDegrees>
            </Position>
            <AltitudeMeters>749.5999755859375</AltitudeMeters>
            <DistanceMeters>11490.552684609</DistanceMeters>
          </Trackpoint>
          <Trackpoint>
            <Time>2021-03-31T17:20:57.000Z</Time>
            <Position>
              <LatitudeDegrees>42.43174589239060878753662109375</LatitudeDegrees>
              <LongitudeDegrees>2.79767207801342010498046875</LongitudeDegrees>
            </Position>
            <AltitudeMeters>749.5999755859375</AltitudeMeters>
            <DistanceMeters>11491.859085944</DistanceMeters>
          </Trackpoint>
          <Trackpoint>
            <Time>2021-03-31T17:21:00.000Z</Time>
            <Position>
              <LatitudeDegrees>42.43175561539828777313232421875</LatitudeDegrees>
              <LongitudeDegrees>2.7976253069937229156494140625</LongitudeDegrees>
            </Position>
            <AltitudeMeters>749.4000244140625</AltitudeMeters>
            <DistanceMeters>11495.851339057</DistanceMeters>
          </Trackpoint>
          <Trackpoint>
            <Time>2021-03-31T17:21:01.000Z</Time>
            <Position>
              <LatitudeDegrees>42.43176014162600040435791015625</LatitudeDegrees>
              <LongitudeDegrees>2.7976097166538238525390625</LongitudeDegrees>
            </Position>
            <AltitudeMeters>749.20001220703125</AltitudeMeters>
            <DistanceMeters>11497.221833822</DistanceMeters>
          </Trackpoint>
          <Trackpoint>
            <Time>2021-03-31T17:21:02.000Z</Time>
            <Position>
              <LatitudeDegrees>42.4317647516727447509765625</LatitudeDegrees>
              <LongitudeDegrees>2.797598652541637420654296875</LongitudeDegrees>
            </Position>
            <AltitudeMeters>749</AltitudeMeters>
            <DistanceMeters>11498.26712768</DistanceMeters>
          </Trackpoint>
          <Trackpoint>
            <Time>2021-03-31T17:21:04.000Z</Time>
            <Position>
              <LatitudeDegrees>42.431781850755214691162109375</LatitudeDegrees>
              <LongitudeDegrees>2.79757794924080371856689453125</LongitudeDegrees>
            </Position>
            <AltitudeMeters>748.79998779296875</AltitudeMeters>
            <DistanceMeters>11500.820500977</DistanceMeters>
          </Trackpoint>
          <Trackpoint>
            <Time>2021-03-31T17:21:05.000Z</Time>
            <Position>
              <LatitudeDegrees>42.43178461678326129913330078125</LatitudeDegrees>
              <LongitudeDegrees>2.797563113272190093994140625</LongitudeDegrees>
            </Position>
            <AltitudeMeters>748.5999755859375</AltitudeMeters>
            <DistanceMeters>11502.081172804</DistanceMeters>
          </Trackpoint>
          <Trackpoint>
            <Time>2021-03-31T17:21:07.000Z</Time>
            <Position>
              <LatitudeDegrees>42.43178931064903736114501953125</LatitudeDegrees>
              <LongitudeDegrees>2.797546349465847015380859375</LongitudeDegrees>
            </Position>
            <AltitudeMeters>748.4000244140625</AltitudeMeters>
            <DistanceMeters>11503.553320332</DistanceMeters>
          </Trackpoint>
          <Trackpoint>
            <Time>2021-03-31T17:21:10.000Z</Time>
            <Position>
              <LatitudeDegrees>42.43179148994386196136474609375</LatitudeDegrees>
              <LongitudeDegrees>2.79752883128821849822998046875</LongitudeDegrees>
            </Position>
            <AltitudeMeters>748.20001220703125</AltitudeMeters>
            <DistanceMeters>11505.006949545</DistanceMeters>
          </Trackpoint>
          <Trackpoint>
            <Time>2021-03-31T17:21:11.000Z</Time>
            <Position>
              <LatitudeDegrees>42.4317934177815914154052734375</LatitudeDegrees>
              <LongitudeDegrees>2.7975146658718585968017578125</LongitudeDegrees>
            </Position>
            <AltitudeMeters>748</AltitudeMeters>
            <DistanceMeters>11506.186200058</DistanceMeters>
          </Trackpoint>
          <Trackpoint>
            <Time>2021-03-31T17:21:13.000Z</Time>
            <Position>
              <LatitudeDegrees>42.43179886601865291595458984375</LatitudeDegrees>
              <LongitudeDegrees>2.7974801324307918548583984375</LongitudeDegrees>
            </Position>
            <AltitudeMeters>748</AltitudeMeters>
            <DistanceMeters>11509.087239742</DistanceMeters>
          </Trackpoint>
          <Trackpoint>
            <Time>2021-03-31T17:21:16.000Z</Time>
            <Position>
              <LatitudeDegrees>42.4318108521401882171630859375</LatitudeDegrees>
              <LongitudeDegrees>2.79743629507720470428466796875</LongitudeDegrees>
            </Position>
            <AltitudeMeters>747.5999755859375</AltitudeMeters>
            <DistanceMeters>11512.926130826</DistanceMeters>
          </Trackpoint>
          <Trackpoint>
            <Time>2021-03-31T17:21:17.000Z</Time>
            <Position>
              <LatitudeDegrees>42.4318188987672328948974609375</LatitudeDegrees>
              <LongitudeDegrees>2.79742062091827392578125</LongitudeDegrees>
            </Position>
            <AltitudeMeters>747.4000244140625</AltitudeMeters>
            <DistanceMeters>11514.493351548</DistanceMeters>
          </Trackpoint>
          <Trackpoint>
            <Time>2021-03-31T17:21:20.000Z</Time>
            <Position>
              <LatitudeDegrees>42.43183004669845104217529296875</LatitudeDegrees>
              <LongitudeDegrees>2.7973704971373081207275390625</LongitudeDegrees>
            </Position>
            <AltitudeMeters>746.5999755859375</AltitudeMeters>
            <DistanceMeters>11518.793769732</DistanceMeters>
          </Trackpoint>
          <Trackpoint>
            <Time>2021-03-31T17:21:21.000Z</Time>
            <Position>
              <LatitudeDegrees>42.43183524347841739654541015625</LatitudeDegrees>
              <LongitudeDegrees>2.79735934920608997344970703125</LongitudeDegrees>
            </Position>
            <AltitudeMeters>746.4000244140625</AltitudeMeters>
            <DistanceMeters>11519.877240977</DistanceMeters>
          </Trackpoint>
          <Trackpoint>
            <Time>2021-03-31T17:21:23.000Z</Time>
            <Position>
              <LatitudeDegrees>42.43184127844870090484619140625</LatitudeDegrees>
              <LongitudeDegrees>2.79733671806752681732177734375</LongitudeDegrees>
            </Position>
            <AltitudeMeters>746.4000244140625</AltitudeMeters>
            <DistanceMeters>11521.856900841</DistanceMeters>
          </Trackpoint>
          <Trackpoint>
            <Time>2021-03-31T17:21:27.000Z</Time>
            <Position>
              <LatitudeDegrees>42.4318500794470310211181640625</LatitudeDegrees>
              <LongitudeDegrees>2.7972853370010852813720703125</LongitudeDegrees>
            </Position>
            <AltitudeMeters>746</AltitudeMeters>
            <DistanceMeters>11526.190785819</DistanceMeters>
          </Trackpoint>
          <Trackpoint>
            <Time>2021-03-31T17:21:32.000Z</Time>
            <Position>
              <LatitudeDegrees>42.43188017047941684722900390625</LatitudeDegrees>
              <LongitudeDegrees>2.79723680578172206878662109375</LongitudeDegrees>
            </Position>
            <AltitudeMeters>745.4000244140625</AltitudeMeters>
            <DistanceMeters>11531.397347975</DistanceMeters>
          </Trackpoint>
          <Trackpoint>
            <Time>2021-03-31T17:21:35.000Z</Time>
            <Position>
              <LatitudeDegrees>42.43188134394586086273193359375</LatitudeDegrees>
              <LongitudeDegrees>2.79721233062446117401123046875</LongitudeDegrees>
            </Position>
            <AltitudeMeters>745.4000244140625</AltitudeMeters>
            <DistanceMeters>11533.413168999</DistanceMeters>
          </Trackpoint>
          <Trackpoint>
            <Time>2021-03-31T17:21:39.000Z</Time>
            <Position>
              <LatitudeDegrees>42.43188737891614437103271484375</LatitudeDegrees>
              <LongitudeDegrees>2.7971767075359821319580078125</LongitudeDegrees>
            </Position>
            <AltitudeMeters>745</AltitudeMeters>
            <DistanceMeters>11536.415171046</DistanceMeters>
          </Trackpoint>
          <Trackpoint>
            <Time>2021-03-31T17:21:40.000Z</Time>
            <Position>
              <LatitudeDegrees>42.43189014494419097900390625</LatitudeDegrees>
              <LongitudeDegrees>2.7971679903566837310791015625</LongitudeDegrees>
            </Position>
            <AltitudeMeters>745</AltitudeMeters>
            <DistanceMeters>11537.198781407</DistanceMeters>
          </Trackpoint>
          <Trackpoint>
            <Time>2021-03-31T17:21:42.000Z</Time>
            <Position>
              <LatitudeDegrees>42.4318970181047916412353515625</LatitudeDegrees>
              <LongitudeDegrees>2.7971404977142810821533203125</LongitudeDegrees>
            </Position>
            <AltitudeMeters>744.79998779296875</AltitudeMeters>
            <DistanceMeters>11539.583933008</DistanceMeters>
          </Trackpoint>
          <Trackpoint>
            <Time>2021-03-31T17:21:46.000Z</Time>
            <Position>
              <LatitudeDegrees>42.43189156986773014068603515625</LatitudeDegrees>
              <LongitudeDegrees>2.7970885299146175384521484375</LongitudeDegrees>
            </Position>
            <AltitudeMeters>744.5999755859375</AltitudeMeters>
            <DistanceMeters>11543.894837475</DistanceMeters>
          </Trackpoint>
          <Trackpoint>
            <Time>2021-03-31T17:21:48.000Z</Time>
            <Position>
              <LatitudeDegrees>42.4318854510784149169921875</LatitudeDegrees>
              <LongitudeDegrees>2.79706723988056182861328125</LongitudeDegrees>
            </Position>
            <AltitudeMeters>744.4000244140625</AltitudeMeters>
            <DistanceMeters>11545.771464719</DistanceMeters>
          </Trackpoint>
          <Trackpoint>
            <Time>2021-03-31T17:21:54.000Z</Time>
            <Position>
              <LatitudeDegrees>42.4318899773061275482177734375</LatitudeDegrees>
              <LongitudeDegrees>2.79704854823648929595947265625</LongitudeDegrees>
            </Position>
            <AltitudeMeters>744.20001220703125</AltitudeMeters>
            <DistanceMeters>11547.389711353</DistanceMeters>
          </Trackpoint>
          <Trackpoint>
            <Time>2021-03-31T17:21:55.000Z</Time>
            <Position>
              <LatitudeDegrees>42.43190246634185314178466796875</LatitudeDegrees>
              <LongitudeDegrees>2.797058187425136566162109375</LongitudeDegrees>
            </Position>
            <AltitudeMeters>744.20001220703125</AltitudeMeters>
            <DistanceMeters>11548.985481248</DistanceMeters>
          </Trackpoint>
          <Trackpoint>
            <Time>2021-03-31T17:22:01.000Z</Time>
            <Position>
              <LatitudeDegrees>42.431903220713138580322265625</LatitudeDegrees>
              <LongitudeDegrees>2.797071933746337890625</LongitudeDegrees>
            </Position>
            <AltitudeMeters>744</AltitudeMeters>
            <DistanceMeters>11550.117855238</DistanceMeters>
          </Trackpoint>
          <Trackpoint>
            <Time>2021-03-31T17:22:12.000Z</Time>
            <Position>
              <LatitudeDegrees>42.43190716020762920379638671875</LatitudeDegrees>
              <LongitudeDegrees>2.797069586813449859619140625</LongitudeDegrees>
            </Position>
            <AltitudeMeters>744</AltitudeMeters>
            <DistanceMeters>11550.602398309</DistanceMeters>
          </Trackpoint>
          <Trackpoint>
            <Time>2021-03-31T17:22:15.000Z</Time>
            <Position>
              <LatitudeDegrees>42.43190682493150234222412109375</LatitudeDegrees>
              <LongitudeDegrees>2.797069586813449859619140625</LongitudeDegrees>
            </Position>
            <AltitudeMeters>744</AltitudeMeters>
            <DistanceMeters>11550.602398309</DistanceMeters>
          </Trackpoint>
          <Trackpoint>
            <Time>2021-03-31T17:22:18.000Z</Time>
            <Position>
              <LatitudeDegrees>42.43190489709377288818359375</LatitudeDegrees>
              <LongitudeDegrees>2.797071933746337890625</LongitudeDegrees>
            </Position>
            <AltitudeMeters>744</AltitudeMeters>
            <DistanceMeters>11550.902899165</DistanceMeters>
          </Trackpoint>
          <Trackpoint>
            <Time>2021-03-31T17:22:31.000Z</Time>
            <Position>
              <LatitudeDegrees>42.431905567646026611328125</LatitudeDegrees>
              <LongitudeDegrees>2.7970759570598602294921875</LongitudeDegrees>
            </Position>
            <AltitudeMeters>744.4000244140625</AltitudeMeters>
            <DistanceMeters>11551.23208136</DistanceMeters>
          </Trackpoint>
          <Trackpoint>
            <Time>2021-03-31T17:22:35.000Z</Time>
            <Position>
              <LatitudeDegrees>42.43190464563667774200439453125</LatitudeDegrees>
              <LongitudeDegrees>2.7970759570598602294921875</LongitudeDegrees>
            </Position>
            <AltitudeMeters>744.4000244140625</AltitudeMeters>
            <DistanceMeters>11551.23208136</DistanceMeters>
          </Trackpoint>
          <Trackpoint>
            <Time>2021-03-31T17:22:43.000Z</Time>
            <Position>
              <LatitudeDegrees>42.4319030530750751495361328125</LatitudeDegrees>
              <LongitudeDegrees>2.79707184992730617523193359375</LongitudeDegrees>
            </Position>
            <AltitudeMeters>744</AltitudeMeters>
            <DistanceMeters>11551.623886541</DistanceMeters>
          </Trackpoint>
          <Trackpoint>
            <Time>2021-03-31T17:22:45.000Z</Time>
            <Position>
              <LatitudeDegrees>42.4319030530750751495361328125</LatitudeDegrees>
              <LongitudeDegrees>2.79707184992730617523193359375</LongitudeDegrees>
            </Position>
            <AltitudeMeters>744</AltitudeMeters>
            <DistanceMeters>11551.623886541</DistanceMeters>
          </Trackpoint>
          <Trackpoint>
            <Time>2021-03-31T17:22:47.000Z</Time>
            <Position>
              <LatitudeDegrees>42.4319030530750751495361328125</LatitudeDegrees>
              <LongitudeDegrees>2.79706832952797412872314453125</LongitudeDegrees>
            </Position>
            <AltitudeMeters>744</AltitudeMeters>
            <DistanceMeters>11551.924387397</DistanceMeters>
          </Trackpoint>
          <Trackpoint>
            <Time>2021-03-31T17:23:07.000Z</Time>
            <Position>
              <LatitudeDegrees>42.4318453855812549591064453125</LatitudeDegrees>
              <LongitudeDegrees>2.7970352210104465484619140625</LongitudeDegrees>
            </Position>
            <AltitudeMeters>743.79998779296875</AltitudeMeters>
            <DistanceMeters>11558.895100513</DistanceMeters>
          </Trackpoint>
          <Trackpoint>
            <Time>2021-03-31T17:23:09.000Z</Time>
            <Position>
              <LatitudeDegrees>42.43183172307908535003662109375</LatitudeDegrees>
              <LongitudeDegrees>2.79703077860176563262939453125</LongitudeDegrees>
            </Position>
            <AltitudeMeters>743.79998779296875</AltitudeMeters>
            <DistanceMeters>11560.462321235</DistanceMeters>
          </Trackpoint>
          <Trackpoint>
            <Time>2021-03-31T17:23:12.000Z</Time>
            <Position>
              <LatitudeDegrees>42.43179031647741794586181640625</LatitudeDegrees>
              <LongitudeDegrees>2.7970040403306484222412109375</LongitudeDegrees>
            </Position>
            <AltitudeMeters>743.4000244140625</AltitudeMeters>
            <DistanceMeters>11565.567299258</DistanceMeters>
          </Trackpoint>
          <Trackpoint>
            <Time>2021-03-31T17:23:19.000Z</Time>
            <Position>
              <LatitudeDegrees>42.43174388073384761810302734375</LatitudeDegrees>
              <LongitudeDegrees>2.79696841724216938018798828125</LongitudeDegrees>
            </Position>
            <AltitudeMeters>742.20001220703125</AltitudeMeters>
            <DistanceMeters>11571.50627885</DistanceMeters>
          </Trackpoint>
          <Trackpoint>
            <Time>2021-03-31T17:23:23.000Z</Time>
            <Position>
              <LatitudeDegrees>42.431718818843364715576171875</LatitudeDegrees>
              <LongitudeDegrees>2.79693757183849811553955078125</LongitudeDegrees>
            </Position>
            <AltitudeMeters>741.4000244140625</AltitudeMeters>
            <DistanceMeters>11575.273941278</DistanceMeters>
          </Trackpoint>
          <Trackpoint>
            <Time>2021-03-31T17:23:24.000Z</Time>
            <Position>
              <LatitudeDegrees>42.4317132867872714996337890625</LatitudeDegrees>
              <LongitudeDegrees>2.79692600481212139129638671875</LongitudeDegrees>
            </Position>
            <AltitudeMeters>741.4000244140625</AltitudeMeters>
            <DistanceMeters>11576.406315268</DistanceMeters>
          </Trackpoint>
          <Trackpoint>
            <Time>2021-03-31T17:23:26.000Z</Time>
            <Position>
              <LatitudeDegrees>42.4317022226750850677490234375</LatitudeDegrees>
              <LongitudeDegrees>2.7969115041196346282958984375</LongitudeDegrees>
            </Position>
            <AltitudeMeters>741</AltitudeMeters>
            <DistanceMeters>11578.119433724</DistanceMeters>
          </Trackpoint>
          <Trackpoint>
            <Time>2021-03-31T17:23:27.000Z</Time>
            <Position>
              <LatitudeDegrees>42.43169425986707210540771484375</LatitudeDegrees>
              <LongitudeDegrees>2.79690203256905078887939453125</LongitudeDegrees>
            </Position>
            <AltitudeMeters>741</AltitudeMeters>
            <DistanceMeters>11579.298684237</DistanceMeters>
          </Trackpoint>
          <Trackpoint>
            <Time>2021-03-31T17:23:28.000Z</Time>
            <Position>
              <LatitudeDegrees>42.43168889544904232025146484375</LatitudeDegrees>
              <LongitudeDegrees>2.79689465649425983428955078125</LongitudeDegrees>
            </Position>
            <AltitudeMeters>740.79998779296875</AltitudeMeters>
            <DistanceMeters>11580.148629009</DistanceMeters>
          </Trackpoint>
          <Trackpoint>
            <Time>2021-03-31T17:23:32.000Z</Time>
            <Position>
              <LatitudeDegrees>42.43165805004537105560302734375</LatitudeDegrees>
              <LongitudeDegrees>2.796857021749019622802734375</LongitudeDegrees>
            </Position>
            <AltitudeMeters>740</AltitudeMeters>
            <DistanceMeters>11584.766966433</DistanceMeters>
          </Trackpoint>
          <Trackpoint>
            <Time>2021-03-31T17:23:34.000Z</Time>
            <Position>
              <LatitudeDegrees>42.431640364229679107666015625</LatitudeDegrees>
              <LongitudeDegrees>2.79683095403015613555908203125</LongitudeDegrees>
            </Position>
            <AltitudeMeters>739.5999755859375</AltitudeMeters>
            <DistanceMeters>11587.675777467</DistanceMeters>
          </Trackpoint>
          <Trackpoint>
            <Time>2021-03-31T17:23:37.000Z</Time>
            <Position>
              <LatitudeDegrees>42.4316110275685787200927734375</LatitudeDegrees>
              <LongitudeDegrees>2.79681871645152568817138671875</LongitudeDegrees>
            </Position>
            <AltitudeMeters>738.79998779296875</AltitudeMeters>
            <DistanceMeters>11591.091455842</DistanceMeters>
          </Trackpoint>
          <Trackpoint>
            <Time>2021-03-31T17:23:40.000Z</Time>
            <Position>
              <LatitudeDegrees>42.4315905757248401641845703125</LatitudeDegrees>
              <LongitudeDegrees>2.796811759471893310546875</LongitudeDegrees>
            </Position>
            <AltitudeMeters>738</AltitudeMeters>
            <DistanceMeters>11593.438442555</DistanceMeters>
          </Trackpoint>
          <Trackpoint>
            <Time>2021-03-31T17:23:42.000Z</Time>
            <Position>
              <LatitudeDegrees>42.43157791905105113983154296875</LatitudeDegrees>
              <LongitudeDegrees>2.79678569175302982330322265625</LongitudeDegrees>
            </Position>
            <AltitudeMeters>737.5999755859375</AltitudeMeters>
            <DistanceMeters>11596.002403485</DistanceMeters>
          </Trackpoint>
          <Trackpoint>
            <Time>2021-03-31T17:23:43.000Z</Time>
            <Position>
              <LatitudeDegrees>42.4315681122243404388427734375</LatitudeDegrees>
              <LongitudeDegrees>2.79677814804017543792724609375</LongitudeDegrees>
            </Position>
            <AltitudeMeters>737.20001220703125</AltitudeMeters>
            <DistanceMeters>11597.255891938</DistanceMeters>
          </Trackpoint>
          <Trackpoint>
            <Time>2021-03-31T17:23:45.000Z</Time>
            <Position>
              <LatitudeDegrees>42.4315426312386989593505859375</LatitudeDegrees>
              <LongitudeDegrees>2.79677194543182849884033203125</LongitudeDegrees>
            </Position>
            <AltitudeMeters>737</AltitudeMeters>
            <DistanceMeters>11600.138194894</DistanceMeters>
          </Trackpoint>
          <Trackpoint>
            <Time>2021-03-31T17:23:46.000Z</Time>
            <Position>
              <LatitudeDegrees>42.43153433315455913543701171875</LatitudeDegrees>
              <LongitudeDegrees>2.79676322825253009796142578125</LongitudeDegrees>
            </Position>
            <AltitudeMeters>737</AltitudeMeters>
            <DistanceMeters>11601.30590271</DistanceMeters>
          </Trackpoint>
          <Trackpoint>
            <Time>2021-03-31T17:23:47.000Z</Time>
            <Position>
              <LatitudeDegrees>42.43152595125138759613037109375</LatitudeDegrees>
              <LongitudeDegrees>2.79675266705453395843505859375</LongitudeDegrees>
            </Position>
            <AltitudeMeters>736.79998779296875</AltitudeMeters>
            <DistanceMeters>11602.57371721</DistanceMeters>
          </Trackpoint>
          <Trackpoint>
            <Time>2021-03-31T17:23:49.000Z</Time>
            <Position>
              <LatitudeDegrees>42.43151471950113773345947265625</LatitudeDegrees>
              <LongitudeDegrees>2.79674193821847438812255859375</LongitudeDegrees>
            </Position>
            <AltitudeMeters>736.5999755859375</AltitudeMeters>
            <DistanceMeters>11604.105976938</DistanceMeters>
          </Trackpoint>
          <Trackpoint>
            <Time>2021-03-31T17:23:50.000Z</Time>
            <Position>
              <LatitudeDegrees>42.43150658905506134033203125</LatitudeDegrees>
              <LongitudeDegrees>2.79673573561012744903564453125</LongitudeDegrees>
            </Position>
            <AltitudeMeters>736.5999755859375</AltitudeMeters>
            <DistanceMeters>11605.146942439</DistanceMeters>
          </Trackpoint>
          <Trackpoint>
            <Time>2021-03-31T17:23:58.000Z</Time>
            <Position>
              <LatitudeDegrees>42.43142880499362945556640625</LatitudeDegrees>
              <LongitudeDegrees>2.79665208421647548675537109375</LongitudeDegrees>
            </Position>
            <AltitudeMeters>735.5999755859375</AltitudeMeters>
            <DistanceMeters>11616.200309993</DistanceMeters>
          </Trackpoint>
          <Trackpoint>
            <Time>2021-03-31T17:23:59.000Z</Time>
            <Position>
              <LatitudeDegrees>42.43141271173954010009765625</LatitudeDegrees>
              <LongitudeDegrees>2.7966333925724029541015625</LongitudeDegrees>
            </Position>
            <AltitudeMeters>735.5999755859375</AltitudeMeters>
            <DistanceMeters>11618.558811019</DistanceMeters>
          </Trackpoint>
          <Trackpoint>
            <Time>2021-03-31T17:24:06.000Z</Time>
            <Position>
              <LatitudeDegrees>42.43132227100431919097900390625</LatitudeDegrees>
              <LongitudeDegrees>2.79658578336238861083984375</LongitudeDegrees>
            </Position>
            <AltitudeMeters>734.4000244140625</AltitudeMeters>
            <DistanceMeters>11629.358044199</DistanceMeters>
          </Trackpoint>
          <Trackpoint>
            <Time>2021-03-31T17:24:07.000Z</Time>
            <Position>
              <LatitudeDegrees>42.43130936287343502044677734375</LatitudeDegrees>
              <LongitudeDegrees>2.7965715341269969940185546875</LongitudeDegrees>
            </Position>
            <AltitudeMeters>734.4000244140625</AltitudeMeters>
            <DistanceMeters>11631.210455883</DistanceMeters>
          </Trackpoint>
          <Trackpoint>
            <Time>2021-03-31T17:24:12.000Z</Time>
            <Position>
              <LatitudeDegrees>42.4312566407024860382080078125</LatitudeDegrees>
              <LongitudeDegrees>2.7965299598872661590576171875</LongitudeDegrees>
            </Position>
            <AltitudeMeters>734</AltitudeMeters>
            <DistanceMeters>11638.000046463</DistanceMeters>
          </Trackpoint>
          <Trackpoint>
            <Time>2021-03-31T17:24:18.000Z</Time>
            <Position>
              <LatitudeDegrees>42.43119352497160434722900390625</LatitudeDegrees>
              <LongitudeDegrees>2.7965247631072998046875</LongitudeDegrees>
            </Position>
            <AltitudeMeters>733.79998779296875</AltitudeMeters>
            <DistanceMeters>11645.037158031</DistanceMeters>
          </Trackpoint>
          <Trackpoint>
            <Time>2021-03-31T17:24:21.000Z</Time>
            <Position>
              <LatitudeDegrees>42.43116972036659717559814453125</LatitudeDegrees>
              <LongitudeDegrees>2.796519063413143157958984375</LongitudeDegrees>
            </Position>
            <AltitudeMeters>733.4000244140625</AltitudeMeters>
            <DistanceMeters>11647.728277001</DistanceMeters>
          </Trackpoint>
          <Trackpoint>
            <Time>2021-03-31T17:24:23.000Z</Time>
            <Position>
              <LatitudeDegrees>42.431152872741222381591796875</LatitudeDegrees>
              <LongitudeDegrees>2.7965145371854305267333984375</LongitudeDegrees>
            </Position>
            <AltitudeMeters>733</AltitudeMeters>
            <DistanceMeters>11649.638290321</DistanceMeters>
          </Trackpoint>
          <Trackpoint>
            <Time>2021-03-31T17:24:24.000Z</Time>
            <Position>
              <LatitudeDegrees>42.43114273063838481903076171875</LatitudeDegrees>
              <LongitudeDegrees>2.79651110060513019561767578125</LongitudeDegrees>
            </Position>
            <AltitudeMeters>733</AltitudeMeters>
            <DistanceMeters>11650.802125132</DistanceMeters>
          </Trackpoint>
          <Trackpoint>
            <Time>2021-03-31T17:24:28.000Z</Time>
            <Position>
              <LatitudeDegrees>42.4311037547886371612548828125</LatitudeDegrees>
              <LongitudeDegrees>2.79649794101715087890625</LongitudeDegrees>
            </Position>
            <AltitudeMeters>732.4000244140625</AltitudeMeters>
            <DistanceMeters>11655.273432463</DistanceMeters>
          </Trackpoint>
          <Trackpoint>
            <Time>2021-03-31T17:24:30.000Z</Time>
            <Position>
              <LatitudeDegrees>42.4310859851539134979248046875</LatitudeDegrees>
              <LongitudeDegrees>2.79648922383785247802734375</LongitudeDegrees>
            </Position>
            <AltitudeMeters>732.20001220703125</AltitudeMeters>
            <DistanceMeters>11657.374790923</DistanceMeters>
          </Trackpoint>
          <Trackpoint>
            <Time>2021-03-31T17:24:31.000Z</Time>
            <Position>
              <LatitudeDegrees>42.43108011782169342041015625</LatitudeDegrees>
              <LongitudeDegrees>2.79648260213434696197509765625</LongitudeDegrees>
            </Position>
            <AltitudeMeters>732</AltitudeMeters>
            <DistanceMeters>11658.224735696</DistanceMeters>
          </Trackpoint>
          <Trackpoint>
            <Time>2021-03-31T17:24:34.000Z</Time>
            <Position>
              <LatitudeDegrees>42.431052625179290771484375</LatitudeDegrees>
              <LongitudeDegrees>2.79645963571965694427490234375</LongitudeDegrees>
            </Position>
            <AltitudeMeters>731.5999755859375</AltitudeMeters>
            <DistanceMeters>11661.819459522</DistanceMeters>
          </Trackpoint>
          <Trackpoint>
            <Time>2021-03-31T17:24:37.000Z</Time>
            <Position>
              <LatitudeDegrees>42.431033514440059661865234375</LatitudeDegrees>
              <LongitudeDegrees>2.796440608799457550048828125</LongitudeDegrees>
            </Position>
            <AltitudeMeters>731.20001220703125</AltitudeMeters>
            <DistanceMeters>11664.459766136</DistanceMeters>
          </Trackpoint>
          <Trackpoint>
            <Time>2021-03-31T17:24:38.000Z</Time>
            <Position>
              <LatitudeDegrees>42.43102253414690494537353515625</LatitudeDegrees>
              <LongitudeDegrees>2.79643046669661998748779296875</LongitudeDegrees>
            </Position>
            <AltitudeMeters>731.20001220703125</AltitudeMeters>
            <DistanceMeters>11665.938034887</DistanceMeters>
          </Trackpoint>
          <Trackpoint>
            <Time>2021-03-31T17:24:44.000Z</Time>
            <Position>
              <LatitudeDegrees>42.4309287406504154205322265625</LatitudeDegrees>
              <LongitudeDegrees>2.79640515334904193878173828125</LongitudeDegrees>
            </Position>
            <AltitudeMeters>730.5999755859375</AltitudeMeters>
            <DistanceMeters>11676.582723667</DistanceMeters>
          </Trackpoint>
          <Trackpoint>
            <Time>2021-03-31T17:24:49.000Z</Time>
            <Position>
              <LatitudeDegrees>42.43086847476661205291748046875</LatitudeDegrees>
              <LongitudeDegrees>2.79636718332767486572265625</LongitudeDegrees>
            </Position>
            <AltitudeMeters>730.20001220703125</AltitudeMeters>
            <DistanceMeters>11683.981394047</DistanceMeters>
          </Trackpoint>
          <Trackpoint>
            <Time>2021-03-31T17:24:51.000Z</Time>
            <Position>
              <LatitudeDegrees>42.43084215559065341949462890625</LatitudeDegrees>
              <LongitudeDegrees>2.79635318554937839508056640625</LongitudeDegrees>
            </Position>
            <AltitudeMeters>730</AltitudeMeters>
            <DistanceMeters>11687.130207147</DistanceMeters>
          </Trackpoint>
          <Trackpoint>
            <Time>2021-03-31T17:25:00.000Z</Time>
            <Position>
              <LatitudeDegrees>42.4307577498257160186767578125</LatitudeDegrees>
              <LongitudeDegrees>2.79628244228661060333251953125</LongitudeDegrees>
            </Position>
            <AltitudeMeters>729.4000244140625</AltitudeMeters>
            <DistanceMeters>11698.177037148</DistanceMeters>
          </Trackpoint>
          <Trackpoint>
            <Time>2021-03-31T17:25:05.000Z</Time>
            <Position>
              <LatitudeDegrees>42.43070050142705440521240234375</LatitudeDegrees>
              <LongitudeDegrees>2.79625142924487590789794921875</LongitudeDegrees>
            </Position>
            <AltitudeMeters>729.4000244140625</AltitudeMeters>
            <DistanceMeters>11705.03938723</DistanceMeters>
          </Trackpoint>
          <Trackpoint>
            <Time>2021-03-31T17:25:07.000Z</Time>
            <Position>
              <LatitudeDegrees>42.43067384697496891021728515625</LatitudeDegrees>
              <LongitudeDegrees>2.7962355874478816986083984375</LongitudeDegrees>
            </Position>
            <AltitudeMeters>729.4000244140625</AltitudeMeters>
            <DistanceMeters>11708.278669377</DistanceMeters>
          </Trackpoint>
          <Trackpoint>
            <Time>2021-03-31T17:25:15.000Z</Time>
            <Position>
              <LatitudeDegrees>42.43059555999934673309326171875</LatitudeDegrees>
              <LongitudeDegrees>2.7961814403533935546875</LongitudeDegrees>
            </Position>
            <AltitudeMeters>729.4000244140625</AltitudeMeters>
            <DistanceMeters>11718.062268424</DistanceMeters>
          </Trackpoint>
          <Trackpoint>
            <Time>2021-03-31T17:25:16.000Z</Time>
            <Position>
              <LatitudeDegrees>42.43059187196195125579833984375</LatitudeDegrees>
              <LongitudeDegrees>2.79617465101182460784912109375</LongitudeDegrees>
            </Position>
            <AltitudeMeters>729.4000244140625</AltitudeMeters>
            <DistanceMeters>11718.754073347</DistanceMeters>
          </Trackpoint>
          <Trackpoint>
            <Time>2021-03-31T17:25:21.000Z</Time>
            <Position>
              <LatitudeDegrees>42.4305733479559421539306640625</LatitudeDegrees>
              <LongitudeDegrees>2.79617029242217540740966796875</LongitudeDegrees>
            </Position>
            <AltitudeMeters>729.4000244140625</AltitudeMeters>
            <DistanceMeters>11720.844661063</DistanceMeters>
          </Trackpoint>
          <Trackpoint>
            <Time>2021-03-31T17:25:29.000Z</Time>
            <Position>
              <LatitudeDegrees>42.4305250681936740875244140625</LatitudeDegrees>
              <LongitudeDegrees>2.79612503014504909515380859375</LongitudeDegrees>
            </Position>
            <AltitudeMeters>729</AltitudeMeters>
            <DistanceMeters>11727.379432023</DistanceMeters>
          </Trackpoint>
          <Trackpoint>
            <Time>2021-03-31T17:25:30.000Z</Time>
            <Position>
              <LatitudeDegrees>42.430517189204692840576171875</LatitudeDegrees>
              <LongitudeDegrees>2.796114385128021240234375</LongitudeDegrees>
            </Position>
            <AltitudeMeters>729</AltitudeMeters>
            <DistanceMeters>11728.61477931</DistanceMeters>
          </Trackpoint>
          <Trackpoint>
            <Time>2021-03-31T17:25:36.000Z</Time>
            <Position>
              <LatitudeDegrees>42.43047737516462802886962890625</LatitudeDegrees>
              <LongitudeDegrees>2.79603500850498676300048828125</LongitudeDegrees>
            </Position>
            <AltitudeMeters>728.4000244140625</AltitudeMeters>
            <DistanceMeters>11736.499133833</DistanceMeters>
          </Trackpoint>
          <Trackpoint>
            <Time>2021-03-31T17:25:40.000Z</Time>
            <Position>
              <LatitudeDegrees>42.43044577538967132568359375</LatitudeDegrees>
              <LongitudeDegrees>2.7959744073450565338134765625</LongitudeDegrees>
            </Position>
            <AltitudeMeters>728.20001220703125</AltitudeMeters>
            <DistanceMeters>11742.594192035</DistanceMeters>
          </Trackpoint>
          <Trackpoint>
            <Time>2021-03-31T17:25:42.000Z</Time>
            <Position>
              <LatitudeDegrees>42.43042876012623310089111328125</LatitudeDegrees>
              <LongitudeDegrees>2.79594498686492443084716796875</LongitudeDegrees>
            </Position>
            <AltitudeMeters>727.79998779296875</AltitudeMeters>
            <DistanceMeters>11745.664599143</DistanceMeters>
          </Trackpoint>
          <Trackpoint>
            <Time>2021-03-31T17:25:44.000Z</Time>
            <Position>
              <LatitudeDegrees>42.430402524769306182861328125</LatitudeDegrees>
              <LongitudeDegrees>2.7959274686872959136962890625</LongitudeDegrees>
            </Position>
            <AltitudeMeters>727.5999755859375</AltitudeMeters>
            <DistanceMeters>11748.919177406</DistanceMeters>
          </Trackpoint>
          <Trackpoint>
            <Time>2021-03-31T17:25:45.000Z</Time>
            <Position>
              <LatitudeDegrees>42.4303983338177204132080078125</LatitudeDegrees>
              <LongitudeDegrees>2.79591514728963375091552734375</LongitudeDegrees>
            </Position>
            <AltitudeMeters>727.4000244140625</AltitudeMeters>
            <DistanceMeters>11750.027369806</DistanceMeters>
          </Trackpoint>
          <Trackpoint>
            <Time>2021-03-31T17:25:50.000Z</Time>
            <Position>
              <LatitudeDegrees>42.43035164661705493927001953125</LatitudeDegrees>
              <LongitudeDegrees>2.79583836905658245086669921875</LongitudeDegrees>
            </Position>
            <AltitudeMeters>727</AltitudeMeters>
            <DistanceMeters>11758.199667242</DistanceMeters>
          </Trackpoint>
          <Trackpoint>
            <Time>2021-03-31T17:25:55.000Z</Time>
            <Position>
              <LatitudeDegrees>42.4303244054317474365234375</LatitudeDegrees>
              <LongitudeDegrees>2.79577852226793766021728515625</LongitudeDegrees>
            </Position>
            <AltitudeMeters>726.79998779296875</AltitudeMeters>
            <DistanceMeters>11763.976791313</DistanceMeters>
          </Trackpoint>
          <Trackpoint>
            <Time>2021-03-31T17:25:58.000Z</Time>
            <Position>
              <LatitudeDegrees>42.4303081445395946502685546875</LatitudeDegrees>
              <LongitudeDegrees>2.79575019143521785736083984375</LongitudeDegrees>
            </Position>
            <AltitudeMeters>726.4000244140625</AltitudeMeters>
            <DistanceMeters>11766.924151749</DistanceMeters>
          </Trackpoint>
          <Trackpoint>
            <Time>2021-03-31T17:25:59.000Z</Time>
            <Position>
              <LatitudeDegrees>42.43029682897031307220458984375</LatitudeDegrees>
              <LongitudeDegrees>2.79574088752269744873046875</LongitudeDegrees>
            </Position>
            <AltitudeMeters>726.4000244140625</AltitudeMeters>
            <DistanceMeters>11768.396299278</DistanceMeters>
          </Trackpoint>
          <Trackpoint>
            <Time>2021-03-31T17:26:04.000Z</Time>
            <Position>
              <LatitudeDegrees>42.4302598647773265838623046875</LatitudeDegrees>
              <LongitudeDegrees>2.79568992555141448974609375</LongitudeDegrees>
            </Position>
            <AltitudeMeters>726.4000244140625</AltitudeMeters>
            <DistanceMeters>11774.266458706</DistanceMeters>
          </Trackpoint>
          <Trackpoint>
            <Time>2021-03-31T17:26:05.000Z</Time>
            <Position>
              <LatitudeDegrees>42.43025525473058223724365234375</LatitudeDegrees>
              <LongitudeDegrees>2.7956810407340526580810546875</LongitudeDegrees>
            </Position>
            <AltitudeMeters>726.4000244140625</AltitudeMeters>
            <DistanceMeters>11775.157888304</DistanceMeters>
          </Trackpoint>
          <Trackpoint>
            <Time>2021-03-31T17:26:10.000Z</Time>
            <Position>
              <LatitudeDegrees>42.43021803908050060272216796875</LatitudeDegrees>
              <LongitudeDegrees>2.7956377901136875152587890625</LongitudeDegrees>
            </Position>
            <AltitudeMeters>726.20001220703125</AltitudeMeters>
            <DistanceMeters>11780.615102988</DistanceMeters>
          </Trackpoint>
          <Trackpoint>
            <Time>2021-03-31T17:26:11.000Z</Time>
            <Position>
              <LatitudeDegrees>42.43021242320537567138671875</LatitudeDegrees>
              <LongitudeDegrees>2.795634604990482330322265625</LongitudeDegrees>
            </Position>
            <AltitudeMeters>726.20001220703125</AltitudeMeters>
            <DistanceMeters>11781.293729467</DistanceMeters>
          </Trackpoint>
          <Trackpoint>
            <Time>2021-03-31T17:26:13.000Z</Time>
            <Position>
              <LatitudeDegrees>42.4301988445222377777099609375</LatitudeDegrees>
              <LongitudeDegrees>2.795612476766109466552734375</LongitudeDegrees>
            </Position>
            <AltitudeMeters>726</AltitudeMeters>
            <DistanceMeters>11783.656056126</DistanceMeters>
          </Trackpoint>
          <Trackpoint>
            <Time>2021-03-31T17:26:14.000Z</Time>
            <Position>
              <LatitudeDegrees>42.430191971361637115478515625</LatitudeDegrees>
              <LongitudeDegrees>2.7955898456275463104248046875</LongitudeDegrees>
            </Position>
            <AltitudeMeters>726</AltitudeMeters>
            <DistanceMeters>11785.66514651</DistanceMeters>
          </Trackpoint>
          <Trackpoint>
            <Time>2021-03-31T17:26:20.000Z</Time>
            <Position>
              <LatitudeDegrees>42.4301247484982013702392578125</LatitudeDegrees>
              <LongitudeDegrees>2.7955130673944950103759765625</LongitudeDegrees>
            </Position>
            <AltitudeMeters>725.79998779296875</AltitudeMeters>
            <DistanceMeters>11795.450591345</DistanceMeters>
          </Trackpoint>
          <Trackpoint>
            <Time>2021-03-31T17:26:24.000Z</Time>
            <Position>
              <LatitudeDegrees>42.430088035762310028076171875</LatitudeDegrees>
              <LongitudeDegrees>2.7954480238258838653564453125</LongitudeDegrees>
            </Position>
            <AltitudeMeters>725.4000244140625</AltitudeMeters>
            <DistanceMeters>11802.178053209</DistanceMeters>
          </Trackpoint>
          <Trackpoint>
            <Time>2021-03-31T17:26:27.000Z</Time>
            <Position>
              <LatitudeDegrees>42.430071271955966949462890625</LatitudeDegrees>
              <LongitudeDegrees>2.79541290365159511566162109375</LongitudeDegrees>
            </Position>
            <AltitudeMeters>725.4000244140625</AltitudeMeters>
            <DistanceMeters>11805.613502221</DistanceMeters>
          </Trackpoint>
          <Trackpoint>
            <Time>2021-03-31T17:26:29.000Z</Time>
            <Position>
              <LatitudeDegrees>42.430055178701877593994140625</LatitudeDegrees>
              <LongitudeDegrees>2.7953870035707950592041015625</LongitudeDegrees>
            </Position>
            <AltitudeMeters>725.20001220703125</AltitudeMeters>
            <DistanceMeters>11808.393744195</DistanceMeters>
          </Trackpoint>
          <Trackpoint>
            <Time>2021-03-31T17:26:32.000Z</Time>
            <Position>
              <LatitudeDegrees>42.43002810515463352203369140625</LatitudeDegrees>
              <LongitudeDegrees>2.7953588403761386871337890625</LongitudeDegrees>
            </Position>
            <AltitudeMeters>725</AltitudeMeters>
            <DistanceMeters>11812.192436359</DistanceMeters>
          </Trackpoint>
          <Trackpoint>
            <Time>2021-03-31T17:26:35.000Z</Time>
            <Position>
              <LatitudeDegrees>42.43000312708318233489990234375</LatitudeDegrees>
              <LongitudeDegrees>2.7953387238085269927978515625</LongitudeDegrees>
            </Position>
            <AltitudeMeters>724.79998779296875</AltitudeMeters>
            <DistanceMeters>11815.426138343</DistanceMeters>
          </Trackpoint>
          <Trackpoint>
            <Time>2021-03-31T17:26:36.000Z</Time>
            <Position>
              <LatitudeDegrees>42.42999826557934284210205078125</LatitudeDegrees>
              <LongitudeDegrees>2.7953343652188777923583984375</LongitudeDegrees>
            </Position>
            <AltitudeMeters>724.5999755859375</AltitudeMeters>
            <DistanceMeters>11816.070640877</DistanceMeters>
          </Trackpoint>
          <Trackpoint>
            <Time>2021-03-31T17:26:44.000Z</Time>
            <Position>
              <LatitudeDegrees>42.42993607185781002044677734375</LatitudeDegrees>
              <LongitudeDegrees>2.79525264166295528411865234375</LongitudeDegrees>
            </Position>
            <AltitudeMeters>723.5999755859375</AltitudeMeters>
            <DistanceMeters>11825.712926243</DistanceMeters>
          </Trackpoint>
          <Trackpoint>
            <Time>2021-03-31T17:26:45.000Z</Time>
            <Position>
              <LatitudeDegrees>42.42992366664111614227294921875</LatitudeDegrees>
              <LongitudeDegrees>2.79525482095777988433837890625</LongitudeDegrees>
            </Position>
            <AltitudeMeters>723.4000244140625</AltitudeMeters>
            <DistanceMeters>11827.106291391</DistanceMeters>
          </Trackpoint>
          <Trackpoint>
            <Time>2021-03-31T17:26:46.000Z</Time>
            <Position>
              <LatitudeDegrees>42.42991645820438861846923828125</LatitudeDegrees>
              <LongitudeDegrees>2.7952481992542743682861328125</LongitudeDegrees>
            </Position>
            <AltitudeMeters>723.20001220703125</AltitudeMeters>
            <DistanceMeters>11828.075377532</DistanceMeters>
          </Trackpoint>
          <Trackpoint>
            <Time>2021-03-31T17:26:51.000Z</Time>
            <Position>
              <LatitudeDegrees>42.429886870086193084716796875</LatitudeDegrees>
              <LongitudeDegrees>2.7952012605965137481689453125</LongitudeDegrees>
            </Position>
            <AltitudeMeters>722.4000244140625</AltitudeMeters>
            <DistanceMeters>11833.146635533</DistanceMeters>
          </Trackpoint>
          <Trackpoint>
            <Time>2021-03-31T17:26:52.000Z</Time>
            <Position>
              <LatitudeDegrees>42.4298739619553089141845703125</LatitudeDegrees>
              <LongitudeDegrees>2.79519774019718170166015625</LongitudeDegrees>
            </Position>
            <AltitudeMeters>722.4000244140625</AltitudeMeters>
            <DistanceMeters>11834.609553206</DistanceMeters>
          </Trackpoint>
          <Trackpoint>
            <Time>2021-03-31T17:26:53.000Z</Time>
            <Position>
              <LatitudeDegrees>42.4298632331192493438720703125</LatitudeDegrees>
              <LongitudeDegrees>2.7951957285404205322265625</LongitudeDegrees>
            </Position>
            <AltitudeMeters>722.4000244140625</AltitudeMeters>
            <DistanceMeters>11835.81530704</DistanceMeters>
          </Trackpoint>
          <Trackpoint>
            <Time>2021-03-31T17:27:00.000Z</Time>
            <Position>
              <LatitudeDegrees>42.4297737143933773040771484375</LatitudeDegrees>
              <LongitudeDegrees>2.79512339271605014801025390625</LongitudeDegrees>
            </Position>
            <AltitudeMeters>721.4000244140625</AltitudeMeters>
            <DistanceMeters>11847.416352653</DistanceMeters>
          </Trackpoint>
          <Trackpoint>
            <Time>2021-03-31T17:27:05.000Z</Time>
            <Position>
              <LatitudeDegrees>42.429703809320926666259765625</LatitudeDegrees>
              <LongitudeDegrees>2.79509581625461578369140625</LongitudeDegrees>
            </Position>
            <AltitudeMeters>721</AltitudeMeters>
            <DistanceMeters>11855.519852878</DistanceMeters>
          </Trackpoint>
          <Trackpoint>
            <Time>2021-03-31T17:27:07.000Z</Time>
            <Position>
              <LatitudeDegrees>42.42967874743044376373291015625</LatitudeDegrees>
              <LongitudeDegrees>2.79509707354009151458740234375</LongitudeDegrees>
            </Position>
            <AltitudeMeters>720.5999755859375</AltitudeMeters>
            <DistanceMeters>11858.309821676</DistanceMeters>
          </Trackpoint>
          <Trackpoint>
            <Time>2021-03-31T17:27:09.000Z</Time>
            <Position>
              <LatitudeDegrees>42.429655529558658599853515625</LatitudeDegrees>
              <LongitudeDegrees>2.795093469321727752685546875</LongitudeDegrees>
            </Position>
            <AltitudeMeters>720.20001220703125</AltitudeMeters>
            <DistanceMeters>11860.912235428</DistanceMeters>
          </Trackpoint>
          <Trackpoint>
            <Time>2021-03-31T17:27:14.000Z</Time>
            <Position>
              <LatitudeDegrees>42.42961152456700801849365234375</LatitudeDegrees>
              <LongitudeDegrees>2.7950584329664707183837890625</LongitudeDegrees>
            </Position>
            <AltitudeMeters>719.79998779296875</AltitudeMeters>
            <DistanceMeters>11866.593211859</DistanceMeters>
          </Trackpoint>
          <Trackpoint>
            <Time>2021-03-31T17:27:20.000Z</Time>
            <Position>
              <LatitudeDegrees>42.42958570830523967742919921875</LatitudeDegrees>
              <LongitudeDegrees>2.7950121648609638214111328125</LongitudeDegrees>
            </Position>
            <AltitudeMeters>719</AltitudeMeters>
            <DistanceMeters>11871.357832744</DistanceMeters>
          </Trackpoint>
          <Trackpoint>
            <Time>2021-03-31T17:27:21.000Z</Time>
            <Position>
              <LatitudeDegrees>42.42958319373428821563720703125</LatitudeDegrees>
              <LongitudeDegrees>2.7950074709951877593994140625</LongitudeDegrees>
            </Position>
            <AltitudeMeters>719</AltitudeMeters>
            <DistanceMeters>11871.832966316</DistanceMeters>
          </Trackpoint>
          <Trackpoint>
            <Time>2021-03-31T17:27:27.000Z</Time>
            <Position>
              <LatitudeDegrees>42.42958319373428821563720703125</LatitudeDegrees>
              <LongitudeDegrees>2.7950158528983592987060546875</LongitudeDegrees>
            </Position>
            <AltitudeMeters>718.79998779296875</AltitudeMeters>
            <DistanceMeters>11872.524771239</DistanceMeters>
          </Trackpoint>
          <Trackpoint>
            <Time>2021-03-31T17:27:28.000Z</Time>
            <Position>
              <LatitudeDegrees>42.4295826070010662078857421875</LatitudeDegrees>
              <LongitudeDegrees>2.7950158528983592987060546875</LongitudeDegrees>
            </Position>
            <AltitudeMeters>718.79998779296875</AltitudeMeters>
            <DistanceMeters>11872.619797953</DistanceMeters>
          </Trackpoint>
          <Trackpoint>
            <Time>2021-03-31T17:27:36.000Z</Time>
            <Position>
              <LatitudeDegrees>42.42955402471125125885009765625</LatitudeDegrees>
              <LongitudeDegrees>2.795012332499027252197265625</LongitudeDegrees>
            </Position>
            <AltitudeMeters>718.5999755859375</AltitudeMeters>
            <DistanceMeters>11875.814165869</DistanceMeters>
          </Trackpoint>
          <Trackpoint>
            <Time>2021-03-31T17:27:37.000Z</Time>
            <Position>
              <LatitudeDegrees>42.42954782210290431976318359375</LatitudeDegrees>
              <LongitudeDegrees>2.79501308687031269073486328125</LongitudeDegrees>
            </Position>
            <AltitudeMeters>718.5999755859375</AltitudeMeters>
            <DistanceMeters>11876.512466756</DistanceMeters>
          </Trackpoint>
          <Trackpoint>
            <Time>2021-03-31T17:27:39.000Z</Time>
            <Position>
              <LatitudeDegrees>42.4295346625149250030517578125</LatitudeDegrees>
              <LongitudeDegrees>2.795022390782833099365234375</LongitudeDegrees>
            </Position>
            <AltitudeMeters>718.79998779296875</AltitudeMeters>
            <DistanceMeters>11878.163854986</DistanceMeters>
          </Trackpoint>
          <Trackpoint>
            <Time>2021-03-31T17:27:46.000Z</Time>
            <Position>
              <LatitudeDegrees>42.4295009672641754150390625</LatitudeDegrees>
              <LongitudeDegrees>2.79499280266463756561279296875</LongitudeDegrees>
            </Position>
            <AltitudeMeters>719.4000244140625</AltitudeMeters>
            <DistanceMeters>11882.633142299</DistanceMeters>
          </Trackpoint>
          <Trackpoint>
            <Time>2021-03-31T17:27:49.000Z</Time>
            <Position>
              <LatitudeDegrees>42.42949669249355792999267578125</LatitudeDegrees>
              <LongitudeDegrees>2.7949679084122180938720703125</LongitudeDegrees>
            </Position>
            <AltitudeMeters>719.79998779296875</AltitudeMeters>
            <DistanceMeters>11884.732351032</DistanceMeters>
          </Trackpoint>
          <Trackpoint>
            <Time>2021-03-31T17:27:54.000Z</Time>
            <Position>
              <LatitudeDegrees>42.4294964410364627838134765625</LatitudeDegrees>
              <LongitudeDegrees>2.79493010602891445159912109375</LongitudeDegrees>
            </Position>
            <AltitudeMeters>720</AltitudeMeters>
            <DistanceMeters>11887.837849647</DistanceMeters>
          </Trackpoint>
          <Trackpoint>
            <Time>2021-03-31T17:27:55.000Z</Time>
            <Position>
              <LatitudeDegrees>42.42949426174163818359375</LatitudeDegrees>
              <LongitudeDegrees>2.79492088593542575836181640625</LongitudeDegrees>
            </Position>
            <AltitudeMeters>720</AltitudeMeters>
            <DistanceMeters>11888.638558974</DistanceMeters>
          </Trackpoint>
          <Trackpoint>
            <Time>2021-03-31T17:27:56.000Z</Time>
            <Position>
              <LatitudeDegrees>42.42949250154197216033935546875</LatitudeDegrees>
              <LongitudeDegrees>2.794911079108715057373046875</LongitudeDegrees>
            </Position>
            <AltitudeMeters>720</AltitudeMeters>
            <DistanceMeters>11889.466982664</DistanceMeters>
          </Trackpoint>
          <Trackpoint>
            <Time>2021-03-31T17:28:00.000Z</Time>
            <Position>
              <LatitudeDegrees>42.42950054816901683807373046875</LatitudeDegrees>
              <LongitudeDegrees>2.79490781016647815704345703125</LongitudeDegrees>
            </Position>
            <AltitudeMeters>720</AltitudeMeters>
            <DistanceMeters>11890.402887261</DistanceMeters>
          </Trackpoint>
          <Trackpoint>
            <Time>2021-03-31T17:28:01.000Z</Time>
            <Position>
              <LatitudeDegrees>42.429498620331287384033203125</LatitudeDegrees>
              <LongitudeDegrees>2.79490915127098560333251953125</LongitudeDegrees>
            </Position>
            <AltitudeMeters>720</AltitudeMeters>
            <DistanceMeters>11890.635654223</DistanceMeters>
          </Trackpoint>
          <Trackpoint>
            <Time>2021-03-31T17:28:04.000Z</Time>
            <Position>
              <LatitudeDegrees>42.4294924177229404449462890625</LatitudeDegrees>
              <LongitudeDegrees>2.79491770081222057342529296875</LongitudeDegrees>
            </Position>
            <AltitudeMeters>720</AltitudeMeters>
            <DistanceMeters>11891.614014128</DistanceMeters>
          </Trackpoint>
          <Trackpoint>
            <Time>2021-03-31T17:28:07.000Z</Time>
            <Position>
              <LatitudeDegrees>42.42948009632527828216552734375</LatitudeDegrees>
              <LongitudeDegrees>2.79491367749869823455810546875</LongitudeDegrees>
            </Position>
            <AltitudeMeters>720</AltitudeMeters>
            <DistanceMeters>11893.023488079</DistanceMeters>
          </Trackpoint>
          <Trackpoint>
            <Time>2021-03-31T17:28:12.000Z</Time>
            <Position>
              <LatitudeDegrees>42.42948009632527828216552734375</LatitudeDegrees>
              <LongitudeDegrees>2.79491367749869823455810546875</LongitudeDegrees>
            </Position>
            <AltitudeMeters>720.4000244140625</AltitudeMeters>
            <DistanceMeters>11893.023488079</DistanceMeters>
          </Trackpoint>
          <Trackpoint>
            <Time>2021-03-31T17:28:15.000Z</Time>
            <Position>
              <LatitudeDegrees>42.42945428006350994110107421875</LatitudeDegrees>
              <LongitudeDegrees>2.794927172362804412841796875</LongitudeDegrees>
            </Position>
            <AltitudeMeters>720.79998779296875</AltitudeMeters>
            <DistanceMeters>11896.102705555</DistanceMeters>
          </Trackpoint>
          <Trackpoint>
            <Time>2021-03-31T17:28:18.000Z</Time>
            <Position>
              <LatitudeDegrees>42.429410777986049652099609375</LatitudeDegrees>
              <LongitudeDegrees>2.79494586400687694549560546875</LongitudeDegrees>
            </Position>
            <AltitudeMeters>721</AltitudeMeters>
            <DistanceMeters>11901.181081115</DistanceMeters>
          </Trackpoint>
          <Trackpoint>
            <Time>2021-03-31T17:28:24.000Z</Time>
            <Position>
              <LatitudeDegrees>42.42934397421777248382568359375</LatitudeDegrees>
              <LongitudeDegrees>2.794987857341766357421875</LongitudeDegrees>
            </Position>
            <AltitudeMeters>721.5999755859375</AltitudeMeters>
            <DistanceMeters>11909.377651662</DistanceMeters>
          </Trackpoint>
          <Trackpoint>
            <Time>2021-03-31T17:28:25.000Z</Time>
            <Position>
              <LatitudeDegrees>42.42933173663914203643798828125</LatitudeDegrees>
              <LongitudeDegrees>2.79498986899852752685546875</LongitudeDegrees>
            </Position>
            <AltitudeMeters>721.79998779296875</AltitudeMeters>
            <DistanceMeters>11910.751436935</DistanceMeters>
          </Trackpoint>
          <Trackpoint>
            <Time>2021-03-31T17:28:27.000Z</Time>
            <Position>
              <LatitudeDegrees>42.42931413464248180389404296875</LatitudeDegrees>
              <LongitudeDegrees>2.79499749653041362762451171875</LongitudeDegrees>
            </Position>
            <AltitudeMeters>722</AltitudeMeters>
            <DistanceMeters>11912.807179083</DistanceMeters>
          </Trackpoint>
          <Trackpoint>
            <Time>2021-03-31T17:28:28.000Z</Time>
            <Position>
              <LatitudeDegrees>42.42930742911994457244873046875</LatitudeDegrees>
              <LongitudeDegrees>2.79500068165361881256103515625</LongitudeDegrees>
            </Position>
            <AltitudeMeters>722.20001220703125</AltitudeMeters>
            <DistanceMeters>11913.602229616</DistanceMeters>
          </Trackpoint>
          <Trackpoint>
            <Time>2021-03-31T17:28:31.000Z</Time>
            <Position>
              <LatitudeDegrees>42.4292748235166072845458984375</LatitudeDegrees>
              <LongitudeDegrees>2.795013673603534698486328125</LongitudeDegrees>
            </Position>
            <AltitudeMeters>722.4000244140625</AltitudeMeters>
            <DistanceMeters>11917.385438725</DistanceMeters>
          </Trackpoint>
          <Trackpoint>
            <Time>2021-03-31T17:28:32.000Z</Time>
            <Position>
              <LatitudeDegrees>42.4292654357850551605224609375</LatitudeDegrees>
              <LongitudeDegrees>2.79501576907932758331298828125</LongitudeDegrees>
            </Position>
            <AltitudeMeters>722.4000244140625</AltitudeMeters>
            <DistanceMeters>11918.443611433</DistanceMeters>
          </Trackpoint>
          <Trackpoint>
            <Time>2021-03-31T17:28:35.000Z</Time>
            <Position>
              <LatitudeDegrees>42.42923920042812824249267578125</LatitudeDegrees>
              <LongitudeDegrees>2.795030772686004638671875</LongitudeDegrees>
            </Position>
            <AltitudeMeters>722.79998779296875</AltitudeMeters>
            <DistanceMeters>11921.612435348</DistanceMeters>
          </Trackpoint>
          <Trackpoint>
            <Time>2021-03-31T17:28:37.000Z</Time>
            <Position>
              <LatitudeDegrees>42.42921673692762851715087890625</LatitudeDegrees>
              <LongitudeDegrees>2.7950416691601276397705078125</LongitudeDegrees>
            </Position>
            <AltitudeMeters>723</AltitudeMeters>
            <DistanceMeters>11924.269787372</DistanceMeters>
          </Trackpoint>
          <Trackpoint>
            <Time>2021-03-31T17:28:41.000Z</Time>
            <Position>
              <LatitudeDegrees>42.42916778661310672760009765625</LatitudeDegrees>
              <LongitudeDegrees>2.7950587682425975799560546875</LongitudeDegrees>
            </Position>
            <AltitudeMeters>723</AltitudeMeters>
            <DistanceMeters>11929.895657788</DistanceMeters>
          </Trackpoint>
          <Trackpoint>
            <Time>2021-03-31T17:28:43.000Z</Time>
            <Position>
              <LatitudeDegrees>42.4291454069316387176513671875</LatitudeDegrees>
              <LongitudeDegrees>2.7950580976903438568115234375</LongitudeDegrees>
            </Position>
            <AltitudeMeters>723</AltitudeMeters>
            <DistanceMeters>11932.388185139</DistanceMeters>
          </Trackpoint>
          <Trackpoint>
            <Time>2021-03-31T17:28:45.000Z</Time>
            <Position>
              <LatitudeDegrees>42.42912336252629756927490234375</LatitudeDegrees>
              <LongitudeDegrees>2.79505399055778980255126953125</LongitudeDegrees>
            </Position>
            <AltitudeMeters>723</AltitudeMeters>
            <DistanceMeters>11934.866178678</DistanceMeters>
          </Trackpoint>
          <Trackpoint>
            <Time>2021-03-31T17:28:48.000Z</Time>
            <Position>
              <LatitudeDegrees>42.42909687571227550506591796875</LatitudeDegrees>
              <LongitudeDegrees>2.79505918733775615692138671875</LongitudeDegrees>
            </Position>
            <AltitudeMeters>723.20001220703125</AltitudeMeters>
            <DistanceMeters>11937.84401935</DistanceMeters>
          </Trackpoint>
          <Trackpoint>
            <Time>2021-03-31T17:28:49.000Z</Time>
            <Position>
              <LatitudeDegrees>42.429085560142993927001953125</LatitudeDegrees>
              <LongitudeDegrees>2.79506689868867397308349609375</LongitudeDegrees>
            </Position>
            <AltitudeMeters>723.4000244140625</AltitudeMeters>
            <DistanceMeters>11939.253493301</DistanceMeters>
          </Trackpoint>
          <Trackpoint>
            <Time>2021-03-31T17:28:56.000Z</Time>
            <Position>
              <LatitudeDegrees>42.42901305668056011199951171875</LatitudeDegrees>
              <LongitudeDegrees>2.7950792200863361358642578125</LongitudeDegrees>
            </Position>
            <AltitudeMeters>724</AltitudeMeters>
            <DistanceMeters>11947.387025131</DistanceMeters>
          </Trackpoint>
          <Trackpoint>
            <Time>2021-03-31T17:28:58.000Z</Time>
            <Position>
              <LatitudeDegrees>42.42899863980710506439208984375</LatitudeDegrees>
              <LongitudeDegrees>2.795089781284332275390625</LongitudeDegrees>
            </Position>
            <AltitudeMeters>724</AltitudeMeters>
            <DistanceMeters>11949.212428705</DistanceMeters>
          </Trackpoint>
          <Trackpoint>
            <Time>2021-03-31T17:29:04.000Z</Time>
            <Position>
              <LatitudeDegrees>42.428934685885906219482421875</LatitudeDegrees>
              <LongitudeDegrees>2.79513529501855373382568359375</LongitudeDegrees>
            </Position>
            <AltitudeMeters>723.79998779296875</AltitudeMeters>
            <DistanceMeters>11957.253283593</DistanceMeters>
          </Trackpoint>
          <Trackpoint>
            <Time>2021-03-31T17:29:07.000Z</Time>
            <Position>
              <LatitudeDegrees>42.42890710942447185516357421875</LatitudeDegrees>
              <LongitudeDegrees>2.795148454606533050537109375</LongitudeDegrees>
            </Position>
            <AltitudeMeters>724</AltitudeMeters>
            <DistanceMeters>11960.509248849</DistanceMeters>
          </Trackpoint>
          <Trackpoint>
            <Time>2021-03-31T17:29:10.000Z</Time>
            <Position>
              <LatitudeDegrees>42.4288905970752239227294921875</LatitudeDegrees>
              <LongitudeDegrees>2.79516999609768390655517578125</LongitudeDegrees>
            </Position>
            <AltitudeMeters>723.5999755859375</AltitudeMeters>
            <DistanceMeters>11963.059083165</DistanceMeters>
          </Trackpoint>
          <Trackpoint>
            <Time>2021-03-31T17:29:11.000Z</Time>
            <Position>
              <LatitudeDegrees>42.4288902617990970611572265625</LatitudeDegrees>
              <LongitudeDegrees>2.79517628252506256103515625</LongitudeDegrees>
            </Position>
            <AltitudeMeters>723.5999755859375</AltitudeMeters>
            <DistanceMeters>11963.561917273</DistanceMeters>
          </Trackpoint>
          <Trackpoint>
            <Time>2021-03-31T17:29:12.000Z</Time>
            <Position>
              <LatitudeDegrees>42.42888933978974819183349609375</LatitudeDegrees>
              <LongitudeDegrees>2.79518072493374347686767578125</LongitudeDegrees>
            </Position>
            <AltitudeMeters>723.5999755859375</AltitudeMeters>
            <DistanceMeters>11963.942024131</DistanceMeters>
          </Trackpoint>
          <Trackpoint>
            <Time>2021-03-31T17:29:16.000Z</Time>
            <Position>
              <LatitudeDegrees>42.4288848973810672760009765625</LatitudeDegrees>
              <LongitudeDegrees>2.7952022664248943328857421875</LongitudeDegrees>
            </Position>
            <AltitudeMeters>723.5999755859375</AltitudeMeters>
            <DistanceMeters>11965.779753325</DistanceMeters>
          </Trackpoint>
          <Trackpoint>
            <Time>2021-03-31T17:29:18.000Z</Time>
            <Position>
              <LatitudeDegrees>42.4288698099553585052490234375</LatitudeDegrees>
              <LongitudeDegrees>2.79521307907998561859130859375</LongitudeDegrees>
            </Position>
            <AltitudeMeters>723.5999755859375</AltitudeMeters>
            <DistanceMeters>11967.675530322</DistanceMeters>
          </Trackpoint>
          <Trackpoint>
            <Time>2021-03-31T17:29:21.000Z</Time>
            <Position>
              <LatitudeDegrees>42.428846843540668487548828125</LatitudeDegrees>
              <LongitudeDegrees>2.795238979160785675048828125</LongitudeDegrees>
            </Position>
            <AltitudeMeters>723.79998779296875</AltitudeMeters>
            <DistanceMeters>11971.000107523</DistanceMeters>
          </Trackpoint>
          <Trackpoint>
            <Time>2021-03-31T17:29:25.000Z</Time>
            <Position>
              <LatitudeDegrees>42.428823374211788177490234375</LatitudeDegrees>
              <LongitudeDegrees>2.7952654659748077392578125</LongitudeDegrees>
            </Position>
            <AltitudeMeters>723.79998779296875</AltitudeMeters>
            <DistanceMeters>11974.398558313</DistanceMeters>
          </Trackpoint>
          <Trackpoint>
            <Time>2021-03-31T17:29:26.000Z</Time>
            <Position>
              <LatitudeDegrees>42.42881256155669689178466796875</LatitudeDegrees>
              <LongitudeDegrees>2.79527644626796245574951171875</LongitudeDegrees>
            </Position>
            <AltitudeMeters>723.5999755859375</AltitudeMeters>
            <DistanceMeters>11975.901062593</DistanceMeters>
          </Trackpoint>
          <Trackpoint>
            <Time>2021-03-31T17:29:31.000Z</Time>
            <Position>
              <LatitudeDegrees>42.42875757627189159393310546875</LatitudeDegrees>
              <LongitudeDegrees>2.7953202836215496063232421875</LongitudeDegrees>
            </Position>
            <AltitudeMeters>723.5999755859375</AltitudeMeters>
            <DistanceMeters>11983.001408837</DistanceMeters>
          </Trackpoint>
          <Trackpoint>
            <Time>2021-03-31T17:29:38.000Z</Time>
            <Position>
              <LatitudeDegrees>42.42871784605085849761962890625</LatitudeDegrees>
              <LongitudeDegrees>2.79534836299717426300048828125</LongitudeDegrees>
            </Position>
            <AltitudeMeters>723</AltitudeMeters>
            <DistanceMeters>11987.989179943</DistanceMeters>
          </Trackpoint>
          <Trackpoint>
            <Time>2021-03-31T17:29:39.000Z</Time>
            <Position>
              <LatitudeDegrees>42.42871717549860477447509765625</LatitudeDegrees>
              <LongitudeDegrees>2.7953507937490940093994140625</LongitudeDegrees>
            </Position>
            <AltitudeMeters>723</AltitudeMeters>
            <DistanceMeters>11988.179233372</DistanceMeters>
          </Trackpoint>
          <Trackpoint>
            <Time>2021-03-31T17:29:42.000Z</Time>
            <Position>
              <LatitudeDegrees>42.42871415801346302032470703125</LatitudeDegrees>
              <LongitudeDegrees>2.7953658811748027801513671875</LongitudeDegrees>
            </Position>
            <AltitudeMeters>723.20001220703125</AltitudeMeters>
            <DistanceMeters>11989.461213837</DistanceMeters>
          </Trackpoint>
          <Trackpoint>
            <Time>2021-03-31T17:29:45.000Z</Time>
            <Position>
              <LatitudeDegrees>42.428697310388088226318359375</LatitudeDegrees>
              <LongitudeDegrees>2.79537501744925975799560546875</LongitudeDegrees>
            </Position>
            <AltitudeMeters>723.5999755859375</AltitudeMeters>
            <DistanceMeters>11991.481509497</DistanceMeters>
          </Trackpoint>
          <Trackpoint>
            <Time>2021-03-31T17:29:48.000Z</Time>
            <Position>
              <LatitudeDegrees>42.42870192043483257293701171875</LatitudeDegrees>
              <LongitudeDegrees>2.795396558940410614013671875</LongitudeDegrees>
            </Position>
            <AltitudeMeters>723.5999755859375</AltitudeMeters>
            <DistanceMeters>11993.324145853</DistanceMeters>
          </Trackpoint>
          <Trackpoint>
            <Time>2021-03-31T17:29:50.000Z</Time>
            <Position>
              <LatitudeDegrees>42.42870057933032512664794921875</LatitudeDegrees>
              <LongitudeDegrees>2.7953970618546009063720703125</LongitudeDegrees>
            </Position>
            <AltitudeMeters>723.5999755859375</AltitudeMeters>
            <DistanceMeters>11993.458533922</DistanceMeters>
          </Trackpoint>
          <Trackpoint>
            <Time>2021-03-31T17:29:56.000Z</Time>
            <Position>
              <LatitudeDegrees>42.42867819964885711669921875</LatitudeDegrees>
              <LongitudeDegrees>2.7953316830098628997802734375</LongitudeDegrees>
            </Position>
            <AltitudeMeters>722.5999755859375</AltitudeMeters>
            <DistanceMeters>11999.379239687</DistanceMeters>
          </Trackpoint>
          <Trackpoint>
            <Time>2021-03-31T17:29:58.000Z</Time>
            <Position>
              <LatitudeDegrees>42.4286641180515289306640625</LatitudeDegrees>
              <LongitudeDegrees>2.79530913569033145904541015625</LongitudeDegrees>
            </Position>
            <AltitudeMeters>721.79998779296875</AltitudeMeters>
            <DistanceMeters>12001.805679433</DistanceMeters>
          </Trackpoint>
          <Trackpoint>
            <Time>2021-03-31T17:30:00.000Z</Time>
            <Position>
              <LatitudeDegrees>42.42864861153066158294677734375</LatitudeDegrees>
              <LongitudeDegrees>2.79528558254241943359375</LongitudeDegrees>
            </Position>
            <AltitudeMeters>721.20001220703125</AltitudeMeters>
            <DistanceMeters>12004.397662626</DistanceMeters>
          </Trackpoint>
          <Trackpoint>
            <Time>2021-03-31T17:30:02.000Z</Time>
            <Position>
              <LatitudeDegrees>42.42863721214234828948974609375</LatitudeDegrees>
              <LongitudeDegrees>2.79525666497647762298583984375</LongitudeDegrees>
            </Position>
            <AltitudeMeters>720.5999755859375</AltitudeMeters>
            <DistanceMeters>12007.090458828</DistanceMeters>
          </Trackpoint>
          <Trackpoint>
            <Time>2021-03-31T17:30:06.000Z</Time>
            <Position>
              <LatitudeDegrees>42.42862589657306671142578125</LatitudeDegrees>
              <LongitudeDegrees>2.7951925434172153472900390625</LongitudeDegrees>
            </Position>
            <AltitudeMeters>719.4000244140625</AltitudeMeters>
            <DistanceMeters>12012.50781505</DistanceMeters>
          </Trackpoint>
          <Trackpoint>
            <Time>2021-03-31T17:30:07.000Z</Time>
            <Position>
              <LatitudeDegrees>42.42861642502248287200927734375</LatitudeDegrees>
              <LongitudeDegrees>2.7951769530773162841796875</LongitudeDegrees>
            </Position>
            <AltitudeMeters>719.20001220703125</AltitudeMeters>
            <DistanceMeters>12014.16466243</DistanceMeters>
          </Trackpoint>
          <Trackpoint>
            <Time>2021-03-31T17:30:09.000Z</Time>
            <Position>
              <LatitudeDegrees>42.42860200814902782440185546875</LatitudeDegrees>
              <LongitudeDegrees>2.79516396112740039825439453125</LongitudeDegrees>
            </Position>
            <AltitudeMeters>719</AltitudeMeters>
            <DistanceMeters>12016.088806744</DistanceMeters>
          </Trackpoint>
          <Trackpoint>
            <Time>2021-03-31T17:30:13.000Z</Time>
            <Position>
              <LatitudeDegrees>42.42856412194669246673583984375</LatitudeDegrees>
              <LongitudeDegrees>2.79514417983591556549072265625</LongitudeDegrees>
            </Position>
            <AltitudeMeters>719</AltitudeMeters>
            <DistanceMeters>12020.608323634</DistanceMeters>
          </Trackpoint>
          <Trackpoint>
            <Time>2021-03-31T17:30:18.000Z</Time>
            <Position>
              <LatitudeDegrees>42.4285187758505344390869140625</LatitudeDegrees>
              <LongitudeDegrees>2.7951207943260669708251953125</LongitudeDegrees>
            </Position>
            <AltitudeMeters>718.5999755859375</AltitudeMeters>
            <DistanceMeters>12026.008985345</DistanceMeters>
          </Trackpoint>
          <Trackpoint>
            <Time>2021-03-31T17:30:20.000Z</Time>
            <Position>
              <LatitudeDegrees>42.42849404923617839813232421875</LatitudeDegrees>
              <LongitudeDegrees>2.79511953704059123992919921875</LongitudeDegrees>
            </Position>
            <AltitudeMeters>718.20001220703125</AltitudeMeters>
            <DistanceMeters>12028.763121182</DistanceMeters>
          </Trackpoint>
          <Trackpoint>
            <Time>2021-03-31T17:30:26.000Z</Time>
            <Position>
              <LatitudeDegrees>42.42844141088426113128662109375</LatitudeDegrees>
              <LongitudeDegrees>2.79509489424526691436767578125</LongitudeDegrees>
            </Position>
            <AltitudeMeters>717.5999755859375</AltitudeMeters>
            <DistanceMeters>12034.962476419</DistanceMeters>
          </Trackpoint>
          <Trackpoint>
            <Time>2021-03-31T17:30:30.000Z</Time>
            <Position>
              <LatitudeDegrees>42.42842900566756725311279296875</LatitudeDegrees>
              <LongitudeDegrees>2.7950835786759853363037109375</LongitudeDegrees>
            </Position>
            <AltitudeMeters>717.4000244140625</AltitudeMeters>
            <DistanceMeters>12036.630188488</DistanceMeters>
          </Trackpoint>
          <Trackpoint>
            <Time>2021-03-31T17:30:34.000Z</Time>
            <Position>
              <LatitudeDegrees>42.428429089486598968505859375</LatitudeDegrees>
              <LongitudeDegrees>2.7950911223888397216796875</LongitudeDegrees>
            </Position>
            <AltitudeMeters>717.4000244140625</AltitudeMeters>
            <DistanceMeters>12037.246031983</DistanceMeters>
          </Trackpoint>
          <Trackpoint>
            <Time>2021-03-31T17:30:35.000Z</Time>
            <Position>
              <LatitudeDegrees>42.42842682637274265289306640625</LatitudeDegrees>
              <LongitudeDegrees>2.79508911073207855224609375</LongitudeDegrees>
            </Position>
            <AltitudeMeters>717.4000244140625</AltitudeMeters>
            <DistanceMeters>12037.546532839</DistanceMeters>
          </Trackpoint>
          <Trackpoint>
            <Time>2021-03-31T17:30:44.000Z</Time>
            <Position>
              <LatitudeDegrees>42.428429089486598968505859375</LatitudeDegrees>
              <LongitudeDegrees>2.7950535714626312255859375</LongitudeDegrees>
            </Position>
            <AltitudeMeters>717.5999755859375</AltitudeMeters>
            <DistanceMeters>12040.475452882</DistanceMeters>
          </Trackpoint>
          <Trackpoint>
            <Time>2021-03-31T17:30:47.000Z</Time>
            <Position>
              <LatitudeDegrees>42.4284280836582183837890625</LatitudeDegrees>
              <LongitudeDegrees>2.79505566693842411041259765625</LongitudeDegrees>
            </Position>
            <AltitudeMeters>717.79998779296875</AltitudeMeters>
            <DistanceMeters>12040.665506311</DistanceMeters>
          </Trackpoint>
          <Trackpoint>
            <Time>2021-03-31T17:30:51.000Z</Time>
            <Position>
              <LatitudeDegrees>42.4284280836582183837890625</LatitudeDegrees>
              <LongitudeDegrees>2.79505566693842411041259765625</LongitudeDegrees>
            </Position>
            <AltitudeMeters>717.5999755859375</AltitudeMeters>
            <DistanceMeters>12040.665506311</DistanceMeters>
          </Trackpoint>
          <Trackpoint>
            <Time>2021-04-01T06:53:43.000Z</Time>
            <Position>
              <LatitudeDegrees>42.42862187325954437255859375</LatitudeDegrees>
              <LongitudeDegrees>2.79506538994610309600830078125</LongitudeDegrees>
            </Position>
            <AltitudeMeters>687.4000244140625</AltitudeMeters>
            <DistanceMeters>12062.249543788</DistanceMeters>
          </Trackpoint>
          <Trackpoint>
            <Time>2021-04-01T06:53:44.000Z</Time>
            <Position>
              <LatitudeDegrees>42.42862245999276638031005859375</LatitudeDegrees>
              <LongitudeDegrees>2.79506505466997623443603515625</LongitudeDegrees>
            </Position>
            <AltitudeMeters>687.4000244140625</AltitudeMeters>
            <DistanceMeters>12062.249543788</DistanceMeters>
          </Trackpoint>
          <Trackpoint>
            <Time>2021-04-01T06:53:47.000Z</Time>
            <Position>
              <LatitudeDegrees>42.4286237172782421112060546875</LatitudeDegrees>
              <LongitudeDegrees>2.795063294470310211181640625</LongitudeDegrees>
            </Position>
            <AltitudeMeters>687.4000244140625</AltitudeMeters>
            <DistanceMeters>12062.439597217</DistanceMeters>
          </Trackpoint>
          <Trackpoint>
            <Time>2021-04-01T06:53:51.000Z</Time>
            <Position>
              <LatitudeDegrees>42.4286552332341670989990234375</LatitudeDegrees>
              <LongitudeDegrees>2.795057930052280426025390625</LongitudeDegrees>
            </Position>
            <AltitudeMeters>687.79998779296875</AltitudeMeters>
            <DistanceMeters>12065.973517947</DistanceMeters>
          </Trackpoint>
          <Trackpoint>
            <Time>2021-04-01T06:53:53.000Z</Time>
            <Position>
              <LatitudeDegrees>42.4286810494959354400634765625</LatitudeDegrees>
              <LongitudeDegrees>2.79504485428333282470703125</LongitudeDegrees>
            </Position>
            <AltitudeMeters>687.79998779296875</AltitudeMeters>
            <DistanceMeters>12069.040982641</DistanceMeters>
          </Trackpoint>
          <Trackpoint>
            <Time>2021-04-01T06:53:59.000Z</Time>
            <Position>
              <LatitudeDegrees>42.4287333525717258453369140625</LatitudeDegrees>
              <LongitudeDegrees>2.79500822536647319793701171875</LongitudeDegrees>
            </Position>
            <AltitudeMeters>687.79998779296875</AltitudeMeters>
            <DistanceMeters>12075.594382032</DistanceMeters>
          </Trackpoint>
          <Trackpoint>
            <Time>2021-04-01T06:54:00.000Z</Time>
            <Position>
              <LatitudeDegrees>42.42873745970427989959716796875</LatitudeDegrees>
              <LongitudeDegrees>2.7950079739093780517578125</LongitudeDegrees>
            </Position>
            <AltitudeMeters>687.79998779296875</AltitudeMeters>
            <DistanceMeters>12076.059915956</DistanceMeters>
          </Trackpoint>
          <Trackpoint>
            <Time>2021-04-01T06:54:02.000Z</Time>
            <Position>
              <LatitudeDegrees>42.42874265648424625396728515625</LatitudeDegrees>
              <LongitudeDegrees>2.79500872828066349029541015625</LongitudeDegrees>
            </Position>
            <AltitudeMeters>687.79998779296875</AltitudeMeters>
            <DistanceMeters>12076.645699965</DistanceMeters>
          </Trackpoint>
          <Trackpoint>
            <Time>2021-04-01T06:54:04.000Z</Time>
            <Position>
              <LatitudeDegrees>42.42875807918608188629150390625</LatitudeDegrees>
              <LongitudeDegrees>2.7950171940028667449951171875</LongitudeDegrees>
            </Position>
            <AltitudeMeters>687.79998779296875</AltitudeMeters>
            <DistanceMeters>12078.498111649</DistanceMeters>
          </Trackpoint>
          <Trackpoint>
            <Time>2021-04-01T06:54:09.000Z</Time>
            <Position>
              <LatitudeDegrees>42.42878590710461139678955078125</LatitudeDegrees>
              <LongitudeDegrees>2.795009650290012359619140625</LongitudeDegrees>
            </Position>
            <AltitudeMeters>688</AltitudeMeters>
            <DistanceMeters>12081.655516342</DistanceMeters>
          </Trackpoint>
          <Trackpoint>
            <Time>2021-04-01T06:54:10.000Z</Time>
            <Position>
              <LatitudeDegrees>42.4287963844835758209228515625</LatitudeDegrees>
              <LongitudeDegrees>2.7950061298906803131103515625</LongitudeDegrees>
            </Position>
            <AltitudeMeters>688</AltitudeMeters>
            <DistanceMeters>12082.857519766</DistanceMeters>
          </Trackpoint>
          <Trackpoint>
            <Time>2021-04-01T06:54:15.000Z</Time>
            <Position>
              <LatitudeDegrees>42.428841479122638702392578125</LatitudeDegrees>
              <LongitudeDegrees>2.79498006217181682586669921875</LongitudeDegrees>
            </Position>
            <AltitudeMeters>688.5999755859375</AltitudeMeters>
            <DistanceMeters>12088.31473445</DistanceMeters>
          </Trackpoint>
          <Trackpoint>
            <Time>2021-04-01T06:54:17.000Z</Time>
            <Position>
              <LatitudeDegrees>42.42885463871061801910400390625</LatitudeDegrees>
              <LongitudeDegrees>2.79497033916413784027099609375</LongitudeDegrees>
            </Position>
            <AltitudeMeters>688.79998779296875</AltitudeMeters>
            <DistanceMeters>12089.982446519</DistanceMeters>
          </Trackpoint>
          <Trackpoint>
            <Time>2021-04-01T06:54:22.000Z</Time>
            <Position>
              <LatitudeDegrees>42.42889604531228542327880859375</LatitudeDegrees>
              <LongitudeDegrees>2.7949591912329196929931640625</LongitudeDegrees>
            </Position>
            <AltitudeMeters>689</AltitudeMeters>
            <DistanceMeters>12094.681226883</DistanceMeters>
          </Trackpoint>
          <Trackpoint>
            <Time>2021-04-01T06:54:25.000Z</Time>
            <Position>
              <LatitudeDegrees>42.42890752851963043212890625</LatitudeDegrees>
              <LongitudeDegrees>2.7949357219040393829345703125</LongitudeDegrees>
            </Position>
            <AltitudeMeters>688.79998779296875</AltitudeMeters>
            <DistanceMeters>12096.993326633</DistanceMeters>
          </Trackpoint>
          <Trackpoint>
            <Time>2021-04-01T06:54:26.000Z</Time>
            <Position>
              <LatitudeDegrees>42.42891062982380390167236328125</LatitudeDegrees>
              <LongitudeDegrees>2.79493027366697788238525390625</LongitudeDegrees>
            </Position>
            <AltitudeMeters>688.79998779296875</AltitudeMeters>
            <DistanceMeters>12097.547422833</DistanceMeters>
          </Trackpoint>
          <Trackpoint>
            <Time>2021-04-01T06:54:27.000Z</Time>
            <Position>
              <LatitudeDegrees>42.428917251527309417724609375</LatitudeDegrees>
              <LongitudeDegrees>2.794933877885341644287109375</LongitudeDegrees>
            </Position>
            <AltitudeMeters>688.79998779296875</AltitudeMeters>
            <DistanceMeters>12098.342473367</DistanceMeters>
          </Trackpoint>
          <Trackpoint>
            <Time>2021-04-01T06:54:29.000Z</Time>
            <Position>
              <LatitudeDegrees>42.42893359623849391937255859375</LatitudeDegrees>
              <LongitudeDegrees>2.7949206344783306121826171875</LongitudeDegrees>
            </Position>
            <AltitudeMeters>688.79998779296875</AltitudeMeters>
            <DistanceMeters>12100.46095112</DistanceMeters>
          </Trackpoint>
          <Trackpoint>
            <Time>2021-04-01T06:54:36.000Z</Time>
            <Position>
              <LatitudeDegrees>42.429002411663532257080078125</LatitudeDegrees>
              <LongitudeDegrees>2.79490127228200435638427734375</LongitudeDegrees>
            </Position>
            <AltitudeMeters>689</AltitudeMeters>
            <DistanceMeters>12108.283214091</DistanceMeters>
          </Trackpoint>
          <Trackpoint>
            <Time>2021-04-01T06:54:42.000Z</Time>
            <Position>
              <LatitudeDegrees>42.42906183935701847076416015625</LatitudeDegrees>
              <LongitudeDegrees>2.794856093823909759521484375</LongitudeDegrees>
            </Position>
            <AltitudeMeters>689</AltitudeMeters>
            <DistanceMeters>12115.867512803</DistanceMeters>
          </Trackpoint>
          <Trackpoint>
            <Time>2021-04-01T06:54:44.000Z</Time>
            <Position>
              <LatitudeDegrees>42.429079525172710418701171875</LatitudeDegrees>
              <LongitudeDegrees>2.7948502264916896820068359375</LongitudeDegrees>
            </Position>
            <AltitudeMeters>689</AltitudeMeters>
            <DistanceMeters>12117.896728134</DistanceMeters>
          </Trackpoint>
          <Trackpoint>
            <Time>2021-04-01T06:54:45.000Z</Time>
            <Position>
              <LatitudeDegrees>42.42909117601811885833740234375</LatitudeDegrees>
              <LongitudeDegrees>2.79485550709068775177001953125</LongitudeDegrees>
            </Position>
            <AltitudeMeters>689</AltitudeMeters>
            <DistanceMeters>12119.263924471</DistanceMeters>
          </Trackpoint>
          <Trackpoint>
            <Time>2021-04-01T06:54:48.000Z</Time>
            <Position>
              <LatitudeDegrees>42.4291281402111053466796875</LatitudeDegrees>
              <LongitudeDegrees>2.7948519028723239898681640625</LongitudeDegrees>
            </Position>
            <AltitudeMeters>689</AltitudeMeters>
            <DistanceMeters>12123.388565548</DistanceMeters>
          </Trackpoint>
          <Trackpoint>
            <Time>2021-04-01T06:54:49.000Z</Time>
            <Position>
              <LatitudeDegrees>42.42914649657905101776123046875</LatitudeDegrees>
              <LongitudeDegrees>2.79484930448234081268310546875</LongitudeDegrees>
            </Position>
            <AltitudeMeters>689</AltitudeMeters>
            <DistanceMeters>12125.444307696</DistanceMeters>
          </Trackpoint>
          <Trackpoint>
            <Time>2021-04-01T06:54:54.000Z</Time>
            <Position>
              <LatitudeDegrees>42.42918807081878185272216796875</LatitudeDegrees>
              <LongitudeDegrees>2.794831953942775726318359375</LongitudeDegrees>
            </Position>
            <AltitudeMeters>689</AltitudeMeters>
            <DistanceMeters>12130.286009715</DistanceMeters>
          </Trackpoint>
          <Trackpoint>
            <Time>2021-04-01T06:55:00.000Z</Time>
            <Position>
              <LatitudeDegrees>42.429241798818111419677734375</LatitudeDegrees>
              <LongitudeDegrees>2.79482482932507991790771484375</LongitudeDegrees>
            </Position>
            <AltitudeMeters>688.79998779296875</AltitudeMeters>
            <DistanceMeters>12136.294524143</DistanceMeters>
          </Trackpoint>
          <Trackpoint>
            <Time>2021-04-01T06:55:03.000Z</Time>
            <Position>
              <LatitudeDegrees>42.42927239276468753814697265625</LatitudeDegrees>
              <LongitudeDegrees>2.79483622871339321136474609375</LongitudeDegrees>
            </Position>
            <AltitudeMeters>688.5999755859375</AltitudeMeters>
            <DistanceMeters>12139.827167013</DistanceMeters>
          </Trackpoint>
          <Trackpoint>
            <Time>2021-04-01T06:55:05.000Z</Time>
            <Position>
              <LatitudeDegrees>42.4292935989797115325927734375</LatitudeDegrees>
              <LongitudeDegrees>2.7948331274092197418212890625</LongitudeDegrees>
            </Position>
            <AltitudeMeters>688.5999755859375</AltitudeMeters>
            <DistanceMeters>12142.200933577</DistanceMeters>
          </Trackpoint>
          <Trackpoint>
            <Time>2021-04-01T06:55:06.000Z</Time>
            <Position>
              <LatitudeDegrees>42.42930315434932708740234375</LatitudeDegrees>
              <LongitudeDegrees>2.794841341674327850341796875</LongitudeDegrees>
            </Position>
            <AltitudeMeters>688.4000244140625</AltitudeMeters>
            <DistanceMeters>12143.465181784</DistanceMeters>
          </Trackpoint>
          <Trackpoint>
            <Time>2021-04-01T06:55:09.000Z</Time>
            <Position>
              <LatitudeDegrees>42.42933006025850772857666015625</LatitudeDegrees>
              <LongitudeDegrees>2.7948512323200702667236328125</LongitudeDegrees>
            </Position>
            <AltitudeMeters>688.4000244140625</AltitudeMeters>
            <DistanceMeters>12146.567771266</DistanceMeters>
          </Trackpoint>
          <Trackpoint>
            <Time>2021-04-01T06:55:11.000Z</Time>
            <Position>
              <LatitudeDegrees>42.4293388612568378448486328125</LatitudeDegrees>
              <LongitudeDegrees>2.7948549203574657440185546875</LongitudeDegrees>
            </Position>
            <AltitudeMeters>688.20001220703125</AltitudeMeters>
            <DistanceMeters>12147.591240302</DistanceMeters>
          </Trackpoint>
          <Trackpoint>
            <Time>2021-04-01T06:55:12.000Z</Time>
            <Position>
              <LatitudeDegrees>42.42934179492294788360595703125</LatitudeDegrees>
              <LongitudeDegrees>2.79485500417649745941162109375</LongitudeDegrees>
            </Position>
            <AltitudeMeters>688.20001220703125</AltitudeMeters>
            <DistanceMeters>12147.920422496</DistanceMeters>
          </Trackpoint>
          <Trackpoint>
            <Time>2021-04-01T06:55:15.000Z</Time>
            <Position>
              <LatitudeDegrees>42.429359145462512969970703125</LatitudeDegrees>
              <LongitudeDegrees>2.794843353331089019775390625</LongitudeDegrees>
            </Position>
            <AltitudeMeters>688.20001220703125</AltitudeMeters>
            <DistanceMeters>12150.074827122</DistanceMeters>
          </Trackpoint>
          <Trackpoint>
            <Time>2021-04-01T06:55:16.000Z</Time>
            <Position>
              <LatitudeDegrees>42.42936677299439907073974609375</LatitudeDegrees>
              <LongitudeDegrees>2.79483220539987087249755859375</LongitudeDegrees>
            </Position>
            <AltitudeMeters>688.20001220703125</AltitudeMeters>
            <DistanceMeters>12151.328315575</DistanceMeters>
          </Trackpoint>
          <Trackpoint>
            <Time>2021-04-01T06:55:20.000Z</Time>
            <Position>
              <LatitudeDegrees>42.42939761839807033538818359375</LatitudeDegrees>
              <LongitudeDegrees>2.794824577867984771728515625</LongitudeDegrees>
            </Position>
            <AltitudeMeters>687.79998779296875</AltitudeMeters>
            <DistanceMeters>12154.819820007</DistanceMeters>
          </Trackpoint>
          <Trackpoint>
            <Time>2021-04-01T06:55:22.000Z</Time>
            <Position>
              <LatitudeDegrees>42.42941572330892086029052734375</LatitudeDegrees>
              <LongitudeDegrees>2.79481795616447925567626953125</LongitudeDegrees>
            </Position>
            <AltitudeMeters>687.5999755859375</AltitudeMeters>
            <DistanceMeters>12156.908246908</DistanceMeters>
          </Trackpoint>
          <Trackpoint>
            <Time>2021-04-01T06:55:23.000Z</Time>
            <Position>
              <LatitudeDegrees>42.4294297210872173309326171875</LatitudeDegrees>
              <LongitudeDegrees>2.794813178479671478271484375</LongitudeDegrees>
            </Position>
            <AltitudeMeters>687.4000244140625</AltitudeMeters>
            <DistanceMeters>12158.518101541</DistanceMeters>
          </Trackpoint>
          <Trackpoint>
            <Time>2021-04-01T06:55:26.000Z</Time>
            <Position>
              <LatitudeDegrees>42.429461739957332611083984375</LatitudeDegrees>
              <LongitudeDegrees>2.79479540884494781494140625</LongitudeDegrees>
            </Position>
            <AltitudeMeters>687.4000244140625</AltitudeMeters>
            <DistanceMeters>12162.368735972</DistanceMeters>
          </Trackpoint>
          <Trackpoint>
            <Time>2021-04-01T06:55:30.000Z</Time>
            <Position>
              <LatitudeDegrees>42.429503314197063446044921875</LatitudeDegrees>
              <LongitudeDegrees>2.79479884542524814605712890625</LongitudeDegrees>
            </Position>
            <AltitudeMeters>687.20001220703125</AltitudeMeters>
            <DistanceMeters>12167.004637388</DistanceMeters>
          </Trackpoint>
          <Trackpoint>
            <Time>2021-04-01T06:55:38.000Z</Time>
            <Position>
              <LatitudeDegrees>42.429577745497226715087890625</LatitudeDegrees>
              <LongitudeDegrees>2.7948094904422760009765625</LongitudeDegrees>
            </Position>
            <AltitudeMeters>687</AltitudeMeters>
            <DistanceMeters>12175.334529788</DistanceMeters>
          </Trackpoint>
          <Trackpoint>
            <Time>2021-04-01T06:55:41.000Z</Time>
            <Position>
              <LatitudeDegrees>42.42960297502577304840087890625</LatitudeDegrees>
              <LongitudeDegrees>2.7948056347668170928955078125</LongitudeDegrees>
            </Position>
            <AltitudeMeters>686.79998779296875</AltitudeMeters>
            <DistanceMeters>12178.159877125</DistanceMeters>
          </Trackpoint>
          <Trackpoint>
            <Time>2021-04-01T06:55:44.000Z</Time>
            <Position>
              <LatitudeDegrees>42.42962091229856014251708984375</LatitudeDegrees>
              <LongitudeDegrees>2.79475492425262928009033203125</LongitudeDegrees>
            </Position>
            <AltitudeMeters>686.5999755859375</AltitudeMeters>
            <DistanceMeters>12182.779192079</DistanceMeters>
          </Trackpoint>
          <Trackpoint>
            <Time>2021-04-01T06:55:47.000Z</Time>
            <Position>
              <LatitudeDegrees>42.42964454926550388336181640625</LatitudeDegrees>
              <LongitudeDegrees>2.7947248332202434539794921875</LongitudeDegrees>
            </Position>
            <AltitudeMeters>686.4000244140625</AltitudeMeters>
            <DistanceMeters>12186.390207225</DistanceMeters>
          </Trackpoint>
          <Trackpoint>
            <Time>2021-04-01T06:55:53.000Z</Time>
            <Position>
              <LatitudeDegrees>42.4296945892274379730224609375</LatitudeDegrees>
              <LongitudeDegrees>2.79469407163560390472412109375</LongitudeDegrees>
            </Position>
            <AltitudeMeters>686.20001220703125</AltitudeMeters>
            <DistanceMeters>12192.505971824</DistanceMeters>
          </Trackpoint>
          <Trackpoint>
            <Time>2021-04-01T06:55:54.000Z</Time>
            <Position>
              <LatitudeDegrees>42.4297019653022289276123046875</LatitudeDegrees>
              <LongitudeDegrees>2.79468300752341747283935546875</LongitudeDegrees>
            </Position>
            <AltitudeMeters>686.20001220703125</AltitudeMeters>
            <DistanceMeters>12193.730305393</DistanceMeters>
          </Trackpoint>
          <Trackpoint>
            <Time>2021-04-01T06:56:05.000Z</Time>
            <Position>
              <LatitudeDegrees>42.42974043823778629302978515625</LatitudeDegrees>
              <LongitudeDegrees>2.7945360727608203887939453125</LongitudeDegrees>
            </Position>
            <AltitudeMeters>686.20001220703125</AltitudeMeters>
            <DistanceMeters>12206.538129904</DistanceMeters>
          </Trackpoint>
          <Trackpoint>
            <Time>2021-04-01T06:56:06.000Z</Time>
            <Position>
              <LatitudeDegrees>42.42974102497100830078125</LatitudeDegrees>
              <LongitudeDegrees>2.79452316462993621826171875</LongitudeDegrees>
            </Position>
            <AltitudeMeters>686.20001220703125</AltitudeMeters>
            <DistanceMeters>12207.604802127</DistanceMeters>
          </Trackpoint>
          <Trackpoint>
            <Time>2021-04-01T06:56:07.000Z</Time>
            <Position>
              <LatitudeDegrees>42.42974211461842060089111328125</LatitudeDegrees>
              <LongitudeDegrees>2.79451285488903522491455078125</LongitudeDegrees>
            </Position>
            <AltitudeMeters>686.20001220703125</AltitudeMeters>
            <DistanceMeters>12208.465305624</DistanceMeters>
          </Trackpoint>
          <Trackpoint>
            <Time>2021-04-01T06:56:11.000Z</Time>
            <Position>
              <LatitudeDegrees>42.4297458864748477935791015625</LatitudeDegrees>
              <LongitudeDegrees>2.794462479650974273681640625</LongitudeDegrees>
            </Position>
            <AltitudeMeters>686.20001220703125</AltitudeMeters>
            <DistanceMeters>12212.624828008</DistanceMeters>
          </Trackpoint>
          <Trackpoint>
            <Time>2021-04-01T06:56:14.000Z</Time>
            <Position>
              <LatitudeDegrees>42.4297515861690044403076171875</LatitudeDegrees>
              <LongitudeDegrees>2.79442165978252887725830078125</LongitudeDegrees>
            </Position>
            <AltitudeMeters>686.4000244140625</AltitudeMeters>
            <DistanceMeters>12216.037861646</DistanceMeters>
          </Trackpoint>
          <Trackpoint>
            <Time>2021-04-01T06:56:15.000Z</Time>
            <Position>
              <LatitudeDegrees>42.429748065769672393798828125</LatitudeDegrees>
              <LongitudeDegrees>2.79440238140523433685302734375</LongitudeDegrees>
            </Position>
            <AltitudeMeters>686.4000244140625</AltitudeMeters>
            <DistanceMeters>12217.672763058</DistanceMeters>
          </Trackpoint>
          <Trackpoint>
            <Time>2021-04-01T06:56:21.000Z</Time>
            <Position>
              <LatitudeDegrees>42.42976021952927112579345703125</LatitudeDegrees>
              <LongitudeDegrees>2.794328033924102783203125</LongitudeDegrees>
            </Position>
            <AltitudeMeters>686.5999755859375</AltitudeMeters>
            <DistanceMeters>12223.928668373</DistanceMeters>
          </Trackpoint>
          <Trackpoint>
            <Time>2021-04-01T06:56:25.000Z</Time>
            <Position>
              <LatitudeDegrees>42.42976206354796886444091796875</LatitudeDegrees>
              <LongitudeDegrees>2.79428805224597454071044921875</LongitudeDegrees>
            </Position>
            <AltitudeMeters>686.79998779296875</AltitudeMeters>
            <DistanceMeters>12227.219118442</DistanceMeters>
          </Trackpoint>
          <Trackpoint>
            <Time>2021-04-01T06:56:33.000Z</Time>
            <Position>
              <LatitudeDegrees>42.42977346293628215789794921875</LatitudeDegrees>
              <LongitudeDegrees>2.79418260790407657623291015625</LongitudeDegrees>
            </Position>
            <AltitudeMeters>687</AltitudeMeters>
            <DistanceMeters>12235.973962179</DistanceMeters>
          </Trackpoint>
          <Trackpoint>
            <Time>2021-04-01T06:56:42.000Z</Time>
            <Position>
              <LatitudeDegrees>42.429781593382358551025390625</LatitudeDegrees>
              <LongitudeDegrees>2.79407230205833911895751953125</LongitudeDegrees>
            </Position>
            <AltitudeMeters>687.20001220703125</AltitudeMeters>
            <DistanceMeters>12245.081666731</DistanceMeters>
          </Trackpoint>
          <Trackpoint>
            <Time>2021-04-01T06:56:43.000Z</Time>
            <Position>
              <LatitudeDegrees>42.42978402413427829742431640625</LatitudeDegrees>
              <LongitudeDegrees>2.79405956156551837921142578125</LongitudeDegrees>
            </Position>
            <AltitudeMeters>687.20001220703125</AltitudeMeters>
            <DistanceMeters>12246.160962734</DistanceMeters>
          </Trackpoint>
          <Trackpoint>
            <Time>2021-04-01T06:56:45.000Z</Time>
            <Position>
              <LatitudeDegrees>42.42979089729487895965576171875</LatitudeDegrees>
              <LongitudeDegrees>2.79403542168438434600830078125</LongitudeDegrees>
            </Position>
            <AltitudeMeters>687.4000244140625</AltitudeMeters>
            <DistanceMeters>12248.285824664</DistanceMeters>
          </Trackpoint>
          <Trackpoint>
            <Time>2021-04-01T06:56:49.000Z</Time>
            <Position>
              <LatitudeDegrees>42.4298040568828582763671875</LatitudeDegrees>
              <LongitudeDegrees>2.79398630373179912567138671875</LongitudeDegrees>
            </Position>
            <AltitudeMeters>687.4000244140625</AltitudeMeters>
            <DistanceMeters>12252.577835375</DistanceMeters>
          </Trackpoint>
          <Trackpoint>
            <Time>2021-04-01T06:56:56.000Z</Time>
            <Position>
              <LatitudeDegrees>42.4298293702304363250732421875</LatitudeDegrees>
              <LongitudeDegrees>2.7938921749591827392578125</LongitudeDegrees>
            </Position>
            <AltitudeMeters>687.5999755859375</AltitudeMeters>
            <DistanceMeters>12260.807938862</DistanceMeters>
          </Trackpoint>
          <Trackpoint>
            <Time>2021-04-01T06:56:57.000Z</Time>
            <Position>
              <LatitudeDegrees>42.42983423173427581787109375</LatitudeDegrees>
              <LongitudeDegrees>2.79388588853180408477783203125</LongitudeDegrees>
            </Position>
            <AltitudeMeters>687.79998779296875</AltitudeMeters>
            <DistanceMeters>12261.550121227</DistanceMeters>
          </Trackpoint>
          <Trackpoint>
            <Time>2021-04-01T06:57:00.000Z</Time>
            <Position>
              <LatitudeDegrees>42.4298521690070629119873046875</LatitudeDegrees>
              <LongitudeDegrees>2.79386409558355808258056640625</LongitudeDegrees>
            </Position>
            <AltitudeMeters>687.79998779296875</AltitudeMeters>
            <DistanceMeters>12264.231154769</DistanceMeters>
          </Trackpoint>
          <Trackpoint>
            <Time>2021-04-01T06:57:02.000Z</Time>
            <Position>
              <LatitudeDegrees>42.42986566387116909027099609375</LatitudeDegrees>
              <LongitudeDegrees>2.79384565539658069610595703125</LongitudeDegrees>
            </Position>
            <AltitudeMeters>687.79998779296875</AltitudeMeters>
            <DistanceMeters>12266.364499215</DistanceMeters>
          </Trackpoint>
          <Trackpoint>
            <Time>2021-04-01T06:57:03.000Z</Time>
            <Position>
              <LatitudeDegrees>42.42987236939370632171630859375</LatitudeDegrees>
              <LongitudeDegrees>2.79383517801761627197265625</LongitudeDegrees>
            </Position>
            <AltitudeMeters>687.79998779296875</AltitudeMeters>
            <DistanceMeters>12267.496873206</DistanceMeters>
          </Trackpoint>
          <Trackpoint>
            <Time>2021-04-01T06:57:08.000Z</Time>
            <Position>
              <LatitudeDegrees>42.42990623228251934051513671875</LatitudeDegrees>
              <LongitudeDegrees>2.79379603452980518341064453125</LongitudeDegrees>
            </Position>
            <AltitudeMeters>687.79998779296875</AltitudeMeters>
            <DistanceMeters>12272.451037896</DistanceMeters>
          </Trackpoint>
          <Trackpoint>
            <Time>2021-04-01T06:57:10.000Z</Time>
            <Position>
              <LatitudeDegrees>42.42991511709988117218017578125</LatitudeDegrees>
              <LongitudeDegrees>2.79378346167504787445068359375</LongitudeDegrees>
            </Position>
            <AltitudeMeters>687.79998779296875</AltitudeMeters>
            <DistanceMeters>12273.879602657</DistanceMeters>
          </Trackpoint>
          <Trackpoint>
            <Time>2021-04-01T06:57:14.000Z</Time>
            <Position>
              <LatitudeDegrees>42.42994143627583980560302734375</LatitudeDegrees>
              <LongitudeDegrees>2.7937595732510089874267578125</LongitudeDegrees>
            </Position>
            <AltitudeMeters>687.5999755859375</AltitudeMeters>
            <DistanceMeters>12277.407129459</DistanceMeters>
          </Trackpoint>
          <Trackpoint>
            <Time>2021-04-01T06:57:17.000Z</Time>
            <Position>
              <LatitudeDegrees>42.42996406741440296173095703125</LatitudeDegrees>
              <LongitudeDegrees>2.7937464974820613861083984375</LongitudeDegrees>
            </Position>
            <AltitudeMeters>687.79998779296875</AltitudeMeters>
            <DistanceMeters>12280.146471264</DistanceMeters>
          </Trackpoint>
          <Trackpoint>
            <Time>2021-04-01T06:57:18.000Z</Time>
            <Position>
              <LatitudeDegrees>42.42997596971690654754638671875</LatitudeDegrees>
              <LongitudeDegrees>2.79374389909207820892333984375</LongitudeDegrees>
            </Position>
            <AltitudeMeters>687.79998779296875</AltitudeMeters>
            <DistanceMeters>12281.490351947</DistanceMeters>
          </Trackpoint>
          <Trackpoint>
            <Time>2021-04-01T06:57:20.000Z</Time>
            <Position>
              <LatitudeDegrees>42.429990805685520172119140625</LatitudeDegrees>
              <LongitudeDegrees>2.793732918798923492431640625</LongitudeDegrees>
            </Position>
            <AltitudeMeters>687.79998779296875</AltitudeMeters>
            <DistanceMeters>12283.371784902</DistanceMeters>
          </Trackpoint>
          <Trackpoint>
            <Time>2021-04-01T06:57:24.000Z</Time>
            <Position>
              <LatitudeDegrees>42.43000396527349948883056640625</LatitudeDegrees>
              <LongitudeDegrees>2.7937092818319797515869140625</LongitudeDegrees>
            </Position>
            <AltitudeMeters>687.79998779296875</AltitudeMeters>
            <DistanceMeters>12285.801943332</DistanceMeters>
          </Trackpoint>
          <Trackpoint>
            <Time>2021-04-01T06:57:32.000Z</Time>
            <Position>
              <LatitudeDegrees>42.43003782816231250762939453125</LatitudeDegrees>
              <LongitudeDegrees>2.79359956271946430206298828125</LongitudeDegrees>
            </Position>
            <AltitudeMeters>687.79998779296875</AltitudeMeters>
            <DistanceMeters>12295.571687853</DistanceMeters>
          </Trackpoint>
          <Trackpoint>
            <Time>2021-04-01T06:57:38.000Z</Time>
            <Position>
              <LatitudeDegrees>42.430065907537937164306640625</LatitudeDegrees>
              <LongitudeDegrees>2.793512307107448577880859375</LongitudeDegrees>
            </Position>
            <AltitudeMeters>688.20001220703125</AltitudeMeters>
            <DistanceMeters>12303.391641669</DistanceMeters>
          </Trackpoint>
          <Trackpoint>
            <Time>2021-04-01T06:57:41.000Z</Time>
            <Position>
              <LatitudeDegrees>42.4300942383706569671630859375</LatitudeDegrees>
              <LongitudeDegrees>2.79350819997489452362060546875</LongitudeDegrees>
            </Position>
            <AltitudeMeters>688.20001220703125</AltitudeMeters>
            <DistanceMeters>12306.563313966</DistanceMeters>
          </Trackpoint>
          <Trackpoint>
            <Time>2021-04-01T06:57:47.000Z</Time>
            <Position>
              <LatitudeDegrees>42.43010974489152431488037109375</LatitudeDegrees>
              <LongitudeDegrees>2.79348053969442844390869140625</LongitudeDegrees>
            </Position>
            <AltitudeMeters>688</AltitudeMeters>
            <DistanceMeters>12309.417281196</DistanceMeters>
          </Trackpoint>
          <Trackpoint>
            <Time>2021-04-01T06:57:49.000Z</Time>
            <Position>
              <LatitudeDegrees>42.43010672740638256072998046875</LatitudeDegrees>
              <LongitudeDegrees>2.7934712357819080352783203125</LongitudeDegrees>
            </Position>
            <AltitudeMeters>688</AltitudeMeters>
            <DistanceMeters>12310.256534413</DistanceMeters>
          </Trackpoint>
          <Trackpoint>
            <Time>2021-04-01T06:57:52.000Z</Time>
            <Position>
              <LatitudeDegrees>42.4301086552441120147705078125</LatitudeDegrees>
              <LongitudeDegrees>2.79347131960093975067138671875</LongitudeDegrees>
            </Position>
            <AltitudeMeters>688</AltitudeMeters>
            <DistanceMeters>12310.469020606</DistanceMeters>
          </Trackpoint>
          <Trackpoint>
            <Time>2021-04-01T06:57:58.000Z</Time>
            <Position>
              <LatitudeDegrees>42.43011142127215862274169921875</LatitudeDegrees>
              <LongitudeDegrees>2.793470732867717742919921875</LongitudeDegrees>
            </Position>
            <AltitudeMeters>688.20001220703125</AltitudeMeters>
            <DistanceMeters>12310.769521462</DistanceMeters>
          </Trackpoint>
          <Trackpoint>
            <Time>2021-04-01T06:58:08.000Z</Time>
            <Position>
              <LatitudeDegrees>42.43011142127215862274169921875</LatitudeDegrees>
              <LongitudeDegrees>2.7934702299535274505615234375</LongitudeDegrees>
            </Position>
            <AltitudeMeters>688.20001220703125</AltitudeMeters>
            <DistanceMeters>12310.769521462</DistanceMeters>
          </Trackpoint>
          <Trackpoint>
            <Time>2021-04-01T06:58:14.000Z</Time>
            <Position>
              <LatitudeDegrees>42.43010689504444599151611328125</LatitudeDegrees>
              <LongitudeDegrees>2.7934630215167999267578125</LongitudeDegrees>
            </Position>
            <AltitudeMeters>688.20001220703125</AltitudeMeters>
            <DistanceMeters>12311.553131824</DistanceMeters>
          </Trackpoint>
          <Trackpoint>
            <Time>2021-04-01T06:58:18.000Z</Time>
            <Position>
              <LatitudeDegrees>42.4301056377589702606201171875</LatitudeDegrees>
              <LongitudeDegrees>2.79346126131713390350341796875</LongitudeDegrees>
            </Position>
            <AltitudeMeters>688.20001220703125</AltitudeMeters>
            <DistanceMeters>12311.743185252</DistanceMeters>
          </Trackpoint>
          <Trackpoint>
            <Time>2021-04-01T06:58:24.000Z</Time>
            <Position>
              <LatitudeDegrees>42.4301039613783359527587890625</LatitudeDegrees>
              <LongitudeDegrees>2.79345924966037273406982421875</LongitudeDegrees>
            </Position>
            <AltitudeMeters>688.20001220703125</AltitudeMeters>
            <DistanceMeters>12311.994602306</DistanceMeters>
          </Trackpoint>
          <Trackpoint>
            <Time>2021-04-01T06:58:31.000Z</Time>
            <Position>
              <LatitudeDegrees>42.430109493434429168701171875</LatitudeDegrees>
              <LongitudeDegrees>2.79335372149944305419921875</LongitudeDegrees>
            </Position>
            <AltitudeMeters>688.20001220703125</AltitudeMeters>
            <DistanceMeters>12320.685261624</DistanceMeters>
          </Trackpoint>
          <Trackpoint>
            <Time>2021-04-01T06:58:34.000Z</Time>
            <Position>
              <LatitudeDegrees>42.430104129016399383544921875</LatitudeDegrees>
              <LongitudeDegrees>2.7932885102927684783935546875</LongitudeDegrees>
            </Position>
            <AltitudeMeters>688.20001220703125</AltitudeMeters>
            <DistanceMeters>12326.074206404</DistanceMeters>
          </Trackpoint>
          <Trackpoint>
            <Time>2021-04-01T06:58:36.000Z</Time>
            <Position>
              <LatitudeDegrees>42.43009884841740131378173828125</LatitudeDegrees>
              <LongitudeDegrees>2.793244756758213043212890625</LongitudeDegrees>
            </Position>
            <AltitudeMeters>688.20001220703125</AltitudeMeters>
            <DistanceMeters>12329.717585656</DistanceMeters>
          </Trackpoint>
          <Trackpoint>
            <Time>2021-04-01T06:58:37.000Z</Time>
            <Position>
              <LatitudeDegrees>42.4300979264080524444580078125</LatitudeDegrees>
              <LongitudeDegrees>2.79323763214051723480224609375</LongitudeDegrees>
            </Position>
            <AltitudeMeters>688.20001220703125</AltitudeMeters>
            <DistanceMeters>12330.318587368</DistanceMeters>
          </Trackpoint>
          <Trackpoint>
            <Time>2021-04-01T06:58:40.000Z</Time>
            <Position>
              <LatitudeDegrees>42.4301026202738285064697265625</LatitudeDegrees>
              <LongitudeDegrees>2.7931939624249935150146484375</LongitudeDegrees>
            </Position>
            <AltitudeMeters>688.20001220703125</AltitudeMeters>
            <DistanceMeters>12333.944575689</DistanceMeters>
          </Trackpoint>
          <Trackpoint>
            <Time>2021-04-01T06:58:45.000Z</Time>
            <Position>
              <LatitudeDegrees>42.430106140673160552978515625</LatitudeDegrees>
              <LongitudeDegrees>2.79311257414519786834716796875</LongitudeDegrees>
            </Position>
            <AltitudeMeters>688.20001220703125</AltitudeMeters>
            <DistanceMeters>12340.642442497</DistanceMeters>
          </Trackpoint>
          <Trackpoint>
            <Time>2021-04-01T06:58:47.000Z</Time>
            <Position>
              <LatitudeDegrees>42.4301042966544628143310546875</LatitudeDegrees>
              <LongitudeDegrees>2.793081812560558319091796875</LongitudeDegrees>
            </Position>
            <AltitudeMeters>688.20001220703125</AltitudeMeters>
            <DistanceMeters>12343.174507716</DistanceMeters>
          </Trackpoint>
          <Trackpoint>
            <Time>2021-04-01T06:58:51.000Z</Time>
            <Position>
              <LatitudeDegrees>42.430105470120906829833984375</LatitudeDegrees>
              <LongitudeDegrees>2.79303252696990966796875</LongitudeDegrees>
            </Position>
            <AltitudeMeters>688.20001220703125</AltitudeMeters>
            <DistanceMeters>12347.225143333</DistanceMeters>
          </Trackpoint>
          <Trackpoint>
            <Time>2021-04-01T06:58:54.000Z</Time>
            <Position>
              <LatitudeDegrees>42.4301106669008731842041015625</LatitudeDegrees>
              <LongitudeDegrees>2.7929936349391937255859375</LongitudeDegrees>
            </Position>
            <AltitudeMeters>688.20001220703125</AltitudeMeters>
            <DistanceMeters>12350.469996046</DistanceMeters>
          </Trackpoint>
          <Trackpoint>
            <Time>2021-04-01T06:58:58.000Z</Time>
            <Position>
              <LatitudeDegrees>42.43011460639536380767822265625</LatitudeDegrees>
              <LongitudeDegrees>2.7929351292550563812255859375</LongitudeDegrees>
            </Position>
            <AltitudeMeters>688</AltitudeMeters>
            <DistanceMeters>12355.294883306</DistanceMeters>
          </Trackpoint>
          <Trackpoint>
            <Time>2021-04-01T06:59:00.000Z</Time>
            <Position>
              <LatitudeDegrees>42.43011577986180782318115234375</LatitudeDegrees>
              <LongitudeDegrees>2.792902775108814239501953125</LongitudeDegrees>
            </Position>
            <AltitudeMeters>687.79998779296875</AltitudeMeters>
            <DistanceMeters>12357.953933862</DistanceMeters>
          </Trackpoint>
          <Trackpoint>
            <Time>2021-04-01T06:59:02.000Z</Time>
            <Position>
              <LatitudeDegrees>42.4301173724234104156494140625</LatitudeDegrees>
              <LongitudeDegrees>2.7928777970373630523681640625</LongitudeDegrees>
            </Position>
            <AltitudeMeters>687.79998779296875</AltitudeMeters>
            <DistanceMeters>12360.014063937</DistanceMeters>
          </Trackpoint>
          <Trackpoint>
            <Time>2021-04-01T06:59:07.000Z</Time>
            <Position>
              <LatitudeDegrees>42.43012499995529651641845703125</LatitudeDegrees>
              <LongitudeDegrees>2.79281686060130596160888671875</LongitudeDegrees>
            </Position>
            <AltitudeMeters>687.5999755859375</AltitudeMeters>
            <DistanceMeters>12365.091550348</DistanceMeters>
          </Trackpoint>
          <Trackpoint>
            <Time>2021-04-01T06:59:13.000Z</Time>
            <Position>
              <LatitudeDegrees>42.43013824336230754852294921875</LatitudeDegrees>
              <LongitudeDegrees>2.7927450276911258697509765625</LongitudeDegrees>
            </Position>
            <AltitudeMeters>687.5999755859375</AltitudeMeters>
            <DistanceMeters>12371.174744679</DistanceMeters>
          </Trackpoint>
          <Trackpoint>
            <Time>2021-04-01T06:59:21.000Z</Time>
            <Position>
              <LatitudeDegrees>42.4301260896027088165283203125</LatitudeDegrees>
              <LongitudeDegrees>2.792601697146892547607421875</LongitudeDegrees>
            </Position>
            <AltitudeMeters>687.4000244140625</AltitudeMeters>
            <DistanceMeters>12383.026827583</DistanceMeters>
          </Trackpoint>
          <Trackpoint>
            <Time>2021-04-01T06:59:25.000Z</Time>
            <Position>
              <LatitudeDegrees>42.430139668285846710205078125</LatitudeDegrees>
              <LongitudeDegrees>2.79254369437694549560546875</LongitudeDegrees>
            </Position>
            <AltitudeMeters>687.4000244140625</AltitudeMeters>
            <DistanceMeters>12388.024546206</DistanceMeters>
          </Trackpoint>
          <Trackpoint>
            <Time>2021-04-01T06:59:27.000Z</Time>
            <Position>
              <LatitudeDegrees>42.43016355670988559722900390625</LatitudeDegrees>
              <LongitudeDegrees>2.7925183810293674468994140625</LongitudeDegrees>
            </Position>
            <AltitudeMeters>687.4000244140625</AltitudeMeters>
            <DistanceMeters>12391.400335962</DistanceMeters>
          </Trackpoint>
          <Trackpoint>
            <Time>2021-04-01T06:59:28.000Z</Time>
            <Position>
              <LatitudeDegrees>42.43017227388918399810791015625</LatitudeDegrees>
              <LongitudeDegrees>2.792503796517848968505859375</LongitudeDegrees>
            </Position>
            <AltitudeMeters>687.20001220703125</AltitudeMeters>
            <DistanceMeters>12392.944337316</DistanceMeters>
          </Trackpoint>
          <Trackpoint>
            <Time>2021-04-01T06:59:34.000Z</Time>
            <Position>
              <LatitudeDegrees>42.43018501438200473785400390625</LatitudeDegrees>
              <LongitudeDegrees>2.7924303710460662841796875</LongitudeDegrees>
            </Position>
            <AltitudeMeters>687.20001220703125</AltitudeMeters>
            <DistanceMeters>12399.140778636</DistanceMeters>
          </Trackpoint>
          <Trackpoint>
            <Time>2021-04-01T06:59:35.000Z</Time>
            <Position>
              <LatitudeDegrees>42.4301837570965290069580078125</LatitudeDegrees>
              <LongitudeDegrees>2.79241251759231090545654296875</LongitudeDegrees>
            </Position>
            <AltitudeMeters>687.20001220703125</AltitudeMeters>
            <DistanceMeters>12400.615989951</DistanceMeters>
          </Trackpoint>
          <Trackpoint>
            <Time>2021-04-01T06:59:39.000Z</Time>
            <Position>
              <LatitudeDegrees>42.43018501438200473785400390625</LatitudeDegrees>
              <LongitudeDegrees>2.79233724810183048248291015625</LongitudeDegrees>
            </Position>
            <AltitudeMeters>687</AltitudeMeters>
            <DistanceMeters>12406.801491862</DistanceMeters>
          </Trackpoint>
          <Trackpoint>
            <Time>2021-04-01T06:59:40.000Z</Time>
            <Position>
              <LatitudeDegrees>42.43018216453492641448974609375</LatitudeDegrees>
              <LongitudeDegrees>2.7923212386667728424072265625</LongitudeDegrees>
            </Position>
            <AltitudeMeters>687</AltitudeMeters>
            <DistanceMeters>12408.158744821</DistanceMeters>
          </Trackpoint>
          <Trackpoint>
            <Time>2021-04-01T06:59:46.000Z</Time>
            <Position>
              <LatitudeDegrees>42.4301715195178985595703125</LatitudeDegrees>
              <LongitudeDegrees>2.7922944165766239166259765625</LongitudeDegrees>
            </Position>
            <AltitudeMeters>686.79998779296875</AltitudeMeters>
            <DistanceMeters>12410.660312925</DistanceMeters>
          </Trackpoint>
          <Trackpoint>
            <Time>2021-04-01T06:59:47.000Z</Time>
            <Position>
              <LatitudeDegrees>42.430173195898532867431640625</LatitudeDegrees>
              <LongitudeDegrees>2.7923004515469074249267578125</LongitudeDegrees>
            </Position>
            <AltitudeMeters>686.5999755859375</AltitudeMeters>
            <DistanceMeters>12411.189399278</DistanceMeters>
          </Trackpoint>
          <Trackpoint>
            <Time>2021-04-01T06:59:51.000Z</Time>
            <Position>
              <LatitudeDegrees>42.43016657419502735137939453125</LatitudeDegrees>
              <LongitudeDegrees>2.7922836877405643463134765625</LongitudeDegrees>
            </Position>
            <AltitudeMeters>686.5999755859375</AltitudeMeters>
            <DistanceMeters>12412.750847529</DistanceMeters>
          </Trackpoint>
          <Trackpoint>
            <Time>2021-04-01T06:59:54.000Z</Time>
            <Position>
              <LatitudeDegrees>42.43015483953058719635009765625</LatitudeDegrees>
              <LongitudeDegrees>2.7922934107482433319091796875</LongitudeDegrees>
            </Position>
            <AltitudeMeters>686.5999755859375</AltitudeMeters>
            <DistanceMeters>12414.283107258</DistanceMeters>
          </Trackpoint>
          <Trackpoint>
            <Time>2021-04-01T06:59:58.000Z</Time>
            <Position>
              <LatitudeDegrees>42.43015483953058719635009765625</LatitudeDegrees>
              <LongitudeDegrees>2.7922934107482433319091796875</LongitudeDegrees>
            </Position>
            <AltitudeMeters>686.5999755859375</AltitudeMeters>
            <DistanceMeters>12414.283107258</DistanceMeters>
          </Trackpoint>
          <Trackpoint>
            <Time>2021-04-01T07:00:00.000Z</Time>
            <Position>
              <LatitudeDegrees>42.43015483953058719635009765625</LatitudeDegrees>
              <LongitudeDegrees>2.7922934107482433319091796875</LongitudeDegrees>
            </Position>
            <AltitudeMeters>686.5999755859375</AltitudeMeters>
            <DistanceMeters>12414.283107258</DistanceMeters>
          </Trackpoint>
          <Trackpoint>
            <Time>2021-04-01T07:00:02.000Z</Time>
            <Position>
              <LatitudeDegrees>42.43015483953058719635009765625</LatitudeDegrees>
              <LongitudeDegrees>2.7922934107482433319091796875</LongitudeDegrees>
            </Position>
            <AltitudeMeters>686.5999755859375</AltitudeMeters>
            <DistanceMeters>12414.283107258</DistanceMeters>
          </Trackpoint>
          <Trackpoint>
            <Time>2021-04-01T07:00:14.000Z</Time>
            <Position>
              <LatitudeDegrees>42.43015483953058719635009765625</LatitudeDegrees>
              <LongitudeDegrees>2.792272455990314483642578125</LongitudeDegrees>
            </Position>
            <AltitudeMeters>686.79998779296875</AltitudeMeters>
            <DistanceMeters>12416.004114252</DistanceMeters>
          </Trackpoint>
          <Trackpoint>
            <Time>2021-04-01T07:00:16.000Z</Time>
            <Position>
              <LatitudeDegrees>42.43015450425446033477783203125</LatitudeDegrees>
              <LongitudeDegrees>2.7922645770013332366943359375</LongitudeDegrees>
            </Position>
            <AltitudeMeters>686.79998779296875</AltitudeMeters>
            <DistanceMeters>12416.648616786</DistanceMeters>
          </Trackpoint>
          <Trackpoint>
            <Time>2021-04-01T07:00:24.000Z</Time>
            <Position>
              <LatitudeDegrees>42.43015383370220661163330078125</LatitudeDegrees>
              <LongitudeDegrees>2.79225669801235198974609375</LongitudeDegrees>
            </Position>
            <AltitudeMeters>686.5999755859375</AltitudeMeters>
            <DistanceMeters>12417.29311932</DistanceMeters>
          </Trackpoint>
          <Trackpoint>
            <Time>2021-04-01T07:00:25.000Z</Time>
            <Position>
              <LatitudeDegrees>42.43015383370220661163330078125</LatitudeDegrees>
              <LongitudeDegrees>2.79225124977529048919677734375</LongitudeDegrees>
            </Position>
            <AltitudeMeters>686.4000244140625</AltitudeMeters>
            <DistanceMeters>12417.738834119</DistanceMeters>
          </Trackpoint>
          <Trackpoint>
            <Time>2021-04-01T07:00:31.000Z</Time>
            <Position>
              <LatitudeDegrees>42.4301545880734920501708984375</LatitudeDegrees>
              <LongitudeDegrees>2.79207489453256130218505859375</LongitudeDegrees>
            </Position>
            <AltitudeMeters>685.79998779296875</AltitudeMeters>
            <DistanceMeters>12432.227214187</DistanceMeters>
          </Trackpoint>
          <Trackpoint>
            <Time>2021-04-01T07:00:39.000Z</Time>
            <Position>
              <LatitudeDegrees>42.43016405962407588958740234375</LatitudeDegrees>
              <LongitudeDegrees>2.7919038198888301849365234375</LongitudeDegrees>
            </Position>
            <AltitudeMeters>685.5999755859375</AltitudeMeters>
            <DistanceMeters>12446.320672296</DistanceMeters>
          </Trackpoint>
          <Trackpoint>
            <Time>2021-04-01T07:00:42.000Z</Time>
            <Position>
              <LatitudeDegrees>42.43015450425446033477783203125</LatitudeDegrees>
              <LongitudeDegrees>2.79186450876295566558837890625</LongitudeDegrees>
            </Position>
            <AltitudeMeters>685.4000244140625</AltitudeMeters>
            <DistanceMeters>12449.720451384</DistanceMeters>
          </Trackpoint>
          <Trackpoint>
            <Time>2021-04-01T07:00:43.000Z</Time>
            <Position>
              <LatitudeDegrees>42.43015266023576259613037109375</LatitudeDegrees>
              <LongitudeDegrees>2.7918501757085323333740234375</LongitudeDegrees>
            </Position>
            <AltitudeMeters>685.4000244140625</AltitudeMeters>
            <DistanceMeters>12450.914918662</DistanceMeters>
          </Trackpoint>
          <Trackpoint>
            <Time>2021-04-01T07:00:44.000Z</Time>
            <Position>
              <LatitudeDegrees>42.43014930747449398040771484375</LatitudeDegrees>
              <LongitudeDegrees>2.79183450154960155487060546875</LongitudeDegrees>
            </Position>
            <AltitudeMeters>685.20001220703125</AltitudeMeters>
            <DistanceMeters>12452.252063058</DistanceMeters>
          </Trackpoint>
          <Trackpoint>
            <Time>2021-04-01T07:00:45.000Z</Time>
            <Position>
              <LatitudeDegrees>42.4301462061703205108642578125</LatitudeDegrees>
              <LongitudeDegrees>2.791823856532573699951171875</LongitudeDegrees>
            </Position>
            <AltitudeMeters>685.20001220703125</AltitudeMeters>
            <DistanceMeters>12453.187967655</DistanceMeters>
          </Trackpoint>
          <Trackpoint>
            <Time>2021-04-01T07:00:49.000Z</Time>
            <Position>
              <LatitudeDegrees>42.43014000356197357177734375</LatitudeDegrees>
              <LongitudeDegrees>2.7917777560651302337646484375</LongitudeDegrees>
            </Position>
            <AltitudeMeters>685.20001220703125</AltitudeMeters>
            <DistanceMeters>12457.038602086</DistanceMeters>
          </Trackpoint>
          <Trackpoint>
            <Time>2021-04-01T07:00:50.000Z</Time>
            <Position>
              <LatitudeDegrees>42.43013019673526287078857421875</LatitudeDegrees>
              <LongitudeDegrees>2.79174565337598323822021484375</LongitudeDegrees>
            </Position>
            <AltitudeMeters>685</AltitudeMeters>
            <DistanceMeters>12459.890986856</DistanceMeters>
          </Trackpoint>
          <Trackpoint>
            <Time>2021-04-01T07:00:51.000Z</Time>
            <Position>
              <LatitudeDegrees>42.43012885563075542449951171875</LatitudeDegrees>
              <LongitudeDegrees>2.79173358343541622161865234375</LongitudeDegrees>
            </Position>
            <AltitudeMeters>685</AltitudeMeters>
            <DistanceMeters>12460.892155416</DistanceMeters>
          </Trackpoint>
          <Trackpoint>
            <Time>2021-04-01T07:00:53.000Z</Time>
            <Position>
              <LatitudeDegrees>42.43011184036731719970703125</LatitudeDegrees>
              <LongitudeDegrees>2.79171111993491649627685546875</LongitudeDegrees>
            </Position>
            <AltitudeMeters>685</AltitudeMeters>
            <DistanceMeters>12463.535879904</DistanceMeters>
          </Trackpoint>
          <Trackpoint>
            <Time>2021-04-01T07:01:00.000Z</Time>
            <Position>
              <LatitudeDegrees>42.43004822172224521636962890625</LatitudeDegrees>
              <LongitudeDegrees>2.79161439277231693267822265625</LongitudeDegrees>
            </Position>
            <AltitudeMeters>685</AltitudeMeters>
            <DistanceMeters>12474.178871913</DistanceMeters>
          </Trackpoint>
          <Trackpoint>
            <Time>2021-04-01T07:01:01.000Z</Time>
            <Position>
              <LatitudeDegrees>42.43004017509520053863525390625</LatitudeDegrees>
              <LongitudeDegrees>2.79160492122173309326171875</LongitudeDegrees>
            </Position>
            <AltitudeMeters>685</AltitudeMeters>
            <DistanceMeters>12475.365755195</DistanceMeters>
          </Trackpoint>
          <Trackpoint>
            <Time>2021-04-01T07:01:05.000Z</Time>
            <Position>
              <LatitudeDegrees>42.43001335300505161285400390625</LatitudeDegrees>
              <LongitudeDegrees>2.7915735729038715362548828125</LongitudeDegrees>
            </Position>
            <AltitudeMeters>685</AltitudeMeters>
            <DistanceMeters>12479.306786975</DistanceMeters>
          </Trackpoint>
          <Trackpoint>
            <Time>2021-04-01T07:01:07.000Z</Time>
            <Position>
              <LatitudeDegrees>42.4300090782344341278076171875</LatitudeDegrees>
              <LongitudeDegrees>2.79156678356230258941650390625</LongitudeDegrees>
            </Position>
            <AltitudeMeters>685</AltitudeMeters>
            <DistanceMeters>12480.042860739</DistanceMeters>
          </Trackpoint>
          <Trackpoint>
            <Time>2021-04-01T07:01:13.000Z</Time>
            <Position>
              <LatitudeDegrees>42.429988794028759002685546875</LatitudeDegrees>
              <LongitudeDegrees>2.79156376607716083526611328125</LongitudeDegrees>
            </Position>
            <AltitudeMeters>684.20001220703125</AltitudeMeters>
            <DistanceMeters>12482.315569195</DistanceMeters>
          </Trackpoint>
          <Trackpoint>
            <Time>2021-04-01T07:01:15.000Z</Time>
            <Position>
              <LatitudeDegrees>42.4299809150397777557373046875</LatitudeDegrees>
              <LongitudeDegrees>2.79158036224544048309326171875</LongitudeDegrees>
            </Position>
            <AltitudeMeters>684.4000244140625</AltitudeMeters>
            <DistanceMeters>12483.933815829</DistanceMeters>
          </Trackpoint>
          <Trackpoint>
            <Time>2021-04-01T07:01:19.000Z</Time>
            <Position>
              <LatitudeDegrees>42.42997714318335056304931640625</LatitudeDegrees>
              <LongitudeDegrees>2.791584469377994537353515625</LongitudeDegrees>
            </Position>
            <AltitudeMeters>684.4000244140625</AltitudeMeters>
            <DistanceMeters>12484.471368102</DistanceMeters>
          </Trackpoint>
          <Trackpoint>
            <Time>2021-04-01T07:01:20.000Z</Time>
            <Position>
              <LatitudeDegrees>42.42997638881206512451171875</LatitudeDegrees>
              <LongitudeDegrees>2.7915843017399311065673828125</LongitudeDegrees>
            </Position>
            <AltitudeMeters>684.4000244140625</AltitudeMeters>
            <DistanceMeters>12484.471368102</DistanceMeters>
          </Trackpoint>
          <Trackpoint>
            <Time>2021-04-01T07:01:22.000Z</Time>
            <Position>
              <LatitudeDegrees>42.42996959947049617767333984375</LatitudeDegrees>
              <LongitudeDegrees>2.79157684184610843658447265625</LongitudeDegrees>
            </Position>
            <AltitudeMeters>684.4000244140625</AltitudeMeters>
            <DistanceMeters>12485.440454244</DistanceMeters>
          </Trackpoint>
          <Trackpoint>
            <Time>2021-04-01T07:01:24.000Z</Time>
            <Position>
              <LatitudeDegrees>42.42995853535830974578857421875</LatitudeDegrees>
              <LongitudeDegrees>2.79156192205846309661865234375</LongitudeDegrees>
            </Position>
            <AltitudeMeters>684.4000244140625</AltitudeMeters>
            <DistanceMeters>12487.177130821</DistanceMeters>
          </Trackpoint>
          <Trackpoint>
            <Time>2021-04-01T07:01:31.000Z</Time>
            <Position>
              <LatitudeDegrees>42.429893575608730316162109375</LatitudeDegrees>
              <LongitudeDegrees>2.7915155701339244842529296875</LongitudeDegrees>
            </Position>
            <AltitudeMeters>684.20001220703125</AltitudeMeters>
            <DistanceMeters>12495.349428256</DistanceMeters>
          </Trackpoint>
          <Trackpoint>
            <Time>2021-04-01T07:01:40.000Z</Time>
            <Position>
              <LatitudeDegrees>42.42981168441474437713623046875</LatitudeDegrees>
              <LongitudeDegrees>2.791450358927249908447265625</LongitudeDegrees>
            </Position>
            <AltitudeMeters>683.5999755859375</AltitudeMeters>
            <DistanceMeters>12505.921337079</DistanceMeters>
          </Trackpoint>
          <Trackpoint>
            <Time>2021-04-01T07:01:43.000Z</Time>
            <Position>
              <LatitudeDegrees>42.4297837726771831512451171875</LatitudeDegrees>
              <LongitudeDegrees>2.7914245426654815673828125</LongitudeDegrees>
            </Position>
            <AltitudeMeters>683.20001220703125</AltitudeMeters>
            <DistanceMeters>12509.681802437</DistanceMeters>
          </Trackpoint>
          <Trackpoint>
            <Time>2021-04-01T07:01:49.000Z</Time>
            <Position>
              <LatitudeDegrees>42.4297261051833629608154296875</LatitudeDegrees>
              <LongitudeDegrees>2.7913868241012096405029296875</LongitudeDegrees>
            </Position>
            <AltitudeMeters>683</AltitudeMeters>
            <DistanceMeters>12516.808806015</DistanceMeters>
          </Trackpoint>
          <Trackpoint>
            <Time>2021-04-01T07:01:59.000Z</Time>
            <Position>
              <LatitudeDegrees>42.429620325565338134765625</LatitudeDegrees>
              <LongitudeDegrees>2.7913097105920314788818359375</LongitudeDegrees>
            </Position>
            <AltitudeMeters>682.20001220703125</AltitudeMeters>
            <DistanceMeters>12530.178561555</DistanceMeters>
          </Trackpoint>
          <Trackpoint>
            <Time>2021-04-01T07:02:01.000Z</Time>
            <Position>
              <LatitudeDegrees>42.42960146628320217132568359375</LatitudeDegrees>
              <LongitudeDegrees>2.7912956289947032928466796875</LongitudeDegrees>
            </Position>
            <AltitudeMeters>682.20001220703125</AltitudeMeters>
            <DistanceMeters>12532.575044106</DistanceMeters>
          </Trackpoint>
          <Trackpoint>
            <Time>2021-04-01T07:02:03.000Z</Time>
            <Position>
              <LatitudeDegrees>42.42957967333495616912841796875</LatitudeDegrees>
              <LongitudeDegrees>2.79128347523510456085205078125</LongitudeDegrees>
            </Position>
            <AltitudeMeters>682</AltitudeMeters>
            <DistanceMeters>12535.199915213</DistanceMeters>
          </Trackpoint>
          <Trackpoint>
            <Time>2021-04-01T07:02:05.000Z</Time>
            <Position>
              <LatitudeDegrees>42.42955796420574188232421875</LatitudeDegrees>
              <LongitudeDegrees>2.791269309818744659423828125</LongitudeDegrees>
            </Position>
            <AltitudeMeters>681.79998779296875</AltitudeMeters>
            <DistanceMeters>12537.880948754</DistanceMeters>
          </Trackpoint>
          <Trackpoint>
            <Time>2021-04-01T07:02:07.000Z</Time>
            <Position>
              <LatitudeDegrees>42.42954396642744541168212890625</LatitudeDegrees>
              <LongitudeDegrees>2.791255228221416473388671875</LongitudeDegrees>
            </Position>
            <AltitudeMeters>681.79998779296875</AltitudeMeters>
            <DistanceMeters>12539.819121038</DistanceMeters>
          </Trackpoint>
          <Trackpoint>
            <Time>2021-04-01T07:02:11.000Z</Time>
            <Position>
              <LatitudeDegrees>42.42950499057769775390625</LatitudeDegrees>
              <LongitudeDegrees>2.7912322618067264556884765625</LongitudeDegrees>
            </Position>
            <AltitudeMeters>681.5999755859375</AltitudeMeters>
            <DistanceMeters>12544.549504683</DistanceMeters>
          </Trackpoint>
          <Trackpoint>
            <Time>2021-04-01T07:02:14.000Z</Time>
            <Position>
              <LatitudeDegrees>42.42948110215365886688232421875</LatitudeDegrees>
              <LongitudeDegrees>2.791212312877178192138671875</LongitudeDegrees>
            </Position>
            <AltitudeMeters>681.4000244140625</AltitudeMeters>
            <DistanceMeters>12547.672401184</DistanceMeters>
          </Trackpoint>
          <Trackpoint>
            <Time>2021-04-01T07:02:15.000Z</Time>
            <Position>
              <LatitudeDegrees>42.42947204969823360443115234375</LatitudeDegrees>
              <LongitudeDegrees>2.79120602644979953765869140625</LongitudeDegrees>
            </Position>
            <AltitudeMeters>681.4000244140625</AltitudeMeters>
            <DistanceMeters>12548.800780898</DistanceMeters>
          </Trackpoint>
          <Trackpoint>
            <Time>2021-04-01T07:02:19.000Z</Time>
            <Position>
              <LatitudeDegrees>42.42942745797336101531982421875</LatitudeDegrees>
              <LongitudeDegrees>2.79118993319571018218994140625</LongitudeDegrees>
            </Position>
            <AltitudeMeters>681</AltitudeMeters>
            <DistanceMeters>12553.935741776</DistanceMeters>
          </Trackpoint>
          <Trackpoint>
            <Time>2021-04-01T07:02:22.000Z</Time>
            <Position>
              <LatitudeDegrees>42.42939971387386322021484375</LatitudeDegrees>
              <LongitudeDegrees>2.7911702357232570648193359375</LongitudeDegrees>
            </Position>
            <AltitudeMeters>680.79998779296875</AltitudeMeters>
            <DistanceMeters>12557.422069772</DistanceMeters>
          </Trackpoint>
          <Trackpoint>
            <Time>2021-04-01T07:02:23.000Z</Time>
            <Position>
              <LatitudeDegrees>42.42939007468521595001220703125</LatitudeDegrees>
              <LongitudeDegrees>2.79116227291524410247802734375</LongitudeDegrees>
            </Position>
            <AltitudeMeters>680.5999755859375</AltitudeMeters>
            <DistanceMeters>12558.679155042</DistanceMeters>
          </Trackpoint>
          <Trackpoint>
            <Time>2021-04-01T07:02:24.000Z</Time>
            <Position>
              <LatitudeDegrees>42.42937901057302951812744140625</LatitudeDegrees>
              <LongitudeDegrees>2.79116260819137096405029296875</LongitudeDegrees>
            </Position>
            <AltitudeMeters>680.5999755859375</AltitudeMeters>
            <DistanceMeters>12559.910842033</DistanceMeters>
          </Trackpoint>
          <Trackpoint>
            <Time>2021-04-01T07:02:27.000Z</Time>
            <Position>
              <LatitudeDegrees>42.429349757730960845947265625</LatitudeDegrees>
              <LongitudeDegrees>2.7911585010588169097900390625</LongitudeDegrees>
            </Position>
            <AltitudeMeters>680.20001220703125</AltitudeMeters>
            <DistanceMeters>12563.18340535</DistanceMeters>
          </Trackpoint>
          <Trackpoint>
            <Time>2021-04-01T07:02:29.000Z</Time>
            <Position>
              <LatitudeDegrees>42.42933374829590320587158203125</LatitudeDegrees>
              <LongitudeDegrees>2.79115405865013599395751953125</LongitudeDegrees>
            </Position>
            <AltitudeMeters>680.20001220703125</AltitudeMeters>
            <DistanceMeters>12565.00137344</DistanceMeters>
          </Trackpoint>
          <Trackpoint>
            <Time>2021-04-01T07:02:33.000Z</Time>
            <Position>
              <LatitudeDegrees>42.42929820902645587921142578125</LatitudeDegrees>
              <LongitudeDegrees>2.79115841723978519439697265625</LongitudeDegrees>
            </Position>
            <AltitudeMeters>680.4000244140625</AltitudeMeters>
            <DistanceMeters>12568.972080364</DistanceMeters>
          </Trackpoint>
          <Trackpoint>
            <Time>2021-04-01T07:02:35.000Z</Time>
            <Position>
              <LatitudeDegrees>42.42929535917937755584716796875</LatitudeDegrees>
              <LongitudeDegrees>2.79117115773260593414306640625</LongitudeDegrees>
            </Position>
            <AltitudeMeters>680.20001220703125</AltitudeMeters>
            <DistanceMeters>12570.063854191</DistanceMeters>
          </Trackpoint>
          <Trackpoint>
            <Time>2021-04-01T07:02:37.000Z</Time>
            <Position>
              <LatitudeDegrees>42.4292845465242862701416015625</LatitudeDegrees>
              <LongitudeDegrees>2.79117115773260593414306640625</LongitudeDegrees>
            </Position>
            <AltitudeMeters>680</AltitudeMeters>
            <DistanceMeters>12571.269608025</DistanceMeters>
          </Trackpoint>
          <Trackpoint>
            <Time>2021-04-01T07:02:38.000Z</Time>
            <Position>
              <LatitudeDegrees>42.429276667535305023193359375</LatitudeDegrees>
              <LongitudeDegrees>2.79117115773260593414306640625</LongitudeDegrees>
            </Position>
            <AltitudeMeters>679.79998779296875</AltitudeMeters>
            <DistanceMeters>12572.145711043</DistanceMeters>
          </Trackpoint>
          <Trackpoint>
            <Time>2021-04-01T07:02:43.000Z</Time>
            <Position>
              <LatitudeDegrees>42.429230399429798126220703125</LatitudeDegrees>
              <LongitudeDegrees>2.7911930344998836517333984375</LongitudeDegrees>
            </Position>
            <AltitudeMeters>679.20001220703125</AltitudeMeters>
            <DistanceMeters>12577.599615314</DistanceMeters>
          </Trackpoint>
          <Trackpoint>
            <Time>2021-04-01T07:02:44.000Z</Time>
            <Position>
              <LatitudeDegrees>42.42922109551727771759033203125</LatitudeDegrees>
              <LongitudeDegrees>2.7911970578134059906005859375</LongitudeDegrees>
            </Position>
            <AltitudeMeters>679.20001220703125</AltitudeMeters>
            <DistanceMeters>12578.683086559</DistanceMeters>
          </Trackpoint>
          <Trackpoint>
            <Time>2021-04-01T07:02:45.000Z</Time>
            <Position>
              <LatitudeDegrees>42.4292032420635223388671875</LatitudeDegrees>
              <LongitudeDegrees>2.791192531585693359375</LongitudeDegrees>
            </Position>
            <AltitudeMeters>679.20001220703125</AltitudeMeters>
            <DistanceMeters>12580.703382219</DistanceMeters>
          </Trackpoint>
          <Trackpoint>
            <Time>2021-04-01T07:02:47.000Z</Time>
            <Position>
              <LatitudeDegrees>42.42917449213564395904541015625</LatitudeDegrees>
              <LongitudeDegrees>2.7912037633359432220458984375</LongitudeDegrees>
            </Position>
            <AltitudeMeters>679.20001220703125</AltitudeMeters>
            <DistanceMeters>12584.033387305</DistanceMeters>
          </Trackpoint>
          <Trackpoint>
            <Time>2021-04-01T07:02:51.000Z</Time>
            <Position>
              <LatitudeDegrees>42.42915253154933452606201171875</LatitudeDegrees>
              <LongitudeDegrees>2.79125430621206760406494140625</LongitudeDegrees>
            </Position>
            <AltitudeMeters>680</AltitudeMeters>
            <DistanceMeters>12588.852656608</DistanceMeters>
          </Trackpoint>
          <Trackpoint>
            <Time>2021-04-01T07:02:53.000Z</Time>
            <Position>
              <LatitudeDegrees>42.4291427247226238250732421875</LatitudeDegrees>
              <LongitudeDegrees>2.79128313995897769927978515625</LongitudeDegrees>
            </Position>
            <AltitudeMeters>680.4000244140625</AltitudeMeters>
            <DistanceMeters>12591.462000901</DistanceMeters>
          </Trackpoint>
          <Trackpoint>
            <Time>2021-04-01T07:02:58.000Z</Time>
            <Position>
              <LatitudeDegrees>42.42911950685083866119384765625</LatitudeDegrees>
              <LongitudeDegrees>2.79134248383343219757080078125</LongitudeDegrees>
            </Position>
            <AltitudeMeters>679</AltitudeMeters>
            <DistanceMeters>12596.980100009</DistanceMeters>
          </Trackpoint>
          <Trackpoint>
            <Time>2021-04-01T07:02:59.000Z</Time>
            <Position>
              <LatitudeDegrees>42.429111041128635406494140625</LatitudeDegrees>
              <LongitudeDegrees>2.79135840944945812225341796875</LongitudeDegrees>
            </Position>
            <AltitudeMeters>679</AltitudeMeters>
            <DistanceMeters>12598.592756828</DistanceMeters>
          </Trackpoint>
          <Trackpoint>
            <Time>2021-04-01T07:03:01.000Z</Time>
            <Position>
              <LatitudeDegrees>42.42910089902579784393310546875</LatitudeDegrees>
              <LongitudeDegrees>2.79137835837900638580322265625</LongitudeDegrees>
            </Position>
            <AltitudeMeters>679</AltitudeMeters>
            <DistanceMeters>12600.581518624</DistanceMeters>
          </Trackpoint>
          <Trackpoint>
            <Time>2021-04-01T07:03:04.000Z</Time>
            <Position>
              <LatitudeDegrees>42.42908187210559844970703125</LatitudeDegrees>
              <LongitudeDegrees>2.7914102934300899505615234375</LongitudeDegrees>
            </Position>
            <AltitudeMeters>678.79998779296875</AltitudeMeters>
            <DistanceMeters>12603.953293564</DistanceMeters>
          </Trackpoint>
          <Trackpoint>
            <Time>2021-04-01T07:03:09.000Z</Time>
            <Position>
              <LatitudeDegrees>42.4290458299219608306884765625</LatitudeDegrees>
              <LongitudeDegrees>2.79148145578801631927490234375</LongitudeDegrees>
            </Position>
            <AltitudeMeters>678.5999755859375</AltitudeMeters>
            <DistanceMeters>12611.04345827</DistanceMeters>
          </Trackpoint>
          <Trackpoint>
            <Time>2021-04-01T07:03:10.000Z</Time>
            <Position>
              <LatitudeDegrees>42.42903820239007472991943359375</LatitudeDegrees>
              <LongitudeDegrees>2.79149629175662994384765625</LongitudeDegrees>
            </Position>
            <AltitudeMeters>678.5999755859375</AltitudeMeters>
            <DistanceMeters>12612.527823</DistanceMeters>
          </Trackpoint>
          <Trackpoint>
            <Time>2021-04-01T07:03:18.000Z</Time>
            <Position>
              <LatitudeDegrees>42.4289804510772228240966796875</LatitudeDegrees>
              <LongitudeDegrees>2.7915873192250728607177734375</LongitudeDegrees>
            </Position>
            <AltitudeMeters>678.20001220703125</AltitudeMeters>
            <DistanceMeters>12622.389105535</DistanceMeters>
          </Trackpoint>
          <Trackpoint>
            <Time>2021-04-01T07:03:19.000Z</Time>
            <Position>
              <LatitudeDegrees>42.42897902615368366241455078125</LatitudeDegrees>
              <LongitudeDegrees>2.79160265810787677764892578125</LongitudeDegrees>
            </Position>
            <AltitudeMeters>678</AltitudeMeters>
            <DistanceMeters>12623.664022693</DistanceMeters>
          </Trackpoint>
          <Trackpoint>
            <Time>2021-04-01T07:03:21.000Z</Time>
            <Position>
              <LatitudeDegrees>42.4289740808308124542236328125</LatitudeDegrees>
              <LongitudeDegrees>2.7916257083415985107421875</LongitudeDegrees>
            </Position>
            <AltitudeMeters>677.5999755859375</AltitudeMeters>
            <DistanceMeters>12625.634538582</DistanceMeters>
          </Trackpoint>
          <Trackpoint>
            <Time>2021-04-01T07:03:26.000Z</Time>
            <Position>
              <LatitudeDegrees>42.42892923764884471893310546875</LatitudeDegrees>
              <LongitudeDegrees>2.7916962839663028717041015625</LongitudeDegrees>
            </Position>
            <AltitudeMeters>677.20001220703125</AltitudeMeters>
            <DistanceMeters>12633.284041531</DistanceMeters>
          </Trackpoint>
          <Trackpoint>
            <Time>2021-04-01T07:03:27.000Z</Time>
            <Position>
              <LatitudeDegrees>42.4289216101169586181640625</LatitudeDegrees>
              <LongitudeDegrees>2.79170860536396503448486328125</LongitudeDegrees>
            </Position>
            <AltitudeMeters>677.20001220703125</AltitudeMeters>
            <DistanceMeters>12634.60077031</DistanceMeters>
          </Trackpoint>
          <Trackpoint>
            <Time>2021-04-01T07:03:32.000Z</Time>
            <Position>
              <LatitudeDegrees>42.428877688944339752197265625</LatitudeDegrees>
              <LongitudeDegrees>2.791762165725231170654296875</LongitudeDegrees>
            </Position>
            <AltitudeMeters>677</AltitudeMeters>
            <DistanceMeters>12641.177552666</DistanceMeters>
          </Trackpoint>
          <Trackpoint>
            <Time>2021-04-01T07:03:34.000Z</Time>
            <Position>
              <LatitudeDegrees>42.42886821739375591278076171875</LatitudeDegrees>
              <LongitudeDegrees>2.7917834557592868804931640625</LongitudeDegrees>
            </Position>
            <AltitudeMeters>677</AltitudeMeters>
            <DistanceMeters>12643.217862751</DistanceMeters>
          </Trackpoint>
          <Trackpoint>
            <Time>2021-04-01T07:03:35.000Z</Time>
            <Position>
              <LatitudeDegrees>42.42885933257639408111572265625</LatitudeDegrees>
              <LongitudeDegrees>2.79179611243307590484619140625</LongitudeDegrees>
            </Position>
            <AltitudeMeters>677</AltitudeMeters>
            <DistanceMeters>12644.652734672</DistanceMeters>
          </Trackpoint>
          <Trackpoint>
            <Time>2021-04-01T07:03:37.000Z</Time>
            <Position>
              <LatitudeDegrees>42.42884055711328983306884765625</LatitudeDegrees>
              <LongitudeDegrees>2.7918206714093685150146484375</LongitudeDegrees>
            </Position>
            <AltitudeMeters>677.20001220703125</AltitudeMeters>
            <DistanceMeters>12647.558439659</DistanceMeters>
          </Trackpoint>
          <Trackpoint>
            <Time>2021-04-01T07:03:43.000Z</Time>
            <Position>
              <LatitudeDegrees>42.428793869912624359130859375</LatitudeDegrees>
              <LongitudeDegrees>2.79189703054726123809814453125</LongitudeDegrees>
            </Position>
            <AltitudeMeters>676.5999755859375</AltitudeMeters>
            <DistanceMeters>12655.704174845</DistanceMeters>
          </Trackpoint>
          <Trackpoint>
            <Time>2021-04-01T07:03:49.000Z</Time>
            <Position>
              <LatitudeDegrees>42.4287588335573673248291015625</LatitudeDegrees>
              <LongitudeDegrees>2.7919775806367397308349609375</LongitudeDegrees>
            </Position>
            <AltitudeMeters>676.4000244140625</AltitudeMeters>
            <DistanceMeters>12663.384308914</DistanceMeters>
          </Trackpoint>
          <Trackpoint>
            <Time>2021-04-01T07:03:54.000Z</Time>
            <Position>
              <LatitudeDegrees>42.4287232942879199981689453125</LatitudeDegrees>
              <LongitudeDegrees>2.79203415848314762115478515625</LongitudeDegrees>
            </Position>
            <AltitudeMeters>676.20001220703125</AltitudeMeters>
            <DistanceMeters>12669.487510151</DistanceMeters>
          </Trackpoint>
          <Trackpoint>
            <Time>2021-04-01T07:03:55.000Z</Time>
            <Position>
              <LatitudeDegrees>42.4287165887653827667236328125</LatitudeDegrees>
              <LongitudeDegrees>2.79204891063272953033447265625</LongitudeDegrees>
            </Position>
            <AltitudeMeters>676</AltitudeMeters>
            <DistanceMeters>12670.909739782</DistanceMeters>
          </Trackpoint>
          <Trackpoint>
            <Time>2021-04-01T07:04:00.000Z</Time>
            <Position>
              <LatitudeDegrees>42.4286963045597076416015625</LatitudeDegrees>
              <LongitudeDegrees>2.79212065972387790679931640625</LongitudeDegrees>
            </Position>
            <AltitudeMeters>675</AltitudeMeters>
            <DistanceMeters>12677.221688551</DistanceMeters>
          </Trackpoint>
          <Trackpoint>
            <Time>2021-04-01T07:04:02.000Z</Time>
            <Position>
              <LatitudeDegrees>42.42868968285620212554931640625</LatitudeDegrees>
              <LongitudeDegrees>2.79215737245976924896240234375</LongitudeDegrees>
            </Position>
            <AltitudeMeters>674.79998779296875</AltitudeMeters>
            <DistanceMeters>12680.327187166</DistanceMeters>
          </Trackpoint>
          <Trackpoint>
            <Time>2021-04-01T07:04:05.000Z</Time>
            <Position>
              <LatitudeDegrees>42.4286636151373386383056640625</LatitudeDegrees>
              <LongitudeDegrees>2.79220414347946643829345703125</LongitudeDegrees>
            </Position>
            <AltitudeMeters>674.79998779296875</AltitudeMeters>
            <DistanceMeters>12685.14176983</DistanceMeters>
          </Trackpoint>
          <Trackpoint>
            <Time>2021-04-01T07:04:09.000Z</Time>
            <Position>
              <LatitudeDegrees>42.4286260642111301422119140625</LatitudeDegrees>
              <LongitudeDegrees>2.79224705882370471954345703125</LongitudeDegrees>
            </Position>
            <AltitudeMeters>674</AltitudeMeters>
            <DistanceMeters>12690.608903725</DistanceMeters>
          </Trackpoint>
          <Trackpoint>
            <Time>2021-04-01T07:04:11.000Z</Time>
            <Position>
              <LatitudeDegrees>42.428613491356372833251953125</LatitudeDegrees>
              <LongitudeDegrees>2.79226985760033130645751953125</LongitudeDegrees>
            </Position>
            <AltitudeMeters>673.79998779296875</AltitudeMeters>
            <DistanceMeters>12692.944319357</DistanceMeters>
          </Trackpoint>
          <Trackpoint>
            <Time>2021-04-01T07:04:12.000Z</Time>
            <Position>
              <LatitudeDegrees>42.42860536091029644012451171875</LatitudeDegrees>
              <LongitudeDegrees>2.7922826819121837615966796875</LongitudeDegrees>
            </Position>
            <AltitudeMeters>673.79998779296875</AltitudeMeters>
            <DistanceMeters>12694.334440344</DistanceMeters>
          </Trackpoint>
          <Trackpoint>
            <Time>2021-04-01T07:04:19.000Z</Time>
            <Position>
              <LatitudeDegrees>42.4285694025456905364990234375</LatitudeDegrees>
              <LongitudeDegrees>2.792384438216686248779296875</LongitudeDegrees>
            </Position>
            <AltitudeMeters>673.20001220703125</AltitudeMeters>
            <DistanceMeters>12703.602833798</DistanceMeters>
          </Trackpoint>
          <Trackpoint>
            <Time>2021-04-01T07:04:20.000Z</Time>
            <Position>
              <LatitudeDegrees>42.42856697179377079010009765625</LatitudeDegrees>
              <LongitudeDegrees>2.79239793308079242706298828125</LongitudeDegrees>
            </Position>
            <AltitudeMeters>673.20001220703125</AltitudeMeters>
            <DistanceMeters>12704.74315437</DistanceMeters>
          </Trackpoint>
          <Trackpoint>
            <Time>2021-04-01T07:04:22.000Z</Time>
            <Position>
              <LatitudeDegrees>42.42855724878609180450439453125</LatitudeDegrees>
              <LongitudeDegrees>2.7924245037138462066650390625</LongitudeDegrees>
            </Position>
            <AltitudeMeters>673</AltitudeMeters>
            <DistanceMeters>12707.17888018</DistanceMeters>
          </Trackpoint>
          <Trackpoint>
            <Time>2021-04-01T07:04:23.000Z</Time>
            <Position>
              <LatitudeDegrees>42.42854752577841281890869140625</LatitudeDegrees>
              <LongitudeDegrees>2.79243531636893749237060546875</LongitudeDegrees>
            </Position>
            <AltitudeMeters>672.79998779296875</AltitudeMeters>
            <DistanceMeters>12708.581932804</DistanceMeters>
          </Trackpoint>
          <Trackpoint>
            <Time>2021-04-01T07:04:24.000Z</Time>
            <Position>
              <LatitudeDegrees>42.42853981442749500274658203125</LatitudeDegrees>
              <LongitudeDegrees>2.79244990088045597076416015625</LongitudeDegrees>
            </Position>
            <AltitudeMeters>672.5999755859375</AltitudeMeters>
            <DistanceMeters>12710.057144119</DistanceMeters>
          </Trackpoint>
          <Trackpoint>
            <Time>2021-04-01T07:04:28.000Z</Time>
            <Position>
              <LatitudeDegrees>42.4285177700221538543701171875</LatitudeDegrees>
              <LongitudeDegrees>2.7925133518874645233154296875</LongitudeDegrees>
            </Position>
            <AltitudeMeters>672</AltitudeMeters>
            <DistanceMeters>12715.817832527</DistanceMeters>
          </Trackpoint>
          <Trackpoint>
            <Time>2021-04-01T07:04:36.000Z</Time>
            <Position>
              <LatitudeDegrees>42.42847627960145473480224609375</LatitudeDegrees>
              <LongitudeDegrees>2.792629189789295196533203125</LongitudeDegrees>
            </Position>
            <AltitudeMeters>671.79998779296875</AltitudeMeters>
            <DistanceMeters>12726.395291916</DistanceMeters>
          </Trackpoint>
          <Trackpoint>
            <Time>2021-04-01T07:04:38.000Z</Time>
            <Position>
              <LatitudeDegrees>42.4284627847373485565185546875</LatitudeDegrees>
              <LongitudeDegrees>2.79265659861266613006591796875</LongitudeDegrees>
            </Position>
            <AltitudeMeters>671.5999755859375</AltitudeMeters>
            <DistanceMeters>12729.10313646</DistanceMeters>
          </Trackpoint>
          <Trackpoint>
            <Time>2021-04-01T07:04:48.000Z</Time>
            <Position>
              <LatitudeDegrees>42.42840536870062351226806640625</LatitudeDegrees>
              <LongitudeDegrees>2.79278618283569812774658203125</LongitudeDegrees>
            </Position>
            <AltitudeMeters>671.20001220703125</AltitudeMeters>
            <DistanceMeters>12741.520041276</DistanceMeters>
          </Trackpoint>
          <Trackpoint>
            <Time>2021-04-01T07:04:54.000Z</Time>
            <Position>
              <LatitudeDegrees>42.42838877253234386444091796875</LatitudeDegrees>
              <LongitudeDegrees>2.7928782999515533447265625</LongitudeDegrees>
            </Position>
            <AltitudeMeters>670.4000244140625</AltitudeMeters>
            <DistanceMeters>12749.309913785</DistanceMeters>
          </Trackpoint>
          <Trackpoint>
            <Time>2021-04-01T07:04:55.000Z</Time>
            <Position>
              <LatitudeDegrees>42.42838877253234386444091796875</LatitudeDegrees>
              <LongitudeDegrees>2.7928782999515533447265625</LongitudeDegrees>
            </Position>
            <AltitudeMeters>670.4000244140625</AltitudeMeters>
            <DistanceMeters>12749.309913785</DistanceMeters>
          </Trackpoint>
          <Trackpoint>
            <Time>2021-04-01T07:05:04.000Z</Time>
            <Position>
              <LatitudeDegrees>42.42833554744720458984375</LatitudeDegrees>
              <LongitudeDegrees>2.7930296771228313446044921875</LongitudeDegrees>
            </Position>
            <AltitudeMeters>670.20001220703125</AltitudeMeters>
            <DistanceMeters>12763.085182435</DistanceMeters>
          </Trackpoint>
          <Trackpoint>
            <Time>2021-04-01T07:05:10.000Z</Time>
            <Position>
              <LatitudeDegrees>42.42831878364086151123046875</LatitudeDegrees>
              <LongitudeDegrees>2.793126404285430908203125</LongitudeDegrees>
            </Position>
            <AltitudeMeters>669.4000244140625</AltitudeMeters>
            <DistanceMeters>12771.247529157</DistanceMeters>
          </Trackpoint>
          <Trackpoint>
            <Time>2021-04-01T07:05:14.000Z</Time>
            <Position>
              <LatitudeDegrees>42.42832808755338191986083984375</LatitudeDegrees>
              <LongitudeDegrees>2.79320192523300647735595703125</LongitudeDegrees>
            </Position>
            <AltitudeMeters>669.5999755859375</AltitudeMeters>
            <DistanceMeters>12777.537981841</DistanceMeters>
          </Trackpoint>
          <Trackpoint>
            <Time>2021-04-01T07:05:28.000Z</Time>
            <Position>
              <LatitudeDegrees>42.42825617082417011260986328125</LatitudeDegrees>
              <LongitudeDegrees>2.79341180808842182159423828125</LongitudeDegrees>
            </Position>
            <AltitudeMeters>668.79998779296875</AltitudeMeters>
            <DistanceMeters>12796.548075457</DistanceMeters>
          </Trackpoint>
          <Trackpoint>
            <Time>2021-04-01T07:05:31.000Z</Time>
            <Position>
              <LatitudeDegrees>42.42823437787592411041259765625</LatitudeDegrees>
              <LongitudeDegrees>2.79345572926104068756103515625</LongitudeDegrees>
            </Position>
            <AltitudeMeters>668.4000244140625</AltitudeMeters>
            <DistanceMeters>12800.89548273</DistanceMeters>
          </Trackpoint>
          <Trackpoint>
            <Time>2021-04-01T07:05:36.000Z</Time>
            <Position>
              <LatitudeDegrees>42.428190708160400390625</LatitudeDegrees>
              <LongitudeDegrees>2.7935158275067806243896484375</LongitudeDegrees>
            </Position>
            <AltitudeMeters>668</AltitudeMeters>
            <DistanceMeters>12807.82396643</DistanceMeters>
          </Trackpoint>
          <Trackpoint>
            <Time>2021-04-01T07:05:37.000Z</Time>
            <Position>
              <LatitudeDegrees>42.428183667361736297607421875</LatitudeDegrees>
              <LongitudeDegrees>2.79353166930377483367919921875</LongitudeDegrees>
            </Position>
            <AltitudeMeters>668</AltitudeMeters>
            <DistanceMeters>12809.338443045</DistanceMeters>
          </Trackpoint>
          <Trackpoint>
            <Time>2021-04-01T07:05:39.000Z</Time>
            <Position>
              <LatitudeDegrees>42.42817201651632785797119140625</LatitudeDegrees>
              <LongitudeDegrees>2.79357341118156909942626953125</LongitudeDegrees>
            </Position>
            <AltitudeMeters>668</AltitudeMeters>
            <DistanceMeters>12813.00406083</DistanceMeters>
          </Trackpoint>
          <Trackpoint>
            <Time>2021-04-01T07:05:41.000Z</Time>
            <Position>
              <LatitudeDegrees>42.42815248668193817138671875</LatitudeDegrees>
              <LongitudeDegrees>2.79359034262597560882568359375</LongitudeDegrees>
            </Position>
            <AltitudeMeters>668</AltitudeMeters>
            <DistanceMeters>12815.585571321</DistanceMeters>
          </Trackpoint>
          <Trackpoint>
            <Time>2021-04-01T07:05:45.000Z</Time>
            <Position>
              <LatitudeDegrees>42.42809507064521312713623046875</LatitudeDegrees>
              <LongitudeDegrees>2.79362169094383716583251953125</LongitudeDegrees>
            </Position>
            <AltitudeMeters>667.79998779296875</AltitudeMeters>
            <DistanceMeters>12822.474844272</DistanceMeters>
          </Trackpoint>
          <Trackpoint>
            <Time>2021-04-01T07:05:49.000Z</Time>
            <Position>
              <LatitudeDegrees>42.4280436895787715911865234375</LatitudeDegrees>
              <LongitudeDegrees>2.793641723692417144775390625</LongitudeDegrees>
            </Position>
            <AltitudeMeters>667.20001220703125</AltitudeMeters>
            <DistanceMeters>12828.425975241</DistanceMeters>
          </Trackpoint>
          <Trackpoint>
            <Time>2021-04-01T07:05:50.000Z</Time>
            <Position>
              <LatitudeDegrees>42.4280275963246822357177734375</LatitudeDegrees>
              <LongitudeDegrees>2.79364884831011295318603515625</LongitudeDegrees>
            </Position>
            <AltitudeMeters>667</AltitudeMeters>
            <DistanceMeters>12830.312201664</DistanceMeters>
          </Trackpoint>
          <Trackpoint>
            <Time>2021-04-01T07:05:53.000Z</Time>
            <Position>
              <LatitudeDegrees>42.4279816634953022003173828125</LatitudeDegrees>
              <LongitudeDegrees>2.79360526241362094879150390625</LongitudeDegrees>
            </Position>
            <AltitudeMeters>666.20001220703125</AltitudeMeters>
            <DistanceMeters>12836.555102427</DistanceMeters>
          </Trackpoint>
          <Trackpoint>
            <Time>2021-04-01T07:05:54.000Z</Time>
            <Position>
              <LatitudeDegrees>42.42796381004154682159423828125</LatitudeDegrees>
              <LongitudeDegrees>2.79358439147472381591796875</LongitudeDegrees>
            </Position>
            <AltitudeMeters>666.20001220703125</AltitudeMeters>
            <DistanceMeters>12839.181693069</DistanceMeters>
          </Trackpoint>
          <Trackpoint>
            <Time>2021-04-01T07:05:55.000Z</Time>
            <Position>
              <LatitudeDegrees>42.42795509286224842071533203125</LatitudeDegrees>
              <LongitudeDegrees>2.7935620956122875213623046875</LongitudeDegrees>
            </Position>
            <AltitudeMeters>666</AltitudeMeters>
            <DistanceMeters>12841.25493121</DistanceMeters>
          </Trackpoint>
          <Trackpoint>
            <Time>2021-04-01T07:05:56.000Z</Time>
            <Position>
              <LatitudeDegrees>42.4279518239200115203857421875</LatitudeDegrees>
              <LongitudeDegrees>2.79354122467339038848876953125</LongitudeDegrees>
            </Position>
            <AltitudeMeters>666</AltitudeMeters>
            <DistanceMeters>12843.007137245</DistanceMeters>
          </Trackpoint>
          <Trackpoint>
            <Time>2021-04-01T07:05:59.000Z</Time>
            <Position>
              <LatitudeDegrees>42.42796079255640506744384765625</LatitudeDegrees>
              <LongitudeDegrees>2.79348741285502910614013671875</LongitudeDegrees>
            </Position>
            <AltitudeMeters>665.79998779296875</AltitudeMeters>
            <DistanceMeters>12847.539622646</DistanceMeters>
          </Trackpoint>
          <Trackpoint>
            <Time>2021-04-01T07:06:04.000Z</Time>
            <Position>
              <LatitudeDegrees>42.4279997684061527252197265625</LatitudeDegrees>
              <LongitudeDegrees>2.7934115566313266754150390625</LongitudeDegrees>
            </Position>
            <AltitudeMeters>665.4000244140625</AltitudeMeters>
            <DistanceMeters>12855.132251178</DistanceMeters>
          </Trackpoint>
          <Trackpoint>
            <Time>2021-04-01T07:06:05.000Z</Time>
            <Position>
              <LatitudeDegrees>42.42800571955740451812744140625</LatitudeDegrees>
              <LongitudeDegrees>2.79339906759560108184814453125</LongitudeDegrees>
            </Position>
            <AltitudeMeters>665.20001220703125</AltitudeMeters>
            <DistanceMeters>12856.356584747</DistanceMeters>
          </Trackpoint>
          <Trackpoint>
            <Time>2021-04-01T07:06:08.000Z</Time>
            <Position>
              <LatitudeDegrees>42.42801996879279613494873046875</LatitudeDegrees>
              <LongitudeDegrees>2.7933652885258197784423828125</LongitudeDegrees>
            </Position>
            <AltitudeMeters>664.5999755859375</AltitudeMeters>
            <DistanceMeters>12859.553778288</DistanceMeters>
          </Trackpoint>
          <Trackpoint>
            <Time>2021-04-01T07:06:12.000Z</Time>
            <Position>
              <LatitudeDegrees>42.428053580224514007568359375</LatitudeDegrees>
              <LongitudeDegrees>2.7933203615248203277587890625</LongitudeDegrees>
            </Position>
            <AltitudeMeters>664</AltitudeMeters>
            <DistanceMeters>12864.808678265</DistanceMeters>
          </Trackpoint>
          <Trackpoint>
            <Time>2021-04-01T07:06:15.000Z</Time>
            <Position>
              <LatitudeDegrees>42.42806757800281047821044921875</LatitudeDegrees>
              <LongitudeDegrees>2.7932750992476940155029296875</LongitudeDegrees>
            </Position>
            <AltitudeMeters>663.5999755859375</AltitudeMeters>
            <DistanceMeters>12868.841440057</DistanceMeters>
          </Trackpoint>
          <Trackpoint>
            <Time>2021-04-01T07:06:18.000Z</Time>
            <Position>
              <LatitudeDegrees>42.428087107837200164794921875</LatitudeDegrees>
              <LongitudeDegrees>2.7932274900376796722412109375</LongitudeDegrees>
            </Position>
            <AltitudeMeters>663.4000244140625</AltitudeMeters>
            <DistanceMeters>12873.316784687</DistanceMeters>
          </Trackpoint>
          <Trackpoint>
            <Time>2021-04-01T07:06:20.000Z</Time>
            <Position>
              <LatitudeDegrees>42.42809607647359371185302734375</LatitudeDegrees>
              <LongitudeDegrees>2.79320158995687961578369140625</LongitudeDegrees>
            </Position>
            <AltitudeMeters>663.4000244140625</AltitudeMeters>
            <DistanceMeters>12875.665694371</DistanceMeters>
          </Trackpoint>
          <Trackpoint>
            <Time>2021-04-01T07:06:22.000Z</Time>
            <Position>
              <LatitudeDegrees>42.4280986748635768890380859375</LatitudeDegrees>
              <LongitudeDegrees>2.79317493550479412078857421875</LongitudeDegrees>
            </Position>
            <AltitudeMeters>663</AltitudeMeters>
            <DistanceMeters>12877.873915665</DistanceMeters>
          </Trackpoint>
          <Trackpoint>
            <Time>2021-04-01T07:06:24.000Z</Time>
            <Position>
              <LatitudeDegrees>42.42809372954070568084716796875</LatitudeDegrees>
              <LongitudeDegrees>2.79314107261598110198974609375</LongitudeDegrees>
            </Position>
            <AltitudeMeters>662.5999755859375</AltitudeMeters>
            <DistanceMeters>12880.70883507</DistanceMeters>
          </Trackpoint>
          <Trackpoint>
            <Time>2021-04-01T07:06:26.000Z</Time>
            <Position>
              <LatitudeDegrees>42.42809691466391086578369140625</LatitudeDegrees>
              <LongitudeDegrees>2.79310888610780239105224609375</LongitudeDegrees>
            </Position>
            <AltitudeMeters>662.4000244140625</AltitudeMeters>
            <DistanceMeters>12883.374668929</DistanceMeters>
          </Trackpoint>
          <Trackpoint>
            <Time>2021-04-01T07:06:28.000Z</Time>
            <Position>
              <LatitudeDegrees>42.428105212748050689697265625</LatitudeDegrees>
              <LongitudeDegrees>2.793066389858722686767578125</LongitudeDegrees>
            </Position>
            <AltitudeMeters>662</AltitudeMeters>
            <DistanceMeters>12886.985684075</DistanceMeters>
          </Trackpoint>
          <Trackpoint>
            <Time>2021-04-01T07:06:30.000Z</Time>
            <Position>
              <LatitudeDegrees>42.42811250500380992889404296875</LatitudeDegrees>
              <LongitudeDegrees>2.79303143732249736785888671875</LongitudeDegrees>
            </Position>
            <AltitudeMeters>661.79998779296875</AltitudeMeters>
            <DistanceMeters>12889.969583432</DistanceMeters>
          </Trackpoint>
          <Trackpoint>
            <Time>2021-04-01T07:06:31.000Z</Time>
            <Position>
              <LatitudeDegrees>42.42811493575572967529296875</LatitudeDegrees>
              <LongitudeDegrees>2.79300997965037822723388671875</LongitudeDegrees>
            </Position>
            <AltitudeMeters>661.79998779296875</AltitudeMeters>
            <DistanceMeters>12891.752442626</DistanceMeters>
          </Trackpoint>
          <Trackpoint>
            <Time>2021-04-01T07:06:33.000Z</Time>
            <Position>
              <LatitudeDegrees>42.42812206037342548370361328125</LatitudeDegrees>
              <LongitudeDegrees>2.79297159053385257720947265625</LongitudeDegrees>
            </Position>
            <AltitudeMeters>661.79998779296875</AltitudeMeters>
            <DistanceMeters>12895.005633305</DistanceMeters>
          </Trackpoint>
          <Trackpoint>
            <Time>2021-04-01T07:06:36.000Z</Time>
            <Position>
              <LatitudeDegrees>42.42813245393335819244384765625</LatitudeDegrees>
              <LongitudeDegrees>2.792920209467411041259765625</LongitudeDegrees>
            </Position>
            <AltitudeMeters>661.5999755859375</AltitudeMeters>
            <DistanceMeters>12899.383055174</DistanceMeters>
          </Trackpoint>
          <Trackpoint>
            <Time>2021-04-01T07:06:37.000Z</Time>
            <Position>
              <LatitudeDegrees>42.4281342141330242156982421875</LatitudeDegrees>
              <LongitudeDegrees>2.7929042838513851165771484375</LongitudeDegrees>
            </Position>
            <AltitudeMeters>661.5999755859375</AltitudeMeters>
            <DistanceMeters>12900.706624148</DistanceMeters>
          </Trackpoint>
          <Trackpoint>
            <Time>2021-04-01T07:06:40.000Z</Time>
            <Position>
              <LatitudeDegrees>42.4281389079988002777099609375</LatitudeDegrees>
              <LongitudeDegrees>2.792853154242038726806640625</LongitudeDegrees>
            </Position>
            <AltitudeMeters>661.5999755859375</AltitudeMeters>
            <DistanceMeters>12904.939314978</DistanceMeters>
          </Trackpoint>
          <Trackpoint>
            <Time>2021-04-01T07:06:42.000Z</Time>
            <Position>
              <LatitudeDegrees>42.4281449429690837860107421875</LatitudeDegrees>
              <LongitudeDegrees>2.7928264997899532318115234375</LongitudeDegrees>
            </Position>
            <AltitudeMeters>661.4000244140625</AltitudeMeters>
            <DistanceMeters>12907.229833351</DistanceMeters>
          </Trackpoint>
          <Trackpoint>
            <Time>2021-04-01T07:06:43.000Z</Time>
            <Position>
              <LatitudeDegrees>42.4281472899019718170166015625</LatitudeDegrees>
              <LongitudeDegrees>2.79281065799295902252197265625</LongitudeDegrees>
            </Position>
            <AltitudeMeters>661.4000244140625</AltitudeMeters>
            <DistanceMeters>12908.553402325</DistanceMeters>
          </Trackpoint>
          <Trackpoint>
            <Time>2021-04-01T07:06:44.000Z</Time>
            <Position>
              <LatitudeDegrees>42.4281518161296844482421875</LatitudeDegrees>
              <LongitudeDegrees>2.7927973307669162750244140625</LongitudeDegrees>
            </Position>
            <AltitudeMeters>661.20001220703125</AltitudeMeters>
            <DistanceMeters>12909.755405749</DistanceMeters>
          </Trackpoint>
          <Trackpoint>
            <Time>2021-04-01T07:06:51.000Z</Time>
            <Position>
              <LatitudeDegrees>42.42816564626991748809814453125</LatitudeDegrees>
              <LongitudeDegrees>2.79267017729580402374267578125</LongitudeDegrees>
            </Position>
            <AltitudeMeters>660.5999755859375</AltitudeMeters>
            <DistanceMeters>12920.314066828</DistanceMeters>
          </Trackpoint>
          <Trackpoint>
            <Time>2021-04-01T07:06:54.000Z</Time>
            <Position>
              <LatitudeDegrees>42.4281731061637401580810546875</LatitudeDegrees>
              <LongitudeDegrees>2.79263145290315151214599609375</LongitudeDegrees>
            </Position>
            <AltitudeMeters>660.5999755859375</AltitudeMeters>
            <DistanceMeters>12923.603144446</DistanceMeters>
          </Trackpoint>
          <Trackpoint>
            <Time>2021-04-01T07:06:57.000Z</Time>
            <Position>
              <LatitudeDegrees>42.42818073369562625885009765625</LatitudeDegrees>
              <LongitudeDegrees>2.7925837598741054534912109375</LongitudeDegrees>
            </Position>
            <AltitudeMeters>660.5999755859375</AltitudeMeters>
            <DistanceMeters>12927.612325918</DistanceMeters>
          </Trackpoint>
          <Trackpoint>
            <Time>2021-04-01T07:07:04.000Z</Time>
            <Position>
              <LatitudeDegrees>42.42819330655038356781005859375</LatitudeDegrees>
              <LongitudeDegrees>2.79247035272419452667236328125</LongitudeDegrees>
            </Position>
            <AltitudeMeters>660</AltitudeMeters>
            <DistanceMeters>12937.033878414</DistanceMeters>
          </Trackpoint>
          <Trackpoint>
            <Time>2021-04-01T07:07:05.000Z</Time>
            <Position>
              <LatitudeDegrees>42.42819330655038356781005859375</LatitudeDegrees>
              <LongitudeDegrees>2.7924516610801219940185546875</LongitudeDegrees>
            </Position>
            <AltitudeMeters>660</AltitudeMeters>
            <DistanceMeters>12938.569081968</DistanceMeters>
          </Trackpoint>
          <Trackpoint>
            <Time>2021-04-01T07:07:10.000Z</Time>
            <Position>
              <LatitudeDegrees>42.42820722050964832305908203125</LatitudeDegrees>
              <LongitudeDegrees>2.792383097112178802490234375</LongitudeDegrees>
            </Position>
            <AltitudeMeters>660.20001220703125</AltitudeMeters>
            <DistanceMeters>12944.41148635</DistanceMeters>
          </Trackpoint>
          <Trackpoint>
            <Time>2021-04-01T07:07:14.000Z</Time>
            <Position>
              <LatitudeDegrees>42.4282207153737545013427734375</LatitudeDegrees>
              <LongitudeDegrees>2.7923131920397281646728515625</LongitudeDegrees>
            </Position>
            <AltitudeMeters>660</AltitudeMeters>
            <DistanceMeters>12950.34894527</DistanceMeters>
          </Trackpoint>
          <Trackpoint>
            <Time>2021-04-01T07:07:24.000Z</Time>
            <Position>
              <LatitudeDegrees>42.4282586015760898590087890625</LatitudeDegrees>
              <LongitudeDegrees>2.79217128641903400421142578125</LongitudeDegrees>
            </Position>
            <AltitudeMeters>659.79998779296875</AltitudeMeters>
            <DistanceMeters>12962.746199042</DistanceMeters>
          </Trackpoint>
          <Trackpoint>
            <Time>2021-04-01T07:07:29.000Z</Time>
            <Position>
              <LatitudeDegrees>42.4282814003527164459228515625</LatitudeDegrees>
              <LongitudeDegrees>2.7921002916991710662841796875</LongitudeDegrees>
            </Position>
            <AltitudeMeters>659.5999755859375</AltitudeMeters>
            <DistanceMeters>12969.106603311</DistanceMeters>
          </Trackpoint>
          <Trackpoint>
            <Time>2021-04-01T07:07:31.000Z</Time>
            <Position>
              <LatitudeDegrees>42.4282871000468730926513671875</LatitudeDegrees>
              <LongitudeDegrees>2.792061902582645416259765625</LongitudeDegrees>
            </Position>
            <AltitudeMeters>659.5999755859375</AltitudeMeters>
            <DistanceMeters>12972.32350673</DistanceMeters>
          </Trackpoint>
          <Trackpoint>
            <Time>2021-04-01T07:07:32.000Z</Time>
            <Position>
              <LatitudeDegrees>42.4282894469797611236572265625</LatitudeDegrees>
              <LongitudeDegrees>2.7920439653098583221435546875</LongitudeDegrees>
            </Position>
            <AltitudeMeters>659.5999755859375</AltitudeMeters>
            <DistanceMeters>12973.819988924</DistanceMeters>
          </Trackpoint>
          <Trackpoint>
            <Time>2021-04-01T07:07:35.000Z</Time>
            <Position>
              <LatitudeDegrees>42.4283072166144847869873046875</LatitudeDegrees>
              <LongitudeDegrees>2.79199224896728992462158203125</LongitudeDegrees>
            </Position>
            <AltitudeMeters>659.4000244140625</AltitudeMeters>
            <DistanceMeters>12978.506260994</DistanceMeters>
          </Trackpoint>
          <Trackpoint>
            <Time>2021-04-01T07:07:41.000Z</Time>
            <Position>
              <LatitudeDegrees>42.42833680473268032073974609375</LatitudeDegrees>
              <LongitudeDegrees>2.791912369430065155029296875</LongitudeDegrees>
            </Position>
            <AltitudeMeters>659.4000244140625</AltitudeMeters>
            <DistanceMeters>12985.848573734</DistanceMeters>
          </Trackpoint>
          <Trackpoint>
            <Time>2021-04-01T07:07:42.000Z</Time>
            <Position>
              <LatitudeDegrees>42.4283410795032978057861328125</LatitudeDegrees>
              <LongitudeDegrees>2.79189585708081722259521484375</LongitudeDegrees>
            </Position>
            <AltitudeMeters>659.20001220703125</AltitudeMeters>
            <DistanceMeters>12987.286588861</DistanceMeters>
          </Trackpoint>
          <Trackpoint>
            <Time>2021-04-01T07:07:46.000Z</Time>
            <Position>
              <LatitudeDegrees>42.4283668957650661468505859375</LatitudeDegrees>
              <LongitudeDegrees>2.791838608682155609130859375</LongitudeDegrees>
            </Position>
            <AltitudeMeters>659</AltitudeMeters>
            <DistanceMeters>12992.799776443</DistanceMeters>
          </Trackpoint>
          <Trackpoint>
            <Time>2021-04-01T07:07:49.000Z</Time>
            <Position>
              <LatitudeDegrees>42.4283870123326778411865234375</LatitudeDegrees>
              <LongitudeDegrees>2.791793011128902435302734375</LongitudeDegrees>
            </Position>
            <AltitudeMeters>659.20001220703125</AltitudeMeters>
            <DistanceMeters>12997.16480351</DistanceMeters>
          </Trackpoint>
          <Trackpoint>
            <Time>2021-04-01T07:07:52.000Z</Time>
            <Position>
              <LatitudeDegrees>42.4284084700047969818115234375</LatitudeDegrees>
              <LongitudeDegrees>2.7917489223182201385498046875</LongitudeDegrees>
            </Position>
            <AltitudeMeters>659</AltitudeMeters>
            <DistanceMeters>13001.503894358</DistanceMeters>
          </Trackpoint>
          <Trackpoint>
            <Time>2021-04-01T07:07:58.000Z</Time>
            <Position>
              <LatitudeDegrees>42.42845163680613040924072265625</LatitudeDegrees>
              <LongitudeDegrees>2.79166527092456817626953125</LongitudeDegrees>
            </Position>
            <AltitudeMeters>658.5999755859375</AltitudeMeters>
            <DistanceMeters>13009.888891388</DistanceMeters>
          </Trackpoint>
          <Trackpoint>
            <Time>2021-04-01T07:08:00.000Z</Time>
            <Position>
              <LatitudeDegrees>42.428462617099285125732421875</LatitudeDegrees>
              <LongitudeDegrees>2.79164792038500308990478515625</LongitudeDegrees>
            </Position>
            <AltitudeMeters>658.5999755859375</AltitudeMeters>
            <DistanceMeters>13011.765518632</DistanceMeters>
          </Trackpoint>
          <Trackpoint>
            <Time>2021-04-01T07:08:02.000Z</Time>
            <Position>
              <LatitudeDegrees>42.42847703397274017333984375</LatitudeDegrees>
              <LongitudeDegrees>2.79162579216063022613525390625</LongitudeDegrees>
            </Position>
            <AltitudeMeters>658.4000244140625</AltitudeMeters>
            <DistanceMeters>13014.190096897</DistanceMeters>
          </Trackpoint>
          <Trackpoint>
            <Time>2021-04-01T07:08:07.000Z</Time>
            <Position>
              <LatitudeDegrees>42.4285067059099674224853515625</LatitudeDegrees>
              <LongitudeDegrees>2.791547589004039764404296875</LongitudeDegrees>
            </Position>
            <AltitudeMeters>658</AltitudeMeters>
            <DistanceMeters>13021.414627459</DistanceMeters>
          </Trackpoint>
          <Trackpoint>
            <Time>2021-04-01T07:08:13.000Z</Time>
            <Position>
              <LatitudeDegrees>42.428535707294940948486328125</LatitudeDegrees>
              <LongitudeDegrees>2.7914582379162311553955078125</LongitudeDegrees>
            </Position>
            <AltitudeMeters>657.5999755859375</AltitudeMeters>
            <DistanceMeters>13029.43355347</DistanceMeters>
          </Trackpoint>
          <Trackpoint>
            <Time>2021-04-01T07:08:14.000Z</Time>
            <Position>
              <LatitudeDegrees>42.4285432510077953338623046875</LatitudeDegrees>
              <LongitudeDegrees>2.79144876636564731597900390625</LongitudeDegrees>
            </Position>
            <AltitudeMeters>657.4000244140625</AltitudeMeters>
            <DistanceMeters>13030.573874042</DistanceMeters>
          </Trackpoint>
          <Trackpoint>
            <Time>2021-04-01T07:08:23.000Z</Time>
            <Position>
              <LatitudeDegrees>42.428585998713970184326171875</LatitudeDegrees>
              <LongitudeDegrees>2.79132320545613765716552734375</LongitudeDegrees>
            </Position>
            <AltitudeMeters>657.20001220703125</AltitudeMeters>
            <DistanceMeters>13041.933442361</DistanceMeters>
          </Trackpoint>
          <Trackpoint>
            <Time>2021-04-01T07:08:33.000Z</Time>
            <Position>
              <LatitudeDegrees>42.42861994542181491851806640625</LatitudeDegrees>
              <LongitudeDegrees>2.79115506447851657867431640625</LongitudeDegrees>
            </Position>
            <AltitudeMeters>656.79998779296875</AltitudeMeters>
            <DistanceMeters>13056.254444288</DistanceMeters>
          </Trackpoint>
          <Trackpoint>
            <Time>2021-04-01T07:08:40.000Z</Time>
            <Position>
              <LatitudeDegrees>42.42864190600812435150146484375</LatitudeDegrees>
              <LongitudeDegrees>2.79102548025548458099365234375</LongitudeDegrees>
            </Position>
            <AltitudeMeters>656.79998779296875</AltitudeMeters>
            <DistanceMeters>13067.177144044</DistanceMeters>
          </Trackpoint>
          <Trackpoint>
            <Time>2021-04-01T07:08:43.000Z</Time>
            <Position>
              <LatitudeDegrees>42.42864727042615413665771484375</LatitudeDegrees>
              <LongitudeDegrees>2.7909767813980579376220703125</LongitudeDegrees>
            </Position>
            <AltitudeMeters>656.5999755859375</AltitudeMeters>
            <DistanceMeters>13071.222202575</DistanceMeters>
          </Trackpoint>
          <Trackpoint>
            <Time>2021-04-01T07:08:46.000Z</Time>
            <Position>
              <LatitudeDegrees>42.42864944972097873687744140625</LatitudeDegrees>
              <LongitudeDegrees>2.79092766344547271728515625</LongitudeDegrees>
            </Position>
            <AltitudeMeters>656.5999755859375</AltitudeMeters>
            <DistanceMeters>13075.262793895</DistanceMeters>
          </Trackpoint>
          <Trackpoint>
            <Time>2021-04-01T07:08:54.000Z</Time>
            <Position>
              <LatitudeDegrees>42.42865540087223052978515625</LatitudeDegrees>
              <LongitudeDegrees>2.7908024378120899200439453125</LongitudeDegrees>
            </Position>
            <AltitudeMeters>656.5999755859375</AltitudeMeters>
            <DistanceMeters>13085.572207057</DistanceMeters>
          </Trackpoint>
          <Trackpoint>
            <Time>2021-04-01T07:08:57.000Z</Time>
            <Position>
              <LatitudeDegrees>42.42866001091897487640380859375</LatitudeDegrees>
              <LongitudeDegrees>2.7907513082027435302734375</LongitudeDegrees>
            </Position>
            <AltitudeMeters>656.4000244140625</AltitudeMeters>
            <DistanceMeters>13089.804897887</DistanceMeters>
          </Trackpoint>
          <Trackpoint>
            <Time>2021-04-01T07:09:03.000Z</Time>
            <Position>
              <LatitudeDegrees>42.42867593653500080108642578125</LatitudeDegrees>
              <LongitudeDegrees>2.7906529046595096588134765625</LongitudeDegrees>
            </Position>
            <AltitudeMeters>656.4000244140625</AltitudeMeters>
            <DistanceMeters>13098.080955513</DistanceMeters>
          </Trackpoint>
          <Trackpoint>
            <Time>2021-04-01T07:09:05.000Z</Time>
            <Position>
              <LatitudeDegrees>42.4286800436675548553466796875</LatitudeDegrees>
              <LongitudeDegrees>2.79061853885650634765625</LongitudeDegrees>
            </Position>
            <AltitudeMeters>656.4000244140625</AltitudeMeters>
            <DistanceMeters>13100.94124383</DistanceMeters>
          </Trackpoint>
          <Trackpoint>
            <Time>2021-04-01T07:09:08.000Z</Time>
            <Position>
              <LatitudeDegrees>42.42869295179843902587890625</LatitudeDegrees>
              <LongitudeDegrees>2.7905751205980777740478515625</LongitudeDegrees>
            </Position>
            <AltitudeMeters>656.20001220703125</AltitudeMeters>
            <DistanceMeters>13104.787185225</DistanceMeters>
          </Trackpoint>
          <Trackpoint>
            <Time>2021-04-01T07:09:17.000Z</Time>
            <Position>
              <LatitudeDegrees>42.4287284910678863525390625</LatitudeDegrees>
              <LongitudeDegrees>2.7904343046247959136962890625</LongitudeDegrees>
            </Position>
            <AltitudeMeters>655.79998779296875</AltitudeMeters>
            <DistanceMeters>13117.013545495</DistanceMeters>
          </Trackpoint>
          <Trackpoint>
            <Time>2021-04-01T07:09:18.000Z</Time>
            <Position>
              <LatitudeDegrees>42.4287350289523601531982421875</LatitudeDegrees>
              <LongitudeDegrees>2.7904202230274677276611328125</LongitudeDegrees>
            </Position>
            <AltitudeMeters>655.79998779296875</AltitudeMeters>
            <DistanceMeters>13118.380741832</DistanceMeters>
          </Trackpoint>
          <Trackpoint>
            <Time>2021-04-01T07:09:23.000Z</Time>
            <Position>
              <LatitudeDegrees>42.4287615157663822174072265625</LatitudeDegrees>
              <LongitudeDegrees>2.79036163352429866790771484375</LongitudeDegrees>
            </Position>
            <AltitudeMeters>655.5999755859375</AltitudeMeters>
            <DistanceMeters>13124.025040699</DistanceMeters>
          </Trackpoint>
          <Trackpoint>
            <Time>2021-04-01T07:09:24.000Z</Time>
            <Position>
              <LatitudeDegrees>42.42876914329826831817626953125</LatitudeDegrees>
              <LongitudeDegrees>2.7903457917273044586181640625</LongitudeDegrees>
            </Position>
            <AltitudeMeters>655.5999755859375</AltitudeMeters>
            <DistanceMeters>13125.574879508</DistanceMeters>
          </Trackpoint>
          <Trackpoint>
            <Time>2021-04-01T07:09:25.000Z</Time>
            <Position>
              <LatitudeDegrees>42.428776435554027557373046875</LatitudeDegrees>
              <LongitudeDegrees>2.7903310395777225494384765625</LongitudeDegrees>
            </Position>
            <AltitudeMeters>655.4000244140625</AltitudeMeters>
            <DistanceMeters>13127.034707594</DistanceMeters>
          </Trackpoint>
          <Trackpoint>
            <Time>2021-04-01T07:09:30.000Z</Time>
            <Position>
              <LatitudeDegrees>42.42880065925419330596923828125</LatitudeDegrees>
              <LongitudeDegrees>2.79026473872363567352294921875</LongitudeDegrees>
            </Position>
            <AltitudeMeters>654.79998779296875</AltitudeMeters>
            <DistanceMeters>13133.111961304</DistanceMeters>
          </Trackpoint>
          <Trackpoint>
            <Time>2021-04-01T07:09:34.000Z</Time>
            <Position>
              <LatitudeDegrees>42.42882044054567813873291015625</LatitudeDegrees>
              <LongitudeDegrees>2.79021025635302066802978515625</LongitudeDegrees>
            </Position>
            <AltitudeMeters>654.5999755859375</AltitudeMeters>
            <DistanceMeters>13138.098827106</DistanceMeters>
          </Trackpoint>
          <Trackpoint>
            <Time>2021-04-01T07:09:35.000Z</Time>
            <Position>
              <LatitudeDegrees>42.42882714606821537017822265625</LatitudeDegrees>
              <LongitudeDegrees>2.7901992760598659515380859375</LongitudeDegrees>
            </Position>
            <AltitudeMeters>654.5999755859375</AltitudeMeters>
            <DistanceMeters>13139.266534922</DistanceMeters>
          </Trackpoint>
          <Trackpoint>
            <Time>2021-04-01T07:09:37.000Z</Time>
            <Position>
              <LatitudeDegrees>42.42883837781846523284912109375</LatitudeDegrees>
              <LongitudeDegrees>2.79017169959843158721923828125</LongitudeDegrees>
            </Position>
            <AltitudeMeters>654.4000244140625</AltitudeMeters>
            <DistanceMeters>13141.853287064</DistanceMeters>
          </Trackpoint>
          <Trackpoint>
            <Time>2021-04-01T07:09:45.000Z</Time>
            <Position>
              <LatitudeDegrees>42.42889822460711002349853515625</LatitudeDegrees>
              <LongitudeDegrees>2.79006491415202617645263671875</LongitudeDegrees>
            </Position>
            <AltitudeMeters>654</AltitudeMeters>
            <DistanceMeters>13152.868190926</DistanceMeters>
          </Trackpoint>
          <Trackpoint>
            <Time>2021-04-01T07:09:48.000Z</Time>
            <Position>
              <LatitudeDegrees>42.42891532368957996368408203125</LatitudeDegrees>
              <LongitudeDegrees>2.79001814313232898712158203125</LongitudeDegrees>
            </Position>
            <AltitudeMeters>654</AltitudeMeters>
            <DistanceMeters>13157.155991719</DistanceMeters>
          </Trackpoint>
          <Trackpoint>
            <Time>2021-04-01T07:09:52.000Z</Time>
            <Position>
              <LatitudeDegrees>42.42895471863448619842529296875</LatitudeDegrees>
              <LongitudeDegrees>2.78998889029026031494140625</LongitudeDegrees>
            </Position>
            <AltitudeMeters>653.4000244140625</AltitudeMeters>
            <DistanceMeters>13162.156419868</DistanceMeters>
          </Trackpoint>
          <Trackpoint>
            <Time>2021-04-01T07:09:53.000Z</Time>
            <Position>
              <LatitudeDegrees>42.4289687164127826690673828125</LatitudeDegrees>
              <LongitudeDegrees>2.78998612426221370697021484375</LongitudeDegrees>
            </Position>
            <AltitudeMeters>653.4000244140625</AltitudeMeters>
            <DistanceMeters>13163.729391879</DistanceMeters>
          </Trackpoint>
          <Trackpoint>
            <Time>2021-04-01T07:09:58.000Z</Time>
            <Position>
              <LatitudeDegrees>42.42901942692697048187255859375</LatitudeDegrees>
              <LongitudeDegrees>2.78994387947022914886474609375</LongitudeDegrees>
            </Position>
            <AltitudeMeters>653</AltitudeMeters>
            <DistanceMeters>13170.355418718</DistanceMeters>
          </Trackpoint>
          <Trackpoint>
            <Time>2021-04-01T07:10:01.000Z</Time>
            <Position>
              <LatitudeDegrees>42.42903803475201129913330078125</LatitudeDegrees>
              <LongitudeDegrees>2.7899064123630523681640625</LongitudeDegrees>
            </Position>
            <AltitudeMeters>653</AltitudeMeters>
            <DistanceMeters>13174.065113651</DistanceMeters>
          </Trackpoint>
          <Trackpoint>
            <Time>2021-04-01T07:10:03.000Z</Time>
            <Position>
              <LatitudeDegrees>42.429054714739322662353515625</LatitudeDegrees>
              <LongitudeDegrees>2.78988570906221866607666015625</LongitudeDegrees>
            </Position>
            <AltitudeMeters>653</AltitudeMeters>
            <DistanceMeters>13176.582873303</DistanceMeters>
          </Trackpoint>
          <Trackpoint>
            <Time>2021-04-01T07:10:08.000Z</Time>
            <Position>
              <LatitudeDegrees>42.42905907332897186279296875</LatitudeDegrees>
              <LongitudeDegrees>2.7898103557527065277099609375</LongitudeDegrees>
            </Position>
            <AltitudeMeters>652.5999755859375</AltitudeMeters>
            <DistanceMeters>13182.792416476</DistanceMeters>
          </Trackpoint>
          <Trackpoint>
            <Time>2021-04-01T07:10:09.000Z</Time>
            <Position>
              <LatitudeDegrees>42.42905580438673496246337890625</LatitudeDegrees>
              <LongitudeDegrees>2.78979736380279064178466796875</LongitudeDegrees>
            </Position>
            <AltitudeMeters>652.4000244140625</AltitudeMeters>
            <DistanceMeters>13183.916787723</DistanceMeters>
          </Trackpoint>
          <Trackpoint>
            <Time>2021-04-01T07:10:13.000Z</Time>
            <Position>
              <LatitudeDegrees>42.42902210913598537445068359375</LatitudeDegrees>
              <LongitudeDegrees>2.78975629247725009918212890625</LongitudeDegrees>
            </Position>
            <AltitudeMeters>651.4000244140625</AltitudeMeters>
            <DistanceMeters>13188.961265439</DistanceMeters>
          </Trackpoint>
          <Trackpoint>
            <Time>2021-04-01T07:10:15.000Z</Time>
            <Position>
              <LatitudeDegrees>42.42900635115802288055419921875</LatitudeDegrees>
              <LongitudeDegrees>2.7897412888705730438232421875</LongitudeDegrees>
            </Position>
            <AltitudeMeters>650.5999755859375</AltitudeMeters>
            <DistanceMeters>13191.105165835</DistanceMeters>
          </Trackpoint>
          <Trackpoint>
            <Time>2021-04-01T07:10:16.000Z</Time>
            <Position>
              <LatitudeDegrees>42.42899344302713871002197265625</LatitudeDegrees>
              <LongitudeDegrees>2.78973399661481380462646484375</LongitudeDegrees>
            </Position>
            <AltitudeMeters>650.20001220703125</AltitudeMeters>
            <DistanceMeters>13192.660820195</DistanceMeters>
          </Trackpoint>
          <Trackpoint>
            <Time>2021-04-01T07:10:24.000Z</Time>
            <Position>
              <LatitudeDegrees>42.42889470420777797698974609375</LatitudeDegrees>
              <LongitudeDegrees>2.78975528664886951446533203125</LongitudeDegrees>
            </Position>
            <AltitudeMeters>649.4000244140625</AltitudeMeters>
            <DistanceMeters>13203.789093572</DistanceMeters>
          </Trackpoint>
          <Trackpoint>
            <Time>2021-04-01T07:10:25.000Z</Time>
            <Position>
              <LatitudeDegrees>42.428887076675891876220703125</LatitudeDegrees>
              <LongitudeDegrees>2.789761237800121307373046875</LongitudeDegrees>
            </Position>
            <AltitudeMeters>649.4000244140625</AltitudeMeters>
            <DistanceMeters>13204.767453476</DistanceMeters>
          </Trackpoint>
          <Trackpoint>
            <Time>2021-04-01T07:10:32.000Z</Time>
            <Position>
              <LatitudeDegrees>42.42882178165018558502197265625</LatitudeDegrees>
              <LongitudeDegrees>2.7898053266108036041259765625</LongitudeDegrees>
            </Position>
            <AltitudeMeters>649.79998779296875</AltitudeMeters>
            <DistanceMeters>13212.887651639</DistanceMeters>
          </Trackpoint>
          <Trackpoint>
            <Time>2021-04-01T07:10:33.000Z</Time>
            <Position>
              <LatitudeDegrees>42.42881306447088718414306640625</LatitudeDegrees>
              <LongitudeDegrees>2.7898120321333408355712890625</LongitudeDegrees>
            </Position>
            <AltitudeMeters>649.79998779296875</AltitudeMeters>
            <DistanceMeters>13214.003962773</DistanceMeters>
          </Trackpoint>
          <Trackpoint>
            <Time>2021-04-01T07:10:44.000Z</Time>
            <Position>
              <LatitudeDegrees>42.42873393930494785308837890625</LatitudeDegrees>
              <LongitudeDegrees>2.78994890861213207244873046875</LongitudeDegrees>
            </Position>
            <AltitudeMeters>649.20001220703125</AltitudeMeters>
            <DistanceMeters>13228.287081726</DistanceMeters>
          </Trackpoint>
          <Trackpoint>
            <Time>2021-04-01T07:10:51.000Z</Time>
            <Position>
              <LatitudeDegrees>42.42868884466588497161865234375</LatitudeDegrees>
              <LongitudeDegrees>2.79004253447055816650390625</LongitudeDegrees>
            </Position>
            <AltitudeMeters>648</AltitudeMeters>
            <DistanceMeters>13237.471795883</DistanceMeters>
          </Trackpoint>
          <Trackpoint>
            <Time>2021-04-01T07:10:52.000Z</Time>
            <Position>
              <LatitudeDegrees>42.4286802113056182861328125</LatitudeDegrees>
              <LongitudeDegrees>2.7900541014969348907470703125</LongitudeDegrees>
            </Position>
            <AltitudeMeters>647.79998779296875</AltitudeMeters>
            <DistanceMeters>13238.822379254</DistanceMeters>
          </Trackpoint>
          <Trackpoint>
            <Time>2021-04-01T07:10:59.000Z</Time>
            <Position>
              <LatitudeDegrees>42.42863134481012821197509765625</LatitudeDegrees>
              <LongitudeDegrees>2.7901419438421726226806640625</LongitudeDegrees>
            </Position>
            <AltitudeMeters>647.5999755859375</AltitudeMeters>
            <DistanceMeters>13247.858915165</DistanceMeters>
          </Trackpoint>
          <Trackpoint>
            <Time>2021-04-01T07:11:01.000Z</Time>
            <Position>
              <LatitudeDegrees>42.42861860431730747222900390625</LatitudeDegrees>
              <LongitudeDegrees>2.7901731245219707489013671875</LongitudeDegrees>
            </Position>
            <AltitudeMeters>648</AltitudeMeters>
            <DistanceMeters>13250.787835209</DistanceMeters>
          </Trackpoint>
          <Trackpoint>
            <Time>2021-04-01T07:11:07.000Z</Time>
            <Position>
              <LatitudeDegrees>42.4285905249416828155517578125</LatitudeDegrees>
              <LongitudeDegrees>2.79025602154433727264404296875</LongitudeDegrees>
            </Position>
            <AltitudeMeters>647</AltitudeMeters>
            <DistanceMeters>13258.281099873</DistanceMeters>
          </Trackpoint>
          <Trackpoint>
            <Time>2021-04-01T07:11:10.000Z</Time>
            <Position>
              <LatitudeDegrees>42.42856680415570735931396484375</LatitudeDegrees>
              <LongitudeDegrees>2.7903052233159542083740234375</LongitudeDegrees>
            </Position>
            <AltitudeMeters>646.5999755859375</AltitudeMeters>
            <DistanceMeters>13263.109728807</DistanceMeters>
          </Trackpoint>
          <Trackpoint>
            <Time>2021-04-01T07:11:15.000Z</Time>
            <Position>
              <LatitudeDegrees>42.4285455979406833648681640625</LatitudeDegrees>
              <LongitudeDegrees>2.79037437401711940765380859375</LongitudeDegrees>
            </Position>
            <AltitudeMeters>646</AltitudeMeters>
            <DistanceMeters>13269.261561898</DistanceMeters>
          </Trackpoint>
          <Trackpoint>
            <Time>2021-04-01T07:11:16.000Z</Time>
            <Position>
              <LatitudeDegrees>42.4285422451794147491455078125</LatitudeDegrees>
              <LongitudeDegrees>2.79038225300610065460205078125</LongitudeDegrees>
            </Position>
            <AltitudeMeters>646</AltitudeMeters>
            <DistanceMeters>13270.009802995</DistanceMeters>
          </Trackpoint>
          <Trackpoint>
            <Time>2021-04-01T07:11:18.000Z</Time>
            <Position>
              <LatitudeDegrees>42.42853076197206974029541015625</LatitudeDegrees>
              <LongitudeDegrees>2.7903970889747142791748046875</LongitudeDegrees>
            </Position>
            <AltitudeMeters>645.5999755859375</AltitudeMeters>
            <DistanceMeters>13271.777402058</DistanceMeters>
          </Trackpoint>
          <Trackpoint>
            <Time>2021-04-01T07:11:20.000Z</Time>
            <Position>
              <LatitudeDegrees>42.42852372117340564727783203125</LatitudeDegrees>
              <LongitudeDegrees>2.7904205583035945892333984375</LongitudeDegrees>
            </Position>
            <AltitudeMeters>645.4000244140625</AltitudeMeters>
            <DistanceMeters>13273.859333059</DistanceMeters>
          </Trackpoint>
          <Trackpoint>
            <Time>2021-04-01T07:11:22.000Z</Time>
            <Position>
              <LatitudeDegrees>42.42851399816572666168212890625</LatitudeDegrees>
              <LongitudeDegrees>2.79044528491795063018798828125</LongitudeDegrees>
            </Position>
            <AltitudeMeters>644.79998779296875</AltitudeMeters>
            <DistanceMeters>13276.159686249</DistanceMeters>
          </Trackpoint>
          <Trackpoint>
            <Time>2021-04-01T07:11:29.000Z</Time>
            <Position>
              <LatitudeDegrees>42.4284916184842586517333984375</LatitudeDegrees>
              <LongitudeDegrees>2.790529020130634307861328125</LongitudeDegrees>
            </Position>
            <AltitudeMeters>644.4000244140625</AltitudeMeters>
            <DistanceMeters>13283.476126173</DistanceMeters>
          </Trackpoint>
          <Trackpoint>
            <Time>2021-04-01T07:11:32.000Z</Time>
            <Position>
              <LatitudeDegrees>42.42849036119878292083740234375</LatitudeDegrees>
              <LongitudeDegrees>2.79057034291326999664306640625</LongitudeDegrees>
            </Position>
            <AltitudeMeters>643.79998779296875</AltitudeMeters>
            <DistanceMeters>13286.874576963</DistanceMeters>
          </Trackpoint>
          <Trackpoint>
            <Time>2021-04-01T07:11:40.000Z</Time>
            <Position>
              <LatitudeDegrees>42.42847980000078678131103515625</LatitudeDegrees>
              <LongitudeDegrees>2.79067226685583591461181640625</LongitudeDegrees>
            </Position>
            <AltitudeMeters>642.79998779296875</AltitudeMeters>
            <DistanceMeters>13295.330352816</DistanceMeters>
          </Trackpoint>
          <Trackpoint>
            <Time>2021-04-01T07:11:43.000Z</Time>
            <Position>
              <LatitudeDegrees>42.4284614436328411102294921875</LatitudeDegrees>
              <LongitudeDegrees>2.790718786418437957763671875</LongitudeDegrees>
            </Position>
            <AltitudeMeters>642.79998779296875</AltitudeMeters>
            <DistanceMeters>13299.664237794</DistanceMeters>
          </Trackpoint>
          <Trackpoint>
            <Time>2021-04-01T07:11:50.000Z</Time>
            <Position>
              <LatitudeDegrees>42.42844174616038799285888671875</LatitudeDegrees>
              <LongitudeDegrees>2.79082682915031909942626953125</LongitudeDegrees>
            </Position>
            <AltitudeMeters>642.79998779296875</AltitudeMeters>
            <DistanceMeters>13308.806578171</DistanceMeters>
          </Trackpoint>
          <Trackpoint>
            <Time>2021-04-01T07:11:55.000Z</Time>
            <Position>
              <LatitudeDegrees>42.42843403480947017669677734375</LatitudeDegrees>
              <LongitudeDegrees>2.79091064818203449249267578125</LongitudeDegrees>
            </Position>
            <AltitudeMeters>642.5999755859375</AltitudeMeters>
            <DistanceMeters>13315.745480649</DistanceMeters>
          </Trackpoint>
          <Trackpoint>
            <Time>2021-04-01T07:11:57.000Z</Time>
            <Position>
              <LatitudeDegrees>42.42842196486890316009521484375</LatitudeDegrees>
              <LongitudeDegrees>2.7909417450428009033203125</LongitudeDegrees>
            </Position>
            <AltitudeMeters>642.5999755859375</AltitudeMeters>
            <DistanceMeters>13318.630914842</DistanceMeters>
          </Trackpoint>
          <Trackpoint>
            <Time>2021-04-01T07:12:02.000Z</Time>
            <Position>
              <LatitudeDegrees>42.4284066259860992431640625</LatitudeDegrees>
              <LongitudeDegrees>2.7910341136157512664794921875</LongitudeDegrees>
            </Position>
            <AltitudeMeters>642.4000244140625</AltitudeMeters>
            <DistanceMeters>13326.40918664</DistanceMeters>
          </Trackpoint>
          <Trackpoint>
            <Time>2021-04-01T07:12:06.000Z</Time>
            <Position>
              <LatitudeDegrees>42.42839413695037364959716796875</LatitudeDegrees>
              <LongitudeDegrees>2.7910944633185863494873046875</LongitudeDegrees>
            </Position>
            <AltitudeMeters>641.5999755859375</AltitudeMeters>
            <DistanceMeters>13331.559073485</DistanceMeters>
          </Trackpoint>
          <Trackpoint>
            <Time>2021-04-01T07:12:08.000Z</Time>
            <Position>
              <LatitudeDegrees>42.428393550217151641845703125</LatitudeDegrees>
              <LongitudeDegrees>2.791126482188701629638671875</LongitudeDegrees>
            </Position>
            <AltitudeMeters>641.4000244140625</AltitudeMeters>
            <DistanceMeters>13334.190815994</DistanceMeters>
          </Trackpoint>
          <Trackpoint>
            <Time>2021-04-01T07:12:11.000Z</Time>
            <Position>
              <LatitudeDegrees>42.42838474921882152557373046875</LatitudeDegrees>
              <LongitudeDegrees>2.79116881079971790313720703125</LongitudeDegrees>
            </Position>
            <AltitudeMeters>641.4000244140625</AltitudeMeters>
            <DistanceMeters>13337.804330978</DistanceMeters>
          </Trackpoint>
          <Trackpoint>
            <Time>2021-04-01T07:12:19.000Z</Time>
            <Position>
              <LatitudeDegrees>42.4283065460622310638427734375</LatitudeDegrees>
              <LongitudeDegrees>2.79128246940672397613525390625</LongitudeDegrees>
            </Position>
            <AltitudeMeters>640.79998779296875</AltitudeMeters>
            <DistanceMeters>13350.569075369</DistanceMeters>
          </Trackpoint>
          <Trackpoint>
            <Time>2021-04-01T07:12:21.000Z</Time>
            <Position>
              <LatitudeDegrees>42.42828919552266597747802734375</LatitudeDegrees>
              <LongitudeDegrees>2.79130476526916027069091796875</LongitudeDegrees>
            </Position>
            <AltitudeMeters>640.5999755859375</AltitudeMeters>
            <DistanceMeters>13353.229823371</DistanceMeters>
          </Trackpoint>
          <Trackpoint>
            <Time>2021-04-01T07:12:22.000Z</Time>
            <Position>
              <LatitudeDegrees>42.4282746948301792144775390625</LatitudeDegrees>
              <LongitudeDegrees>2.791313230991363525390625</LongitudeDegrees>
            </Position>
            <AltitudeMeters>640.4000244140625</AltitudeMeters>
            <DistanceMeters>13354.984604288</DistanceMeters>
          </Trackpoint>
          <Trackpoint>
            <Time>2021-04-01T07:12:26.000Z</Time>
            <Position>
              <LatitudeDegrees>42.4282220564782619476318359375</LatitudeDegrees>
              <LongitudeDegrees>2.79135488905012607574462890625</LongitudeDegrees>
            </Position>
            <AltitudeMeters>640</AltitudeMeters>
            <DistanceMeters>13361.769538312</DistanceMeters>
          </Trackpoint>
          <Trackpoint>
            <Time>2021-04-01T07:12:31.000Z</Time>
            <Position>
              <LatitudeDegrees>42.4281761236488819122314453125</LatitudeDegrees>
              <LongitudeDegrees>2.79139562509953975677490234375</LongitudeDegrees>
            </Position>
            <AltitudeMeters>639.79998779296875</AltitudeMeters>
            <DistanceMeters>13367.88013289</DistanceMeters>
          </Trackpoint>
          <Trackpoint>
            <Time>2021-04-01T07:12:35.000Z</Time>
            <Position>
              <LatitudeDegrees>42.42814200930297374725341796875</LatitudeDegrees>
              <LongitudeDegrees>2.79142378829419612884521484375</LongitudeDegrees>
            </Position>
            <AltitudeMeters>639.5999755859375</AltitudeMeters>
            <DistanceMeters>13372.325108397</DistanceMeters>
          </Trackpoint>
          <Trackpoint>
            <Time>2021-04-01T07:12:41.000Z</Time>
            <Position>
              <LatitudeDegrees>42.42809456773102283477783203125</LatitudeDegrees>
              <LongitudeDegrees>2.79148380272090435028076171875</LongitudeDegrees>
            </Position>
            <AltitudeMeters>639.79998779296875</AltitudeMeters>
            <DistanceMeters>13379.549013973</DistanceMeters>
          </Trackpoint>
          <Trackpoint>
            <Time>2021-04-01T07:12:45.000Z</Time>
            <Position>
              <LatitudeDegrees>42.4280633032321929931640625</LatitudeDegrees>
              <LongitudeDegrees>2.79152981936931610107421875</LongitudeDegrees>
            </Position>
            <AltitudeMeters>639.5999755859375</AltitudeMeters>
            <DistanceMeters>13384.687490744</DistanceMeters>
          </Trackpoint>
          <Trackpoint>
            <Time>2021-04-01T07:12:46.000Z</Time>
            <Position>
              <LatitudeDegrees>42.42805450223386287689208984375</LatitudeDegrees>
              <LongitudeDegrees>2.79154079966247081756591796875</LongitudeDegrees>
            </Position>
            <AltitudeMeters>639.4000244140625</AltitudeMeters>
            <DistanceMeters>13386.017864745</DistanceMeters>
          </Trackpoint>
          <Trackpoint>
            <Time>2021-04-01T07:12:47.000Z</Time>
            <Position>
              <LatitudeDegrees>42.42804192937910556793212890625</LatitudeDegrees>
              <LongitudeDegrees>2.7915541268885135650634765625</LongitudeDegrees>
            </Position>
            <AltitudeMeters>639.20001220703125</AltitudeMeters>
            <DistanceMeters>13387.795651784</DistanceMeters>
          </Trackpoint>
          <Trackpoint>
            <Time>2021-04-01T07:12:50.000Z</Time>
            <Position>
              <LatitudeDegrees>42.42802969180047512054443359375</LatitudeDegrees>
              <LongitudeDegrees>2.79161489568650722503662109375</LongitudeDegrees>
            </Position>
            <AltitudeMeters>638.79998779296875</AltitudeMeters>
            <DistanceMeters>13392.970901221</DistanceMeters>
          </Trackpoint>
          <Trackpoint>
            <Time>2021-04-01T07:12:51.000Z</Time>
            <Position>
              <LatitudeDegrees>42.42802801541984081268310546875</LatitudeDegrees>
              <LongitudeDegrees>2.7916315756738185882568359375</LongitudeDegrees>
            </Position>
            <AltitudeMeters>638.5999755859375</AltitudeMeters>
            <DistanceMeters>13394.354511067</DistanceMeters>
          </Trackpoint>
          <Trackpoint>
            <Time>2021-04-01T07:12:53.000Z</Time>
            <Position>
              <LatitudeDegrees>42.42800722829997539520263671875</LatitudeDegrees>
              <LongitudeDegrees>2.7916630916297435760498046875</LongitudeDegrees>
            </Position>
            <AltitudeMeters>638.20001220703125</AltitudeMeters>
            <DistanceMeters>13397.82786422</DistanceMeters>
          </Trackpoint>
          <Trackpoint>
            <Time>2021-04-01T07:12:55.000Z</Time>
            <Position>
              <LatitudeDegrees>42.42798727937042713165283203125</LatitudeDegrees>
              <LongitudeDegrees>2.79168714769184589385986328125</LongitudeDegrees>
            </Position>
            <AltitudeMeters>637.5999755859375</AltitudeMeters>
            <DistanceMeters>13400.801152776</DistanceMeters>
          </Trackpoint>
          <Trackpoint>
            <Time>2021-04-01T07:12:57.000Z</Time>
            <Position>
              <LatitudeDegrees>42.42797051556408405303955078125</LatitudeDegrees>
              <LongitudeDegrees>2.791705839335918426513671875</LongitudeDegrees>
            </Position>
            <AltitudeMeters>637.4000244140625</AltitudeMeters>
            <DistanceMeters>13403.216402118</DistanceMeters>
          </Trackpoint>
          <Trackpoint>
            <Time>2021-04-01T07:12:59.000Z</Time>
            <Position>
              <LatitudeDegrees>42.42795660160481929779052734375</LatitudeDegrees>
              <LongitudeDegrees>2.79173240996897220611572265625</LongitudeDegrees>
            </Position>
            <AltitudeMeters>637</AltitudeMeters>
            <DistanceMeters>13405.894065408</DistanceMeters>
          </Trackpoint>
          <Trackpoint>
            <Time>2021-04-01T07:13:01.000Z</Time>
            <Position>
              <LatitudeDegrees>42.42794536985456943511962890625</LatitudeDegrees>
              <LongitudeDegrees>2.7917676977813243865966796875</LongitudeDegrees>
            </Position>
            <AltitudeMeters>636.79998779296875</AltitudeMeters>
            <DistanceMeters>13409.051470101</DistanceMeters>
          </Trackpoint>
          <Trackpoint>
            <Time>2021-04-01T07:13:05.000Z</Time>
            <Position>
              <LatitudeDegrees>42.4279172904789447784423828125</LatitudeDegrees>
              <LongitudeDegrees>2.79181815683841705322265625</LongitudeDegrees>
            </Position>
            <AltitudeMeters>636.5999755859375</AltitudeMeters>
            <DistanceMeters>13414.242399508</DistanceMeters>
          </Trackpoint>
          <Trackpoint>
            <Time>2021-04-01T07:13:11.000Z</Time>
            <Position>
              <LatitudeDegrees>42.42787487804889678955078125</LatitudeDegrees>
              <LongitudeDegrees>2.79189518652856349945068359375</LongitudeDegrees>
            </Position>
            <AltitudeMeters>635.79998779296875</AltitudeMeters>
            <DistanceMeters>13422.138198883</DistanceMeters>
          </Trackpoint>
          <Trackpoint>
            <Time>2021-04-01T07:13:14.000Z</Time>
            <Position>
              <LatitudeDegrees>42.42785132490098476409912109375</LatitudeDegrees>
              <LongitudeDegrees>2.79192787595093250274658203125</LongitudeDegrees>
            </Position>
            <AltitudeMeters>635.4000244140625</AltitudeMeters>
            <DistanceMeters>13425.892656145</DistanceMeters>
          </Trackpoint>
          <Trackpoint>
            <Time>2021-04-01T07:13:15.000Z</Time>
            <Position>
              <LatitudeDegrees>42.4278435297310352325439453125</LatitudeDegrees>
              <LongitudeDegrees>2.79193885624408721923828125</LongitudeDegrees>
            </Position>
            <AltitudeMeters>635.4000244140625</AltitudeMeters>
            <DistanceMeters>13427.146144598</DistanceMeters>
          </Trackpoint>
          <Trackpoint>
            <Time>2021-04-01T07:13:16.000Z</Time>
            <Position>
              <LatitudeDegrees>42.42783506400883197784423828125</LatitudeDegrees>
              <LongitudeDegrees>2.79195017181336879730224609375</LongitudeDegrees>
            </Position>
            <AltitudeMeters>635.20001220703125</AltitudeMeters>
            <DistanceMeters>13428.469713572</DistanceMeters>
          </Trackpoint>
          <Trackpoint>
            <Time>2021-04-01T07:13:18.000Z</Time>
            <Position>
              <LatitudeDegrees>42.42782081477344036102294921875</LatitudeDegrees>
              <LongitudeDegrees>2.7919698692858219146728515625</LongitudeDegrees>
            </Position>
            <AltitudeMeters>635</AltitudeMeters>
            <DistanceMeters>13430.734461554</DistanceMeters>
          </Trackpoint>
          <Trackpoint>
            <Time>2021-04-01T07:13:21.000Z</Time>
            <Position>
              <LatitudeDegrees>42.427792064845561981201171875</LatitudeDegrees>
              <LongitudeDegrees>2.79200750403106212615966796875</LongitudeDegrees>
            </Position>
            <AltitudeMeters>635</AltitudeMeters>
            <DistanceMeters>13435.183498254</DistanceMeters>
          </Trackpoint>
          <Trackpoint>
            <Time>2021-04-01T07:13:25.000Z</Time>
            <Position>
              <LatitudeDegrees>42.42775945924222469329833984375</LatitudeDegrees>
              <LongitudeDegrees>2.79206466861069202423095703125</LongitudeDegrees>
            </Position>
            <AltitudeMeters>635</AltitudeMeters>
            <DistanceMeters>13441.117914665</DistanceMeters>
          </Trackpoint>
          <Trackpoint>
            <Time>2021-04-01T07:13:29.000Z</Time>
            <Position>
              <LatitudeDegrees>42.42773582227528095245361328125</LatitudeDegrees>
              <LongitudeDegrees>2.79213004745543003082275390625</LongitudeDegrees>
            </Position>
            <AltitudeMeters>635.20001220703125</AltitudeMeters>
            <DistanceMeters>13447.097806195</DistanceMeters>
          </Trackpoint>
          <Trackpoint>
            <Time>2021-04-01T07:13:31.000Z</Time>
            <Position>
              <LatitudeDegrees>42.427723668515682220458984375</LatitudeDegrees>
              <LongitudeDegrees>2.7921619825065135955810546875</LongitudeDegrees>
            </Position>
            <AltitudeMeters>634.79998779296875</AltitudeMeters>
            <DistanceMeters>13450.048228825</DistanceMeters>
          </Trackpoint>
          <Trackpoint>
            <Time>2021-04-01T07:13:32.000Z</Time>
            <Position>
              <LatitudeDegrees>42.42771570570766925811767578125</LatitudeDegrees>
              <LongitudeDegrees>2.792177237570285797119140625</LongitudeDegrees>
            </Position>
            <AltitudeMeters>634.4000244140625</AltitudeMeters>
            <DistanceMeters>13451.580488553</DistanceMeters>
          </Trackpoint>
          <Trackpoint>
            <Time>2021-04-01T07:13:35.000Z</Time>
            <Position>
              <LatitudeDegrees>42.42770514450967311859130859375</LatitudeDegrees>
              <LongitudeDegrees>2.792227528989315032958984375</LongitudeDegrees>
            </Position>
            <AltitudeMeters>633.5999755859375</AltitudeMeters>
            <DistanceMeters>13455.876705057</DistanceMeters>
          </Trackpoint>
          <Trackpoint>
            <Time>2021-04-01T07:13:40.000Z</Time>
            <Position>
              <LatitudeDegrees>42.4276799149811267852783203125</LatitudeDegrees>
              <LongitudeDegrees>2.79230254702270030975341796875</LongitudeDegrees>
            </Position>
            <AltitudeMeters>633</AltitudeMeters>
            <DistanceMeters>13462.64965038</DistanceMeters>
          </Trackpoint>
          <Trackpoint>
            <Time>2021-04-01T07:13:41.000Z</Time>
            <Position>
              <LatitudeDegrees>42.42767765186727046966552734375</LatitudeDegrees>
              <LongitudeDegrees>2.7923177182674407958984375</LongitudeDegrees>
            </Position>
            <AltitudeMeters>632.79998779296875</AltitudeMeters>
            <DistanceMeters>13463.924567538</DistanceMeters>
          </Trackpoint>
          <Trackpoint>
            <Time>2021-04-01T07:13:45.000Z</Time>
            <Position>
              <LatitudeDegrees>42.42766474373638629913330078125</LatitudeDegrees>
              <LongitudeDegrees>2.79237748123705387115478515625</LongitudeDegrees>
            </Position>
            <AltitudeMeters>632.5999755859375</AltitudeMeters>
            <DistanceMeters>13469.040147811</DistanceMeters>
          </Trackpoint>
          <Trackpoint>
            <Time>2021-04-01T07:13:47.000Z</Time>
            <Position>
              <LatitudeDegrees>42.4276537634432315826416015625</LatitudeDegrees>
              <LongitudeDegrees>2.79240648262202739715576171875</LongitudeDegrees>
            </Position>
            <AltitudeMeters>632.4000244140625</AltitudeMeters>
            <DistanceMeters>13471.717811101</DistanceMeters>
          </Trackpoint>
          <Trackpoint>
            <Time>2021-04-01T07:13:51.000Z</Time>
            <Position>
              <LatitudeDegrees>42.4276292882859706878662109375</LatitudeDegrees>
              <LongitudeDegrees>2.7924566902220249176025390625</LongitudeDegrees>
            </Position>
            <AltitudeMeters>631.79998779296875</AltitudeMeters>
            <DistanceMeters>13476.661027348</DistanceMeters>
          </Trackpoint>
          <Trackpoint>
            <Time>2021-04-01T07:13:54.000Z</Time>
            <Position>
              <LatitudeDegrees>42.42759215645492076873779296875</LatitudeDegrees>
              <LongitudeDegrees>2.79250354506075382232666015625</LongitudeDegrees>
            </Position>
            <AltitudeMeters>631.5999755859375</AltitudeMeters>
            <DistanceMeters>13482.308525024</DistanceMeters>
          </Trackpoint>
          <Trackpoint>
            <Time>2021-04-01T07:13:55.000Z</Time>
            <Position>
              <LatitudeDegrees>42.42757807485759258270263671875</LatitudeDegrees>
              <LongitudeDegrees>2.79250882565975189208984375</LongitudeDegrees>
            </Position>
            <AltitudeMeters>631.5999755859375</AltitudeMeters>
            <DistanceMeters>13483.937893759</DistanceMeters>
          </Trackpoint>
          <Trackpoint>
            <Time>2021-04-01T07:13:56.000Z</Time>
            <Position>
              <LatitudeDegrees>42.42756349034607410430908203125</LatitudeDegrees>
              <LongitudeDegrees>2.79251058585941791534423828125</LongitudeDegrees>
            </Position>
            <AltitudeMeters>631.4000244140625</AltitudeMeters>
            <DistanceMeters>13485.567262494</DistanceMeters>
          </Trackpoint>
          <Trackpoint>
            <Time>2021-04-01T07:13:57.000Z</Time>
            <Position>
              <LatitudeDegrees>42.42754957638680934906005859375</LatitudeDegrees>
              <LongitudeDegrees>2.79251058585941791534423828125</LongitudeDegrees>
            </Position>
            <AltitudeMeters>631.20001220703125</AltitudeMeters>
            <DistanceMeters>13487.117101303</DistanceMeters>
          </Trackpoint>
          <Trackpoint>
            <Time>2021-04-01T07:14:01.000Z</Time>
            <Position>
              <LatitudeDegrees>42.42749878205358982086181640625</LatitudeDegrees>
              <LongitudeDegrees>2.79246398247778415679931640625</LongitudeDegrees>
            </Position>
            <AltitudeMeters>630.79998779296875</AltitudeMeters>
            <DistanceMeters>13493.945813828</DistanceMeters>
          </Trackpoint>
          <Trackpoint>
            <Time>2021-04-01T07:14:04.000Z</Time>
            <Position>
              <LatitudeDegrees>42.42748570628464221954345703125</LatitudeDegrees>
              <LongitudeDegrees>2.7923946641385555267333984375</LongitudeDegrees>
            </Position>
            <AltitudeMeters>630.4000244140625</AltitudeMeters>
            <DistanceMeters>13499.824427827</DistanceMeters>
          </Trackpoint>
          <Trackpoint>
            <Time>2021-04-01T07:14:05.000Z</Time>
            <Position>
              <LatitudeDegrees>42.427486293017864227294921875</LatitudeDegrees>
              <LongitudeDegrees>2.79238385148346424102783203125</LongitudeDegrees>
            </Position>
            <AltitudeMeters>630.20001220703125</AltitudeMeters>
            <DistanceMeters>13500.715857425</DistanceMeters>
          </Trackpoint>
          <Trackpoint>
            <Time>2021-04-01T07:14:08.000Z</Time>
            <Position>
              <LatitudeDegrees>42.42748671211302280426025390625</LatitudeDegrees>
              <LongitudeDegrees>2.792334817349910736083984375</LongitudeDegrees>
            </Position>
            <AltitudeMeters>629.5999755859375</AltitudeMeters>
            <DistanceMeters>13504.745259049</DistanceMeters>
          </Trackpoint>
          <Trackpoint>
            <Time>2021-04-01T07:14:11.000Z</Time>
            <Position>
              <LatitudeDegrees>42.42748922668397426605224609375</LatitudeDegrees>
              <LongitudeDegrees>2.792277820408344268798828125</LongitudeDegrees>
            </Position>
            <AltitudeMeters>629</AltitudeMeters>
            <DistanceMeters>13509.436345948</DistanceMeters>
          </Trackpoint>
          <Trackpoint>
            <Time>2021-04-01T07:14:17.000Z</Time>
            <Position>
              <LatitudeDegrees>42.4274933338165283203125</LatitudeDegrees>
              <LongitudeDegrees>2.7921586297452449798583984375</LongitudeDegrees>
            </Position>
            <AltitudeMeters>628.4000244140625</AltitudeMeters>
            <DistanceMeters>13519.239308434</DistanceMeters>
          </Trackpoint>
          <Trackpoint>
            <Time>2021-04-01T07:14:19.000Z</Time>
            <Position>
              <LatitudeDegrees>42.4274911545217037200927734375</LatitudeDegrees>
              <LongitudeDegrees>2.792120911180973052978515625</LongitudeDegrees>
            </Position>
            <AltitudeMeters>628</AltitudeMeters>
            <DistanceMeters>13522.349165645</DistanceMeters>
          </Trackpoint>
          <Trackpoint>
            <Time>2021-04-01T07:14:21.000Z</Time>
            <Position>
              <LatitudeDegrees>42.427492998540401458740234375</LatitudeDegrees>
              <LongitudeDegrees>2.79209098778665065765380859375</LongitudeDegrees>
            </Position>
            <AltitudeMeters>627.79998779296875</AltitudeMeters>
            <DistanceMeters>13524.814371812</DistanceMeters>
          </Trackpoint>
          <Trackpoint>
            <Time>2021-04-01T07:14:27.000Z</Time>
            <Position>
              <LatitudeDegrees>42.42750615812838077545166015625</LatitudeDegrees>
              <LongitudeDegrees>2.79198487289249897003173828125</LongitudeDegrees>
            </Position>
            <AltitudeMeters>626.79998779296875</AltitudeMeters>
            <DistanceMeters>13533.654410361</DistanceMeters>
          </Trackpoint>
          <Trackpoint>
            <Time>2021-04-01T07:14:36.000Z</Time>
            <Position>
              <LatitudeDegrees>42.42753130383789539337158203125</LatitudeDegrees>
              <LongitudeDegrees>2.7918511815369129180908203125</LongitudeDegrees>
            </Position>
            <AltitudeMeters>625.79998779296875</AltitudeMeters>
            <DistanceMeters>13544.988512332</DistanceMeters>
          </Trackpoint>
          <Trackpoint>
            <Time>2021-04-01T07:14:39.000Z</Time>
            <Position>
              <LatitudeDegrees>42.4275461398065090179443359375</LatitudeDegrees>
              <LongitudeDegrees>2.791807763278484344482421875</LongitudeDegrees>
            </Position>
            <AltitudeMeters>625.79998779296875</AltitudeMeters>
            <DistanceMeters>13548.920368239</DistanceMeters>
          </Trackpoint>
          <Trackpoint>
            <Time>2021-04-01T07:14:45.000Z</Time>
            <Position>
              <LatitudeDegrees>42.427573464810848236083984375</LatitudeDegrees>
              <LongitudeDegrees>2.79171447269618511199951171875</LongitudeDegrees>
            </Position>
            <AltitudeMeters>624.79998779296875</AltitudeMeters>
            <DistanceMeters>13557.166365791</DistanceMeters>
          </Trackpoint>
          <Trackpoint>
            <Time>2021-04-01T07:14:46.000Z</Time>
            <Position>
              <LatitudeDegrees>42.42757790721952915191650390625</LatitudeDegrees>
              <LongitudeDegrees>2.791699469089508056640625</LongitudeDegrees>
            </Position>
            <AltitudeMeters>624.5999755859375</AltitudeMeters>
            <DistanceMeters>13558.489934765</DistanceMeters>
          </Trackpoint>
          <Trackpoint>
            <Time>2021-04-01T07:14:49.000Z</Time>
            <Position>
              <LatitudeDegrees>42.427598275244235992431640625</LatitudeDegrees>
              <LongitudeDegrees>2.7916624210774898529052734375</LongitudeDegrees>
            </Position>
            <AltitudeMeters>624.20001220703125</AltitudeMeters>
            <DistanceMeters>13562.286249031</DistanceMeters>
          </Trackpoint>
          <Trackpoint>
            <Time>2021-04-01T07:14:58.000Z</Time>
            <Position>
              <LatitudeDegrees>42.427673377096652984619140625</LatitudeDegrees>
              <LongitudeDegrees>2.7915651910006999969482421875</LongitudeDegrees>
            </Position>
            <AltitudeMeters>623.79998779296875</AltitudeMeters>
            <DistanceMeters>13573.848309906</DistanceMeters>
          </Trackpoint>
          <Trackpoint>
            <Time>2021-04-01T07:14:59.000Z</Time>
            <Position>
              <LatitudeDegrees>42.427680753171443939208984375</LatitudeDegrees>
              <LongitudeDegrees>2.79155370779335498809814453125</LongitudeDegrees>
            </Position>
            <AltitudeMeters>623.5999755859375</AltitudeMeters>
            <DistanceMeters>13575.09819119</DistanceMeters>
          </Trackpoint>
          <Trackpoint>
            <Time>2021-04-01T07:15:08.000Z</Time>
            <Position>
              <LatitudeDegrees>42.4277293682098388671875</LatitudeDegrees>
              <LongitudeDegrees>2.7914294041693210601806640625</LongitudeDegrees>
            </Position>
            <AltitudeMeters>622.79998779296875</AltitudeMeters>
            <DistanceMeters>13586.65556506</DistanceMeters>
          </Trackpoint>
          <Trackpoint>
            <Time>2021-04-01T07:15:13.000Z</Time>
            <Position>
              <LatitudeDegrees>42.4277694337069988250732421875</LatitudeDegrees>
              <LongitudeDegrees>2.7913667075335979461669921875</LongitudeDegrees>
            </Position>
            <AltitudeMeters>622.5999755859375</AltitudeMeters>
            <DistanceMeters>13593.468390679</DistanceMeters>
          </Trackpoint>
          <Trackpoint>
            <Time>2021-04-01T07:15:16.000Z</Time>
            <Position>
              <LatitudeDegrees>42.4277870357036590576171875</LatitudeDegrees>
              <LongitudeDegrees>2.79131792485713958740234375</LongitudeDegrees>
            </Position>
            <AltitudeMeters>622</AltitudeMeters>
            <DistanceMeters>13597.929588779</DistanceMeters>
          </Trackpoint>
          <Trackpoint>
            <Time>2021-04-01T07:15:20.000Z</Time>
            <Position>
              <LatitudeDegrees>42.42780438624322414398193359375</LatitudeDegrees>
              <LongitudeDegrees>2.79124391265213489532470703125</LongitudeDegrees>
            </Position>
            <AltitudeMeters>621.5999755859375</AltitudeMeters>
            <DistanceMeters>13604.309130654</DistanceMeters>
          </Trackpoint>
          <Trackpoint>
            <Time>2021-04-01T07:15:24.000Z</Time>
            <Position>
              <LatitudeDegrees>42.427843026816844940185546875</LatitudeDegrees>
              <LongitudeDegrees>2.79118356294929981231689453125</LongitudeDegrees>
            </Position>
            <AltitudeMeters>621.20001220703125</AltitudeMeters>
            <DistanceMeters>13610.872168414</DistanceMeters>
          </Trackpoint>
          <Trackpoint>
            <Time>2021-04-01T07:15:33.000Z</Time>
            <Position>
              <LatitudeDegrees>42.42790731601417064666748046875</LatitudeDegrees>
              <LongitudeDegrees>2.79105146415531635284423828125</LongitudeDegrees>
            </Position>
            <AltitudeMeters>620.79998779296875</AltitudeMeters>
            <DistanceMeters>13623.87104492</DistanceMeters>
          </Trackpoint>
          <Trackpoint>
            <Time>2021-04-01T07:15:38.000Z</Time>
            <Position>
              <LatitudeDegrees>42.42793765850365161895751953125</LatitudeDegrees>
              <LongitudeDegrees>2.79098206199705600738525390625</LongitudeDegrees>
            </Position>
            <AltitudeMeters>620.5999755859375</AltitudeMeters>
            <DistanceMeters>13630.497753133</DistanceMeters>
          </Trackpoint>
          <Trackpoint>
            <Time>2021-04-01T07:15:39.000Z</Time>
            <Position>
              <LatitudeDegrees>42.42794201709330081939697265625</LatitudeDegrees>
              <LongitudeDegrees>2.790965549647808074951171875</LongitudeDegrees>
            </Position>
            <AltitudeMeters>620.4000244140625</AltitudeMeters>
            <DistanceMeters>13631.938904611</DistanceMeters>
          </Trackpoint>
          <Trackpoint>
            <Time>2021-04-01T07:15:40.000Z</Time>
            <Position>
              <LatitudeDegrees>42.4279427714645862579345703125</LatitudeDegrees>
              <LongitudeDegrees>2.7909482829272747039794921875</LongitudeDegrees>
            </Position>
            <AltitudeMeters>620.20001220703125</AltitudeMeters>
            <DistanceMeters>13633.361134242</DistanceMeters>
          </Trackpoint>
          <Trackpoint>
            <Time>2021-04-01T07:15:41.000Z</Time>
            <Position>
              <LatitudeDegrees>42.427942939102649688720703125</LatitudeDegrees>
              <LongitudeDegrees>2.79092875309288501739501953125</LongitudeDegrees>
            </Position>
            <AltitudeMeters>620</AltitudeMeters>
            <DistanceMeters>13634.965369819</DistanceMeters>
          </Trackpoint>
          <Trackpoint>
            <Time>2021-04-01T07:15:42.000Z</Time>
            <Position>
              <LatitudeDegrees>42.42794838733971118927001953125</LatitudeDegrees>
              <LongitudeDegrees>2.790913917124271392822265625</LongitudeDegrees>
            </Position>
            <AltitudeMeters>619.5999755859375</AltitudeMeters>
            <DistanceMeters>13636.322622778</DistanceMeters>
          </Trackpoint>
          <Trackpoint>
            <Time>2021-04-01T07:15:43.000Z</Time>
            <Position>
              <LatitudeDegrees>42.42795341648161411285400390625</LatitudeDegrees>
              <LongitudeDegrees>2.79089807532727718353271484375</LongitudeDegrees>
            </Position>
            <AltitudeMeters>619.20001220703125</AltitudeMeters>
            <DistanceMeters>13637.738488934</DistanceMeters>
          </Trackpoint>
          <Trackpoint>
            <Time>2021-04-01T07:15:46.000Z</Time>
            <Position>
              <LatitudeDegrees>42.4279568530619144439697265625</LatitudeDegrees>
              <LongitudeDegrees>2.79085381887853145599365234375</LongitudeDegrees>
            </Position>
            <AltitudeMeters>618.5999755859375</AltitudeMeters>
            <DistanceMeters>13641.394239628</DistanceMeters>
          </Trackpoint>
          <Trackpoint>
            <Time>2021-04-01T07:15:49.000Z</Time>
            <Position>
              <LatitudeDegrees>42.42796213366091251373291015625</LatitudeDegrees>
              <LongitudeDegrees>2.79081375338137149810791015625</LongitudeDegrees>
            </Position>
            <AltitudeMeters>618.5999755859375</AltitudeMeters>
            <DistanceMeters>13644.737775875</DistanceMeters>
          </Trackpoint>
          <Trackpoint>
            <Time>2021-04-01T07:15:53.000Z</Time>
            <Position>
              <LatitudeDegrees>42.42797143757343292236328125</LatitudeDegrees>
              <LongitudeDegrees>2.7907548286020755767822265625</LongitudeDegrees>
            </Position>
            <AltitudeMeters>618</AltitudeMeters>
            <DistanceMeters>13649.688293774</DistanceMeters>
          </Trackpoint>
          <Trackpoint>
            <Time>2021-04-01T07:15:54.000Z</Time>
            <Position>
              <LatitudeDegrees>42.42797269485890865325927734375</LatitudeDegrees>
              <LongitudeDegrees>2.790742926299571990966796875</LongitudeDegrees>
            </Position>
            <AltitudeMeters>618</AltitudeMeters>
            <DistanceMeters>13650.671257751</DistanceMeters>
          </Trackpoint>
          <Trackpoint>
            <Time>2021-04-01T07:15:55.000Z</Time>
            <Position>
              <LatitudeDegrees>42.42797303013503551483154296875</LatitudeDegrees>
              <LongitudeDegrees>2.790723480284214019775390625</LongitudeDegrees>
            </Position>
            <AltitudeMeters>617.79998779296875</AltitudeMeters>
            <DistanceMeters>13652.272676406</DistanceMeters>
          </Trackpoint>
          <Trackpoint>
            <Time>2021-04-01T07:15:59.000Z</Time>
            <Position>
              <LatitudeDegrees>42.4279749579727649688720703125</LatitudeDegrees>
              <LongitudeDegrees>2.79065416194498538970947265625</LongitudeDegrees>
            </Position>
            <AltitudeMeters>617.5999755859375</AltitudeMeters>
            <DistanceMeters>13657.97269527</DistanceMeters>
          </Trackpoint>
          <Trackpoint>
            <Time>2021-04-01T07:16:00.000Z</Time>
            <Position>
              <LatitudeDegrees>42.4279736168682575225830078125</LatitudeDegrees>
              <LongitudeDegrees>2.79063127934932708740234375</LongitudeDegrees>
            </Position>
            <AltitudeMeters>617.5999755859375</AltitudeMeters>
            <DistanceMeters>13659.858921693</DistanceMeters>
          </Trackpoint>
          <Trackpoint>
            <Time>2021-04-01T07:16:05.000Z</Time>
            <Position>
              <LatitudeDegrees>42.42797403596341609954833984375</LatitudeDegrees>
              <LongitudeDegrees>2.79053899459540843963623046875</LongitudeDegrees>
            </Position>
            <AltitudeMeters>617</AltitudeMeters>
            <DistanceMeters>13667.440838775</DistanceMeters>
          </Trackpoint>
          <Trackpoint>
            <Time>2021-04-01T07:16:07.000Z</Time>
            <Position>
              <LatitudeDegrees>42.42797336541116237640380859375</LatitudeDegrees>
              <LongitudeDegrees>2.790507562458515167236328125</LongitudeDegrees>
            </Position>
            <AltitudeMeters>616.4000244140625</AltitudeMeters>
            <DistanceMeters>13670.024097665</DistanceMeters>
          </Trackpoint>
          <Trackpoint>
            <Time>2021-04-01T07:16:11.000Z</Time>
            <Position>
              <LatitudeDegrees>42.42797604762017726898193359375</LatitudeDegrees>
              <LongitudeDegrees>2.79044528491795063018798828125</LongitudeDegrees>
            </Position>
            <AltitudeMeters>616.20001220703125</AltitudeMeters>
            <DistanceMeters>13675.150258261</DistanceMeters>
          </Trackpoint>
          <Trackpoint>
            <Time>2021-04-01T07:16:12.000Z</Time>
            <Position>
              <LatitudeDegrees>42.42797856219112873077392578125</LatitudeDegrees>
              <LongitudeDegrees>2.790433466434478759765625</LongitudeDegrees>
            </Position>
            <AltitudeMeters>616.4000244140625</AltitudeMeters>
            <DistanceMeters>13676.16040609</DistanceMeters>
          </Trackpoint>
          <Trackpoint>
            <Time>2021-04-01T07:16:17.000Z</Time>
            <Position>
              <LatitudeDegrees>42.42796565406024456024169921875</LatitudeDegrees>
              <LongitudeDegrees>2.79035744257271289825439453125</LongitudeDegrees>
            </Position>
            <AltitudeMeters>616</AltitudeMeters>
            <DistanceMeters>13682.569603992</DistanceMeters>
          </Trackpoint>
          <Trackpoint>
            <Time>2021-04-01T07:16:19.000Z</Time>
            <Position>
              <LatitudeDegrees>42.42796850390732288360595703125</LatitudeDegrees>
              <LongitudeDegrees>2.79032156802713871002197265625</LongitudeDegrees>
            </Position>
            <AltitudeMeters>615.5999755859375</AltitudeMeters>
            <DistanceMeters>13685.533767345</DistanceMeters>
          </Trackpoint>
          <Trackpoint>
            <Time>2021-04-01T07:16:29.000Z</Time>
            <Position>
              <LatitudeDegrees>42.4279863573610782623291015625</LatitudeDegrees>
              <LongitudeDegrees>2.79016616754233837127685546875</LongitudeDegrees>
            </Position>
            <AltitudeMeters>615.20001220703125</AltitudeMeters>
            <DistanceMeters>13698.45425585</DistanceMeters>
          </Trackpoint>
          <Trackpoint>
            <Time>2021-04-01T07:16:32.000Z</Time>
            <Position>
              <LatitudeDegrees>42.42799222469329833984375</LatitudeDegrees>
              <LongitudeDegrees>2.7901184745132923126220703125</LongitudeDegrees>
            </Position>
            <AltitudeMeters>614.79998779296875</AltitudeMeters>
            <DistanceMeters>13702.427236296</DistanceMeters>
          </Trackpoint>
          <Trackpoint>
            <Time>2021-04-01T07:16:40.000Z</Time>
            <Position>
              <LatitudeDegrees>42.42800471372902393341064453125</LatitudeDegrees>
              <LongitudeDegrees>2.78999827802181243896484375</LongitudeDegrees>
            </Position>
            <AltitudeMeters>614</AltitudeMeters>
            <DistanceMeters>13712.399156964</DistanceMeters>
          </Trackpoint>
          <Trackpoint>
            <Time>2021-04-01T07:16:41.000Z</Time>
            <Position>
              <LatitudeDegrees>42.42800362408161163330078125</LatitudeDegrees>
              <LongitudeDegrees>2.78998310677707195281982421875</LongitudeDegrees>
            </Position>
            <AltitudeMeters>613.79998779296875</AltitudeMeters>
            <DistanceMeters>13713.649038248</DistanceMeters>
          </Trackpoint>
          <Trackpoint>
            <Time>2021-04-01T07:16:42.000Z</Time>
            <Position>
              <LatitudeDegrees>42.428005300462245941162109375</LatitudeDegrees>
              <LongitudeDegrees>2.789967097342014312744140625</LongitudeDegrees>
            </Position>
            <AltitudeMeters>613.79998779296875</AltitudeMeters>
            <DistanceMeters>13714.976014098</DistanceMeters>
          </Trackpoint>
          <Trackpoint>
            <Time>2021-04-01T07:16:43.000Z</Time>
            <Position>
              <LatitudeDegrees>42.42800689302384853363037109375</LatitudeDegrees>
              <LongitudeDegrees>2.7899521775543689727783203125</LongitudeDegrees>
            </Position>
            <AltitudeMeters>613.4000244140625</AltitudeMeters>
            <DistanceMeters>13716.211361385</DistanceMeters>
          </Trackpoint>
          <Trackpoint>
            <Time>2021-04-01T07:16:47.000Z</Time>
            <Position>
              <LatitudeDegrees>42.42801225744187831878662109375</LatitudeDegrees>
              <LongitudeDegrees>2.7898898161947727203369140625</LongitudeDegrees>
            </Position>
            <AltitudeMeters>613</AltitudeMeters>
            <DistanceMeters>13721.369132726</DistanceMeters>
          </Trackpoint>
          <Trackpoint>
            <Time>2021-04-01T07:16:50.000Z</Time>
            <Position>
              <LatitudeDegrees>42.428020052611827850341796875</LatitudeDegrees>
              <LongitudeDegrees>2.78984539210796356201171875</LongitudeDegrees>
            </Position>
            <AltitudeMeters>612.5999755859375</AltitudeMeters>
            <DistanceMeters>13725.11998051</DistanceMeters>
          </Trackpoint>
          <Trackpoint>
            <Time>2021-04-01T07:16:54.000Z</Time>
            <Position>
              <LatitudeDegrees>42.4280192144215106964111328125</LatitudeDegrees>
              <LongitudeDegrees>2.78977590613067150115966796875</LongitudeDegrees>
            </Position>
            <AltitudeMeters>612.5999755859375</AltitudeMeters>
            <DistanceMeters>13730.829496773</DistanceMeters>
          </Trackpoint>
          <Trackpoint>
            <Time>2021-04-01T07:17:03.000Z</Time>
            <Position>
              <LatitudeDegrees>42.4280289374291896820068359375</LatitudeDegrees>
              <LongitudeDegrees>2.78963659889996051788330078125</LongitudeDegrees>
            </Position>
            <AltitudeMeters>612.20001220703125</AltitudeMeters>
            <DistanceMeters>13742.324980177</DistanceMeters>
          </Trackpoint>
          <Trackpoint>
            <Time>2021-04-01T07:17:08.000Z</Time>
            <Position>
              <LatitudeDegrees>42.42803924717009067535400390625</LatitudeDegrees>
              <LongitudeDegrees>2.7895609103143215179443359375</LongitudeDegrees>
            </Position>
            <AltitudeMeters>611.5999755859375</AltitudeMeters>
            <DistanceMeters>13748.647649583</DistanceMeters>
          </Trackpoint>
          <Trackpoint>
            <Time>2021-04-01T07:17:15.000Z</Time>
            <Position>
              <LatitudeDegrees>42.428048215806484222412109375</LatitudeDegrees>
              <LongitudeDegrees>2.78944951482117176055908203125</LongitudeDegrees>
            </Position>
            <AltitudeMeters>611.4000244140625</AltitudeMeters>
            <DistanceMeters>13757.853477488</DistanceMeters>
          </Trackpoint>
          <Trackpoint>
            <Time>2021-04-01T07:17:18.000Z</Time>
            <Position>
              <LatitudeDegrees>42.4280537478625774383544921875</LatitudeDegrees>
              <LongitudeDegrees>2.789401821792125701904296875</LongitudeDegrees>
            </Position>
            <AltitudeMeters>611</AltitudeMeters>
            <DistanceMeters>13761.819633457</DistanceMeters>
          </Trackpoint>
          <Trackpoint>
            <Time>2021-04-01T07:17:20.000Z</Time>
            <Position>
              <LatitudeDegrees>42.42806305177509784698486328125</LatitudeDegrees>
              <LongitudeDegrees>2.78937240131199359893798828125</LongitudeDegrees>
            </Position>
            <AltitudeMeters>610.5999755859375</AltitudeMeters>
            <DistanceMeters>13764.449659798</DistanceMeters>
          </Trackpoint>
          <Trackpoint>
            <Time>2021-04-01T07:17:23.000Z</Time>
            <Position>
              <LatitudeDegrees>42.42807260714471340179443359375</LatitudeDegrees>
              <LongitudeDegrees>2.7893309108912944793701171875</LongitudeDegrees>
            </Position>
            <AltitudeMeters>610.4000244140625</AltitudeMeters>
            <DistanceMeters>13768.020439536</DistanceMeters>
          </Trackpoint>
          <Trackpoint>
            <Time>2021-04-01T07:17:31.000Z</Time>
            <Position>
              <LatitudeDegrees>42.4280929751694202423095703125</LatitudeDegrees>
              <LongitudeDegrees>2.7892036736011505126953125</LongitudeDegrees>
            </Position>
            <AltitudeMeters>609.79998779296875</AltitudeMeters>
            <DistanceMeters>13778.716750514</DistanceMeters>
          </Trackpoint>
          <Trackpoint>
            <Time>2021-04-01T07:17:32.000Z</Time>
            <Position>
              <LatitudeDegrees>42.4280959926545619964599609375</LatitudeDegrees>
              <LongitudeDegrees>2.78918850235641002655029296875</LongitudeDegrees>
            </Position>
            <AltitudeMeters>609.5999755859375</AltitudeMeters>
            <DistanceMeters>13780.012742111</DistanceMeters>
          </Trackpoint>
          <Trackpoint>
            <Time>2021-04-01T07:17:35.000Z</Time>
            <Position>
              <LatitudeDegrees>42.42810931988060474395751953125</LatitudeDegrees>
              <LongitudeDegrees>2.789143659174442291259765625</LongitudeDegrees>
            </Position>
            <AltitudeMeters>609.20001220703125</AltitudeMeters>
            <DistanceMeters>13783.984585958</DistanceMeters>
          </Trackpoint>
          <Trackpoint>
            <Time>2021-04-01T07:17:38.000Z</Time>
            <Position>
              <LatitudeDegrees>42.42811753414571285247802734375</LatitudeDegrees>
              <LongitudeDegrees>2.78910350985825061798095703125</LongitudeDegrees>
            </Position>
            <AltitudeMeters>609</AltitudeMeters>
            <DistanceMeters>13787.408186289</DistanceMeters>
          </Trackpoint>
          <Trackpoint>
            <Time>2021-04-01T07:17:40.000Z</Time>
            <Position>
              <LatitudeDegrees>42.4281330406665802001953125</LatitudeDegrees>
              <LongitudeDegrees>2.78907668776810169219970703125</LongitudeDegrees>
            </Position>
            <AltitudeMeters>609</AltitudeMeters>
            <DistanceMeters>13790.207848117</DistanceMeters>
          </Trackpoint>
          <Trackpoint>
            <Time>2021-04-01T07:17:45.000Z</Time>
            <Position>
              <LatitudeDegrees>42.428136728703975677490234375</LatitudeDegrees>
              <LongitudeDegrees>2.78902488760650157928466796875</LongitudeDegrees>
            </Position>
            <AltitudeMeters>608.5999755859375</AltitudeMeters>
            <DistanceMeters>13794.484050264</DistanceMeters>
          </Trackpoint>
          <Trackpoint>
            <Time>2021-04-01T07:17:46.000Z</Time>
            <Position>
              <LatitudeDegrees>42.4281370639801025390625</LatitudeDegrees>
              <LongitudeDegrees>2.78901013545691967010498046875</LongitudeDegrees>
            </Position>
            <AltitudeMeters>608.5999755859375</AltitudeMeters>
            <DistanceMeters>13795.693542878</DistanceMeters>
          </Trackpoint>
          <Trackpoint>
            <Time>2021-04-01T07:17:55.000Z</Time>
            <Position>
              <LatitudeDegrees>42.42816564626991748809814453125</LatitudeDegrees>
              <LongitudeDegrees>2.78887334279716014862060546875</LongitudeDegrees>
            </Position>
            <AltitudeMeters>608</AltitudeMeters>
            <DistanceMeters>13807.372940755</DistanceMeters>
          </Trackpoint>
          <Trackpoint>
            <Time>2021-04-01T07:17:56.000Z</Time>
            <Position>
              <LatitudeDegrees>42.42817352525889873504638671875</LatitudeDegrees>
              <LongitudeDegrees>2.78885959647595882415771484375</LongitudeDegrees>
            </Position>
            <AltitudeMeters>608</AltitudeMeters>
            <DistanceMeters>13808.804662569</DistanceMeters>
          </Trackpoint>
          <Trackpoint>
            <Time>2021-04-01T07:17:57.000Z</Time>
            <Position>
              <LatitudeDegrees>42.42818492464721202850341796875</LatitudeDegrees>
              <LongitudeDegrees>2.78884953819215297698974609375</LongitudeDegrees>
            </Position>
            <AltitudeMeters>608</AltitudeMeters>
            <DistanceMeters>13810.319139184</DistanceMeters>
          </Trackpoint>
          <Trackpoint>
            <Time>2021-04-01T07:17:59.000Z</Time>
            <Position>
              <LatitudeDegrees>42.428214512765407562255859375</LatitudeDegrees>
              <LongitudeDegrees>2.78882271610200405120849609375</LongitudeDegrees>
            </Position>
            <AltitudeMeters>607.79998779296875</AltitudeMeters>
            <DistanceMeters>13814.280738969</DistanceMeters>
          </Trackpoint>
          <Trackpoint>
            <Time>2021-04-01T07:18:01.000Z</Time>
            <Position>
              <LatitudeDegrees>42.42822465486824512481689453125</LatitudeDegrees>
              <LongitudeDegrees>2.78879438526928424835205078125</LongitudeDegrees>
            </Position>
            <AltitudeMeters>607.4000244140625</AltitudeMeters>
            <DistanceMeters>13816.865745075</DistanceMeters>
          </Trackpoint>
          <Trackpoint>
            <Time>2021-04-01T07:18:06.000Z</Time>
            <Position>
              <LatitudeDegrees>42.4282599426805973052978515625</LatitudeDegrees>
              <LongitudeDegrees>2.7887254022061824798583984375</LongitudeDegrees>
            </Position>
            <AltitudeMeters>607</AltitudeMeters>
            <DistanceMeters>13823.76025901</DistanceMeters>
          </Trackpoint>
          <Trackpoint>
            <Time>2021-04-01T07:18:07.000Z</Time>
            <Position>
              <LatitudeDegrees>42.42826757021248340606689453125</LatitudeDegrees>
              <LongitudeDegrees>2.7887126617133617401123046875</LongitudeDegrees>
            </Position>
            <AltitudeMeters>606.79998779296875</AltitudeMeters>
            <DistanceMeters>13825.104139693</DistanceMeters>
          </Trackpoint>
          <Trackpoint>
            <Time>2021-04-01T07:18:10.000Z</Time>
            <Position>
              <LatitudeDegrees>42.42829020135104656219482421875</LatitudeDegrees>
              <LongitudeDegrees>2.78867284767329692840576171875</LongitudeDegrees>
            </Position>
            <AltitudeMeters>606.4000244140625</AltitudeMeters>
            <DistanceMeters>13829.232063414</DistanceMeters>
          </Trackpoint>
          <Trackpoint>
            <Time>2021-04-01T07:18:15.000Z</Time>
            <Position>
              <LatitudeDegrees>42.42833680473268032073974609375</LatitudeDegrees>
              <LongitudeDegrees>2.7886130847036838531494140625</LongitudeDegrees>
            </Position>
            <AltitudeMeters>605.4000244140625</AltitudeMeters>
            <DistanceMeters>13836.374255083</DistanceMeters>
          </Trackpoint>
          <Trackpoint>
            <Time>2021-04-01T07:18:16.000Z</Time>
            <Position>
              <LatitudeDegrees>42.4283430911600589752197265625</LatitudeDegrees>
              <LongitudeDegrees>2.78860478661954402923583984375</LongitudeDegrees>
            </Position>
            <AltitudeMeters>605.20001220703125</AltitudeMeters>
            <DistanceMeters>13837.352614988</DistanceMeters>
          </Trackpoint>
          <Trackpoint>
            <Time>2021-04-01T07:18:20.000Z</Time>
            <Position>
              <LatitudeDegrees>42.4283878505229949951171875</LatitudeDegrees>
              <LongitudeDegrees>2.788562960922718048095703125</LongitudeDegrees>
            </Position>
            <AltitudeMeters>604.79998779296875</AltitudeMeters>
            <DistanceMeters>13843.404556003</DistanceMeters>
          </Trackpoint>
          <Trackpoint>
            <Time>2021-04-01T07:18:24.000Z</Time>
            <Position>
              <LatitudeDegrees>42.42843017913401126861572265625</LatitudeDegrees>
              <LongitudeDegrees>2.7885202132165431976318359375</LongitudeDegrees>
            </Position>
            <AltitudeMeters>604.20001220703125</AltitudeMeters>
            <DistanceMeters>13849.280865417</DistanceMeters>
          </Trackpoint>
          <Trackpoint>
            <Time>2021-04-01T07:18:25.000Z</Time>
            <Position>
              <LatitudeDegrees>42.42843839339911937713623046875</LatitudeDegrees>
              <LongitudeDegrees>2.78851225040853023529052734375</LongitudeDegrees>
            </Position>
            <AltitudeMeters>604.20001220703125</AltitudeMeters>
            <DistanceMeters>13850.405236664</DistanceMeters>
          </Trackpoint>
          <Trackpoint>
            <Time>2021-04-01T07:18:31.000Z</Time>
            <Position>
              <LatitudeDegrees>42.42841668426990509033203125</LatitudeDegrees>
              <LongitudeDegrees>2.7884176187217235565185546875</LongitudeDegrees>
            </Position>
            <AltitudeMeters>603</AltitudeMeters>
            <DistanceMeters>13858.546536382</DistanceMeters>
          </Trackpoint>
          <Trackpoint>
            <Time>2021-04-01T07:18:32.000Z</Time>
            <Position>
              <LatitudeDegrees>42.4284047819674015045166015625</LatitudeDegrees>
              <LongitudeDegrees>2.78841669671237468719482421875</LongitudeDegrees>
            </Position>
            <AltitudeMeters>603</AltitudeMeters>
            <DistanceMeters>13859.876910383</DistanceMeters>
          </Trackpoint>
          <Trackpoint>
            <Time>2021-04-01T07:18:33.000Z</Time>
            <Position>
              <LatitudeDegrees>42.42839061655104160308837890625</LatitudeDegrees>
              <LongitudeDegrees>2.7884078957140445709228515625</LongitudeDegrees>
            </Position>
            <AltitudeMeters>602.79998779296875</AltitudeMeters>
            <DistanceMeters>13861.61358696</DistanceMeters>
          </Trackpoint>
          <Trackpoint>
            <Time>2021-04-01T07:18:34.000Z</Time>
            <Position>
              <LatitudeDegrees>42.42837846279144287109375</LatitudeDegrees>
              <LongitudeDegrees>2.78840596787631511688232421875</LongitudeDegrees>
            </Position>
            <AltitudeMeters>602.5999755859375</AltitudeMeters>
            <DistanceMeters>13862.977476892</DistanceMeters>
          </Trackpoint>
          <Trackpoint>
            <Time>2021-04-01T07:18:38.000Z</Time>
            <Position>
              <LatitudeDegrees>42.42832817137241363525390625</LatitudeDegrees>
              <LongitudeDegrees>2.78840647079050540924072265625</LongitudeDegrees>
            </Position>
            <AltitudeMeters>602.20001220703125</AltitudeMeters>
            <DistanceMeters>13868.575187608</DistanceMeters>
          </Trackpoint>
          <Trackpoint>
            <Time>2021-04-01T07:18:39.000Z</Time>
            <Position>
              <LatitudeDegrees>42.42831903509795665740966796875</LatitudeDegrees>
              <LongitudeDegrees>2.7884124219417572021484375</LongitudeDegrees>
            </Position>
            <AltitudeMeters>602</AltitudeMeters>
            <DistanceMeters>13869.707561599</DistanceMeters>
          </Trackpoint>
          <Trackpoint>
            <Time>2021-04-01T07:18:42.000Z</Time>
            <Position>
              <LatitudeDegrees>42.42829330265522003173828125</LatitudeDegrees>
              <LongitudeDegrees>2.78842055238783359527587890625</LongitudeDegrees>
            </Position>
            <AltitudeMeters>601.5999755859375</AltitudeMeters>
            <DistanceMeters>13872.65032277</DistanceMeters>
          </Trackpoint>
          <Trackpoint>
            <Time>2021-04-01T07:18:45.000Z</Time>
            <Position>
              <LatitudeDegrees>42.42826589383184909820556640625</LatitudeDegrees>
              <LongitudeDegrees>2.78843077830970287322998046875</LongitudeDegrees>
            </Position>
            <AltitudeMeters>601</AltitudeMeters>
            <DistanceMeters>13875.814869306</DistanceMeters>
          </Trackpoint>
          <Trackpoint>
            <Time>2021-04-01T07:18:47.000Z</Time>
            <Position>
              <LatitudeDegrees>42.42824477143585681915283203125</LatitudeDegrees>
              <LongitudeDegrees>2.7884414233267307281494140625</LongitudeDegrees>
            </Position>
            <AltitudeMeters>601</AltitudeMeters>
            <DistanceMeters>13878.323646554</DistanceMeters>
          </Trackpoint>
          <Trackpoint>
            <Time>2021-04-01T07:18:48.000Z</Time>
            <Position>
              <LatitudeDegrees>42.428236640989780426025390625</LatitudeDegrees>
              <LongitudeDegrees>2.7884477935731410980224609375</LongitudeDegrees>
            </Position>
            <AltitudeMeters>601</AltitudeMeters>
            <DistanceMeters>13879.373250921</DistanceMeters>
          </Trackpoint>
          <Trackpoint>
            <Time>2021-04-01T07:18:54.000Z</Time>
            <Position>
              <LatitudeDegrees>42.42818810977041721343994140625</LatitudeDegrees>
              <LongitudeDegrees>2.78850303031504154205322265625</LongitudeDegrees>
            </Position>
            <AltitudeMeters>599.79998779296875</AltitudeMeters>
            <DistanceMeters>13886.428304525</DistanceMeters>
          </Trackpoint>
          <Trackpoint>
            <Time>2021-04-01T07:18:58.000Z</Time>
            <Position>
              <LatitudeDegrees>42.4281550012528896331787109375</LatitudeDegrees>
              <LongitudeDegrees>2.7885416708886623382568359375</LongitudeDegrees>
            </Position>
            <AltitudeMeters>599.4000244140625</AltitudeMeters>
            <DistanceMeters>13891.292335804</DistanceMeters>
          </Trackpoint>
          <Trackpoint>
            <Time>2021-04-01T07:19:00.000Z</Time>
            <Position>
              <LatitudeDegrees>42.42813698016107082366943359375</LatitudeDegrees>
              <LongitudeDegrees>2.78855985961854457855224609375</LongitudeDegrees>
            </Position>
            <AltitudeMeters>598.79998779296875</AltitudeMeters>
            <DistanceMeters>13893.793903907</DistanceMeters>
          </Trackpoint>
          <Trackpoint>
            <Time>2021-04-01T07:19:03.000Z</Time>
            <Position>
              <LatitudeDegrees>42.42812340147793292999267578125</LatitudeDegrees>
              <LongitudeDegrees>2.788591794669628143310546875</LongitudeDegrees>
            </Position>
            <AltitudeMeters>598.5999755859375</AltitudeMeters>
            <DistanceMeters>13896.819874415</DistanceMeters>
          </Trackpoint>
          <Trackpoint>
            <Time>2021-04-01T07:19:07.000Z</Time>
            <Position>
              <LatitudeDegrees>42.42810286581516265869140625</LatitudeDegrees>
              <LongitudeDegrees>2.78862691484391689300537109375</LongitudeDegrees>
            </Position>
            <AltitudeMeters>598.5999755859375</AltitudeMeters>
            <DistanceMeters>13900.501469822</DistanceMeters>
          </Trackpoint>
          <Trackpoint>
            <Time>2021-04-01T07:19:11.000Z</Time>
            <Position>
              <LatitudeDegrees>42.42808886803686618804931640625</LatitudeDegrees>
              <LongitudeDegrees>2.78867720626294612884521484375</LongitudeDegrees>
            </Position>
            <AltitudeMeters>598.79998779296875</AltitudeMeters>
            <DistanceMeters>13904.916889966</DistanceMeters>
          </Trackpoint>
          <Trackpoint>
            <Time>2021-04-01T07:19:18.000Z</Time>
            <Position>
              <LatitudeDegrees>42.42806774564087390899658203125</LatitudeDegrees>
              <LongitudeDegrees>2.7887773700058460235595703125</LongitudeDegrees>
            </Position>
            <AltitudeMeters>598.4000244140625</AltitudeMeters>
            <DistanceMeters>13913.474571893</DistanceMeters>
          </Trackpoint>
          <Trackpoint>
            <Time>2021-04-01T07:19:27.000Z</Time>
            <Position>
              <LatitudeDegrees>42.4280202202498912811279296875</LatitudeDegrees>
              <LongitudeDegrees>2.78889454901218414306640625</LongitudeDegrees>
            </Position>
            <AltitudeMeters>598</AltitudeMeters>
            <DistanceMeters>13924.458690035</DistanceMeters>
          </Trackpoint>
          <Trackpoint>
            <Time>2021-04-01T07:19:34.000Z</Time>
            <Position>
              <LatitudeDegrees>42.4279873631894588470458984375</LatitudeDegrees>
              <LongitudeDegrees>2.788993455469608306884765625</LongitudeDegrees>
            </Position>
            <AltitudeMeters>597.79998779296875</AltitudeMeters>
            <DistanceMeters>13933.369439845</DistanceMeters>
          </Trackpoint>
          <Trackpoint>
            <Time>2021-04-01T07:19:35.000Z</Time>
            <Position>
              <LatitudeDegrees>42.42798442952334880828857421875</LatitudeDegrees>
              <LongitudeDegrees>2.789008207619190216064453125</LongitudeDegrees>
            </Position>
            <AltitudeMeters>597.5999755859375</AltitudeMeters>
            <DistanceMeters>13934.622928298</DistanceMeters>
          </Trackpoint>
          <Trackpoint>
            <Time>2021-04-01T07:19:36.000Z</Time>
            <Position>
              <LatitudeDegrees>42.4279816634953022003173828125</LatitudeDegrees>
              <LongitudeDegrees>2.78902522288262844085693359375</LongitudeDegrees>
            </Position>
            <AltitudeMeters>597.5999755859375</AltitudeMeters>
            <DistanceMeters>13936.051493059</DistanceMeters>
          </Trackpoint>
          <Trackpoint>
            <Time>2021-04-01T07:19:40.000Z</Time>
            <Position>
              <LatitudeDegrees>42.42796498350799083709716796875</LatitudeDegrees>
              <LongitudeDegrees>2.7890915237367153167724609375</LongitudeDegrees>
            </Position>
            <AltitudeMeters>597.4000244140625</AltitudeMeters>
            <DistanceMeters>13941.805907913</DistanceMeters>
          </Trackpoint>
          <Trackpoint>
            <Time>2021-04-01T07:19:43.000Z</Time>
            <Position>
              <LatitudeDegrees>42.42794930934906005859375</LatitudeDegrees>
              <LongitudeDegrees>2.78913770802319049835205078125</LongitudeDegrees>
            </Position>
            <AltitudeMeters>596.79998779296875</AltitudeMeters>
            <DistanceMeters>13945.982761716</DistanceMeters>
          </Trackpoint>
          <Trackpoint>
            <Time>2021-04-01T07:19:44.000Z</Time>
            <Position>
              <LatitudeDegrees>42.42794252000749111175537109375</LatitudeDegrees>
              <LongitudeDegrees>2.7891505323350429534912109375</LongitudeDegrees>
            </Position>
            <AltitudeMeters>596.79998779296875</AltitudeMeters>
            <DistanceMeters>13947.278753313</DistanceMeters>
          </Trackpoint>
          <Trackpoint>
            <Time>2021-04-01T07:19:51.000Z</Time>
            <Position>
              <LatitudeDegrees>42.4279050529003143310546875</LatitudeDegrees>
              <LongitudeDegrees>2.78925471939146518707275390625</LongitudeDegrees>
            </Position>
            <AltitudeMeters>596.79998779296875</AltitudeMeters>
            <DistanceMeters>13956.800411125</DistanceMeters>
          </Trackpoint>
          <Trackpoint>
            <Time>2021-04-01T07:19:54.000Z</Time>
            <Position>
              <LatitudeDegrees>42.4278830923140048980712890625</LatitudeDegrees>
              <LongitudeDegrees>2.78929696418344974517822265625</LongitudeDegrees>
            </Position>
            <AltitudeMeters>596.5999755859375</AltitudeMeters>
            <DistanceMeters>13961.044819506</DistanceMeters>
          </Trackpoint>
          <Trackpoint>
            <Time>2021-04-01T07:19:56.000Z</Time>
            <Position>
              <LatitudeDegrees>42.42786758579313755035400390625</LatitudeDegrees>
              <LongitudeDegrees>2.789330743253231048583984375</LongitudeDegrees>
            </Position>
            <AltitudeMeters>596.4000244140625</AltitudeMeters>
            <DistanceMeters>13964.311859505</DistanceMeters>
          </Trackpoint>
          <Trackpoint>
            <Time>2021-04-01T07:19:57.000Z</Time>
            <Position>
              <LatitudeDegrees>42.42786222137510776519775390625</LatitudeDegrees>
              <LongitudeDegrees>2.7893459983170032501220703125</LongitudeDegrees>
            </Position>
            <AltitudeMeters>596.20001220703125</AltitudeMeters>
            <DistanceMeters>13965.698728743</DistanceMeters>
          </Trackpoint>
          <Trackpoint>
            <Time>2021-04-01T07:20:00.000Z</Time>
            <Position>
              <LatitudeDegrees>42.4278398416936397552490234375</LatitudeDegrees>
              <LongitudeDegrees>2.78939922340214252471923828125</LongitudeDegrees>
            </Position>
            <AltitudeMeters>596</AltitudeMeters>
            <DistanceMeters>13970.730660216</DistanceMeters>
          </Trackpoint>
          <Trackpoint>
            <Time>2021-04-01T07:20:02.000Z</Time>
            <Position>
              <LatitudeDegrees>42.42782383225858211517333984375</LatitudeDegrees>
              <LongitudeDegrees>2.78942889533936977386474609375</LongitudeDegrees>
            </Position>
            <AltitudeMeters>595.4000244140625</AltitudeMeters>
            <DistanceMeters>13973.750656443</DistanceMeters>
          </Trackpoint>
          <Trackpoint>
            <Time>2021-04-01T07:20:05.000Z</Time>
            <Position>
              <LatitudeDegrees>42.42779751308262348175048828125</LatitudeDegrees>
              <LongitudeDegrees>2.78947466053068637847900390625</LongitudeDegrees>
            </Position>
            <AltitudeMeters>594.5999755859375</AltitudeMeters>
            <DistanceMeters>13978.517172186</DistanceMeters>
          </Trackpoint>
          <Trackpoint>
            <Time>2021-04-01T07:20:06.000Z</Time>
            <Position>
              <LatitudeDegrees>42.42778904736042022705078125</LatitudeDegrees>
              <LongitudeDegrees>2.78948941268026828765869140625</LongitudeDegrees>
            </Position>
            <AltitudeMeters>594.4000244140625</AltitudeMeters>
            <DistanceMeters>13980.05237574</DistanceMeters>
          </Trackpoint>
          <Trackpoint>
            <Time>2021-04-01T07:20:11.000Z</Time>
            <Position>
              <LatitudeDegrees>42.42775878868997097015380859375</LatitudeDegrees>
              <LongitudeDegrees>2.7895496785640716552734375</LongitudeDegrees>
            </Position>
            <AltitudeMeters>594.20001220703125</AltitudeMeters>
            <DistanceMeters>13986.039812878</DistanceMeters>
          </Trackpoint>
          <Trackpoint>
            <Time>2021-04-01T07:20:13.000Z</Time>
            <Position>
              <LatitudeDegrees>42.42774269543588161468505859375</LatitudeDegrees>
              <LongitudeDegrees>2.78958119451999664306640625</LongitudeDegrees>
            </Position>
            <AltitudeMeters>594.4000244140625</AltitudeMeters>
            <DistanceMeters>13989.188625978</DistanceMeters>
          </Trackpoint>
          <Trackpoint>
            <Time>2021-04-01T07:20:16.000Z</Time>
            <Position>
              <LatitudeDegrees>42.4277265183627605438232421875</LatitudeDegrees>
              <LongitudeDegrees>2.7896172367036342620849609375</LongitudeDegrees>
            </Position>
            <AltitudeMeters>594.20001220703125</AltitudeMeters>
            <DistanceMeters>13992.654170909</DistanceMeters>
          </Trackpoint>
          <Trackpoint>
            <Time>2021-04-01T07:20:17.000Z</Time>
            <Position>
              <LatitudeDegrees>42.42771662771701812744140625</LatitudeDegrees>
              <LongitudeDegrees>2.7896356768906116485595703125</LongitudeDegrees>
            </Position>
            <AltitudeMeters>594.20001220703125</AltitudeMeters>
            <DistanceMeters>13994.525980103</DistanceMeters>
          </Trackpoint>
          <Trackpoint>
            <Time>2021-04-01T07:20:19.000Z</Time>
            <Position>
              <LatitudeDegrees>42.42770078592002391815185546875</LatitudeDegrees>
              <LongitudeDegrees>2.7896671928465366363525390625</LongitudeDegrees>
            </Position>
            <AltitudeMeters>594</AltitudeMeters>
            <DistanceMeters>13997.658980757</DistanceMeters>
          </Trackpoint>
          <Trackpoint>
            <Time>2021-04-01T07:20:30.000Z</Time>
            <Position>
              <LatitudeDegrees>42.42766893468797206878662109375</LatitudeDegrees>
              <LongitudeDegrees>2.78982049785554409027099609375</LongitudeDegrees>
            </Position>
            <AltitudeMeters>593.4000244140625</AltitudeMeters>
            <DistanceMeters>14010.743369138</DistanceMeters>
          </Trackpoint>
          <Trackpoint>
            <Time>2021-04-01T07:20:33.000Z</Time>
            <Position>
              <LatitudeDegrees>42.4276561103761196136474609375</LatitudeDegrees>
              <LongitudeDegrees>2.78986190445721149444580078125</LongitudeDegrees>
            </Position>
            <AltitudeMeters>593.4000244140625</AltitudeMeters>
            <DistanceMeters>14014.432315491</DistanceMeters>
          </Trackpoint>
          <Trackpoint>
            <Time>2021-04-01T07:20:38.000Z</Time>
            <Position>
              <LatitudeDegrees>42.4276437051594257354736328125</LatitudeDegrees>
              <LongitudeDegrees>2.78993885032832622528076171875</LongitudeDegrees>
            </Position>
            <AltitudeMeters>593.4000244140625</AltitudeMeters>
            <DistanceMeters>14020.902511346</DistanceMeters>
          </Trackpoint>
          <Trackpoint>
            <Time>2021-04-01T07:20:39.000Z</Time>
            <Position>
              <LatitudeDegrees>42.4276413582265377044677734375</LatitudeDegrees>
              <LongitudeDegrees>2.789954356849193572998046875</LongitudeDegrees>
            </Position>
            <AltitudeMeters>593.4000244140625</AltitudeMeters>
            <DistanceMeters>14022.201982121</DistanceMeters>
          </Trackpoint>
          <Trackpoint>
            <Time>2021-04-01T07:20:44.000Z</Time>
            <Position>
              <LatitudeDegrees>42.4276256002485752105712890625</LatitudeDegrees>
              <LongitudeDegrees>2.790036499500274658203125</LongitudeDegrees>
            </Position>
            <AltitudeMeters>592.79998779296875</AltitudeMeters>
            <DistanceMeters>14029.174638112</DistanceMeters>
          </Trackpoint>
          <Trackpoint>
            <Time>2021-04-01T07:20:45.000Z</Time>
            <Position>
              <LatitudeDegrees>42.42762836627662181854248046875</LatitudeDegrees>
              <LongitudeDegrees>2.79005058109760284423828125</LongitudeDegrees>
            </Position>
            <AltitudeMeters>592.5999755859375</AltitudeMeters>
            <DistanceMeters>14030.36910539</DistanceMeters>
          </Trackpoint>
          <Trackpoint>
            <Time>2021-04-01T07:20:49.000Z</Time>
            <Position>
              <LatitudeDegrees>42.42763875983655452728271484375</LatitudeDegrees>
              <LongitudeDegrees>2.79010917060077190399169921875</LongitudeDegrees>
            </Position>
            <AltitudeMeters>592.4000244140625</AltitudeMeters>
            <DistanceMeters>14035.319623289</DistanceMeters>
          </Trackpoint>
          <Trackpoint>
            <Time>2021-04-01T07:20:53.000Z</Time>
            <Position>
              <LatitudeDegrees>42.4276463873684406280517578125</LatitudeDegrees>
              <LongitudeDegrees>2.790180332958698272705078125</LongitudeDegrees>
            </Position>
            <AltitudeMeters>591.4000244140625</AltitudeMeters>
            <DistanceMeters>14041.227350894</DistanceMeters>
          </Trackpoint>
          <Trackpoint>
            <Time>2021-04-01T07:20:55.000Z</Time>
            <Position>
              <LatitudeDegrees>42.4276520870625972747802734375</LatitudeDegrees>
              <LongitudeDegrees>2.7902096696197986602783203125</LongitudeDegrees>
            </Position>
            <AltitudeMeters>591.4000244140625</AltitudeMeters>
            <DistanceMeters>14043.719878245</DistanceMeters>
          </Trackpoint>
          <Trackpoint>
            <Time>2021-04-01T07:21:02.000Z</Time>
            <Position>
              <LatitudeDegrees>42.42762384004890918731689453125</LatitudeDegrees>
              <LongitudeDegrees>2.790323831140995025634765625</LongitudeDegrees>
            </Position>
            <AltitudeMeters>591</AltitudeMeters>
            <DistanceMeters>14053.611333055</DistanceMeters>
          </Trackpoint>
          <Trackpoint>
            <Time>2021-04-01T07:21:03.000Z</Time>
            <Position>
              <LatitudeDegrees>42.42761394940316677093505859375</LatitudeDegrees>
              <LongitudeDegrees>2.79033179394900798797607421875</LongitudeDegrees>
            </Position>
            <AltitudeMeters>590.79998779296875</AltitudeMeters>
            <DistanceMeters>14054.893313521</DistanceMeters>
          </Trackpoint>
          <Trackpoint>
            <Time>2021-04-01T07:21:08.000Z</Time>
            <Position>
              <LatitudeDegrees>42.4275595508515834808349609375</LatitudeDegrees>
              <LongitudeDegrees>2.79035123996436595916748046875</LongitudeDegrees>
            </Position>
            <AltitudeMeters>590.20001220703125</AltitudeMeters>
            <DistanceMeters>14061.155710984</DistanceMeters>
          </Trackpoint>
          <Trackpoint>
            <Time>2021-04-01T07:21:13.000Z</Time>
            <Position>
              <LatitudeDegrees>42.427492327988147735595703125</LatitudeDegrees>
              <LongitudeDegrees>2.79034872539341449737548828125</LongitudeDegrees>
            </Position>
            <AltitudeMeters>590</AltitudeMeters>
            <DistanceMeters>14068.640535248</DistanceMeters>
          </Trackpoint>
          <Trackpoint>
            <Time>2021-04-01T07:21:15.000Z</Time>
            <Position>
              <LatitudeDegrees>42.42747531272470951080322265625</LatitudeDegrees>
              <LongitudeDegrees>2.79032223857939243316650390625</LongitudeDegrees>
            </Position>
            <AltitudeMeters>589.5999755859375</AltitudeMeters>
            <DistanceMeters>14071.525969441</DistanceMeters>
          </Trackpoint>
          <Trackpoint>
            <Time>2021-04-01T07:21:19.000Z</Time>
            <Position>
              <LatitudeDegrees>42.427437007427215576171875</LatitudeDegrees>
              <LongitudeDegrees>2.7902559377253055572509765625</LongitudeDegrees>
            </Position>
            <AltitudeMeters>589.20001220703125</AltitudeMeters>
            <DistanceMeters>14078.442713256</DistanceMeters>
          </Trackpoint>
          <Trackpoint>
            <Time>2021-04-01T07:21:21.000Z</Time>
            <Position>
              <LatitudeDegrees>42.4274195730686187744140625</LatitudeDegrees>
              <LongitudeDegrees>2.79022785834968090057373046875</LongitudeDegrees>
            </Position>
            <AltitudeMeters>589.20001220703125</AltitudeMeters>
            <DistanceMeters>14081.458221004</DistanceMeters>
          </Trackpoint>
          <Trackpoint>
            <Time>2021-04-01T07:21:24.000Z</Time>
            <Position>
              <LatitudeDegrees>42.42740104906260967254638671875</LatitudeDegrees>
              <LongitudeDegrees>2.79018745757639408111572265625</LongitudeDegrees>
            </Position>
            <AltitudeMeters>589.20001220703125</AltitudeMeters>
            <DistanceMeters>14085.367042993</DistanceMeters>
          </Trackpoint>
          <Trackpoint>
            <Time>2021-04-01T07:21:32.000Z</Time>
            <Position>
              <LatitudeDegrees>42.427352182567119598388671875</LatitudeDegrees>
              <LongitudeDegrees>2.790099196135997772216796875</LongitudeDegrees>
            </Position>
            <AltitudeMeters>589.5999755859375</AltitudeMeters>
            <DistanceMeters>14094.431515706</DistanceMeters>
          </Trackpoint>
          <Trackpoint>
            <Time>2021-04-01T07:21:34.000Z</Time>
            <Position>
              <LatitudeDegrees>42.427340783178806304931640625</LatitudeDegrees>
              <LongitudeDegrees>2.7900752238929271697998046875</LongitudeDegrees>
            </Position>
            <AltitudeMeters>589.5999755859375</AltitudeMeters>
            <DistanceMeters>14096.772724027</DistanceMeters>
          </Trackpoint>
          <Trackpoint>
            <Time>2021-04-01T07:21:37.000Z</Time>
            <Position>
              <LatitudeDegrees>42.42732376791536808013916015625</LatitudeDegrees>
              <LongitudeDegrees>2.79003851115703582763671875</LongitudeDegrees>
            </Position>
            <AltitudeMeters>589.4000244140625</AltitudeMeters>
            <DistanceMeters>14100.333373873</DistanceMeters>
          </Trackpoint>
          <Trackpoint>
            <Time>2021-04-01T07:21:41.000Z</Time>
            <Position>
              <LatitudeDegrees>42.4272849597036838531494140625</LatitudeDegrees>
              <LongitudeDegrees>2.78999752365052700042724609375</LongitudeDegrees>
            </Position>
            <AltitudeMeters>589.20001220703125</AltitudeMeters>
            <DistanceMeters>14105.810409015</DistanceMeters>
          </Trackpoint>
          <Trackpoint>
            <Time>2021-04-01T07:21:49.000Z</Time>
            <Position>
              <LatitudeDegrees>42.42718898691236972808837890625</LatitudeDegrees>
              <LongitudeDegrees>2.789959721267223358154296875</LongitudeDegrees>
            </Position>
            <AltitudeMeters>589</AltitudeMeters>
            <DistanceMeters>14116.934624385</DistanceMeters>
          </Trackpoint>
          <Trackpoint>
            <Time>2021-04-01T07:21:51.000Z</Time>
            <Position>
              <LatitudeDegrees>42.4271625839173793792724609375</LatitudeDegrees>
              <LongitudeDegrees>2.78994974680244922637939453125</LongitudeDegrees>
            </Position>
            <AltitudeMeters>589</AltitudeMeters>
            <DistanceMeters>14119.984374987</DistanceMeters>
          </Trackpoint>
          <Trackpoint>
            <Time>2021-04-01T07:21:52.000Z</Time>
            <Position>
              <LatitudeDegrees>42.42715260945260524749755859375</LatitudeDegrees>
              <LongitudeDegrees>2.78994337655603885650634765625</LongitudeDegrees>
            </Position>
            <AltitudeMeters>588.79998779296875</AltitudeMeters>
            <DistanceMeters>14121.212390771</DistanceMeters>
          </Trackpoint>
          <Trackpoint>
            <Time>2021-04-01T07:21:54.000Z</Time>
            <Position>
              <LatitudeDegrees>42.4271325767040252685546875</LatitudeDegrees>
              <LongitudeDegrees>2.78993231244385242462158203125</LongitudeDegrees>
            </Position>
            <AltitudeMeters>588.5999755859375</AltitudeMeters>
            <DistanceMeters>14123.62015095</DistanceMeters>
          </Trackpoint>
          <Trackpoint>
            <Time>2021-04-01T07:21:59.000Z</Time>
            <Position>
              <LatitudeDegrees>42.42708840407431125640869140625</LatitudeDegrees>
              <LongitudeDegrees>2.78992560692131519317626953125</LongitudeDegrees>
            </Position>
            <AltitudeMeters>588.5999755859375</AltitudeMeters>
            <DistanceMeters>14128.56701937</DistanceMeters>
          </Trackpoint>
          <Trackpoint>
            <Time>2021-04-01T07:22:04.000Z</Time>
            <Position>
              <LatitudeDegrees>42.4270368553698062896728515625</LatitudeDegrees>
              <LongitudeDegrees>2.7899055741727352142333984375</LongitudeDegrees>
            </Position>
            <AltitudeMeters>587.79998779296875</AltitudeMeters>
            <DistanceMeters>14134.535574603</DistanceMeters>
          </Trackpoint>
          <Trackpoint>
            <Time>2021-04-01T07:22:08.000Z</Time>
            <Position>
              <LatitudeDegrees>42.4269701354205608367919921875</LatitudeDegrees>
              <LongitudeDegrees>2.78990113176405429840087890625</LongitudeDegrees>
            </Position>
            <AltitudeMeters>587</AltitudeMeters>
            <DistanceMeters>14141.970769825</DistanceMeters>
          </Trackpoint>
          <Trackpoint>
            <Time>2021-04-01T07:22:12.000Z</Time>
            <Position>
              <LatitudeDegrees>42.4269314110279083251953125</LatitudeDegrees>
              <LongitudeDegrees>2.78988067992031574249267578125</LongitudeDegrees>
            </Position>
            <AltitudeMeters>587</AltitudeMeters>
            <DistanceMeters>14146.597897578</DistanceMeters>
          </Trackpoint>
          <Trackpoint>
            <Time>2021-04-01T07:22:15.000Z</Time>
            <Position>
              <LatitudeDegrees>42.426898889243602752685546875</LatitudeDegrees>
              <LongitudeDegrees>2.78984044678509235382080078125</LongitudeDegrees>
            </Position>
            <AltitudeMeters>586.5999755859375</AltitudeMeters>
            <DistanceMeters>14151.498918221</DistanceMeters>
          </Trackpoint>
          <Trackpoint>
            <Time>2021-04-01T07:22:16.000Z</Time>
            <Position>
              <LatitudeDegrees>42.42689075879752635955810546875</LatitudeDegrees>
              <LongitudeDegrees>2.78981781564652919769287109375</LongitudeDegrees>
            </Position>
            <AltitudeMeters>586.4000244140625</AltitudeMeters>
            <DistanceMeters>14153.563426899</DistanceMeters>
          </Trackpoint>
          <Trackpoint>
            <Time>2021-04-01T07:22:21.000Z</Time>
            <Position>
              <LatitudeDegrees>42.4269045889377593994140625</LatitudeDegrees>
              <LongitudeDegrees>2.78973919339478015899658203125</LongitudeDegrees>
            </Position>
            <AltitudeMeters>586.20001220703125</AltitudeMeters>
            <DistanceMeters>14160.203067944</DistanceMeters>
          </Trackpoint>
          <Trackpoint>
            <Time>2021-04-01T07:22:22.000Z</Time>
            <Position>
              <LatitudeDegrees>42.4269101209938526153564453125</LatitudeDegrees>
              <LongitudeDegrees>2.78971890918910503387451171875</LongitudeDegrees>
            </Position>
            <AltitudeMeters>586.20001220703125</AltitudeMeters>
            <DistanceMeters>14161.975768314</DistanceMeters>
          </Trackpoint>
          <Trackpoint>
            <Time>2021-04-01T07:22:23.000Z</Time>
            <Position>
              <LatitudeDegrees>42.42691791616380214691162109375</LatitudeDegrees>
              <LongitudeDegrees>2.78970147483050823211669921875</LongitudeDegrees>
            </Position>
            <AltitudeMeters>586.20001220703125</AltitudeMeters>
            <DistanceMeters>14163.648886271</DistanceMeters>
          </Trackpoint>
          <Trackpoint>
            <Time>2021-04-01T07:22:25.000Z</Time>
            <Position>
              <LatitudeDegrees>42.4269349314272403717041015625</LatitudeDegrees>
              <LongitudeDegrees>2.78967699967324733734130859375</LongitudeDegrees>
            </Position>
            <AltitudeMeters>586.20001220703125</AltitudeMeters>
            <DistanceMeters>14166.41120678</DistanceMeters>
          </Trackpoint>
          <Trackpoint>
            <Time>2021-04-01T07:22:28.000Z</Time>
            <Position>
              <LatitudeDegrees>42.42695328779518604278564453125</LatitudeDegrees>
              <LongitudeDegrees>2.78963240794837474822998046875</LongitudeDegrees>
            </Position>
            <AltitudeMeters>586.20001220703125</AltitudeMeters>
            <DistanceMeters>14170.605320383</DistanceMeters>
          </Trackpoint>
          <Trackpoint>
            <Time>2021-04-01T07:22:31.000Z</Time>
            <Position>
              <LatitudeDegrees>42.42697097361087799072265625</LatitudeDegrees>
              <LongitudeDegrees>2.7895934320986270904541015625</LongitudeDegrees>
            </Position>
            <AltitudeMeters>586.4000244140625</AltitudeMeters>
            <DistanceMeters>14174.363383655</DistanceMeters>
          </Trackpoint>
          <Trackpoint>
            <Time>2021-04-01T07:22:37.000Z</Time>
            <Position>
              <LatitudeDegrees>42.427019588649272918701171875</LatitudeDegrees>
              <LongitudeDegrees>2.78949829749763011932373046875</LongitudeDegrees>
            </Position>
            <AltitudeMeters>586.20001220703125</AltitudeMeters>
            <DistanceMeters>14183.869380445</DistanceMeters>
          </Trackpoint>
          <Trackpoint>
            <Time>2021-04-01T07:22:40.000Z</Time>
            <Position>
              <LatitudeDegrees>42.4270445667207241058349609375</LatitudeDegrees>
              <LongitudeDegrees>2.78945018537342548370361328125</LongitudeDegrees>
            </Position>
            <AltitudeMeters>586.20001220703125</AltitudeMeters>
            <DistanceMeters>14188.701748155</DistanceMeters>
          </Trackpoint>
          <Trackpoint>
            <Time>2021-04-01T07:22:41.000Z</Time>
            <Position>
              <LatitudeDegrees>42.42705554701387882232666015625</LatitudeDegrees>
              <LongitudeDegrees>2.78943543322384357452392578125</LongitudeDegrees>
            </Position>
            <AltitudeMeters>586</AltitudeMeters>
            <DistanceMeters>14190.422755149</DistanceMeters>
          </Trackpoint>
          <Trackpoint>
            <Time>2021-04-01T07:22:47.000Z</Time>
            <Position>
              <LatitudeDegrees>42.42707432247698307037353515625</LatitudeDegrees>
              <LongitudeDegrees>2.789325378835201263427734375</LongitudeDegrees>
            </Position>
            <AltitudeMeters>585.5999755859375</AltitudeMeters>
            <DistanceMeters>14199.702346141</DistanceMeters>
          </Trackpoint>
          <Trackpoint>
            <Time>2021-04-01T07:22:51.000Z</Time>
            <Position>
              <LatitudeDegrees>42.4270777590572834014892578125</LatitudeDegrees>
              <LongitudeDegrees>2.78927952982485294342041015625</LongitudeDegrees>
            </Position>
            <AltitudeMeters>585.20001220703125</AltitudeMeters>
            <DistanceMeters>14203.48794138</DistanceMeters>
          </Trackpoint>
          <Trackpoint>
            <Time>2021-04-01T07:22:53.000Z</Time>
            <Position>
              <LatitudeDegrees>42.4270723946392536163330078125</LatitudeDegrees>
              <LongitudeDegrees>2.78923141770064830780029296875</LongitudeDegrees>
            </Position>
            <AltitudeMeters>585</AltitudeMeters>
            <DistanceMeters>14207.484715733</DistanceMeters>
          </Trackpoint>
          <Trackpoint>
            <Time>2021-04-01T07:22:58.000Z</Time>
            <Position>
              <LatitudeDegrees>42.427056133747100830078125</LatitudeDegrees>
              <LongitudeDegrees>2.78915447182953357696533203125</LongitudeDegrees>
            </Position>
            <AltitudeMeters>584.5999755859375</AltitudeMeters>
            <DistanceMeters>14214.060124923</DistanceMeters>
          </Trackpoint>
          <Trackpoint>
            <Time>2021-04-01T07:23:06.000Z</Time>
            <Position>
              <LatitudeDegrees>42.427004836499691009521484375</LatitudeDegrees>
              <LongitudeDegrees>2.78904735110700130462646484375</LongitudeDegrees>
            </Position>
            <AltitudeMeters>583.4000244140625</AltitudeMeters>
            <DistanceMeters>14224.550574943</DistanceMeters>
          </Trackpoint>
          <Trackpoint>
            <Time>2021-04-01T07:23:07.000Z</Time>
            <Position>
              <LatitudeDegrees>42.4270019866526126861572265625</LatitudeDegrees>
              <LongitudeDegrees>2.78903595171868801116943359375</LongitudeDegrees>
            </Position>
            <AltitudeMeters>583.20001220703125</AltitudeMeters>
            <DistanceMeters>14225.538121527</DistanceMeters>
          </Trackpoint>
          <Trackpoint>
            <Time>2021-04-01T07:23:11.000Z</Time>
            <Position>
              <LatitudeDegrees>42.42698698304593563079833984375</LatitudeDegrees>
              <LongitudeDegrees>2.788982391357421875</LongitudeDegrees>
            </Position>
            <AltitudeMeters>582.4000244140625</AltitudeMeters>
            <DistanceMeters>14230.245542009</DistanceMeters>
          </Trackpoint>
          <Trackpoint>
            <Time>2021-04-01T07:23:15.000Z</Time>
            <Position>
              <LatitudeDegrees>42.4269721470773220062255859375</LatitudeDegrees>
              <LongitudeDegrees>2.7889327704906463623046875</LongitudeDegrees>
            </Position>
            <AltitudeMeters>582.20001220703125</AltitudeMeters>
            <DistanceMeters>14234.643544254</DistanceMeters>
          </Trackpoint>
          <Trackpoint>
            <Time>2021-04-01T07:23:21.000Z</Time>
            <Position>
              <LatitudeDegrees>42.42692529223859310150146484375</LatitudeDegrees>
              <LongitudeDegrees>2.78889119625091552734375</LongitudeDegrees>
            </Position>
            <AltitudeMeters>581.4000244140625</AltitudeMeters>
            <DistanceMeters>14240.876311605</DistanceMeters>
          </Trackpoint>
          <Trackpoint>
            <Time>2021-04-01T07:23:23.000Z</Time>
            <Position>
              <LatitudeDegrees>42.42690014652907848358154296875</LatitudeDegrees>
              <LongitudeDegrees>2.7888689003884792327880859375</LongitudeDegrees>
            </Position>
            <AltitudeMeters>581</AltitudeMeters>
            <DistanceMeters>14244.221197958</DistanceMeters>
          </Trackpoint>
          <Trackpoint>
            <Time>2021-04-01T07:23:32.000Z</Time>
            <Position>
              <LatitudeDegrees>42.42682253010571002960205078125</LatitudeDegrees>
              <LongitudeDegrees>2.78875700198113918304443359375</LongitudeDegrees>
            </Position>
            <AltitudeMeters>580.4000244140625</AltitudeMeters>
            <DistanceMeters>14256.836508785</DistanceMeters>
          </Trackpoint>
          <Trackpoint>
            <Time>2021-04-01T07:23:33.000Z</Time>
            <Position>
              <LatitudeDegrees>42.42681331001222133636474609375</LatitudeDegrees>
              <LongitudeDegrees>2.7887425012886524200439453125</LongitudeDegrees>
            </Position>
            <AltitudeMeters>580</AltitudeMeters>
            <DistanceMeters>14258.409480795</DistanceMeters>
          </Trackpoint>
          <Trackpoint>
            <Time>2021-04-01T07:23:43.000Z</Time>
            <Position>
              <LatitudeDegrees>42.4267558939754962921142578125</LatitudeDegrees>
              <LongitudeDegrees>2.78861300088465213775634765625</LongitudeDegrees>
            </Position>
            <AltitudeMeters>579</AltitudeMeters>
            <DistanceMeters>14270.820566323</DistanceMeters>
          </Trackpoint>
          <Trackpoint>
            <Time>2021-04-01T07:23:44.000Z</Time>
            <Position>
              <LatitudeDegrees>42.42675505578517913818359375</LatitudeDegrees>
              <LongitudeDegrees>2.788599841296672821044921875</LongitudeDegrees>
            </Position>
            <AltitudeMeters>579</AltitudeMeters>
            <DistanceMeters>14271.908196782</DistanceMeters>
          </Trackpoint>
          <Trackpoint>
            <Time>2021-04-01T07:23:47.000Z</Time>
            <Position>
              <LatitudeDegrees>42.4267438240349292755126953125</LatitudeDegrees>
              <LongitudeDegrees>2.78855969198048114776611328125</LongitudeDegrees>
            </Position>
            <AltitudeMeters>578.4000244140625</AltitudeMeters>
            <DistanceMeters>14275.435723584</DistanceMeters>
          </Trackpoint>
          <Trackpoint>
            <Time>2021-04-01T07:23:50.000Z</Time>
            <Position>
              <LatitudeDegrees>42.4267163313925266265869140625</LatitudeDegrees>
              <LongitudeDegrees>2.78851627372205257415771484375</LongitudeDegrees>
            </Position>
            <AltitudeMeters>578.20001220703125</AltitudeMeters>
            <DistanceMeters>14280.134503947</DistanceMeters>
          </Trackpoint>
          <Trackpoint>
            <Time>2021-04-01T07:23:55.000Z</Time>
            <Position>
              <LatitudeDegrees>42.4266734160482883453369140625</LatitudeDegrees>
              <LongitudeDegrees>2.78844402171671390533447265625</LongitudeDegrees>
            </Position>
            <AltitudeMeters>578</AltitudeMeters>
            <DistanceMeters>14287.753252623</DistanceMeters>
          </Trackpoint>
          <Trackpoint>
            <Time>2021-04-01T07:23:58.000Z</Time>
            <Position>
              <LatitudeDegrees>42.4266432411968708038330078125</LatitudeDegrees>
              <LongitudeDegrees>2.78840982355177402496337890625</LongitudeDegrees>
            </Position>
            <AltitudeMeters>577.5999755859375</AltitudeMeters>
            <DistanceMeters>14292.131705808</DistanceMeters>
          </Trackpoint>
          <Trackpoint>
            <Time>2021-04-01T07:24:00.000Z</Time>
            <Position>
              <LatitudeDegrees>42.4266375415027141571044921875</LatitudeDegrees>
              <LongitudeDegrees>2.7883855998516082763671875</LongitudeDegrees>
            </Position>
            <AltitudeMeters>577.4000244140625</AltitudeMeters>
            <DistanceMeters>14294.222293524</DistanceMeters>
          </Trackpoint>
          <Trackpoint>
            <Time>2021-04-01T07:24:05.000Z</Time>
            <Position>
              <LatitudeDegrees>42.426603846251964569091796875</LatitudeDegrees>
              <LongitudeDegrees>2.788316197693347930908203125</LongitudeDegrees>
            </Position>
            <AltitudeMeters>576.79998779296875</AltitudeMeters>
            <DistanceMeters>14301.046376189</DistanceMeters>
          </Trackpoint>
          <Trackpoint>
            <Time>2021-04-01T07:24:08.000Z</Time>
            <Position>
              <LatitudeDegrees>42.42659605108201503753662109375</LatitudeDegrees>
              <LongitudeDegrees>2.78827789239585399627685546875</LongitudeDegrees>
            </Position>
            <AltitudeMeters>576.79998779296875</AltitudeMeters>
            <DistanceMeters>14304.310651025</DistanceMeters>
          </Trackpoint>
          <Trackpoint>
            <Time>2021-04-01T07:24:11.000Z</Time>
            <Position>
              <LatitudeDegrees>42.42658599279820919036865234375</LatitudeDegrees>
              <LongitudeDegrees>2.78823606669902801513671875</LongitudeDegrees>
            </Position>
            <AltitudeMeters>576.4000244140625</AltitudeMeters>
            <DistanceMeters>14307.925415279</DistanceMeters>
          </Trackpoint>
          <Trackpoint>
            <Time>2021-04-01T07:24:17.000Z</Time>
            <Position>
              <LatitudeDegrees>42.4265382997691631317138671875</LatitudeDegrees>
              <LongitudeDegrees>2.78816741891205310821533203125</LongitudeDegrees>
            </Position>
            <AltitudeMeters>576</AltitudeMeters>
            <DistanceMeters>14315.669946752</DistanceMeters>
          </Trackpoint>
          <Trackpoint>
            <Time>2021-04-01T07:24:19.000Z</Time>
            <Position>
              <LatitudeDegrees>42.4265272356569766998291015625</LatitudeDegrees>
              <LongitudeDegrees>2.78814093209803104400634765625</LongitudeDegrees>
            </Position>
            <AltitudeMeters>575.79998779296875</AltitudeMeters>
            <DistanceMeters>14318.169709321</DistanceMeters>
          </Trackpoint>
          <Trackpoint>
            <Time>2021-04-01T07:24:27.000Z</Time>
            <Position>
              <LatitudeDegrees>42.4264789558947086334228515625</LatitudeDegrees>
              <LongitudeDegrees>2.78804562985897064208984375</LongitudeDegrees>
            </Position>
            <AltitudeMeters>574.79998779296875</AltitudeMeters>
            <DistanceMeters>14327.665726558</DistanceMeters>
          </Trackpoint>
          <Trackpoint>
            <Time>2021-04-01T07:24:29.000Z</Time>
            <Position>
              <LatitudeDegrees>42.4264754354953765869140625</LatitudeDegrees>
              <LongitudeDegrees>2.78802241198718547821044921875</LongitudeDegrees>
            </Position>
            <AltitudeMeters>574.5999755859375</AltitudeMeters>
            <DistanceMeters>14329.613194685</DistanceMeters>
          </Trackpoint>
          <Trackpoint>
            <Time>2021-04-01T07:24:33.000Z</Time>
            <Position>
              <LatitudeDegrees>42.42644794285297393798828125</LatitudeDegrees>
              <LongitudeDegrees>2.78796927072107791900634765625</LongitudeDegrees>
            </Position>
            <AltitudeMeters>573.79998779296875</AltitudeMeters>
            <DistanceMeters>14334.944862402</DistanceMeters>
          </Trackpoint>
          <Trackpoint>
            <Time>2021-04-01T07:24:34.000Z</Time>
            <Position>
              <LatitudeDegrees>42.4264390580356121063232421875</LatitudeDegrees>
              <LongitudeDegrees>2.78795569203794002532958984375</LongitudeDegrees>
            </Position>
            <AltitudeMeters>573.79998779296875</AltitudeMeters>
            <DistanceMeters>14336.435298179</DistanceMeters>
          </Trackpoint>
          <Trackpoint>
            <Time>2021-04-01T07:24:38.000Z</Time>
            <Position>
              <LatitudeDegrees>42.4264202825725078582763671875</LatitudeDegrees>
              <LongitudeDegrees>2.78790137730538845062255859375</LongitudeDegrees>
            </Position>
            <AltitudeMeters>573.5999755859375</AltitudeMeters>
            <DistanceMeters>14341.362046141</DistanceMeters>
          </Trackpoint>
          <Trackpoint>
            <Time>2021-04-01T07:24:40.000Z</Time>
            <Position>
              <LatitudeDegrees>42.42641081102192401885986328125</LatitudeDegrees>
              <LongitudeDegrees>2.78787405230104923248291015625</LongitudeDegrees>
            </Position>
            <AltitudeMeters>573.20001220703125</AltitudeMeters>
            <DistanceMeters>14343.840039681</DistanceMeters>
          </Trackpoint>
          <Trackpoint>
            <Time>2021-04-01T07:24:47.000Z</Time>
            <Position>
              <LatitudeDegrees>42.42637149989604949951171875</LatitudeDegrees>
              <LongitudeDegrees>2.7877822704613208770751953125</LongitudeDegrees>
            </Position>
            <AltitudeMeters>572.5999755859375</AltitudeMeters>
            <DistanceMeters>14352.557672579</DistanceMeters>
          </Trackpoint>
          <Trackpoint>
            <Time>2021-04-01T07:24:48.000Z</Time>
            <Position>
              <LatitudeDegrees>42.426366470754146575927734375</LatitudeDegrees>
              <LongitudeDegrees>2.7877688594162464141845703125</LongitudeDegrees>
            </Position>
            <AltitudeMeters>572.4000244140625</AltitudeMeters>
            <DistanceMeters>14353.796669349</DistanceMeters>
          </Trackpoint>
          <Trackpoint>
            <Time>2021-04-01T07:24:51.000Z</Time>
            <Position>
              <LatitudeDegrees>42.42634224705398082733154296875</LatitudeDegrees>
              <LongitudeDegrees>2.7877271175384521484375</LongitudeDegrees>
            </Position>
            <AltitudeMeters>572.4000244140625</AltitudeMeters>
            <DistanceMeters>14358.158592213</DistanceMeters>
          </Trackpoint>
          <Trackpoint>
            <Time>2021-04-01T07:24:56.000Z</Time>
            <Position>
              <LatitudeDegrees>42.4263079650700092315673828125</LatitudeDegrees>
              <LongitudeDegrees>2.787661068141460418701171875</LongitudeDegrees>
            </Position>
            <AltitudeMeters>571.5999755859375</AltitudeMeters>
            <DistanceMeters>14364.792110322</DistanceMeters>
          </Trackpoint>
          <Trackpoint>
            <Time>2021-04-01T07:24:57.000Z</Time>
            <Position>
              <LatitudeDegrees>42.42630201391875743865966796875</LatitudeDegrees>
              <LongitudeDegrees>2.78765277005732059478759765625</LongitudeDegrees>
            </Position>
            <AltitudeMeters>571.5999755859375</AltitudeMeters>
            <DistanceMeters>14365.737614192</DistanceMeters>
          </Trackpoint>
          <Trackpoint>
            <Time>2021-04-01T07:24:58.000Z</Time>
            <Position>
              <LatitudeDegrees>42.42629447020590305328369140625</LatitudeDegrees>
              <LongitudeDegrees>2.7876454778015613555908203125</LongitudeDegrees>
            </Position>
            <AltitudeMeters>571.4000244140625</AltitudeMeters>
            <DistanceMeters>14366.765485266</DistanceMeters>
          </Trackpoint>
          <Trackpoint>
            <Time>2021-04-01T07:25:07.000Z</Time>
            <Position>
              <LatitudeDegrees>42.42622858844697475433349609375</LatitudeDegrees>
              <LongitudeDegrees>2.78753198683261871337890625</LongitudeDegrees>
            </Position>
            <AltitudeMeters>570.4000244140625</AltitudeMeters>
            <DistanceMeters>14378.627468707</DistanceMeters>
          </Trackpoint>
          <Trackpoint>
            <Time>2021-04-01T07:25:09.000Z</Time>
            <Position>
              <LatitudeDegrees>42.426218949258327484130859375</LatitudeDegrees>
              <LongitudeDegrees>2.78750658966600894927978515625</LongitudeDegrees>
            </Position>
            <AltitudeMeters>570.20001220703125</AltitudeMeters>
            <DistanceMeters>14380.972530871</DistanceMeters>
          </Trackpoint>
          <Trackpoint>
            <Time>2021-04-01T07:25:10.000Z</Time>
            <Position>
              <LatitudeDegrees>42.4262150935828685760498046875</LatitudeDegrees>
              <LongitudeDegrees>2.78749116696417331695556640625</LongitudeDegrees>
            </Position>
            <AltitudeMeters>570</AltitudeMeters>
            <DistanceMeters>14382.309675267</DistanceMeters>
          </Trackpoint>
          <Trackpoint>
            <Time>2021-04-01T07:25:13.000Z</Time>
            <Position>
              <LatitudeDegrees>42.42619581520557403564453125</LatitudeDegrees>
              <LongitudeDegrees>2.78744347393512725830078125</LongitudeDegrees>
            </Position>
            <AltitudeMeters>570</AltitudeMeters>
            <DistanceMeters>14386.77795223</DistanceMeters>
          </Trackpoint>
          <Trackpoint>
            <Time>2021-04-01T07:25:15.000Z</Time>
            <Position>
              <LatitudeDegrees>42.42618701420724391937255859375</LatitudeDegrees>
              <LongitudeDegrees>2.78741187416017055511474609375</LongitudeDegrees>
            </Position>
            <AltitudeMeters>570</AltitudeMeters>
            <DistanceMeters>14389.551690705</DistanceMeters>
          </Trackpoint>
          <Trackpoint>
            <Time>2021-04-01T07:25:19.000Z</Time>
            <Position>
              <LatitudeDegrees>42.42615801282227039337158203125</LatitudeDegrees>
              <LongitudeDegrees>2.78735437430441379547119140625</LongitudeDegrees>
            </Position>
            <AltitudeMeters>569.4000244140625</AltitudeMeters>
            <DistanceMeters>14395.273845648</DistanceMeters>
          </Trackpoint>
          <Trackpoint>
            <Time>2021-04-01T07:25:20.000Z</Time>
            <Position>
              <LatitudeDegrees>42.426149547100067138671875</LatitudeDegrees>
              <LongitudeDegrees>2.7873430587351322174072265625</LongitudeDegrees>
            </Position>
            <AltitudeMeters>569.4000244140625</AltitudeMeters>
            <DistanceMeters>14396.597414622</DistanceMeters>
          </Trackpoint>
          <Trackpoint>
            <Time>2021-04-01T07:25:27.000Z</Time>
            <Position>
              <LatitudeDegrees>42.4261051230132579803466796875</LatitudeDegrees>
              <LongitudeDegrees>2.78724976815283298492431640625</LongitudeDegrees>
            </Position>
            <AltitudeMeters>568.20001220703125</AltitudeMeters>
            <DistanceMeters>14405.718989287</DistanceMeters>
          </Trackpoint>
          <Trackpoint>
            <Time>2021-04-01T07:25:31.000Z</Time>
            <Position>
              <LatitudeDegrees>42.42608123458921909332275390625</LatitudeDegrees>
              <LongitudeDegrees>2.78719847090542316436767578125</LongitudeDegrees>
            </Position>
            <AltitudeMeters>567.79998779296875</AltitudeMeters>
            <DistanceMeters>14410.702232229</DistanceMeters>
          </Trackpoint>
          <Trackpoint>
            <Time>2021-04-01T07:25:34.000Z</Time>
            <Position>
              <LatitudeDegrees>42.42605608887970447540283203125</LatitudeDegrees>
              <LongitudeDegrees>2.78716242872178554534912109375</LongitudeDegrees>
            </Position>
            <AltitudeMeters>567.5999755859375</AltitudeMeters>
            <DistanceMeters>14414.776208236</DistanceMeters>
          </Trackpoint>
          <Trackpoint>
            <Time>2021-04-01T07:25:38.000Z</Time>
            <Position>
              <LatitudeDegrees>42.4260194599628448486328125</LatitudeDegrees>
              <LongitudeDegrees>2.78711716644465923309326171875</LongitudeDegrees>
            </Position>
            <AltitudeMeters>567.20001220703125</AltitudeMeters>
            <DistanceMeters>14420.294307344</DistanceMeters>
          </Trackpoint>
          <Trackpoint>
            <Time>2021-04-01T07:25:41.000Z</Time>
            <Position>
              <LatitudeDegrees>42.425991632044315338134765625</LatitudeDegrees>
              <LongitudeDegrees>2.7870835550129413604736328125</LongitudeDegrees>
            </Position>
            <AltitudeMeters>566.79998779296875</AltitudeMeters>
            <DistanceMeters>14424.444048996</DistanceMeters>
          </Trackpoint>
          <Trackpoint>
            <Time>2021-04-01T07:25:45.000Z</Time>
            <Position>
              <LatitudeDegrees>42.425941340625286102294921875</LatitudeDegrees>
              <LongitudeDegrees>2.7870399691164493560791015625</LongitudeDegrees>
            </Position>
            <AltitudeMeters>566.20001220703125</AltitudeMeters>
            <DistanceMeters>14431.089127913</DistanceMeters>
          </Trackpoint>
          <Trackpoint>
            <Time>2021-04-01T07:25:49.000Z</Time>
            <Position>
              <LatitudeDegrees>42.4258989281952381134033203125</LatitudeDegrees>
              <LongitudeDegrees>2.7870101295411586761474609375</LongitudeDegrees>
            </Position>
            <AltitudeMeters>565.5999755859375</AltitudeMeters>
            <DistanceMeters>14436.408926741</DistanceMeters>
          </Trackpoint>
          <Trackpoint>
            <Time>2021-04-01T07:25:52.000Z</Time>
            <Position>
              <LatitudeDegrees>42.42587126791477203369140625</LatitudeDegrees>
              <LongitudeDegrees>2.78699160553514957427978515625</LongitudeDegrees>
            </Position>
            <AltitudeMeters>565.20001220703125</AltitudeMeters>
            <DistanceMeters>14439.844375753</DistanceMeters>
          </Trackpoint>
          <Trackpoint>
            <Time>2021-04-01T07:25:53.000Z</Time>
            <Position>
              <LatitudeDegrees>42.42586431093513965606689453125</LatitudeDegrees>
              <LongitudeDegrees>2.78698506765067577362060546875</LongitudeDegrees>
            </Position>
            <AltitudeMeters>565</AltitudeMeters>
            <DistanceMeters>14440.785092231</DistanceMeters>
          </Trackpoint>
          <Trackpoint>
            <Time>2021-04-01T07:26:01.000Z</Time>
            <Position>
              <LatitudeDegrees>42.4257913045585155487060546875</LatitudeDegrees>
              <LongitudeDegrees>2.78693561442196369171142578125</LongitudeDegrees>
            </Position>
            <AltitudeMeters>564</AltitudeMeters>
            <DistanceMeters>14449.8699642</DistanceMeters>
          </Trackpoint>
          <Trackpoint>
            <Time>2021-04-01T07:26:09.000Z</Time>
            <Position>
              <LatitudeDegrees>42.4257369898259639739990234375</LatitudeDegrees>
              <LongitudeDegrees>2.7868270687758922576904296875</LongitudeDegrees>
            </Position>
            <AltitudeMeters>563</AltitudeMeters>
            <DistanceMeters>14460.64408285</DistanceMeters>
          </Trackpoint>
          <Trackpoint>
            <Time>2021-04-01T07:26:10.000Z</Time>
            <Position>
              <LatitudeDegrees>42.42572844028472900390625</LatitudeDegrees>
              <LongitudeDegrees>2.78681608848273754119873046875</LongitudeDegrees>
            </Position>
            <AltitudeMeters>562.5999755859375</AltitudeMeters>
            <DistanceMeters>14461.953935714</DistanceMeters>
          </Trackpoint>
          <Trackpoint>
            <Time>2021-04-01T07:26:17.000Z</Time>
            <Position>
              <LatitudeDegrees>42.42568057961761951446533203125</LatitudeDegrees>
              <LongitudeDegrees>2.786718271672725677490234375</LongitudeDegrees>
            </Position>
            <AltitudeMeters>562</AltitudeMeters>
            <DistanceMeters>14471.595284526</DistanceMeters>
          </Trackpoint>
          <Trackpoint>
            <Time>2021-04-01T07:26:19.000Z</Time>
            <Position>
              <LatitudeDegrees>42.42566834203898906707763671875</LatitudeDegrees>
              <LongitudeDegrees>2.78668977320194244384765625</LongitudeDegrees>
            </Position>
            <AltitudeMeters>562</AltitudeMeters>
            <DistanceMeters>14474.303129069</DistanceMeters>
          </Trackpoint>
          <Trackpoint>
            <Time>2021-04-01T07:26:27.000Z</Time>
            <Position>
              <LatitudeDegrees>42.4256223253905773162841796875</LatitudeDegrees>
              <LongitudeDegrees>2.7865829877555370330810546875</LongitudeDegrees>
            </Position>
            <AltitudeMeters>560.79998779296875</AltitudeMeters>
            <DistanceMeters>14484.462102624</DistanceMeters>
          </Trackpoint>
          <Trackpoint>
            <Time>2021-04-01T07:26:28.000Z</Time>
            <Position>
              <LatitudeDegrees>42.42562609724700450897216796875</LatitudeDegrees>
              <LongitudeDegrees>2.78656681068241596221923828125</LongitudeDegrees>
            </Position>
            <AltitudeMeters>560.4000244140625</AltitudeMeters>
            <DistanceMeters>14485.858704396</DistanceMeters>
          </Trackpoint>
          <Trackpoint>
            <Time>2021-04-01T07:26:32.000Z</Time>
            <Position>
              <LatitudeDegrees>42.4256354011595249176025390625</LatitudeDegrees>
              <LongitudeDegrees>2.7865192852914333343505859375</LongitudeDegrees>
            </Position>
            <AltitudeMeters>559.79998779296875</AltitudeMeters>
            <DistanceMeters>14489.899295716</DistanceMeters>
          </Trackpoint>
          <Trackpoint>
            <Time>2021-04-01T07:26:33.000Z</Time>
            <Position>
              <LatitudeDegrees>42.4256374128162860870361328125</LatitudeDegrees>
              <LongitudeDegrees>2.78651165775954723358154296875</LongitudeDegrees>
            </Position>
            <AltitudeMeters>559.5999755859375</AltitudeMeters>
            <DistanceMeters>14490.564482716</DistanceMeters>
          </Trackpoint>
          <Trackpoint>
            <Time>2021-04-01T07:26:34.000Z</Time>
            <Position>
              <LatitudeDegrees>42.42564319632947444915771484375</LatitudeDegrees>
              <LongitudeDegrees>2.786509729921817779541015625</LongitudeDegrees>
            </Position>
            <AltitudeMeters>559.4000244140625</AltitudeMeters>
            <DistanceMeters>14491.222847106</DistanceMeters>
          </Trackpoint>
          <Trackpoint>
            <Time>2021-04-01T07:26:35.000Z</Time>
            <Position>
              <LatitudeDegrees>42.42565442807972431182861328125</LatitudeDegrees>
              <LongitudeDegrees>2.78650646097958087921142578125</LongitudeDegrees>
            </Position>
            <AltitudeMeters>559.20001220703125</AltitudeMeters>
            <DistanceMeters>14492.501300796</DistanceMeters>
          </Trackpoint>
          <Trackpoint>
            <Time>2021-04-01T07:26:36.000Z</Time>
            <Position>
              <LatitudeDegrees>42.42567102424800395965576171875</LatitudeDegrees>
              <LongitudeDegrees>2.78650461696088314056396484375</LongitudeDegrees>
            </Position>
            <AltitudeMeters>559</AltitudeMeters>
            <DistanceMeters>14494.356148262</DistanceMeters>
          </Trackpoint>
          <Trackpoint>
            <Time>2021-04-01T07:26:41.000Z</Time>
            <Position>
              <LatitudeDegrees>42.42574922740459442138671875</LatitudeDegrees>
              <LongitudeDegrees>2.786542586982250213623046875</LongitudeDegrees>
            </Position>
            <AltitudeMeters>558.5999755859375</AltitudeMeters>
            <DistanceMeters>14503.60259427</DistanceMeters>
          </Trackpoint>
          <Trackpoint>
            <Time>2021-04-01T07:26:42.000Z</Time>
            <Position>
              <LatitudeDegrees>42.42575601674616336822509765625</LatitudeDegrees>
              <LongitudeDegrees>2.78655122034251689910888671875</LongitudeDegrees>
            </Position>
            <AltitudeMeters>558.4000244140625</AltitudeMeters>
            <DistanceMeters>14504.63921334</DistanceMeters>
          </Trackpoint>
          <Trackpoint>
            <Time>2021-04-01T07:26:43.000Z</Time>
            <Position>
              <LatitudeDegrees>42.425769679248332977294921875</LatitudeDegrees>
              <LongitudeDegrees>2.78655641712248325347900390625</LongitudeDegrees>
            </Position>
            <AltitudeMeters>558.20001220703125</AltitudeMeters>
            <DistanceMeters>14506.217915687</DistanceMeters>
          </Trackpoint>
          <Trackpoint>
            <Time>2021-04-01T07:26:45.000Z</Time>
            <Position>
              <LatitudeDegrees>42.42579482495784759521484375</LatitudeDegrees>
              <LongitudeDegrees>2.786560021340847015380859375</LongitudeDegrees>
            </Position>
            <AltitudeMeters>558</AltitudeMeters>
            <DistanceMeters>14509.033658416</DistanceMeters>
          </Trackpoint>
          <Trackpoint>
            <Time>2021-04-01T07:26:49.000Z</Time>
            <Position>
              <LatitudeDegrees>42.4258338846266269683837890625</LatitudeDegrees>
              <LongitudeDegrees>2.7865189500153064727783203125</LongitudeDegrees>
            </Position>
            <AltitudeMeters>557.4000244140625</AltitudeMeters>
            <DistanceMeters>14514.537009794</DistanceMeters>
          </Trackpoint>
          <Trackpoint>
            <Time>2021-04-01T07:26:50.000Z</Time>
            <Position>
              <LatitudeDegrees>42.42584201507270336151123046875</LatitudeDegrees>
              <LongitudeDegrees>2.786508388817310333251953125</LongitudeDegrees>
            </Position>
            <AltitudeMeters>557.4000244140625</AltitudeMeters>
            <DistanceMeters>14515.790498247</DistanceMeters>
          </Trackpoint>
          <Trackpoint>
            <Time>2021-04-01T07:26:51.000Z</Time>
            <Position>
              <LatitudeDegrees>42.425848133862018585205078125</LatitudeDegrees>
              <LongitudeDegrees>2.78649606741964817047119140625</LongitudeDegrees>
            </Position>
            <AltitudeMeters>557.20001220703125</AltitudeMeters>
            <DistanceMeters>14517.007433963</DistanceMeters>
          </Trackpoint>
          <Trackpoint>
            <Time>2021-04-01T07:26:56.000Z</Time>
            <Position>
              <LatitudeDegrees>42.42585056461393833160400390625</LatitudeDegrees>
              <LongitudeDegrees>2.7864244021475315093994140625</LongitudeDegrees>
            </Position>
            <AltitudeMeters>556.4000244140625</AltitudeMeters>
            <DistanceMeters>14522.902154835</DistanceMeters>
          </Trackpoint>
          <Trackpoint>
            <Time>2021-04-01T07:26:58.000Z</Time>
            <Position>
              <LatitudeDegrees>42.42584486491978168487548828125</LatitudeDegrees>
              <LongitudeDegrees>2.78640939854085445404052734375</LongitudeDegrees>
            </Position>
            <AltitudeMeters>556.20001220703125</AltitudeMeters>
            <DistanceMeters>14524.285764681</DistanceMeters>
          </Trackpoint>
          <Trackpoint>
            <Time>2021-04-01T07:27:03.000Z</Time>
            <Position>
              <LatitudeDegrees>42.4258057214319705963134765625</LatitudeDegrees>
              <LongitudeDegrees>2.786342762410640716552734375</LongitudeDegrees>
            </Position>
            <AltitudeMeters>555.4000244140625</AltitudeMeters>
            <DistanceMeters>14531.281693091</DistanceMeters>
          </Trackpoint>
          <Trackpoint>
            <Time>2021-04-01T07:27:04.000Z</Time>
            <Position>
              <LatitudeDegrees>42.42579826153814792633056640625</LatitudeDegrees>
              <LongitudeDegrees>2.786331363022327423095703125</LongitudeDegrees>
            </Position>
            <AltitudeMeters>554.5999755859375</AltitudeMeters>
            <DistanceMeters>14532.531574376</DistanceMeters>
          </Trackpoint>
          <Trackpoint>
            <Time>2021-04-01T07:27:05.000Z</Time>
            <Position>
              <LatitudeDegrees>42.42578971199691295623779296875</LatitudeDegrees>
              <LongitudeDegrees>2.78632096946239471435546875</LongitudeDegrees>
            </Position>
            <AltitudeMeters>554.20001220703125</AltitudeMeters>
            <DistanceMeters>14533.813554841</DistanceMeters>
          </Trackpoint>
          <Trackpoint>
            <Time>2021-04-01T07:27:06.000Z</Time>
            <Position>
              <LatitudeDegrees>42.42578099481761455535888671875</LatitudeDegrees>
              <LongitudeDegrees>2.78631283901631832122802734375</LongitudeDegrees>
            </Position>
            <AltitudeMeters>554</AltitudeMeters>
            <DistanceMeters>14534.996627894</DistanceMeters>
          </Trackpoint>
          <Trackpoint>
            <Time>2021-04-01T07:27:07.000Z</Time>
            <Position>
              <LatitudeDegrees>42.42577009834349155426025390625</LatitudeDegrees>
              <LongitudeDegrees>2.7863030321896076202392578125</LongitudeDegrees>
            </Position>
            <AltitudeMeters>553.5999755859375</AltitudeMeters>
            <DistanceMeters>14536.45335984</DistanceMeters>
          </Trackpoint>
          <Trackpoint>
            <Time>2021-04-01T07:27:10.000Z</Time>
            <Position>
              <LatitudeDegrees>42.42574025876820087432861328125</LatitudeDegrees>
              <LongitudeDegrees>2.78627243824303150177001953125</LongitudeDegrees>
            </Position>
            <AltitudeMeters>553.20001220703125</AltitudeMeters>
            <DistanceMeters>14540.619389956</DistanceMeters>
          </Trackpoint>
          <Trackpoint>
            <Time>2021-04-01T07:27:14.000Z</Time>
            <Position>
              <LatitudeDegrees>42.425704300403594970703125</LatitudeDegrees>
              <LongitudeDegrees>2.78620689176023006439208984375</LongitudeDegrees>
            </Position>
            <AltitudeMeters>552.79998779296875</AltitudeMeters>
            <DistanceMeters>14547.32937961</DistanceMeters>
          </Trackpoint>
          <Trackpoint>
            <Time>2021-04-01T07:27:16.000Z</Time>
            <Position>
              <LatitudeDegrees>42.42570488713681697845458984375</LatitudeDegrees>
              <LongitudeDegrees>2.78617772273719310760498046875</LongitudeDegrees>
            </Position>
            <AltitudeMeters>552.5999755859375</AltitudeMeters>
            <DistanceMeters>14549.727745448</DistanceMeters>
          </Trackpoint>
          <Trackpoint>
            <Time>2021-04-01T07:27:20.000Z</Time>
            <Position>
              <LatitudeDegrees>42.42568644694983959197998046875</LatitudeDegrees>
              <LongitudeDegrees>2.78619113378226757049560546875</LongitudeDegrees>
            </Position>
            <AltitudeMeters>552.20001220703125</AltitudeMeters>
            <DistanceMeters>14552.059291291</DistanceMeters>
          </Trackpoint>
          <Trackpoint>
            <Time>2021-04-01T07:27:23.000Z</Time>
            <Position>
              <LatitudeDegrees>42.42567588575184345245361328125</LatitudeDegrees>
              <LongitudeDegrees>2.78619951568543910980224609375</LongitudeDegrees>
            </Position>
            <AltitudeMeters>552.4000244140625</AltitudeMeters>
            <DistanceMeters>14553.423181224</DistanceMeters>
          </Trackpoint>
          <Trackpoint>
            <Time>2021-04-01T07:27:27.000Z</Time>
            <Position>
              <LatitudeDegrees>42.4256618879735469818115234375</LatitudeDegrees>
              <LongitudeDegrees>2.7861930616199970245361328125</LongitudeDegrees>
            </Position>
            <AltitudeMeters>552.5999755859375</AltitudeMeters>
            <DistanceMeters>14555.069092197</DistanceMeters>
          </Trackpoint>
          <Trackpoint>
            <Time>2021-04-01T07:27:31.000Z</Time>
            <Position>
              <LatitudeDegrees>42.42567387409508228302001953125</LatitudeDegrees>
              <LongitudeDegrees>2.78620169498026371002197265625</LongitudeDegrees>
            </Position>
            <AltitudeMeters>552.79998779296875</AltitudeMeters>
            <DistanceMeters>14556.583568812</DistanceMeters>
          </Trackpoint>
          <Trackpoint>
            <Time>2021-04-01T07:27:35.000Z</Time>
            <Position>
              <LatitudeDegrees>42.42567990906536579132080078125</LatitudeDegrees>
              <LongitudeDegrees>2.78620454482734203338623046875</LongitudeDegrees>
            </Position>
            <AltitudeMeters>552.5999755859375</AltitudeMeters>
            <DistanceMeters>14557.294683628</DistanceMeters>
          </Trackpoint>
          <Trackpoint>
            <Time>2021-04-01T07:27:37.000Z</Time>
            <Position>
              <LatitudeDegrees>42.42567990906536579132080078125</LatitudeDegrees>
              <LongitudeDegrees>2.78620454482734203338623046875</LongitudeDegrees>
            </Position>
            <AltitudeMeters>552.4000244140625</AltitudeMeters>
            <DistanceMeters>14557.294683628</DistanceMeters>
          </Trackpoint>
          <Trackpoint>
            <Time>2021-04-01T07:27:38.000Z</Time>
            <Position>
              <LatitudeDegrees>42.42567990906536579132080078125</LatitudeDegrees>
              <LongitudeDegrees>2.78620454482734203338623046875</LongitudeDegrees>
            </Position>
            <AltitudeMeters>552.4000244140625</AltitudeMeters>
            <DistanceMeters>14557.294683628</DistanceMeters>
          </Trackpoint>
          <Trackpoint>
            <Time>2021-04-01T07:27:40.000Z</Time>
            <Position>
              <LatitudeDegrees>42.42567655630409717559814453125</LatitudeDegrees>
              <LongitudeDegrees>2.78620454482734203338623046875</LongitudeDegrees>
            </Position>
            <AltitudeMeters>552.4000244140625</AltitudeMeters>
            <DistanceMeters>14557.674790485</DistanceMeters>
          </Trackpoint>
          <Trackpoint>
            <Time>2021-04-01T07:27:43.000Z</Time>
            <Position>
              <LatitudeDegrees>42.42567387409508228302001953125</LatitudeDegrees>
              <LongitudeDegrees>2.78620454482734203338623046875</LongitudeDegrees>
            </Position>
            <AltitudeMeters>552.20001220703125</AltitudeMeters>
            <DistanceMeters>14557.975291341</DistanceMeters>
          </Trackpoint>
          <Trackpoint>
            <Time>2021-04-01T07:27:46.000Z</Time>
            <Position>
              <LatitudeDegrees>42.42567236535251140594482421875</LatitudeDegrees>
              <LongitudeDegrees>2.78620429337024688720703125</LongitudeDegrees>
            </Position>
            <AltitudeMeters>552.20001220703125</AltitudeMeters>
            <DistanceMeters>14558.16534477</DistanceMeters>
          </Trackpoint>
          <Trackpoint>
            <Time>2021-04-01T07:27:51.000Z</Time>
            <Position>
              <LatitudeDegrees>42.42566565982997417449951171875</LatitudeDegrees>
              <LongitudeDegrees>2.78619901277124881744384765625</LongitudeDegrees>
            </Position>
            <AltitudeMeters>552.4000244140625</AltitudeMeters>
            <DistanceMeters>14559.031079339</DistanceMeters>
          </Trackpoint>
          <Trackpoint>
            <Time>2021-04-01T07:27:57.000Z</Time>
            <Position>
              <LatitudeDegrees>42.42566071450710296630859375</LatitudeDegrees>
              <LongitudeDegrees>2.78619549237191677093505859375</LongitudeDegrees>
            </Position>
            <AltitudeMeters>552.4000244140625</AltitudeMeters>
            <DistanceMeters>14559.646922835</DistanceMeters>
          </Trackpoint>
          <Trackpoint>
            <Time>2021-04-01T07:28:11.000Z</Time>
            <Position>
              <LatitudeDegrees>42.42568359710276126861572265625</LatitudeDegrees>
              <LongitudeDegrees>2.7861501462757587432861328125</LongitudeDegrees>
            </Position>
            <AltitudeMeters>552.4000244140625</AltitudeMeters>
            <DistanceMeters>14564.159441242</DistanceMeters>
          </Trackpoint>
          <Trackpoint>
            <Time>2021-04-01T07:28:16.000Z</Time>
            <Position>
              <LatitudeDegrees>42.425758950412273406982421875</LatitudeDegrees>
              <LongitudeDegrees>2.786118127405643463134765625</LongitudeDegrees>
            </Position>
            <AltitudeMeters>552</AltitudeMeters>
            <DistanceMeters>14572.948770226</DistanceMeters>
          </Trackpoint>
          <Trackpoint>
            <Time>2021-04-01T07:28:19.000Z</Time>
            <Position>
              <LatitudeDegrees>42.42578434757888317108154296875</LatitudeDegrees>
              <LongitudeDegrees>2.78610982932150363922119140625</LongitudeDegrees>
            </Position>
            <AltitudeMeters>552</AltitudeMeters>
            <DistanceMeters>14575.856028651</DistanceMeters>
          </Trackpoint>
          <Trackpoint>
            <Time>2021-04-01T07:28:22.000Z</Time>
            <Position>
              <LatitudeDegrees>42.42581435479223728179931640625</LatitudeDegrees>
              <LongitudeDegrees>2.78610773384571075439453125</LongitudeDegrees>
            </Position>
            <AltitudeMeters>551.79998779296875</AltitudeMeters>
            <DistanceMeters>14579.199564898</DistanceMeters>
          </Trackpoint>
          <Trackpoint>
            <Time>2021-04-01T07:28:25.000Z</Time>
            <Position>
              <LatitudeDegrees>42.42583832703530788421630859375</LatitudeDegrees>
              <LongitudeDegrees>2.7860958315432071685791015625</LongitudeDegrees>
            </Position>
            <AltitudeMeters>551.4000244140625</AltitudeMeters>
            <DistanceMeters>14582.040847767</DistanceMeters>
          </Trackpoint>
          <Trackpoint>
            <Time>2021-04-01T07:28:28.000Z</Time>
            <Position>
              <LatitudeDegrees>42.4258586950600147247314453125</LatitudeDegrees>
              <LongitudeDegrees>2.78610563836991786956787109375</LongitudeDegrees>
            </Position>
            <AltitudeMeters>551.20001220703125</AltitudeMeters>
            <DistanceMeters>14584.444854615</DistanceMeters>
          </Trackpoint>
          <Trackpoint>
            <Time>2021-04-01T07:28:30.000Z</Time>
            <Position>
              <LatitudeDegrees>42.42587638087570667266845703125</LatitudeDegrees>
              <LongitudeDegrees>2.78610999695956707000732421875</LongitudeDegrees>
            </Position>
            <AltitudeMeters>551</AltitudeMeters>
            <DistanceMeters>14586.447191735</DistanceMeters>
          </Trackpoint>
          <Trackpoint>
            <Time>2021-04-01T07:28:35.000Z</Time>
            <Position>
              <LatitudeDegrees>42.42590337060391902923583984375</LatitudeDegrees>
              <LongitudeDegrees>2.78612894006073474884033203125</LongitudeDegrees>
            </Position>
            <AltitudeMeters>550.79998779296875</AltitudeMeters>
            <DistanceMeters>14589.82966226</DistanceMeters>
          </Trackpoint>
          <Trackpoint>
            <Time>2021-04-01T07:28:40.000Z</Time>
            <Position>
              <LatitudeDegrees>42.42593421600759029388427734375</LatitudeDegrees>
              <LongitudeDegrees>2.78616062365472316741943359375</LongitudeDegrees>
            </Position>
            <AltitudeMeters>550.5999755859375</AltitudeMeters>
            <DistanceMeters>14594.137423522</DistanceMeters>
          </Trackpoint>
          <Trackpoint>
            <Time>2021-04-01T07:28:43.000Z</Time>
            <Position>
              <LatitudeDegrees>42.42595081217586994171142578125</LatitudeDegrees>
              <LongitudeDegrees>2.78619113378226757049560546875</LongitudeDegrees>
            </Position>
            <AltitudeMeters>550.4000244140625</AltitudeMeters>
            <DistanceMeters>14597.25163323</DistanceMeters>
          </Trackpoint>
          <Trackpoint>
            <Time>2021-04-01T07:28:46.000Z</Time>
            <Position>
              <LatitudeDegrees>42.4259545840322971343994140625</LatitudeDegrees>
              <LongitudeDegrees>2.78622767888009548187255859375</LongitudeDegrees>
            </Position>
            <AltitudeMeters>550.4000244140625</AltitudeMeters>
            <DistanceMeters>14600.283566247</DistanceMeters>
          </Trackpoint>
          <Trackpoint>
            <Time>2021-04-01T07:28:52.000Z</Time>
            <Position>
              <LatitudeDegrees>42.42598651908338069915771484375</LatitudeDegrees>
              <LongitudeDegrees>2.78630613349378108978271484375</LongitudeDegrees>
            </Position>
            <AltitudeMeters>550.5999755859375</AltitudeMeters>
            <DistanceMeters>14607.644303891</DistanceMeters>
          </Trackpoint>
          <Trackpoint>
            <Time>2021-04-01T07:28:58.000Z</Time>
            <Position>
              <LatitudeDegrees>42.42601769976317882537841796875</LatitudeDegrees>
              <LongitudeDegrees>2.78635676018893718719482421875</LongitudeDegrees>
            </Position>
            <AltitudeMeters>550.79998779296875</AltitudeMeters>
            <DistanceMeters>14613.061660113</DistanceMeters>
          </Trackpoint>
          <Trackpoint>
            <Time>2021-04-01T07:29:00.000Z</Time>
            <Position>
              <LatitudeDegrees>42.42601401172578334808349609375</LatitudeDegrees>
              <LongitudeDegrees>2.7863707579672336578369140625</LongitudeDegrees>
            </Position>
            <AltitudeMeters>550.79998779296875</AltitudeMeters>
            <DistanceMeters>14614.282300361</DistanceMeters>
          </Trackpoint>
          <Trackpoint>
            <Time>2021-04-01T07:29:08.000Z</Time>
            <Position>
              <LatitudeDegrees>42.42604150436818599700927734375</LatitudeDegrees>
              <LongitudeDegrees>2.7863449417054653167724609375</LongitudeDegrees>
            </Position>
            <AltitudeMeters>550.5999755859375</AltitudeMeters>
            <DistanceMeters>14618.004146309</DistanceMeters>
          </Trackpoint>
          <Trackpoint>
            <Time>2021-04-01T07:29:17.000Z</Time>
            <Position>
              <LatitudeDegrees>42.4260310269892215728759765625</LatitudeDegrees>
              <LongitudeDegrees>2.7863586880266666412353515625</LongitudeDegrees>
            </Position>
            <AltitudeMeters>550.5999755859375</AltitudeMeters>
            <DistanceMeters>14619.627963516</DistanceMeters>
          </Trackpoint>
          <Trackpoint>
            <Time>2021-04-01T07:29:28.000Z</Time>
            <Position>
              <LatitudeDegrees>42.4260310269892215728759765625</LatitudeDegrees>
              <LongitudeDegrees>2.7863586880266666412353515625</LongitudeDegrees>
            </Position>
            <AltitudeMeters>550.5999755859375</AltitudeMeters>
            <DistanceMeters>14619.627963516</DistanceMeters>
          </Trackpoint>
          <Trackpoint>
            <Time>2021-04-01T07:29:31.000Z</Time>
            <Position>
              <LatitudeDegrees>42.4260310269892215728759765625</LatitudeDegrees>
              <LongitudeDegrees>2.7863586880266666412353515625</LongitudeDegrees>
            </Position>
            <AltitudeMeters>550.5999755859375</AltitudeMeters>
            <DistanceMeters>14619.627963516</DistanceMeters>
          </Trackpoint>
          <Trackpoint>
            <Time>2021-04-01T07:29:35.000Z</Time>
            <Position>
              <LatitudeDegrees>42.4260313622653484344482421875</LatitudeDegrees>
              <LongitudeDegrees>2.78637218289077281951904296875</LongitudeDegrees>
            </Position>
            <AltitudeMeters>550.5999755859375</AltitudeMeters>
            <DistanceMeters>14620.736155917</DistanceMeters>
          </Trackpoint>
          <Trackpoint>
            <Time>2021-04-01T07:29:38.000Z</Time>
            <Position>
              <LatitudeDegrees>42.42603144608438014984130859375</LatitudeDegrees>
              <LongitudeDegrees>2.7863764576613903045654296875</LongitudeDegrees>
            </Position>
            <AltitudeMeters>550.5999755859375</AltitudeMeters>
            <DistanceMeters>14621.104192799</DistanceMeters>
          </Trackpoint>
          <Trackpoint>
            <Time>2021-04-01T07:29:42.000Z</Time>
            <Position>
              <LatitudeDegrees>42.4260313622653484344482421875</LatitudeDegrees>
              <LongitudeDegrees>2.78638668358325958251953125</LongitudeDegrees>
            </Position>
            <AltitudeMeters>550.4000244140625</AltitudeMeters>
            <DistanceMeters>14621.948808711</DistanceMeters>
          </Trackpoint>
          <Trackpoint>
            <Time>2021-04-01T07:29:47.000Z</Time>
            <Position>
              <LatitudeDegrees>42.4260409176349639892578125</LatitudeDegrees>
              <LongitudeDegrees>2.78637117706239223480224609375</LongitudeDegrees>
            </Position>
            <AltitudeMeters>550.20001220703125</AltitudeMeters>
            <DistanceMeters>14623.60565609</DistanceMeters>
          </Trackpoint>
          <Trackpoint>
            <Time>2021-04-01T07:29:50.000Z</Time>
            <Position>
              <LatitudeDegrees>42.42607486434280872344970703125</LatitudeDegrees>
              <LongitudeDegrees>2.78635449707508087158203125</LongitudeDegrees>
            </Position>
            <AltitudeMeters>550.4000244140625</AltitudeMeters>
            <DistanceMeters>14627.624960353</DistanceMeters>
          </Trackpoint>
          <Trackpoint>
            <Time>2021-04-01T07:29:55.000Z</Time>
            <Position>
              <LatitudeDegrees>42.42609011940658092498779296875</LatitudeDegrees>
              <LongitudeDegrees>2.78633798472583293914794921875</LongitudeDegrees>
            </Position>
            <AltitudeMeters>550.4000244140625</AltitudeMeters>
            <DistanceMeters>14629.80022127</DistanceMeters>
          </Trackpoint>
          <Trackpoint>
            <Time>2021-04-01T07:30:02.000Z</Time>
            <Position>
              <LatitudeDegrees>42.42609213106334209442138671875</LatitudeDegrees>
              <LongitudeDegrees>2.7863087318837642669677734375</LongitudeDegrees>
            </Position>
            <AltitudeMeters>550.20001220703125</AltitudeMeters>
            <DistanceMeters>14632.215470612</DistanceMeters>
          </Trackpoint>
          <Trackpoint>
            <Time>2021-04-01T07:30:03.000Z</Time>
            <Position>
              <LatitudeDegrees>42.42609213106334209442138671875</LatitudeDegrees>
              <LongitudeDegrees>2.7863087318837642669677734375</LongitudeDegrees>
            </Position>
            <AltitudeMeters>550.20001220703125</AltitudeMeters>
            <DistanceMeters>14632.215470612</DistanceMeters>
          </Trackpoint>
          <Trackpoint>
            <Time>2021-04-01T07:30:04.000Z</Time>
            <Position>
              <LatitudeDegrees>42.42609213106334209442138671875</LatitudeDegrees>
              <LongitudeDegrees>2.7863087318837642669677734375</LongitudeDegrees>
            </Position>
            <AltitudeMeters>550.20001220703125</AltitudeMeters>
            <DistanceMeters>14632.215470612</DistanceMeters>
          </Trackpoint>
          <Trackpoint>
            <Time>2021-04-01T07:30:05.000Z</Time>
            <Position>
              <LatitudeDegrees>42.42609213106334209442138671875</LatitudeDegrees>
              <LongitudeDegrees>2.7863087318837642669677734375</LongitudeDegrees>
            </Position>
            <AltitudeMeters>550.20001220703125</AltitudeMeters>
            <DistanceMeters>14632.215470612</DistanceMeters>
          </Trackpoint>
          <Trackpoint>
            <Time>2021-04-01T07:30:06.000Z</Time>
            <Position>
              <LatitudeDegrees>42.42609213106334209442138671875</LatitudeDegrees>
              <LongitudeDegrees>2.7863087318837642669677734375</LongitudeDegrees>
            </Position>
            <AltitudeMeters>550.20001220703125</AltitudeMeters>
            <DistanceMeters>14632.215470612</DistanceMeters>
          </Trackpoint>
          <Trackpoint>
            <Time>2021-04-01T07:30:13.000Z</Time>
            <Position>
              <LatitudeDegrees>42.42609213106334209442138671875</LatitudeDegrees>
              <LongitudeDegrees>2.7863087318837642669677734375</LongitudeDegrees>
            </Position>
            <AltitudeMeters>550.20001220703125</AltitudeMeters>
            <DistanceMeters>14632.215470612</DistanceMeters>
          </Trackpoint>
          <Trackpoint>
            <Time>2021-04-01T07:30:30.000Z</Time>
            <Position>
              <LatitudeDegrees>42.4261213839054107666015625</LatitudeDegrees>
              <LongitudeDegrees>2.7863094024360179901123046875</LongitudeDegrees>
            </Position>
            <AltitudeMeters>550.4000244140625</AltitudeMeters>
            <DistanceMeters>14635.471435868</DistanceMeters>
          </Trackpoint>
          <Trackpoint>
            <Time>2021-04-01T07:30:38.000Z</Time>
            <Position>
              <LatitudeDegrees>42.42613353766500949859619140625</LatitudeDegrees>
              <LongitudeDegrees>2.78632289730012416839599609375</LongitudeDegrees>
            </Position>
            <AltitudeMeters>550</AltitudeMeters>
            <DistanceMeters>14637.221063232</DistanceMeters>
          </Trackpoint>
          <Trackpoint>
            <Time>2021-04-01T07:30:42.000Z</Time>
            <Position>
              <LatitudeDegrees>42.426159940659999847412109375</LatitudeDegrees>
              <LongitudeDegrees>2.786334715783596038818359375</LongitudeDegrees>
            </Position>
            <AltitudeMeters>549</AltitudeMeters>
            <DistanceMeters>14640.317826249</DistanceMeters>
          </Trackpoint>
          <Trackpoint>
            <Time>2021-04-01T07:30:43.000Z</Time>
            <Position>
              <LatitudeDegrees>42.42617276497185230255126953125</LatitudeDegrees>
              <LongitudeDegrees>2.78633848764002323150634765625</LongitudeDegrees>
            </Position>
            <AltitudeMeters>548.5999755859375</AltitudeMeters>
            <DistanceMeters>14641.777654335</DistanceMeters>
          </Trackpoint>
          <Trackpoint>
            <Time>2021-04-01T07:30:44.000Z</Time>
            <Position>
              <LatitudeDegrees>42.426184080541133880615234375</LatitudeDegrees>
              <LongitudeDegrees>2.78634083457291126251220703125</LongitudeDegrees>
            </Position>
            <AltitudeMeters>548.5999755859375</AltitudeMeters>
            <DistanceMeters>14643.049025124</DistanceMeters>
          </Trackpoint>
          <Trackpoint>
            <Time>2021-04-01T07:30:49.000Z</Time>
            <Position>
              <LatitudeDegrees>42.42619656957685947418212890625</LatitudeDegrees>
              <LongitudeDegrees>2.7863229811191558837890625</LongitudeDegrees>
            </Position>
            <AltitudeMeters>547.79998779296875</AltitudeMeters>
            <DistanceMeters>14645.069320784</DistanceMeters>
          </Trackpoint>
          <Trackpoint>
            <Time>2021-04-01T07:30:50.000Z</Time>
            <Position>
              <LatitudeDegrees>42.42619019933044910430908203125</LatitudeDegrees>
              <LongitudeDegrees>2.78631937690079212188720703125</LongitudeDegrees>
            </Position>
            <AltitudeMeters>547.79998779296875</AltitudeMeters>
            <DistanceMeters>14645.841321461</DistanceMeters>
          </Trackpoint>
          <Trackpoint>
            <Time>2021-04-01T07:30:55.000Z</Time>
            <Position>
              <LatitudeDegrees>42.426130771636962890625</LatitudeDegrees>
              <LongitudeDegrees>2.78628165833652019500732421875</LongitudeDegrees>
            </Position>
            <AltitudeMeters>547.4000244140625</AltitudeMeters>
            <DistanceMeters>14653.146644984</DistanceMeters>
          </Trackpoint>
          <Trackpoint>
            <Time>2021-04-01T07:30:58.000Z</Time>
            <Position>
              <LatitudeDegrees>42.426106296479701995849609375</LatitudeDegrees>
              <LongitudeDegrees>2.78626103885471820831298828125</LongitudeDegrees>
            </Position>
            <AltitudeMeters>547.20001220703125</AltitudeMeters>
            <DistanceMeters>14656.355116139</DistanceMeters>
          </Trackpoint>
          <Trackpoint>
            <Time>2021-04-01T07:30:59.000Z</Time>
            <Position>
              <LatitudeDegrees>42.426095567643642425537109375</LatitudeDegrees>
              <LongitudeDegrees>2.7862584404647350311279296875</LongitudeDegrees>
            </Position>
            <AltitudeMeters>547.20001220703125</AltitudeMeters>
            <DistanceMeters>14657.572051854</DistanceMeters>
          </Trackpoint>
          <Trackpoint>
            <Time>2021-04-01T07:31:01.000Z</Time>
            <Position>
              <LatitudeDegrees>42.4260866828262805938720703125</LatitudeDegrees>
              <LongitudeDegrees>2.786271013319492340087890625</LongitudeDegrees>
            </Position>
            <AltitudeMeters>547.20001220703125</AltitudeMeters>
            <DistanceMeters>14659.000616615</DistanceMeters>
          </Trackpoint>
          <Trackpoint>
            <Time>2021-04-01T07:31:03.000Z</Time>
            <Position>
              <LatitudeDegrees>42.42609028704464435577392578125</LatitudeDegrees>
              <LongitudeDegrees>2.78627461753785610198974609375</LongitudeDegrees>
            </Position>
            <AltitudeMeters>547.20001220703125</AltitudeMeters>
            <DistanceMeters>14659.503450724</DistanceMeters>
          </Trackpoint>
          <Trackpoint>
            <Time>2021-04-01T07:31:05.000Z</Time>
            <Position>
              <LatitudeDegrees>42.426077462732791900634765625</LatitudeDegrees>
              <LongitudeDegrees>2.78627394698560237884521484375</LongitudeDegrees>
            </Position>
            <AltitudeMeters>547</AltitudeMeters>
            <DistanceMeters>14660.935172538</DistanceMeters>
          </Trackpoint>
          <Trackpoint>
            <Time>2021-04-01T07:31:07.000Z</Time>
            <Position>
              <LatitudeDegrees>42.426077462732791900634765625</LatitudeDegrees>
              <LongitudeDegrees>2.7862661518156528472900390625</LongitudeDegrees>
            </Position>
            <AltitudeMeters>547</AltitudeMeters>
            <DistanceMeters>14661.572631117</DistanceMeters>
          </Trackpoint>
          <Trackpoint>
            <Time>2021-04-01T07:31:10.000Z</Time>
            <Position>
              <LatitudeDegrees>42.4260632134974002838134765625</LatitudeDegrees>
              <LongitudeDegrees>2.7862574346363544464111328125</LongitudeDegrees>
            </Position>
            <AltitudeMeters>547</AltitudeMeters>
            <DistanceMeters>14663.314499563</DistanceMeters>
          </Trackpoint>
          <Trackpoint>
            <Time>2021-04-01T07:31:13.000Z</Time>
            <Position>
              <LatitudeDegrees>42.4260481260716915130615234375</LatitudeDegrees>
              <LongitudeDegrees>2.78625131584703922271728515625</LongitudeDegrees>
            </Position>
            <AltitudeMeters>547</AltitudeMeters>
            <DistanceMeters>14665.069280481</DistanceMeters>
          </Trackpoint>
          <Trackpoint>
            <Time>2021-04-01T07:31:14.000Z</Time>
            <Position>
              <LatitudeDegrees>42.426056005060672760009765625</LatitudeDegrees>
              <LongitudeDegrees>2.78625399805605411529541015625</LongitudeDegrees>
            </Position>
            <AltitudeMeters>547</AltitudeMeters>
            <DistanceMeters>14665.975777561</DistanceMeters>
          </Trackpoint>
          <Trackpoint>
            <Time>2021-04-01T07:31:20.000Z</Time>
            <Position>
              <LatitudeDegrees>42.42605659179389476776123046875</LatitudeDegrees>
              <LongitudeDegrees>2.78623513877391815185546875</LongitudeDegrees>
            </Position>
            <AltitudeMeters>547.20001220703125</AltitudeMeters>
            <DistanceMeters>14667.52561637</DistanceMeters>
          </Trackpoint>
          <Trackpoint>
            <Time>2021-04-01T07:31:34.000Z</Time>
            <Position>
              <LatitudeDegrees>42.42605768144130706787109375</LatitudeDegrees>
              <LongitudeDegrees>2.78623513877391815185546875</LongitudeDegrees>
            </Position>
            <AltitudeMeters>547.20001220703125</AltitudeMeters>
            <DistanceMeters>14667.660004438</DistanceMeters>
          </Trackpoint>
          <Trackpoint>
            <Time>2021-04-01T07:31:44.000Z</Time>
            <Position>
              <LatitudeDegrees>42.42606438696384429931640625</LatitudeDegrees>
              <LongitudeDegrees>2.78622114099562168121337890625</LongitudeDegrees>
            </Position>
            <AltitudeMeters>547</AltitudeMeters>
            <DistanceMeters>14669.033789711</DistanceMeters>
          </Trackpoint>
          <Trackpoint>
            <Time>2021-04-01T07:31:53.000Z</Time>
            <Position>
              <LatitudeDegrees>42.42606832645833492279052734375</LatitudeDegrees>
              <LongitudeDegrees>2.78620873577892780303955078125</LongitudeDegrees>
            </Position>
            <AltitudeMeters>546.79998779296875</AltitudeMeters>
            <DistanceMeters>14670.141982112</DistanceMeters>
          </Trackpoint>
          <Trackpoint>
            <Time>2021-04-01T07:31:59.000Z</Time>
            <Position>
              <LatitudeDegrees>42.4260712601244449615478515625</LatitudeDegrees>
              <LongitudeDegrees>2.7862071432173252105712890625</LongitudeDegrees>
            </Position>
            <AltitudeMeters>546.79998779296875</AltitudeMeters>
            <DistanceMeters>14670.497539519</DistanceMeters>
          </Trackpoint>
          <Trackpoint>
            <Time>2021-04-01T07:32:07.000Z</Time>
            <Position>
              <LatitudeDegrees>42.42609347216784954071044921875</LatitudeDegrees>
              <LongitudeDegrees>2.7862356416881084442138671875</LongitudeDegrees>
            </Position>
            <AltitudeMeters>546.4000244140625</AltitudeMeters>
            <DistanceMeters>14673.902626619</DistanceMeters>
          </Trackpoint>
          <Trackpoint>
            <Time>2021-04-01T07:32:24.000Z</Time>
            <Position>
              <LatitudeDegrees>42.42608978413045406341552734375</LatitudeDegrees>
              <LongitudeDegrees>2.7862477116286754608154296875</LongitudeDegrees>
            </Position>
            <AltitudeMeters>546.5999755859375</AltitudeMeters>
            <DistanceMeters>14674.977731165</DistanceMeters>
          </Trackpoint>
          <Trackpoint>
            <Time>2021-04-01T07:32:38.000Z</Time>
            <Position>
              <LatitudeDegrees>42.4260757863521575927734375</LatitudeDegrees>
              <LongitudeDegrees>2.786260284483432769775390625</LongitudeDegrees>
            </Position>
            <AltitudeMeters>546.5999755859375</AltitudeMeters>
            <DistanceMeters>14676.849540359</DistanceMeters>
          </Trackpoint>
          <Trackpoint>
            <Time>2021-04-01T07:32:51.000Z</Time>
            <Position>
              <LatitudeDegrees>42.4260534904897212982177734375</LatitudeDegrees>
              <LongitudeDegrees>2.78626992367208003997802734375</LongitudeDegrees>
            </Position>
            <AltitudeMeters>546.5999755859375</AltitudeMeters>
            <DistanceMeters>14679.455421685</DistanceMeters>
          </Trackpoint>
          <Trackpoint>
            <Time>2021-04-01T07:33:01.000Z</Time>
            <Position>
              <LatitudeDegrees>42.426055334508419036865234375</LatitudeDegrees>
              <LongitudeDegrees>2.78626992367208003997802734375</LongitudeDegrees>
            </Position>
            <AltitudeMeters>546.4000244140625</AltitudeMeters>
            <DistanceMeters>14679.667907878</DistanceMeters>
          </Trackpoint>
          <Trackpoint>
            <Time>2021-04-01T07:33:31.000Z</Time>
            <Position>
              <LatitudeDegrees>42.42610570974647998809814453125</LatitudeDegrees>
              <LongitudeDegrees>2.78624930419027805328369140625</LongitudeDegrees>
            </Position>
            <AltitudeMeters>546.20001220703125</AltitudeMeters>
            <DistanceMeters>14685.524977146</DistanceMeters>
          </Trackpoint>
          <Trackpoint>
            <Time>2021-04-01T07:33:35.000Z</Time>
            <Position>
              <LatitudeDegrees>42.42610570974647998809814453125</LatitudeDegrees>
              <LongitudeDegrees>2.78624779544770717620849609375</LongitudeDegrees>
            </Position>
            <AltitudeMeters>546.20001220703125</AltitudeMeters>
            <DistanceMeters>14685.659365215</DistanceMeters>
          </Trackpoint>
          <Trackpoint>
            <Time>2021-04-01T07:33:38.000Z</Time>
            <Position>
              <LatitudeDegrees>42.42610688321292400360107421875</LatitudeDegrees>
              <LongitudeDegrees>2.78623857535421848297119140625</LongitudeDegrees>
            </Position>
            <AltitudeMeters>546.20001220703125</AltitudeMeters>
            <DistanceMeters>14686.437192394</DistanceMeters>
          </Trackpoint>
          <Trackpoint>
            <Time>2021-04-01T07:33:45.000Z</Time>
            <Position>
              <LatitudeDegrees>42.42610939778387546539306640625</LatitudeDegrees>
              <LongitudeDegrees>2.7862329594790935516357421875</LongitudeDegrees>
            </Position>
            <AltitudeMeters>546.20001220703125</AltitudeMeters>
            <DistanceMeters>14686.974744667</DistanceMeters>
          </Trackpoint>
          <Trackpoint>
            <Time>2021-04-01T07:33:47.000Z</Time>
            <Position>
              <LatitudeDegrees>42.426108978688716888427734375</LatitudeDegrees>
              <LongitudeDegrees>2.7862329594790935516357421875</LongitudeDegrees>
            </Position>
            <AltitudeMeters>546.20001220703125</AltitudeMeters>
            <DistanceMeters>14686.974744667</DistanceMeters>
          </Trackpoint>
          <Trackpoint>
            <Time>2021-04-01T07:33:48.000Z</Time>
            <Position>
              <LatitudeDegrees>42.4261088110506534576416015625</LatitudeDegrees>
              <LongitudeDegrees>2.7862329594790935516357421875</LongitudeDegrees>
            </Position>
            <AltitudeMeters>546.20001220703125</AltitudeMeters>
            <DistanceMeters>14686.974744667</DistanceMeters>
          </Trackpoint>
          <Trackpoint>
            <Time>2021-04-01T07:33:51.000Z</Time>
            <Position>
              <LatitudeDegrees>42.4261074699461460113525390625</LatitudeDegrees>
              <LongitudeDegrees>2.7862329594790935516357421875</LongitudeDegrees>
            </Position>
            <AltitudeMeters>546.20001220703125</AltitudeMeters>
            <DistanceMeters>14687.109132736</DistanceMeters>
          </Trackpoint>
          <Trackpoint>
            <Time>2021-04-01T07:33:57.000Z</Time>
            <Position>
              <LatitudeDegrees>42.42610252462327480316162109375</LatitudeDegrees>
              <LongitudeDegrees>2.7862332947552204132080078125</LongitudeDegrees>
            </Position>
            <AltitudeMeters>546.20001220703125</AltitudeMeters>
            <DistanceMeters>14687.663228936</DistanceMeters>
          </Trackpoint>
          <Trackpoint>
            <Time>2021-04-01T07:34:01.000Z</Time>
            <Position>
              <LatitudeDegrees>42.426101267337799072265625</LatitudeDegrees>
              <LongitudeDegrees>2.78623782098293304443359375</LongitudeDegrees>
            </Position>
            <AltitudeMeters>546.20001220703125</AltitudeMeters>
            <DistanceMeters>14688.055034117</DistanceMeters>
          </Trackpoint>
          <Trackpoint>
            <Time>2021-04-01T07:34:22.000Z</Time>
            <Position>
              <LatitudeDegrees>42.426086850464344024658203125</LatitudeDegrees>
              <LongitudeDegrees>2.78624720871448516845703125</LongitudeDegrees>
            </Position>
            <AltitudeMeters>546.5999755859375</AltitudeMeters>
            <DistanceMeters>14689.832821155</DistanceMeters>
          </Trackpoint>
          <Trackpoint>
            <Time>2021-04-01T07:34:33.000Z</Time>
            <Position>
              <LatitudeDegrees>42.42608257569372653961181640625</LatitudeDegrees>
              <LongitudeDegrees>2.78624930419027805328369140625</LongitudeDegrees>
            </Position>
            <AltitudeMeters>546.4000244140625</AltitudeMeters>
            <DistanceMeters>14690.326594447</DistanceMeters>
          </Trackpoint>
          <Trackpoint>
            <Time>2021-04-01T07:34:36.000Z</Time>
            <Position>
              <LatitudeDegrees>42.42608073167502880096435546875</LatitudeDegrees>
              <LongitudeDegrees>2.78624963946640491485595703125</LongitudeDegrees>
            </Position>
            <AltitudeMeters>546.4000244140625</AltitudeMeters>
            <DistanceMeters>14690.53908064</DistanceMeters>
          </Trackpoint>
          <Trackpoint>
            <Time>2021-04-01T07:34:50.000Z</Time>
            <Position>
              <LatitudeDegrees>42.4260729365050792694091796875</LatitudeDegrees>
              <LongitudeDegrees>2.7862510643899440765380859375</LongitudeDegrees>
            </Position>
            <AltitudeMeters>546.4000244140625</AltitudeMeters>
            <DistanceMeters>14691.420322136</DistanceMeters>
          </Trackpoint>
          <Trackpoint>
            <Time>2021-04-01T07:34:53.000Z</Time>
            <Position>
              <LatitudeDegrees>42.4260729365050792694091796875</LatitudeDegrees>
              <LongitudeDegrees>2.7862517349421977996826171875</LongitudeDegrees>
            </Position>
            <AltitudeMeters>546.4000244140625</AltitudeMeters>
            <DistanceMeters>14691.515348851</DistanceMeters>
          </Trackpoint>
          <Trackpoint>
            <Time>2021-04-01T07:35:04.000Z</Time>
            <Position>
              <LatitudeDegrees>42.42607167921960353851318359375</LatitudeDegrees>
              <LongitudeDegrees>2.78625533916056156158447265625</LongitudeDegrees>
            </Position>
            <AltitudeMeters>546.4000244140625</AltitudeMeters>
            <DistanceMeters>14691.844531046</DistanceMeters>
          </Trackpoint>
          <Trackpoint>
            <Time>2021-04-01T07:35:06.000Z</Time>
            <Position>
              <LatitudeDegrees>42.4260715954005718231201171875</LatitudeDegrees>
              <LongitudeDegrees>2.78625600971281528472900390625</LongitudeDegrees>
            </Position>
            <AltitudeMeters>546.4000244140625</AltitudeMeters>
            <DistanceMeters>14691.844531046</DistanceMeters>
          </Trackpoint>
          <Trackpoint>
            <Time>2021-04-01T07:35:15.000Z</Time>
            <Position>
              <LatitudeDegrees>42.426070757210254669189453125</LatitudeDegrees>
              <LongitudeDegrees>2.78625718317925930023193359375</LongitudeDegrees>
            </Position>
            <AltitudeMeters>546.4000244140625</AltitudeMeters>
            <DistanceMeters>14691.978919114</DistanceMeters>
          </Trackpoint>
          <Trackpoint>
            <Time>2021-04-01T07:35:27.000Z</Time>
            <Position>
              <LatitudeDegrees>42.4260685779154300689697265625</LatitudeDegrees>
              <LongitudeDegrees>2.7862560935318470001220703125</LongitudeDegrees>
            </Position>
            <AltitudeMeters>546.4000244140625</AltitudeMeters>
            <DistanceMeters>14692.230336168</DistanceMeters>
          </Trackpoint>
          <Trackpoint>
            <Time>2021-04-01T07:35:33.000Z</Time>
            <Position>
              <LatitudeDegrees>42.4260685779154300689697265625</LatitudeDegrees>
              <LongitudeDegrees>2.78625600971281528472900390625</LongitudeDegrees>
            </Position>
            <AltitudeMeters>546.4000244140625</AltitudeMeters>
            <DistanceMeters>14692.230336168</DistanceMeters>
          </Trackpoint>
          <Trackpoint>
            <Time>2021-04-01T07:35:36.000Z</Time>
            <Position>
              <LatitudeDegrees>42.42606849409639835357666015625</LatitudeDegrees>
              <LongitudeDegrees>2.78625600971281528472900390625</LongitudeDegrees>
            </Position>
            <AltitudeMeters>546.4000244140625</AltitudeMeters>
            <DistanceMeters>14692.230336168</DistanceMeters>
          </Trackpoint>
          <Trackpoint>
            <Time>2021-04-01T07:35:42.000Z</Time>
            <Position>
              <LatitudeDegrees>42.42606841027736663818359375</LatitudeDegrees>
              <LongitudeDegrees>2.7862559258937835693359375</LongitudeDegrees>
            </Position>
            <AltitudeMeters>546.4000244140625</AltitudeMeters>
            <DistanceMeters>14692.230336168</DistanceMeters>
          </Trackpoint>
          <Trackpoint>
            <Time>2021-04-01T07:35:46.000Z</Time>
            <Position>
              <LatitudeDegrees>42.42606832645833492279052734375</LatitudeDegrees>
              <LongitudeDegrees>2.7862559258937835693359375</LongitudeDegrees>
            </Position>
            <AltitudeMeters>546.4000244140625</AltitudeMeters>
            <DistanceMeters>14692.230336168</DistanceMeters>
          </Trackpoint>
          <Trackpoint>
            <Time>2021-04-01T07:35:52.000Z</Time>
            <Position>
              <LatitudeDegrees>42.42606815882027149200439453125</LatitudeDegrees>
              <LongitudeDegrees>2.78625584207475185394287109375</LongitudeDegrees>
            </Position>
            <AltitudeMeters>546.4000244140625</AltitudeMeters>
            <DistanceMeters>14692.230336168</DistanceMeters>
          </Trackpoint>
          <Trackpoint>
            <Time>2021-04-01T07:35:58.000Z</Time>
            <Position>
              <LatitudeDegrees>42.426068075001239776611328125</LatitudeDegrees>
              <LongitudeDegrees>2.7862557582557201385498046875</LongitudeDegrees>
            </Position>
            <AltitudeMeters>546.4000244140625</AltitudeMeters>
            <DistanceMeters>14692.230336168</DistanceMeters>
          </Trackpoint>
          <Trackpoint>
            <Time>2021-04-01T07:36:04.000Z</Time>
            <Position>
              <LatitudeDegrees>42.4260679073631763458251953125</LatitudeDegrees>
              <LongitudeDegrees>2.7862557582557201385498046875</LongitudeDegrees>
            </Position>
            <AltitudeMeters>546.4000244140625</AltitudeMeters>
            <DistanceMeters>14692.325362882</DistanceMeters>
          </Trackpoint>
          <Trackpoint>
            <Time>2021-04-01T07:36:12.000Z</Time>
            <Position>
              <LatitudeDegrees>42.4260677397251129150390625</LatitudeDegrees>
              <LongitudeDegrees>2.786255590617656707763671875</LongitudeDegrees>
            </Position>
            <AltitudeMeters>546.4000244140625</AltitudeMeters>
            <DistanceMeters>14692.325362882</DistanceMeters>
          </Trackpoint>
          <Trackpoint>
            <Time>2021-04-01T07:36:15.000Z</Time>
            <Position>
              <LatitudeDegrees>42.4260677397251129150390625</LatitudeDegrees>
              <LongitudeDegrees>2.78625550679862499237060546875</LongitudeDegrees>
            </Position>
            <AltitudeMeters>546.4000244140625</AltitudeMeters>
            <DistanceMeters>14692.325362882</DistanceMeters>
          </Trackpoint>
          <Trackpoint>
            <Time>2021-04-01T07:36:17.000Z</Time>
            <Position>
              <LatitudeDegrees>42.42606765590608119964599609375</LatitudeDegrees>
              <LongitudeDegrees>2.78625550679862499237060546875</LongitudeDegrees>
            </Position>
            <AltitudeMeters>546.4000244140625</AltitudeMeters>
            <DistanceMeters>14692.325362882</DistanceMeters>
          </Trackpoint>
          <Trackpoint>
            <Time>2021-04-01T07:36:18.000Z</Time>
            <Position>
              <LatitudeDegrees>42.42606765590608119964599609375</LatitudeDegrees>
              <LongitudeDegrees>2.7862554229795932769775390625</LongitudeDegrees>
            </Position>
            <AltitudeMeters>546.4000244140625</AltitudeMeters>
            <DistanceMeters>14692.325362882</DistanceMeters>
          </Trackpoint>
          <Trackpoint>
            <Time>2021-04-01T07:36:30.000Z</Time>
            <Position>
              <LatitudeDegrees>42.42606765590608119964599609375</LatitudeDegrees>
              <LongitudeDegrees>2.78625517152249813079833984375</LongitudeDegrees>
            </Position>
            <AltitudeMeters>546.4000244140625</AltitudeMeters>
            <DistanceMeters>14692.325362882</DistanceMeters>
          </Trackpoint>
          <Trackpoint>
            <Time>2021-04-01T07:36:31.000Z</Time>
            <Position>
              <LatitudeDegrees>42.42606765590608119964599609375</LatitudeDegrees>
              <LongitudeDegrees>2.78625517152249813079833984375</LongitudeDegrees>
            </Position>
            <AltitudeMeters>546.4000244140625</AltitudeMeters>
            <DistanceMeters>14692.325362882</DistanceMeters>
          </Trackpoint>
          <Trackpoint>
            <Time>2021-04-01T07:36:32.000Z</Time>
            <Position>
              <LatitudeDegrees>42.42606765590608119964599609375</LatitudeDegrees>
              <LongitudeDegrees>2.78625517152249813079833984375</LongitudeDegrees>
            </Position>
            <AltitudeMeters>546.4000244140625</AltitudeMeters>
            <DistanceMeters>14692.325362882</DistanceMeters>
          </Trackpoint>
          <Trackpoint>
            <Time>2021-04-01T07:36:39.000Z</Time>
            <Position>
              <LatitudeDegrees>42.42606782354414463043212890625</LatitudeDegrees>
              <LongitudeDegrees>2.7862550877034664154052734375</LongitudeDegrees>
            </Position>
            <AltitudeMeters>546.4000244140625</AltitudeMeters>
            <DistanceMeters>14692.325362882</DistanceMeters>
          </Trackpoint>
          <Trackpoint>
            <Time>2021-04-01T07:36:45.000Z</Time>
            <Position>
              <LatitudeDegrees>42.4260679073631763458251953125</LatitudeDegrees>
              <LongitudeDegrees>2.7862550877034664154052734375</LongitudeDegrees>
            </Position>
            <AltitudeMeters>546.4000244140625</AltitudeMeters>
            <DistanceMeters>14692.325362882</DistanceMeters>
          </Trackpoint>
          <Trackpoint>
            <Time>2021-04-01T07:36:48.000Z</Time>
            <Position>
              <LatitudeDegrees>42.42606799118220806121826171875</LatitudeDegrees>
              <LongitudeDegrees>2.7862550877034664154052734375</LongitudeDegrees>
            </Position>
            <AltitudeMeters>546.4000244140625</AltitudeMeters>
            <DistanceMeters>14692.325362882</DistanceMeters>
          </Trackpoint>
          <Trackpoint>
            <Time>2021-04-01T07:36:50.000Z</Time>
            <Position>
              <LatitudeDegrees>42.426068075001239776611328125</LatitudeDegrees>
              <LongitudeDegrees>2.7862550877034664154052734375</LongitudeDegrees>
            </Position>
            <AltitudeMeters>546.4000244140625</AltitudeMeters>
            <DistanceMeters>14692.325362882</DistanceMeters>
          </Trackpoint>
          <Trackpoint>
            <Time>2021-04-01T07:36:52.000Z</Time>
            <Position>
              <LatitudeDegrees>42.426068075001239776611328125</LatitudeDegrees>
              <LongitudeDegrees>2.7862550877034664154052734375</LongitudeDegrees>
            </Position>
            <AltitudeMeters>546.4000244140625</AltitudeMeters>
            <DistanceMeters>14692.325362882</DistanceMeters>
          </Trackpoint>
          <Trackpoint>
            <Time>2021-04-01T07:36:56.000Z</Time>
            <Position>
              <LatitudeDegrees>42.42606815882027149200439453125</LatitudeDegrees>
              <LongitudeDegrees>2.7862550877034664154052734375</LongitudeDegrees>
            </Position>
            <AltitudeMeters>546.4000244140625</AltitudeMeters>
            <DistanceMeters>14692.325362882</DistanceMeters>
          </Trackpoint>
          <Trackpoint>
            <Time>2021-04-01T07:37:02.000Z</Time>
            <Position>
              <LatitudeDegrees>42.42606832645833492279052734375</LatitudeDegrees>
              <LongitudeDegrees>2.78625500388443470001220703125</LongitudeDegrees>
            </Position>
            <AltitudeMeters>546.4000244140625</AltitudeMeters>
            <DistanceMeters>14692.325362882</DistanceMeters>
          </Trackpoint>
          <Trackpoint>
            <Time>2021-04-01T07:37:06.000Z</Time>
            <Position>
              <LatitudeDegrees>42.42606841027736663818359375</LatitudeDegrees>
              <LongitudeDegrees>2.78625500388443470001220703125</LongitudeDegrees>
            </Position>
            <AltitudeMeters>546.4000244140625</AltitudeMeters>
            <DistanceMeters>14692.325362882</DistanceMeters>
          </Trackpoint>
          <Trackpoint>
            <Time>2021-04-01T07:37:09.000Z</Time>
            <Position>
              <LatitudeDegrees>42.42606849409639835357666015625</LatitudeDegrees>
              <LongitudeDegrees>2.786254920065402984619140625</LongitudeDegrees>
            </Position>
            <AltitudeMeters>546.4000244140625</AltitudeMeters>
            <DistanceMeters>14692.325362882</DistanceMeters>
          </Trackpoint>
          <Trackpoint>
            <Time>2021-04-01T07:37:18.000Z</Time>
            <Position>
              <LatitudeDegrees>42.426068745553493499755859375</LatitudeDegrees>
              <LongitudeDegrees>2.7862547524273395538330078125</LongitudeDegrees>
            </Position>
            <AltitudeMeters>546.4000244140625</AltitudeMeters>
            <DistanceMeters>14692.325362882</DistanceMeters>
          </Trackpoint>
          <Trackpoint>
            <Time>2021-04-01T07:37:25.000Z</Time>
            <Position>
              <LatitudeDegrees>42.42606899701058864593505859375</LatitudeDegrees>
              <LongitudeDegrees>2.78625450097024440765380859375</LongitudeDegrees>
            </Position>
            <AltitudeMeters>546.4000244140625</AltitudeMeters>
            <DistanceMeters>14692.325362882</DistanceMeters>
          </Trackpoint>
          <Trackpoint>
            <Time>2021-04-01T07:37:28.000Z</Time>
            <Position>
              <LatitudeDegrees>42.426069080829620361328125</LatitudeDegrees>
              <LongitudeDegrees>2.7862544171512126922607421875</LongitudeDegrees>
            </Position>
            <AltitudeMeters>546.4000244140625</AltitudeMeters>
            <DistanceMeters>14692.325362882</DistanceMeters>
          </Trackpoint>
          <Trackpoint>
            <Time>2021-04-01T07:37:42.000Z</Time>
            <Position>
              <LatitudeDegrees>42.426069416105747222900390625</LatitudeDegrees>
              <LongitudeDegrees>2.7862537465989589691162109375</LongitudeDegrees>
            </Position>
            <AltitudeMeters>546.4000244140625</AltitudeMeters>
            <DistanceMeters>14692.459750951</DistanceMeters>
          </Trackpoint>
          <Trackpoint>
            <Time>2021-04-01T07:37:45.000Z</Time>
            <Position>
              <LatitudeDegrees>42.42606949992477893829345703125</LatitudeDegrees>
              <LongitudeDegrees>2.786253578960895538330078125</LongitudeDegrees>
            </Position>
            <AltitudeMeters>546.4000244140625</AltitudeMeters>
            <DistanceMeters>14692.459750951</DistanceMeters>
          </Trackpoint>
          <Trackpoint>
            <Time>2021-04-01T07:37:46.000Z</Time>
            <Position>
              <LatitudeDegrees>42.42606949992477893829345703125</LatitudeDegrees>
              <LongitudeDegrees>2.78625349514186382293701171875</LongitudeDegrees>
            </Position>
            <AltitudeMeters>546.4000244140625</AltitudeMeters>
            <DistanceMeters>14692.459750951</DistanceMeters>
          </Trackpoint>
          <Trackpoint>
            <Time>2021-04-01T07:37:53.000Z</Time>
            <Position>
              <LatitudeDegrees>42.42606966756284236907958984375</LatitudeDegrees>
              <LongitudeDegrees>2.78625315986573696136474609375</LongitudeDegrees>
            </Position>
            <AltitudeMeters>546.4000244140625</AltitudeMeters>
            <DistanceMeters>14692.459750951</DistanceMeters>
          </Trackpoint>
          <Trackpoint>
            <Time>2021-04-01T07:37:59.000Z</Time>
            <Position>
              <LatitudeDegrees>42.42606975138187408447265625</LatitudeDegrees>
              <LongitudeDegrees>2.786252908408641815185546875</LongitudeDegrees>
            </Position>
            <AltitudeMeters>546.4000244140625</AltitudeMeters>
            <DistanceMeters>14692.459750951</DistanceMeters>
          </Trackpoint>
          <Trackpoint>
            <Time>2021-04-01T07:38:03.000Z</Time>
            <Position>
              <LatitudeDegrees>42.42606983520090579986572265625</LatitudeDegrees>
              <LongitudeDegrees>2.78625282458961009979248046875</LongitudeDegrees>
            </Position>
            <AltitudeMeters>546.4000244140625</AltitudeMeters>
            <DistanceMeters>14692.459750951</DistanceMeters>
          </Trackpoint>
          <Trackpoint>
            <Time>2021-04-01T07:38:10.000Z</Time>
            <Position>
              <LatitudeDegrees>42.42612339556217193603515625</LatitudeDegrees>
              <LongitudeDegrees>2.7861970849335193634033203125</LongitudeDegrees>
            </Position>
            <AltitudeMeters>546.4000244140625</AltitudeMeters>
            <DistanceMeters>14699.976478184</DistanceMeters>
          </Trackpoint>
          <Trackpoint>
            <Time>2021-04-01T07:38:18.000Z</Time>
            <Position>
              <LatitudeDegrees>42.4261909537017345428466796875</LatitudeDegrees>
              <LongitudeDegrees>2.78606775216758251190185546875</LongitudeDegrees>
            </Position>
            <AltitudeMeters>546.4000244140625</AltitudeMeters>
            <DistanceMeters>14712.993750728</DistanceMeters>
          </Trackpoint>
          <Trackpoint>
            <Time>2021-04-01T07:38:25.000Z</Time>
            <Position>
              <LatitudeDegrees>42.42625406943261623382568359375</LatitudeDegrees>
              <LongitudeDegrees>2.78604797087609767913818359375</LongitudeDegrees>
            </Position>
            <AltitudeMeters>546.4000244140625</AltitudeMeters>
            <DistanceMeters>14720.204519076</DistanceMeters>
          </Trackpoint>
          <Trackpoint>
            <Time>2021-04-01T07:38:33.000Z</Time>
            <Position>
              <LatitudeDegrees>42.42626245133578777313232421875</LatitudeDegrees>
              <LongitudeDegrees>2.78603539802134037017822265625</LongitudeDegrees>
            </Position>
            <AltitudeMeters>546.4000244140625</AltitudeMeters>
            <DistanceMeters>14721.597884224</DistanceMeters>
          </Trackpoint>
          <Trackpoint>
            <Time>2021-04-01T07:38:36.000Z</Time>
            <Position>
              <LatitudeDegrees>42.42623982019722461700439453125</LatitudeDegrees>
              <LongitudeDegrees>2.7860405109822750091552734375</LongitudeDegrees>
            </Position>
            <AltitudeMeters>546.4000244140625</AltitudeMeters>
            <DistanceMeters>14724.15125752</DistanceMeters>
          </Trackpoint>
          <Trackpoint>
            <Time>2021-04-01T07:38:40.000Z</Time>
            <Position>
              <LatitudeDegrees>42.4262083880603313446044921875</LatitudeDegrees>
              <LongitudeDegrees>2.7860411815345287322998046875</LongitudeDegrees>
            </Position>
            <AltitudeMeters>546.4000244140625</AltitudeMeters>
            <DistanceMeters>14727.650512249</DistanceMeters>
          </Trackpoint>
          <Trackpoint>
            <Time>2021-04-01T07:38:45.000Z</Time>
            <Position>
              <LatitudeDegrees>42.42616673000156879425048828125</LatitudeDegrees>
              <LongitudeDegrees>2.78605082072317600250244140625</LongitudeDegrees>
            </Position>
            <AltitudeMeters>546.4000244140625</AltitudeMeters>
            <DistanceMeters>14732.354094638</DistanceMeters>
          </Trackpoint>
          <Trackpoint>
            <Time>2021-04-01T07:38:52.000Z</Time>
            <Position>
              <LatitudeDegrees>42.4261160194873809814453125</LatitudeDegrees>
              <LongitudeDegrees>2.7860579453408718109130859375</LongitudeDegrees>
            </Position>
            <AltitudeMeters>546.4000244140625</AltitudeMeters>
            <DistanceMeters>14738.028709391</DistanceMeters>
          </Trackpoint>
          <Trackpoint>
            <Time>2021-04-01T07:38:57.000Z</Time>
            <Position>
              <LatitudeDegrees>42.42610998451709747314453125</LatitudeDegrees>
              <LongitudeDegrees>2.78604595921933650970458984375</LongitudeDegrees>
            </Position>
            <AltitudeMeters>546.4000244140625</AltitudeMeters>
            <DistanceMeters>14739.215592673</DistanceMeters>
          </Trackpoint>
          <Trackpoint>
            <Time>2021-04-01T07:38:58.000Z</Time>
            <Position>
              <LatitudeDegrees>42.42611442692577838897705078125</LatitudeDegrees>
              <LongitudeDegrees>2.786047048866748809814453125</LongitudeDegrees>
            </Position>
            <AltitudeMeters>546.4000244140625</AltitudeMeters>
            <DistanceMeters>14739.727327191</DistanceMeters>
          </Trackpoint>
          <Trackpoint>
            <Time>2021-04-01T07:38:59.000Z</Time>
            <Position>
              <LatitudeDegrees>42.42611744441092014312744140625</LatitudeDegrees>
              <LongitudeDegrees>2.786047719419002532958984375</LongitudeDegrees>
            </Position>
            <AltitudeMeters>546.4000244140625</AltitudeMeters>
            <DistanceMeters>14740.082884599</DistanceMeters>
          </Trackpoint>
          <Trackpoint>
            <Time>2021-04-01T07:39:02.000Z</Time>
            <Position>
              <LatitudeDegrees>42.426115684211254119873046875</LatitudeDegrees>
              <LongitudeDegrees>2.7860522456467151641845703125</LongitudeDegrees>
            </Position>
            <AltitudeMeters>546.4000244140625</AltitudeMeters>
            <DistanceMeters>14740.486048804</DistanceMeters>
          </Trackpoint>
          <Trackpoint>
            <Time>2021-04-01T07:39:04.000Z</Time>
            <Position>
              <LatitudeDegrees>42.426115684211254119873046875</LatitudeDegrees>
              <LongitudeDegrees>2.7860522456467151641845703125</LongitudeDegrees>
            </Position>
            <AltitudeMeters>546.4000244140625</AltitudeMeters>
            <DistanceMeters>14740.486048804</DistanceMeters>
          </Trackpoint>
          <Trackpoint>
            <Time>2021-04-01T07:39:08.000Z</Time>
            <Position>
              <LatitudeDegrees>42.426115684211254119873046875</LatitudeDegrees>
              <LongitudeDegrees>2.7860522456467151641845703125</LongitudeDegrees>
            </Position>
            <AltitudeMeters>546.4000244140625</AltitudeMeters>
            <DistanceMeters>14740.486048804</DistanceMeters>
          </Trackpoint>
          <Trackpoint>
            <Time>2021-04-01T07:39:16.000Z</Time>
            <Position>
              <LatitudeDegrees>42.42611400783061981201171875</LatitudeDegrees>
              <LongitudeDegrees>2.78605115599930286407470703125</LongitudeDegrees>
            </Position>
            <AltitudeMeters>546.4000244140625</AltitudeMeters>
            <DistanceMeters>14740.676102233</DistanceMeters>
          </Trackpoint>
          <Trackpoint>
            <Time>2021-04-01T07:39:19.000Z</Time>
            <Position>
              <LatitudeDegrees>42.42611224763095378875732421875</LatitudeDegrees>
              <LongitudeDegrees>2.78605115599930286407470703125</LongitudeDegrees>
            </Position>
            <AltitudeMeters>546.4000244140625</AltitudeMeters>
            <DistanceMeters>14740.866155661</DistanceMeters>
          </Trackpoint>
          <Trackpoint>
            <Time>2021-04-01T07:39:22.000Z</Time>
            <Position>
              <LatitudeDegrees>42.4261121638119220733642578125</LatitudeDegrees>
              <LongitudeDegrees>2.78605115599930286407470703125</LongitudeDegrees>
            </Position>
            <AltitudeMeters>546.4000244140625</AltitudeMeters>
            <DistanceMeters>14740.866155661</DistanceMeters>
          </Trackpoint>
          <Trackpoint>
            <Time>2021-04-01T07:39:25.000Z</Time>
            <Position>
              <LatitudeDegrees>42.4261121638119220733642578125</LatitudeDegrees>
              <LongitudeDegrees>2.7860509045422077178955078125</LongitudeDegrees>
            </Position>
            <AltitudeMeters>546.4000244140625</AltitudeMeters>
            <DistanceMeters>14740.961182376</DistanceMeters>
          </Trackpoint>
          <Trackpoint>
            <Time>2021-04-01T07:39:27.000Z</Time>
            <Position>
              <LatitudeDegrees>42.42610998451709747314453125</LatitudeDegrees>
              <LongitudeDegrees>2.7860455401241779327392578125</LongitudeDegrees>
            </Position>
            <AltitudeMeters>546.4000244140625</AltitudeMeters>
            <DistanceMeters>14741.464016484</DistanceMeters>
          </Trackpoint>
          <Trackpoint>
            <Time>2021-04-01T07:39:32.000Z</Time>
            <Position>
              <LatitudeDegrees>42.42607587017118930816650390625</LatitudeDegrees>
              <LongitudeDegrees>2.7859637327492237091064453125</LongitudeDegrees>
            </Position>
            <AltitudeMeters>546.4000244140625</AltitudeMeters>
            <DistanceMeters>14749.182853467</DistanceMeters>
          </Trackpoint>
          <Trackpoint>
            <Time>2021-04-01T07:39:38.000Z</Time>
            <Position>
              <LatitudeDegrees>42.4260625429451465606689453125</LatitudeDegrees>
              <LongitudeDegrees>2.78590681962668895721435546875</LongitudeDegrees>
            </Position>
            <AltitudeMeters>546.4000244140625</AltitudeMeters>
            <DistanceMeters>14754.087557704</DistanceMeters>
          </Trackpoint>
          <Trackpoint>
            <Time>2021-04-01T07:39:45.000Z</Time>
            <Position>
              <LatitudeDegrees>42.42605768144130706787109375</LatitudeDegrees>
              <LongitudeDegrees>2.7858986891806125640869140625</LongitudeDegrees>
            </Position>
            <AltitudeMeters>546.4000244140625</AltitudeMeters>
            <DistanceMeters>14754.953292273</DistanceMeters>
          </Trackpoint>
          <Trackpoint>
            <Time>2021-04-01T07:39:50.000Z</Time>
            <Position>
              <LatitudeDegrees>42.42605742998421192169189453125</LatitudeDegrees>
              <LongitudeDegrees>2.7858983539044857025146484375</LongitudeDegrees>
            </Position>
            <AltitudeMeters>546.4000244140625</AltitudeMeters>
            <DistanceMeters>14754.953292273</DistanceMeters>
          </Trackpoint>
          <Trackpoint>
            <Time>2021-04-01T07:40:05.000Z</Time>
            <Position>
              <LatitudeDegrees>42.42606530897319316864013671875</LatitudeDegrees>
              <LongitudeDegrees>2.78590849600732326507568359375</LongitudeDegrees>
            </Position>
            <AltitudeMeters>546.4000244140625</AltitudeMeters>
            <DistanceMeters>14756.162784888</DistanceMeters>
          </Trackpoint>
          <Trackpoint>
            <Time>2021-04-01T07:40:11.000Z</Time>
            <Position>
              <LatitudeDegrees>42.4260719306766986846923828125</LatitudeDegrees>
              <LongitudeDegrees>2.78591587208211421966552734375</LongitudeDegrees>
            </Position>
            <AltitudeMeters>546.4000244140625</AltitudeMeters>
            <DistanceMeters>14757.122507659</DistanceMeters>
          </Trackpoint>
          <Trackpoint>
            <Time>2021-04-01T07:40:19.000Z</Time>
            <Position>
              <LatitudeDegrees>42.42607687599956989288330078125</LatitudeDegrees>
              <LongitudeDegrees>2.7859181351959705352783203125</LongitudeDegrees>
            </Position>
            <AltitudeMeters>546.4000244140625</AltitudeMeters>
            <DistanceMeters>14757.708291667</DistanceMeters>
          </Trackpoint>
          <Trackpoint>
            <Time>2021-04-01T07:40:20.000Z</Time>
            <Position>
              <LatitudeDegrees>42.42607687599956989288330078125</LatitudeDegrees>
              <LongitudeDegrees>2.7859181351959705352783203125</LongitudeDegrees>
            </Position>
            <AltitudeMeters>546.4000244140625</AltitudeMeters>
            <DistanceMeters>14757.708291667</DistanceMeters>
          </Trackpoint>
          <Trackpoint>
            <Time>2021-04-01T07:40:21.000Z</Time>
            <Position>
              <LatitudeDegrees>42.4260757863521575927734375</LatitudeDegrees>
              <LongitudeDegrees>2.78591327369213104248046875</LongitudeDegrees>
            </Position>
            <AltitudeMeters>546.4000244140625</AltitudeMeters>
            <DistanceMeters>14758.122503512</DistanceMeters>
          </Trackpoint>
          <Trackpoint>
            <Time>2021-04-01T07:40:23.000Z</Time>
            <Position>
              <LatitudeDegrees>42.426066063344478607177734375</LatitudeDegrees>
              <LongitudeDegrees>2.78587748296558856964111328125</LongitudeDegrees>
            </Position>
            <AltitudeMeters>546.4000244140625</AltitudeMeters>
            <DistanceMeters>14761.255504166</DistanceMeters>
          </Trackpoint>
          <Trackpoint>
            <Time>2021-04-01T07:40:25.000Z</Time>
            <Position>
              <LatitudeDegrees>42.4260543286800384521484375</LatitudeDegrees>
              <LongitudeDegrees>2.7858400158584117889404296875</LongitudeDegrees>
            </Position>
            <AltitudeMeters>546.4000244140625</AltitudeMeters>
            <DistanceMeters>14764.599040413</DistanceMeters>
          </Trackpoint>
          <Trackpoint>
            <Time>2021-04-01T07:40:28.000Z</Time>
            <Position>
              <LatitudeDegrees>42.426039911806583404541015625</LatitudeDegrees>
              <LongitudeDegrees>2.7857907302677631378173828125</LongitudeDegrees>
            </Position>
            <AltitudeMeters>546.4000244140625</AltitudeMeters>
            <DistanceMeters>14768.95371153</DistanceMeters>
          </Trackpoint>
          <Trackpoint>
            <Time>2021-04-01T07:40:29.000Z</Time>
            <Position>
              <LatitudeDegrees>42.42603764869272708892822265625</LatitudeDegrees>
              <LongitudeDegrees>2.78577505610883235931396484375</LongitudeDegrees>
            </Position>
            <AltitudeMeters>546.4000244140625</AltitudeMeters>
            <DistanceMeters>14770.267006851</DistanceMeters>
          </Trackpoint>
          <Trackpoint>
            <Time>2021-04-01T07:40:35.000Z</Time>
            <Position>
              <LatitudeDegrees>42.42602256126701831817626953125</LatitudeDegrees>
              <LongitudeDegrees>2.78569961898028850555419921875</LongitudeDegrees>
            </Position>
            <AltitudeMeters>546.4000244140625</AltitudeMeters>
            <DistanceMeters>14776.688169444</DistanceMeters>
          </Trackpoint>
          <Trackpoint>
            <Time>2021-04-01T07:40:37.000Z</Time>
            <Position>
              <LatitudeDegrees>42.42601610720157623291015625</LatitudeDegrees>
              <LongitudeDegrees>2.7856757305562496185302734375</LongitudeDegrees>
            </Position>
            <AltitudeMeters>546.4000244140625</AltitudeMeters>
            <DistanceMeters>14778.776596345</DistanceMeters>
          </Trackpoint>
          <Trackpoint>
            <Time>2021-04-01T07:40:40.000Z</Time>
            <Position>
              <LatitudeDegrees>42.42600479163229465484619140625</LatitudeDegrees>
              <LongitudeDegrees>2.78564144857227802276611328125</LongitudeDegrees>
            </Position>
            <AltitudeMeters>546.4000244140625</AltitudeMeters>
            <DistanceMeters>14781.861673422</DistanceMeters>
          </Trackpoint>
          <Trackpoint>
            <Time>2021-04-01T07:40:43.000Z</Time>
            <Position>
              <LatitudeDegrees>42.42599724791944026947021484375</LatitudeDegrees>
              <LongitudeDegrees>2.78561445884406566619873046875</LongitudeDegrees>
            </Position>
            <AltitudeMeters>546.5999755859375</AltitudeMeters>
            <DistanceMeters>14784.23163282</DistanceMeters>
          </Trackpoint>
          <Trackpoint>
            <Time>2021-04-01T07:40:46.000Z</Time>
            <Position>
              <LatitudeDegrees>42.42599657736718654632568359375</LatitudeDegrees>
              <LongitudeDegrees>2.78558646328747272491455078125</LongitudeDegrees>
            </Position>
            <AltitudeMeters>546.5999755859375</AltitudeMeters>
            <DistanceMeters>14786.53198601</DistanceMeters>
          </Trackpoint>
          <Trackpoint>
            <Time>2021-04-01T07:40:53.000Z</Time>
            <Position>
              <LatitudeDegrees>42.42598526179790496826171875</LatitudeDegrees>
              <LongitudeDegrees>2.7855352498590946197509765625</LongitudeDegrees>
            </Position>
            <AltitudeMeters>546.79998779296875</AltitudeMeters>
            <DistanceMeters>14790.923824268</DistanceMeters>
          </Trackpoint>
          <Trackpoint>
            <Time>2021-04-01T07:41:01.000Z</Time>
            <Position>
              <LatitudeDegrees>42.4259629659354686737060546875</LatitudeDegrees>
              <LongitudeDegrees>2.78545302338898181915283203125</LongitudeDegrees>
            </Position>
            <AltitudeMeters>546.79998779296875</AltitudeMeters>
            <DistanceMeters>14798.120804084</DistanceMeters>
          </Trackpoint>
          <Trackpoint>
            <Time>2021-04-01T07:41:09.000Z</Time>
            <Position>
              <LatitudeDegrees>42.425939328968524932861328125</LatitudeDegrees>
              <LongitudeDegrees>2.78536434285342693328857421875</LongitudeDegrees>
            </Position>
            <AltitudeMeters>547.4000244140625</AltitudeMeters>
            <DistanceMeters>14805.867667194</DistanceMeters>
          </Trackpoint>
          <Trackpoint>
            <Time>2021-04-01T07:41:18.000Z</Time>
            <Position>
              <LatitudeDegrees>42.42589809000492095947265625</LatitudeDegrees>
              <LongitudeDegrees>2.7852780930697917938232421875</LongitudeDegrees>
            </Position>
            <AltitudeMeters>548</AltitudeMeters>
            <DistanceMeters>14814.310083517</DistanceMeters>
          </Trackpoint>
          <Trackpoint>
            <Time>2021-04-01T07:41:19.000Z</Time>
            <Position>
              <LatitudeDegrees>42.42589130066335201263427734375</LatitudeDegrees>
              <LongitudeDegrees>2.785272561013698577880859375</LongitudeDegrees>
            </Position>
            <AltitudeMeters>548</AltitudeMeters>
            <DistanceMeters>14815.191325013</DistanceMeters>
          </Trackpoint>
          <Trackpoint>
            <Time>2021-04-01T07:41:30.000Z</Time>
            <Position>
              <LatitudeDegrees>42.4258182942867279052734375</LatitudeDegrees>
              <LongitudeDegrees>2.78520827181637287139892578125</LongitudeDegrees>
            </Position>
            <AltitudeMeters>548.4000244140625</AltitudeMeters>
            <DistanceMeters>14824.882652327</DistanceMeters>
          </Trackpoint>
          <Trackpoint>
            <Time>2021-04-01T07:41:33.000Z</Time>
            <Position>
              <LatitudeDegrees>42.42579482495784759521484375</LatitudeDegrees>
              <LongitudeDegrees>2.78519175946712493896484375</LongitudeDegrees>
            </Position>
            <AltitudeMeters>548.79998779296875</AltitudeMeters>
            <DistanceMeters>14827.825413498</DistanceMeters>
          </Trackpoint>
          <Trackpoint>
            <Time>2021-04-01T07:41:35.000Z</Time>
            <Position>
              <LatitudeDegrees>42.42578200064599514007568359375</LatitudeDegrees>
              <LongitudeDegrees>2.7851768396794795989990234375</LongitudeDegrees>
            </Position>
            <AltitudeMeters>549</AltitudeMeters>
            <DistanceMeters>14829.706846453</DistanceMeters>
          </Trackpoint>
          <Trackpoint>
            <Time>2021-04-01T07:41:42.000Z</Time>
            <Position>
              <LatitudeDegrees>42.42573447525501251220703125</LatitudeDegrees>
              <LongitudeDegrees>2.78513736091554164886474609375</LongitudeDegrees>
            </Position>
            <AltitudeMeters>549.4000244140625</AltitudeMeters>
            <DistanceMeters>14835.912025416</DistanceMeters>
          </Trackpoint>
          <Trackpoint>
            <Time>2021-04-01T07:41:45.000Z</Time>
            <Position>
              <LatitudeDegrees>42.4257121793925762176513671875</LatitudeDegrees>
              <LongitudeDegrees>2.7851188369095325469970703125</LongitudeDegrees>
            </Position>
            <AltitudeMeters>549.4000244140625</AltitudeMeters>
            <DistanceMeters>14838.825489309</DistanceMeters>
          </Trackpoint>
          <Trackpoint>
            <Time>2021-04-01T07:41:49.000Z</Time>
            <Position>
              <LatitudeDegrees>42.42567814886569976806640625</LatitudeDegrees>
              <LongitudeDegrees>2.7850990556180477142333984375</LongitudeDegrees>
            </Position>
            <AltitudeMeters>549.5999755859375</AltitudeMeters>
            <DistanceMeters>14842.947940506</DistanceMeters>
          </Trackpoint>
          <Trackpoint>
            <Time>2021-04-01T07:41:56.000Z</Time>
            <Position>
              <LatitudeDegrees>42.42562727071344852447509765625</LatitudeDegrees>
              <LongitudeDegrees>2.78505639173090457916259765625</LongitudeDegrees>
            </Position>
            <AltitudeMeters>549.79998779296875</AltitudeMeters>
            <DistanceMeters>14849.607950678</DistanceMeters>
          </Trackpoint>
          <Trackpoint>
            <Time>2021-04-01T07:42:00.000Z</Time>
            <Position>
              <LatitudeDegrees>42.42560111917555332183837890625</LatitudeDegrees>
              <LongitudeDegrees>2.78503158129751682281494140625</LongitudeDegrees>
            </Position>
            <AltitudeMeters>550</AltitudeMeters>
            <DistanceMeters>14853.160984152</DistanceMeters>
          </Trackpoint>
          <Trackpoint>
            <Time>2021-04-01T07:42:01.000Z</Time>
            <Position>
              <LatitudeDegrees>42.42559458129107952117919921875</LatitudeDegrees>
              <LongitudeDegrees>2.78502621687948703765869140625</LongitudeDegrees>
            </Position>
            <AltitudeMeters>550.20001220703125</AltitudeMeters>
            <DistanceMeters>14854.000237369</DistanceMeters>
          </Trackpoint>
          <Trackpoint>
            <Time>2021-04-01T07:42:04.000Z</Time>
            <Position>
              <LatitudeDegrees>42.42557295598089694976806640625</LatitudeDegrees>
              <LongitudeDegrees>2.78500559739768505096435546875</LongitudeDegrees>
            </Position>
            <AltitudeMeters>550.20001220703125</AltitudeMeters>
            <DistanceMeters>14856.944532427</DistanceMeters>
          </Trackpoint>
          <Trackpoint>
            <Time>2021-04-01T07:42:09.000Z</Time>
            <Position>
              <LatitudeDegrees>42.4255428649485111236572265625</LatitudeDegrees>
              <LongitudeDegrees>2.78496385551989078521728515625</LongitudeDegrees>
            </Position>
            <AltitudeMeters>550.4000244140625</AltitudeMeters>
            <DistanceMeters>14861.73843945</DistanceMeters>
          </Trackpoint>
          <Trackpoint>
            <Time>2021-04-01T07:42:14.000Z</Time>
            <Position>
              <LatitudeDegrees>42.425506152212619781494140625</LatitudeDegrees>
              <LongitudeDegrees>2.7849404700100421905517578125</LongitudeDegrees>
            </Position>
            <AltitudeMeters>551</AltitudeMeters>
            <DistanceMeters>14866.253958536</DistanceMeters>
          </Trackpoint>
          <Trackpoint>
            <Time>2021-04-01T07:42:15.000Z</Time>
            <Position>
              <LatitudeDegrees>42.42549709975719451904296875</LatitudeDegrees>
              <LongitudeDegrees>2.78493669815361499786376953125</LongitudeDegrees>
            </Position>
            <AltitudeMeters>551</AltitudeMeters>
            <DistanceMeters>14867.312131243</DistanceMeters>
          </Trackpoint>
          <Trackpoint>
            <Time>2021-04-01T07:42:18.000Z</Time>
            <Position>
              <LatitudeDegrees>42.4254722893238067626953125</LatitudeDegrees>
              <LongitudeDegrees>2.7849201858043670654296875</LongitudeDegrees>
            </Position>
            <AltitudeMeters>551</AltitudeMeters>
            <DistanceMeters>14870.391348719</DistanceMeters>
          </Trackpoint>
          <Trackpoint>
            <Time>2021-04-01T07:42:21.000Z</Time>
            <Position>
              <LatitudeDegrees>42.42545275948941707611083984375</LatitudeDegrees>
              <LongitudeDegrees>2.78490208089351654052734375</LongitudeDegrees>
            </Position>
            <AltitudeMeters>551</AltitudeMeters>
            <DistanceMeters>14873.024806277</DistanceMeters>
          </Trackpoint>
          <Trackpoint>
            <Time>2021-04-01T07:42:28.000Z</Time>
            <Position>
              <LatitudeDegrees>42.42540531791746616363525390625</LatitudeDegrees>
              <LongitudeDegrees>2.78486008755862712860107421875</LongitudeDegrees>
            </Position>
            <AltitudeMeters>551.4000244140625</AltitudeMeters>
            <DistanceMeters>14879.331029922</DistanceMeters>
          </Trackpoint>
          <Trackpoint>
            <Time>2021-04-01T07:42:33.000Z</Time>
            <Position>
              <LatitudeDegrees>42.42537103593349456787109375</LatitudeDegrees>
              <LongitudeDegrees>2.78482136316597461700439453125</LongitudeDegrees>
            </Position>
            <AltitudeMeters>551.79998779296875</AltitudeMeters>
            <DistanceMeters>14884.298846235</DistanceMeters>
          </Trackpoint>
          <Trackpoint>
            <Time>2021-04-01T07:42:37.000Z</Time>
            <Position>
              <LatitudeDegrees>42.425349913537502288818359375</LatitudeDegrees>
              <LongitudeDegrees>2.784798480570316314697265625</LongitudeDegrees>
            </Position>
            <AltitudeMeters>551.5999755859375</AltitudeMeters>
            <DistanceMeters>14887.308358932</DistanceMeters>
          </Trackpoint>
          <Trackpoint>
            <Time>2021-04-01T07:42:42.000Z</Time>
            <Position>
              <LatitudeDegrees>42.42531814612448215484619140625</LatitudeDegrees>
              <LongitudeDegrees>2.78477308340370655059814453125</LongitudeDegrees>
            </Position>
            <AltitudeMeters>552.20001220703125</AltitudeMeters>
            <DistanceMeters>14891.413249021</DistanceMeters>
          </Trackpoint>
          <Trackpoint>
            <Time>2021-04-01T07:42:45.000Z</Time>
            <Position>
              <LatitudeDegrees>42.42529652081429958343505859375</LatitudeDegrees>
              <LongitudeDegrees>2.78476503677666187286376953125</LongitudeDegrees>
            </Position>
            <AltitudeMeters>552.5999755859375</AltitudeMeters>
            <DistanceMeters>14893.909396602</DistanceMeters>
          </Trackpoint>
          <Trackpoint>
            <Time>2021-04-01T07:42:49.000Z</Time>
            <Position>
              <LatitudeDegrees>42.4252608977258205413818359375</LatitudeDegrees>
              <LongitudeDegrees>2.78475061990320682525634765625</LongitudeDegrees>
            </Position>
            <AltitudeMeters>552.79998779296875</AltitudeMeters>
            <DistanceMeters>14898.047152629</DistanceMeters>
          </Trackpoint>
          <Trackpoint>
            <Time>2021-04-01T07:42:57.000Z</Time>
            <Position>
              <LatitudeDegrees>42.42519040592014789581298828125</LatitudeDegrees>
              <LongitudeDegrees>2.7847131527960300445556640625</LongitudeDegrees>
            </Position>
            <AltitudeMeters>553.20001220703125</AltitudeMeters>
            <DistanceMeters>14906.475652578</DistanceMeters>
          </Trackpoint>
          <Trackpoint>
            <Time>2021-04-01T07:43:05.000Z</Time>
            <Position>
              <LatitudeDegrees>42.4251291342079639434814453125</LatitudeDegrees>
              <LongitudeDegrees>2.78466629795730113983154296875</LongitudeDegrees>
            </Position>
            <AltitudeMeters>553.5999755859375</AltitudeMeters>
            <DistanceMeters>14914.307145361</DistanceMeters>
          </Trackpoint>
          <Trackpoint>
            <Time>2021-04-01T07:43:12.000Z</Time>
            <Position>
              <LatitudeDegrees>42.42507054470479488372802734375</LatitudeDegrees>
              <LongitudeDegrees>2.7846340276300907135009765625</LongitudeDegrees>
            </Position>
            <AltitudeMeters>553.79998779296875</AltitudeMeters>
            <DistanceMeters>14921.346181477</DistanceMeters>
          </Trackpoint>
          <Trackpoint>
            <Time>2021-04-01T07:43:23.000Z</Time>
            <Position>
              <LatitudeDegrees>42.42497582919895648956298828125</LatitudeDegrees>
              <LongitudeDegrees>2.7845669724047183990478515625</LongitudeDegrees>
            </Position>
            <AltitudeMeters>554.20001220703125</AltitudeMeters>
            <DistanceMeters>14933.240854139</DistanceMeters>
          </Trackpoint>
          <Trackpoint>
            <Time>2021-04-01T07:43:27.000Z</Time>
            <Position>
              <LatitudeDegrees>42.424945570528507232666015625</LatitudeDegrees>
              <LongitudeDegrees>2.78453939594328403472900390625</LongitudeDegrees>
            </Position>
            <AltitudeMeters>554.20001220703125</AltitudeMeters>
            <DistanceMeters>14937.2992848</DistanceMeters>
          </Trackpoint>
          <Trackpoint>
            <Time>2021-04-01T07:43:31.000Z</Time>
            <Position>
              <LatitudeDegrees>42.42491506040096282958984375</LatitudeDegrees>
              <LongitudeDegrees>2.784519530832767486572265625</LongitudeDegrees>
            </Position>
            <AltitudeMeters>554.4000244140625</AltitudeMeters>
            <DistanceMeters>14941.066947228</DistanceMeters>
          </Trackpoint>
          <Trackpoint>
            <Time>2021-04-01T07:43:37.000Z</Time>
            <Position>
              <LatitudeDegrees>42.4248646013438701629638671875</LatitudeDegrees>
              <LongitudeDegrees>2.78451022692024707794189453125</LongitudeDegrees>
            </Position>
            <AltitudeMeters>555.4000244140625</AltitudeMeters>
            <DistanceMeters>14946.734396558</DistanceMeters>
          </Trackpoint>
          <Trackpoint>
            <Time>2021-04-01T07:43:38.000Z</Time>
            <Position>
              <LatitudeDegrees>42.4248545430600643157958984375</LatitudeDegrees>
              <LongitudeDegrees>2.7845079638063907623291015625</LongitudeDegrees>
            </Position>
            <AltitudeMeters>555.5999755859375</AltitudeMeters>
            <DistanceMeters>14947.874717131</DistanceMeters>
          </Trackpoint>
          <Trackpoint>
            <Time>2021-04-01T07:43:40.000Z</Time>
            <Position>
              <LatitudeDegrees>42.42483970709145069122314453125</LatitudeDegrees>
              <LongitudeDegrees>2.78450268320739269256591796875</LongitudeDegrees>
            </Position>
            <AltitudeMeters>555.5999755859375</AltitudeMeters>
            <DistanceMeters>14949.582556318</DistanceMeters>
          </Trackpoint>
          <Trackpoint>
            <Time>2021-04-01T07:43:42.000Z</Time>
            <Position>
              <LatitudeDegrees>42.42482386529445648193359375</LatitudeDegrees>
              <LongitudeDegrees>2.7845015935599803924560546875</LongitudeDegrees>
            </Position>
            <AltitudeMeters>555.5999755859375</AltitudeMeters>
            <DistanceMeters>14951.350155382</DistanceMeters>
          </Trackpoint>
          <Trackpoint>
            <Time>2021-04-01T07:43:44.000Z</Time>
            <Position>
              <LatitudeDegrees>42.424805425107479095458984375</LatitudeDegrees>
              <LongitudeDegrees>2.784500420093536376953125</LongitudeDegrees>
            </Position>
            <AltitudeMeters>555.5999755859375</AltitudeMeters>
            <DistanceMeters>14953.405897529</DistanceMeters>
          </Trackpoint>
          <Trackpoint>
            <Time>2021-04-01T07:43:46.000Z</Time>
            <Position>
              <LatitudeDegrees>42.42479109205305576324462890625</LatitudeDegrees>
              <LongitudeDegrees>2.7844968996942043304443359375</LongitudeDegrees>
            </Position>
            <AltitudeMeters>555.4000244140625</AltitudeMeters>
            <DistanceMeters>14955.024144163</DistanceMeters>
          </Trackpoint>
          <Trackpoint>
            <Time>2021-04-01T07:43:47.000Z</Time>
            <Position>
              <LatitudeDegrees>42.424783967435359954833984375</LatitudeDegrees>
              <LongitudeDegrees>2.78449706733226776123046875</LongitudeDegrees>
            </Position>
            <AltitudeMeters>555.4000244140625</AltitudeMeters>
            <DistanceMeters>14955.819194697</DistanceMeters>
          </Trackpoint>
          <Trackpoint>
            <Time>2021-04-01T07:43:58.000Z</Time>
            <Position>
              <LatitudeDegrees>42.4246979691088199615478515625</LatitudeDegrees>
              <LongitudeDegrees>2.7844640426337718963623046875</LongitudeDegrees>
            </Position>
            <AltitudeMeters>556.20001220703125</AltitudeMeters>
            <DistanceMeters>14965.768450849</DistanceMeters>
          </Trackpoint>
          <Trackpoint>
            <Time>2021-04-01T07:44:05.000Z</Time>
            <Position>
              <LatitudeDegrees>42.4246443249285221099853515625</LatitudeDegrees>
              <LongitudeDegrees>2.7844744361937046051025390625</LongitudeDegrees>
            </Position>
            <AltitudeMeters>556.4000244140625</AltitudeMeters>
            <DistanceMeters>14971.800214935</DistanceMeters>
          </Trackpoint>
          <Trackpoint>
            <Time>2021-04-01T07:44:11.000Z</Time>
            <Position>
              <LatitudeDegrees>42.42462269961833953857421875</LatitudeDegrees>
              <LongitudeDegrees>2.784508801996707916259765625</LongitudeDegrees>
            </Position>
            <AltitudeMeters>556.5999755859375</AltitudeMeters>
            <DistanceMeters>14975.511126761</DistanceMeters>
          </Trackpoint>
          <Trackpoint>
            <Time>2021-04-01T07:44:12.000Z</Time>
            <Position>
              <LatitudeDegrees>42.42461959831416606903076171875</LatitudeDegrees>
              <LongitudeDegrees>2.78450318612158298492431640625</LongitudeDegrees>
            </Position>
            <AltitudeMeters>556.5999755859375</AltitudeMeters>
            <DistanceMeters>14976.081287047</DistanceMeters>
          </Trackpoint>
          <Trackpoint>
            <Time>2021-04-01T07:44:13.000Z</Time>
            <Position>
              <LatitudeDegrees>42.424615658819675445556640625</LatitudeDegrees>
              <LongitudeDegrees>2.78449815697968006134033203125</LongitudeDegrees>
            </Position>
            <AltitudeMeters>556.79998779296875</AltitudeMeters>
            <DistanceMeters>14976.682288759</DistanceMeters>
          </Trackpoint>
          <Trackpoint>
            <Time>2021-04-01T07:44:16.000Z</Time>
            <Position>
              <LatitudeDegrees>42.42459981702268123626708984375</LatitudeDegrees>
              <LongitudeDegrees>2.78448709286749362945556640625</LongitudeDegrees>
            </Position>
            <AltitudeMeters>556.79998779296875</AltitudeMeters>
            <DistanceMeters>14978.666504808</DistanceMeters>
          </Trackpoint>
          <Trackpoint>
            <Time>2021-04-01T07:44:18.000Z</Time>
            <Position>
              <LatitudeDegrees>42.424586825072765350341796875</LatitudeDegrees>
              <LongitudeDegrees>2.7844972349703311920166015625</LongitudeDegrees>
            </Position>
            <AltitudeMeters>557</AltitudeMeters>
            <DistanceMeters>14980.334216877</DistanceMeters>
          </Trackpoint>
          <Trackpoint>
            <Time>2021-04-01T07:44:20.000Z</Time>
            <Position>
              <LatitudeDegrees>42.424577437341213226318359375</LatitudeDegrees>
              <LongitudeDegrees>2.7845076285302639007568359375</LongitudeDegrees>
            </Position>
            <AltitudeMeters>557</AltitudeMeters>
            <DistanceMeters>14981.684800248</DistanceMeters>
          </Trackpoint>
          <Trackpoint>
            <Time>2021-04-01T07:44:29.000Z</Time>
            <Position>
              <LatitudeDegrees>42.42455271072685718536376953125</LatitudeDegrees>
              <LongitudeDegrees>2.784591279923915863037109375</LongitudeDegrees>
            </Position>
            <AltitudeMeters>557</AltitudeMeters>
            <DistanceMeters>14989.088351019</DistanceMeters>
          </Trackpoint>
          <Trackpoint>
            <Time>2021-04-01T07:44:37.000Z</Time>
            <Position>
              <LatitudeDegrees>42.4244892597198486328125</LatitudeDegrees>
              <LongitudeDegrees>2.78462137095630168914794921875</LongitudeDegrees>
            </Position>
            <AltitudeMeters>557.20001220703125</AltitudeMeters>
            <DistanceMeters>14996.571365386</DistanceMeters>
          </Trackpoint>
          <Trackpoint>
            <Time>2021-04-01T07:44:39.000Z</Time>
            <Position>
              <LatitudeDegrees>42.42447794415056705474853515625</LatitudeDegrees>
              <LongitudeDegrees>2.7846263162791728973388671875</LongitudeDegrees>
            </Position>
            <AltitudeMeters>557.20001220703125</AltitudeMeters>
            <DistanceMeters>14997.901739388</DistanceMeters>
          </Trackpoint>
          <Trackpoint>
            <Time>2021-04-01T07:44:41.000Z</Time>
            <Position>
              <LatitudeDegrees>42.4244691431522369384765625</LatitudeDegrees>
              <LongitudeDegrees>2.78461642563343048095703125</LongitudeDegrees>
            </Position>
            <AltitudeMeters>557.4000244140625</AltitudeMeters>
            <DistanceMeters>14999.176656546</DistanceMeters>
          </Trackpoint>
          <Trackpoint>
            <Time>2021-04-01T07:44:43.000Z</Time>
            <Position>
              <LatitudeDegrees>42.42446637712419033050537109375</LatitudeDegrees>
              <LongitudeDegrees>2.78461114503443241119384765625</LongitudeDegrees>
            </Position>
            <AltitudeMeters>557.4000244140625</AltitudeMeters>
            <DistanceMeters>14999.714208819</DistanceMeters>
          </Trackpoint>
          <Trackpoint>
            <Time>2021-04-01T07:44:44.000Z</Time>
            <Position>
              <LatitudeDegrees>42.42446654476225376129150390625</LatitudeDegrees>
              <LongitudeDegrees>2.7846088819205760955810546875</LongitudeDegrees>
            </Position>
            <AltitudeMeters>557.4000244140625</AltitudeMeters>
            <DistanceMeters>14999.904262247</DistanceMeters>
          </Trackpoint>
          <Trackpoint>
            <Time>2021-04-01T07:44:45.000Z</Time>
            <Position>
              <LatitudeDegrees>42.424468807876110076904296875</LatitudeDegrees>
              <LongitudeDegrees>2.7846035175025463104248046875</LongitudeDegrees>
            </Position>
            <AltitudeMeters>557.4000244140625</AltitudeMeters>
            <DistanceMeters>15000.407096356</DistanceMeters>
          </Trackpoint>
          <Trackpoint>
            <Time>2021-04-01T07:44:50.000Z</Time>
            <Position>
              <LatitudeDegrees>42.42446252144873142242431640625</LatitudeDegrees>
              <LongitudeDegrees>2.78459991328418254852294921875</LongitudeDegrees>
            </Position>
            <AltitudeMeters>557.4000244140625</AltitudeMeters>
            <DistanceMeters>15001.167310071</DistanceMeters>
          </Trackpoint>
          <Trackpoint>
            <Time>2021-04-01T07:45:03.000Z</Time>
            <Position>
              <LatitudeDegrees>42.42446252144873142242431640625</LatitudeDegrees>
              <LongitudeDegrees>2.78459991328418254852294921875</LongitudeDegrees>
            </Position>
            <AltitudeMeters>557.20001220703125</AltitudeMeters>
            <DistanceMeters>15001.167310071</DistanceMeters>
          </Trackpoint>
          <Trackpoint>
            <Time>2021-04-01T07:45:07.000Z</Time>
            <Position>
              <LatitudeDegrees>42.4244585819542407989501953125</LatitudeDegrees>
              <LongitudeDegrees>2.78460008092224597930908203125</LongitudeDegrees>
            </Position>
            <AltitudeMeters>557.20001220703125</AltitudeMeters>
            <DistanceMeters>15001.602777182</DistanceMeters>
          </Trackpoint>
          <Trackpoint>
            <Time>2021-04-01T07:45:10.000Z</Time>
            <Position>
              <LatitudeDegrees>42.4244558997452259063720703125</LatitudeDegrees>
              <LongitudeDegrees>2.7846005000174045562744140625</LongitudeDegrees>
            </Position>
            <AltitudeMeters>557.20001220703125</AltitudeMeters>
            <DistanceMeters>15001.903278038</DistanceMeters>
          </Trackpoint>
          <Trackpoint>
            <Time>2021-04-01T07:45:15.000Z</Time>
            <Position>
              <LatitudeDegrees>42.4244535528123378753662109375</LatitudeDegrees>
              <LongitudeDegrees>2.7845998294651508331298828125</LongitudeDegrees>
            </Position>
            <AltitudeMeters>557</AltitudeMeters>
            <DistanceMeters>15002.188358181</DistanceMeters>
          </Trackpoint>
          <Trackpoint>
            <Time>2021-04-01T07:45:18.000Z</Time>
            <Position>
              <LatitudeDegrees>42.42444433271884918212890625</LatitudeDegrees>
              <LongitudeDegrees>2.7845988236367702484130859375</LongitudeDegrees>
            </Position>
            <AltitudeMeters>557</AltitudeMeters>
            <DistanceMeters>15003.22061252</DistanceMeters>
          </Trackpoint>
          <Trackpoint>
            <Time>2021-04-01T07:45:21.000Z</Time>
            <Position>
              <LatitudeDegrees>42.42444307543337345123291015625</LatitudeDegrees>
              <LongitudeDegrees>2.784595973789691925048828125</LongitudeDegrees>
            </Position>
            <AltitudeMeters>556.79998779296875</AltitudeMeters>
            <DistanceMeters>15003.489388657</DistanceMeters>
          </Trackpoint>
          <Trackpoint>
            <Time>2021-04-01T07:45:27.000Z</Time>
            <Position>
              <LatitudeDegrees>42.42444206960499286651611328125</LatitudeDegrees>
              <LongitudeDegrees>2.7845956385135650634765625</LongitudeDegrees>
            </Position>
            <AltitudeMeters>556.79998779296875</AltitudeMeters>
            <DistanceMeters>15003.623776725</DistanceMeters>
          </Trackpoint>
          <Trackpoint>
            <Time>2021-04-01T07:45:49.000Z</Time>
            <Position>
              <LatitudeDegrees>42.424447350203990936279296875</LatitudeDegrees>
              <LongitudeDegrees>2.7845944650471210479736328125</LongitudeDegrees>
            </Position>
            <AltitudeMeters>557.20001220703125</AltitudeMeters>
            <DistanceMeters>15004.209560734</DistanceMeters>
          </Trackpoint>
          <Trackpoint>
            <Time>2021-04-01T07:46:03.000Z</Time>
            <Position>
              <LatitudeDegrees>42.42444693110883235931396484375</LatitudeDegrees>
              <LongitudeDegrees>2.7845978178083896636962890625</LongitudeDegrees>
            </Position>
            <AltitudeMeters>557.20001220703125</AltitudeMeters>
            <DistanceMeters>15004.47833687</DistanceMeters>
          </Trackpoint>
          <Trackpoint>
            <Time>2021-04-01T07:46:05.000Z</Time>
            <Position>
              <LatitudeDegrees>42.424446679651737213134765625</LatitudeDegrees>
              <LongitudeDegrees>2.784598655998706817626953125</LongitudeDegrees>
            </Position>
            <AltitudeMeters>557.20001220703125</AltitudeMeters>
            <DistanceMeters>15004.573363585</DistanceMeters>
          </Trackpoint>
          <Trackpoint>
            <Time>2021-04-01T07:46:17.000Z</Time>
            <Position>
              <LatitudeDegrees>42.42444676347076892852783203125</LatitudeDegrees>
              <LongitudeDegrees>2.78460167348384857177734375</LongitudeDegrees>
            </Position>
            <AltitudeMeters>557.20001220703125</AltitudeMeters>
            <DistanceMeters>15004.806130547</DistanceMeters>
          </Trackpoint>
          <Trackpoint>
            <Time>2021-04-01T07:46:18.000Z</Time>
            <Position>
              <LatitudeDegrees>42.42444676347076892852783203125</LatitudeDegrees>
              <LongitudeDegrees>2.7846018411219120025634765625</LongitudeDegrees>
            </Position>
            <AltitudeMeters>557.20001220703125</AltitudeMeters>
            <DistanceMeters>15004.806130547</DistanceMeters>
          </Trackpoint>
          <Trackpoint>
            <Time>2021-04-01T07:46:28.000Z</Time>
            <Position>
              <LatitudeDegrees>42.42444642819464206695556640625</LatitudeDegrees>
              <LongitudeDegrees>2.784600667655467987060546875</LongitudeDegrees>
            </Position>
            <AltitudeMeters>557.20001220703125</AltitudeMeters>
            <DistanceMeters>15004.806130547</DistanceMeters>
          </Trackpoint>
          <Trackpoint>
            <Time>2021-04-01T07:46:31.000Z</Time>
            <Position>
              <LatitudeDegrees>42.42444659583270549774169921875</LatitudeDegrees>
              <LongitudeDegrees>2.78459806926548480987548828125</LongitudeDegrees>
            </Position>
            <AltitudeMeters>557.20001220703125</AltitudeMeters>
            <DistanceMeters>15004.996183976</DistanceMeters>
          </Trackpoint>
          <Trackpoint>
            <Time>2021-04-01T07:46:34.000Z</Time>
            <Position>
              <LatitudeDegrees>42.42444676347076892852783203125</LatitudeDegrees>
              <LongitudeDegrees>2.7845964767038822174072265625</LongitudeDegrees>
            </Position>
            <AltitudeMeters>557.20001220703125</AltitudeMeters>
            <DistanceMeters>15005.130572044</DistanceMeters>
          </Trackpoint>
          <Trackpoint>
            <Time>2021-04-01T07:46:41.000Z</Time>
            <Position>
              <LatitudeDegrees>42.4244468472898006439208984375</LatitudeDegrees>
              <LongitudeDegrees>2.78459094464778900146484375</LongitudeDegrees>
            </Position>
            <AltitudeMeters>557.20001220703125</AltitudeMeters>
            <DistanceMeters>15005.586304156</DistanceMeters>
          </Trackpoint>
          <Trackpoint>
            <Time>2021-04-01T07:46:55.000Z</Time>
            <Position>
              <LatitudeDegrees>42.4244508706033229827880859375</LatitudeDegrees>
              <LongitudeDegrees>2.784588597714900970458984375</LongitudeDegrees>
            </Position>
            <AltitudeMeters>557.20001220703125</AltitudeMeters>
            <DistanceMeters>15006.070847227</DistanceMeters>
          </Trackpoint>
          <Trackpoint>
            <Time>2021-04-01T07:47:12.000Z</Time>
            <Position>
              <LatitudeDegrees>42.4243707396090030670166015625</LatitudeDegrees>
              <LongitudeDegrees>2.78468155302107334136962890625</LongitudeDegrees>
            </Position>
            <AltitudeMeters>557.20001220703125</AltitudeMeters>
            <DistanceMeters>15017.812704284</DistanceMeters>
          </Trackpoint>
          <Trackpoint>
            <Time>2021-04-01T07:47:18.000Z</Time>
            <Position>
              <LatitudeDegrees>42.42438842542469501495361328125</LatitudeDegrees>
              <LongitudeDegrees>2.7846665494143962860107421875</LongitudeDegrees>
            </Position>
            <AltitudeMeters>557.20001220703125</AltitudeMeters>
            <DistanceMeters>15020.136491218</DistanceMeters>
          </Trackpoint>
          <Trackpoint>
            <Time>2021-04-01T07:47:23.000Z</Time>
            <Position>
              <LatitudeDegrees>42.42442664690315723419189453125</LatitudeDegrees>
              <LongitudeDegrees>2.784618437290191650390625</LongitudeDegrees>
            </Position>
            <AltitudeMeters>557.20001220703125</AltitudeMeters>
            <DistanceMeters>15025.944792656</DistanceMeters>
          </Trackpoint>
          <Trackpoint>
            <Time>2021-04-01T07:47:25.000Z</Time>
            <Position>
              <LatitudeDegrees>42.42443888448178768157958984375</LatitudeDegrees>
              <LongitudeDegrees>2.78459739871323108673095703125</LongitudeDegrees>
            </Position>
            <AltitudeMeters>557.20001220703125</AltitudeMeters>
            <DistanceMeters>15028.146871458</DistanceMeters>
          </Trackpoint>
          <Trackpoint>
            <Time>2021-04-01T07:47:28.000Z</Time>
            <Position>
              <LatitudeDegrees>42.42446268908679485321044921875</LatitudeDegrees>
              <LongitudeDegrees>2.78457309119403362274169921875</LongitudeDegrees>
            </Position>
            <AltitudeMeters>557.20001220703125</AltitudeMeters>
            <DistanceMeters>15031.466011898</DistanceMeters>
          </Trackpoint>
          <Trackpoint>
            <Time>2021-04-01T07:47:37.000Z</Time>
            <Position>
              <LatitudeDegrees>42.42452119477093219757080078125</LatitudeDegrees>
              <LongitudeDegrees>2.7844761125743389129638671875</LongitudeDegrees>
            </Position>
            <AltitudeMeters>557.20001220703125</AltitudeMeters>
            <DistanceMeters>15041.756137086</DistanceMeters>
          </Trackpoint>
          <Trackpoint>
            <Time>2021-04-01T07:47:40.000Z</Time>
            <Position>
              <LatitudeDegrees>42.42453418672084808349609375</LatitudeDegrees>
              <LongitudeDegrees>2.78444551862776279449462890625</LongitudeDegrees>
            </Position>
            <AltitudeMeters>557.20001220703125</AltitudeMeters>
            <DistanceMeters>15044.657176769</DistanceMeters>
          </Trackpoint>
          <Trackpoint>
            <Time>2021-04-01T07:47:41.000Z</Time>
            <Position>
              <LatitudeDegrees>42.4245373718440532684326171875</LatitudeDegrees>
              <LongitudeDegrees>2.7844385616481304168701171875</LongitudeDegrees>
            </Position>
            <AltitudeMeters>557.20001220703125</AltitudeMeters>
            <DistanceMeters>15045.329117111</DistanceMeters>
          </Trackpoint>
          <Trackpoint>
            <Time>2021-04-01T07:47:46.000Z</Time>
            <Position>
              <LatitudeDegrees>42.42453712038695812225341796875</LatitudeDegrees>
              <LongitudeDegrees>2.78440478257834911346435546875</LongitudeDegrees>
            </Position>
            <AltitudeMeters>557.79998779296875</AltitudeMeters>
            <DistanceMeters>15048.102855586</DistanceMeters>
          </Trackpoint>
          <Trackpoint>
            <Time>2021-04-01T07:47:55.000Z</Time>
            <Position>
              <LatitudeDegrees>42.42446654476225376129150390625</LatitudeDegrees>
              <LongitudeDegrees>2.78436991386115550994873046875</LongitudeDegrees>
            </Position>
            <AltitudeMeters>558</AltitudeMeters>
            <DistanceMeters>15056.464126532</DistanceMeters>
          </Trackpoint>
          <Trackpoint>
            <Time>2021-04-01T07:47:57.000Z</Time>
            <Position>
              <LatitudeDegrees>42.42445648647844791412353515625</LatitudeDegrees>
              <LongitudeDegrees>2.78436270542442798614501953125</LongitudeDegrees>
            </Position>
            <AltitudeMeters>558</AltitudeMeters>
            <DistanceMeters>15057.731941032</DistanceMeters>
          </Trackpoint>
          <Trackpoint>
            <Time>2021-04-01T07:48:07.000Z</Time>
            <Position>
              <LatitudeDegrees>42.424398399889469146728515625</LatitudeDegrees>
              <LongitudeDegrees>2.7842886932194232940673828125</LongitudeDegrees>
            </Position>
            <AltitudeMeters>558.20001220703125</AltitudeMeters>
            <DistanceMeters>15066.607659983</DistanceMeters>
          </Trackpoint>
          <Trackpoint>
            <Time>2021-04-01T07:48:09.000Z</Time>
            <Position>
              <LatitudeDegrees>42.42438121698796749114990234375</LatitudeDegrees>
              <LongitudeDegrees>2.784270085394382476806640625</LongitudeDegrees>
            </Position>
            <AltitudeMeters>558.20001220703125</AltitudeMeters>
            <DistanceMeters>15069.056327122</DistanceMeters>
          </Trackpoint>
          <Trackpoint>
            <Time>2021-04-01T07:48:10.000Z</Time>
            <Position>
              <LatitudeDegrees>42.42437803186476230621337890625</LatitudeDegrees>
              <LongitudeDegrees>2.78426564298570156097412109375</LongitudeDegrees>
            </Position>
            <AltitudeMeters>558.20001220703125</AltitudeMeters>
            <DistanceMeters>15069.56806164</DistanceMeters>
          </Trackpoint>
          <Trackpoint>
            <Time>2021-04-01T07:48:13.000Z</Time>
            <Position>
              <LatitudeDegrees>42.42436378262937068939208984375</LatitudeDegrees>
              <LongitudeDegrees>2.7842501364648342132568359375</LongitudeDegrees>
            </Position>
            <AltitudeMeters>558.20001220703125</AltitudeMeters>
            <DistanceMeters>15071.601722136</DistanceMeters>
          </Trackpoint>
          <Trackpoint>
            <Time>2021-04-01T07:48:15.000Z</Time>
            <Position>
              <LatitudeDegrees>42.4243590049445629119873046875</LatitudeDegrees>
              <LongitudeDegrees>2.7842343784868717193603515625</LongitudeDegrees>
            </Position>
            <AltitudeMeters>558.20001220703125</AltitudeMeters>
            <DistanceMeters>15073.00155305</DistanceMeters>
          </Trackpoint>
          <Trackpoint>
            <Time>2021-04-01T07:48:17.000Z</Time>
            <Position>
              <LatitudeDegrees>42.42434777319431304931640625</LatitudeDegrees>
              <LongitudeDegrees>2.7842176146805286407470703125</LongitudeDegrees>
            </Position>
            <AltitudeMeters>558</AltitudeMeters>
            <DistanceMeters>15074.861262511</DistanceMeters>
          </Trackpoint>
          <Trackpoint>
            <Time>2021-04-01T07:48:19.000Z</Time>
            <Position>
              <LatitudeDegrees>42.4243311770260334014892578125</LatitudeDegrees>
              <LongitudeDegrees>2.78419724665582180023193359375</LongitudeDegrees>
            </Position>
            <AltitudeMeters>558</AltitudeMeters>
            <DistanceMeters>15077.353789861</DistanceMeters>
          </Trackpoint>
          <Trackpoint>
            <Time>2021-04-01T07:48:24.000Z</Time>
            <Position>
              <LatitudeDegrees>42.42428029887378215789794921875</LatitudeDegrees>
              <LongitudeDegrees>2.7841606177389621734619140625</LongitudeDegrees>
            </Position>
            <AltitudeMeters>557.4000244140625</AltitudeMeters>
            <DistanceMeters>15083.767213144</DistanceMeters>
          </Trackpoint>
          <Trackpoint>
            <Time>2021-04-01T07:48:31.000Z</Time>
            <Position>
              <LatitudeDegrees>42.4242235533893108367919921875</LatitudeDegrees>
              <LongitudeDegrees>2.78410823084414005279541015625</LongitudeDegrees>
            </Position>
            <AltitudeMeters>556.79998779296875</AltitudeMeters>
            <DistanceMeters>15091.409629937</DistanceMeters>
          </Trackpoint>
          <Trackpoint>
            <Time>2021-04-01T07:48:35.000Z</Time>
            <Position>
              <LatitudeDegrees>42.42419530637562274932861328125</LatitudeDegrees>
              <LongitudeDegrees>2.7840731106698513031005859375</LongitudeDegrees>
            </Position>
            <AltitudeMeters>556.5999755859375</AltitudeMeters>
            <DistanceMeters>15095.67631883</DistanceMeters>
          </Trackpoint>
          <Trackpoint>
            <Time>2021-04-01T07:48:37.000Z</Time>
            <Position>
              <LatitudeDegrees>42.42418684065341949462890625</LatitudeDegrees>
              <LongitudeDegrees>2.78405341319739818572998046875</LongitudeDegrees>
            </Position>
            <AltitudeMeters>556.5999755859375</AltitudeMeters>
            <DistanceMeters>15097.548128025</DistanceMeters>
          </Trackpoint>
          <Trackpoint>
            <Time>2021-04-01T07:48:39.000Z</Time>
            <Position>
              <LatitudeDegrees>42.42417233996093273162841796875</LatitudeDegrees>
              <LongitudeDegrees>2.78403379954397678375244140625</LongitudeDegrees>
            </Position>
            <AltitudeMeters>556.5999755859375</AltitudeMeters>
            <DistanceMeters>15099.82876917</DistanceMeters>
          </Trackpoint>
          <Trackpoint>
            <Time>2021-04-01T07:48:41.000Z</Time>
            <Position>
              <LatitudeDegrees>42.42416580207645893096923828125</LatitudeDegrees>
              <LongitudeDegrees>2.78401569463312625885009765625</LongitudeDegrees>
            </Position>
            <AltitudeMeters>556.5999755859375</AltitudeMeters>
            <DistanceMeters>15101.4801574</DistanceMeters>
          </Trackpoint>
          <Trackpoint>
            <Time>2021-04-01T07:48:44.000Z</Time>
            <Position>
              <LatitudeDegrees>42.42414618842303752899169921875</LatitudeDegrees>
              <LongitudeDegrees>2.78398216702044010162353515625</LongitudeDegrees>
            </Position>
            <AltitudeMeters>556.4000244140625</AltitudeMeters>
            <DistanceMeters>15104.994861452</DistanceMeters>
          </Trackpoint>
          <Trackpoint>
            <Time>2021-04-01T07:48:45.000Z</Time>
            <Position>
              <LatitudeDegrees>42.42413981817662715911865234375</LatitudeDegrees>
              <LongitudeDegrees>2.78397194109857082366943359375</LongitudeDegrees>
            </Position>
            <AltitudeMeters>556.4000244140625</AltitudeMeters>
            <DistanceMeters>15106.094875199</DistanceMeters>
          </Trackpoint>
          <Trackpoint>
            <Time>2021-04-01T07:48:46.000Z</Time>
            <Position>
              <LatitudeDegrees>42.42413529194891452789306640625</LatitudeDegrees>
              <LongitudeDegrees>2.78395500965416431427001953125</LongitudeDegrees>
            </Position>
            <AltitudeMeters>556.20001220703125</AltitudeMeters>
            <DistanceMeters>15107.576195075</DistanceMeters>
          </Trackpoint>
          <Trackpoint>
            <Time>2021-04-01T07:48:47.000Z</Time>
            <Position>
              <LatitudeDegrees>42.4241310171782970428466796875</LatitudeDegrees>
              <LongitudeDegrees>2.78394746594130992889404296875</LongitudeDegrees>
            </Position>
            <AltitudeMeters>556.20001220703125</AltitudeMeters>
            <DistanceMeters>15108.365546248</DistanceMeters>
          </Trackpoint>
          <Trackpoint>
            <Time>2021-04-01T07:48:48.000Z</Time>
            <Position>
              <LatitudeDegrees>42.42412506602704524993896484375</LatitudeDegrees>
              <LongitudeDegrees>2.7839383296668529510498046875</LongitudeDegrees>
            </Position>
            <AltitudeMeters>556.20001220703125</AltitudeMeters>
            <DistanceMeters>15109.371214465</DistanceMeters>
          </Trackpoint>
          <Trackpoint>
            <Time>2021-04-01T07:48:49.000Z</Time>
            <Position>
              <LatitudeDegrees>42.4241189472377300262451171875</LatitudeDegrees>
              <LongitudeDegrees>2.78393154032528400421142578125</LongitudeDegrees>
            </Position>
            <AltitudeMeters>556.20001220703125</AltitudeMeters>
            <DistanceMeters>15110.247317483</DistanceMeters>
          </Trackpoint>
          <Trackpoint>
            <Time>2021-04-01T07:48:51.000Z</Time>
            <Position>
              <LatitudeDegrees>42.4241041950881481170654296875</LatitudeDegrees>
              <LongitudeDegrees>2.78391058556735515594482421875</LongitudeDegrees>
            </Position>
            <AltitudeMeters>556.20001220703125</AltitudeMeters>
            <DistanceMeters>15112.624885117</DistanceMeters>
          </Trackpoint>
          <Trackpoint>
            <Time>2021-04-01T07:48:57.000Z</Time>
            <Position>
              <LatitudeDegrees>42.424061782658100128173828125</LatitudeDegrees>
              <LongitudeDegrees>2.78386465273797512054443359375</LongitudeDegrees>
            </Position>
            <AltitudeMeters>556.20001220703125</AltitudeMeters>
            <DistanceMeters>15118.668614033</DistanceMeters>
          </Trackpoint>
          <Trackpoint>
            <Time>2021-04-01T07:48:59.000Z</Time>
            <Position>
              <LatitudeDegrees>42.42404510267078876495361328125</LatitudeDegrees>
              <LongitudeDegrees>2.78384135104715824127197265625</LongitudeDegrees>
            </Position>
            <AltitudeMeters>556</AltitudeMeters>
            <DistanceMeters>15121.336141022</DistanceMeters>
          </Trackpoint>
          <Trackpoint>
            <Time>2021-04-01T07:49:04.000Z</Time>
            <Position>
              <LatitudeDegrees>42.42401308380067348480224609375</LatitudeDegrees>
              <LongitudeDegrees>2.7837757207453250885009765625</LongitudeDegrees>
            </Position>
            <AltitudeMeters>556</AltitudeMeters>
            <DistanceMeters>15127.7993549</DistanceMeters>
          </Trackpoint>
          <Trackpoint>
            <Time>2021-04-01T07:49:07.000Z</Time>
            <Position>
              <LatitudeDegrees>42.423999421298503875732421875</LatitudeDegrees>
              <LongitudeDegrees>2.783740349113941192626953125</LongitudeDegrees>
            </Position>
            <AltitudeMeters>556</AltitudeMeters>
            <DistanceMeters>15131.080185758</DistanceMeters>
          </Trackpoint>
          <Trackpoint>
            <Time>2021-04-01T07:49:08.000Z</Time>
            <Position>
              <LatitudeDegrees>42.4239972420036792755126953125</LatitudeDegrees>
              <LongitudeDegrees>2.7837324701249599456787109375</LongitudeDegrees>
            </Position>
            <AltitudeMeters>556</AltitudeMeters>
            <DistanceMeters>15131.765433141</DistanceMeters>
          </Trackpoint>
          <Trackpoint>
            <Time>2021-04-01T07:49:09.000Z</Time>
            <Position>
              <LatitudeDegrees>42.42399397306144237518310546875</LatitudeDegrees>
              <LongitudeDegrees>2.7837227471172809600830078125</LongitudeDegrees>
            </Position>
            <AltitudeMeters>556</AltitudeMeters>
            <DistanceMeters>15132.651783326</DistanceMeters>
          </Trackpoint>
          <Trackpoint>
            <Time>2021-04-01T07:49:12.000Z</Time>
            <Position>
              <LatitudeDegrees>42.4239811487495899200439453125</LatitudeDegrees>
              <LongitudeDegrees>2.78368544764816761016845703125</LongitudeDegrees>
            </Position>
            <AltitudeMeters>556.20001220703125</AltitudeMeters>
            <DistanceMeters>15136.032918753</DistanceMeters>
          </Trackpoint>
          <Trackpoint>
            <Time>2021-04-01T07:49:18.000Z</Time>
            <Position>
              <LatitudeDegrees>42.42394141852855682373046875</LatitudeDegrees>
              <LongitudeDegrees>2.7836281992495059967041015625</LongitudeDegrees>
            </Position>
            <AltitudeMeters>556.20001220703125</AltitudeMeters>
            <DistanceMeters>15142.489143104</DistanceMeters>
          </Trackpoint>
          <Trackpoint>
            <Time>2021-04-01T07:49:20.000Z</Time>
            <Position>
              <LatitudeDegrees>42.4239258281886577606201171875</LatitudeDegrees>
              <LongitudeDegrees>2.78361286036670207977294921875</LongitudeDegrees>
            </Position>
            <AltitudeMeters>556.4000244140625</AltitudeMeters>
            <DistanceMeters>15144.6330435</DistanceMeters>
          </Trackpoint>
          <Trackpoint>
            <Time>2021-04-01T07:49:21.000Z</Time>
            <Position>
              <LatitudeDegrees>42.4239154346287250518798828125</LatitudeDegrees>
              <LongitudeDegrees>2.78360414318740367889404296875</LongitudeDegrees>
            </Position>
            <AltitudeMeters>556.4000244140625</AltitudeMeters>
            <DistanceMeters>15145.993618993</DistanceMeters>
          </Trackpoint>
          <Trackpoint>
            <Time>2021-04-01T07:49:23.000Z</Time>
            <Position>
              <LatitudeDegrees>42.423902861773967742919921875</LatitudeDegrees>
              <LongitudeDegrees>2.7835866250097751617431640625</LongitudeDegrees>
            </Position>
            <AltitudeMeters>556.5999755859375</AltitudeMeters>
            <DistanceMeters>15148.000460814</DistanceMeters>
          </Trackpoint>
          <Trackpoint>
            <Time>2021-04-01T07:49:25.000Z</Time>
            <Position>
              <LatitudeDegrees>42.4238906241953372955322265625</LatitudeDegrees>
              <LongitudeDegrees>2.7835604734718799591064453125</LongitudeDegrees>
            </Position>
            <AltitudeMeters>556.5999755859375</AltitudeMeters>
            <DistanceMeters>15150.543202392</DistanceMeters>
          </Trackpoint>
          <Trackpoint>
            <Time>2021-04-01T07:49:28.000Z</Time>
            <Position>
              <LatitudeDegrees>42.4238718487322330474853515625</LatitudeDegrees>
              <LongitudeDegrees>2.7835225872695446014404296875</LongitudeDegrees>
            </Position>
            <AltitudeMeters>556.79998779296875</AltitudeMeters>
            <DistanceMeters>15154.292846245</DistanceMeters>
          </Trackpoint>
          <Trackpoint>
            <Time>2021-04-01T07:49:30.000Z</Time>
            <Position>
              <LatitudeDegrees>42.42386497557163238525390625</LatitudeDegrees>
              <LongitudeDegrees>2.78350540436804294586181640625</LongitudeDegrees>
            </Position>
            <AltitudeMeters>557</AltitudeMeters>
            <DistanceMeters>15155.899893806</DistanceMeters>
          </Trackpoint>
          <Trackpoint>
            <Time>2021-04-01T07:49:32.000Z</Time>
            <Position>
              <LatitudeDegrees>42.42385349236428737640380859375</LatitudeDegrees>
              <LongitudeDegrees>2.783486880362033843994140625</LongitudeDegrees>
            </Position>
            <AltitudeMeters>557</AltitudeMeters>
            <DistanceMeters>15157.888655602</DistanceMeters>
          </Trackpoint>
          <Trackpoint>
            <Time>2021-04-01T07:49:33.000Z</Time>
            <Position>
              <LatitudeDegrees>42.4238433502614498138427734375</LatitudeDegrees>
              <LongitudeDegrees>2.78347874991595745086669921875</LongitudeDegrees>
            </Position>
            <AltitudeMeters>557.20001220703125</AltitudeMeters>
            <DistanceMeters>15159.205384381</DistanceMeters>
          </Trackpoint>
          <Trackpoint>
            <Time>2021-04-01T07:49:37.000Z</Time>
            <Position>
              <LatitudeDegrees>42.4238131754100322723388671875</LatitudeDegrees>
              <LongitudeDegrees>2.78344505466520786285400390625</LongitudeDegrees>
            </Position>
            <AltitudeMeters>557.20001220703125</AltitudeMeters>
            <DistanceMeters>15163.55798135</DistanceMeters>
          </Trackpoint>
          <Trackpoint>
            <Time>2021-04-01T07:49:41.000Z</Time>
            <Position>
              <LatitudeDegrees>42.4237974174320697784423828125</LatitudeDegrees>
              <LongitudeDegrees>2.7834146283566951751708984375</LongitudeDegrees>
            </Position>
            <AltitudeMeters>557.4000244140625</AltitudeMeters>
            <DistanceMeters>15166.612170108</DistanceMeters>
          </Trackpoint>
          <Trackpoint>
            <Time>2021-04-01T07:49:43.000Z</Time>
            <Position>
              <LatitudeDegrees>42.42378593422472476959228515625</LatitudeDegrees>
              <LongitudeDegrees>2.78339828364551067352294921875</LongitudeDegrees>
            </Position>
            <AltitudeMeters>557.5999755859375</AltitudeMeters>
            <DistanceMeters>15168.462142803</DistanceMeters>
          </Trackpoint>
          <Trackpoint>
            <Time>2021-04-01T07:49:46.000Z</Time>
            <Position>
              <LatitudeDegrees>42.42377051152288913726806640625</LatitudeDegrees>
              <LongitudeDegrees>2.7833774127066135406494140625</LongitudeDegrees>
            </Position>
            <AltitudeMeters>558</AltitudeMeters>
            <DistanceMeters>15170.890442603</DistanceMeters>
          </Trackpoint>
          <Trackpoint>
            <Time>2021-04-01T07:49:47.000Z</Time>
            <Position>
              <LatitudeDegrees>42.42377369664609432220458984375</LatitudeDegrees>
              <LongitudeDegrees>2.783368192613124847412109375</LongitudeDegrees>
            </Position>
            <AltitudeMeters>558</AltitudeMeters>
            <DistanceMeters>15171.72969582</DistanceMeters>
          </Trackpoint>
          <Trackpoint>
            <Time>2021-04-01T07:49:50.000Z</Time>
            <Position>
              <LatitudeDegrees>42.42374871857464313507080078125</LatitudeDegrees>
              <LongitudeDegrees>2.78334581293165683746337890625</LongitudeDegrees>
            </Position>
            <AltitudeMeters>558.4000244140625</AltitudeMeters>
            <DistanceMeters>15175.062411533</DistanceMeters>
          </Trackpoint>
          <Trackpoint>
            <Time>2021-04-01T07:49:51.000Z</Time>
            <Position>
              <LatitudeDegrees>42.42374117486178874969482421875</LatitudeDegrees>
              <LongitudeDegrees>2.78333256952464580535888671875</LongitudeDegrees>
            </Position>
            <AltitudeMeters>558.4000244140625</AltitudeMeters>
            <DistanceMeters>15176.436196807</DistanceMeters>
          </Trackpoint>
          <Trackpoint>
            <Time>2021-04-01T07:49:52.000Z</Time>
            <Position>
              <LatitudeDegrees>42.42373463697731494903564453125</LatitudeDegrees>
              <LongitudeDegrees>2.7833210863173007965087890625</LongitudeDegrees>
            </Position>
            <AltitudeMeters>558.4000244140625</AltitudeMeters>
            <DistanceMeters>15177.626878125</DistanceMeters>
          </Trackpoint>
          <Trackpoint>
            <Time>2021-04-01T07:49:56.000Z</Time>
            <Position>
              <LatitudeDegrees>42.423718459904193878173828125</LatitudeDegrees>
              <LongitudeDegrees>2.7832925878465175628662109375</LongitudeDegrees>
            </Position>
            <AltitudeMeters>558.79998779296875</AltitudeMeters>
            <DistanceMeters>15180.580359773</DistanceMeters>
          </Trackpoint>
          <Trackpoint>
            <Time>2021-04-01T07:49:58.000Z</Time>
            <Position>
              <LatitudeDegrees>42.4237100780010223388671875</LatitudeDegrees>
              <LongitudeDegrees>2.78327775187790393829345703125</LongitudeDegrees>
            </Position>
            <AltitudeMeters>559</AltitudeMeters>
            <DistanceMeters>15182.118501518</DistanceMeters>
          </Trackpoint>
          <Trackpoint>
            <Time>2021-04-01T07:50:01.000Z</Time>
            <Position>
              <LatitudeDegrees>42.42369490675628185272216796875</LatitudeDegrees>
              <LongitudeDegrees>2.7832617424428462982177734375</LongitudeDegrees>
            </Position>
            <AltitudeMeters>559.5999755859375</AltitudeMeters>
            <DistanceMeters>15184.260294887</DistanceMeters>
          </Trackpoint>
          <Trackpoint>
            <Time>2021-04-01T07:50:07.000Z</Time>
            <Position>
              <LatitudeDegrees>42.42365115322172641754150390625</LatitudeDegrees>
              <LongitudeDegrees>2.78320818208158016204833984375</LongitudeDegrees>
            </Position>
            <AltitudeMeters>560.20001220703125</AltitudeMeters>
            <DistanceMeters>15190.824708401</DistanceMeters>
          </Trackpoint>
          <Trackpoint>
            <Time>2021-04-01T07:50:10.000Z</Time>
            <Position>
              <LatitudeDegrees>42.42364193312823772430419921875</LatitudeDegrees>
              <LongitudeDegrees>2.78317951597273349761962890625</LongitudeDegrees>
            </Position>
            <AltitudeMeters>560.5999755859375</AltitudeMeters>
            <DistanceMeters>15193.393946786</DistanceMeters>
          </Trackpoint>
          <Trackpoint>
            <Time>2021-04-01T07:50:13.000Z</Time>
            <Position>
              <LatitudeDegrees>42.42363388650119304656982421875</LatitudeDegrees>
              <LongitudeDegrees>2.783152945339679718017578125</LongitudeDegrees>
            </Position>
            <AltitudeMeters>561.20001220703125</AltitudeMeters>
            <DistanceMeters>15195.752447812</DistanceMeters>
          </Trackpoint>
          <Trackpoint>
            <Time>2021-04-01T07:50:17.000Z</Time>
            <Position>
              <LatitudeDegrees>42.4236146919429302215576171875</LatitudeDegrees>
              <LongitudeDegrees>2.78312151320278644561767578125</LongitudeDegrees>
            </Position>
            <AltitudeMeters>561.5999755859375</AltitudeMeters>
            <DistanceMeters>15199.102729147</DistanceMeters>
          </Trackpoint>
          <Trackpoint>
            <Time>2021-04-01T07:50:19.000Z</Time>
            <Position>
              <LatitudeDegrees>42.42360488511621952056884765625</LatitudeDegrees>
              <LongitudeDegrees>2.78310843743383884429931640625</LongitudeDegrees>
            </Position>
            <AltitudeMeters>561.79998779296875</AltitudeMeters>
            <DistanceMeters>15200.634988875</DistanceMeters>
          </Trackpoint>
          <Trackpoint>
            <Time>2021-04-01T07:50:20.000Z</Time>
            <Position>
              <LatitudeDegrees>42.4236006103456020355224609375</LatitudeDegrees>
              <LongitudeDegrees>2.78309854678809642791748046875</LongitudeDegrees>
            </Position>
            <AltitudeMeters>561.79998779296875</AltitudeMeters>
            <DistanceMeters>15201.575705353</DistanceMeters>
          </Trackpoint>
          <Trackpoint>
            <Time>2021-04-01T07:50:21.000Z</Time>
            <Position>
              <LatitudeDegrees>42.42359750904142856597900390625</LatitudeDegrees>
              <LongitudeDegrees>2.78309217654168605804443359375</LongitudeDegrees>
            </Position>
            <AltitudeMeters>562</AltitudeMeters>
            <DistanceMeters>15202.206041266</DistanceMeters>
          </Trackpoint>
          <Trackpoint>
            <Time>2021-04-01T07:50:23.000Z</Time>
            <Position>
              <LatitudeDegrees>42.42358778603374958038330078125</LatitudeDegrees>
              <LongitudeDegrees>2.783086560666561126708984375</LongitudeDegrees>
            </Position>
            <AltitudeMeters>562.4000244140625</AltitudeMeters>
            <DistanceMeters>15203.377609284</DistanceMeters>
          </Trackpoint>
          <Trackpoint>
            <Time>2021-04-01T07:50:26.000Z</Time>
            <Position>
              <LatitudeDegrees>42.423566244542598724365234375</LatitudeDegrees>
              <LongitudeDegrees>2.78307474218308925628662109375</LongitudeDegrees>
            </Position>
            <AltitudeMeters>562.79998779296875</AltitudeMeters>
            <DistanceMeters>15205.96261539</DistanceMeters>
          </Trackpoint>
          <Trackpoint>
            <Time>2021-04-01T07:50:27.000Z</Time>
            <Position>
              <LatitudeDegrees>42.42356029339134693145751953125</LatitudeDegrees>
              <LongitudeDegrees>2.78306476771831512451171875</LongitudeDegrees>
            </Position>
            <AltitudeMeters>563</AltitudeMeters>
            <DistanceMeters>15207.020788097</DistanceMeters>
          </Trackpoint>
          <Trackpoint>
            <Time>2021-04-01T07:50:29.000Z</Time>
            <Position>
              <LatitudeDegrees>42.42354302667081356048583984375</LatitudeDegrees>
              <LongitudeDegrees>2.78305563144385814666748046875</LongitudeDegrees>
            </Position>
            <AltitudeMeters>563.20001220703125</AltitudeMeters>
            <DistanceMeters>15209.085296775</DistanceMeters>
          </Trackpoint>
          <Trackpoint>
            <Time>2021-04-01T07:50:32.000Z</Time>
            <Position>
              <LatitudeDegrees>42.4235281907021999359130859375</LatitudeDegrees>
              <LongitudeDegrees>2.7830558829009532928466796875</LongitudeDegrees>
            </Position>
            <AltitudeMeters>563.5999755859375</AltitudeMeters>
            <DistanceMeters>15210.736685005</DistanceMeters>
          </Trackpoint>
          <Trackpoint>
            <Time>2021-04-01T07:50:33.000Z</Time>
            <Position>
              <LatitudeDegrees>42.42352408356964588165283203125</LatitudeDegrees>
              <LongitudeDegrees>2.78305579908192157745361328125</LongitudeDegrees>
            </Position>
            <AltitudeMeters>563.5999755859375</AltitudeMeters>
            <DistanceMeters>15211.182399804</DistanceMeters>
          </Trackpoint>
          <Trackpoint>
            <Time>2021-04-01T07:50:34.000Z</Time>
            <Position>
              <LatitudeDegrees>42.42352190427482128143310546875</LatitudeDegrees>
              <LongitudeDegrees>2.7830515243113040924072265625</LongitudeDegrees>
            </Position>
            <AltitudeMeters>563.79998779296875</AltitudeMeters>
            <DistanceMeters>15211.60737219</DistanceMeters>
          </Trackpoint>
          <Trackpoint>
            <Time>2021-04-01T07:50:35.000Z</Time>
            <Position>
              <LatitudeDegrees>42.42351385764777660369873046875</LatitudeDegrees>
              <LongitudeDegrees>2.783046998083591461181640625</LongitudeDegrees>
            </Position>
            <AltitudeMeters>564</AltitudeMeters>
            <DistanceMeters>15212.576458332</DistanceMeters>
          </Trackpoint>
          <Trackpoint>
            <Time>2021-04-01T07:50:36.000Z</Time>
            <Position>
              <LatitudeDegrees>42.42350614629685878753662109375</LatitudeDegrees>
              <LongitudeDegrees>2.7830444835126399993896484375</LongitudeDegrees>
            </Position>
            <AltitudeMeters>564</AltitudeMeters>
            <DistanceMeters>15213.457699828</DistanceMeters>
          </Trackpoint>
          <Trackpoint>
            <Time>2021-04-01T07:50:42.000Z</Time>
            <Position>
              <LatitudeDegrees>42.42347999475896358489990234375</LatitudeDegrees>
              <LongitudeDegrees>2.78304523788392543792724609375</LongitudeDegrees>
            </Position>
            <AltitudeMeters>564.79998779296875</AltitudeMeters>
            <DistanceMeters>15216.371163721</DistanceMeters>
          </Trackpoint>
          <Trackpoint>
            <Time>2021-04-01T07:50:43.000Z</Time>
            <Position>
              <LatitudeDegrees>42.42347597144544124603271484375</LatitudeDegrees>
              <LongitudeDegrees>2.78304574079811573028564453125</LongitudeDegrees>
            </Position>
            <AltitudeMeters>565</AltitudeMeters>
            <DistanceMeters>15216.81687852</DistanceMeters>
          </Trackpoint>
          <Trackpoint>
            <Time>2021-04-01T07:50:48.000Z</Time>
            <Position>
              <LatitudeDegrees>42.42345325648784637451171875</LatitudeDegrees>
              <LongitudeDegrees>2.78305060230195522308349609375</LongitudeDegrees>
            </Position>
            <AltitudeMeters>565.79998779296875</AltitudeMeters>
            <DistanceMeters>15219.377315103</DistanceMeters>
          </Trackpoint>
          <Trackpoint>
            <Time>2021-04-01T07:50:49.000Z</Time>
            <Position>
              <LatitudeDegrees>42.4234499037265777587890625</LatitudeDegrees>
              <LongitudeDegrees>2.78304926119744777679443359375</LongitudeDegrees>
            </Position>
            <AltitudeMeters>566</AltitudeMeters>
            <DistanceMeters>15219.757421961</DistanceMeters>
          </Trackpoint>
          <Trackpoint>
            <Time>2021-04-01T07:50:57.000Z</Time>
            <Position>
              <LatitudeDegrees>42.4234016239643096923828125</LatitudeDegrees>
              <LongitudeDegrees>2.78301187790930271148681640625</LongitudeDegrees>
            </Position>
            <AltitudeMeters>567</AltitudeMeters>
            <DistanceMeters>15225.94657249</DistanceMeters>
          </Trackpoint>
          <Trackpoint>
            <Time>2021-04-01T07:50:58.000Z</Time>
            <Position>
              <LatitudeDegrees>42.42339600808918476104736328125</LatitudeDegrees>
              <LongitudeDegrees>2.783006764948368072509765625</LongitudeDegrees>
            </Position>
            <AltitudeMeters>567</AltitudeMeters>
            <DistanceMeters>15226.694813587</DistanceMeters>
          </Trackpoint>
          <Trackpoint>
            <Time>2021-04-01T07:50:59.000Z</Time>
            <Position>
              <LatitudeDegrees>42.42339164949953556060791015625</LatitudeDegrees>
              <LongitudeDegrees>2.78300383128225803375244140625</LongitudeDegrees>
            </Position>
            <AltitudeMeters>567.20001220703125</AltitudeMeters>
            <DistanceMeters>15227.240700501</DistanceMeters>
          </Trackpoint>
          <Trackpoint>
            <Time>2021-04-01T07:51:02.000Z</Time>
            <Position>
              <LatitudeDegrees>42.4233823455870151519775390625</LatitudeDegrees>
              <LongitudeDegrees>2.7829848043620586395263671875</LongitudeDegrees>
            </Position>
            <AltitudeMeters>567.5999755859375</AltitudeMeters>
            <DistanceMeters>15229.117327745</DistanceMeters>
          </Trackpoint>
          <Trackpoint>
            <Time>2021-04-01T07:51:04.000Z</Time>
            <Position>
              <LatitudeDegrees>42.42337723262608051300048828125</LatitudeDegrees>
              <LongitudeDegrees>2.78296359814703464508056640625</LongitudeDegrees>
            </Position>
            <AltitudeMeters>567.79998779296875</AltitudeMeters>
            <DistanceMeters>15230.950136638</DistanceMeters>
          </Trackpoint>
          <Trackpoint>
            <Time>2021-04-01T07:51:07.000Z</Time>
            <Position>
              <LatitudeDegrees>42.4233746342360973358154296875</LatitudeDegrees>
              <LongitudeDegrees>2.78294230811297893524169921875</LongitudeDegrees>
            </Position>
            <AltitudeMeters>568.20001220703125</AltitudeMeters>
            <DistanceMeters>15232.725382164</DistanceMeters>
          </Trackpoint>
          <Trackpoint>
            <Time>2021-04-01T07:51:09.000Z</Time>
            <Position>
              <LatitudeDegrees>42.42336315102875232696533203125</LatitudeDegrees>
              <LongitudeDegrees>2.782933674752712249755859375</LongitudeDegrees>
            </Position>
            <AltitudeMeters>568.4000244140625</AltitudeMeters>
            <DistanceMeters>15234.191382912</DistanceMeters>
          </Trackpoint>
          <Trackpoint>
            <Time>2021-04-01T07:51:10.000Z</Time>
            <Position>
              <LatitudeDegrees>42.423359043896198272705078125</LatitudeDegrees>
              <LongitudeDegrees>2.7829231135547161102294921875</LongitudeDegrees>
            </Position>
            <AltitudeMeters>568.4000244140625</AltitudeMeters>
            <DistanceMeters>15235.178929497</DistanceMeters>
          </Trackpoint>
          <Trackpoint>
            <Time>2021-04-01T07:51:11.000Z</Time>
            <Position>
              <LatitudeDegrees>42.4233602173626422882080078125</LatitudeDegrees>
              <LongitudeDegrees>2.7829180844128131866455078125</LongitudeDegrees>
            </Position>
            <AltitudeMeters>568.5999755859375</AltitudeMeters>
            <DistanceMeters>15235.624644295</DistanceMeters>
          </Trackpoint>
          <Trackpoint>
            <Time>2021-04-01T07:51:13.000Z</Time>
            <Position>
              <LatitudeDegrees>42.423350326716899871826171875</LatitudeDegrees>
              <LongitudeDegrees>2.78290844522416591644287109375</LongitudeDegrees>
            </Position>
            <AltitudeMeters>568.5999755859375</AltitudeMeters>
            <DistanceMeters>15236.981897254</DistanceMeters>
          </Trackpoint>
          <Trackpoint>
            <Time>2021-04-01T07:51:15.000Z</Time>
            <Position>
              <LatitudeDegrees>42.423347644507884979248046875</LatitudeDegrees>
              <LongitudeDegrees>2.78288329951465129852294921875</LongitudeDegrees>
            </Position>
            <AltitudeMeters>569</AltitudeMeters>
            <DistanceMeters>15239.065995805</DistanceMeters>
          </Trackpoint>
          <Trackpoint>
            <Time>2021-04-01T07:51:17.000Z</Time>
            <Position>
              <LatitudeDegrees>42.42333632893860340118408203125</LatitudeDegrees>
              <LongitudeDegrees>2.782873995602130889892578125</LongitudeDegrees>
            </Position>
            <AltitudeMeters>569.20001220703125</AltitudeMeters>
            <DistanceMeters>15240.538143334</DistanceMeters>
          </Trackpoint>
          <Trackpoint>
            <Time>2021-04-01T07:51:18.000Z</Time>
            <Position>
              <LatitudeDegrees>42.42332325316965579986572265625</LatitudeDegrees>
              <LongitudeDegrees>2.78286636807024478912353515625</LongitudeDegrees>
            </Position>
            <AltitudeMeters>569.20001220703125</AltitudeMeters>
            <DistanceMeters>15242.122555292</DistanceMeters>
          </Trackpoint>
          <Trackpoint>
            <Time>2021-04-01T07:51:25.000Z</Time>
            <Position>
              <LatitudeDegrees>42.42328268475830554962158203125</LatitudeDegrees>
              <LongitudeDegrees>2.78279948048293590545654296875</LongitudeDegrees>
            </Position>
            <AltitudeMeters>570.20001220703125</AltitudeMeters>
            <DistanceMeters>15249.234973181</DistanceMeters>
          </Trackpoint>
          <Trackpoint>
            <Time>2021-04-01T07:51:26.000Z</Time>
            <Position>
              <LatitudeDegrees>42.42327195592224597930908203125</LatitudeDegrees>
              <LongitudeDegrees>2.78279118239879608154296875</LongitudeDegrees>
            </Position>
            <AltitudeMeters>570.4000244140625</AltitudeMeters>
            <DistanceMeters>15250.605467946</DistanceMeters>
          </Trackpoint>
          <Trackpoint>
            <Time>2021-04-01T07:51:27.000Z</Time>
            <Position>
              <LatitudeDegrees>42.42326223291456699371337890625</LatitudeDegrees>
              <LongitudeDegrees>2.78278422541916370391845703125</LongitudeDegrees>
            </Position>
            <AltitudeMeters>570.4000244140625</AltitudeMeters>
            <DistanceMeters>15251.829801516</DistanceMeters>
          </Trackpoint>
          <Trackpoint>
            <Time>2021-04-01T07:51:33.000Z</Time>
            <Position>
              <LatitudeDegrees>42.42324932478368282318115234375</LatitudeDegrees>
              <LongitudeDegrees>2.7827460877597332000732421875</LongitudeDegrees>
            </Position>
            <AltitudeMeters>571.20001220703125</AltitudeMeters>
            <DistanceMeters>15255.275748486</DistanceMeters>
          </Trackpoint>
          <Trackpoint>
            <Time>2021-04-01T07:51:35.000Z</Time>
            <Position>
              <LatitudeDegrees>42.42323608137667179107666015625</LatitudeDegrees>
              <LongitudeDegrees>2.78273292817175388336181640625</LongitudeDegrees>
            </Position>
            <AltitudeMeters>571.4000244140625</AltitudeMeters>
            <DistanceMeters>15257.103623833</DistanceMeters>
          </Trackpoint>
          <Trackpoint>
            <Time>2021-04-01T07:51:41.000Z</Time>
            <Position>
              <LatitudeDegrees>42.4232093431055545806884765625</LatitudeDegrees>
              <LongitudeDegrees>2.7826850675046443939208984375</LongitudeDegrees>
            </Position>
            <AltitudeMeters>572.4000244140625</AltitudeMeters>
            <DistanceMeters>15262.034951835</DistanceMeters>
          </Trackpoint>
          <Trackpoint>
            <Time>2021-04-01T07:51:43.000Z</Time>
            <Position>
              <LatitudeDegrees>42.42321495898067951202392578125</LatitudeDegrees>
              <LongitudeDegrees>2.78266914188861846923828125</LongitudeDegrees>
            </Position>
            <AltitudeMeters>572.5999755859375</AltitudeMeters>
            <DistanceMeters>15263.482355627</DistanceMeters>
          </Trackpoint>
          <Trackpoint>
            <Time>2021-04-01T07:51:46.000Z</Time>
            <Position>
              <LatitudeDegrees>42.4232002906501293182373046875</LatitudeDegrees>
              <LongitudeDegrees>2.78264273889362812042236328125</LongitudeDegrees>
            </Position>
            <AltitudeMeters>573</AltitudeMeters>
            <DistanceMeters>15266.196861544</DistanceMeters>
          </Trackpoint>
          <Trackpoint>
            <Time>2021-04-01T07:51:49.000Z</Time>
            <Position>
              <LatitudeDegrees>42.423182688653469085693359375</LatitudeDegrees>
              <LongitudeDegrees>2.782620526850223541259765625</LongitudeDegrees>
            </Position>
            <AltitudeMeters>573.20001220703125</AltitudeMeters>
            <DistanceMeters>15268.874524835</DistanceMeters>
          </Trackpoint>
          <Trackpoint>
            <Time>2021-04-01T07:51:50.000Z</Time>
            <Position>
              <LatitudeDegrees>42.4231790006160736083984375</LatitudeDegrees>
              <LongitudeDegrees>2.7826046012341976165771484375</LongitudeDegrees>
            </Position>
            <AltitudeMeters>573.4000244140625</AltitudeMeters>
            <DistanceMeters>15270.2450196</DistanceMeters>
          </Trackpoint>
          <Trackpoint>
            <Time>2021-04-01T07:51:52.000Z</Time>
            <Position>
              <LatitudeDegrees>42.4231805093586444854736328125</LatitudeDegrees>
              <LongitudeDegrees>2.78257350437343120574951171875</LongitudeDegrees>
            </Position>
            <AltitudeMeters>573.5999755859375</AltitudeMeters>
            <DistanceMeters>15272.805456183</DistanceMeters>
          </Trackpoint>
          <Trackpoint>
            <Time>2021-04-01T07:51:56.000Z</Time>
            <Position>
              <LatitudeDegrees>42.42318880744278430938720703125</LatitudeDegrees>
              <LongitudeDegrees>2.78251449577510356903076171875</LongitudeDegrees>
            </Position>
            <AltitudeMeters>574</AltitudeMeters>
            <DistanceMeters>15277.741359975</DistanceMeters>
          </Trackpoint>
          <Trackpoint>
            <Time>2021-04-01T07:51:58.000Z</Time>
            <Position>
              <LatitudeDegrees>42.42317824624478816986083984375</LatitudeDegrees>
              <LongitudeDegrees>2.78249186463654041290283203125</LongitudeDegrees>
            </Position>
            <AltitudeMeters>574.20001220703125</AltitudeMeters>
            <DistanceMeters>15279.941387469</DistanceMeters>
          </Trackpoint>
          <Trackpoint>
            <Time>2021-04-01T07:52:00.000Z</Time>
            <Position>
              <LatitudeDegrees>42.423169612884521484375</LatitudeDegrees>
              <LongitudeDegrees>2.78247493319213390350341796875</LongitudeDegrees>
            </Position>
            <AltitudeMeters>574.4000244140625</AltitudeMeters>
            <DistanceMeters>15281.630619294</DistanceMeters>
          </Trackpoint>
          <Trackpoint>
            <Time>2021-04-01T07:52:02.000Z</Time>
            <Position>
              <LatitudeDegrees>42.4231674335896968841552734375</LatitudeDegrees>
              <LongitudeDegrees>2.7824597619473934173583984375</LongitudeDegrees>
            </Position>
            <AltitudeMeters>574.5999755859375</AltitudeMeters>
            <DistanceMeters>15282.898433794</DistanceMeters>
          </Trackpoint>
          <Trackpoint>
            <Time>2021-04-01T07:52:04.000Z</Time>
            <Position>
              <LatitudeDegrees>42.4231707863509654998779296875</LatitudeDegrees>
              <LongitudeDegrees>2.78244760818779468536376953125</LongitudeDegrees>
            </Position>
            <AltitudeMeters>574.79998779296875</AltitudeMeters>
            <DistanceMeters>15283.965106017</DistanceMeters>
          </Trackpoint>
          <Trackpoint>
            <Time>2021-04-01T07:52:09.000Z</Time>
            <Position>
              <LatitudeDegrees>42.4231687746942043304443359375</LatitudeDegrees>
              <LongitudeDegrees>2.78241642750799655914306640625</LongitudeDegrees>
            </Position>
            <AltitudeMeters>575.20001220703125</AltitudeMeters>
            <DistanceMeters>15286.536101147</DistanceMeters>
          </Trackpoint>
          <Trackpoint>
            <Time>2021-04-01T07:52:11.000Z</Time>
            <Position>
              <LatitudeDegrees>42.4231583811342716217041015625</LatitudeDegrees>
              <LongitudeDegrees>2.7824014239013195037841796875</LongitudeDegrees>
            </Position>
            <AltitudeMeters>575.5999755859375</AltitudeMeters>
            <DistanceMeters>15288.225332971</DistanceMeters>
          </Trackpoint>
          <Trackpoint>
            <Time>2021-04-01T07:52:16.000Z</Time>
            <Position>
              <LatitudeDegrees>42.42314890958368778228759765625</LatitudeDegrees>
              <LongitudeDegrees>2.78237183578312397003173828125</LongitudeDegrees>
            </Position>
            <AltitudeMeters>576.20001220703125</AltitudeMeters>
            <DistanceMeters>15290.874176001</DistanceMeters>
          </Trackpoint>
          <Trackpoint>
            <Time>2021-04-01T07:52:17.000Z</Time>
            <Position>
              <LatitudeDegrees>42.42314991541206836700439453125</LatitudeDegrees>
              <LongitudeDegrees>2.78236580081284046173095703125</LongitudeDegrees>
            </Position>
            <AltitudeMeters>576.4000244140625</AltitudeMeters>
            <DistanceMeters>15291.377010109</DistanceMeters>
          </Trackpoint>
          <Trackpoint>
            <Time>2021-04-01T07:52:20.000Z</Time>
            <Position>
              <LatitudeDegrees>42.42314823903143405914306640625</LatitudeDegrees>
              <LongitudeDegrees>2.78233998455107212066650390625</LongitudeDegrees>
            </Position>
            <AltitudeMeters>576.5999755859375</AltitudeMeters>
            <DistanceMeters>15293.506117522</DistanceMeters>
          </Trackpoint>
          <Trackpoint>
            <Time>2021-04-01T07:52:23.000Z</Time>
            <Position>
              <LatitudeDegrees>42.423137761652469635009765625</LatitudeDegrees>
              <LongitudeDegrees>2.78231148608028888702392578125</LongitudeDegrees>
            </Position>
            <AltitudeMeters>577</AltitudeMeters>
            <DistanceMeters>15296.122373997</DistanceMeters>
          </Trackpoint>
          <Trackpoint>
            <Time>2021-04-01T07:52:25.000Z</Time>
            <Position>
              <LatitudeDegrees>42.42313365451991558074951171875</LatitudeDegrees>
              <LongitudeDegrees>2.7822914533317089080810546875</LongitudeDegrees>
            </Position>
            <AltitudeMeters>577.20001220703125</AltitudeMeters>
            <DistanceMeters>15297.832854856</DistanceMeters>
          </Trackpoint>
          <Trackpoint>
            <Time>2021-04-01T07:52:28.000Z</Time>
            <Position>
              <LatitudeDegrees>42.4231298826634883880615234375</LatitudeDegrees>
              <LongitudeDegrees>2.7822647988796234130859375</LongitudeDegrees>
            </Position>
            <AltitudeMeters>577.5999755859375</AltitudeMeters>
            <DistanceMeters>15300.061428849</DistanceMeters>
          </Trackpoint>
          <Trackpoint>
            <Time>2021-04-01T07:52:30.000Z</Time>
            <Position>
              <LatitudeDegrees>42.42313063703477382659912109375</LatitudeDegrees>
              <LongitudeDegrees>2.78224778361618518829345703125</LongitudeDegrees>
            </Position>
            <AltitudeMeters>577.79998779296875</AltitudeMeters>
            <DistanceMeters>15301.461259764</DistanceMeters>
          </Trackpoint>
          <Trackpoint>
            <Time>2021-04-01T07:52:37.000Z</Time>
            <Position>
              <LatitudeDegrees>42.4231533519923686981201171875</LatitudeDegrees>
              <LongitudeDegrees>2.7821704186499118804931640625</LongitudeDegrees>
            </Position>
            <AltitudeMeters>578.5999755859375</AltitudeMeters>
            <DistanceMeters>15308.301863255</DistanceMeters>
          </Trackpoint>
          <Trackpoint>
            <Time>2021-04-01T07:52:39.000Z</Time>
            <Position>
              <LatitudeDegrees>42.42316047661006450653076171875</LatitudeDegrees>
              <LongitudeDegrees>2.7821476198732852935791015625</LongitudeDegrees>
            </Position>
            <AltitudeMeters>579</AltitudeMeters>
            <DistanceMeters>15310.335523751</DistanceMeters>
          </Trackpoint>
          <Trackpoint>
            <Time>2021-04-01T07:52:42.000Z</Time>
            <Position>
              <LatitudeDegrees>42.42316550575196743011474609375</LatitudeDegrees>
              <LongitudeDegrees>2.78212465345859527587890625</LongitudeDegrees>
            </Position>
            <AltitudeMeters>579.4000244140625</AltitudeMeters>
            <DistanceMeters>15312.306039641</DistanceMeters>
          </Trackpoint>
          <Trackpoint>
            <Time>2021-04-01T07:52:43.000Z</Time>
            <Position>
              <LatitudeDegrees>42.42316760122776031494140625</LatitudeDegrees>
              <LongitudeDegrees>2.7821167744696140289306640625</LongitudeDegrees>
            </Position>
            <AltitudeMeters>579.79998779296875</AltitudeMeters>
            <DistanceMeters>15312.991287023</DistanceMeters>
          </Trackpoint>
          <Trackpoint>
            <Time>2021-04-01T07:52:45.000Z</Time>
            <Position>
              <LatitudeDegrees>42.4231714569032192230224609375</LatitudeDegrees>
              <LongitudeDegrees>2.78210478834807872772216796875</LongitudeDegrees>
            </Position>
            <AltitudeMeters>580</AltitudeMeters>
            <DistanceMeters>15314.066391569</DistanceMeters>
          </Trackpoint>
          <Trackpoint>
            <Time>2021-04-01T07:52:46.000Z</Time>
            <Position>
              <LatitudeDegrees>42.423171959817409515380859375</LatitudeDegrees>
              <LongitudeDegrees>2.78209473006427288055419921875</LongitudeDegrees>
            </Position>
            <AltitudeMeters>580.20001220703125</AltitudeMeters>
            <DistanceMeters>15314.894815259</DistanceMeters>
          </Trackpoint>
          <Trackpoint>
            <Time>2021-04-01T07:52:50.000Z</Time>
            <Position>
              <LatitudeDegrees>42.42316634394228458404541015625</LatitudeDegrees>
              <LongitudeDegrees>2.78206908144056797027587890625</LongitudeDegrees>
            </Position>
            <AltitudeMeters>580.5999755859375</AltitudeMeters>
            <DistanceMeters>15317.094842753</DistanceMeters>
          </Trackpoint>
          <Trackpoint>
            <Time>2021-04-01T07:52:51.000Z</Time>
            <Position>
              <LatitudeDegrees>42.423167265951633453369140625</LatitudeDegrees>
              <LongitudeDegrees>2.78206237591803073883056640625</LongitudeDegrees>
            </Position>
            <AltitudeMeters>580.79998779296875</AltitudeMeters>
            <DistanceMeters>15317.657028376</DistanceMeters>
          </Trackpoint>
          <Trackpoint>
            <Time>2021-04-01T07:52:52.000Z</Time>
            <Position>
              <LatitudeDegrees>42.4231684394180774688720703125</LatitudeDegrees>
              <LongitudeDegrees>2.78205349110066890716552734375</LongitudeDegrees>
            </Position>
            <AltitudeMeters>581</AltitudeMeters>
            <DistanceMeters>15318.393102141</DistanceMeters>
          </Trackpoint>
          <Trackpoint>
            <Time>2021-04-01T07:52:56.000Z</Time>
            <Position>
              <LatitudeDegrees>42.42317019961774349212646484375</LatitudeDegrees>
              <LongitudeDegrees>2.78201409615576267242431640625</LongitudeDegrees>
            </Position>
            <AltitudeMeters>581.79998779296875</AltitudeMeters>
            <DistanceMeters>15321.635170768</DistanceMeters>
          </Trackpoint>
          <Trackpoint>
            <Time>2021-04-01T07:52:58.000Z</Time>
            <Position>
              <LatitudeDegrees>42.42317036725580692291259765625</LatitudeDegrees>
              <LongitudeDegrees>2.7819938957691192626953125</LongitudeDegrees>
            </Position>
            <AltitudeMeters>582.20001220703125</AltitudeMeters>
            <DistanceMeters>15323.294740988</DistanceMeters>
          </Trackpoint>
          <Trackpoint>
            <Time>2021-04-01T07:52:59.000Z</Time>
            <Position>
              <LatitudeDegrees>42.423168607056140899658203125</LatitudeDegrees>
              <LongitudeDegrees>2.7819856815040111541748046875</LongitudeDegrees>
            </Position>
            <AltitudeMeters>582.20001220703125</AltitudeMeters>
            <DistanceMeters>15324.005855803</DistanceMeters>
          </Trackpoint>
          <Trackpoint>
            <Time>2021-04-01T07:53:02.000Z</Time>
            <Position>
              <LatitudeDegrees>42.423162572085857391357421875</LatitudeDegrees>
              <LongitudeDegrees>2.78196950443089008331298828125</LongitudeDegrees>
            </Position>
            <AltitudeMeters>582.79998779296875</AltitudeMeters>
            <DistanceMeters>15325.49629158</DistanceMeters>
          </Trackpoint>
          <Trackpoint>
            <Time>2021-04-01T07:53:06.000Z</Time>
            <Position>
              <LatitudeDegrees>42.42314673028886318206787109375</LatitudeDegrees>
              <LongitudeDegrees>2.7819504775106906890869140625</LongitudeDegrees>
            </Position>
            <AltitudeMeters>583.20001220703125</AltitudeMeters>
            <DistanceMeters>15327.852877461</DistanceMeters>
          </Trackpoint>
          <Trackpoint>
            <Time>2021-04-01T07:53:11.000Z</Time>
            <Position>
              <LatitudeDegrees>42.42312745191156864166259765625</LatitudeDegrees>
              <LongitudeDegrees>2.7819427661597728729248046875</LongitudeDegrees>
            </Position>
            <AltitudeMeters>584</AltitudeMeters>
            <DistanceMeters>15330.09357434</DistanceMeters>
          </Trackpoint>
          <Trackpoint>
            <Time>2021-04-01T07:53:15.000Z</Time>
            <Position>
              <LatitudeDegrees>42.42312200367450714111328125</LatitudeDegrees>
              <LongitudeDegrees>2.7819511480629444122314453125</LongitudeDegrees>
            </Position>
            <AltitudeMeters>584.4000244140625</AltitudeMeters>
            <DistanceMeters>15331.014892518</DistanceMeters>
          </Trackpoint>
          <Trackpoint>
            <Time>2021-04-01T07:53:16.000Z</Time>
            <Position>
              <LatitudeDegrees>42.423116974532604217529296875</LatitudeDegrees>
              <LongitudeDegrees>2.78194963932037353515625</LongitudeDegrees>
            </Position>
            <AltitudeMeters>584.5999755859375</AltitudeMeters>
            <DistanceMeters>15331.585052804</DistanceMeters>
          </Trackpoint>
          <Trackpoint>
            <Time>2021-04-01T07:53:19.000Z</Time>
            <Position>
              <LatitudeDegrees>42.4230873025953769683837890625</LatitudeDegrees>
              <LongitudeDegrees>2.78192390687763690948486328125</LongitudeDegrees>
            </Position>
            <AltitudeMeters>585</AltitudeMeters>
            <DistanceMeters>15335.505408669</DistanceMeters>
          </Trackpoint>
          <Trackpoint>
            <Time>2021-04-01T07:53:28.000Z</Time>
            <Position>
              <LatitudeDegrees>42.42306157015264034271240234375</LatitudeDegrees>
              <LongitudeDegrees>2.78189440257847309112548828125</LongitudeDegrees>
            </Position>
            <AltitudeMeters>586.20001220703125</AltitudeMeters>
            <DistanceMeters>15339.256256453</DistanceMeters>
          </Trackpoint>
          <Trackpoint>
            <Time>2021-04-01T07:53:33.000Z</Time>
            <Position>
              <LatitudeDegrees>42.423074059188365936279296875</LatitudeDegrees>
              <LongitudeDegrees>2.78190596960484981536865234375</LongitudeDegrees>
            </Position>
            <AltitudeMeters>586.4000244140625</AltitudeMeters>
            <DistanceMeters>15340.93745065</DistanceMeters>
          </Trackpoint>
          <Trackpoint>
            <Time>2021-04-01T07:53:38.000Z</Time>
            <Position>
              <LatitudeDegrees>42.4230770766735076904296875</LatitudeDegrees>
              <LongitudeDegrees>2.78190362267196178436279296875</LongitudeDegrees>
            </Position>
            <AltitudeMeters>586.4000244140625</AltitudeMeters>
            <DistanceMeters>15341.317557507</DistanceMeters>
          </Trackpoint>
          <Trackpoint>
            <Time>2021-04-01T07:53:44.000Z</Time>
            <Position>
              <LatitudeDegrees>42.4230770766735076904296875</LatitudeDegrees>
              <LongitudeDegrees>2.78190362267196178436279296875</LongitudeDegrees>
            </Position>
            <AltitudeMeters>586.4000244140625</AltitudeMeters>
            <DistanceMeters>15341.317557507</DistanceMeters>
          </Trackpoint>
          <Trackpoint>
            <Time>2021-04-01T07:53:50.000Z</Time>
            <Position>
              <LatitudeDegrees>42.42308034561574459075927734375</LatitudeDegrees>
              <LongitudeDegrees>2.78190362267196178436279296875</LongitudeDegrees>
            </Position>
            <AltitudeMeters>586.4000244140625</AltitudeMeters>
            <DistanceMeters>15341.673114915</DistanceMeters>
          </Trackpoint>
          <Trackpoint>
            <Time>2021-04-01T07:54:18.000Z</Time>
            <Position>
              <LatitudeDegrees>42.42308956570923328399658203125</LatitudeDegrees>
              <LongitudeDegrees>2.7819015271961688995361328125</LongitudeDegrees>
            </Position>
            <AltitudeMeters>587.20001220703125</AltitudeMeters>
            <DistanceMeters>15342.709733985</DistanceMeters>
          </Trackpoint>
          <Trackpoint>
            <Time>2021-04-01T07:54:22.000Z</Time>
            <Position>
              <LatitudeDegrees>42.423089481890201568603515625</LatitudeDegrees>
              <LongitudeDegrees>2.7819062210619449615478515625</LongitudeDegrees>
            </Position>
            <AltitudeMeters>587.20001220703125</AltitudeMeters>
            <DistanceMeters>15343.065291393</DistanceMeters>
          </Trackpoint>
          <Trackpoint>
            <Time>2021-04-01T07:54:47.000Z</Time>
            <Position>
              <LatitudeDegrees>42.42308135144412517547607421875</LatitudeDegrees>
              <LongitudeDegrees>2.78193287551403045654296875</LongitudeDegrees>
            </Position>
            <AltitudeMeters>587.79998779296875</AltitudeMeters>
            <DistanceMeters>15345.431437499</DistanceMeters>
          </Trackpoint>
          <Trackpoint>
            <Time>2021-04-01T07:54:50.000Z</Time>
            <Position>
              <LatitudeDegrees>42.423080764710903167724609375</LatitudeDegrees>
              <LongitudeDegrees>2.78193044476211071014404296875</LongitudeDegrees>
            </Position>
            <AltitudeMeters>588.20001220703125</AltitudeMeters>
            <DistanceMeters>15345.621490928</DistanceMeters>
          </Trackpoint>
          <Trackpoint>
            <Time>2021-04-01T07:54:57.000Z</Time>
            <Position>
              <LatitudeDegrees>42.42306492291390895843505859375</LatitudeDegrees>
              <LongitudeDegrees>2.781901694834232330322265625</LongitudeDegrees>
            </Position>
            <AltitudeMeters>589</AltitudeMeters>
            <DistanceMeters>15348.568851364</DistanceMeters>
          </Trackpoint>
          <Trackpoint>
            <Time>2021-04-01T07:54:59.000Z</Time>
            <Position>
              <LatitudeDegrees>42.4230541102588176727294921875</LatitudeDegrees>
              <LongitudeDegrees>2.781890965998172760009765625</LongitudeDegrees>
            </Position>
            <AltitudeMeters>589.20001220703125</AltitudeMeters>
            <DistanceMeters>15350.059287141</DistanceMeters>
          </Trackpoint>
          <Trackpoint>
            <Time>2021-04-01T07:55:01.000Z</Time>
            <Position>
              <LatitudeDegrees>42.42304312996566295623779296875</LatitudeDegrees>
              <LongitudeDegrees>2.78187881223857402801513671875</LongitudeDegrees>
            </Position>
            <AltitudeMeters>589.4000244140625</AltitudeMeters>
            <DistanceMeters>15351.637989487</DistanceMeters>
          </Trackpoint>
          <Trackpoint>
            <Time>2021-04-01T07:55:06.000Z</Time>
            <Position>
              <LatitudeDegrees>42.423016726970672607421875</LatitudeDegrees>
              <LongitudeDegrees>2.78184126131236553192138671875</LongitudeDegrees>
            </Position>
            <AltitudeMeters>590.20001220703125</AltitudeMeters>
            <DistanceMeters>15355.89832441</DistanceMeters>
          </Trackpoint>
          <Trackpoint>
            <Time>2021-04-01T07:55:07.000Z</Time>
            <Position>
              <LatitudeDegrees>42.42301396094262599945068359375</LatitudeDegrees>
              <LongitudeDegrees>2.781833969056606292724609375</LongitudeDegrees>
            </Position>
            <AltitudeMeters>590.20001220703125</AltitudeMeters>
            <DistanceMeters>15356.583571792</DistanceMeters>
          </Trackpoint>
          <Trackpoint>
            <Time>2021-04-01T07:55:10.000Z</Time>
            <Position>
              <LatitudeDegrees>42.42300407029688358306884765625</LatitudeDegrees>
              <LongitudeDegrees>2.7818086557090282440185546875</LongitudeDegrees>
            </Position>
            <AltitudeMeters>590.79998779296875</AltitudeMeters>
            <DistanceMeters>15358.93824097</DistanceMeters>
          </Trackpoint>
          <Trackpoint>
            <Time>2021-04-01T07:55:13.000Z</Time>
            <Position>
              <LatitudeDegrees>42.42299887351691722869873046875</LatitudeDegrees>
              <LongitudeDegrees>2.7817858569324016571044921875</LongitudeDegrees>
            </Position>
            <AltitudeMeters>591.4000244140625</AltitudeMeters>
            <DistanceMeters>15360.899570255</DistanceMeters>
          </Trackpoint>
          <Trackpoint>
            <Time>2021-04-01T07:55:20.000Z</Time>
            <Position>
              <LatitudeDegrees>42.42296232841908931732177734375</LatitudeDegrees>
              <LongitudeDegrees>2.78175945393741130828857421875</LongitudeDegrees>
            </Position>
            <AltitudeMeters>592.4000244140625</AltitudeMeters>
            <DistanceMeters>15365.510079983</DistanceMeters>
          </Trackpoint>
          <Trackpoint>
            <Time>2021-04-01T07:55:21.000Z</Time>
            <Position>
              <LatitudeDegrees>42.42295729927718639373779296875</LatitudeDegrees>
              <LongitudeDegrees>2.78175442479550838470458984375</LongitudeDegrees>
            </Position>
            <AltitudeMeters>592.4000244140625</AltitudeMeters>
            <DistanceMeters>15366.208380869</DistanceMeters>
          </Trackpoint>
          <Trackpoint>
            <Time>2021-04-01T07:55:23.000Z</Time>
            <Position>
              <LatitudeDegrees>42.42294724099338054656982421875</LatitudeDegrees>
              <LongitudeDegrees>2.781743109226226806640625</LongitudeDegrees>
            </Position>
            <AltitudeMeters>592.5999755859375</AltitudeMeters>
            <DistanceMeters>15367.665112816</DistanceMeters>
          </Trackpoint>
          <Trackpoint>
            <Time>2021-04-01T07:55:24.000Z</Time>
            <Position>
              <LatitudeDegrees>42.4229417927563190460205078125</LatitudeDegrees>
              <LongitudeDegrees>2.781737744808197021484375</LongitudeDegrees>
            </Position>
            <AltitudeMeters>592.5999755859375</AltitudeMeters>
            <DistanceMeters>15368.413353913</DistanceMeters>
          </Trackpoint>
          <Trackpoint>
            <Time>2021-04-01T07:55:25.000Z</Time>
            <Position>
              <LatitudeDegrees>42.42293600924313068389892578125</LatitudeDegrees>
              <LongitudeDegrees>2.7817322127521038055419921875</LongitudeDegrees>
            </Position>
            <AltitudeMeters>592.5999755859375</AltitudeMeters>
            <DistanceMeters>15369.202705086</DistanceMeters>
          </Trackpoint>
          <Trackpoint>
            <Time>2021-04-01T07:55:31.000Z</Time>
            <Position>
              <LatitudeDegrees>42.42291404865682125091552734375</LatitudeDegrees>
              <LongitudeDegrees>2.78170815669000148773193359375</LongitudeDegrees>
            </Position>
            <AltitudeMeters>593.5999755859375</AltitudeMeters>
            <DistanceMeters>15372.34577741</DistanceMeters>
          </Trackpoint>
          <Trackpoint>
            <Time>2021-04-01T07:55:39.000Z</Time>
            <Position>
              <LatitudeDegrees>42.42287683300673961639404296875</LatitudeDegrees>
              <LongitudeDegrees>2.78167127631604671478271484375</LongitudeDegrees>
            </Position>
            <AltitudeMeters>594.5999755859375</AltitudeMeters>
            <DistanceMeters>15377.478979438</DistanceMeters>
          </Trackpoint>
          <Trackpoint>
            <Time>2021-04-01T07:55:47.000Z</Time>
            <Position>
              <LatitudeDegrees>42.42283727042376995086669921875</LatitudeDegrees>
              <LongitudeDegrees>2.78165266849100589752197265625</LongitudeDegrees>
            </Position>
            <AltitudeMeters>595.5999755859375</AltitudeMeters>
            <DistanceMeters>15382.141102774</DistanceMeters>
          </Trackpoint>
          <Trackpoint>
            <Time>2021-04-01T07:55:48.000Z</Time>
            <Position>
              <LatitudeDegrees>42.42283324711024761199951171875</LatitudeDegrees>
              <LongitudeDegrees>2.781650237739086151123046875</LongitudeDegrees>
            </Position>
            <AltitudeMeters>595.5999755859375</AltitudeMeters>
            <DistanceMeters>15382.643936882</DistanceMeters>
          </Trackpoint>
          <Trackpoint>
            <Time>2021-04-01T07:55:56.000Z</Time>
            <Position>
              <LatitudeDegrees>42.42279284633696079254150390625</LatitudeDegrees>
              <LongitudeDegrees>2.78163691051304340362548828125</LongitudeDegrees>
            </Position>
            <AltitudeMeters>596.79998779296875</AltitudeMeters>
            <DistanceMeters>15387.273015776</DistanceMeters>
          </Trackpoint>
          <Trackpoint>
            <Time>2021-04-01T07:56:04.000Z</Time>
            <Position>
              <LatitudeDegrees>42.422761581838130950927734375</LatitudeDegrees>
              <LongitudeDegrees>2.7816105075180530548095703125</LongitudeDegrees>
            </Position>
            <AltitudeMeters>597.79998779296875</AltitudeMeters>
            <DistanceMeters>15391.373503837</DistanceMeters>
          </Trackpoint>
          <Trackpoint>
            <Time>2021-04-01T07:56:15.000Z</Time>
            <Position>
              <LatitudeDegrees>42.4227201752364635467529296875</LatitudeDegrees>
              <LongitudeDegrees>2.78159935958683490753173828125</LongitudeDegrees>
            </Position>
            <AltitudeMeters>598.79998779296875</AltitudeMeters>
            <DistanceMeters>15396.0722842</DistanceMeters>
          </Trackpoint>
          <Trackpoint>
            <Time>2021-04-01T07:56:23.000Z</Time>
            <Position>
              <LatitudeDegrees>42.4226903356611728668212890625</LatitudeDegrees>
              <LongitudeDegrees>2.78160103596746921539306640625</LongitudeDegrees>
            </Position>
            <AltitudeMeters>600</AltitudeMeters>
            <DistanceMeters>15399.396861402</DistanceMeters>
          </Trackpoint>
          <Trackpoint>
            <Time>2021-04-01T07:56:26.000Z</Time>
            <Position>
              <LatitudeDegrees>42.42268119938671588897705078125</LatitudeDegrees>
              <LongitudeDegrees>2.781612016260623931884765625</LongitudeDegrees>
            </Position>
            <AltitudeMeters>600.4000244140625</AltitudeMeters>
            <DistanceMeters>15400.757436894</DistanceMeters>
          </Trackpoint>
          <Trackpoint>
            <Time>2021-04-01T07:56:31.000Z</Time>
            <Position>
              <LatitudeDegrees>42.422669045627117156982421875</LatitudeDegrees>
              <LongitudeDegrees>2.781628109514713287353515625</LongitudeDegrees>
            </Position>
            <AltitudeMeters>601</AltitudeMeters>
            <DistanceMeters>15402.648444634</DistanceMeters>
          </Trackpoint>
          <Trackpoint>
            <Time>2021-04-01T07:56:39.000Z</Time>
            <Position>
              <LatitudeDegrees>42.4226417206227779388427734375</LatitudeDegrees>
              <LongitudeDegrees>2.7816398441791534423828125</LongitudeDegrees>
            </Position>
            <AltitudeMeters>602</AltitudeMeters>
            <DistanceMeters>15405.83856942</DistanceMeters>
          </Trackpoint>
          <Trackpoint>
            <Time>2021-04-01T07:56:48.000Z</Time>
            <Position>
              <LatitudeDegrees>42.42261640727519989013671875</LatitudeDegrees>
              <LongitudeDegrees>2.78164445422589778900146484375</LongitudeDegrees>
            </Position>
            <AltitudeMeters>603.20001220703125</AltitudeMeters>
            <DistanceMeters>15408.679852289</DistanceMeters>
          </Trackpoint>
          <Trackpoint>
            <Time>2021-04-01T07:56:54.000Z</Time>
            <Position>
              <LatitudeDegrees>42.4226103723049163818359375</LatitudeDegrees>
              <LongitudeDegrees>2.78164546005427837371826171875</LongitudeDegrees>
            </Position>
            <AltitudeMeters>604</AltitudeMeters>
            <DistanceMeters>15409.365099672</DistanceMeters>
          </Trackpoint>
          <Trackpoint>
            <Time>2021-04-01T07:56:57.000Z</Time>
            <Position>
              <LatitudeDegrees>42.422610037028789520263671875</LatitudeDegrees>
              <LongitudeDegrees>2.78164546005427837371826171875</LongitudeDegrees>
            </Position>
            <AltitudeMeters>604.20001220703125</AltitudeMeters>
            <DistanceMeters>15409.365099672</DistanceMeters>
          </Trackpoint>
          <Trackpoint>
            <Time>2021-04-01T07:57:06.000Z</Time>
            <Position>
              <LatitudeDegrees>42.422608695924282073974609375</LatitudeDegrees>
              <LongitudeDegrees>2.7816457115113735198974609375</LongitudeDegrees>
            </Position>
            <AltitudeMeters>605.4000244140625</AltitudeMeters>
            <DistanceMeters>15409.49948774</DistanceMeters>
          </Trackpoint>
          <Trackpoint>
            <Time>2021-04-01T07:57:16.000Z</Time>
            <Position>
              <LatitudeDegrees>42.42260643281042575836181640625</LatitudeDegrees>
              <LongitudeDegrees>2.78164629824459552764892578125</LongitudeDegrees>
            </Position>
            <AltitudeMeters>606.4000244140625</AltitudeMeters>
            <DistanceMeters>15409.750904794</DistanceMeters>
          </Trackpoint>
          <Trackpoint>
            <Time>2021-04-01T07:57:20.000Z</Time>
            <Position>
              <LatitudeDegrees>42.42260542698204517364501953125</LatitudeDegrees>
              <LongitudeDegrees>2.7816467173397541046142578125</LongitudeDegrees>
            </Position>
            <AltitudeMeters>607</AltitudeMeters>
            <DistanceMeters>15409.845931508</DistanceMeters>
          </Trackpoint>
          <Trackpoint>
            <Time>2021-04-01T07:57:22.000Z</Time>
            <Position>
              <LatitudeDegrees>42.42260492406785488128662109375</LatitudeDegrees>
              <LongitudeDegrees>2.781646884977817535400390625</LongitudeDegrees>
            </Position>
            <AltitudeMeters>607.4000244140625</AltitudeMeters>
            <DistanceMeters>15409.845931508</DistanceMeters>
          </Trackpoint>
          <Trackpoint>
            <Time>2021-04-01T07:57:26.000Z</Time>
            <Position>
              <LatitudeDegrees>42.4226038344204425811767578125</LatitudeDegrees>
              <LongitudeDegrees>2.78164730407297611236572265625</LongitudeDegrees>
            </Position>
            <AltitudeMeters>608</AltitudeMeters>
            <DistanceMeters>15409.980319577</DistanceMeters>
          </Trackpoint>
          <Trackpoint>
            <Time>2021-04-01T07:57:27.000Z</Time>
            <Position>
              <LatitudeDegrees>42.42260358296334743499755859375</LatitudeDegrees>
              <LongitudeDegrees>2.7816473878920078277587890625</LongitudeDegrees>
            </Position>
            <AltitudeMeters>608</AltitudeMeters>
            <DistanceMeters>15409.980319577</DistanceMeters>
          </Trackpoint>
          <Trackpoint>
            <Time>2021-04-01T07:57:30.000Z</Time>
            <Position>
              <LatitudeDegrees>42.422602660953998565673828125</LatitudeDegrees>
              <LongitudeDegrees>2.7816477231681346893310546875</LongitudeDegrees>
            </Position>
            <AltitudeMeters>608.5999755859375</AltitudeMeters>
            <DistanceMeters>15410.075346291</DistanceMeters>
          </Trackpoint>
          <Trackpoint>
            <Time>2021-04-01T07:57:33.000Z</Time>
            <Position>
              <LatitudeDegrees>42.42260173894464969635009765625</LatitudeDegrees>
              <LongitudeDegrees>2.7816480584442615509033203125</LongitudeDegrees>
            </Position>
            <AltitudeMeters>608.79998779296875</AltitudeMeters>
            <DistanceMeters>15410.170373005</DistanceMeters>
          </Trackpoint>
          <Trackpoint>
            <Time>2021-04-01T07:57:37.000Z</Time>
            <Position>
              <LatitudeDegrees>42.4226004816591739654541015625</LatitudeDegrees>
              <LongitudeDegrees>2.78164856135845184326171875</LongitudeDegrees>
            </Position>
            <AltitudeMeters>609.5999755859375</AltitudeMeters>
            <DistanceMeters>15410.304761074</DistanceMeters>
          </Trackpoint>
          <Trackpoint>
            <Time>2021-04-01T07:57:42.000Z</Time>
            <Position>
              <LatitudeDegrees>42.4225988052785396575927734375</LatitudeDegrees>
              <LongitudeDegrees>2.78164923191070556640625</LongitudeDegrees>
            </Position>
            <AltitudeMeters>610</AltitudeMeters>
            <DistanceMeters>15410.517247267</DistanceMeters>
          </Trackpoint>
          <Trackpoint>
            <Time>2021-04-01T07:57:45.000Z</Time>
            <Position>
              <LatitudeDegrees>42.42259763181209564208984375</LatitudeDegrees>
              <LongitudeDegrees>2.78164965100586414337158203125</LongitudeDegrees>
            </Position>
            <AltitudeMeters>610.4000244140625</AltitudeMeters>
            <DistanceMeters>15410.651635335</DistanceMeters>
          </Trackpoint>
          <Trackpoint>
            <Time>2021-04-01T07:57:46.000Z</Time>
            <Position>
              <LatitudeDegrees>42.42259721271693706512451171875</LatitudeDegrees>
              <LongitudeDegrees>2.78164981864392757415771484375</LongitudeDegrees>
            </Position>
            <AltitudeMeters>610.5999755859375</AltitudeMeters>
            <DistanceMeters>15410.786023403</DistanceMeters>
          </Trackpoint>
          <Trackpoint>
            <Time>2021-04-01T07:57:47.000Z</Time>
            <Position>
              <LatitudeDegrees>42.4225967936217784881591796875</LatitudeDegrees>
              <LongitudeDegrees>2.78164998628199100494384765625</LongitudeDegrees>
            </Position>
            <AltitudeMeters>610.79998779296875</AltitudeMeters>
            <DistanceMeters>15410.786023403</DistanceMeters>
          </Trackpoint>
          <Trackpoint>
            <Time>2021-04-01T07:57:54.000Z</Time>
            <Position>
              <LatitudeDegrees>42.4225934408605098724365234375</LatitudeDegrees>
              <LongitudeDegrees>2.78165132738649845123291015625</LongitudeDegrees>
            </Position>
            <AltitudeMeters>611.5999755859375</AltitudeMeters>
            <DistanceMeters>15411.16613026</DistanceMeters>
          </Trackpoint>
          <Trackpoint>
            <Time>2021-04-01T07:57:55.000Z</Time>
            <Position>
              <LatitudeDegrees>42.422592937946319580078125</LatitudeDegrees>
              <LongitudeDegrees>2.781651578843593597412109375</LongitudeDegrees>
            </Position>
            <AltitudeMeters>611.79998779296875</AltitudeMeters>
            <DistanceMeters>15411.16613026</DistanceMeters>
          </Trackpoint>
          <Trackpoint>
            <Time>2021-04-01T07:58:03.000Z</Time>
            <Position>
              <LatitudeDegrees>42.4225887469947338104248046875</LatitudeDegrees>
              <LongitudeDegrees>2.78165333904325962066650390625</LongitudeDegrees>
            </Position>
            <AltitudeMeters>612.79998779296875</AltitudeMeters>
            <DistanceMeters>15411.650673331</DistanceMeters>
          </Trackpoint>
          <Trackpoint>
            <Time>2021-04-01T07:58:07.000Z</Time>
            <Position>
              <LatitudeDegrees>42.422586567699909210205078125</LatitudeDegrees>
              <LongitudeDegrees>2.78165434487164020538330078125</LongitudeDegrees>
            </Position>
            <AltitudeMeters>613.4000244140625</AltitudeMeters>
            <DistanceMeters>15411.883440294</DistanceMeters>
          </Trackpoint>
          <Trackpoint>
            <Time>2021-04-01T07:58:10.000Z</Time>
            <Position>
              <LatitudeDegrees>42.42258489131927490234375</LatitudeDegrees>
              <LongitudeDegrees>2.7816550992429256439208984375</LongitudeDegrees>
            </Position>
            <AltitudeMeters>613.79998779296875</AltitudeMeters>
            <DistanceMeters>15412.116207256</DistanceMeters>
          </Trackpoint>
          <Trackpoint>
            <Time>2021-04-01T07:58:11.000Z</Time>
            <Position>
              <LatitudeDegrees>42.42258430458605289459228515625</LatitudeDegrees>
              <LongitudeDegrees>2.78165535070002079010009765625</LongitudeDegrees>
            </Position>
            <AltitudeMeters>614</AltitudeMeters>
            <DistanceMeters>15412.21123397</DistanceMeters>
          </Trackpoint>
          <Trackpoint>
            <Time>2021-04-01T07:58:16.000Z</Time>
            <Position>
              <LatitudeDegrees>42.4225813709199428558349609375</LatitudeDegrees>
              <LongitudeDegrees>2.78165660798549652099609375</LongitudeDegrees>
            </Position>
            <AltitudeMeters>614.4000244140625</AltitudeMeters>
            <DistanceMeters>15412.553857661</DistanceMeters>
          </Trackpoint>
          <Trackpoint>
            <Time>2021-04-01T07:58:20.000Z</Time>
            <Position>
              <LatitudeDegrees>42.42257894016802310943603515625</LatitudeDegrees>
              <LongitudeDegrees>2.7816577814519405364990234375</LongitudeDegrees>
            </Position>
            <AltitudeMeters>615</AltitudeMeters>
            <DistanceMeters>15412.854358517</DistanceMeters>
          </Trackpoint>
          <Trackpoint>
            <Time>2021-04-01T07:58:22.000Z</Time>
            <Position>
              <LatitudeDegrees>42.42257776670157909393310546875</LatitudeDegrees>
              <LongitudeDegrees>2.78165836818516254425048828125</LongitudeDegrees>
            </Position>
            <AltitudeMeters>615</AltitudeMeters>
            <DistanceMeters>15412.988746585</DistanceMeters>
          </Trackpoint>
          <Trackpoint>
            <Time>2021-04-01T07:58:23.000Z</Time>
            <Position>
              <LatitudeDegrees>42.422577179968357086181640625</LatitudeDegrees>
              <LongitudeDegrees>2.78165870346128940582275390625</LongitudeDegrees>
            </Position>
            <AltitudeMeters>615.20001220703125</AltitudeMeters>
            <DistanceMeters>15412.988746585</DistanceMeters>
          </Trackpoint>
          <Trackpoint>
            <Time>2021-04-01T07:58:24.000Z</Time>
            <Position>
              <LatitudeDegrees>42.422576509416103363037109375</LatitudeDegrees>
              <LongitudeDegrees>2.78165903873741626739501953125</LongitudeDegrees>
            </Position>
            <AltitudeMeters>615.20001220703125</AltitudeMeters>
            <DistanceMeters>15413.0837733</DistanceMeters>
          </Trackpoint>
          <Trackpoint>
            <Time>2021-04-01T07:58:28.000Z</Time>
            <Position>
              <LatitudeDegrees>42.4225739948451519012451171875</LatitudeDegrees>
              <LongitudeDegrees>2.78166037984192371368408203125</LongitudeDegrees>
            </Position>
            <AltitudeMeters>615.79998779296875</AltitudeMeters>
            <DistanceMeters>15413.384274156</DistanceMeters>
          </Trackpoint>
          <Trackpoint>
            <Time>2021-04-01T07:58:33.000Z</Time>
            <Position>
              <LatitudeDegrees>42.42257072590291500091552734375</LatitudeDegrees>
              <LongitudeDegrees>2.78166205622255802154541015625</LongitudeDegrees>
            </Position>
            <AltitudeMeters>616</AltitudeMeters>
            <DistanceMeters>15413.787438361</DistanceMeters>
          </Trackpoint>
          <Trackpoint>
            <Time>2021-04-01T07:58:43.000Z</Time>
            <Position>
              <LatitudeDegrees>42.422394119203090667724609375</LatitudeDegrees>
              <LongitudeDegrees>2.78173414058983325958251953125</LongitudeDegrees>
            </Position>
            <AltitudeMeters>617</AltitudeMeters>
            <DistanceMeters>15434.316727871</DistanceMeters>
          </Trackpoint>
          <Trackpoint>
            <Time>2021-04-01T07:58:47.000Z</Time>
            <Position>
              <LatitudeDegrees>42.42213453166186809539794921875</LatitudeDegrees>
              <LongitudeDegrees>2.78182265348732471466064453125</LongitudeDegrees>
            </Position>
            <AltitudeMeters>617.4000244140625</AltitudeMeters>
            <DistanceMeters>15464.110444398</DistanceMeters>
          </Trackpoint>
          <Trackpoint>
            <Time>2021-04-01T07:58:50.000Z</Time>
            <Position>
              <LatitudeDegrees>42.42194719612598419189453125</LatitudeDegrees>
              <LongitudeDegrees>2.7818928100168704986572265625</LongitudeDegrees>
            </Position>
            <AltitudeMeters>617.5999755859375</AltitudeMeters>
            <DistanceMeters>15485.743375584</DistanceMeters>
          </Trackpoint>
          <Trackpoint>
            <Time>2021-04-01T07:58:52.000Z</Time>
            <Position>
              <LatitudeDegrees>42.42190964519977569580078125</LatitudeDegrees>
              <LongitudeDegrees>2.78188434429466724395751953125</LongitudeDegrees>
            </Position>
            <AltitudeMeters>617.79998779296875</AltitudeMeters>
            <DistanceMeters>15489.980331092</DistanceMeters>
          </Trackpoint>
          <Trackpoint>
            <Time>2021-04-01T07:58:54.000Z</Time>
            <Position>
              <LatitudeDegrees>42.42188491858541965484619140625</LatitudeDegrees>
              <LongitudeDegrees>2.78188518248498439788818359375</LongitudeDegrees>
            </Position>
            <AltitudeMeters>618</AltitudeMeters>
            <DistanceMeters>15492.734466929</DistanceMeters>
          </Trackpoint>
          <Trackpoint>
            <Time>2021-04-01T07:58:59.000Z</Time>
            <Position>
              <LatitudeDegrees>42.421836555004119873046875</LatitudeDegrees>
              <LongitudeDegrees>2.7818743698298931121826171875</LongitudeDegrees>
            </Position>
            <AltitudeMeters>618</AltitudeMeters>
            <DistanceMeters>15498.190026659</DistanceMeters>
          </Trackpoint>
          <Trackpoint>
            <Time>2021-04-01T07:59:00.000Z</Time>
            <Position>
              <LatitudeDegrees>42.42182943038642406463623046875</LatitudeDegrees>
              <LongitudeDegrees>2.78187864460051059722900390625</LongitudeDegrees>
            </Position>
            <AltitudeMeters>618.20001220703125</AltitudeMeters>
            <DistanceMeters>15499.060960882</DistanceMeters>
          </Trackpoint>
          <Trackpoint>
            <Time>2021-04-01T07:59:08.000Z</Time>
            <Position>
              <LatitudeDegrees>42.42177796550095081329345703125</LatitudeDegrees>
              <LongitudeDegrees>2.7818894572556018829345703125</LongitudeDegrees>
            </Position>
            <AltitudeMeters>618.4000244140625</AltitudeMeters>
            <DistanceMeters>15504.856811499</DistanceMeters>
          </Trackpoint>
          <Trackpoint>
            <Time>2021-04-01T07:59:15.000Z</Time>
            <Position>
              <LatitudeDegrees>42.42172163911163806915283203125</LatitudeDegrees>
              <LongitudeDegrees>2.7818978391587734222412109375</LongitudeDegrees>
            </Position>
            <AltitudeMeters>618.20001220703125</AltitudeMeters>
            <DistanceMeters>15511.163035144</DistanceMeters>
          </Trackpoint>
          <Trackpoint>
            <Time>2021-04-01T07:59:18.000Z</Time>
            <Position>
              <LatitudeDegrees>42.42170101962983608245849609375</LatitudeDegrees>
              <LongitudeDegrees>2.78190898708999156951904296875</LongitudeDegrees>
            </Position>
            <AltitudeMeters>618.5999755859375</AltitudeMeters>
            <DistanceMeters>15513.633729717</DistanceMeters>
          </Trackpoint>
          <Trackpoint>
            <Time>2021-04-01T07:59:22.000Z</Time>
            <Position>
              <LatitudeDegrees>42.4216717667877674102783203125</LatitudeDegrees>
              <LongitudeDegrees>2.78192725963890552520751953125</LongitudeDegrees>
            </Position>
            <AltitudeMeters>618.79998779296875</AltitudeMeters>
            <DistanceMeters>15517.219650639</DistanceMeters>
          </Trackpoint>
          <Trackpoint>
            <Time>2021-04-01T07:59:26.000Z</Time>
            <Position>
              <LatitudeDegrees>42.4216275103390216827392578125</LatitudeDegrees>
              <LongitudeDegrees>2.7819246612489223480224609375</LongitudeDegrees>
            </Position>
            <AltitudeMeters>619.20001220703125</AltitudeMeters>
            <DistanceMeters>15522.150062973</DistanceMeters>
          </Trackpoint>
          <Trackpoint>
            <Time>2021-04-01T07:59:27.000Z</Time>
            <Position>
              <LatitudeDegrees>42.42160789668560028076171875</LatitudeDegrees>
              <LongitudeDegrees>2.78191636316478252410888671875</LongitudeDegrees>
            </Position>
            <AltitudeMeters>619.20001220703125</AltitudeMeters>
            <DistanceMeters>15524.436635575</DistanceMeters>
          </Trackpoint>
          <Trackpoint>
            <Time>2021-04-01T07:59:29.000Z</Time>
            <Position>
              <LatitudeDegrees>42.421586103737354278564453125</LatitudeDegrees>
              <LongitudeDegrees>2.78192072175443172454833984375</LongitudeDegrees>
            </Position>
            <AltitudeMeters>619.5999755859375</AltitudeMeters>
            <DistanceMeters>15526.888987693</DistanceMeters>
          </Trackpoint>
          <Trackpoint>
            <Time>2021-04-01T07:59:31.000Z</Time>
            <Position>
              <LatitudeDegrees>42.421575374901294708251953125</LatitudeDegrees>
              <LongitudeDegrees>2.78192742727696895599365234375</LongitudeDegrees>
            </Position>
            <AltitudeMeters>619.79998779296875</AltitudeMeters>
            <DistanceMeters>15528.202283014</DistanceMeters>
          </Trackpoint>
          <Trackpoint>
            <Time>2021-04-01T07:59:34.000Z</Time>
            <Position>
              <LatitudeDegrees>42.42155232466757297515869140625</LatitudeDegrees>
              <LongitudeDegrees>2.78189809061586856842041015625</LongitudeDegrees>
            </Position>
            <AltitudeMeters>620</AltitudeMeters>
            <DistanceMeters>15531.722121772</DistanceMeters>
          </Trackpoint>
          <Trackpoint>
            <Time>2021-04-01T07:59:35.000Z</Time>
            <Position>
              <LatitudeDegrees>42.42154478095471858978271484375</LatitudeDegrees>
              <LongitudeDegrees>2.7818901278078556060791015625</LongitudeDegrees>
            </Position>
            <AltitudeMeters>620.20001220703125</AltitudeMeters>
            <DistanceMeters>15532.780294479</DistanceMeters>
          </Trackpoint>
          <Trackpoint>
            <Time>2021-04-01T07:59:37.000Z</Time>
            <Position>
              <LatitudeDegrees>42.4215306155383586883544921875</LatitudeDegrees>
              <LongitudeDegrees>2.78188887052237987518310546875</LongitudeDegrees>
            </Position>
            <AltitudeMeters>620.20001220703125</AltitudeMeters>
            <DistanceMeters>15534.358996826</DistanceMeters>
          </Trackpoint>
          <Trackpoint>
            <Time>2021-04-01T07:59:40.000Z</Time>
            <Position>
              <LatitudeDegrees>42.42150672711431980133056640625</LatitudeDegrees>
              <LongitudeDegrees>2.78188970871269702911376953125</LongitudeDegrees>
            </Position>
            <AltitudeMeters>620.4000244140625</AltitudeMeters>
            <DistanceMeters>15537.019744828</DistanceMeters>
          </Trackpoint>
          <Trackpoint>
            <Time>2021-04-01T07:59:43.000Z</Time>
            <Position>
              <LatitudeDegrees>42.42148811928927898406982421875</LatitudeDegrees>
              <LongitudeDegrees>2.78186841867864131927490234375</LongitudeDegrees>
            </Position>
            <AltitudeMeters>620.79998779296875</AltitudeMeters>
            <DistanceMeters>15539.730922105</DistanceMeters>
          </Trackpoint>
          <Trackpoint>
            <Time>2021-04-01T07:59:46.000Z</Time>
            <Position>
              <LatitudeDegrees>42.421476803719997406005859375</LatitudeDegrees>
              <LongitudeDegrees>2.7818612940609455108642578125</LongitudeDegrees>
            </Position>
            <AltitudeMeters>621.4000244140625</AltitudeMeters>
            <DistanceMeters>15541.121043092</DistanceMeters>
          </Trackpoint>
          <Trackpoint>
            <Time>2021-04-01T07:59:50.000Z</Time>
            <Position>
              <LatitudeDegrees>42.42144956253468990325927734375</LatitudeDegrees>
              <LongitudeDegrees>2.7818478830158710479736328125</LongitudeDegrees>
            </Position>
            <AltitudeMeters>621.79998779296875</AltitudeMeters>
            <DistanceMeters>15544.349155267</DistanceMeters>
          </Trackpoint>
          <Trackpoint>
            <Time>2021-04-01T07:59:51.000Z</Time>
            <Position>
              <LatitudeDegrees>42.42144369520246982574462890625</LatitudeDegrees>
              <LongitudeDegrees>2.7818411774933338165283203125</LongitudeDegrees>
            </Position>
            <AltitudeMeters>622</AltitudeMeters>
            <DistanceMeters>15545.204395697</DistanceMeters>
          </Trackpoint>
          <Trackpoint>
            <Time>2021-04-01T07:59:53.000Z</Time>
            <Position>
              <LatitudeDegrees>42.42143481038510799407958984375</LatitudeDegrees>
              <LongitudeDegrees>2.78183170594274997711181640625</LongitudeDegrees>
            </Position>
            <AltitudeMeters>622.20001220703125</AltitudeMeters>
            <DistanceMeters>15546.457884149</DistanceMeters>
          </Trackpoint>
          <Trackpoint>
            <Time>2021-04-01T07:59:54.000Z</Time>
            <Position>
              <LatitudeDegrees>42.42143112234771251678466796875</LatitudeDegrees>
              <LongitudeDegrees>2.78182667680084705352783203125</LongitudeDegrees>
            </Position>
            <AltitudeMeters>622.4000244140625</AltitudeMeters>
            <DistanceMeters>15547.028044436</DistanceMeters>
          </Trackpoint>
          <Trackpoint>
            <Time>2021-04-01T07:59:59.000Z</Time>
            <Position>
              <LatitudeDegrees>42.4214072339236736297607421875</LatitudeDegrees>
              <LongitudeDegrees>2.78180538676679134368896484375</LongitudeDegrees>
            </Position>
            <AltitudeMeters>622.79998779296875</AltitudeMeters>
            <DistanceMeters>15550.21108477</DistanceMeters>
          </Trackpoint>
          <Trackpoint>
            <Time>2021-04-01T08:00:00.000Z</Time>
            <Position>
              <LatitudeDegrees>42.421402037143707275390625</LatitudeDegrees>
              <LongitudeDegrees>2.78180144727230072021484375</LongitudeDegrees>
            </Position>
            <AltitudeMeters>623</AltitudeMeters>
            <DistanceMeters>15550.869449159</DistanceMeters>
          </Trackpoint>
          <Trackpoint>
            <Time>2021-04-01T08:00:03.000Z</Time>
            <Position>
              <LatitudeDegrees>42.42138435132801532745361328125</LatitudeDegrees>
              <LongitudeDegrees>2.78179029934108257293701171875</LongitudeDegrees>
            </Position>
            <AltitudeMeters>623.4000244140625</AltitudeMeters>
            <DistanceMeters>15553.040554846</DistanceMeters>
          </Trackpoint>
          <Trackpoint>
            <Time>2021-04-01T08:00:09.000Z</Time>
            <Position>
              <LatitudeDegrees>42.42135434411466121673583984375</LatitudeDegrees>
              <LongitudeDegrees>2.7817895449697971343994140625</LongitudeDegrees>
            </Position>
            <AltitudeMeters>624</AltitudeMeters>
            <DistanceMeters>15556.382740443</DistanceMeters>
          </Trackpoint>
          <Trackpoint>
            <Time>2021-04-01T08:00:11.000Z</Time>
            <Position>
              <LatitudeDegrees>42.42134797386825084686279296875</LatitudeDegrees>
              <LongitudeDegrees>2.7817908860743045806884765625</LongitudeDegrees>
            </Position>
            <AltitudeMeters>624.4000244140625</AltitudeMeters>
            <DistanceMeters>15557.106442338</DistanceMeters>
          </Trackpoint>
          <Trackpoint>
            <Time>2021-04-01T08:00:19.000Z</Time>
            <Position>
              <LatitudeDegrees>42.42128008045256137847900390625</LatitudeDegrees>
              <LongitudeDegrees>2.7817627228796482086181640625</LongitudeDegrees>
            </Position>
            <AltitudeMeters>625.4000244140625</AltitudeMeters>
            <DistanceMeters>15565.010243249</DistanceMeters>
          </Trackpoint>
          <Trackpoint>
            <Time>2021-04-01T08:00:20.000Z</Time>
            <Position>
              <LatitudeDegrees>42.42127907462418079376220703125</LatitudeDegrees>
              <LongitudeDegrees>2.78176180087029933929443359375</LongitudeDegrees>
            </Position>
            <AltitudeMeters>625.5999755859375</AltitudeMeters>
            <DistanceMeters>15565.174834347</DistanceMeters>
          </Trackpoint>
          <Trackpoint>
            <Time>2021-04-01T08:00:29.000Z</Time>
            <Position>
              <LatitudeDegrees>42.42124102078378200531005859375</LatitudeDegrees>
              <LongitudeDegrees>2.78172777034342288970947265625</LongitudeDegrees>
            </Position>
            <AltitudeMeters>626.5999755859375</AltitudeMeters>
            <DistanceMeters>15570.251431452</DistanceMeters>
          </Trackpoint>
          <Trackpoint>
            <Time>2021-04-01T08:00:30.000Z</Time>
            <Position>
              <LatitudeDegrees>42.42123716510832309722900390625</LatitudeDegrees>
              <LongitudeDegrees>2.7817275188863277435302734375</LongitudeDegrees>
            </Position>
            <AltitudeMeters>626.79998779296875</AltitudeMeters>
            <DistanceMeters>15570.676403838</DistanceMeters>
          </Trackpoint>
          <Trackpoint>
            <Time>2021-04-01T08:00:37.000Z</Time>
            <Position>
              <LatitudeDegrees>42.42120967246592044830322265625</LatitudeDegrees>
              <LongitudeDegrees>2.7816936559975147247314453125</LongitudeDegrees>
            </Position>
            <AltitudeMeters>627.79998779296875</AltitudeMeters>
            <DistanceMeters>15574.811976928</DistanceMeters>
          </Trackpoint>
          <Trackpoint>
            <Time>2021-04-01T08:00:41.000Z</Time>
            <Position>
              <LatitudeDegrees>42.4211896397173404693603515625</LatitudeDegrees>
              <LongitudeDegrees>2.78167814947664737701416015625</LongitudeDegrees>
            </Position>
            <AltitudeMeters>628.4000244140625</AltitudeMeters>
            <DistanceMeters>15577.379457367</DistanceMeters>
          </Trackpoint>
          <Trackpoint>
            <Time>2021-04-01T08:00:45.000Z</Time>
            <Position>
              <LatitudeDegrees>42.4211691878736019134521484375</LatitudeDegrees>
              <LongitudeDegrees>2.781660966575145721435546875</LongitudeDegrees>
            </Position>
            <AltitudeMeters>628.79998779296875</AltitudeMeters>
            <DistanceMeters>15580.057120658</DistanceMeters>
          </Trackpoint>
          <Trackpoint>
            <Time>2021-04-01T08:00:49.000Z</Time>
            <Position>
              <LatitudeDegrees>42.42114731110632419586181640625</LatitudeDegrees>
              <LongitudeDegrees>2.78164847753942012786865234375</LongitudeDegrees>
            </Position>
            <AltitudeMeters>629.4000244140625</AltitudeMeters>
            <DistanceMeters>15582.700845146</DistanceMeters>
          </Trackpoint>
          <Trackpoint>
            <Time>2021-04-01T08:00:52.000Z</Time>
            <Position>
              <LatitudeDegrees>42.42113155312836170196533203125</LatitudeDegrees>
              <LongitudeDegrees>2.7816343121230602264404296875</LongitudeDegrees>
            </Position>
            <AltitudeMeters>630</AltitudeMeters>
            <DistanceMeters>15584.808639635</DistanceMeters>
          </Trackpoint>
          <Trackpoint>
            <Time>2021-04-01T08:00:59.000Z</Time>
            <Position>
              <LatitudeDegrees>42.4210917390882968902587890625</LatitudeDegrees>
              <LongitudeDegrees>2.78164990246295928955078125</LongitudeDegrees>
            </Position>
            <AltitudeMeters>631</AltitudeMeters>
            <DistanceMeters>15589.421107532</DistanceMeters>
          </Trackpoint>
          <Trackpoint>
            <Time>2021-04-01T08:01:00.000Z</Time>
            <Position>
              <LatitudeDegrees>42.42109182290732860565185546875</LatitudeDegrees>
              <LongitudeDegrees>2.78165451250970363616943359375</LongitudeDegrees>
            </Position>
            <AltitudeMeters>631.20001220703125</AltitudeMeters>
            <DistanceMeters>15589.80121439</DistanceMeters>
          </Trackpoint>
          <Trackpoint>
            <Time>2021-04-01T08:01:06.000Z</Time>
            <Position>
              <LatitudeDegrees>42.42106340825557708740234375</LatitudeDegrees>
              <LongitudeDegrees>2.7816544286906719207763671875</LongitudeDegrees>
            </Position>
            <AltitudeMeters>632</AltitudeMeters>
            <DistanceMeters>15592.964333847</DistanceMeters>
          </Trackpoint>
          <Trackpoint>
            <Time>2021-04-01T08:01:15.000Z</Time>
            <Position>
              <LatitudeDegrees>42.4210079200565814971923828125</LatitudeDegrees>
              <LongitudeDegrees>2.781593911349773406982421875</LongitudeDegrees>
            </Position>
            <AltitudeMeters>632.79998779296875</AltitudeMeters>
            <DistanceMeters>15600.893229874</DistanceMeters>
          </Trackpoint>
          <Trackpoint>
            <Time>2021-04-01T08:01:20.000Z</Time>
            <Position>
              <LatitudeDegrees>42.42097883485257625579833984375</LatitudeDegrees>
              <LongitudeDegrees>2.78156398795545101165771484375</LongitudeDegrees>
            </Position>
            <AltitudeMeters>633.20001220703125</AltitudeMeters>
            <DistanceMeters>15604.95721927</DistanceMeters>
          </Trackpoint>
          <Trackpoint>
            <Time>2021-04-01T08:01:24.000Z</Time>
            <Position>
              <LatitudeDegrees>42.4209626577794551849365234375</LatitudeDegrees>
              <LongitudeDegrees>2.781531549990177154541015625</LongitudeDegrees>
            </Position>
            <AltitudeMeters>633.79998779296875</AltitudeMeters>
            <DistanceMeters>15608.175525918</DistanceMeters>
          </Trackpoint>
          <Trackpoint>
            <Time>2021-04-01T08:01:26.000Z</Time>
            <Position>
              <LatitudeDegrees>42.42095653899013996124267578125</LatitudeDegrees>
              <LongitudeDegrees>2.78151503764092922210693359375</LongitudeDegrees>
            </Position>
            <AltitudeMeters>634</AltitudeMeters>
            <DistanceMeters>15609.695953348</DistanceMeters>
          </Trackpoint>
          <Trackpoint>
            <Time>2021-04-01T08:01:29.000Z</Time>
            <Position>
              <LatitudeDegrees>42.42094044573605060577392578125</LatitudeDegrees>
              <LongitudeDegrees>2.781497351825237274169921875</LongitudeDegrees>
            </Position>
            <AltitudeMeters>634.4000244140625</AltitudeMeters>
            <DistanceMeters>15612.00414422</DistanceMeters>
          </Trackpoint>
          <Trackpoint>
            <Time>2021-04-01T08:01:37.000Z</Time>
            <Position>
              <LatitudeDegrees>42.42089820094406604766845703125</LatitudeDegrees>
              <LongitudeDegrees>2.7814425341784954071044921875</LongitudeDegrees>
            </Position>
            <AltitudeMeters>635.4000244140625</AltitudeMeters>
            <DistanceMeters>15618.514687886</DistanceMeters>
          </Trackpoint>
          <Trackpoint>
            <Time>2021-04-01T08:01:38.000Z</Time>
            <Position>
              <LatitudeDegrees>42.42089048959314823150634765625</LatitudeDegrees>
              <LongitudeDegrees>2.7814415283501148223876953125</LongitudeDegrees>
            </Position>
            <AltitudeMeters>635.5999755859375</AltitudeMeters>
            <DistanceMeters>15619.380422456</DistanceMeters>
          </Trackpoint>
          <Trackpoint>
            <Time>2021-04-01T08:01:45.000Z</Time>
            <Position>
              <LatitudeDegrees>42.42086215876042842864990234375</LatitudeDegrees>
              <LongitudeDegrees>2.781415544450283050537109375</LongitudeDegrees>
            </Position>
            <AltitudeMeters>636.4000244140625</AltitudeMeters>
            <DistanceMeters>15623.188611365</DistanceMeters>
          </Trackpoint>
          <Trackpoint>
            <Time>2021-04-01T08:01:47.000Z</Time>
            <Position>
              <LatitudeDegrees>42.42084891535341739654541015625</LatitudeDegrees>
              <LongitudeDegrees>2.7814110182225704193115234375</LongitudeDegrees>
            </Position>
            <AltitudeMeters>636.79998779296875</AltitudeMeters>
            <DistanceMeters>15624.706066305</DistanceMeters>
          </Trackpoint>
          <Trackpoint>
            <Time>2021-04-01T08:01:54.000Z</Time>
            <Position>
              <LatitudeDegrees>42.42080801166594028472900390625</LatitudeDegrees>
              <LongitudeDegrees>2.78141613118350505828857421875</LongitudeDegrees>
            </Position>
            <AltitudeMeters>637.79998779296875</AltitudeMeters>
            <DistanceMeters>15629.277236493</DistanceMeters>
          </Trackpoint>
          <Trackpoint>
            <Time>2021-04-01T08:02:01.000Z</Time>
            <Position>
              <LatitudeDegrees>42.420770041644573211669921875</LatitudeDegrees>
              <LongitudeDegrees>2.7814145386219024658203125</LongitudeDegrees>
            </Position>
            <AltitudeMeters>638.79998779296875</AltitudeMeters>
            <DistanceMeters>15633.505658345</DistanceMeters>
          </Trackpoint>
          <Trackpoint>
            <Time>2021-04-01T08:02:04.000Z</Time>
            <Position>
              <LatitudeDegrees>42.42074548266828060150146484375</LatitudeDegrees>
              <LongitudeDegrees>2.78141562826931476593017578125</LongitudeDegrees>
            </Position>
            <AltitudeMeters>639.20001220703125</AltitudeMeters>
            <DistanceMeters>15636.240051019</DistanceMeters>
          </Trackpoint>
          <Trackpoint>
            <Time>2021-04-01T08:02:08.000Z</Time>
            <Position>
              <LatitudeDegrees>42.4207269586622714996337890625</LatitudeDegrees>
              <LongitudeDegrees>2.781410515308380126953125</LongitudeDegrees>
            </Position>
            <AltitudeMeters>640</AltitudeMeters>
            <DistanceMeters>15638.343557011</DistanceMeters>
          </Trackpoint>
          <Trackpoint>
            <Time>2021-04-01T08:02:11.000Z</Time>
            <Position>
              <LatitudeDegrees>42.420707680284976959228515625</LatitudeDegrees>
              <LongitudeDegrees>2.78140892274677753448486328125</LongitudeDegrees>
            </Position>
            <AltitudeMeters>640.4000244140625</AltitudeMeters>
            <DistanceMeters>15640.493766103</DistanceMeters>
          </Trackpoint>
          <Trackpoint>
            <Time>2021-04-01T08:02:17.000Z</Time>
            <Position>
              <LatitudeDegrees>42.42066870443522930145263671875</LatitudeDegrees>
              <LongitudeDegrees>2.78139517642557621002197265625</LongitudeDegrees>
            </Position>
            <AltitudeMeters>641.20001220703125</AltitudeMeters>
            <DistanceMeters>15644.977174423</DistanceMeters>
          </Trackpoint>
          <Trackpoint>
            <Time>2021-04-01T08:02:20.000Z</Time>
            <Position>
              <LatitudeDegrees>42.42064632475376129150390625</LatitudeDegrees>
              <LongitudeDegrees>2.78139098547399044036865234375</LongitudeDegrees>
            </Position>
            <AltitudeMeters>641.4000244140625</AltitudeMeters>
            <DistanceMeters>15647.491344964</DistanceMeters>
          </Trackpoint>
          <Trackpoint>
            <Time>2021-04-01T08:02:21.000Z</Time>
            <Position>
              <LatitudeDegrees>42.42063987068831920623779296875</LatitudeDegrees>
              <LongitudeDegrees>2.781385369598865509033203125</LongitudeDegrees>
            </Position>
            <AltitudeMeters>641.5999755859375</AltitudeMeters>
            <DistanceMeters>15648.346585394</DistanceMeters>
          </Trackpoint>
          <Trackpoint>
            <Time>2021-04-01T08:02:26.000Z</Time>
            <Position>
              <LatitudeDegrees>42.420608103275299072265625</LatitudeDegrees>
              <LongitudeDegrees>2.78136156499385833740234375</LongitudeDegrees>
            </Position>
            <AltitudeMeters>642.4000244140625</AltitudeMeters>
            <DistanceMeters>15652.387176713</DistanceMeters>
          </Trackpoint>
          <Trackpoint>
            <Time>2021-04-01T08:02:27.000Z</Time>
            <Position>
              <LatitudeDegrees>42.42060097865760326385498046875</LatitudeDegrees>
              <LongitudeDegrees>2.78135494329035282135009765625</LongitudeDegrees>
            </Position>
            <AltitudeMeters>642.4000244140625</AltitudeMeters>
            <DistanceMeters>15653.346899484</DistanceMeters>
          </Trackpoint>
          <Trackpoint>
            <Time>2021-04-01T08:02:34.000Z</Time>
            <Position>
              <LatitudeDegrees>42.420571558177471160888671875</LatitudeDegrees>
              <LongitudeDegrees>2.7813154645264148712158203125</LongitudeDegrees>
            </Position>
            <AltitudeMeters>643.20001220703125</AltitudeMeters>
            <DistanceMeters>15657.95545021</DistanceMeters>
          </Trackpoint>
          <Trackpoint>
            <Time>2021-04-01T08:02:35.000Z</Time>
            <Position>
              <LatitudeDegrees>42.42056493647396564483642578125</LatitudeDegrees>
              <LongitudeDegrees>2.78131286613643169403076171875</LongitudeDegrees>
            </Position>
            <AltitudeMeters>643.4000244140625</AltitudeMeters>
            <DistanceMeters>15658.715663925</DistanceMeters>
          </Trackpoint>
          <Trackpoint>
            <Time>2021-04-01T08:02:43.000Z</Time>
            <Position>
              <LatitudeDegrees>42.42051145993173122406005859375</LatitudeDegrees>
              <LongitudeDegrees>2.781281433999538421630859375</LongitudeDegrees>
            </Position>
            <AltitudeMeters>644.20001220703125</AltitudeMeters>
            <DistanceMeters>15665.203977757</DistanceMeters>
          </Trackpoint>
          <Trackpoint>
            <Time>2021-04-01T08:02:44.000Z</Time>
            <Position>
              <LatitudeDegrees>42.420505173504352569580078125</LatitudeDegrees>
              <LongitudeDegrees>2.78127766214311122894287109375</LongitudeDegrees>
            </Position>
            <AltitudeMeters>644.4000244140625</AltitudeMeters>
            <DistanceMeters>15665.975978434</DistanceMeters>
          </Trackpoint>
          <Trackpoint>
            <Time>2021-04-01T08:02:50.000Z</Time>
            <Position>
              <LatitudeDegrees>42.4204808659851551055908203125</LatitudeDegrees>
              <LongitudeDegrees>2.78125427663326263427734375</LongitudeDegrees>
            </Position>
            <AltitudeMeters>645.5999755859375</AltitudeMeters>
            <DistanceMeters>15669.295118874</DistanceMeters>
          </Trackpoint>
          <Trackpoint>
            <Time>2021-04-01T08:02:52.000Z</Time>
            <Position>
              <LatitudeDegrees>42.42046619765460491180419921875</LatitudeDegrees>
              <LongitudeDegrees>2.78124413453042507171630859375</LongitudeDegrees>
            </Position>
            <AltitudeMeters>645.79998779296875</AltitudeMeters>
            <DistanceMeters>15671.127927767</DistanceMeters>
          </Trackpoint>
          <Trackpoint>
            <Time>2021-04-01T08:02:54.000Z</Time>
            <Position>
              <LatitudeDegrees>42.4204547144472599029541015625</LatitudeDegrees>
              <LongitudeDegrees>2.781237177550792694091796875</LongitudeDegrees>
            </Position>
            <AltitudeMeters>646.5999755859375</AltitudeMeters>
            <DistanceMeters>15672.527758681</DistanceMeters>
          </Trackpoint>
          <Trackpoint>
            <Time>2021-04-01T08:02:56.000Z</Time>
            <Position>
              <LatitudeDegrees>42.42044121958315372467041015625</LatitudeDegrees>
              <LongitudeDegrees>2.78122435323894023895263671875</LongitudeDegrees>
            </Position>
            <AltitudeMeters>647</AltitudeMeters>
            <DistanceMeters>15674.365487875</DistanceMeters>
          </Trackpoint>
          <Trackpoint>
            <Time>2021-04-01T08:03:02.000Z</Time>
            <Position>
              <LatitudeDegrees>42.4204081110656261444091796875</LatitudeDegrees>
              <LongitudeDegrees>2.781198285520076751708984375</LongitudeDegrees>
            </Position>
            <AltitudeMeters>647.4000244140625</AltitudeMeters>
            <DistanceMeters>15678.62794184</DistanceMeters>
          </Trackpoint>
          <Trackpoint>
            <Time>2021-04-01T08:03:03.000Z</Time>
            <Position>
              <LatitudeDegrees>42.42040148936212062835693359375</LatitudeDegrees>
              <LongitudeDegrees>2.7811934240162372589111328125</LongitudeDegrees>
            </Position>
            <AltitudeMeters>647.4000244140625</AltitudeMeters>
            <DistanceMeters>15679.467195058</DistanceMeters>
          </Trackpoint>
          <Trackpoint>
            <Time>2021-04-01T08:03:12.000Z</Time>
            <Position>
              <LatitudeDegrees>42.42033963091671466827392578125</LatitudeDegrees>
              <LongitudeDegrees>2.78117112815380096435546875</LongitudeDegrees>
            </Position>
            <AltitudeMeters>647.5999755859375</AltitudeMeters>
            <DistanceMeters>15686.591030374</DistanceMeters>
          </Trackpoint>
          <Trackpoint>
            <Time>2021-04-01T08:03:14.000Z</Time>
            <Position>
              <LatitudeDegrees>42.4203206039965152740478515625</LatitudeDegrees>
              <LongitudeDegrees>2.781176827847957611083984375</LongitudeDegrees>
            </Position>
            <AltitudeMeters>647.79998779296875</AltitudeMeters>
            <DistanceMeters>15688.762136061</DistanceMeters>
          </Trackpoint>
          <Trackpoint>
            <Time>2021-04-01T08:03:17.000Z</Time>
            <Position>
              <LatitudeDegrees>42.42029822431504726409912109375</LatitudeDegrees>
              <LongitudeDegrees>2.7811749838292598724365234375</LongitudeDegrees>
            </Position>
            <AltitudeMeters>648.20001220703125</AltitudeMeters>
            <DistanceMeters>15691.258283642</DistanceMeters>
          </Trackpoint>
          <Trackpoint>
            <Time>2021-04-01T08:03:23.000Z</Time>
            <Position>
              <LatitudeDegrees>42.4202522076666355133056640625</LatitudeDegrees>
              <LongitudeDegrees>2.78116668574512004852294921875</LongitudeDegrees>
            </Position>
            <AltitudeMeters>648.5999755859375</AltitudeMeters>
            <DistanceMeters>15696.424801422</DistanceMeters>
          </Trackpoint>
          <Trackpoint>
            <Time>2021-04-01T08:03:24.000Z</Time>
            <Position>
              <LatitudeDegrees>42.42024474777281284332275390625</LatitudeDegrees>
              <LongitudeDegrees>2.781166769564151763916015625</LongitudeDegrees>
            </Position>
            <AltitudeMeters>648.5999755859375</AltitudeMeters>
            <DistanceMeters>15697.253225111</DistanceMeters>
          </Trackpoint>
          <Trackpoint>
            <Time>2021-04-01T08:03:26.000Z</Time>
            <Position>
              <LatitudeDegrees>42.4202312529087066650390625</LatitudeDegrees>
              <LongitudeDegrees>2.78116433881223201751708984375</LongitudeDegrees>
            </Position>
            <AltitudeMeters>648.79998779296875</AltitudeMeters>
            <DistanceMeters>15698.767701726</DistanceMeters>
          </Trackpoint>
          <Trackpoint>
            <Time>2021-04-01T08:03:34.000Z</Time>
            <Position>
              <LatitudeDegrees>42.42018624208867549896240234375</LatitudeDegrees>
              <LongitudeDegrees>2.7811448089778423309326171875</LongitudeDegrees>
            </Position>
            <AltitudeMeters>649.20001220703125</AltitudeMeters>
            <DistanceMeters>15704.027754409</DistanceMeters>
          </Trackpoint>
          <Trackpoint>
            <Time>2021-04-01T08:03:35.000Z</Time>
            <Position>
              <LatitudeDegrees>42.42018104530870914459228515625</LatitudeDegrees>
              <LongitudeDegrees>2.78114472515881061553955078125</LongitudeDegrees>
            </Position>
            <AltitudeMeters>649.4000244140625</AltitudeMeters>
            <DistanceMeters>15704.605779346</DistanceMeters>
          </Trackpoint>
          <Trackpoint>
            <Time>2021-04-01T08:03:37.000Z</Time>
            <Position>
              <LatitudeDegrees>42.42017098702490329742431640625</LatitudeDegrees>
              <LongitudeDegrees>2.78113751672208309173583984375</LongitudeDegrees>
            </Position>
            <AltitudeMeters>649.79998779296875</AltitudeMeters>
            <DistanceMeters>15705.873593847</DistanceMeters>
          </Trackpoint>
          <Trackpoint>
            <Time>2021-04-01T08:03:41.000Z</Time>
            <Position>
              <LatitudeDegrees>42.420143075287342071533203125</LatitudeDegrees>
              <LongitudeDegrees>2.781117148697376251220703125</LongitudeDegrees>
            </Position>
            <AltitudeMeters>650</AltitudeMeters>
            <DistanceMeters>15709.402400361</DistanceMeters>
          </Trackpoint>
          <Trackpoint>
            <Time>2021-04-01T08:03:42.000Z</Time>
            <Position>
              <LatitudeDegrees>42.42013863287866115570068359375</LatitudeDegrees>
              <LongitudeDegrees>2.781113795936107635498046875</LongitudeDegrees>
            </Position>
            <AltitudeMeters>650</AltitudeMeters>
            <DistanceMeters>15709.964585985</DistanceMeters>
          </Trackpoint>
          <Trackpoint>
            <Time>2021-04-01T08:03:43.000Z</Time>
            <Position>
              <LatitudeDegrees>42.42013226263225078582763671875</LatitudeDegrees>
              <LongitudeDegrees>2.78111002407968044281005859375</LongitudeDegrees>
            </Position>
            <AltitudeMeters>650.20001220703125</AltitudeMeters>
            <DistanceMeters>15710.736586662</DistanceMeters>
          </Trackpoint>
          <Trackpoint>
            <Time>2021-04-01T08:03:44.000Z</Time>
            <Position>
              <LatitudeDegrees>42.42012572474777698516845703125</LatitudeDegrees>
              <LongitudeDegrees>2.7811065874993801116943359375</LongitudeDegrees>
            </Position>
            <AltitudeMeters>650.20001220703125</AltitudeMeters>
            <DistanceMeters>15711.514413842</DistanceMeters>
          </Trackpoint>
          <Trackpoint>
            <Time>2021-04-01T08:03:47.000Z</Time>
            <Position>
              <LatitudeDegrees>42.42011046968400478363037109375</LatitudeDegrees>
              <LongitudeDegrees>2.7810899913311004638671875</LongitudeDegrees>
            </Position>
            <AltitudeMeters>650.5999755859375</AltitudeMeters>
            <DistanceMeters>15713.693822066</DistanceMeters>
          </Trackpoint>
          <Trackpoint>
            <Time>2021-04-01T08:03:50.000Z</Time>
            <Position>
              <LatitudeDegrees>42.4200912751257419586181640625</LatitudeDegrees>
              <LongitudeDegrees>2.78107146732509136199951171875</LongitudeDegrees>
            </Position>
            <AltitudeMeters>650.79998779296875</AltitudeMeters>
            <DistanceMeters>15716.31697251</DistanceMeters>
          </Trackpoint>
          <Trackpoint>
            <Time>2021-04-01T08:03:54.000Z</Time>
            <Position>
              <LatitudeDegrees>42.42006118409335613250732421875</LatitudeDegrees>
              <LongitudeDegrees>2.7810542844235897064208984375</LongitudeDegrees>
            </Position>
            <AltitudeMeters>651.4000244140625</AltitudeMeters>
            <DistanceMeters>15719.951666698</DistanceMeters>
          </Trackpoint>
          <Trackpoint>
            <Time>2021-04-01T08:04:01.000Z</Time>
            <Position>
              <LatitudeDegrees>42.41999915800988674163818359375</LatitudeDegrees>
              <LongitudeDegrees>2.7810368500649929046630859375</LongitudeDegrees>
            </Position>
            <AltitudeMeters>651.79998779296875</AltitudeMeters>
            <DistanceMeters>15727.001598665</DistanceMeters>
          </Trackpoint>
          <Trackpoint>
            <Time>2021-04-01T08:04:05.000Z</Time>
            <Position>
              <LatitudeDegrees>42.41996495984494686126708984375</LatitudeDegrees>
              <LongitudeDegrees>2.78102922253310680389404296875</LongitudeDegrees>
            </Position>
            <AltitudeMeters>652.20001220703125</AltitudeMeters>
            <DistanceMeters>15730.859261945</DistanceMeters>
          </Trackpoint>
          <Trackpoint>
            <Time>2021-04-01T08:04:13.000Z</Time>
            <Position>
              <LatitudeDegrees>42.4199040234088897705078125</LatitudeDegrees>
              <LongitudeDegrees>2.78100256808102130889892578125</LongitudeDegrees>
            </Position>
            <AltitudeMeters>652.5999755859375</AltitudeMeters>
            <DistanceMeters>15737.985631983</DistanceMeters>
          </Trackpoint>
          <Trackpoint>
            <Time>2021-04-01T08:04:14.000Z</Time>
            <Position>
              <LatitudeDegrees>42.41989086382091045379638671875</LatitudeDegrees>
              <LongitudeDegrees>2.78099787421524524688720703125</LongitudeDegrees>
            </Position>
            <AltitudeMeters>652.5999755859375</AltitudeMeters>
            <DistanceMeters>15739.500108598</DistanceMeters>
          </Trackpoint>
          <Trackpoint>
            <Time>2021-04-01T08:04:16.000Z</Time>
            <Position>
              <LatitudeDegrees>42.41987510584294795989990234375</LatitudeDegrees>
              <LongitudeDegrees>2.7809935994446277618408203125</LongitudeDegrees>
            </Position>
            <AltitudeMeters>652.79998779296875</AltitudeMeters>
            <DistanceMeters>15741.290549085</DistanceMeters>
          </Trackpoint>
          <Trackpoint>
            <Time>2021-04-01T08:04:17.000Z</Time>
            <Position>
              <LatitudeDegrees>42.41986714303493499755859375</LatitudeDegrees>
              <LongitudeDegrees>2.780991084873676300048828125</LongitudeDegrees>
            </Position>
            <AltitudeMeters>653</AltitudeMeters>
            <DistanceMeters>15742.20201331</DistanceMeters>
          </Trackpoint>
          <Trackpoint>
            <Time>2021-04-01T08:04:19.000Z</Time>
            <Position>
              <LatitudeDegrees>42.4198481999337673187255859375</LatitudeDegrees>
              <LongitudeDegrees>2.78099133633077144622802734375</LongitudeDegrees>
            </Position>
            <AltitudeMeters>653.20001220703125</AltitudeMeters>
            <DistanceMeters>15744.309807799</DistanceMeters>
          </Trackpoint>
          <Trackpoint>
            <Time>2021-04-01T08:04:21.000Z</Time>
            <Position>
              <LatitudeDegrees>42.41983470506966114044189453125</LatitudeDegrees>
              <LongitudeDegrees>2.78098530136048793792724609375</LongitudeDegrees>
            </Position>
            <AltitudeMeters>653.20001220703125</AltitudeMeters>
            <DistanceMeters>15745.891367528</DistanceMeters>
          </Trackpoint>
          <Trackpoint>
            <Time>2021-04-01T08:04:23.000Z</Time>
            <Position>
              <LatitudeDegrees>42.4198176898062229156494140625</LatitudeDegrees>
              <LongitudeDegrees>2.78098111040890216827392578125</LongitudeDegrees>
            </Position>
            <AltitudeMeters>653.4000244140625</AltitudeMeters>
            <DistanceMeters>15747.81785693</DistanceMeters>
          </Trackpoint>
          <Trackpoint>
            <Time>2021-04-01T08:04:24.000Z</Time>
            <Position>
              <LatitudeDegrees>42.41981140337884426116943359375</LatitudeDegrees>
              <LongitudeDegrees>2.78097800910472869873046875</LongitudeDegrees>
            </Position>
            <AltitudeMeters>653.4000244140625</AltitudeMeters>
            <DistanceMeters>15748.566098028</DistanceMeters>
          </Trackpoint>
          <Trackpoint>
            <Time>2021-04-01T08:04:26.000Z</Time>
            <Position>
              <LatitudeDegrees>42.4198002554476261138916015625</LatitudeDegrees>
              <LongitudeDegrees>2.780973650515079498291015625</LongitudeDegrees>
            </Position>
            <AltitudeMeters>653.5999755859375</AltitudeMeters>
            <DistanceMeters>15749.855103096</DistanceMeters>
          </Trackpoint>
          <Trackpoint>
            <Time>2021-04-01T08:04:28.000Z</Time>
            <Position>
              <LatitudeDegrees>42.41978759877383708953857421875</LatitudeDegrees>
              <LongitudeDegrees>2.78096267022192478179931640625</LongitudeDegrees>
            </Position>
            <AltitudeMeters>653.5999755859375</AltitudeMeters>
            <DistanceMeters>15751.525520295</DistanceMeters>
          </Trackpoint>
          <Trackpoint>
            <Time>2021-04-01T08:04:32.000Z</Time>
            <Position>
              <LatitudeDegrees>42.41974904201924800872802734375</LatitudeDegrees>
              <LongitudeDegrees>2.78093920089304447174072265625</LongitudeDegrees>
            </Position>
            <AltitudeMeters>654</AltitudeMeters>
            <DistanceMeters>15756.230062501</DistanceMeters>
          </Trackpoint>
          <Trackpoint>
            <Time>2021-04-01T08:04:35.000Z</Time>
            <Position>
              <LatitudeDegrees>42.41972540505230426788330078125</LatitudeDegrees>
              <LongitudeDegrees>2.78093014843761920928955078125</LongitudeDegrees>
            </Position>
            <AltitudeMeters>654.20001220703125</AltitudeMeters>
            <DistanceMeters>15758.964455175</DistanceMeters>
          </Trackpoint>
          <Trackpoint>
            <Time>2021-04-01T08:04:40.000Z</Time>
            <Position>
              <LatitudeDegrees>42.41967746056616306304931640625</LatitudeDegrees>
              <LongitudeDegrees>2.78091095387935638427734375</LongitudeDegrees>
            </Position>
            <AltitudeMeters>654.5999755859375</AltitudeMeters>
            <DistanceMeters>15764.528997575</DistanceMeters>
          </Trackpoint>
          <Trackpoint>
            <Time>2021-04-01T08:04:43.000Z</Time>
            <Position>
              <LatitudeDegrees>42.41965181194245815277099609375</LatitudeDegrees>
              <LongitudeDegrees>2.78090097941458225250244140625</LongitudeDegrees>
            </Position>
            <AltitudeMeters>654.79998779296875</AltitudeMeters>
            <DistanceMeters>15767.50076721</DistanceMeters>
          </Trackpoint>
          <Trackpoint>
            <Time>2021-04-01T08:04:45.000Z</Time>
            <Position>
              <LatitudeDegrees>42.41963739506900310516357421875</LatitudeDegrees>
              <LongitudeDegrees>2.7808915078639984130859375</LongitudeDegrees>
            </Position>
            <AltitudeMeters>655</AltitudeMeters>
            <DistanceMeters>15769.286157079</DistanceMeters>
          </Trackpoint>
          <Trackpoint>
            <Time>2021-04-01T08:04:46.000Z</Time>
            <Position>
              <LatitudeDegrees>42.41963244974613189697265625</LatitudeDegrees>
              <LongitudeDegrees>2.7808876521885395050048828125</LongitudeDegrees>
            </Position>
            <AltitudeMeters>655.20001220703125</AltitudeMeters>
            <DistanceMeters>15769.916492993</DistanceMeters>
          </Trackpoint>
          <Trackpoint>
            <Time>2021-04-01T08:04:52.000Z</Time>
            <Position>
              <LatitudeDegrees>42.41960034705698490142822265625</LatitudeDegrees>
              <LongitudeDegrees>2.78087130747735500335693359375</LongitudeDegrees>
            </Position>
            <AltitudeMeters>656</AltitudeMeters>
            <DistanceMeters>15773.731788948</DistanceMeters>
          </Trackpoint>
          <Trackpoint>
            <Time>2021-04-01T08:04:53.000Z</Time>
            <Position>
              <LatitudeDegrees>42.41959213279187679290771484375</LatitudeDegrees>
              <LongitudeDegrees>2.7808665297925472259521484375</LongitudeDegrees>
            </Position>
            <AltitudeMeters>656.20001220703125</AltitudeMeters>
            <DistanceMeters>15774.728437536</DistanceMeters>
          </Trackpoint>
          <Trackpoint>
            <Time>2021-04-01T08:04:56.000Z</Time>
            <Position>
              <LatitudeDegrees>42.4195767939090728759765625</LatitudeDegrees>
              <LongitudeDegrees>2.78085202910006046295166015625</LongitudeDegrees>
            </Position>
            <AltitudeMeters>656.5999755859375</AltitudeMeters>
            <DistanceMeters>15776.810368537</DistanceMeters>
          </Trackpoint>
          <Trackpoint>
            <Time>2021-04-01T08:05:02.000Z</Time>
            <Position>
              <LatitudeDegrees>42.41955106146633625030517578125</LatitudeDegrees>
              <LongitudeDegrees>2.78082470409572124481201171875</LongitudeDegrees>
            </Position>
            <AltitudeMeters>657</AltitudeMeters>
            <DistanceMeters>15780.450028157</DistanceMeters>
          </Trackpoint>
          <Trackpoint>
            <Time>2021-04-01T08:05:04.000Z</Time>
            <Position>
              <LatitudeDegrees>42.4195407517254352569580078125</LatitudeDegrees>
              <LongitudeDegrees>2.78082319535315036773681640625</LongitudeDegrees>
            </Position>
            <AltitudeMeters>657.20001220703125</AltitudeMeters>
            <DistanceMeters>15781.606078032</DistanceMeters>
          </Trackpoint>
          <Trackpoint>
            <Time>2021-04-01T08:05:07.000Z</Time>
            <Position>
              <LatitudeDegrees>42.4195206351578235626220703125</LatitudeDegrees>
              <LongitudeDegrees>2.78080902993679046630859375</LongitudeDegrees>
            </Position>
            <AltitudeMeters>657.5999755859375</AltitudeMeters>
            <DistanceMeters>15784.129211776</DistanceMeters>
          </Trackpoint>
          <Trackpoint>
            <Time>2021-04-01T08:05:11.000Z</Time>
            <Position>
              <LatitudeDegrees>42.41949138231575489044189453125</LatitudeDegrees>
              <LongitudeDegrees>2.780789919197559356689453125</LongitudeDegrees>
            </Position>
            <AltitudeMeters>658</AltitudeMeters>
            <DistanceMeters>15787.74522487</DistanceMeters>
          </Trackpoint>
          <Trackpoint>
            <Time>2021-04-01T08:05:13.000Z</Time>
            <Position>
              <LatitudeDegrees>42.4194783903658390045166015625</LatitudeDegrees>
              <LongitudeDegrees>2.780781202018260955810546875</LongitudeDegrees>
            </Position>
            <AltitudeMeters>658.4000244140625</AltitudeMeters>
            <DistanceMeters>15789.360679014</DistanceMeters>
          </Trackpoint>
          <Trackpoint>
            <Time>2021-04-01T08:05:18.000Z</Time>
            <Position>
              <LatitudeDegrees>42.4194451980292797088623046875</LatitudeDegrees>
              <LongitudeDegrees>2.78075681068003177642822265625</LongitudeDegrees>
            </Position>
            <AltitudeMeters>659</AltitudeMeters>
            <DistanceMeters>15793.563395936</DistanceMeters>
          </Trackpoint>
          <Trackpoint>
            <Time>2021-04-01T08:05:19.000Z</Time>
            <Position>
              <LatitudeDegrees>42.41943840868771076202392578125</LatitudeDegrees>
              <LongitudeDegrees>2.780753709375858306884765625</LongitudeDegrees>
            </Position>
            <AltitudeMeters>659.20001220703125</AltitudeMeters>
            <DistanceMeters>15794.358446469</DistanceMeters>
          </Trackpoint>
          <Trackpoint>
            <Time>2021-04-01T08:05:21.000Z</Time>
            <Position>
              <LatitudeDegrees>42.41942994296550750732421875</LatitudeDegrees>
              <LongitudeDegrees>2.7807439863681793212890625</LongitudeDegrees>
            </Position>
            <AltitudeMeters>659.4000244140625</AltitudeMeters>
            <DistanceMeters>15795.59013346</DistanceMeters>
          </Trackpoint>
          <Trackpoint>
            <Time>2021-04-01T08:05:27.000Z</Time>
            <Position>
              <LatitudeDegrees>42.4193895421922206878662109375</LatitudeDegrees>
              <LongitudeDegrees>2.78073920868337154388427734375</LongitudeDegrees>
            </Position>
            <AltitudeMeters>659.79998779296875</AltitudeMeters>
            <DistanceMeters>15800.103652315</DistanceMeters>
          </Trackpoint>
          <Trackpoint>
            <Time>2021-04-01T08:05:33.000Z</Time>
            <Position>
              <LatitudeDegrees>42.419350147247314453125</LatitudeDegrees>
              <LongitudeDegrees>2.780730240046977996826171875</LongitudeDegrees>
            </Position>
            <AltitudeMeters>660.4000244140625</AltitudeMeters>
            <DistanceMeters>15804.548627822</DistanceMeters>
          </Trackpoint>
          <Trackpoint>
            <Time>2021-04-01T08:05:35.000Z</Time>
            <Position>
              <LatitudeDegrees>42.41933279670774936676025390625</LatitudeDegrees>
              <LongitudeDegrees>2.7807273901998996734619140625</LongitudeDegrees>
            </Position>
            <AltitudeMeters>660.5999755859375</AltitudeMeters>
            <DistanceMeters>15806.491453587</DistanceMeters>
          </Trackpoint>
          <Trackpoint>
            <Time>2021-04-01T08:05:39.000Z</Time>
            <Position>
              <LatitudeDegrees>42.41930924355983734130859375</LatitudeDegrees>
              <LongitudeDegrees>2.78072546236217021942138671875</LongitudeDegrees>
            </Position>
            <AltitudeMeters>661.4000244140625</AltitudeMeters>
            <DistanceMeters>15809.11804423</DistanceMeters>
          </Trackpoint>
          <Trackpoint>
            <Time>2021-04-01T08:05:43.000Z</Time>
            <Position>
              <LatitudeDegrees>42.4192924797534942626953125</LatitudeDegrees>
              <LongitudeDegrees>2.78072596527636051177978515625</LongitudeDegrees>
            </Position>
            <AltitudeMeters>662.20001220703125</AltitudeMeters>
            <DistanceMeters>15810.985022941</DistanceMeters>
          </Trackpoint>
          <Trackpoint>
            <Time>2021-04-01T08:05:45.000Z</Time>
            <Position>
              <LatitudeDegrees>42.41928099654614925384521484375</LatitudeDegrees>
              <LongitudeDegrees>2.78072479180991649627685546875</LongitudeDegrees>
            </Position>
            <AltitudeMeters>662.5999755859375</AltitudeMeters>
            <DistanceMeters>15812.267003406</DistanceMeters>
          </Trackpoint>
          <Trackpoint>
            <Time>2021-04-01T08:05:52.000Z</Time>
            <Position>
              <LatitudeDegrees>42.41925132460892200469970703125</LatitudeDegrees>
              <LongitudeDegrees>2.78072210960090160369873046875</LongitudeDegrees>
            </Position>
            <AltitudeMeters>663.4000244140625</AltitudeMeters>
            <DistanceMeters>15815.577971966</DistanceMeters>
          </Trackpoint>
          <Trackpoint>
            <Time>2021-04-01T08:05:54.000Z</Time>
            <Position>
              <LatitudeDegrees>42.41923875175416469573974609375</LatitudeDegrees>
              <LongitudeDegrees>2.78071649372577667236328125</LongitudeDegrees>
            </Position>
            <AltitudeMeters>663.5999755859375</AltitudeMeters>
            <DistanceMeters>15817.047049319</DistanceMeters>
          </Trackpoint>
          <Trackpoint>
            <Time>2021-04-01T08:05:59.000Z</Time>
            <Position>
              <LatitudeDegrees>42.41921762935817241668701171875</LatitudeDegrees>
              <LongitudeDegrees>2.7806898392736911773681640625</LongitudeDegrees>
            </Position>
            <AltitudeMeters>664.20001220703125</AltitudeMeters>
            <DistanceMeters>15820.258333688</DistanceMeters>
          </Trackpoint>
          <Trackpoint>
            <Time>2021-04-01T08:06:03.000Z</Time>
            <Position>
              <LatitudeDegrees>42.41918728686869144439697265625</LatitudeDegrees>
              <LongitudeDegrees>2.7806905098259449005126953125</LongitudeDegrees>
            </Position>
            <AltitudeMeters>664.5999755859375</AltitudeMeters>
            <DistanceMeters>15823.636797337</DistanceMeters>
          </Trackpoint>
          <Trackpoint>
            <Time>2021-04-01T08:06:08.000Z</Time>
            <Position>
              <LatitudeDegrees>42.41915593855082988739013671875</LatitudeDegrees>
              <LongitudeDegrees>2.780683301389217376708984375</LongitudeDegrees>
            </Position>
            <AltitudeMeters>665.4000244140625</AltitudeMeters>
            <DistanceMeters>15827.174548876</DistanceMeters>
          </Trackpoint>
          <Trackpoint>
            <Time>2021-04-01T08:06:10.000Z</Time>
            <Position>
              <LatitudeDegrees>42.419134564697742462158203125</LatitudeDegrees>
              <LongitudeDegrees>2.780678607523441314697265625</LongitudeDegrees>
            </Position>
            <AltitudeMeters>665.5999755859375</AltitudeMeters>
            <DistanceMeters>15829.582309054</DistanceMeters>
          </Trackpoint>
          <Trackpoint>
            <Time>2021-04-01T08:06:16.000Z</Time>
            <Position>
              <LatitudeDegrees>42.41908888332545757293701171875</LatitudeDegrees>
              <LongitudeDegrees>2.7806724049150943756103515625</LongitudeDegrees>
            </Position>
            <AltitudeMeters>666.5999755859375</AltitudeMeters>
            <DistanceMeters>15834.692590952</DistanceMeters>
          </Trackpoint>
          <Trackpoint>
            <Time>2021-04-01T08:06:18.000Z</Time>
            <Position>
              <LatitudeDegrees>42.41907932795584201812744140625</LatitudeDegrees>
              <LongitudeDegrees>2.78067894279956817626953125</LongitudeDegrees>
            </Position>
            <AltitudeMeters>666.79998779296875</AltitudeMeters>
            <DistanceMeters>15835.879474234</DistanceMeters>
          </Trackpoint>
          <Trackpoint>
            <Time>2021-04-01T08:06:24.000Z</Time>
            <Position>
              <LatitudeDegrees>42.4190277792513370513916015625</LatitudeDegrees>
              <LongitudeDegrees>2.78069914318621158599853515625</LongitudeDegrees>
            </Position>
            <AltitudeMeters>667.20001220703125</AltitudeMeters>
            <DistanceMeters>15841.851810624</DistanceMeters>
          </Trackpoint>
          <Trackpoint>
            <Time>2021-04-01T08:06:28.000Z</Time>
            <Position>
              <LatitudeDegrees>42.418992407619953155517578125</LatitudeDegrees>
              <LongitudeDegrees>2.78069746680557727813720703125</LongitudeDegrees>
            </Position>
            <AltitudeMeters>667.79998779296875</AltitudeMeters>
            <DistanceMeters>15845.790550439</DistanceMeters>
          </Trackpoint>
          <Trackpoint>
            <Time>2021-04-01T08:06:34.000Z</Time>
            <Position>
              <LatitudeDegrees>42.41897086612880229949951171875</LatitudeDegrees>
              <LongitudeDegrees>2.78070014901459217071533203125</LongitudeDegrees>
            </Position>
            <AltitudeMeters>668.5999755859375</AltitudeMeters>
            <DistanceMeters>15848.196434684</DistanceMeters>
          </Trackpoint>
          <Trackpoint>
            <Time>2021-04-01T08:06:38.000Z</Time>
            <Position>
              <LatitudeDegrees>42.4189449660480022430419921875</LatitudeDegrees>
              <LongitudeDegrees>2.7806983888149261474609375</LongitudeDegrees>
            </Position>
            <AltitudeMeters>669</AltitudeMeters>
            <DistanceMeters>15851.081868877</DistanceMeters>
          </Trackpoint>
          <Trackpoint>
            <Time>2021-04-01T08:06:44.000Z</Time>
            <Position>
              <LatitudeDegrees>42.41889308206737041473388671875</LatitudeDegrees>
              <LongitudeDegrees>2.7806724049150943756103515625</LongitudeDegrees>
            </Position>
            <AltitudeMeters>669.79998779296875</AltitudeMeters>
            <DistanceMeters>15857.239570639</DistanceMeters>
          </Trackpoint>
          <Trackpoint>
            <Time>2021-04-01T08:06:46.000Z</Time>
            <Position>
              <LatitudeDegrees>42.4188869632780551910400390625</LatitudeDegrees>
              <LongitudeDegrees>2.7806583233177661895751953125</LongitudeDegrees>
            </Position>
            <AltitudeMeters>670</AltitudeMeters>
            <DistanceMeters>15858.583451321</DistanceMeters>
          </Trackpoint>
          <Trackpoint>
            <Time>2021-04-01T08:06:50.000Z</Time>
            <Position>
              <LatitudeDegrees>42.4188718758523464202880859375</LatitudeDegrees>
              <LongitudeDegrees>2.7806516177952289581298828125</LongitudeDegrees>
            </Position>
            <AltitudeMeters>670.5999755859375</AltitudeMeters>
            <DistanceMeters>15860.351050385</DistanceMeters>
          </Trackpoint>
          <Trackpoint>
            <Time>2021-04-01T08:06:53.000Z</Time>
            <Position>
              <LatitudeDegrees>42.4188504181802272796630859375</LatitudeDegrees>
              <LongitudeDegrees>2.78065337799489498138427734375</LongitudeDegrees>
            </Position>
            <AltitudeMeters>671.20001220703125</AltitudeMeters>
            <DistanceMeters>15862.743761915</DistanceMeters>
          </Trackpoint>
          <Trackpoint>
            <Time>2021-04-01T08:06:55.000Z</Time>
            <Position>
              <LatitudeDegrees>42.41884245537221431732177734375</LatitudeDegrees>
              <LongitudeDegrees>2.78065002523362636566162109375</LongitudeDegrees>
            </Position>
            <AltitudeMeters>671.4000244140625</AltitudeMeters>
            <DistanceMeters>15863.669967757</DistanceMeters>
          </Trackpoint>
          <Trackpoint>
            <Time>2021-04-01T08:07:03.000Z</Time>
            <Position>
              <LatitudeDegrees>42.4188108555972576141357421875</LatitudeDegrees>
              <LongitudeDegrees>2.7806378714740276336669921875</LongitudeDegrees>
            </Position>
            <AltitudeMeters>672.20001220703125</AltitudeMeters>
            <DistanceMeters>15867.326953293</DistanceMeters>
          </Trackpoint>
          <Trackpoint>
            <Time>2021-04-01T08:07:14.000Z</Time>
            <Position>
              <LatitudeDegrees>42.41875126026570796966552734375</LatitudeDegrees>
              <LongitudeDegrees>2.7806130610406398773193359375</LongitudeDegrees>
            </Position>
            <AltitudeMeters>673.20001220703125</AltitudeMeters>
            <DistanceMeters>15874.265855771</DistanceMeters>
          </Trackpoint>
          <Trackpoint>
            <Time>2021-04-01T08:07:15.000Z</Time>
            <Position>
              <LatitudeDegrees>42.41874690167605876922607421875</LatitudeDegrees>
              <LongitudeDegrees>2.780608870089054107666015625</LongitudeDegrees>
            </Position>
            <AltitudeMeters>673.4000244140625</AltitudeMeters>
            <DistanceMeters>15874.866857483</DistanceMeters>
          </Trackpoint>
          <Trackpoint>
            <Time>2021-04-01T08:07:25.000Z</Time>
            <Position>
              <LatitudeDegrees>42.41869191639125347137451171875</LatitudeDegrees>
              <LongitudeDegrees>2.78059721924364566802978515625</LongitudeDegrees>
            </Position>
            <AltitudeMeters>674.4000244140625</AltitudeMeters>
            <DistanceMeters>15881.061112468</DistanceMeters>
          </Trackpoint>
          <Trackpoint>
            <Time>2021-04-01T08:07:27.000Z</Time>
            <Position>
              <LatitudeDegrees>42.41867817007005214691162109375</LatitudeDegrees>
              <LongitudeDegrees>2.780594788491725921630859375</LongitudeDegrees>
            </Position>
            <AltitudeMeters>674.79998779296875</AltitudeMeters>
            <DistanceMeters>15882.602186802</DistanceMeters>
          </Trackpoint>
          <Trackpoint>
            <Time>2021-04-01T08:07:30.000Z</Time>
            <Position>
              <LatitudeDegrees>42.41865620948374271392822265625</LatitudeDegrees>
              <LongitudeDegrees>2.78059135191142559051513671875</LongitudeDegrees>
            </Position>
            <AltitudeMeters>675.4000244140625</AltitudeMeters>
            <DistanceMeters>15885.061892317</DistanceMeters>
          </Trackpoint>
          <Trackpoint>
            <Time>2021-04-01T08:07:34.000Z</Time>
            <Position>
              <LatitudeDegrees>42.41864430718123912811279296875</LatitudeDegrees>
              <LongitudeDegrees>2.78058682568371295928955078125</LongitudeDegrees>
            </Position>
            <AltitudeMeters>676</AltitudeMeters>
            <DistanceMeters>15886.432387081</DistanceMeters>
          </Trackpoint>
          <Trackpoint>
            <Time>2021-04-01T08:07:36.000Z</Time>
            <Position>
              <LatitudeDegrees>42.41863206960260868072509765625</LatitudeDegrees>
              <LongitudeDegrees>2.78058640658855438232421875</LongitudeDegrees>
            </Position>
            <AltitudeMeters>676.4000244140625</AltitudeMeters>
            <DistanceMeters>15887.796277014</DistanceMeters>
          </Trackpoint>
          <Trackpoint>
            <Time>2021-04-01T08:07:37.000Z</Time>
            <Position>
              <LatitudeDegrees>42.41862435825169086456298828125</LatitudeDegrees>
              <LongitudeDegrees>2.780585400760173797607421875</LongitudeDegrees>
            </Position>
            <AltitudeMeters>676.5999755859375</AltitudeMeters>
            <DistanceMeters>15888.667211237</DistanceMeters>
          </Trackpoint>
          <Trackpoint>
            <Time>2021-04-01T08:07:45.000Z</Time>
            <Position>
              <LatitudeDegrees>42.4185682833194732666015625</LatitudeDegrees>
              <LongitudeDegrees>2.78058908879756927490234375</LongitudeDegrees>
            </Position>
            <AltitudeMeters>677.5999755859375</AltitudeMeters>
            <DistanceMeters>15894.915895142</DistanceMeters>
          </Trackpoint>
          <Trackpoint>
            <Time>2021-04-01T08:07:47.000Z</Time>
            <Position>
              <LatitudeDegrees>42.4185548722743988037109375</LatitudeDegrees>
              <LongitudeDegrees>2.7805875800549983978271484375</LongitudeDegrees>
            </Position>
            <AltitudeMeters>678</AltitudeMeters>
            <DistanceMeters>15896.415391402</DistanceMeters>
          </Trackpoint>
          <Trackpoint>
            <Time>2021-04-01T08:07:49.000Z</Time>
            <Position>
              <LatitudeDegrees>42.41854154504835605621337890625</LatitudeDegrees>
              <LongitudeDegrees>2.78059118427336215972900390625</LongitudeDegrees>
            </Position>
            <AltitudeMeters>678.4000244140625</AltitudeMeters>
            <DistanceMeters>15897.929868017</DistanceMeters>
          </Trackpoint>
          <Trackpoint>
            <Time>2021-04-01T08:07:52.000Z</Time>
            <Position>
              <LatitudeDegrees>42.41852595470845699310302734375</LatitudeDegrees>
              <LongitudeDegrees>2.78058917261660099029541015625</LongitudeDegrees>
            </Position>
            <AltitudeMeters>678.5999755859375</AltitudeMeters>
            <DistanceMeters>15899.671736464</DistanceMeters>
          </Trackpoint>
          <Trackpoint>
            <Time>2021-04-01T08:07:54.000Z</Time>
            <Position>
              <LatitudeDegrees>42.41851405240595340728759765625</LatitudeDegrees>
              <LongitudeDegrees>2.78058917261660099029541015625</LongitudeDegrees>
            </Position>
            <AltitudeMeters>678.79998779296875</AltitudeMeters>
            <DistanceMeters>15900.995305438</DistanceMeters>
          </Trackpoint>
          <Trackpoint>
            <Time>2021-04-01T08:07:57.000Z</Time>
            <Position>
              <LatitudeDegrees>42.41850600577890872955322265625</LatitudeDegrees>
              <LongitudeDegrees>2.7805791981518268585205078125</LongitudeDegrees>
            </Position>
            <AltitudeMeters>679</AltitudeMeters>
            <DistanceMeters>15902.208525311</DistanceMeters>
          </Trackpoint>
          <Trackpoint>
            <Time>2021-04-01T08:08:03.000Z</Time>
            <Position>
              <LatitudeDegrees>42.4184598214924335479736328125</LatitudeDegrees>
              <LongitudeDegrees>2.78058531694114208221435546875</LongitudeDegrees>
            </Position>
            <AltitudeMeters>679.79998779296875</AltitudeMeters>
            <DistanceMeters>15907.373294988</DistanceMeters>
          </Trackpoint>
          <Trackpoint>
            <Time>2021-04-01T08:08:05.000Z</Time>
            <Position>
              <LatitudeDegrees>42.41845403797924518585205078125</LatitudeDegrees>
              <LongitudeDegrees>2.7805857360363006591796875</LongitudeDegrees>
            </Position>
            <AltitudeMeters>680</AltitudeMeters>
            <DistanceMeters>15908.017797522</DistanceMeters>
          </Trackpoint>
          <Trackpoint>
            <Time>2021-04-01T08:08:11.000Z</Time>
            <Position>
              <LatitudeDegrees>42.4184395372867584228515625</LatitudeDegrees>
              <LongitudeDegrees>2.78058313764631748199462890625</LongitudeDegrees>
            </Position>
            <AltitudeMeters>681</AltitudeMeters>
            <DistanceMeters>15909.647166257</DistanceMeters>
          </Trackpoint>
          <Trackpoint>
            <Time>2021-04-01T08:08:15.000Z</Time>
            <Position>
              <LatitudeDegrees>42.418419420719146728515625</LatitudeDegrees>
              <LongitudeDegrees>2.78057877905666828155517578125</LongitudeDegrees>
            </Position>
            <AltitudeMeters>681.4000244140625</AltitudeMeters>
            <DistanceMeters>15911.911914239</DistanceMeters>
          </Trackpoint>
          <Trackpoint>
            <Time>2021-04-01T08:08:16.000Z</Time>
            <Position>
              <LatitudeDegrees>42.4184165708720684051513671875</LatitudeDegrees>
              <LongitudeDegrees>2.78057676739990711212158203125</LongitudeDegrees>
            </Position>
            <AltitudeMeters>681.5999755859375</AltitudeMeters>
            <DistanceMeters>15912.267471646</DistanceMeters>
          </Trackpoint>
          <Trackpoint>
            <Time>2021-04-01T08:08:17.000Z</Time>
            <Position>
              <LatitudeDegrees>42.41841078735888004302978515625</LatitudeDegrees>
              <LongitudeDegrees>2.780575342476367950439453125</LongitudeDegrees>
            </Position>
            <AltitudeMeters>681.5999755859375</AltitudeMeters>
            <DistanceMeters>15912.925836036</DistanceMeters>
          </Trackpoint>
          <Trackpoint>
            <Time>2021-04-01T08:08:20.000Z</Time>
            <Position>
              <LatitudeDegrees>42.4183907546103000640869140625</LatitudeDegrees>
              <LongitudeDegrees>2.7805724926292896270751953125</LongitudeDegrees>
            </Position>
            <AltitudeMeters>681.79998779296875</AltitudeMeters>
            <DistanceMeters>15915.168547025</DistanceMeters>
          </Trackpoint>
          <Trackpoint>
            <Time>2021-04-01T08:08:21.000Z</Time>
            <Position>
              <LatitudeDegrees>42.41838480345904827117919921875</LatitudeDegrees>
              <LongitudeDegrees>2.7805724926292896270751953125</LongitudeDegrees>
            </Position>
            <AltitudeMeters>682</AltitudeMeters>
            <DistanceMeters>15915.833734025</DistanceMeters>
          </Trackpoint>
          <Trackpoint>
            <Time>2021-04-01T08:08:29.000Z</Time>
            <Position>
              <LatitudeDegrees>42.4183273874223232269287109375</LatitudeDegrees>
              <LongitudeDegrees>2.78058682568371295928955078125</LongitudeDegrees>
            </Position>
            <AltitudeMeters>683.20001220703125</AltitudeMeters>
            <DistanceMeters>15922.33247756</DistanceMeters>
          </Trackpoint>
          <Trackpoint>
            <Time>2021-04-01T08:08:32.000Z</Time>
            <Position>
              <LatitudeDegrees>42.418313808739185333251953125</LatitudeDegrees>
              <LongitudeDegrees>2.780583389103412628173828125</LongitudeDegrees>
            </Position>
            <AltitudeMeters>683.4000244140625</AltitudeMeters>
            <DistanceMeters>15923.870619305</DistanceMeters>
          </Trackpoint>
          <Trackpoint>
            <Time>2021-04-01T08:08:37.000Z</Time>
            <Position>
              <LatitudeDegrees>42.4182801134884357452392578125</LatitudeDegrees>
              <LongitudeDegrees>2.78058447875082492828369140625</LongitudeDegrees>
            </Position>
            <AltitudeMeters>684</AltitudeMeters>
            <DistanceMeters>15927.621467089</DistanceMeters>
          </Trackpoint>
          <Trackpoint>
            <Time>2021-04-01T08:08:39.000Z</Time>
            <Position>
              <LatitudeDegrees>42.4182690493762493133544921875</LatitudeDegrees>
              <LongitudeDegrees>2.7805818803608417510986328125</LongitudeDegrees>
            </Position>
            <AltitudeMeters>684.20001220703125</AltitudeMeters>
            <DistanceMeters>15928.874955542</DistanceMeters>
          </Trackpoint>
          <Trackpoint>
            <Time>2021-04-01T08:08:43.000Z</Time>
            <Position>
              <LatitudeDegrees>42.41825044155120849609375</LatitudeDegrees>
              <LongitudeDegrees>2.78058380819857120513916015625</LongitudeDegrees>
            </Position>
            <AltitudeMeters>684.5999755859375</AltitudeMeters>
            <DistanceMeters>15930.954716734</DistanceMeters>
          </Trackpoint>
          <Trackpoint>
            <Time>2021-04-01T08:08:49.000Z</Time>
            <Position>
              <LatitudeDegrees>42.41822320036590099334716796875</LatitudeDegrees>
              <LongitudeDegrees>2.78057743795216083526611328125</LongitudeDegrees>
            </Position>
            <AltitudeMeters>685.20001220703125</AltitudeMeters>
            <DistanceMeters>15934.03393421</DistanceMeters>
          </Trackpoint>
          <Trackpoint>
            <Time>2021-04-01T08:08:52.000Z</Time>
            <Position>
              <LatitudeDegrees>42.4182029999792575836181640625</LatitudeDegrees>
              <LongitudeDegrees>2.78058229945600032806396484375</LongitudeDegrees>
            </Position>
            <AltitudeMeters>685.5999755859375</AltitudeMeters>
            <DistanceMeters>15936.314575355</DistanceMeters>
          </Trackpoint>
          <Trackpoint>
            <Time>2021-04-01T08:08:58.000Z</Time>
            <Position>
              <LatitudeDegrees>42.41817844100296497344970703125</LatitudeDegrees>
              <LongitudeDegrees>2.7805838920176029205322265625</LongitudeDegrees>
            </Position>
            <AltitudeMeters>686.20001220703125</AltitudeMeters>
            <DistanceMeters>15939.050618734</DistanceMeters>
          </Trackpoint>
          <Trackpoint>
            <Time>2021-04-01T08:08:59.000Z</Time>
            <Position>
              <LatitudeDegrees>42.4181728251278400421142578125</LatitudeDegrees>
              <LongitudeDegrees>2.78058380819857120513916015625</LongitudeDegrees>
            </Position>
            <AltitudeMeters>686.4000244140625</AltitudeMeters>
            <DistanceMeters>15939.66646223</DistanceMeters>
          </Trackpoint>
          <Trackpoint>
            <Time>2021-04-01T08:09:06.000Z</Time>
            <Position>
              <LatitudeDegrees>42.41813099943101406097412109375</LatitudeDegrees>
              <LongitudeDegrees>2.78059621341526508331298828125</LongitudeDegrees>
            </Position>
            <AltitudeMeters>687.20001220703125</AltitudeMeters>
            <DistanceMeters>15944.432030638</DistanceMeters>
          </Trackpoint>
          <Trackpoint>
            <Time>2021-04-01T08:09:08.000Z</Time>
            <Position>
              <LatitudeDegrees>42.41812094114720821380615234375</LatitudeDegrees>
              <LongitudeDegrees>2.7805946208536624908447265625</LongitudeDegrees>
            </Position>
            <AltitudeMeters>687.4000244140625</AltitudeMeters>
            <DistanceMeters>15945.560410352</DistanceMeters>
          </Trackpoint>
          <Trackpoint>
            <Time>2021-04-01T08:09:13.000Z</Time>
            <Position>
              <LatitudeDegrees>42.41809613071382045745849609375</LatitudeDegrees>
              <LongitudeDegrees>2.78058246709406375885009765625</LongitudeDegrees>
            </Position>
            <AltitudeMeters>688.20001220703125</AltitudeMeters>
            <DistanceMeters>15948.497027965</DistanceMeters>
          </Trackpoint>
          <Trackpoint>
            <Time>2021-04-01T08:09:16.000Z</Time>
            <Position>
              <LatitudeDegrees>42.4180812947452068328857421875</LatitudeDegrees>
              <LongitudeDegrees>2.78057727031409740447998046875</LongitudeDegrees>
            </Position>
            <AltitudeMeters>688.4000244140625</AltitudeMeters>
            <DistanceMeters>15950.202221389</DistanceMeters>
          </Trackpoint>
          <Trackpoint>
            <Time>2021-04-01T08:09:22.000Z</Time>
            <Position>
              <LatitudeDegrees>42.4180479347705841064453125</LatitudeDegrees>
              <LongitudeDegrees>2.780581377446651458740234375</LongitudeDegrees>
            </Position>
            <AltitudeMeters>689.5999755859375</AltitudeMeters>
            <DistanceMeters>15953.930127993</DistanceMeters>
          </Trackpoint>
          <Trackpoint>
            <Time>2021-04-01T08:09:23.000Z</Time>
            <Position>
              <LatitudeDegrees>42.41803963668644428253173828125</LatitudeDegrees>
              <LongitudeDegrees>2.7805857360363006591796875</LongitudeDegrees>
            </Position>
            <AltitudeMeters>689.5999755859375</AltitudeMeters>
            <DistanceMeters>15954.917674577</DistanceMeters>
          </Trackpoint>
          <Trackpoint>
            <Time>2021-04-01T08:09:33.000Z</Time>
            <Position>
              <LatitudeDegrees>42.417984902858734130859375</LatitudeDegrees>
              <LongitudeDegrees>2.78058900497853755950927734375</LongitudeDegrees>
            </Position>
            <AltitudeMeters>690.5999755859375</AltitudeMeters>
            <DistanceMeters>15961.015695141</DistanceMeters>
          </Trackpoint>
          <Trackpoint>
            <Time>2021-04-01T08:09:37.000Z</Time>
            <Position>
              <LatitudeDegrees>42.4179642833769321441650390625</LatitudeDegrees>
              <LongitudeDegrees>2.7805859036743640899658203125</LongitudeDegrees>
            </Position>
            <AltitudeMeters>691.4000244140625</AltitudeMeters>
            <DistanceMeters>15963.325841279</DistanceMeters>
          </Trackpoint>
          <Trackpoint>
            <Time>2021-04-01T08:09:39.000Z</Time>
            <Position>
              <LatitudeDegrees>42.41795263253152370452880859375</LatitudeDegrees>
              <LongitudeDegrees>2.780584730207920074462890625</LongitudeDegrees>
            </Position>
            <AltitudeMeters>691.79998779296875</AltitudeMeters>
            <DistanceMeters>15964.628781942</DistanceMeters>
          </Trackpoint>
          <Trackpoint>
            <Time>2021-04-01T08:09:48.000Z</Time>
            <Position>
              <LatitudeDegrees>42.41792027838528156280517578125</LatitudeDegrees>
              <LongitudeDegrees>2.780576013028621673583984375</LongitudeDegrees>
            </Position>
            <AltitudeMeters>692.5999755859375</AltitudeMeters>
            <DistanceMeters>15968.300553195</DistanceMeters>
          </Trackpoint>
          <Trackpoint>
            <Time>2021-04-01T08:09:50.000Z</Time>
            <Position>
              <LatitudeDegrees>42.41790711879730224609375</LatitudeDegrees>
              <LongitudeDegrees>2.78057391755282878875732421875</LongitudeDegrees>
            </Position>
            <AltitudeMeters>692.79998779296875</AltitudeMeters>
            <DistanceMeters>15969.772700723</DistanceMeters>
          </Trackpoint>
          <Trackpoint>
            <Time>2021-04-01T08:09:51.000Z</Time>
            <Position>
              <LatitudeDegrees>42.4178989045321941375732421875</LatitudeDegrees>
              <LongitudeDegrees>2.7805738337337970733642578125</LongitudeDegrees>
            </Position>
            <AltitudeMeters>692.79998779296875</AltitudeMeters>
            <DistanceMeters>15970.684164948</DistanceMeters>
          </Trackpoint>
          <Trackpoint>
            <Time>2021-04-01T08:09:58.000Z</Time>
            <Position>
              <LatitudeDegrees>42.41785489954054355621337890625</LatitudeDegrees>
              <LongitudeDegrees>2.78057056479156017303466796875</LongitudeDegrees>
            </Position>
            <AltitudeMeters>693.5999755859375</AltitudeMeters>
            <DistanceMeters>15975.588869184</DistanceMeters>
          </Trackpoint>
          <Trackpoint>
            <Time>2021-04-01T08:10:00.000Z</Time>
            <Position>
              <LatitudeDegrees>42.41784207522869110107421875</LatitudeDegrees>
              <LongitudeDegrees>2.7805671282112598419189453125</LongitudeDegrees>
            </Position>
            <AltitudeMeters>693.79998779296875</AltitudeMeters>
            <DistanceMeters>15977.045601131</DistanceMeters>
          </Trackpoint>
          <Trackpoint>
            <Time>2021-04-01T08:10:05.000Z</Time>
            <Position>
              <LatitudeDegrees>42.41781516931951045989990234375</LatitudeDegrees>
              <LongitudeDegrees>2.7805714868009090423583984375</LongitudeDegrees>
            </Position>
            <AltitudeMeters>694.5999755859375</AltitudeMeters>
            <DistanceMeters>15980.062605781</DistanceMeters>
          </Trackpoint>
          <Trackpoint>
            <Time>2021-04-01T08:10:06.000Z</Time>
            <Position>
              <LatitudeDegrees>42.41780092008411884307861328125</LatitudeDegrees>
              <LongitudeDegrees>2.78056855313479900360107421875</LongitudeDegrees>
            </Position>
            <AltitudeMeters>694.79998779296875</AltitudeMeters>
            <DistanceMeters>15981.666841358</DistanceMeters>
          </Trackpoint>
          <Trackpoint>
            <Time>2021-04-01T08:10:07.000Z</Time>
            <Position>
              <LatitudeDegrees>42.41779538802802562713623046875</LatitudeDegrees>
              <LongitudeDegrees>2.7805701456964015960693359375</LongitudeDegrees>
            </Position>
            <AltitudeMeters>694.79998779296875</AltitudeMeters>
            <DistanceMeters>15982.304299937</DistanceMeters>
          </Trackpoint>
          <Trackpoint>
            <Time>2021-04-01T08:10:11.000Z</Time>
            <Position>
              <LatitudeDegrees>42.41778633557260036468505859375</LatitudeDegrees>
              <LongitudeDegrees>2.78055765666067600250244140625</LongitudeDegrees>
            </Position>
            <AltitudeMeters>695.4000244140625</AltitudeMeters>
            <DistanceMeters>15983.748580955</DistanceMeters>
          </Trackpoint>
          <Trackpoint>
            <Time>2021-04-01T08:10:13.000Z</Time>
            <Position>
              <LatitudeDegrees>42.4177802167832851409912109375</LatitudeDegrees>
              <LongitudeDegrees>2.780549190938472747802734375</LongitudeDegrees>
            </Position>
            <AltitudeMeters>695.5999755859375</AltitudeMeters>
            <DistanceMeters>15984.717667096</DistanceMeters>
          </Trackpoint>
          <Trackpoint>
            <Time>2021-04-01T08:10:16.000Z</Time>
            <Position>
              <LatitudeDegrees>42.41776722483336925506591796875</LatitudeDegrees>
              <LongitudeDegrees>2.78055556118488311767578125</LongitudeDegrees>
            </Position>
            <AltitudeMeters>696</AltitudeMeters>
            <DistanceMeters>15986.255808842</DistanceMeters>
          </Trackpoint>
          <Trackpoint>
            <Time>2021-04-01T08:10:20.000Z</Time>
            <Position>
              <LatitudeDegrees>42.41774953901767730712890625</LatitudeDegrees>
              <LongitudeDegrees>2.78055329807102680206298828125</LongitudeDegrees>
            </Position>
            <AltitudeMeters>697</AltitudeMeters>
            <DistanceMeters>15988.235468705</DistanceMeters>
          </Trackpoint>
          <Trackpoint>
            <Time>2021-04-01T08:10:23.000Z</Time>
            <Position>
              <LatitudeDegrees>42.4177373014390468597412109375</LatitudeDegrees>
              <LongitudeDegrees>2.780546844005584716796875</LongitudeDegrees>
            </Position>
            <AltitudeMeters>697.79998779296875</AltitudeMeters>
            <DistanceMeters>15989.695296791</DistanceMeters>
          </Trackpoint>
          <Trackpoint>
            <Time>2021-04-01T08:10:27.000Z</Time>
            <Position>
              <LatitudeDegrees>42.4177148379385471343994140625</LatitudeDegrees>
              <LongitudeDegrees>2.7805523760616779327392578125</LongitudeDegrees>
            </Position>
            <AltitudeMeters>698.20001220703125</AltitudeMeters>
            <DistanceMeters>15992.234484571</DistanceMeters>
          </Trackpoint>
          <Trackpoint>
            <Time>2021-04-01T08:10:31.000Z</Time>
            <Position>
              <LatitudeDegrees>42.41769053041934967041015625</LatitudeDegrees>
              <LongitudeDegrees>2.780546508729457855224609375</LongitudeDegrees>
            </Position>
            <AltitudeMeters>698.5999755859375</AltitudeMeters>
            <DistanceMeters>15994.982055118</DistanceMeters>
          </Trackpoint>
          <Trackpoint>
            <Time>2021-04-01T08:10:37.000Z</Time>
            <Position>
              <LatitudeDegrees>42.41765406914055347442626953125</LatitudeDegrees>
              <LongitudeDegrees>2.7805523760616779327392578125</LongitudeDegrees>
            </Position>
            <AltitudeMeters>699</AltitudeMeters>
            <DistanceMeters>15999.069308648</DistanceMeters>
          </Trackpoint>
          <Trackpoint>
            <Time>2021-04-01T08:10:38.000Z</Time>
            <Position>
              <LatitudeDegrees>42.41764686070382595062255859375</LatitudeDegrees>
              <LongitudeDegrees>2.7805506996810436248779296875</LongitudeDegrees>
            </Position>
            <AltitudeMeters>699.20001220703125</AltitudeMeters>
            <DistanceMeters>15999.881217251</DistanceMeters>
          </Trackpoint>
          <Trackpoint>
            <Time>2021-04-01T08:10:44.000Z</Time>
            <Position>
              <LatitudeDegrees>42.41761970333755016326904296875</LatitudeDegrees>
              <LongitudeDegrees>2.7805550582706928253173828125</LongitudeDegrees>
            </Position>
            <AltitudeMeters>699.79998779296875</AltitudeMeters>
            <DistanceMeters>16002.925040247</DistanceMeters>
          </Trackpoint>
          <Trackpoint>
            <Time>2021-04-01T08:10:46.000Z</Time>
            <Position>
              <LatitudeDegrees>42.4176038615405559539794921875</LatitudeDegrees>
              <LongitudeDegrees>2.78055313043296337127685546875</LongitudeDegrees>
            </Position>
            <AltitudeMeters>700</AltitudeMeters>
            <DistanceMeters>16004.697740618</DistanceMeters>
          </Trackpoint>
          <Trackpoint>
            <Time>2021-04-01T08:10:47.000Z</Time>
            <Position>
              <LatitudeDegrees>42.417593635618686676025390625</LatitudeDegrees>
              <LongitudeDegrees>2.7805533818900585174560546875</LongitudeDegrees>
            </Position>
            <AltitudeMeters>700</AltitudeMeters>
            <DistanceMeters>16005.83806119</DistanceMeters>
          </Trackpoint>
          <Trackpoint>
            <Time>2021-04-01T08:10:50.000Z</Time>
            <Position>
              <LatitudeDegrees>42.4175881035625934600830078125</LatitudeDegrees>
              <LongitudeDegrees>2.78056620620191097259521484375</LongitudeDegrees>
            </Position>
            <AltitudeMeters>700.20001220703125</AltitudeMeters>
            <DistanceMeters>16007.06239476</DistanceMeters>
          </Trackpoint>
          <Trackpoint>
            <Time>2021-04-01T08:10:56.000Z</Time>
            <Position>
              <LatitudeDegrees>42.41755046881735324859619140625</LatitudeDegrees>
              <LongitudeDegrees>2.7805892564356327056884765625</LongitudeDegrees>
            </Position>
            <AltitudeMeters>700.79998779296875</AltitudeMeters>
            <DistanceMeters>16011.660156058</DistanceMeters>
          </Trackpoint>
          <Trackpoint>
            <Time>2021-04-01T08:11:00.000Z</Time>
            <Position>
              <LatitudeDegrees>42.41752783767879009246826171875</LatitudeDegrees>
              <LongitudeDegrees>2.7805999852716922760009765625</LongitudeDegrees>
            </Position>
            <AltitudeMeters>701.20001220703125</AltitudeMeters>
            <DistanceMeters>16014.331066088</DistanceMeters>
          </Trackpoint>
          <Trackpoint>
            <Time>2021-04-01T08:11:05.000Z</Time>
            <Position>
              <LatitudeDegrees>42.41750906221568584442138671875</LatitudeDegrees>
              <LongitudeDegrees>2.78061951510608196258544921875</LongitudeDegrees>
            </Position>
            <AltitudeMeters>701.5999755859375</AltitudeMeters>
            <DistanceMeters>16016.964523646</DistanceMeters>
          </Trackpoint>
          <Trackpoint>
            <Time>2021-04-01T08:11:08.000Z</Time>
            <Position>
              <LatitudeDegrees>42.41749741137027740478515625</LatitudeDegrees>
              <LongitudeDegrees>2.78063041158020496368408203125</LongitudeDegrees>
            </Position>
            <AltitudeMeters>701.5999755859375</AltitudeMeters>
            <DistanceMeters>16018.543225993</DistanceMeters>
          </Trackpoint>
          <Trackpoint>
            <Time>2021-04-01T08:11:10.000Z</Time>
            <Position>
              <LatitudeDegrees>42.4174895323812961578369140625</LatitudeDegrees>
              <LongitudeDegrees>2.7806328423321247100830078125</LongitudeDegrees>
            </Position>
            <AltitudeMeters>701.79998779296875</AltitudeMeters>
            <DistanceMeters>16019.439706223</DistanceMeters>
          </Trackpoint>
          <Trackpoint>
            <Time>2021-04-01T08:11:11.000Z</Time>
            <Position>
              <LatitudeDegrees>42.41748131811618804931640625</LatitudeDegrees>
              <LongitudeDegrees>2.78063275851309299468994140625</LongitudeDegrees>
            </Position>
            <AltitudeMeters>701.79998779296875</AltitudeMeters>
            <DistanceMeters>16020.356110669</DistanceMeters>
          </Trackpoint>
          <Trackpoint>
            <Time>2021-04-01T08:11:14.000Z</Time>
            <Position>
              <LatitudeDegrees>42.41746262647211551666259765625</LatitudeDegrees>
              <LongitudeDegrees>2.78064231388270854949951171875</LongitudeDegrees>
            </Position>
            <AltitudeMeters>702</AltitudeMeters>
            <DistanceMeters>16022.578598423</DistanceMeters>
          </Trackpoint>
          <Trackpoint>
            <Time>2021-04-01T08:11:15.000Z</Time>
            <Position>
              <LatitudeDegrees>42.417458184063434600830078125</LatitudeDegrees>
              <LongitudeDegrees>2.78064541518688201904296875</LongitudeDegrees>
            </Position>
            <AltitudeMeters>702</AltitudeMeters>
            <DistanceMeters>16023.132694623</DistanceMeters>
          </Trackpoint>
          <Trackpoint>
            <Time>2021-04-01T08:11:17.000Z</Time>
            <Position>
              <LatitudeDegrees>42.41744485683739185333251953125</LatitudeDegrees>
              <LongitudeDegrees>2.7806519530713558197021484375</LongitudeDegrees>
            </Position>
            <AltitudeMeters>702.4000244140625</AltitudeMeters>
            <DistanceMeters>16024.708534406</DistanceMeters>
          </Trackpoint>
          <Trackpoint>
            <Time>2021-04-01T08:11:22.000Z</Time>
            <Position>
              <LatitudeDegrees>42.41741803474724292755126953125</LatitudeDegrees>
              <LongitudeDegrees>2.78066427446901798248291015625</LongitudeDegrees>
            </Position>
            <AltitudeMeters>703</AltitudeMeters>
            <DistanceMeters>16027.860213973</DistanceMeters>
          </Trackpoint>
          <Trackpoint>
            <Time>2021-04-01T08:11:28.000Z</Time>
            <Position>
              <LatitudeDegrees>42.41738081909716129302978515625</LatitudeDegrees>
              <LongitudeDegrees>2.7806888334453105926513671875</LongitudeDegrees>
            </Position>
            <AltitudeMeters>703</AltitudeMeters>
            <DistanceMeters>16032.466804864</DistanceMeters>
          </Trackpoint>
          <Trackpoint>
            <Time>2021-04-01T08:11:29.000Z</Time>
            <Position>
              <LatitudeDegrees>42.4173741973936557769775390625</LatitudeDegrees>
              <LongitudeDegrees>2.7806898392736911773681640625</LongitudeDegrees>
            </Position>
            <AltitudeMeters>703</AltitudeMeters>
            <DistanceMeters>16033.202878629</DistanceMeters>
          </Trackpoint>
          <Trackpoint>
            <Time>2021-04-01T08:11:32.000Z</Time>
            <Position>
              <LatitudeDegrees>42.417354919016361236572265625</LatitudeDegrees>
              <LongitudeDegrees>2.78070031665265560150146484375</LongitudeDegrees>
            </Position>
            <AltitudeMeters>703</AltitudeMeters>
            <DistanceMeters>16035.513024767</DistanceMeters>
          </Trackpoint>
          <Trackpoint>
            <Time>2021-04-01T08:11:37.000Z</Time>
            <Position>
              <LatitudeDegrees>42.41732977330684661865234375</LatitudeDegrees>
              <LongitudeDegrees>2.78072210960090160369873046875</LongitudeDegrees>
            </Position>
            <AltitudeMeters>703.4000244140625</AltitudeMeters>
            <DistanceMeters>16038.8348847</DistanceMeters>
          </Trackpoint>
          <Trackpoint>
            <Time>2021-04-01T08:11:41.000Z</Time>
            <Position>
              <LatitudeDegrees>42.41730454377830028533935546875</LatitudeDegrees>
              <LongitudeDegrees>2.78073635883629322052001953125</LongitudeDegrees>
            </Position>
            <AltitudeMeters>703.79998779296875</AltitudeMeters>
            <DistanceMeters>16041.878707696</DistanceMeters>
          </Trackpoint>
          <Trackpoint>
            <Time>2021-04-01T08:11:48.000Z</Time>
            <Position>
              <LatitudeDegrees>42.417265065014362335205078125</LatitudeDegrees>
              <LongitudeDegrees>2.78076343238353729248046875</LongitudeDegrees>
            </Position>
            <AltitudeMeters>704.4000244140625</AltitudeMeters>
            <DistanceMeters>16046.803622449</DistanceMeters>
          </Trackpoint>
          <Trackpoint>
            <Time>2021-04-01T08:11:49.000Z</Time>
            <Position>
              <LatitudeDegrees>42.41726095788180828094482421875</LatitudeDegrees>
              <LongitudeDegrees>2.78076611459255218505859375</LongitudeDegrees>
            </Position>
            <AltitudeMeters>704.4000244140625</AltitudeMeters>
            <DistanceMeters>16047.306456557</DistanceMeters>
          </Trackpoint>
          <Trackpoint>
            <Time>2021-04-01T08:11:56.000Z</Time>
            <Position>
              <LatitudeDegrees>42.4172229878604412078857421875</LatitudeDegrees>
              <LongitudeDegrees>2.7807890810072422027587890625</LongitudeDegrees>
            </Position>
            <AltitudeMeters>705</AltitudeMeters>
            <DistanceMeters>16051.936510712</DistanceMeters>
          </Trackpoint>
          <Trackpoint>
            <Time>2021-04-01T08:11:58.000Z</Time>
            <Position>
              <LatitudeDegrees>42.41720773279666900634765625</LatitudeDegrees>
              <LongitudeDegrees>2.7807994745671749114990234375</LongitudeDegrees>
            </Position>
            <AltitudeMeters>705.4000244140625</AltitudeMeters>
            <DistanceMeters>16053.839419185</DistanceMeters>
          </Trackpoint>
          <Trackpoint>
            <Time>2021-04-01T08:12:05.000Z</Time>
            <Position>
              <LatitudeDegrees>42.41715014912188053131103515625</LatitudeDegrees>
              <LongitudeDegrees>2.780847251415252685546875</LongitudeDegrees>
            </Position>
            <AltitudeMeters>705.79998779296875</AltitudeMeters>
            <DistanceMeters>16061.354944992</DistanceMeters>
          </Trackpoint>
          <Trackpoint>
            <Time>2021-04-01T08:12:11.000Z</Time>
            <Position>
              <LatitudeDegrees>42.41712718270719051361083984375</LatitudeDegrees>
              <LongitudeDegrees>2.78088438324630260467529296875</LongitudeDegrees>
            </Position>
            <AltitudeMeters>706.5999755859375</AltitudeMeters>
            <DistanceMeters>16065.337006548</DistanceMeters>
          </Trackpoint>
          <Trackpoint>
            <Time>2021-04-01T08:12:13.000Z</Time>
            <Position>
              <LatitudeDegrees>42.41712416522204875946044921875</LatitudeDegrees>
              <LongitudeDegrees>2.7808933518826961517333984375</LongitudeDegrees>
            </Position>
            <AltitudeMeters>706.79998779296875</AltitudeMeters>
            <DistanceMeters>16066.154457254</DistanceMeters>
          </Trackpoint>
          <Trackpoint>
            <Time>2021-04-01T08:12:16.000Z</Time>
            <Position>
              <LatitudeDegrees>42.4171133525669574737548828125</LatitudeDegrees>
              <LongitudeDegrees>2.78090785257518291473388671875</LongitudeDegrees>
            </Position>
            <AltitudeMeters>706.79998779296875</AltitudeMeters>
            <DistanceMeters>16067.849026317</DistanceMeters>
          </Trackpoint>
          <Trackpoint>
            <Time>2021-04-01T08:12:17.000Z</Time>
            <Position>
              <LatitudeDegrees>42.417106814682483673095703125</LatitudeDegrees>
              <LongitudeDegrees>2.780909277498722076416015625</LongitudeDegrees>
            </Position>
            <AltitudeMeters>707</AltitudeMeters>
            <DistanceMeters>16068.585100081</DistanceMeters>
          </Trackpoint>
          <Trackpoint>
            <Time>2021-04-01T08:12:24.000Z</Time>
            <Position>
              <LatitudeDegrees>42.417041771113872528076171875</LatitudeDegrees>
              <LongitudeDegrees>2.7809459902346134185791015625</LongitudeDegrees>
            </Position>
            <AltitudeMeters>707.4000244140625</AltitudeMeters>
            <DistanceMeters>16076.428114855</DistanceMeters>
          </Trackpoint>
          <Trackpoint>
            <Time>2021-04-01T08:12:25.000Z</Time>
            <Position>
              <LatitudeDegrees>42.4170372448861598968505859375</LatitudeDegrees>
              <LongitudeDegrees>2.78094590641558170318603515625</LongitudeDegrees>
            </Position>
            <AltitudeMeters>707.5999755859375</AltitudeMeters>
            <DistanceMeters>16076.930948963</DistanceMeters>
          </Trackpoint>
          <Trackpoint>
            <Time>2021-04-01T08:12:26.000Z</Time>
            <Position>
              <LatitudeDegrees>42.41703045554459095001220703125</LatitudeDegrees>
              <LongitudeDegrees>2.780947498977184295654296875</LongitudeDegrees>
            </Position>
            <AltitudeMeters>707.5999755859375</AltitudeMeters>
            <DistanceMeters>16077.697078827</DistanceMeters>
          </Trackpoint>
          <Trackpoint>
            <Time>2021-04-01T08:12:34.000Z</Time>
            <Position>
              <LatitudeDegrees>42.41699986159801483154296875</LatitudeDegrees>
              <LongitudeDegrees>2.78095009736716747283935546875</LongitudeDegrees>
            </Position>
            <AltitudeMeters>708</AltitudeMeters>
            <DistanceMeters>16081.107465676</DistanceMeters>
          </Trackpoint>
          <Trackpoint>
            <Time>2021-04-01T08:12:38.000Z</Time>
            <Position>
              <LatitudeDegrees>42.41697303950786590576171875</LatitudeDegrees>
              <LongitudeDegrees>2.78094707988202571868896484375</LongitudeDegrees>
            </Position>
            <AltitudeMeters>707.79998779296875</AltitudeMeters>
            <DistanceMeters>16084.101938235</DistanceMeters>
          </Trackpoint>
          <Trackpoint>
            <Time>2021-04-01T08:12:39.000Z</Time>
            <Position>
              <LatitudeDegrees>42.41697303950786590576171875</LatitudeDegrees>
              <LongitudeDegrees>2.78094707988202571868896484375</LongitudeDegrees>
            </Position>
            <AltitudeMeters>707.79998779296875</AltitudeMeters>
            <DistanceMeters>16084.101938235</DistanceMeters>
          </Trackpoint>
          <Trackpoint>
            <Time>2021-04-01T08:12:40.000Z</Time>
            <Position>
              <LatitudeDegrees>42.41697303950786590576171875</LatitudeDegrees>
              <LongitudeDegrees>2.78094707988202571868896484375</LongitudeDegrees>
            </Position>
            <AltitudeMeters>707.79998779296875</AltitudeMeters>
            <DistanceMeters>16084.101938235</DistanceMeters>
          </Trackpoint>
          <Trackpoint>
            <Time>2021-04-01T08:12:42.000Z</Time>
            <Position>
              <LatitudeDegrees>42.41697303950786590576171875</LatitudeDegrees>
              <LongitudeDegrees>2.78094707988202571868896484375</LongitudeDegrees>
            </Position>
            <AltitudeMeters>707.79998779296875</AltitudeMeters>
            <DistanceMeters>16084.101938235</DistanceMeters>
          </Trackpoint>
          <Trackpoint>
            <Time>2021-04-01T08:12:45.000Z</Time>
            <Position>
              <LatitudeDegrees>42.41697303950786590576171875</LatitudeDegrees>
              <LongitudeDegrees>2.78094707988202571868896484375</LongitudeDegrees>
            </Position>
            <AltitudeMeters>707.5999755859375</AltitudeMeters>
            <DistanceMeters>16084.101938235</DistanceMeters>
          </Trackpoint>
          <Trackpoint>
            <Time>2021-04-01T08:12:54.000Z</Time>
            <Position>
              <LatitudeDegrees>42.4169601313769817352294921875</LatitudeDegrees>
              <LongitudeDegrees>2.78094389475882053375244140625</LongitudeDegrees>
            </Position>
            <AltitudeMeters>707.79998779296875</AltitudeMeters>
            <DistanceMeters>16085.564855908</DistanceMeters>
          </Trackpoint>
          <Trackpoint>
            <Time>2021-04-01T08:12:59.000Z</Time>
            <Position>
              <LatitudeDegrees>42.41695585660636425018310546875</LatitudeDegrees>
              <LongitudeDegrees>2.7809309028089046478271484375</LongitudeDegrees>
            </Position>
            <AltitudeMeters>707.5999755859375</AltitudeMeters>
            <DistanceMeters>16086.736423926</DistanceMeters>
          </Trackpoint>
          <Trackpoint>
            <Time>2021-04-01T08:13:05.000Z</Time>
            <Position>
              <LatitudeDegrees>42.41694915108382701873779296875</LatitudeDegrees>
              <LongitudeDegrees>2.7809183299541473388671875</LongitudeDegrees>
            </Position>
            <AltitudeMeters>707.4000244140625</AltitudeMeters>
            <DistanceMeters>16088.011341084</DistanceMeters>
          </Trackpoint>
          <Trackpoint>
            <Time>2021-04-01T08:13:09.000Z</Time>
            <Position>
              <LatitudeDegrees>42.4169396795332431793212890625</LatitudeDegrees>
              <LongitudeDegrees>2.7809183299541473388671875</LongitudeDegrees>
            </Position>
            <AltitudeMeters>708.20001220703125</AltitudeMeters>
            <DistanceMeters>16089.069513791</DistanceMeters>
          </Trackpoint>
          <Trackpoint>
            <Time>2021-04-01T08:13:11.000Z</Time>
            <Position>
              <LatitudeDegrees>42.416936494410037994384765625</LatitudeDegrees>
              <LongitudeDegrees>2.7809183299541473388671875</LongitudeDegrees>
            </Position>
            <AltitudeMeters>708.5999755859375</AltitudeMeters>
            <DistanceMeters>16089.425071199</DistanceMeters>
          </Trackpoint>
          <Trackpoint>
            <Time>2021-04-01T08:13:13.000Z</Time>
            <Position>
              <LatitudeDegrees>42.4169356562197208404541015625</LatitudeDegrees>
              <LongitudeDegrees>2.7809183299541473388671875</LongitudeDegrees>
            </Position>
            <AltitudeMeters>708.79998779296875</AltitudeMeters>
            <DistanceMeters>16089.425071199</DistanceMeters>
          </Trackpoint>
          <Trackpoint>
            <Time>2021-04-01T08:13:15.000Z</Time>
            <Position>
              <LatitudeDegrees>42.4169353209435939788818359375</LatitudeDegrees>
              <LongitudeDegrees>2.7809183299541473388671875</LongitudeDegrees>
            </Position>
            <AltitudeMeters>708.79998779296875</AltitudeMeters>
            <DistanceMeters>16089.425071199</DistanceMeters>
          </Trackpoint>
          <Trackpoint>
            <Time>2021-04-01T08:13:18.000Z</Time>
            <Position>
              <LatitudeDegrees>42.41693079471588134765625</LatitudeDegrees>
              <LongitudeDegrees>2.78091891668736934661865234375</LongitudeDegrees>
            </Position>
            <AltitudeMeters>709</AltitudeMeters>
            <DistanceMeters>16089.927905307</DistanceMeters>
          </Trackpoint>
          <Trackpoint>
            <Time>2021-04-01T08:13:25.000Z</Time>
            <Position>
              <LatitudeDegrees>42.41690774448215961456298828125</LatitudeDegrees>
              <LongitudeDegrees>2.78094490058720111846923828125</LongitudeDegrees>
            </Position>
            <AltitudeMeters>709.5999755859375</AltitudeMeters>
            <DistanceMeters>16093.266035672</DistanceMeters>
          </Trackpoint>
          <Trackpoint>
            <Time>2021-04-01T08:13:26.000Z</Time>
            <Position>
              <LatitudeDegrees>42.4169024638831615447998046875</LatitudeDegrees>
              <LongitudeDegrees>2.78094640932977199554443359375</LongitudeDegrees>
            </Position>
            <AltitudeMeters>709.5999755859375</AltitudeMeters>
            <DistanceMeters>16093.867037384</DistanceMeters>
          </Trackpoint>
          <Trackpoint>
            <Time>2021-04-01T08:13:35.000Z</Time>
            <Position>
              <LatitudeDegrees>42.41685099899768829345703125</LatitudeDegrees>
              <LongitudeDegrees>2.78096384368836879730224609375</LongitudeDegrees>
            </Position>
            <AltitudeMeters>710.79998779296875</AltitudeMeters>
            <DistanceMeters>16099.770942454</DistanceMeters>
          </Trackpoint>
          <Trackpoint>
            <Time>2021-04-01T08:13:45.000Z</Time>
            <Position>
              <LatitudeDegrees>42.41679978556931018829345703125</LatitudeDegrees>
              <LongitudeDegrees>2.7809828706085681915283203125</LongitudeDegrees>
            </Position>
            <AltitudeMeters>711.79998779296875</AltitudeMeters>
            <DistanceMeters>16105.682490122</DistanceMeters>
          </Trackpoint>
          <Trackpoint>
            <Time>2021-04-01T08:13:53.000Z</Time>
            <Position>
              <LatitudeDegrees>42.4167137034237384796142578125</LatitudeDegrees>
              <LongitudeDegrees>2.781029976904392242431640625</LongitudeDegrees>
            </Position>
            <AltitudeMeters>712</AltitudeMeters>
            <DistanceMeters>16116.016399548</DistanceMeters>
          </Trackpoint>
          <Trackpoint>
            <Time>2021-04-01T08:13:56.000Z</Time>
            <Position>
              <LatitudeDegrees>42.41666148416697978973388671875</LatitudeDegrees>
              <LongitudeDegrees>2.78106090612709522247314453125</LongitudeDegrees>
            </Position>
            <AltitudeMeters>711.79998779296875</AltitudeMeters>
            <DistanceMeters>16122.359744142</DistanceMeters>
          </Trackpoint>
          <Trackpoint>
            <Time>2021-04-01T08:13:58.000Z</Time>
            <Position>
              <LatitudeDegrees>42.41662879474461078643798828125</LatitudeDegrees>
              <LongitudeDegrees>2.781085632741451263427734375</LongitudeDegrees>
            </Position>
            <AltitudeMeters>712</AltitudeMeters>
            <DistanceMeters>16126.527941244</DistanceMeters>
          </Trackpoint>
          <Trackpoint>
            <Time>2021-04-01T08:13:59.000Z</Time>
            <Position>
              <LatitudeDegrees>42.4166117794811725616455078125</LatitudeDegrees>
              <LongitudeDegrees>2.78109812177717685699462890625</LongitudeDegrees>
            </Position>
            <AltitudeMeters>712</AltitudeMeters>
            <DistanceMeters>16128.68234587</DistanceMeters>
          </Trackpoint>
          <Trackpoint>
            <Time>2021-04-01T08:14:01.000Z</Time>
            <Position>
              <LatitudeDegrees>42.41659644059836864471435546875</LatitudeDegrees>
              <LongitudeDegrees>2.781103067100048065185546875</LongitudeDegrees>
            </Position>
            <AltitudeMeters>712.20001220703125</AltitudeMeters>
            <DistanceMeters>16130.439697896</DistanceMeters>
          </Trackpoint>
          <Trackpoint>
            <Time>2021-04-01T08:14:05.000Z</Time>
            <Position>
              <LatitudeDegrees>42.4165745638310909271240234375</LatitudeDegrees>
              <LongitudeDegrees>2.78110801242291927337646484375</LongitudeDegrees>
            </Position>
            <AltitudeMeters>712.4000244140625</AltitudeMeters>
            <DistanceMeters>16132.910392469</DistanceMeters>
          </Trackpoint>
          <Trackpoint>
            <Time>2021-04-01T08:14:08.000Z</Time>
            <Position>
              <LatitudeDegrees>42.41656224243342876434326171875</LatitudeDegrees>
              <LongitudeDegrees>2.78111002407968044281005859375</LongitudeDegrees>
            </Position>
            <AltitudeMeters>712.79998779296875</AltitudeMeters>
            <DistanceMeters>16134.294002315</DistanceMeters>
          </Trackpoint>
          <Trackpoint>
            <Time>2021-04-01T08:14:14.000Z</Time>
            <Position>
              <LatitudeDegrees>42.41652150638401508331298828125</LatitudeDegrees>
              <LongitudeDegrees>2.7811355888843536376953125</LongitudeDegrees>
            </Position>
            <AltitudeMeters>713.20001220703125</AltitudeMeters>
            <DistanceMeters>16139.291720939</DistanceMeters>
          </Trackpoint>
          <Trackpoint>
            <Time>2021-04-01T08:14:15.000Z</Time>
            <Position>
              <LatitudeDegrees>42.41651681251823902130126953125</LatitudeDegrees>
              <LongitudeDegrees>2.78113869018852710723876953125</LongitudeDegrees>
            </Position>
            <AltitudeMeters>713.20001220703125</AltitudeMeters>
            <DistanceMeters>16139.877504948</DistanceMeters>
          </Trackpoint>
          <Trackpoint>
            <Time>2021-04-01T08:14:18.000Z</Time>
            <Position>
              <LatitudeDegrees>42.41649937815964221954345703125</LatitudeDegrees>
              <LongitudeDegrees>2.78113902546465396881103515625</LongitudeDegrees>
            </Position>
            <AltitudeMeters>713.4000244140625</AltitudeMeters>
            <DistanceMeters>16141.815677232</DistanceMeters>
          </Trackpoint>
          <Trackpoint>
            <Time>2021-04-01T08:14:20.000Z</Time>
            <Position>
              <LatitudeDegrees>42.41648362018167972564697265625</LatitudeDegrees>
              <LongitudeDegrees>2.781144641339778900146484375</LongitudeDegrees>
            </Position>
            <AltitudeMeters>713.79998779296875</AltitudeMeters>
            <DistanceMeters>16143.628671392</DistanceMeters>
          </Trackpoint>
          <Trackpoint>
            <Time>2021-04-01T08:14:21.000Z</Time>
            <Position>
              <LatitudeDegrees>42.41647775284945964813232421875</LatitudeDegrees>
              <LongitudeDegrees>2.78114656917750835418701171875</LongitudeDegrees>
            </Position>
            <AltitudeMeters>713.79998779296875</AltitudeMeters>
            <DistanceMeters>16144.307297872</DistanceMeters>
          </Trackpoint>
          <Trackpoint>
            <Time>2021-04-01T08:14:23.000Z</Time>
            <Position>
              <LatitudeDegrees>42.4164635874330997467041015625</LatitudeDegrees>
              <LongitudeDegrees>2.7811488322913646697998046875</LongitudeDegrees>
            </Position>
            <AltitudeMeters>714</AltitudeMeters>
            <DistanceMeters>16145.897398939</DistanceMeters>
          </Trackpoint>
          <Trackpoint>
            <Time>2021-04-01T08:14:29.000Z</Time>
            <Position>
              <LatitudeDegrees>42.41642997600138187408447265625</LatitudeDegrees>
              <LongitudeDegrees>2.78117707930505275726318359375</LongitudeDegrees>
            </Position>
            <AltitudeMeters>714.79998779296875</AltitudeMeters>
            <DistanceMeters>16150.300531247</DistanceMeters>
          </Trackpoint>
          <Trackpoint>
            <Time>2021-04-01T08:14:30.000Z</Time>
            <Position>
              <LatitudeDegrees>42.41641991771757602691650390625</LatitudeDegrees>
              <LongitudeDegrees>2.78118495829403400421142578125</LongitudeDegrees>
            </Position>
            <AltitudeMeters>714.79998779296875</AltitudeMeters>
            <DistanceMeters>16151.596522844</DistanceMeters>
          </Trackpoint>
          <Trackpoint>
            <Time>2021-04-01T08:14:33.000Z</Time>
            <Position>
              <LatitudeDegrees>42.41638957522809505462646484375</LatitudeDegrees>
              <LongitudeDegrees>2.78119820170104503631591796875</LongitudeDegrees>
            </Position>
            <AltitudeMeters>715</AltitudeMeters>
            <DistanceMeters>16155.145742003</DistanceMeters>
          </Trackpoint>
          <Trackpoint>
            <Time>2021-04-01T08:14:40.000Z</Time>
            <Position>
              <LatitudeDegrees>42.41633274592459201812744140625</LatitudeDegrees>
              <LongitudeDegrees>2.7812080085277557373046875</LongitudeDegrees>
            </Position>
            <AltitudeMeters>715</AltitudeMeters>
            <DistanceMeters>16161.521744211</DistanceMeters>
          </Trackpoint>
          <Trackpoint>
            <Time>2021-04-01T08:14:44.000Z</Time>
            <Position>
              <LatitudeDegrees>42.41627407260239124298095703125</LatitudeDegrees>
              <LongitudeDegrees>2.78122837655246257781982421875</LongitudeDegrees>
            </Position>
            <AltitudeMeters>715.20001220703125</AltitudeMeters>
            <DistanceMeters>16168.26261542</DistanceMeters>
          </Trackpoint>
          <Trackpoint>
            <Time>2021-04-01T08:14:49.000Z</Time>
            <Position>
              <LatitudeDegrees>42.41623249836266040802001953125</LatitudeDegrees>
              <LongitudeDegrees>2.78123684227466583251953125</LongitudeDegrees>
            </Position>
            <AltitudeMeters>715.4000244140625</AltitudeMeters>
            <DistanceMeters>16172.941173457</DistanceMeters>
          </Trackpoint>
          <Trackpoint>
            <Time>2021-04-01T08:14:51.000Z</Time>
            <Position>
              <LatitudeDegrees>42.41621925495564937591552734375</LatitudeDegrees>
              <LongitudeDegrees>2.7812420390546321868896484375</LongitudeDegrees>
            </Position>
            <AltitudeMeters>715.5999755859375</AltitudeMeters>
            <DistanceMeters>16174.473433185</DistanceMeters>
          </Trackpoint>
          <Trackpoint>
            <Time>2021-04-01T08:14:53.000Z</Time>
            <Position>
              <LatitudeDegrees>42.4162106215953826904296875</LatitudeDegrees>
              <LongitudeDegrees>2.78124086558818817138671875</LongitudeDegrees>
            </Position>
            <AltitudeMeters>715.5999755859375</AltitudeMeters>
            <DistanceMeters>16175.433155956</DistanceMeters>
          </Trackpoint>
          <Trackpoint>
            <Time>2021-04-01T08:14:55.000Z</Time>
            <Position>
              <LatitudeDegrees>42.416198551654815673828125</LatitudeDegrees>
              <LongitudeDegrees>2.78124882839620113372802734375</LongitudeDegrees>
            </Position>
            <AltitudeMeters>715.5999755859375</AltitudeMeters>
            <DistanceMeters>16176.923591733</DistanceMeters>
          </Trackpoint>
          <Trackpoint>
            <Time>2021-04-01T08:14:57.000Z</Time>
            <Position>
              <LatitudeDegrees>42.41618572734296321868896484375</LatitudeDegrees>
              <LongitudeDegrees>2.781247906386852264404296875</LongitudeDegrees>
            </Position>
            <AltitudeMeters>715.5999755859375</AltitudeMeters>
            <DistanceMeters>16178.352156494</DistanceMeters>
          </Trackpoint>
          <Trackpoint>
            <Time>2021-04-01T08:14:59.000Z</Time>
            <Position>
              <LatitudeDegrees>42.4161685444414615631103515625</LatitudeDegrees>
              <LongitudeDegrees>2.781263329088687896728515625</LongitudeDegrees>
            </Position>
            <AltitudeMeters>716</AltitudeMeters>
            <DistanceMeters>16180.646613852</DistanceMeters>
          </Trackpoint>
          <Trackpoint>
            <Time>2021-04-01T08:15:04.000Z</Time>
            <Position>
              <LatitudeDegrees>42.41613074205815792083740234375</LatitudeDegrees>
              <LongitudeDegrees>2.7812671847641468048095703125</LongitudeDegrees>
            </Position>
            <AltitudeMeters>716.20001220703125</AltitudeMeters>
            <DistanceMeters>16184.864344355</DistanceMeters>
          </Trackpoint>
          <Trackpoint>
            <Time>2021-04-01T08:15:12.000Z</Time>
            <Position>
              <LatitudeDegrees>42.416027896106243133544921875</LatitudeDegrees>
              <LongitudeDegrees>2.78130901046097278594970703125</LongitudeDegrees>
            </Position>
            <AltitudeMeters>716.5999755859375</AltitudeMeters>
            <DistanceMeters>16196.815819125</DistanceMeters>
          </Trackpoint>
          <Trackpoint>
            <Time>2021-04-01T08:15:14.000Z</Time>
            <Position>
              <LatitudeDegrees>42.41600342094898223876953125</LatitudeDegrees>
              <LongitudeDegrees>2.781308591365814208984375</LongitudeDegrees>
            </Position>
            <AltitudeMeters>716.79998779296875</AltitudeMeters>
            <DistanceMeters>16199.540286566</DistanceMeters>
          </Trackpoint>
          <Trackpoint>
            <Time>2021-04-01T08:15:16.000Z</Time>
            <Position>
              <LatitudeDegrees>42.41598372347652912139892578125</LatitudeDegrees>
              <LongitudeDegrees>2.7813084237277507781982421875</LongitudeDegrees>
            </Position>
            <AltitudeMeters>717</AltitudeMeters>
            <DistanceMeters>16201.73208963</DistanceMeters>
          </Trackpoint>
          <Trackpoint>
            <Time>2021-04-01T08:15:17.000Z</Time>
            <Position>
              <LatitudeDegrees>42.4159757606685161590576171875</LatitudeDegrees>
              <LongitudeDegrees>2.7813090942800045013427734375</LongitudeDegrees>
            </Position>
            <AltitudeMeters>717</AltitudeMeters>
            <DistanceMeters>16202.623519227</DistanceMeters>
          </Trackpoint>
          <Trackpoint>
            <Time>2021-04-01T08:15:22.000Z</Time>
            <Position>
              <LatitudeDegrees>42.41593913175165653228759765625</LatitudeDegrees>
              <LongitudeDegrees>2.7813245169818401336669921875</LongitudeDegrees>
            </Position>
            <AltitudeMeters>717.4000244140625</AltitudeMeters>
            <DistanceMeters>16206.89338156</DistanceMeters>
          </Trackpoint>
          <Trackpoint>
            <Time>2021-04-01T08:15:27.000Z</Time>
            <Position>
              <LatitudeDegrees>42.41589169017970561981201171875</LatitudeDegrees>
              <LongitudeDegrees>2.78133809566497802734375</LongitudeDegrees>
            </Position>
            <AltitudeMeters>717.5999755859375</AltitudeMeters>
            <DistanceMeters>16212.290698171</DistanceMeters>
          </Trackpoint>
          <Trackpoint>
            <Time>2021-04-01T08:15:29.000Z</Time>
            <Position>
              <LatitudeDegrees>42.41587693803012371063232421875</LatitudeDegrees>
              <LongitudeDegrees>2.78134102933108806610107421875</LongitudeDegrees>
            </Position>
            <AltitudeMeters>717.5999755859375</AltitudeMeters>
            <DistanceMeters>16213.952986772</DistanceMeters>
          </Trackpoint>
          <Trackpoint>
            <Time>2021-04-01T08:15:31.000Z</Time>
            <Position>
              <LatitudeDegrees>42.41584860719740390777587890625</LatitudeDegrees>
              <LongitudeDegrees>2.78134941123425960540771484375</LongitudeDegrees>
            </Position>
            <AltitudeMeters>717.4000244140625</AltitudeMeters>
            <DistanceMeters>16217.17830041</DistanceMeters>
          </Trackpoint>
          <Trackpoint>
            <Time>2021-04-01T08:15:32.000Z</Time>
            <Position>
              <LatitudeDegrees>42.41584223695099353790283203125</LatitudeDegrees>
              <LongitudeDegrees>2.7813528478145599365234375</LongitudeDegrees>
            </Position>
            <AltitudeMeters>717.20001220703125</AltitudeMeters>
            <DistanceMeters>16217.944430274</DistanceMeters>
          </Trackpoint>
          <Trackpoint>
            <Time>2021-04-01T08:15:36.000Z</Time>
            <Position>
              <LatitudeDegrees>42.41580083034932613372802734375</LatitudeDegrees>
              <LongitudeDegrees>2.781366594135761260986328125</LongitudeDegrees>
            </Position>
            <AltitudeMeters>717.20001220703125</AltitudeMeters>
            <DistanceMeters>16222.690060965</DistanceMeters>
          </Trackpoint>
          <Trackpoint>
            <Time>2021-04-01T08:15:37.000Z</Time>
            <Position>
              <LatitudeDegrees>42.41578272543847560882568359375</LatitudeDegrees>
              <LongitudeDegrees>2.78136936016380786895751953125</LongitudeDegrees>
            </Position>
            <AltitudeMeters>717</AltitudeMeters>
            <DistanceMeters>16224.714821372</DistanceMeters>
          </Trackpoint>
          <Trackpoint>
            <Time>2021-04-01T08:15:40.000Z</Time>
            <Position>
              <LatitudeDegrees>42.41574601270258426666259765625</LatitudeDegrees>
              <LongitudeDegrees>2.7813734672963619232177734375</LongitudeDegrees>
            </Position>
            <AltitudeMeters>717</AltitudeMeters>
            <DistanceMeters>16228.815309433</DistanceMeters>
          </Trackpoint>
          <Trackpoint>
            <Time>2021-04-01T08:15:46.000Z</Time>
            <Position>
              <LatitudeDegrees>42.41569002158939838409423828125</LatitudeDegrees>
              <LongitudeDegrees>2.78138260357081890106201171875</LongitudeDegrees>
            </Position>
            <AltitudeMeters>717.20001220703125</AltitudeMeters>
            <DistanceMeters>16235.092829134</DistanceMeters>
          </Trackpoint>
          <Trackpoint>
            <Time>2021-04-01T08:15:52.000Z</Time>
            <Position>
              <LatitudeDegrees>42.415636293590068817138671875</LatitudeDegrees>
              <LongitudeDegrees>2.7813868783414363861083984375</LongitudeDegrees>
            </Position>
            <AltitudeMeters>717.20001220703125</AltitudeMeters>
            <DistanceMeters>16241.083281854</DistanceMeters>
          </Trackpoint>
          <Trackpoint>
            <Time>2021-04-01T08:15:55.000Z</Time>
            <Position>
              <LatitudeDegrees>42.41561584174633026123046875</LatitudeDegrees>
              <LongitudeDegrees>2.78138947673141956329345703125</LongitudeDegrees>
            </Position>
            <AltitudeMeters>717.5999755859375</AltitudeMeters>
            <DistanceMeters>16243.371828191</DistanceMeters>
          </Trackpoint>
          <Trackpoint>
            <Time>2021-04-01T08:16:02.000Z</Time>
            <Position>
              <LatitudeDegrees>42.41553478874266147613525390625</LatitudeDegrees>
              <LongitudeDegrees>2.78137975372374057769775390625</LongitudeDegrees>
            </Position>
            <AltitudeMeters>718.20001220703125</AltitudeMeters>
            <DistanceMeters>16252.428826282</DistanceMeters>
          </Trackpoint>
          <Trackpoint>
            <Time>2021-04-01T08:16:03.000Z</Time>
            <Position>
              <LatitudeDegrees>42.41552808322012424468994140625</LatitudeDegrees>
              <LongitudeDegrees>2.7813761495053768157958984375</LongitudeDegrees>
            </Position>
            <AltitudeMeters>718.20001220703125</AltitudeMeters>
            <DistanceMeters>16253.235154692</DistanceMeters>
          </Trackpoint>
          <Trackpoint>
            <Time>2021-04-01T08:16:14.000Z</Time>
            <Position>
              <LatitudeDegrees>42.4154373072087764739990234375</LatitudeDegrees>
              <LongitudeDegrees>2.78137807734310626983642578125</LongitudeDegrees>
            </Position>
            <AltitudeMeters>718.79998779296875</AltitudeMeters>
            <DistanceMeters>16263.340208102</DistanceMeters>
          </Trackpoint>
          <Trackpoint>
            <Time>2021-04-01T08:16:18.000Z</Time>
            <Position>
              <LatitudeDegrees>42.41541325114667415618896484375</LatitudeDegrees>
              <LongitudeDegrees>2.7813850343227386474609375</LongitudeDegrees>
            </Position>
            <AltitudeMeters>718.20001220703125</AltitudeMeters>
            <DistanceMeters>16266.077901191</DistanceMeters>
          </Trackpoint>
          <Trackpoint>
            <Time>2021-04-01T08:16:21.000Z</Time>
            <Position>
              <LatitudeDegrees>42.415383160114288330078125</LatitudeDegrees>
              <LongitudeDegrees>2.78139115311205387115478515625</LongitudeDegrees>
            </Position>
            <AltitudeMeters>717.79998779296875</AltitudeMeters>
            <DistanceMeters>16269.464373852</DistanceMeters>
          </Trackpoint>
          <Trackpoint>
            <Time>2021-04-01T08:16:24.000Z</Time>
            <Position>
              <LatitudeDegrees>42.41535566747188568115234375</LatitudeDegrees>
              <LongitudeDegrees>2.78138629160821437835693359375</LongitudeDegrees>
            </Position>
            <AltitudeMeters>717.79998779296875</AltitudeMeters>
            <DistanceMeters>16272.547987073</DistanceMeters>
          </Trackpoint>
          <Trackpoint>
            <Time>2021-04-01T08:16:26.000Z</Time>
            <Position>
              <LatitudeDegrees>42.41533580236136913299560546875</LatitudeDegrees>
              <LongitudeDegrees>2.78139634989202022552490234375</LongitudeDegrees>
            </Position>
            <AltitudeMeters>717.79998779296875</AltitudeMeters>
            <DistanceMeters>16274.90840169</DistanceMeters>
          </Trackpoint>
          <Trackpoint>
            <Time>2021-04-01T08:16:28.000Z</Time>
            <Position>
              <LatitudeDegrees>42.41532289423048496246337890625</LatitudeDegrees>
              <LongitudeDegrees>2.7813959307968616485595703125</LongitudeDegrees>
            </Position>
            <AltitudeMeters>718</AltitudeMeters>
            <DistanceMeters>16276.349553168</DistanceMeters>
          </Trackpoint>
          <Trackpoint>
            <Time>2021-04-01T08:16:29.000Z</Time>
            <Position>
              <LatitudeDegrees>42.4153159372508525848388671875</LatitudeDegrees>
              <LongitudeDegrees>2.78140204958617687225341796875</LongitudeDegrees>
            </Position>
            <AltitudeMeters>718</AltitudeMeters>
            <DistanceMeters>16277.27575901</DistanceMeters>
          </Trackpoint>
          <Trackpoint>
            <Time>2021-04-01T08:16:30.000Z</Time>
            <Position>
              <LatitudeDegrees>42.41530864499509334564208984375</LatitudeDegrees>
              <LongitudeDegrees>2.78140909038484096527099609375</LongitudeDegrees>
            </Position>
            <AltitudeMeters>718</AltitudeMeters>
            <DistanceMeters>16278.272407599</DistanceMeters>
          </Trackpoint>
          <Trackpoint>
            <Time>2021-04-01T08:16:36.000Z</Time>
            <Position>
              <LatitudeDegrees>42.41525399498641490936279296875</LatitudeDegrees>
              <LongitudeDegrees>2.78144496493041515350341796875</LongitudeDegrees>
            </Position>
            <AltitudeMeters>718.20001220703125</AltitudeMeters>
            <DistanceMeters>16285.032675114</DistanceMeters>
          </Trackpoint>
          <Trackpoint>
            <Time>2021-04-01T08:16:40.000Z</Time>
            <Position>
              <LatitudeDegrees>42.415232621133327484130859375</LatitudeDegrees>
              <LongitudeDegrees>2.78146541677415370941162109375</LongitudeDegrees>
            </Position>
            <AltitudeMeters>718.4000244140625</AltitudeMeters>
            <DistanceMeters>16287.946139007</DistanceMeters>
          </Trackpoint>
          <Trackpoint>
            <Time>2021-04-01T08:16:41.000Z</Time>
            <Position>
              <LatitudeDegrees>42.4152314476668834686279296875</LatitudeDegrees>
              <LongitudeDegrees>2.7814730443060398101806640625</LongitudeDegrees>
            </Position>
            <AltitudeMeters>718.4000244140625</AltitudeMeters>
            <DistanceMeters>16288.590641541</DistanceMeters>
          </Trackpoint>
          <Trackpoint>
            <Time>2021-04-01T08:16:46.000Z</Time>
            <Position>
              <LatitudeDegrees>42.41524326615035533905029296875</LatitudeDegrees>
              <LongitudeDegrees>2.78150145895779132843017578125</LongitudeDegrees>
            </Position>
            <AltitudeMeters>718.4000244140625</AltitudeMeters>
            <DistanceMeters>16291.271675083</DistanceMeters>
          </Trackpoint>
          <Trackpoint>
            <Time>2021-04-01T08:16:47.000Z</Time>
            <Position>
              <LatitudeDegrees>42.41524544544517993927001953125</LatitudeDegrees>
              <LongitudeDegrees>2.78149944730103015899658203125</LongitudeDegrees>
            </Position>
            <AltitudeMeters>718.4000244140625</AltitudeMeters>
            <DistanceMeters>16291.572175939</DistanceMeters>
          </Trackpoint>
          <Trackpoint>
            <Time>2021-04-01T08:16:48.000Z</Time>
            <Position>
              <LatitudeDegrees>42.4152465350925922393798828125</LatitudeDegrees>
              <LongitudeDegrees>2.7814995311200618743896484375</LongitudeDegrees>
            </Position>
            <AltitudeMeters>718.4000244140625</AltitudeMeters>
            <DistanceMeters>16291.706564007</DistanceMeters>
          </Trackpoint>
          <Trackpoint>
            <Time>2021-04-01T08:16:54.000Z</Time>
            <Position>
              <LatitudeDegrees>42.415242008864879608154296875</LatitudeDegrees>
              <LongitudeDegrees>2.78150347061455249786376953125</LongitudeDegrees>
            </Position>
            <AltitudeMeters>718.20001220703125</AltitudeMeters>
            <DistanceMeters>16292.292348016</DistanceMeters>
          </Trackpoint>
          <Trackpoint>
            <Time>2021-04-01T08:16:55.000Z</Time>
            <Position>
              <LatitudeDegrees>42.4152451939880847930908203125</LatitudeDegrees>
              <LongitudeDegrees>2.78150380589067935943603515625</LongitudeDegrees>
            </Position>
            <AltitudeMeters>718</AltitudeMeters>
            <DistanceMeters>16292.647905423</DistanceMeters>
          </Trackpoint>
          <Trackpoint>
            <Time>2021-04-01T08:17:01.000Z</Time>
            <Position>
              <LatitudeDegrees>42.41524511016905307769775390625</LatitudeDegrees>
              <LongitudeDegrees>2.78150900267064571380615234375</LongitudeDegrees>
            </Position>
            <AltitudeMeters>717.79998779296875</AltitudeMeters>
            <DistanceMeters>16293.072877809</DistanceMeters>
          </Trackpoint>
          <Trackpoint>
            <Time>2021-04-01T08:17:06.000Z</Time>
            <Position>
              <LatitudeDegrees>42.41524511016905307769775390625</LatitudeDegrees>
              <LongitudeDegrees>2.78150749392807483673095703125</LongitudeDegrees>
            </Position>
            <AltitudeMeters>717.79998779296875</AltitudeMeters>
            <DistanceMeters>16293.207265878</DistanceMeters>
          </Trackpoint>
          <Trackpoint>
            <Time>2021-04-01T08:17:10.000Z</Time>
            <Position>
              <LatitudeDegrees>42.41524511016905307769775390625</LatitudeDegrees>
              <LongitudeDegrees>2.78150648809969425201416015625</LongitudeDegrees>
            </Position>
            <AltitudeMeters>717.79998779296875</AltitudeMeters>
            <DistanceMeters>16293.302292592</DistanceMeters>
          </Trackpoint>
          <Trackpoint>
            <Time>2021-04-01T08:17:11.000Z</Time>
            <Position>
              <LatitudeDegrees>42.4152451939880847930908203125</LatitudeDegrees>
              <LongitudeDegrees>2.78150598518550395965576171875</LongitudeDegrees>
            </Position>
            <AltitudeMeters>717.79998779296875</AltitudeMeters>
            <DistanceMeters>16293.302292592</DistanceMeters>
          </Trackpoint>
          <Trackpoint>
            <Time>2021-04-01T08:17:13.000Z</Time>
            <Position>
              <LatitudeDegrees>42.41524594835937023162841796875</LatitudeDegrees>
              <LongitudeDegrees>2.7815045602619647979736328125</LongitudeDegrees>
            </Position>
            <AltitudeMeters>717.79998779296875</AltitudeMeters>
            <DistanceMeters>16293.492346021</DistanceMeters>
          </Trackpoint>
          <Trackpoint>
            <Time>2021-04-01T08:17:18.000Z</Time>
            <Position>
              <LatitudeDegrees>42.4152530729770660400390625</LatitudeDegrees>
              <LongitudeDegrees>2.7815028838813304901123046875</LongitudeDegrees>
            </Position>
            <AltitudeMeters>717.79998779296875</AltitudeMeters>
            <DistanceMeters>16294.293055349</DistanceMeters>
          </Trackpoint>
          <Trackpoint>
            <Time>2021-04-01T08:17:21.000Z</Time>
            <Position>
              <LatitudeDegrees>42.41526002995669841766357421875</LatitudeDegrees>
              <LongitudeDegrees>2.781502716243267059326171875</LongitudeDegrees>
            </Position>
            <AltitudeMeters>717.79998779296875</AltitudeMeters>
            <DistanceMeters>16295.065056026</DistanceMeters>
          </Trackpoint>
          <Trackpoint>
            <Time>2021-04-01T08:17:24.000Z</Time>
            <Position>
              <LatitudeDegrees>42.4152612872421741485595703125</LatitudeDegrees>
              <LongitudeDegrees>2.781502716243267059326171875</LongitudeDegrees>
            </Position>
            <AltitudeMeters>718</AltitudeMeters>
            <DistanceMeters>16295.229647123</DistanceMeters>
          </Trackpoint>
          <Trackpoint>
            <Time>2021-04-01T08:17:26.000Z</Time>
            <Position>
              <LatitudeDegrees>42.415261454880237579345703125</LatitudeDegrees>
              <LongitudeDegrees>2.781502716243267059326171875</LongitudeDegrees>
            </Position>
            <AltitudeMeters>718</AltitudeMeters>
            <DistanceMeters>16295.229647123</DistanceMeters>
          </Trackpoint>
          <Trackpoint>
            <Time>2021-04-01T08:17:40.000Z</Time>
            <Position>
              <LatitudeDegrees>42.41527377627789974212646484375</LatitudeDegrees>
              <LongitudeDegrees>2.7814968489110469818115234375</LongitudeDegrees>
            </Position>
            <AltitudeMeters>718</AltitudeMeters>
            <DistanceMeters>16296.683276336</DistanceMeters>
          </Trackpoint>
          <Trackpoint>
            <Time>2021-04-01T08:18:00.000Z</Time>
            <Position>
              <LatitudeDegrees>42.4152706749737262725830078125</LatitudeDegrees>
              <LongitudeDegrees>2.7814914844930171966552734375</LongitudeDegrees>
            </Position>
            <AltitudeMeters>717.5999755859375</AltitudeMeters>
            <DistanceMeters>16297.237372536</DistanceMeters>
          </Trackpoint>
          <Trackpoint>
            <Time>2021-04-01T08:18:10.000Z</Time>
            <Position>
              <LatitudeDegrees>42.41526774130761623382568359375</LatitudeDegrees>
              <LongitudeDegrees>2.78149039484560489654541015625</LongitudeDegrees>
            </Position>
            <AltitudeMeters>717.5999755859375</AltitudeMeters>
            <DistanceMeters>16297.579996227</DistanceMeters>
          </Trackpoint>
          <Trackpoint>
            <Time>2021-04-01T08:18:17.000Z</Time>
            <Position>
              <LatitudeDegrees>42.41525885649025440216064453125</LatitudeDegrees>
              <LongitudeDegrees>2.78149089775979518890380859375</LongitudeDegrees>
            </Position>
            <AltitudeMeters>717.5999755859375</AltitudeMeters>
            <DistanceMeters>16298.567542811</DistanceMeters>
          </Trackpoint>
          <Trackpoint>
            <Time>2021-04-01T08:18:30.000Z</Time>
            <Position>
              <LatitudeDegrees>42.4152428470551967620849609375</LatitudeDegrees>
              <LongitudeDegrees>2.7814851142466068267822265625</LongitudeDegrees>
            </Position>
            <AltitudeMeters>717.5999755859375</AltitudeMeters>
            <DistanceMeters>16300.410179168</DistanceMeters>
          </Trackpoint>
          <Trackpoint>
            <Time>2021-04-01T08:18:31.000Z</Time>
            <Position>
              <LatitudeDegrees>42.4152423441410064697265625</LatitudeDegrees>
              <LongitudeDegrees>2.7814844436943531036376953125</LongitudeDegrees>
            </Position>
            <AltitudeMeters>717.5999755859375</AltitudeMeters>
            <DistanceMeters>16300.544567236</DistanceMeters>
          </Trackpoint>
          <Trackpoint>
            <Time>2021-04-01T08:18:50.000Z</Time>
            <Position>
              <LatitudeDegrees>42.41520387120544910430908203125</LatitudeDegrees>
              <LongitudeDegrees>2.78146374039351940155029296875</LongitudeDegrees>
            </Position>
            <AltitudeMeters>717.5999755859375</AltitudeMeters>
            <DistanceMeters>16305.152138149</DistanceMeters>
          </Trackpoint>
          <Trackpoint>
            <Time>2021-04-01T08:18:58.000Z</Time>
            <Position>
              <LatitudeDegrees>42.4152073077857494354248046875</LatitudeDegrees>
              <LongitudeDegrees>2.781464159488677978515625</LongitudeDegrees>
            </Position>
            <AltitudeMeters>717.5999755859375</AltitudeMeters>
            <DistanceMeters>16305.532245007</DistanceMeters>
          </Trackpoint>
          <Trackpoint>
            <Time>2021-04-01T08:19:03.000Z</Time>
            <Position>
              <LatitudeDegrees>42.41521091200411319732666015625</LatitudeDegrees>
              <LongitudeDegrees>2.7814681828022003173828125</LongitudeDegrees>
            </Position>
            <AltitudeMeters>717.5999755859375</AltitudeMeters>
            <DistanceMeters>16306.052727757</DistanceMeters>
          </Trackpoint>
          <Trackpoint>
            <Time>2021-04-01T08:19:06.000Z</Time>
            <Position>
              <LatitudeDegrees>42.4152170307934284210205078125</LatitudeDegrees>
              <LongitudeDegrees>2.78147128410637378692626953125</LongitudeDegrees>
            </Position>
            <AltitudeMeters>717.5999755859375</AltitudeMeters>
            <DistanceMeters>16306.776429653</DistanceMeters>
          </Trackpoint>
          <Trackpoint>
            <Time>2021-04-01T08:19:17.000Z</Time>
            <Position>
              <LatitudeDegrees>42.41522298194468021392822265625</LatitudeDegrees>
              <LongitudeDegrees>2.78147530741989612579345703125</LongitudeDegrees>
            </Position>
            <AltitudeMeters>717.5999755859375</AltitudeMeters>
            <DistanceMeters>16307.512503417</DistanceMeters>
          </Trackpoint>
          <Trackpoint>
            <Time>2021-04-01T08:19:18.000Z</Time>
            <Position>
              <LatitudeDegrees>42.41522298194468021392822265625</LatitudeDegrees>
              <LongitudeDegrees>2.78147530741989612579345703125</LongitudeDegrees>
            </Position>
            <AltitudeMeters>717.5999755859375</AltitudeMeters>
            <DistanceMeters>16307.512503417</DistanceMeters>
          </Trackpoint>
          <Trackpoint>
            <Time>2021-04-01T08:19:22.000Z</Time>
            <Position>
              <LatitudeDegrees>42.415221892297267913818359375</LatitudeDegrees>
              <LongitudeDegrees>2.78147329576313495635986328125</LongitudeDegrees>
            </Position>
            <AltitudeMeters>717.5999755859375</AltitudeMeters>
            <DistanceMeters>16307.72498961</DistanceMeters>
          </Trackpoint>
          <Trackpoint>
            <Time>2021-04-01T08:19:25.000Z</Time>
            <Position>
              <LatitudeDegrees>42.4152128398418426513671875</LatitudeDegrees>
              <LongitudeDegrees>2.7814743854105472564697265625</LongitudeDegrees>
            </Position>
            <AltitudeMeters>717.5999755859375</AltitudeMeters>
            <DistanceMeters>16308.739597275</DistanceMeters>
          </Trackpoint>
          <Trackpoint>
            <Time>2021-04-01T08:19:29.000Z</Time>
            <Position>
              <LatitudeDegrees>42.4152002669870853424072265625</LatitudeDegrees>
              <LongitudeDegrees>2.7814750559628009796142578125</LongitudeDegrees>
            </Position>
            <AltitudeMeters>717.5999755859375</AltitudeMeters>
            <DistanceMeters>16310.142649899</DistanceMeters>
          </Trackpoint>
          <Trackpoint>
            <Time>2021-04-01T08:19:41.000Z</Time>
            <Position>
              <LatitudeDegrees>42.41518610157072544097900390625</LatitudeDegrees>
              <LongitudeDegrees>2.7814747206866741180419921875</LongitudeDegrees>
            </Position>
            <AltitudeMeters>717.5999755859375</AltitudeMeters>
            <DistanceMeters>16311.721352246</DistanceMeters>
          </Trackpoint>
          <Trackpoint>
            <Time>2021-04-01T08:19:46.000Z</Time>
            <Position>
              <LatitudeDegrees>42.41518325172364711761474609375</LatitudeDegrees>
              <LongitudeDegrees>2.78147446922957897186279296875</LongitudeDegrees>
            </Position>
            <AltitudeMeters>717.5999755859375</AltitudeMeters>
            <DistanceMeters>16312.05053444</DistanceMeters>
          </Trackpoint>
          <Trackpoint>
            <Time>2021-04-01T08:19:49.000Z</Time>
            <Position>
              <LatitudeDegrees>42.41518132388591766357421875</LatitudeDegrees>
              <LongitudeDegrees>2.7814762294292449951171875</LongitudeDegrees>
            </Position>
            <AltitudeMeters>717.5999755859375</AltitudeMeters>
            <DistanceMeters>16312.301951494</DistanceMeters>
          </Trackpoint>
          <Trackpoint>
            <Time>2021-04-01T08:19:53.000Z</Time>
            <Position>
              <LatitudeDegrees>42.4151328764855861663818359375</LatitudeDegrees>
              <LongitudeDegrees>2.78150296770036220550537109375</LongitudeDegrees>
            </Position>
            <AltitudeMeters>717.5999755859375</AltitudeMeters>
            <DistanceMeters>16318.125003705</DistanceMeters>
          </Trackpoint>
          <Trackpoint>
            <Time>2021-04-01T08:19:55.000Z</Time>
            <Position>
              <LatitudeDegrees>42.415100522339344024658203125</LatitudeDegrees>
              <LongitudeDegrees>2.781530208885669708251953125</LongitudeDegrees>
            </Position>
            <AltitudeMeters>717.5999755859375</AltitudeMeters>
            <DistanceMeters>16322.366219601</DistanceMeters>
          </Trackpoint>
          <Trackpoint>
            <Time>2021-04-01T08:19:57.000Z</Time>
            <Position>
              <LatitudeDegrees>42.41507646627724170684814453125</LatitudeDegrees>
              <LongitudeDegrees>2.781561724841594696044921875</LongitudeDegrees>
            </Position>
            <AltitudeMeters>717.5999755859375</AltitudeMeters>
            <DistanceMeters>16326.092914862</DistanceMeters>
          </Trackpoint>
          <Trackpoint>
            <Time>2021-04-01T08:20:00.000Z</Time>
            <Position>
              <LatitudeDegrees>42.4150346405804157257080078125</LatitudeDegrees>
              <LongitudeDegrees>2.781575806438922882080078125</LongitudeDegrees>
            </Position>
            <AltitudeMeters>717.5999755859375</AltitudeMeters>
            <DistanceMeters>16330.889646539</DistanceMeters>
          </Trackpoint>
          <Trackpoint>
            <Time>2021-04-01T08:20:02.000Z</Time>
            <Position>
              <LatitudeDegrees>42.41502164863049983978271484375</LatitudeDegrees>
              <LongitudeDegrees>2.78156633488833904266357421875</LongitudeDegrees>
            </Position>
            <AltitudeMeters>717.5999755859375</AltitudeMeters>
            <DistanceMeters>16332.532812038</DistanceMeters>
          </Trackpoint>
          <Trackpoint>
            <Time>2021-04-01T08:20:05.000Z</Time>
            <Position>
              <LatitudeDegrees>42.41500253789126873016357421875</LatitudeDegrees>
              <LongitudeDegrees>2.78153900988399982452392578125</LongitudeDegrees>
            </Position>
            <AltitudeMeters>717.4000244140625</AltitudeMeters>
            <DistanceMeters>16335.626657708</DistanceMeters>
          </Trackpoint>
          <Trackpoint>
            <Time>2021-04-01T08:20:11.000Z</Time>
            <Position>
              <LatitudeDegrees>42.41497068665921688079833984375</LatitudeDegrees>
              <LongitudeDegrees>2.7815119363367557525634765625</LongitudeDegrees>
            </Position>
            <AltitudeMeters>717.20001220703125</AltitudeMeters>
            <DistanceMeters>16339.812150308</DistanceMeters>
          </Trackpoint>
          <Trackpoint>
            <Time>2021-04-01T08:20:15.000Z</Time>
            <Position>
              <LatitudeDegrees>42.41494436748325824737548828125</LatitudeDegrees>
              <LongitudeDegrees>2.78150506317615509033203125</LongitudeDegrees>
            </Position>
            <AltitudeMeters>717.20001220703125</AltitudeMeters>
            <DistanceMeters>16342.794536147</DistanceMeters>
          </Trackpoint>
          <Trackpoint>
            <Time>2021-04-01T08:20:19.000Z</Time>
            <Position>
              <LatitudeDegrees>42.4149124324321746826171875</LatitudeDegrees>
              <LongitudeDegrees>2.781507074832916259765625</LongitudeDegrees>
            </Position>
            <AltitudeMeters>717.20001220703125</AltitudeMeters>
            <DistanceMeters>16346.352649014</DistanceMeters>
          </Trackpoint>
          <Trackpoint>
            <Time>2021-04-01T08:20:21.000Z</Time>
            <Position>
              <LatitudeDegrees>42.41489323787391185760498046875</LatitudeDegrees>
              <LongitudeDegrees>2.78150330297648906707763671875</LongitudeDegrees>
            </Position>
            <AltitudeMeters>717</AltitudeMeters>
            <DistanceMeters>16348.51124102</DistanceMeters>
          </Trackpoint>
          <Trackpoint>
            <Time>2021-04-01T08:20:23.000Z</Time>
            <Position>
              <LatitudeDegrees>42.4148737080395221710205078125</LatitudeDegrees>
              <LongitudeDegrees>2.78148570097982883453369140625</LongitudeDegrees>
            </Position>
            <AltitudeMeters>716.79998779296875</AltitudeMeters>
            <DistanceMeters>16351.120585313</DistanceMeters>
          </Trackpoint>
          <Trackpoint>
            <Time>2021-04-01T08:20:26.000Z</Time>
            <Position>
              <LatitudeDegrees>42.41485820151865482330322265625</LatitudeDegrees>
              <LongitudeDegrees>2.78145820833742618560791015625</LongitudeDegrees>
            </Position>
            <AltitudeMeters>716.5999755859375</AltitudeMeters>
            <DistanceMeters>16353.963456822</DistanceMeters>
          </Trackpoint>
          <Trackpoint>
            <Time>2021-04-01T08:20:27.000Z</Time>
            <Position>
              <LatitudeDegrees>42.41485518403351306915283203125</LatitudeDegrees>
              <LongitudeDegrees>2.78144815005362033843994140625</LongitudeDegrees>
            </Position>
            <AltitudeMeters>716.5999755859375</AltitudeMeters>
            <DistanceMeters>16354.854886419</DistanceMeters>
          </Trackpoint>
          <Trackpoint>
            <Time>2021-04-01T08:20:31.000Z</Time>
            <Position>
              <LatitudeDegrees>42.41483791731297969818115234375</LatitudeDegrees>
              <LongitudeDegrees>2.78141118586063385009765625</LongitudeDegrees>
            </Position>
            <AltitudeMeters>716.5999755859375</AltitudeMeters>
            <DistanceMeters>16358.448354008</DistanceMeters>
          </Trackpoint>
          <Trackpoint>
            <Time>2021-04-01T08:20:36.000Z</Time>
            <Position>
              <LatitudeDegrees>42.414816878736019134521484375</LatitudeDegrees>
              <LongitudeDegrees>2.7813657559454441070556640625</LongitudeDegrees>
            </Position>
            <AltitudeMeters>716.5999755859375</AltitudeMeters>
            <DistanceMeters>16362.854561488</DistanceMeters>
          </Trackpoint>
          <Trackpoint>
            <Time>2021-04-01T08:20:38.000Z</Time>
            <Position>
              <LatitudeDegrees>42.4148046411573886871337890625</LatitudeDegrees>
              <LongitudeDegrees>2.78134907595813274383544921875</LongitudeDegrees>
            </Position>
            <AltitudeMeters>716.5999755859375</AltitudeMeters>
            <DistanceMeters>16364.78806909</DistanceMeters>
          </Trackpoint>
          <Trackpoint>
            <Time>2021-04-01T08:20:42.000Z</Time>
            <Position>
              <LatitudeDegrees>42.41477823816239833831787109375</LatitudeDegrees>
              <LongitudeDegrees>2.7813245169818401336669921875</LongitudeDegrees>
            </Position>
            <AltitudeMeters>717</AltitudeMeters>
            <DistanceMeters>16368.35378748</DistanceMeters>
          </Trackpoint>
          <Trackpoint>
            <Time>2021-04-01T08:20:43.000Z</Time>
            <Position>
              <LatitudeDegrees>42.41477362811565399169921875</LatitudeDegrees>
              <LongitudeDegrees>2.78131957165896892547607421875</LongitudeDegrees>
            </Position>
            <AltitudeMeters>717</AltitudeMeters>
            <DistanceMeters>16369.012151869</DistanceMeters>
          </Trackpoint>
          <Trackpoint>
            <Time>2021-04-01T08:20:49.000Z</Time>
            <Position>
              <LatitudeDegrees>42.41475141607224941253662109375</LatitudeDegrees>
              <LongitudeDegrees>2.7812742255628108978271484375</LongitudeDegrees>
            </Position>
            <AltitudeMeters>717.20001220703125</AltitudeMeters>
            <DistanceMeters>16373.4834592</DistanceMeters>
          </Trackpoint>
          <Trackpoint>
            <Time>2021-04-01T08:20:50.000Z</Time>
            <Position>
              <LatitudeDegrees>42.41474437527358531951904296875</LatitudeDegrees>
              <LongitudeDegrees>2.78126676566898822784423828125</LongitudeDegrees>
            </Position>
            <AltitudeMeters>717.20001220703125</AltitudeMeters>
            <DistanceMeters>16374.471005784</DistanceMeters>
          </Trackpoint>
          <Trackpoint>
            <Time>2021-04-01T08:20:55.000Z</Time>
            <Position>
              <LatitudeDegrees>42.414706237614154815673828125</LatitudeDegrees>
              <LongitudeDegrees>2.78122100047767162322998046875</LongitudeDegrees>
            </Position>
            <AltitudeMeters>717.4000244140625</AltitudeMeters>
            <DistanceMeters>16380.141640865</DistanceMeters>
          </Trackpoint>
          <Trackpoint>
            <Time>2021-04-01T08:20:56.000Z</Time>
            <Position>
              <LatitudeDegrees>42.4147064052522182464599609375</LatitudeDegrees>
              <LongitudeDegrees>2.78121429495513439178466796875</LongitudeDegrees>
            </Position>
            <AltitudeMeters>717.4000244140625</AltitudeMeters>
            <DistanceMeters>16380.695737065</DistanceMeters>
          </Trackpoint>
          <Trackpoint>
            <Time>2021-04-01T08:20:59.000Z</Time>
            <Position>
              <LatitudeDegrees>42.41469559259712696075439453125</LatitudeDegrees>
              <LongitudeDegrees>2.78119032271206378936767578125</LongitudeDegrees>
            </Position>
            <AltitudeMeters>717.79998779296875</AltitudeMeters>
            <DistanceMeters>16383.003927937</DistanceMeters>
          </Trackpoint>
          <Trackpoint>
            <Time>2021-04-01T08:21:03.000Z</Time>
            <Position>
              <LatitudeDegrees>42.41467748768627643585205078125</LatitudeDegrees>
              <LongitudeDegrees>2.78116316534578800201416015625</LongitudeDegrees>
            </Position>
            <AltitudeMeters>718.20001220703125</AltitudeMeters>
            <DistanceMeters>16386.011940004</DistanceMeters>
          </Trackpoint>
          <Trackpoint>
            <Time>2021-04-01T08:21:10.000Z</Time>
            <Position>
              <LatitudeDegrees>42.414657287299633026123046875</LatitudeDegrees>
              <LongitudeDegrees>2.7811045758426189422607421875</LongitudeDegrees>
            </Position>
            <AltitudeMeters>718.4000244140625</AltitudeMeters>
            <DistanceMeters>16391.325794447</DistanceMeters>
          </Trackpoint>
          <Trackpoint>
            <Time>2021-04-01T08:21:11.000Z</Time>
            <Position>
              <LatitudeDegrees>42.4146530963480472564697265625</LatitudeDegrees>
              <LongitudeDegrees>2.78109577484428882598876953125</LongitudeDegrees>
            </Position>
            <AltitudeMeters>718.5999755859375</AltitudeMeters>
            <DistanceMeters>16392.186297944</DistanceMeters>
          </Trackpoint>
          <Trackpoint>
            <Time>2021-04-01T08:21:12.000Z</Time>
            <Position>
              <LatitudeDegrees>42.41464781574904918670654296875</LatitudeDegrees>
              <LongitudeDegrees>2.78108839876949787139892578125</LongitudeDegrees>
            </Position>
            <AltitudeMeters>718.5999755859375</AltitudeMeters>
            <DistanceMeters>16393.025551161</DistanceMeters>
          </Trackpoint>
          <Trackpoint>
            <Time>2021-04-01T08:21:17.000Z</Time>
            <Position>
              <LatitudeDegrees>42.4146252684295177459716796875</LatitudeDegrees>
              <LongitudeDegrees>2.7810765802860260009765625</LongitudeDegrees>
            </Position>
            <AltitudeMeters>719</AltitudeMeters>
            <DistanceMeters>16395.716670131</DistanceMeters>
          </Trackpoint>
          <Trackpoint>
            <Time>2021-04-01T08:21:18.000Z</Time>
            <Position>
              <LatitudeDegrees>42.41461881436407566070556640625</LatitudeDegrees>
              <LongitudeDegrees>2.78107062913477420806884765625</LongitudeDegrees>
            </Position>
            <AltitudeMeters>719</AltitudeMeters>
            <DistanceMeters>16396.587604354</DistanceMeters>
          </Trackpoint>
          <Trackpoint>
            <Time>2021-04-01T08:21:19.000Z</Time>
            <Position>
              <LatitudeDegrees>42.41461143828928470611572265625</LatitudeDegrees>
              <LongitudeDegrees>2.7810631692409515380859375</LongitudeDegrees>
            </Position>
            <AltitudeMeters>719</AltitudeMeters>
            <DistanceMeters>16397.61107339</DistanceMeters>
          </Trackpoint>
          <Trackpoint>
            <Time>2021-04-01T08:21:23.000Z</Time>
            <Position>
              <LatitudeDegrees>42.41458847187459468841552734375</LatitudeDegrees>
              <LongitudeDegrees>2.78104640543460845947265625</LongitudeDegrees>
            </Position>
            <AltitudeMeters>719</AltitudeMeters>
            <DistanceMeters>16400.513669008</DistanceMeters>
          </Trackpoint>
          <Trackpoint>
            <Time>2021-04-01T08:21:24.000Z</Time>
            <Position>
              <LatitudeDegrees>42.41458117961883544921875</LatitudeDegrees>
              <LongitudeDegrees>2.7810432203114032745361328125</LongitudeDegrees>
            </Position>
            <AltitudeMeters>719.20001220703125</AltitudeMeters>
            <DistanceMeters>16401.36361378</DistanceMeters>
          </Trackpoint>
          <Trackpoint>
            <Time>2021-04-01T08:21:25.000Z</Time>
            <Position>
              <LatitudeDegrees>42.41457514464855194091796875</LatitudeDegrees>
              <LongitudeDegrees>2.781036011874675750732421875</LongitudeDegrees>
            </Position>
            <AltitudeMeters>719.4000244140625</AltitudeMeters>
            <DistanceMeters>16402.255043378</DistanceMeters>
          </Trackpoint>
          <Trackpoint>
            <Time>2021-04-01T08:21:27.000Z</Time>
            <Position>
              <LatitudeDegrees>42.41456416435539722442626953125</LatitudeDegrees>
              <LongitudeDegrees>2.78102905489504337310791015625</LongitudeDegrees>
            </Position>
            <AltitudeMeters>719.5999755859375</AltitudeMeters>
            <DistanceMeters>16403.605626749</DistanceMeters>
          </Trackpoint>
          <Trackpoint>
            <Time>2021-04-01T08:21:28.000Z</Time>
            <Position>
              <LatitudeDegrees>42.4145562015473842620849609375</LatitudeDegrees>
              <LongitudeDegrees>2.78102637268602848052978515625</LongitudeDegrees>
            </Position>
            <AltitudeMeters>719.79998779296875</AltitudeMeters>
            <DistanceMeters>16404.517090973</DistanceMeters>
          </Trackpoint>
          <Trackpoint>
            <Time>2021-04-01T08:21:32.000Z</Time>
            <Position>
              <LatitudeDegrees>42.41453222930431365966796875</LatitudeDegrees>
              <LongitudeDegrees>2.7810194157063961029052734375</LongitudeDegrees>
            </Position>
            <AltitudeMeters>720</AltitudeMeters>
            <DistanceMeters>16407.244870838</DistanceMeters>
          </Trackpoint>
          <Trackpoint>
            <Time>2021-04-01T08:21:33.000Z</Time>
            <Position>
              <LatitudeDegrees>42.4145280383527278900146484375</LatitudeDegrees>
              <LongitudeDegrees>2.781013213098049163818359375</LongitudeDegrees>
            </Position>
            <AltitudeMeters>720.20001220703125</AltitudeMeters>
            <DistanceMeters>16407.93011822</DistanceMeters>
          </Trackpoint>
          <Trackpoint>
            <Time>2021-04-01T08:21:34.000Z</Time>
            <Position>
              <LatitudeDegrees>42.4145260266959667205810546875</LatitudeDegrees>
              <LongitudeDegrees>2.78100608848035335540771484375</LongitudeDegrees>
            </Position>
            <AltitudeMeters>720.20001220703125</AltitudeMeters>
            <DistanceMeters>16408.553250058</DistanceMeters>
          </Trackpoint>
          <Trackpoint>
            <Time>2021-04-01T08:21:35.000Z</Time>
            <Position>
              <LatitudeDegrees>42.4145208299160003662109375</LatitudeDegrees>
              <LongitudeDegrees>2.78100038878619670867919921875</LongitudeDegrees>
            </Position>
            <AltitudeMeters>720.4000244140625</AltitudeMeters>
            <DistanceMeters>16409.301491155</DistanceMeters>
          </Trackpoint>
          <Trackpoint>
            <Time>2021-04-01T08:21:40.000Z</Time>
            <Position>
              <LatitudeDegrees>42.414490319788455963134765625</LatitudeDegrees>
              <LongitudeDegrees>2.78098513372242450714111328125</LongitudeDegrees>
            </Position>
            <AltitudeMeters>720.4000244140625</AltitudeMeters>
            <DistanceMeters>16412.922495297</DistanceMeters>
          </Trackpoint>
          <Trackpoint>
            <Time>2021-04-01T08:21:47.000Z</Time>
            <Position>
              <LatitudeDegrees>42.41444430314004421234130859375</LatitudeDegrees>
              <LongitudeDegrees>2.78091958723962306976318359375</LongitudeDegrees>
            </Position>
            <AltitudeMeters>721</AltitudeMeters>
            <DistanceMeters>16420.35586854</DistanceMeters>
          </Trackpoint>
          <Trackpoint>
            <Time>2021-04-01T08:21:52.000Z</Time>
            <Position>
              <LatitudeDegrees>42.41440809331834316253662109375</LatitudeDegrees>
              <LongitudeDegrees>2.78088186867535114288330078125</LongitudeDegrees>
            </Position>
            <AltitudeMeters>721.4000244140625</AltitudeMeters>
            <DistanceMeters>16425.439575728</DistanceMeters>
          </Trackpoint>
          <Trackpoint>
            <Time>2021-04-01T08:21:55.000Z</Time>
            <Position>
              <LatitudeDegrees>42.414392419159412384033203125</LatitudeDegrees>
              <LongitudeDegrees>2.78085571713745594024658203125</LongitudeDegrees>
            </Position>
            <AltitudeMeters>721.5999755859375</AltitudeMeters>
            <DistanceMeters>16428.206795421</DistanceMeters>
          </Trackpoint>
          <Trackpoint>
            <Time>2021-04-01T08:22:01.000Z</Time>
            <Position>
              <LatitudeDegrees>42.41435914300382137298583984375</LatitudeDegrees>
              <LongitudeDegrees>2.780838198959827423095703125</LongitudeDegrees>
            </Position>
            <AltitudeMeters>722.20001220703125</AltitudeMeters>
            <DistanceMeters>16432.179775867</DistanceMeters>
          </Trackpoint>
          <Trackpoint>
            <Time>2021-04-01T08:22:02.000Z</Time>
            <Position>
              <LatitudeDegrees>42.41435377858579158782958984375</LatitudeDegrees>
              <LongitudeDegrees>2.7808351814746856689453125</LongitudeDegrees>
            </Position>
            <AltitudeMeters>722.4000244140625</AltitudeMeters>
            <DistanceMeters>16432.824278401</DistanceMeters>
          </Trackpoint>
          <Trackpoint>
            <Time>2021-04-01T08:22:06.000Z</Time>
            <Position>
              <LatitudeDegrees>42.4143298901617527008056640625</LatitudeDegrees>
              <LongitudeDegrees>2.78082151897251605987548828125</LongitudeDegrees>
            </Position>
            <AltitudeMeters>723</AltitudeMeters>
            <DistanceMeters>16435.712840436</DistanceMeters>
          </Trackpoint>
          <Trackpoint>
            <Time>2021-04-01T08:22:10.000Z</Time>
            <Position>
              <LatitudeDegrees>42.41430155932903289794921875</LatitudeDegrees>
              <LongitudeDegrees>2.78079620562493801116943359375</LongitudeDegrees>
            </Position>
            <AltitudeMeters>723</AltitudeMeters>
            <DistanceMeters>16439.490077625</DistanceMeters>
          </Trackpoint>
          <Trackpoint>
            <Time>2021-04-01T08:22:11.000Z</Time>
            <Position>
              <LatitudeDegrees>42.41429326124489307403564453125</LatitudeDegrees>
              <LongitudeDegrees>2.78079084120690822601318359375</LongitudeDegrees>
            </Position>
            <AltitudeMeters>723</AltitudeMeters>
            <DistanceMeters>16440.513546661</DistanceMeters>
          </Trackpoint>
          <Trackpoint>
            <Time>2021-04-01T08:22:16.000Z</Time>
            <Position>
              <LatitudeDegrees>42.41425998508930206298828125</LatitudeDegrees>
              <LongitudeDegrees>2.780754379928112030029296875</LongitudeDegrees>
            </Position>
            <AltitudeMeters>723</AltitudeMeters>
            <DistanceMeters>16445.278167546</DistanceMeters>
          </Trackpoint>
          <Trackpoint>
            <Time>2021-04-01T08:22:19.000Z</Time>
            <Position>
              <LatitudeDegrees>42.4142403714358806610107421875</LatitudeDegrees>
              <LongitudeDegrees>2.7807391248643398284912109375</LongitudeDegrees>
            </Position>
            <AltitudeMeters>723.4000244140625</AltitudeMeters>
            <DistanceMeters>16447.795927198</DistanceMeters>
          </Trackpoint>
          <Trackpoint>
            <Time>2021-04-01T08:22:24.000Z</Time>
            <Position>
              <LatitudeDegrees>42.41421178914606571197509765625</LatitudeDegrees>
              <LongitudeDegrees>2.78071272186934947967529296875</LongitudeDegrees>
            </Position>
            <AltitudeMeters>723.79998779296875</AltitudeMeters>
            <DistanceMeters>16451.646561629</DistanceMeters>
          </Trackpoint>
          <Trackpoint>
            <Time>2021-04-01T08:22:29.000Z</Time>
            <Position>
              <LatitudeDegrees>42.4141560494899749755859375</LatitudeDegrees>
              <LongitudeDegrees>2.78070517815649509429931640625</LongitudeDegrees>
            </Position>
            <AltitudeMeters>724.5999755859375</AltitudeMeters>
            <DistanceMeters>16457.882225921</DistanceMeters>
          </Trackpoint>
          <Trackpoint>
            <Time>2021-04-01T08:22:31.000Z</Time>
            <Position>
              <LatitudeDegrees>42.4141602404415607452392578125</LatitudeDegrees>
              <LongitudeDegrees>2.78070132248103618621826171875</LongitudeDegrees>
            </Position>
            <AltitudeMeters>724.79998779296875</AltitudeMeters>
            <DistanceMeters>16458.444411545</DistanceMeters>
          </Trackpoint>
          <Trackpoint>
            <Time>2021-04-01T08:22:35.000Z</Time>
            <Position>
              <LatitudeDegrees>42.4141384474933147430419921875</LatitudeDegrees>
              <LongitudeDegrees>2.78070299886167049407958984375</LongitudeDegrees>
            </Position>
            <AltitudeMeters>725.20001220703125</AltitudeMeters>
            <DistanceMeters>16460.874569975</DistanceMeters>
          </Trackpoint>
          <Trackpoint>
            <Time>2021-04-01T08:22:37.000Z</Time>
            <Position>
              <LatitudeDegrees>42.41413165815174579620361328125</LatitudeDegrees>
              <LongitudeDegrees>2.78069914318621158599853515625</LongitudeDegrees>
            </Position>
            <AltitudeMeters>725.4000244140625</AltitudeMeters>
            <DistanceMeters>16461.692020681</DistanceMeters>
          </Trackpoint>
          <Trackpoint>
            <Time>2021-04-01T08:22:40.000Z</Time>
            <Position>
              <LatitudeDegrees>42.4141076020896434783935546875</LatitudeDegrees>
              <LongitudeDegrees>2.78070316649973392486572265625</LongitudeDegrees>
            </Position>
            <AltitudeMeters>725.79998779296875</AltitudeMeters>
            <DistanceMeters>16464.389842324</DistanceMeters>
          </Trackpoint>
          <Trackpoint>
            <Time>2021-04-01T08:22:45.000Z</Time>
            <Position>
              <LatitudeDegrees>42.41406057961285114288330078125</LatitudeDegrees>
              <LongitudeDegrees>2.78069361113011837005615234375</LongitudeDegrees>
            </Position>
            <AltitudeMeters>726.4000244140625</AltitudeMeters>
            <DistanceMeters>16469.681559158</DistanceMeters>
          </Trackpoint>
          <Trackpoint>
            <Time>2021-04-01T08:22:49.000Z</Time>
            <Position>
              <LatitudeDegrees>42.41401749663054943084716796875</LatitudeDegrees>
              <LongitudeDegrees>2.7806998975574970245361328125</LongitudeDegrees>
            </Position>
            <AltitudeMeters>726.79998779296875</AltitudeMeters>
            <DistanceMeters>16474.50270184</DistanceMeters>
          </Trackpoint>
          <Trackpoint>
            <Time>2021-04-01T08:22:51.000Z</Time>
            <Position>
              <LatitudeDegrees>42.414009869098663330078125</LatitudeDegrees>
              <LongitudeDegrees>2.78070316649973392486572265625</LongitudeDegrees>
            </Position>
            <AltitudeMeters>727</AltitudeMeters>
            <DistanceMeters>16475.394131438</DistanceMeters>
          </Trackpoint>
          <Trackpoint>
            <Time>2021-04-01T08:22:53.000Z</Time>
            <Position>
              <LatitudeDegrees>42.4139983020722866058349609375</LatitudeDegrees>
              <LongitudeDegrees>2.78071523644030094146728515625</LongitudeDegrees>
            </Position>
            <AltitudeMeters>727.20001220703125</AltitudeMeters>
            <DistanceMeters>16477.020726777</DistanceMeters>
          </Trackpoint>
          <Trackpoint>
            <Time>2021-04-01T08:22:57.000Z</Time>
            <Position>
              <LatitudeDegrees>42.4139711447060108184814453125</LatitudeDegrees>
              <LongitudeDegrees>2.78072445653378963470458984375</LongitudeDegrees>
            </Position>
            <AltitudeMeters>727.4000244140625</AltitudeMeters>
            <DistanceMeters>16480.139282906</DistanceMeters>
          </Trackpoint>
          <Trackpoint>
            <Time>2021-04-01T08:22:59.000Z</Time>
            <Position>
              <LatitudeDegrees>42.41396485827863216400146484375</LatitudeDegrees>
              <LongitudeDegrees>2.78072646819055080413818359375</LongitudeDegrees>
            </Position>
            <AltitudeMeters>727.5999755859375</AltitudeMeters>
            <DistanceMeters>16480.862984802</DistanceMeters>
          </Trackpoint>
          <Trackpoint>
            <Time>2021-04-01T08:23:03.000Z</Time>
            <Position>
              <LatitudeDegrees>42.41395899094641208648681640625</LatitudeDegrees>
              <LongitudeDegrees>2.78072730638086795806884765625</LongitudeDegrees>
            </Position>
            <AltitudeMeters>727.79998779296875</AltitudeMeters>
            <DistanceMeters>16481.521349191</DistanceMeters>
          </Trackpoint>
          <Trackpoint>
            <Time>2021-04-01T08:23:04.000Z</Time>
            <Position>
              <LatitudeDegrees>42.4139550514519214630126953125</LatitudeDegrees>
              <LongitudeDegrees>2.78072990477085113525390625</LongitudeDegrees>
            </Position>
            <AltitudeMeters>727.79998779296875</AltitudeMeters>
            <DistanceMeters>16482.005892262</DistanceMeters>
          </Trackpoint>
          <Trackpoint>
            <Time>2021-04-01T08:23:08.000Z</Time>
            <Position>
              <LatitudeDegrees>42.41393082775175571441650390625</LatitudeDegrees>
              <LongitudeDegrees>2.7807283960282802581787109375</LongitudeDegrees>
            </Position>
            <AltitudeMeters>728.5999755859375</AltitudeMeters>
            <DistanceMeters>16484.703713904</DistanceMeters>
          </Trackpoint>
          <Trackpoint>
            <Time>2021-04-01T08:23:11.000Z</Time>
            <Position>
              <LatitudeDegrees>42.41390869952738285064697265625</LatitudeDegrees>
              <LongitudeDegrees>2.78072009794414043426513671875</LongitudeDegrees>
            </Position>
            <AltitudeMeters>728.79998779296875</AltitudeMeters>
            <DistanceMeters>16487.257087201</DistanceMeters>
          </Trackpoint>
          <Trackpoint>
            <Time>2021-04-01T08:23:17.000Z</Time>
            <Position>
              <LatitudeDegrees>42.413853965699672698974609375</LatitudeDegrees>
              <LongitudeDegrees>2.78073526918888092041015625</LongitudeDegrees>
            </Position>
            <AltitudeMeters>729.20001220703125</AltitudeMeters>
            <DistanceMeters>16493.47462347</DistanceMeters>
          </Trackpoint>
          <Trackpoint>
            <Time>2021-04-01T08:23:22.000Z</Time>
            <Position>
              <LatitudeDegrees>42.4138048477470874786376953125</LatitudeDegrees>
              <LongitudeDegrees>2.78074624948203563690185546875</LongitudeDegrees>
            </Position>
            <AltitudeMeters>730</AltitudeMeters>
            <DistanceMeters>16499.014770565</DistanceMeters>
          </Trackpoint>
          <Trackpoint>
            <Time>2021-04-01T08:23:25.000Z</Time>
            <Position>
              <LatitudeDegrees>42.41378531791269779205322265625</LatitudeDegrees>
              <LongitudeDegrees>2.780761085450649261474609375</LongitudeDegrees>
            </Position>
            <AltitudeMeters>730.4000244140625</AltitudeMeters>
            <DistanceMeters>16501.507297916</DistanceMeters>
          </Trackpoint>
          <Trackpoint>
            <Time>2021-04-01T08:23:31.000Z</Time>
            <Position>
              <LatitudeDegrees>42.41373485885560512542724609375</LatitudeDegrees>
              <LongitudeDegrees>2.78076033107936382293701171875</LongitudeDegrees>
            </Position>
            <AltitudeMeters>731</AltitudeMeters>
            <DistanceMeters>16507.125137106</DistanceMeters>
          </Trackpoint>
          <Trackpoint>
            <Time>2021-04-01T08:23:33.000Z</Time>
            <Position>
              <LatitudeDegrees>42.41372848860919475555419921875</LatitudeDegrees>
              <LongitudeDegrees>2.78075731359422206878662109375</LongitudeDegrees>
            </Position>
            <AltitudeMeters>731</AltitudeMeters>
            <DistanceMeters>16507.873378204</DistanceMeters>
          </Trackpoint>
          <Trackpoint>
            <Time>2021-04-01T08:23:36.000Z</Time>
            <Position>
              <LatitudeDegrees>42.4137183465063571929931640625</LatitudeDegrees>
              <LongitudeDegrees>2.78076452203094959259033203125</LongitudeDegrees>
            </Position>
            <AltitudeMeters>731.20001220703125</AltitudeMeters>
            <DistanceMeters>16509.148295362</DistanceMeters>
          </Trackpoint>
          <Trackpoint>
            <Time>2021-04-01T08:23:37.000Z</Time>
            <Position>
              <LatitudeDegrees>42.4137129820883274078369140625</LatitudeDegrees>
              <LongitudeDegrees>2.7807681262493133544921875</LongitudeDegrees>
            </Position>
            <AltitudeMeters>731.20001220703125</AltitudeMeters>
            <DistanceMeters>16509.813482362</DistanceMeters>
          </Trackpoint>
          <Trackpoint>
            <Time>2021-04-01T08:23:42.000Z</Time>
            <Position>
              <LatitudeDegrees>42.41367392241954803466796875</LatitudeDegrees>
              <LongitudeDegrees>2.78077508322894573211669921875</LongitudeDegrees>
            </Position>
            <AltitudeMeters>731.4000244140625</AltitudeMeters>
            <DistanceMeters>16514.19811835</DistanceMeters>
          </Trackpoint>
          <Trackpoint>
            <Time>2021-04-01T08:23:50.000Z</Time>
            <Position>
              <LatitudeDegrees>42.41359806619584560394287109375</LatitudeDegrees>
              <LongitudeDegrees>2.78081011958420276641845703125</LongitudeDegrees>
            </Position>
            <AltitudeMeters>732</AltitudeMeters>
            <DistanceMeters>16523.118490183</DistanceMeters>
          </Trackpoint>
          <Trackpoint>
            <Time>2021-04-01T08:23:51.000Z</Time>
            <Position>
              <LatitudeDegrees>42.41358968429267406463623046875</LatitudeDegrees>
              <LongitudeDegrees>2.78081498108804225921630859375</LongitudeDegrees>
            </Position>
            <AltitudeMeters>732</AltitudeMeters>
            <DistanceMeters>16524.133097848</DistanceMeters>
          </Trackpoint>
          <Trackpoint>
            <Time>2021-04-01T08:24:01.000Z</Time>
            <Position>
              <LatitudeDegrees>42.4135124869644641876220703125</LatitudeDegrees>
              <LongitudeDegrees>2.7808330021798610687255859375</LongitudeDegrees>
            </Position>
            <AltitudeMeters>732.5999755859375</AltitudeMeters>
            <DistanceMeters>16532.852284369</DistanceMeters>
          </Trackpoint>
          <Trackpoint>
            <Time>2021-04-01T08:24:07.000Z</Time>
            <Position>
              <LatitudeDegrees>42.4134801328182220458984375</LatitudeDegrees>
              <LongitudeDegrees>2.7808433957397937774658203125</LongitudeDegrees>
            </Position>
            <AltitudeMeters>733</AltitudeMeters>
            <DistanceMeters>16536.553449856</DistanceMeters>
          </Trackpoint>
          <Trackpoint>
            <Time>2021-04-01T08:24:08.000Z</Time>
            <Position>
              <LatitudeDegrees>42.41346579976379871368408203125</LatitudeDegrees>
              <LongitudeDegrees>2.78084130026400089263916015625</LongitudeDegrees>
            </Position>
            <AltitudeMeters>733.20001220703125</AltitudeMeters>
            <DistanceMeters>16538.160497417</DistanceMeters>
          </Trackpoint>
          <Trackpoint>
            <Time>2021-04-01T08:24:14.000Z</Time>
            <Position>
              <LatitudeDegrees>42.413409389555454254150390625</LatitudeDegrees>
              <LongitudeDegrees>2.780852951109409332275390625</LongitudeDegrees>
            </Position>
            <AltitudeMeters>733.4000244140625</AltitudeMeters>
            <DistanceMeters>16544.511666717</DistanceMeters>
          </Trackpoint>
          <Trackpoint>
            <Time>2021-04-01T08:24:18.000Z</Time>
            <Position>
              <LatitudeDegrees>42.41338198073208332061767578125</LatitudeDegrees>
              <LongitudeDegrees>2.7808715589344501495361328125</LongitudeDegrees>
            </Position>
            <AltitudeMeters>733.5999755859375</AltitudeMeters>
            <DistanceMeters>16547.924700355</DistanceMeters>
          </Trackpoint>
          <Trackpoint>
            <Time>2021-04-01T08:24:19.000Z</Time>
            <Position>
              <LatitudeDegrees>42.41337485611438751220703125</LatitudeDegrees>
              <LongitudeDegrees>2.7808785997331142425537109375</LongitudeDegrees>
            </Position>
            <AltitudeMeters>733.79998779296875</AltitudeMeters>
            <DistanceMeters>16548.903060259</DistanceMeters>
          </Trackpoint>
          <Trackpoint>
            <Time>2021-04-01T08:24:23.000Z</Time>
            <Position>
              <LatitudeDegrees>42.4133418314158916473388671875</LatitudeDegrees>
              <LongitudeDegrees>2.78089729137718677520751953125</LongitudeDegrees>
            </Position>
            <AltitudeMeters>734.20001220703125</AltitudeMeters>
            <DistanceMeters>16552.886255498</DistanceMeters>
          </Trackpoint>
          <Trackpoint>
            <Time>2021-04-01T08:24:24.000Z</Time>
            <Position>
              <LatitudeDegrees>42.41333235986530780792236328125</LatitudeDegrees>
              <LongitudeDegrees>2.78090181760489940643310546875</LongitudeDegrees>
            </Position>
            <AltitudeMeters>734.20001220703125</AltitudeMeters>
            <DistanceMeters>16554.002566633</DistanceMeters>
          </Trackpoint>
          <Trackpoint>
            <Time>2021-04-01T08:24:26.000Z</Time>
            <Position>
              <LatitudeDegrees>42.41331760771572589874267578125</LatitudeDegrees>
              <LongitudeDegrees>2.78091187588870525360107421875</LongitudeDegrees>
            </Position>
            <AltitudeMeters>734.4000244140625</AltitudeMeters>
            <DistanceMeters>16555.840295827</DistanceMeters>
          </Trackpoint>
          <Trackpoint>
            <Time>2021-04-01T08:24:31.000Z</Time>
            <Position>
              <LatitudeDegrees>42.4132855050265789031982421875</LatitudeDegrees>
              <LongitudeDegrees>2.7809205092489719390869140625</LongitudeDegrees>
            </Position>
            <AltitudeMeters>734.5999755859375</AltitudeMeters>
            <DistanceMeters>16559.483675079</DistanceMeters>
          </Trackpoint>
          <Trackpoint>
            <Time>2021-04-01T08:24:37.000Z</Time>
            <Position>
              <LatitudeDegrees>42.4132519774138927459716796875</LatitudeDegrees>
              <LongitudeDegrees>2.780943475663661956787109375</LongitudeDegrees>
            </Position>
            <AltitudeMeters>734.79998779296875</AltitudeMeters>
            <DistanceMeters>16563.667009651</DistanceMeters>
          </Trackpoint>
          <Trackpoint>
            <Time>2021-04-01T08:24:38.000Z</Time>
            <Position>
              <LatitudeDegrees>42.41324300877749919891357421875</LatitudeDegrees>
              <LongitudeDegrees>2.780949510633945465087890625</LongitudeDegrees>
            </Position>
            <AltitudeMeters>735</AltitudeMeters>
            <DistanceMeters>16564.779268827</DistanceMeters>
          </Trackpoint>
          <Trackpoint>
            <Time>2021-04-01T08:24:40.000Z</Time>
            <Position>
              <LatitudeDegrees>42.41322188638150691986083984375</LatitudeDegrees>
              <LongitudeDegrees>2.7809597365558147430419921875</LongitudeDegrees>
            </Position>
            <AltitudeMeters>735.20001220703125</AltitudeMeters>
            <DistanceMeters>16567.275416408</DistanceMeters>
          </Trackpoint>
          <Trackpoint>
            <Time>2021-04-01T08:24:44.000Z</Time>
            <Position>
              <LatitudeDegrees>42.4131892807781696319580078125</LatitudeDegrees>
              <LongitudeDegrees>2.7809708006680011749267578125</LongitudeDegrees>
            </Position>
            <AltitudeMeters>735.79998779296875</AltitudeMeters>
            <DistanceMeters>16571.016621894</DistanceMeters>
          </Trackpoint>
          <Trackpoint>
            <Time>2021-04-01T08:24:46.000Z</Time>
            <Position>
              <LatitudeDegrees>42.41316027939319610595703125</LatitudeDegrees>
              <LongitudeDegrees>2.78099468909204006195068359375</LongitudeDegrees>
            </Position>
            <AltitudeMeters>736</AltitudeMeters>
            <DistanceMeters>16574.795054222</DistanceMeters>
          </Trackpoint>
          <Trackpoint>
            <Time>2021-04-01T08:24:47.000Z</Time>
            <Position>
              <LatitudeDegrees>42.41315399296581745147705078125</LatitudeDegrees>
              <LongitudeDegrees>2.7810041606426239013671875</LongitudeDegrees>
            </Position>
            <AltitudeMeters>736</AltitudeMeters>
            <DistanceMeters>16575.844658588</DistanceMeters>
          </Trackpoint>
          <Trackpoint>
            <Time>2021-04-01T08:24:49.000Z</Time>
            <Position>
              <LatitudeDegrees>42.41314024664461612701416015625</LatitudeDegrees>
              <LongitudeDegrees>2.78102788142859935760498046875</LongitudeDegrees>
            </Position>
            <AltitudeMeters>736.20001220703125</AltitudeMeters>
            <DistanceMeters>16578.322652128</DistanceMeters>
          </Trackpoint>
          <Trackpoint>
            <Time>2021-04-01T08:24:50.000Z</Time>
            <Position>
              <LatitudeDegrees>42.4131322838366031646728515625</LatitudeDegrees>
              <LongitudeDegrees>2.78103475458920001983642578125</LongitudeDegrees>
            </Position>
            <AltitudeMeters>736.4000244140625</AltitudeMeters>
            <DistanceMeters>16579.372256494</DistanceMeters>
          </Trackpoint>
          <Trackpoint>
            <Time>2021-04-01T08:24:58.000Z</Time>
            <Position>
              <LatitudeDegrees>42.41306799463927745819091796875</LatitudeDegrees>
              <LongitudeDegrees>2.78107188642024993896484375</LongitudeDegrees>
            </Position>
            <AltitudeMeters>736.5999755859375</AltitudeMeters>
            <DistanceMeters>16587.150528293</DistanceMeters>
          </Trackpoint>
          <Trackpoint>
            <Time>2021-04-01T08:25:05.000Z</Time>
            <Position>
              <LatitudeDegrees>42.4130166135728359222412109375</LatitudeDegrees>
              <LongitudeDegrees>2.78108789585530757904052734375</LongitudeDegrees>
            </Position>
            <AltitudeMeters>737.20001220703125</AltitudeMeters>
            <DistanceMeters>16593.019149217</DistanceMeters>
          </Trackpoint>
          <Trackpoint>
            <Time>2021-04-01T08:25:06.000Z</Time>
            <Position>
              <LatitudeDegrees>42.4130102433264255523681640625</LatitudeDegrees>
              <LongitudeDegrees>2.7810864709317684173583984375</LongitudeDegrees>
            </Position>
            <AltitudeMeters>737.4000244140625</AltitudeMeters>
            <DistanceMeters>16593.742851113</DistanceMeters>
          </Trackpoint>
          <Trackpoint>
            <Time>2021-04-01T08:25:13.000Z</Time>
            <Position>
              <LatitudeDegrees>42.4129616282880306243896484375</LatitudeDegrees>
              <LongitudeDegrees>2.78109996579587459564208984375</LongitudeDegrees>
            </Position>
            <AltitudeMeters>737.79998779296875</AltitudeMeters>
            <DistanceMeters>16599.267492131</DistanceMeters>
          </Trackpoint>
          <Trackpoint>
            <Time>2021-04-01T08:25:19.000Z</Time>
            <Position>
              <LatitudeDegrees>42.41292432881891727447509765625</LatitudeDegrees>
              <LongitudeDegrees>2.78111706487834453582763671875</LongitudeDegrees>
            </Position>
            <AltitudeMeters>738.4000244140625</AltitudeMeters>
            <DistanceMeters>16603.651098258</DistanceMeters>
          </Trackpoint>
          <Trackpoint>
            <Time>2021-04-01T08:25:26.000Z</Time>
            <Position>
              <LatitudeDegrees>42.4128660745918750762939453125</LatitudeDegrees>
              <LongitudeDegrees>2.7810992114245891571044921875</LongitudeDegrees>
            </Position>
            <AltitudeMeters>739</AltitudeMeters>
            <DistanceMeters>16610.298894443</DistanceMeters>
          </Trackpoint>
          <Trackpoint>
            <Time>2021-04-01T08:25:28.000Z</Time>
            <Position>
              <LatitudeDegrees>42.41285475902259349822998046875</LatitudeDegrees>
              <LongitudeDegrees>2.7811007201671600341796875</LongitudeDegrees>
            </Position>
            <AltitudeMeters>739.20001220703125</AltitudeMeters>
            <DistanceMeters>16611.566708943</DistanceMeters>
          </Trackpoint>
          <Trackpoint>
            <Time>2021-04-01T08:25:29.000Z</Time>
            <Position>
              <LatitudeDegrees>42.4128439463675022125244140625</LatitudeDegrees>
              <LongitudeDegrees>2.78110264800488948822021484375</LongitudeDegrees>
            </Position>
            <AltitudeMeters>739.4000244140625</AltitudeMeters>
            <DistanceMeters>16612.783644659</DistanceMeters>
          </Trackpoint>
          <Trackpoint>
            <Time>2021-04-01T08:25:31.000Z</Time>
            <Position>
              <LatitudeDegrees>42.41282575763761997222900390625</LatitudeDegrees>
              <LongitudeDegrees>2.7810971997678279876708984375</LongitudeDegrees>
            </Position>
            <AltitudeMeters>739.5999755859375</AltitudeMeters>
            <DistanceMeters>16614.8568828</DistanceMeters>
          </Trackpoint>
          <Trackpoint>
            <Time>2021-04-01T08:25:33.000Z</Time>
            <Position>
              <LatitudeDegrees>42.41280891001224517822265625</LatitudeDegrees>
              <LongitudeDegrees>2.7810945175588130950927734375</LongitudeDegrees>
            </Position>
            <AltitudeMeters>739.79998779296875</AltitudeMeters>
            <DistanceMeters>16616.743109223</DistanceMeters>
          </Trackpoint>
          <Trackpoint>
            <Time>2021-04-01T08:25:35.000Z</Time>
            <Position>
              <LatitudeDegrees>42.412793152034282684326171875</LatitudeDegrees>
              <LongitudeDegrees>2.78108571656048297882080078125</LongitudeDegrees>
            </Position>
            <AltitudeMeters>740</AltitudeMeters>
            <DistanceMeters>16618.641266356</DistanceMeters>
          </Trackpoint>
          <Trackpoint>
            <Time>2021-04-01T08:25:36.000Z</Time>
            <Position>
              <LatitudeDegrees>42.4127869494259357452392578125</LatitudeDegrees>
              <LongitudeDegrees>2.78108655475080013275146484375</LongitudeDegrees>
            </Position>
            <AltitudeMeters>740</AltitudeMeters>
            <DistanceMeters>16619.339567242</DistanceMeters>
          </Trackpoint>
          <Trackpoint>
            <Time>2021-04-01T08:25:39.000Z</Time>
            <Position>
              <LatitudeDegrees>42.412767671048641204833984375</LatitudeDegrees>
              <LongitudeDegrees>2.78108336962759494781494140625</LongitudeDegrees>
            </Position>
            <AltitudeMeters>740.20001220703125</AltitudeMeters>
            <DistanceMeters>16621.502338519</DistanceMeters>
          </Trackpoint>
          <Trackpoint>
            <Time>2021-04-01T08:25:41.000Z</Time>
            <Position>
              <LatitudeDegrees>42.4127493984997272491455078125</LatitudeDegrees>
              <LongitudeDegrees>2.781081609427928924560546875</LongitudeDegrees>
            </Position>
            <AltitudeMeters>740.4000244140625</AltitudeMeters>
            <DistanceMeters>16623.540434485</DistanceMeters>
          </Trackpoint>
          <Trackpoint>
            <Time>2021-04-01T08:25:47.000Z</Time>
            <Position>
              <LatitudeDegrees>42.41271100938320159912109375</LatitudeDegrees>
              <LongitudeDegrees>2.7810831181704998016357421875</LongitudeDegrees>
            </Position>
            <AltitudeMeters>741</AltitudeMeters>
            <DistanceMeters>16627.815580649</DistanceMeters>
          </Trackpoint>
          <Trackpoint>
            <Time>2021-04-01T08:25:53.000Z</Time>
            <Position>
              <LatitudeDegrees>42.41266943514347076416015625</LatitudeDegrees>
              <LongitudeDegrees>2.7810733951628208160400390625</LongitudeDegrees>
            </Position>
            <AltitudeMeters>741.5999755859375</AltitudeMeters>
            <DistanceMeters>16632.51147744</DistanceMeters>
          </Trackpoint>
          <Trackpoint>
            <Time>2021-04-01T08:25:55.000Z</Time>
            <Position>
              <LatitudeDegrees>42.41265510208904743194580078125</LatitudeDegrees>
              <LongitudeDegrees>2.78106660582125186920166015625</LongitudeDegrees>
            </Position>
            <AltitudeMeters>741.5999755859375</AltitudeMeters>
            <DistanceMeters>16634.203379988</DistanceMeters>
          </Trackpoint>
          <Trackpoint>
            <Time>2021-04-01T08:25:56.000Z</Time>
            <Position>
              <LatitudeDegrees>42.41264957003295421600341796875</LatitudeDegrees>
              <LongitudeDegrees>2.7810643427073955535888671875</LongitudeDegrees>
            </Position>
            <AltitudeMeters>741.5999755859375</AltitudeMeters>
            <DistanceMeters>16634.85485032</DistanceMeters>
          </Trackpoint>
          <Trackpoint>
            <Time>2021-04-01T08:26:03.000Z</Time>
            <Position>
              <LatitudeDegrees>42.412602715194225311279296875</LatitudeDegrees>
              <LongitudeDegrees>2.781034000217914581298828125</LongitudeDegrees>
            </Position>
            <AltitudeMeters>742.5999755859375</AltitudeMeters>
            <DistanceMeters>16640.635099695</DistanceMeters>
          </Trackpoint>
          <Trackpoint>
            <Time>2021-04-01T08:26:06.000Z</Time>
            <Position>
              <LatitudeDegrees>42.41257899440824985504150390625</LatitudeDegrees>
              <LongitudeDegrees>2.781021595001220703125</LongitudeDegrees>
            </Position>
            <AltitudeMeters>742.79998779296875</AltitudeMeters>
            <DistanceMeters>16643.465237113</DistanceMeters>
          </Trackpoint>
          <Trackpoint>
            <Time>2021-04-01T08:26:14.000Z</Time>
            <Position>
              <LatitudeDegrees>42.41251579485833644866943359375</LatitudeDegrees>
              <LongitudeDegrees>2.7809907495975494384765625</LongitudeDegrees>
            </Position>
            <AltitudeMeters>743.4000244140625</AltitudeMeters>
            <DistanceMeters>16650.941611448</DistanceMeters>
          </Trackpoint>
          <Trackpoint>
            <Time>2021-04-01T08:26:15.000Z</Time>
            <Position>
              <LatitudeDegrees>42.4125120230019092559814453125</LatitudeDegrees>
              <LongitudeDegrees>2.7809925936162471771240234375</LongitudeDegrees>
            </Position>
            <AltitudeMeters>743.5999755859375</AltitudeMeters>
            <DistanceMeters>16651.387326247</DistanceMeters>
          </Trackpoint>
          <Trackpoint>
            <Time>2021-04-01T08:26:22.000Z</Time>
            <Position>
              <LatitudeDegrees>42.4124681018292903900146484375</LatitudeDegrees>
              <LongitudeDegrees>2.78097423724830150604248046875</LongitudeDegrees>
            </Position>
            <AltitudeMeters>744.4000244140625</AltitudeMeters>
            <DistanceMeters>16656.50290652</DistanceMeters>
          </Trackpoint>
          <Trackpoint>
            <Time>2021-04-01T08:26:24.000Z</Time>
            <Position>
              <LatitudeDegrees>42.412456534802913665771484375</LatitudeDegrees>
              <LongitudeDegrees>2.78096686117351055145263671875</LongitudeDegrees>
            </Position>
            <AltitudeMeters>744.79998779296875</AltitudeMeters>
            <DistanceMeters>16657.925136151</DistanceMeters>
          </Trackpoint>
          <Trackpoint>
            <Time>2021-04-01T08:26:33.000Z</Time>
            <Position>
              <LatitudeDegrees>42.4123986996710300445556640625</LatitudeDegrees>
              <LongitudeDegrees>2.78091631829738616943359375</LongitudeDegrees>
            </Position>
            <AltitudeMeters>745.20001220703125</AltitudeMeters>
            <DistanceMeters>16665.586434793</DistanceMeters>
          </Trackpoint>
          <Trackpoint>
            <Time>2021-04-01T08:26:36.000Z</Time>
            <Position>
              <LatitudeDegrees>42.41238176822662353515625</LatitudeDegrees>
              <LongitudeDegrees>2.780897207558155059814453125</LongitudeDegrees>
            </Position>
            <AltitudeMeters>745.4000244140625</AltitudeMeters>
            <DistanceMeters>16668.038786912</DistanceMeters>
          </Trackpoint>
          <Trackpoint>
            <Time>2021-04-01T08:26:38.000Z</Time>
            <Position>
              <LatitudeDegrees>42.4123728834092617034912109375</LatitudeDegrees>
              <LongitudeDegrees>2.78088136576116085052490234375</LongitudeDegrees>
            </Position>
            <AltitudeMeters>745.5999755859375</AltitudeMeters>
            <DistanceMeters>16669.673688324</DistanceMeters>
          </Trackpoint>
          <Trackpoint>
            <Time>2021-04-01T08:26:40.000Z</Time>
            <Position>
              <LatitudeDegrees>42.41236240603029727935791015625</LatitudeDegrees>
              <LongitudeDegrees>2.78086728416383266448974609375</LongitudeDegrees>
            </Position>
            <AltitudeMeters>745.79998779296875</AltitudeMeters>
            <DistanceMeters>16671.314103753</DistanceMeters>
          </Trackpoint>
          <Trackpoint>
            <Time>2021-04-01T08:26:45.000Z</Time>
            <Position>
              <LatitudeDegrees>42.4123294651508331298828125</LatitudeDegrees>
              <LongitudeDegrees>2.78084599412977695465087890625</LongitudeDegrees>
            </Position>
            <AltitudeMeters>746</AltitudeMeters>
            <DistanceMeters>16675.375870568</DistanceMeters>
          </Trackpoint>
          <Trackpoint>
            <Time>2021-04-01T08:26:46.000Z</Time>
            <Position>
              <LatitudeDegrees>42.412323765456676483154296875</LatitudeDegrees>
              <LongitudeDegrees>2.78083995915949344635009765625</LongitudeDegrees>
            </Position>
            <AltitudeMeters>746</AltitudeMeters>
            <DistanceMeters>16676.182198978</DistanceMeters>
          </Trackpoint>
          <Trackpoint>
            <Time>2021-04-01T08:26:57.000Z</Time>
            <Position>
              <LatitudeDegrees>42.412290908396244049072265625</LatitudeDegrees>
              <LongitudeDegrees>2.78073124587535858154296875</LongitudeDegrees>
            </Position>
            <AltitudeMeters>746.20001220703125</AltitudeMeters>
            <DistanceMeters>16685.835715897</DistanceMeters>
          </Trackpoint>
          <Trackpoint>
            <Time>2021-04-01T08:27:05.000Z</Time>
            <Position>
              <LatitudeDegrees>42.41225503385066986083984375</LatitudeDegrees>
              <LongitudeDegrees>2.78067768551409244537353515625</LongitudeDegrees>
            </Position>
            <AltitudeMeters>746.5999755859375</AltitudeMeters>
            <DistanceMeters>16691.779255166</DistanceMeters>
          </Trackpoint>
          <Trackpoint>
            <Time>2021-04-01T08:27:09.000Z</Time>
            <Position>
              <LatitudeDegrees>42.4122434668242931365966796875</LatitudeDegrees>
              <LongitudeDegrees>2.78063829056918621063232421875</LongitudeDegrees>
            </Position>
            <AltitudeMeters>747</AltitudeMeters>
            <DistanceMeters>16695.262992059</DistanceMeters>
          </Trackpoint>
          <Trackpoint>
            <Time>2021-04-01T08:27:13.000Z</Time>
            <Position>
              <LatitudeDegrees>42.41222779266536235809326171875</LatitudeDegrees>
              <LongitudeDegrees>2.78062370605766773223876953125</LongitudeDegrees>
            </Position>
            <AltitudeMeters>747.5999755859375</AltitudeMeters>
            <DistanceMeters>16697.379337474</DistanceMeters>
          </Trackpoint>
          <Trackpoint>
            <Time>2021-04-01T08:27:18.000Z</Time>
            <Position>
              <LatitudeDegrees>42.41220817901194095611572265625</LatitudeDegrees>
              <LongitudeDegrees>2.78059319593012332916259765625</LongitudeDegrees>
            </Position>
            <AltitudeMeters>748</AltitudeMeters>
            <DistanceMeters>16700.703914676</DistanceMeters>
          </Trackpoint>
          <Trackpoint>
            <Time>2021-04-01T08:27:20.000Z</Time>
            <Position>
              <LatitudeDegrees>42.412207089364528656005859375</LatitudeDegrees>
              <LongitudeDegrees>2.78058908879756927490234375</LongitudeDegrees>
            </Position>
            <AltitudeMeters>748</AltitudeMeters>
            <DistanceMeters>16701.059472084</DistanceMeters>
          </Trackpoint>
          <Trackpoint>
            <Time>2021-04-01T08:27:25.000Z</Time>
            <Position>
              <LatitudeDegrees>42.4121998809278011322021484375</LatitudeDegrees>
              <LongitudeDegrees>2.7805803716182708740234375</LongitudeDegrees>
            </Position>
            <AltitudeMeters>748.20001220703125</AltitudeMeters>
            <DistanceMeters>16702.13457663</DistanceMeters>
          </Trackpoint>
          <Trackpoint>
            <Time>2021-04-01T08:27:27.000Z</Time>
            <Position>
              <LatitudeDegrees>42.41219476796686649322509765625</LatitudeDegrees>
              <LongitudeDegrees>2.78056184761226177215576171875</LongitudeDegrees>
            </Position>
            <AltitudeMeters>748.4000244140625</AltitudeMeters>
            <DistanceMeters>16703.761171969</DistanceMeters>
          </Trackpoint>
          <Trackpoint>
            <Time>2021-04-01T08:27:34.000Z</Time>
            <Position>
              <LatitudeDegrees>42.412165515124797821044921875</LatitudeDegrees>
              <LongitudeDegrees>2.78050166554749011993408203125</LongitudeDegrees>
            </Position>
            <AltitudeMeters>749</AltitudeMeters>
            <DistanceMeters>16709.681877734</DistanceMeters>
          </Trackpoint>
          <Trackpoint>
            <Time>2021-04-01T08:27:35.000Z</Time>
            <Position>
              <LatitudeDegrees>42.41216358728706836700439453125</LatitudeDegrees>
              <LongitudeDegrees>2.78049060143530368804931640625</LongitudeDegrees>
            </Position>
            <AltitudeMeters>749</AltitudeMeters>
            <DistanceMeters>16710.617782331</DistanceMeters>
          </Trackpoint>
          <Trackpoint>
            <Time>2021-04-01T08:27:37.000Z</Time>
            <Position>
              <LatitudeDegrees>42.412156797945499420166015625</LatitudeDegrees>
              <LongitudeDegrees>2.7804715745151042938232421875</LongitudeDegrees>
            </Position>
            <AltitudeMeters>749.20001220703125</AltitudeMeters>
            <DistanceMeters>16712.354458908</DistanceMeters>
          </Trackpoint>
          <Trackpoint>
            <Time>2021-04-01T08:27:42.000Z</Time>
            <Position>
              <LatitudeDegrees>42.412133999168872833251953125</LatitudeDegrees>
              <LongitudeDegrees>2.7804360352456569671630859375</LongitudeDegrees>
            </Position>
            <AltitudeMeters>749.5999755859375</AltitudeMeters>
            <DistanceMeters>16716.226141604</DistanceMeters>
          </Trackpoint>
          <Trackpoint>
            <Time>2021-04-01T08:27:44.000Z</Time>
            <Position>
              <LatitudeDegrees>42.4121229350566864013671875</LatitudeDegrees>
              <LongitudeDegrees>2.7804243005812168121337890625</LongitudeDegrees>
            </Position>
            <AltitudeMeters>749.79998779296875</AltitudeMeters>
            <DistanceMeters>16717.793362326</DistanceMeters>
          </Trackpoint>
          <Trackpoint>
            <Time>2021-04-01T08:27:47.000Z</Time>
            <Position>
              <LatitudeDegrees>42.41212435998022556304931640625</LatitudeDegrees>
              <LongitudeDegrees>2.78039152733981609344482421875</LongitudeDegrees>
            </Position>
            <AltitudeMeters>750</AltitudeMeters>
            <DistanceMeters>16720.489509862</DistanceMeters>
          </Trackpoint>
          <Trackpoint>
            <Time>2021-04-01T08:27:51.000Z</Time>
            <Position>
              <LatitudeDegrees>42.41211547516286373138427734375</LatitudeDegrees>
              <LongitudeDegrees>2.78036872856318950653076171875</LongitudeDegrees>
            </Position>
            <AltitudeMeters>750.20001220703125</AltitudeMeters>
            <DistanceMeters>16722.605855277</DistanceMeters>
          </Trackpoint>
          <Trackpoint>
            <Time>2021-04-01T08:27:52.000Z</Time>
            <Position>
              <LatitudeDegrees>42.41211287677288055419921875</LatitudeDegrees>
              <LongitudeDegrees>2.78036302886903285980224609375</LongitudeDegrees>
            </Position>
            <AltitudeMeters>750.4000244140625</AltitudeMeters>
            <DistanceMeters>16723.159951478</DistanceMeters>
          </Trackpoint>
          <Trackpoint>
            <Time>2021-04-01T08:27:59.000Z</Time>
            <Position>
              <LatitudeDegrees>42.41209535859525203704833984375</LatitudeDegrees>
              <LongitudeDegrees>2.78032078407704830169677734375</LongitudeDegrees>
            </Position>
            <AltitudeMeters>751</AltitudeMeters>
            <DistanceMeters>16727.139744699</DistanceMeters>
          </Trackpoint>
          <Trackpoint>
            <Time>2021-04-01T08:28:00.000Z</Time>
            <Position>
              <LatitudeDegrees>42.41209066472947597503662109375</LatitudeDegrees>
              <LongitudeDegrees>2.78031793422996997833251953125</LongitudeDegrees>
            </Position>
            <AltitudeMeters>751.20001220703125</AltitudeMeters>
            <DistanceMeters>16727.709904985</DistanceMeters>
          </Trackpoint>
          <Trackpoint>
            <Time>2021-04-01T08:28:04.000Z</Time>
            <Position>
              <LatitudeDegrees>42.41208060644567012786865234375</LatitudeDegrees>
              <LongitudeDegrees>2.7802932076156139373779296875</LongitudeDegrees>
            </Position>
            <AltitudeMeters>751.4000244140625</AltitudeMeters>
            <DistanceMeters>16730.029802733</DistanceMeters>
          </Trackpoint>
          <Trackpoint>
            <Time>2021-04-01T08:28:06.000Z</Time>
            <Position>
              <LatitudeDegrees>42.41206887178122997283935546875</LatitudeDegrees>
              <LongitudeDegrees>2.7802774496376514434814453125</LongitudeDegrees>
            </Position>
            <AltitudeMeters>751.5999755859375</AltitudeMeters>
            <DistanceMeters>16731.867531927</DistanceMeters>
          </Trackpoint>
          <Trackpoint>
            <Time>2021-04-01T08:28:07.000Z</Time>
            <Position>
              <LatitudeDegrees>42.41206468082964420318603515625</LatitudeDegrees>
              <LongitudeDegrees>2.78027384541928768157958984375</LongitudeDegrees>
            </Position>
            <AltitudeMeters>751.5999755859375</AltitudeMeters>
            <DistanceMeters>16732.421628127</DistanceMeters>
          </Trackpoint>
          <Trackpoint>
            <Time>2021-04-01T08:28:11.000Z</Time>
            <Position>
              <LatitudeDegrees>42.4120486713945865631103515625</LatitudeDegrees>
              <LongitudeDegrees>2.78024174273014068603515625</LongitudeDegrees>
            </Position>
            <AltitudeMeters>752.20001220703125</AltitudeMeters>
            <DistanceMeters>16735.607504133</DistanceMeters>
          </Trackpoint>
          <Trackpoint>
            <Time>2021-04-01T08:28:14.000Z</Time>
            <Position>
              <LatitudeDegrees>42.41204272024333477020263671875</LatitudeDegrees>
              <LongitudeDegrees>2.7802144177258014678955078125</LongitudeDegrees>
            </Position>
            <AltitudeMeters>752.4000244140625</AltitudeMeters>
            <DistanceMeters>16737.946783151</DistanceMeters>
          </Trackpoint>
          <Trackpoint>
            <Time>2021-04-01T08:28:19.000Z</Time>
            <Position>
              <LatitudeDegrees>42.412022687494754791259765625</LatitudeDegrees>
              <LongitudeDegrees>2.780166305601596832275390625</LongitudeDegrees>
            </Position>
            <AltitudeMeters>753</AltitudeMeters>
            <DistanceMeters>16742.486236251</DistanceMeters>
          </Trackpoint>
          <Trackpoint>
            <Time>2021-04-01T08:28:22.000Z</Time>
            <Position>
              <LatitudeDegrees>42.412013299763202667236328125</LatitudeDegrees>
              <LongitudeDegrees>2.7801436744630336761474609375</LongitudeDegrees>
            </Position>
            <AltitudeMeters>753.20001220703125</AltitudeMeters>
            <DistanceMeters>16744.619580697</DistanceMeters>
          </Trackpoint>
          <Trackpoint>
            <Time>2021-04-01T08:28:23.000Z</Time>
            <Position>
              <LatitudeDegrees>42.41200868971645832061767578125</LatitudeDegrees>
              <LongitudeDegrees>2.78013470582664012908935546875</LongitudeDegrees>
            </Position>
            <AltitudeMeters>753.4000244140625</AltitudeMeters>
            <DistanceMeters>16745.511010295</DistanceMeters>
          </Trackpoint>
          <Trackpoint>
            <Time>2021-04-01T08:28:31.000Z</Time>
            <Position>
              <LatitudeDegrees>42.41199293173849582672119140625</LatitudeDegrees>
              <LongitudeDegrees>2.7800653874874114990234375</LongitudeDegrees>
            </Position>
            <AltitudeMeters>754.4000244140625</AltitudeMeters>
            <DistanceMeters>16751.471238539</DistanceMeters>
          </Trackpoint>
          <Trackpoint>
            <Time>2021-04-01T08:28:32.000Z</Time>
            <Position>
              <LatitudeDegrees>42.41199016571044921875</LatitudeDegrees>
              <LongitudeDegrees>2.78005524538457393646240234375</LongitudeDegrees>
            </Position>
            <AltitudeMeters>754.4000244140625</AltitudeMeters>
            <DistanceMeters>16752.362668137</DistanceMeters>
          </Trackpoint>
          <Trackpoint>
            <Time>2021-04-01T08:28:33.000Z</Time>
            <Position>
              <LatitudeDegrees>42.41198756732046604156494140625</LatitudeDegrees>
              <LongitudeDegrees>2.78004736639559268951416015625</LongitudeDegrees>
            </Position>
            <AltitudeMeters>754.5999755859375</AltitudeMeters>
            <DistanceMeters>16753.067405112</DistanceMeters>
          </Trackpoint>
          <Trackpoint>
            <Time>2021-04-01T08:28:39.000Z</Time>
            <Position>
              <LatitudeDegrees>42.411979101598262786865234375</LatitudeDegrees>
              <LongitudeDegrees>2.78000595979392528533935546875</LongitudeDegrees>
            </Position>
            <AltitudeMeters>755.4000244140625</AltitudeMeters>
            <DistanceMeters>16756.597490875</DistanceMeters>
          </Trackpoint>
          <Trackpoint>
            <Time>2021-04-01T08:28:44.000Z</Time>
            <Position>
              <LatitudeDegrees>42.4119671992957592010498046875</LatitudeDegrees>
              <LongitudeDegrees>2.7799634635448455810546875</LongitudeDegrees>
            </Position>
            <AltitudeMeters>756.20001220703125</AltitudeMeters>
            <DistanceMeters>16760.33386588</DistanceMeters>
          </Trackpoint>
          <Trackpoint>
            <Time>2021-04-01T08:28:47.000Z</Time>
            <Position>
              <LatitudeDegrees>42.41196325980126857757568359375</LatitudeDegrees>
              <LongitudeDegrees>2.77994074858725070953369140625</LongitudeDegrees>
            </Position>
            <AltitudeMeters>756.4000244140625</AltitudeMeters>
            <DistanceMeters>16762.253311423</DistanceMeters>
          </Trackpoint>
          <Trackpoint>
            <Time>2021-04-01T08:28:50.000Z</Time>
            <Position>
              <LatitudeDegrees>42.4119591526687145233154296875</LatitudeDegrees>
              <LongitudeDegrees>2.77991174720227718353271484375</LongitudeDegrees>
            </Position>
            <AltitudeMeters>756.5999755859375</AltitudeMeters>
            <DistanceMeters>16764.679751169</DistanceMeters>
          </Trackpoint>
          <Trackpoint>
            <Time>2021-04-01T08:28:55.000Z</Time>
            <Position>
              <LatitudeDegrees>42.4119472503662109375</LatitudeDegrees>
              <LongitudeDegrees>2.7798653952777385711669921875</LongitudeDegrees>
            </Position>
            <AltitudeMeters>757</AltitudeMeters>
            <DistanceMeters>16768.711393216</DistanceMeters>
          </Trackpoint>
          <Trackpoint>
            <Time>2021-04-01T08:28:56.000Z</Time>
            <Position>
              <LatitudeDegrees>42.41194498725235462188720703125</LatitudeDegrees>
              <LongitudeDegrees>2.77985810302197933197021484375</LongitudeDegrees>
            </Position>
            <AltitudeMeters>757.20001220703125</AltitudeMeters>
            <DistanceMeters>16769.362863548</DistanceMeters>
          </Trackpoint>
          <Trackpoint>
            <Time>2021-04-01T08:29:01.000Z</Time>
            <Position>
              <LatitudeDegrees>42.4119514413177967071533203125</LatitudeDegrees>
              <LongitudeDegrees>2.779813595116138458251953125</LongitudeDegrees>
            </Position>
            <AltitudeMeters>757.4000244140625</AltitudeMeters>
            <DistanceMeters>16773.090770152</DistanceMeters>
          </Trackpoint>
          <Trackpoint>
            <Time>2021-04-01T08:29:04.000Z</Time>
            <Position>
              <LatitudeDegrees>42.4119485914707183837890625</LatitudeDegrees>
              <LongitudeDegrees>2.77979624457657337188720703125</LongitudeDegrees>
            </Position>
            <AltitudeMeters>757.79998779296875</AltitudeMeters>
            <DistanceMeters>16774.550598238</DistanceMeters>
          </Trackpoint>
          <Trackpoint>
            <Time>2021-04-01T08:29:09.000Z</Time>
            <Position>
              <LatitudeDegrees>42.41194255650043487548828125</LatitudeDegrees>
              <LongitudeDegrees>2.7797581069171428680419921875</LongitudeDegrees>
            </Position>
            <AltitudeMeters>758.20001220703125</AltitudeMeters>
            <DistanceMeters>16777.754844938</DistanceMeters>
          </Trackpoint>
          <Trackpoint>
            <Time>2021-04-01T08:29:11.000Z</Time>
            <Position>
              <LatitudeDegrees>42.41194180212914943695068359375</LatitudeDegrees>
              <LongitudeDegrees>2.7797463722527027130126953125</LongitudeDegrees>
            </Position>
            <AltitudeMeters>758.5999755859375</AltitudeMeters>
            <DistanceMeters>16778.72393108</DistanceMeters>
          </Trackpoint>
          <Trackpoint>
            <Time>2021-04-01T08:29:13.000Z</Time>
            <Position>
              <LatitudeDegrees>42.4119423888623714447021484375</LatitudeDegrees>
              <LongitudeDegrees>2.77973706834018230438232421875</LongitudeDegrees>
            </Position>
            <AltitudeMeters>758.79998779296875</AltitudeMeters>
            <DistanceMeters>16779.484144795</DistanceMeters>
          </Trackpoint>
          <Trackpoint>
            <Time>2021-04-01T08:29:15.000Z</Time>
            <Position>
              <LatitudeDegrees>42.411947585642337799072265625</LatitudeDegrees>
              <LongitudeDegrees>2.77972717769443988800048828125</LongitudeDegrees>
            </Position>
            <AltitudeMeters>759</AltitudeMeters>
            <DistanceMeters>16780.480793383</DistanceMeters>
          </Trackpoint>
          <Trackpoint>
            <Time>2021-04-01T08:29:18.000Z</Time>
            <Position>
              <LatitudeDegrees>42.41195906884968280792236328125</LatitudeDegrees>
              <LongitudeDegrees>2.7796974219381809234619140625</LongitudeDegrees>
            </Position>
            <AltitudeMeters>759.20001220703125</AltitudeMeters>
            <DistanceMeters>16783.238206005</DistanceMeters>
          </Trackpoint>
          <Trackpoint>
            <Time>2021-04-01T08:29:22.000Z</Time>
            <Position>
              <LatitudeDegrees>42.411956973373889923095703125</LatitudeDegrees>
              <LongitudeDegrees>2.77967219240963459014892578125</LongitudeDegrees>
            </Position>
            <AltitudeMeters>759.79998779296875</AltitudeMeters>
            <DistanceMeters>16785.324469853</DistanceMeters>
          </Trackpoint>
          <Trackpoint>
            <Time>2021-04-01T08:29:25.000Z</Time>
            <Position>
              <LatitudeDegrees>42.41195420734584331512451171875</LatitudeDegrees>
              <LongitudeDegrees>2.7796498127281665802001953125</LongitudeDegrees>
            </Position>
            <AltitudeMeters>760.20001220703125</AltitudeMeters>
            <DistanceMeters>16787.18660555</DistanceMeters>
          </Trackpoint>
          <Trackpoint>
            <Time>2021-04-01T08:29:28.000Z</Time>
            <Position>
              <LatitudeDegrees>42.4119370244443416595458984375</LatitudeDegrees>
              <LongitudeDegrees>2.7796236611902713775634765625</LongitudeDegrees>
            </Position>
            <AltitudeMeters>760.4000244140625</AltitudeMeters>
            <DistanceMeters>16790.062635805</DistanceMeters>
          </Trackpoint>
          <Trackpoint>
            <Time>2021-04-01T08:29:29.000Z</Time>
            <Position>
              <LatitudeDegrees>42.4119316600263118743896484375</LatitudeDegrees>
              <LongitudeDegrees>2.77961787767708301544189453125</LongitudeDegrees>
            </Position>
            <AltitudeMeters>760.5999755859375</AltitudeMeters>
            <DistanceMeters>16790.82284952</DistanceMeters>
          </Trackpoint>
          <Trackpoint>
            <Time>2021-04-01T08:29:31.000Z</Time>
            <Position>
              <LatitudeDegrees>42.411922104656696319580078125</LatitudeDegrees>
              <LongitudeDegrees>2.77961083687841892242431640625</LongitudeDegrees>
            </Position>
            <AltitudeMeters>760.79998779296875</AltitudeMeters>
            <DistanceMeters>16792.032342134</DistanceMeters>
          </Trackpoint>
          <Trackpoint>
            <Time>2021-04-01T08:29:32.000Z</Time>
            <Position>
              <LatitudeDegrees>42.41191917099058628082275390625</LatitudeDegrees>
              <LongitudeDegrees>2.77960471808910369873046875</LongitudeDegrees>
            </Position>
            <AltitudeMeters>761</AltitudeMeters>
            <DistanceMeters>16792.633343846</DistanceMeters>
          </Trackpoint>
          <Trackpoint>
            <Time>2021-04-01T08:29:37.000Z</Time>
            <Position>
              <LatitudeDegrees>42.4119138903915882110595703125</LatitudeDegrees>
              <LongitudeDegrees>2.77956155128777027130126953125</LongitudeDegrees>
            </Position>
            <AltitudeMeters>761.20001220703125</AltitudeMeters>
            <DistanceMeters>16796.228067673</DistanceMeters>
          </Trackpoint>
          <Trackpoint>
            <Time>2021-04-01T08:29:39.000Z</Time>
            <Position>
              <LatitudeDegrees>42.41191028617322444915771484375</LatitudeDegrees>
              <LongitudeDegrees>2.7795421890914440155029296875</LongitudeDegrees>
            </Position>
            <AltitudeMeters>761.4000244140625</AltitudeMeters>
            <DistanceMeters>16797.868483102</DistanceMeters>
          </Trackpoint>
          <Trackpoint>
            <Time>2021-04-01T08:29:40.000Z</Time>
            <Position>
              <LatitudeDegrees>42.41190777160227298736572265625</LatitudeDegrees>
              <LongitudeDegrees>2.77953757904469966888427734375</LongitudeDegrees>
            </Position>
            <AltitudeMeters>761.4000244140625</AltitudeMeters>
            <DistanceMeters>16798.343616674</DistanceMeters>
          </Trackpoint>
          <Trackpoint>
            <Time>2021-04-01T08:29:41.000Z</Time>
            <Position>
              <LatitudeDegrees>42.41190508939325809478759765625</LatitudeDegrees>
              <LongitudeDegrees>2.7795302867889404296875</LongitudeDegrees>
            </Position>
            <AltitudeMeters>761.5999755859375</AltitudeMeters>
            <DistanceMeters>16799.015557015</DistanceMeters>
          </Trackpoint>
          <Trackpoint>
            <Time>2021-04-01T08:29:44.000Z</Time>
            <Position>
              <LatitudeDegrees>42.41189788095653057098388671875</LatitudeDegrees>
              <LongitudeDegrees>2.77951511554419994354248046875</LongitudeDegrees>
            </Position>
            <AltitudeMeters>761.79998779296875</AltitudeMeters>
            <DistanceMeters>16800.499921745</DistanceMeters>
          </Trackpoint>
          <Trackpoint>
            <Time>2021-04-01T08:29:45.000Z</Time>
            <Position>
              <LatitudeDegrees>42.41189519874751567840576171875</LatitudeDegrees>
              <LongitudeDegrees>2.7795089967548847198486328125</LongitudeDegrees>
            </Position>
            <AltitudeMeters>762</AltitudeMeters>
            <DistanceMeters>16801.085705754</DistanceMeters>
          </Trackpoint>
          <Trackpoint>
            <Time>2021-04-01T08:29:52.000Z</Time>
            <Position>
              <LatitudeDegrees>42.41189218126237392425537109375</LatitudeDegrees>
              <LongitudeDegrees>2.77942769229412078857421875</LongitudeDegrees>
            </Position>
            <AltitudeMeters>762.5999755859375</AltitudeMeters>
            <DistanceMeters>16807.77547846</DistanceMeters>
          </Trackpoint>
          <Trackpoint>
            <Time>2021-04-01T08:29:57.000Z</Time>
            <Position>
              <LatitudeDegrees>42.41186678409576416015625</LatitudeDegrees>
              <LongitudeDegrees>2.7793825976550579071044921875</LongitudeDegrees>
            </Position>
            <AltitudeMeters>763</AltitudeMeters>
            <DistanceMeters>16812.435664491</DistanceMeters>
          </Trackpoint>
          <Trackpoint>
            <Time>2021-04-01T08:29:58.000Z</Time>
            <Position>
              <LatitudeDegrees>42.4118639342486858367919921875</LatitudeDegrees>
              <LongitudeDegrees>2.779375724494457244873046875</LongitudeDegrees>
            </Position>
            <AltitudeMeters>763</AltitudeMeters>
            <DistanceMeters>16813.080167025</DistanceMeters>
          </Trackpoint>
          <Trackpoint>
            <Time>2021-04-01T08:30:05.000Z</Time>
            <Position>
              <LatitudeDegrees>42.411864101886749267578125</LatitudeDegrees>
              <LongitudeDegrees>2.7793400175869464874267578125</LongitudeDegrees>
            </Position>
            <AltitudeMeters>763.79998779296875</AltitudeMeters>
            <DistanceMeters>16816.013708034</DistanceMeters>
          </Trackpoint>
          <Trackpoint>
            <Time>2021-04-01T08:30:08.000Z</Time>
            <Position>
              <LatitudeDegrees>42.41186418570578098297119140625</LatitudeDegrees>
              <LongitudeDegrees>2.7793199010193347930908203125</LongitudeDegrees>
            </Position>
            <AltitudeMeters>764</AltitudeMeters>
            <DistanceMeters>16817.665096264</DistanceMeters>
          </Trackpoint>
          <Trackpoint>
            <Time>2021-04-01T08:30:11.000Z</Time>
            <Position>
              <LatitudeDegrees>42.4118589051067829132080078125</LatitudeDegrees>
              <LongitudeDegrees>2.7793145366013050079345703125</LongitudeDegrees>
            </Position>
            <AltitudeMeters>764.5999755859375</AltitudeMeters>
            <DistanceMeters>16818.395010307</DistanceMeters>
          </Trackpoint>
          <Trackpoint>
            <Time>2021-04-01T08:30:15.000Z</Time>
            <Position>
              <LatitudeDegrees>42.41183736361563205718994140625</LatitudeDegrees>
              <LongitudeDegrees>2.77929819189012050628662109375</LongitudeDegrees>
            </Position>
            <AltitudeMeters>765</AltitudeMeters>
            <DistanceMeters>16821.144223646</DistanceMeters>
          </Trackpoint>
          <Trackpoint>
            <Time>2021-04-01T08:30:17.000Z</Time>
            <Position>
              <LatitudeDegrees>42.41182797588407993316650390625</LatitudeDegrees>
              <LongitudeDegrees>2.77930640615522861480712890625</LongitudeDegrees>
            </Position>
            <AltitudeMeters>765.20001220703125</AltitudeMeters>
            <DistanceMeters>16822.390487321</DistanceMeters>
          </Trackpoint>
          <Trackpoint>
            <Time>2021-04-01T08:30:24.000Z</Time>
            <Position>
              <LatitudeDegrees>42.4118039198219776153564453125</LatitudeDegrees>
              <LongitudeDegrees>2.779311351478099822998046875</LongitudeDegrees>
            </Position>
            <AltitudeMeters>765.20001220703125</AltitudeMeters>
            <DistanceMeters>16825.098331865</DistanceMeters>
          </Trackpoint>
          <Trackpoint>
            <Time>2021-04-01T08:30:27.000Z</Time>
            <Position>
              <LatitudeDegrees>42.4117930233478546142578125</LatitudeDegrees>
              <LongitudeDegrees>2.7793224155902862548828125</LongitudeDegrees>
            </Position>
            <AltitudeMeters>765.5999755859375</AltitudeMeters>
            <DistanceMeters>16826.61280848</DistanceMeters>
          </Trackpoint>
          <Trackpoint>
            <Time>2021-04-01T08:30:30.000Z</Time>
            <Position>
              <LatitudeDegrees>42.41177885793149471282958984375</LatitudeDegrees>
              <LongitudeDegrees>2.7793306298553943634033203125</LongitudeDegrees>
            </Position>
            <AltitudeMeters>766</AltitudeMeters>
            <DistanceMeters>16828.328560479</DistanceMeters>
          </Trackpoint>
          <Trackpoint>
            <Time>2021-04-01T08:30:31.000Z</Time>
            <Position>
              <LatitudeDegrees>42.41177299059927463531494140625</LatitudeDegrees>
              <LongitudeDegrees>2.77933440171182155609130859375</LongitudeDegrees>
            </Position>
            <AltitudeMeters>766.20001220703125</AltitudeMeters>
            <DistanceMeters>16829.058474522</DistanceMeters>
          </Trackpoint>
          <Trackpoint>
            <Time>2021-04-01T08:30:35.000Z</Time>
            <Position>
              <LatitudeDegrees>42.4117542989552021026611328125</LatitudeDegrees>
              <LongitudeDegrees>2.77935259044170379638671875</LongitudeDegrees>
            </Position>
            <AltitudeMeters>766.4000244140625</AltitudeMeters>
            <DistanceMeters>16831.618911105</DistanceMeters>
          </Trackpoint>
          <Trackpoint>
            <Time>2021-04-01T08:30:37.000Z</Time>
            <Position>
              <LatitudeDegrees>42.4117459170520305633544921875</LatitudeDegrees>
              <LongitudeDegrees>2.779375053942203521728515625</LongitudeDegrees>
            </Position>
            <AltitudeMeters>766.5999755859375</AltitudeMeters>
            <DistanceMeters>16833.687789118</DistanceMeters>
          </Trackpoint>
          <Trackpoint>
            <Time>2021-04-01T08:30:38.000Z</Time>
            <Position>
              <LatitudeDegrees>42.41173778660595417022705078125</LatitudeDegrees>
              <LongitudeDegrees>2.7793805859982967376708984375</LongitudeDegrees>
            </Position>
            <AltitudeMeters>766.5999755859375</AltitudeMeters>
            <DistanceMeters>16834.702396784</DistanceMeters>
          </Trackpoint>
          <Trackpoint>
            <Time>2021-04-01T08:30:41.000Z</Time>
            <Position>
              <LatitudeDegrees>42.41171582601964473724365234375</LatitudeDegrees>
              <LongitudeDegrees>2.77938771061599254608154296875</LongitudeDegrees>
            </Position>
            <AltitudeMeters>766.79998779296875</AltitudeMeters>
            <DistanceMeters>16837.216567325</DistanceMeters>
          </Trackpoint>
          <Trackpoint>
            <Time>2021-04-01T08:30:42.000Z</Time>
            <Position>
              <LatitudeDegrees>42.4117123894393444061279296875</LatitudeDegrees>
              <LongitudeDegrees>2.7793889679014682769775390625</LongitudeDegrees>
            </Position>
            <AltitudeMeters>767</AltitudeMeters>
            <DistanceMeters>16837.61973153</DistanceMeters>
          </Trackpoint>
          <Trackpoint>
            <Time>2021-04-01T08:30:43.000Z</Time>
            <Position>
              <LatitudeDegrees>42.411708198487758636474609375</LatitudeDegrees>
              <LongitudeDegrees>2.7793869562447071075439453125</LongitudeDegrees>
            </Position>
            <AltitudeMeters>767.20001220703125</AltitudeMeters>
            <DistanceMeters>16838.122565638</DistanceMeters>
          </Trackpoint>
          <Trackpoint>
            <Time>2021-04-01T08:30:48.000Z</Time>
            <Position>
              <LatitudeDegrees>42.41167156957089900970458984375</LatitudeDegrees>
              <LongitudeDegrees>2.77940128929913043975830078125</LongitudeDegrees>
            </Position>
            <AltitudeMeters>767.5999755859375</AltitudeMeters>
            <DistanceMeters>16842.366974019</DistanceMeters>
          </Trackpoint>
          <Trackpoint>
            <Time>2021-04-01T08:30:49.000Z</Time>
            <Position>
              <LatitudeDegrees>42.411664612591266632080078125</LatitudeDegrees>
              <LongitudeDegrees>2.7794015407562255859375</LongitudeDegrees>
            </Position>
            <AltitudeMeters>767.79998779296875</AltitudeMeters>
            <DistanceMeters>16843.138974696</DistanceMeters>
          </Trackpoint>
          <Trackpoint>
            <Time>2021-04-01T08:30:50.000Z</Time>
            <Position>
              <LatitudeDegrees>42.411659248173236846923828125</LatitudeDegrees>
              <LongitudeDegrees>2.77940648607909679412841796875</LongitudeDegrees>
            </Position>
            <AltitudeMeters>767.79998779296875</AltitudeMeters>
            <DistanceMeters>16843.862676592</DistanceMeters>
          </Trackpoint>
          <Trackpoint>
            <Time>2021-04-01T08:30:53.000Z</Time>
            <Position>
              <LatitudeDegrees>42.41163988597691059112548828125</LatitudeDegrees>
              <LongitudeDegrees>2.77940715663135051727294921875</LongitudeDegrees>
            </Position>
            <AltitudeMeters>768</AltitudeMeters>
            <DistanceMeters>16846.021268597</DistanceMeters>
          </Trackpoint>
          <Trackpoint>
            <Time>2021-04-01T08:30:55.000Z</Time>
            <Position>
              <LatitudeDegrees>42.4116232059895992279052734375</LatitudeDegrees>
              <LongitudeDegrees>2.77941235341131687164306640625</LongitudeDegrees>
            </Position>
            <AltitudeMeters>768.20001220703125</AltitudeMeters>
            <DistanceMeters>16847.926548296</DistanceMeters>
          </Trackpoint>
          <Trackpoint>
            <Time>2021-04-01T08:30:56.000Z</Time>
            <Position>
              <LatitudeDegrees>42.4116144888103008270263671875</LatitudeDegrees>
              <LongitudeDegrees>2.77941294014453887939453125</LongitudeDegrees>
            </Position>
            <AltitudeMeters>768.20001220703125</AltitudeMeters>
            <DistanceMeters>16848.895634438</DistanceMeters>
          </Trackpoint>
          <Trackpoint>
            <Time>2021-04-01T08:30:59.000Z</Time>
            <Position>
              <LatitudeDegrees>42.41159613244235515594482421875</LatitudeDegrees>
              <LongitudeDegrees>2.779409587383270263671875</LongitudeDegrees>
            </Position>
            <AltitudeMeters>768.5999755859375</AltitudeMeters>
            <DistanceMeters>16850.955764513</DistanceMeters>
          </Trackpoint>
          <Trackpoint>
            <Time>2021-04-01T08:31:01.000Z</Time>
            <Position>
              <LatitudeDegrees>42.41158624179661273956298828125</LatitudeDegrees>
              <LongitudeDegrees>2.779407911002635955810546875</LongitudeDegrees>
            </Position>
            <AltitudeMeters>768.79998779296875</AltitudeMeters>
            <DistanceMeters>16852.063956914</DistanceMeters>
          </Trackpoint>
          <Trackpoint>
            <Time>2021-04-01T08:31:04.000Z</Time>
            <Position>
              <LatitudeDegrees>42.4115655384957790374755859375</LatitudeDegrees>
              <LongitudeDegrees>2.77939542196691036224365234375</LongitudeDegrees>
            </Position>
            <AltitudeMeters>769</AltitudeMeters>
            <DistanceMeters>16854.585300567</DistanceMeters>
          </Trackpoint>
          <Trackpoint>
            <Time>2021-04-01T08:31:05.000Z</Time>
            <Position>
              <LatitudeDegrees>42.41155992262065410614013671875</LatitudeDegrees>
              <LongitudeDegrees>2.77938888408243656158447265625</LongitudeDegrees>
            </Position>
            <AltitudeMeters>769</AltitudeMeters>
            <DistanceMeters>16855.408256054</DistanceMeters>
          </Trackpoint>
          <Trackpoint>
            <Time>2021-04-01T08:31:11.000Z</Time>
            <Position>
              <LatitudeDegrees>42.41151608526706695556640625</LatitudeDegrees>
              <LongitudeDegrees>2.7793584577739238739013671875</LongitudeDegrees>
            </Position>
            <AltitudeMeters>769.20001220703125</AltitudeMeters>
            <DistanceMeters>16860.890235113</DistanceMeters>
          </Trackpoint>
          <Trackpoint>
            <Time>2021-04-01T08:31:13.000Z</Time>
            <Position>
              <LatitudeDegrees>42.41150175221264362335205078125</LatitudeDegrees>
              <LongitudeDegrees>2.77935116551816463470458984375</LongitudeDegrees>
            </Position>
            <AltitudeMeters>769.4000244140625</AltitudeMeters>
            <DistanceMeters>16862.595428537</DistanceMeters>
          </Trackpoint>
          <Trackpoint>
            <Time>2021-04-01T08:31:14.000Z</Time>
            <Position>
              <LatitudeDegrees>42.41149085573852062225341796875</LatitudeDegrees>
              <LongitudeDegrees>2.77934563346207141876220703125</LongitudeDegrees>
            </Position>
            <AltitudeMeters>769.4000244140625</AltitudeMeters>
            <DistanceMeters>16863.891420134</DistanceMeters>
          </Trackpoint>
          <Trackpoint>
            <Time>2021-04-01T08:31:18.000Z</Time>
            <Position>
              <LatitudeDegrees>42.411477863788604736328125</LatitudeDegrees>
              <LongitudeDegrees>2.77933188714087009429931640625</LongitudeDegrees>
            </Position>
            <AltitudeMeters>769.79998779296875</AltitudeMeters>
            <DistanceMeters>16865.724229027</DistanceMeters>
          </Trackpoint>
          <Trackpoint>
            <Time>2021-04-01T08:31:22.000Z</Time>
            <Position>
              <LatitudeDegrees>42.41145037114620208740234375</LatitudeDegrees>
              <LongitudeDegrees>2.7793101780116558074951171875</LongitudeDegrees>
            </Position>
            <AltitudeMeters>770.20001220703125</AltitudeMeters>
            <DistanceMeters>16869.267081868</DistanceMeters>
          </Trackpoint>
          <Trackpoint>
            <Time>2021-04-01T08:31:24.000Z</Time>
            <Position>
              <LatitudeDegrees>42.41143637336790561676025390625</LatitudeDegrees>
              <LongitudeDegrees>2.7792955935001373291015625</LongitudeDegrees>
            </Position>
            <AltitudeMeters>770.4000244140625</AltitudeMeters>
            <DistanceMeters>16871.233009822</DistanceMeters>
          </Trackpoint>
          <Trackpoint>
            <Time>2021-04-01T08:31:30.000Z</Time>
            <Position>
              <LatitudeDegrees>42.411375939846038818359375</LatitudeDegrees>
              <LongitudeDegrees>2.77929970063269138336181640625</LongitudeDegrees>
            </Position>
            <AltitudeMeters>771.20001220703125</AltitudeMeters>
            <DistanceMeters>16877.968520497</DistanceMeters>
          </Trackpoint>
          <Trackpoint>
            <Time>2021-04-01T08:31:31.000Z</Time>
            <Position>
              <LatitudeDegrees>42.41136479191482067108154296875</LatitudeDegrees>
              <LongitudeDegrees>2.7792960964143276214599609375</LongitudeDegrees>
            </Position>
            <AltitudeMeters>771.4000244140625</AltitudeMeters>
            <DistanceMeters>16879.243437655</DistanceMeters>
          </Trackpoint>
          <Trackpoint>
            <Time>2021-04-01T08:31:42.000Z</Time>
            <Position>
              <LatitudeDegrees>42.4112946353852748870849609375</LatitudeDegrees>
              <LongitudeDegrees>2.7792575396597385406494140625</LongitudeDegrees>
            </Position>
            <AltitudeMeters>772.20001220703125</AltitudeMeters>
            <DistanceMeters>16887.669794583</DistanceMeters>
          </Trackpoint>
          <Trackpoint>
            <Time>2021-04-01T08:31:46.000Z</Time>
            <Position>
              <LatitudeDegrees>42.411258928477764129638671875</LatitudeDegrees>
              <LongitudeDegrees>2.77924337424337863922119140625</LongitudeDegrees>
            </Position>
            <AltitudeMeters>772.20001220703125</AltitudeMeters>
            <DistanceMeters>16891.811913032</DistanceMeters>
          </Trackpoint>
          <Trackpoint>
            <Time>2021-04-01T08:31:47.000Z</Time>
            <Position>
              <LatitudeDegrees>42.41125213913619518280029296875</LatitudeDegrees>
              <LongitudeDegrees>2.77923784218728542327880859375</LongitudeDegrees>
            </Position>
            <AltitudeMeters>772.4000244140625</AltitudeMeters>
            <DistanceMeters>16892.693154528</DistanceMeters>
          </Trackpoint>
          <Trackpoint>
            <Time>2021-04-01T08:31:48.000Z</Time>
            <Position>
              <LatitudeDegrees>42.4112470261752605438232421875</LatitudeDegrees>
              <LongitudeDegrees>2.77923398651182651519775390625</LongitudeDegrees>
            </Position>
            <AltitudeMeters>772.5999755859375</AltitudeMeters>
            <DistanceMeters>16893.344624859</DistanceMeters>
          </Trackpoint>
          <Trackpoint>
            <Time>2021-04-01T08:31:55.000Z</Time>
            <Position>
              <LatitudeDegrees>42.41119086742401123046875</LatitudeDegrees>
              <LongitudeDegrees>2.7792052365839481353759765625</LongitudeDegrees>
            </Position>
            <AltitudeMeters>773.20001220703125</AltitudeMeters>
            <DistanceMeters>16900.026969359</DistanceMeters>
          </Trackpoint>
          <Trackpoint>
            <Time>2021-04-01T08:31:57.000Z</Time>
            <Position>
              <LatitudeDegrees>42.41118022240698337554931640625</LatitudeDegrees>
              <LongitudeDegrees>2.77919526211917400360107421875</LongitudeDegrees>
            </Position>
            <AltitudeMeters>773.4000244140625</AltitudeMeters>
            <DistanceMeters>16901.464984486</DistanceMeters>
          </Trackpoint>
          <Trackpoint>
            <Time>2021-04-01T08:32:00.000Z</Time>
            <Position>
              <LatitudeDegrees>42.41117502562701702117919921875</LatitudeDegrees>
              <LongitudeDegrees>2.7791753970086574554443359375</LongitudeDegrees>
            </Position>
            <AltitudeMeters>773.79998779296875</AltitudeMeters>
            <DistanceMeters>16903.196453625</DistanceMeters>
          </Trackpoint>
          <Trackpoint>
            <Time>2021-04-01T08:32:05.000Z</Time>
            <Position>
              <LatitudeDegrees>42.41115340031683444976806640625</LatitudeDegrees>
              <LongitudeDegrees>2.7791358344256877899169921875</LongitudeDegrees>
            </Position>
            <AltitudeMeters>774.4000244140625</AltitudeMeters>
            <DistanceMeters>16907.240395816</DistanceMeters>
          </Trackpoint>
          <Trackpoint>
            <Time>2021-04-01T08:32:08.000Z</Time>
            <Position>
              <LatitudeDegrees>42.41113898344337940216064453125</LatitudeDegrees>
              <LongitudeDegrees>2.77910322882235050201416015625</LongitudeDegrees>
            </Position>
            <AltitudeMeters>774.79998779296875</AltitudeMeters>
            <DistanceMeters>16910.361846197</DistanceMeters>
          </Trackpoint>
          <Trackpoint>
            <Time>2021-04-01T08:32:18.000Z</Time>
            <Position>
              <LatitudeDegrees>42.411097995936870574951171875</LatitudeDegrees>
              <LongitudeDegrees>2.7789983712136745452880859375</LongitudeDegrees>
            </Position>
            <AltitudeMeters>775.4000244140625</AltitudeMeters>
            <DistanceMeters>16920.11216131</DistanceMeters>
          </Trackpoint>
          <Trackpoint>
            <Time>2021-04-01T08:32:20.000Z</Time>
            <Position>
              <LatitudeDegrees>42.4110921286046504974365234375</LatitudeDegrees>
              <LongitudeDegrees>2.77897750027477741241455078125</LongitudeDegrees>
            </Position>
            <AltitudeMeters>775.5999755859375</AltitudeMeters>
            <DistanceMeters>16921.947432002</DistanceMeters>
          </Trackpoint>
          <Trackpoint>
            <Time>2021-04-01T08:32:22.000Z</Time>
            <Position>
              <LatitudeDegrees>42.41109087131917476654052734375</LatitudeDegrees>
              <LongitudeDegrees>2.77895294129848480224609375</LongitudeDegrees>
            </Position>
            <AltitudeMeters>775.79998779296875</AltitudeMeters>
            <DistanceMeters>16923.969961267</DistanceMeters>
          </Trackpoint>
          <Trackpoint>
            <Time>2021-04-01T08:32:23.000Z</Time>
            <Position>
              <LatitudeDegrees>42.41108835674822330474853515625</LatitudeDegrees>
              <LongitudeDegrees>2.778943218290805816650390625</LongitudeDegrees>
            </Position>
            <AltitudeMeters>775.79998779296875</AltitudeMeters>
            <DistanceMeters>16924.819906039</DistanceMeters>
          </Trackpoint>
          <Trackpoint>
            <Time>2021-04-01T08:32:30.000Z</Time>
            <Position>
              <LatitudeDegrees>42.4110824055969715118408203125</LatitudeDegrees>
              <LongitudeDegrees>2.77886216528713703155517578125</LongitudeDegrees>
            </Position>
            <AltitudeMeters>776.5999755859375</AltitudeMeters>
            <DistanceMeters>16931.512377867</DistanceMeters>
          </Trackpoint>
          <Trackpoint>
            <Time>2021-04-01T08:32:35.000Z</Time>
            <Position>
              <LatitudeDegrees>42.4110834114253520965576171875</LatitudeDegrees>
              <LongitudeDegrees>2.77879477478563785552978515625</LongitudeDegrees>
            </Position>
            <AltitudeMeters>776.79998779296875</AltitudeMeters>
            <DistanceMeters>16937.05007952</DistanceMeters>
          </Trackpoint>
          <Trackpoint>
            <Time>2021-04-01T08:32:41.000Z</Time>
            <Position>
              <LatitudeDegrees>42.41107896901667118072509765625</LatitudeDegrees>
              <LongitudeDegrees>2.77872495353221893310546875</LongitudeDegrees>
            </Position>
            <AltitudeMeters>777.20001220703125</AltitudeMeters>
            <DistanceMeters>16942.809984108</DistanceMeters>
          </Trackpoint>
          <Trackpoint>
            <Time>2021-04-01T08:32:46.000Z</Time>
            <Position>
              <LatitudeDegrees>42.41108986549079418182373046875</LatitudeDegrees>
              <LongitudeDegrees>2.77867407537996768951416015625</LongitudeDegrees>
            </Position>
            <AltitudeMeters>777.79998779296875</AltitudeMeters>
            <DistanceMeters>16947.163618274</DistanceMeters>
          </Trackpoint>
          <Trackpoint>
            <Time>2021-04-01T08:32:47.000Z</Time>
            <Position>
              <LatitudeDegrees>42.41109355352818965911865234375</LatitudeDegrees>
              <LongitudeDegrees>2.7786637656390666961669921875</LongitudeDegrees>
            </Position>
            <AltitudeMeters>778</AltitudeMeters>
            <DistanceMeters>16948.113885418</DistanceMeters>
          </Trackpoint>
          <Trackpoint>
            <Time>2021-04-01T08:32:49.000Z</Time>
            <Position>
              <LatitudeDegrees>42.41109707392752170562744140625</LatitudeDegrees>
              <LongitudeDegrees>2.778643481433391571044921875</LongitudeDegrees>
            </Position>
            <AltitudeMeters>778.20001220703125</AltitudeMeters>
            <DistanceMeters>16949.827003874</DistanceMeters>
          </Trackpoint>
          <Trackpoint>
            <Time>2021-04-01T08:32:50.000Z</Time>
            <Position>
              <LatitudeDegrees>42.411096654832363128662109375</LatitudeDegrees>
              <LongitudeDegrees>2.77863434515893459320068359375</LongitudeDegrees>
            </Position>
            <AltitudeMeters>778.4000244140625</AltitudeMeters>
            <DistanceMeters>16950.587217589</DistanceMeters>
          </Trackpoint>
          <Trackpoint>
            <Time>2021-04-01T08:32:56.000Z</Time>
            <Position>
              <LatitudeDegrees>42.41111685521900653839111328125</LatitudeDegrees>
              <LongitudeDegrees>2.7785745821893215179443359375</LongitudeDegrees>
            </Position>
            <AltitudeMeters>778.79998779296875</AltitudeMeters>
            <DistanceMeters>16955.9878793</DistanceMeters>
          </Trackpoint>
          <Trackpoint>
            <Time>2021-04-01T08:32:58.000Z</Time>
            <Position>
              <LatitudeDegrees>42.411123812198638916015625</LatitudeDegrees>
              <LongitudeDegrees>2.77855463325977325439453125</LongitudeDegrees>
            </Position>
            <AltitudeMeters>779</AltitudeMeters>
            <DistanceMeters>16957.80087346</DistanceMeters>
          </Trackpoint>
          <Trackpoint>
            <Time>2021-04-01T08:32:59.000Z</Time>
            <Position>
              <LatitudeDegrees>42.41112875752151012420654296875</LatitudeDegrees>
              <LongitudeDegrees>2.7785445749759674072265625</LongitudeDegrees>
            </Position>
            <AltitudeMeters>779.20001220703125</AltitudeMeters>
            <DistanceMeters>16958.792981485</DistanceMeters>
          </Trackpoint>
          <Trackpoint>
            <Time>2021-04-01T08:33:01.000Z</Time>
            <Position>
              <LatitudeDegrees>42.41113496012985706329345703125</LatitudeDegrees>
              <LongitudeDegrees>2.77852688916027545928955078125</LongitudeDegrees>
            </Position>
            <AltitudeMeters>779.4000244140625</AltitudeMeters>
            <DistanceMeters>16960.400029046</DistanceMeters>
          </Trackpoint>
          <Trackpoint>
            <Time>2021-04-01T08:33:06.000Z</Time>
            <Position>
              <LatitudeDegrees>42.411159686744213104248046875</LatitudeDegrees>
              <LongitudeDegrees>2.77848212979733943939208984375</LongitudeDegrees>
            </Position>
            <AltitudeMeters>780</AltitudeMeters>
            <DistanceMeters>16964.992877679</DistanceMeters>
          </Trackpoint>
          <Trackpoint>
            <Time>2021-04-01T08:33:07.000Z</Time>
            <Position>
              <LatitudeDegrees>42.4111628718674182891845703125</LatitudeDegrees>
              <LongitudeDegrees>2.77847358025610446929931640625</LongitudeDegrees>
            </Position>
            <AltitudeMeters>780.20001220703125</AltitudeMeters>
            <DistanceMeters>16965.782228853</DistanceMeters>
          </Trackpoint>
          <Trackpoint>
            <Time>2021-04-01T08:33:10.000Z</Time>
            <Position>
              <LatitudeDegrees>42.41117142140865325927734375</LatitudeDegrees>
              <LongitudeDegrees>2.7784461714327335357666015625</LongitudeDegrees>
            </Position>
            <AltitudeMeters>780.4000244140625</AltitudeMeters>
            <DistanceMeters>16968.227205459</DistanceMeters>
          </Trackpoint>
          <Trackpoint>
            <Time>2021-04-01T08:33:14.000Z</Time>
            <Position>
              <LatitudeDegrees>42.41118961013853549957275390625</LatitudeDegrees>
              <LongitudeDegrees>2.77842010371387004852294921875</LongitudeDegrees>
            </Position>
            <AltitudeMeters>780.79998779296875</AltitudeMeters>
            <DistanceMeters>16971.174565895</DistanceMeters>
          </Trackpoint>
          <Trackpoint>
            <Time>2021-04-01T08:33:17.000Z</Time>
            <Position>
              <LatitudeDegrees>42.4111970700323581695556640625</LatitudeDegrees>
              <LongitudeDegrees>2.77839328162372112274169921875</LongitudeDegrees>
            </Position>
            <AltitudeMeters>781</AltitudeMeters>
            <DistanceMeters>16973.529235073</DistanceMeters>
          </Trackpoint>
          <Trackpoint>
            <Time>2021-04-01T08:33:18.000Z</Time>
            <Position>
              <LatitudeDegrees>42.41119765676558017730712890625</LatitudeDegrees>
              <LongitudeDegrees>2.7783797867596149444580078125</LongitudeDegrees>
            </Position>
            <AltitudeMeters>781.20001220703125</AltitudeMeters>
            <DistanceMeters>16974.637427473</DistanceMeters>
          </Trackpoint>
          <Trackpoint>
            <Time>2021-04-01T08:33:19.000Z</Time>
            <Position>
              <LatitudeDegrees>42.411198914051055908203125</LatitudeDegrees>
              <LongitudeDegrees>2.7783697284758090972900390625</LongitudeDegrees>
            </Position>
            <AltitudeMeters>781.4000244140625</AltitudeMeters>
            <DistanceMeters>16975.47668069</DistanceMeters>
          </Trackpoint>
          <Trackpoint>
            <Time>2021-04-01T08:33:22.000Z</Time>
            <Position>
              <LatitudeDegrees>42.4112014286220073699951171875</LatitudeDegrees>
              <LongitudeDegrees>2.77834751643240451812744140625</LongitudeDegrees>
            </Position>
            <AltitudeMeters>782</AltitudeMeters>
            <DistanceMeters>16977.324211176</DistanceMeters>
          </Trackpoint>
          <Trackpoint>
            <Time>2021-04-01T08:33:25.000Z</Time>
            <Position>
              <LatitudeDegrees>42.411201260983943939208984375</LatitudeDegrees>
              <LongitudeDegrees>2.77832019142806529998779296875</LongitudeDegrees>
            </Position>
            <AltitudeMeters>782.20001220703125</AltitudeMeters>
            <DistanceMeters>16979.568934468</DistanceMeters>
          </Trackpoint>
          <Trackpoint>
            <Time>2021-04-01T08:33:26.000Z</Time>
            <Position>
              <LatitudeDegrees>42.41120000369846820831298828125</LatitudeDegrees>
              <LongitudeDegrees>2.77831197716295719146728515625</LongitudeDegrees>
            </Position>
            <AltitudeMeters>782.4000244140625</AltitudeMeters>
            <DistanceMeters>16980.267235354</DistanceMeters>
          </Trackpoint>
          <Trackpoint>
            <Time>2021-04-01T08:33:31.000Z</Time>
            <Position>
              <LatitudeDegrees>42.41121810860931873321533203125</LatitudeDegrees>
              <LongitudeDegrees>2.77827375568449497222900390625</LongitudeDegrees>
            </Position>
            <AltitudeMeters>782.79998779296875</AltitudeMeters>
            <DistanceMeters>16983.997563463</DistanceMeters>
          </Trackpoint>
          <Trackpoint>
            <Time>2021-04-01T08:33:40.000Z</Time>
            <Position>
              <LatitudeDegrees>42.4112440086901187896728515625</LatitudeDegrees>
              <LongitudeDegrees>2.77819915674626827239990234375</LongitudeDegrees>
            </Position>
            <AltitudeMeters>783.4000244140625</AltitudeMeters>
            <DistanceMeters>16990.771175381</DistanceMeters>
          </Trackpoint>
          <Trackpoint>
            <Time>2021-04-01T08:33:41.000Z</Time>
            <Position>
              <LatitudeDegrees>42.4112476967275142669677734375</LatitudeDegrees>
              <LongitudeDegrees>2.778189517557621002197265625</LongitudeDegrees>
            </Position>
            <AltitudeMeters>783.5999755859375</AltitudeMeters>
            <DistanceMeters>16991.662604978</DistanceMeters>
          </Trackpoint>
          <Trackpoint>
            <Time>2021-04-01T08:33:45.000Z</Time>
            <Position>
              <LatitudeDegrees>42.41125616244971752166748046875</LatitudeDegrees>
              <LongitudeDegrees>2.7781538106501102447509765625</LongitudeDegrees>
            </Position>
            <AltitudeMeters>784</AltitudeMeters>
            <DistanceMeters>16994.744753647</DistanceMeters>
          </Trackpoint>
          <Trackpoint>
            <Time>2021-04-01T08:33:47.000Z</Time>
            <Position>
              <LatitudeDegrees>42.41125951521098613739013671875</LatitudeDegrees>
              <LongitudeDegrees>2.77814014814794063568115234375</LongitudeDegrees>
            </Position>
            <AltitudeMeters>784.20001220703125</AltitudeMeters>
            <DistanceMeters>16995.931636929</DistanceMeters>
          </Trackpoint>
          <Trackpoint>
            <Time>2021-04-01T08:33:50.000Z</Time>
            <Position>
              <LatitudeDegrees>42.41126672364771366119384765625</LatitudeDegrees>
              <LongitudeDegrees>2.7781112305819988250732421875</LongitudeDegrees>
            </Position>
            <AltitudeMeters>784.4000244140625</AltitudeMeters>
            <DistanceMeters>16998.438613835</DistanceMeters>
          </Trackpoint>
          <Trackpoint>
            <Time>2021-04-01T08:33:51.000Z</Time>
            <Position>
              <LatitudeDegrees>42.411268651485443115234375</LatitudeDegrees>
              <LongitudeDegrees>2.7781048603355884552001953125</LongitudeDegrees>
            </Position>
            <AltitudeMeters>784.4000244140625</AltitudeMeters>
            <DistanceMeters>16999.016638772</DistanceMeters>
          </Trackpoint>
          <Trackpoint>
            <Time>2021-04-01T08:33:59.000Z</Time>
            <Position>
              <LatitudeDegrees>42.41128784604370594024658203125</LatitudeDegrees>
              <LongitudeDegrees>2.77803839184343814849853515625</LongitudeDegrees>
            </Position>
            <AltitudeMeters>785.20001220703125</AltitudeMeters>
            <DistanceMeters>17004.88218148</DistanceMeters>
          </Trackpoint>
          <Trackpoint>
            <Time>2021-04-01T08:34:01.000Z</Time>
            <Position>
              <LatitudeDegrees>42.41128885187208652496337890625</LatitudeDegrees>
              <LongitudeDegrees>2.778020538389682769775390625</LongitudeDegrees>
            </Position>
            <AltitudeMeters>785.5999755859375</AltitudeMeters>
            <DistanceMeters>17006.351258833</DistanceMeters>
          </Trackpoint>
          <Trackpoint>
            <Time>2021-04-01T08:34:07.000Z</Time>
            <Position>
              <LatitudeDegrees>42.41128382273018360137939453125</LatitudeDegrees>
              <LongitudeDegrees>2.7779663912951946258544921875</LongitudeDegrees>
            </Position>
            <AltitudeMeters>786</AltitudeMeters>
            <DistanceMeters>17010.834667153</DistanceMeters>
          </Trackpoint>
          <Trackpoint>
            <Time>2021-04-01T08:34:10.000Z</Time>
            <Position>
              <LatitudeDegrees>42.4112815596163272857666015625</LatitudeDegrees>
              <LongitudeDegrees>2.77793931774795055389404296875</LongitudeDegrees>
            </Position>
            <AltitudeMeters>786.20001220703125</AltitudeMeters>
            <DistanceMeters>17013.07334811</DistanceMeters>
          </Trackpoint>
          <Trackpoint>
            <Time>2021-04-01T08:34:13.000Z</Time>
            <Position>
              <LatitudeDegrees>42.411280386149883270263671875</LatitudeDegrees>
              <LongitudeDegrees>2.777909897267818450927734375</LongitudeDegrees>
            </Position>
            <AltitudeMeters>786.5999755859375</AltitudeMeters>
            <DistanceMeters>17015.496063464</DistanceMeters>
          </Trackpoint>
          <Trackpoint>
            <Time>2021-04-01T08:34:16.000Z</Time>
            <Position>
              <LatitudeDegrees>42.4112865887582302093505859375</LatitudeDegrees>
              <LongitudeDegrees>2.77788600884377956390380859375</LongitudeDegrees>
            </Position>
            <AltitudeMeters>786.79998779296875</AltitudeMeters>
            <DistanceMeters>17017.577994465</DistanceMeters>
          </Trackpoint>
          <Trackpoint>
            <Time>2021-04-01T08:34:17.000Z</Time>
            <Position>
              <LatitudeDegrees>42.41128751076757907867431640625</LatitudeDegrees>
              <LongitudeDegrees>2.77787796221673488616943359375</LongitudeDegrees>
            </Position>
            <AltitudeMeters>787</AltitudeMeters>
            <DistanceMeters>17018.249934807</DistanceMeters>
          </Trackpoint>
          <Trackpoint>
            <Time>2021-04-01T08:34:24.000Z</Time>
            <Position>
              <LatitudeDegrees>42.41128742694854736328125</LatitudeDegrees>
              <LongitudeDegrees>2.777816690504550933837890625</LongitudeDegrees>
            </Position>
            <AltitudeMeters>787.5999755859375</AltitudeMeters>
            <DistanceMeters>17023.284557392</DistanceMeters>
          </Trackpoint>
          <Trackpoint>
            <Time>2021-04-01T08:34:25.000Z</Time>
            <Position>
              <LatitudeDegrees>42.41128918714821338653564453125</LatitudeDegrees>
              <LongitudeDegrees>2.7778088115155696868896484375</LongitudeDegrees>
            </Position>
            <AltitudeMeters>787.79998779296875</AltitudeMeters>
            <DistanceMeters>17023.963183872</DistanceMeters>
          </Trackpoint>
          <Trackpoint>
            <Time>2021-04-01T08:34:30.000Z</Time>
            <Position>
              <LatitudeDegrees>42.4112852476537227630615234375</LatitudeDegrees>
              <LongitudeDegrees>2.7777682431042194366455078125</LongitudeDegrees>
            </Position>
            <AltitudeMeters>788.4000244140625</AltitudeMeters>
            <DistanceMeters>17027.325572265</DistanceMeters>
          </Trackpoint>
          <Trackpoint>
            <Time>2021-04-01T08:34:33.000Z</Time>
            <Position>
              <LatitudeDegrees>42.41128097288310527801513671875</LatitudeDegrees>
              <LongitudeDegrees>2.77774217538535594940185546875</LongitudeDegrees>
            </Position>
            <AltitudeMeters>788.5999755859375</AltitudeMeters>
            <DistanceMeters>17029.517375328</DistanceMeters>
          </Trackpoint>
          <Trackpoint>
            <Time>2021-04-01T08:34:34.000Z</Time>
            <Position>
              <LatitudeDegrees>42.41127577610313892364501953125</LatitudeDegrees>
              <LongitudeDegrees>2.77772909961640834808349609375</LongitudeDegrees>
            </Position>
            <AltitudeMeters>788.79998779296875</AltitudeMeters>
            <DistanceMeters>17030.738015575</DistanceMeters>
          </Trackpoint>
          <Trackpoint>
            <Time>2021-04-01T08:34:38.000Z</Time>
            <Position>
              <LatitudeDegrees>42.4112731777131557464599609375</LatitudeDegrees>
              <LongitudeDegrees>2.77770194225013256072998046875</LongitudeDegrees>
            </Position>
            <AltitudeMeters>789.20001220703125</AltitudeMeters>
            <DistanceMeters>17032.990770103</DistanceMeters>
          </Trackpoint>
          <Trackpoint>
            <Time>2021-04-01T08:34:40.000Z</Time>
            <Position>
              <LatitudeDegrees>42.4112751893699169158935546875</LatitudeDegrees>
              <LongitudeDegrees>2.77768853120505809783935546875</LongitudeDegrees>
            </Position>
            <AltitudeMeters>789.4000244140625</AltitudeMeters>
            <DistanceMeters>17034.115141351</DistanceMeters>
          </Trackpoint>
          <Trackpoint>
            <Time>2021-04-01T08:34:43.000Z</Time>
            <Position>
              <LatitudeDegrees>42.41127510555088520050048828125</LatitudeDegrees>
              <LongitudeDegrees>2.77766489423811435699462890625</LongitudeDegrees>
            </Position>
            <AltitudeMeters>789.79998779296875</AltitudeMeters>
            <DistanceMeters>17036.057967116</DistanceMeters>
          </Trackpoint>
          <Trackpoint>
            <Time>2021-04-01T08:34:47.000Z</Time>
            <Position>
              <LatitudeDegrees>42.4112758599221706390380859375</LatitudeDegrees>
              <LongitudeDegrees>2.7776301093399524688720703125</LongitudeDegrees>
            </Position>
            <AltitudeMeters>790</AltitudeMeters>
            <DistanceMeters>17038.918255433</DistanceMeters>
          </Trackpoint>
          <Trackpoint>
            <Time>2021-04-01T08:34:53.000Z</Time>
            <Position>
              <LatitudeDegrees>42.4112708307802677154541015625</LatitudeDegrees>
              <LongitudeDegrees>2.7775985933840274810791015625</LongitudeDegrees>
            </Position>
            <AltitudeMeters>790.4000244140625</AltitudeMeters>
            <DistanceMeters>17041.568802447</DistanceMeters>
          </Trackpoint>
          <Trackpoint>
            <Time>2021-04-01T08:35:01.000Z</Time>
            <Position>
              <LatitudeDegrees>42.4112580902874469757080078125</LatitudeDegrees>
              <LongitudeDegrees>2.77759348042309284210205078125</LongitudeDegrees>
            </Position>
            <AltitudeMeters>790.5999755859375</AltitudeMeters>
            <DistanceMeters>17043.050122323</DistanceMeters>
          </Trackpoint>
          <Trackpoint>
            <Time>2021-04-01T08:35:03.000Z</Time>
            <Position>
              <LatitudeDegrees>42.4112544022500514984130859375</LatitudeDegrees>
              <LongitudeDegrees>2.777574621140956878662109375</LongitudeDegrees>
            </Position>
            <AltitudeMeters>790.5999755859375</AltitudeMeters>
            <DistanceMeters>17044.651540979</DistanceMeters>
          </Trackpoint>
          <Trackpoint>
            <Time>2021-04-01T08:35:06.000Z</Time>
            <Position>
              <LatitudeDegrees>42.411250881850719451904296875</LatitudeDegrees>
              <LongitudeDegrees>2.77755056507885456085205078125</LongitudeDegrees>
            </Position>
            <AltitudeMeters>791</AltitudeMeters>
            <DistanceMeters>17046.667362002</DistanceMeters>
          </Trackpoint>
          <Trackpoint>
            <Time>2021-04-01T08:35:14.000Z</Time>
            <Position>
              <LatitudeDegrees>42.41124384105205535888671875</LatitudeDegrees>
              <LongitudeDegrees>2.7774732001125812530517578125</LongitudeDegrees>
            </Position>
            <AltitudeMeters>792</AltitudeMeters>
            <DistanceMeters>17053.073036624</DistanceMeters>
          </Trackpoint>
          <Trackpoint>
            <Time>2021-04-01T08:35:15.000Z</Time>
            <Position>
              <LatitudeDegrees>42.411242835223674774169921875</LatitudeDegrees>
              <LongitudeDegrees>2.7774648182094097137451171875</LongitudeDegrees>
            </Position>
            <AltitudeMeters>792</AltitudeMeters>
            <DistanceMeters>17053.771337511</DistanceMeters>
          </Trackpoint>
          <Trackpoint>
            <Time>2021-04-01T08:35:25.000Z</Time>
            <Position>
              <LatitudeDegrees>42.41124560125172138214111328125</LatitudeDegrees>
              <LongitudeDegrees>2.77738410048186779022216796875</LongitudeDegrees>
            </Position>
            <AltitudeMeters>792.79998779296875</AltitudeMeters>
            <DistanceMeters>17060.412338441</DistanceMeters>
          </Trackpoint>
          <Trackpoint>
            <Time>2021-04-01T08:35:27.000Z</Time>
            <Position>
              <LatitudeDegrees>42.41124928928911685943603515625</LatitudeDegrees>
              <LongitudeDegrees>2.7773682586848735809326171875</LongitudeDegrees>
            </Position>
            <AltitudeMeters>793</AltitudeMeters>
            <DistanceMeters>17061.779534778</DistanceMeters>
          </Trackpoint>
          <Trackpoint>
            <Time>2021-04-01T08:35:31.000Z</Time>
            <Position>
              <LatitudeDegrees>42.4112537316977977752685546875</LatitudeDegrees>
              <LongitudeDegrees>2.7773411013185977935791015625</LongitudeDegrees>
            </Position>
            <AltitudeMeters>793.5999755859375</AltitudeMeters>
            <DistanceMeters>17064.066107379</DistanceMeters>
          </Trackpoint>
          <Trackpoint>
            <Time>2021-04-01T08:35:32.000Z</Time>
            <Position>
              <LatitudeDegrees>42.4112567491829395294189453125</LatitudeDegrees>
              <LongitudeDegrees>2.77733020484447479248046875</LongitudeDegrees>
            </Position>
            <AltitudeMeters>793.5999755859375</AltitudeMeters>
            <DistanceMeters>17065.02583015</DistanceMeters>
          </Trackpoint>
          <Trackpoint>
            <Time>2021-04-01T08:35:34.000Z</Time>
            <Position>
              <LatitudeDegrees>42.4112644605338573455810546875</LatitudeDegrees>
              <LongitudeDegrees>2.77731771580874919891357421875</LongitudeDegrees>
            </Position>
            <AltitudeMeters>793.79998779296875</AltitudeMeters>
            <DistanceMeters>17066.366346921</DistanceMeters>
          </Trackpoint>
          <Trackpoint>
            <Time>2021-04-01T08:35:37.000Z</Time>
            <Position>
              <LatitudeDegrees>42.41127242334187030792236328125</LatitudeDegrees>
              <LongitudeDegrees>2.77729332447052001953125</LongitudeDegrees>
            </Position>
            <AltitudeMeters>794</AltitudeMeters>
            <DistanceMeters>17068.558149984</DistanceMeters>
          </Trackpoint>
          <Trackpoint>
            <Time>2021-04-01T08:35:38.000Z</Time>
            <Position>
              <LatitudeDegrees>42.41127560846507549285888671875</LatitudeDegrees>
              <LongitudeDegrees>2.77728636749088764190673828125</LongitudeDegrees>
            </Position>
            <AltitudeMeters>794</AltitudeMeters>
            <DistanceMeters>17069.230090325</DistanceMeters>
          </Trackpoint>
          <Trackpoint>
            <Time>2021-04-01T08:35:40.000Z</Time>
            <Position>
              <LatitudeDegrees>42.41128298453986644744873046875</LatitudeDegrees>
              <LongitudeDegrees>2.77726759202778339385986328125</LongitudeDegrees>
            </Position>
            <AltitudeMeters>794.20001220703125</AltitudeMeters>
            <DistanceMeters>17070.977135213</DistanceMeters>
          </Trackpoint>
          <Trackpoint>
            <Time>2021-04-01T08:35:48.000Z</Time>
            <Position>
              <LatitudeDegrees>42.4112989939749240875244140625</LatitudeDegrees>
              <LongitudeDegrees>2.77719835750758647918701171875</LongitudeDegrees>
            </Position>
            <AltitudeMeters>794.5999755859375</AltitudeMeters>
            <DistanceMeters>17076.93887832</DistanceMeters>
          </Trackpoint>
          <Trackpoint>
            <Time>2021-04-01T08:35:55.000Z</Time>
            <Position>
              <LatitudeDegrees>42.41132296621799468994140625</LatitudeDegrees>
              <LongitudeDegrees>2.77713381685316562652587890625</LongitudeDegrees>
            </Position>
            <AltitudeMeters>795</AltitudeMeters>
            <DistanceMeters>17082.87557676</DistanceMeters>
          </Trackpoint>
          <Trackpoint>
            <Time>2021-04-01T08:35:59.000Z</Time>
            <Position>
              <LatitudeDegrees>42.41133864037692546844482421875</LatitudeDegrees>
              <LongitudeDegrees>2.77709106914699077606201171875</LongitudeDegrees>
            </Position>
            <AltitudeMeters>795.79998779296875</AltitudeMeters>
            <DistanceMeters>17086.79823533</DistanceMeters>
          </Trackpoint>
          <Trackpoint>
            <Time>2021-04-01T08:36:02.000Z</Time>
            <Position>
              <LatitudeDegrees>42.41134232841432094573974609375</LatitudeDegrees>
              <LongitudeDegrees>2.777067683637142181396484375</LongitudeDegrees>
            </Position>
            <AltitudeMeters>796.20001220703125</AltitudeMeters>
            <DistanceMeters>17088.764163284</DistanceMeters>
          </Trackpoint>
          <Trackpoint>
            <Time>2021-04-01T08:36:06.000Z</Time>
            <Position>
              <LatitudeDegrees>42.41135917603969573974609375</LatitudeDegrees>
              <LongitudeDegrees>2.777050249278545379638671875</LongitudeDegrees>
            </Position>
            <AltitudeMeters>796.79998779296875</AltitudeMeters>
            <DistanceMeters>17091.126489942</DistanceMeters>
          </Trackpoint>
          <Trackpoint>
            <Time>2021-04-01T08:36:10.000Z</Time>
            <Position>
              <LatitudeDegrees>42.4113799631595611572265625</LatitudeDegrees>
              <LongitudeDegrees>2.77702367864549160003662109375</LongitudeDegrees>
            </Position>
            <AltitudeMeters>797.20001220703125</AltitudeMeters>
            <DistanceMeters>17094.309530277</DistanceMeters>
          </Trackpoint>
          <Trackpoint>
            <Time>2021-04-01T08:36:14.000Z</Time>
            <Position>
              <LatitudeDegrees>42.41138239391148090362548828125</LatitudeDegrees>
              <LongitudeDegrees>2.77701613493263721466064453125</LongitudeDegrees>
            </Position>
            <AltitudeMeters>797.5999755859375</AltitudeMeters>
            <DistanceMeters>17094.988156756</DistanceMeters>
          </Trackpoint>
          <Trackpoint>
            <Time>2021-04-01T08:36:19.000Z</Time>
            <Position>
              <LatitudeDegrees>42.411382980644702911376953125</LatitudeDegrees>
              <LongitudeDegrees>2.7769997902214527130126953125</LongitudeDegrees>
            </Position>
            <AltitudeMeters>797.79998779296875</AltitudeMeters>
            <DistanceMeters>17096.332037439</DistanceMeters>
          </Trackpoint>
          <Trackpoint>
            <Time>2021-04-01T08:36:24.000Z</Time>
            <Position>
              <LatitudeDegrees>42.411382980644702911376953125</LatitudeDegrees>
              <LongitudeDegrees>2.77696584351360797882080078125</LongitudeDegrees>
            </Position>
            <AltitudeMeters>798</AltitudeMeters>
            <DistanceMeters>17099.122006237</DistanceMeters>
          </Trackpoint>
          <Trackpoint>
            <Time>2021-04-01T08:36:27.000Z</Time>
            <Position>
              <LatitudeDegrees>42.41139882244169712066650390625</LatitudeDegrees>
              <LongitudeDegrees>2.77694203890860080718994140625</LongitudeDegrees>
            </Position>
            <AltitudeMeters>798.20001220703125</AltitudeMeters>
            <DistanceMeters>17101.755463795</DistanceMeters>
          </Trackpoint>
          <Trackpoint>
            <Time>2021-04-01T08:36:30.000Z</Time>
            <Position>
              <LatitudeDegrees>42.41140955127775669097900390625</LatitudeDegrees>
              <LongitudeDegrees>2.77692527510225772857666015625</LongitudeDegrees>
            </Position>
            <AltitudeMeters>798.5999755859375</AltitudeMeters>
            <DistanceMeters>17103.580867369</DistanceMeters>
          </Trackpoint>
          <Trackpoint>
            <Time>2021-04-01T08:36:36.000Z</Time>
            <Position>
              <LatitudeDegrees>42.41142933256924152374267578125</LatitudeDegrees>
              <LongitudeDegrees>2.7769003808498382568359375</LongitudeDegrees>
            </Position>
            <AltitudeMeters>799.4000244140625</AltitudeMeters>
            <DistanceMeters>17106.585875928</DistanceMeters>
          </Trackpoint>
          <Trackpoint>
            <Time>2021-04-01T08:36:38.000Z</Time>
            <Position>
              <LatitudeDegrees>42.41143184714019298553466796875</LatitudeDegrees>
              <LongitudeDegrees>2.7768804319202899932861328125</LongitudeDegrees>
            </Position>
            <AltitudeMeters>799.5999755859375</AltitudeMeters>
            <DistanceMeters>17108.248164529</DistanceMeters>
          </Trackpoint>
          <Trackpoint>
            <Time>2021-04-01T08:36:39.000Z</Time>
            <Position>
              <LatitudeDegrees>42.41143838502466678619384765625</LatitudeDegrees>
              <LongitudeDegrees>2.77687154710292816162109375</LongitudeDegrees>
            </Position>
            <AltitudeMeters>799.5999755859375</AltitudeMeters>
            <DistanceMeters>17109.280418868</DistanceMeters>
          </Trackpoint>
          <Trackpoint>
            <Time>2021-04-01T08:36:41.000Z</Time>
            <Position>
              <LatitudeDegrees>42.41145447827875614166259765625</LatitudeDegrees>
              <LongitudeDegrees>2.77685419656336307525634765625</LongitudeDegrees>
            </Position>
            <AltitudeMeters>799.79998779296875</AltitudeMeters>
            <DistanceMeters>17111.57093724</DistanceMeters>
          </Trackpoint>
          <Trackpoint>
            <Time>2021-04-01T08:36:45.000Z</Time>
            <Position>
              <LatitudeDegrees>42.4114743433892726898193359375</LatitudeDegrees>
              <LongitudeDegrees>2.77683265507221221923828125</LongitudeDegrees>
            </Position>
            <AltitudeMeters>800.5999755859375</AltitudeMeters>
            <DistanceMeters>17114.404263547</DistanceMeters>
          </Trackpoint>
          <Trackpoint>
            <Time>2021-04-01T08:36:46.000Z</Time>
            <Position>
              <LatitudeDegrees>42.411476187407970428466796875</LatitudeDegrees>
              <LongitudeDegrees>2.776824273169040679931640625</LongitudeDegrees>
            </Position>
            <AltitudeMeters>800.5999755859375</AltitudeMeters>
            <DistanceMeters>17115.127965442</DistanceMeters>
          </Trackpoint>
          <Trackpoint>
            <Time>2021-04-01T08:36:52.000Z</Time>
            <Position>
              <LatitudeDegrees>42.41151130758225917816162109375</LatitudeDegrees>
              <LongitudeDegrees>2.77678345330059528350830078125</LongitudeDegrees>
            </Position>
            <AltitudeMeters>801</AltitudeMeters>
            <DistanceMeters>17120.278728938</DistanceMeters>
          </Trackpoint>
          <Trackpoint>
            <Time>2021-04-01T08:36:53.000Z</Time>
            <Position>
              <LatitudeDegrees>42.41151298396289348602294921875</LatitudeDegrees>
              <LongitudeDegrees>2.7767734788358211517333984375</LongitudeDegrees>
            </Position>
            <AltitudeMeters>801.20001220703125</AltitudeMeters>
            <DistanceMeters>17121.123344851</DistanceMeters>
          </Trackpoint>
          <Trackpoint>
            <Time>2021-04-01T08:36:56.000Z</Time>
            <Position>
              <LatitudeDegrees>42.4115149118006229400634765625</LatitudeDegrees>
              <LongitudeDegrees>2.776746489107608795166015625</LongitudeDegrees>
            </Position>
            <AltitudeMeters>801.5999755859375</AltitudeMeters>
            <DistanceMeters>17123.351918844</DistanceMeters>
          </Trackpoint>
          <Trackpoint>
            <Time>2021-04-01T08:37:02.000Z</Time>
            <Position>
              <LatitudeDegrees>42.41154491901397705078125</LatitudeDegrees>
              <LongitudeDegrees>2.776690833270549774169921875</LongitudeDegrees>
            </Position>
            <AltitudeMeters>802.20001220703125</AltitudeMeters>
            <DistanceMeters>17129.013788798</DistanceMeters>
          </Trackpoint>
          <Trackpoint>
            <Time>2021-04-01T08:37:05.000Z</Time>
            <Position>
              <LatitudeDegrees>42.4115531332790851593017578125</LatitudeDegrees>
              <LongitudeDegrees>2.7766628377139568328857421875</LongitudeDegrees>
            </Position>
            <AltitudeMeters>802.4000244140625</AltitudeMeters>
            <DistanceMeters>17131.488135546</DistanceMeters>
          </Trackpoint>
          <Trackpoint>
            <Time>2021-04-01T08:37:09.000Z</Time>
            <Position>
              <LatitudeDegrees>42.4115558154881000518798828125</LatitudeDegrees>
              <LongitudeDegrees>2.77662252075970172882080078125</LongitudeDegrees>
            </Position>
            <AltitudeMeters>802.5999755859375</AltitudeMeters>
            <DistanceMeters>17134.815427796</DistanceMeters>
          </Trackpoint>
          <Trackpoint>
            <Time>2021-04-01T08:37:11.000Z</Time>
            <Position>
              <LatitudeDegrees>42.411553971469402313232421875</LatitudeDegrees>
              <LongitudeDegrees>2.7766078524291515350341796875</LongitudeDegrees>
            </Position>
            <AltitudeMeters>802.79998779296875</AltitudeMeters>
            <DistanceMeters>17136.036068044</DistanceMeters>
          </Trackpoint>
          <Trackpoint>
            <Time>2021-04-01T08:37:12.000Z</Time>
            <Position>
              <LatitudeDegrees>42.411555983126163482666015625</LatitudeDegrees>
              <LongitudeDegrees>2.7766044996678829193115234375</LongitudeDegrees>
            </Position>
            <AltitudeMeters>802.79998779296875</AltitudeMeters>
            <DistanceMeters>17136.365250238</DistanceMeters>
          </Trackpoint>
          <Trackpoint>
            <Time>2021-04-01T08:37:16.000Z</Time>
            <Position>
              <LatitudeDegrees>42.41157216019928455352783203125</LatitudeDegrees>
              <LongitudeDegrees>2.7765753306448459625244140625</LongitudeDegrees>
            </Position>
            <AltitudeMeters>803.4000244140625</AltitudeMeters>
            <DistanceMeters>17139.362736863</DistanceMeters>
          </Trackpoint>
          <Trackpoint>
            <Time>2021-04-01T08:37:18.000Z</Time>
            <Position>
              <LatitudeDegrees>42.41157601587474346160888671875</LatitudeDegrees>
              <LongitudeDegrees>2.77655848301947116851806640625</LongitudeDegrees>
            </Position>
            <AltitudeMeters>803.5999755859375</AltitudeMeters>
            <DistanceMeters>17140.810140654</DistanceMeters>
          </Trackpoint>
          <Trackpoint>
            <Time>2021-04-01T08:37:22.000Z</Time>
            <Position>
              <LatitudeDegrees>42.411585487425327301025390625</LatitudeDegrees>
              <LongitudeDegrees>2.7765300683677196502685546875</LongitudeDegrees>
            </Position>
            <AltitudeMeters>804.20001220703125</AltitudeMeters>
            <DistanceMeters>17143.370577237</DistanceMeters>
          </Trackpoint>
          <Trackpoint>
            <Time>2021-04-01T08:37:25.000Z</Time>
            <Position>
              <LatitudeDegrees>42.41159395314753055572509765625</LatitudeDegrees>
              <LongitudeDegrees>2.77651456184685230255126953125</LongitudeDegrees>
            </Position>
            <AltitudeMeters>804.79998779296875</AltitudeMeters>
            <DistanceMeters>17144.954989195</DistanceMeters>
          </Trackpoint>
          <Trackpoint>
            <Time>2021-04-01T08:37:27.000Z</Time>
            <Position>
              <LatitudeDegrees>42.411593534052371978759765625</LatitudeDegrees>
              <LongitudeDegrees>2.77650651521980762481689453125</LongitudeDegrees>
            </Position>
            <AltitudeMeters>805</AltitudeMeters>
            <DistanceMeters>17145.626929536</DistanceMeters>
          </Trackpoint>
          <Trackpoint>
            <Time>2021-04-01T08:37:28.000Z</Time>
            <Position>
              <LatitudeDegrees>42.411598227918148040771484375</LatitudeDegrees>
              <LongitudeDegrees>2.7765012346208095550537109375</LongitudeDegrees>
            </Position>
            <AltitudeMeters>805.20001220703125</AltitudeMeters>
            <DistanceMeters>17146.312176919</DistanceMeters>
          </Trackpoint>
          <Trackpoint>
            <Time>2021-04-01T08:37:35.000Z</Time>
            <Position>
              <LatitudeDegrees>42.4116443283855915069580078125</LatitudeDegrees>
              <LongitudeDegrees>2.77644834481179714202880859375</LongitudeDegrees>
            </Position>
            <AltitudeMeters>805.79998779296875</AltitudeMeters>
            <DistanceMeters>17153.036953705</DistanceMeters>
          </Trackpoint>
          <Trackpoint>
            <Time>2021-04-01T08:37:36.000Z</Time>
            <Position>
              <LatitudeDegrees>42.4116470105946063995361328125</LatitudeDegrees>
              <LongitudeDegrees>2.776444070041179656982421875</LongitudeDegrees>
            </Position>
            <AltitudeMeters>806</AltitudeMeters>
            <DistanceMeters>17153.492685818</DistanceMeters>
          </Trackpoint>
          <Trackpoint>
            <Time>2021-04-01T08:37:39.000Z</Time>
            <Position>
              <LatitudeDegrees>42.411647848784923553466796875</LatitudeDegrees>
              <LongitudeDegrees>2.7764224447309970855712890625</LongitudeDegrees>
            </Position>
            <AltitudeMeters>806.20001220703125</AltitudeMeters>
            <DistanceMeters>17155.273010741</DistanceMeters>
          </Trackpoint>
          <Trackpoint>
            <Time>2021-04-01T08:37:43.000Z</Time>
            <Position>
              <LatitudeDegrees>42.4116657860577106475830078125</LatitudeDegrees>
              <LongitudeDegrees>2.77640610001981258392333984375</LongitudeDegrees>
            </Position>
            <AltitudeMeters>806.79998779296875</AltitudeMeters>
            <DistanceMeters>17157.680770919</DistanceMeters>
          </Trackpoint>
          <Trackpoint>
            <Time>2021-04-01T08:37:46.000Z</Time>
            <Position>
              <LatitudeDegrees>42.4116698093712329864501953125</LatitudeDegrees>
              <LongitudeDegrees>2.776384055614471435546875</LongitudeDegrees>
            </Position>
            <AltitudeMeters>807</AltitudeMeters>
            <DistanceMeters>17159.54774963</DistanceMeters>
          </Trackpoint>
          <Trackpoint>
            <Time>2021-04-01T08:37:49.000Z</Time>
            <Position>
              <LatitudeDegrees>42.41169470362365245819091796875</LatitudeDegrees>
              <LongitudeDegrees>2.776367962360382080078125</LongitudeDegrees>
            </Position>
            <AltitudeMeters>807.20001220703125</AltitudeMeters>
            <DistanceMeters>17162.618156738</DistanceMeters>
          </Trackpoint>
          <Trackpoint>
            <Time>2021-04-01T08:37:51.000Z</Time>
            <Position>
              <LatitudeDegrees>42.4117043428122997283935546875</LatitudeDegrees>
              <LongitudeDegrees>2.77635312639176845550537109375</LongitudeDegrees>
            </Position>
            <AltitudeMeters>807.4000244140625</AltitudeMeters>
            <DistanceMeters>17164.241973945</DistanceMeters>
          </Trackpoint>
          <Trackpoint>
            <Time>2021-04-01T08:37:55.000Z</Time>
            <Position>
              <LatitudeDegrees>42.4117338471114635467529296875</LatitudeDegrees>
              <LongitudeDegrees>2.77632982470095157623291015625</LongitudeDegrees>
            </Position>
            <AltitudeMeters>808</AltitudeMeters>
            <DistanceMeters>17168.04304252</DistanceMeters>
          </Trackpoint>
          <Trackpoint>
            <Time>2021-04-01T08:37:56.000Z</Time>
            <Position>
              <LatitudeDegrees>42.4117439053952693939208984375</LatitudeDegrees>
              <LongitudeDegrees>2.77632714249193668365478515625</LongitudeDegrees>
            </Position>
            <AltitudeMeters>808</AltitudeMeters>
            <DistanceMeters>17169.183363092</DistanceMeters>
          </Trackpoint>
          <Trackpoint>
            <Time>2021-04-01T08:37:58.000Z</Time>
            <Position>
              <LatitudeDegrees>42.41175354458391666412353515625</LatitudeDegrees>
              <LongitudeDegrees>2.7763255499303340911865234375</LongitudeDegrees>
            </Position>
            <AltitudeMeters>808.20001220703125</AltitudeMeters>
            <DistanceMeters>17170.262659095</DistanceMeters>
          </Trackpoint>
          <Trackpoint>
            <Time>2021-04-01T08:38:01.000Z</Time>
            <Position>
              <LatitudeDegrees>42.41176418960094451904296875</LatitudeDegrees>
              <LongitudeDegrees>2.77631306089460849761962890625</LongitudeDegrees>
            </Position>
            <AltitudeMeters>808.79998779296875</AltitudeMeters>
            <DistanceMeters>17171.829879817</DistanceMeters>
          </Trackpoint>
          <Trackpoint>
            <Time>2021-04-01T08:38:02.000Z</Time>
            <Position>
              <LatitudeDegrees>42.41176846437156200408935546875</LatitudeDegrees>
              <LongitudeDegrees>2.77631004340946674346923828125</LongitudeDegrees>
            </Position>
            <AltitudeMeters>809</AltitudeMeters>
            <DistanceMeters>17172.36743209</DistanceMeters>
          </Trackpoint>
          <Trackpoint>
            <Time>2021-04-01T08:38:04.000Z</Time>
            <Position>
              <LatitudeDegrees>42.4117804504930973052978515625</LatitudeDegrees>
              <LongitudeDegrees>2.7763074450194835662841796875</LongitudeDegrees>
            </Position>
            <AltitudeMeters>809.20001220703125</AltitudeMeters>
            <DistanceMeters>17173.718015461</DistanceMeters>
          </Trackpoint>
          <Trackpoint>
            <Time>2021-04-01T08:38:05.000Z</Time>
            <Position>
              <LatitudeDegrees>42.41178824566304683685302734375</LatitudeDegrees>
              <LongitudeDegrees>2.776303254067897796630859375</LongitudeDegrees>
            </Position>
            <AltitudeMeters>809.20001220703125</AltitudeMeters>
            <DistanceMeters>17174.64908331</DistanceMeters>
          </Trackpoint>
          <Trackpoint>
            <Time>2021-04-01T08:38:06.000Z</Time>
            <Position>
              <LatitudeDegrees>42.4117957055568695068359375</LatitudeDegrees>
              <LongitudeDegrees>2.776298224925994873046875</LongitudeDegrees>
            </Position>
            <AltitudeMeters>809.4000244140625</AltitudeMeters>
            <DistanceMeters>17175.580151158</DistanceMeters>
          </Trackpoint>
          <Trackpoint>
            <Time>2021-04-01T08:38:10.000Z</Time>
            <Position>
              <LatitudeDegrees>42.4118220247328281402587890625</LatitudeDegrees>
              <LongitudeDegrees>2.77627584524452686309814453125</LongitudeDegrees>
            </Position>
            <AltitudeMeters>809.5999755859375</AltitudeMeters>
            <DistanceMeters>17179.037870235</DistanceMeters>
          </Trackpoint>
          <Trackpoint>
            <Time>2021-04-01T08:38:13.000Z</Time>
            <Position>
              <LatitudeDegrees>42.4118347652256488800048828125</LatitudeDegrees>
              <LongitudeDegrees>2.77626805007457733154296875</LongitudeDegrees>
            </Position>
            <AltitudeMeters>809.79998779296875</AltitudeMeters>
            <DistanceMeters>17180.593524594</DistanceMeters>
          </Trackpoint>
          <Trackpoint>
            <Time>2021-04-01T08:38:15.000Z</Time>
            <Position>
              <LatitudeDegrees>42.4118404649198055267333984375</LatitudeDegrees>
              <LongitudeDegrees>2.77625438757240772247314453125</LongitudeDegrees>
            </Position>
            <AltitudeMeters>810</AltitudeMeters>
            <DistanceMeters>17181.882529663</DistanceMeters>
          </Trackpoint>
          <Trackpoint>
            <Time>2021-04-01T08:38:21.000Z</Time>
            <Position>
              <LatitudeDegrees>42.41186452098190784454345703125</LatitudeDegrees>
              <LongitudeDegrees>2.77620979584753513336181640625</LongitudeDegrees>
            </Position>
            <AltitudeMeters>810.79998779296875</AltitudeMeters>
            <DistanceMeters>17186.419993083</DistanceMeters>
          </Trackpoint>
          <Trackpoint>
            <Time>2021-04-01T08:38:24.000Z</Time>
            <Position>
              <LatitudeDegrees>42.411875165998935699462890625</LatitudeDegrees>
              <LongitudeDegrees>2.77618490159511566162109375</LongitudeDegrees>
            </Position>
            <AltitudeMeters>811.20001220703125</AltitudeMeters>
            <DistanceMeters>17188.784230237</DistanceMeters>
          </Trackpoint>
          <Trackpoint>
            <Time>2021-04-01T08:38:28.000Z</Time>
            <Position>
              <LatitudeDegrees>42.41188681684434413909912109375</LatitudeDegrees>
              <LongitudeDegrees>2.77615698985755443572998046875</LongitudeDegrees>
            </Position>
            <AltitudeMeters>811.79998779296875</AltitudeMeters>
            <DistanceMeters>17191.417687795</DistanceMeters>
          </Trackpoint>
          <Trackpoint>
            <Time>2021-04-01T08:38:31.000Z</Time>
            <Position>
              <LatitudeDegrees>42.41189134307205677032470703125</LatitudeDegrees>
              <LongitudeDegrees>2.7761297486722469329833984375</LongitudeDegrees>
            </Position>
            <AltitudeMeters>812.4000244140625</AltitudeMeters>
            <DistanceMeters>17193.712145152</DistanceMeters>
          </Trackpoint>
          <Trackpoint>
            <Time>2021-04-01T08:38:34.000Z</Time>
            <Position>
              <LatitudeDegrees>42.411898635327816009521484375</LatitudeDegrees>
              <LongitudeDegrees>2.7761099673807621002197265625</LongitudeDegrees>
            </Position>
            <AltitudeMeters>812.79998779296875</AltitudeMeters>
            <DistanceMeters>17195.530113243</DistanceMeters>
          </Trackpoint>
          <Trackpoint>
            <Time>2021-04-01T08:38:39.000Z</Time>
            <Position>
              <LatitudeDegrees>42.41190366446971893310546875</LatitudeDegrees>
              <LongitudeDegrees>2.77605892159044742584228515625</LongitudeDegrees>
            </Position>
            <AltitudeMeters>813.4000244140625</AltitudeMeters>
            <DistanceMeters>17199.761737233</DistanceMeters>
          </Trackpoint>
          <Trackpoint>
            <Time>2021-04-01T08:38:40.000Z</Time>
            <Position>
              <LatitudeDegrees>42.4119034968316555023193359375</LatitudeDegrees>
              <LongitudeDegrees>2.7760512940585613250732421875</LongitudeDegrees>
            </Position>
            <AltitudeMeters>813.5999755859375</AltitudeMeters>
            <DistanceMeters>17200.392073146</DistanceMeters>
          </Trackpoint>
          <Trackpoint>
            <Time>2021-04-01T08:38:50.000Z</Time>
            <Position>
              <LatitudeDegrees>42.4119298160076141357421875</LatitudeDegrees>
              <LongitudeDegrees>2.77596806176006793975830078125</LongitudeDegrees>
            </Position>
            <AltitudeMeters>814.20001220703125</AltitudeMeters>
            <DistanceMeters>17207.833338411</DistanceMeters>
          </Trackpoint>
          <Trackpoint>
            <Time>2021-04-01T08:38:53.000Z</Time>
            <Position>
              <LatitudeDegrees>42.411941550672054290771484375</LatitudeDegrees>
              <LongitudeDegrees>2.77595180086791515350341796875</LongitudeDegrees>
            </Position>
            <AltitudeMeters>814.4000244140625</AltitudeMeters>
            <DistanceMeters>17209.702733924</DistanceMeters>
          </Trackpoint>
          <Trackpoint>
            <Time>2021-04-01T08:38:58.000Z</Time>
            <Position>
              <LatitudeDegrees>42.4119641818106174468994140625</LatitudeDegrees>
              <LongitudeDegrees>2.7759094722568988800048828125</LongitudeDegrees>
            </Position>
            <AltitudeMeters>815.20001220703125</AltitudeMeters>
            <DistanceMeters>17213.996848047</DistanceMeters>
          </Trackpoint>
          <Trackpoint>
            <Time>2021-04-01T08:39:00.000Z</Time>
            <Position>
              <LatitudeDegrees>42.4119695462286472320556640625</LatitudeDegrees>
              <LongitudeDegrees>2.77589580975472927093505859375</LongitudeDegrees>
            </Position>
            <AltitudeMeters>815.5999755859375</AltitudeMeters>
            <DistanceMeters>17215.268218836</DistanceMeters>
          </Trackpoint>
          <Trackpoint>
            <Time>2021-04-01T08:39:07.000Z</Time>
            <Position>
              <LatitudeDegrees>42.412003576755523681640625</LatitudeDegrees>
              <LongitudeDegrees>2.77583445422351360321044921875</LongitudeDegrees>
            </Position>
            <AltitudeMeters>816.20001220703125</AltitudeMeters>
            <DistanceMeters>17221.573726475</DistanceMeters>
          </Trackpoint>
          <Trackpoint>
            <Time>2021-04-01T08:39:10.000Z</Time>
            <Position>
              <LatitudeDegrees>42.4120107851922512054443359375</LatitudeDegrees>
              <LongitudeDegrees>2.7758082188665866851806640625</LongitudeDegrees>
            </Position>
            <AltitudeMeters>816.5999755859375</AltitudeMeters>
            <DistanceMeters>17223.874079664</DistanceMeters>
          </Trackpoint>
          <Trackpoint>
            <Time>2021-04-01T08:39:19.000Z</Time>
            <Position>
              <LatitudeDegrees>42.41202377714216709136962890625</LatitudeDegrees>
              <LongitudeDegrees>2.775713838636875152587890625</LongitudeDegrees>
            </Position>
            <AltitudeMeters>817.20001220703125</AltitudeMeters>
            <DistanceMeters>17231.76301412</DistanceMeters>
          </Trackpoint>
          <Trackpoint>
            <Time>2021-04-01T08:39:24.000Z</Time>
            <Position>
              <LatitudeDegrees>42.4120396189391613006591796875</LatitudeDegrees>
              <LongitudeDegrees>2.775665223598480224609375</LongitudeDegrees>
            </Position>
            <AltitudeMeters>817.5999755859375</AltitudeMeters>
            <DistanceMeters>17236.130109431</DistanceMeters>
          </Trackpoint>
          <Trackpoint>
            <Time>2021-04-01T08:39:27.000Z</Time>
            <Position>
              <LatitudeDegrees>42.412047497928142547607421875</LatitudeDegrees>
              <LongitudeDegrees>2.77563697658479213714599609375</LongitudeDegrees>
            </Position>
            <AltitudeMeters>817.79998779296875</AltitudeMeters>
            <DistanceMeters>17238.611744403</DistanceMeters>
          </Trackpoint>
          <Trackpoint>
            <Time>2021-04-01T08:39:33.000Z</Time>
            <Position>
              <LatitudeDegrees>42.4120560474693775177001953125</LatitudeDegrees>
              <LongitudeDegrees>2.7755782194435596466064453125</LongitudeDegrees>
            </Position>
            <AltitudeMeters>818.5999755859375</AltitudeMeters>
            <DistanceMeters>17243.53299069</DistanceMeters>
          </Trackpoint>
          <Trackpoint>
            <Time>2021-04-01T08:39:38.000Z</Time>
            <Position>
              <LatitudeDegrees>42.41205680184066295623779296875</LatitudeDegrees>
              <LongitudeDegrees>2.77553237043321132659912109375</LongitudeDegrees>
            </Position>
            <AltitudeMeters>819.20001220703125</AltitudeMeters>
            <DistanceMeters>17247.300653118</DistanceMeters>
          </Trackpoint>
          <Trackpoint>
            <Time>2021-04-01T08:39:42.000Z</Time>
            <Position>
              <LatitudeDegrees>42.4120557121932506561279296875</LatitudeDegrees>
              <LongitudeDegrees>2.7755004353821277618408203125</LongitudeDegrees>
            </Position>
            <AltitudeMeters>819.5999755859375</AltitudeMeters>
            <DistanceMeters>17249.927243761</DistanceMeters>
          </Trackpoint>
          <Trackpoint>
            <Time>2021-04-01T08:39:46.000Z</Time>
            <Position>
              <LatitudeDegrees>42.4120531976222991943359375</LatitudeDegrees>
              <LongitudeDegrees>2.77547277510166168212890625</LongitudeDegrees>
            </Position>
            <AltitudeMeters>820.20001220703125</AltitudeMeters>
            <DistanceMeters>17252.215790098</DistanceMeters>
          </Trackpoint>
          <Trackpoint>
            <Time>2021-04-01T08:39:52.000Z</Time>
            <Position>
              <LatitudeDegrees>42.41205713711678981781005859375</LatitudeDegrees>
              <LongitudeDegrees>2.77541234157979488372802734375</LongitudeDegrees>
            </Position>
            <AltitudeMeters>820.5999755859375</AltitudeMeters>
            <DistanceMeters>17257.2026559</DistanceMeters>
          </Trackpoint>
          <Trackpoint>
            <Time>2021-04-01T08:39:53.000Z</Time>
            <Position>
              <LatitudeDegrees>42.4120573885738849639892578125</LatitudeDegrees>
              <LongitudeDegrees>2.77540379203855991363525390625</LongitudeDegrees>
            </Position>
            <AltitudeMeters>820.79998779296875</AltitudeMeters>
            <DistanceMeters>17257.907392875</DistanceMeters>
          </Trackpoint>
          <Trackpoint>
            <Time>2021-04-01T08:39:55.000Z</Time>
            <Position>
              <LatitudeDegrees>42.41205428726971149444580078125</LatitudeDegrees>
              <LongitudeDegrees>2.77538568712770938873291015625</LongitudeDegrees>
            </Position>
            <AltitudeMeters>821</AltitudeMeters>
            <DistanceMeters>17259.43374792</DistanceMeters>
          </Trackpoint>
          <Trackpoint>
            <Time>2021-04-01T08:40:03.000Z</Time>
            <Position>
              <LatitudeDegrees>42.41204590536653995513916015625</LatitudeDegrees>
              <LongitudeDegrees>2.77530287392437458038330078125</LongitudeDegrees>
            </Position>
            <AltitudeMeters>821.5999755859375</AltitudeMeters>
            <DistanceMeters>17266.302016941</DistanceMeters>
          </Trackpoint>
          <Trackpoint>
            <Time>2021-04-01T08:40:06.000Z</Time>
            <Position>
              <LatitudeDegrees>42.4120449833571910858154296875</LatitudeDegrees>
              <LongitudeDegrees>2.77527026832103729248046875</LongitudeDegrees>
            </Position>
            <AltitudeMeters>821.79998779296875</AltitudeMeters>
            <DistanceMeters>17268.983050482</DistanceMeters>
          </Trackpoint>
          <Trackpoint>
            <Time>2021-04-01T08:40:10.000Z</Time>
            <Position>
              <LatitudeDegrees>42.41205093450844287872314453125</LatitudeDegrees>
              <LongitudeDegrees>2.775232382118701934814453125</LongitudeDegrees>
            </Position>
            <AltitudeMeters>822.20001220703125</AltitudeMeters>
            <DistanceMeters>17272.166090816</DistanceMeters>
          </Trackpoint>
          <Trackpoint>
            <Time>2021-04-01T08:40:12.000Z</Time>
            <Position>
              <LatitudeDegrees>42.41204691119492053985595703125</LatitudeDegrees>
              <LongitudeDegrees>2.77521637268364429473876953125</LongitudeDegrees>
            </Position>
            <AltitudeMeters>822.4000244140625</AltitudeMeters>
            <DistanceMeters>17273.559455964</DistanceMeters>
          </Trackpoint>
          <Trackpoint>
            <Time>2021-04-01T08:40:13.000Z</Time>
            <Position>
              <LatitudeDegrees>42.4120456539094448089599609375</LatitudeDegrees>
              <LongitudeDegrees>2.7752030454576015472412109375</LongitudeDegrees>
            </Position>
            <AltitudeMeters>822.4000244140625</AltitudeMeters>
            <DistanceMeters>17274.663566611</DistanceMeters>
          </Trackpoint>
          <Trackpoint>
            <Time>2021-04-01T08:40:17.000Z</Time>
            <Position>
              <LatitudeDegrees>42.41204305551946163177490234375</LatitudeDegrees>
              <LongitudeDegrees>2.77515501715242862701416015625</LongitudeDegrees>
            </Position>
            <AltitudeMeters>823</AltitudeMeters>
            <DistanceMeters>17278.620604967</DistanceMeters>
          </Trackpoint>
          <Trackpoint>
            <Time>2021-04-01T08:40:18.000Z</Time>
            <Position>
              <LatitudeDegrees>42.41204305551946163177490234375</LatitudeDegrees>
              <LongitudeDegrees>2.77514294721186161041259765625</LongitudeDegrees>
            </Position>
            <AltitudeMeters>823</AltitudeMeters>
            <DistanceMeters>17279.617253556</DistanceMeters>
          </Trackpoint>
          <Trackpoint>
            <Time>2021-04-01T08:40:25.000Z</Time>
            <Position>
              <LatitudeDegrees>42.41204305551946163177490234375</LatitudeDegrees>
              <LongitudeDegrees>2.7750578708946704864501953125</LongitudeDegrees>
            </Position>
            <AltitudeMeters>823.4000244140625</AltitudeMeters>
            <DistanceMeters>17286.609308609</DistanceMeters>
          </Trackpoint>
          <Trackpoint>
            <Time>2021-04-01T08:40:34.000Z</Time>
            <Position>
              <LatitudeDegrees>42.4120449833571910858154296875</LatitudeDegrees>
              <LongitudeDegrees>2.77496474795043468475341796875</LongitudeDegrees>
            </Position>
            <AltitudeMeters>823.79998779296875</AltitudeMeters>
            <DistanceMeters>17294.264711676</DistanceMeters>
          </Trackpoint>
          <Trackpoint>
            <Time>2021-04-01T08:40:35.000Z</Time>
            <Position>
              <LatitudeDegrees>42.41204448044300079345703125</LatitudeDegrees>
              <LongitudeDegrees>2.77495720423758029937744140625</LongitudeDegrees>
            </Position>
            <AltitudeMeters>823.79998779296875</AltitudeMeters>
            <DistanceMeters>17294.880555171</DistanceMeters>
          </Trackpoint>
          <Trackpoint>
            <Time>2021-04-01T08:40:38.000Z</Time>
            <Position>
              <LatitudeDegrees>42.412040792405605316162109375</LatitudeDegrees>
              <LongitudeDegrees>2.77492426335811614990234375</LongitudeDegrees>
            </Position>
            <AltitudeMeters>824</AltitudeMeters>
            <DistanceMeters>17297.61824826</DistanceMeters>
          </Trackpoint>
          <Trackpoint>
            <Time>2021-04-01T08:40:46.000Z</Time>
            <Position>
              <LatitudeDegrees>42.4120503477752208709716796875</LatitudeDegrees>
              <LongitudeDegrees>2.77483684010803699493408203125</LongitudeDegrees>
            </Position>
            <AltitudeMeters>824.5999755859375</AltitudeMeters>
            <DistanceMeters>17304.880179576</DistanceMeters>
          </Trackpoint>
          <Trackpoint>
            <Time>2021-04-01T08:40:49.000Z</Time>
            <Position>
              <LatitudeDegrees>42.41205462254583835601806640625</LatitudeDegrees>
              <LongitudeDegrees>2.7748060785233974456787109375</LongitudeDegrees>
            </Position>
            <AltitudeMeters>825.20001220703125</AltitudeMeters>
            <DistanceMeters>17307.45293025</DistanceMeters>
          </Trackpoint>
          <Trackpoint>
            <Time>2021-04-01T08:40:54.000Z</Time>
            <Position>
              <LatitudeDegrees>42.41207222454249858856201171875</LatitudeDegrees>
              <LongitudeDegrees>2.77475670911371707916259765625</LongitudeDegrees>
            </Position>
            <AltitudeMeters>825.4000244140625</AltitudeMeters>
            <DistanceMeters>17311.959441309</DistanceMeters>
          </Trackpoint>
          <Trackpoint>
            <Time>2021-04-01T08:40:58.000Z</Time>
            <Position>
              <LatitudeDegrees>42.41208177991211414337158203125</LatitudeDegrees>
              <LongitudeDegrees>2.774715721607208251953125</LongitudeDegrees>
            </Position>
            <AltitudeMeters>825.5999755859375</AltitudeMeters>
            <DistanceMeters>17315.490805857</DistanceMeters>
          </Trackpoint>
          <Trackpoint>
            <Time>2021-04-01T08:41:03.000Z</Time>
            <Position>
              <LatitudeDegrees>42.41208664141595363616943359375</LatitudeDegrees>
              <LongitudeDegrees>2.7746716327965259552001953125</LongitudeDegrees>
            </Position>
            <AltitudeMeters>826.20001220703125</AltitudeMeters>
            <DistanceMeters>17319.153959361</DistanceMeters>
          </Trackpoint>
          <Trackpoint>
            <Time>2021-04-01T08:41:06.000Z</Time>
            <Position>
              <LatitudeDegrees>42.41208597086369991302490234375</LatitudeDegrees>
              <LongitudeDegrees>2.77464070357382297515869140625</LongitudeDegrees>
            </Position>
            <AltitudeMeters>826.5999755859375</AltitudeMeters>
            <DistanceMeters>17321.696700939</DistanceMeters>
          </Trackpoint>
          <Trackpoint>
            <Time>2021-04-01T08:41:14.000Z</Time>
            <Position>
              <LatitudeDegrees>42.41209066472947597503662109375</LatitudeDegrees>
              <LongitudeDegrees>2.77457180432975292205810546875</LongitudeDegrees>
            </Position>
            <AltitudeMeters>827.20001220703125</AltitudeMeters>
            <DistanceMeters>17327.382443958</DistanceMeters>
          </Trackpoint>
          <Trackpoint>
            <Time>2021-04-01T08:41:15.000Z</Time>
            <Position>
              <LatitudeDegrees>42.41209007799625396728515625</LatitudeDegrees>
              <LongitudeDegrees>2.77456375770270824432373046875</LongitudeDegrees>
            </Position>
            <AltitudeMeters>827.4000244140625</AltitudeMeters>
            <DistanceMeters>17328.054384299</DistanceMeters>
          </Trackpoint>
          <Trackpoint>
            <Time>2021-04-01T08:41:23.000Z</Time>
            <Position>
              <LatitudeDegrees>42.4121029861271381378173828125</LatitudeDegrees>
              <LongitudeDegrees>2.77449938468635082244873046875</LongitudeDegrees>
            </Position>
            <AltitudeMeters>828.20001220703125</AltitudeMeters>
            <DistanceMeters>17333.536363358</DistanceMeters>
          </Trackpoint>
          <Trackpoint>
            <Time>2021-04-01T08:41:25.000Z</Time>
            <Position>
              <LatitudeDegrees>42.4121070094406604766845703125</LatitudeDegrees>
              <LongitudeDegrees>2.7744818665087223052978515625</LongitudeDegrees>
            </Position>
            <AltitudeMeters>828.4000244140625</AltitudeMeters>
            <DistanceMeters>17335.044865683</DistanceMeters>
          </Trackpoint>
          <Trackpoint>
            <Time>2021-04-01T08:41:34.000Z</Time>
            <Position>
              <LatitudeDegrees>42.4121073447167873382568359375</LatitudeDegrees>
              <LongitudeDegrees>2.77439092285931110382080078125</LongitudeDegrees>
            </Position>
            <AltitudeMeters>829.4000244140625</AltitudeMeters>
            <DistanceMeters>17342.518823997</DistanceMeters>
          </Trackpoint>
          <Trackpoint>
            <Time>2021-04-01T08:41:36.000Z</Time>
            <Position>
              <LatitudeDegrees>42.4121127091348171234130859375</LatitudeDegrees>
              <LongitudeDegrees>2.774376757442951202392578125</LongitudeDegrees>
            </Position>
            <AltitudeMeters>829.79998779296875</AltitudeMeters>
            <DistanceMeters>17343.828676861</DistanceMeters>
          </Trackpoint>
          <Trackpoint>
            <Time>2021-04-01T08:41:40.000Z</Time>
            <Position>
              <LatitudeDegrees>42.412125281989574432373046875</LatitudeDegrees>
              <LongitudeDegrees>2.774344570934772491455078125</LongitudeDegrees>
            </Position>
            <AltitudeMeters>830</AltitudeMeters>
            <DistanceMeters>17346.82164125</DistanceMeters>
          </Trackpoint>
          <Trackpoint>
            <Time>2021-04-01T08:41:43.000Z</Time>
            <Position>
              <LatitudeDegrees>42.41212092339992523193359375</LatitudeDegrees>
              <LongitudeDegrees>2.77431246824562549591064453125</LongitudeDegrees>
            </Position>
            <AltitudeMeters>830.20001220703125</AltitudeMeters>
            <DistanceMeters>17349.504358328</DistanceMeters>
          </Trackpoint>
          <Trackpoint>
            <Time>2021-04-01T08:41:47.000Z</Time>
            <Position>
              <LatitudeDegrees>42.412117235362529754638671875</LatitudeDegrees>
              <LongitudeDegrees>2.7742766775190830230712890625</LongitudeDegrees>
            </Position>
            <AltitudeMeters>830.5999755859375</AltitudeMeters>
            <DistanceMeters>17352.474608265</DistanceMeters>
          </Trackpoint>
          <Trackpoint>
            <Time>2021-04-01T08:41:50.000Z</Time>
            <Position>
              <LatitudeDegrees>42.41211849264800548553466796875</LatitudeDegrees>
              <LongitudeDegrees>2.77424641884863376617431640625</LongitudeDegrees>
            </Position>
            <AltitudeMeters>830.79998779296875</AltitudeMeters>
            <DistanceMeters>17354.967135616</DistanceMeters>
          </Trackpoint>
          <Trackpoint>
            <Time>2021-04-01T08:41:53.000Z</Time>
            <Position>
              <LatitudeDegrees>42.41211958229541778564453125</LatitudeDegrees>
              <LongitudeDegrees>2.77421724982559680938720703125</LongitudeDegrees>
            </Position>
            <AltitudeMeters>831</AltitudeMeters>
            <DistanceMeters>17357.365501454</DistanceMeters>
          </Trackpoint>
          <Trackpoint>
            <Time>2021-04-01T08:41:59.000Z</Time>
            <Position>
              <LatitudeDegrees>42.41210809908807277679443359375</LatitudeDegrees>
              <LongitudeDegrees>2.774151451885700225830078125</LongitudeDegrees>
            </Position>
            <AltitudeMeters>831.5999755859375</AltitudeMeters>
            <DistanceMeters>17362.920298589</DistanceMeters>
          </Trackpoint>
          <Trackpoint>
            <Time>2021-04-01T08:42:00.000Z</Time>
            <Position>
              <LatitudeDegrees>42.41210306994616985321044921875</LatitudeDegrees>
              <LongitudeDegrees>2.77413896284997463226318359375</LongitudeDegrees>
            </Position>
            <AltitudeMeters>831.79998779296875</AltitudeMeters>
            <DistanceMeters>17364.088006405</DistanceMeters>
          </Trackpoint>
          <Trackpoint>
            <Time>2021-04-01T08:42:05.000Z</Time>
            <Position>
              <LatitudeDegrees>42.41210072301328182220458984375</LatitudeDegrees>
              <LongitudeDegrees>2.77409386821091175079345703125</LongitudeDegrees>
            </Position>
            <AltitudeMeters>832.20001220703125</AltitudeMeters>
            <DistanceMeters>17367.802566514</DistanceMeters>
          </Trackpoint>
          <Trackpoint>
            <Time>2021-04-01T08:42:08.000Z</Time>
            <Position>
              <LatitudeDegrees>42.41208530031144618988037109375</LatitudeDegrees>
              <LongitudeDegrees>2.7740667946636676788330078125</LongitudeDegrees>
            </Position>
            <AltitudeMeters>832.4000244140625</AltitudeMeters>
            <DistanceMeters>17370.611887929</DistanceMeters>
          </Trackpoint>
          <Trackpoint>
            <Time>2021-04-01T08:42:14.000Z</Time>
            <Position>
              <LatitudeDegrees>42.41206015460193157196044921875</LatitudeDegrees>
              <LongitudeDegrees>2.774008624255657196044921875</LongitudeDegrees>
            </Position>
            <AltitudeMeters>832.5999755859375</AltitudeMeters>
            <DistanceMeters>17376.151219997</DistanceMeters>
          </Trackpoint>
          <Trackpoint>
            <Time>2021-04-01T08:42:15.000Z</Time>
            <Position>
              <LatitudeDegrees>42.4120563827455043792724609375</LatitudeDegrees>
              <LongitudeDegrees>2.7739973925054073333740234375</LongitudeDegrees>
            </Position>
            <AltitudeMeters>832.79998779296875</AltitudeMeters>
            <DistanceMeters>17377.165827662</DistanceMeters>
          </Trackpoint>
          <Trackpoint>
            <Time>2021-04-01T08:42:24.000Z</Time>
            <Position>
              <LatitudeDegrees>42.4120312370359897613525390625</LatitudeDegrees>
              <LongitudeDegrees>2.7739258110523223876953125</LongitudeDegrees>
            </Position>
            <AltitudeMeters>833.5999755859375</AltitudeMeters>
            <DistanceMeters>17383.680530977</DistanceMeters>
          </Trackpoint>
          <Trackpoint>
            <Time>2021-04-01T08:42:25.000Z</Time>
            <Position>
              <LatitudeDegrees>42.4120312370359897613525390625</LatitudeDegrees>
              <LongitudeDegrees>2.7739165909588336944580078125</LongitudeDegrees>
            </Position>
            <AltitudeMeters>833.5999755859375</AltitudeMeters>
            <DistanceMeters>17384.440744692</DistanceMeters>
          </Trackpoint>
          <Trackpoint>
            <Time>2021-04-01T08:42:27.000Z</Time>
            <Position>
              <LatitudeDegrees>42.41202595643699169158935546875</LatitudeDegrees>
              <LongitudeDegrees>2.77389823459088802337646484375</LongitudeDegrees>
            </Position>
            <AltitudeMeters>833.79998779296875</AltitudeMeters>
            <DistanceMeters>17386.058991326</DistanceMeters>
          </Trackpoint>
          <Trackpoint>
            <Time>2021-04-01T08:42:30.000Z</Time>
            <Position>
              <LatitudeDegrees>42.4120168201625347137451171875</LatitudeDegrees>
              <LongitudeDegrees>2.7738823927938938140869140625</LongitudeDegrees>
            </Position>
            <AltitudeMeters>834.20001220703125</AltitudeMeters>
            <DistanceMeters>17387.710379556</DistanceMeters>
          </Trackpoint>
          <Trackpoint>
            <Time>2021-04-01T08:42:32.000Z</Time>
            <Position>
              <LatitudeDegrees>42.4120114557445049285888671875</LatitudeDegrees>
              <LongitudeDegrees>2.77385850436985492706298828125</LongitudeDegrees>
            </Position>
            <AltitudeMeters>834.4000244140625</AltitudeMeters>
            <DistanceMeters>17389.761724389</DistanceMeters>
          </Trackpoint>
          <Trackpoint>
            <Time>2021-04-01T08:42:37.000Z</Time>
            <Position>
              <LatitudeDegrees>42.41199896670877933502197265625</LatitudeDegrees>
              <LongitudeDegrees>2.773818187415599822998046875</LongitudeDegrees>
            </Position>
            <AltitudeMeters>834.79998779296875</AltitudeMeters>
            <DistanceMeters>17393.355191978</DistanceMeters>
          </Trackpoint>
          <Trackpoint>
            <Time>2021-04-01T08:42:38.000Z</Time>
            <Position>
              <LatitudeDegrees>42.41199963726103305816650390625</LatitudeDegrees>
              <LongitudeDegrees>2.773811481893062591552734375</LongitudeDegrees>
            </Position>
            <AltitudeMeters>834.79998779296875</AltitudeMeters>
            <DistanceMeters>17393.909288179</DistanceMeters>
          </Trackpoint>
          <Trackpoint>
            <Time>2021-04-01T08:42:45.000Z</Time>
            <Position>
              <LatitudeDegrees>42.4119782634079456329345703125</LatitudeDegrees>
              <LongitudeDegrees>2.77375238947570323944091796875</LongitudeDegrees>
            </Position>
            <AltitudeMeters>835.79998779296875</AltitudeMeters>
            <DistanceMeters>17399.316633879</DistanceMeters>
          </Trackpoint>
          <Trackpoint>
            <Time>2021-04-01T08:42:52.000Z</Time>
            <Position>
              <LatitudeDegrees>42.411971390247344970703125</LatitudeDegrees>
              <LongitudeDegrees>2.773676700890064239501953125</LongitudeDegrees>
            </Position>
            <AltitudeMeters>836.4000244140625</AltitudeMeters>
            <DistanceMeters>17405.583355706</DistanceMeters>
          </Trackpoint>
          <Trackpoint>
            <Time>2021-04-01T08:42:56.000Z</Time>
            <Position>
              <LatitudeDegrees>42.41195772774517536163330078125</LatitudeDegrees>
              <LongitudeDegrees>2.7736245654523372650146484375</LongitudeDegrees>
            </Position>
            <AltitudeMeters>836.79998779296875</AltitudeMeters>
            <DistanceMeters>17410.129765826</DistanceMeters>
          </Trackpoint>
          <Trackpoint>
            <Time>2021-04-01T08:43:01.000Z</Time>
            <Position>
              <LatitudeDegrees>42.41194096393883228302001953125</LatitudeDegrees>
              <LongitudeDegrees>2.773578800261020660400390625</LongitudeDegrees>
            </Position>
            <AltitudeMeters>837.4000244140625</AltitudeMeters>
            <DistanceMeters>17414.32710774</DistanceMeters>
          </Trackpoint>
          <Trackpoint>
            <Time>2021-04-01T08:43:04.000Z</Time>
            <Position>
              <LatitudeDegrees>42.41193107329308986663818359375</LatitudeDegrees>
              <LongitudeDegrees>2.77355155907571315765380859375</LongitudeDegrees>
            </Position>
            <AltitudeMeters>837.79998779296875</AltitudeMeters>
            <DistanceMeters>17416.821445863</DistanceMeters>
          </Trackpoint>
          <Trackpoint>
            <Time>2021-04-01T08:43:08.000Z</Time>
            <Position>
              <LatitudeDegrees>42.4119190871715545654296875</LatitudeDegrees>
              <LongitudeDegrees>2.7735109068453311920166015625</LongitudeDegrees>
            </Position>
            <AltitudeMeters>838</AltitudeMeters>
            <DistanceMeters>17420.418680849</DistanceMeters>
          </Trackpoint>
          <Trackpoint>
            <Time>2021-04-01T08:43:13.000Z</Time>
            <Position>
              <LatitudeDegrees>42.41189989261329174041748046875</LatitudeDegrees>
              <LongitudeDegrees>2.7734653092920780181884765625</LongitudeDegrees>
            </Position>
            <AltitudeMeters>838.4000244140625</AltitudeMeters>
            <DistanceMeters>17424.731679512</DistanceMeters>
          </Trackpoint>
          <Trackpoint>
            <Time>2021-04-01T08:43:17.000Z</Time>
            <Position>
              <LatitudeDegrees>42.4118813686072826385498046875</LatitudeDegrees>
              <LongitudeDegrees>2.773428261280059814453125</LongitudeDegrees>
            </Position>
            <AltitudeMeters>838.79998779296875</AltitudeMeters>
            <DistanceMeters>17428.408366124</DistanceMeters>
          </Trackpoint>
          <Trackpoint>
            <Time>2021-04-01T08:43:21.000Z</Time>
            <Position>
              <LatitudeDegrees>42.411864101886749267578125</LatitudeDegrees>
              <LongitudeDegrees>2.773420549929141998291015625</LongitudeDegrees>
            </Position>
            <AltitudeMeters>839.20001220703125</AltitudeMeters>
            <DistanceMeters>17430.43312653</DistanceMeters>
          </Trackpoint>
          <Trackpoint>
            <Time>2021-04-01T08:43:28.000Z</Time>
            <Position>
              <LatitudeDegrees>42.41186033003032207489013671875</LatitudeDegrees>
              <LongitudeDegrees>2.77342817746102809906005859375</LongitudeDegrees>
            </Position>
            <AltitudeMeters>839.5999755859375</AltitudeMeters>
            <DistanceMeters>17431.193340245</DistanceMeters>
          </Trackpoint>
          <Trackpoint>
            <Time>2021-04-01T08:43:31.000Z</Time>
            <Position>
              <LatitudeDegrees>42.41186250932514667510986328125</LatitudeDegrees>
              <LongitudeDegrees>2.7734294347465038299560546875</LongitudeDegrees>
            </Position>
            <AltitudeMeters>839.5999755859375</AltitudeMeters>
            <DistanceMeters>17431.462116382</DistanceMeters>
          </Trackpoint>
          <Trackpoint>
            <Time>2021-04-01T08:43:34.000Z</Time>
            <Position>
              <LatitudeDegrees>42.41186334751546382904052734375</LatitudeDegrees>
              <LongitudeDegrees>2.77342666871845722198486328125</LongitudeDegrees>
            </Position>
            <AltitudeMeters>839.79998779296875</AltitudeMeters>
            <DistanceMeters>17431.694883344</DistanceMeters>
          </Trackpoint>
          <Trackpoint>
            <Time>2021-04-01T08:43:35.000Z</Time>
            <Position>
              <LatitudeDegrees>42.41186334751546382904052734375</LatitudeDegrees>
              <LongitudeDegrees>2.77342666871845722198486328125</LongitudeDegrees>
            </Position>
            <AltitudeMeters>840</AltitudeMeters>
            <DistanceMeters>17431.694883344</DistanceMeters>
          </Trackpoint>
          <Trackpoint>
            <Time>2021-04-01T08:43:36.000Z</Time>
            <Position>
              <LatitudeDegrees>42.41186334751546382904052734375</LatitudeDegrees>
              <LongitudeDegrees>2.77342666871845722198486328125</LongitudeDegrees>
            </Position>
            <AltitudeMeters>840</AltitudeMeters>
            <DistanceMeters>17431.694883344</DistanceMeters>
          </Trackpoint>
          <Trackpoint>
            <Time>2021-04-01T08:43:40.000Z</Time>
            <Position>
              <LatitudeDegrees>42.41186334751546382904052734375</LatitudeDegrees>
              <LongitudeDegrees>2.77342666871845722198486328125</LongitudeDegrees>
            </Position>
            <AltitudeMeters>840</AltitudeMeters>
            <DistanceMeters>17431.694883344</DistanceMeters>
          </Trackpoint>
          <Trackpoint>
            <Time>2021-04-01T08:43:42.000Z</Time>
            <Position>
              <LatitudeDegrees>42.41186334751546382904052734375</LatitudeDegrees>
              <LongitudeDegrees>2.77342666871845722198486328125</LongitudeDegrees>
            </Position>
            <AltitudeMeters>840</AltitudeMeters>
            <DistanceMeters>17431.694883344</DistanceMeters>
          </Trackpoint>
          <Trackpoint>
            <Time>2021-04-01T08:43:48.000Z</Time>
            <Position>
              <LatitudeDegrees>42.41186368279159069061279296875</LatitudeDegrees>
              <LongitudeDegrees>2.77342666871845722198486328125</LongitudeDegrees>
            </Position>
            <AltitudeMeters>840</AltitudeMeters>
            <DistanceMeters>17431.694883344</DistanceMeters>
          </Trackpoint>
          <Trackpoint>
            <Time>2021-04-01T08:43:55.000Z</Time>
            <Position>
              <LatitudeDegrees>42.411871813237667083740234375</LatitudeDegrees>
              <LongitudeDegrees>2.7734280936419963836669921875</LongitudeDegrees>
            </Position>
            <AltitudeMeters>840.20001220703125</AltitudeMeters>
            <DistanceMeters>17432.606347569</DistanceMeters>
          </Trackpoint>
          <Trackpoint>
            <Time>2021-04-01T08:43:58.000Z</Time>
            <Position>
              <LatitudeDegrees>42.4118761718273162841796875</LatitudeDegrees>
              <LongitudeDegrees>2.77342935092747211456298828125</LongitudeDegrees>
            </Position>
            <AltitudeMeters>840.20001220703125</AltitudeMeters>
            <DistanceMeters>17433.109181677</DistanceMeters>
          </Trackpoint>
          <Trackpoint>
            <Time>2021-04-01T08:44:01.000Z</Time>
            <Position>
              <LatitudeDegrees>42.4118763394653797149658203125</LatitudeDegrees>
              <LongitudeDegrees>2.77342884801328182220458984375</LongitudeDegrees>
            </Position>
            <AltitudeMeters>840.5999755859375</AltitudeMeters>
            <DistanceMeters>17433.109181677</DistanceMeters>
          </Trackpoint>
          <Trackpoint>
            <Time>2021-04-01T08:44:04.000Z</Time>
            <Position>
              <LatitudeDegrees>42.41186502389609813690185546875</LatitudeDegrees>
              <LongitudeDegrees>2.77340722270309925079345703125</LongitudeDegrees>
            </Position>
            <AltitudeMeters>840.79998779296875</AltitudeMeters>
            <DistanceMeters>17435.286517235</DistanceMeters>
          </Trackpoint>
          <Trackpoint>
            <Time>2021-04-01T08:44:08.000Z</Time>
            <Position>
              <LatitudeDegrees>42.4118169955909252166748046875</LatitudeDegrees>
              <LongitudeDegrees>2.7733429335057735443115234375</LongitudeDegrees>
            </Position>
            <AltitudeMeters>841.4000244140625</AltitudeMeters>
            <DistanceMeters>17442.80264378</DistanceMeters>
          </Trackpoint>
          <Trackpoint>
            <Time>2021-04-01T08:44:14.000Z</Time>
            <Position>
              <LatitudeDegrees>42.41174214519560337066650390625</LatitudeDegrees>
              <LongitudeDegrees>2.77327076531946659088134765625</LongitudeDegrees>
            </Position>
            <AltitudeMeters>841.5999755859375</AltitudeMeters>
            <DistanceMeters>17453.029390348</DistanceMeters>
          </Trackpoint>
          <Trackpoint>
            <Time>2021-04-01T08:44:17.000Z</Time>
            <Position>
              <LatitudeDegrees>42.4117219448089599609375</LatitudeDegrees>
              <LongitudeDegrees>2.77324008755385875701904296875</LongitudeDegrees>
            </Position>
            <AltitudeMeters>841.5999755859375</AltitudeMeters>
            <DistanceMeters>17456.407853997</DistanceMeters>
          </Trackpoint>
          <Trackpoint>
            <Time>2021-04-01T08:44:20.000Z</Time>
            <Position>
              <LatitudeDegrees>42.41171314381062984466552734375</LatitudeDegrees>
              <LongitudeDegrees>2.7732138521969318389892578125</LongitudeDegrees>
            </Position>
            <AltitudeMeters>841.79998779296875</AltitudeMeters>
            <DistanceMeters>17458.775907516</DistanceMeters>
          </Trackpoint>
          <Trackpoint>
            <Time>2021-04-01T08:44:21.000Z</Time>
            <Position>
              <LatitudeDegrees>42.4117045104503631591796875</LatitudeDegrees>
              <LongitudeDegrees>2.773208320140838623046875</LongitudeDegrees>
            </Position>
            <AltitudeMeters>841.79998779296875</AltitudeMeters>
            <DistanceMeters>17459.838338481</DistanceMeters>
          </Trackpoint>
          <Trackpoint>
            <Time>2021-04-01T08:44:23.000Z</Time>
            <Position>
              <LatitudeDegrees>42.41169176995754241943359375</LatitudeDegrees>
              <LongitudeDegrees>2.77319449000060558319091796875</LongitudeDegrees>
            </Position>
            <AltitudeMeters>841.79998779296875</AltitudeMeters>
            <DistanceMeters>17461.656306572</DistanceMeters>
          </Trackpoint>
          <Trackpoint>
            <Time>2021-04-01T08:44:27.000Z</Time>
            <Position>
              <LatitudeDegrees>42.4116647802293300628662109375</LatitudeDegrees>
              <LongitudeDegrees>2.773176133632659912109375</LongitudeDegrees>
            </Position>
            <AltitudeMeters>842</AltitudeMeters>
            <DistanceMeters>17465.016008278</DistanceMeters>
          </Trackpoint>
          <Trackpoint>
            <Time>2021-04-01T08:44:32.000Z</Time>
            <Position>
              <LatitudeDegrees>42.41163049824535846710205078125</LatitudeDegrees>
              <LongitudeDegrees>2.77313095517456531524658203125</LongitudeDegrees>
            </Position>
            <AltitudeMeters>842.4000244140625</AltitudeMeters>
            <DistanceMeters>17470.339200918</DistanceMeters>
          </Trackpoint>
          <Trackpoint>
            <Time>2021-04-01T08:44:38.000Z</Time>
            <Position>
              <LatitudeDegrees>42.41157107055187225341796875</LatitudeDegrees>
              <LongitudeDegrees>2.77311536483466625213623046875</LongitudeDegrees>
            </Position>
            <AltitudeMeters>842.4000244140625</AltitudeMeters>
            <DistanceMeters>17477.076052127</DistanceMeters>
          </Trackpoint>
          <Trackpoint>
            <Time>2021-04-01T08:44:45.000Z</Time>
            <Position>
              <LatitudeDegrees>42.411525808274745941162109375</LatitudeDegrees>
              <LongitudeDegrees>2.77310974895954132080078125</LongitudeDegrees>
            </Position>
            <AltitudeMeters>842.79998779296875</AltitudeMeters>
            <DistanceMeters>17482.133937709</DistanceMeters>
          </Trackpoint>
          <Trackpoint>
            <Time>2021-04-01T08:44:51.000Z</Time>
            <Position>
              <LatitudeDegrees>42.4114810489118099212646484375</LatitudeDegrees>
              <LongitudeDegrees>2.77306071482598781585693359375</LongitudeDegrees>
            </Position>
            <AltitudeMeters>843</AltitudeMeters>
            <DistanceMeters>17488.541021876</DistanceMeters>
          </Trackpoint>
          <Trackpoint>
            <Time>2021-04-01T08:44:53.000Z</Time>
            <Position>
              <LatitudeDegrees>42.41146235726773738861083984375</LatitudeDegrees>
              <LongitudeDegrees>2.77305317111313343048095703125</LongitudeDegrees>
            </Position>
            <AltitudeMeters>843</AltitudeMeters>
            <DistanceMeters>17490.710046962</DistanceMeters>
          </Trackpoint>
          <Trackpoint>
            <Time>2021-04-01T08:44:54.000Z</Time>
            <Position>
              <LatitudeDegrees>42.411452047526836395263671875</LatitudeDegrees>
              <LongitudeDegrees>2.77304713614284992218017578125</LongitudeDegrees>
            </Position>
            <AltitudeMeters>843</AltitudeMeters>
            <DistanceMeters>17491.956310638</DistanceMeters>
          </Trackpoint>
          <Trackpoint>
            <Time>2021-04-01T08:45:01.000Z</Time>
            <Position>
              <LatitudeDegrees>42.41139915771782398223876953125</LatitudeDegrees>
              <LongitudeDegrees>2.7729975990951061248779296875</LongitudeDegrees>
            </Position>
            <AltitudeMeters>843.20001220703125</AltitudeMeters>
            <DistanceMeters>17499.113027314</DistanceMeters>
          </Trackpoint>
          <Trackpoint>
            <Time>2021-04-01T08:45:02.000Z</Time>
            <Position>
              <LatitudeDegrees>42.41139094345271587371826171875</LatitudeDegrees>
              <LongitudeDegrees>2.7729908935725688934326171875</LongitudeDegrees>
            </Position>
            <AltitudeMeters>843.20001220703125</AltitudeMeters>
            <DistanceMeters>17500.179699538</DistanceMeters>
          </Trackpoint>
          <Trackpoint>
            <Time>2021-04-01T08:45:03.000Z</Time>
            <Position>
              <LatitudeDegrees>42.41138339973986148834228515625</LatitudeDegrees>
              <LongitudeDegrees>2.77298661880195140838623046875</LongitudeDegrees>
            </Position>
            <AltitudeMeters>843.4000244140625</AltitudeMeters>
            <DistanceMeters>17501.091163762</DistanceMeters>
          </Trackpoint>
          <Trackpoint>
            <Time>2021-04-01T08:45:07.000Z</Time>
            <Position>
              <LatitudeDegrees>42.4113509617745876312255859375</LatitudeDegrees>
              <LongitudeDegrees>2.7729670889675617218017578125</LongitudeDegrees>
            </Position>
            <AltitudeMeters>843.5999755859375</AltitudeMeters>
            <DistanceMeters>17505.041350099</DistanceMeters>
          </Trackpoint>
          <Trackpoint>
            <Time>2021-04-01T08:45:13.000Z</Time>
            <Position>
              <LatitudeDegrees>42.4112968146800994873046875</LatitudeDegrees>
              <LongitudeDegrees>2.77293968014419078826904296875</LongitudeDegrees>
            </Position>
            <AltitudeMeters>844</AltitudeMeters>
            <DistanceMeters>17511.475156936</DistanceMeters>
          </Trackpoint>
          <Trackpoint>
            <Time>2021-04-01T08:45:14.000Z</Time>
            <Position>
              <LatitudeDegrees>42.411287762224674224853515625</LatitudeDegrees>
              <LongitudeDegrees>2.77293674647808074951171875</LongitudeDegrees>
            </Position>
            <AltitudeMeters>844.20001220703125</AltitudeMeters>
            <DistanceMeters>17512.507411275</DistanceMeters>
          </Trackpoint>
          <Trackpoint>
            <Time>2021-04-01T08:45:21.000Z</Time>
            <Position>
              <LatitudeDegrees>42.411235459148883819580078125</LatitudeDegrees>
              <LongitudeDegrees>2.772904895246028900146484375</LongitudeDegrees>
            </Position>
            <AltitudeMeters>844.4000244140625</AltitudeMeters>
            <DistanceMeters>17518.890490855</DistanceMeters>
          </Trackpoint>
          <Trackpoint>
            <Time>2021-04-01T08:45:29.000Z</Time>
            <Position>
              <LatitudeDegrees>42.4111823178827762603759765625</LatitudeDegrees>
              <LongitudeDegrees>2.77285736985504627227783203125</LongitudeDegrees>
            </Position>
            <AltitudeMeters>844.5999755859375</AltitudeMeters>
            <DistanceMeters>17525.977470831</DistanceMeters>
          </Trackpoint>
          <Trackpoint>
            <Time>2021-04-01T08:45:34.000Z</Time>
            <Position>
              <LatitudeDegrees>42.4111387319862842559814453125</LatitudeDegrees>
              <LongitudeDegrees>2.7728339843451976776123046875</LongitudeDegrees>
            </Position>
            <AltitudeMeters>844.79998779296875</AltitudeMeters>
            <DistanceMeters>17531.195294177</DistanceMeters>
          </Trackpoint>
          <Trackpoint>
            <Time>2021-04-01T08:45:36.000Z</Time>
            <Position>
              <LatitudeDegrees>42.4111189506947994232177734375</LatitudeDegrees>
              <LongitudeDegrees>2.772822082042694091796875</LongitudeDegrees>
            </Position>
            <AltitudeMeters>845</AltitudeMeters>
            <DistanceMeters>17533.604928829</DistanceMeters>
          </Trackpoint>
          <Trackpoint>
            <Time>2021-04-01T08:45:37.000Z</Time>
            <Position>
              <LatitudeDegrees>42.41111031733453273773193359375</LatitudeDegrees>
              <LongitudeDegrees>2.772817723453044891357421875</LongitudeDegrees>
            </Position>
            <AltitudeMeters>845.20001220703125</AltitudeMeters>
            <DistanceMeters>17534.628397865</DistanceMeters>
          </Trackpoint>
          <Trackpoint>
            <Time>2021-04-01T08:45:44.000Z</Time>
            <Position>
              <LatitudeDegrees>42.41104309447109699249267578125</LatitudeDegrees>
              <LongitudeDegrees>2.7728001214563846588134765625</LongitudeDegrees>
            </Position>
            <AltitudeMeters>845.5999755859375</AltitudeMeters>
            <DistanceMeters>17542.24951666</DistanceMeters>
          </Trackpoint>
          <Trackpoint>
            <Time>2021-04-01T08:45:46.000Z</Time>
            <Position>
              <LatitudeDegrees>42.41102792322635650634765625</LatitudeDegrees>
              <LongitudeDegrees>2.77278914116322994232177734375</LongitudeDegrees>
            </Position>
            <AltitudeMeters>845.79998779296875</AltitudeMeters>
            <DistanceMeters>17544.164251899</DistanceMeters>
          </Trackpoint>
          <Trackpoint>
            <Time>2021-04-01T08:45:48.000Z</Time>
            <Position>
              <LatitudeDegrees>42.4110044538974761962890625</LatitudeDegrees>
              <LongitudeDegrees>2.77278696186840534210205078125</LongitudeDegrees>
            </Position>
            <AltitudeMeters>846</AltitudeMeters>
            <DistanceMeters>17546.783957626</DistanceMeters>
          </Trackpoint>
          <Trackpoint>
            <Time>2021-04-01T08:45:51.000Z</Time>
            <Position>
              <LatitudeDegrees>42.410979308187961578369140625</LatitudeDegrees>
              <LongitudeDegrees>2.77277003042399883270263671875</LongitudeDegrees>
            </Position>
            <AltitudeMeters>846</AltitudeMeters>
            <DistanceMeters>17549.906854128</DistanceMeters>
          </Trackpoint>
          <Trackpoint>
            <Time>2021-04-01T08:45:55.000Z</Time>
            <Position>
              <LatitudeDegrees>42.4109422601759433746337890625</LatitudeDegrees>
              <LongitudeDegrees>2.77275309897959232330322265625</LongitudeDegrees>
            </Position>
            <AltitudeMeters>846.20001220703125</AltitudeMeters>
            <DistanceMeters>17554.259451097</DistanceMeters>
          </Trackpoint>
          <Trackpoint>
            <Time>2021-04-01T08:46:00.000Z</Time>
            <Position>
              <LatitudeDegrees>42.41090294905006885528564453125</LatitudeDegrees>
              <LongitudeDegrees>2.772734574973583221435546875</LongitudeDegrees>
            </Position>
            <AltitudeMeters>846.4000244140625</AltitudeMeters>
            <DistanceMeters>17558.892429805</DistanceMeters>
          </Trackpoint>
          <Trackpoint>
            <Time>2021-04-01T08:46:06.000Z</Time>
            <Position>
              <LatitudeDegrees>42.41085768677294254302978515625</LatitudeDegrees>
              <LongitudeDegrees>2.77273298241198062896728515625</LongitudeDegrees>
            </Position>
            <AltitudeMeters>846.79998779296875</AltitudeMeters>
            <DistanceMeters>17563.932430305</DistanceMeters>
          </Trackpoint>
          <Trackpoint>
            <Time>2021-04-01T08:46:11.000Z</Time>
            <Position>
              <LatitudeDegrees>42.41081602871417999267578125</LatitudeDegrees>
              <LongitudeDegrees>2.7727380953729152679443359375</LongitudeDegrees>
            </Position>
            <AltitudeMeters>847.20001220703125</AltitudeMeters>
            <DistanceMeters>17568.589708869</DistanceMeters>
          </Trackpoint>
          <Trackpoint>
            <Time>2021-04-01T08:46:13.000Z</Time>
            <Position>
              <LatitudeDegrees>42.41080068983137607574462890625</LatitudeDegrees>
              <LongitudeDegrees>2.77273834683001041412353515625</LongitudeDegrees>
            </Position>
            <AltitudeMeters>847.4000244140625</AltitudeMeters>
            <DistanceMeters>17570.294902293</DistanceMeters>
          </Trackpoint>
          <Trackpoint>
            <Time>2021-04-01T08:46:20.000Z</Time>
            <Position>
              <LatitudeDegrees>42.41073514334857463836669921875</LatitudeDegrees>
              <LongitudeDegrees>2.7727568708360195159912109375</LongitudeDegrees>
            </Position>
            <AltitudeMeters>847.79998779296875</AltitudeMeters>
            <DistanceMeters>17577.747687021</DistanceMeters>
          </Trackpoint>
          <Trackpoint>
            <Time>2021-04-01T08:46:30.000Z</Time>
            <Position>
              <LatitudeDegrees>42.4106450378894805908203125</LatitudeDegrees>
              <LongitudeDegrees>2.77278377674520015716552734375</LongitudeDegrees>
            </Position>
            <AltitudeMeters>848</AltitudeMeters>
            <DistanceMeters>17588.01716913</DistanceMeters>
          </Trackpoint>
          <Trackpoint>
            <Time>2021-04-01T08:46:31.000Z</Time>
            <Position>
              <LatitudeDegrees>42.41063590161502361297607421875</LatitudeDegrees>
              <LongitudeDegrees>2.77278159745037555694580078125</LongitudeDegrees>
            </Position>
            <AltitudeMeters>848</AltitudeMeters>
            <DistanceMeters>17589.053788201</DistanceMeters>
          </Trackpoint>
          <Trackpoint>
            <Time>2021-04-01T08:46:39.000Z</Time>
            <Position>
              <LatitudeDegrees>42.41056364960968494415283203125</LatitudeDegrees>
              <LongitudeDegrees>2.7727629058063030242919921875</LongitudeDegrees>
            </Position>
            <AltitudeMeters>848.20001220703125</AltitudeMeters>
            <DistanceMeters>17597.240989031</DistanceMeters>
          </Trackpoint>
          <Trackpoint>
            <Time>2021-04-01T08:46:42.000Z</Time>
            <Position>
              <LatitudeDegrees>42.41053364239633083343505859375</LatitudeDegrees>
              <LongitudeDegrees>2.77275779284536838531494140625</LongitudeDegrees>
            </Position>
            <AltitudeMeters>848.4000244140625</AltitudeMeters>
            <DistanceMeters>17600.607403435</DistanceMeters>
          </Trackpoint>
          <Trackpoint>
            <Time>2021-04-01T08:46:44.000Z</Time>
            <Position>
              <LatitudeDegrees>42.410513274371623992919921875</LatitudeDegrees>
              <LongitudeDegrees>2.772752344608306884765625</LongitudeDegrees>
            </Position>
            <AltitudeMeters>848.4000244140625</AltitudeMeters>
            <DistanceMeters>17602.917549573</DistanceMeters>
          </Trackpoint>
          <Trackpoint>
            <Time>2021-04-01T08:46:45.000Z</Time>
            <Position>
              <LatitudeDegrees>42.4105037190020084381103515625</LatitudeDegrees>
              <LongitudeDegrees>2.7727505005896091461181640625</LongitudeDegrees>
            </Position>
            <AltitudeMeters>848.4000244140625</AltitudeMeters>
            <DistanceMeters>17603.992654119</DistanceMeters>
          </Trackpoint>
          <Trackpoint>
            <Time>2021-04-01T08:46:47.000Z</Time>
            <Position>
              <LatitudeDegrees>42.41048871539533138275146484375</LatitudeDegrees>
              <LongitudeDegrees>2.77274421416223049163818359375</LongitudeDegrees>
            </Position>
            <AltitudeMeters>848.4000244140625</AltitudeMeters>
            <DistanceMeters>17605.739699006</DistanceMeters>
          </Trackpoint>
          <Trackpoint>
            <Time>2021-04-01T08:46:52.000Z</Time>
            <Position>
              <LatitudeDegrees>42.41045049391686916351318359375</LatitudeDegrees>
              <LongitudeDegrees>2.77273080311715602874755859375</LongitudeDegrees>
            </Position>
            <AltitudeMeters>848.5999755859375</AltitudeMeters>
            <DistanceMeters>17610.134620338</DistanceMeters>
          </Trackpoint>
          <Trackpoint>
            <Time>2021-04-01T08:46:56.000Z</Time>
            <Position>
              <LatitudeDegrees>42.41041369736194610595703125</LatitudeDegrees>
              <LongitudeDegrees>2.77272761799395084381103515625</LongitudeDegrees>
            </Position>
            <AltitudeMeters>848.5999755859375</AltitudeMeters>
            <DistanceMeters>17614.239510427</DistanceMeters>
          </Trackpoint>
          <Trackpoint>
            <Time>2021-04-01T08:46:58.000Z</Time>
            <Position>
              <LatitudeDegrees>42.41038955748081207275390625</LatitudeDegrees>
              <LongitudeDegrees>2.7727313898503780364990234375</LongitudeDegrees>
            </Position>
            <AltitudeMeters>848.5999755859375</AltitudeMeters>
            <DistanceMeters>17616.944018131</DistanceMeters>
          </Trackpoint>
          <Trackpoint>
            <Time>2021-04-01T08:46:59.000Z</Time>
            <Position>
              <LatitudeDegrees>42.41038109175860881805419921875</LatitudeDegrees>
              <LongitudeDegrees>2.7727300487458705902099609375</LongitudeDegrees>
            </Position>
            <AltitudeMeters>848.5999755859375</AltitudeMeters>
            <DistanceMeters>17617.889522001</DistanceMeters>
          </Trackpoint>
          <Trackpoint>
            <Time>2021-04-01T08:47:07.000Z</Time>
            <Position>
              <LatitudeDegrees>42.41029358468949794769287109375</LatitudeDegrees>
              <LongitudeDegrees>2.77271755971014499664306640625</LongitudeDegrees>
            </Position>
            <AltitudeMeters>849.20001220703125</AltitudeMeters>
            <DistanceMeters>17627.683268577</DistanceMeters>
          </Trackpoint>
          <Trackpoint>
            <Time>2021-04-01T08:47:11.000Z</Time>
            <Position>
              <LatitudeDegrees>42.41025720722973346710205078125</LatitudeDegrees>
              <LongitudeDegrees>2.772721163928508758544921875</LongitudeDegrees>
            </Position>
            <AltitudeMeters>849.20001220703125</AltitudeMeters>
            <DistanceMeters>17631.743923645</DistanceMeters>
          </Trackpoint>
          <Trackpoint>
            <Time>2021-04-01T08:47:12.000Z</Time>
            <Position>
              <LatitudeDegrees>42.41024765186011791229248046875</LatitudeDegrees>
              <LongitudeDegrees>2.77272351086139678955078125</LongitudeDegrees>
            </Position>
            <AltitudeMeters>849.4000244140625</AltitudeMeters>
            <DistanceMeters>17632.82739489</DistanceMeters>
          </Trackpoint>
          <Trackpoint>
            <Time>2021-04-01T08:47:15.000Z</Time>
            <Position>
              <LatitudeDegrees>42.4102217517793178558349609375</LatitudeDegrees>
              <LongitudeDegrees>2.7727270312607288360595703125</LongitudeDegrees>
            </Position>
            <AltitudeMeters>849.79998779296875</AltitudeMeters>
            <DistanceMeters>17635.725320198</DistanceMeters>
          </Trackpoint>
          <Trackpoint>
            <Time>2021-04-01T08:47:24.000Z</Time>
            <Position>
              <LatitudeDegrees>42.41013650782406330108642578125</LatitudeDegrees>
              <LongitudeDegrees>2.7727216668426990509033203125</LongitudeDegrees>
            </Position>
            <AltitudeMeters>850</AltitudeMeters>
            <DistanceMeters>17645.223239111</DistanceMeters>
          </Trackpoint>
          <Trackpoint>
            <Time>2021-04-01T08:47:33.000Z</Time>
            <Position>
              <LatitudeDegrees>42.41005294024944305419921875</LatitudeDegrees>
              <LongitudeDegrees>2.77269928716123104095458984375</LongitudeDegrees>
            </Position>
            <AltitudeMeters>850</AltitudeMeters>
            <DistanceMeters>17654.704505429</DistanceMeters>
          </Trackpoint>
          <Trackpoint>
            <Time>2021-04-01T08:47:37.000Z</Time>
            <Position>
              <LatitudeDegrees>42.41001044400036334991455078125</LatitudeDegrees>
              <LongitudeDegrees>2.7726861275732517242431640625</LongitudeDegrees>
            </Position>
            <AltitudeMeters>849.5999755859375</AltitudeMeters>
            <DistanceMeters>17659.555523798</DistanceMeters>
          </Trackpoint>
          <Trackpoint>
            <Time>2021-04-01T08:47:43.000Z</Time>
            <Position>
              <LatitudeDegrees>42.40995210595428943634033203125</LatitudeDegrees>
              <LongitudeDegrees>2.77266827411949634552001953125</LongitudeDegrees>
            </Position>
            <AltitudeMeters>849.5999755859375</AltitudeMeters>
            <DistanceMeters>17666.211465131</DistanceMeters>
          </Trackpoint>
          <Trackpoint>
            <Time>2021-04-01T08:47:52.000Z</Time>
            <Position>
              <LatitudeDegrees>42.40985722281038761138916015625</LatitudeDegrees>
              <LongitudeDegrees>2.77263491414487361907958984375</LongitudeDegrees>
            </Position>
            <AltitudeMeters>849.5999755859375</AltitudeMeters>
            <DistanceMeters>17677.121756955</DistanceMeters>
          </Trackpoint>
          <Trackpoint>
            <Time>2021-04-01T08:48:01.000Z</Time>
            <Position>
              <LatitudeDegrees>42.409765608608722686767578125</LatitudeDegrees>
              <LongitudeDegrees>2.7726143784821033477783203125</LongitudeDegrees>
            </Position>
            <AltitudeMeters>849.20001220703125</AltitudeMeters>
            <DistanceMeters>17687.457413893</DistanceMeters>
          </Trackpoint>
          <Trackpoint>
            <Time>2021-04-01T08:48:12.000Z</Time>
            <Position>
              <LatitudeDegrees>42.40965119563043117523193359375</LatitudeDegrees>
              <LongitudeDegrees>2.77256584726274013519287109375</LongitudeDegrees>
            </Position>
            <AltitudeMeters>849.20001220703125</AltitudeMeters>
            <DistanceMeters>17700.801479143</DistanceMeters>
          </Trackpoint>
          <Trackpoint>
            <Time>2021-04-01T08:48:15.000Z</Time>
            <Position>
              <LatitudeDegrees>42.40962202660739421844482421875</LatitudeDegrees>
              <LongitudeDegrees>2.77255645953118801116943359375</LongitudeDegrees>
            </Position>
            <AltitudeMeters>849.20001220703125</AltitudeMeters>
            <DistanceMeters>17704.139609508</DistanceMeters>
          </Trackpoint>
          <Trackpoint>
            <Time>2021-04-01T08:48:21.000Z</Time>
            <Position>
              <LatitudeDegrees>42.40955949760973453521728515625</LatitudeDegrees>
              <LongitudeDegrees>2.7725382708013057708740234375</LongitudeDegrees>
            </Position>
            <AltitudeMeters>849.4000244140625</AltitudeMeters>
            <DistanceMeters>17711.2577384</DistanceMeters>
          </Trackpoint>
          <Trackpoint>
            <Time>2021-04-01T08:48:24.000Z</Time>
            <Position>
              <LatitudeDegrees>42.4095292389392852783203125</LatitudeDegrees>
              <LongitudeDegrees>2.7725319005548954010009765625</LongitudeDegrees>
            </Position>
            <AltitudeMeters>849.4000244140625</AltitudeMeters>
            <DistanceMeters>17714.665476405</DistanceMeters>
          </Trackpoint>
          <Trackpoint>
            <Time>2021-04-01T08:48:30.000Z</Time>
            <Position>
              <LatitudeDegrees>42.40948355756700038909912109375</LatitudeDegrees>
              <LongitudeDegrees>2.7725027315318584442138671875</LongitudeDegrees>
            </Position>
            <AltitudeMeters>849.79998779296875</AltitudeMeters>
            <DistanceMeters>17720.286529462</DistanceMeters>
          </Trackpoint>
          <Trackpoint>
            <Time>2021-04-01T08:48:33.000Z</Time>
            <Position>
              <LatitudeDegrees>42.4094563163816928863525390625</LatitudeDegrees>
              <LongitudeDegrees>2.77250046841800212860107421875</LongitudeDegrees>
            </Position>
            <AltitudeMeters>850</AltitudeMeters>
            <DistanceMeters>17723.324413286</DistanceMeters>
          </Trackpoint>
          <Trackpoint>
            <Time>2021-04-01T08:48:36.000Z</Time>
            <Position>
              <LatitudeDegrees>42.40942907519638538360595703125</LatitudeDegrees>
              <LongitudeDegrees>2.77248772792518138885498046875</LongitudeDegrees>
            </Position>
            <AltitudeMeters>850</AltitudeMeters>
            <DistanceMeters>17726.53288444</DistanceMeters>
          </Trackpoint>
          <Trackpoint>
            <Time>2021-04-01T08:48:38.000Z</Time>
            <Position>
              <LatitudeDegrees>42.4094117246568202972412109375</LatitudeDegrees>
              <LongitudeDegrees>2.77247515507042407989501953125</LongitudeDegrees>
            </Position>
            <AltitudeMeters>849.79998779296875</AltitudeMeters>
            <DistanceMeters>17728.724687503</DistanceMeters>
          </Trackpoint>
          <Trackpoint>
            <Time>2021-04-01T08:48:44.000Z</Time>
            <Position>
              <LatitudeDegrees>42.4093688093125820159912109375</LatitudeDegrees>
              <LongitudeDegrees>2.7724309824407100677490234375</LongitudeDegrees>
            </Position>
            <AltitudeMeters>849.5999755859375</AltitudeMeters>
            <DistanceMeters>17734.724177874</DistanceMeters>
          </Trackpoint>
          <Trackpoint>
            <Time>2021-04-01T08:48:50.000Z</Time>
            <Position>
              <LatitudeDegrees>42.40935263223946094512939453125</LatitudeDegrees>
              <LongitudeDegrees>2.77237239293754100799560546875</LongitudeDegrees>
            </Position>
            <AltitudeMeters>849.4000244140625</AltitudeMeters>
            <DistanceMeters>17739.864411689</DistanceMeters>
          </Trackpoint>
          <Trackpoint>
            <Time>2021-04-01T08:48:51.000Z</Time>
            <Position>
              <LatitudeDegrees>42.40935162641108036041259765625</LatitudeDegrees>
              <LongitudeDegrees>2.77236468158662319183349609375</LongitudeDegrees>
            </Position>
            <AltitudeMeters>849.4000244140625</AltitudeMeters>
            <DistanceMeters>17740.51588202</DistanceMeters>
          </Trackpoint>
          <Trackpoint>
            <Time>2021-04-01T08:48:53.000Z</Time>
            <Position>
              <LatitudeDegrees>42.40934886038303375244140625</LatitudeDegrees>
              <LongitudeDegrees>2.77237691916525363922119140625</LongitudeDegrees>
            </Position>
            <AltitudeMeters>849.4000244140625</AltitudeMeters>
            <DistanceMeters>17741.574054728</DistanceMeters>
          </Trackpoint>
          <Trackpoint>
            <Time>2021-04-01T08:48:54.000Z</Time>
            <Position>
              <LatitudeDegrees>42.40934760309755802154541015625</LatitudeDegrees>
              <LongitudeDegrees>2.77238010428845882415771484375</LongitudeDegrees>
            </Position>
            <AltitudeMeters>849.4000244140625</AltitudeMeters>
            <DistanceMeters>17741.874555584</DistanceMeters>
          </Trackpoint>
          <Trackpoint>
            <Time>2021-04-01T08:48:56.000Z</Time>
            <Position>
              <LatitudeDegrees>42.40934592671692371368408203125</LatitudeDegrees>
              <LongitudeDegrees>2.77236870490014553070068359375</LongitudeDegrees>
            </Position>
            <AltitudeMeters>849.4000244140625</AltitudeMeters>
            <DistanceMeters>17742.829562244</DistanceMeters>
          </Trackpoint>
          <Trackpoint>
            <Time>2021-04-01T08:48:59.000Z</Time>
            <Position>
              <LatitudeDegrees>42.4093352816998958587646484375</LatitudeDegrees>
              <LongitudeDegrees>2.7723428048193454742431640625</LongitudeDegrees>
            </Position>
            <AltitudeMeters>849.4000244140625</AltitudeMeters>
            <DistanceMeters>17745.267141022</DistanceMeters>
          </Trackpoint>
          <Trackpoint>
            <Time>2021-04-01T08:49:03.000Z</Time>
            <Position>
              <LatitudeDegrees>42.4093372933566570281982421875</LatitudeDegrees>
              <LongitudeDegrees>2.77236065827310085296630859375</LongitudeDegrees>
            </Position>
            <AltitudeMeters>849.5999755859375</AltitudeMeters>
            <DistanceMeters>17746.751505752</DistanceMeters>
          </Trackpoint>
          <Trackpoint>
            <Time>2021-04-01T08:49:05.000Z</Time>
            <Position>
              <LatitudeDegrees>42.40933754481375217437744140625</LatitudeDegrees>
              <LongitudeDegrees>2.77236409485340118408203125</LongitudeDegrees>
            </Position>
            <AltitudeMeters>849.79998779296875</AltitudeMeters>
            <DistanceMeters>17747.020281889</DistanceMeters>
          </Trackpoint>
          <Trackpoint>
            <Time>2021-04-01T08:49:07.000Z</Time>
            <Position>
              <LatitudeDegrees>42.40933754481375217437744140625</LatitudeDegrees>
              <LongitudeDegrees>2.77236409485340118408203125</LongitudeDegrees>
            </Position>
            <AltitudeMeters>849.79998779296875</AltitudeMeters>
            <DistanceMeters>17747.020281889</DistanceMeters>
          </Trackpoint>
          <Trackpoint>
            <Time>2021-04-01T08:49:10.000Z</Time>
            <Position>
              <LatitudeDegrees>42.40933754481375217437744140625</LatitudeDegrees>
              <LongitudeDegrees>2.77236409485340118408203125</LongitudeDegrees>
            </Position>
            <AltitudeMeters>849.79998779296875</AltitudeMeters>
            <DistanceMeters>17747.020281889</DistanceMeters>
          </Trackpoint>
          <Trackpoint>
            <Time>2021-04-01T08:49:12.000Z</Time>
            <Position>
              <LatitudeDegrees>42.40933754481375217437744140625</LatitudeDegrees>
              <LongitudeDegrees>2.77236409485340118408203125</LongitudeDegrees>
            </Position>
            <AltitudeMeters>849.79998779296875</AltitudeMeters>
            <DistanceMeters>17747.020281889</DistanceMeters>
          </Trackpoint>
          <Trackpoint>
            <Time>2021-04-01T08:49:15.000Z</Time>
            <Position>
              <LatitudeDegrees>42.40933754481375217437744140625</LatitudeDegrees>
              <LongitudeDegrees>2.77236409485340118408203125</LongitudeDegrees>
            </Position>
            <AltitudeMeters>850</AltitudeMeters>
            <DistanceMeters>17747.020281889</DistanceMeters>
          </Trackpoint>
          <Trackpoint>
            <Time>2021-04-01T08:49:19.000Z</Time>
            <Position>
              <LatitudeDegrees>42.40933737717568874359130859375</LatitudeDegrees>
              <LongitudeDegrees>2.77236409485340118408203125</LongitudeDegrees>
            </Position>
            <AltitudeMeters>850</AltitudeMeters>
            <DistanceMeters>17747.020281889</DistanceMeters>
          </Trackpoint>
          <Trackpoint>
            <Time>2021-04-01T08:49:23.000Z</Time>
            <Position>
              <LatitudeDegrees>42.40933720953762531280517578125</LatitudeDegrees>
              <LongitudeDegrees>2.7723645977675914764404296875</LongitudeDegrees>
            </Position>
            <AltitudeMeters>849.79998779296875</AltitudeMeters>
            <DistanceMeters>17747.020281889</DistanceMeters>
          </Trackpoint>
          <Trackpoint>
            <Time>2021-04-01T08:49:28.000Z</Time>
            <Position>
              <LatitudeDegrees>42.40933720953762531280517578125</LatitudeDegrees>
              <LongitudeDegrees>2.77238932438194751739501953125</LongitudeDegrees>
            </Position>
            <AltitudeMeters>849.79998779296875</AltitudeMeters>
            <DistanceMeters>17749.053942385</DistanceMeters>
          </Trackpoint>
          <Trackpoint>
            <Time>2021-04-01T08:49:37.000Z</Time>
            <Position>
              <LatitudeDegrees>42.40933888591825962066650390625</LatitudeDegrees>
              <LongitudeDegrees>2.77239150367677211761474609375</LongitudeDegrees>
            </Position>
            <AltitudeMeters>849.79998779296875</AltitudeMeters>
            <DistanceMeters>17749.322718521</DistanceMeters>
          </Trackpoint>
          <Trackpoint>
            <Time>2021-04-01T08:49:40.000Z</Time>
            <Position>
              <LatitudeDegrees>42.409341149032115936279296875</LatitudeDegrees>
              <LongitudeDegrees>2.77239200659096240997314453125</LongitudeDegrees>
            </Position>
            <AltitudeMeters>849.79998779296875</AltitudeMeters>
            <DistanceMeters>17749.555485483</DistanceMeters>
          </Trackpoint>
          <Trackpoint>
            <Time>2021-04-01T08:49:50.000Z</Time>
            <Position>
              <LatitudeDegrees>42.4093426577746868133544921875</LatitudeDegrees>
              <LongitudeDegrees>2.7723897434771060943603515625</LongitudeDegrees>
            </Position>
            <AltitudeMeters>850</AltitudeMeters>
            <DistanceMeters>17749.788252445</DistanceMeters>
          </Trackpoint>
          <Trackpoint>
            <Time>2021-04-01T08:50:10.000Z</Time>
            <Position>
              <LatitudeDegrees>42.40940175019204616546630859375</LatitudeDegrees>
              <LongitudeDegrees>2.7723599039018154144287109375</LongitudeDegrees>
            </Position>
            <AltitudeMeters>850</AltitudeMeters>
            <DistanceMeters>17756.808019333</DistanceMeters>
          </Trackpoint>
          <Trackpoint>
            <Time>2021-04-01T08:50:11.000Z</Time>
            <Position>
              <LatitudeDegrees>42.40940191783010959625244140625</LatitudeDegrees>
              <LongitudeDegrees>2.77236007153987884521484375</LongitudeDegrees>
            </Position>
            <AltitudeMeters>850</AltitudeMeters>
            <DistanceMeters>17756.903046047</DistanceMeters>
          </Trackpoint>
          <Trackpoint>
            <Time>2021-04-01T08:50:18.000Z</Time>
            <Position>
              <LatitudeDegrees>42.4094026722013950347900390625</LatitudeDegrees>
              <LongitudeDegrees>2.77238077484071254730224609375</LongitudeDegrees>
            </Position>
            <AltitudeMeters>850</AltitudeMeters>
            <DistanceMeters>17758.608239472</DistanceMeters>
          </Trackpoint>
          <Trackpoint>
            <Time>2021-04-01T08:50:21.000Z</Time>
            <Position>
              <LatitudeDegrees>42.4094026722013950347900390625</LatitudeDegrees>
              <LongitudeDegrees>2.7723873965442180633544921875</LongitudeDegrees>
            </Position>
            <AltitudeMeters>850</AltitudeMeters>
            <DistanceMeters>17759.162335672</DistanceMeters>
          </Trackpoint>
          <Trackpoint>
            <Time>2021-04-01T08:50:50.000Z</Time>
            <Position>
              <LatitudeDegrees>42.4094241298735141754150390625</LatitudeDegrees>
              <LongitudeDegrees>2.7723910845816135406494140625</LongitudeDegrees>
            </Position>
            <AltitudeMeters>850</AltitudeMeters>
            <DistanceMeters>17761.57009585</DistanceMeters>
          </Trackpoint>
          <Trackpoint>
            <Time>2021-04-01T08:50:59.000Z</Time>
            <Position>
              <LatitudeDegrees>42.40942974574863910675048828125</LatitudeDegrees>
              <LongitudeDegrees>2.77238999493420124053955078125</LongitudeDegrees>
            </Position>
            <AltitudeMeters>850</AltitudeMeters>
            <DistanceMeters>17762.200431764</DistanceMeters>
          </Trackpoint>
          <Trackpoint>
            <Time>2021-04-01T08:51:26.000Z</Time>
            <Position>
              <LatitudeDegrees>42.409410886466503143310546875</LatitudeDegrees>
              <LongitudeDegrees>2.77237976901233196258544921875</LongitudeDegrees>
            </Position>
            <AltitudeMeters>850</AltitudeMeters>
            <DistanceMeters>17764.461188997</DistanceMeters>
          </Trackpoint>
          <Trackpoint>
            <Time>2021-04-01T08:51:33.000Z</Time>
            <Position>
              <LatitudeDegrees>42.4094045162200927734375</LatitudeDegrees>
              <LongitudeDegrees>2.77237859554588794708251953125</LongitudeDegrees>
            </Position>
            <AltitudeMeters>850</AltitudeMeters>
            <DistanceMeters>17765.172303812</DistanceMeters>
          </Trackpoint>
          <Trackpoint>
            <Time>2021-04-01T08:51:50.000Z</Time>
            <Position>
              <LatitudeDegrees>42.4093748442828655242919921875</LatitudeDegrees>
              <LongitudeDegrees>2.7723870612680912017822265625</LongitudeDegrees>
            </Position>
            <AltitudeMeters>850</AltitudeMeters>
            <DistanceMeters>17768.546755826</DistanceMeters>
          </Trackpoint>
          <Trackpoint>
            <Time>2021-04-01T08:51:58.000Z</Time>
            <Position>
              <LatitudeDegrees>42.40936872549355030059814453125</LatitudeDegrees>
              <LongitudeDegrees>2.77238932438194751739501953125</LongitudeDegrees>
            </Position>
            <AltitudeMeters>850</AltitudeMeters>
            <DistanceMeters>17769.257870642</DistanceMeters>
          </Trackpoint>
          <Trackpoint>
            <Time>2021-04-01T08:52:20.000Z</Time>
            <Position>
              <LatitudeDegrees>42.40937610156834125518798828125</LatitudeDegrees>
              <LongitudeDegrees>2.77238412760198116302490234375</LongitudeDegrees>
            </Position>
            <AltitudeMeters>850</AltitudeMeters>
            <DistanceMeters>17770.188938491</DistanceMeters>
          </Trackpoint>
          <Trackpoint>
            <Time>2021-04-01T08:52:43.000Z</Time>
            <Position>
              <LatitudeDegrees>42.40937643684446811676025390625</LatitudeDegrees>
              <LongitudeDegrees>2.7723857201635837554931640625</LongitudeDegrees>
            </Position>
            <AltitudeMeters>850</AltitudeMeters>
            <DistanceMeters>17770.323326559</DistanceMeters>
          </Trackpoint>
          <Trackpoint>
            <Time>2021-04-01T08:53:03.000Z</Time>
            <Position>
              <LatitudeDegrees>42.40937576629221439361572265625</LatitudeDegrees>
              <LongitudeDegrees>2.7723862230777740478515625</LongitudeDegrees>
            </Position>
            <AltitudeMeters>850</AltitudeMeters>
            <DistanceMeters>17770.418353273</DistanceMeters>
          </Trackpoint>
          <Trackpoint>
            <Time>2021-04-01T08:53:14.000Z</Time>
            <Position>
              <LatitudeDegrees>42.4093751795589923858642578125</LatitudeDegrees>
              <LongitudeDegrees>2.77238647453486919403076171875</LongitudeDegrees>
            </Position>
            <AltitudeMeters>850</AltitudeMeters>
            <DistanceMeters>17770.418353273</DistanceMeters>
          </Trackpoint>
          <Trackpoint>
            <Time>2021-04-01T08:53:16.000Z</Time>
            <Position>
              <LatitudeDegrees>42.409375011920928955078125</LatitudeDegrees>
              <LongitudeDegrees>2.772386558353900909423828125</LongitudeDegrees>
            </Position>
            <AltitudeMeters>850</AltitudeMeters>
            <DistanceMeters>17770.418353273</DistanceMeters>
          </Trackpoint>
          <Trackpoint>
            <Time>2021-04-01T08:53:19.000Z</Time>
            <Position>
              <LatitudeDegrees>42.40937492810189723968505859375</LatitudeDegrees>
              <LongitudeDegrees>2.772386558353900909423828125</LongitudeDegrees>
            </Position>
            <AltitudeMeters>850</AltitudeMeters>
            <DistanceMeters>17770.418353273</DistanceMeters>
          </Trackpoint>
          <Trackpoint>
            <Time>2021-04-01T08:53:21.000Z</Time>
            <Position>
              <LatitudeDegrees>42.4093748442828655242919921875</LatitudeDegrees>
              <LongitudeDegrees>2.772386558353900909423828125</LongitudeDegrees>
            </Position>
            <AltitudeMeters>850</AltitudeMeters>
            <DistanceMeters>17770.418353273</DistanceMeters>
          </Trackpoint>
          <Trackpoint>
            <Time>2021-04-01T08:53:22.000Z</Time>
            <Position>
              <LatitudeDegrees>42.40937476046383380889892578125</LatitudeDegrees>
              <LongitudeDegrees>2.772386558353900909423828125</LongitudeDegrees>
            </Position>
            <AltitudeMeters>850</AltitudeMeters>
            <DistanceMeters>17770.513379988</DistanceMeters>
          </Trackpoint>
          <Trackpoint>
            <Time>2021-04-01T08:53:39.000Z</Time>
            <Position>
              <LatitudeDegrees>42.409374006092548370361328125</LatitudeDegrees>
              <LongitudeDegrees>2.772386558353900909423828125</LongitudeDegrees>
            </Position>
            <AltitudeMeters>850</AltitudeMeters>
            <DistanceMeters>17770.513379988</DistanceMeters>
          </Trackpoint>
          <Trackpoint>
            <Time>2021-04-01T08:53:41.000Z</Time>
            <Position>
              <LatitudeDegrees>42.40937392227351665496826171875</LatitudeDegrees>
              <LongitudeDegrees>2.772386558353900909423828125</LongitudeDegrees>
            </Position>
            <AltitudeMeters>850</AltitudeMeters>
            <DistanceMeters>17770.513379988</DistanceMeters>
          </Trackpoint>
          <Trackpoint>
            <Time>2021-04-01T08:53:47.000Z</Time>
            <Position>
              <LatitudeDegrees>42.4093735031783580780029296875</LatitudeDegrees>
              <LongitudeDegrees>2.77238664217293262481689453125</LongitudeDegrees>
            </Position>
            <AltitudeMeters>850</AltitudeMeters>
            <DistanceMeters>17770.513379988</DistanceMeters>
          </Trackpoint>
          <Trackpoint>
            <Time>2021-04-01T08:54:11.000Z</Time>
            <Position>
              <LatitudeDegrees>42.40937207825481891632080078125</LatitudeDegrees>
              <LongitudeDegrees>2.77238664217293262481689453125</LongitudeDegrees>
            </Position>
            <AltitudeMeters>850</AltitudeMeters>
            <DistanceMeters>17770.647768056</DistanceMeters>
          </Trackpoint>
          <Trackpoint>
            <Time>2021-04-01T08:54:15.000Z</Time>
            <Position>
              <LatitudeDegrees>42.409371994435787200927734375</LatitudeDegrees>
              <LongitudeDegrees>2.772386558353900909423828125</LongitudeDegrees>
            </Position>
            <AltitudeMeters>850</AltitudeMeters>
            <DistanceMeters>17770.647768056</DistanceMeters>
          </Trackpoint>
          <Trackpoint>
            <Time>2021-04-01T08:54:17.000Z</Time>
            <Position>
              <LatitudeDegrees>42.40937191061675548553466796875</LatitudeDegrees>
              <LongitudeDegrees>2.772386558353900909423828125</LongitudeDegrees>
            </Position>
            <AltitudeMeters>850</AltitudeMeters>
            <DistanceMeters>17770.647768056</DistanceMeters>
          </Trackpoint>
          <Trackpoint>
            <Time>2021-04-01T08:54:30.000Z</Time>
            <Position>
              <LatitudeDegrees>42.40937174297869205474853515625</LatitudeDegrees>
              <LongitudeDegrees>2.77238630689680576324462890625</LongitudeDegrees>
            </Position>
            <AltitudeMeters>850</AltitudeMeters>
            <DistanceMeters>17770.647768056</DistanceMeters>
          </Trackpoint>
          <Trackpoint>
            <Time>2021-04-01T08:54:32.000Z</Time>
            <Position>
              <LatitudeDegrees>42.40937165915966033935546875</LatitudeDegrees>
              <LongitudeDegrees>2.77238630689680576324462890625</LongitudeDegrees>
            </Position>
            <AltitudeMeters>850</AltitudeMeters>
            <DistanceMeters>17770.647768056</DistanceMeters>
          </Trackpoint>
          <Trackpoint>
            <Time>2021-04-01T08:54:34.000Z</Time>
            <Position>
              <LatitudeDegrees>42.40937165915966033935546875</LatitudeDegrees>
              <LongitudeDegrees>2.77238630689680576324462890625</LongitudeDegrees>
            </Position>
            <AltitudeMeters>850</AltitudeMeters>
            <DistanceMeters>17770.74279477</DistanceMeters>
          </Trackpoint>
          <Trackpoint>
            <Time>2021-04-01T08:54:36.000Z</Time>
            <Position>
              <LatitudeDegrees>42.40937157534062862396240234375</LatitudeDegrees>
              <LongitudeDegrees>2.77238630689680576324462890625</LongitudeDegrees>
            </Position>
            <AltitudeMeters>850</AltitudeMeters>
            <DistanceMeters>17770.74279477</DistanceMeters>
          </Trackpoint>
          <Trackpoint>
            <Time>2021-04-01T08:54:42.000Z</Time>
            <Position>
              <LatitudeDegrees>42.4093714915215969085693359375</LatitudeDegrees>
              <LongitudeDegrees>2.77238647453486919403076171875</LongitudeDegrees>
            </Position>
            <AltitudeMeters>850</AltitudeMeters>
            <DistanceMeters>17770.74279477</DistanceMeters>
          </Trackpoint>
          <Trackpoint>
            <Time>2021-04-01T08:54:43.000Z</Time>
            <Position>
              <LatitudeDegrees>42.40937140770256519317626953125</LatitudeDegrees>
              <LongitudeDegrees>2.77238647453486919403076171875</LongitudeDegrees>
            </Position>
            <AltitudeMeters>850</AltitudeMeters>
            <DistanceMeters>17770.74279477</DistanceMeters>
          </Trackpoint>
          <Trackpoint>
            <Time>2021-04-01T08:55:11.000Z</Time>
            <Position>
              <LatitudeDegrees>42.40937023423612117767333984375</LatitudeDegrees>
              <LongitudeDegrees>2.77238689363002777099609375</LongitudeDegrees>
            </Position>
            <AltitudeMeters>850</AltitudeMeters>
            <DistanceMeters>17770.837821485</DistanceMeters>
          </Trackpoint>
          <Trackpoint>
            <Time>2021-04-01T08:55:14.000Z</Time>
            <Position>
              <LatitudeDegrees>42.4093701504170894622802734375</LatitudeDegrees>
              <LongitudeDegrees>2.77238689363002777099609375</LongitudeDegrees>
            </Position>
            <AltitudeMeters>850</AltitudeMeters>
            <DistanceMeters>17770.837821485</DistanceMeters>
          </Trackpoint>
          <Trackpoint>
            <Time>2021-04-01T08:55:20.000Z</Time>
            <Position>
              <LatitudeDegrees>42.40936989895999431610107421875</LatitudeDegrees>
              <LongitudeDegrees>2.77238689363002777099609375</LongitudeDegrees>
            </Position>
            <AltitudeMeters>850</AltitudeMeters>
            <DistanceMeters>17770.837821485</DistanceMeters>
          </Trackpoint>
          <Trackpoint>
            <Time>2021-04-01T08:57:42.000Z</Time>
            <Position>
              <LatitudeDegrees>42.409339807927608489990234375</LatitudeDegrees>
              <LongitudeDegrees>2.77244732715189456939697265625</LongitudeDegrees>
            </Position>
            <AltitudeMeters>850</AltitudeMeters>
            <DistanceMeters>17776.828274204</DistanceMeters>
          </Trackpoint>
          <Trackpoint>
            <Time>2021-04-01T08:57:43.000Z</Time>
            <Position>
              <LatitudeDegrees>42.4093389697372913360595703125</LatitudeDegrees>
              <LongitudeDegrees>2.77244565077126026153564453125</LongitudeDegrees>
            </Position>
            <AltitudeMeters>850</AltitudeMeters>
            <DistanceMeters>17776.992865302</DistanceMeters>
          </Trackpoint>
          <Trackpoint>
            <Time>2021-04-01T08:57:46.000Z</Time>
            <Position>
              <LatitudeDegrees>42.4093379639089107513427734375</LatitudeDegrees>
              <LongitudeDegrees>2.77243576012551784515380859375</LongitudeDegrees>
            </Position>
            <AltitudeMeters>850.20001220703125</AltitudeMeters>
            <DistanceMeters>17777.810316008</DistanceMeters>
          </Trackpoint>
          <Trackpoint>
            <Time>2021-04-01T08:57:48.000Z</Time>
            <Position>
              <LatitudeDegrees>42.409337796270847320556640625</LatitudeDegrees>
              <LongitudeDegrees>2.77243173681199550628662109375</LongitudeDegrees>
            </Position>
            <AltitudeMeters>850.20001220703125</AltitudeMeters>
            <DistanceMeters>17778.139498203</DistanceMeters>
          </Trackpoint>
          <Trackpoint>
            <Time>2021-04-01T08:57:51.000Z</Time>
            <Position>
              <LatitudeDegrees>42.40933771245181560516357421875</LatitudeDegrees>
              <LongitudeDegrees>2.77242176234722137451171875</LongitudeDegrees>
            </Position>
            <AltitudeMeters>850.4000244140625</AltitudeMeters>
            <DistanceMeters>17778.956948909</DistanceMeters>
          </Trackpoint>
          <Trackpoint>
            <Time>2021-04-01T08:58:06.000Z</Time>
            <Position>
              <LatitudeDegrees>42.40934274159371852874755859375</LatitudeDegrees>
              <LongitudeDegrees>2.77237080037593841552734375</LongitudeDegrees>
            </Position>
            <AltitudeMeters>850.79998779296875</AltitudeMeters>
            <DistanceMeters>17783.183234655</DistanceMeters>
          </Trackpoint>
          <Trackpoint>
            <Time>2021-04-01T08:58:09.000Z</Time>
            <Position>
              <LatitudeDegrees>42.40934844128787517547607421875</LatitudeDegrees>
              <LongitudeDegrees>2.7723471634089946746826171875</LongitudeDegrees>
            </Position>
            <AltitudeMeters>850.79998779296875</AltitudeMeters>
            <DistanceMeters>17785.225756458</DistanceMeters>
          </Trackpoint>
          <Trackpoint>
            <Time>2021-04-01T08:58:14.000Z</Time>
            <Position>
              <LatitudeDegrees>42.409361265599727630615234375</LatitudeDegrees>
              <LongitudeDegrees>2.77232981286942958831787109375</LongitudeDegrees>
            </Position>
            <AltitudeMeters>850.5999755859375</AltitudeMeters>
            <DistanceMeters>17787.246052118</DistanceMeters>
          </Trackpoint>
          <Trackpoint>
            <Time>2021-04-01T08:58:18.000Z</Time>
            <Position>
              <LatitudeDegrees>42.40936336107552051544189453125</LatitudeDegrees>
              <LongitudeDegrees>2.77232428081333637237548828125</LongitudeDegrees>
            </Position>
            <AltitudeMeters>850.79998779296875</AltitudeMeters>
            <DistanceMeters>17787.757786636</DistanceMeters>
          </Trackpoint>
          <Trackpoint>
            <Time>2021-04-01T08:58:24.000Z</Time>
            <Position>
              <LatitudeDegrees>42.40936436690390110015869140625</LatitudeDegrees>
              <LongitudeDegrees>2.77232243679463863372802734375</LongitudeDegrees>
            </Position>
            <AltitudeMeters>850.79998779296875</AltitudeMeters>
            <DistanceMeters>17787.947840064</DistanceMeters>
          </Trackpoint>
          <Trackpoint>
            <Time>2021-04-01T08:58:26.000Z</Time>
            <Position>
              <LatitudeDegrees>42.40936436690390110015869140625</LatitudeDegrees>
              <LongitudeDegrees>2.7723223529756069183349609375</LongitudeDegrees>
            </Position>
            <AltitudeMeters>850.79998779296875</AltitudeMeters>
            <DistanceMeters>17787.947840064</DistanceMeters>
          </Trackpoint>
          <Trackpoint>
            <Time>2021-04-01T08:58:27.000Z</Time>
            <Position>
              <LatitudeDegrees>42.40936436690390110015869140625</LatitudeDegrees>
              <LongitudeDegrees>2.7723223529756069183349609375</LongitudeDegrees>
            </Position>
            <AltitudeMeters>850.79998779296875</AltitudeMeters>
            <DistanceMeters>17787.947840064</DistanceMeters>
          </Trackpoint>
          <Trackpoint>
            <Time>2021-04-01T08:58:39.000Z</Time>
            <Position>
              <LatitudeDegrees>42.4093694798648357391357421875</LatitudeDegrees>
              <LongitudeDegrees>2.77232344262301921844482421875</LongitudeDegrees>
            </Position>
            <AltitudeMeters>850.79998779296875</AltitudeMeters>
            <DistanceMeters>17788.525865002</DistanceMeters>
          </Trackpoint>
          <Trackpoint>
            <Time>2021-04-01T08:58:41.000Z</Time>
            <Position>
              <LatitudeDegrees>42.4093704856932163238525390625</LatitudeDegrees>
              <LongitudeDegrees>2.77232444845139980316162109375</LongitudeDegrees>
            </Position>
            <AltitudeMeters>851</AltitudeMeters>
            <DistanceMeters>17788.66025307</DistanceMeters>
          </Trackpoint>
          <Trackpoint>
            <Time>2021-04-01T08:58:49.000Z</Time>
            <Position>
              <LatitudeDegrees>42.40937392227351665496826171875</LatitudeDegrees>
              <LongitudeDegrees>2.7723273821175098419189453125</LongitudeDegrees>
            </Position>
            <AltitudeMeters>851.20001220703125</AltitudeMeters>
            <DistanceMeters>17789.105967869</DistanceMeters>
          </Trackpoint>
          <Trackpoint>
            <Time>2021-04-01T08:58:53.000Z</Time>
            <Position>
              <LatitudeDegrees>42.40937526337802410125732421875</LatitudeDegrees>
              <LongitudeDegrees>2.77232830412685871124267578125</LongitudeDegrees>
            </Position>
            <AltitudeMeters>851.20001220703125</AltitudeMeters>
            <DistanceMeters>17789.296021297</DistanceMeters>
          </Trackpoint>
          <Trackpoint>
            <Time>2021-04-01T08:58:59.000Z</Time>
            <Position>
              <LatitudeDegrees>42.4093755148351192474365234375</LatitudeDegrees>
              <LongitudeDegrees>2.7723277173936367034912109375</LongitudeDegrees>
            </Position>
            <AltitudeMeters>851.5999755859375</AltitudeMeters>
            <DistanceMeters>17789.296021297</DistanceMeters>
          </Trackpoint>
          <Trackpoint>
            <Time>2021-04-01T08:59:06.000Z</Time>
            <Position>
              <LatitudeDegrees>42.40937157534062862396240234375</LatitudeDegrees>
              <LongitudeDegrees>2.7723270468413829803466796875</LongitudeDegrees>
            </Position>
            <AltitudeMeters>851.5999755859375</AltitudeMeters>
            <DistanceMeters>17789.741736096</DistanceMeters>
          </Trackpoint>
          <Trackpoint>
            <Time>2021-04-01T08:59:09.000Z</Time>
            <Position>
              <LatitudeDegrees>42.40936755202710628509521484375</LatitudeDegrees>
              <LongitudeDegrees>2.77232528664171695709228515625</LongitudeDegrees>
            </Position>
            <AltitudeMeters>851.79998779296875</AltitudeMeters>
            <DistanceMeters>17790.20727002</DistanceMeters>
          </Trackpoint>
          <Trackpoint>
            <Time>2021-04-01T08:59:23.000Z</Time>
            <Position>
              <LatitudeDegrees>42.40936495363712310791015625</LatitudeDegrees>
              <LongitudeDegrees>2.7723163180053234100341796875</LongitudeDegrees>
            </Position>
            <AltitudeMeters>851.79998779296875</AltitudeMeters>
            <DistanceMeters>17791.002320554</DistanceMeters>
          </Trackpoint>
          <Trackpoint>
            <Time>2021-04-01T08:59:26.000Z</Time>
            <Position>
              <LatitudeDegrees>42.40936537273228168487548828125</LatitudeDegrees>
              <LongitudeDegrees>2.77231439016759395599365234375</LongitudeDegrees>
            </Position>
            <AltitudeMeters>851.5999755859375</AltitudeMeters>
            <DistanceMeters>17791.166911651</DistanceMeters>
          </Trackpoint>
          <Trackpoint>
            <Time>2021-04-01T08:59:40.000Z</Time>
            <Position>
              <LatitudeDegrees>42.40936621092259883880615234375</LatitudeDegrees>
              <LongitudeDegrees>2.7723089419305324554443359375</LongitudeDegrees>
            </Position>
            <AltitudeMeters>852</AltitudeMeters>
            <DistanceMeters>17791.622643764</DistanceMeters>
          </Trackpoint>
          <Trackpoint>
            <Time>2021-04-01T08:59:47.000Z</Time>
            <Position>
              <LatitudeDegrees>42.40936671383678913116455078125</LatitudeDegrees>
              <LongitudeDegrees>2.77230835519731044769287109375</LongitudeDegrees>
            </Position>
            <AltitudeMeters>851.79998779296875</AltitudeMeters>
            <DistanceMeters>17791.622643764</DistanceMeters>
          </Trackpoint>
          <Trackpoint>
            <Time>2021-04-01T08:59:49.000Z</Time>
            <Position>
              <LatitudeDegrees>42.409366630017757415771484375</LatitudeDegrees>
              <LongitudeDegrees>2.77230835519731044769287109375</LongitudeDegrees>
            </Position>
            <AltitudeMeters>851.5999755859375</AltitudeMeters>
            <DistanceMeters>17791.622643764</DistanceMeters>
          </Trackpoint>
          <Trackpoint>
            <Time>2021-04-01T08:59:54.000Z</Time>
            <Position>
              <LatitudeDegrees>42.40936654619872570037841796875</LatitudeDegrees>
              <LongitudeDegrees>2.7723092772066593170166015625</LongitudeDegrees>
            </Position>
            <AltitudeMeters>851.5999755859375</AltitudeMeters>
            <DistanceMeters>17791.622643764</DistanceMeters>
          </Trackpoint>
          <Trackpoint>
            <Time>2021-04-01T09:00:01.000Z</Time>
            <Position>
              <LatitudeDegrees>42.4093664623796939849853515625</LatitudeDegrees>
              <LongitudeDegrees>2.772309444844722747802734375</LongitudeDegrees>
            </Position>
            <AltitudeMeters>851.79998779296875</AltitudeMeters>
            <DistanceMeters>17791.622643764</DistanceMeters>
          </Trackpoint>
          <Trackpoint>
            <Time>2021-04-01T09:00:17.000Z</Time>
            <Position>
              <LatitudeDegrees>42.40936629474163055419921875</LatitudeDegrees>
              <LongitudeDegrees>2.772309780120849609375</LongitudeDegrees>
            </Position>
            <AltitudeMeters>851.5999755859375</AltitudeMeters>
            <DistanceMeters>17791.622643764</DistanceMeters>
          </Trackpoint>
          <Trackpoint>
            <Time>2021-04-01T09:00:33.000Z</Time>
            <Position>
              <LatitudeDegrees>42.409365959465503692626953125</LatitudeDegrees>
              <LongitudeDegrees>2.77231003157794475555419921875</LongitudeDegrees>
            </Position>
            <AltitudeMeters>851.79998779296875</AltitudeMeters>
            <DistanceMeters>17791.622643764</DistanceMeters>
          </Trackpoint>
          <Trackpoint>
            <Time>2021-04-01T09:00:39.000Z</Time>
            <Position>
              <LatitudeDegrees>42.40936570800840854644775390625</LatitudeDegrees>
              <LongitudeDegrees>2.77231003157794475555419921875</LongitudeDegrees>
            </Position>
            <AltitudeMeters>851.79998779296875</AltitudeMeters>
            <DistanceMeters>17791.622643764</DistanceMeters>
          </Trackpoint>
          <Trackpoint>
            <Time>2021-04-01T09:01:01.000Z</Time>
            <Position>
              <LatitudeDegrees>42.40936470218002796173095703125</LatitudeDegrees>
              <LongitudeDegrees>2.7723102830350399017333984375</LongitudeDegrees>
            </Position>
            <AltitudeMeters>851.5999755859375</AltitudeMeters>
            <DistanceMeters>17791.717670478</DistanceMeters>
          </Trackpoint>
          <Trackpoint>
            <Time>2021-04-01T09:01:10.000Z</Time>
            <Position>
              <LatitudeDegrees>42.4093644507229328155517578125</LatitudeDegrees>
              <LongitudeDegrees>2.77231045067310333251953125</LongitudeDegrees>
            </Position>
            <AltitudeMeters>851.5999755859375</AltitudeMeters>
            <DistanceMeters>17791.812697193</DistanceMeters>
          </Trackpoint>
          <Trackpoint>
            <Time>2021-04-01T09:01:12.000Z</Time>
            <Position>
              <LatitudeDegrees>42.4093644507229328155517578125</LatitudeDegrees>
              <LongitudeDegrees>2.77231053449213504791259765625</LongitudeDegrees>
            </Position>
            <AltitudeMeters>851.5999755859375</AltitudeMeters>
            <DistanceMeters>17791.947085261</DistanceMeters>
          </Trackpoint>
          <Trackpoint>
            <Time>2021-04-01T09:01:14.000Z</Time>
            <Position>
              <LatitudeDegrees>42.40936436690390110015869140625</LatitudeDegrees>
              <LongitudeDegrees>2.77231053449213504791259765625</LongitudeDegrees>
            </Position>
            <AltitudeMeters>851.5999755859375</AltitudeMeters>
            <DistanceMeters>17791.947085261</DistanceMeters>
          </Trackpoint>
          <Trackpoint>
            <Time>2021-04-01T09:01:16.000Z</Time>
            <Position>
              <LatitudeDegrees>42.40936436690390110015869140625</LatitudeDegrees>
              <LongitudeDegrees>2.7723106183111667633056640625</LongitudeDegrees>
            </Position>
            <AltitudeMeters>851.5999755859375</AltitudeMeters>
            <DistanceMeters>17791.947085261</DistanceMeters>
          </Trackpoint>
          <Trackpoint>
            <Time>2021-04-01T09:01:18.000Z</Time>
            <Position>
              <LatitudeDegrees>42.40936436690390110015869140625</LatitudeDegrees>
              <LongitudeDegrees>2.7723106183111667633056640625</LongitudeDegrees>
            </Position>
            <AltitudeMeters>851.5999755859375</AltitudeMeters>
            <DistanceMeters>17791.947085261</DistanceMeters>
          </Trackpoint>
          <Trackpoint>
            <Time>2021-04-01T09:01:42.000Z</Time>
            <Position>
              <LatitudeDegrees>42.40936419926583766937255859375</LatitudeDegrees>
              <LongitudeDegrees>2.77231103740632534027099609375</LongitudeDegrees>
            </Position>
            <AltitudeMeters>851.5999755859375</AltitudeMeters>
            <DistanceMeters>17791.947085261</DistanceMeters>
          </Trackpoint>
          <Trackpoint>
            <Time>2021-04-01T09:01:57.000Z</Time>
            <Position>
              <LatitudeDegrees>42.40936386398971080780029296875</LatitudeDegrees>
              <LongitudeDegrees>2.77231103740632534027099609375</LongitudeDegrees>
            </Position>
            <AltitudeMeters>851.5999755859375</AltitudeMeters>
            <DistanceMeters>17791.947085261</DistanceMeters>
          </Trackpoint>
          <Trackpoint>
            <Time>2021-04-01T09:01:59.000Z</Time>
            <Position>
              <LatitudeDegrees>42.40936386398971080780029296875</LatitudeDegrees>
              <LongitudeDegrees>2.77231103740632534027099609375</LongitudeDegrees>
            </Position>
            <AltitudeMeters>851.5999755859375</AltitudeMeters>
            <DistanceMeters>17791.947085261</DistanceMeters>
          </Trackpoint>
          <Trackpoint>
            <Time>2021-04-01T09:02:03.000Z</Time>
            <Position>
              <LatitudeDegrees>42.4093637801706790924072265625</LatitudeDegrees>
              <LongitudeDegrees>2.77231103740632534027099609375</LongitudeDegrees>
            </Position>
            <AltitudeMeters>851.5999755859375</AltitudeMeters>
            <DistanceMeters>17791.947085261</DistanceMeters>
          </Trackpoint>
          <Trackpoint>
            <Time>2021-04-01T09:02:14.000Z</Time>
            <Position>
              <LatitudeDegrees>42.40936361253261566162109375</LatitudeDegrees>
              <LongitudeDegrees>2.7723111212253570556640625</LongitudeDegrees>
            </Position>
            <AltitudeMeters>851.5999755859375</AltitudeMeters>
            <DistanceMeters>17791.947085261</DistanceMeters>
          </Trackpoint>
          <Trackpoint>
            <Time>2021-04-01T09:02:24.000Z</Time>
            <Position>
              <LatitudeDegrees>42.40936352871358394622802734375</LatitudeDegrees>
              <LongitudeDegrees>2.7723111212253570556640625</LongitudeDegrees>
            </Position>
            <AltitudeMeters>851.5999755859375</AltitudeMeters>
            <DistanceMeters>17791.947085261</DistanceMeters>
          </Trackpoint>
          <Trackpoint>
            <Time>2021-04-01T09:02:39.000Z</Time>
            <Position>
              <LatitudeDegrees>42.4093634448945522308349609375</LatitudeDegrees>
              <LongitudeDegrees>2.77231103740632534027099609375</LongitudeDegrees>
            </Position>
            <AltitudeMeters>851.5999755859375</AltitudeMeters>
            <DistanceMeters>17791.947085261</DistanceMeters>
          </Trackpoint>
          <Trackpoint>
            <Time>2021-04-01T09:02:41.000Z</Time>
            <Position>
              <LatitudeDegrees>42.4093634448945522308349609375</LatitudeDegrees>
              <LongitudeDegrees>2.77231103740632534027099609375</LongitudeDegrees>
            </Position>
            <AltitudeMeters>851.5999755859375</AltitudeMeters>
            <DistanceMeters>17791.947085261</DistanceMeters>
          </Trackpoint>
          <Trackpoint>
            <Time>2021-04-01T09:02:50.000Z</Time>
            <Position>
              <LatitudeDegrees>42.409363277256488800048828125</LatitudeDegrees>
              <LongitudeDegrees>2.77231103740632534027099609375</LongitudeDegrees>
            </Position>
            <AltitudeMeters>851.5999755859375</AltitudeMeters>
            <DistanceMeters>17791.947085261</DistanceMeters>
          </Trackpoint>
          <Trackpoint>
            <Time>2021-04-01T09:02:59.000Z</Time>
            <Position>
              <LatitudeDegrees>42.40936302579939365386962890625</LatitudeDegrees>
              <LongitudeDegrees>2.77231103740632534027099609375</LongitudeDegrees>
            </Position>
            <AltitudeMeters>851.5999755859375</AltitudeMeters>
            <DistanceMeters>17791.947085261</DistanceMeters>
          </Trackpoint>
          <Trackpoint>
            <Time>2021-04-01T09:03:04.000Z</Time>
            <Position>
              <LatitudeDegrees>42.4093629419803619384765625</LatitudeDegrees>
              <LongitudeDegrees>2.77231103740632534027099609375</LongitudeDegrees>
            </Position>
            <AltitudeMeters>851.5999755859375</AltitudeMeters>
            <DistanceMeters>17791.947085261</DistanceMeters>
          </Trackpoint>
          <Trackpoint>
            <Time>2021-04-01T09:03:13.000Z</Time>
            <Position>
              <LatitudeDegrees>42.4093627743422985076904296875</LatitudeDegrees>
              <LongitudeDegrees>2.77231103740632534027099609375</LongitudeDegrees>
            </Position>
            <AltitudeMeters>851.5999755859375</AltitudeMeters>
            <DistanceMeters>17791.947085261</DistanceMeters>
          </Trackpoint>
          <Trackpoint>
            <Time>2021-04-01T09:03:38.000Z</Time>
            <Position>
              <LatitudeDegrees>42.40936235524713993072509765625</LatitudeDegrees>
              <LongitudeDegrees>2.77231137268245220184326171875</LongitudeDegrees>
            </Position>
            <AltitudeMeters>851.5999755859375</AltitudeMeters>
            <DistanceMeters>17791.947085261</DistanceMeters>
          </Trackpoint>
          <Trackpoint>
            <Time>2021-04-01T09:03:49.000Z</Time>
            <Position>
              <LatitudeDegrees>42.4093621037900447845458984375</LatitudeDegrees>
              <LongitudeDegrees>2.7723119594156742095947265625</LongitudeDegrees>
            </Position>
            <AltitudeMeters>851.5999755859375</AltitudeMeters>
            <DistanceMeters>17791.947085261</DistanceMeters>
          </Trackpoint>
          <Trackpoint>
            <Time>2021-04-01T09:03:58.000Z</Time>
            <Position>
              <LatitudeDegrees>42.40936185233294963836669921875</LatitudeDegrees>
              <LongitudeDegrees>2.772312797605991363525390625</LongitudeDegrees>
            </Position>
            <AltitudeMeters>851.5999755859375</AltitudeMeters>
            <DistanceMeters>17792.081473329</DistanceMeters>
          </Trackpoint>
          <Trackpoint>
            <Time>2021-04-01T09:04:14.000Z</Time>
            <Position>
              <LatitudeDegrees>42.40936151705682277679443359375</LatitudeDegrees>
              <LongitudeDegrees>2.77231405489146709442138671875</LongitudeDegrees>
            </Position>
            <AltitudeMeters>851.5999755859375</AltitudeMeters>
            <DistanceMeters>17792.215861397</DistanceMeters>
          </Trackpoint>
          <Trackpoint>
            <Time>2021-04-01T09:04:18.000Z</Time>
            <Position>
              <LatitudeDegrees>42.40936151705682277679443359375</LatitudeDegrees>
              <LongitudeDegrees>2.77231422252953052520751953125</LongitudeDegrees>
            </Position>
            <AltitudeMeters>851.5999755859375</AltitudeMeters>
            <DistanceMeters>17792.215861397</DistanceMeters>
          </Trackpoint>
          <Trackpoint>
            <Time>2021-04-01T09:04:54.000Z</Time>
            <Position>
              <LatitudeDegrees>42.40936185233294963836669921875</LatitudeDegrees>
              <LongitudeDegrees>2.7723149769008159637451171875</LongitudeDegrees>
            </Position>
            <AltitudeMeters>851.5999755859375</AltitudeMeters>
            <DistanceMeters>17792.350249466</DistanceMeters>
          </Trackpoint>
          <Trackpoint>
            <Time>2021-04-01T09:05:02.000Z</Time>
            <Position>
              <LatitudeDegrees>42.409361936151981353759765625</LatitudeDegrees>
              <LongitudeDegrees>2.77231506071984767913818359375</LongitudeDegrees>
            </Position>
            <AltitudeMeters>851.5999755859375</AltitudeMeters>
            <DistanceMeters>17792.350249466</DistanceMeters>
          </Trackpoint>
          <Trackpoint>
            <Time>2021-04-01T09:05:18.000Z</Time>
            <Position>
              <LatitudeDegrees>42.40936218760907649993896484375</LatitudeDegrees>
              <LongitudeDegrees>2.772314809262752532958984375</LongitudeDegrees>
            </Position>
            <AltitudeMeters>851.5999755859375</AltitudeMeters>
            <DistanceMeters>17792.350249466</DistanceMeters>
          </Trackpoint>
          <Trackpoint>
            <Time>2021-04-01T09:05:35.000Z</Time>
            <Position>
              <LatitudeDegrees>42.40936235524713993072509765625</LatitudeDegrees>
              <LongitudeDegrees>2.77231489308178424835205078125</LongitudeDegrees>
            </Position>
            <AltitudeMeters>851.5999755859375</AltitudeMeters>
            <DistanceMeters>17792.350249466</DistanceMeters>
          </Trackpoint>
          <Trackpoint>
            <Time>2021-04-01T09:05:36.000Z</Time>
            <Position>
              <LatitudeDegrees>42.40936235524713993072509765625</LatitudeDegrees>
              <LongitudeDegrees>2.77231489308178424835205078125</LongitudeDegrees>
            </Position>
            <AltitudeMeters>851.5999755859375</AltitudeMeters>
            <DistanceMeters>17792.350249466</DistanceMeters>
          </Trackpoint>
          <Trackpoint>
            <Time>2021-04-01T09:05:39.000Z</Time>
            <Position>
              <LatitudeDegrees>42.40936235524713993072509765625</LatitudeDegrees>
              <LongitudeDegrees>2.7723149769008159637451171875</LongitudeDegrees>
            </Position>
            <AltitudeMeters>851.5999755859375</AltitudeMeters>
            <DistanceMeters>17792.350249466</DistanceMeters>
          </Trackpoint>
          <Trackpoint>
            <Time>2021-04-01T09:05:42.000Z</Time>
            <Position>
              <LatitudeDegrees>42.40936235524713993072509765625</LatitudeDegrees>
              <LongitudeDegrees>2.77231506071984767913818359375</LongitudeDegrees>
            </Position>
            <AltitudeMeters>851.5999755859375</AltitudeMeters>
            <DistanceMeters>17792.350249466</DistanceMeters>
          </Trackpoint>
          <Trackpoint>
            <Time>2021-04-01T09:05:46.000Z</Time>
            <Position>
              <LatitudeDegrees>42.40936227142810821533203125</LatitudeDegrees>
              <LongitudeDegrees>2.77231514453887939453125</LongitudeDegrees>
            </Position>
            <AltitudeMeters>851.5999755859375</AltitudeMeters>
            <DistanceMeters>17792.350249466</DistanceMeters>
          </Trackpoint>
          <Trackpoint>
            <Time>2021-04-01T09:05:49.000Z</Time>
            <Position>
              <LatitudeDegrees>42.4093621037900447845458984375</LatitudeDegrees>
              <LongitudeDegrees>2.77231522835791110992431640625</LongitudeDegrees>
            </Position>
            <AltitudeMeters>851.5999755859375</AltitudeMeters>
            <DistanceMeters>17792.350249466</DistanceMeters>
          </Trackpoint>
          <Trackpoint>
            <Time>2021-04-01T09:05:56.000Z</Time>
            <Position>
              <LatitudeDegrees>42.40930871106684207916259765625</LatitudeDegrees>
              <LongitudeDegrees>2.77221816591918468475341796875</LongitudeDegrees>
            </Position>
            <AltitudeMeters>851.5999755859375</AltitudeMeters>
            <DistanceMeters>17802.297690226</DistanceMeters>
          </Trackpoint>
          <Trackpoint>
            <Time>2021-04-01T09:05:57.000Z</Time>
            <Position>
              <LatitudeDegrees>42.4093041010200977325439453125</LatitudeDegrees>
              <LongitudeDegrees>2.77220911346375942230224609375</LongitudeDegrees>
            </Position>
            <AltitudeMeters>851.5999755859375</AltitudeMeters>
            <DistanceMeters>17803.199192793</DistanceMeters>
          </Trackpoint>
          <Trackpoint>
            <Time>2021-04-01T09:06:01.000Z</Time>
            <Position>
              <LatitudeDegrees>42.4092782847583293914794921875</LatitudeDegrees>
              <LongitudeDegrees>2.77219603769481182098388671875</LongitudeDegrees>
            </Position>
            <AltitudeMeters>851.5999755859375</AltitudeMeters>
            <DistanceMeters>17806.266657488</DistanceMeters>
          </Trackpoint>
          <Trackpoint>
            <Time>2021-04-01T09:06:05.000Z</Time>
            <Position>
              <LatitudeDegrees>42.40926495753228664398193359375</LatitudeDegrees>
              <LongitudeDegrees>2.7721932716667652130126953125</LongitudeDegrees>
            </Position>
            <AltitudeMeters>851.79998779296875</AltitudeMeters>
            <DistanceMeters>17807.766153749</DistanceMeters>
          </Trackpoint>
          <Trackpoint>
            <Time>2021-04-01T09:06:12.000Z</Time>
            <Position>
              <LatitudeDegrees>42.40928272716701030731201171875</LatitudeDegrees>
              <LongitudeDegrees>2.77208648622035980224609375</LongitudeDegrees>
            </Position>
            <AltitudeMeters>852</AltitudeMeters>
            <DistanceMeters>17816.762127575</DistanceMeters>
          </Trackpoint>
          <Trackpoint>
            <Time>2021-04-01T09:06:17.000Z</Time>
            <Position>
              <LatitudeDegrees>42.4092883430421352386474609375</LatitudeDegrees>
              <LongitudeDegrees>2.77202303521335124969482421875</LongitudeDegrees>
            </Position>
            <AltitudeMeters>852.20001220703125</AltitudeMeters>
            <DistanceMeters>17822.013589606</DistanceMeters>
          </Trackpoint>
          <Trackpoint>
            <Time>2021-04-01T09:06:18.000Z</Time>
            <Position>
              <LatitudeDegrees>42.4092916958034038543701171875</LatitudeDegrees>
              <LongitudeDegrees>2.7720239572227001190185546875</LongitudeDegrees>
            </Position>
            <AltitudeMeters>852.20001220703125</AltitudeMeters>
            <DistanceMeters>17822.405394787</DistanceMeters>
          </Trackpoint>
          <Trackpoint>
            <Time>2021-04-01T09:06:19.000Z</Time>
            <Position>
              <LatitudeDegrees>42.4092923663556575775146484375</LatitudeDegrees>
              <LongitudeDegrees>2.772024460136890411376953125</LongitudeDegrees>
            </Position>
            <AltitudeMeters>852.4000244140625</AltitudeMeters>
            <DistanceMeters>17822.500421501</DistanceMeters>
          </Trackpoint>
          <Trackpoint>
            <Time>2021-04-01T09:06:24.000Z</Time>
            <Position>
              <LatitudeDegrees>42.40929295308887958526611328125</LatitudeDegrees>
              <LongitudeDegrees>2.77199520729482173919677734375</LongitudeDegrees>
            </Position>
            <AltitudeMeters>852.5999755859375</AltitudeMeters>
            <DistanceMeters>17824.904428349</DistanceMeters>
          </Trackpoint>
          <Trackpoint>
            <Time>2021-04-01T09:06:26.000Z</Time>
            <Position>
              <LatitudeDegrees>42.409300245344638824462890625</LatitudeDegrees>
              <LongitudeDegrees>2.77197358198463916778564453125</LongitudeDegrees>
            </Position>
            <AltitudeMeters>852.5999755859375</AltitudeMeters>
            <DistanceMeters>17826.858839343</DistanceMeters>
          </Trackpoint>
          <Trackpoint>
            <Time>2021-04-01T09:06:28.000Z</Time>
            <Position>
              <LatitudeDegrees>42.4093118123710155487060546875</LatitudeDegrees>
              <LongitudeDegrees>2.77195229195058345794677734375</LongitudeDegrees>
            </Position>
            <AltitudeMeters>852.79998779296875</AltitudeMeters>
            <DistanceMeters>17829.02994503</DistanceMeters>
          </Trackpoint>
          <Trackpoint>
            <Time>2021-04-01T09:06:33.000Z</Time>
            <Position>
              <LatitudeDegrees>42.409335784614086151123046875</LatitudeDegrees>
              <LongitudeDegrees>2.7718938700854778289794921875</LongitudeDegrees>
            </Position>
            <AltitudeMeters>852.79998779296875</AltitudeMeters>
            <DistanceMeters>17834.521798572</DistanceMeters>
          </Trackpoint>
          <Trackpoint>
            <Time>2021-04-01T09:06:38.000Z</Time>
            <Position>
              <LatitudeDegrees>42.40937056951224803924560546875</LatitudeDegrees>
              <LongitudeDegrees>2.77185791172087192535400390625</LongitudeDegrees>
            </Position>
            <AltitudeMeters>853</AltitudeMeters>
            <DistanceMeters>17839.392323268</DistanceMeters>
          </Trackpoint>
          <Trackpoint>
            <Time>2021-04-01T09:06:41.000Z</Time>
            <Position>
              <LatitudeDegrees>42.40939085371792316436767578125</LatitudeDegrees>
              <LongitudeDegrees>2.77183569967746734619140625</LongitudeDegrees>
            </Position>
            <AltitudeMeters>853.20001220703125</AltitudeMeters>
            <DistanceMeters>17842.296473987</DistanceMeters>
          </Trackpoint>
          <Trackpoint>
            <Time>2021-04-01T09:06:44.000Z</Time>
            <Position>
              <LatitudeDegrees>42.409416250884532928466796875</LatitudeDegrees>
              <LongitudeDegrees>2.7718174271285533905029296875</LongitudeDegrees>
            </Position>
            <AltitudeMeters>853.5999755859375</AltitudeMeters>
            <DistanceMeters>17845.496490657</DistanceMeters>
          </Trackpoint>
          <Trackpoint>
            <Time>2021-04-01T09:06:52.000Z</Time>
            <Position>
              <LatitudeDegrees>42.40947718732059001922607421875</LatitudeDegrees>
              <LongitudeDegrees>2.77176596224308013916015625</LongitudeDegrees>
            </Position>
            <AltitudeMeters>854</AltitudeMeters>
            <DistanceMeters>17853.488909613</DistanceMeters>
          </Trackpoint>
          <Trackpoint>
            <Time>2021-04-01T09:06:56.000Z</Time>
            <Position>
              <LatitudeDegrees>42.409503757953643798828125</LatitudeDegrees>
              <LongitudeDegrees>2.771736793220043182373046875</LongitudeDegrees>
            </Position>
            <AltitudeMeters>854.20001220703125</AltitudeMeters>
            <DistanceMeters>17857.294726558</DistanceMeters>
          </Trackpoint>
          <Trackpoint>
            <Time>2021-04-01T09:06:57.000Z</Time>
            <Position>
              <LatitudeDegrees>42.40951088257133960723876953125</LatitudeDegrees>
              <LongitudeDegrees>2.77172849513590335845947265625</LongitudeDegrees>
            </Position>
            <AltitudeMeters>854.20001220703125</AltitudeMeters>
            <DistanceMeters>17858.335692058</DistanceMeters>
          </Trackpoint>
          <Trackpoint>
            <Time>2021-04-01T09:06:59.000Z</Time>
            <Position>
              <LatitudeDegrees>42.409522198140621185302734375</LatitudeDegrees>
              <LongitudeDegrees>2.77171676047146320343017578125</LongitudeDegrees>
            </Position>
            <AltitudeMeters>854.20001220703125</AltitudeMeters>
            <DistanceMeters>17859.922951119</DistanceMeters>
          </Trackpoint>
          <Trackpoint>
            <Time>2021-04-01T09:07:00.000Z</Time>
            <Position>
              <LatitudeDegrees>42.4095304124057292938232421875</LatitudeDegrees>
              <LongitudeDegrees>2.7717091329395771026611328125</LongitudeDegrees>
            </Position>
            <AltitudeMeters>854.20001220703125</AltitudeMeters>
            <DistanceMeters>17861.035210295</DistanceMeters>
          </Trackpoint>
          <Trackpoint>
            <Time>2021-04-01T09:07:07.000Z</Time>
            <Position>
              <LatitudeDegrees>42.4095766805112361907958984375</LatitudeDegrees>
              <LongitudeDegrees>2.7716672234237194061279296875</LongitudeDegrees>
            </Position>
            <AltitudeMeters>854.5999755859375</AltitudeMeters>
            <DistanceMeters>17867.231651615</DistanceMeters>
          </Trackpoint>
          <Trackpoint>
            <Time>2021-04-01T09:07:11.000Z</Time>
            <Position>
              <LatitudeDegrees>42.40960610099136829376220703125</LatitudeDegrees>
              <LongitudeDegrees>2.77165020816028118133544921875</LongitudeDegrees>
            </Position>
            <AltitudeMeters>854.79998779296875</AltitudeMeters>
            <DistanceMeters>17870.792301461</DistanceMeters>
          </Trackpoint>
          <Trackpoint>
            <Time>2021-04-01T09:07:14.000Z</Time>
            <Position>
              <LatitudeDegrees>42.40963091142475605010986328125</LatitudeDegrees>
              <LongitudeDegrees>2.7716338634490966796875</LongitudeDegrees>
            </Position>
            <AltitudeMeters>855</AltitudeMeters>
            <DistanceMeters>17873.862708569</DistanceMeters>
          </Trackpoint>
          <Trackpoint>
            <Time>2021-04-01T09:07:17.000Z</Time>
            <Position>
              <LatitudeDegrees>42.4096554704010486602783203125</LatitudeDegrees>
              <LongitudeDegrees>2.7716209553182125091552734375</LongitudeDegrees>
            </Position>
            <AltitudeMeters>855.4000244140625</AltitudeMeters>
            <DistanceMeters>17876.794710066</DistanceMeters>
          </Trackpoint>
          <Trackpoint>
            <Time>2021-04-01T09:07:19.000Z</Time>
            <Position>
              <LatitudeDegrees>42.40967416204512119293212890625</LatitudeDegrees>
              <LongitudeDegrees>2.77160729281604290008544921875</LongitudeDegrees>
            </Position>
            <AltitudeMeters>855.5999755859375</AltitudeMeters>
            <DistanceMeters>17879.158947219</DistanceMeters>
          </Trackpoint>
          <Trackpoint>
            <Time>2021-04-01T09:07:20.000Z</Time>
            <Position>
              <LatitudeDegrees>42.4096796102821826934814453125</LatitudeDegrees>
              <LongitudeDegrees>2.77160226367413997650146484375</LongitudeDegrees>
            </Position>
            <AltitudeMeters>855.79998779296875</AltitudeMeters>
            <DistanceMeters>17879.895020984</DistanceMeters>
          </Trackpoint>
          <Trackpoint>
            <Time>2021-04-01T09:07:28.000Z</Time>
            <Position>
              <LatitudeDegrees>42.4097384512424468994140625</LatitudeDegrees>
              <LongitudeDegrees>2.77155884541571140289306640625</LongitudeDegrees>
            </Position>
            <AltitudeMeters>856.79998779296875</AltitudeMeters>
            <DistanceMeters>17887.35325609</DistanceMeters>
          </Trackpoint>
          <Trackpoint>
            <Time>2021-04-01T09:07:29.000Z</Time>
            <Position>
              <LatitudeDegrees>42.40974607877433300018310546875</LatitudeDegrees>
              <LongitudeDegrees>2.77155297808349132537841796875</LongitudeDegrees>
            </Position>
            <AltitudeMeters>856.79998779296875</AltitudeMeters>
            <DistanceMeters>17888.331615994</DistanceMeters>
          </Trackpoint>
          <Trackpoint>
            <Time>2021-04-01T09:07:30.000Z</Time>
            <Position>
              <LatitudeDegrees>42.40974607877433300018310546875</LatitudeDegrees>
              <LongitudeDegrees>2.77155297808349132537841796875</LongitudeDegrees>
            </Position>
            <AltitudeMeters>857</AltitudeMeters>
            <DistanceMeters>17888.426642709</DistanceMeters>
          </Trackpoint>
          <Trackpoint>
            <Time>2021-04-01T09:07:34.000Z</Time>
            <Position>
              <LatitudeDegrees>42.40977801382541656494140625</LatitudeDegrees>
              <LongitudeDegrees>2.7715300954878330230712890625</LongitudeDegrees>
            </Position>
            <AltitudeMeters>857.5999755859375</AltitudeMeters>
            <DistanceMeters>17892.447070153</DistanceMeters>
          </Trackpoint>
          <Trackpoint>
            <Time>2021-04-01T09:07:37.000Z</Time>
            <Position>
              <LatitudeDegrees>42.409793436527252197265625</LatitudeDegrees>
              <LongitudeDegrees>2.77151710353791713714599609375</LongitudeDegrees>
            </Position>
            <AltitudeMeters>858</AltitudeMeters>
            <DistanceMeters>17894.467365813</DistanceMeters>
          </Trackpoint>
          <Trackpoint>
            <Time>2021-04-01T09:07:41.000Z</Time>
            <Position>
              <LatitudeDegrees>42.4098234437406063079833984375</LatitudeDegrees>
              <LongitudeDegrees>2.77149950154125690460205078125</LongitudeDegrees>
            </Position>
            <AltitudeMeters>858.79998779296875</AltitudeMeters>
            <DistanceMeters>17898.108265732</DistanceMeters>
          </Trackpoint>
          <Trackpoint>
            <Time>2021-04-01T09:07:43.000Z</Time>
            <Position>
              <LatitudeDegrees>42.409835346043109893798828125</LatitudeDegrees>
              <LongitudeDegrees>2.7714932151138782501220703125</LongitudeDegrees>
            </Position>
            <AltitudeMeters>859</AltitudeMeters>
            <DistanceMeters>17899.527317192</DistanceMeters>
          </Trackpoint>
          <Trackpoint>
            <Time>2021-04-01T09:07:49.000Z</Time>
            <Position>
              <LatitudeDegrees>42.409874908626079559326171875</LatitudeDegrees>
              <LongitudeDegrees>2.771465219557285308837890625</LongitudeDegrees>
            </Position>
            <AltitudeMeters>860</AltitudeMeters>
            <DistanceMeters>17904.49604228</DistanceMeters>
          </Trackpoint>
          <Trackpoint>
            <Time>2021-04-01T09:07:51.000Z</Time>
            <Position>
              <LatitudeDegrees>42.40989066660404205322265625</LatitudeDegrees>
              <LongitudeDegrees>2.7714590169489383697509765625</LongitudeDegrees>
            </Position>
            <AltitudeMeters>860.20001220703125</AltitudeMeters>
            <DistanceMeters>17906.323917627</DistanceMeters>
          </Trackpoint>
          <Trackpoint>
            <Time>2021-04-01T09:07:59.000Z</Time>
            <Position>
              <LatitudeDegrees>42.4099464900791645050048828125</LatitudeDegrees>
              <LongitudeDegrees>2.771429680287837982177734375</LongitudeDegrees>
            </Position>
            <AltitudeMeters>861</AltitudeMeters>
            <DistanceMeters>17912.989349053</DistanceMeters>
          </Trackpoint>
          <Trackpoint>
            <Time>2021-04-01T09:08:00.000Z</Time>
            <Position>
              <LatitudeDegrees>42.40995244123041629791259765625</LatitudeDegrees>
              <LongitudeDegrees>2.77142037637531757354736328125</LongitudeDegrees>
            </Position>
            <AltitudeMeters>861.20001220703125</AltitudeMeters>
            <DistanceMeters>17914.003956719</DistanceMeters>
          </Trackpoint>
          <Trackpoint>
            <Time>2021-04-01T09:08:08.000Z</Time>
            <Position>
              <LatitudeDegrees>42.4099964462220668792724609375</LatitudeDegrees>
              <LongitudeDegrees>2.7713696658611297607421875</LongitudeDegrees>
            </Position>
            <AltitudeMeters>861.79998779296875</AltitudeMeters>
            <DistanceMeters>17920.43425376</DistanceMeters>
          </Trackpoint>
          <Trackpoint>
            <Time>2021-04-01T09:08:10.000Z</Time>
            <Position>
              <LatitudeDegrees>42.4100024811923503875732421875</LatitudeDegrees>
              <LongitudeDegrees>2.77135583572089672088623046875</LongitudeDegrees>
            </Position>
            <AltitudeMeters>861.79998779296875</AltitudeMeters>
            <DistanceMeters>17921.757822734</DistanceMeters>
          </Trackpoint>
          <Trackpoint>
            <Time>2021-04-01T09:08:12.000Z</Time>
            <Position>
              <LatitudeDegrees>42.41001044400036334991455078125</LatitudeDegrees>
              <LongitudeDegrees>2.7713409997522830963134765625</LongitudeDegrees>
            </Position>
            <AltitudeMeters>862.20001220703125</AltitudeMeters>
            <DistanceMeters>17923.269315156</DistanceMeters>
          </Trackpoint>
          <Trackpoint>
            <Time>2021-04-01T09:08:21.000Z</Time>
            <Position>
              <LatitudeDegrees>42.4100453965365886688232421875</LatitudeDegrees>
              <LongitudeDegrees>2.7712695859372615814208984375</LongitudeDegrees>
            </Position>
            <AltitudeMeters>863.20001220703125</AltitudeMeters>
            <DistanceMeters>17930.310275295</DistanceMeters>
          </Trackpoint>
          <Trackpoint>
            <Time>2021-04-01T09:08:28.000Z</Time>
            <Position>
              <LatitudeDegrees>42.4100708775222301483154296875</LatitudeDegrees>
              <LongitudeDegrees>2.77121745049953460693359375</LongitudeDegrees>
            </Position>
            <AltitudeMeters>864.4000244140625</AltitudeMeters>
            <DistanceMeters>17935.448752065</DistanceMeters>
          </Trackpoint>
          <Trackpoint>
            <Time>2021-04-01T09:08:32.000Z</Time>
            <Position>
              <LatitudeDegrees>42.41008688695728778839111328125</LatitudeDegrees>
              <LongitudeDegrees>2.77119155041873455047607421875</LongitudeDegrees>
            </Position>
            <AltitudeMeters>864.79998779296875</AltitudeMeters>
            <DistanceMeters>17938.225744194</DistanceMeters>
          </Trackpoint>
          <Trackpoint>
            <Time>2021-04-01T09:08:35.000Z</Time>
            <Position>
              <LatitudeDegrees>42.4101030640304088592529296875</LatitudeDegrees>
              <LongitudeDegrees>2.7711720205843448638916015625</LongitudeDegrees>
            </Position>
            <AltitudeMeters>865.4000244140625</AltitudeMeters>
            <DistanceMeters>17940.639123424</DistanceMeters>
          </Trackpoint>
          <Trackpoint>
            <Time>2021-04-01T09:08:39.000Z</Time>
            <Position>
              <LatitudeDegrees>42.41012242622673511505126953125</LatitudeDegrees>
              <LongitudeDegrees>2.77115031145513057708740234375</LongitudeDegrees>
            </Position>
            <AltitudeMeters>865.79998779296875</AltitudeMeters>
            <DistanceMeters>17943.437172079</DistanceMeters>
          </Trackpoint>
          <Trackpoint>
            <Time>2021-04-01T09:08:42.000Z</Time>
            <Position>
              <LatitudeDegrees>42.41014053113758563995361328125</LatitudeDegrees>
              <LongitudeDegrees>2.77113287709653377532958984375</LongitudeDegrees>
            </Position>
            <AltitudeMeters>866.4000244140625</AltitudeMeters>
            <DistanceMeters>17945.909693414</DistanceMeters>
          </Trackpoint>
          <Trackpoint>
            <Time>2021-04-01T09:08:43.000Z</Time>
            <Position>
              <LatitudeDegrees>42.4101459793746471405029296875</LatitudeDegrees>
              <LongitudeDegrees>2.77112566865980625152587890625</LongitudeDegrees>
            </Position>
            <AltitudeMeters>866.79998779296875</AltitudeMeters>
            <DistanceMeters>17946.759638186</DistanceMeters>
          </Trackpoint>
          <Trackpoint>
            <Time>2021-04-01T09:08:45.000Z</Time>
            <Position>
              <LatitudeDegrees>42.41015494801104068756103515625</LatitudeDegrees>
              <LongitudeDegrees>2.771111838519573211669921875</LongitudeDegrees>
            </Position>
            <AltitudeMeters>867</AltitudeMeters>
            <DistanceMeters>17948.274114801</DistanceMeters>
          </Trackpoint>
          <Trackpoint>
            <Time>2021-04-01T09:08:47.000Z</Time>
            <Position>
              <LatitudeDegrees>42.41016433574259281158447265625</LatitudeDegrees>
              <LongitudeDegrees>2.771100103855133056640625</LongitudeDegrees>
            </Position>
            <AltitudeMeters>867.4000244140625</AltitudeMeters>
            <DistanceMeters>17949.696344432</DistanceMeters>
          </Trackpoint>
          <Trackpoint>
            <Time>2021-04-01T09:08:48.000Z</Time>
            <Position>
              <LatitudeDegrees>42.41017255000770092010498046875</LatitudeDegrees>
              <LongitudeDegrees>2.77108996175229549407958984375</LongitudeDegrees>
            </Position>
            <AltitudeMeters>867.4000244140625</AltitudeMeters>
            <DistanceMeters>17950.935341202</DistanceMeters>
          </Trackpoint>
          <Trackpoint>
            <Time>2021-04-01T09:08:56.000Z</Time>
            <Position>
              <LatitudeDegrees>42.410210184752941131591796875</LatitudeDegrees>
              <LongitudeDegrees>2.77103640139102935791015625</LongitudeDegrees>
            </Position>
            <AltitudeMeters>868.4000244140625</AltitudeMeters>
            <DistanceMeters>17957.012594912</DistanceMeters>
          </Trackpoint>
          <Trackpoint>
            <Time>2021-04-01T09:08:57.000Z</Time>
            <Position>
              <LatitudeDegrees>42.41021119058132171630859375</LatitudeDegrees>
              <LongitudeDegrees>2.7710317075252532958984375</LongitudeDegrees>
            </Position>
            <AltitudeMeters>868.4000244140625</AltitudeMeters>
            <DistanceMeters>17957.392701769</DistanceMeters>
          </Trackpoint>
          <Trackpoint>
            <Time>2021-04-01T09:08:58.000Z</Time>
            <Position>
              <LatitudeDegrees>42.41021496243774890899658203125</LatitudeDegrees>
              <LongitudeDegrees>2.7710224874317646026611328125</LongitudeDegrees>
            </Position>
            <AltitudeMeters>868.5999755859375</AltitudeMeters>
            <DistanceMeters>17958.263635992</DistanceMeters>
          </Trackpoint>
          <Trackpoint>
            <Time>2021-04-01T09:09:05.000Z</Time>
            <Position>
              <LatitudeDegrees>42.41023692302405834197998046875</LatitudeDegrees>
              <LongitudeDegrees>2.77096909470856189727783203125</LongitudeDegrees>
            </Position>
            <AltitudeMeters>869.5999755859375</AltitudeMeters>
            <DistanceMeters>17963.286586678</DistanceMeters>
          </Trackpoint>
          <Trackpoint>
            <Time>2021-04-01T09:09:07.000Z</Time>
            <Position>
              <LatitudeDegrees>42.41024245508015155792236328125</LatitudeDegrees>
              <LongitudeDegrees>2.7709534205496311187744140625</LongitudeDegrees>
            </Position>
            <AltitudeMeters>870</AltitudeMeters>
            <DistanceMeters>17964.715151439</DistanceMeters>
          </Trackpoint>
          <Trackpoint>
            <Time>2021-04-01T09:09:12.000Z</Time>
            <Position>
              <LatitudeDegrees>42.4102561175823211669921875</LatitudeDegrees>
              <LongitudeDegrees>2.7709078229963779449462890625</LongitudeDegrees>
            </Position>
            <AltitudeMeters>870.5999755859375</AltitudeMeters>
            <DistanceMeters>17968.757976981</DistanceMeters>
          </Trackpoint>
          <Trackpoint>
            <Time>2021-04-01T09:09:19.000Z</Time>
            <Position>
              <LatitudeDegrees>42.410287298262119293212890625</LatitudeDegrees>
              <LongitudeDegrees>2.7708439528942108154296875</LongitudeDegrees>
            </Position>
            <AltitudeMeters>871.5999755859375</AltitudeMeters>
            <DistanceMeters>17975.049865022</DistanceMeters>
          </Trackpoint>
          <Trackpoint>
            <Time>2021-04-01T09:09:26.000Z</Time>
            <Position>
              <LatitudeDegrees>42.41030682809650897979736328125</LatitudeDegrees>
              <LongitudeDegrees>2.77078418992459774017333984375</LongitudeDegrees>
            </Position>
            <AltitudeMeters>872.4000244140625</AltitudeMeters>
            <DistanceMeters>17980.420345835</DistanceMeters>
          </Trackpoint>
          <Trackpoint>
            <Time>2021-04-01T09:09:29.000Z</Time>
            <Position>
              <LatitudeDegrees>42.4103092588484287261962890625</LatitudeDegrees>
              <LongitudeDegrees>2.77075619436800479888916015625</LongitudeDegrees>
            </Position>
            <AltitudeMeters>872.79998779296875</AltitudeMeters>
            <DistanceMeters>17982.736347866</DistanceMeters>
          </Trackpoint>
          <Trackpoint>
            <Time>2021-04-01T09:09:35.000Z</Time>
            <Position>
              <LatitudeDegrees>42.41031856276094913482666015625</LatitudeDegrees>
              <LongitudeDegrees>2.770701460540294647216796875</LongitudeDegrees>
            </Position>
            <AltitudeMeters>873.79998779296875</AltitudeMeters>
            <DistanceMeters>17987.35272961</DistanceMeters>
          </Trackpoint>
          <Trackpoint>
            <Time>2021-04-01T09:09:38.000Z</Time>
            <Position>
              <LatitudeDegrees>42.410327531397342681884765625</LatitudeDegrees>
              <LongitudeDegrees>2.7706761471927165985107421875</LongitudeDegrees>
            </Position>
            <AltitudeMeters>874</AltitudeMeters>
            <DistanceMeters>17989.660920483</DistanceMeters>
          </Trackpoint>
          <Trackpoint>
            <Time>2021-04-01T09:09:44.000Z</Time>
            <Position>
              <LatitudeDegrees>42.41034773178398609161376953125</LatitudeDegrees>
              <LongitudeDegrees>2.7706178091466426849365234375</LongitudeDegrees>
            </Position>
            <AltitudeMeters>874.4000244140625</AltitudeMeters>
            <DistanceMeters>17994.956049127</DistanceMeters>
          </Trackpoint>
          <Trackpoint>
            <Time>2021-04-01T09:09:53.000Z</Time>
            <Position>
              <LatitudeDegrees>42.41037354804575443267822265625</LatitudeDegrees>
              <LongitudeDegrees>2.77054714970290660858154296875</LongitudeDegrees>
            </Position>
            <AltitudeMeters>874.79998779296875</AltitudeMeters>
            <DistanceMeters>18001.434613421</DistanceMeters>
          </Trackpoint>
          <Trackpoint>
            <Time>2021-04-01T09:10:00.000Z</Time>
            <Position>
              <LatitudeDegrees>42.41039299406111240386962890625</LatitudeDegrees>
              <LongitudeDegrees>2.7705272845923900604248046875</LongitudeDegrees>
            </Position>
            <AltitudeMeters>874.5999755859375</AltitudeMeters>
            <DistanceMeters>18004.145790697</DistanceMeters>
          </Trackpoint>
          <Trackpoint>
            <Time>2021-04-01T09:10:01.000Z</Time>
            <Position>
              <LatitudeDegrees>42.41039299406111240386962890625</LatitudeDegrees>
              <LongitudeDegrees>2.77052787132561206817626953125</LongitudeDegrees>
            </Position>
            <AltitudeMeters>874.4000244140625</AltitudeMeters>
            <DistanceMeters>18004.145790697</DistanceMeters>
          </Trackpoint>
          <Trackpoint>
            <Time>2021-04-01T09:10:07.000Z</Time>
            <Position>
              <LatitudeDegrees>42.41039492189884185791015625</LatitudeDegrees>
              <LongitudeDegrees>2.77048964984714984893798828125</LongitudeDegrees>
            </Position>
            <AltitudeMeters>874.79998779296875</AltitudeMeters>
            <DistanceMeters>18007.293169584</DistanceMeters>
          </Trackpoint>
          <Trackpoint>
            <Time>2021-04-01T09:10:09.000Z</Time>
            <Position>
              <LatitudeDegrees>42.4104078300297260284423828125</LatitudeDegrees>
              <LongitudeDegrees>2.77047607116401195526123046875</LongitudeDegrees>
            </Position>
            <AltitudeMeters>875</AltitudeMeters>
            <DistanceMeters>18009.111137675</DistanceMeters>
          </Trackpoint>
          <Trackpoint>
            <Time>2021-04-01T09:10:16.000Z</Time>
            <Position>
              <LatitudeDegrees>42.41044295020401477813720703125</LatitudeDegrees>
              <LongitudeDegrees>2.7704126201570034027099609375</LongitudeDegrees>
            </Position>
            <AltitudeMeters>875.4000244140625</AltitudeMeters>
            <DistanceMeters>18015.627919819</DistanceMeters>
          </Trackpoint>
          <Trackpoint>
            <Time>2021-04-01T09:10:19.000Z</Time>
            <Position>
              <LatitudeDegrees>42.41045921109616756439208984375</LatitudeDegrees>
              <LongitudeDegrees>2.77038923464715480804443359375</LongitudeDegrees>
            </Position>
            <AltitudeMeters>875.79998779296875</AltitudeMeters>
            <DistanceMeters>18018.268226433</DistanceMeters>
          </Trackpoint>
          <Trackpoint>
            <Time>2021-04-01T09:10:21.000Z</Time>
            <Position>
              <LatitudeDegrees>42.4104644916951656341552734375</LatitudeDegrees>
              <LongitudeDegrees>2.7703743986785411834716796875</LongitudeDegrees>
            </Position>
            <AltitudeMeters>876</AltitudeMeters>
            <DistanceMeters>18019.625479392</DistanceMeters>
          </Trackpoint>
          <Trackpoint>
            <Time>2021-04-01T09:10:23.000Z</Time>
            <Position>
              <LatitudeDegrees>42.41047547198832035064697265625</LatitudeDegrees>
              <LongitudeDegrees>2.7703589759767055511474609375</LongitudeDegrees>
            </Position>
            <AltitudeMeters>876.20001220703125</AltitudeMeters>
            <DistanceMeters>18021.387962384</DistanceMeters>
          </Trackpoint>
          <Trackpoint>
            <Time>2021-04-01T09:10:24.000Z</Time>
            <Position>
              <LatitudeDegrees>42.41048016585409641265869140625</LatitudeDegrees>
              <LongitudeDegrees>2.77034749276936054229736328125</LongitudeDegrees>
            </Position>
            <AltitudeMeters>876.4000244140625</AltitudeMeters>
            <DistanceMeters>18022.467258387</DistanceMeters>
          </Trackpoint>
          <Trackpoint>
            <Time>2021-04-01T09:10:28.000Z</Time>
            <Position>
              <LatitudeDegrees>42.4104970134794712066650390625</LatitudeDegrees>
              <LongitudeDegrees>2.7703163959085941314697265625</LongitudeDegrees>
            </Position>
            <AltitudeMeters>877</AltitudeMeters>
            <DistanceMeters>18025.636082302</DistanceMeters>
          </Trackpoint>
          <Trackpoint>
            <Time>2021-04-01T09:10:29.000Z</Time>
            <Position>
              <LatitudeDegrees>42.410501204431056976318359375</LatitudeDegrees>
              <LongitudeDegrees>2.7703076787292957305908203125</LongitudeDegrees>
            </Position>
            <AltitudeMeters>877.20001220703125</AltitudeMeters>
            <DistanceMeters>18026.496585799</DistanceMeters>
          </Trackpoint>
          <Trackpoint>
            <Time>2021-04-01T09:10:36.000Z</Time>
            <Position>
              <LatitudeDegrees>42.4105459637939929962158203125</LatitudeDegrees>
              <LongitudeDegrees>2.77024649083614349365234375</LongitudeDegrees>
            </Position>
            <AltitudeMeters>878.20001220703125</AltitudeMeters>
            <DistanceMeters>18033.574640907</DistanceMeters>
          </Trackpoint>
          <Trackpoint>
            <Time>2021-04-01T09:10:39.000Z</Time>
            <Position>
              <LatitudeDegrees>42.41056985221803188323974609375</LatitudeDegrees>
              <LongitudeDegrees>2.77022947557270526885986328125</LongitudeDegrees>
            </Position>
            <AltitudeMeters>878.5999755859375</AltitudeMeters>
            <DistanceMeters>18036.576642954</DistanceMeters>
          </Trackpoint>
          <Trackpoint>
            <Time>2021-04-01T09:10:46.000Z</Time>
            <Position>
              <LatitudeDegrees>42.41063238121569156646728515625</LatitudeDegrees>
              <LongitudeDegrees>2.770209610462188720703125</LongitudeDegrees>
            </Position>
            <AltitudeMeters>879</AltitudeMeters>
            <DistanceMeters>18043.724521836</DistanceMeters>
          </Trackpoint>
          <Trackpoint>
            <Time>2021-04-01T09:10:49.000Z</Time>
            <Position>
              <LatitudeDegrees>42.4106599576771259307861328125</LatitudeDegrees>
              <LongitudeDegrees>2.77019762434065341949462890625</LongitudeDegrees>
            </Position>
            <AltitudeMeters>878.79998779296875</AltitudeMeters>
            <DistanceMeters>18046.947034507</DistanceMeters>
          </Trackpoint>
          <Trackpoint>
            <Time>2021-04-01T09:10:52.000Z</Time>
            <Position>
              <LatitudeDegrees>42.41067789494991302490234375</LatitudeDegrees>
              <LongitudeDegrees>2.7701920084655284881591796875</LongitudeDegrees>
            </Position>
            <AltitudeMeters>879</AltitudeMeters>
            <DistanceMeters>18048.996177144</DistanceMeters>
          </Trackpoint>
          <Trackpoint>
            <Time>2021-04-01T09:10:53.000Z</Time>
            <Position>
              <LatitudeDegrees>42.4106797389686107635498046875</LatitudeDegrees>
              <LongitudeDegrees>2.7701933495700359344482421875</LongitudeDegrees>
            </Position>
            <AltitudeMeters>879</AltitudeMeters>
            <DistanceMeters>18049.208663337</DistanceMeters>
          </Trackpoint>
          <Trackpoint>
            <Time>2021-04-01T09:10:56.000Z</Time>
            <Position>
              <LatitudeDegrees>42.41068015806376934051513671875</LatitudeDegrees>
              <LongitudeDegrees>2.77019150555133819580078125</LongitudeDegrees>
            </Position>
            <AltitudeMeters>879</AltitudeMeters>
            <DistanceMeters>18049.398716766</DistanceMeters>
          </Trackpoint>
          <Trackpoint>
            <Time>2021-04-01T09:11:00.000Z</Time>
            <Position>
              <LatitudeDegrees>42.41069792769849300384521484375</LatitudeDegrees>
              <LongitudeDegrees>2.77019745670258998870849609375</LongitudeDegrees>
            </Position>
            <AltitudeMeters>879.20001220703125</AltitudeMeters>
            <DistanceMeters>18051.436812731</DistanceMeters>
          </Trackpoint>
          <Trackpoint>
            <Time>2021-04-01T09:11:03.000Z</Time>
            <Position>
              <LatitudeDegrees>42.410710416734218597412109375</LatitudeDegrees>
              <LongitudeDegrees>2.77018748223781585693359375</LongitudeDegrees>
            </Position>
            <AltitudeMeters>879.20001220703125</AltitudeMeters>
            <DistanceMeters>18053.04946955</DistanceMeters>
          </Trackpoint>
          <Trackpoint>
            <Time>2021-04-01T09:11:04.000Z</Time>
            <Position>
              <LatitudeDegrees>42.4107186309993267059326171875</LatitudeDegrees>
              <LongitudeDegrees>2.770183123648166656494140625</LongitudeDegrees>
            </Position>
            <AltitudeMeters>879.20001220703125</AltitudeMeters>
            <DistanceMeters>18054.032433527</DistanceMeters>
          </Trackpoint>
          <Trackpoint>
            <Time>2021-04-01T09:11:10.000Z</Time>
            <Position>
              <LatitudeDegrees>42.410780824720859527587890625</LatitudeDegrees>
              <LongitudeDegrees>2.77015454135835170745849609375</LongitudeDegrees>
            </Position>
            <AltitudeMeters>879.20001220703125</AltitudeMeters>
            <DistanceMeters>18061.342699759</DistanceMeters>
          </Trackpoint>
          <Trackpoint>
            <Time>2021-04-01T09:11:12.000Z</Time>
            <Position>
              <LatitudeDegrees>42.41079968400299549102783203125</LatitudeDegrees>
              <LongitudeDegrees>2.770136855542659759521484375</LongitudeDegrees>
            </Position>
            <AltitudeMeters>879.20001220703125</AltitudeMeters>
            <DistanceMeters>18063.896073056</DistanceMeters>
          </Trackpoint>
          <Trackpoint>
            <Time>2021-04-01T09:11:14.000Z</Time>
            <Position>
              <LatitudeDegrees>42.410816363990306854248046875</LatitudeDegrees>
              <LongitudeDegrees>2.77011950500309467315673828125</LongitudeDegrees>
            </Position>
            <AltitudeMeters>879.20001220703125</AltitudeMeters>
            <DistanceMeters>18066.235352074</DistanceMeters>
          </Trackpoint>
          <Trackpoint>
            <Time>2021-04-01T09:11:16.000Z</Time>
            <Position>
              <LatitudeDegrees>42.4108383245766162872314453125</LatitudeDegrees>
              <LongitudeDegrees>2.77010969817638397216796875</LongitudeDegrees>
            </Position>
            <AltitudeMeters>879.20001220703125</AltitudeMeters>
            <DistanceMeters>18068.809857097</DistanceMeters>
          </Trackpoint>
          <Trackpoint>
            <Time>2021-04-01T09:11:19.000Z</Time>
            <Position>
              <LatitudeDegrees>42.41086355410516262054443359375</LatitudeDegrees>
              <LongitudeDegrees>2.7700874023139476776123046875</LongitudeDegrees>
            </Position>
            <AltitudeMeters>879.20001220703125</AltitudeMeters>
            <DistanceMeters>18072.162832667</DistanceMeters>
          </Trackpoint>
          <Trackpoint>
            <Time>2021-04-01T09:11:21.000Z</Time>
            <Position>
              <LatitudeDegrees>42.410881407558917999267578125</LatitudeDegrees>
              <LongitudeDegrees>2.77007340453565120697021484375</LongitudeDegrees>
            </Position>
            <AltitudeMeters>879.4000244140625</AltitudeMeters>
            <DistanceMeters>18074.461222259</DistanceMeters>
          </Trackpoint>
          <Trackpoint>
            <Time>2021-04-01T09:11:28.000Z</Time>
            <Position>
              <LatitudeDegrees>42.410932369530200958251953125</LatitudeDegrees>
              <LongitudeDegrees>2.7700086124241352081298828125</LongitudeDegrees>
            </Position>
            <AltitudeMeters>879.79998779296875</AltitudeMeters>
            <DistanceMeters>18082.240654908</DistanceMeters>
          </Trackpoint>
          <Trackpoint>
            <Time>2021-04-01T09:11:38.000Z</Time>
            <Position>
              <LatitudeDegrees>42.41102582775056362152099609375</LatitudeDegrees>
              <LongitudeDegrees>2.76992605067789554595947265625</LongitudeDegrees>
            </Position>
            <AltitudeMeters>879.79998779296875</AltitudeMeters>
            <DistanceMeters>18094.659014119</DistanceMeters>
          </Trackpoint>
          <Trackpoint>
            <Time>2021-04-01T09:11:42.000Z</Time>
            <Position>
              <LatitudeDegrees>42.41106438450515270233154296875</LatitudeDegrees>
              <LongitudeDegrees>2.76989780366420745849609375</LongitudeDegrees>
            </Position>
            <AltitudeMeters>879.79998779296875</AltitudeMeters>
            <DistanceMeters>18099.537874796</DistanceMeters>
          </Trackpoint>
          <Trackpoint>
            <Time>2021-04-01T09:11:47.000Z</Time>
            <Position>
              <LatitudeDegrees>42.411107718944549560546875</LatitudeDegrees>
              <LongitudeDegrees>2.76985212229192256927490234375</LongitudeDegrees>
            </Position>
            <AltitudeMeters>880</AltitudeMeters>
            <DistanceMeters>18105.649208216</DistanceMeters>
          </Trackpoint>
          <Trackpoint>
            <Time>2021-04-01T09:11:53.000Z</Time>
            <Position>
              <LatitudeDegrees>42.41114803589880466461181640625</LatitudeDegrees>
              <LongitudeDegrees>2.769786827266216278076171875</LongitudeDegrees>
            </Position>
            <AltitudeMeters>880.20001220703125</AltitudeMeters>
            <DistanceMeters>18112.643845746</DistanceMeters>
          </Trackpoint>
          <Trackpoint>
            <Time>2021-04-01T09:11:57.000Z</Time>
            <Position>
              <LatitudeDegrees>42.4111736007034778594970703125</LatitudeDegrees>
              <LongitudeDegrees>2.76973494328558444976806640625</LongitudeDegrees>
            </Position>
            <AltitudeMeters>880.20001220703125</AltitudeMeters>
            <DistanceMeters>18117.770006342</DistanceMeters>
          </Trackpoint>
          <Trackpoint>
            <Time>2021-04-01T09:12:00.000Z</Time>
            <Position>
              <LatitudeDegrees>42.4111963994801044464111328125</LatitudeDegrees>
              <LongitudeDegrees>2.76969688944518566131591796875</LongitudeDegrees>
            </Position>
            <AltitudeMeters>880.20001220703125</AltitudeMeters>
            <DistanceMeters>18121.797166296</DistanceMeters>
          </Trackpoint>
          <Trackpoint>
            <Time>2021-04-01T09:12:06.000Z</Time>
            <Position>
              <LatitudeDegrees>42.41124526597559452056884765625</LatitudeDegrees>
              <LongitudeDegrees>2.769641317427158355712890625</LongitudeDegrees>
            </Position>
            <AltitudeMeters>880.4000244140625</AltitudeMeters>
            <DistanceMeters>18128.898784206</DistanceMeters>
          </Trackpoint>
          <Trackpoint>
            <Time>2021-04-01T09:12:15.000Z</Time>
            <Position>
              <LatitudeDegrees>42.41131433285772800445556640625</LatitudeDegrees>
              <LongitudeDegrees>2.7695415727794170379638671875</LongitudeDegrees>
            </Position>
            <AltitudeMeters>881</AltitudeMeters>
            <DistanceMeters>18140.136069865</DistanceMeters>
          </Trackpoint>
          <Trackpoint>
            <Time>2021-04-01T09:12:20.000Z</Time>
            <Position>
              <LatitudeDegrees>42.41135104559361934661865234375</LatitudeDegrees>
              <LongitudeDegrees>2.76948482729494571685791015625</LongitudeDegrees>
            </Position>
            <AltitudeMeters>881</AltitudeMeters>
            <DistanceMeters>18146.336153366</DistanceMeters>
          </Trackpoint>
          <Trackpoint>
            <Time>2021-04-01T09:12:23.000Z</Time>
            <Position>
              <LatitudeDegrees>42.4113710783421993255615234375</LatitudeDegrees>
              <LongitudeDegrees>2.76945121586322784423828125</LongitudeDegrees>
            </Position>
            <AltitudeMeters>881</AltitudeMeters>
            <DistanceMeters>18149.884100176</DistanceMeters>
          </Trackpoint>
          <Trackpoint>
            <Time>2021-04-01T09:12:25.000Z</Time>
            <Position>
              <LatitudeDegrees>42.41138356737792491912841796875</LatitudeDegrees>
              <LongitudeDegrees>2.7694272436201572418212890625</LongitudeDegrees>
            </Position>
            <AltitudeMeters>881</AltitudeMeters>
            <DistanceMeters>18152.295607843</DistanceMeters>
          </Trackpoint>
          <Trackpoint>
            <Time>2021-04-01T09:12:30.000Z</Time>
            <Position>
              <LatitudeDegrees>42.41141575388610363006591796875</LatitudeDegrees>
              <LongitudeDegrees>2.76935608126223087310791015625</LongitudeDegrees>
            </Position>
            <AltitudeMeters>881.20001220703125</AltitudeMeters>
            <DistanceMeters>18159.153350775</DistanceMeters>
          </Trackpoint>
          <Trackpoint>
            <Time>2021-04-01T09:12:33.000Z</Time>
            <Position>
              <LatitudeDegrees>42.41142899729311466217041015625</LatitudeDegrees>
              <LongitudeDegrees>2.76932372711598873138427734375</LongitudeDegrees>
            </Position>
            <AltitudeMeters>881.4000244140625</AltitudeMeters>
            <DistanceMeters>18162.194205635</DistanceMeters>
          </Trackpoint>
          <Trackpoint>
            <Time>2021-04-01T09:12:37.000Z</Time>
            <Position>
              <LatitudeDegrees>42.41144810803234577178955078125</LatitudeDegrees>
              <LongitudeDegrees>2.76925600133836269378662109375</LongitudeDegrees>
            </Position>
            <AltitudeMeters>881.5999755859375</AltitudeMeters>
            <DistanceMeters>18168.152918632</DistanceMeters>
          </Trackpoint>
          <Trackpoint>
            <Time>2021-04-01T09:12:40.000Z</Time>
            <Position>
              <LatitudeDegrees>42.41145833395421504974365234375</LatitudeDegrees>
              <LongitudeDegrees>2.76921493001282215118408203125</LongitudeDegrees>
            </Position>
            <AltitudeMeters>881.4000244140625</AltitudeMeters>
            <DistanceMeters>18171.71483629</DistanceMeters>
          </Trackpoint>
          <Trackpoint>
            <Time>2021-04-01T09:12:45.000Z</Time>
            <Position>
              <LatitudeDegrees>42.41147526539862155914306640625</LatitudeDegrees>
              <LongitudeDegrees>2.76914544403553009033203125</LongitudeDegrees>
            </Position>
            <AltitudeMeters>881.4000244140625</AltitudeMeters>
            <DistanceMeters>18177.727857667</DistanceMeters>
          </Trackpoint>
          <Trackpoint>
            <Time>2021-04-01T09:12:46.000Z</Time>
            <Position>
              <LatitudeDegrees>42.41147878579795360565185546875</LatitudeDegrees>
              <LongitudeDegrees>2.76913513429462909698486328125</LongitudeDegrees>
            </Position>
            <AltitudeMeters>881.4000244140625</AltitudeMeters>
            <DistanceMeters>18178.658925515</DistanceMeters>
          </Trackpoint>
          <Trackpoint>
            <Time>2021-04-01T09:12:47.000Z</Time>
            <Position>
              <LatitudeDegrees>42.411483228206634521484375</LatitudeDegrees>
              <LongitudeDegrees>2.76912105269730091094970703125</LongitudeDegrees>
            </Position>
            <AltitudeMeters>881.4000244140625</AltitudeMeters>
            <DistanceMeters>18179.912413968</DistanceMeters>
          </Trackpoint>
          <Trackpoint>
            <Time>2021-04-01T09:12:56.000Z</Time>
            <Position>
              <LatitudeDegrees>42.4115212820470333099365234375</LatitudeDegrees>
              <LongitudeDegrees>2.76902181096374988555908203125</LongitudeDegrees>
            </Position>
            <AltitudeMeters>881</AltitudeMeters>
            <DistanceMeters>18189.101551296</DistanceMeters>
          </Trackpoint>
          <Trackpoint>
            <Time>2021-04-01T09:13:00.000Z</Time>
            <Position>
              <LatitudeDegrees>42.41154802031815052032470703125</LatitudeDegrees>
              <LongitudeDegrees>2.7689672447741031646728515625</LongitudeDegrees>
            </Position>
            <AltitudeMeters>880.79998779296875</AltitudeMeters>
            <DistanceMeters>18194.483789235</DistanceMeters>
          </Trackpoint>
          <Trackpoint>
            <Time>2021-04-01T09:13:03.000Z</Time>
            <Position>
              <LatitudeDegrees>42.4115621857345104217529296875</LatitudeDegrees>
              <LongitudeDegrees>2.76893195696175098419189453125</LongitudeDegrees>
            </Position>
            <AltitudeMeters>880.5999755859375</AltitudeMeters>
            <DistanceMeters>18197.785198369</DistanceMeters>
          </Trackpoint>
          <Trackpoint>
            <Time>2021-04-01T09:13:07.000Z</Time>
            <Position>
              <LatitudeDegrees>42.411586157977581024169921875</LatitudeDegrees>
              <LongitudeDegrees>2.7688804082572460174560546875</LongitudeDegrees>
            </Position>
            <AltitudeMeters>880.20001220703125</AltitudeMeters>
            <DistanceMeters>18202.79194304</DistanceMeters>
          </Trackpoint>
          <Trackpoint>
            <Time>2021-04-01T09:13:13.000Z</Time>
            <Position>
              <LatitudeDegrees>42.41157316602766513824462890625</LatitudeDegrees>
              <LongitudeDegrees>2.7687895484268665313720703125</LongitudeDegrees>
            </Position>
            <AltitudeMeters>879.5999755859375</AltitudeMeters>
            <DistanceMeters>18210.397642857</DistanceMeters>
          </Trackpoint>
          <Trackpoint>
            <Time>2021-04-01T09:13:14.000Z</Time>
            <Position>
              <LatitudeDegrees>42.41156813688576221466064453125</LatitudeDegrees>
              <LongitudeDegrees>2.76877664029598236083984375</LongitudeDegrees>
            </Position>
            <AltitudeMeters>879.5999755859375</AltitudeMeters>
            <DistanceMeters>18211.595884133</DistanceMeters>
          </Trackpoint>
          <Trackpoint>
            <Time>2021-04-01T09:13:15.000Z</Time>
            <Position>
              <LatitudeDegrees>42.41156511940062046051025390625</LatitudeDegrees>
              <LongitudeDegrees>2.76876582764089107513427734375</LongitudeDegrees>
            </Position>
            <AltitudeMeters>879.5999755859375</AltitudeMeters>
            <DistanceMeters>18212.546151276</DistanceMeters>
          </Trackpoint>
          <Trackpoint>
            <Time>2021-04-01T09:13:16.000Z</Time>
            <Position>
              <LatitudeDegrees>42.41156294010579586029052734375</LatitudeDegrees>
              <LongitudeDegrees>2.76875359006226062774658203125</LongitudeDegrees>
            </Position>
            <AltitudeMeters>879.5999755859375</AltitudeMeters>
            <DistanceMeters>18213.578405615</DistanceMeters>
          </Trackpoint>
          <Trackpoint>
            <Time>2021-04-01T09:13:18.000Z</Time>
            <Position>
              <LatitudeDegrees>42.4115595035254955291748046875</LatitudeDegrees>
              <LongitudeDegrees>2.768728025257587432861328125</LongitudeDegrees>
            </Position>
            <AltitudeMeters>879.5999755859375</AltitudeMeters>
            <DistanceMeters>18215.713865426</DistanceMeters>
          </Trackpoint>
          <Trackpoint>
            <Time>2021-04-01T09:13:23.000Z</Time>
            <Position>
              <LatitudeDegrees>42.41155707277357578277587890625</LatitudeDegrees>
              <LongitudeDegrees>2.76869776658713817596435546875</LongitudeDegrees>
            </Position>
            <AltitudeMeters>879.4000244140625</AltitudeMeters>
            <DistanceMeters>18218.217237762</DistanceMeters>
          </Trackpoint>
          <Trackpoint>
            <Time>2021-04-01T09:13:31.000Z</Time>
            <Position>
              <LatitudeDegrees>42.4115507863461971282958984375</LatitudeDegrees>
              <LongitudeDegrees>2.76863448321819305419921875</LongitudeDegrees>
            </Position>
            <AltitudeMeters>879.79998779296875</AltitudeMeters>
            <DistanceMeters>18223.465259595</DistanceMeters>
          </Trackpoint>
          <Trackpoint>
            <Time>2021-04-01T09:13:37.000Z</Time>
            <Position>
              <LatitudeDegrees>42.4115450866520404815673828125</LatitudeDegrees>
              <LongitudeDegrees>2.76855778880417346954345703125</LongitudeDegrees>
            </Position>
            <AltitudeMeters>879.79998779296875</AltitudeMeters>
            <DistanceMeters>18229.800057122</DistanceMeters>
          </Trackpoint>
          <Trackpoint>
            <Time>2021-04-01T09:13:46.000Z</Time>
            <Position>
              <LatitudeDegrees>42.4115377105772495269775390625</LatitudeDegrees>
              <LongitudeDegrees>2.76842971332371234893798828125</LongitudeDegrees>
            </Position>
            <AltitudeMeters>879.79998779296875</AltitudeMeters>
            <DistanceMeters>18240.357007604</DistanceMeters>
          </Trackpoint>
          <Trackpoint>
            <Time>2021-04-01T09:13:53.000Z</Time>
            <Position>
              <LatitudeDegrees>42.41154198534786701202392578125</LatitudeDegrees>
              <LongitudeDegrees>2.76833281852304935455322265625</LongitudeDegrees>
            </Position>
            <AltitudeMeters>879.5999755859375</AltitudeMeters>
            <DistanceMeters>18248.333593253</DistanceMeters>
          </Trackpoint>
          <Trackpoint>
            <Time>2021-04-01T09:13:57.000Z</Time>
            <Position>
              <LatitudeDegrees>42.4115494452416896820068359375</LatitudeDegrees>
              <LongitudeDegrees>2.7682678587734699249267578125</LongitudeDegrees>
            </Position>
            <AltitudeMeters>879.5999755859375</AltitudeMeters>
            <DistanceMeters>18253.735926737</DistanceMeters>
          </Trackpoint>
          <Trackpoint>
            <Time>2021-04-01T09:14:01.000Z</Time>
            <Position>
              <LatitudeDegrees>42.4115568213164806365966796875</LatitudeDegrees>
              <LongitudeDegrees>2.76820926927030086517333984375</LongitudeDegrees>
            </Position>
            <AltitudeMeters>879.79998779296875</AltitudeMeters>
            <DistanceMeters>18258.619412366</DistanceMeters>
          </Trackpoint>
          <Trackpoint>
            <Time>2021-04-01T09:14:02.000Z</Time>
            <Position>
              <LatitudeDegrees>42.41155623458325862884521484375</LatitudeDegrees>
              <LongitudeDegrees>2.768196277320384979248046875</LongitudeDegrees>
            </Position>
            <AltitudeMeters>879.79998779296875</AltitudeMeters>
            <DistanceMeters>18259.686084589</DistanceMeters>
          </Trackpoint>
          <Trackpoint>
            <Time>2021-04-01T09:14:03.000Z</Time>
            <Position>
              <LatitudeDegrees>42.4115548096597194671630859375</LatitudeDegrees>
              <LongitudeDegrees>2.768182195723056793212890625</LongitudeDegrees>
            </Position>
            <AltitudeMeters>880</AltitudeMeters>
            <DistanceMeters>18260.8499194</DistanceMeters>
          </Trackpoint>
          <Trackpoint>
            <Time>2021-04-01T09:14:06.000Z</Time>
            <Position>
              <LatitudeDegrees>42.4115524627268314361572265625</LatitudeDegrees>
              <LongitudeDegrees>2.7681376039981842041015625</LongitudeDegrees>
            </Position>
            <AltitudeMeters>880.20001220703125</AltitudeMeters>
            <DistanceMeters>18264.524149154</DistanceMeters>
          </Trackpoint>
          <Trackpoint>
            <Time>2021-04-01T09:14:10.000Z</Time>
            <Position>
              <LatitudeDegrees>42.41154558956623077392578125</LatitudeDegrees>
              <LongitudeDegrees>2.76809846051037311553955078125</LongitudeDegrees>
            </Position>
            <AltitudeMeters>880.5999755859375</AltitudeMeters>
            <DistanceMeters>18267.8310242</DistanceMeters>
          </Trackpoint>
          <Trackpoint>
            <Time>2021-04-01T09:14:14.000Z</Time>
            <Position>
              <LatitudeDegrees>42.4115454219281673431396484375</LatitudeDegrees>
              <LongitudeDegrees>2.7680526115000247955322265625</LongitudeDegrees>
            </Position>
            <AltitudeMeters>880.5999755859375</AltitudeMeters>
            <DistanceMeters>18271.598686628</DistanceMeters>
          </Trackpoint>
          <Trackpoint>
            <Time>2021-04-01T09:14:15.000Z</Time>
            <Position>
              <LatitudeDegrees>42.4115450866520404815673828125</LatitudeDegrees>
              <LongitudeDegrees>2.76803509332239627838134765625</LongitudeDegrees>
            </Position>
            <AltitudeMeters>880.5999755859375</AltitudeMeters>
            <DistanceMeters>18273.039838106</DistanceMeters>
          </Trackpoint>
          <Trackpoint>
            <Time>2021-04-01T09:14:17.000Z</Time>
            <Position>
              <LatitudeDegrees>42.41154156625270843505859375</LatitudeDegrees>
              <LongitudeDegrees>2.76799611747264862060546875</LongitudeDegrees>
            </Position>
            <AltitudeMeters>880.79998779296875</AltitudeMeters>
            <DistanceMeters>18276.266551316</DistanceMeters>
          </Trackpoint>
          <Trackpoint>
            <Time>2021-04-01T09:14:21.000Z</Time>
            <Position>
              <LatitudeDegrees>42.4115296639502048492431640625</LatitudeDegrees>
              <LongitudeDegrees>2.7679463289678096771240234375</LongitudeDegrees>
            </Position>
            <AltitudeMeters>881</AltitudeMeters>
            <DistanceMeters>18280.5669695</DistanceMeters>
          </Trackpoint>
          <Trackpoint>
            <Time>2021-04-01T09:14:24.000Z</Time>
            <Position>
              <LatitudeDegrees>42.41152144968509674072265625</LatitudeDegrees>
              <LongitudeDegrees>2.76790584437549114227294921875</LongitudeDegrees>
            </Position>
            <AltitudeMeters>881</AltitudeMeters>
            <DistanceMeters>18284.018153475</DistanceMeters>
          </Trackpoint>
          <Trackpoint>
            <Time>2021-04-01T09:14:25.000Z</Time>
            <Position>
              <LatitudeDegrees>42.41151918657124042510986328125</LatitudeDegrees>
              <LongitudeDegrees>2.76789394207298755645751953125</LongitudeDegrees>
            </Position>
            <AltitudeMeters>881.20001220703125</AltitudeMeters>
            <DistanceMeters>18285.028301305</DistanceMeters>
          </Trackpoint>
          <Trackpoint>
            <Time>2021-04-01T09:14:28.000Z</Time>
            <Position>
              <LatitudeDegrees>42.4115139059722423553466796875</LatitudeDegrees>
              <LongitudeDegrees>2.76786225847899913787841796875</LongitudeDegrees>
            </Position>
            <AltitudeMeters>881.20001220703125</AltitudeMeters>
            <DistanceMeters>18287.699211335</DistanceMeters>
          </Trackpoint>
          <Trackpoint>
            <Time>2021-04-01T09:14:31.000Z</Time>
            <Position>
              <LatitudeDegrees>42.411511726677417755126953125</LatitudeDegrees>
              <LongitudeDegrees>2.76783057488501071929931640625</LongitudeDegrees>
            </Position>
            <AltitudeMeters>881.4000244140625</AltitudeMeters>
            <DistanceMeters>18290.315467811</DistanceMeters>
          </Trackpoint>
          <Trackpoint>
            <Time>2021-04-01T09:14:35.000Z</Time>
            <Position>
              <LatitudeDegrees>42.4115060269832611083984375</LatitudeDegrees>
              <LongitudeDegrees>2.76778581552207469940185546875</LongitudeDegrees>
            </Position>
            <AltitudeMeters>881.5999755859375</AltitudeMeters>
            <DistanceMeters>18294.047006083</DistanceMeters>
          </Trackpoint>
          <Trackpoint>
            <Time>2021-04-01T09:14:37.000Z</Time>
            <Position>
              <LatitudeDegrees>42.411501668393611907958984375</LatitudeDegrees>
              <LongitudeDegrees>2.76775346137583255767822265625</LongitudeDegrees>
            </Position>
            <AltitudeMeters>882</AltitudeMeters>
            <DistanceMeters>18296.751513787</DistanceMeters>
          </Trackpoint>
          <Trackpoint>
            <Time>2021-04-01T09:14:40.000Z</Time>
            <Position>
              <LatitudeDegrees>42.4115068651735782623291015625</LatitudeDegrees>
              <LongitudeDegrees>2.7677290700376033782958984375</LongitudeDegrees>
            </Position>
            <AltitudeMeters>882.20001220703125</AltitudeMeters>
            <DistanceMeters>18298.837777635</DistanceMeters>
          </Trackpoint>
          <Trackpoint>
            <Time>2021-04-01T09:14:41.000Z</Time>
            <Position>
              <LatitudeDegrees>42.41150979883968830108642578125</LatitudeDegrees>
              <LongitudeDegrees>2.7677042596042156219482421875</LongitudeDegrees>
            </Position>
            <AltitudeMeters>882.4000244140625</AltitudeMeters>
            <DistanceMeters>18300.902286313</DistanceMeters>
          </Trackpoint>
          <Trackpoint>
            <Time>2021-04-01T09:14:43.000Z</Time>
            <Position>
              <LatitudeDegrees>42.4115175940096378326416015625</LatitudeDegrees>
              <LongitudeDegrees>2.76768053881824016571044921875</LongitudeDegrees>
            </Position>
            <AltitudeMeters>882.79998779296875</AltitudeMeters>
            <DistanceMeters>18303.03563076</DistanceMeters>
          </Trackpoint>
          <Trackpoint>
            <Time>2021-04-01T09:14:46.000Z</Time>
            <Position>
              <LatitudeDegrees>42.41153209470212459564208984375</LatitudeDegrees>
              <LongitudeDegrees>2.76764147914946079254150390625</LongitudeDegrees>
            </Position>
            <AltitudeMeters>883</AltitudeMeters>
            <DistanceMeters>18306.627841672</DistanceMeters>
          </Trackpoint>
          <Trackpoint>
            <Time>2021-04-01T09:14:49.000Z</Time>
            <Position>
              <LatitudeDegrees>42.4115464277565479278564453125</LatitudeDegrees>
              <LongitudeDegrees>2.7675963006913661956787109375</LongitudeDegrees>
            </Position>
            <AltitudeMeters>883.20001220703125</AltitudeMeters>
            <DistanceMeters>18310.667315417</DistanceMeters>
          </Trackpoint>
          <Trackpoint>
            <Time>2021-04-01T09:14:52.000Z</Time>
            <Position>
              <LatitudeDegrees>42.41154424846172332763671875</LatitudeDegrees>
              <LongitudeDegrees>2.7675496973097324371337890625</LongitudeDegrees>
            </Position>
            <AltitudeMeters>883.4000244140625</AltitudeMeters>
            <DistanceMeters>18314.503853518</DistanceMeters>
          </Trackpoint>
          <Trackpoint>
            <Time>2021-04-01T09:14:53.000Z</Time>
            <Position>
              <LatitudeDegrees>42.41153678856790065765380859375</LatitudeDegrees>
              <LongitudeDegrees>2.76753209531307220458984375</LongitudeDegrees>
            </Position>
            <AltitudeMeters>883.4000244140625</AltitudeMeters>
            <DistanceMeters>18316.174270718</DistanceMeters>
          </Trackpoint>
          <Trackpoint>
            <Time>2021-04-01T09:14:54.000Z</Time>
            <Position>
              <LatitudeDegrees>42.4115323461592197418212890625</LatitudeDegrees>
              <LongitudeDegrees>2.76752061210572719573974609375</LongitudeDegrees>
            </Position>
            <AltitudeMeters>883.4000244140625</AltitudeMeters>
            <DistanceMeters>18317.245167402</DistanceMeters>
          </Trackpoint>
          <Trackpoint>
            <Time>2021-04-01T09:14:57.000Z</Time>
            <Position>
              <LatitudeDegrees>42.4115356989204883575439453125</LatitudeDegrees>
              <LongitudeDegrees>2.76749010197818279266357421875</LongitudeDegrees>
            </Position>
            <AltitudeMeters>883.5999755859375</AltitudeMeters>
            <DistanceMeters>18319.780796403</DistanceMeters>
          </Trackpoint>
          <Trackpoint>
            <Time>2021-04-01T09:15:01.000Z</Time>
            <Position>
              <LatitudeDegrees>42.41153310053050518035888671875</LatitudeDegrees>
              <LongitudeDegrees>2.76745137758553028106689453125</LongitudeDegrees>
            </Position>
            <AltitudeMeters>884</AltitudeMeters>
            <DistanceMeters>18322.975164318</DistanceMeters>
          </Trackpoint>
          <Trackpoint>
            <Time>2021-04-01T09:15:04.000Z</Time>
            <Position>
              <LatitudeDegrees>42.41153351962566375732421875</LatitudeDegrees>
              <LongitudeDegrees>2.76741583831608295440673828125</LongitudeDegrees>
            </Position>
            <AltitudeMeters>884.20001220703125</AltitudeMeters>
            <DistanceMeters>18325.896366509</DistanceMeters>
          </Trackpoint>
          <Trackpoint>
            <Time>2021-04-01T09:15:06.000Z</Time>
            <Position>
              <LatitudeDegrees>42.4115367047488689422607421875</LatitudeDegrees>
              <LongitudeDegrees>2.7673865854740142822265625</LongitudeDegrees>
            </Position>
            <AltitudeMeters>884.4000244140625</AltitudeMeters>
            <DistanceMeters>18328.326524939</DistanceMeters>
          </Trackpoint>
          <Trackpoint>
            <Time>2021-04-01T09:15:07.000Z</Time>
            <Position>
              <LatitudeDegrees>42.41153846494853496551513671875</LatitudeDegrees>
              <LongitudeDegrees>2.767370827496051788330078125</LongitudeDegrees>
            </Position>
            <AltitudeMeters>884.5999755859375</AltitudeMeters>
            <DistanceMeters>18329.63982026</DistanceMeters>
          </Trackpoint>
          <Trackpoint>
            <Time>2021-04-01T09:15:09.000Z</Time>
            <Position>
              <LatitudeDegrees>42.41154114715754985809326171875</LatitudeDegrees>
              <LongitudeDegrees>2.76735263876616954803466796875</LongitudeDegrees>
            </Position>
            <AltitudeMeters>885</AltitudeMeters>
            <DistanceMeters>18331.16024769</DistanceMeters>
          </Trackpoint>
          <Trackpoint>
            <Time>2021-04-01T09:15:14.000Z</Time>
            <Position>
              <LatitudeDegrees>42.4115447513759136199951171875</LatitudeDegrees>
              <LongitudeDegrees>2.7673009224236011505126953125</LongitudeDegrees>
            </Position>
            <AltitudeMeters>885.4000244140625</AltitudeMeters>
            <DistanceMeters>18335.427994659</DistanceMeters>
          </Trackpoint>
          <Trackpoint>
            <Time>2021-04-01T09:15:15.000Z</Time>
            <Position>
              <LatitudeDegrees>42.41154366172850131988525390625</LatitudeDegrees>
              <LongitudeDegrees>2.7672938816249370574951171875</LongitudeDegrees>
            </Position>
            <AltitudeMeters>885.5999755859375</AltitudeMeters>
            <DistanceMeters>18336.013778668</DistanceMeters>
          </Trackpoint>
          <Trackpoint>
            <Time>2021-04-01T09:15:21.000Z</Time>
            <Position>
              <LatitudeDegrees>42.4115256406366825103759765625</LatitudeDegrees>
              <LongitudeDegrees>2.76721349917352199554443359375</LongitudeDegrees>
            </Position>
            <AltitudeMeters>886.5999755859375</AltitudeMeters>
            <DistanceMeters>18342.916800716</DistanceMeters>
          </Trackpoint>
          <Trackpoint>
            <Time>2021-04-01T09:15:28.000Z</Time>
            <Position>
              <LatitudeDegrees>42.41154550574719905853271484375</LatitudeDegrees>
              <LongitudeDegrees>2.76713035069406032562255859375</LongitudeDegrees>
            </Position>
            <AltitudeMeters>887.5999755859375</AltitudeMeters>
            <DistanceMeters>18350.098708307</DistanceMeters>
          </Trackpoint>
          <Trackpoint>
            <Time>2021-04-01T09:15:29.000Z</Time>
            <Position>
              <LatitudeDegrees>42.41154517047107219696044921875</LatitudeDegrees>
              <LongitudeDegrees>2.76712766848504543304443359375</LongitudeDegrees>
            </Position>
            <AltitudeMeters>887.79998779296875</AltitudeMeters>
            <DistanceMeters>18350.288761735</DistanceMeters>
          </Trackpoint>
          <Trackpoint>
            <Time>2021-04-01T09:15:36.000Z</Time>
            <Position>
              <LatitudeDegrees>42.41156444884836673736572265625</LatitudeDegrees>
              <LongitudeDegrees>2.767064385116100311279296875</LongitudeDegrees>
            </Position>
            <AltitudeMeters>888.20001220703125</AltitudeMeters>
            <DistanceMeters>18355.914632151</DistanceMeters>
          </Trackpoint>
          <Trackpoint>
            <Time>2021-04-01T09:15:41.000Z</Time>
            <Position>
              <LatitudeDegrees>42.41157266311347484588623046875</LatitudeDegrees>
              <LongitudeDegrees>2.7670099027454853057861328125</LongitudeDegrees>
            </Position>
            <AltitudeMeters>888.5999755859375</AltitudeMeters>
            <DistanceMeters>18360.483826472</DistanceMeters>
          </Trackpoint>
          <Trackpoint>
            <Time>2021-04-01T09:15:42.000Z</Time>
            <Position>
              <LatitudeDegrees>42.4115755967795848846435546875</LatitudeDegrees>
              <LongitudeDegrees>2.7669985033571720123291015625</LongitudeDegrees>
            </Position>
            <AltitudeMeters>888.79998779296875</AltitudeMeters>
            <DistanceMeters>18361.475934496</DistanceMeters>
          </Trackpoint>
          <Trackpoint>
            <Time>2021-04-01T09:15:43.000Z</Time>
            <Position>
              <LatitudeDegrees>42.41157853044569492340087890625</LatitudeDegrees>
              <LongitudeDegrees>2.76698769070208072662353515625</LongitudeDegrees>
            </Position>
            <AltitudeMeters>888.79998779296875</AltitudeMeters>
            <DistanceMeters>18362.416650974</DistanceMeters>
          </Trackpoint>
          <Trackpoint>
            <Time>2021-04-01T09:15:45.000Z</Time>
            <Position>
              <LatitudeDegrees>42.4115823023021221160888671875</LatitudeDegrees>
              <LongitudeDegrees>2.76695944368839263916015625</LongitudeDegrees>
            </Position>
            <AltitudeMeters>889</AltitudeMeters>
            <DistanceMeters>18364.775152</DistanceMeters>
          </Trackpoint>
          <Trackpoint>
            <Time>2021-04-01T09:15:46.000Z</Time>
            <Position>
              <LatitudeDegrees>42.41158179938793182373046875</LatitudeDegrees>
              <LongitudeDegrees>2.766946367919445037841796875</LongitudeDegrees>
            </Position>
            <AltitudeMeters>889</AltitudeMeters>
            <DistanceMeters>18365.850256546</DistanceMeters>
          </Trackpoint>
          <Trackpoint>
            <Time>2021-04-01T09:15:50.000Z</Time>
            <Position>
              <LatitudeDegrees>42.41158842109143733978271484375</LatitudeDegrees>
              <LongitudeDegrees>2.7669103257358074188232421875</LongitudeDegrees>
            </Position>
            <AltitudeMeters>889.4000244140625</AltitudeMeters>
            <DistanceMeters>18368.900007149</DistanceMeters>
          </Trackpoint>
          <Trackpoint>
            <Time>2021-04-01T09:15:52.000Z</Time>
            <Position>
              <LatitudeDegrees>42.411596216261386871337890625</LatitudeDegrees>
              <LongitudeDegrees>2.7668865211308002471923828125</LongitudeDegrees>
            </Position>
            <AltitudeMeters>889.79998779296875</AltitudeMeters>
            <DistanceMeters>18371.039691414</DistanceMeters>
          </Trackpoint>
          <Trackpoint>
            <Time>2021-04-01T09:15:59.000Z</Time>
            <Position>
              <LatitudeDegrees>42.4116052687168121337890625</LatitudeDegrees>
              <LongitudeDegrees>2.76678786613047122955322265625</LongitudeDegrees>
            </Position>
            <AltitudeMeters>890.4000244140625</AltitudeMeters>
            <DistanceMeters>18379.208673292</DistanceMeters>
          </Trackpoint>
          <Trackpoint>
            <Time>2021-04-01T09:16:02.000Z</Time>
            <Position>
              <LatitudeDegrees>42.41160484962165355682373046875</LatitudeDegrees>
              <LongitudeDegrees>2.7667567692697048187255859375</LongitudeDegrees>
            </Position>
            <AltitudeMeters>890.79998779296875</AltitudeMeters>
            <DistanceMeters>18381.763814241</DistanceMeters>
          </Trackpoint>
          <Trackpoint>
            <Time>2021-04-01T09:16:05.000Z</Time>
            <Position>
              <LatitudeDegrees>42.41160803474485874176025390625</LatitudeDegrees>
              <LongitudeDegrees>2.7667208947241306304931640625</LongitudeDegrees>
            </Position>
            <AltitudeMeters>891.20001220703125</AltitudeMeters>
            <DistanceMeters>18384.732543702</DistanceMeters>
          </Trackpoint>
          <Trackpoint>
            <Time>2021-04-01T09:16:06.000Z</Time>
            <Position>
              <LatitudeDegrees>42.41160971112549304962158203125</LatitudeDegrees>
              <LongitudeDegrees>2.76671008206903934478759765625</LongitudeDegrees>
            </Position>
            <AltitudeMeters>891.4000244140625</AltitudeMeters>
            <DistanceMeters>18385.639040782</DistanceMeters>
          </Trackpoint>
          <Trackpoint>
            <Time>2021-04-01T09:16:08.000Z</Time>
            <Position>
              <LatitudeDegrees>42.4115950427949428558349609375</LatitudeDegrees>
              <LongitudeDegrees>2.76669985614717006683349609375</LongitudeDegrees>
            </Position>
            <AltitudeMeters>891.4000244140625</AltitudeMeters>
            <DistanceMeters>18387.476769976</DistanceMeters>
          </Trackpoint>
          <Trackpoint>
            <Time>2021-04-01T09:16:12.000Z</Time>
            <Position>
              <LatitudeDegrees>42.41160116158425807952880859375</LatitudeDegrees>
              <LongitudeDegrees>2.7666370756924152374267578125</LongitudeDegrees>
            </Position>
            <AltitudeMeters>891.79998779296875</AltitudeMeters>
            <DistanceMeters>18392.679862246</DistanceMeters>
          </Trackpoint>
          <Trackpoint>
            <Time>2021-04-01T09:16:13.000Z</Time>
            <Position>
              <LatitudeDegrees>42.411606945097446441650390625</LatitudeDegrees>
              <LongitudeDegrees>2.7666260115802288055419921875</LongitudeDegrees>
            </Position>
            <AltitudeMeters>892</AltitudeMeters>
            <DistanceMeters>18393.796173381</DistanceMeters>
          </Trackpoint>
          <Trackpoint>
            <Time>2021-04-01T09:16:16.000Z</Time>
            <Position>
              <LatitudeDegrees>42.4116081185638904571533203125</LatitudeDegrees>
              <LongitudeDegrees>2.76659944094717502593994140625</LongitudeDegrees>
            </Position>
            <AltitudeMeters>892.20001220703125</AltitudeMeters>
            <DistanceMeters>18395.983852634</DistanceMeters>
          </Trackpoint>
          <Trackpoint>
            <Time>2021-04-01T09:16:19.000Z</Time>
            <Position>
              <LatitudeDegrees>42.41160057485103607177734375</LatitudeDegrees>
              <LongitudeDegrees>2.76656725443899631500244140625</LongitudeDegrees>
            </Position>
            <AltitudeMeters>892.79998779296875</AltitudeMeters>
            <DistanceMeters>18398.759218413</DistanceMeters>
          </Trackpoint>
          <Trackpoint>
            <Time>2021-04-01T09:16:21.000Z</Time>
            <Position>
              <LatitudeDegrees>42.4116024188697338104248046875</LatitudeDegrees>
              <LongitudeDegrees>2.76654504239559173583984375</LongitudeDegrees>
            </Position>
            <AltitudeMeters>893</AltitudeMeters>
            <DistanceMeters>18400.596947607</DistanceMeters>
          </Trackpoint>
          <Trackpoint>
            <Time>2021-04-01T09:16:25.000Z</Time>
            <Position>
              <LatitudeDegrees>42.41161071695387363433837890625</LatitudeDegrees>
              <LongitudeDegrees>2.76650053448975086212158203125</LongitudeDegrees>
            </Position>
            <AltitudeMeters>893.4000244140625</AltitudeMeters>
            <DistanceMeters>18404.369400453</DistanceMeters>
          </Trackpoint>
          <Trackpoint>
            <Time>2021-04-01T09:16:26.000Z</Time>
            <Position>
              <LatitudeDegrees>42.411610968410968780517578125</LatitudeDegrees>
              <LongitudeDegrees>2.76648578234016895294189453125</LongitudeDegrees>
            </Position>
            <AltitudeMeters>893.4000244140625</AltitudeMeters>
            <DistanceMeters>18405.582620326</DistanceMeters>
          </Trackpoint>
          <Trackpoint>
            <Time>2021-04-01T09:16:29.000Z</Time>
            <Position>
              <LatitudeDegrees>42.4116054363548755645751953125</LatitudeDegrees>
              <LongitudeDegrees>2.76644404046237468719482421875</LongitudeDegrees>
            </Position>
            <AltitudeMeters>893.5999755859375</AltitudeMeters>
            <DistanceMeters>18409.067653012</DistanceMeters>
          </Trackpoint>
          <Trackpoint>
            <Time>2021-04-01T09:16:31.000Z</Time>
            <Position>
              <LatitudeDegrees>42.41160619072616100311279296875</LatitudeDegrees>
              <LongitudeDegrees>2.7664087526500225067138671875</LongitudeDegrees>
            </Position>
            <AltitudeMeters>893.79998779296875</AltitudeMeters>
            <DistanceMeters>18411.968692695</DistanceMeters>
          </Trackpoint>
          <Trackpoint>
            <Time>2021-04-01T09:16:33.000Z</Time>
            <Position>
              <LatitudeDegrees>42.41161658428609371185302734375</LatitudeDegrees>
              <LongitudeDegrees>2.766390144824981689453125</LongitudeDegrees>
            </Position>
            <AltitudeMeters>893.79998779296875</AltitudeMeters>
            <DistanceMeters>18413.888138237</DistanceMeters>
          </Trackpoint>
          <Trackpoint>
            <Time>2021-04-01T09:16:35.000Z</Time>
            <Position>
              <LatitudeDegrees>42.41160317324101924896240234375</LatitudeDegrees>
              <LongitudeDegrees>2.7663598023355007171630859375</LongitudeDegrees>
            </Position>
            <AltitudeMeters>894</AltitudeMeters>
            <DistanceMeters>18416.795396663</DistanceMeters>
          </Trackpoint>
          <Trackpoint>
            <Time>2021-04-01T09:16:38.000Z</Time>
            <Position>
              <LatitudeDegrees>42.4115762673318386077880859375</LatitudeDegrees>
              <LongitudeDegrees>2.76633859612047672271728515625</LongitudeDegrees>
            </Position>
            <AltitudeMeters>894.20001220703125</AltitudeMeters>
            <DistanceMeters>18420.260941594</DistanceMeters>
          </Trackpoint>
          <Trackpoint>
            <Time>2021-04-01T09:16:41.000Z</Time>
            <Position>
              <LatitudeDegrees>42.411587499082088470458984375</LatitudeDegrees>
              <LongitudeDegrees>2.76630255393683910369873046875</LongitudeDegrees>
            </Position>
            <AltitudeMeters>894.79998779296875</AltitudeMeters>
            <DistanceMeters>18423.475036716</DistanceMeters>
          </Trackpoint>
          <Trackpoint>
            <Time>2021-04-01T09:16:44.000Z</Time>
            <Position>
              <LatitudeDegrees>42.41158456541597843170166015625</LatitudeDegrees>
              <LongitudeDegrees>2.7662719599902629852294921875</LongitudeDegrees>
            </Position>
            <AltitudeMeters>895</AltitudeMeters>
            <DistanceMeters>18426.008884452</DistanceMeters>
          </Trackpoint>
          <Trackpoint>
            <Time>2021-04-01T09:16:47.000Z</Time>
            <Position>
              <LatitudeDegrees>42.4115876667201519012451171875</LatitudeDegrees>
              <LongitudeDegrees>2.766223512589931488037109375</LongitudeDegrees>
            </Position>
            <AltitudeMeters>895.4000244140625</AltitudeMeters>
            <DistanceMeters>18430.004528975</DistanceMeters>
          </Trackpoint>
          <Trackpoint>
            <Time>2021-04-01T09:16:53.000Z</Time>
            <Position>
              <LatitudeDegrees>42.41158540360629558563232421875</LatitudeDegrees>
              <LongitudeDegrees>2.7661609835922718048095703125</LongitudeDegrees>
            </Position>
            <AltitudeMeters>896</AltitudeMeters>
            <DistanceMeters>18435.149152776</DistanceMeters>
          </Trackpoint>
          <Trackpoint>
            <Time>2021-04-01T09:16:54.000Z</Time>
            <Position>
              <LatitudeDegrees>42.4115729145705699920654296875</LatitudeDegrees>
              <LongitudeDegrees>2.7661613188683986663818359375</LongitudeDegrees>
            </Position>
            <AltitudeMeters>896.20001220703125</AltitudeMeters>
            <DistanceMeters>18436.539273763</DistanceMeters>
          </Trackpoint>
          <Trackpoint>
            <Time>2021-04-01T09:16:58.000Z</Time>
            <Position>
              <LatitudeDegrees>42.41155690513551235198974609375</LatitudeDegrees>
              <LongitudeDegrees>2.76608797721564769744873046875</LongitudeDegrees>
            </Position>
            <AltitudeMeters>896.79998779296875</AltitudeMeters>
            <DistanceMeters>18442.823981741</DistanceMeters>
          </Trackpoint>
          <Trackpoint>
            <Time>2021-04-01T09:17:02.000Z</Time>
            <Position>
              <LatitudeDegrees>42.41155137307941913604736328125</LatitudeDegrees>
              <LongitudeDegrees>2.76605478487908840179443359375</LongitudeDegrees>
            </Position>
            <AltitudeMeters>897.4000244140625</AltitudeMeters>
            <DistanceMeters>18445.620416293</DistanceMeters>
          </Trackpoint>
          <Trackpoint>
            <Time>2021-04-01T09:17:04.000Z</Time>
            <Position>
              <LatitudeDegrees>42.411554642021656036376953125</LatitudeDegrees>
              <LongitudeDegrees>2.76603852398693561553955078125</LongitudeDegrees>
            </Position>
            <AltitudeMeters>897.79998779296875</AltitudeMeters>
            <DistanceMeters>18447.004026139</DistanceMeters>
          </Trackpoint>
          <Trackpoint>
            <Time>2021-04-01T09:17:10.000Z</Time>
            <Position>
              <LatitudeDegrees>42.41158506833016872406005859375</LatitudeDegrees>
              <LongitudeDegrees>2.76595990173518657684326171875</LongitudeDegrees>
            </Position>
            <AltitudeMeters>898.4000244140625</AltitudeMeters>
            <DistanceMeters>18454.29821632</DistanceMeters>
          </Trackpoint>
          <Trackpoint>
            <Time>2021-04-01T09:17:11.000Z</Time>
            <Position>
              <LatitudeDegrees>42.41159923374652862548828125</LatitudeDegrees>
              <LongitudeDegrees>2.76594263501465320587158203125</LongitudeDegrees>
            </Position>
            <AltitudeMeters>898.4000244140625</AltitudeMeters>
            <DistanceMeters>18456.418824268</DistanceMeters>
          </Trackpoint>
          <Trackpoint>
            <Time>2021-04-01T09:17:18.000Z</Time>
            <Position>
              <LatitudeDegrees>42.41163016296923160552978515625</LatitudeDegrees>
              <LongitudeDegrees>2.76583786122500896453857421875</LongitudeDegrees>
            </Position>
            <AltitudeMeters>899</AltitudeMeters>
            <DistanceMeters>18465.6906271</DistanceMeters>
          </Trackpoint>
          <Trackpoint>
            <Time>2021-04-01T09:17:19.000Z</Time>
            <Position>
              <LatitudeDegrees>42.41163083352148532867431640625</LatitudeDegrees>
              <LongitudeDegrees>2.7658216841518878936767578125</LongitudeDegrees>
            </Position>
            <AltitudeMeters>899</AltitudeMeters>
            <DistanceMeters>18467.021001101</DistanceMeters>
          </Trackpoint>
          <Trackpoint>
            <Time>2021-04-01T09:17:25.000Z</Time>
            <Position>
              <LatitudeDegrees>42.411631084978580474853515625</LatitudeDegrees>
              <LongitudeDegrees>2.76573727838695049285888671875</LongitudeDegrees>
            </Position>
            <AltitudeMeters>899.4000244140625</AltitudeMeters>
            <DistanceMeters>18473.957300352</DistanceMeters>
          </Trackpoint>
          <Trackpoint>
            <Time>2021-04-01T09:17:26.000Z</Time>
            <Position>
              <LatitudeDegrees>42.4116282351315021514892578125</LatitudeDegrees>
              <LongitudeDegrees>2.76572939939796924591064453125</LongitudeDegrees>
            </Position>
            <AltitudeMeters>899.4000244140625</AltitudeMeters>
            <DistanceMeters>18474.681002247</DistanceMeters>
          </Trackpoint>
          <Trackpoint>
            <Time>2021-04-01T09:17:28.000Z</Time>
            <Position>
              <LatitudeDegrees>42.41162002086639404296875</LatitudeDegrees>
              <LongitudeDegrees>2.76571766473352909088134765625</LongitudeDegrees>
            </Position>
            <AltitudeMeters>899.79998779296875</AltitudeMeters>
            <DistanceMeters>18476.011376248</DistanceMeters>
          </Trackpoint>
          <Trackpoint>
            <Time>2021-04-01T09:17:35.000Z</Time>
            <Position>
              <LatitudeDegrees>42.41164340637624263763427734375</LatitudeDegrees>
              <LongitudeDegrees>2.76561272330582141876220703125</LongitudeDegrees>
            </Position>
            <AltitudeMeters>900.4000244140625</AltitudeMeters>
            <DistanceMeters>18485.019387512</DistanceMeters>
          </Trackpoint>
          <Trackpoint>
            <Time>2021-04-01T09:17:36.000Z</Time>
            <Position>
              <LatitudeDegrees>42.4116496928036212921142578125</LatitudeDegrees>
              <LongitudeDegrees>2.76560333557426929473876953125</LongitudeDegrees>
            </Position>
            <AltitudeMeters>900.5999755859375</AltitudeMeters>
            <DistanceMeters>18486.06468137</DistanceMeters>
          </Trackpoint>
          <Trackpoint>
            <Time>2021-04-01T09:17:39.000Z</Time>
            <Position>
              <LatitudeDegrees>42.41165178827941417694091796875</LatitudeDegrees>
              <LongitudeDegrees>2.76557047851383686065673828125</LongitudeDegrees>
            </Position>
            <AltitudeMeters>901</AltitudeMeters>
            <DistanceMeters>18488.775858647</DistanceMeters>
          </Trackpoint>
          <Trackpoint>
            <Time>2021-04-01T09:17:40.000Z</Time>
            <Position>
              <LatitudeDegrees>42.41164608858525753021240234375</LatitudeDegrees>
              <LongitudeDegrees>2.7655601687729358673095703125</LongitudeDegrees>
            </Position>
            <AltitudeMeters>901</AltitudeMeters>
            <DistanceMeters>18489.834031354</DistanceMeters>
          </Trackpoint>
          <Trackpoint>
            <Time>2021-04-01T09:17:42.000Z</Time>
            <Position>
              <LatitudeDegrees>42.4116547219455242156982421875</LatitudeDegrees>
              <LongitudeDegrees>2.76552303694188594818115234375</LongitudeDegrees>
            </Position>
            <AltitudeMeters>901.20001220703125</AltitudeMeters>
            <DistanceMeters>18493.031224895</DistanceMeters>
          </Trackpoint>
          <Trackpoint>
            <Time>2021-04-01T09:17:45.000Z</Time>
            <Position>
              <LatitudeDegrees>42.4116884171962738037109375</LatitudeDegrees>
              <LongitudeDegrees>2.7655058540403842926025390625</LongitudeDegrees>
            </Position>
            <AltitudeMeters>901.20001220703125</AltitudeMeters>
            <DistanceMeters>18497.038153384</DistanceMeters>
          </Trackpoint>
          <Trackpoint>
            <Time>2021-04-01T09:17:47.000Z</Time>
            <Position>
              <LatitudeDegrees>42.4116969667375087738037109375</LatitudeDegrees>
              <LongitudeDegrees>2.76549638248980045318603515625</LongitudeDegrees>
            </Position>
            <AltitudeMeters>901.5999755859375</AltitudeMeters>
            <DistanceMeters>18498.269840374</DistanceMeters>
          </Trackpoint>
          <Trackpoint>
            <Time>2021-04-01T09:17:48.000Z</Time>
            <Position>
              <LatitudeDegrees>42.4117030017077922821044921875</LatitudeDegrees>
              <LongitudeDegrees>2.76548498310148715972900390625</LongitudeDegrees>
            </Position>
            <AltitudeMeters>901.5999755859375</AltitudeMeters>
            <DistanceMeters>18499.421978056</DistanceMeters>
          </Trackpoint>
          <Trackpoint>
            <Time>2021-04-01T09:17:49.000Z</Time>
            <Position>
              <LatitudeDegrees>42.41170794703066349029541015625</LatitudeDegrees>
              <LongitudeDegrees>2.7654756791889667510986328125</LongitudeDegrees>
            </Position>
            <AltitudeMeters>901.5999755859375</AltitudeMeters>
            <DistanceMeters>18500.367481926</DistanceMeters>
          </Trackpoint>
          <Trackpoint>
            <Time>2021-04-01T09:17:50.000Z</Time>
            <Position>
              <LatitudeDegrees>42.41171347908675670623779296875</LatitudeDegrees>
              <LongitudeDegrees>2.765467129647731781005859375</LongitudeDegrees>
            </Position>
            <AltitudeMeters>901.79998779296875</AltitudeMeters>
            <DistanceMeters>18501.298549774</DistanceMeters>
          </Trackpoint>
          <Trackpoint>
            <Time>2021-04-01T09:17:58.000Z</Time>
            <Position>
              <LatitudeDegrees>42.41174197755753993988037109375</LatitudeDegrees>
              <LongitudeDegrees>2.765388004481792449951171875</LongitudeDegrees>
            </Position>
            <AltitudeMeters>902.20001220703125</AltitudeMeters>
            <DistanceMeters>18508.533072777</DistanceMeters>
          </Trackpoint>
          <Trackpoint>
            <Time>2021-04-01T09:18:01.000Z</Time>
            <Position>
              <LatitudeDegrees>42.411753125488758087158203125</LatitudeDegrees>
              <LongitudeDegrees>2.76535816490650177001953125</LongitudeDegrees>
            </Position>
            <AltitudeMeters>902.5999755859375</AltitudeMeters>
            <DistanceMeters>18511.280643323</DistanceMeters>
          </Trackpoint>
          <Trackpoint>
            <Time>2021-04-01T09:18:03.000Z</Time>
            <Position>
              <LatitudeDegrees>42.4117608368396759033203125</LatitudeDegrees>
              <LongitudeDegrees>2.765333354473114013671875</LongitudeDegrees>
            </Position>
            <AltitudeMeters>902.5999755859375</AltitudeMeters>
            <DistanceMeters>18513.49090832</DistanceMeters>
          </Trackpoint>
          <Trackpoint>
            <Time>2021-04-01T09:18:04.000Z</Time>
            <Position>
              <LatitudeDegrees>42.41176284849643707275390625</LatitudeDegrees>
              <LongitudeDegrees>2.7653281576931476593017578125</LongitudeDegrees>
            </Position>
            <AltitudeMeters>902.79998779296875</AltitudeMeters>
            <DistanceMeters>18513.975451391</DistanceMeters>
          </Trackpoint>
          <Trackpoint>
            <Time>2021-04-01T09:18:09.000Z</Time>
            <Position>
              <LatitudeDegrees>42.4117663688957691192626953125</LatitudeDegrees>
              <LongitudeDegrees>2.7652939595282077789306640625</LongitudeDegrees>
            </Position>
            <AltitudeMeters>903</AltitudeMeters>
            <DistanceMeters>18516.813554311</DistanceMeters>
          </Trackpoint>
          <Trackpoint>
            <Time>2021-04-01T09:18:14.000Z</Time>
            <Position>
              <LatitudeDegrees>42.41179008968174457550048828125</LatitudeDegrees>
              <LongitudeDegrees>2.76522397063672542572021484375</LongitudeDegrees>
            </Position>
            <AltitudeMeters>903.20001220703125</AltitudeMeters>
            <DistanceMeters>18523.141220465</DistanceMeters>
          </Trackpoint>
          <Trackpoint>
            <Time>2021-04-01T09:18:15.000Z</Time>
            <Position>
              <LatitudeDegrees>42.4117958731949329376220703125</LatitudeDegrees>
              <LongitudeDegrees>2.765210978686809539794921875</LongitudeDegrees>
            </Position>
            <AltitudeMeters>903.20001220703125</AltitudeMeters>
            <DistanceMeters>18524.38748414</DistanceMeters>
          </Trackpoint>
          <Trackpoint>
            <Time>2021-04-01T09:18:16.000Z</Time>
            <Position>
              <LatitudeDegrees>42.41180065087974071502685546875</LatitudeDegrees>
              <LongitudeDegrees>2.76519991457462310791015625</LongitudeDegrees>
            </Position>
            <AltitudeMeters>903.4000244140625</AltitudeMeters>
            <DistanceMeters>18525.445656848</DistanceMeters>
          </Trackpoint>
          <Trackpoint>
            <Time>2021-04-01T09:18:21.000Z</Time>
            <Position>
              <LatitudeDegrees>42.411810122430324554443359375</LatitudeDegrees>
              <LongitudeDegrees>2.7651335299015045166015625</LongitudeDegrees>
            </Position>
            <AltitudeMeters>903.79998779296875</AltitudeMeters>
            <DistanceMeters>18531.002079381</DistanceMeters>
          </Trackpoint>
          <Trackpoint>
            <Time>2021-04-01T09:18:23.000Z</Time>
            <Position>
              <LatitudeDegrees>42.411823533475399017333984375</LatitudeDegrees>
              <LongitudeDegrees>2.7650837413966655731201171875</LongitudeDegrees>
            </Position>
            <AltitudeMeters>904</AltitudeMeters>
            <DistanceMeters>18535.356750497</DistanceMeters>
          </Trackpoint>
          <Trackpoint>
            <Time>2021-04-01T09:18:24.000Z</Time>
            <Position>
              <LatitudeDegrees>42.41182856261730194091796875</LatitudeDegrees>
              <LongitudeDegrees>2.765062786638736724853515625</LongitudeDegrees>
            </Position>
            <AltitudeMeters>904</AltitudeMeters>
            <DistanceMeters>18537.164757044</DistanceMeters>
          </Trackpoint>
          <Trackpoint>
            <Time>2021-04-01T09:18:25.000Z</Time>
            <Position>
              <LatitudeDegrees>42.41183258593082427978515625</LatitudeDegrees>
              <LongitudeDegrees>2.76505281217396259307861328125</LongitudeDegrees>
            </Position>
            <AltitudeMeters>904.4000244140625</AltitudeMeters>
            <DistanceMeters>18538.095824892</DistanceMeters>
          </Trackpoint>
          <Trackpoint>
            <Time>2021-04-01T09:18:27.000Z</Time>
            <Position>
              <LatitudeDegrees>42.41183803416788578033447265625</LatitudeDegrees>
              <LongitudeDegrees>2.76504510082304477691650390625</LongitudeDegrees>
            </Position>
            <AltitudeMeters>904.5999755859375</AltitudeMeters>
            <DistanceMeters>18538.977066388</DistanceMeters>
          </Trackpoint>
          <Trackpoint>
            <Time>2021-04-01T09:18:28.000Z</Time>
            <Position>
              <LatitudeDegrees>42.4118592403829097747802734375</LatitudeDegrees>
              <LongitudeDegrees>2.76503236033022403717041015625</LongitudeDegrees>
            </Position>
            <AltitudeMeters>904.79998779296875</AltitudeMeters>
            <DistanceMeters>18541.562072494</DistanceMeters>
          </Trackpoint>
          <Trackpoint>
            <Time>2021-04-01T09:18:32.000Z</Time>
            <Position>
              <LatitudeDegrees>42.41189888678491115570068359375</LatitudeDegrees>
              <LongitudeDegrees>2.76498676277697086334228515625</LongitudeDegrees>
            </Position>
            <AltitudeMeters>905.4000244140625</AltitudeMeters>
            <DistanceMeters>18547.351687659</DistanceMeters>
          </Trackpoint>
          <Trackpoint>
            <Time>2021-04-01T09:18:35.000Z</Time>
            <Position>
              <LatitudeDegrees>42.41189620457589626312255859375</LatitudeDegrees>
              <LongitudeDegrees>2.7649687416851520538330078125</LongitudeDegrees>
            </Position>
            <AltitudeMeters>905.79998779296875</AltitudeMeters>
            <DistanceMeters>18548.863180081</DistanceMeters>
          </Trackpoint>
          <Trackpoint>
            <Time>2021-04-01T09:18:36.000Z</Time>
            <Position>
              <LatitudeDegrees>42.41189905442297458648681640625</LatitudeDegrees>
              <LongitudeDegrees>2.76496119797229766845703125</LongitudeDegrees>
            </Position>
            <AltitudeMeters>905.79998779296875</AltitudeMeters>
            <DistanceMeters>18549.561480967</DistanceMeters>
          </Trackpoint>
          <Trackpoint>
            <Time>2021-04-01T09:18:38.000Z</Time>
            <Position>
              <LatitudeDegrees>42.4119083583354949951171875</LatitudeDegrees>
              <LongitudeDegrees>2.76494485326111316680908203125</LongitudeDegrees>
            </Position>
            <AltitudeMeters>906</AltitudeMeters>
            <DistanceMeters>18551.258712356</DistanceMeters>
          </Trackpoint>
          <Trackpoint>
            <Time>2021-04-01T09:18:39.000Z</Time>
            <Position>
              <LatitudeDegrees>42.4119148962199687957763671875</LatitudeDegrees>
              <LongitudeDegrees>2.7649338729679584503173828125</LongitudeDegrees>
            </Position>
            <AltitudeMeters>906.20001220703125</AltitudeMeters>
            <DistanceMeters>18552.414762231</DistanceMeters>
          </Trackpoint>
          <Trackpoint>
            <Time>2021-04-01T09:18:43.000Z</Time>
            <Position>
              <LatitudeDegrees>42.4119217693805694580078125</LatitudeDegrees>
              <LongitudeDegrees>2.764893472194671630859375</LongitudeDegrees>
            </Position>
            <AltitudeMeters>907</AltitudeMeters>
            <DistanceMeters>18555.822500235</DistanceMeters>
          </Trackpoint>
          <Trackpoint>
            <Time>2021-04-01T09:18:47.000Z</Time>
            <Position>
              <LatitudeDegrees>42.4119370244443416595458984375</LatitudeDegrees>
              <LongitudeDegrees>2.76485147885978221893310546875</LongitudeDegrees>
            </Position>
            <AltitudeMeters>907.5999755859375</AltitudeMeters>
            <DistanceMeters>18559.66844163</DistanceMeters>
          </Trackpoint>
          <Trackpoint>
            <Time>2021-04-01T09:18:48.000Z</Time>
            <Position>
              <LatitudeDegrees>42.411946915090084075927734375</LatitudeDegrees>
              <LongitudeDegrees>2.7648420073091983795166015625</LongitudeDegrees>
            </Position>
            <AltitudeMeters>907.79998779296875</AltitudeMeters>
            <DistanceMeters>18561.015677825</DistanceMeters>
          </Trackpoint>
          <Trackpoint>
            <Time>2021-04-01T09:18:50.000Z</Time>
            <Position>
              <LatitudeDegrees>42.41196191869676113128662109375</LatitudeDegrees>
              <LongitudeDegrees>2.76481526903808116912841796875</LongitudeDegrees>
            </Position>
            <AltitudeMeters>908</AltitudeMeters>
            <DistanceMeters>18563.776363341</DistanceMeters>
          </Trackpoint>
          <Trackpoint>
            <Time>2021-04-01T09:18:51.000Z</Time>
            <Position>
              <LatitudeDegrees>42.41196376271545886993408203125</LatitudeDegrees>
              <LongitudeDegrees>2.76481057517230510711669921875</LongitudeDegrees>
            </Position>
            <AltitudeMeters>908.20001220703125</AltitudeMeters>
            <DistanceMeters>18564.211830453</DistanceMeters>
          </Trackpoint>
          <Trackpoint>
            <Time>2021-04-01T09:18:53.000Z</Time>
            <Position>
              <LatitudeDegrees>42.41197340190410614013671875</LatitudeDegrees>
              <LongitudeDegrees>2.76478911750018596649169921875</LongitudeDegrees>
            </Position>
            <AltitudeMeters>908.4000244140625</AltitudeMeters>
            <DistanceMeters>18566.276339131</DistanceMeters>
          </Trackpoint>
          <Trackpoint>
            <Time>2021-04-01T09:19:01.000Z</Time>
            <Position>
              <LatitudeDegrees>42.4120034091174602508544921875</LatitudeDegrees>
              <LongitudeDegrees>2.76470102369785308837890625</LongitudeDegrees>
            </Position>
            <AltitudeMeters>909</AltitudeMeters>
            <DistanceMeters>18574.248395203</DistanceMeters>
          </Trackpoint>
          <Trackpoint>
            <Time>2021-04-01T09:19:03.000Z</Time>
            <Position>
              <LatitudeDegrees>42.41201237775385379791259765625</LatitudeDegrees>
              <LongitudeDegrees>2.76466992683708667755126953125</LongitudeDegrees>
            </Position>
            <AltitudeMeters>909</AltitudeMeters>
            <DistanceMeters>18576.992677214</DistanceMeters>
          </Trackpoint>
          <Trackpoint>
            <Time>2021-04-01T09:19:06.000Z</Time>
            <Position>
              <LatitudeDegrees>42.4120161496102809906005859375</LatitudeDegrees>
              <LongitudeDegrees>2.7646346390247344970703125</LongitudeDegrees>
            </Position>
            <AltitudeMeters>909.20001220703125</AltitudeMeters>
            <DistanceMeters>18579.921597257</DistanceMeters>
          </Trackpoint>
          <Trackpoint>
            <Time>2021-04-01T09:19:08.000Z</Time>
            <Position>
              <LatitudeDegrees>42.41201807744801044464111328125</LatitudeDegrees>
              <LongitudeDegrees>2.7645989321172237396240234375</LongitudeDegrees>
            </Position>
            <AltitudeMeters>909.20001220703125</AltitudeMeters>
            <DistanceMeters>18582.862823742</DistanceMeters>
          </Trackpoint>
          <Trackpoint>
            <Time>2021-04-01T09:19:10.000Z</Time>
            <Position>
              <LatitudeDegrees>42.41200600750744342803955078125</LatitudeDegrees>
              <LongitudeDegrees>2.76459013111889362335205078125</LongitudeDegrees>
            </Position>
            <AltitudeMeters>909.20001220703125</AltitudeMeters>
            <DistanceMeters>18584.386217862</DistanceMeters>
          </Trackpoint>
          <Trackpoint>
            <Time>2021-04-01T09:19:12.000Z</Time>
            <Position>
              <LatitudeDegrees>42.41200332529842853546142578125</LatitudeDegrees>
              <LongitudeDegrees>2.76457420550286769866943359375</LongitudeDegrees>
            </Position>
            <AltitudeMeters>909.4000244140625</AltitudeMeters>
            <DistanceMeters>18585.730098545</DistanceMeters>
          </Trackpoint>
          <Trackpoint>
            <Time>2021-04-01T09:19:13.000Z</Time>
            <Position>
              <LatitudeDegrees>42.4120081029832363128662109375</LatitudeDegrees>
              <LongitudeDegrees>2.76456364430487155914306640625</LongitudeDegrees>
            </Position>
            <AltitudeMeters>909.4000244140625</AltitudeMeters>
            <DistanceMeters>18586.749146527</DistanceMeters>
          </Trackpoint>
          <Trackpoint>
            <Time>2021-04-01T09:19:15.000Z</Time>
            <Position>
              <LatitudeDegrees>42.41201975382864475250244140625</LatitudeDegrees>
              <LongitudeDegrees>2.76453581638634204864501953125</LongitudeDegrees>
            </Position>
            <AltitudeMeters>909.5999755859375</AltitudeMeters>
            <DistanceMeters>18589.379172869</DistanceMeters>
          </Trackpoint>
          <Trackpoint>
            <Time>2021-04-01T09:19:18.000Z</Time>
            <Position>
              <LatitudeDegrees>42.4120288901031017303466796875</LatitudeDegrees>
              <LongitudeDegrees>2.76449508033692836761474609375</LongitudeDegrees>
            </Position>
            <AltitudeMeters>909.79998779296875</AltitudeMeters>
            <DistanceMeters>18592.878427598</DistanceMeters>
          </Trackpoint>
          <Trackpoint>
            <Time>2021-04-01T09:19:19.000Z</Time>
            <Position>
              <LatitudeDegrees>42.4120330810546875</LatitudeDegrees>
              <LongitudeDegrees>2.76447831653058528900146484375</LongitudeDegrees>
            </Position>
            <AltitudeMeters>909.79998779296875</AltitudeMeters>
            <DistanceMeters>18594.335159544</DistanceMeters>
          </Trackpoint>
          <Trackpoint>
            <Time>2021-04-01T09:19:24.000Z</Time>
            <Position>
              <LatitudeDegrees>42.4120349250733852386474609375</LatitudeDegrees>
              <LongitudeDegrees>2.7644172124564647674560546875</LongitudeDegrees>
            </Position>
            <AltitudeMeters>910.20001220703125</AltitudeMeters>
            <DistanceMeters>18599.360806151</DistanceMeters>
          </Trackpoint>
          <Trackpoint>
            <Time>2021-04-01T09:19:26.000Z</Time>
            <Position>
              <LatitudeDegrees>42.41203484125435352325439453125</LatitudeDegrees>
              <LongitudeDegrees>2.76438762433826923370361328125</LongitudeDegrees>
            </Position>
            <AltitudeMeters>910.4000244140625</AltitudeMeters>
            <DistanceMeters>18601.79282179</DistanceMeters>
          </Trackpoint>
          <Trackpoint>
            <Time>2021-04-01T09:19:30.000Z</Time>
            <Position>
              <LatitudeDegrees>42.41202511824667453765869140625</LatitudeDegrees>
              <LongitudeDegrees>2.76433398015797138214111328125</LongitudeDegrees>
            </Position>
            <AltitudeMeters>910.5999755859375</AltitudeMeters>
            <DistanceMeters>18606.33227489</DistanceMeters>
          </Trackpoint>
          <Trackpoint>
            <Time>2021-04-01T09:19:33.000Z</Time>
            <Position>
              <LatitudeDegrees>42.41203484125435352325439453125</LatitudeDegrees>
              <LongitudeDegrees>2.7642831020057201385498046875</LongitudeDegrees>
            </Position>
            <AltitudeMeters>910.79998779296875</AltitudeMeters>
            <DistanceMeters>18610.651550053</DistanceMeters>
          </Trackpoint>
          <Trackpoint>
            <Time>2021-04-01T09:19:38.000Z</Time>
            <Position>
              <LatitudeDegrees>42.412052862346172332763671875</LatitudeDegrees>
              <LongitudeDegrees>2.76419668458402156829833984375</LongitudeDegrees>
            </Position>
            <AltitudeMeters>911.20001220703125</AltitudeMeters>
            <DistanceMeters>18618.030666596</DistanceMeters>
          </Trackpoint>
          <Trackpoint>
            <Time>2021-04-01T09:19:39.000Z</Time>
            <Position>
              <LatitudeDegrees>42.41205529309809207916259765625</LatitudeDegrees>
              <LongitudeDegrees>2.7641905657947063446044921875</LongitudeDegrees>
            </Position>
            <AltitudeMeters>911.4000244140625</AltitudeMeters>
            <DistanceMeters>18618.600826882</DistanceMeters>
          </Trackpoint>
          <Trackpoint>
            <Time>2021-04-01T09:19:43.000Z</Time>
            <Position>
              <LatitudeDegrees>42.41207105107605457305908203125</LatitudeDegrees>
              <LongitudeDegrees>2.76415008120238780975341796875</LongitudeDegrees>
            </Position>
            <AltitudeMeters>911.79998779296875</AltitudeMeters>
            <DistanceMeters>18622.361292241</DistanceMeters>
          </Trackpoint>
          <Trackpoint>
            <Time>2021-04-01T09:19:45.000Z</Time>
            <Position>
              <LatitudeDegrees>42.4120785109698772430419921875</LatitudeDegrees>
              <LongitudeDegrees>2.7641382627189159393310546875</LongitudeDegrees>
            </Position>
            <AltitudeMeters>912.20001220703125</AltitudeMeters>
            <DistanceMeters>18623.643272706</DistanceMeters>
          </Trackpoint>
          <Trackpoint>
            <Time>2021-04-01T09:19:46.000Z</Time>
            <Position>
              <LatitudeDegrees>42.41209401749074459075927734375</LatitudeDegrees>
              <LongitudeDegrees>2.76411538012325763702392578125</LongitudeDegrees>
            </Position>
            <AltitudeMeters>912.20001220703125</AltitudeMeters>
            <DistanceMeters>18626.194877126</DistanceMeters>
          </Trackpoint>
          <Trackpoint>
            <Time>2021-04-01T09:19:48.000Z</Time>
            <Position>
              <LatitudeDegrees>42.41208865307271480560302734375</LatitudeDegrees>
              <LongitudeDegrees>2.76409375481307506561279296875</LongitudeDegrees>
            </Position>
            <AltitudeMeters>912.5999755859375</AltitudeMeters>
            <DistanceMeters>18628.07150437</DistanceMeters>
          </Trackpoint>
          <Trackpoint>
            <Time>2021-04-01T09:19:50.000Z</Time>
            <Position>
              <LatitudeDegrees>42.41208194755017757415771484375</LatitudeDegrees>
              <LongitudeDegrees>2.76407497934997081756591796875</LongitudeDegrees>
            </Position>
            <AltitudeMeters>912.79998779296875</AltitudeMeters>
            <DistanceMeters>18629.784622826</DistanceMeters>
          </Trackpoint>
          <Trackpoint>
            <Time>2021-04-01T09:19:54.000Z</Time>
            <Position>
              <LatitudeDegrees>42.41208211518824100494384765625</LatitudeDegrees>
              <LongitudeDegrees>2.76404631324112415313720703125</LongitudeDegrees>
            </Position>
            <AltitudeMeters>913.4000244140625</AltitudeMeters>
            <DistanceMeters>18632.139292004</DistanceMeters>
          </Trackpoint>
          <Trackpoint>
            <Time>2021-04-01T09:19:56.000Z</Time>
            <Position>
              <LatitudeDegrees>42.4120872281491756439208984375</LatitudeDegrees>
              <LongitudeDegrees>2.7640339918434619903564453125</LongitudeDegrees>
            </Position>
            <AltitudeMeters>913.5999755859375</AltitudeMeters>
            <DistanceMeters>18633.299240877</DistanceMeters>
          </Trackpoint>
          <Trackpoint>
            <Time>2021-04-01T09:19:57.000Z</Time>
            <Position>
              <LatitudeDegrees>42.412091754376888275146484375</LatitudeDegrees>
              <LongitudeDegrees>2.76401915587484836578369140625</LongitudeDegrees>
            </Position>
            <AltitudeMeters>913.5999755859375</AltitudeMeters>
            <DistanceMeters>18634.619394184</DistanceMeters>
          </Trackpoint>
          <Trackpoint>
            <Time>2021-04-01T09:20:01.000Z</Time>
            <Position>
              <LatitudeDegrees>42.41210759617388248443603515625</LatitudeDegrees>
              <LongitudeDegrees>2.76398043148219585418701171875</LongitudeDegrees>
            </Position>
            <AltitudeMeters>914.20001220703125</AltitudeMeters>
            <DistanceMeters>18638.257813081</DistanceMeters>
          </Trackpoint>
          <Trackpoint>
            <Time>2021-04-01T09:20:03.000Z</Time>
            <Position>
              <LatitudeDegrees>42.41211966611444950103759765625</LatitudeDegrees>
              <LongitudeDegrees>2.7639672718942165374755859375</LongitudeDegrees>
            </Position>
            <AltitudeMeters>914.20001220703125</AltitudeMeters>
            <DistanceMeters>18639.984059073</DistanceMeters>
          </Trackpoint>
          <Trackpoint>
            <Time>2021-04-01T09:20:05.000Z</Time>
            <Position>
              <LatitudeDegrees>42.41212352178990840911865234375</LatitudeDegrees>
              <LongitudeDegrees>2.763950340449810028076171875</LongitudeDegrees>
            </Position>
            <AltitudeMeters>914.4000244140625</AltitudeMeters>
            <DistanceMeters>18641.437688286</DistanceMeters>
          </Trackpoint>
          <Trackpoint>
            <Time>2021-04-01T09:20:09.000Z</Time>
            <Position>
              <LatitudeDegrees>42.41213223896920680999755859375</LatitudeDegrees>
              <LongitudeDegrees>2.76390868239104747772216796875</LongitudeDegrees>
            </Position>
            <AltitudeMeters>915.20001220703125</AltitudeMeters>
            <DistanceMeters>18644.995801153</DistanceMeters>
          </Trackpoint>
          <Trackpoint>
            <Time>2021-04-01T09:20:12.000Z</Time>
            <Position>
              <LatitudeDegrees>42.412146739661693572998046875</LatitudeDegrees>
              <LongitudeDegrees>2.76387012563645839691162109375</LongitudeDegrees>
            </Position>
            <AltitudeMeters>915.4000244140625</AltitudeMeters>
            <DistanceMeters>18648.550105156</DistanceMeters>
          </Trackpoint>
          <Trackpoint>
            <Time>2021-04-01T09:20:17.000Z</Time>
            <Position>
              <LatitudeDegrees>42.41218655370175838470458984375</LatitudeDegrees>
              <LongitudeDegrees>2.76379301212728023529052734375</LongitudeDegrees>
            </Position>
            <AltitudeMeters>916.4000244140625</AltitudeMeters>
            <DistanceMeters>18656.282384001</DistanceMeters>
          </Trackpoint>
          <Trackpoint>
            <Time>2021-04-01T09:20:18.000Z</Time>
            <Position>
              <LatitudeDegrees>42.41218705661594867706298828125</LatitudeDegrees>
              <LongitudeDegrees>2.76377968490123748779296875</LongitudeDegrees>
            </Position>
            <AltitudeMeters>916.5999755859375</AltitudeMeters>
            <DistanceMeters>18657.378285533</DistanceMeters>
          </Trackpoint>
          <Trackpoint>
            <Time>2021-04-01T09:20:20.000Z</Time>
            <Position>
              <LatitudeDegrees>42.412190996110439300537109375</LatitudeDegrees>
              <LongitudeDegrees>2.76375353336334228515625</LongitudeDegrees>
            </Position>
            <AltitudeMeters>917</AltitudeMeters>
            <DistanceMeters>18659.570088596</DistanceMeters>
          </Trackpoint>
          <Trackpoint>
            <Time>2021-04-01T09:20:24.000Z</Time>
            <Position>
              <LatitudeDegrees>42.41221605800092220306396484375</LatitudeDegrees>
              <LongitudeDegrees>2.76369729079306125640869140625</LongitudeDegrees>
            </Position>
            <AltitudeMeters>917.5999755859375</AltitudeMeters>
            <DistanceMeters>18664.969078016</DistanceMeters>
          </Trackpoint>
          <Trackpoint>
            <Time>2021-04-01T09:20:25.000Z</Time>
            <Position>
              <LatitudeDegrees>42.41221823729574680328369140625</LatitudeDegrees>
              <LongitudeDegrees>2.763680778443813323974609375</LongitudeDegrees>
            </Position>
            <AltitudeMeters>917.79998779296875</AltitudeMeters>
            <DistanceMeters>18666.349420774</DistanceMeters>
          </Trackpoint>
          <Trackpoint>
            <Time>2021-04-01T09:20:27.000Z</Time>
            <Position>
              <LatitudeDegrees>42.412216477096080780029296875</LatitudeDegrees>
              <LongitudeDegrees>2.7636571414768695831298828125</LongitudeDegrees>
            </Position>
            <AltitudeMeters>918</AltitudeMeters>
            <DistanceMeters>18668.303831769</DistanceMeters>
          </Trackpoint>
          <Trackpoint>
            <Time>2021-04-01T09:20:28.000Z</Time>
            <Position>
              <LatitudeDegrees>42.4122159741818904876708984375</LatitudeDegrees>
              <LongitudeDegrees>2.76365018449723720550537109375</LongitudeDegrees>
            </Position>
            <AltitudeMeters>918.20001220703125</AltitudeMeters>
            <DistanceMeters>18668.873992055</DistanceMeters>
          </Trackpoint>
          <Trackpoint>
            <Time>2021-04-01T09:20:31.000Z</Time>
            <Position>
              <LatitudeDegrees>42.41223282180726528167724609375</LatitudeDegrees>
              <LongitudeDegrees>2.7636162377893924713134765625</LongitudeDegrees>
            </Position>
            <AltitudeMeters>918.79998779296875</AltitudeMeters>
            <DistanceMeters>18672.236380448</DistanceMeters>
          </Trackpoint>
          <Trackpoint>
            <Time>2021-04-01T09:20:32.000Z</Time>
            <Position>
              <LatitudeDegrees>42.412234582006931304931640625</LatitudeDegrees>
              <LongitudeDegrees>2.76360877789556980133056640625</LongitudeDegrees>
            </Position>
            <AltitudeMeters>919</AltitudeMeters>
            <DistanceMeters>18672.873839027</DistanceMeters>
          </Trackpoint>
          <Trackpoint>
            <Time>2021-04-01T09:20:34.000Z</Time>
            <Position>
              <LatitudeDegrees>42.41224321536719799041748046875</LatitudeDegrees>
              <LongitudeDegrees>2.7635941095650196075439453125</LongitudeDegrees>
            </Position>
            <AltitudeMeters>919.20001220703125</AltitudeMeters>
            <DistanceMeters>18674.417840381</DistanceMeters>
          </Trackpoint>
          <Trackpoint>
            <Time>2021-04-01T09:20:37.000Z</Time>
            <Position>
              <LatitudeDegrees>42.41225612349808216094970703125</LatitudeDegrees>
              <LongitudeDegrees>2.7635625936090946197509765625</LongitudeDegrees>
            </Position>
            <AltitudeMeters>919.4000244140625</AltitudeMeters>
            <DistanceMeters>18677.380480134</DistanceMeters>
          </Trackpoint>
          <Trackpoint>
            <Time>2021-04-01T09:20:42.000Z</Time>
            <Position>
              <LatitudeDegrees>42.41226651705801486968994140625</LatitudeDegrees>
              <LongitudeDegrees>2.76351816952228546142578125</LongitudeDegrees>
            </Position>
            <AltitudeMeters>920</AltitudeMeters>
            <DistanceMeters>18681.209950612</DistanceMeters>
          </Trackpoint>
          <Trackpoint>
            <Time>2021-04-01T09:20:43.000Z</Time>
            <Position>
              <LatitudeDegrees>42.41227372549474239349365234375</LatitudeDegrees>
              <LongitudeDegrees>2.76350685395300388336181640625</LongitudeDegrees>
            </Position>
            <AltitudeMeters>920</AltitudeMeters>
            <DistanceMeters>18682.437966397</DistanceMeters>
          </Trackpoint>
          <Trackpoint>
            <Time>2021-04-01T09:20:44.000Z</Time>
            <Position>
              <LatitudeDegrees>42.41228126920759677886962890625</LatitudeDegrees>
              <LongitudeDegrees>2.7634972147643566131591796875</LongitudeDegrees>
            </Position>
            <AltitudeMeters>920.20001220703125</AltitudeMeters>
            <DistanceMeters>18683.594016272</DistanceMeters>
          </Trackpoint>
          <Trackpoint>
            <Time>2021-04-01T09:20:47.000Z</Time>
            <Position>
              <LatitudeDegrees>42.4122950993478298187255859375</LatitudeDegrees>
              <LongitudeDegrees>2.7634754218161106109619140625</LongitudeDegrees>
            </Position>
            <AltitudeMeters>920.5999755859375</AltitudeMeters>
            <DistanceMeters>18685.954430889</DistanceMeters>
          </Trackpoint>
          <Trackpoint>
            <Time>2021-04-01T09:20:50.000Z</Time>
            <Position>
              <LatitudeDegrees>42.412285543978214263916015625</LatitudeDegrees>
              <LongitudeDegrees>2.76345647871494293212890625</LongitudeDegrees>
            </Position>
            <AltitudeMeters>921.20001220703125</AltitudeMeters>
            <DistanceMeters>18687.840657312</DistanceMeters>
          </Trackpoint>
          <Trackpoint>
            <Time>2021-04-01T09:20:52.000Z</Time>
            <Position>
              <LatitudeDegrees>42.41229065693914890289306640625</LatitudeDegrees>
              <LongitudeDegrees>2.76343912817537784576416015625</LongitudeDegrees>
            </Position>
            <AltitudeMeters>921.5999755859375</AltitudeMeters>
            <DistanceMeters>18689.375860866</DistanceMeters>
          </Trackpoint>
          <Trackpoint>
            <Time>2021-04-01T09:20:54.000Z</Time>
            <Position>
              <LatitudeDegrees>42.412299625575542449951171875</LatitudeDegrees>
              <LongitudeDegrees>2.7634190954267978668212890625</LongitudeDegrees>
            </Position>
            <AltitudeMeters>921.79998779296875</AltitudeMeters>
            <DistanceMeters>18691.30000518</DistanceMeters>
          </Trackpoint>
          <Trackpoint>
            <Time>2021-04-01T09:20:56.000Z</Time>
            <Position>
              <LatitudeDegrees>42.41230306215584278106689453125</LatitudeDegrees>
              <LongitudeDegrees>2.7634003199636936187744140625</LongitudeDegrees>
            </Position>
            <AltitudeMeters>922.20001220703125</AltitudeMeters>
            <DistanceMeters>18692.890106247</DistanceMeters>
          </Trackpoint>
          <Trackpoint>
            <Time>2021-04-01T09:20:57.000Z</Time>
            <Position>
              <LatitudeDegrees>42.41230440326035022735595703125</LatitudeDegrees>
              <LongitudeDegrees>2.7633832208812236785888671875</LongitudeDegrees>
            </Position>
            <AltitudeMeters>922.20001220703125</AltitudeMeters>
            <DistanceMeters>18694.305972403</DistanceMeters>
          </Trackpoint>
          <Trackpoint>
            <Time>2021-04-01T09:20:58.000Z</Time>
            <Position>
              <LatitudeDegrees>42.41230557672679424285888671875</LatitudeDegrees>
              <LongitudeDegrees>2.76336905546486377716064453125</LongitudeDegrees>
            </Position>
            <AltitudeMeters>922.4000244140625</AltitudeMeters>
            <DistanceMeters>18695.477540421</DistanceMeters>
          </Trackpoint>
          <Trackpoint>
            <Time>2021-04-01T09:21:03.000Z</Time>
            <Position>
              <LatitudeDegrees>42.41230825893580913543701171875</LatitudeDegrees>
              <LongitudeDegrees>2.76330971159040927886962890625</LongitudeDegrees>
            </Position>
            <AltitudeMeters>923.20001220703125</AltitudeMeters>
            <DistanceMeters>18700.363798919</DistanceMeters>
          </Trackpoint>
          <Trackpoint>
            <Time>2021-04-01T09:21:05.000Z</Time>
            <Position>
              <LatitudeDegrees>42.4123080074787139892578125</LatitudeDegrees>
              <LongitudeDegrees>2.7632953785359859466552734375</LongitudeDegrees>
            </Position>
            <AltitudeMeters>923.20001220703125</AltitudeMeters>
            <DistanceMeters>18701.546871972</DistanceMeters>
          </Trackpoint>
          <Trackpoint>
            <Time>2021-04-01T09:21:06.000Z</Time>
            <Position>
              <LatitudeDegrees>42.4123101867735385894775390625</LatitudeDegrees>
              <LongitudeDegrees>2.7632906846702098846435546875</LongitudeDegrees>
            </Position>
            <AltitudeMeters>923.4000244140625</AltitudeMeters>
            <DistanceMeters>18701.992586771</DistanceMeters>
          </Trackpoint>
          <Trackpoint>
            <Time>2021-04-01T09:21:10.000Z</Time>
            <Position>
              <LatitudeDegrees>42.4123348295688629150390625</LatitudeDegrees>
              <LongitudeDegrees>2.76323779486119747161865234375</LongitudeDegrees>
            </Position>
            <AltitudeMeters>923.5999755859375</AltitudeMeters>
            <DistanceMeters>18707.131063542</DistanceMeters>
          </Trackpoint>
          <Trackpoint>
            <Time>2021-04-01T09:21:12.000Z</Time>
            <Position>
              <LatitudeDegrees>42.41234865970909595489501953125</LatitudeDegrees>
              <LongitudeDegrees>2.76321231387555599212646484375</LongitudeDegrees>
            </Position>
            <AltitudeMeters>923.79998779296875</AltitudeMeters>
            <DistanceMeters>18709.730005092</DistanceMeters>
          </Trackpoint>
          <Trackpoint>
            <Time>2021-04-01T09:21:13.000Z</Time>
            <Position>
              <LatitudeDegrees>42.4123484082520008087158203125</LatitudeDegrees>
              <LongitudeDegrees>2.76320711709558963775634765625</LongitudeDegrees>
            </Position>
            <AltitudeMeters>924</AltitudeMeters>
            <DistanceMeters>18710.154977478</DistanceMeters>
          </Trackpoint>
          <Trackpoint>
            <Time>2021-04-01T09:21:15.000Z</Time>
            <Position>
              <LatitudeDegrees>42.41236173547804355621337890625</LatitudeDegrees>
              <LongitudeDegrees>2.7631894312798976898193359375</LongitudeDegrees>
            </Position>
            <AltitudeMeters>924.4000244140625</AltitudeMeters>
            <DistanceMeters>18712.232566595</DistanceMeters>
          </Trackpoint>
          <Trackpoint>
            <Time>2021-04-01T09:21:16.000Z</Time>
            <Position>
              <LatitudeDegrees>42.41236978210508823394775390625</LatitudeDegrees>
              <LongitudeDegrees>2.76318029500544071197509765625</LongitudeDegrees>
            </Position>
            <AltitudeMeters>924.5999755859375</AltitudeMeters>
            <DistanceMeters>18713.404134612</DistanceMeters>
          </Trackpoint>
          <Trackpoint>
            <Time>2021-04-01T09:21:21.000Z</Time>
            <Position>
              <LatitudeDegrees>42.41239677183330059051513671875</LatitudeDegrees>
              <LongitudeDegrees>2.7631320990622043609619140625</LongitudeDegrees>
            </Position>
            <AltitudeMeters>925.4000244140625</AltitudeMeters>
            <DistanceMeters>18718.374676751</DistanceMeters>
          </Trackpoint>
          <Trackpoint>
            <Time>2021-04-01T09:21:22.000Z</Time>
            <Position>
              <LatitudeDegrees>42.41240029223263263702392578125</LatitudeDegrees>
              <LongitudeDegrees>2.7631183527410030364990234375</LongitudeDegrees>
            </Position>
            <AltitudeMeters>925.5999755859375</AltitudeMeters>
            <DistanceMeters>18719.569144029</DistanceMeters>
          </Trackpoint>
          <Trackpoint>
            <Time>2021-04-01T09:21:28.000Z</Time>
            <Position>
              <LatitudeDegrees>42.41242158226668834686279296875</LatitudeDegrees>
              <LongitudeDegrees>2.76306889951229095458984375</LongitudeDegrees>
            </Position>
            <AltitudeMeters>926.20001220703125</AltitudeMeters>
            <DistanceMeters>18724.273686234</DistanceMeters>
          </Trackpoint>
          <Trackpoint>
            <Time>2021-04-01T09:21:31.000Z</Time>
            <Position>
              <LatitudeDegrees>42.41242761723697185516357421875</LatitudeDegrees>
              <LongitudeDegrees>2.76302170939743518829345703125</LongitudeDegrees>
            </Position>
            <AltitudeMeters>926.5999755859375</AltitudeMeters>
            <DistanceMeters>18728.210132751</DistanceMeters>
          </Trackpoint>
          <Trackpoint>
            <Time>2021-04-01T09:21:34.000Z</Time>
            <Position>
              <LatitudeDegrees>42.41243968717753887176513671875</LatitudeDegrees>
              <LongitudeDegrees>2.762984074652194976806640625</LongitudeDegrees>
            </Position>
            <AltitudeMeters>927</AltitudeMeters>
            <DistanceMeters>18731.583246493</DistanceMeters>
          </Trackpoint>
          <Trackpoint>
            <Time>2021-04-01T09:21:39.000Z</Time>
            <Position>
              <LatitudeDegrees>42.412470281124114990234375</LatitudeDegrees>
              <LongitudeDegrees>2.76294191367924213409423828125</LongitudeDegrees>
            </Position>
            <AltitudeMeters>927.5999755859375</AltitudeMeters>
            <DistanceMeters>18736.441705079</DistanceMeters>
          </Trackpoint>
          <Trackpoint>
            <Time>2021-04-01T09:21:45.000Z</Time>
            <Position>
              <LatitudeDegrees>42.41247832775115966796875</LatitudeDegrees>
              <LongitudeDegrees>2.76287754066288471221923828125</LongitudeDegrees>
            </Position>
            <AltitudeMeters>928.4000244140625</AltitudeMeters>
            <DistanceMeters>18741.806297666</DistanceMeters>
          </Trackpoint>
          <Trackpoint>
            <Time>2021-04-01T09:21:47.000Z</Time>
            <Position>
              <LatitudeDegrees>42.412480674684047698974609375</LatitudeDegrees>
              <LongitudeDegrees>2.76286697946488857269287109375</LongitudeDegrees>
            </Position>
            <AltitudeMeters>928.5999755859375</AltitudeMeters>
            <DistanceMeters>18742.707800234</DistanceMeters>
          </Trackpoint>
          <Trackpoint>
            <Time>2021-04-01T09:21:51.000Z</Time>
            <Position>
              <LatitudeDegrees>42.4124801717698574066162109375</LatitudeDegrees>
              <LongitudeDegrees>2.7628477849066257476806640625</LongitudeDegrees>
            </Position>
            <AltitudeMeters>929.20001220703125</AltitudeMeters>
            <DistanceMeters>18744.28650258</DistanceMeters>
          </Trackpoint>
          <Trackpoint>
            <Time>2021-04-01T09:21:57.000Z</Time>
            <Position>
              <LatitudeDegrees>42.41250858642160892486572265625</LatitudeDegrees>
              <LongitudeDegrees>2.7627998404204845428466796875</LongitudeDegrees>
            </Position>
            <AltitudeMeters>929.79998779296875</AltitudeMeters>
            <DistanceMeters>18749.338135587</DistanceMeters>
          </Trackpoint>
          <Trackpoint>
            <Time>2021-04-01T09:22:01.000Z</Time>
            <Position>
              <LatitudeDegrees>42.4125187285244464874267578125</LatitudeDegrees>
              <LongitudeDegrees>2.76277025230228900909423828125</LongitudeDegrees>
            </Position>
            <AltitudeMeters>930.4000244140625</AltitudeMeters>
            <DistanceMeters>18752.019169128</DistanceMeters>
          </Trackpoint>
          <Trackpoint>
            <Time>2021-04-01T09:22:03.000Z</Time>
            <Position>
              <LatitudeDegrees>42.4125130288302898406982421875</LatitudeDegrees>
              <LongitudeDegrees>2.76275700889527797698974609375</LongitudeDegrees>
            </Position>
            <AltitudeMeters>931</AltitudeMeters>
            <DistanceMeters>18753.279840954</DistanceMeters>
          </Trackpoint>
          <Trackpoint>
            <Time>2021-04-01T09:22:07.000Z</Time>
            <Position>
              <LatitudeDegrees>42.4125113524496555328369140625</LatitudeDegrees>
              <LongitudeDegrees>2.76272289454936981201171875</LongitudeDegrees>
            </Position>
            <AltitudeMeters>931.5999755859375</AltitudeMeters>
            <DistanceMeters>18756.089162369</DistanceMeters>
          </Trackpoint>
          <Trackpoint>
            <Time>2021-04-01T09:22:08.000Z</Time>
            <Position>
              <LatitudeDegrees>42.4125123582780361175537109375</LatitudeDegrees>
              <LongitudeDegrees>2.76271082460880279541015625</LongitudeDegrees>
            </Position>
            <AltitudeMeters>931.79998779296875</AltitudeMeters>
            <DistanceMeters>18757.085810958</DistanceMeters>
          </Trackpoint>
          <Trackpoint>
            <Time>2021-04-01T09:22:09.000Z</Time>
            <Position>
              <LatitudeDegrees>42.4125150404870510101318359375</LatitudeDegrees>
              <LongitudeDegrees>2.76270219124853610992431640625</LongitudeDegrees>
            </Position>
            <AltitudeMeters>932</AltitudeMeters>
            <DistanceMeters>18757.857811635</DistanceMeters>
          </Trackpoint>
          <Trackpoint>
            <Time>2021-04-01T09:22:10.000Z</Time>
            <Position>
              <LatitudeDegrees>42.4125157110393047332763671875</LatitudeDegrees>
              <LongitudeDegrees>2.76269473135471343994140625</LongitudeDegrees>
            </Position>
            <AltitudeMeters>932</AltitudeMeters>
            <DistanceMeters>18758.47365513</DistanceMeters>
          </Trackpoint>
          <Trackpoint>
            <Time>2021-04-01T09:22:18.000Z</Time>
            <Position>
              <LatitudeDegrees>42.41253708489239215850830078125</LatitudeDegrees>
              <LongitudeDegrees>2.7626231499016284942626953125</LongitudeDegrees>
            </Position>
            <AltitudeMeters>932.79998779296875</AltitudeMeters>
            <DistanceMeters>18764.818423115</DistanceMeters>
          </Trackpoint>
          <Trackpoint>
            <Time>2021-04-01T09:22:19.000Z</Time>
            <Position>
              <LatitudeDegrees>42.41253389976918697357177734375</LatitudeDegrees>
              <LongitudeDegrees>2.76262071914970874786376953125</LongitudeDegrees>
            </Position>
            <AltitudeMeters>933</AltitudeMeters>
            <DistanceMeters>18765.22158732</DistanceMeters>
          </Trackpoint>
          <Trackpoint>
            <Time>2021-04-01T09:22:24.000Z</Time>
            <Position>
              <LatitudeDegrees>42.4125358276069164276123046875</LatitudeDegrees>
              <LongitudeDegrees>2.76259272359311580657958984375</LongitudeDegrees>
            </Position>
            <AltitudeMeters>933.79998779296875</AltitudeMeters>
            <DistanceMeters>18767.531733458</DistanceMeters>
          </Trackpoint>
          <Trackpoint>
            <Time>2021-04-01T09:22:27.000Z</Time>
            <Position>
              <LatitudeDegrees>42.41254068911075592041015625</LatitudeDegrees>
              <LongitudeDegrees>2.7625668235123157501220703125</LongitudeDegrees>
            </Position>
            <AltitudeMeters>934.20001220703125</AltitudeMeters>
            <DistanceMeters>18769.725595519</DistanceMeters>
          </Trackpoint>
          <Trackpoint>
            <Time>2021-04-01T09:22:30.000Z</Time>
            <Position>
              <LatitudeDegrees>42.41254479624330997467041015625</LatitudeDegrees>
              <LongitudeDegrees>2.76255919598042964935302734375</LongitudeDegrees>
            </Position>
            <AltitudeMeters>934.4000244140625</AltitudeMeters>
            <DistanceMeters>18770.497596196</DistanceMeters>
          </Trackpoint>
          <Trackpoint>
            <Time>2021-04-01T09:22:33.000Z</Time>
            <Position>
              <LatitudeDegrees>42.412556447088718414306640625</LatitudeDegrees>
              <LongitudeDegrees>2.7625457011163234710693359375</LongitudeDegrees>
            </Position>
            <AltitudeMeters>934.79998779296875</AltitudeMeters>
            <DistanceMeters>18772.202789621</DistanceMeters>
          </Trackpoint>
          <Trackpoint>
            <Time>2021-04-01T09:22:35.000Z</Time>
            <Position>
              <LatitudeDegrees>42.4125601351261138916015625</LatitudeDegrees>
              <LongitudeDegrees>2.76253555901348590850830078125</LongitudeDegrees>
            </Position>
            <AltitudeMeters>935</AltitudeMeters>
            <DistanceMeters>18773.128995463</DistanceMeters>
          </Trackpoint>
          <Trackpoint>
            <Time>2021-04-01T09:22:37.000Z</Time>
            <Position>
              <LatitudeDegrees>42.41256156004965305328369140625</LatitudeDegrees>
              <LongitudeDegrees>2.7625245787203311920166015625</LongitudeDegrees>
            </Position>
            <AltitudeMeters>935.20001220703125</AltitudeMeters>
            <DistanceMeters>18774.040459688</DistanceMeters>
          </Trackpoint>
          <Trackpoint>
            <Time>2021-04-01T09:22:38.000Z</Time>
            <Position>
              <LatitudeDegrees>42.41256156004965305328369140625</LatitudeDegrees>
              <LongitudeDegrees>2.7625245787203311920166015625</LongitudeDegrees>
            </Position>
            <AltitudeMeters>935.20001220703125</AltitudeMeters>
            <DistanceMeters>18774.040459688</DistanceMeters>
          </Trackpoint>
          <Trackpoint>
            <Time>2021-04-01T09:22:41.000Z</Time>
            <Position>
              <LatitudeDegrees>42.41257664747536182403564453125</LatitudeDegrees>
              <LongitudeDegrees>2.76249490678310394287109375</LongitudeDegrees>
            </Position>
            <AltitudeMeters>935.4000244140625</AltitudeMeters>
            <DistanceMeters>18777.000049887</DistanceMeters>
          </Trackpoint>
          <Trackpoint>
            <Time>2021-04-01T09:22:44.000Z</Time>
            <Position>
              <LatitudeDegrees>42.4125968478620052337646484375</LatitudeDegrees>
              <LongitudeDegrees>2.7624835073947906494140625</LongitudeDegrees>
            </Position>
            <AltitudeMeters>935.79998779296875</AltitudeMeters>
            <DistanceMeters>18779.433921319</DistanceMeters>
          </Trackpoint>
          <Trackpoint>
            <Time>2021-04-01T09:22:48.000Z</Time>
            <Position>
              <LatitudeDegrees>42.4126245081424713134765625</LatitudeDegrees>
              <LongitudeDegrees>2.76242726482450962066650390625</LongitudeDegrees>
            </Position>
            <AltitudeMeters>936.20001220703125</AltitudeMeters>
            <DistanceMeters>18784.987905577</DistanceMeters>
          </Trackpoint>
          <Trackpoint>
            <Time>2021-04-01T09:22:54.000Z</Time>
            <Position>
              <LatitudeDegrees>42.41264118812978267669677734375</LatitudeDegrees>
              <LongitudeDegrees>2.76235300116240978240966796875</LongitudeDegrees>
            </Position>
            <AltitudeMeters>937.20001220703125</AltitudeMeters>
            <DistanceMeters>18791.366739675</DistanceMeters>
          </Trackpoint>
          <Trackpoint>
            <Time>2021-04-01T09:22:57.000Z</Time>
            <Position>
              <LatitudeDegrees>42.41264973767101764678955078125</LatitudeDegrees>
              <LongitudeDegrees>2.7623193897306919097900390625</LongitudeDegrees>
            </Position>
            <AltitudeMeters>937.5999755859375</AltitudeMeters>
            <DistanceMeters>18794.287941866</DistanceMeters>
          </Trackpoint>
          <Trackpoint>
            <Time>2021-04-01T09:23:00.000Z</Time>
            <Position>
              <LatitudeDegrees>42.41267052479088306427001953125</LatitudeDegrees>
              <LongitudeDegrees>2.76226800866425037384033203125</LongitudeDegrees>
            </Position>
            <AltitudeMeters>937.79998779296875</AltitudeMeters>
            <DistanceMeters>18799.103462223</DistanceMeters>
          </Trackpoint>
          <Trackpoint>
            <Time>2021-04-01T09:23:03.000Z</Time>
            <Position>
              <LatitudeDegrees>42.41268108598887920379638671875</LatitudeDegrees>
              <LongitudeDegrees>2.76224604807794094085693359375</LongitudeDegrees>
            </Position>
            <AltitudeMeters>938</AltitudeMeters>
            <DistanceMeters>18801.257866849</DistanceMeters>
          </Trackpoint>
          <Trackpoint>
            <Time>2021-04-01T09:23:04.000Z</Time>
            <Position>
              <LatitudeDegrees>42.41268930025398731231689453125</LatitudeDegrees>
              <LongitudeDegrees>2.76223934255540370941162109375</LongitudeDegrees>
            </Position>
            <AltitudeMeters>938.20001220703125</AltitudeMeters>
            <DistanceMeters>18802.324539072</DistanceMeters>
          </Trackpoint>
          <Trackpoint>
            <Time>2021-04-01T09:23:06.000Z</Time>
            <Position>
              <LatitudeDegrees>42.41269164718687534332275390625</LatitudeDegrees>
              <LongitudeDegrees>2.76222668588161468505859375</LongitudeDegrees>
            </Position>
            <AltitudeMeters>938.4000244140625</AltitudeMeters>
            <DistanceMeters>18803.399643618</DistanceMeters>
          </Trackpoint>
          <Trackpoint>
            <Time>2021-04-01T09:23:08.000Z</Time>
            <Position>
              <LatitudeDegrees>42.41268418729305267333984375</LatitudeDegrees>
              <LongitudeDegrees>2.7622151188552379608154296875</LongitudeDegrees>
            </Position>
            <AltitudeMeters>938.79998779296875</AltitudeMeters>
            <DistanceMeters>18804.660315445</DistanceMeters>
          </Trackpoint>
          <Trackpoint>
            <Time>2021-04-01T09:23:10.000Z</Time>
            <Position>
              <LatitudeDegrees>42.4126897193491458892822265625</LatitudeDegrees>
              <LongitudeDegrees>2.7622037194669246673583984375</LongitudeDegrees>
            </Position>
            <AltitudeMeters>939.20001220703125</AltitudeMeters>
            <DistanceMeters>18805.776626579</DistanceMeters>
          </Trackpoint>
          <Trackpoint>
            <Time>2021-04-01T09:23:12.000Z</Time>
            <Position>
              <LatitudeDegrees>42.41269097663462162017822265625</LatitudeDegrees>
              <LongitudeDegrees>2.7621876262128353118896484375</LongitudeDegrees>
            </Position>
            <AltitudeMeters>939.4000244140625</AltitudeMeters>
            <DistanceMeters>18807.103602429</DistanceMeters>
          </Trackpoint>
          <Trackpoint>
            <Time>2021-04-01T09:23:13.000Z</Time>
            <Position>
              <LatitudeDegrees>42.41269667632877826690673828125</LatitudeDegrees>
              <LongitudeDegrees>2.76218242943286895751953125</LongitudeDegrees>
            </Position>
            <AltitudeMeters>939.4000244140625</AltitudeMeters>
            <DistanceMeters>18807.863816144</DistanceMeters>
          </Trackpoint>
          <Trackpoint>
            <Time>2021-04-01T09:23:16.000Z</Time>
            <Position>
              <LatitudeDegrees>42.41272366605699062347412109375</LatitudeDegrees>
              <LongitudeDegrees>2.76215904392302036285400390625</LongitudeDegrees>
            </Position>
            <AltitudeMeters>940</AltitudeMeters>
            <DistanceMeters>18811.429534534</DistanceMeters>
          </Trackpoint>
          <Trackpoint>
            <Time>2021-04-01T09:23:18.000Z</Time>
            <Position>
              <LatitudeDegrees>42.4127353169023990631103515625</LatitudeDegrees>
              <LongitudeDegrees>2.76214647106826305389404296875</LongitudeDegrees>
            </Position>
            <AltitudeMeters>940</AltitudeMeters>
            <DistanceMeters>18813.086381913</DistanceMeters>
          </Trackpoint>
          <Trackpoint>
            <Time>2021-04-01T09:23:21.000Z</Time>
            <Position>
              <LatitudeDegrees>42.4127450399100780487060546875</LatitudeDegrees>
              <LongitudeDegrees>2.76212610304355621337890625</LongitudeDegrees>
            </Position>
            <AltitudeMeters>940.20001220703125</AltitudeMeters>
            <DistanceMeters>18815.07967909</DistanceMeters>
          </Trackpoint>
          <Trackpoint>
            <Time>2021-04-01T09:23:23.000Z</Time>
            <Position>
              <LatitudeDegrees>42.412747554481029510498046875</LatitudeDegrees>
              <LongitudeDegrees>2.762095592916011810302734375</LongitudeDegrees>
            </Position>
            <AltitudeMeters>940.5999755859375</AltitudeMeters>
            <DistanceMeters>18817.602812835</DistanceMeters>
          </Trackpoint>
          <Trackpoint>
            <Time>2021-04-01T09:23:24.000Z</Time>
            <Position>
              <LatitudeDegrees>42.41274445317685604095458984375</LatitudeDegrees>
              <LongitudeDegrees>2.76208209805190563201904296875</LongitudeDegrees>
            </Position>
            <AltitudeMeters>940.79998779296875</AltitudeMeters>
            <DistanceMeters>18818.766647646</DistanceMeters>
          </Trackpoint>
          <Trackpoint>
            <Time>2021-04-01T09:23:28.000Z</Time>
            <Position>
              <LatitudeDegrees>42.41276104934513568878173828125</LatitudeDegrees>
              <LongitudeDegrees>2.7620598860085010528564453125</LongitudeDegrees>
            </Position>
            <AltitudeMeters>941.20001220703125</AltitudeMeters>
            <DistanceMeters>18821.362112349</DistanceMeters>
          </Trackpoint>
          <Trackpoint>
            <Time>2021-04-01T09:23:30.000Z</Time>
            <Position>
              <LatitudeDegrees>42.41277563385665416717529296875</LatitudeDegrees>
              <LongitudeDegrees>2.7620458044111728668212890625</LongitudeDegrees>
            </Position>
            <AltitudeMeters>941.4000244140625</AltitudeMeters>
            <DistanceMeters>18823.355409526</DistanceMeters>
          </Trackpoint>
          <Trackpoint>
            <Time>2021-04-01T09:23:31.000Z</Time>
            <Position>
              <LatitudeDegrees>42.4127819202840328216552734375</LatitudeDegrees>
              <LongitudeDegrees>2.7620374225080013275146484375</LongitudeDegrees>
            </Position>
            <AltitudeMeters>941.5999755859375</AltitudeMeters>
            <DistanceMeters>18824.333769431</DistanceMeters>
          </Trackpoint>
          <Trackpoint>
            <Time>2021-04-01T09:23:33.000Z</Time>
            <Position>
              <LatitudeDegrees>42.41278787143528461456298828125</LatitudeDegrees>
              <LongitudeDegrees>2.76202543638646602630615234375</LongitudeDegrees>
            </Position>
            <AltitudeMeters>941.79998779296875</AltitudeMeters>
            <DistanceMeters>18825.520652713</DistanceMeters>
          </Trackpoint>
          <Trackpoint>
            <Time>2021-04-01T09:23:34.000Z</Time>
            <Position>
              <LatitudeDegrees>42.41279038600623607635498046875</LatitudeDegrees>
              <LongitudeDegrees>2.76201705448329448699951171875</LongitudeDegrees>
            </Position>
            <AltitudeMeters>941.79998779296875</AltitudeMeters>
            <DistanceMeters>18826.26889381</DistanceMeters>
          </Trackpoint>
          <Trackpoint>
            <Time>2021-04-01T09:23:38.000Z</Time>
            <Position>
              <LatitudeDegrees>42.412805892527103424072265625</LatitudeDegrees>
              <LongitudeDegrees>2.76199475862085819244384765625</LongitudeDegrees>
            </Position>
            <AltitudeMeters>942.20001220703125</AltitudeMeters>
            <DistanceMeters>18828.786653462</DistanceMeters>
          </Trackpoint>
          <Trackpoint>
            <Time>2021-04-01T09:23:39.000Z</Time>
            <Position>
              <LatitudeDegrees>42.4128114245831966400146484375</LatitudeDegrees>
              <LongitudeDegrees>2.76198453269898891448974609375</LongitudeDegrees>
            </Position>
            <AltitudeMeters>942.4000244140625</AltitudeMeters>
            <DistanceMeters>18829.827618962</DistanceMeters>
          </Trackpoint>
          <Trackpoint>
            <Time>2021-04-01T09:23:46.000Z</Time>
            <Position>
              <LatitudeDegrees>42.4128162860870361328125</LatitudeDegrees>
              <LongitudeDegrees>2.76191982440650463104248046875</LongitudeDegrees>
            </Position>
            <AltitudeMeters>942.79998779296875</AltitudeMeters>
            <DistanceMeters>18835.172818853</DistanceMeters>
          </Trackpoint>
          <Trackpoint>
            <Time>2021-04-01T09:23:53.000Z</Time>
            <Position>
              <LatitudeDegrees>42.41285375319421291351318359375</LatitudeDegrees>
              <LongitudeDegrees>2.76187020353972911834716796875</LongitudeDegrees>
            </Position>
            <AltitudeMeters>943.79998779296875</AltitudeMeters>
            <DistanceMeters>18841.005168119</DistanceMeters>
          </Trackpoint>
          <Trackpoint>
            <Time>2021-04-01T09:23:55.000Z</Time>
            <Position>
              <LatitudeDegrees>42.412858195602893829345703125</LatitudeDegrees>
              <LongitudeDegrees>2.76184321381151676177978515625</LongitudeDegrees>
            </Position>
            <AltitudeMeters>944.20001220703125</AltitudeMeters>
            <DistanceMeters>18843.277876575</DistanceMeters>
          </Trackpoint>
          <Trackpoint>
            <Time>2021-04-01T09:23:56.000Z</Time>
            <Position>
              <LatitudeDegrees>42.41286481730639934539794921875</LatitudeDegrees>
              <LongitudeDegrees>2.7618325687944889068603515625</LongitudeDegrees>
            </Position>
            <AltitudeMeters>944.20001220703125</AltitudeMeters>
            <DistanceMeters>18844.418197147</DistanceMeters>
          </Trackpoint>
          <Trackpoint>
            <Time>2021-04-01T09:23:59.000Z</Time>
            <Position>
              <LatitudeDegrees>42.4128788150846958160400390625</LatitudeDegrees>
              <LongitudeDegrees>2.76182175613939762115478515625</LongitudeDegrees>
            </Position>
            <AltitudeMeters>945</AltitudeMeters>
            <DistanceMeters>18846.211157608</DistanceMeters>
          </Trackpoint>
          <Trackpoint>
            <Time>2021-04-01T09:24:00.000Z</Time>
            <Position>
              <LatitudeDegrees>42.41288074292242527008056640625</LatitudeDegrees>
              <LongitudeDegrees>2.7618184871971607208251953125</LongitudeDegrees>
            </Position>
            <AltitudeMeters>945.20001220703125</AltitudeMeters>
            <DistanceMeters>18846.540339803</DistanceMeters>
          </Trackpoint>
          <Trackpoint>
            <Time>2021-04-01T09:24:01.000Z</Time>
            <Position>
              <LatitudeDegrees>42.41288191638886928558349609375</LatitudeDegrees>
              <LongitudeDegrees>2.76182167232036590576171875</LongitudeDegrees>
            </Position>
            <AltitudeMeters>945.4000244140625</AltitudeMeters>
            <DistanceMeters>18846.840840659</DistanceMeters>
          </Trackpoint>
          <Trackpoint>
            <Time>2021-04-01T09:24:05.000Z</Time>
            <Position>
              <LatitudeDegrees>42.41290320642292499542236328125</LatitudeDegrees>
              <LongitudeDegrees>2.761816643178462982177734375</LongitudeDegrees>
            </Position>
            <AltitudeMeters>946</AltitudeMeters>
            <DistanceMeters>18849.246724904</DistanceMeters>
          </Trackpoint>
          <Trackpoint>
            <Time>2021-04-01T09:24:07.000Z</Time>
            <Position>
              <LatitudeDegrees>42.41290655918419361114501953125</LatitudeDegrees>
              <LongitudeDegrees>2.76178990490734577178955078125</LongitudeDegrees>
            </Position>
            <AltitudeMeters>946.4000244140625</AltitudeMeters>
            <DistanceMeters>18851.475298897</DistanceMeters>
          </Trackpoint>
          <Trackpoint>
            <Time>2021-04-01T09:24:08.000Z</Time>
            <Position>
              <LatitudeDegrees>42.41291024722158908843994140625</LatitudeDegrees>
              <LongitudeDegrees>2.76178269647061824798583984375</LongitudeDegrees>
            </Position>
            <AltitudeMeters>946.4000244140625</AltitudeMeters>
            <DistanceMeters>18852.192734858</DistanceMeters>
          </Trackpoint>
          <Trackpoint>
            <Time>2021-04-01T09:24:13.000Z</Time>
            <Position>
              <LatitudeDegrees>42.41294167935848236083984375</LatitudeDegrees>
              <LongitudeDegrees>2.76173693127930164337158203125</LongitudeDegrees>
            </Position>
            <AltitudeMeters>947</AltitudeMeters>
            <DistanceMeters>18857.329453983</DistanceMeters>
          </Trackpoint>
          <Trackpoint>
            <Time>2021-04-01T09:24:14.000Z</Time>
            <Position>
              <LatitudeDegrees>42.41294947452843189239501953125</LatitudeDegrees>
              <LongitudeDegrees>2.76172318495810031890869140625</LongitudeDegrees>
            </Position>
            <AltitudeMeters>947.20001220703125</AltitudeMeters>
            <DistanceMeters>18858.754854698</DistanceMeters>
          </Trackpoint>
          <Trackpoint>
            <Time>2021-04-01T09:24:20.000Z</Time>
            <Position>
              <LatitudeDegrees>42.41296322084963321685791015625</LatitudeDegrees>
              <LongitudeDegrees>2.76168395765125751495361328125</LongitudeDegrees>
            </Position>
            <AltitudeMeters>948.20001220703125</AltitudeMeters>
            <DistanceMeters>18862.32310466</DistanceMeters>
          </Trackpoint>
          <Trackpoint>
            <Time>2021-04-01T09:24:23.000Z</Time>
            <Position>
              <LatitudeDegrees>42.41296892054378986358642578125</LatitudeDegrees>
              <LongitudeDegrees>2.76166970841586589813232421875</LongitudeDegrees>
            </Position>
            <AltitudeMeters>948.4000244140625</AltitudeMeters>
            <DistanceMeters>18863.653478661</DistanceMeters>
          </Trackpoint>
          <Trackpoint>
            <Time>2021-04-01T09:24:28.000Z</Time>
            <Position>
              <LatitudeDegrees>42.4129663221538066864013671875</LatitudeDegrees>
              <LongitudeDegrees>2.76163123548030853271484375</LongitudeDegrees>
            </Position>
            <AltitudeMeters>949.20001220703125</AltitudeMeters>
            <DistanceMeters>18866.827996783</DistanceMeters>
          </Trackpoint>
          <Trackpoint>
            <Time>2021-04-01T09:24:34.000Z</Time>
            <Position>
              <LatitudeDegrees>42.4129723571240901947021484375</LatitudeDegrees>
              <LongitudeDegrees>2.76158236898481845855712890625</LongitudeDegrees>
            </Position>
            <AltitudeMeters>950.20001220703125</AltitudeMeters>
            <DistanceMeters>18870.89975566</DistanceMeters>
          </Trackpoint>
          <Trackpoint>
            <Time>2021-04-01T09:24:35.000Z</Time>
            <Position>
              <LatitudeDegrees>42.4129716865718364715576171875</LatitudeDegrees>
              <LongitudeDegrees>2.76157951913774013519287109375</LongitudeDegrees>
            </Position>
            <AltitudeMeters>950.20001220703125</AltitudeMeters>
            <DistanceMeters>18871.151172714</DistanceMeters>
          </Trackpoint>
          <Trackpoint>
            <Time>2021-04-01T09:24:40.000Z</Time>
            <Position>
              <LatitudeDegrees>42.41298836655914783477783203125</LatitudeDegrees>
              <LongitudeDegrees>2.7615355141460895538330078125</LongitudeDegrees>
            </Position>
            <AltitudeMeters>951</AltitudeMeters>
            <DistanceMeters>18875.216272946</DistanceMeters>
          </Trackpoint>
          <Trackpoint>
            <Time>2021-04-01T09:24:42.000Z</Time>
            <Position>
              <LatitudeDegrees>42.41299037821590900421142578125</LatitudeDegrees>
              <LongitudeDegrees>2.76151590049266815185546875</LongitudeDegrees>
            </Position>
            <AltitudeMeters>951.20001220703125</AltitudeMeters>
            <DistanceMeters>18876.842868285</DistanceMeters>
          </Trackpoint>
          <Trackpoint>
            <Time>2021-04-01T09:24:45.000Z</Time>
            <Position>
              <LatitudeDegrees>42.41301133297383785247802734375</LatitudeDegrees>
              <LongitudeDegrees>2.76149016804993152618408203125</LongitudeDegrees>
            </Position>
            <AltitudeMeters>951.5999755859375</AltitudeMeters>
            <DistanceMeters>18879.990247172</DistanceMeters>
          </Trackpoint>
          <Trackpoint>
            <Time>2021-04-01T09:24:50.000Z</Time>
            <Position>
              <LatitudeDegrees>42.41303279064595699310302734375</LatitudeDegrees>
              <LongitudeDegrees>2.7614584006369113922119140625</LongitudeDegrees>
            </Position>
            <AltitudeMeters>952.20001220703125</AltitudeMeters>
            <DistanceMeters>18883.527998711</DistanceMeters>
          </Trackpoint>
          <Trackpoint>
            <Time>2021-04-01T09:24:54.000Z</Time>
            <Position>
              <LatitudeDegrees>42.4130601994693279266357421875</LatitudeDegrees>
              <LongitudeDegrees>2.76143065653741359710693359375</LongitudeDegrees>
            </Position>
            <AltitudeMeters>952.79998779296875</AltitudeMeters>
            <DistanceMeters>18887.337373049</DistanceMeters>
          </Trackpoint>
          <Trackpoint>
            <Time>2021-04-01T09:24:58.000Z</Time>
            <Position>
              <LatitudeDegrees>42.4130819924175739288330078125</LatitudeDegrees>
              <LongitudeDegrees>2.76138924993574619293212890625</LongitudeDegrees>
            </Position>
            <AltitudeMeters>953.4000244140625</AltitudeMeters>
            <DistanceMeters>18891.516388225</DistanceMeters>
          </Trackpoint>
          <Trackpoint>
            <Time>2021-04-01T09:25:03.000Z</Time>
            <Position>
              <LatitudeDegrees>42.41309800185263156890869140625</LatitudeDegrees>
              <LongitudeDegrees>2.7613487653434276580810546875</LongitudeDegrees>
            </Position>
            <AltitudeMeters>954.20001220703125</AltitudeMeters>
            <DistanceMeters>18895.290037726</DistanceMeters>
          </Trackpoint>
          <Trackpoint>
            <Time>2021-04-01T09:25:05.000Z</Time>
            <Position>
              <LatitudeDegrees>42.41310336627066135406494140625</LatitudeDegrees>
              <LongitudeDegrees>2.76134281419217586517333984375</LongitudeDegrees>
            </Position>
            <AltitudeMeters>954.4000244140625</AltitudeMeters>
            <DistanceMeters>18896.05616759</DistanceMeters>
          </Trackpoint>
          <Trackpoint>
            <Time>2021-04-01T09:25:10.000Z</Time>
            <Position>
              <LatitudeDegrees>42.41312272846698760986328125</LatitudeDegrees>
              <LongitudeDegrees>2.76132403872907161712646484375</LongitudeDegrees>
            </Position>
            <AltitudeMeters>955</AltitudeMeters>
            <DistanceMeters>18898.706714604</DistanceMeters>
          </Trackpoint>
          <Trackpoint>
            <Time>2021-04-01T09:25:12.000Z</Time>
            <Position>
              <LatitudeDegrees>42.4131296016275882720947265625</LatitudeDegrees>
              <LongitudeDegrees>2.7613088674843311309814453125</LongitudeDegrees>
            </Position>
            <AltitudeMeters>955.4000244140625</AltitudeMeters>
            <DistanceMeters>18900.172715352</DistanceMeters>
          </Trackpoint>
          <Trackpoint>
            <Time>2021-04-01T09:25:18.000Z</Time>
            <Position>
              <LatitudeDegrees>42.41316832602024078369140625</LatitudeDegrees>
              <LongitudeDegrees>2.76127123273909091949462890625</LongitudeDegrees>
            </Position>
            <AltitudeMeters>956.20001220703125</AltitudeMeters>
            <DistanceMeters>18905.478066262</DistanceMeters>
          </Trackpoint>
          <Trackpoint>
            <Time>2021-04-01T09:25:21.000Z</Time>
            <Position>
              <LatitudeDegrees>42.41319137625396251678466796875</LatitudeDegrees>
              <LongitudeDegrees>2.7612518705427646636962890625</LongitudeDegrees>
            </Position>
            <AltitudeMeters>956.4000244140625</AltitudeMeters>
            <DistanceMeters>18908.496567071</DistanceMeters>
          </Trackpoint>
          <Trackpoint>
            <Time>2021-04-01T09:25:25.000Z</Time>
            <Position>
              <LatitudeDegrees>42.41322926245629787445068359375</LatitudeDegrees>
              <LongitudeDegrees>2.7612220309674739837646484375</LongitudeDegrees>
            </Position>
            <AltitudeMeters>956.79998779296875</AltitudeMeters>
            <DistanceMeters>18913.375427748</DistanceMeters>
          </Trackpoint>
          <Trackpoint>
            <Time>2021-04-01T09:25:31.000Z</Time>
            <Position>
              <LatitudeDegrees>42.4132429249584674835205078125</LatitudeDegrees>
              <LongitudeDegrees>2.76121473871171474456787109375</LongitudeDegrees>
            </Position>
            <AltitudeMeters>957.4000244140625</AltitudeMeters>
            <DistanceMeters>18915.01032916</DistanceMeters>
          </Trackpoint>
          <Trackpoint>
            <Time>2021-04-01T09:25:32.000Z</Time>
            <Position>
              <LatitudeDegrees>42.41324988193809986114501953125</LatitudeDegrees>
              <LongitudeDegrees>2.76120283640921115875244140625</LongitudeDegrees>
            </Position>
            <AltitudeMeters>957.5999755859375</AltitudeMeters>
            <DistanceMeters>18916.260210444</DistanceMeters>
          </Trackpoint>
          <Trackpoint>
            <Time>2021-04-01T09:25:37.000Z</Time>
            <Position>
              <LatitudeDegrees>42.41327536292374134063720703125</LatitudeDegrees>
              <LongitudeDegrees>2.761188335716724395751953125</LongitudeDegrees>
            </Position>
            <AltitudeMeters>958.20001220703125</AltitudeMeters>
            <DistanceMeters>18919.336493934</DistanceMeters>
          </Trackpoint>
          <Trackpoint>
            <Time>2021-04-01T09:25:44.000Z</Time>
            <Position>
              <LatitudeDegrees>42.4133084714412689208984375</LatitudeDegrees>
              <LongitudeDegrees>2.76116042397916316986083984375</LongitudeDegrees>
            </Position>
            <AltitudeMeters>958.5999755859375</AltitudeMeters>
            <DistanceMeters>18923.678705308</DistanceMeters>
          </Trackpoint>
          <Trackpoint>
            <Time>2021-04-01T09:25:51.000Z</Time>
            <Position>
              <LatitudeDegrees>42.41333822719752788543701171875</LatitudeDegrees>
              <LongitudeDegrees>2.76112270541489124298095703125</LongitudeDegrees>
            </Position>
            <AltitudeMeters>959.5999755859375</AltitudeMeters>
            <DistanceMeters>18928.214178177</DistanceMeters>
          </Trackpoint>
          <Trackpoint>
            <Time>2021-04-01T09:25:56.000Z</Time>
            <Position>
              <LatitudeDegrees>42.41337074898183345794677734375</LatitudeDegrees>
              <LongitudeDegrees>2.76109286583960056304931640625</LongitudeDegrees>
            </Position>
            <AltitudeMeters>960.4000244140625</AltitudeMeters>
            <DistanceMeters>18932.586439815</DistanceMeters>
          </Trackpoint>
          <Trackpoint>
            <Time>2021-04-01T09:25:58.000Z</Time>
            <Position>
              <LatitudeDegrees>42.413380555808544158935546875</LatitudeDegrees>
              <LongitudeDegrees>2.7610875852406024932861328125</LongitudeDegrees>
            </Position>
            <AltitudeMeters>960.5999755859375</AltitudeMeters>
            <DistanceMeters>18933.758007832</DistanceMeters>
          </Trackpoint>
          <Trackpoint>
            <Time>2021-04-01T09:26:00.000Z</Time>
            <Position>
              <LatitudeDegrees>42.413391955196857452392578125</LatitudeDegrees>
              <LongitudeDegrees>2.7610807120800018310546875</LongitudeDegrees>
            </Position>
            <AltitudeMeters>960.79998779296875</AltitudeMeters>
            <DistanceMeters>18935.14487707</DistanceMeters>
          </Trackpoint>
          <Trackpoint>
            <Time>2021-04-01T09:26:06.000Z</Time>
            <Position>
              <LatitudeDegrees>42.41343210451304912567138671875</LatitudeDegrees>
              <LongitudeDegrees>2.76105330325663089752197265625</LongitudeDegrees>
            </Position>
            <AltitudeMeters>961.20001220703125</AltitudeMeters>
            <DistanceMeters>18940.149817834</DistanceMeters>
          </Trackpoint>
          <Trackpoint>
            <Time>2021-04-01T09:26:14.000Z</Time>
            <Position>
              <LatitudeDegrees>42.4134937115013599395751953125</LatitudeDegrees>
              <LongitudeDegrees>2.7609933726489543914794921875</LongitudeDegrees>
            </Position>
            <AltitudeMeters>961.79998779296875</AltitudeMeters>
            <DistanceMeters>18948.591699336</DistanceMeters>
          </Trackpoint>
          <Trackpoint>
            <Time>2021-04-01T09:26:16.000Z</Time>
            <Position>
              <LatitudeDegrees>42.413501255214214324951171875</LatitudeDegrees>
              <LongitudeDegrees>2.7609997428953647613525390625</LongitudeDegrees>
            </Position>
            <AltitudeMeters>961.79998779296875</AltitudeMeters>
            <DistanceMeters>18949.583807361</DistanceMeters>
          </Trackpoint>
          <Trackpoint>
            <Time>2021-04-01T09:26:22.000Z</Time>
            <Position>
              <LatitudeDegrees>42.413548864424228668212890625</LatitudeDegrees>
              <LongitudeDegrees>2.76097233407199382781982421875</LongitudeDegrees>
            </Position>
            <AltitudeMeters>962.79998779296875</AltitudeMeters>
            <DistanceMeters>18955.342143987</DistanceMeters>
          </Trackpoint>
          <Trackpoint>
            <Time>2021-04-01T09:26:24.000Z</Time>
            <Position>
              <LatitudeDegrees>42.4135594256222248077392578125</LatitudeDegrees>
              <LongitudeDegrees>2.76096713729202747344970703125</LongitudeDegrees>
            </Position>
            <AltitudeMeters>963</AltitudeMeters>
            <DistanceMeters>18956.588407663</DistanceMeters>
          </Trackpoint>
          <Trackpoint>
            <Time>2021-04-01T09:26:33.000Z</Time>
            <Position>
              <LatitudeDegrees>42.413608543574810028076171875</LatitudeDegrees>
              <LongitudeDegrees>2.76093025691807270050048828125</LongitudeDegrees>
            </Position>
            <AltitudeMeters>964.20001220703125</AltitudeMeters>
            <DistanceMeters>18962.839258866</DistanceMeters>
          </Trackpoint>
          <Trackpoint>
            <Time>2021-04-01T09:26:43.000Z</Time>
            <Position>
              <LatitudeDegrees>42.41366009227931499481201171875</LatitudeDegrees>
              <LongitudeDegrees>2.76087007485330104827880859375</LongitudeDegrees>
            </Position>
            <AltitudeMeters>965</AltitudeMeters>
            <DistanceMeters>18970.414026568</DistanceMeters>
          </Trackpoint>
          <Trackpoint>
            <Time>2021-04-01T09:26:45.000Z</Time>
            <Position>
              <LatitudeDegrees>42.41367769427597522735595703125</LatitudeDegrees>
              <LongitudeDegrees>2.760855071246623992919921875</LongitudeDegrees>
            </Position>
            <AltitudeMeters>965.20001220703125</AltitudeMeters>
            <DistanceMeters>18972.730028599</DistanceMeters>
          </Trackpoint>
          <Trackpoint>
            <Time>2021-04-01T09:26:52.000Z</Time>
            <Position>
              <LatitudeDegrees>42.41372966207563877105712890625</LatitudeDegrees>
              <LongitudeDegrees>2.760792039334774017333984375</LongitudeDegrees>
            </Position>
            <AltitudeMeters>966</AltitudeMeters>
            <DistanceMeters>18980.494356666</DistanceMeters>
          </Trackpoint>
          <Trackpoint>
            <Time>2021-04-01T09:26:54.000Z</Time>
            <Position>
              <LatitudeDegrees>42.4137418158352375030517578125</LatitudeDegrees>
              <LongitudeDegrees>2.76078290306031703948974609375</LongitudeDegrees>
            </Position>
            <AltitudeMeters>966.4000244140625</AltitudeMeters>
            <DistanceMeters>18982.044195475</DistanceMeters>
          </Trackpoint>
          <Trackpoint>
            <Time>2021-04-01T09:27:01.000Z</Time>
            <Position>
              <LatitudeDegrees>42.4137944541871547698974609375</LatitudeDegrees>
              <LongitudeDegrees>2.76071283034980297088623046875</LongitudeDegrees>
            </Position>
            <AltitudeMeters>966.79998779296875</AltitudeMeters>
            <DistanceMeters>18990.258374143</DistanceMeters>
          </Trackpoint>
          <Trackpoint>
            <Time>2021-04-01T09:27:08.000Z</Time>
            <Position>
              <LatitudeDegrees>42.41383477114140987396240234375</LatitudeDegrees>
              <LongitudeDegrees>2.760645188391208648681640625</LongitudeDegrees>
            </Position>
            <AltitudeMeters>967.20001220703125</AltitudeMeters>
            <DistanceMeters>18997.401197948</DistanceMeters>
          </Trackpoint>
          <Trackpoint>
            <Time>2021-04-01T09:27:09.000Z</Time>
            <Position>
              <LatitudeDegrees>42.41384147666394710540771484375</LatitudeDegrees>
              <LongitudeDegrees>2.7606316097080707550048828125</LongitudeDegrees>
            </Position>
            <AltitudeMeters>967.4000244140625</AltitudeMeters>
            <DistanceMeters>18998.745078631</DistanceMeters>
          </Trackpoint>
          <Trackpoint>
            <Time>2021-04-01T09:27:15.000Z</Time>
            <Position>
              <LatitudeDegrees>42.41388975642621517181396484375</LatitudeDegrees>
              <LongitudeDegrees>2.760615013539791107177734375</LongitudeDegrees>
            </Position>
            <AltitudeMeters>968.20001220703125</AltitudeMeters>
            <DistanceMeters>19004.289299064</DistanceMeters>
          </Trackpoint>
          <Trackpoint>
            <Time>2021-04-01T09:27:16.000Z</Time>
            <Position>
              <LatitudeDegrees>42.4138920195400714874267578125</LatitudeDegrees>
              <LongitudeDegrees>2.760610319674015045166015625</LongitudeDegrees>
            </Position>
            <AltitudeMeters>968.4000244140625</AltitudeMeters>
            <DistanceMeters>19004.754832988</DistanceMeters>
          </Trackpoint>
          <Trackpoint>
            <Time>2021-04-01T09:27:22.000Z</Time>
            <Position>
              <LatitudeDegrees>42.4139268882572650909423828125</LatitudeDegrees>
              <LongitudeDegrees>2.76058140210807323455810546875</LongitudeDegrees>
            </Position>
            <AltitudeMeters>969.4000244140625</AltitudeMeters>
            <DistanceMeters>19009.304221432</DistanceMeters>
          </Trackpoint>
          <Trackpoint>
            <Time>2021-04-01T09:27:23.000Z</Time>
            <Position>
              <LatitudeDegrees>42.41393409669399261474609375</LatitudeDegrees>
              <LongitudeDegrees>2.7605749480426311492919921875</LongitudeDegrees>
            </Position>
            <AltitudeMeters>969.4000244140625</AltitudeMeters>
            <DistanceMeters>19010.263944203</DistanceMeters>
          </Trackpoint>
          <Trackpoint>
            <Time>2021-04-01T09:27:26.000Z</Time>
            <Position>
              <LatitudeDegrees>42.413945496082305908203125</LatitudeDegrees>
              <LongitudeDegrees>2.760558687150478363037109375</LongitudeDegrees>
            </Position>
            <AltitudeMeters>969.79998779296875</AltitudeMeters>
            <DistanceMeters>19012.106580559</DistanceMeters>
          </Trackpoint>
          <Trackpoint>
            <Time>2021-04-01T09:27:30.000Z</Time>
            <Position>
              <LatitudeDegrees>42.413963265717029571533203125</LatitudeDegrees>
              <LongitudeDegrees>2.7605169452726840972900390625</LongitudeDegrees>
            </Position>
            <AltitudeMeters>970.20001220703125</AltitudeMeters>
            <DistanceMeters>19016.06704048</DistanceMeters>
          </Trackpoint>
          <Trackpoint>
            <Time>2021-04-01T09:27:31.000Z</Time>
            <Position>
              <LatitudeDegrees>42.4139738269150257110595703125</LatitudeDegrees>
              <LongitudeDegrees>2.7605068869888782501220703125</LongitudeDegrees>
            </Position>
            <AltitudeMeters>970.4000244140625</AltitudeMeters>
            <DistanceMeters>19017.508191958</DistanceMeters>
          </Trackpoint>
          <Trackpoint>
            <Time>2021-04-01T09:27:33.000Z</Time>
            <Position>
              <LatitudeDegrees>42.41398371756076812744140625</LatitudeDegrees>
              <LongitudeDegrees>2.760488949716091156005859375</LongitudeDegrees>
            </Position>
            <AltitudeMeters>970.5999755859375</AltitudeMeters>
            <DistanceMeters>19019.348376369</DistanceMeters>
          </Trackpoint>
          <Trackpoint>
            <Time>2021-04-01T09:27:37.000Z</Time>
            <Position>
              <LatitudeDegrees>42.4140004813671112060546875</LatitudeDegrees>
              <LongitudeDegrees>2.7604535780847072601318359375</LongitudeDegrees>
            </Position>
            <AltitudeMeters>971</AltitudeMeters>
            <DistanceMeters>19022.800868354</DistanceMeters>
          </Trackpoint>
          <Trackpoint>
            <Time>2021-04-01T09:27:41.000Z</Time>
            <Position>
              <LatitudeDegrees>42.41401447914540767669677734375</LatitudeDegrees>
              <LongitudeDegrees>2.76042046956717967987060546875</LongitudeDegrees>
            </Position>
            <AltitudeMeters>971.4000244140625</AltitudeMeters>
            <DistanceMeters>19025.935309799</DistanceMeters>
          </Trackpoint>
          <Trackpoint>
            <Time>2021-04-01T09:27:42.000Z</Time>
            <Position>
              <LatitudeDegrees>42.41402487270534038543701171875</LatitudeDegrees>
              <LongitudeDegrees>2.7604074776172637939453125</LongitudeDegrees>
            </Position>
            <AltitudeMeters>971.5999755859375</AltitudeMeters>
            <DistanceMeters>19027.508281809</DistanceMeters>
          </Trackpoint>
          <Trackpoint>
            <Time>2021-04-01T09:27:49.000Z</Time>
            <Position>
              <LatitudeDegrees>42.41407901979982852935791015625</LatitudeDegrees>
              <LongitudeDegrees>2.76034469716250896453857421875</LongitudeDegrees>
            </Position>
            <AltitudeMeters>972</AltitudeMeters>
            <DistanceMeters>19035.441732056</DistanceMeters>
          </Trackpoint>
          <Trackpoint>
            <Time>2021-04-01T09:27:58.000Z</Time>
            <Position>
              <LatitudeDegrees>42.414116151630878448486328125</LatitudeDegrees>
              <LongitudeDegrees>2.7602490596473217010498046875</LongitudeDegrees>
            </Position>
            <AltitudeMeters>972.20001220703125</AltitudeMeters>
            <DistanceMeters>19044.321519638</DistanceMeters>
          </Trackpoint>
          <Trackpoint>
            <Time>2021-04-01T09:28:01.000Z</Time>
            <Position>
              <LatitudeDegrees>42.41412176750600337982177734375</LatitudeDegrees>
              <LongitudeDegrees>2.76023003272712230682373046875</LongitudeDegrees>
            </Position>
            <AltitudeMeters>972.20001220703125</AltitudeMeters>
            <DistanceMeters>19046.005397307</DistanceMeters>
          </Trackpoint>
          <Trackpoint>
            <Time>2021-04-01T09:28:03.000Z</Time>
            <Position>
              <LatitudeDegrees>42.41413165815174579620361328125</LatitudeDegrees>
              <LongitudeDegrees>2.76021637022495269775390625</LongitudeDegrees>
            </Position>
            <AltitudeMeters>972.20001220703125</AltitudeMeters>
            <DistanceMeters>19047.578369317</DistanceMeters>
          </Trackpoint>
          <Trackpoint>
            <Time>2021-04-01T09:28:05.000Z</Time>
            <Position>
              <LatitudeDegrees>42.414139620959758758544921875</LatitudeDegrees>
              <LongitudeDegrees>2.7601964212954044342041015625</LongitudeDegrees>
            </Position>
            <AltitudeMeters>972.20001220703125</AltitudeMeters>
            <DistanceMeters>19049.445348028</DistanceMeters>
          </Trackpoint>
          <Trackpoint>
            <Time>2021-04-01T09:28:10.000Z</Time>
            <Position>
              <LatitudeDegrees>42.41415663622319698333740234375</LatitudeDegrees>
              <LongitudeDegrees>2.76016012765467166900634765625</LongitudeDegrees>
            </Position>
            <AltitudeMeters>972.5999755859375</AltitudeMeters>
            <DistanceMeters>19052.977990898</DistanceMeters>
          </Trackpoint>
          <Trackpoint>
            <Time>2021-04-01T09:28:14.000Z</Time>
            <Position>
              <LatitudeDegrees>42.414180524647235870361328125</LatitudeDegrees>
              <LongitudeDegrees>2.76012022979557514190673828125</LongitudeDegrees>
            </Position>
            <AltitudeMeters>973</AltitudeMeters>
            <DistanceMeters>19057.20000119</DistanceMeters>
          </Trackpoint>
          <Trackpoint>
            <Time>2021-04-01T09:28:17.000Z</Time>
            <Position>
              <LatitudeDegrees>42.41419334895908832550048828125</LatitudeDegrees>
              <LongitudeDegrees>2.76010128669440746307373046875</LongitudeDegrees>
            </Position>
            <AltitudeMeters>973.20001220703125</AltitudeMeters>
            <DistanceMeters>19059.312075469</DistanceMeters>
          </Trackpoint>
          <Trackpoint>
            <Time>2021-04-01T09:28:18.000Z</Time>
            <Position>
              <LatitudeDegrees>42.41419938392937183380126953125</LatitudeDegrees>
              <LongitudeDegrees>2.76009039022028446197509765625</LongitudeDegrees>
            </Position>
            <AltitudeMeters>973.4000244140625</AltitudeMeters>
            <DistanceMeters>19060.432423909</DistanceMeters>
          </Trackpoint>
          <Trackpoint>
            <Time>2021-04-01T09:28:21.000Z</Time>
            <Position>
              <LatitudeDegrees>42.41421044804155826568603515625</LatitudeDegrees>
              <LongitudeDegrees>2.76006490923464298248291015625</LongitudeDegrees>
            </Position>
            <AltitudeMeters>973.79998779296875</AltitudeMeters>
            <DistanceMeters>19062.862582339</DistanceMeters>
          </Trackpoint>
          <Trackpoint>
            <Time>2021-04-01T09:28:23.000Z</Time>
            <Position>
              <LatitudeDegrees>42.414218075573444366455078125</LatitudeDegrees>
              <LongitudeDegrees>2.76004931889474391937255859375</LongitudeDegrees>
            </Position>
            <AltitudeMeters>974</AltitudeMeters>
            <DistanceMeters>19064.400724084</DistanceMeters>
          </Trackpoint>
          <Trackpoint>
            <Time>2021-04-01T09:28:26.000Z</Time>
            <Position>
              <LatitudeDegrees>42.4142242781817913055419921875</LatitudeDegrees>
              <LongitudeDegrees>2.760022915899753570556640625</LongitudeDegrees>
            </Position>
            <AltitudeMeters>974.20001220703125</AltitudeMeters>
            <DistanceMeters>19066.677402339</DistanceMeters>
          </Trackpoint>
          <Trackpoint>
            <Time>2021-04-01T09:28:30.000Z</Time>
            <Position>
              <LatitudeDegrees>42.414235509932041168212890625</LatitudeDegrees>
              <LongitudeDegrees>2.75998662225902080535888671875</LongitudeDegrees>
            </Position>
            <AltitudeMeters>974.79998779296875</AltitudeMeters>
            <DistanceMeters>19069.911104323</DistanceMeters>
          </Trackpoint>
          <Trackpoint>
            <Time>2021-04-01T09:28:32.000Z</Time>
            <Position>
              <LatitudeDegrees>42.41424732841551303863525390625</LatitudeDegrees>
              <LongitudeDegrees>2.759957201778888702392578125</LongitudeDegrees>
            </Position>
            <AltitudeMeters>975</AltitudeMeters>
            <DistanceMeters>19072.661959474</DistanceMeters>
          </Trackpoint>
          <Trackpoint>
            <Time>2021-04-01T09:28:41.000Z</Time>
            <Position>
              <LatitudeDegrees>42.41427515633404254913330078125</LatitudeDegrees>
              <LongitudeDegrees>2.7598725445568561553955078125</LongitudeDegrees>
            </Position>
            <AltitudeMeters>976</AltitudeMeters>
            <DistanceMeters>19080.275965697</DistanceMeters>
          </Trackpoint>
          <Trackpoint>
            <Time>2021-04-01T09:28:42.000Z</Time>
            <Position>
              <LatitudeDegrees>42.4142749048769474029541015625</LatitudeDegrees>
              <LongitudeDegrees>2.75986055843532085418701171875</LongitudeDegrees>
            </Position>
            <AltitudeMeters>976.20001220703125</AltitudeMeters>
            <DistanceMeters>19081.263512282</DistanceMeters>
          </Trackpoint>
          <Trackpoint>
            <Time>2021-04-01T09:28:45.000Z</Time>
            <Position>
              <LatitudeDegrees>42.41427448578178882598876953125</LatitudeDegrees>
              <LongitudeDegrees>2.75980465114116668701171875</LongitudeDegrees>
            </Position>
            <AltitudeMeters>976.20001220703125</AltitudeMeters>
            <DistanceMeters>19085.858326612</DistanceMeters>
          </Trackpoint>
          <Trackpoint>
            <Time>2021-04-01T09:28:48.000Z</Time>
            <Position>
              <LatitudeDegrees>42.414273060858249664306640625</LatitudeDegrees>
              <LongitudeDegrees>2.7597744762897491455078125</LongitudeDegrees>
            </Position>
            <AltitudeMeters>976.20001220703125</AltitudeMeters>
            <DistanceMeters>19088.341780298</DistanceMeters>
          </Trackpoint>
          <Trackpoint>
            <Time>2021-04-01T09:28:49.000Z</Time>
            <Position>
              <LatitudeDegrees>42.4142749048769474029541015625</LatitudeDegrees>
              <LongitudeDegrees>2.75976483710110187530517578125</LongitudeDegrees>
            </Position>
            <AltitudeMeters>976.20001220703125</AltitudeMeters>
            <DistanceMeters>19089.153688901</DistanceMeters>
          </Trackpoint>
          <Trackpoint>
            <Time>2021-04-01T09:28:57.000Z</Time>
            <Position>
              <LatitudeDegrees>42.41424581967294216156005859375</LatitudeDegrees>
              <LongitudeDegrees>2.75968671776354312896728515625</LongitudeDegrees>
            </Position>
            <AltitudeMeters>977</AltitudeMeters>
            <DistanceMeters>19096.343136555</DistanceMeters>
          </Trackpoint>
          <Trackpoint>
            <Time>2021-04-01T09:28:58.000Z</Time>
            <Position>
              <LatitudeDegrees>42.4142366833984851837158203125</LatitudeDegrees>
              <LongitudeDegrees>2.75968068279325962066650390625</LongitudeDegrees>
            </Position>
            <AltitudeMeters>977.20001220703125</AltitudeMeters>
            <DistanceMeters>19097.475510546</DistanceMeters>
          </Trackpoint>
          <Trackpoint>
            <Time>2021-04-01T09:29:05.000Z</Time>
            <Position>
              <LatitudeDegrees>42.41421178914606571197509765625</LatitudeDegrees>
              <LongitudeDegrees>2.75961698032915592193603515625</LongitudeDegrees>
            </Position>
            <AltitudeMeters>977.79998779296875</AltitudeMeters>
            <DistanceMeters>19103.397741283</DistanceMeters>
          </Trackpoint>
          <Trackpoint>
            <Time>2021-04-01T09:29:08.000Z</Time>
            <Position>
              <LatitudeDegrees>42.4141977913677692413330078125</LatitudeDegrees>
              <LongitudeDegrees>2.75959074497222900390625</LongitudeDegrees>
            </Position>
            <AltitudeMeters>978</AltitudeMeters>
            <DistanceMeters>19106.06018565</DistanceMeters>
          </Trackpoint>
          <Trackpoint>
            <Time>2021-04-01T09:29:09.000Z</Time>
            <Position>
              <LatitudeDegrees>42.414197288453578948974609375</LatitudeDegrees>
              <LongitudeDegrees>2.7595795132219791412353515625</LongitudeDegrees>
            </Position>
            <AltitudeMeters>978.20001220703125</AltitudeMeters>
            <DistanceMeters>19106.986391493</DistanceMeters>
          </Trackpoint>
          <Trackpoint>
            <Time>2021-04-01T09:29:12.000Z</Time>
            <Position>
              <LatitudeDegrees>42.414185218513011932373046875</LatitudeDegrees>
              <LongitudeDegrees>2.75955663062632083892822265625</LongitudeDegrees>
            </Position>
            <AltitudeMeters>978.4000244140625</AltitudeMeters>
            <DistanceMeters>19109.294582365</DistanceMeters>
          </Trackpoint>
          <Trackpoint>
            <Time>2021-04-01T09:29:13.000Z</Time>
            <Position>
              <LatitudeDegrees>42.41417909972369670867919921875</LatitudeDegrees>
              <LongitudeDegrees>2.7595463208854198455810546875</LongitudeDegrees>
            </Position>
            <AltitudeMeters>978.5999755859375</AltitudeMeters>
            <DistanceMeters>19110.386356192</DistanceMeters>
          </Trackpoint>
          <Trackpoint>
            <Time>2021-04-01T09:29:15.000Z</Time>
            <Position>
              <LatitudeDegrees>42.41417256183922290802001953125</LatitudeDegrees>
              <LongitudeDegrees>2.75951924733817577362060546875</LongitudeDegrees>
            </Position>
            <AltitudeMeters>978.79998779296875</AltitudeMeters>
            <DistanceMeters>19112.72563521</DistanceMeters>
          </Trackpoint>
          <Trackpoint>
            <Time>2021-04-01T09:29:19.000Z</Time>
            <Position>
              <LatitudeDegrees>42.41415563039481639862060546875</LatitudeDegrees>
              <LongitudeDegrees>2.759489826858043670654296875</LongitudeDegrees>
            </Position>
            <AltitudeMeters>979</AltitudeMeters>
            <DistanceMeters>19115.790154667</DistanceMeters>
          </Trackpoint>
          <Trackpoint>
            <Time>2021-04-01T09:29:25.000Z</Time>
            <Position>
              <LatitudeDegrees>42.4141210131347179412841796875</LatitudeDegrees>
              <LongitudeDegrees>2.75939117185771465301513671875</LongitudeDegrees>
            </Position>
            <AltitudeMeters>979.20001220703125</AltitudeMeters>
            <DistanceMeters>19124.766030225</DistanceMeters>
          </Trackpoint>
          <Trackpoint>
            <Time>2021-04-01T09:29:27.000Z</Time>
            <Position>
              <LatitudeDegrees>42.41412185132503509521484375</LatitudeDegrees>
              <LongitudeDegrees>2.75935471057891845703125</LongitudeDegrees>
            </Position>
            <AltitudeMeters>979.4000244140625</AltitudeMeters>
            <DistanceMeters>19127.76351685</DistanceMeters>
          </Trackpoint>
          <Trackpoint>
            <Time>2021-04-01T09:29:33.000Z</Time>
            <Position>
              <LatitudeDegrees>42.41410844027996063232421875</LatitudeDegrees>
              <LongitudeDegrees>2.7593015693128108978271484375</LongitudeDegrees>
            </Position>
            <AltitudeMeters>980</AltitudeMeters>
            <DistanceMeters>19132.378920443</DistanceMeters>
          </Trackpoint>
          <Trackpoint>
            <Time>2021-04-01T09:29:38.000Z</Time>
            <Position>
              <LatitudeDegrees>42.41409729234874248504638671875</LatitudeDegrees>
              <LongitudeDegrees>2.75926561094820499420166015625</LongitudeDegrees>
            </Position>
            <AltitudeMeters>980.4000244140625</AltitudeMeters>
            <DistanceMeters>19135.584575913</DistanceMeters>
          </Trackpoint>
          <Trackpoint>
            <Time>2021-04-01T09:29:40.000Z</Time>
            <Position>
              <LatitudeDegrees>42.41408832371234893798828125</LatitudeDegrees>
              <LongitudeDegrees>2.75925370864570140838623046875</LongitudeDegrees>
            </Position>
            <AltitudeMeters>980.5999755859375</AltitudeMeters>
            <DistanceMeters>19136.981177686</DistanceMeters>
          </Trackpoint>
          <Trackpoint>
            <Time>2021-04-01T09:29:46.000Z</Time>
            <Position>
              <LatitudeDegrees>42.4140707217156887054443359375</LatitudeDegrees>
              <LongitudeDegrees>2.75921146385371685028076171875</LongitudeDegrees>
            </Position>
            <AltitudeMeters>981.4000244140625</AltitudeMeters>
            <DistanceMeters>19140.966639324</DistanceMeters>
          </Trackpoint>
          <Trackpoint>
            <Time>2021-04-01T09:29:47.000Z</Time>
            <Position>
              <LatitudeDegrees>42.414067871868610382080078125</LatitudeDegrees>
              <LongitudeDegrees>2.759202830493450164794921875</LongitudeDegrees>
            </Position>
            <AltitudeMeters>981.4000244140625</AltitudeMeters>
            <DistanceMeters>19141.744466504</DistanceMeters>
          </Trackpoint>
          <Trackpoint>
            <Time>2021-04-01T09:29:55.000Z</Time>
            <Position>
              <LatitudeDegrees>42.41406158544123172760009765625</LatitudeDegrees>
              <LongitudeDegrees>2.7591339312493801116943359375</LongitudeDegrees>
            </Position>
            <AltitudeMeters>982.5999755859375</AltitudeMeters>
            <DistanceMeters>19147.450027438</DistanceMeters>
          </Trackpoint>
          <Trackpoint>
            <Time>2021-04-01T09:30:03.000Z</Time>
            <Position>
              <LatitudeDegrees>42.41406150162220001220703125</LatitudeDegrees>
              <LongitudeDegrees>2.7590735815465450286865234375</LongitudeDegrees>
            </Position>
            <AltitudeMeters>983.4000244140625</AltitudeMeters>
            <DistanceMeters>19152.407836237</DistanceMeters>
          </Trackpoint>
          <Trackpoint>
            <Time>2021-04-01T09:30:05.000Z</Time>
            <Position>
              <LatitudeDegrees>42.41405990906059741973876953125</LatitudeDegrees>
              <LongitudeDegrees>2.7590407244861125946044921875</LongitudeDegrees>
            </Position>
            <AltitudeMeters>983.5999755859375</AltitudeMeters>
            <DistanceMeters>19155.11234394</DistanceMeters>
          </Trackpoint>
          <Trackpoint>
            <Time>2021-04-01T09:30:10.000Z</Time>
            <Position>
              <LatitudeDegrees>42.41404951550066471099853515625</LatitudeDegrees>
              <LongitudeDegrees>2.758937291800975799560546875</LongitudeDegrees>
            </Position>
            <AltitudeMeters>984.20001220703125</AltitudeMeters>
            <DistanceMeters>19163.689524875</DistanceMeters>
          </Trackpoint>
          <Trackpoint>
            <Time>2021-04-01T09:30:17.000Z</Time>
            <Position>
              <LatitudeDegrees>42.41406007669866085052490234375</LatitudeDegrees>
              <LongitudeDegrees>2.75886897929012775421142578125</LongitudeDegrees>
            </Position>
            <AltitudeMeters>984.5999755859375</AltitudeMeters>
            <DistanceMeters>19169.424290643</DistanceMeters>
          </Trackpoint>
          <Trackpoint>
            <Time>2021-04-01T09:30:19.000Z</Time>
            <Position>
              <LatitudeDegrees>42.4140596576035022735595703125</LatitudeDegrees>
              <LongitudeDegrees>2.758834697306156158447265625</LongitudeDegrees>
            </Position>
            <AltitudeMeters>984.79998779296875</AltitudeMeters>
            <DistanceMeters>19172.243238544</DistanceMeters>
          </Trackpoint>
          <Trackpoint>
            <Time>2021-04-01T09:30:25.000Z</Time>
            <Position>
              <LatitudeDegrees>42.414070554077625274658203125</LatitudeDegrees>
              <LongitudeDegrees>2.75874677114188671112060546875</LongitudeDegrees>
            </Position>
            <AltitudeMeters>985.79998779296875</AltitudeMeters>
            <DistanceMeters>19179.569545553</DistanceMeters>
          </Trackpoint>
          <Trackpoint>
            <Time>2021-04-01T09:30:26.000Z</Time>
            <Position>
              <LatitudeDegrees>42.41407549940049648284912109375</LatitudeDegrees>
              <LongitudeDegrees>2.758735120296478271484375</LongitudeDegrees>
            </Position>
            <AltitudeMeters>985.79998779296875</AltitudeMeters>
            <DistanceMeters>19180.677737953</DistanceMeters>
          </Trackpoint>
          <Trackpoint>
            <Time>2021-04-01T09:30:32.000Z</Time>
            <Position>
              <LatitudeDegrees>42.41407063789665699005126953125</LatitudeDegrees>
              <LongitudeDegrees>2.758671753108501434326171875</LongitudeDegrees>
            </Position>
            <AltitudeMeters>986.5999755859375</AltitudeMeters>
            <DistanceMeters>19185.913701292</DistanceMeters>
          </Trackpoint>
          <Trackpoint>
            <Time>2021-04-01T09:30:35.000Z</Time>
            <Position>
              <LatitudeDegrees>42.41408321075141429901123046875</LatitudeDegrees>
              <LongitudeDegrees>2.7586350403726100921630859375</LongitudeDegrees>
            </Position>
            <AltitudeMeters>987</AltitudeMeters>
            <DistanceMeters>19189.238278493</DistanceMeters>
          </Trackpoint>
          <Trackpoint>
            <Time>2021-04-01T09:30:38.000Z</Time>
            <Position>
              <LatitudeDegrees>42.41408321075141429901123046875</LatitudeDegrees>
              <LongitudeDegrees>2.7586038596928119659423828125</LongitudeDegrees>
            </Position>
            <AltitudeMeters>987.4000244140625</AltitudeMeters>
            <DistanceMeters>19191.802239423</DistanceMeters>
          </Trackpoint>
          <Trackpoint>
            <Time>2021-04-01T09:30:42.000Z</Time>
            <Position>
              <LatitudeDegrees>42.4141045846045017242431640625</LatitudeDegrees>
              <LongitudeDegrees>2.758562453091144561767578125</LongitudeDegrees>
            </Position>
            <AltitudeMeters>988</AltitudeMeters>
            <DistanceMeters>19195.954156562</DistanceMeters>
          </Trackpoint>
          <Trackpoint>
            <Time>2021-04-01T09:30:45.000Z</Time>
            <Position>
              <LatitudeDegrees>42.41412914358079433441162109375</LatitudeDegrees>
              <LongitudeDegrees>2.75851693935692310333251953125</LongitudeDegrees>
            </Position>
            <AltitudeMeters>988.5999755859375</AltitudeMeters>
            <DistanceMeters>19200.586160624</DistanceMeters>
          </Trackpoint>
          <Trackpoint>
            <Time>2021-04-01T09:30:50.000Z</Time>
            <Position>
              <LatitudeDegrees>42.41416099481284618377685546875</LatitudeDegrees>
              <LongitudeDegrees>2.75845642201602458953857421875</LongitudeDegrees>
            </Position>
            <AltitudeMeters>988.79998779296875</AltitudeMeters>
            <DistanceMeters>19206.69305965</DistanceMeters>
          </Trackpoint>
          <Trackpoint>
            <Time>2021-04-01T09:30:54.000Z</Time>
            <Position>
              <LatitudeDegrees>42.41416786797344684600830078125</LatitudeDegrees>
              <LongitudeDegrees>2.7584301866590976715087890625</LongitudeDegrees>
            </Position>
            <AltitudeMeters>988.79998779296875</AltitudeMeters>
            <DistanceMeters>19208.981605988</DistanceMeters>
          </Trackpoint>
          <Trackpoint>
            <Time>2021-04-01T09:30:56.000Z</Time>
            <Position>
              <LatitudeDegrees>42.41417390294373035430908203125</LatitudeDegrees>
              <LongitudeDegrees>2.75841057300567626953125</LongitudeDegrees>
            </Position>
            <AltitudeMeters>989.20001220703125</AltitudeMeters>
            <DistanceMeters>19210.728650875</DistanceMeters>
          </Trackpoint>
          <Trackpoint>
            <Time>2021-04-01T09:31:01.000Z</Time>
            <Position>
              <LatitudeDegrees>42.41418496705591678619384765625</LatitudeDegrees>
              <LongitudeDegrees>2.758364975452423095703125</LongitudeDegrees>
            </Position>
            <AltitudeMeters>989.4000244140625</AltitudeMeters>
            <DistanceMeters>19214.673118103</DistanceMeters>
          </Trackpoint>
          <Trackpoint>
            <Time>2021-04-01T09:31:06.000Z</Time>
            <Position>
              <LatitudeDegrees>42.41420893929898738861083984375</LatitudeDegrees>
              <LongitudeDegrees>2.75832180865108966827392578125</LongitudeDegrees>
            </Position>
            <AltitudeMeters>990</AltitudeMeters>
            <DistanceMeters>19219.111994853</DistanceMeters>
          </Trackpoint>
          <Trackpoint>
            <Time>2021-04-01T09:31:08.000Z</Time>
            <Position>
              <LatitudeDegrees>42.41422503255307674407958984375</LatitudeDegrees>
              <LongitudeDegrees>2.7582950703799724578857421875</LongitudeDegrees>
            </Position>
            <AltitudeMeters>990.20001220703125</AltitudeMeters>
            <DistanceMeters>19221.946914258</DistanceMeters>
          </Trackpoint>
          <Trackpoint>
            <Time>2021-04-01T09:31:11.000Z</Time>
            <Position>
              <LatitudeDegrees>42.41423584520816802978515625</LatitudeDegrees>
              <LongitudeDegrees>2.7582783065736293792724609375</LongitudeDegrees>
            </Position>
            <AltitudeMeters>990.4000244140625</AltitudeMeters>
            <DistanceMeters>19223.774789605</DistanceMeters>
          </Trackpoint>
          <Trackpoint>
            <Time>2021-04-01T09:31:15.000Z</Time>
            <Position>
              <LatitudeDegrees>42.41425822488963603973388671875</LatitudeDegrees>
              <LongitudeDegrees>2.75825567543506622314453125</LongitudeDegrees>
            </Position>
            <AltitudeMeters>990.79998779296875</AltitudeMeters>
            <DistanceMeters>19226.88319463</DistanceMeters>
          </Trackpoint>
          <Trackpoint>
            <Time>2021-04-01T09:31:16.000Z</Time>
            <Position>
              <LatitudeDegrees>42.41426258347928524017333984375</LatitudeDegrees>
              <LongitudeDegrees>2.7582467906177043914794921875</LongitudeDegrees>
            </Position>
            <AltitudeMeters>990.79998779296875</AltitudeMeters>
            <DistanceMeters>19227.754128853</DistanceMeters>
          </Trackpoint>
          <Trackpoint>
            <Time>2021-04-01T09:31:18.000Z</Time>
            <Position>
              <LatitudeDegrees>42.4142594821751117706298828125</LatitudeDegrees>
              <LongitudeDegrees>2.7582323737442493438720703125</LongitudeDegrees>
            </Position>
            <AltitudeMeters>991</AltitudeMeters>
            <DistanceMeters>19228.985815843</DistanceMeters>
          </Trackpoint>
          <Trackpoint>
            <Time>2021-04-01T09:31:21.000Z</Time>
            <Position>
              <LatitudeDegrees>42.41427582688629627227783203125</LatitudeDegrees>
              <LongitudeDegrees>2.75821602903306484222412109375</LongitudeDegrees>
            </Position>
            <AltitudeMeters>991</AltitudeMeters>
            <DistanceMeters>19231.244575058</DistanceMeters>
          </Trackpoint>
          <Trackpoint>
            <Time>2021-04-01T09:31:22.000Z</Time>
            <Position>
              <LatitudeDegrees>42.41428923793137073516845703125</LatitudeDegrees>
              <LongitudeDegrees>2.75821217335760593414306640625</LongitudeDegrees>
            </Position>
            <AltitudeMeters>991.20001220703125</AltitudeMeters>
            <DistanceMeters>19232.765002488</DistanceMeters>
          </Trackpoint>
          <Trackpoint>
            <Time>2021-04-01T09:31:24.000Z</Time>
            <Position>
              <LatitudeDegrees>42.414304576814174652099609375</LatitudeDegrees>
              <LongitudeDegrees>2.7581998519599437713623046875</LongitudeDegrees>
            </Position>
            <AltitudeMeters>991.20001220703125</AltitudeMeters>
            <DistanceMeters>19234.749218537</DistanceMeters>
          </Trackpoint>
          <Trackpoint>
            <Time>2021-04-01T09:31:26.000Z</Time>
            <Position>
              <LatitudeDegrees>42.41430516354739665985107421875</LatitudeDegrees>
              <LongitudeDegrees>2.75818853639066219329833984375</LongitudeDegrees>
            </Position>
            <AltitudeMeters>991.20001220703125</AltitudeMeters>
            <DistanceMeters>19235.680286386</DistanceMeters>
          </Trackpoint>
          <Trackpoint>
            <Time>2021-04-01T09:31:30.000Z</Time>
            <Position>
              <LatitudeDegrees>42.41431002505123615264892578125</LatitudeDegrees>
              <LongitudeDegrees>2.75816045701503753662109375</LongitudeDegrees>
            </Position>
            <AltitudeMeters>991.5999755859375</AltitudeMeters>
            <DistanceMeters>19238.050245784</DistanceMeters>
          </Trackpoint>
          <Trackpoint>
            <Time>2021-04-01T09:31:35.000Z</Time>
            <Position>
              <LatitudeDegrees>42.4143349193036556243896484375</LatitudeDegrees>
              <LongitudeDegrees>2.7581146918237209320068359375</LongitudeDegrees>
            </Position>
            <AltitudeMeters>991.79998779296875</AltitudeMeters>
            <DistanceMeters>19242.721077047</DistanceMeters>
          </Trackpoint>
          <Trackpoint>
            <Time>2021-04-01T09:31:38.000Z</Time>
            <Position>
              <LatitudeDegrees>42.41434556432068347930908203125</LatitudeDegrees>
              <LongitudeDegrees>2.75808225385844707489013671875</LongitudeDegrees>
            </Position>
            <AltitudeMeters>992</AltitudeMeters>
            <DistanceMeters>19245.637638723</DistanceMeters>
          </Trackpoint>
          <Trackpoint>
            <Time>2021-04-01T09:31:45.000Z</Time>
            <Position>
              <LatitudeDegrees>42.41436190903186798095703125</LatitudeDegrees>
              <LongitudeDegrees>2.75801821611821651458740234375</LongitudeDegrees>
            </Position>
            <AltitudeMeters>992.20001220703125</AltitudeMeters>
            <DistanceMeters>19251.206236617</DistanceMeters>
          </Trackpoint>
          <Trackpoint>
            <Time>2021-04-01T09:31:50.000Z</Time>
            <Position>
              <LatitudeDegrees>42.41438202559947967529296875</LatitudeDegrees>
              <LongitudeDegrees>2.75794898159801959991455078125</LongitudeDegrees>
            </Position>
            <AltitudeMeters>992.20001220703125</AltitudeMeters>
            <DistanceMeters>19257.320524514</DistanceMeters>
          </Trackpoint>
          <Trackpoint>
            <Time>2021-04-01T09:31:52.000Z</Time>
            <Position>
              <LatitudeDegrees>42.414383701980113983154296875</LatitudeDegrees>
              <LongitudeDegrees>2.75794093497097492218017578125</LongitudeDegrees>
            </Position>
            <AltitudeMeters>992.4000244140625</AltitudeMeters>
            <DistanceMeters>19258.012329437</DistanceMeters>
          </Trackpoint>
          <Trackpoint>
            <Time>2021-04-01T09:32:00.000Z</Time>
            <Position>
              <LatitudeDegrees>42.4144227616488933563232421875</LatitudeDegrees>
              <LongitudeDegrees>2.75785141624510288238525390625</LongitudeDegrees>
            </Position>
            <AltitudeMeters>993</AltitudeMeters>
            <DistanceMeters>19266.556282735</DistanceMeters>
          </Trackpoint>
          <Trackpoint>
            <Time>2021-04-01T09:32:03.000Z</Time>
            <Position>
              <LatitudeDegrees>42.41443340666592121124267578125</LatitudeDegrees>
              <LongitudeDegrees>2.75782811455428600311279296875</LongitudeDegrees>
            </Position>
            <AltitudeMeters>993.20001220703125</AltitudeMeters>
            <DistanceMeters>19268.809037263</DistanceMeters>
          </Trackpoint>
          <Trackpoint>
            <Time>2021-04-01T09:32:07.000Z</Time>
            <Position>
              <LatitudeDegrees>42.41444983519613742828369140625</LatitudeDegrees>
              <LongitudeDegrees>2.757804729044437408447265625</LongitudeDegrees>
            </Position>
            <AltitudeMeters>993.4000244140625</AltitudeMeters>
            <DistanceMeters>19271.462988963</DistanceMeters>
          </Trackpoint>
          <Trackpoint>
            <Time>2021-04-01T09:32:13.000Z</Time>
            <Position>
              <LatitudeDegrees>42.4144888110458850860595703125</LatitudeDegrees>
              <LongitudeDegrees>2.7577240951359272003173828125</LongitudeDegrees>
            </Position>
            <AltitudeMeters>994.20001220703125</AltitudeMeters>
            <DistanceMeters>19279.382768694</DistanceMeters>
          </Trackpoint>
          <Trackpoint>
            <Time>2021-04-01T09:32:16.000Z</Time>
            <Position>
              <LatitudeDegrees>42.4144971929490566253662109375</LatitudeDegrees>
              <LongitudeDegrees>2.757692076265811920166015625</LongitudeDegrees>
            </Position>
            <AltitudeMeters>994.5999755859375</AltitudeMeters>
            <DistanceMeters>19282.172737492</DistanceMeters>
          </Trackpoint>
          <Trackpoint>
            <Time>2021-04-01T09:32:22.000Z</Time>
            <Position>
              <LatitudeDegrees>42.41453130729496479034423828125</LatitudeDegrees>
              <LongitudeDegrees>2.75762493722140789031982421875</LongitudeDegrees>
            </Position>
            <AltitudeMeters>995.4000244140625</AltitudeMeters>
            <DistanceMeters>19288.870604299</DistanceMeters>
          </Trackpoint>
          <Trackpoint>
            <Time>2021-04-01T09:32:24.000Z</Time>
            <Position>
              <LatitudeDegrees>42.41453516297042369842529296875</LatitudeDegrees>
              <LongitudeDegrees>2.757621668279170989990234375</LongitudeDegrees>
            </Position>
            <AltitudeMeters>995.5999755859375</AltitudeMeters>
            <DistanceMeters>19289.373438408</DistanceMeters>
          </Trackpoint>
          <Trackpoint>
            <Time>2021-04-01T09:32:28.000Z</Time>
            <Position>
              <LatitudeDegrees>42.41453868336975574493408203125</LatitudeDegrees>
              <LongitudeDegrees>2.7575748972594738006591796875</LongitudeDegrees>
            </Position>
            <AltitudeMeters>996</AltitudeMeters>
            <DistanceMeters>19293.238117752</DistanceMeters>
          </Trackpoint>
          <Trackpoint>
            <Time>2021-04-01T09:32:33.000Z</Time>
            <Position>
              <LatitudeDegrees>42.4145739711821079254150390625</LatitudeDegrees>
              <LongitudeDegrees>2.75752150453627109527587890625</LongitudeDegrees>
            </Position>
            <AltitudeMeters>996.4000244140625</AltitudeMeters>
            <DistanceMeters>19299.126707868</DistanceMeters>
          </Trackpoint>
          <Trackpoint>
            <Time>2021-04-01T09:32:35.000Z</Time>
            <Position>
              <LatitudeDegrees>42.41459517739713191986083984375</LatitudeDegrees>
              <LongitudeDegrees>2.757488898932933807373046875</LongitudeDegrees>
            </Position>
            <AltitudeMeters>996.4000244140625</AltitudeMeters>
            <DistanceMeters>19302.694957829</DistanceMeters>
          </Trackpoint>
          <Trackpoint>
            <Time>2021-04-01T09:32:38.000Z</Time>
            <Position>
              <LatitudeDegrees>42.4146041460335254669189453125</LatitudeDegrees>
              <LongitudeDegrees>2.7574712969362735748291015625</LongitudeDegrees>
            </Position>
            <AltitudeMeters>996.79998779296875</AltitudeMeters>
            <DistanceMeters>19304.449738746</DistanceMeters>
          </Trackpoint>
          <Trackpoint>
            <Time>2021-04-01T09:32:39.000Z</Time>
            <Position>
              <LatitudeDegrees>42.41460825316607952117919921875</LatitudeDegrees>
              <LongitudeDegrees>2.75746216066181659698486328125</LongitudeDegrees>
            </Position>
            <AltitudeMeters>996.79998779296875</AltitudeMeters>
            <DistanceMeters>19305.330980242</DistanceMeters>
          </Trackpoint>
          <Trackpoint>
            <Time>2021-04-01T09:32:40.000Z</Time>
            <Position>
              <LatitudeDegrees>42.4146138690412044525146484375</LatitudeDegrees>
              <LongitudeDegrees>2.75745009072124958038330078125</LongitudeDegrees>
            </Position>
            <AltitudeMeters>997</AltitudeMeters>
            <DistanceMeters>19306.50254826</DistanceMeters>
          </Trackpoint>
          <Trackpoint>
            <Time>2021-04-01T09:32:43.000Z</Time>
            <Position>
              <LatitudeDegrees>42.41462602280080318450927734375</LatitudeDegrees>
              <LongitudeDegrees>2.75742863304913043975830078125</LongitudeDegrees>
            </Position>
            <AltitudeMeters>997.5999755859375</AltitudeMeters>
            <DistanceMeters>19308.725036013</DistanceMeters>
          </Trackpoint>
          <Trackpoint>
            <Time>2021-04-01T09:32:46.000Z</Time>
            <Position>
              <LatitudeDegrees>42.4146168865263462066650390625</LatitudeDegrees>
              <LongitudeDegrees>2.75743701495230197906494140625</LongitudeDegrees>
            </Position>
            <AltitudeMeters>998</AltitudeMeters>
            <DistanceMeters>19309.953051797</DistanceMeters>
          </Trackpoint>
          <Trackpoint>
            <Time>2021-04-01T09:32:47.000Z</Time>
            <Position>
              <LatitudeDegrees>42.414619065821170806884765625</LatitudeDegrees>
              <LongitudeDegrees>2.7574290521442890167236328125</LongitudeDegrees>
            </Position>
            <AltitudeMeters>998.20001220703125</AltitudeMeters>
            <DistanceMeters>19310.651352684</DistanceMeters>
          </Trackpoint>
          <Trackpoint>
            <Time>2021-04-01T09:32:49.000Z</Time>
            <Position>
              <LatitudeDegrees>42.4146333150565624237060546875</LatitudeDegrees>
              <LongitudeDegrees>2.75740541517734527587890625</LongitudeDegrees>
            </Position>
            <AltitudeMeters>998.5999755859375</AltitudeMeters>
            <DistanceMeters>19313.160129932</DistanceMeters>
          </Trackpoint>
          <Trackpoint>
            <Time>2021-04-01T09:32:50.000Z</Time>
            <Position>
              <LatitudeDegrees>42.4146376736462116241455078125</LatitudeDegrees>
              <LongitudeDegrees>2.75739275850355625152587890625</LongitudeDegrees>
            </Position>
            <AltitudeMeters>998.79998779296875</AltitudeMeters>
            <DistanceMeters>19314.30834209</DistanceMeters>
          </Trackpoint>
          <Trackpoint>
            <Time>2021-04-01T09:32:51.000Z</Time>
            <Position>
              <LatitudeDegrees>42.4146433733403682708740234375</LatitudeDegrees>
              <LongitudeDegrees>2.7573811076581478118896484375</LongitudeDegrees>
            </Position>
            <AltitudeMeters>999</AltitudeMeters>
            <DistanceMeters>19315.452615259</DistanceMeters>
          </Trackpoint>
          <Trackpoint>
            <Time>2021-04-01T09:32:52.000Z</Time>
            <Position>
              <LatitudeDegrees>42.4146527610719203948974609375</LatitudeDegrees>
              <LongitudeDegrees>2.7573707140982151031494140625</LongitudeDegrees>
            </Position>
            <AltitudeMeters>999.20001220703125</AltitudeMeters>
            <DistanceMeters>19316.80319863</DistanceMeters>
          </Trackpoint>
          <Trackpoint>
            <Time>2021-04-01T09:32:56.000Z</Time>
            <Position>
              <LatitudeDegrees>42.41467933170497417449951171875</LatitudeDegrees>
              <LongitudeDegrees>2.757327966392040252685546875</LongitudeDegrees>
            </Position>
            <AltitudeMeters>999.5999755859375</AltitudeMeters>
            <DistanceMeters>19321.394080726</DistanceMeters>
          </Trackpoint>
          <Trackpoint>
            <Time>2021-04-01T09:33:01.000Z</Time>
            <Position>
              <LatitudeDegrees>42.41469391621649265289306640625</LatitudeDegrees>
              <LongitudeDegrees>2.7572827041149139404296875</LongitudeDegrees>
            </Position>
            <AltitudeMeters>1000</AltitudeMeters>
            <DistanceMeters>19325.452511387</DistanceMeters>
          </Trackpoint>
          <Trackpoint>
            <Time>2021-04-01T09:33:05.000Z</Time>
            <Position>
              <LatitudeDegrees>42.4147137813270092010498046875</LatitudeDegrees>
              <LongitudeDegrees>2.75724087841808795928955078125</LongitudeDegrees>
            </Position>
            <AltitudeMeters>1000.4000244140625</AltitudeMeters>
            <DistanceMeters>19329.538660105</DistanceMeters>
          </Trackpoint>
          <Trackpoint>
            <Time>2021-04-01T09:33:07.000Z</Time>
            <Position>
              <LatitudeDegrees>42.41473398171365261077880859375</LatitudeDegrees>
              <LongitudeDegrees>2.7572188340127468109130859375</LongitudeDegrees>
            </Position>
            <AltitudeMeters>1000.5999755859375</AltitudeMeters>
            <DistanceMeters>19332.427222141</DistanceMeters>
          </Trackpoint>
          <Trackpoint>
            <Time>2021-04-01T09:33:08.000Z</Time>
            <Position>
              <LatitudeDegrees>42.41474135778844356536865234375</LatitudeDegrees>
              <LongitudeDegrees>2.75720693171024322509765625</LongitudeDegrees>
            </Position>
            <AltitudeMeters>1000.79998779296875</AltitudeMeters>
            <DistanceMeters>19333.705675831</DistanceMeters>
          </Trackpoint>
          <Trackpoint>
            <Time>2021-04-01T09:33:10.000Z</Time>
            <Position>
              <LatitudeDegrees>42.41474890150129795074462890625</LatitudeDegrees>
              <LongitudeDegrees>2.75718270801007747650146484375</LongitudeDegrees>
            </Position>
            <AltitudeMeters>1000.79998779296875</AltitudeMeters>
            <DistanceMeters>19335.868447108</DistanceMeters>
          </Trackpoint>
          <Trackpoint>
            <Time>2021-04-01T09:33:11.000Z</Time>
            <Position>
              <LatitudeDegrees>42.41474990732967853546142578125</LatitudeDegrees>
              <LongitudeDegrees>2.757171727716922760009765625</LongitudeDegrees>
            </Position>
            <AltitudeMeters>1001</AltitudeMeters>
            <DistanceMeters>19336.774944188</DistanceMeters>
          </Trackpoint>
          <Trackpoint>
            <Time>2021-04-01T09:33:15.000Z</Time>
            <Position>
              <LatitudeDegrees>42.41474772803485393524169921875</LatitudeDegrees>
              <LongitudeDegrees>2.757133506238460540771484375</LongitudeDegrees>
            </Position>
            <AltitudeMeters>1001.4000244140625</AltitudeMeters>
            <DistanceMeters>19339.923757288</DistanceMeters>
          </Trackpoint>
          <Trackpoint>
            <Time>2021-04-01T09:33:16.000Z</Time>
            <Position>
              <LatitudeDegrees>42.41474370472133159637451171875</LatitudeDegrees>
              <LongitudeDegrees>2.75711867026984691619873046875</LongitudeDegrees>
            </Position>
            <AltitudeMeters>1001.5999755859375</AltitudeMeters>
            <DistanceMeters>19341.223228063</DistanceMeters>
          </Trackpoint>
          <Trackpoint>
            <Time>2021-04-01T09:33:18.000Z</Time>
            <Position>
              <LatitudeDegrees>42.41475527174770832061767578125</LatitudeDegrees>
              <LongitudeDegrees>2.75709000416100025177001953125</LongitudeDegrees>
            </Position>
            <AltitudeMeters>1001.79998779296875</AltitudeMeters>
            <DistanceMeters>19343.907627623</DistanceMeters>
          </Trackpoint>
          <Trackpoint>
            <Time>2021-04-01T09:33:21.000Z</Time>
            <Position>
              <LatitudeDegrees>42.41475678049027919769287109375</LatitudeDegrees>
              <LongitudeDegrees>2.75706871412694454193115234375</LongitudeDegrees>
            </Position>
            <AltitudeMeters>1002.4000244140625</AltitudeMeters>
            <DistanceMeters>19345.66497965</DistanceMeters>
          </Trackpoint>
          <Trackpoint>
            <Time>2021-04-01T09:33:24.000Z</Time>
            <Position>
              <LatitudeDegrees>42.414754517376422882080078125</LatitudeDegrees>
              <LongitudeDegrees>2.757034935057163238525390625</LongitudeDegrees>
            </Position>
            <AltitudeMeters>1002.5999755859375</AltitudeMeters>
            <DistanceMeters>19348.451709945</DistanceMeters>
          </Trackpoint>
          <Trackpoint>
            <Time>2021-04-01T09:33:25.000Z</Time>
            <Position>
              <LatitudeDegrees>42.41475594229996204376220703125</LatitudeDegrees>
              <LongitudeDegrees>2.757027558982372283935546875</LongitudeDegrees>
            </Position>
            <AltitudeMeters>1002.79998779296875</AltitudeMeters>
            <DistanceMeters>19349.082045859</DistanceMeters>
          </Trackpoint>
          <Trackpoint>
            <Time>2021-04-01T09:33:26.000Z</Time>
            <Position>
              <LatitudeDegrees>42.4147622287273406982421875</LatitudeDegrees>
              <LongitudeDegrees>2.757014147937297821044921875</LongitudeDegrees>
            </Position>
            <AltitudeMeters>1002.79998779296875</AltitudeMeters>
            <DistanceMeters>19350.391898722</DistanceMeters>
          </Trackpoint>
          <Trackpoint>
            <Time>2021-04-01T09:33:27.000Z</Time>
            <Position>
              <LatitudeDegrees>42.41476952098309993743896484375</LatitudeDegrees>
              <LongitudeDegrees>2.7570029161870479583740234375</LongitudeDegrees>
            </Position>
            <AltitudeMeters>1003</AltitudeMeters>
            <DistanceMeters>19351.616232292</DistanceMeters>
          </Trackpoint>
          <Trackpoint>
            <Time>2021-04-01T09:33:29.000Z</Time>
            <Position>
              <LatitudeDegrees>42.41478569805622100830078125</LatitudeDegrees>
              <LongitudeDegrees>2.75698606856167316436767578125</LongitudeDegrees>
            </Position>
            <AltitudeMeters>1003</AltitudeMeters>
            <DistanceMeters>19353.886953246</DistanceMeters>
          </Trackpoint>
          <Trackpoint>
            <Time>2021-04-01T09:33:33.000Z</Time>
            <Position>
              <LatitudeDegrees>42.41480003111064434051513671875</LatitudeDegrees>
              <LongitudeDegrees>2.756946086883544921875</LongitudeDegrees>
            </Position>
            <AltitudeMeters>1003</AltitudeMeters>
            <DistanceMeters>19357.537760394</DistanceMeters>
          </Trackpoint>
          <Trackpoint>
            <Time>2021-04-01T09:33:35.000Z</Time>
            <Position>
              <LatitudeDegrees>42.4147997796535491943359375</LatitudeDegrees>
              <LongitudeDegrees>2.756927311420440673828125</LongitudeDegrees>
            </Position>
            <AltitudeMeters>1003</AltitudeMeters>
            <DistanceMeters>19359.081761748</DistanceMeters>
          </Trackpoint>
          <Trackpoint>
            <Time>2021-04-01T09:33:41.000Z</Time>
            <Position>
              <LatitudeDegrees>42.41477899253368377685546875</LatitudeDegrees>
              <LongitudeDegrees>2.75688548572361469268798828125</LongitudeDegrees>
            </Position>
            <AltitudeMeters>1003.20001220703125</AltitudeMeters>
            <DistanceMeters>19363.224970084</DistanceMeters>
          </Trackpoint>
          <Trackpoint>
            <Time>2021-04-01T09:33:44.000Z</Time>
            <Position>
              <LatitudeDegrees>42.4147808365523815155029296875</LatitudeDegrees>
              <LongitudeDegrees>2.7568560652434825897216796875</LongitudeDegrees>
            </Position>
            <AltitudeMeters>1003.20001220703125</AltitudeMeters>
            <DistanceMeters>19365.65140983</DistanceMeters>
          </Trackpoint>
          <Trackpoint>
            <Time>2021-04-01T09:33:46.000Z</Time>
            <Position>
              <LatitudeDegrees>42.41477220319211483001708984375</LatitudeDegrees>
              <LongitudeDegrees>2.75682882405817508697509765625</LongitudeDegrees>
            </Position>
            <AltitudeMeters>1003.4000244140625</AltitudeMeters>
            <DistanceMeters>19368.088988608</DistanceMeters>
          </Trackpoint>
          <Trackpoint>
            <Time>2021-04-01T09:33:47.000Z</Time>
            <Position>
              <LatitudeDegrees>42.41476650349795818328857421875</LatitudeDegrees>
              <LongitudeDegrees>2.756819017231464385986328125</LongitudeDegrees>
            </Position>
            <AltitudeMeters>1003.4000244140625</AltitudeMeters>
            <DistanceMeters>19369.112457644</DistanceMeters>
          </Trackpoint>
          <Trackpoint>
            <Time>2021-04-01T09:33:49.000Z</Time>
            <Position>
              <LatitudeDegrees>42.41476516239345073699951171875</LatitudeDegrees>
              <LongitudeDegrees>2.7567890100181102752685546875</LongitudeDegrees>
            </Position>
            <AltitudeMeters>1003.4000244140625</AltitudeMeters>
            <DistanceMeters>19371.581324105</DistanceMeters>
          </Trackpoint>
          <Trackpoint>
            <Time>2021-04-01T09:33:52.000Z</Time>
            <Position>
              <LatitudeDegrees>42.41476516239345073699951171875</LatitudeDegrees>
              <LongitudeDegrees>2.7567514590919017791748046875</LongitudeDegrees>
            </Position>
            <AltitudeMeters>1004</AltitudeMeters>
            <DistanceMeters>19374.666401182</DistanceMeters>
          </Trackpoint>
          <Trackpoint>
            <Time>2021-04-01T09:33:53.000Z</Time>
            <Position>
              <LatitudeDegrees>42.4147617258131504058837890625</LatitudeDegrees>
              <LongitudeDegrees>2.7567410655319690704345703125</LongitudeDegrees>
            </Position>
            <AltitudeMeters>1004.20001220703125</AltitudeMeters>
            <DistanceMeters>19375.597469031</DistanceMeters>
          </Trackpoint>
          <Trackpoint>
            <Time>2021-04-01T09:33:58.000Z</Time>
            <Position>
              <LatitudeDegrees>42.41476113907992839813232421875</LatitudeDegrees>
              <LongitudeDegrees>2.75666303001344203948974609375</LongitudeDegrees>
            </Position>
            <AltitudeMeters>1004.5999755859375</AltitudeMeters>
            <DistanceMeters>19382.010188276</DistanceMeters>
          </Trackpoint>
          <Trackpoint>
            <Time>2021-04-01T09:34:00.000Z</Time>
            <Position>
              <LatitudeDegrees>42.41475778631865978240966796875</LatitudeDegrees>
              <LongitudeDegrees>2.75663704611361026763916015625</LongitudeDegrees>
            </Position>
            <AltitudeMeters>1004.79998779296875</AltitudeMeters>
            <DistanceMeters>19384.177130765</DistanceMeters>
          </Trackpoint>
          <Trackpoint>
            <Time>2021-04-01T09:34:01.000Z</Time>
            <Position>
              <LatitudeDegrees>42.4147560261189937591552734375</LatitudeDegrees>
              <LongitudeDegrees>2.7566240541636943817138671875</LongitudeDegrees>
            </Position>
            <AltitudeMeters>1005</AltitudeMeters>
            <DistanceMeters>19385.26060201</DistanceMeters>
          </Trackpoint>
          <Trackpoint>
            <Time>2021-04-01T09:34:03.000Z</Time>
            <Position>
              <LatitudeDegrees>42.41475493647158145904541015625</LatitudeDegrees>
              <LongitudeDegrees>2.7566082961857318878173828125</LongitudeDegrees>
            </Position>
            <AltitudeMeters>1005.20001220703125</AltitudeMeters>
            <DistanceMeters>19386.560072785</DistanceMeters>
          </Trackpoint>
          <Trackpoint>
            <Time>2021-04-01T09:34:05.000Z</Time>
            <Position>
              <LatitudeDegrees>42.41476424038410186767578125</LatitudeDegrees>
              <LongitudeDegrees>2.75657837279140949249267578125</LongitudeDegrees>
            </Position>
            <AltitudeMeters>1005.20001220703125</AltitudeMeters>
            <DistanceMeters>19389.227599774</DistanceMeters>
          </Trackpoint>
          <Trackpoint>
            <Time>2021-04-01T09:34:07.000Z</Time>
            <Position>
              <LatitudeDegrees>42.41478360258042812347412109375</LatitudeDegrees>
              <LongitudeDegrees>2.7565425820648670196533203125</LongitudeDegrees>
            </Position>
            <AltitudeMeters>1005.4000244140625</AltitudeMeters>
            <DistanceMeters>19392.874694865</DistanceMeters>
          </Trackpoint>
          <Trackpoint>
            <Time>2021-04-01T09:34:08.000Z</Time>
            <Position>
              <LatitudeDegrees>42.41479248739778995513916015625</LatitudeDegrees>
              <LongitudeDegrees>2.756522633135318756103515625</LongitudeDegrees>
            </Position>
            <AltitudeMeters>1005.4000244140625</AltitudeMeters>
            <DistanceMeters>19394.789430104</DistanceMeters>
          </Trackpoint>
          <Trackpoint>
            <Time>2021-04-01T09:34:09.000Z</Time>
            <Position>
              <LatitudeDegrees>42.41479768417775630950927734375</LatitudeDegrees>
              <LongitudeDegrees>2.7565097250044345855712890625</LongitudeDegrees>
            </Position>
            <AltitudeMeters>1005.4000244140625</AltitudeMeters>
            <DistanceMeters>19395.998922718</DistanceMeters>
          </Trackpoint>
          <Trackpoint>
            <Time>2021-04-01T09:34:13.000Z</Time>
            <Position>
              <LatitudeDegrees>42.41479785181581974029541015625</LatitudeDegrees>
              <LongitudeDegrees>2.7564632892608642578125</LongitudeDegrees>
            </Position>
            <AltitudeMeters>1005.5999755859375</AltitudeMeters>
            <DistanceMeters>19399.813035086</DistanceMeters>
          </Trackpoint>
          <Trackpoint>
            <Time>2021-04-01T09:34:14.000Z</Time>
            <Position>
              <LatitudeDegrees>42.41480179131031036376953125</LatitudeDegrees>
              <LongitudeDegrees>2.7564470283687114715576171875</LongitudeDegrees>
            </Position>
            <AltitudeMeters>1005.79998779296875</AltitudeMeters>
            <DistanceMeters>19401.219302038</DistanceMeters>
          </Trackpoint>
          <Trackpoint>
            <Time>2021-04-01T09:34:17.000Z</Time>
            <Position>
              <LatitudeDegrees>42.41480086930096149444580078125</LatitudeDegrees>
              <LongitudeDegrees>2.75642280466854572296142578125</LongitudeDegrees>
            </Position>
            <AltitudeMeters>1006</AltitudeMeters>
            <DistanceMeters>19403.212599215</DistanceMeters>
          </Trackpoint>
          <Trackpoint>
            <Time>2021-04-01T09:34:18.000Z</Time>
            <Position>
              <LatitudeDegrees>42.414801456034183502197265625</LatitudeDegrees>
              <LongitudeDegrees>2.75641509331762790679931640625</LongitudeDegrees>
            </Position>
            <AltitudeMeters>1006</AltitudeMeters>
            <DistanceMeters>19403.857101749</DistanceMeters>
          </Trackpoint>
          <Trackpoint>
            <Time>2021-04-01T09:34:24.000Z</Time>
            <Position>
              <LatitudeDegrees>42.41481897421181201934814453125</LatitudeDegrees>
              <LongitudeDegrees>2.75635139085352420806884765625</LongitudeDegrees>
            </Position>
            <AltitudeMeters>1006.5999755859375</AltitudeMeters>
            <DistanceMeters>19409.442700563</DistanceMeters>
          </Trackpoint>
          <Trackpoint>
            <Time>2021-04-01T09:34:28.000Z</Time>
            <Position>
              <LatitudeDegrees>42.41482836194336414337158203125</LatitudeDegrees>
              <LongitudeDegrees>2.7563045360147953033447265625</LongitudeDegrees>
            </Position>
            <AltitudeMeters>1007</AltitudeMeters>
            <DistanceMeters>19413.433822567</DistanceMeters>
          </Trackpoint>
          <Trackpoint>
            <Time>2021-04-01T09:34:33.000Z</Time>
            <Position>
              <LatitudeDegrees>42.4148244224488735198974609375</LatitudeDegrees>
              <LongitudeDegrees>2.7562304399907588958740234375</LongitudeDegrees>
            </Position>
            <AltitudeMeters>1007.5999755859375</AltitudeMeters>
            <DistanceMeters>19419.538503188</DistanceMeters>
          </Trackpoint>
          <Trackpoint>
            <Time>2021-04-01T09:34:41.000Z</Time>
            <Position>
              <LatitudeDegrees>42.41482215933501720428466796875</LatitudeDegrees>
              <LongitudeDegrees>2.756155841052532196044921875</LongitudeDegrees>
            </Position>
            <AltitudeMeters>1008</AltitudeMeters>
            <DistanceMeters>19425.673432578</DistanceMeters>
          </Trackpoint>
          <Trackpoint>
            <Time>2021-04-01T09:34:42.000Z</Time>
            <Position>
              <LatitudeDegrees>42.41482383571565151214599609375</LatitudeDegrees>
              <LongitudeDegrees>2.756145112216472625732421875</LongitudeDegrees>
            </Position>
            <AltitudeMeters>1008</AltitudeMeters>
            <DistanceMeters>19426.574935146</DistanceMeters>
          </Trackpoint>
          <Trackpoint>
            <Time>2021-04-01T09:34:44.000Z</Time>
            <Position>
              <LatitudeDegrees>42.41482182405889034271240234375</LatitudeDegrees>
              <LongitudeDegrees>2.75611787103116512298583984375</LongitudeDegrees>
            </Position>
            <AltitudeMeters>1008.20001220703125</AltitudeMeters>
            <DistanceMeters>19428.825684551</DistanceMeters>
          </Trackpoint>
          <Trackpoint>
            <Time>2021-04-01T09:34:49.000Z</Time>
            <Position>
              <LatitudeDegrees>42.41481210105121135711669921875</LatitudeDegrees>
              <LongitudeDegrees>2.7560554258525371551513671875</LongitudeDegrees>
            </Position>
            <AltitudeMeters>1008.4000244140625</AltitudeMeters>
            <DistanceMeters>19434.070263928</DistanceMeters>
          </Trackpoint>
          <Trackpoint>
            <Time>2021-04-01T09:34:55.000Z</Time>
            <Position>
              <LatitudeDegrees>42.41479634307324886322021484375</LatitudeDegrees>
              <LongitudeDegrees>2.7559803240001201629638671875</LongitudeDegrees>
            </Position>
            <AltitudeMeters>1008.5999755859375</AltitudeMeters>
            <DistanceMeters>19440.485798858</DistanceMeters>
          </Trackpoint>
          <Trackpoint>
            <Time>2021-04-01T09:34:58.000Z</Time>
            <Position>
              <LatitudeDegrees>42.4147959239780902862548828125</LatitudeDegrees>
              <LongitudeDegrees>2.75594905950129032135009765625</LongitudeDegrees>
            </Position>
            <AltitudeMeters>1008.4000244140625</AltitudeMeters>
            <DistanceMeters>19443.055037243</DistanceMeters>
          </Trackpoint>
          <Trackpoint>
            <Time>2021-04-01T09:34:59.000Z</Time>
            <Position>
              <LatitudeDegrees>42.41479751653969287872314453125</LatitudeDegrees>
              <LongitudeDegrees>2.75593782775104045867919921875</LongitudeDegrees>
            </Position>
            <AltitudeMeters>1008.4000244140625</AltitudeMeters>
            <DistanceMeters>19443.995753721</DistanceMeters>
          </Trackpoint>
          <Trackpoint>
            <Time>2021-04-01T09:35:05.000Z</Time>
            <Position>
              <LatitudeDegrees>42.414800114929676055908203125</LatitudeDegrees>
              <LongitudeDegrees>2.7558462135493755340576171875</LongitudeDegrees>
            </Position>
            <AltitudeMeters>1008.4000244140625</AltitudeMeters>
            <DistanceMeters>19451.529880115</DistanceMeters>
          </Trackpoint>
          <Trackpoint>
            <Time>2021-04-01T09:35:13.000Z</Time>
            <Position>
              <LatitudeDegrees>42.41482366807758808135986328125</LatitudeDegrees>
              <LongitudeDegrees>2.755724005401134490966796875</LongitudeDegrees>
            </Position>
            <AltitudeMeters>1008.5999755859375</AltitudeMeters>
            <DistanceMeters>19461.908259171</DistanceMeters>
          </Trackpoint>
          <Trackpoint>
            <Time>2021-04-01T09:35:21.000Z</Time>
            <Position>
              <LatitudeDegrees>42.4148606322705745697021484375</LatitudeDegrees>
              <LongitudeDegrees>2.75565200485289096832275390625</LongitudeDegrees>
            </Position>
            <AltitudeMeters>1008.79998779296875</AltitudeMeters>
            <DistanceMeters>19469.11401656</DistanceMeters>
          </Trackpoint>
          <Trackpoint>
            <Time>2021-04-01T09:35:22.000Z</Time>
            <Position>
              <LatitudeDegrees>42.414866499602794647216796875</LatitudeDegrees>
              <LongitudeDegrees>2.7556554414331912994384765625</LongitudeDegrees>
            </Position>
            <AltitudeMeters>1008.79998779296875</AltitudeMeters>
            <DistanceMeters>19469.825131376</DistanceMeters>
          </Trackpoint>
          <Trackpoint>
            <Time>2021-04-01T09:35:33.000Z</Time>
            <Position>
              <LatitudeDegrees>42.414877228438854217529296875</LatitudeDegrees>
              <LongitudeDegrees>2.75566491298377513885498046875</LongitudeDegrees>
            </Position>
            <AltitudeMeters>1008.5999755859375</AltitudeMeters>
            <DistanceMeters>19471.247361007</DistanceMeters>
          </Trackpoint>
          <Trackpoint>
            <Time>2021-04-01T09:35:45.000Z</Time>
            <Position>
              <LatitudeDegrees>42.414887286722660064697265625</LatitudeDegrees>
              <LongitudeDegrees>2.7556420303881168365478515625</LongitudeDegrees>
            </Position>
            <AltitudeMeters>1008.4000244140625</AltitudeMeters>
            <DistanceMeters>19473.43504026</DistanceMeters>
          </Trackpoint>
          <Trackpoint>
            <Time>2021-04-01T09:35:48.000Z</Time>
            <Position>
              <LatitudeDegrees>42.414887286722660064697265625</LatitudeDegrees>
              <LongitudeDegrees>2.7556420303881168365478515625</LongitudeDegrees>
            </Position>
            <AltitudeMeters>1008.4000244140625</AltitudeMeters>
            <DistanceMeters>19473.43504026</DistanceMeters>
          </Trackpoint>
          <Trackpoint>
            <Time>2021-04-01T09:35:51.000Z</Time>
            <Position>
              <LatitudeDegrees>42.414887286722660064697265625</LatitudeDegrees>
              <LongitudeDegrees>2.7556420303881168365478515625</LongitudeDegrees>
            </Position>
            <AltitudeMeters>1008.4000244140625</AltitudeMeters>
            <DistanceMeters>19473.43504026</DistanceMeters>
          </Trackpoint>
          <Trackpoint>
            <Time>2021-04-01T09:35:59.000Z</Time>
            <Position>
              <LatitudeDegrees>42.41489055566489696502685546875</LatitudeDegrees>
              <LongitudeDegrees>2.7556155435740947723388671875</LongitudeDegrees>
            </Position>
            <AltitudeMeters>1008.4000244140625</AltitudeMeters>
            <DistanceMeters>19475.641215957</DistanceMeters>
          </Trackpoint>
          <Trackpoint>
            <Time>2021-04-01T09:36:02.000Z</Time>
            <Position>
              <LatitudeDegrees>42.4148998595774173736572265625</LatitudeDegrees>
              <LongitudeDegrees>2.7555561996996402740478515625</LongitudeDegrees>
            </Position>
            <AltitudeMeters>1008.5999755859375</AltitudeMeters>
            <DistanceMeters>19480.626270658</DistanceMeters>
          </Trackpoint>
          <Trackpoint>
            <Time>2021-04-01T09:36:05.000Z</Time>
            <Position>
              <LatitudeDegrees>42.41492005996406078338623046875</LatitudeDegrees>
              <LongitudeDegrees>2.75549140758812427520751953125</LongitudeDegrees>
            </Position>
            <AltitudeMeters>1008.79998779296875</AltitudeMeters>
            <DistanceMeters>19486.404957593</DistanceMeters>
          </Trackpoint>
          <Trackpoint>
            <Time>2021-04-01T09:36:07.000Z</Time>
            <Position>
              <LatitudeDegrees>42.41493531502783298492431640625</LatitudeDegrees>
              <LongitudeDegrees>2.755443714559078216552734375</LongitudeDegrees>
            </Position>
            <AltitudeMeters>1008.79998779296875</AltitudeMeters>
            <DistanceMeters>19490.675877214</DistanceMeters>
          </Trackpoint>
          <Trackpoint>
            <Time>2021-04-01T09:36:10.000Z</Time>
            <Position>
              <LatitudeDegrees>42.41495333611965179443359375</LatitudeDegrees>
              <LongitudeDegrees>2.75541848503053188323974609375</LongitudeDegrees>
            </Position>
            <AltitudeMeters>1009</AltitudeMeters>
            <DistanceMeters>19493.561311407</DistanceMeters>
          </Trackpoint>
          <Trackpoint>
            <Time>2021-04-01T09:36:12.000Z</Time>
            <Position>
              <LatitudeDegrees>42.41495761089026927947998046875</LatitudeDegrees>
              <LongitudeDegrees>2.75541387498378753662109375</LongitudeDegrees>
            </Position>
            <AltitudeMeters>1009.20001220703125</AltitudeMeters>
            <DistanceMeters>19494.177154903</DistanceMeters>
          </Trackpoint>
          <Trackpoint>
            <Time>2021-04-01T09:36:14.000Z</Time>
            <Position>
              <LatitudeDegrees>42.41495828144252300262451171875</LatitudeDegrees>
              <LongitudeDegrees>2.7554066665470600128173828125</LongitudeDegrees>
            </Position>
            <AltitudeMeters>1009.20001220703125</AltitudeMeters>
            <DistanceMeters>19494.778156614</DistanceMeters>
          </Trackpoint>
          <Trackpoint>
            <Time>2021-04-01T09:36:16.000Z</Time>
            <Position>
              <LatitudeDegrees>42.41496968083083629608154296875</LatitudeDegrees>
              <LongitudeDegrees>2.7554039843380451202392578125</LongitudeDegrees>
            </Position>
            <AltitudeMeters>1009.20001220703125</AltitudeMeters>
            <DistanceMeters>19496.067161683</DistanceMeters>
          </Trackpoint>
          <Trackpoint>
            <Time>2021-04-01T09:36:17.000Z</Time>
            <Position>
              <LatitudeDegrees>42.4149799905717372894287109375</LatitudeDegrees>
              <LongitudeDegrees>2.7554083429276943206787109375</LongitudeDegrees>
            </Position>
            <AltitudeMeters>1009.20001220703125</AltitudeMeters>
            <DistanceMeters>19497.269165106</DistanceMeters>
          </Trackpoint>
          <Trackpoint>
            <Time>2021-04-01T09:36:18.000Z</Time>
            <Position>
              <LatitudeDegrees>42.4149893783032894134521484375</LatitudeDegrees>
              <LongitudeDegrees>2.75540574453771114349365234375</LongitudeDegrees>
            </Position>
            <AltitudeMeters>1009.20001220703125</AltitudeMeters>
            <DistanceMeters>19498.33583733</DistanceMeters>
          </Trackpoint>
          <Trackpoint>
            <Time>2021-04-01T09:36:23.000Z</Time>
            <Position>
              <LatitudeDegrees>42.41501527838408946990966796875</LatitudeDegrees>
              <LongitudeDegrees>2.75538747198879718780517578125</LongitudeDegrees>
            </Position>
            <AltitudeMeters>1008.5999755859375</AltitudeMeters>
            <DistanceMeters>19501.586251063</DistanceMeters>
          </Trackpoint>
          <Trackpoint>
            <Time>2021-04-01T09:36:30.000Z</Time>
            <Position>
              <LatitudeDegrees>42.41505249403417110443115234375</LatitudeDegrees>
              <LongitudeDegrees>2.75534707121551036834716796875</LongitudeDegrees>
            </Position>
            <AltitudeMeters>1008.4000244140625</AltitudeMeters>
            <DistanceMeters>19506.894154463</DistanceMeters>
          </Trackpoint>
          <Trackpoint>
            <Time>2021-04-01T09:36:37.000Z</Time>
            <Position>
              <LatitudeDegrees>42.41512105800211429595947265625</LatitudeDegrees>
              <LongitudeDegrees>2.75532896630465984344482421875</LongitudeDegrees>
            </Position>
            <AltitudeMeters>1008.4000244140625</AltitudeMeters>
            <DistanceMeters>19514.66952338</DistanceMeters>
          </Trackpoint>
          <Trackpoint>
            <Time>2021-04-01T09:36:40.000Z</Time>
            <Position>
              <LatitudeDegrees>42.41514503024518489837646484375</LatitudeDegrees>
              <LongitudeDegrees>2.75530331768095493316650390625</LongitudeDegrees>
            </Position>
            <AltitudeMeters>1008.4000244140625</AltitudeMeters>
            <DistanceMeters>19518.070630248</DistanceMeters>
          </Trackpoint>
          <Trackpoint>
            <Time>2021-04-01T09:36:43.000Z</Time>
            <Position>
              <LatitudeDegrees>42.415167577564716339111328125</LatitudeDegrees>
              <LongitudeDegrees>2.75528655387461185455322265625</LongitudeDegrees>
            </Position>
            <AltitudeMeters>1008.4000244140625</AltitudeMeters>
            <DistanceMeters>19520.934073876</DistanceMeters>
          </Trackpoint>
          <Trackpoint>
            <Time>2021-04-01T09:36:44.000Z</Time>
            <Position>
              <LatitudeDegrees>42.4151744507253170013427734375</LatitudeDegrees>
              <LongitudeDegrees>2.75528169237077236175537109375</LongitudeDegrees>
            </Position>
            <AltitudeMeters>1008.4000244140625</AltitudeMeters>
            <DistanceMeters>19521.794577373</DistanceMeters>
          </Trackpoint>
          <Trackpoint>
            <Time>2021-04-01T09:36:48.000Z</Time>
            <Position>
              <LatitudeDegrees>42.41520169191062450408935546875</LatitudeDegrees>
              <LongitudeDegrees>2.75527565740048885345458984375</LongitudeDegrees>
            </Position>
            <AltitudeMeters>1008.4000244140625</AltitudeMeters>
            <DistanceMeters>19524.86645463</DistanceMeters>
          </Trackpoint>
          <Trackpoint>
            <Time>2021-04-01T09:36:50.000Z</Time>
            <Position>
              <LatitudeDegrees>42.41522566415369510650634765625</LatitudeDegrees>
              <LongitudeDegrees>2.7552675269544124603271484375</LongitudeDegrees>
            </Position>
            <AltitudeMeters>1008.20001220703125</AltitudeMeters>
            <DistanceMeters>19527.617309781</DistanceMeters>
          </Trackpoint>
          <Trackpoint>
            <Time>2021-04-01T09:36:51.000Z</Time>
            <Position>
              <LatitudeDegrees>42.415231950581073760986328125</LatitudeDegrees>
              <LongitudeDegrees>2.75526056997478008270263671875</LongitudeDegrees>
            </Position>
            <AltitudeMeters>1008.20001220703125</AltitudeMeters>
            <DistanceMeters>19528.518812349</DistanceMeters>
          </Trackpoint>
          <Trackpoint>
            <Time>2021-04-01T09:36:52.000Z</Time>
            <Position>
              <LatitudeDegrees>42.4152381531894207000732421875</LatitudeDegrees>
              <LongitudeDegrees>2.7552567981183528900146484375</LongitudeDegrees>
            </Position>
            <AltitudeMeters>1008</AltitudeMeters>
            <DistanceMeters>19529.279026064</DistanceMeters>
          </Trackpoint>
          <Trackpoint>
            <Time>2021-04-01T09:36:54.000Z</Time>
            <Position>
              <LatitudeDegrees>42.41525516845285892486572265625</LatitudeDegrees>
              <LongitudeDegrees>2.7552353404462337493896484375</LongitudeDegrees>
            </Position>
            <AltitudeMeters>1007.79998779296875</AltitudeMeters>
            <DistanceMeters>19531.867523064</DistanceMeters>
          </Trackpoint>
          <Trackpoint>
            <Time>2021-04-01T09:36:56.000Z</Time>
            <Position>
              <LatitudeDegrees>42.4152854271233081817626953125</LatitudeDegrees>
              <LongitudeDegrees>2.75519921444356441497802734375</LongitudeDegrees>
            </Position>
            <AltitudeMeters>1007.79998779296875</AltitudeMeters>
            <DistanceMeters>19536.356969647</DistanceMeters>
          </Trackpoint>
          <Trackpoint>
            <Time>2021-04-01T09:36:57.000Z</Time>
            <Position>
              <LatitudeDegrees>42.4152981676161289215087890625</LatitudeDegrees>
              <LongitudeDegrees>2.75519317947328090667724609375</LongitudeDegrees>
            </Position>
            <AltitudeMeters>1007.79998779296875</AltitudeMeters>
            <DistanceMeters>19537.859473927</DistanceMeters>
          </Trackpoint>
          <Trackpoint>
            <Time>2021-04-01T09:36:58.000Z</Time>
            <Position>
              <LatitudeDegrees>42.41530981846153736114501953125</LatitudeDegrees>
              <LongitudeDegrees>2.75518395937979221343994140625</LongitudeDegrees>
            </Position>
            <AltitudeMeters>1007.5999755859375</AltitudeMeters>
            <DistanceMeters>19539.361978207</DistanceMeters>
          </Trackpoint>
          <Trackpoint>
            <Time>2021-04-01T09:37:01.000Z</Time>
            <Position>
              <LatitudeDegrees>42.41533018648624420166015625</LatitudeDegrees>
              <LongitudeDegrees>2.75514892302453517913818359375</LongitudeDegrees>
            </Position>
            <AltitudeMeters>1007.4000244140625</AltitudeMeters>
            <DistanceMeters>19543.027595993</DistanceMeters>
          </Trackpoint>
          <Trackpoint>
            <Time>2021-04-01T09:37:03.000Z</Time>
            <Position>
              <LatitudeDegrees>42.41534636355936527252197265625</LatitudeDegrees>
              <LongitudeDegrees>2.7551423013210296630859375</LongitudeDegrees>
            </Position>
            <AltitudeMeters>1007.4000244140625</AltitudeMeters>
            <DistanceMeters>19544.909028948</DistanceMeters>
          </Trackpoint>
          <Trackpoint>
            <Time>2021-04-01T09:37:12.000Z</Time>
            <Position>
              <LatitudeDegrees>42.41542465053498744964599609375</LatitudeDegrees>
              <LongitudeDegrees>2.75505621917545795440673828125</LongitudeDegrees>
            </Position>
            <AltitudeMeters>1007.4000244140625</AltitudeMeters>
            <DistanceMeters>19556.132645406</DistanceMeters>
          </Trackpoint>
          <Trackpoint>
            <Time>2021-04-01T09:37:15.000Z</Time>
            <Position>
              <LatitudeDegrees>42.41544610820710659027099609375</LatitudeDegrees>
              <LongitudeDegrees>2.7550296485424041748046875</LongitudeDegrees>
            </Position>
            <AltitudeMeters>1007.4000244140625</AltitudeMeters>
            <DistanceMeters>19559.369138674</DistanceMeters>
          </Trackpoint>
          <Trackpoint>
            <Time>2021-04-01T09:37:17.000Z</Time>
            <Position>
              <LatitudeDegrees>42.415459267795085906982421875</LatitudeDegrees>
              <LongitudeDegrees>2.7550194226205348968505859375</LongitudeDegrees>
            </Position>
            <AltitudeMeters>1007.4000244140625</AltitudeMeters>
            <DistanceMeters>19561.058370498</DistanceMeters>
          </Trackpoint>
          <Trackpoint>
            <Time>2021-04-01T09:37:18.000Z</Time>
            <Position>
              <LatitudeDegrees>42.4154674820601940155029296875</LatitudeDegrees>
              <LongitudeDegrees>2.7550108730792999267578125</LongitudeDegrees>
            </Position>
            <AltitudeMeters>1007.20001220703125</AltitudeMeters>
            <DistanceMeters>19562.214420373</DistanceMeters>
          </Trackpoint>
          <Trackpoint>
            <Time>2021-04-01T09:37:19.000Z</Time>
            <Position>
              <LatitudeDegrees>42.415479719638824462890625</LatitudeDegrees>
              <LongitudeDegrees>2.7550063468515872955322265625</LongitudeDegrees>
            </Position>
            <AltitudeMeters>1007.20001220703125</AltitudeMeters>
            <DistanceMeters>19563.623894324</DistanceMeters>
          </Trackpoint>
          <Trackpoint>
            <Time>2021-04-01T09:37:23.000Z</Time>
            <Position>
              <LatitudeDegrees>42.41551266051828861236572265625</LatitudeDegrees>
              <LongitudeDegrees>2.75500081479549407958984375</LongitudeDegrees>
            </Position>
            <AltitudeMeters>1007.20001220703125</AltitudeMeters>
            <DistanceMeters>19567.317733182</DistanceMeters>
          </Trackpoint>
          <Trackpoint>
            <Time>2021-04-01T09:37:24.000Z</Time>
            <Position>
              <LatitudeDegrees>42.4155211262404918670654296875</LatitudeDegrees>
              <LongitudeDegrees>2.7549926005303859710693359375</LongitudeDegrees>
            </Position>
            <AltitudeMeters>1007.20001220703125</AltitudeMeters>
            <DistanceMeters>19568.477682056</DistanceMeters>
          </Trackpoint>
          <Trackpoint>
            <Time>2021-04-01T09:37:27.000Z</Time>
            <Position>
              <LatitudeDegrees>42.415547110140323638916015625</LatitudeDegrees>
              <LongitudeDegrees>2.754969634115695953369140625</LongitudeDegrees>
            </Position>
            <AltitudeMeters>1007</AltitudeMeters>
            <DistanceMeters>19571.930174041</DistanceMeters>
          </Trackpoint>
          <Trackpoint>
            <Time>2021-04-01T09:37:30.000Z</Time>
            <Position>
              <LatitudeDegrees>42.41556219756603240966796875</LatitudeDegrees>
              <LongitudeDegrees>2.7549667842686176300048828125</LongitudeDegrees>
            </Position>
            <AltitudeMeters>1007</AltitudeMeters>
            <DistanceMeters>19573.624743104</DistanceMeters>
          </Trackpoint>
          <Trackpoint>
            <Time>2021-04-01T09:37:32.000Z</Time>
            <Position>
              <LatitudeDegrees>42.4155808053910732269287109375</LatitudeDegrees>
              <LongitudeDegrees>2.75496753863990306854248046875</LongitudeDegrees>
            </Position>
            <AltitudeMeters>1007</AltitudeMeters>
            <DistanceMeters>19575.697981244</DistanceMeters>
          </Trackpoint>
          <Trackpoint>
            <Time>2021-04-01T09:37:38.000Z</Time>
            <Position>
              <LatitudeDegrees>42.415617518126964569091796875</LatitudeDegrees>
              <LongitudeDegrees>2.75492571294307708740234375</LongitudeDegrees>
            </Position>
            <AltitudeMeters>1006.79998779296875</AltitudeMeters>
            <DistanceMeters>19581.038110588</DistanceMeters>
          </Trackpoint>
          <Trackpoint>
            <Time>2021-04-01T09:37:47.000Z</Time>
            <Position>
              <LatitudeDegrees>42.4157098866999149322509765625</LatitudeDegrees>
              <LongitudeDegrees>2.754829488694667816162109375</LongitudeDegrees>
            </Position>
            <AltitudeMeters>1006.79998779296875</AltitudeMeters>
            <DistanceMeters>19594.007777662</DistanceMeters>
          </Trackpoint>
          <Trackpoint>
            <Time>2021-04-01T09:37:53.000Z</Time>
            <Position>
              <LatitudeDegrees>42.41572690196335315704345703125</LatitudeDegrees>
              <LongitudeDegrees>2.754784561693668365478515625</LongitudeDegrees>
            </Position>
            <AltitudeMeters>1007</AltitudeMeters>
            <DistanceMeters>19598.156431142</DistanceMeters>
          </Trackpoint>
          <Trackpoint>
            <Time>2021-04-01T09:37:54.000Z</Time>
            <Position>
              <LatitudeDegrees>42.4157300032675266265869140625</LatitudeDegrees>
              <LongitudeDegrees>2.75477726943790912628173828125</LongitudeDegrees>
            </Position>
            <AltitudeMeters>1007.20001220703125</AltitudeMeters>
            <DistanceMeters>19598.854732029</DistanceMeters>
          </Trackpoint>
          <Trackpoint>
            <Time>2021-04-01T09:37:56.000Z</Time>
            <Position>
              <LatitudeDegrees>42.41574366576969623565673828125</LatitudeDegrees>
              <LongitudeDegrees>2.7547709830105304718017578125</LongitudeDegrees>
            </Position>
            <AltitudeMeters>1007.20001220703125</AltitudeMeters>
            <DistanceMeters>19600.46177959</DistanceMeters>
          </Trackpoint>
          <Trackpoint>
            <Time>2021-04-01T09:37:59.000Z</Time>
            <Position>
              <LatitudeDegrees>42.41577032022178173065185546875</LatitudeDegrees>
              <LongitudeDegrees>2.7547615952789783477783203125</LongitudeDegrees>
            </Position>
            <AltitudeMeters>1007.4000244140625</AltitudeMeters>
            <DistanceMeters>19603.527772019</DistanceMeters>
          </Trackpoint>
          <Trackpoint>
            <Time>2021-04-01T09:38:00.000Z</Time>
            <Position>
              <LatitudeDegrees>42.415778450667858123779296875</LatitudeDegrees>
              <LongitudeDegrees>2.7547599188983440399169921875</LongitudeDegrees>
            </Position>
            <AltitudeMeters>1007.4000244140625</AltitudeMeters>
            <DistanceMeters>19604.439236244</DistanceMeters>
          </Trackpoint>
          <Trackpoint>
            <Time>2021-04-01T09:38:05.000Z</Time>
            <Position>
              <LatitudeDegrees>42.41580502130091190338134765625</LatitudeDegrees>
              <LongitudeDegrees>2.7547351084649562835693359375</LongitudeDegrees>
            </Position>
            <AltitudeMeters>1007.79998779296875</AltitudeMeters>
            <DistanceMeters>19608.030190039</DistanceMeters>
          </Trackpoint>
          <Trackpoint>
            <Time>2021-04-01T09:38:06.000Z</Time>
            <Position>
              <LatitudeDegrees>42.41581642068922519683837890625</LatitudeDegrees>
              <LongitudeDegrees>2.754729576408863067626953125</LongitudeDegrees>
            </Position>
            <AltitudeMeters>1007.79998779296875</AltitudeMeters>
            <DistanceMeters>19609.377426234</DistanceMeters>
          </Trackpoint>
          <Trackpoint>
            <Time>2021-04-01T09:38:07.000Z</Time>
            <Position>
              <LatitudeDegrees>42.41582882590591907501220703125</LatitudeDegrees>
              <LongitudeDegrees>2.75471641682088375091552734375</LongitudeDegrees>
            </Position>
            <AltitudeMeters>1007.79998779296875</AltitudeMeters>
            <DistanceMeters>19611.12963227</DistanceMeters>
          </Trackpoint>
          <Trackpoint>
            <Time>2021-04-01T09:38:11.000Z</Time>
            <Position>
              <LatitudeDegrees>42.41585698910057544708251953125</LatitudeDegrees>
              <LongitudeDegrees>2.75468439795076847076416015625</LongitudeDegrees>
            </Position>
            <AltitudeMeters>1008.20001220703125</AltitudeMeters>
            <DistanceMeters>19615.221302067</DistanceMeters>
          </Trackpoint>
          <Trackpoint>
            <Time>2021-04-01T09:38:12.000Z</Time>
            <Position>
              <LatitudeDegrees>42.41585589945316314697265625</LatitudeDegrees>
              <LongitudeDegrees>2.75467936880886554718017578125</LongitudeDegrees>
            </Position>
            <AltitudeMeters>1008.4000244140625</AltitudeMeters>
            <DistanceMeters>19615.646274453</DistanceMeters>
          </Trackpoint>
          <Trackpoint>
            <Time>2021-04-01T09:38:14.000Z</Time>
            <Position>
              <LatitudeDegrees>42.4158651195466518402099609375</LatitudeDegrees>
              <LongitudeDegrees>2.7546596713364124298095703125</LongitudeDegrees>
            </Position>
            <AltitudeMeters>1008.4000244140625</AltitudeMeters>
            <DistanceMeters>19617.561009692</DistanceMeters>
          </Trackpoint>
          <Trackpoint>
            <Time>2021-04-01T09:38:16.000Z</Time>
            <Position>
              <LatitudeDegrees>42.4158711545169353485107421875</LatitudeDegrees>
              <LongitudeDegrees>2.75464332662522792816162109375</LongitudeDegrees>
            </Position>
            <AltitudeMeters>1008.4000244140625</AltitudeMeters>
            <DistanceMeters>19619.060505952</DistanceMeters>
          </Trackpoint>
          <Trackpoint>
            <Time>2021-04-01T09:38:22.000Z</Time>
            <Position>
              <LatitudeDegrees>42.41588548757135868072509765625</LatitudeDegrees>
              <LongitudeDegrees>2.7545978128910064697265625</LongitudeDegrees>
            </Position>
            <AltitudeMeters>1008.5999755859375</AltitudeMeters>
            <DistanceMeters>19623.127826944</DistanceMeters>
          </Trackpoint>
          <Trackpoint>
            <Time>2021-04-01T09:38:23.000Z</Time>
            <Position>
              <LatitudeDegrees>42.41589386947453022003173828125</LatitudeDegrees>
              <LongitudeDegrees>2.754586078226566314697265625</LongitudeDegrees>
            </Position>
            <AltitudeMeters>1008.79998779296875</AltitudeMeters>
            <DistanceMeters>19624.468343714</DistanceMeters>
          </Trackpoint>
          <Trackpoint>
            <Time>2021-04-01T09:38:29.000Z</Time>
            <Position>
              <LatitudeDegrees>42.41596260108053684234619140625</LatitudeDegrees>
              <LongitudeDegrees>2.75448893196880817413330078125</LongitudeDegrees>
            </Position>
            <AltitudeMeters>1009.20001220703125</AltitudeMeters>
            <DistanceMeters>19635.524978596</DistanceMeters>
          </Trackpoint>
          <Trackpoint>
            <Time>2021-04-01T09:38:31.000Z</Time>
            <Position>
              <LatitudeDegrees>42.41597785614430904388427734375</LatitudeDegrees>
              <LongitudeDegrees>2.754479460418224334716796875</LongitudeDegrees>
            </Position>
            <AltitudeMeters>1009.4000244140625</AltitudeMeters>
            <DistanceMeters>19637.391957307</DistanceMeters>
          </Trackpoint>
          <Trackpoint>
            <Time>2021-04-01T09:38:32.000Z</Time>
            <Position>
              <LatitudeDegrees>42.4159853160381317138671875</LatitudeDegrees>
              <LongitudeDegrees>2.75447887368500232696533203125</LongitudeDegrees>
            </Position>
            <AltitudeMeters>1009.4000244140625</AltitudeMeters>
            <DistanceMeters>19638.220380996</DistanceMeters>
          </Trackpoint>
          <Trackpoint>
            <Time>2021-04-01T09:38:35.000Z</Time>
            <Position>
              <LatitudeDegrees>42.4160059355199337005615234375</LatitudeDegrees>
              <LongitudeDegrees>2.7544856630265712738037109375</LongitudeDegrees>
            </Position>
            <AltitudeMeters>1009.79998779296875</AltitudeMeters>
            <DistanceMeters>19640.580795614</DistanceMeters>
          </Trackpoint>
          <Trackpoint>
            <Time>2021-04-01T09:38:41.000Z</Time>
            <Position>
              <LatitudeDegrees>42.41604256443679332733154296875</LatitudeDegrees>
              <LongitudeDegrees>2.75447283871471881866455078125</LongitudeDegrees>
            </Position>
            <AltitudeMeters>1010.20001220703125</AltitudeMeters>
            <DistanceMeters>19644.792098279</DistanceMeters>
          </Trackpoint>
          <Trackpoint>
            <Time>2021-04-01T09:38:43.000Z</Time>
            <Position>
              <LatitudeDegrees>42.4160525389015674591064453125</LatitudeDegrees>
              <LongitudeDegrees>2.75446034967899322509765625</LongitudeDegrees>
            </Position>
            <AltitudeMeters>1010.4000244140625</AltitudeMeters>
            <DistanceMeters>19646.306574893</DistanceMeters>
          </Trackpoint>
          <Trackpoint>
            <Time>2021-04-01T09:38:47.000Z</Time>
            <Position>
              <LatitudeDegrees>42.41604373790323734283447265625</LatitudeDegrees>
              <LongitudeDegrees>2.754460014402866363525390625</LongitudeDegrees>
            </Position>
            <AltitudeMeters>1011</AltitudeMeters>
            <DistanceMeters>19647.284934798</DistanceMeters>
          </Trackpoint>
          <Trackpoint>
            <Time>2021-04-01T09:38:50.000Z</Time>
            <Position>
              <LatitudeDegrees>42.4160629324615001678466796875</LatitudeDegrees>
              <LongitudeDegrees>2.754428498446941375732421875</LongitudeDegrees>
            </Position>
            <AltitudeMeters>1011.4000244140625</AltitudeMeters>
            <DistanceMeters>19650.641947667</DistanceMeters>
          </Trackpoint>
          <Trackpoint>
            <Time>2021-04-01T09:38:51.000Z</Time>
            <Position>
              <LatitudeDegrees>42.416075505316257476806640625</LatitudeDegrees>
              <LongitudeDegrees>2.75441315956413745880126953125</LongitudeDegrees>
            </Position>
            <AltitudeMeters>1011.4000244140625</AltitudeMeters>
            <DistanceMeters>19652.523380623</DistanceMeters>
          </Trackpoint>
          <Trackpoint>
            <Time>2021-04-01T09:38:53.000Z</Time>
            <Position>
              <LatitudeDegrees>42.41608883254230022430419921875</LatitudeDegrees>
              <LongitudeDegrees>2.75439220480620861053466796875</LongitudeDegrees>
            </Position>
            <AltitudeMeters>1011.79998779296875</AltitudeMeters>
            <DistanceMeters>19654.796089079</DistanceMeters>
          </Trackpoint>
          <Trackpoint>
            <Time>2021-04-01T09:38:54.000Z</Time>
            <Position>
              <LatitudeDegrees>42.41609537042677402496337890625</LatitudeDegrees>
              <LongitudeDegrees>2.7543813921511173248291015625</LongitudeDegrees>
            </Position>
            <AltitudeMeters>1011.79998779296875</AltitudeMeters>
            <DistanceMeters>19655.940362247</DistanceMeters>
          </Trackpoint>
          <Trackpoint>
            <Time>2021-04-01T09:38:56.000Z</Time>
            <Position>
              <LatitudeDegrees>42.41610936820507049560546875</LatitudeDegrees>
              <LongitudeDegrees>2.75435649789869785308837890625</LongitudeDegrees>
            </Position>
            <AltitudeMeters>1012.20001220703125</AltitudeMeters>
            <DistanceMeters>19658.511357377</DistanceMeters>
          </Trackpoint>
          <Trackpoint>
            <Time>2021-04-01T09:38:59.000Z</Time>
            <Position>
              <LatitudeDegrees>42.41613753139972686767578125</LatitudeDegrees>
              <LongitudeDegrees>2.75434141047298908233642578125</LongitudeDegrees>
            </Position>
            <AltitudeMeters>1012.4000244140625</AltitudeMeters>
            <DistanceMeters>19661.881792982</DistanceMeters>
          </Trackpoint>
          <Trackpoint>
            <Time>2021-04-01T09:39:00.000Z</Time>
            <Position>
              <LatitudeDegrees>42.4161460809409618377685546875</LatitudeDegrees>
              <LongitudeDegrees>2.7543378062546253204345703125</LongitudeDegrees>
            </Position>
            <AltitudeMeters>1012.4000244140625</AltitudeMeters>
            <DistanceMeters>19662.887461198</DistanceMeters>
          </Trackpoint>
          <Trackpoint>
            <Time>2021-04-01T09:39:05.000Z</Time>
            <Position>
              <LatitudeDegrees>42.4161903373897075653076171875</LatitudeDegrees>
              <LongitudeDegrees>2.75429212488234043121337890625</LongitudeDegrees>
            </Position>
            <AltitudeMeters>1012.79998779296875</AltitudeMeters>
            <DistanceMeters>19669.080987232</DistanceMeters>
          </Trackpoint>
          <Trackpoint>
            <Time>2021-04-01T09:39:07.000Z</Time>
            <Position>
              <LatitudeDegrees>42.41620500572025775909423828125</LatitudeDegrees>
              <LongitudeDegrees>2.7542804740369319915771484375</LongitudeDegrees>
            </Position>
            <AltitudeMeters>1012.79998779296875</AltitudeMeters>
            <DistanceMeters>19670.971994972</DistanceMeters>
          </Trackpoint>
          <Trackpoint>
            <Time>2021-04-01T09:39:10.000Z</Time>
            <Position>
              <LatitudeDegrees>42.4162174947559833526611328125</LatitudeDegrees>
              <LongitudeDegrees>2.75428927503526210784912109375</LongitudeDegrees>
            </Position>
            <AltitudeMeters>1013</AltitudeMeters>
            <DistanceMeters>19672.539215694</DistanceMeters>
          </Trackpoint>
          <Trackpoint>
            <Time>2021-04-01T09:39:11.000Z</Time>
            <Position>
              <LatitudeDegrees>42.41622763685882091522216796875</LatitudeDegrees>
              <LongitudeDegrees>2.75428793393075466156005859375</LongitudeDegrees>
            </Position>
            <AltitudeMeters>1013</AltitudeMeters>
            <DistanceMeters>19673.671589685</DistanceMeters>
          </Trackpoint>
          <Trackpoint>
            <Time>2021-04-01T09:39:12.000Z</Time>
            <Position>
              <LatitudeDegrees>42.41623811423778533935546875</LatitudeDegrees>
              <LongitudeDegrees>2.75428441353142261505126953125</LongitudeDegrees>
            </Position>
            <AltitudeMeters>1013</AltitudeMeters>
            <DistanceMeters>19674.869830961</DistanceMeters>
          </Trackpoint>
          <Trackpoint>
            <Time>2021-04-01T09:39:15.000Z</Time>
            <Position>
              <LatitudeDegrees>42.41629838012158870697021484375</LatitudeDegrees>
              <LongitudeDegrees>2.754246778786182403564453125</LongitudeDegrees>
            </Position>
            <AltitudeMeters>1013.20001220703125</AltitudeMeters>
            <DistanceMeters>19682.256286259</DistanceMeters>
          </Trackpoint>
          <Trackpoint>
            <Time>2021-04-01T09:39:16.000Z</Time>
            <Position>
              <LatitudeDegrees>42.4163080193102359771728515625</LatitudeDegrees>
              <LongitudeDegrees>2.75424334220588207244873046875</LongitudeDegrees>
            </Position>
            <AltitudeMeters>1013.20001220703125</AltitudeMeters>
            <DistanceMeters>19683.368545434</DistanceMeters>
          </Trackpoint>
          <Trackpoint>
            <Time>2021-04-01T09:39:17.000Z</Time>
            <Position>
              <LatitudeDegrees>42.4163153953850269317626953125</LatitudeDegrees>
              <LongitudeDegrees>2.75423965416848659515380859375</LongitudeDegrees>
            </Position>
            <AltitudeMeters>1013.20001220703125</AltitudeMeters>
            <DistanceMeters>19684.239479658</DistanceMeters>
          </Trackpoint>
          <Trackpoint>
            <Time>2021-04-01T09:39:19.000Z</Time>
            <Position>
              <LatitudeDegrees>42.41632117889821529388427734375</LatitudeDegrees>
              <LongitudeDegrees>2.75422708131372928619384765625</LongitudeDegrees>
            </Position>
            <AltitudeMeters>1013.20001220703125</AltitudeMeters>
            <DistanceMeters>19685.460119905</DistanceMeters>
          </Trackpoint>
          <Trackpoint>
            <Time>2021-04-01T09:39:21.000Z</Time>
            <Position>
              <LatitudeDegrees>42.4163311533629894256591796875</LatitudeDegrees>
              <LongitudeDegrees>2.7542171068489551544189453125</LongitudeDegrees>
            </Position>
            <AltitudeMeters>1013.20001220703125</AltitudeMeters>
            <DistanceMeters>19686.840462663</DistanceMeters>
          </Trackpoint>
          <Trackpoint>
            <Time>2021-04-01T09:39:23.000Z</Time>
            <Position>
              <LatitudeDegrees>42.41634179838001728057861328125</LatitudeDegrees>
              <LongitudeDegrees>2.754203863441944122314453125</LongitudeDegrees>
            </Position>
            <AltitudeMeters>1013.20001220703125</AltitudeMeters>
            <DistanceMeters>19688.450317296</DistanceMeters>
          </Trackpoint>
          <Trackpoint>
            <Time>2021-04-01T09:39:25.000Z</Time>
            <Position>
              <LatitudeDegrees>42.4163568019866943359375</LatitudeDegrees>
              <LongitudeDegrees>2.7541916258633136749267578125</LongitudeDegrees>
            </Position>
            <AltitudeMeters>1013.20001220703125</AltitudeMeters>
            <DistanceMeters>19690.402416745</DistanceMeters>
          </Trackpoint>
          <Trackpoint>
            <Time>2021-04-01T09:39:31.000Z</Time>
            <Position>
              <LatitudeDegrees>42.41642025299370288848876953125</LatitudeDegrees>
              <LongitudeDegrees>2.7541765384376049041748046875</LongitudeDegrees>
            </Position>
            <AltitudeMeters>1013.4000244140625</AltitudeMeters>
            <DistanceMeters>19697.572999376</DistanceMeters>
          </Trackpoint>
          <Trackpoint>
            <Time>2021-04-01T09:39:35.000Z</Time>
            <Position>
              <LatitudeDegrees>42.41648663766682147979736328125</LatitudeDegrees>
              <LongitudeDegrees>2.75416807271540164947509765625</LongitudeDegrees>
            </Position>
            <AltitudeMeters>1013.4000244140625</AltitudeMeters>
            <DistanceMeters>19704.994823027</DistanceMeters>
          </Trackpoint>
          <Trackpoint>
            <Time>2021-04-01T09:39:38.000Z</Time>
            <Position>
              <LatitudeDegrees>42.41653005592525005340576171875</LatitudeDegrees>
              <LongitudeDegrees>2.754145525395870208740234375</LongitudeDegrees>
            </Position>
            <AltitudeMeters>1013.4000244140625</AltitudeMeters>
            <DistanceMeters>19710.170072464</DistanceMeters>
          </Trackpoint>
          <Trackpoint>
            <Time>2021-04-01T09:39:40.000Z</Time>
            <Position>
              <LatitudeDegrees>42.41654899902641773223876953125</LatitudeDegrees>
              <LongitudeDegrees>2.75413420982658863067626953125</LongitudeDegrees>
            </Position>
            <AltitudeMeters>1013.4000244140625</AltitudeMeters>
            <DistanceMeters>19712.474347827</DistanceMeters>
          </Trackpoint>
          <Trackpoint>
            <Time>2021-04-01T09:39:42.000Z</Time>
            <Position>
              <LatitudeDegrees>42.4165584705770015716552734375</LatitudeDegrees>
              <LongitudeDegrees>2.754118703305721282958984375</LongitudeDegrees>
            </Position>
            <AltitudeMeters>1013.4000244140625</AltitudeMeters>
            <DistanceMeters>19714.128467884</DistanceMeters>
          </Trackpoint>
          <Trackpoint>
            <Time>2021-04-01T09:39:44.000Z</Time>
            <Position>
              <LatitudeDegrees>42.416587136685848236083984375</LatitudeDegrees>
              <LongitudeDegrees>2.75411291979253292083740234375</LongitudeDegrees>
            </Position>
            <AltitudeMeters>1013.5999755859375</AltitudeMeters>
            <DistanceMeters>19717.353781522</DistanceMeters>
          </Trackpoint>
          <Trackpoint>
            <Time>2021-04-01T09:39:46.000Z</Time>
            <Position>
              <LatitudeDegrees>42.41659677587449550628662109375</LatitudeDegrees>
              <LongitudeDegrees>2.75412063114345073699951171875</LongitudeDegrees>
            </Position>
            <AltitudeMeters>1013.5999755859375</AltitudeMeters>
            <DistanceMeters>19718.600045197</DistanceMeters>
          </Trackpoint>
          <Trackpoint>
            <Time>2021-04-01T09:39:49.000Z</Time>
            <Position>
              <LatitudeDegrees>42.4166047386825084686279296875</LatitudeDegrees>
              <LongitudeDegrees>2.7541074715554714202880859375</LongitudeDegrees>
            </Position>
            <AltitudeMeters>1013.79998779296875</AltitudeMeters>
            <DistanceMeters>19720.003097821</DistanceMeters>
          </Trackpoint>
          <Trackpoint>
            <Time>2021-04-01T09:39:51.000Z</Time>
            <Position>
              <LatitudeDegrees>42.41661320440471172332763671875</LatitudeDegrees>
              <LongitudeDegrees>2.7540855109691619873046875</LongitudeDegrees>
            </Position>
            <AltitudeMeters>1013.79998779296875</AltitudeMeters>
            <DistanceMeters>19722.036758317</DistanceMeters>
          </Trackpoint>
          <Trackpoint>
            <Time>2021-04-01T09:39:56.000Z</Time>
            <Position>
              <LatitudeDegrees>42.4166436307132244110107421875</LatitudeDegrees>
              <LongitudeDegrees>2.75406346656382083892822265625</LongitudeDegrees>
            </Position>
            <AltitudeMeters>1014.4000244140625</AltitudeMeters>
            <DistanceMeters>19725.878000942</DistanceMeters>
          </Trackpoint>
          <Trackpoint>
            <Time>2021-04-01T09:39:57.000Z</Time>
            <Position>
              <LatitudeDegrees>42.4166505038738250732421875</LatitudeDegrees>
              <LongitudeDegrees>2.75405541993677616119384765625</LongitudeDegrees>
            </Position>
            <AltitudeMeters>1014.4000244140625</AltitudeMeters>
            <DistanceMeters>19726.888148772</DistanceMeters>
          </Trackpoint>
          <Trackpoint>
            <Time>2021-04-01T09:39:59.000Z</Time>
            <Position>
              <LatitudeDegrees>42.4166600592434406280517578125</LatitudeDegrees>
              <LongitudeDegrees>2.7540384046733379364013671875</LongitudeDegrees>
            </Position>
            <AltitudeMeters>1014.5999755859375</AltitudeMeters>
            <DistanceMeters>19728.645500798</DistanceMeters>
          </Trackpoint>
          <Trackpoint>
            <Time>2021-04-01T09:40:01.000Z</Time>
            <Position>
              <LatitudeDegrees>42.4166664294898509979248046875</LatitudeDegrees>
              <LongitudeDegrees>2.7540357224643230438232421875</LongitudeDegrees>
            </Position>
            <AltitudeMeters>1014.5999755859375</AltitudeMeters>
            <DistanceMeters>19729.387683164</DistanceMeters>
          </Trackpoint>
          <Trackpoint>
            <Time>2021-04-01T09:40:03.000Z</Time>
            <Position>
              <LatitudeDegrees>42.4166831932961940765380859375</LatitudeDegrees>
              <LongitudeDegrees>2.7540310285985469818115234375</LongitudeDegrees>
            </Position>
            <AltitudeMeters>1014.5999755859375</AltitudeMeters>
            <DistanceMeters>19731.292962862</DistanceMeters>
          </Trackpoint>
          <Trackpoint>
            <Time>2021-04-01T09:40:09.000Z</Time>
            <Position>
              <LatitudeDegrees>42.41674865595996379852294921875</LatitudeDegrees>
              <LongitudeDegrees>2.75403253734111785888671875</LongitudeDegrees>
            </Position>
            <AltitudeMeters>1014.79998779296875</AltitudeMeters>
            <DistanceMeters>19738.580340962</DistanceMeters>
          </Trackpoint>
          <Trackpoint>
            <Time>2021-04-01T09:40:13.000Z</Time>
            <Position>
              <LatitudeDegrees>42.4167712032794952392578125</LatitudeDegrees>
              <LongitudeDegrees>2.75400395505130290985107421875</LongitudeDegrees>
            </Position>
            <AltitudeMeters>1014.79998779296875</AltitudeMeters>
            <DistanceMeters>19742.017103972</DistanceMeters>
          </Trackpoint>
          <Trackpoint>
            <Time>2021-04-01T09:40:16.000Z</Time>
            <Position>
              <LatitudeDegrees>42.416807748377323150634765625</LatitudeDegrees>
              <LongitudeDegrees>2.75396506302058696746826171875</LongitudeDegrees>
            </Position>
            <AltitudeMeters>1015</AltitudeMeters>
            <DistanceMeters>19747.190608257</DistanceMeters>
          </Trackpoint>
          <Trackpoint>
            <Time>2021-04-01T09:40:18.000Z</Time>
            <Position>
              <LatitudeDegrees>42.41682660765945911407470703125</LatitudeDegrees>
              <LongitudeDegrees>2.75394804775714874267578125</LongitudeDegrees>
            </Position>
            <AltitudeMeters>1015</AltitudeMeters>
            <DistanceMeters>19749.71195191</DistanceMeters>
          </Trackpoint>
          <Trackpoint>
            <Time>2021-04-01T09:40:22.000Z</Time>
            <Position>
              <LatitudeDegrees>42.41686650551855564117431640625</LatitudeDegrees>
              <LongitudeDegrees>2.753906808793544769287109375</LongitudeDegrees>
            </Position>
            <AltitudeMeters>1015.4000244140625</AltitudeMeters>
            <DistanceMeters>19755.298359001</DistanceMeters>
          </Trackpoint>
          <Trackpoint>
            <Time>2021-04-01T09:40:23.000Z</Time>
            <Position>
              <LatitudeDegrees>42.41687505505979061126708984375</LatitudeDegrees>
              <LongitudeDegrees>2.7538979239761829376220703125</LongitudeDegrees>
            </Position>
            <AltitudeMeters>1015.5999755859375</AltitudeMeters>
            <DistanceMeters>19756.500362425</DistanceMeters>
          </Trackpoint>
          <Trackpoint>
            <Time>2021-04-01T09:40:24.000Z</Time>
            <Position>
              <LatitudeDegrees>42.4168843589723110198974609375</LatitudeDegrees>
              <LongitudeDegrees>2.75389063172042369842529296875</LongitudeDegrees>
            </Position>
            <AltitudeMeters>1015.5999755859375</AltitudeMeters>
            <DistanceMeters>19757.694829703</DistanceMeters>
          </Trackpoint>
          <Trackpoint>
            <Time>2021-04-01T09:40:29.000Z</Time>
            <Position>
              <LatitudeDegrees>42.41693540476262569427490234375</LatitudeDegrees>
              <LongitudeDegrees>2.7538664080202579498291015625</LongitudeDegrees>
            </Position>
            <AltitudeMeters>1016</AltitudeMeters>
            <DistanceMeters>19763.715355165</DistanceMeters>
          </Trackpoint>
          <Trackpoint>
            <Time>2021-04-01T09:40:34.000Z</Time>
            <Position>
              <LatitudeDegrees>42.4169587902724742889404296875</LatitudeDegrees>
              <LongitudeDegrees>2.75383229367434978485107421875</LongitudeDegrees>
            </Position>
            <AltitudeMeters>1016</AltitudeMeters>
            <DistanceMeters>19767.542466869</DistanceMeters>
          </Trackpoint>
          <Trackpoint>
            <Time>2021-04-01T09:40:36.000Z</Time>
            <Position>
              <LatitudeDegrees>42.41696993820369243621826171875</LatitudeDegrees>
              <LongitudeDegrees>2.75382173247635364532470703125</LongitudeDegrees>
            </Position>
            <AltitudeMeters>1016</AltitudeMeters>
            <DistanceMeters>19769.056943484</DistanceMeters>
          </Trackpoint>
          <Trackpoint>
            <Time>2021-04-01T09:40:38.000Z</Time>
            <Position>
              <LatitudeDegrees>42.4169819243252277374267578125</LatitudeDegrees>
              <LongitudeDegrees>2.753810584545135498046875</LongitudeDegrees>
            </Position>
            <AltitudeMeters>1016.20001220703125</AltitudeMeters>
            <DistanceMeters>19770.675190118</DistanceMeters>
          </Trackpoint>
          <Trackpoint>
            <Time>2021-04-01T09:40:40.000Z</Time>
            <Position>
              <LatitudeDegrees>42.41699106059968471527099609375</LatitudeDegrees>
              <LongitudeDegrees>2.75378736667335033416748046875</LongitudeDegrees>
            </Position>
            <AltitudeMeters>1016.20001220703125</AltitudeMeters>
            <DistanceMeters>19772.837961395</DistanceMeters>
          </Trackpoint>
          <Trackpoint>
            <Time>2021-04-01T09:40:41.000Z</Time>
            <Position>
              <LatitudeDegrees>42.4169884622097015380859375</LatitudeDegrees>
              <LongitudeDegrees>2.75378636084496974945068359375</LongitudeDegrees>
            </Position>
            <AltitudeMeters>1016.4000244140625</AltitudeMeters>
            <DistanceMeters>19773.153129352</DistanceMeters>
          </Trackpoint>
          <Trackpoint>
            <Time>2021-04-01T09:40:43.000Z</Time>
            <Position>
              <LatitudeDegrees>42.4170000292360782623291015625</LatitudeDegrees>
              <LongitudeDegrees>2.753774039447307586669921875</LongitudeDegrees>
            </Position>
            <AltitudeMeters>1016.5999755859375</AltitudeMeters>
            <DistanceMeters>19774.790790093</DistanceMeters>
          </Trackpoint>
          <Trackpoint>
            <Time>2021-04-01T09:40:47.000Z</Time>
            <Position>
              <LatitudeDegrees>42.4170221574604511260986328125</LatitudeDegrees>
              <LongitudeDegrees>2.75374260731041431427001953125</LongitudeDegrees>
            </Position>
            <AltitudeMeters>1016.79998779296875</AltitudeMeters>
            <DistanceMeters>19778.359040054</DistanceMeters>
          </Trackpoint>
          <Trackpoint>
            <Time>2021-04-01T09:40:50.000Z</Time>
            <Position>
              <LatitudeDegrees>42.417059876024723052978515625</LatitudeDegrees>
              <LongitudeDegrees>2.7537180483341217041015625</LongitudeDegrees>
            </Position>
            <AltitudeMeters>1016.79998779296875</AltitudeMeters>
            <DistanceMeters>19783.017287976</DistanceMeters>
          </Trackpoint>
          <Trackpoint>
            <Time>2021-04-01T09:40:56.000Z</Time>
            <Position>
              <LatitudeDegrees>42.41711326874792575836181640625</LatitudeDegrees>
              <LongitudeDegrees>2.75369298644363880157470703125</LongitudeDegrees>
            </Position>
            <AltitudeMeters>1017</AltitudeMeters>
            <DistanceMeters>19789.307022859</DistanceMeters>
          </Trackpoint>
          <Trackpoint>
            <Time>2021-04-01T09:41:04.000Z</Time>
            <Position>
              <LatitudeDegrees>42.41716775111854076385498046875</LatitudeDegrees>
              <LongitudeDegrees>2.75363414548337459564208984375</LongitudeDegrees>
            </Position>
            <AltitudeMeters>1017.20001220703125</AltitudeMeters>
            <DistanceMeters>19797.063205507</DistanceMeters>
          </Trackpoint>
          <Trackpoint>
            <Time>2021-04-01T09:41:09.000Z</Time>
            <Position>
              <LatitudeDegrees>42.417205385863780975341796875</LatitudeDegrees>
              <LongitudeDegrees>2.75359961204230785369873046875</LongitudeDegrees>
            </Position>
            <AltitudeMeters>1017.20001220703125</AltitudeMeters>
            <DistanceMeters>19802.1237684</DistanceMeters>
          </Trackpoint>
          <Trackpoint>
            <Time>2021-04-01T09:41:11.000Z</Time>
            <Position>
              <LatitudeDegrees>42.4172192998230457305908203125</LatitudeDegrees>
              <LongitudeDegrees>2.75359793566167354583740234375</LongitudeDegrees>
            </Position>
            <AltitudeMeters>1017.20001220703125</AltitudeMeters>
            <DistanceMeters>19803.67942276</DistanceMeters>
          </Trackpoint>
          <Trackpoint>
            <Time>2021-04-01T09:41:14.000Z</Time>
            <Position>
              <LatitudeDegrees>42.41724402643740177154541015625</LatitudeDegrees>
              <LongitudeDegrees>2.75358653627336025238037109375</LongitudeDegrees>
            </Position>
            <AltitudeMeters>1017.20001220703125</AltitudeMeters>
            <DistanceMeters>19806.586681185</DistanceMeters>
          </Trackpoint>
          <Trackpoint>
            <Time>2021-04-01T09:41:16.000Z</Time>
            <Position>
              <LatitudeDegrees>42.417265735566616058349609375</LatitudeDegrees>
              <LongitudeDegrees>2.75355787016451358795166015625</LongitudeDegrees>
            </Position>
            <AltitudeMeters>1017.20001220703125</AltitudeMeters>
            <DistanceMeters>19809.961133199</DistanceMeters>
          </Trackpoint>
          <Trackpoint>
            <Time>2021-04-01T09:41:17.000Z</Time>
            <Position>
              <LatitudeDegrees>42.41727269254624843597412109375</LatitudeDegrees>
              <LongitudeDegrees>2.7535432018339633941650390625</LongitudeDegrees>
            </Position>
            <AltitudeMeters>1017.20001220703125</AltitudeMeters>
            <DistanceMeters>19811.39600512</DistanceMeters>
          </Trackpoint>
          <Trackpoint>
            <Time>2021-04-01T09:41:19.000Z</Time>
            <Position>
              <LatitudeDegrees>42.41729046218097209930419921875</LatitudeDegrees>
              <LongitudeDegrees>2.753523252904415130615234375</LongitudeDegrees>
            </Position>
            <AltitudeMeters>1017.20001220703125</AltitudeMeters>
            <DistanceMeters>19813.96700025</DistanceMeters>
          </Trackpoint>
          <Trackpoint>
            <Time>2021-04-01T09:41:23.000Z</Time>
            <Position>
              <LatitudeDegrees>42.417312003672122955322265625</LatitudeDegrees>
              <LongitudeDegrees>2.75348913855850696563720703125</LongitudeDegrees>
            </Position>
            <AltitudeMeters>1017.20001220703125</AltitudeMeters>
            <DistanceMeters>19817.655946603</DistanceMeters>
          </Trackpoint>
          <Trackpoint>
            <Time>2021-04-01T09:41:25.000Z</Time>
            <Position>
              <LatitudeDegrees>42.41733036004006862640380859375</LatitudeDegrees>
              <LongitudeDegrees>2.7534627355635166168212890625</LongitudeDegrees>
            </Position>
            <AltitudeMeters>1017.20001220703125</AltitudeMeters>
            <DistanceMeters>19820.636818157</DistanceMeters>
          </Trackpoint>
          <Trackpoint>
            <Time>2021-04-01T09:41:28.000Z</Time>
            <Position>
              <LatitudeDegrees>42.41734921932220458984375</LatitudeDegrees>
              <LongitudeDegrees>2.7534168027341365814208984375</LongitudeDegrees>
            </Position>
            <AltitudeMeters>1017.4000244140625</AltitudeMeters>
            <DistanceMeters>19824.95609332</DistanceMeters>
          </Trackpoint>
          <Trackpoint>
            <Time>2021-04-01T09:41:32.000Z</Time>
            <Position>
              <LatitudeDegrees>42.4173752032220363616943359375</LatitudeDegrees>
              <LongitudeDegrees>2.75337028317153453826904296875</LongitudeDegrees>
            </Position>
            <AltitudeMeters>1017.5999755859375</AltitudeMeters>
            <DistanceMeters>19829.749058423</DistanceMeters>
          </Trackpoint>
          <Trackpoint>
            <Time>2021-04-01T09:41:38.000Z</Time>
            <Position>
              <LatitudeDegrees>42.4174275062978267669677734375</LatitudeDegrees>
              <LongitudeDegrees>2.75333038531243801116943359375</LongitudeDegrees>
            </Position>
            <AltitudeMeters>1017.5999755859375</AltitudeMeters>
            <DistanceMeters>19836.430051452</DistanceMeters>
          </Trackpoint>
          <Trackpoint>
            <Time>2021-04-01T09:41:42.000Z</Time>
            <Position>
              <LatitudeDegrees>42.41745424456894397735595703125</LatitudeDegrees>
              <LongitudeDegrees>2.75329635478556156158447265625</LongitudeDegrees>
            </Position>
            <AltitudeMeters>1017.5999755859375</AltitudeMeters>
            <DistanceMeters>19840.513989649</DistanceMeters>
          </Trackpoint>
          <Trackpoint>
            <Time>2021-04-01T09:41:43.000Z</Time>
            <Position>
              <LatitudeDegrees>42.41745977662503719329833984375</LatitudeDegrees>
              <LongitudeDegrees>2.75329669006168842315673828125</LongitudeDegrees>
            </Position>
            <AltitudeMeters>1017.5999755859375</AltitudeMeters>
            <DistanceMeters>19841.129833144</DistanceMeters>
          </Trackpoint>
          <Trackpoint>
            <Time>2021-04-01T09:41:45.000Z</Time>
            <Position>
              <LatitudeDegrees>42.41746983490884304046630859375</LatitudeDegrees>
              <LongitudeDegrees>2.7532924152910709381103515625</LongitudeDegrees>
            </Position>
            <AltitudeMeters>1017.5999755859375</AltitudeMeters>
            <DistanceMeters>19842.301401162</DistanceMeters>
          </Trackpoint>
          <Trackpoint>
            <Time>2021-04-01T09:41:47.000Z</Time>
            <Position>
              <LatitudeDegrees>42.41748123429715633392333984375</LatitudeDegrees>
              <LongitudeDegrees>2.7532728016376495361328125</LongitudeDegrees>
            </Position>
            <AltitudeMeters>1017.79998779296875</AltitudeMeters>
            <DistanceMeters>19844.352745994</DistanceMeters>
          </Trackpoint>
          <Trackpoint>
            <Time>2021-04-01T09:41:49.000Z</Time>
            <Position>
              <LatitudeDegrees>42.4174948967993259429931640625</LatitudeDegrees>
              <LongitudeDegrees>2.75325964204967021942138671875</LongitudeDegrees>
            </Position>
            <AltitudeMeters>1017.79998779296875</AltitudeMeters>
            <DistanceMeters>19846.219724705</DistanceMeters>
          </Trackpoint>
          <Trackpoint>
            <Time>2021-04-01T09:41:50.000Z</Time>
            <Position>
              <LatitudeDegrees>42.4175032787024974822998046875</LatitudeDegrees>
              <LongitudeDegrees>2.75325511582195758819580078125</LongitudeDegrees>
            </Position>
            <AltitudeMeters>1017.79998779296875</AltitudeMeters>
            <DistanceMeters>19847.220893265</DistanceMeters>
          </Trackpoint>
          <Trackpoint>
            <Time>2021-04-01T09:41:54.000Z</Time>
            <Position>
              <LatitudeDegrees>42.41756103001534938812255859375</LatitudeDegrees>
              <LongitudeDegrees>2.7531923353672027587890625</LongitudeDegrees>
            </Position>
            <AltitudeMeters>1017.79998779296875</AltitudeMeters>
            <DistanceMeters>19855.463057125</DistanceMeters>
          </Trackpoint>
          <Trackpoint>
            <Time>2021-04-01T09:41:56.000Z</Time>
            <Position>
              <LatitudeDegrees>42.4175730161368846893310546875</LatitudeDegrees>
              <LongitudeDegrees>2.75317816995084285736083984375</LongitudeDegrees>
            </Position>
            <AltitudeMeters>1017.79998779296875</AltitudeMeters>
            <DistanceMeters>19857.235757495</DistanceMeters>
          </Trackpoint>
          <Trackpoint>
            <Time>2021-04-01T09:41:58.000Z</Time>
            <Position>
              <LatitudeDegrees>42.41759237833321094512939453125</LatitudeDegrees>
              <LongitudeDegrees>2.75315872393548488616943359375</LongitudeDegrees>
            </Position>
            <AltitudeMeters>1017.5999755859375</AltitudeMeters>
            <DistanceMeters>19859.920157056</DistanceMeters>
          </Trackpoint>
          <Trackpoint>
            <Time>2021-04-01T09:42:05.000Z</Time>
            <Position>
              <LatitudeDegrees>42.41763680242002010345458984375</LatitudeDegrees>
              <LongitudeDegrees>2.75314246304333209991455078125</LongitudeDegrees>
            </Position>
            <AltitudeMeters>1017.79998779296875</AltitudeMeters>
            <DistanceMeters>19865.042793305</DistanceMeters>
          </Trackpoint>
          <Trackpoint>
            <Time>2021-04-01T09:42:06.000Z</Time>
            <Position>
              <LatitudeDegrees>42.4176451005041599273681640625</LatitudeDegrees>
              <LongitudeDegrees>2.75313441641628742218017578125</LongitudeDegrees>
            </Position>
            <AltitudeMeters>1017.79998779296875</AltitudeMeters>
            <DistanceMeters>19866.183113878</DistanceMeters>
          </Trackpoint>
          <Trackpoint>
            <Time>2021-04-01T09:42:08.000Z</Time>
            <Position>
              <LatitudeDegrees>42.41765842773020267486572265625</LatitudeDegrees>
              <LongitudeDegrees>2.75311279110610485076904296875</LongitudeDegrees>
            </Position>
            <AltitudeMeters>1018</AltitudeMeters>
            <DistanceMeters>19868.499115909</DistanceMeters>
          </Trackpoint>
          <Trackpoint>
            <Time>2021-04-01T09:42:12.000Z</Time>
            <Position>
              <LatitudeDegrees>42.41767955012619495391845703125</LatitudeDegrees>
              <LongitudeDegrees>2.7530835382640361785888671875</LongitudeDegrees>
            </Position>
            <AltitudeMeters>1018.5999755859375</AltitudeMeters>
            <DistanceMeters>19871.862846841</DistanceMeters>
          </Trackpoint>
          <Trackpoint>
            <Time>2021-04-01T09:42:13.000Z</Time>
            <Position>
              <LatitudeDegrees>42.41768608801066875457763671875</LatitudeDegrees>
              <LongitudeDegrees>2.75307943113148212432861328125</LongitudeDegrees>
            </Position>
            <AltitudeMeters>1018.5999755859375</AltitudeMeters>
            <DistanceMeters>19872.669175251</DistanceMeters>
          </Trackpoint>
          <Trackpoint>
            <Time>2021-04-01T09:42:14.000Z</Time>
            <Position>
              <LatitudeDegrees>42.41769128479063510894775390625</LatitudeDegrees>
              <LongitudeDegrees>2.753078006207942962646484375</LongitudeDegrees>
            </Position>
            <AltitudeMeters>1018.79998779296875</AltitudeMeters>
            <DistanceMeters>19873.262616892</DistanceMeters>
          </Trackpoint>
          <Trackpoint>
            <Time>2021-04-01T09:42:15.000Z</Time>
            <Position>
              <LatitudeDegrees>42.41769547574222087860107421875</LatitudeDegrees>
              <LongitudeDegrees>2.7530707977712154388427734375</LongitudeDegrees>
            </Position>
            <AltitudeMeters>1018.79998779296875</AltitudeMeters>
            <DistanceMeters>19874.022830607</DistanceMeters>
          </Trackpoint>
          <Trackpoint>
            <Time>2021-04-01T09:42:17.000Z</Time>
            <Position>
              <LatitudeDegrees>42.41770662367343902587890625</LatitudeDegrees>
              <LongitudeDegrees>2.7530743181705474853515625</LongitudeDegrees>
            </Position>
            <AltitudeMeters>1019.4000244140625</AltitudeMeters>
            <DistanceMeters>19875.297747765</DistanceMeters>
          </Trackpoint>
          <Trackpoint>
            <Time>2021-04-01T09:42:19.000Z</Time>
            <Position>
              <LatitudeDegrees>42.41772565059363842010498046875</LatitudeDegrees>
              <LongitudeDegrees>2.75305311195552349090576171875</LongitudeDegrees>
            </Position>
            <AltitudeMeters>1019.79998779296875</AltitudeMeters>
            <DistanceMeters>19878.040384029</DistanceMeters>
          </Trackpoint>
          <Trackpoint>
            <Time>2021-04-01T09:42:20.000Z</Time>
            <Position>
              <LatitudeDegrees>42.41773805581033229827880859375</LatitudeDegrees>
              <LongitudeDegrees>2.7530506812036037445068359375</LongitudeDegrees>
            </Position>
            <AltitudeMeters>1020</AltitudeMeters>
            <DistanceMeters>19879.433749177</DistanceMeters>
          </Trackpoint>
          <Trackpoint>
            <Time>2021-04-01T09:42:22.000Z</Time>
            <Position>
              <LatitudeDegrees>42.41775096394121646881103515625</LatitudeDegrees>
              <LongitudeDegrees>2.75304012000560760498046875</LongitudeDegrees>
            </Position>
            <AltitudeMeters>1020</AltitudeMeters>
            <DistanceMeters>19881.112255611</DistanceMeters>
          </Trackpoint>
          <Trackpoint>
            <Time>2021-04-01T09:42:23.000Z</Time>
            <Position>
              <LatitudeDegrees>42.41778306663036346435546875</LatitudeDegrees>
              <LongitudeDegrees>2.7530161477625370025634765625</LongitudeDegrees>
            </Position>
            <AltitudeMeters>1020</AltitudeMeters>
            <DistanceMeters>19885.191769171</DistanceMeters>
          </Trackpoint>
          <Trackpoint>
            <Time>2021-04-01T09:42:24.000Z</Time>
            <Position>
              <LatitudeDegrees>42.41779203526675701141357421875</LatitudeDegrees>
              <LongitudeDegrees>2.75301463901996612548828125</LongitudeDegrees>
            </Position>
            <AltitudeMeters>1019.79998779296875</AltitudeMeters>
            <DistanceMeters>19886.197437388</DistanceMeters>
          </Trackpoint>
          <Trackpoint>
            <Time>2021-04-01T09:42:28.000Z</Time>
            <Position>
              <LatitudeDegrees>42.4178030155599117279052734375</LatitudeDegrees>
              <LongitudeDegrees>2.75297532789409160614013671875</LongitudeDegrees>
            </Position>
            <AltitudeMeters>1019.4000244140625</AltitudeMeters>
            <DistanceMeters>19889.652543907</DistanceMeters>
          </Trackpoint>
          <Trackpoint>
            <Time>2021-04-01T09:42:32.000Z</Time>
            <Position>
              <LatitudeDegrees>42.41782539524137973785400390625</LatitudeDegrees>
              <LongitudeDegrees>2.75290575809776782989501953125</LongitudeDegrees>
            </Position>
            <AltitudeMeters>1019.4000244140625</AltitudeMeters>
            <DistanceMeters>19895.888208199</DistanceMeters>
          </Trackpoint>
          <Trackpoint>
            <Time>2021-04-01T09:42:35.000Z</Time>
            <Position>
              <LatitudeDegrees>42.41784383542835712432861328125</LatitudeDegrees>
              <LongitudeDegrees>2.7528749965131282806396484375</LongitudeDegrees>
            </Position>
            <AltitudeMeters>1019.4000244140625</AltitudeMeters>
            <DistanceMeters>19899.142786462</DistanceMeters>
          </Trackpoint>
          <Trackpoint>
            <Time>2021-04-01T09:42:39.000Z</Time>
            <Position>
              <LatitudeDegrees>42.417908795177936553955078125</LatitudeDegrees>
              <LongitudeDegrees>2.75284859351813793182373046875</LongitudeDegrees>
            </Position>
            <AltitudeMeters>1019.20001220703125</AltitudeMeters>
            <DistanceMeters>19906.691281833</DistanceMeters>
          </Trackpoint>
          <Trackpoint>
            <Time>2021-04-01T09:42:41.000Z</Time>
            <Position>
              <LatitudeDegrees>42.41792631335556507110595703125</LatitudeDegrees>
              <LongitudeDegrees>2.75281741283833980560302734375</LongitudeDegrees>
            </Position>
            <AltitudeMeters>1019</AltitudeMeters>
            <DistanceMeters>19909.910991099</DistanceMeters>
          </Trackpoint>
          <Trackpoint>
            <Time>2021-04-01T09:42:43.000Z</Time>
            <Position>
              <LatitudeDegrees>42.41792614571750164031982421875</LatitudeDegrees>
              <LongitudeDegrees>2.752801068127155303955078125</LongitudeDegrees>
            </Position>
            <AltitudeMeters>1019</AltitudeMeters>
            <DistanceMeters>19911.254871781</DistanceMeters>
          </Trackpoint>
          <Trackpoint>
            <Time>2021-04-01T09:42:45.000Z</Time>
            <Position>
              <LatitudeDegrees>42.41792681626975536346435546875</LatitudeDegrees>
              <LongitudeDegrees>2.752784974873065948486328125</LongitudeDegrees>
            </Position>
            <AltitudeMeters>1019</AltitudeMeters>
            <DistanceMeters>19912.578440756</DistanceMeters>
          </Trackpoint>
          <Trackpoint>
            <Time>2021-04-01T09:42:46.000Z</Time>
            <Position>
              <LatitudeDegrees>42.41792597807943820953369140625</LatitudeDegrees>
              <LongitudeDegrees>2.752772904932498931884765625</LongitudeDegrees>
            </Position>
            <AltitudeMeters>1019.20001220703125</AltitudeMeters>
            <DistanceMeters>19913.575089344</DistanceMeters>
          </Trackpoint>
          <Trackpoint>
            <Time>2021-04-01T09:42:50.000Z</Time>
            <Position>
              <LatitudeDegrees>42.4179361201822757720947265625</LatitudeDegrees>
              <LongitudeDegrees>2.75277667678892612457275390625</LongitudeDegrees>
            </Position>
            <AltitudeMeters>1019.20001220703125</AltitudeMeters>
            <DistanceMeters>19914.746657362</DistanceMeters>
          </Trackpoint>
          <Trackpoint>
            <Time>2021-04-01T09:42:52.000Z</Time>
            <Position>
              <LatitudeDegrees>42.41796302609145641326904296875</LatitudeDegrees>
              <LongitudeDegrees>2.75277634151279926300048828125</LongitudeDegrees>
            </Position>
            <AltitudeMeters>1019</AltitudeMeters>
            <DistanceMeters>19917.742637332</DistanceMeters>
          </Trackpoint>
          <Trackpoint>
            <Time>2021-04-01T09:42:56.000Z</Time>
            <Position>
              <LatitudeDegrees>42.4180098809301853179931640625</LatitudeDegrees>
              <LongitudeDegrees>2.7527516148984432220458984375</LongitudeDegrees>
            </Position>
            <AltitudeMeters>1019</AltitudeMeters>
            <DistanceMeters>19923.338734643</DistanceMeters>
          </Trackpoint>
          <Trackpoint>
            <Time>2021-04-01T09:42:59.000Z</Time>
            <Position>
              <LatitudeDegrees>42.41802421398460865020751953125</LatitudeDegrees>
              <LongitudeDegrees>2.7527227811515331268310546875</LongitudeDegrees>
            </Position>
            <AltitudeMeters>1019</AltitudeMeters>
            <DistanceMeters>19926.195864165</DistanceMeters>
          </Trackpoint>
          <Trackpoint>
            <Time>2021-04-01T09:43:03.000Z</Time>
            <Position>
              <LatitudeDegrees>42.41802941076457500457763671875</LatitudeDegrees>
              <LongitudeDegrees>2.75272437371313571929931640625</LongitudeDegrees>
            </Position>
            <AltitudeMeters>1019.20001220703125</AltitudeMeters>
            <DistanceMeters>19926.796865877</DistanceMeters>
          </Trackpoint>
          <Trackpoint>
            <Time>2021-04-01T09:43:09.000Z</Time>
            <Position>
              <LatitudeDegrees>42.41807802580296993255615234375</LatitudeDegrees>
              <LongitudeDegrees>2.752705849707126617431640625</LongitudeDegrees>
            </Position>
            <AltitudeMeters>1019.4000244140625</AltitudeMeters>
            <DistanceMeters>19932.418722114</DistanceMeters>
          </Trackpoint>
          <Trackpoint>
            <Time>2021-04-01T09:43:13.000Z</Time>
            <Position>
              <LatitudeDegrees>42.41810183040797710418701171875</LatitudeDegrees>
              <LongitudeDegrees>2.7526909299194812774658203125</LongitudeDegrees>
            </Position>
            <AltitudeMeters>1019.5999755859375</AltitudeMeters>
            <DistanceMeters>19935.336831448</DistanceMeters>
          </Trackpoint>
          <Trackpoint>
            <Time>2021-04-01T09:43:15.000Z</Time>
            <Position>
              <LatitudeDegrees>42.41811004467308521270751953125</LatitudeDegrees>
              <LongitudeDegrees>2.75269000791013240814208984375</LongitudeDegrees>
            </Position>
            <AltitudeMeters>1019.79998779296875</AltitudeMeters>
            <DistanceMeters>19936.258149627</DistanceMeters>
          </Trackpoint>
          <Trackpoint>
            <Time>2021-04-01T09:43:18.000Z</Time>
            <Position>
              <LatitudeDegrees>42.41813049651682376861572265625</LatitudeDegrees>
              <LongitudeDegrees>2.752670980989933013916015625</LongitudeDegrees>
            </Position>
            <AltitudeMeters>1020</AltitudeMeters>
            <DistanceMeters>19939.020470136</DistanceMeters>
          </Trackpoint>
          <Trackpoint>
            <Time>2021-04-01T09:43:20.000Z</Time>
            <Position>
              <LatitudeDegrees>42.41814382374286651611328125</LatitudeDegrees>
              <LongitudeDegrees>2.75265312753617763519287109375</LongitudeDegrees>
            </Position>
            <AltitudeMeters>1020.20001220703125</AltitudeMeters>
            <DistanceMeters>19941.106733984</DistanceMeters>
          </Trackpoint>
          <Trackpoint>
            <Time>2021-04-01T09:43:25.000Z</Time>
            <Position>
              <LatitudeDegrees>42.4181614257395267486572265625</LatitudeDegrees>
              <LongitudeDegrees>2.7526124753057956695556640625</LongitudeDegrees>
            </Position>
            <AltitudeMeters>1020.5999755859375</AltitudeMeters>
            <DistanceMeters>19944.979582674</DistanceMeters>
          </Trackpoint>
          <Trackpoint>
            <Time>2021-04-01T09:43:30.000Z</Time>
            <Position>
              <LatitudeDegrees>42.418177686631679534912109375</LatitudeDegrees>
              <LongitudeDegrees>2.75260132737457752227783203125</LongitudeDegrees>
            </Position>
            <AltitudeMeters>1020.79998779296875</AltitudeMeters>
            <DistanceMeters>19947.008798005</DistanceMeters>
          </Trackpoint>
          <Trackpoint>
            <Time>2021-04-01T09:43:32.000Z</Time>
            <Position>
              <LatitudeDegrees>42.41817223839461803436279296875</LatitudeDegrees>
              <LongitudeDegrees>2.7525947056710720062255859375</LongitudeDegrees>
            </Position>
            <AltitudeMeters>1021</AltitudeMeters>
            <DistanceMeters>19947.826248711</DistanceMeters>
          </Trackpoint>
          <Trackpoint>
            <Time>2021-04-01T09:43:38.000Z</Time>
            <Position>
              <LatitudeDegrees>42.4182127229869365692138671875</LatitudeDegrees>
              <LongitudeDegrees>2.7525232918560504913330078125</LongitudeDegrees>
            </Position>
            <AltitudeMeters>1022</AltitudeMeters>
            <DistanceMeters>19955.224919092</DistanceMeters>
          </Trackpoint>
          <Trackpoint>
            <Time>2021-04-01T09:43:39.000Z</Time>
            <Position>
              <LatitudeDegrees>42.4182142317295074462890625</LatitudeDegrees>
              <LongitudeDegrees>2.75252245366573333740234375</LongitudeDegrees>
            </Position>
            <AltitudeMeters>1022</AltitudeMeters>
            <DistanceMeters>19955.414972521</DistanceMeters>
          </Trackpoint>
          <Trackpoint>
            <Time>2021-04-01T09:43:45.000Z</Time>
            <Position>
              <LatitudeDegrees>42.41826259531080722808837890625</LatitudeDegrees>
              <LongitudeDegrees>2.75249605067074298858642578125</LongitudeDegrees>
            </Position>
            <AltitudeMeters>1022.5999755859375</AltitudeMeters>
            <DistanceMeters>19961.218608031</DistanceMeters>
          </Trackpoint>
          <Trackpoint>
            <Time>2021-04-01T09:43:47.000Z</Time>
            <Position>
              <LatitudeDegrees>42.418280951678752899169921875</LatitudeDegrees>
              <LongitudeDegrees>2.75248766876757144927978515625</LongitudeDegrees>
            </Position>
            <AltitudeMeters>1023</AltitudeMeters>
            <DistanceMeters>19963.373012657</DistanceMeters>
          </Trackpoint>
          <Trackpoint>
            <Time>2021-04-01T09:43:53.000Z</Time>
            <Position>
              <LatitudeDegrees>42.418317832052707672119140625</LatitudeDegrees>
              <LongitudeDegrees>2.75243570096790790557861328125</LongitudeDegrees>
            </Position>
            <AltitudeMeters>1022.5999755859375</AltitudeMeters>
            <DistanceMeters>19969.296767974</DistanceMeters>
          </Trackpoint>
          <Trackpoint>
            <Time>2021-04-01T09:44:00.000Z</Time>
            <Position>
              <LatitudeDegrees>42.41835664026439189910888671875</LatitudeDegrees>
              <LongitudeDegrees>2.75238096714019775390625</LongitudeDegrees>
            </Position>
            <AltitudeMeters>1022.5999755859375</AltitudeMeters>
            <DistanceMeters>19975.532432267</DistanceMeters>
          </Trackpoint>
          <Trackpoint>
            <Time>2021-04-01T09:44:03.000Z</Time>
            <Position>
              <LatitudeDegrees>42.41836720146238803863525390625</LatitudeDegrees>
              <LongitudeDegrees>2.75238297879695892333984375</LongitudeDegrees>
            </Position>
            <AltitudeMeters>1022.79998779296875</AltitudeMeters>
            <DistanceMeters>19976.719315549</DistanceMeters>
          </Trackpoint>
          <Trackpoint>
            <Time>2021-04-01T09:44:06.000Z</Time>
            <Position>
              <LatitudeDegrees>42.418378852307796478271484375</LatitudeDegrees>
              <LongitudeDegrees>2.752385996282100677490234375</LongitudeDegrees>
            </Position>
            <AltitudeMeters>1022.79998779296875</AltitudeMeters>
            <DistanceMeters>19978.039468856</DistanceMeters>
          </Trackpoint>
          <Trackpoint>
            <Time>2021-04-01T09:44:12.000Z</Time>
            <Position>
              <LatitudeDegrees>42.41842168383300304412841796875</LatitudeDegrees>
              <LongitudeDegrees>2.75235137902200222015380859375</LongitudeDegrees>
            </Position>
            <AltitudeMeters>1023</AltitudeMeters>
            <DistanceMeters>19983.590200413</DistanceMeters>
          </Trackpoint>
          <Trackpoint>
            <Time>2021-04-01T09:44:14.000Z</Time>
            <Position>
              <LatitudeDegrees>42.4184390343725681304931640625</LatitudeDegrees>
              <LongitudeDegrees>2.75233880616724491119384765625</LongitudeDegrees>
            </Position>
            <AltitudeMeters>1023</AltitudeMeters>
            <DistanceMeters>19985.782003477</DistanceMeters>
          </Trackpoint>
          <Trackpoint>
            <Time>2021-04-01T09:44:18.000Z</Time>
            <Position>
              <LatitudeDegrees>42.41848178207874298095703125</LatitudeDegrees>
              <LongitudeDegrees>2.75231014005839824676513671875</LongitudeDegrees>
            </Position>
            <AltitudeMeters>1023</AltitudeMeters>
            <DistanceMeters>19991.091607855</DistanceMeters>
          </Trackpoint>
          <Trackpoint>
            <Time>2021-04-01T09:44:20.000Z</Time>
            <Position>
              <LatitudeDegrees>42.41851371712982654571533203125</LatitudeDegrees>
              <LongitudeDegrees>2.75228030048310756683349609375</LongitudeDegrees>
            </Position>
            <AltitudeMeters>1022.79998779296875</AltitudeMeters>
            <DistanceMeters>19995.408791866</DistanceMeters>
          </Trackpoint>
          <Trackpoint>
            <Time>2021-04-01T09:44:21.000Z</Time>
            <Position>
              <LatitudeDegrees>42.418529726564884185791015625</LatitudeDegrees>
              <LongitudeDegrees>2.752265967428684234619140625</LongitudeDegrees>
            </Position>
            <AltitudeMeters>1022.79998779296875</AltitudeMeters>
            <DistanceMeters>19997.546364948</DistanceMeters>
          </Trackpoint>
          <Trackpoint>
            <Time>2021-04-01T09:44:25.000Z</Time>
            <Position>
              <LatitudeDegrees>42.41855545900762081146240234375</LatitudeDegrees>
              <LongitudeDegrees>2.752237133681774139404296875</LongitudeDegrees>
            </Position>
            <AltitudeMeters>1023</AltitudeMeters>
            <DistanceMeters>20001.263355257</DistanceMeters>
          </Trackpoint>
          <Trackpoint>
            <Time>2021-04-01T09:44:29.000Z</Time>
            <Position>
              <LatitudeDegrees>42.41858747787773609161376953125</LatitudeDegrees>
              <LongitudeDegrees>2.75220100767910480499267578125</LongitudeDegrees>
            </Position>
            <AltitudeMeters>1023.20001220703125</AltitudeMeters>
            <DistanceMeters>20005.901204121</DistanceMeters>
          </Trackpoint>
          <Trackpoint>
            <Time>2021-04-01T09:44:31.000Z</Time>
            <Position>
              <LatitudeDegrees>42.418610192835330963134765625</LatitudeDegrees>
              <LongitudeDegrees>2.7521860040724277496337890625</LongitudeDegrees>
            </Position>
            <AltitudeMeters>1023.4000244140625</AltitudeMeters>
            <DistanceMeters>20008.713738026</DistanceMeters>
          </Trackpoint>
          <Trackpoint>
            <Time>2021-04-01T09:44:33.000Z</Time>
            <Position>
              <LatitudeDegrees>42.41863676346838474273681640625</LatitudeDegrees>
              <LongitudeDegrees>2.75216312147676944732666015625</LongitudeDegrees>
            </Position>
            <AltitudeMeters>1023.4000244140625</AltitudeMeters>
            <DistanceMeters>20012.216861473</DistanceMeters>
          </Trackpoint>
          <Trackpoint>
            <Time>2021-04-01T09:44:35.000Z</Time>
            <Position>
              <LatitudeDegrees>42.41866090334951877593994140625</LatitudeDegrees>
              <LongitudeDegrees>2.75214484892785549163818359375</LongitudeDegrees>
            </Position>
            <AltitudeMeters>1023.5999755859375</AltitudeMeters>
            <DistanceMeters>20015.29607895</DistanceMeters>
          </Trackpoint>
          <Trackpoint>
            <Time>2021-04-01T09:44:38.000Z</Time>
            <Position>
              <LatitudeDegrees>42.418687976896762847900390625</LatitudeDegrees>
              <LongitudeDegrees>2.7521152608096599578857421875</LongitudeDegrees>
            </Position>
            <AltitudeMeters>1023.5999755859375</AltitudeMeters>
            <DistanceMeters>20019.167761646</DistanceMeters>
          </Trackpoint>
          <Trackpoint>
            <Time>2021-04-01T09:44:42.000Z</Time>
            <Position>
              <LatitudeDegrees>42.41873801685869693756103515625</LatitudeDegrees>
              <LongitudeDegrees>2.75207762606441974639892578125</LongitudeDegrees>
            </Position>
            <AltitudeMeters>1024</AltitudeMeters>
            <DistanceMeters>20025.538805015</DistanceMeters>
          </Trackpoint>
          <Trackpoint>
            <Time>2021-04-01T09:44:43.000Z</Time>
            <Position>
              <LatitudeDegrees>42.41875402629375457763671875</LatitudeDegrees>
              <LongitudeDegrees>2.75207050144672393798828125</LongitudeDegrees>
            </Position>
            <AltitudeMeters>1024</AltitudeMeters>
            <DistanceMeters>20027.415432259</DistanceMeters>
          </Trackpoint>
          <Trackpoint>
            <Time>2021-04-01T09:44:45.000Z</Time>
            <Position>
              <LatitudeDegrees>42.41878093220293521881103515625</LatitudeDegrees>
              <LongitudeDegrees>2.752065472304821014404296875</LongitudeDegrees>
            </Position>
            <AltitudeMeters>1024.199951171875</AltitudeMeters>
            <DistanceMeters>20030.438417102</DistanceMeters>
          </Trackpoint>
          <Trackpoint>
            <Time>2021-04-01T09:44:46.000Z</Time>
            <Position>
              <LatitudeDegrees>42.4187964387238025665283203125</LatitudeDegrees>
              <LongitudeDegrees>2.75206455029547214508056640625</LongitudeDegrees>
            </Position>
            <AltitudeMeters>1024.199951171875</AltitudeMeters>
            <DistanceMeters>20032.169886241</DistanceMeters>
          </Trackpoint>
          <Trackpoint>
            <Time>2021-04-01T09:44:48.000Z</Time>
            <Position>
              <LatitudeDegrees>42.41881496272981166839599609375</LatitudeDegrees>
              <LongitudeDegrees>2.75205432437360286712646484375</LongitudeDegrees>
            </Position>
            <AltitudeMeters>1024.199951171875</AltitudeMeters>
            <DistanceMeters>20034.396433336</DistanceMeters>
          </Trackpoint>
          <Trackpoint>
            <Time>2021-04-01T09:44:52.000Z</Time>
            <Position>
              <LatitudeDegrees>42.41885125637054443359375</LatitudeDegrees>
              <LongitudeDegrees>2.75200587697327136993408203125</LongitudeDegrees>
            </Position>
            <AltitudeMeters>1024.5999755859375</AltitudeMeters>
            <DistanceMeters>20040.067864575</DistanceMeters>
          </Trackpoint>
          <Trackpoint>
            <Time>2021-04-01T09:44:59.000Z</Time>
            <Position>
              <LatitudeDegrees>42.41887548007071018218994140625</LatitudeDegrees>
              <LongitudeDegrees>2.7519290149211883544921875</LongitudeDegrees>
            </Position>
            <AltitudeMeters>1025</AltitudeMeters>
            <DistanceMeters>20046.934818717</DistanceMeters>
          </Trackpoint>
          <Trackpoint>
            <Time>2021-04-01T09:45:02.000Z</Time>
            <Position>
              <LatitudeDegrees>42.418886460363864898681640625</LatitudeDegrees>
              <LongitudeDegrees>2.75188350118696689605712890625</LongitudeDegrees>
            </Position>
            <AltitudeMeters>1025.199951171875</AltitudeMeters>
            <DistanceMeters>20050.868970598</DistanceMeters>
          </Trackpoint>
          <Trackpoint>
            <Time>2021-04-01T09:45:06.000Z</Time>
            <Position>
              <LatitudeDegrees>42.41889408789575099945068359375</LatitudeDegrees>
              <LongitudeDegrees>2.7518351376056671142578125</LongitudeDegrees>
            </Position>
            <AltitudeMeters>1025.800048828125</AltitudeMeters>
            <DistanceMeters>20054.931848856</DistanceMeters>
          </Trackpoint>
          <Trackpoint>
            <Time>2021-04-01T09:45:08.000Z</Time>
            <Position>
              <LatitudeDegrees>42.418905235826969146728515625</LatitudeDegrees>
              <LongitudeDegrees>2.75182516314089298248291015625</LongitudeDegrees>
            </Position>
            <AltitudeMeters>1026</AltitudeMeters>
            <DistanceMeters>20056.416213587</DistanceMeters>
          </Trackpoint>
          <Trackpoint>
            <Time>2021-04-01T09:45:10.000Z</Time>
            <Position>
              <LatitudeDegrees>42.4189111031591892242431640625</LatitudeDegrees>
              <LongitudeDegrees>2.7518041245639324188232421875</LongitudeDegrees>
            </Position>
            <AltitudeMeters>1026.199951171875</AltitudeMeters>
            <DistanceMeters>20058.263744072</DistanceMeters>
          </Trackpoint>
          <Trackpoint>
            <Time>2021-04-01T09:45:11.000Z</Time>
            <Position>
              <LatitudeDegrees>42.41891629993915557861328125</LatitudeDegrees>
              <LongitudeDegrees>2.75179088115692138671875</LongitudeDegrees>
            </Position>
            <AltitudeMeters>1026.199951171875</AltitudeMeters>
            <DistanceMeters>20059.495431063</DistanceMeters>
          </Trackpoint>
          <Trackpoint>
            <Time>2021-04-01T09:45:14.000Z</Time>
            <Position>
              <LatitudeDegrees>42.418923340737819671630859375</LatitudeDegrees>
              <LongitudeDegrees>2.751781828701496124267578125</LongitudeDegrees>
            </Position>
            <AltitudeMeters>1026.4000244140625</AltitudeMeters>
            <DistanceMeters>20060.578902307</DistanceMeters>
          </Trackpoint>
          <Trackpoint>
            <Time>2021-04-01T09:45:15.000Z</Time>
            <Position>
              <LatitudeDegrees>42.41892878897488117218017578125</LatitudeDegrees>
              <LongitudeDegrees>2.7517796494066715240478515625</LongitudeDegrees>
            </Position>
            <AltitudeMeters>1026.5999755859375</AltitudeMeters>
            <DistanceMeters>20061.209238221</DistanceMeters>
          </Trackpoint>
          <Trackpoint>
            <Time>2021-04-01T09:45:20.000Z</Time>
            <Position>
              <LatitudeDegrees>42.41894639097154140472412109375</LatitudeDegrees>
              <LongitudeDegrees>2.75175492279231548309326171875</LongitudeDegrees>
            </Position>
            <AltitudeMeters>1027</AltitudeMeters>
            <DistanceMeters>20064.031387654</DistanceMeters>
          </Trackpoint>
          <Trackpoint>
            <Time>2021-04-01T09:45:22.000Z</Time>
            <Position>
              <LatitudeDegrees>42.4189613945782184600830078125</LatitudeDegrees>
              <LongitudeDegrees>2.7517385780811309814453125</LongitudeDegrees>
            </Position>
            <AltitudeMeters>1027.199951171875</AltitudeMeters>
            <DistanceMeters>20066.173181022</DistanceMeters>
          </Trackpoint>
          <Trackpoint>
            <Time>2021-04-01T09:45:23.000Z</Time>
            <Position>
              <LatitudeDegrees>42.4189727939665317535400390625</LatitudeDegrees>
              <LongitudeDegrees>2.7517270110547542572021484375</LongitudeDegrees>
            </Position>
            <AltitudeMeters>1027.199951171875</AltitudeMeters>
            <DistanceMeters>20067.760440084</DistanceMeters>
          </Trackpoint>
          <Trackpoint>
            <Time>2021-04-01T09:45:25.000Z</Time>
            <Position>
              <LatitudeDegrees>42.4189893901348114013671875</LatitudeDegrees>
              <LongitudeDegrees>2.7517139352858066558837890625</LongitudeDegrees>
            </Position>
            <AltitudeMeters>1027.4000244140625</AltitudeMeters>
            <DistanceMeters>20069.898013166</DistanceMeters>
          </Trackpoint>
          <Trackpoint>
            <Time>2021-04-01T09:45:26.000Z</Time>
            <Position>
              <LatitudeDegrees>42.41899115033447742462158203125</LatitudeDegrees>
              <LongitudeDegrees>2.75171401910483837127685546875</LongitudeDegrees>
            </Position>
            <AltitudeMeters>1027.5999755859375</AltitudeMeters>
            <DistanceMeters>20070.088066595</DistanceMeters>
          </Trackpoint>
          <Trackpoint>
            <Time>2021-04-01T09:45:28.000Z</Time>
            <Position>
              <LatitudeDegrees>42.41899819113314151763916015625</LatitudeDegrees>
              <LongitudeDegrees>2.7517122589051723480224609375</LongitudeDegrees>
            </Position>
            <AltitudeMeters>1027.800048828125</AltitudeMeters>
            <DistanceMeters>20070.883117128</DistanceMeters>
          </Trackpoint>
          <Trackpoint>
            <Time>2021-04-01T09:45:35.000Z</Time>
            <Position>
              <LatitudeDegrees>42.41904127411544322967529296875</LatitudeDegrees>
              <LongitudeDegrees>2.75167755782604217529296875</LongitudeDegrees>
            </Position>
            <AltitudeMeters>1028.199951171875</AltitudeMeters>
            <DistanceMeters>20076.461436178</DistanceMeters>
          </Trackpoint>
          <Trackpoint>
            <Time>2021-04-01T09:45:36.000Z</Time>
            <Position>
              <LatitudeDegrees>42.41904747672379016876220703125</LatitudeDegrees>
              <LongitudeDegrees>2.75166959501802921295166015625</LongitudeDegrees>
            </Position>
            <AltitudeMeters>1028.199951171875</AltitudeMeters>
            <DistanceMeters>20077.411703322</DistanceMeters>
          </Trackpoint>
          <Trackpoint>
            <Time>2021-04-01T09:45:43.000Z</Time>
            <Position>
              <LatitudeDegrees>42.4190391786396503448486328125</LatitudeDegrees>
              <LongitudeDegrees>2.751583345234394073486328125</LongitudeDegrees>
            </Position>
            <AltitudeMeters>1028</AltitudeMeters>
            <DistanceMeters>20084.558950515</DistanceMeters>
          </Trackpoint>
          <Trackpoint>
            <Time>2021-04-01T09:45:51.000Z</Time>
            <Position>
              <LatitudeDegrees>42.419087626039981842041015625</LatitudeDegrees>
              <LongitudeDegrees>2.75147496722638607025146484375</LongitudeDegrees>
            </Position>
            <AltitudeMeters>1027.800048828125</AltitudeMeters>
            <DistanceMeters>20094.969472956</DistanceMeters>
          </Trackpoint>
          <Trackpoint>
            <Time>2021-04-01T09:45:54.000Z</Time>
            <Position>
              <LatitudeDegrees>42.41908586584031581878662109375</LatitudeDegrees>
              <LongitudeDegrees>2.7514477260410785675048828125</LongitudeDegrees>
            </Position>
            <AltitudeMeters>1028</AltitudeMeters>
            <DistanceMeters>20097.214196247</DistanceMeters>
          </Trackpoint>
          <Trackpoint>
            <Time>2021-04-01T09:45:56.000Z</Time>
            <Position>
              <LatitudeDegrees>42.41907857358455657958984375</LatitudeDegrees>
              <LongitudeDegrees>2.751410007476806640625</LongitudeDegrees>
            </Position>
            <AltitudeMeters>1028.199951171875</AltitudeMeters>
            <DistanceMeters>20100.417033558</DistanceMeters>
          </Trackpoint>
          <Trackpoint>
            <Time>2021-04-01T09:45:58.000Z</Time>
            <Position>
              <LatitudeDegrees>42.41907094605267047882080078125</LatitudeDegrees>
              <LongitudeDegrees>2.75137857533991336822509765625</LongitudeDegrees>
            </Position>
            <AltitudeMeters>1028.4000244140625</AltitudeMeters>
            <DistanceMeters>20103.134864041</DistanceMeters>
          </Trackpoint>
          <Trackpoint>
            <Time>2021-04-01T09:46:01.000Z</Time>
            <Position>
              <LatitudeDegrees>42.41907379589974880218505859375</LatitudeDegrees>
              <LongitudeDegrees>2.75134169496595859527587890625</LongitudeDegrees>
            </Position>
            <AltitudeMeters>1028.4000244140625</AltitudeMeters>
            <DistanceMeters>20106.181652282</DistanceMeters>
          </Trackpoint>
          <Trackpoint>
            <Time>2021-04-01T09:46:06.000Z</Time>
            <Position>
              <LatitudeDegrees>42.4191020429134368896484375</LatitudeDegrees>
              <LongitudeDegrees>2.7512852847576141357421875</LongitudeDegrees>
            </Position>
            <AltitudeMeters>1028.800048828125</AltitudeMeters>
            <DistanceMeters>20111.782588415</DistanceMeters>
          </Trackpoint>
          <Trackpoint>
            <Time>2021-04-01T09:46:07.000Z</Time>
            <Position>
              <LatitudeDegrees>42.41911017335951328277587890625</LatitudeDegrees>
              <LongitudeDegrees>2.7512733824551105499267578125</LongitudeDegrees>
            </Position>
            <AltitudeMeters>1029</AltitudeMeters>
            <DistanceMeters>20113.112962416</DistanceMeters>
          </Trackpoint>
          <Trackpoint>
            <Time>2021-04-01T09:46:11.000Z</Time>
            <Position>
              <LatitudeDegrees>42.419129200279712677001953125</LatitudeDegrees>
              <LongitudeDegrees>2.7512489072978496551513671875</LongitudeDegrees>
            </Position>
            <AltitudeMeters>1029</AltitudeMeters>
            <DistanceMeters>20116.032618588</DistanceMeters>
          </Trackpoint>
          <Trackpoint>
            <Time>2021-04-01T09:46:12.000Z</Time>
            <Position>
              <LatitudeDegrees>42.41913062520325183868408203125</LatitudeDegrees>
              <LongitudeDegrees>2.7512423694133758544921875</LongitudeDegrees>
            </Position>
            <AltitudeMeters>1029</AltitudeMeters>
            <DistanceMeters>20116.594804212</DistanceMeters>
          </Trackpoint>
          <Trackpoint>
            <Time>2021-04-01T09:46:13.000Z</Time>
            <Position>
              <LatitudeDegrees>42.419132888317108154296875</LatitudeDegrees>
              <LongitudeDegrees>2.7512274496257305145263671875</LongitudeDegrees>
            </Position>
            <AltitudeMeters>1029</AltitudeMeters>
            <DistanceMeters>20117.844685496</DistanceMeters>
          </Trackpoint>
          <Trackpoint>
            <Time>2021-04-01T09:46:15.000Z</Time>
            <Position>
              <LatitudeDegrees>42.41914403624832630157470703125</LatitudeDegrees>
              <LongitudeDegrees>2.751211859285831451416015625</LongitudeDegrees>
            </Position>
            <AltitudeMeters>1029</AltitudeMeters>
            <DistanceMeters>20119.627544691</DistanceMeters>
          </Trackpoint>
          <Trackpoint>
            <Time>2021-04-01T09:46:16.000Z</Time>
            <Position>
              <LatitudeDegrees>42.419144622981548309326171875</LatitudeDegrees>
              <LongitudeDegrees>2.75120473466813564300537109375</LongitudeDegrees>
            </Position>
            <AltitudeMeters>1028.800048828125</AltitudeMeters>
            <DistanceMeters>20120.220986332</DistanceMeters>
          </Trackpoint>
          <Trackpoint>
            <Time>2021-04-01T09:46:20.000Z</Time>
            <Position>
              <LatitudeDegrees>42.41915342397987842559814453125</LatitudeDegrees>
              <LongitudeDegrees>2.751185037195682525634765625</LongitudeDegrees>
            </Position>
            <AltitudeMeters>1028.800048828125</AltitudeMeters>
            <DistanceMeters>20122.111994071</DistanceMeters>
          </Trackpoint>
          <Trackpoint>
            <Time>2021-04-01T09:46:23.000Z</Time>
            <Position>
              <LatitudeDegrees>42.4191518314182758331298828125</LatitudeDegrees>
              <LongitudeDegrees>2.75119300000369548797607421875</LongitudeDegrees>
            </Position>
            <AltitudeMeters>1029.199951171875</AltitudeMeters>
            <DistanceMeters>20122.790620551</DistanceMeters>
          </Trackpoint>
          <Trackpoint>
            <Time>2021-04-01T09:46:25.000Z</Time>
            <Position>
              <LatitudeDegrees>42.41916046477854251861572265625</LatitudeDegrees>
              <LongitudeDegrees>2.751172296702861785888671875</LongitudeDegrees>
            </Position>
            <AltitudeMeters>1029.199951171875</AltitudeMeters>
            <DistanceMeters>20124.74272</DistanceMeters>
          </Trackpoint>
          <Trackpoint>
            <Time>2021-04-01T09:46:26.000Z</Time>
            <Position>
              <LatitudeDegrees>42.41916549392044544219970703125</LatitudeDegrees>
              <LongitudeDegrees>2.75116818957030773162841796875</LongitudeDegrees>
            </Position>
            <AltitudeMeters>1029.199951171875</AltitudeMeters>
            <DistanceMeters>20125.401084389</DistanceMeters>
          </Trackpoint>
          <Trackpoint>
            <Time>2021-04-01T09:46:28.000Z</Time>
            <Position>
              <LatitudeDegrees>42.41917002014815807342529296875</LatitudeDegrees>
              <LongitudeDegrees>2.75116567499935626983642578125</LongitudeDegrees>
            </Position>
            <AltitudeMeters>1029.199951171875</AltitudeMeters>
            <DistanceMeters>20125.95518059</DistanceMeters>
          </Trackpoint>
          <Trackpoint>
            <Time>2021-04-01T09:46:31.000Z</Time>
            <Position>
              <LatitudeDegrees>42.41919114254415035247802734375</LatitudeDegrees>
              <LongitudeDegrees>2.75113784708082675933837890625</LongitudeDegrees>
            </Position>
            <AltitudeMeters>1029.4000244140625</AltitudeMeters>
            <DistanceMeters>20129.233257918</DistanceMeters>
          </Trackpoint>
          <Trackpoint>
            <Time>2021-04-01T09:46:35.000Z</Time>
            <Position>
              <LatitudeDegrees>42.41918988525867462158203125</LatitudeDegrees>
              <LongitudeDegrees>2.75113265030086040496826171875</LongitudeDegrees>
            </Position>
            <AltitudeMeters>1029.5999755859375</AltitudeMeters>
            <DistanceMeters>20129.678972716</DistanceMeters>
          </Trackpoint>
          <Trackpoint>
            <Time>2021-04-01T09:46:42.000Z</Time>
            <Position>
              <LatitudeDegrees>42.419204972684383392333984375</LatitudeDegrees>
              <LongitudeDegrees>2.7511513419449329376220703125</LongitudeDegrees>
            </Position>
            <AltitudeMeters>1029.4000244140625</AltitudeMeters>
            <DistanceMeters>20131.955650972</DistanceMeters>
          </Trackpoint>
          <Trackpoint>
            <Time>2021-04-01T09:46:48.000Z</Time>
            <Position>
              <LatitudeDegrees>42.4192447029054164886474609375</LatitudeDegrees>
              <LongitudeDegrees>2.75113214738667011260986328125</LongitudeDegrees>
            </Position>
            <AltitudeMeters>1029</AltitudeMeters>
            <DistanceMeters>20136.650586179</DistanceMeters>
          </Trackpoint>
          <Trackpoint>
            <Time>2021-04-01T09:46:56.000Z</Time>
            <Position>
              <LatitudeDegrees>42.41931972093880176544189453125</LatitudeDegrees>
              <LongitudeDegrees>2.75110415183007717132568359375</LongitudeDegrees>
            </Position>
            <AltitudeMeters>1028.5999755859375</AltitudeMeters>
            <DistanceMeters>20145.31106047</DistanceMeters>
          </Trackpoint>
          <Trackpoint>
            <Time>2021-04-01T09:47:06.000Z</Time>
            <Position>
              <LatitudeDegrees>42.41929206065833568572998046875</LatitudeDegrees>
              <LongitudeDegrees>2.75113415904343128204345703125</LongitudeDegrees>
            </Position>
            <AltitudeMeters>1028.5999755859375</AltitudeMeters>
            <DistanceMeters>20149.254382881</DistanceMeters>
          </Trackpoint>
          <Trackpoint>
            <Time>2021-04-01T09:47:28.000Z</Time>
            <Position>
              <LatitudeDegrees>42.4192825891077518463134765625</LatitudeDegrees>
              <LongitudeDegrees>2.7511577121913433074951171875</LongitudeDegrees>
            </Position>
            <AltitudeMeters>1028.4000244140625</AltitudeMeters>
            <DistanceMeters>20151.456461683</DistanceMeters>
          </Trackpoint>
          <Trackpoint>
            <Time>2021-04-01T09:47:34.000Z</Time>
            <Position>
              <LatitudeDegrees>42.419282756745815277099609375</LatitudeDegrees>
              <LongitudeDegrees>2.751162238419055938720703125</LongitudeDegrees>
            </Position>
            <AltitudeMeters>1028.4000244140625</AltitudeMeters>
            <DistanceMeters>20151.824498565</DistanceMeters>
          </Trackpoint>
          <Trackpoint>
            <Time>2021-04-01T09:47:35.000Z</Time>
            <Position>
              <LatitudeDegrees>42.41928183473646640777587890625</LatitudeDegrees>
              <LongitudeDegrees>2.75116383098065853118896484375</LongitudeDegrees>
            </Position>
            <AltitudeMeters>1028.4000244140625</AltitudeMeters>
            <DistanceMeters>20152.014551994</DistanceMeters>
          </Trackpoint>
          <Trackpoint>
            <Time>2021-04-01T09:47:42.000Z</Time>
            <Position>
              <LatitudeDegrees>42.41928317584097385406494140625</LatitudeDegrees>
              <LongitudeDegrees>2.7511895634233951568603515625</LongitudeDegrees>
            </Position>
            <AltitudeMeters>1028.199951171875</AltitudeMeters>
            <DistanceMeters>20154.135159942</DistanceMeters>
          </Trackpoint>
          <Trackpoint>
            <Time>2021-04-01T09:47:44.000Z</Time>
            <Position>
              <LatitudeDegrees>42.41928367875516414642333984375</LatitudeDegrees>
              <LongitudeDegrees>2.75118964724242687225341796875</LongitudeDegrees>
            </Position>
            <AltitudeMeters>1028.199951171875</AltitudeMeters>
            <DistanceMeters>20154.135159942</DistanceMeters>
          </Trackpoint>
          <Trackpoint>
            <Time>2021-04-01T09:48:07.000Z</Time>
            <Position>
              <LatitudeDegrees>42.41929759271442890167236328125</LatitudeDegrees>
              <LongitudeDegrees>2.75119216181337833404541015625</LongitudeDegrees>
            </Position>
            <AltitudeMeters>1028.199951171875</AltitudeMeters>
            <DistanceMeters>20155.696608193</DistanceMeters>
          </Trackpoint>
          <Trackpoint>
            <Time>2021-04-01T09:48:15.000Z</Time>
            <Position>
              <LatitudeDegrees>42.419304214417934417724609375</LatitudeDegrees>
              <LongitudeDegrees>2.75118864141404628753662109375</LongitudeDegrees>
            </Position>
            <AltitudeMeters>1028</AltitudeMeters>
            <DistanceMeters>20156.485959366</DistanceMeters>
          </Trackpoint>
          <Trackpoint>
            <Time>2021-04-01T09:48:18.000Z</Time>
            <Position>
              <LatitudeDegrees>42.41930563934147357940673828125</LatitudeDegrees>
              <LongitudeDegrees>2.75116299279034137725830078125</LongitudeDegrees>
            </Position>
            <AltitudeMeters>1028</AltitudeMeters>
            <DistanceMeters>20158.600170292</DistanceMeters>
          </Trackpoint>
          <Trackpoint>
            <Time>2021-04-01T09:48:21.000Z</Time>
            <Position>
              <LatitudeDegrees>42.41931192576885223388671875</LatitudeDegrees>
              <LongitudeDegrees>2.751132734119892120361328125</LongitudeDegrees>
            </Position>
            <AltitudeMeters>1028</AltitudeMeters>
            <DistanceMeters>20161.181680783</DistanceMeters>
          </Trackpoint>
          <Trackpoint>
            <Time>2021-04-01T09:48:31.000Z</Time>
            <Position>
              <LatitudeDegrees>42.419364564120769500732421875</LatitudeDegrees>
              <LongitudeDegrees>2.75108789093792438507080078125</LongitudeDegrees>
            </Position>
            <AltitudeMeters>1028.199951171875</AltitudeMeters>
            <DistanceMeters>20168.103644782</DistanceMeters>
          </Trackpoint>
          <Trackpoint>
            <Time>2021-04-01T09:49:11.000Z</Time>
            <Position>
              <LatitudeDegrees>42.41946858353912830352783203125</LatitudeDegrees>
              <LongitudeDegrees>2.7508868090808391571044921875</LongitudeDegrees>
            </Position>
            <AltitudeMeters>1027.800048828125</AltitudeMeters>
            <DistanceMeters>20188.27842274</DistanceMeters>
          </Trackpoint>
          <Trackpoint>
            <Time>2021-04-01T09:49:14.000Z</Time>
            <Position>
              <LatitudeDegrees>42.41947830654680728912353515625</LatitudeDegrees>
              <LongitudeDegrees>2.7508690394461154937744140625</LongitudeDegrees>
            </Position>
            <AltitudeMeters>1027.800048828125</AltitudeMeters>
            <DistanceMeters>20190.096390831</DistanceMeters>
          </Trackpoint>
          <Trackpoint>
            <Time>2021-04-01T09:49:17.000Z</Time>
            <Position>
              <LatitudeDegrees>42.41948383860290050506591796875</LatitudeDegrees>
              <LongitudeDegrees>2.7508556284010410308837890625</LongitudeDegrees>
            </Position>
            <AltitudeMeters>1027.800048828125</AltitudeMeters>
            <DistanceMeters>20191.357062657</DistanceMeters>
          </Trackpoint>
          <Trackpoint>
            <Time>2021-04-01T09:49:27.000Z</Time>
            <Position>
              <LatitudeDegrees>42.4194896221160888671875</LatitudeDegrees>
              <LongitudeDegrees>2.75084380991756916046142578125</LongitudeDegrees>
            </Position>
            <AltitudeMeters>1027.800048828125</AltitudeMeters>
            <DistanceMeters>20192.524770473</DistanceMeters>
          </Trackpoint>
          <Trackpoint>
            <Time>2021-04-01T09:49:36.000Z</Time>
            <Position>
              <LatitudeDegrees>42.4194968305528163909912109375</LatitudeDegrees>
              <LongitudeDegrees>2.75083660148084163665771484375</LongitudeDegrees>
            </Position>
            <AltitudeMeters>1027.800048828125</AltitudeMeters>
            <DistanceMeters>20193.525939033</DistanceMeters>
          </Trackpoint>
          <Trackpoint>
            <Time>2021-04-01T09:49:45.000Z</Time>
            <Position>
              <LatitudeDegrees>42.41950663737952709197998046875</LatitudeDegrees>
              <LongitudeDegrees>2.75079309940338134765625</LongitudeDegrees>
            </Position>
            <AltitudeMeters>1027.800048828125</AltitudeMeters>
            <DistanceMeters>20197.263522244</DistanceMeters>
          </Trackpoint>
          <Trackpoint>
            <Time>2021-04-01T09:49:51.000Z</Time>
            <Position>
              <LatitudeDegrees>42.4195132590830326080322265625</LatitudeDegrees>
              <LongitudeDegrees>2.75078094564378261566162109375</LongitudeDegrees>
            </Position>
            <AltitudeMeters>1027.800048828125</AltitudeMeters>
            <DistanceMeters>20198.509785919</DistanceMeters>
          </Trackpoint>
          <Trackpoint>
            <Time>2021-04-01T09:49:55.000Z</Time>
            <Position>
              <LatitudeDegrees>42.41951652802526950836181640625</LatitudeDegrees>
              <LongitudeDegrees>2.750771977007389068603515625</LongitudeDegrees>
            </Position>
            <AltitudeMeters>1027.800048828125</AltitudeMeters>
            <DistanceMeters>20199.327236625</DistanceMeters>
          </Trackpoint>
          <Trackpoint>
            <Time>2021-04-01T09:50:16.000Z</Time>
            <Position>
              <LatitudeDegrees>42.41957352496683597564697265625</LatitudeDegrees>
              <LongitudeDegrees>2.75073870085179805755615234375</LongitudeDegrees>
            </Position>
            <AltitudeMeters>1027.800048828125</AltitudeMeters>
            <DistanceMeters>20206.234835624</DistanceMeters>
          </Trackpoint>
          <Trackpoint>
            <Time>2021-04-01T09:50:17.000Z</Time>
            <Position>
              <LatitudeDegrees>42.41957570426166057586669921875</LatitudeDegrees>
              <LongitudeDegrees>2.75073803029954433441162109375</LongitudeDegrees>
            </Position>
            <AltitudeMeters>1027.800048828125</AltitudeMeters>
            <DistanceMeters>20206.503611761</DistanceMeters>
          </Trackpoint>
          <Trackpoint>
            <Time>2021-04-01T09:50:20.000Z</Time>
            <Position>
              <LatitudeDegrees>42.41958106867969036102294921875</LatitudeDegrees>
              <LongitudeDegrees>2.75073652155697345733642578125</LongitudeDegrees>
            </Position>
            <AltitudeMeters>1027.800048828125</AltitudeMeters>
            <DistanceMeters>20207.119455256</DistanceMeters>
          </Trackpoint>
          <Trackpoint>
            <Time>2021-04-01T09:50:21.000Z</Time>
            <Position>
              <LatitudeDegrees>42.41958257742226123809814453125</LatitudeDegrees>
              <LongitudeDegrees>2.75073618628084659576416015625</LongitudeDegrees>
            </Position>
            <AltitudeMeters>1027.800048828125</AltitudeMeters>
            <DistanceMeters>20207.309508684</DistanceMeters>
          </Trackpoint>
          <Trackpoint>
            <Time>2021-04-01T09:50:22.000Z</Time>
            <Position>
              <LatitudeDegrees>42.4195840023458003997802734375</LatitudeDegrees>
              <LongitudeDegrees>2.75073585100471973419189453125</LongitudeDegrees>
            </Position>
            <AltitudeMeters>1027.800048828125</AltitudeMeters>
            <DistanceMeters>20207.443896753</DistanceMeters>
          </Trackpoint>
          <Trackpoint>
            <Time>2021-04-01T09:50:46.000Z</Time>
            <Position>
              <LatitudeDegrees>42.41959095932543277740478515625</LatitudeDegrees>
              <LongitudeDegrees>2.75073266588151454925537109375</LongitudeDegrees>
            </Position>
            <AltitudeMeters>1027.800048828125</AltitudeMeters>
            <DistanceMeters>20208.261347459</DistanceMeters>
          </Trackpoint>
          <Trackpoint>
            <Time>2021-04-01T09:50:48.000Z</Time>
            <Position>
              <LatitudeDegrees>42.4195913784205913543701171875</LatitudeDegrees>
              <LongitudeDegrees>2.75073233060538768768310546875</LongitudeDegrees>
            </Position>
            <AltitudeMeters>1027.800048828125</AltitudeMeters>
            <DistanceMeters>20208.261347459</DistanceMeters>
          </Trackpoint>
          <Trackpoint>
            <Time>2021-04-01T09:50:50.000Z</Time>
            <Position>
              <LatitudeDegrees>42.41959179751574993133544921875</LatitudeDegrees>
              <LongitudeDegrees>2.75073199532926082611083984375</LongitudeDegrees>
            </Position>
            <AltitudeMeters>1035.800048828125</AltitudeMeters>
            <DistanceMeters>20208.261347459</DistanceMeters>
          </Trackpoint>
          <Trackpoint>
            <Time>2021-04-01T09:50:52.000Z</Time>
            <Position>
              <LatitudeDegrees>42.41959221661090850830078125</LatitudeDegrees>
              <LongitudeDegrees>2.7507315762341022491455078125</LongitudeDegrees>
            </Position>
            <AltitudeMeters>1035.800048828125</AltitudeMeters>
            <DistanceMeters>20208.261347459</DistanceMeters>
          </Trackpoint>
          <Trackpoint>
            <Time>2021-04-01T09:50:54.000Z</Time>
            <Position>
              <LatitudeDegrees>42.41959263570606708526611328125</LatitudeDegrees>
              <LongitudeDegrees>2.75073115713894367218017578125</LongitudeDegrees>
            </Position>
            <AltitudeMeters>1035.800048828125</AltitudeMeters>
            <DistanceMeters>20208.261347459</DistanceMeters>
          </Trackpoint>
          <Trackpoint>
            <Time>2021-04-01T09:51:10.000Z</Time>
            <Position>
              <LatitudeDegrees>42.41966153495013713836669921875</LatitudeDegrees>
              <LongitudeDegrees>2.75077767670154571533203125</LongitudeDegrees>
            </Position>
            <AltitudeMeters>1036.800048828125</AltitudeMeters>
            <DistanceMeters>20216.8295749</DistanceMeters>
          </Trackpoint>
          <Trackpoint>
            <Time>2021-04-01T09:51:12.000Z</Time>
            <Position>
              <LatitudeDegrees>42.41970210336148738861083984375</LatitudeDegrees>
              <LongitudeDegrees>2.750810198485851287841796875</LongitudeDegrees>
            </Position>
            <AltitudeMeters>1036.5999755859375</AltitudeMeters>
            <DistanceMeters>20222.075875788</DistanceMeters>
          </Trackpoint>
          <Trackpoint>
            <Time>2021-04-01T09:51:13.000Z</Time>
            <Position>
              <LatitudeDegrees>42.41972439922392368316650390625</LatitudeDegrees>
              <LongitudeDegrees>2.75082570500671863555908203125</LongitudeDegrees>
            </Position>
            <AltitudeMeters>1036.5999755859375</AltitudeMeters>
            <DistanceMeters>20224.864225805</DistanceMeters>
          </Trackpoint>
          <Trackpoint>
            <Time>2021-04-01T09:51:17.000Z</Time>
            <Position>
              <LatitudeDegrees>42.41981710307300090789794921875</LatitudeDegrees>
              <LongitudeDegrees>2.7508992142975330352783203125</LongitudeDegrees>
            </Position>
            <AltitudeMeters>1036.4000244140625</AltitudeMeters>
            <DistanceMeters>20236.820233086</DistanceMeters>
          </Trackpoint>
          <Trackpoint>
            <Time>2021-04-01T09:51:22.000Z</Time>
            <Position>
              <LatitudeDegrees>42.41982816718518733978271484375</LatitudeDegrees>
              <LongitudeDegrees>2.75093919597566127777099609375</LongitudeDegrees>
            </Position>
            <AltitudeMeters>1036</AltitudeMeters>
            <DistanceMeters>20240.327220984</DistanceMeters>
          </Trackpoint>
          <Trackpoint>
            <Time>2021-04-01T09:51:23.000Z</Time>
            <Position>
              <LatitudeDegrees>42.41983487270772457122802734375</LatitudeDegrees>
              <LongitudeDegrees>2.7509407885372638702392578125</LongitudeDegrees>
            </Position>
            <AltitudeMeters>1035.800048828125</AltitudeMeters>
            <DistanceMeters>20241.075462081</DistanceMeters>
          </Trackpoint>
          <Trackpoint>
            <Time>2021-04-01T09:51:24.000Z</Time>
            <Position>
              <LatitudeDegrees>42.41984107531607151031494140625</LatitudeDegrees>
              <LongitudeDegrees>2.7509374357759952545166015625</LongitudeDegrees>
            </Position>
            <AltitudeMeters>1035.5999755859375</AltitudeMeters>
            <DistanceMeters>20241.811535846</DistanceMeters>
          </Trackpoint>
          <Trackpoint>
            <Time>2021-04-01T09:51:27.000Z</Time>
            <Position>
              <LatitudeDegrees>42.4198354594409465789794921875</LatitudeDegrees>
              <LongitudeDegrees>2.75091907940804958343505859375</LongitudeDegrees>
            </Position>
            <AltitudeMeters>1035.5999755859375</AltitudeMeters>
            <DistanceMeters>20243.440904581</DistanceMeters>
          </Trackpoint>
          <Trackpoint>
            <Time>2021-04-01T09:51:28.000Z</Time>
            <Position>
              <LatitudeDegrees>42.41983084939420223236083984375</LatitudeDegrees>
              <LongitudeDegrees>2.7509124577045440673828125</LongitudeDegrees>
            </Position>
            <AltitudeMeters>1035.4000244140625</AltitudeMeters>
            <DistanceMeters>20244.189145678</DistanceMeters>
          </Trackpoint>
          <Trackpoint>
            <Time>2021-04-01T09:51:32.000Z</Time>
            <Position>
              <LatitudeDegrees>42.4198334477841854095458984375</LatitudeDegrees>
              <LongitudeDegrees>2.7508842945098876953125</LongitudeDegrees>
            </Position>
            <AltitudeMeters>1035.800048828125</AltitudeMeters>
            <DistanceMeters>20246.520691521</DistanceMeters>
          </Trackpoint>
          <Trackpoint>
            <Time>2021-04-01T09:51:36.000Z</Time>
            <Position>
              <LatitudeDegrees>42.4198254011571407318115234375</LatitudeDegrees>
              <LongitudeDegrees>2.750889994204044342041015625</LongitudeDegrees>
            </Position>
            <AltitudeMeters>1036.5999755859375</AltitudeMeters>
            <DistanceMeters>20247.535299186</DistanceMeters>
          </Trackpoint>
          <Trackpoint>
            <Time>2021-04-01T09:51:37.000Z</Time>
            <Position>
              <LatitudeDegrees>42.4198264069855213165283203125</LatitudeDegrees>
              <LongitudeDegrees>2.75088387541472911834716796875</LongitudeDegrees>
            </Position>
            <AltitudeMeters>1036.800048828125</AltitudeMeters>
            <DistanceMeters>20248.055781937</DistanceMeters>
          </Trackpoint>
          <Trackpoint>
            <Time>2021-04-01T09:51:43.000Z</Time>
            <Position>
              <LatitudeDegrees>42.41981978528201580047607421875</LatitudeDegrees>
              <LongitudeDegrees>2.75083961896598339080810546875</LongitudeDegrees>
            </Position>
            <AltitudeMeters>1038.199951171875</AltitudeMeters>
            <DistanceMeters>20251.76547687</DistanceMeters>
          </Trackpoint>
          <Trackpoint>
            <Time>2021-04-01T09:51:44.000Z</Time>
            <Position>
              <LatitudeDegrees>42.419822551310062408447265625</LatitudeDegrees>
              <LongitudeDegrees>2.7508318237960338592529296875</LongitudeDegrees>
            </Position>
            <AltitudeMeters>1038.4000244140625</AltitudeMeters>
            <DistanceMeters>20252.470213846</DistanceMeters>
          </Trackpoint>
          <Trackpoint>
            <Time>2021-04-01T09:51:49.000Z</Time>
            <Position>
              <LatitudeDegrees>42.4198414944112300872802734375</LatitudeDegrees>
              <LongitudeDegrees>2.75082067586481571197509765625</LongitudeDegrees>
            </Position>
            <AltitudeMeters>1039</AltitudeMeters>
            <DistanceMeters>20254.770567035</DistanceMeters>
          </Trackpoint>
          <Trackpoint>
            <Time>2021-04-01T09:51:50.000Z</Time>
            <Position>
              <LatitudeDegrees>42.4198450148105621337890625</LatitudeDegrees>
              <LongitudeDegrees>2.75081455707550048828125</LongitudeDegrees>
            </Position>
            <AltitudeMeters>1039.199951171875</AltitudeMeters>
            <DistanceMeters>20255.415069569</DistanceMeters>
          </Trackpoint>
          <Trackpoint>
            <Time>2021-04-01T09:51:51.000Z</Time>
            <Position>
              <LatitudeDegrees>42.419846691191196441650390625</LatitudeDegrees>
              <LongitudeDegrees>2.75081145577132701873779296875</LongitudeDegrees>
            </Position>
            <AltitudeMeters>1039.4000244140625</AltitudeMeters>
            <DistanceMeters>20255.744251764</DistanceMeters>
          </Trackpoint>
          <Trackpoint>
            <Time>2021-04-01T09:51:52.000Z</Time>
            <Position>
              <LatitudeDegrees>42.41985197179019451141357421875</LatitudeDegrees>
              <LongitudeDegrees>2.750809527933597564697265625</LongitudeDegrees>
            </Position>
            <AltitudeMeters>1039.4000244140625</AltitudeMeters>
            <DistanceMeters>20256.352719622</DistanceMeters>
          </Trackpoint>
          <Trackpoint>
            <Time>2021-04-01T09:51:53.000Z</Time>
            <Position>
              <LatitudeDegrees>42.41985901258885860443115234375</LatitudeDegrees>
              <LongitudeDegrees>2.75081179104745388031005859375</LongitudeDegrees>
            </Position>
            <AltitudeMeters>1039.5999755859375</AltitudeMeters>
            <DistanceMeters>20257.159048031</DistanceMeters>
          </Trackpoint>
          <Trackpoint>
            <Time>2021-04-01T09:51:54.000Z</Time>
            <Position>
              <LatitudeDegrees>42.4198639579117298126220703125</LatitudeDegrees>
              <LongitudeDegrees>2.75081112049520015716552734375</LongitudeDegrees>
            </Position>
            <AltitudeMeters>1039.5999755859375</AltitudeMeters>
            <DistanceMeters>20257.713144232</DistanceMeters>
          </Trackpoint>
          <Trackpoint>
            <Time>2021-04-01T09:51:55.000Z</Time>
            <Position>
              <LatitudeDegrees>42.41986907087266445159912109375</LatitudeDegrees>
              <LongitudeDegrees>2.75080676190555095672607421875</LongitudeDegrees>
            </Position>
            <AltitudeMeters>1039.800048828125</AltitudeMeters>
            <DistanceMeters>20258.385084573</DistanceMeters>
          </Trackpoint>
          <Trackpoint>
            <Time>2021-04-01T09:52:00.000Z</Time>
            <Position>
              <LatitudeDegrees>42.4198860861361026763916015625</LatitudeDegrees>
              <LongitudeDegrees>2.75077960453927516937255859375</LongitudeDegrees>
            </Position>
            <AltitudeMeters>1040</AltitudeMeters>
            <DistanceMeters>20261.314004616</DistanceMeters>
          </Trackpoint>
          <Trackpoint>
            <Time>2021-04-01T09:52:06.000Z</Time>
            <Position>
              <LatitudeDegrees>42.41992942057549953460693359375</LatitudeDegrees>
              <LongitudeDegrees>2.7507701329886913299560546875</LongitudeDegrees>
            </Position>
            <AltitudeMeters>1040.199951171875</AltitudeMeters>
            <DistanceMeters>20266.199339</DistanceMeters>
          </Trackpoint>
          <Trackpoint>
            <Time>2021-04-01T09:52:08.000Z</Time>
            <Position>
              <LatitudeDegrees>42.4199414066970348358154296875</LatitudeDegrees>
              <LongitudeDegrees>2.75076426565647125244140625</LongitudeDegrees>
            </Position>
            <AltitudeMeters>1040.4000244140625</AltitudeMeters>
            <DistanceMeters>20267.615205156</DistanceMeters>
          </Trackpoint>
          <Trackpoint>
            <Time>2021-04-01T09:52:09.000Z</Time>
            <Position>
              <LatitudeDegrees>42.4199410714209079742431640625</LatitudeDegrees>
              <LongitudeDegrees>2.75075747631490230560302734375</LongitudeDegrees>
            </Position>
            <AltitudeMeters>1040.4000244140625</AltitudeMeters>
            <DistanceMeters>20268.169301356</DistanceMeters>
          </Trackpoint>
          <Trackpoint>
            <Time>2021-04-01T09:52:13.000Z</Time>
            <Position>
              <LatitudeDegrees>42.41994400508701801300048828125</LatitudeDegrees>
              <LongitudeDegrees>2.7507396228611469268798828125</LongitudeDegrees>
            </Position>
            <AltitudeMeters>1040.800048828125</AltitudeMeters>
            <DistanceMeters>20269.671805636</DistanceMeters>
          </Trackpoint>
          <Trackpoint>
            <Time>2021-04-01T09:52:17.000Z</Time>
            <Position>
              <LatitudeDegrees>42.4199621938169002532958984375</LatitudeDegrees>
              <LongitudeDegrees>2.75072059594094753265380859375</LongitudeDegrees>
            </Position>
            <AltitudeMeters>1041.5999755859375</AltitudeMeters>
            <DistanceMeters>20272.232242219</DistanceMeters>
          </Trackpoint>
          <Trackpoint>
            <Time>2021-04-01T09:52:21.000Z</Time>
            <Position>
              <LatitudeDegrees>42.41998851299285888671875</LatitudeDegrees>
              <LongitudeDegrees>2.75069989264011383056640625</LongitudeDegrees>
            </Position>
            <AltitudeMeters>1041.800048828125</AltitudeMeters>
            <DistanceMeters>20275.61871488</DistanceMeters>
          </Trackpoint>
          <Trackpoint>
            <Time>2021-04-01T09:52:24.000Z</Time>
            <Position>
              <LatitudeDegrees>42.420001924037933349609375</LatitudeDegrees>
              <LongitudeDegrees>2.75069025345146656036376953125</LongitudeDegrees>
            </Position>
            <AltitudeMeters>1041.800048828125</AltitudeMeters>
            <DistanceMeters>20277.307946705</DistanceMeters>
          </Trackpoint>
          <Trackpoint>
            <Time>2021-04-01T09:52:31.000Z</Time>
            <Position>
              <LatitudeDegrees>42.42002514190971851348876953125</LatitudeDegrees>
              <LongitudeDegrees>2.75063761509954929351806640625</LongitudeDegrees>
            </Position>
            <AltitudeMeters>1042.199951171875</AltitudeMeters>
            <DistanceMeters>20282.346155204</DistanceMeters>
          </Trackpoint>
          <Trackpoint>
            <Time>2021-04-01T09:52:32.000Z</Time>
            <Position>
              <LatitudeDegrees>42.42002849467098712921142578125</LatitudeDegrees>
              <LongitudeDegrees>2.75062822736799716949462890625</LongitudeDegrees>
            </Position>
            <AltitudeMeters>1042.4000244140625</AltitudeMeters>
            <DistanceMeters>20283.201395634</DistanceMeters>
          </Trackpoint>
          <Trackpoint>
            <Time>2021-04-01T09:52:33.000Z</Time>
            <Position>
              <LatitudeDegrees>42.42002899758517742156982421875</LatitudeDegrees>
              <LongitudeDegrees>2.750623784959316253662109375</LongitudeDegrees>
            </Position>
            <AltitudeMeters>1042.5999755859375</AltitudeMeters>
            <DistanceMeters>20283.569432516</DistanceMeters>
          </Trackpoint>
          <Trackpoint>
            <Time>2021-04-01T09:52:34.000Z</Time>
            <Position>
              <LatitudeDegrees>42.4200327694416046142578125</LatitudeDegrees>
              <LongitudeDegrees>2.75061582215130329132080078125</LongitudeDegrees>
            </Position>
            <AltitudeMeters>1042.5999755859375</AltitudeMeters>
            <DistanceMeters>20284.341433193</DistanceMeters>
          </Trackpoint>
          <Trackpoint>
            <Time>2021-04-01T09:52:37.000Z</Time>
            <Position>
              <LatitudeDegrees>42.420043163001537322998046875</LatitudeDegrees>
              <LongitudeDegrees>2.75058900006115436553955078125</LongitudeDegrees>
            </Position>
            <AltitudeMeters>1043</AltitudeMeters>
            <DistanceMeters>20286.830335047</DistanceMeters>
          </Trackpoint>
          <Trackpoint>
            <Time>2021-04-01T09:52:41.000Z</Time>
            <Position>
              <LatitudeDegrees>42.420057244598865509033203125</LatitudeDegrees>
              <LongitudeDegrees>2.75054968893527984619140625</LongitudeDegrees>
            </Position>
            <AltitudeMeters>1043.5999755859375</AltitudeMeters>
            <DistanceMeters>20290.420031286</DistanceMeters>
          </Trackpoint>
          <Trackpoint>
            <Time>2021-04-01T09:52:42.000Z</Time>
            <Position>
              <LatitudeDegrees>42.4200607649981975555419921875</LatitudeDegrees>
              <LongitudeDegrees>2.75054155848920345306396484375</LongitudeDegrees>
            </Position>
            <AltitudeMeters>1043.5999755859375</AltitudeMeters>
            <DistanceMeters>20291.192031963</DistanceMeters>
          </Trackpoint>
          <Trackpoint>
            <Time>2021-04-01T09:52:49.000Z</Time>
            <Position>
              <LatitudeDegrees>42.42008901201188564300537109375</LatitudeDegrees>
              <LongitudeDegrees>2.750509120523929595947265625</LongitudeDegrees>
            </Position>
            <AltitudeMeters>1044</AltitudeMeters>
            <DistanceMeters>20295.313387782</DistanceMeters>
          </Trackpoint>
          <Trackpoint>
            <Time>2021-04-01T09:52:50.000Z</Time>
            <Position>
              <LatitudeDegrees>42.42009638808667659759521484375</LatitudeDegrees>
              <LongitudeDegrees>2.75050803087651729583740234375</LongitudeDegrees>
            </Position>
            <AltitudeMeters>1044</AltitudeMeters>
            <DistanceMeters>20296.141811472</DistanceMeters>
          </Trackpoint>
          <Trackpoint>
            <Time>2021-04-01T09:52:55.000Z</Time>
            <Position>
              <LatitudeDegrees>42.42011524736881256103515625</LatitudeDegrees>
              <LongitudeDegrees>2.750484310090541839599609375</LongitudeDegrees>
            </Position>
            <AltitudeMeters>1044.5999755859375</AltitudeMeters>
            <DistanceMeters>20299.008406938</DistanceMeters>
          </Trackpoint>
          <Trackpoint>
            <Time>2021-04-01T09:52:56.000Z</Time>
            <Position>
              <LatitudeDegrees>42.42011700756847858428955078125</LatitudeDegrees>
              <LongitudeDegrees>2.7504781074821949005126953125</LongitudeDegrees>
            </Position>
            <AltitudeMeters>1044.5999755859375</AltitudeMeters>
            <DistanceMeters>20299.562503138</DistanceMeters>
          </Trackpoint>
          <Trackpoint>
            <Time>2021-04-01T09:53:03.000Z</Time>
            <Position>
              <LatitudeDegrees>42.42013670504093170166015625</LatitudeDegrees>
              <LongitudeDegrees>2.75044851936399936676025390625</LongitudeDegrees>
            </Position>
            <AltitudeMeters>1045.5999755859375</AltitudeMeters>
            <DistanceMeters>20302.835066455</DistanceMeters>
          </Trackpoint>
          <Trackpoint>
            <Time>2021-04-01T09:53:04.000Z</Time>
            <Position>
              <LatitudeDegrees>42.42013997398316860198974609375</LatitudeDegrees>
              <LongitudeDegrees>2.7504469268023967742919921875</LongitudeDegrees>
            </Position>
            <AltitudeMeters>1045.800048828125</AltitudeMeters>
            <DistanceMeters>20303.215173312</DistanceMeters>
          </Trackpoint>
          <Trackpoint>
            <Time>2021-04-01T09:53:07.000Z</Time>
            <Position>
              <LatitudeDegrees>42.4201481044292449951171875</LatitudeDegrees>
              <LongitudeDegrees>2.75042890571057796478271484375</LongitudeDegrees>
            </Position>
            <AltitudeMeters>1046</AltitudeMeters>
            <DistanceMeters>20304.949248125</DistanceMeters>
          </Trackpoint>
          <Trackpoint>
            <Time>2021-04-01T09:53:12.000Z</Time>
            <Position>
              <LatitudeDegrees>42.42016193456947803497314453125</LatitudeDegrees>
              <LongitudeDegrees>2.75040124543011188507080078125</LongitudeDegrees>
            </Position>
            <AltitudeMeters>1046.800048828125</AltitudeMeters>
            <DistanceMeters>20307.693530136</DistanceMeters>
          </Trackpoint>
          <Trackpoint>
            <Time>2021-04-01T09:53:13.000Z</Time>
            <Position>
              <LatitudeDegrees>42.420165874063968658447265625</LatitudeDegrees>
              <LongitudeDegrees>2.750393450260162353515625</LongitudeDegrees>
            </Position>
            <AltitudeMeters>1047</AltitudeMeters>
            <DistanceMeters>20308.465530813</DistanceMeters>
          </Trackpoint>
          <Trackpoint>
            <Time>2021-04-01T09:53:20.000Z</Time>
            <Position>
              <LatitudeDegrees>42.42021474055945873260498046875</LatitudeDegrees>
              <LongitudeDegrees>2.7503939531743526458740234375</LongitudeDegrees>
            </Position>
            <AltitudeMeters>1047.800048828125</AltitudeMeters>
            <DistanceMeters>20313.904513294</DistanceMeters>
          </Trackpoint>
          <Trackpoint>
            <Time>2021-04-01T09:53:21.000Z</Time>
            <Position>
              <LatitudeDegrees>42.42022898979485034942626953125</LatitudeDegrees>
              <LongitudeDegrees>2.75038800202310085296630859375</LongitudeDegrees>
            </Position>
            <AltitudeMeters>1048</AltitudeMeters>
            <DistanceMeters>20315.564083514</DistanceMeters>
          </Trackpoint>
          <Trackpoint>
            <Time>2021-04-01T09:53:29.000Z</Time>
            <Position>
              <LatitudeDegrees>42.4202807061374187469482421875</LatitudeDegrees>
              <LongitudeDegrees>2.7503624372184276580810546875</LongitudeDegrees>
            </Position>
            <AltitudeMeters>1049</AltitudeMeters>
            <DistanceMeters>20321.691648924</DistanceMeters>
          </Trackpoint>
          <Trackpoint>
            <Time>2021-04-01T09:53:31.000Z</Time>
            <Position>
              <LatitudeDegrees>42.42029101587831974029541015625</LatitudeDegrees>
              <LongitudeDegrees>2.7503594197332859039306640625</LongitudeDegrees>
            </Position>
            <AltitudeMeters>1049.4000244140625</AltitudeMeters>
            <DistanceMeters>20322.867064466</DistanceMeters>
          </Trackpoint>
          <Trackpoint>
            <Time>2021-04-01T09:53:32.000Z</Time>
            <Position>
              <LatitudeDegrees>42.42029705084860324859619140625</LatitudeDegrees>
              <LongitudeDegrees>2.750356234610080718994140625</LongitudeDegrees>
            </Position>
            <AltitudeMeters>1049.5999755859375</AltitudeMeters>
            <DistanceMeters>20323.590766361</DistanceMeters>
          </Trackpoint>
          <Trackpoint>
            <Time>2021-04-01T09:53:36.000Z</Time>
            <Position>
              <LatitudeDegrees>42.420304678380489349365234375</LatitudeDegrees>
              <LongitudeDegrees>2.7503357827663421630859375</LongitudeDegrees>
            </Position>
            <AltitudeMeters>1050</AltitudeMeters>
            <DistanceMeters>20325.474597575</DistanceMeters>
          </Trackpoint>
          <Trackpoint>
            <Time>2021-04-01T09:53:38.000Z</Time>
            <Position>
              <LatitudeDegrees>42.420307360589504241943359375</LatitudeDegrees>
              <LongitudeDegrees>2.750324048101902008056640625</LongitudeDegrees>
            </Position>
            <AltitudeMeters>1050.199951171875</AltitudeMeters>
            <DistanceMeters>20326.484745405</DistanceMeters>
          </Trackpoint>
          <Trackpoint>
            <Time>2021-04-01T09:53:43.000Z</Time>
            <Position>
              <LatitudeDegrees>42.420329153537750244140625</LatitudeDegrees>
              <LongitudeDegrees>2.75030870921909809112548828125</LongitudeDegrees>
            </Position>
            <AltitudeMeters>1050.5999755859375</AltitudeMeters>
            <DistanceMeters>20329.217486377</DistanceMeters>
          </Trackpoint>
          <Trackpoint>
            <Time>2021-04-01T09:53:46.000Z</Time>
            <Position>
              <LatitudeDegrees>42.42034365423023700714111328125</LatitudeDegrees>
              <LongitudeDegrees>2.75030963122844696044921875</LongitudeDegrees>
            </Position>
            <AltitudeMeters>1051</AltitudeMeters>
            <DistanceMeters>20330.835733011</DistanceMeters>
          </Trackpoint>
          <Trackpoint>
            <Time>2021-04-01T09:53:47.000Z</Time>
            <Position>
              <LatitudeDegrees>42.42035128176212310791015625</LatitudeDegrees>
              <LongitudeDegrees>2.75031021796166896820068359375</LongitudeDegrees>
            </Position>
            <AltitudeMeters>1051.199951171875</AltitudeMeters>
            <DistanceMeters>20331.685677783</DistanceMeters>
          </Trackpoint>
          <Trackpoint>
            <Time>2021-04-01T09:53:55.000Z</Time>
            <Position>
              <LatitudeDegrees>42.42039562202990055084228515625</LatitudeDegrees>
              <LongitudeDegrees>2.75027853436768054962158203125</LongitudeDegrees>
            </Position>
            <AltitudeMeters>1051.800048828125</AltitudeMeters>
            <DistanceMeters>20337.263996833</DistanceMeters>
          </Trackpoint>
          <Trackpoint>
            <Time>2021-04-01T09:53:59.000Z</Time>
            <Position>
              <LatitudeDegrees>42.420407943427562713623046875</LatitudeDegrees>
              <LongitudeDegrees>2.7502740919589996337890625</LongitudeDegrees>
            </Position>
            <AltitudeMeters>1052</AltitudeMeters>
            <DistanceMeters>20338.683048294</DistanceMeters>
          </Trackpoint>
          <Trackpoint>
            <Time>2021-04-01T09:54:03.000Z</Time>
            <Position>
              <LatitudeDegrees>42.42042076773941516876220703125</LatitudeDegrees>
              <LongitudeDegrees>2.750266380608081817626953125</LongitudeDegrees>
            </Position>
            <AltitudeMeters>1052.800048828125</AltitudeMeters>
            <DistanceMeters>20340.244496544</DistanceMeters>
          </Trackpoint>
          <Trackpoint>
            <Time>2021-04-01T09:54:06.000Z</Time>
            <Position>
              <LatitudeDegrees>42.4204319156706333160400390625</LatitudeDegrees>
              <LongitudeDegrees>2.75025464594364166259765625</LongitudeDegrees>
            </Position>
            <AltitudeMeters>1053.199951171875</AltitudeMeters>
            <DistanceMeters>20341.817468555</DistanceMeters>
          </Trackpoint>
          <Trackpoint>
            <Time>2021-04-01T09:54:12.000Z</Time>
            <Position>
              <LatitudeDegrees>42.420453540980815887451171875</LatitudeDegrees>
              <LongitudeDegrees>2.75022237561643123626708984375</LongitudeDegrees>
            </Position>
            <AltitudeMeters>1053.800048828125</AltitudeMeters>
            <DistanceMeters>20345.39961018</DistanceMeters>
          </Trackpoint>
          <Trackpoint>
            <Time>2021-04-01T09:54:14.000Z</Time>
            <Position>
              <LatitudeDegrees>42.4204594083130359649658203125</LatitudeDegrees>
              <LongitudeDegrees>2.7502098865807056427001953125</LongitudeDegrees>
            </Position>
            <AltitudeMeters>1054.199951171875</AltitudeMeters>
            <DistanceMeters>20346.616545896</DistanceMeters>
          </Trackpoint>
          <Trackpoint>
            <Time>2021-04-01T09:54:22.000Z</Time>
            <Position>
              <LatitudeDegrees>42.42048631422221660614013671875</LatitudeDegrees>
              <LongitudeDegrees>2.75017258711159229278564453125</LongitudeDegrees>
            </Position>
            <AltitudeMeters>1055.199951171875</AltitudeMeters>
            <DistanceMeters>20350.900132634</DistanceMeters>
          </Trackpoint>
          <Trackpoint>
            <Time>2021-04-01T09:54:23.000Z</Time>
            <Position>
              <LatitudeDegrees>42.42048933170735836029052734375</LatitudeDegrees>
              <LongitudeDegrees>2.75016655214130878448486328125</LongitudeDegrees>
            </Position>
            <AltitudeMeters>1055.4000244140625</AltitudeMeters>
            <DistanceMeters>20351.501134345</DistanceMeters>
          </Trackpoint>
          <Trackpoint>
            <Time>2021-04-01T09:54:27.000Z</Time>
            <Position>
              <LatitudeDegrees>42.42050508968532085418701171875</LatitudeDegrees>
              <LongitudeDegrees>2.7501488663256168365478515625</LongitudeDegrees>
            </Position>
            <AltitudeMeters>1056</AltitudeMeters>
            <DistanceMeters>20353.777812601</DistanceMeters>
          </Trackpoint>
          <Trackpoint>
            <Time>2021-04-01T09:54:28.000Z</Time>
            <Position>
              <LatitudeDegrees>42.42050944827497005462646484375</LatitudeDegrees>
              <LongitudeDegrees>2.75014425627887248992919921875</LongitudeDegrees>
            </Position>
            <AltitudeMeters>1056.199951171875</AltitudeMeters>
            <DistanceMeters>20354.393656096</DistanceMeters>
          </Trackpoint>
          <Trackpoint>
            <Time>2021-04-01T09:54:31.000Z</Time>
            <Position>
              <LatitudeDegrees>42.42052084766328334808349609375</LatitudeDegrees>
              <LongitudeDegrees>2.750134952366352081298828125</LongitudeDegrees>
            </Position>
            <AltitudeMeters>1056.5999755859375</AltitudeMeters>
            <DistanceMeters>20355.871924847</DistanceMeters>
          </Trackpoint>
          <Trackpoint>
            <Time>2021-04-01T09:54:33.000Z</Time>
            <Position>
              <LatitudeDegrees>42.4205267988145351409912109375</LatitudeDegrees>
              <LongitudeDegrees>2.75012724101543426513671875</LongitudeDegrees>
            </Position>
            <AltitudeMeters>1057</AltitudeMeters>
            <DistanceMeters>20356.793243025</DistanceMeters>
          </Trackpoint>
          <Trackpoint>
            <Time>2021-04-01T09:54:37.000Z</Time>
            <Position>
              <LatitudeDegrees>42.42055119015276432037353515625</LatitudeDegrees>
              <LongitudeDegrees>2.75012321770191192626953125</LongitudeDegrees>
            </Position>
            <AltitudeMeters>1057.4000244140625</AltitudeMeters>
            <DistanceMeters>20359.527635699</DistanceMeters>
          </Trackpoint>
          <Trackpoint>
            <Time>2021-04-01T09:54:40.000Z</Time>
            <Position>
              <LatitudeDegrees>42.4205834604799747467041015625</LatitudeDegrees>
              <LongitudeDegrees>2.75011994875967502593994140625</LongitudeDegrees>
            </Position>
            <AltitudeMeters>1057.4000244140625</AltitudeMeters>
            <DistanceMeters>20363.12863414</DistanceMeters>
          </Trackpoint>
          <Trackpoint>
            <Time>2021-04-01T09:54:43.000Z</Time>
            <Position>
              <LatitudeDegrees>42.42060483433306217193603515625</LatitudeDegrees>
              <LongitudeDegrees>2.750114835798740386962890625</LongitudeDegrees>
            </Position>
            <AltitudeMeters>1057.5999755859375</AltitudeMeters>
            <DistanceMeters>20365.543883482</DistanceMeters>
          </Trackpoint>
          <Trackpoint>
            <Time>2021-04-01T09:54:46.000Z</Time>
            <Position>
              <LatitudeDegrees>42.420608438551425933837890625</LatitudeDegrees>
              <LongitudeDegrees>2.75012548081576824188232421875</LongitudeDegrees>
            </Position>
            <AltitudeMeters>1057.5999755859375</AltitudeMeters>
            <DistanceMeters>20366.498890142</DistanceMeters>
          </Trackpoint>
          <Trackpoint>
            <Time>2021-04-01T09:54:47.000Z</Time>
            <Position>
              <LatitudeDegrees>42.4206119589507579803466796875</LatitudeDegrees>
              <LongitudeDegrees>2.75012514553964138031005859375</LongitudeDegrees>
            </Position>
            <AltitudeMeters>1057.5999755859375</AltitudeMeters>
            <DistanceMeters>20366.890695323</DistanceMeters>
          </Trackpoint>
          <Trackpoint>
            <Time>2021-04-01T09:54:54.000Z</Time>
            <Position>
              <LatitudeDegrees>42.420654706656932830810546875</LatitudeDegrees>
              <LongitudeDegrees>2.7501059509813785552978515625</LongitudeDegrees>
            </Position>
            <AltitudeMeters>1057.5999755859375</AltitudeMeters>
            <DistanceMeters>20371.902847821</DistanceMeters>
          </Trackpoint>
          <Trackpoint>
            <Time>2021-04-01T09:54:57.000Z</Time>
            <Position>
              <LatitudeDegrees>42.42069200612604618072509765625</LatitudeDegrees>
              <LongitudeDegrees>2.75009379722177982330322265625</LongitudeDegrees>
            </Position>
            <AltitudeMeters>1057.5999755859375</AltitudeMeters>
            <DistanceMeters>20376.172710154</DistanceMeters>
          </Trackpoint>
          <Trackpoint>
            <Time>2021-04-01T09:55:02.000Z</Time>
            <Position>
              <LatitudeDegrees>42.42072905413806438446044921875</LatitudeDegrees>
              <LongitudeDegrees>2.75008256547152996063232421875</LongitudeDegrees>
            </Position>
            <AltitudeMeters>1057.5999755859375</AltitudeMeters>
            <DistanceMeters>20380.3989959</DistanceMeters>
          </Trackpoint>
          <Trackpoint>
            <Time>2021-04-01T09:55:07.000Z</Time>
            <Position>
              <LatitudeDegrees>42.4207702092826366424560546875</LatitudeDegrees>
              <LongitudeDegrees>2.75007569231092929840087890625</LongitudeDegrees>
            </Position>
            <AltitudeMeters>1057.800048828125</AltitudeMeters>
            <DistanceMeters>20385.015377644</DistanceMeters>
          </Trackpoint>
          <Trackpoint>
            <Time>2021-04-01T09:55:11.000Z</Time>
            <Position>
              <LatitudeDegrees>42.42080030031502246856689453125</LatitudeDegrees>
              <LongitudeDegrees>2.75005104951560497283935546875</LongitudeDegrees>
            </Position>
            <AltitudeMeters>1058</AltitudeMeters>
            <DistanceMeters>20388.928817263</DistanceMeters>
          </Trackpoint>
          <Trackpoint>
            <Time>2021-04-01T09:55:13.000Z</Time>
            <Position>
              <LatitudeDegrees>42.42080382071435451507568359375</LatitudeDegrees>
              <LongitudeDegrees>2.7500476129353046417236328125</LongitudeDegrees>
            </Position>
            <AltitudeMeters>1058.199951171875</AltitudeMeters>
            <DistanceMeters>20389.413360334</DistanceMeters>
          </Trackpoint>
          <Trackpoint>
            <Time>2021-04-01T09:55:14.000Z</Time>
            <Position>
              <LatitudeDegrees>42.4208077602088451385498046875</LatitudeDegrees>
              <LongitudeDegrees>2.7500429190695285797119140625</LongitudeDegrees>
            </Position>
            <AltitudeMeters>1058.4000244140625</AltitudeMeters>
            <DistanceMeters>20389.991385271</DistanceMeters>
          </Trackpoint>
          <Trackpoint>
            <Time>2021-04-01T09:55:15.000Z</Time>
            <Position>
              <LatitudeDegrees>42.4208124540746212005615234375</LatitudeDegrees>
              <LongitudeDegrees>2.75004006922245025634765625</LongitudeDegrees>
            </Position>
            <AltitudeMeters>1058.5999755859375</AltitudeMeters>
            <DistanceMeters>20390.569410209</DistanceMeters>
          </Trackpoint>
          <Trackpoint>
            <Time>2021-04-01T09:55:16.000Z</Time>
            <Position>
              <LatitudeDegrees>42.4208164773881435394287109375</LatitudeDegrees>
              <LongitudeDegrees>2.7500368840992450714111328125</LongitudeDegrees>
            </Position>
            <AltitudeMeters>1058.5999755859375</AltitudeMeters>
            <DistanceMeters>20391.098496563</DistanceMeters>
          </Trackpoint>
          <Trackpoint>
            <Time>2021-04-01T09:55:20.000Z</Time>
            <Position>
              <LatitudeDegrees>42.42082980461418628692626953125</LatitudeDegrees>
              <LongitudeDegrees>2.750020958483219146728515625</LongitudeDegrees>
            </Position>
            <AltitudeMeters>1059.5999755859375</AltitudeMeters>
            <DistanceMeters>20393.078156426</DistanceMeters>
          </Trackpoint>
          <Trackpoint>
            <Time>2021-04-01T09:55:22.000Z</Time>
            <Position>
              <LatitudeDegrees>42.42082871496677398681640625</LatitudeDegrees>
              <LongitudeDegrees>2.750005535781383514404296875</LongitudeDegrees>
            </Position>
            <AltitudeMeters>1059.800048828125</AltitudeMeters>
            <DistanceMeters>20394.353073584</DistanceMeters>
          </Trackpoint>
          <Trackpoint>
            <Time>2021-04-01T09:55:25.000Z</Time>
            <Position>
              <LatitudeDegrees>42.42083298973739147186279296875</LatitudeDegrees>
              <LongitudeDegrees>2.7499956451356410980224609375</LongitudeDegrees>
            </Position>
            <AltitudeMeters>1060.4000244140625</AltitudeMeters>
            <DistanceMeters>20395.298577454</DistanceMeters>
          </Trackpoint>
          <Trackpoint>
            <Time>2021-04-01T09:55:26.000Z</Time>
            <Position>
              <LatitudeDegrees>42.4208335764706134796142578125</LatitudeDegrees>
              <LongitudeDegrees>2.74999053217470645904541015625</LongitudeDegrees>
            </Position>
            <AltitudeMeters>1060.5999755859375</AltitudeMeters>
            <DistanceMeters>20395.72354984</DistanceMeters>
          </Trackpoint>
          <Trackpoint>
            <Time>2021-04-01T09:55:29.000Z</Time>
            <Position>
              <LatitudeDegrees>42.4208427965641021728515625</LatitudeDegrees>
              <LongitudeDegrees>2.74997091852128505706787109375</LongitudeDegrees>
            </Position>
            <AltitudeMeters>1061</AltitudeMeters>
            <DistanceMeters>20397.633563161</DistanceMeters>
          </Trackpoint>
          <Trackpoint>
            <Time>2021-04-01T09:55:33.000Z</Time>
            <Position>
              <LatitudeDegrees>42.4208439700305461883544921875</LatitudeDegrees>
              <LongitudeDegrees>2.74994879029691219329833984375</LongitudeDegrees>
            </Position>
            <AltitudeMeters>1061.4000244140625</AltitudeMeters>
            <DistanceMeters>20399.45649161</DistanceMeters>
          </Trackpoint>
          <Trackpoint>
            <Time>2021-04-01T09:55:35.000Z</Time>
            <Position>
              <LatitudeDegrees>42.42084992118179798126220703125</LatitudeDegrees>
              <LongitudeDegrees>2.7499336190521717071533203125</LongitudeDegrees>
            </Position>
            <AltitudeMeters>1061.800048828125</AltitudeMeters>
            <DistanceMeters>20400.865965561</DistanceMeters>
          </Trackpoint>
          <Trackpoint>
            <Time>2021-04-01T09:55:39.000Z</Time>
            <Position>
              <LatitudeDegrees>42.420848496258258819580078125</LatitudeDegrees>
              <LongitudeDegrees>2.7499269135296344757080078125</LongitudeDegrees>
            </Position>
            <AltitudeMeters>1062.5999755859375</AltitudeMeters>
            <DistanceMeters>20401.436125847</DistanceMeters>
          </Trackpoint>
          <Trackpoint>
            <Time>2021-04-01T09:55:41.000Z</Time>
            <Position>
              <LatitudeDegrees>42.420847825706005096435546875</LatitudeDegrees>
              <LongitudeDegrees>2.7499285899102687835693359375</LongitudeDegrees>
            </Position>
            <AltitudeMeters>1062.800048828125</AltitudeMeters>
            <DistanceMeters>20401.600716944</DistanceMeters>
          </Trackpoint>
          <Trackpoint>
            <Time>2021-04-01T09:55:48.000Z</Time>
            <Position>
              <LatitudeDegrees>42.4208379350602626800537109375</LatitudeDegrees>
              <LongitudeDegrees>2.74991626851260662078857421875</LongitudeDegrees>
            </Position>
            <AltitudeMeters>1063.800048828125</AltitudeMeters>
            <DistanceMeters>20403.097199139</DistanceMeters>
          </Trackpoint>
          <Trackpoint>
            <Time>2021-04-01T09:55:51.000Z</Time>
            <Position>
              <LatitudeDegrees>42.4208379350602626800537109375</LatitudeDegrees>
              <LongitudeDegrees>2.74991626851260662078857421875</LongitudeDegrees>
            </Position>
            <AltitudeMeters>1064.199951171875</AltitudeMeters>
            <DistanceMeters>20403.097199139</DistanceMeters>
          </Trackpoint>
          <Trackpoint>
            <Time>2021-04-01T09:55:55.000Z</Time>
            <Position>
              <LatitudeDegrees>42.4208379350602626800537109375</LatitudeDegrees>
              <LongitudeDegrees>2.74991626851260662078857421875</LongitudeDegrees>
            </Position>
            <AltitudeMeters>1065</AltitudeMeters>
            <DistanceMeters>20403.097199139</DistanceMeters>
          </Trackpoint>
          <Trackpoint>
            <Time>2021-04-01T09:56:02.000Z</Time>
            <Position>
              <LatitudeDegrees>42.42083885706961154937744140625</LatitudeDegrees>
              <LongitudeDegrees>2.7498957328498363494873046875</LongitudeDegrees>
            </Position>
            <AltitudeMeters>1066</AltitudeMeters>
            <DistanceMeters>20404.789101687</DistanceMeters>
          </Trackpoint>
          <Trackpoint>
            <Time>2021-04-01T09:56:08.000Z</Time>
            <Position>
              <LatitudeDegrees>42.4208389408886432647705078125</LatitudeDegrees>
              <LongitudeDegrees>2.7498504705727100372314453125</LongitudeDegrees>
            </Position>
            <AltitudeMeters>1067</AltitudeMeters>
            <DistanceMeters>20408.508520608</DistanceMeters>
          </Trackpoint>
          <Trackpoint>
            <Time>2021-04-01T09:56:11.000Z</Time>
            <Position>
              <LatitudeDegrees>42.4208389408886432647705078125</LatitudeDegrees>
              <LongitudeDegrees>2.74984158575534820556640625</LongitudeDegrees>
            </Position>
            <AltitudeMeters>1067.4000244140625</AltitudeMeters>
            <DistanceMeters>20409.244594373</DistanceMeters>
          </Trackpoint>
          <Trackpoint>
            <Time>2021-04-01T09:56:16.000Z</Time>
            <Position>
              <LatitudeDegrees>42.420839108526706695556640625</LatitudeDegrees>
              <LongitudeDegrees>2.74982255883514881134033203125</LongitudeDegrees>
            </Position>
            <AltitudeMeters>1068</AltitudeMeters>
            <DistanceMeters>20410.811815095</DistanceMeters>
          </Trackpoint>
          <Trackpoint>
            <Time>2021-04-01T09:56:18.000Z</Time>
            <Position>
              <LatitudeDegrees>42.42083935998380184173583984375</LatitudeDegrees>
              <LongitudeDegrees>2.7498105727136135101318359375</LongitudeDegrees>
            </Position>
            <AltitudeMeters>1068.4000244140625</AltitudeMeters>
            <DistanceMeters>20411.794779072</DistanceMeters>
          </Trackpoint>
          <Trackpoint>
            <Time>2021-04-01T09:56:26.000Z</Time>
            <Position>
              <LatitudeDegrees>42.4208406172692775726318359375</LatitudeDegrees>
              <LongitudeDegrees>2.7497783862054347991943359375</LongitudeDegrees>
            </Position>
            <AltitudeMeters>1069.199951171875</AltitudeMeters>
            <DistanceMeters>20414.441917021</DistanceMeters>
          </Trackpoint>
          <Trackpoint>
            <Time>2021-04-01T09:56:29.000Z</Time>
            <Position>
              <LatitudeDegrees>42.42084204219281673431396484375</LatitudeDegrees>
              <LongitudeDegrees>2.7497676573693752288818359375</LongitudeDegrees>
            </Position>
            <AltitudeMeters>1069.5999755859375</AltitudeMeters>
            <DistanceMeters>20415.333346618</DistanceMeters>
          </Trackpoint>
          <Trackpoint>
            <Time>2021-04-01T09:56:33.000Z</Time>
            <Position>
              <LatitudeDegrees>42.42084908299148082733154296875</LatitudeDegrees>
              <LongitudeDegrees>2.74974594824016094207763671875</LongitudeDegrees>
            </Position>
            <AltitudeMeters>1070.199951171875</AltitudeMeters>
            <DistanceMeters>20417.285446067</DistanceMeters>
          </Trackpoint>
          <Trackpoint>
            <Time>2021-04-01T09:56:40.000Z</Time>
            <Position>
              <LatitudeDegrees>42.42086769081652164459228515625</LatitudeDegrees>
              <LongitudeDegrees>2.74969381280243396759033203125</LongitudeDegrees>
            </Position>
            <AltitudeMeters>1071.199951171875</AltitudeMeters>
            <DistanceMeters>20422.044377851</DistanceMeters>
          </Trackpoint>
          <Trackpoint>
            <Time>2021-04-01T09:56:45.000Z</Time>
            <Position>
              <LatitudeDegrees>42.42088831029832363128662109375</LatitudeDegrees>
              <LongitudeDegrees>2.7496607042849063873291015625</LongitudeDegrees>
            </Position>
            <AltitudeMeters>1071.800048828125</AltitudeMeters>
            <DistanceMeters>20425.605027697</DistanceMeters>
          </Trackpoint>
          <Trackpoint>
            <Time>2021-04-01T09:56:50.000Z</Time>
            <Position>
              <LatitudeDegrees>42.42089266888797283172607421875</LatitudeDegrees>
              <LongitudeDegrees>2.74959004484117031097412109375</LongitudeDegrees>
            </Position>
            <AltitudeMeters>1072</AltitudeMeters>
            <DistanceMeters>20431.430405562</DistanceMeters>
          </Trackpoint>
          <Trackpoint>
            <Time>2021-04-01T09:56:55.000Z</Time>
            <Position>
              <LatitudeDegrees>42.420902810990810394287109375</LatitudeDegrees>
              <LongitudeDegrees>2.74949700571596622467041015625</LongitudeDegrees>
            </Position>
            <AltitudeMeters>1072.4000244140625</AltitudeMeters>
            <DistanceMeters>20439.157427333</DistanceMeters>
          </Trackpoint>
          <Trackpoint>
            <Time>2021-04-01T09:56:59.000Z</Time>
            <Position>
              <LatitudeDegrees>42.42089970968663692474365234375</LatitudeDegrees>
              <LongitudeDegrees>2.74944637902081012725830078125</LongitudeDegrees>
            </Position>
            <AltitudeMeters>1072.800048828125</AltitudeMeters>
            <DistanceMeters>20443.332118644</DistanceMeters>
          </Trackpoint>
          <Trackpoint>
            <Time>2021-04-01T09:57:03.000Z</Time>
            <Position>
              <LatitudeDegrees>42.42088043130934238433837890625</LatitudeDegrees>
              <LongitudeDegrees>2.74941570125520229339599609375</LongitudeDegrees>
            </Position>
            <AltitudeMeters>1073</AltitudeMeters>
            <DistanceMeters>20446.643087203</DistanceMeters>
          </Trackpoint>
          <Trackpoint>
            <Time>2021-04-01T09:57:05.000Z</Time>
            <Position>
              <LatitudeDegrees>42.4208728037774562835693359375</LatitudeDegrees>
              <LongitudeDegrees>2.74940212257206439971923828125</LongitudeDegrees>
            </Position>
            <AltitudeMeters>1073</AltitudeMeters>
            <DistanceMeters>20448.046139827</DistanceMeters>
          </Trackpoint>
          <Trackpoint>
            <Time>2021-04-01T09:57:08.000Z</Time>
            <Position>
              <LatitudeDegrees>42.42085712961852550506591796875</LatitudeDegrees>
              <LongitudeDegrees>2.74938619695603847503662109375</LongitudeDegrees>
            </Position>
            <AltitudeMeters>1073.4000244140625</AltitudeMeters>
            <DistanceMeters>20450.229687482</DistanceMeters>
          </Trackpoint>
          <Trackpoint>
            <Time>2021-04-01T09:57:10.000Z</Time>
            <Position>
              <LatitudeDegrees>42.4208456464111804962158203125</LatitudeDegrees>
              <LongitudeDegrees>2.74938032962381839752197265625</LongitudeDegrees>
            </Position>
            <AltitudeMeters>1073.5999755859375</AltitudeMeters>
            <DistanceMeters>20451.600182247</DistanceMeters>
          </Trackpoint>
          <Trackpoint>
            <Time>2021-04-01T09:57:18.000Z</Time>
            <Position>
              <LatitudeDegrees>42.4207876436412334442138671875</LatitudeDegrees>
              <LongitudeDegrees>2.74934797547757625579833984375</LongitudeDegrees>
            </Position>
            <AltitudeMeters>1074</AltitudeMeters>
            <DistanceMeters>20458.581897842</DistanceMeters>
          </Trackpoint>
          <Trackpoint>
            <Time>2021-04-01T09:57:23.000Z</Time>
            <Position>
              <LatitudeDegrees>42.42077850736677646636962890625</LatitudeDegrees>
              <LongitudeDegrees>2.74931252002716064453125</LongitudeDegrees>
            </Position>
            <AltitudeMeters>1074</AltitudeMeters>
            <DistanceMeters>20461.666974919</DistanceMeters>
          </Trackpoint>
          <Trackpoint>
            <Time>2021-04-01T09:57:24.000Z</Time>
            <Position>
              <LatitudeDegrees>42.4207826144993305206298828125</LatitudeDegrees>
              <LongitudeDegrees>2.74931277148425579071044921875</LongitudeDegrees>
            </Position>
            <AltitudeMeters>1073.800048828125</AltitudeMeters>
            <DistanceMeters>20462.132508843</DistanceMeters>
          </Trackpoint>
          <Trackpoint>
            <Time>2021-04-01T09:57:28.000Z</Time>
            <Position>
              <LatitudeDegrees>42.42080750875174999237060546875</LatitudeDegrees>
              <LongitudeDegrees>2.7493381686508655548095703125</LongitudeDegrees>
            </Position>
            <AltitudeMeters>1073.800048828125</AltitudeMeters>
            <DistanceMeters>20465.601960082</DistanceMeters>
          </Trackpoint>
          <Trackpoint>
            <Time>2021-04-01T09:57:30.000Z</Time>
            <Position>
              <LatitudeDegrees>42.42081907577812671661376953125</LatitudeDegrees>
              <LongitudeDegrees>2.7493351511657238006591796875</LongitudeDegrees>
            </Position>
            <AltitudeMeters>1074</AltitudeMeters>
            <DistanceMeters>20466.911812946</DistanceMeters>
          </Trackpoint>
          <Trackpoint>
            <Time>2021-04-01T09:57:31.000Z</Time>
            <Position>
              <LatitudeDegrees>42.42081907577812671661376953125</LatitudeDegrees>
              <LongitudeDegrees>2.7493351511657238006591796875</LongitudeDegrees>
            </Position>
            <AltitudeMeters>1074</AltitudeMeters>
            <DistanceMeters>20466.911812946</DistanceMeters>
          </Trackpoint>
          <Trackpoint>
            <Time>2021-04-01T09:57:34.000Z</Time>
            <Position>
              <LatitudeDegrees>42.42083684541285037994384765625</LatitudeDegrees>
              <LongitudeDegrees>2.7493532560765743255615234375</LongitudeDegrees>
            </Position>
            <AltitudeMeters>1074.4000244140625</AltitudeMeters>
            <DistanceMeters>20469.387983761</DistanceMeters>
          </Trackpoint>
          <Trackpoint>
            <Time>2021-04-01T09:57:37.000Z</Time>
            <Position>
              <LatitudeDegrees>42.4208536930382251739501953125</LatitudeDegrees>
              <LongitudeDegrees>2.74935342371463775634765625</LongitudeDegrees>
            </Position>
            <AltitudeMeters>1074.800048828125</AltitudeMeters>
            <DistanceMeters>20471.264611005</DistanceMeters>
          </Trackpoint>
          <Trackpoint>
            <Time>2021-04-01T09:57:38.000Z</Time>
            <Position>
              <LatitudeDegrees>42.42085830308496952056884765625</LatitudeDegrees>
              <LongitudeDegrees>2.74935568682849407196044921875</LongitudeDegrees>
            </Position>
            <AltitudeMeters>1075</AltitudeMeters>
            <DistanceMeters>20471.810497919</DistanceMeters>
          </Trackpoint>
          <Trackpoint>
            <Time>2021-04-01T09:57:41.000Z</Time>
            <Position>
              <LatitudeDegrees>42.4208776652812957763671875</LatitudeDegrees>
              <LongitudeDegrees>2.74935417808592319488525390625</LongitudeDegrees>
            </Position>
            <AltitudeMeters>1075.4000244140625</AltitudeMeters>
            <DistanceMeters>20473.969089924</DistanceMeters>
          </Trackpoint>
          <Trackpoint>
            <Time>2021-04-01T09:57:43.000Z</Time>
            <Position>
              <LatitudeDegrees>42.42089384235441684722900390625</LatitudeDegrees>
              <LongitudeDegrees>2.749345712363719940185546875</LongitudeDegrees>
            </Position>
            <AltitudeMeters>1075.4000244140625</AltitudeMeters>
            <DistanceMeters>20475.897921564</DistanceMeters>
          </Trackpoint>
          <Trackpoint>
            <Time>2021-04-01T09:57:45.000Z</Time>
            <Position>
              <LatitudeDegrees>42.42091119289398193359375</LatitudeDegrees>
              <LongitudeDegrees>2.74934395216405391693115234375</LongitudeDegrees>
            </Position>
            <AltitudeMeters>1075.4000244140625</AltitudeMeters>
            <DistanceMeters>20477.831429166</DistanceMeters>
          </Trackpoint>
          <Trackpoint>
            <Time>2021-04-01T09:57:46.000Z</Time>
            <Position>
              <LatitudeDegrees>42.420918233692646026611328125</LatitudeDegrees>
              <LongitudeDegrees>2.74934001266956329345703125</LongitudeDegrees>
            </Position>
            <AltitudeMeters>1075.5999755859375</AltitudeMeters>
            <DistanceMeters>20478.676045078</DistanceMeters>
          </Trackpoint>
          <Trackpoint>
            <Time>2021-04-01T09:57:50.000Z</Time>
            <Position>
              <LatitudeDegrees>42.4209485761821269989013671875</LatitudeDegrees>
              <LongitudeDegrees>2.7493178844451904296875</LongitudeDegrees>
            </Position>
            <AltitudeMeters>1075.800048828125</AltitudeMeters>
            <DistanceMeters>20482.512583179</DistanceMeters>
          </Trackpoint>
          <Trackpoint>
            <Time>2021-04-01T09:57:52.000Z</Time>
            <Position>
              <LatitudeDegrees>42.42096374742686748504638671875</LatitudeDegrees>
              <LongitudeDegrees>2.7493066526949405670166015625</LongitudeDegrees>
            </Position>
            <AltitudeMeters>1076</AltitudeMeters>
            <DistanceMeters>20484.436727494</DistanceMeters>
          </Trackpoint>
          <Trackpoint>
            <Time>2021-04-01T09:57:54.000Z</Time>
            <Position>
              <LatitudeDegrees>42.42097011767327785491943359375</LatitudeDegrees>
              <LongitudeDegrees>2.74929734878242015838623046875</LongitudeDegrees>
            </Position>
            <AltitudeMeters>1076.199951171875</AltitudeMeters>
            <DistanceMeters>20485.482021352</DistanceMeters>
          </Trackpoint>
          <Trackpoint>
            <Time>2021-04-01T09:57:55.000Z</Time>
            <Position>
              <LatitudeDegrees>42.42097548209130764007568359375</LatitudeDegrees>
              <LongitudeDegrees>2.749288044869899749755859375</LongitudeDegrees>
            </Position>
            <AltitudeMeters>1076.4000244140625</AltitudeMeters>
            <DistanceMeters>20486.451107494</DistanceMeters>
          </Trackpoint>
          <Trackpoint>
            <Time>2021-04-01T09:57:57.000Z</Time>
            <Position>
              <LatitudeDegrees>42.420990653336048126220703125</LatitudeDegrees>
              <LongitudeDegrees>2.7492657490074634552001953125</LongitudeDegrees>
            </Position>
            <AltitudeMeters>1076.800048828125</AltitudeMeters>
            <DistanceMeters>20488.943634844</DistanceMeters>
          </Trackpoint>
          <Trackpoint>
            <Time>2021-04-01T09:57:59.000Z</Time>
            <Position>
              <LatitudeDegrees>42.42100398056209087371826171875</LatitudeDegrees>
              <LongitudeDegrees>2.74924001656472682952880859375</LongitudeDegrees>
            </Position>
            <AltitudeMeters>1077</AltitudeMeters>
            <DistanceMeters>20491.525145335</DistanceMeters>
          </Trackpoint>
          <Trackpoint>
            <Time>2021-04-01T09:58:01.000Z</Time>
            <Position>
              <LatitudeDegrees>42.42101504467427730560302734375</LatitudeDegrees>
              <LongitudeDegrees>2.74920866824686527252197265625</LongitudeDegrees>
            </Position>
            <AltitudeMeters>1077.199951171875</AltitudeMeters>
            <DistanceMeters>20494.379112566</DistanceMeters>
          </Trackpoint>
          <Trackpoint>
            <Time>2021-04-01T09:58:03.000Z</Time>
            <Position>
              <LatitudeDegrees>42.42102074436843395233154296875</LatitudeDegrees>
              <LongitudeDegrees>2.74918586947023868560791015625</LongitudeDegrees>
            </Position>
            <AltitudeMeters>1077.4000244140625</AltitudeMeters>
            <DistanceMeters>20496.35877243</DistanceMeters>
          </Trackpoint>
          <Trackpoint>
            <Time>2021-04-01T09:58:06.000Z</Time>
            <Position>
              <LatitudeDegrees>42.42102107964456081390380859375</LatitudeDegrees>
              <LongitudeDegrees>2.7491547726094722747802734375</LongitudeDegrees>
            </Position>
            <AltitudeMeters>1077.5999755859375</AltitudeMeters>
            <DistanceMeters>20498.913913379</DistanceMeters>
          </Trackpoint>
          <Trackpoint>
            <Time>2021-04-01T09:58:07.000Z</Time>
            <Position>
              <LatitudeDegrees>42.42102242074906826019287109375</LatitudeDegrees>
              <LongitudeDegrees>2.74914664216339588165283203125</LongitudeDegrees>
            </Position>
            <AltitudeMeters>1077.800048828125</AltitudeMeters>
            <DistanceMeters>20499.599160761</DistanceMeters>
          </Trackpoint>
          <Trackpoint>
            <Time>2021-04-01T09:58:13.000Z</Time>
            <Position>
              <LatitudeDegrees>42.42102376185357570648193359375</LatitudeDegrees>
              <LongitudeDegrees>2.74908562190830707550048828125</LongitudeDegrees>
            </Position>
            <AltitudeMeters>1077.5999755859375</AltitudeMeters>
            <DistanceMeters>20504.614915238</DistanceMeters>
          </Trackpoint>
          <Trackpoint>
            <Time>2021-04-01T09:58:17.000Z</Time>
            <Position>
              <LatitudeDegrees>42.4210251867771148681640625</LatitudeDegrees>
              <LongitudeDegrees>2.74904371239244937896728515625</LongitudeDegrees>
            </Position>
            <AltitudeMeters>1077.5999755859375</AltitudeMeters>
            <DistanceMeters>20508.062172205</DistanceMeters>
          </Trackpoint>
          <Trackpoint>
            <Time>2021-04-01T09:58:20.000Z</Time>
            <Position>
              <LatitudeDegrees>42.42102376185357570648193359375</LatitudeDegrees>
              <LongitudeDegrees>2.7490080893039703369140625</LongitudeDegrees>
            </Position>
            <AltitudeMeters>1077.800048828125</AltitudeMeters>
            <DistanceMeters>20510.994173702</DistanceMeters>
          </Trackpoint>
          <Trackpoint>
            <Time>2021-04-01T09:58:24.000Z</Time>
            <Position>
              <LatitudeDegrees>42.4210189841687679290771484375</LatitudeDegrees>
              <LongitudeDegrees>2.7489673532545566558837890625</LongitudeDegrees>
            </Position>
            <AltitudeMeters>1077.800048828125</AltitudeMeters>
            <DistanceMeters>20514.383311828</DistanceMeters>
          </Trackpoint>
          <Trackpoint>
            <Time>2021-04-01T09:58:26.000Z</Time>
            <Position>
              <LatitudeDegrees>42.421015799045562744140625</LatitudeDegrees>
              <LongitudeDegrees>2.74894279427826404571533203125</LongitudeDegrees>
            </Position>
            <AltitudeMeters>1077.800048828125</AltitudeMeters>
            <DistanceMeters>20516.43465666</DistanceMeters>
          </Trackpoint>
          <Trackpoint>
            <Time>2021-04-01T09:58:29.000Z</Time>
            <Position>
              <LatitudeDegrees>42.421015463769435882568359375</LatitudeDegrees>
              <LongitudeDegrees>2.74891429580748081207275390625</LongitudeDegrees>
            </Position>
            <AltitudeMeters>1077.800048828125</AltitudeMeters>
            <DistanceMeters>20518.775864981</DistanceMeters>
          </Trackpoint>
          <Trackpoint>
            <Time>2021-04-01T09:58:31.000Z</Time>
            <Position>
              <LatitudeDegrees>42.42101605050265789031982421875</LatitudeDegrees>
              <LongitudeDegrees>2.74890826083719730377197265625</LongitudeDegrees>
            </Position>
            <AltitudeMeters>1077.800048828125</AltitudeMeters>
            <DistanceMeters>20519.27869909</DistanceMeters>
          </Trackpoint>
          <Trackpoint>
            <Time>2021-04-01T09:58:33.000Z</Time>
            <Position>
              <LatitudeDegrees>42.4210149608552455902099609375</LatitudeDegrees>
              <LongitudeDegrees>2.7489086799323558807373046875</LongitudeDegrees>
            </Position>
            <AltitudeMeters>1077.5999755859375</AltitudeMeters>
            <DistanceMeters>20519.413087158</DistanceMeters>
          </Trackpoint>
          <Trackpoint>
            <Time>2021-04-01T09:58:35.000Z</Time>
            <Position>
              <LatitudeDegrees>42.421010769903659820556640625</LatitudeDegrees>
              <LongitudeDegrees>2.74891446344554424285888671875</LongitudeDegrees>
            </Position>
            <AltitudeMeters>1077.5999755859375</AltitudeMeters>
            <DistanceMeters>20520.078274158</DistanceMeters>
          </Trackpoint>
          <Trackpoint>
            <Time>2021-04-01T09:58:37.000Z</Time>
            <Position>
              <LatitudeDegrees>42.42100699804723262786865234375</LatitudeDegrees>
              <LongitudeDegrees>2.74892401881515979766845703125</LongitudeDegrees>
            </Position>
            <AltitudeMeters>1077.5999755859375</AltitudeMeters>
            <DistanceMeters>20520.964624343</DistanceMeters>
          </Trackpoint>
          <Trackpoint>
            <Time>2021-04-01T09:58:42.000Z</Time>
            <Position>
              <LatitudeDegrees>42.42100615985691547393798828125</LatitudeDegrees>
              <LongitudeDegrees>2.74893038906157016754150390625</LongitudeDegrees>
            </Position>
            <AltitudeMeters>1077.4000244140625</AltitudeMeters>
            <DistanceMeters>20521.502176616</DistanceMeters>
          </Trackpoint>
          <Trackpoint>
            <Time>2021-04-01T09:58:44.000Z</Time>
            <Position>
              <LatitudeDegrees>42.42100615985691547393798828125</LatitudeDegrees>
              <LongitudeDegrees>2.74893038906157016754150390625</LongitudeDegrees>
            </Position>
            <AltitudeMeters>1077.199951171875</AltitudeMeters>
            <DistanceMeters>20521.502176616</DistanceMeters>
          </Trackpoint>
          <Trackpoint>
            <Time>2021-04-01T09:58:48.000Z</Time>
            <Position>
              <LatitudeDegrees>42.42100481875240802764892578125</LatitudeDegrees>
              <LongitudeDegrees>2.7488959394395351409912109375</LongitudeDegrees>
            </Position>
            <AltitudeMeters>1076.5999755859375</AltitudeMeters>
            <DistanceMeters>20524.337096022</DistanceMeters>
          </Trackpoint>
          <Trackpoint>
            <Time>2021-04-01T09:58:49.000Z</Time>
            <Position>
              <LatitudeDegrees>42.421007417142391204833984375</LatitudeDegrees>
              <LongitudeDegrees>2.7488873898983001708984375</LongitudeDegrees>
            </Position>
            <AltitudeMeters>1076.4000244140625</AltitudeMeters>
            <DistanceMeters>20525.097309737</DistanceMeters>
          </Trackpoint>
          <Trackpoint>
            <Time>2021-04-01T10:21:40.000Z</Time>
            <Position>
              <LatitudeDegrees>42.42125694639980792999267578125</LatitudeDegrees>
              <LongitudeDegrees>2.748805582523345947265625</LongitudeDegrees>
            </Position>
            <AltitudeMeters>1075.5999755859375</AltitudeMeters>
            <DistanceMeters>20553.672081341</DistanceMeters>
          </Trackpoint>
          <Trackpoint>
            <Time>2021-04-01T10:21:41.000Z</Time>
            <Position>
              <LatitudeDegrees>42.42125694639980792999267578125</LatitudeDegrees>
              <LongitudeDegrees>2.748805582523345947265625</LongitudeDegrees>
            </Position>
            <AltitudeMeters>1075.4000244140625</AltitudeMeters>
            <DistanceMeters>20553.672081341</DistanceMeters>
          </Trackpoint>
          <Trackpoint>
            <Time>2021-04-01T10:21:54.000Z</Time>
            <Position>
              <LatitudeDegrees>42.4212570302188396453857421875</LatitudeDegrees>
              <LongitudeDegrees>2.74880549870431423187255859375</LongitudeDegrees>
            </Position>
            <AltitudeMeters>1074.800048828125</AltitudeMeters>
            <DistanceMeters>20553.672081341</DistanceMeters>
          </Trackpoint>
          <Trackpoint>
            <Time>2021-04-01T10:22:01.000Z</Time>
            <Position>
              <LatitudeDegrees>42.42125711403787136077880859375</LatitudeDegrees>
              <LongitudeDegrees>2.7488057501614093780517578125</LongitudeDegrees>
            </Position>
            <AltitudeMeters>1075</AltitudeMeters>
            <DistanceMeters>20553.672081341</DistanceMeters>
          </Trackpoint>
          <Trackpoint>
            <Time>2021-04-01T10:22:04.000Z</Time>
            <Position>
              <LatitudeDegrees>42.421257197856903076171875</LatitudeDegrees>
              <LongitudeDegrees>2.748805917799472808837890625</LongitudeDegrees>
            </Position>
            <AltitudeMeters>1075</AltitudeMeters>
            <DistanceMeters>20553.672081341</DistanceMeters>
          </Trackpoint>
          <Trackpoint>
            <Time>2021-04-01T10:22:05.000Z</Time>
            <Position>
              <LatitudeDegrees>42.421257197856903076171875</LatitudeDegrees>
              <LongitudeDegrees>2.74880600161850452423095703125</LongitudeDegrees>
            </Position>
            <AltitudeMeters>1075</AltitudeMeters>
            <DistanceMeters>20553.767108055</DistanceMeters>
          </Trackpoint>
          <Trackpoint>
            <Time>2021-04-01T10:22:13.000Z</Time>
            <Position>
              <LatitudeDegrees>42.42125728167593479156494140625</LatitudeDegrees>
              <LongitudeDegrees>2.74880667217075824737548828125</LongitudeDegrees>
            </Position>
            <AltitudeMeters>1075</AltitudeMeters>
            <DistanceMeters>20553.862134769</DistanceMeters>
          </Trackpoint>
          <Trackpoint>
            <Time>2021-04-01T10:22:16.000Z</Time>
            <Position>
              <LatitudeDegrees>42.4212573654949665069580078125</LatitudeDegrees>
              <LongitudeDegrees>2.74880700744688510894775390625</LongitudeDegrees>
            </Position>
            <AltitudeMeters>1075</AltitudeMeters>
            <DistanceMeters>20553.862134769</DistanceMeters>
          </Trackpoint>
          <Trackpoint>
            <Time>2021-04-01T10:22:24.000Z</Time>
            <Position>
              <LatitudeDegrees>42.42122677154839038848876953125</LatitudeDegrees>
              <LongitudeDegrees>2.748867608606815338134765625</LongitudeDegrees>
            </Position>
            <AltitudeMeters>1075</AltitudeMeters>
            <DistanceMeters>20559.893898856</DistanceMeters>
          </Trackpoint>
          <Trackpoint>
            <Time>2021-04-01T10:22:32.000Z</Time>
            <Position>
              <LatitudeDegrees>42.4211641587316989898681640625</LatitudeDegrees>
              <LongitudeDegrees>2.748895771801471710205078125</LongitudeDegrees>
            </Position>
            <AltitudeMeters>1075</AltitudeMeters>
            <DistanceMeters>20567.237441361</DistanceMeters>
          </Trackpoint>
          <Trackpoint>
            <Time>2021-04-01T10:22:37.000Z</Time>
            <Position>
              <LatitudeDegrees>42.4211324751377105712890625</LatitudeDegrees>
              <LongitudeDegrees>2.74889568798243999481201171875</LongitudeDegrees>
            </Position>
            <AltitudeMeters>1075</AltitudeMeters>
            <DistanceMeters>20570.763687986</DistanceMeters>
          </Trackpoint>
          <Trackpoint>
            <Time>2021-04-01T10:22:41.000Z</Time>
            <Position>
              <LatitudeDegrees>42.42109416984021663665771484375</LatitudeDegrees>
              <LongitudeDegrees>2.748887054622173309326171875</LongitudeDegrees>
            </Position>
            <AltitudeMeters>1075</AltitudeMeters>
            <DistanceMeters>20575.086097981</DistanceMeters>
          </Trackpoint>
          <Trackpoint>
            <Time>2021-04-01T10:22:48.000Z</Time>
            <Position>
              <LatitudeDegrees>42.4210345745086669921875</LatitudeDegrees>
              <LongitudeDegrees>2.74889074265956878662109375</LongitudeDegrees>
            </Position>
            <AltitudeMeters>1075</AltitudeMeters>
            <DistanceMeters>20581.727098911</DistanceMeters>
          </Trackpoint>
          <Trackpoint>
            <Time>2021-04-01T10:22:55.000Z</Time>
            <Position>
              <LatitudeDegrees>42.42102124728262424468994140625</LatitudeDegrees>
              <LongitudeDegrees>2.74890859611332416534423828125</LongitudeDegrees>
            </Position>
            <AltitudeMeters>1075</AltitudeMeters>
            <DistanceMeters>20583.81336276</DistanceMeters>
          </Trackpoint>
          <Trackpoint>
            <Time>2021-04-01T10:22:58.000Z</Time>
            <Position>
              <LatitudeDegrees>42.4210367538034915924072265625</LatitudeDegrees>
              <LongitudeDegrees>2.748913876712322235107421875</LongitudeDegrees>
            </Position>
            <AltitudeMeters>1075</AltitudeMeters>
            <DistanceMeters>20585.596221954</DistanceMeters>
          </Trackpoint>
          <Trackpoint>
            <Time>2021-04-01T10:23:01.000Z</Time>
            <Position>
              <LatitudeDegrees>42.42101537995040416717529296875</LatitudeDegrees>
              <LongitudeDegrees>2.74890038184821605682373046875</LongitudeDegrees>
            </Position>
            <AltitudeMeters>1075</AltitudeMeters>
            <DistanceMeters>20588.221093061</DistanceMeters>
          </Trackpoint>
          <Trackpoint>
            <Time>2021-04-01T10:23:07.000Z</Time>
            <Position>
              <LatitudeDegrees>42.42099056951701641082763671875</LatitudeDegrees>
              <LongitudeDegrees>2.748908512294292449951171875</LongitudeDegrees>
            </Position>
            <AltitudeMeters>1075</AltitudeMeters>
            <DistanceMeters>20591.06237593</DistanceMeters>
          </Trackpoint>
          <Trackpoint>
            <Time>2021-04-01T10:23:11.000Z</Time>
            <Position>
              <LatitudeDegrees>42.42097430862486362457275390625</LatitudeDegrees>
              <LongitudeDegrees>2.7488996274769306182861328125</LongitudeDegrees>
            </Position>
            <AltitudeMeters>1075</AltitudeMeters>
            <DistanceMeters>20593.014475379</DistanceMeters>
          </Trackpoint>
          <Trackpoint>
            <Time>2021-04-01T10:23:14.000Z</Time>
            <Position>
              <LatitudeDegrees>42.42096609435975551605224609375</LatitudeDegrees>
              <LongitudeDegrees>2.74889803491532802581787109375</LongitudeDegrees>
            </Position>
            <AltitudeMeters>1075</AltitudeMeters>
            <DistanceMeters>20593.935793557</DistanceMeters>
          </Trackpoint>
          <Trackpoint>
            <Time>2021-04-01T10:23:18.000Z</Time>
            <Position>
              <LatitudeDegrees>42.4209713749587535858154296875</LatitudeDegrees>
              <LongitudeDegrees>2.74887490086257457733154296875</LongitudeDegrees>
            </Position>
            <AltitudeMeters>1075</AltitudeMeters>
            <DistanceMeters>20595.924555354</DistanceMeters>
          </Trackpoint>
          <Trackpoint>
            <Time>2021-04-01T10:23:24.000Z</Time>
            <Position>
              <LatitudeDegrees>42.4209804274141788482666015625</LatitudeDegrees>
              <LongitudeDegrees>2.74885185062885284423828125</LongitudeDegrees>
            </Position>
            <AltitudeMeters>1075</AltitudeMeters>
            <DistanceMeters>20598.06845575</DistanceMeters>
          </Trackpoint>
          <Trackpoint>
            <Time>2021-04-01T10:23:25.000Z</Time>
            <Position>
              <LatitudeDegrees>42.4209804274141788482666015625</LatitudeDegrees>
              <LongitudeDegrees>2.74885185062885284423828125</LongitudeDegrees>
            </Position>
            <AltitudeMeters>1075</AltitudeMeters>
            <DistanceMeters>20598.06845575</DistanceMeters>
          </Trackpoint>
          <Trackpoint>
            <Time>2021-04-01T10:23:43.000Z</Time>
            <Position>
              <LatitudeDegrees>42.42100699804723262786865234375</LatitudeDegrees>
              <LongitudeDegrees>2.74883039295673370361328125</LongitudeDegrees>
            </Position>
            <AltitudeMeters>1075</AltitudeMeters>
            <DistanceMeters>20601.510469738</DistanceMeters>
          </Trackpoint>
          <Trackpoint>
            <Time>2021-04-01T10:23:48.000Z</Time>
            <Position>
              <LatitudeDegrees>42.42100213654339313507080078125</LatitudeDegrees>
              <LongitudeDegrees>2.74882360361516475677490234375</LongitudeDegrees>
            </Position>
            <AltitudeMeters>1075</AltitudeMeters>
            <DistanceMeters>20602.282470415</DistanceMeters>
          </Trackpoint>
          <Trackpoint>
            <Time>2021-04-01T10:23:53.000Z</Time>
            <Position>
              <LatitudeDegrees>42.42100708186626434326171875</LatitudeDegrees>
              <LongitudeDegrees>2.7488020621240139007568359375</LongitudeDegrees>
            </Position>
            <AltitudeMeters>1075</AltitudeMeters>
            <DistanceMeters>20604.1348821</DistanceMeters>
          </Trackpoint>
          <Trackpoint>
            <Time>2021-04-01T10:24:07.000Z</Time>
            <Position>
              <LatitudeDegrees>42.42100984789431095123291015625</LatitudeDegrees>
              <LongitudeDegrees>2.7487946860492229461669921875</LongitudeDegrees>
            </Position>
            <AltitudeMeters>1075</AltitudeMeters>
            <DistanceMeters>20604.820129482</DistanceMeters>
          </Trackpoint>
          <Trackpoint>
            <Time>2021-04-01T10:24:09.000Z</Time>
            <Position>
              <LatitudeDegrees>42.421014793217182159423828125</LatitudeDegrees>
              <LongitudeDegrees>2.74879041127860546112060546875</LongitudeDegrees>
            </Position>
            <AltitudeMeters>1075</AltitudeMeters>
            <DistanceMeters>20605.478493872</DistanceMeters>
          </Trackpoint>
          <Trackpoint>
            <Time>2021-04-01T10:24:15.000Z</Time>
            <Position>
              <LatitudeDegrees>42.42106131277978420257568359375</LatitudeDegrees>
              <LongitudeDegrees>2.7487806044518947601318359375</LongitudeDegrees>
            </Position>
            <AltitudeMeters>1075</AltitudeMeters>
            <DistanceMeters>20610.718767001</DistanceMeters>
          </Trackpoint>
          <Trackpoint>
            <Time>2021-04-01T10:24:22.000Z</Time>
            <Position>
              <LatitudeDegrees>42.42106818594038486480712890625</LatitudeDegrees>
              <LongitudeDegrees>2.74876493029296398162841796875</LongitudeDegrees>
            </Position>
            <AltitudeMeters>1075</AltitudeMeters>
            <DistanceMeters>20612.22127128</DistanceMeters>
          </Trackpoint>
          <Trackpoint>
            <Time>2021-04-01T10:24:23.000Z</Time>
            <Position>
              <LatitudeDegrees>42.42106533609330654144287109375</LatitudeDegrees>
              <LongitudeDegrees>2.7487685345113277435302734375</LongitudeDegrees>
            </Position>
            <AltitudeMeters>1075</AltitudeMeters>
            <DistanceMeters>20612.656738392</DistanceMeters>
          </Trackpoint>
          <Trackpoint>
            <Time>2021-04-01T10:24:33.000Z</Time>
            <Position>
              <LatitudeDegrees>42.42106030695140361785888671875</LatitudeDegrees>
              <LongitudeDegrees>2.7487685345113277435302734375</LongitudeDegrees>
            </Position>
            <AltitudeMeters>1075</AltitudeMeters>
            <DistanceMeters>20613.210834592</DistanceMeters>
          </Trackpoint>
          <Trackpoint>
            <Time>2021-04-01T10:24:42.000Z</Time>
            <Position>
              <LatitudeDegrees>42.42105896584689617156982421875</LatitudeDegrees>
              <LongitudeDegrees>2.7487685345113277435302734375</LongitudeDegrees>
            </Position>
            <AltitudeMeters>1075</AltitudeMeters>
            <DistanceMeters>20613.37542569</DistanceMeters>
          </Trackpoint>
          <Trackpoint>
            <Time>2021-04-01T10:24:43.000Z</Time>
            <Position>
              <LatitudeDegrees>42.42105879820883274078369140625</LatitudeDegrees>
              <LongitudeDegrees>2.7487685345113277435302734375</LongitudeDegrees>
            </Position>
            <AltitudeMeters>1075</AltitudeMeters>
            <DistanceMeters>20613.37542569</DistanceMeters>
          </Trackpoint>
          <Trackpoint>
            <Time>2021-04-01T10:24:57.000Z</Time>
            <Position>
              <LatitudeDegrees>42.42104999721050262451171875</LatitudeDegrees>
              <LongitudeDegrees>2.74874900467693805694580078125</LongitudeDegrees>
            </Position>
            <AltitudeMeters>1075</AltitudeMeters>
            <DistanceMeters>20615.256858645</DistanceMeters>
          </Trackpoint>
          <Trackpoint>
            <Time>2021-04-01T10:24:59.000Z</Time>
            <Position>
              <LatitudeDegrees>42.4210494942963123321533203125</LatitudeDegrees>
              <LongitudeDegrees>2.74874900467693805694580078125</LongitudeDegrees>
            </Position>
            <AltitudeMeters>1075</AltitudeMeters>
            <DistanceMeters>20615.256858645</DistanceMeters>
          </Trackpoint>
          <Trackpoint>
            <Time>2021-04-01T10:25:01.000Z</Time>
            <Position>
              <LatitudeDegrees>42.42104731500148773193359375</LatitudeDegrees>
              <LongitudeDegrees>2.74874900467693805694580078125</LongitudeDegrees>
            </Position>
            <AltitudeMeters>1075</AltitudeMeters>
            <DistanceMeters>20615.489625607</DistanceMeters>
          </Trackpoint>
          <Trackpoint>
            <Time>2021-04-01T10:25:07.000Z</Time>
            <Position>
              <LatitudeDegrees>42.4210421182215213775634765625</LatitudeDegrees>
              <LongitudeDegrees>2.74874917231500148773193359375</LongitudeDegrees>
            </Position>
            <AltitudeMeters>1075</AltitudeMeters>
            <DistanceMeters>20616.059785893</DistanceMeters>
          </Trackpoint>
          <Trackpoint>
            <Time>2021-04-01T10:25:12.000Z</Time>
            <Position>
              <LatitudeDegrees>42.42103993892669677734375</LatitudeDegrees>
              <LongitudeDegrees>2.74875135160982608795166015625</LongitudeDegrees>
            </Position>
            <AltitudeMeters>1075</AltitudeMeters>
            <DistanceMeters>20616.360286749</DistanceMeters>
          </Trackpoint>
          <Trackpoint>
            <Time>2021-04-01T10:25:18.000Z</Time>
            <Position>
              <LatitudeDegrees>42.421037256717681884765625</LatitudeDegrees>
              <LongitudeDegrees>2.74876861833035945892333984375</LongitudeDegrees>
            </Position>
            <AltitudeMeters>1075</AltitudeMeters>
            <DistanceMeters>20617.807690541</DistanceMeters>
          </Trackpoint>
          <Trackpoint>
            <Time>2021-04-01T10:25:26.000Z</Time>
            <Position>
              <LatitudeDegrees>42.42101915180683135986328125</LatitudeDegrees>
              <LongitudeDegrees>2.74878890253603458404541015625</LongitudeDegrees>
            </Position>
            <AltitudeMeters>1075</AltitudeMeters>
            <DistanceMeters>20620.422220684</DistanceMeters>
          </Trackpoint>
          <Trackpoint>
            <Time>2021-04-01T10:25:29.000Z</Time>
            <Position>
              <LatitudeDegrees>42.42101605050265789031982421875</LatitudeDegrees>
              <LongitudeDegrees>2.74879124946892261505126953125</LongitudeDegrees>
            </Position>
            <AltitudeMeters>1075</AltitudeMeters>
            <DistanceMeters>20620.814025864</DistanceMeters>
          </Trackpoint>
          <Trackpoint>
            <Time>2021-04-01T10:25:40.000Z</Time>
            <Position>
              <LatitudeDegrees>42.42101454176008701324462890625</LatitudeDegrees>
              <LongitudeDegrees>2.7487990446388721466064453125</LongitudeDegrees>
            </Position>
            <AltitudeMeters>1075</AltitudeMeters>
            <DistanceMeters>20621.472390254</DistanceMeters>
          </Trackpoint>
          <Trackpoint>
            <Time>2021-04-01T10:25:44.000Z</Time>
            <Position>
              <LatitudeDegrees>42.4210152961313724517822265625</LatitudeDegrees>
              <LongitudeDegrees>2.7487990446388721466064453125</LongitudeDegrees>
            </Position>
            <AltitudeMeters>1075</AltitudeMeters>
            <DistanceMeters>20621.567416968</DistanceMeters>
          </Trackpoint>
          <Trackpoint>
            <Time>2021-04-01T10:25:47.000Z</Time>
            <Position>
              <LatitudeDegrees>42.42101672105491161346435546875</LatitudeDegrees>
              <LongitudeDegrees>2.7487990446388721466064453125</LongitudeDegrees>
            </Position>
            <AltitudeMeters>1075</AltitudeMeters>
            <DistanceMeters>20621.732008065</DistanceMeters>
          </Trackpoint>
          <Trackpoint>
            <Time>2021-04-01T10:25:58.000Z</Time>
            <Position>
              <LatitudeDegrees>42.42102359421551227569580078125</LatitudeDegrees>
              <LongitudeDegrees>2.74879124946892261505126953125</LongitudeDegrees>
            </Position>
            <AltitudeMeters>1075</AltitudeMeters>
            <DistanceMeters>20622.728656654</DistanceMeters>
          </Trackpoint>
          <Trackpoint>
            <Time>2021-04-01T10:26:06.000Z</Time>
            <Position>
              <LatitudeDegrees>42.42102610878646373748779296875</LatitudeDegrees>
              <LongitudeDegrees>2.74878605268895626068115234375</LongitudeDegrees>
            </Position>
            <AltitudeMeters>1075</AltitudeMeters>
            <DistanceMeters>20623.231490762</DistanceMeters>
          </Trackpoint>
          <Trackpoint>
            <Time>2021-04-01T10:26:09.000Z</Time>
            <Position>
              <LatitudeDegrees>42.42102778516709804534912109375</LatitudeDegrees>
              <LongitudeDegrees>2.7487842924892902374267578125</LongitudeDegrees>
            </Position>
            <AltitudeMeters>1075</AltitudeMeters>
            <DistanceMeters>20623.464257724</DistanceMeters>
          </Trackpoint>
          <Trackpoint>
            <Time>2021-04-01T10:26:21.000Z</Time>
            <Position>
              <LatitudeDegrees>42.42103256285190582275390625</LatitudeDegrees>
              <LongitudeDegrees>2.748773396015167236328125</LongitudeDegrees>
            </Position>
            <AltitudeMeters>1075</AltitudeMeters>
            <DistanceMeters>20624.505223225</DistanceMeters>
          </Trackpoint>
          <Trackpoint>
            <Time>2021-04-01T10:26:25.000Z</Time>
            <Position>
              <LatitudeDegrees>42.4210337363183498382568359375</LatitudeDegrees>
              <LongitudeDegrees>2.74877331219613552093505859375</LongitudeDegrees>
            </Position>
            <AltitudeMeters>1075</AltitudeMeters>
            <DistanceMeters>20624.639611293</DistanceMeters>
          </Trackpoint>
          <Trackpoint>
            <Time>2021-04-01T10:26:27.000Z</Time>
            <Position>
              <LatitudeDegrees>42.42103532887995243072509765625</LatitudeDegrees>
              <LongitudeDegrees>2.74877331219613552093505859375</LongitudeDegrees>
            </Position>
            <AltitudeMeters>1075</AltitudeMeters>
            <DistanceMeters>20624.829664722</DistanceMeters>
          </Trackpoint>
          <Trackpoint>
            <Time>2021-04-01T10:26:29.000Z</Time>
            <Position>
              <LatitudeDegrees>42.42103616707026958465576171875</LatitudeDegrees>
              <LongitudeDegrees>2.74877733550965785980224609375</LongitudeDegrees>
            </Position>
            <AltitudeMeters>1075</AltitudeMeters>
            <DistanceMeters>20625.18522213</DistanceMeters>
          </Trackpoint>
          <Trackpoint>
            <Time>2021-04-01T10:26:49.000Z</Time>
            <Position>
              <LatitudeDegrees>42.421044297516345977783203125</LatitudeDegrees>
              <LongitudeDegrees>2.74881890974938869476318359375</LongitudeDegrees>
            </Position>
            <AltitudeMeters>1075</AltitudeMeters>
            <DistanceMeters>20628.719142859</DistanceMeters>
          </Trackpoint>
          <Trackpoint>
            <Time>2021-04-01T10:27:04.000Z</Time>
            <Position>
              <LatitudeDegrees>42.42104371078312397003173828125</LatitudeDegrees>
              <LongitudeDegrees>2.748864926397800445556640625</LongitudeDegrees>
            </Position>
            <AltitudeMeters>1075</AltitudeMeters>
            <DistanceMeters>20632.501158338</DistanceMeters>
          </Trackpoint>
          <Trackpoint>
            <Time>2021-04-01T10:27:06.000Z</Time>
            <Position>
              <LatitudeDegrees>42.4210434593260288238525390625</LatitudeDegrees>
              <LongitudeDegrees>2.74886769242584705352783203125</LongitudeDegrees>
            </Position>
            <AltitudeMeters>1075</AltitudeMeters>
            <DistanceMeters>20632.713644531</DistanceMeters>
          </Trackpoint>
          <Trackpoint>
            <Time>2021-04-01T10:27:10.000Z</Time>
            <Position>
              <LatitudeDegrees>42.42104069329798221588134765625</LatitudeDegrees>
              <LongitudeDegrees>2.74887020699679851531982421875</LongitudeDegrees>
            </Position>
            <AltitudeMeters>1078</AltitudeMeters>
            <DistanceMeters>20633.093751389</DistanceMeters>
          </Trackpoint>
          <Trackpoint>
            <Time>2021-04-01T10:27:12.000Z</Time>
            <Position>
              <LatitudeDegrees>42.42103926837444305419921875</LatitudeDegrees>
              <LongitudeDegrees>2.7488707937300205230712890625</LongitudeDegrees>
            </Position>
            <AltitudeMeters>1078</AltitudeMeters>
            <DistanceMeters>20633.228139457</DistanceMeters>
          </Trackpoint>
          <Trackpoint>
            <Time>2021-04-01T10:27:29.000Z</Time>
            <Position>
              <LatitudeDegrees>42.42103784345090389251708984375</LatitudeDegrees>
              <LongitudeDegrees>2.74884874932467937469482421875</LongitudeDegrees>
            </Position>
            <AltitudeMeters>1077.4000244140625</AltitudeMeters>
            <DistanceMeters>20635.043622286</DistanceMeters>
          </Trackpoint>
          <Trackpoint>
            <Time>2021-04-01T10:27:33.000Z</Time>
            <Position>
              <LatitudeDegrees>42.4210374243557453155517578125</LatitudeDegrees>
              <LongitudeDegrees>2.74883600883185863494873046875</LongitudeDegrees>
            </Position>
            <AltitudeMeters>1077.5999755859375</AltitudeMeters>
            <DistanceMeters>20636.093226653</DistanceMeters>
          </Trackpoint>
          <Trackpoint>
            <Time>2021-04-01T10:27:36.000Z</Time>
            <Position>
              <LatitudeDegrees>42.4210374243557453155517578125</LatitudeDegrees>
              <LongitudeDegrees>2.748829387128353118896484375</LongitudeDegrees>
            </Position>
            <AltitudeMeters>1077.5999755859375</AltitudeMeters>
            <DistanceMeters>20636.639113566</DistanceMeters>
          </Trackpoint>
          <Trackpoint>
            <Time>2021-04-01T10:27:46.000Z</Time>
            <Position>
              <LatitudeDegrees>42.4210380949079990386962890625</LatitudeDegrees>
              <LongitudeDegrees>2.74881656281650066375732421875</LongitudeDegrees>
            </Position>
            <AltitudeMeters>1077.800048828125</AltitudeMeters>
            <DistanceMeters>20637.697286274</DistanceMeters>
          </Trackpoint>
          <Trackpoint>
            <Time>2021-04-01T10:27:47.000Z</Time>
            <Position>
              <LatitudeDegrees>42.4210380949079990386962890625</LatitudeDegrees>
              <LongitudeDegrees>2.7488158084452152252197265625</LongitudeDegrees>
            </Position>
            <AltitudeMeters>1077.800048828125</AltitudeMeters>
            <DistanceMeters>20637.792312988</DistanceMeters>
          </Trackpoint>
          <Trackpoint>
            <Time>2021-04-01T10:27:56.000Z</Time>
            <Position>
              <LatitudeDegrees>42.42103868164122104644775390625</LatitudeDegrees>
              <LongitudeDegrees>2.74881404824554920196533203125</LongitudeDegrees>
            </Position>
            <AltitudeMeters>1077.5999755859375</AltitudeMeters>
            <DistanceMeters>20637.956904086</DistanceMeters>
          </Trackpoint>
          <Trackpoint>
            <Time>2021-04-01T10:28:04.000Z</Time>
            <Position>
              <LatitudeDegrees>42.421038933098316192626953125</LatitudeDegrees>
              <LongitudeDegrees>2.748813629150390625</LongitudeDegrees>
            </Position>
            <AltitudeMeters>1077.5999755859375</AltitudeMeters>
            <DistanceMeters>20638.0519308</DistanceMeters>
          </Trackpoint>
          <Trackpoint>
            <Time>2021-04-01T10:28:08.000Z</Time>
            <Position>
              <LatitudeDegrees>42.4210391007363796234130859375</LatitudeDegrees>
              <LongitudeDegrees>2.74881337769329547882080078125</LongitudeDegrees>
            </Position>
            <AltitudeMeters>1077.5999755859375</AltitudeMeters>
            <DistanceMeters>20638.146957514</DistanceMeters>
          </Trackpoint>
          <Trackpoint>
            <Time>2021-04-01T10:28:12.000Z</Time>
            <Position>
              <LatitudeDegrees>42.42103926837444305419921875</LatitudeDegrees>
              <LongitudeDegrees>2.74881321005523204803466796875</LongitudeDegrees>
            </Position>
            <AltitudeMeters>1077.800048828125</AltitudeMeters>
            <DistanceMeters>20638.146957514</DistanceMeters>
          </Trackpoint>
          <Trackpoint>
            <Time>2021-04-01T10:28:40.000Z</Time>
            <Position>
              <LatitudeDegrees>42.421040274202823638916015625</LatitudeDegrees>
              <LongitudeDegrees>2.74881220422685146331787109375</LongitudeDegrees>
            </Position>
            <AltitudeMeters>1077.800048828125</AltitudeMeters>
            <DistanceMeters>20638.311548612</DistanceMeters>
          </Trackpoint>
          <Trackpoint>
            <Time>2021-04-01T10:28:43.000Z</Time>
            <Position>
              <LatitudeDegrees>42.4210404418408870697021484375</LatitudeDegrees>
              <LongitudeDegrees>2.7488121204078197479248046875</LongitudeDegrees>
            </Position>
            <AltitudeMeters>1077.800048828125</AltitudeMeters>
            <DistanceMeters>20638.311548612</DistanceMeters>
          </Trackpoint>
          <Trackpoint>
            <Time>2021-04-01T10:28:44.000Z</Time>
            <Position>
              <LatitudeDegrees>42.4210404418408870697021484375</LatitudeDegrees>
              <LongitudeDegrees>2.7488121204078197479248046875</LongitudeDegrees>
            </Position>
            <AltitudeMeters>1077.800048828125</AltitudeMeters>
            <DistanceMeters>20638.311548612</DistanceMeters>
          </Trackpoint>
          <Trackpoint>
            <Time>2021-04-01T10:29:05.000Z</Time>
            <Position>
              <LatitudeDegrees>42.42104052565991878509521484375</LatitudeDegrees>
              <LongitudeDegrees>2.7488124556839466094970703125</LongitudeDegrees>
            </Position>
            <AltitudeMeters>1077.800048828125</AltitudeMeters>
            <DistanceMeters>20638.311548612</DistanceMeters>
          </Trackpoint>
          <Trackpoint>
            <Time>2021-04-01T10:29:13.000Z</Time>
            <Position>
              <LatitudeDegrees>42.421040274202823638916015625</LatitudeDegrees>
              <LongitudeDegrees>2.74881287477910518646240234375</LongitudeDegrees>
            </Position>
            <AltitudeMeters>1077.800048828125</AltitudeMeters>
            <DistanceMeters>20638.311548612</DistanceMeters>
          </Trackpoint>
          <Trackpoint>
            <Time>2021-04-01T10:29:22.000Z</Time>
            <Position>
              <LatitudeDegrees>42.42103985510766506195068359375</LatitudeDegrees>
              <LongitudeDegrees>2.74881354533135890960693359375</LongitudeDegrees>
            </Position>
            <AltitudeMeters>1077.800048828125</AltitudeMeters>
            <DistanceMeters>20638.311548612</DistanceMeters>
          </Trackpoint>
          <Trackpoint>
            <Time>2021-04-01T10:29:31.000Z</Time>
            <Position>
              <LatitudeDegrees>42.42100615985691547393798828125</LatitudeDegrees>
              <LongitudeDegrees>2.74881689809262752532958984375</LongitudeDegrees>
            </Position>
            <AltitudeMeters>1077.800048828125</AltitudeMeters>
            <DistanceMeters>20642.070813119</DistanceMeters>
          </Trackpoint>
          <Trackpoint>
            <Time>2021-04-01T10:29:33.000Z</Time>
            <Position>
              <LatitudeDegrees>42.42100448347628116607666015625</LatitudeDegrees>
              <LongitudeDegrees>2.74883450008928775787353515625</LongitudeDegrees>
            </Position>
            <AltitudeMeters>1077.800048828125</AltitudeMeters>
            <DistanceMeters>20643.530641205</DistanceMeters>
          </Trackpoint>
          <Trackpoint>
            <Time>2021-04-01T10:29:37.000Z</Time>
            <Position>
              <LatitudeDegrees>42.4209945090115070343017578125</LatitudeDegrees>
              <LongitudeDegrees>2.74883869104087352752685546875</LongitudeDegrees>
            </Position>
            <AltitudeMeters>1077.800048828125</AltitudeMeters>
            <DistanceMeters>20644.690590079</DistanceMeters>
          </Trackpoint>
          <Trackpoint>
            <Time>2021-04-01T10:29:38.000Z</Time>
            <Position>
              <LatitudeDegrees>42.4209945090115070343017578125</LatitudeDegrees>
              <LongitudeDegrees>2.74883869104087352752685546875</LongitudeDegrees>
            </Position>
            <AltitudeMeters>1077.800048828125</AltitudeMeters>
            <DistanceMeters>20644.690590079</DistanceMeters>
          </Trackpoint>
          <Trackpoint>
            <Time>2021-04-01T10:29:39.000Z</Time>
            <Position>
              <LatitudeDegrees>42.4209945090115070343017578125</LatitudeDegrees>
              <LongitudeDegrees>2.74883869104087352752685546875</LongitudeDegrees>
            </Position>
            <AltitudeMeters>1077.800048828125</AltitudeMeters>
            <DistanceMeters>20644.690590079</DistanceMeters>
          </Trackpoint>
          <Trackpoint>
            <Time>2021-04-01T10:29:48.000Z</Time>
            <Position>
              <LatitudeDegrees>42.42097464390099048614501953125</LatitudeDegrees>
              <LongitudeDegrees>2.74883869104087352752685546875</LongitudeDegrees>
            </Position>
            <AltitudeMeters>1077.800048828125</AltitudeMeters>
            <DistanceMeters>20646.898811372</DistanceMeters>
          </Trackpoint>
          <Trackpoint>
            <Time>2021-04-01T10:29:53.000Z</Time>
            <Position>
              <LatitudeDegrees>42.42097464390099048614501953125</LatitudeDegrees>
              <LongitudeDegrees>2.74883869104087352752685546875</LongitudeDegrees>
            </Position>
            <AltitudeMeters>1077.800048828125</AltitudeMeters>
            <DistanceMeters>20646.898811372</DistanceMeters>
          </Trackpoint>
          <Trackpoint>
            <Time>2021-04-01T10:29:55.000Z</Time>
            <Position>
              <LatitudeDegrees>42.42097464390099048614501953125</LatitudeDegrees>
              <LongitudeDegrees>2.74883835576474666595458984375</LongitudeDegrees>
            </Position>
            <AltitudeMeters>1077.800048828125</AltitudeMeters>
            <DistanceMeters>20646.898811372</DistanceMeters>
          </Trackpoint>
          <Trackpoint>
            <Time>2021-04-01T10:29:59.000Z</Time>
            <Position>
              <LatitudeDegrees>42.42098151706159114837646484375</LatitudeDegrees>
              <LongitudeDegrees>2.74883550591766834259033203125</LongitudeDegrees>
            </Position>
            <AltitudeMeters>1077.800048828125</AltitudeMeters>
            <DistanceMeters>20647.693861906</DistanceMeters>
          </Trackpoint>
          <Trackpoint>
            <Time>2021-04-01T10:30:01.000Z</Time>
            <Position>
              <LatitudeDegrees>42.4209849536418914794921875</LatitudeDegrees>
              <LongitudeDegrees>2.748834751546382904052734375</LongitudeDegrees>
            </Position>
            <AltitudeMeters>1077.800048828125</AltitudeMeters>
            <DistanceMeters>20648.085667086</DistanceMeters>
          </Trackpoint>
          <Trackpoint>
            <Time>2021-04-01T10:30:03.000Z</Time>
            <Position>
              <LatitudeDegrees>42.4209930002689361572265625</LatitudeDegrees>
              <LongitudeDegrees>2.74883433245122432708740234375</LongitudeDegrees>
            </Position>
            <AltitudeMeters>1077.800048828125</AltitudeMeters>
            <DistanceMeters>20648.977096684</DistanceMeters>
          </Trackpoint>
          <Trackpoint>
            <Time>2021-04-01T10:30:05.000Z</Time>
            <Position>
              <LatitudeDegrees>42.42100381292402744293212890625</LatitudeDegrees>
              <LongitudeDegrees>2.74883165024220943450927734375</LongitudeDegrees>
            </Position>
            <AltitudeMeters>1077.800048828125</AltitudeMeters>
            <DistanceMeters>20650.197736931</DistanceMeters>
          </Trackpoint>
          <Trackpoint>
            <Time>2021-04-01T10:30:08.000Z</Time>
            <Position>
              <LatitudeDegrees>42.421022839844226837158203125</LatitudeDegrees>
              <LongitudeDegrees>2.7488310635089874267578125</LongitudeDegrees>
            </Position>
            <AltitudeMeters>1077.800048828125</AltitudeMeters>
            <DistanceMeters>20652.316214685</DistanceMeters>
          </Trackpoint>
          <Trackpoint>
            <Time>2021-04-01T10:30:14.000Z</Time>
            <Position>
              <LatitudeDegrees>42.4210515059530735015869140625</LatitudeDegrees>
              <LongitudeDegrees>2.7488476596772670745849609375</LongitudeDegrees>
            </Position>
            <AltitudeMeters>1077.800048828125</AltitudeMeters>
            <DistanceMeters>20655.785665924</DistanceMeters>
          </Trackpoint>
          <Trackpoint>
            <Time>2021-04-01T10:30:26.000Z</Time>
            <Position>
              <LatitudeDegrees>42.42106139659881591796875</LatitudeDegrees>
              <LongitudeDegrees>2.74883466772735118865966796875</LongitudeDegrees>
            </Position>
            <AltitudeMeters>1078.4000244140625</AltitudeMeters>
            <DistanceMeters>20657.317925652</DistanceMeters>
          </Trackpoint>
          <Trackpoint>
            <Time>2021-04-01T10:30:41.000Z</Time>
            <Position>
              <LatitudeDegrees>42.421055026352405548095703125</LatitudeDegrees>
              <LongitudeDegrees>2.7488272078335285186767578125</LongitudeDegrees>
            </Position>
            <AltitudeMeters>1078.199951171875</AltitudeMeters>
            <DistanceMeters>20658.248993501</DistanceMeters>
          </Trackpoint>
          <Trackpoint>
            <Time>2021-04-01T10:30:45.000Z</Time>
            <Position>
              <LatitudeDegrees>42.42105226032435894012451171875</LatitudeDegrees>
              <LongitudeDegrees>2.74882712401449680328369140625</LongitudeDegrees>
            </Position>
            <AltitudeMeters>1078.199951171875</AltitudeMeters>
            <DistanceMeters>20658.549494357</DistanceMeters>
          </Trackpoint>
          <Trackpoint>
            <Time>2021-04-01T10:30:52.000Z</Time>
            <Position>
              <LatitudeDegrees>42.42103734053671360015869140625</LatitudeDegrees>
              <LongitudeDegrees>2.74882972240447998046875</LongitudeDegrees>
            </Position>
            <AltitudeMeters>1078.4000244140625</AltitudeMeters>
            <DistanceMeters>20660.222612314</DistanceMeters>
          </Trackpoint>
          <Trackpoint>
            <Time>2021-04-01T10:30:56.000Z</Time>
            <Position>
              <LatitudeDegrees>42.4210347421467304229736328125</LatitudeDegrees>
              <LongitudeDegrees>2.7488245256245136260986328125</LongitudeDegrees>
            </Position>
            <AltitudeMeters>1078.199951171875</AltitudeMeters>
            <DistanceMeters>20660.725446422</DistanceMeters>
          </Trackpoint>
          <Trackpoint>
            <Time>2021-04-01T10:30:59.000Z</Time>
            <Position>
              <LatitudeDegrees>42.42102795280516147613525390625</LatitudeDegrees>
              <LongitudeDegrees>2.7488050796091556549072265625</LongitudeDegrees>
            </Position>
            <AltitudeMeters>1078.199951171875</AltitudeMeters>
            <DistanceMeters>20662.490489303</DistanceMeters>
          </Trackpoint>
          <Trackpoint>
            <Time>2021-04-01T10:31:04.000Z</Time>
            <Position>
              <LatitudeDegrees>42.42100817151367664337158203125</LatitudeDegrees>
              <LongitudeDegrees>2.74883718229830265045166015625</LongitudeDegrees>
            </Position>
            <AltitudeMeters>1078.199951171875</AltitudeMeters>
            <DistanceMeters>20665.927252313</DistanceMeters>
          </Trackpoint>
          <Trackpoint>
            <Time>2021-04-01T10:31:10.000Z</Time>
            <Position>
              <LatitudeDegrees>42.42101646959781646728515625</LatitudeDegrees>
              <LongitudeDegrees>2.74885109625756740570068359375</LongitudeDegrees>
            </Position>
            <AltitudeMeters>1077.800048828125</AltitudeMeters>
            <DistanceMeters>20667.399399842</DistanceMeters>
          </Trackpoint>
          <Trackpoint>
            <Time>2021-04-01T10:31:12.000Z</Time>
            <Position>
              <LatitudeDegrees>42.42101646959781646728515625</LatitudeDegrees>
              <LongitudeDegrees>2.74885109625756740570068359375</LongitudeDegrees>
            </Position>
            <AltitudeMeters>1077.800048828125</AltitudeMeters>
            <DistanceMeters>20667.399399842</DistanceMeters>
          </Trackpoint>
          <Trackpoint>
            <Time>2021-04-01T10:31:15.000Z</Time>
            <Position>
              <LatitudeDegrees>42.42101646959781646728515625</LatitudeDegrees>
              <LongitudeDegrees>2.74885109625756740570068359375</LongitudeDegrees>
            </Position>
            <AltitudeMeters>1077.5999755859375</AltitudeMeters>
            <DistanceMeters>20667.399399842</DistanceMeters>
          </Trackpoint>
          <Trackpoint>
            <Time>2021-04-01T10:31:17.000Z</Time>
            <Position>
              <LatitudeDegrees>42.42101646959781646728515625</LatitudeDegrees>
              <LongitudeDegrees>2.74885109625756740570068359375</LongitudeDegrees>
            </Position>
            <AltitudeMeters>1077.5999755859375</AltitudeMeters>
            <DistanceMeters>20667.399399842</DistanceMeters>
          </Trackpoint>
          <Trackpoint>
            <Time>2021-04-01T10:31:19.000Z</Time>
            <Position>
              <LatitudeDegrees>42.42101646959781646728515625</LatitudeDegrees>
              <LongitudeDegrees>2.74885109625756740570068359375</LongitudeDegrees>
            </Position>
            <AltitudeMeters>1077.5999755859375</AltitudeMeters>
            <DistanceMeters>20667.399399842</DistanceMeters>
          </Trackpoint>
          <Trackpoint>
            <Time>2021-04-01T10:31:23.000Z</Time>
            <Position>
              <LatitudeDegrees>42.42101646959781646728515625</LatitudeDegrees>
              <LongitudeDegrees>2.74885109625756740570068359375</LongitudeDegrees>
            </Position>
            <AltitudeMeters>1077.199951171875</AltitudeMeters>
            <DistanceMeters>20667.399399842</DistanceMeters>
          </Trackpoint>
          <Trackpoint>
            <Time>2021-04-01T10:31:30.000Z</Time>
            <Position>
              <LatitudeDegrees>42.4210260249674320220947265625</LatitudeDegrees>
              <LongitudeDegrees>2.7488526888191699981689453125</LongitudeDegrees>
            </Position>
            <AltitudeMeters>1077</AltitudeMeters>
            <DistanceMeters>20668.470296527</DistanceMeters>
          </Trackpoint>
          <Trackpoint>
            <Time>2021-04-01T10:31:32.000Z</Time>
            <Position>
              <LatitudeDegrees>42.4210263602435588836669921875</LatitudeDegrees>
              <LongitudeDegrees>2.7488526888191699981689453125</LongitudeDegrees>
            </Position>
            <AltitudeMeters>1077</AltitudeMeters>
            <DistanceMeters>20668.470296527</DistanceMeters>
          </Trackpoint>
          <Trackpoint>
            <Time>2021-04-01T10:31:34.000Z</Time>
            <Position>
              <LatitudeDegrees>42.4210263602435588836669921875</LatitudeDegrees>
              <LongitudeDegrees>2.7488526888191699981689453125</LongitudeDegrees>
            </Position>
            <AltitudeMeters>1077</AltitudeMeters>
            <DistanceMeters>20668.470296527</DistanceMeters>
          </Trackpoint>
          <Trackpoint>
            <Time>2021-04-01T10:31:37.000Z</Time>
            <Position>
              <LatitudeDegrees>42.4210263602435588836669921875</LatitudeDegrees>
              <LongitudeDegrees>2.7488526888191699981689453125</LongitudeDegrees>
            </Position>
            <AltitudeMeters>1077</AltitudeMeters>
            <DistanceMeters>20668.470296527</DistanceMeters>
          </Trackpoint>
          <Trackpoint>
            <Time>2021-04-01T10:31:48.000Z</Time>
            <Position>
              <LatitudeDegrees>42.4210069142282009124755859375</LatitudeDegrees>
              <LongitudeDegrees>2.748836763203144073486328125</LongitudeDegrees>
            </Position>
            <AltitudeMeters>1077</AltitudeMeters>
            <DistanceMeters>20670.998792942</DistanceMeters>
          </Trackpoint>
          <Trackpoint>
            <Time>2021-04-01T10:32:03.000Z</Time>
            <Position>
              <LatitudeDegrees>42.421006076037883758544921875</LatitudeDegrees>
              <LongitudeDegrees>2.7488322369754314422607421875</LongitudeDegrees>
            </Position>
            <AltitudeMeters>1076.199951171875</AltitudeMeters>
            <DistanceMeters>20671.378899799</DistanceMeters>
          </Trackpoint>
          <Trackpoint>
            <Time>2021-04-01T10:32:15.000Z</Time>
            <Position>
              <LatitudeDegrees>42.42102661170065402984619140625</LatitudeDegrees>
              <LongitudeDegrees>2.74882243014872074127197265625</LongitudeDegrees>
            </Position>
            <AltitudeMeters>1076.199951171875</AltitudeMeters>
            <DistanceMeters>20673.801615154</DistanceMeters>
          </Trackpoint>
          <Trackpoint>
            <Time>2021-04-01T10:32:22.000Z</Time>
            <Position>
              <LatitudeDegrees>42.42103717289865016937255859375</LatitudeDegrees>
              <LongitudeDegrees>2.7488225139677524566650390625</LongitudeDegrees>
            </Position>
            <AltitudeMeters>1076</AltitudeMeters>
            <DistanceMeters>20674.973183171</DistanceMeters>
          </Trackpoint>
          <Trackpoint>
            <Time>2021-04-01T10:32:23.000Z</Time>
            <Position>
              <LatitudeDegrees>42.42103935219347476959228515625</LatitudeDegrees>
              <LongitudeDegrees>2.748822681605815887451171875</LongitudeDegrees>
            </Position>
            <AltitudeMeters>1075.800048828125</AltitudeMeters>
            <DistanceMeters>20675.205950133</DistanceMeters>
          </Trackpoint>
          <Trackpoint>
            <Time>2021-04-01T10:32:24.000Z</Time>
            <Position>
              <LatitudeDegrees>42.42104019038379192352294921875</LatitudeDegrees>
              <LongitudeDegrees>2.7488228492438793182373046875</LongitudeDegrees>
            </Position>
            <AltitudeMeters>1075.800048828125</AltitudeMeters>
            <DistanceMeters>20675.205950133</DistanceMeters>
          </Trackpoint>
          <Trackpoint>
            <Time>2021-04-01T10:32:35.000Z</Time>
            <Position>
              <LatitudeDegrees>42.42104236967861652374267578125</LatitudeDegrees>
              <LongitudeDegrees>2.74882595054805278778076171875</LongitudeDegrees>
            </Position>
            <AltitudeMeters>1076.4000244140625</AltitudeMeters>
            <DistanceMeters>20675.561507541</DistanceMeters>
          </Trackpoint>
          <Trackpoint>
            <Time>2021-04-01T10:32:36.000Z</Time>
            <Position>
              <LatitudeDegrees>42.42104236967861652374267578125</LatitudeDegrees>
              <LongitudeDegrees>2.7488262020051479339599609375</LongitudeDegrees>
            </Position>
            <AltitudeMeters>1076.4000244140625</AltitudeMeters>
            <DistanceMeters>20675.561507541</DistanceMeters>
          </Trackpoint>
          <Trackpoint>
            <Time>2021-04-01T10:32:37.000Z</Time>
            <Position>
              <LatitudeDegrees>42.42104236967861652374267578125</LatitudeDegrees>
              <LongitudeDegrees>2.74882662110030651092529296875</LongitudeDegrees>
            </Position>
            <AltitudeMeters>1076.4000244140625</AltitudeMeters>
            <DistanceMeters>20675.561507541</DistanceMeters>
          </Trackpoint>
          <Trackpoint>
            <Time>2021-04-01T10:32:39.000Z</Time>
            <Position>
              <LatitudeDegrees>42.42104236967861652374267578125</LatitudeDegrees>
              <LongitudeDegrees>2.74882729165256023406982421875</LongitudeDegrees>
            </Position>
            <AltitudeMeters>1076.4000244140625</AltitudeMeters>
            <DistanceMeters>20675.656534255</DistanceMeters>
          </Trackpoint>
          <Trackpoint>
            <Time>2021-04-01T10:32:40.000Z</Time>
            <Position>
              <LatitudeDegrees>42.42104236967861652374267578125</LatitudeDegrees>
              <LongitudeDegrees>2.7488275431096553802490234375</LongitudeDegrees>
            </Position>
            <AltitudeMeters>1076.199951171875</AltitudeMeters>
            <DistanceMeters>20675.656534255</DistanceMeters>
          </Trackpoint>
          <Trackpoint>
            <Time>2021-04-01T10:32:42.000Z</Time>
            <Position>
              <LatitudeDegrees>42.42104102857410907745361328125</LatitudeDegrees>
              <LongitudeDegrees>2.74882771074771881103515625</LongitudeDegrees>
            </Position>
            <AltitudeMeters>1076.199951171875</AltitudeMeters>
            <DistanceMeters>20675.790922324</DistanceMeters>
          </Trackpoint>
          <Trackpoint>
            <Time>2021-04-01T10:32:52.000Z</Time>
            <Position>
              <LatitudeDegrees>42.4210278689861297607421875</LatitudeDegrees>
              <LongitudeDegrees>2.74882360361516475677490234375</LongitudeDegrees>
            </Position>
            <AltitudeMeters>1076.199951171875</AltitudeMeters>
            <DistanceMeters>20677.299424648</DistanceMeters>
          </Trackpoint>
          <Trackpoint>
            <Time>2021-04-01T10:32:59.000Z</Time>
            <Position>
              <LatitudeDegrees>42.4210240133106708526611328125</LatitudeDegrees>
              <LongitudeDegrees>2.74882209487259387969970703125</LongitudeDegrees>
            </Position>
            <AltitudeMeters>1076.5999755859375</AltitudeMeters>
            <DistanceMeters>20677.764958573</DistanceMeters>
          </Trackpoint>
          <Trackpoint>
            <Time>2021-04-01T10:33:04.000Z</Time>
            <Position>
              <LatitudeDegrees>42.42102392949163913726806640625</LatitudeDegrees>
              <LongitudeDegrees>2.74882108904421329498291015625</LongitudeDegrees>
            </Position>
            <AltitudeMeters>1076.800048828125</AltitudeMeters>
            <DistanceMeters>20677.899346641</DistanceMeters>
          </Trackpoint>
          <Trackpoint>
            <Time>2021-04-01T10:33:06.000Z</Time>
            <Position>
              <LatitudeDegrees>42.42102392949163913726806640625</LatitudeDegrees>
              <LongitudeDegrees>2.74882100522518157958984375</LongitudeDegrees>
            </Position>
            <AltitudeMeters>1077</AltitudeMeters>
            <DistanceMeters>20677.994373355</DistanceMeters>
          </Trackpoint>
          <Trackpoint>
            <Time>2021-04-01T10:33:11.000Z</Time>
            <Position>
              <LatitudeDegrees>42.421026527881622314453125</LatitudeDegrees>
              <LongitudeDegrees>2.74882092140614986419677734375</LongitudeDegrees>
            </Position>
            <AltitudeMeters>1076.800048828125</AltitudeMeters>
            <DistanceMeters>20678.294874211</DistanceMeters>
          </Trackpoint>
          <Trackpoint>
            <Time>2021-04-01T10:33:26.000Z</Time>
            <Position>
              <LatitudeDegrees>42.42103390395641326904296875</LatitudeDegrees>
              <LongitudeDegrees>2.748832404613494873046875</LongitudeDegrees>
            </Position>
            <AltitudeMeters>1077.199951171875</AltitudeMeters>
            <DistanceMeters>20679.548362664</DistanceMeters>
          </Trackpoint>
          <Trackpoint>
            <Time>2021-04-01T10:33:32.000Z</Time>
            <Position>
              <LatitudeDegrees>42.42102409712970256805419921875</LatitudeDegrees>
              <LongitudeDegrees>2.74883332662284374237060546875</LongitudeDegrees>
            </Position>
            <AltitudeMeters>1077.4000244140625</AltitudeMeters>
            <DistanceMeters>20680.648376411</DistanceMeters>
          </Trackpoint>
          <Trackpoint>
            <Time>2021-04-01T10:33:34.000Z</Time>
            <Position>
              <LatitudeDegrees>42.42102007381618022918701171875</LatitudeDegrees>
              <LongitudeDegrees>2.748833410441875457763671875</LongitudeDegrees>
            </Position>
            <AltitudeMeters>1077.4000244140625</AltitudeMeters>
            <DistanceMeters>20681.104108523</DistanceMeters>
          </Trackpoint>
          <Trackpoint>
            <Time>2021-04-01T10:34:23.000Z</Time>
            <Position>
              <LatitudeDegrees>42.42114848457276821136474609375</LatitudeDegrees>
              <LongitudeDegrees>2.74875168688595294952392578125</LongitudeDegrees>
            </Position>
            <AltitudeMeters>1077.5999755859375</AltitudeMeters>
            <DistanceMeters>20696.895421357</DistanceMeters>
          </Trackpoint>
          <Trackpoint>
            <Time>2021-04-01T10:34:28.000Z</Time>
            <Position>
              <LatitudeDegrees>42.42116893641650676727294921875</LatitudeDegrees>
              <LongitudeDegrees>2.74875931441783905029296875</LongitudeDegrees>
            </Position>
            <AltitudeMeters>1077.5999755859375</AltitudeMeters>
            <DistanceMeters>20699.257748015</DistanceMeters>
          </Trackpoint>
          <Trackpoint>
            <Time>2021-04-01T10:34:30.000Z</Time>
            <Position>
              <LatitudeDegrees>42.4211621470749378204345703125</LatitudeDegrees>
              <LongitudeDegrees>2.748744897544384002685546875</LongitudeDegrees>
            </Position>
            <AltitudeMeters>1077.5999755859375</AltitudeMeters>
            <DistanceMeters>20700.660800639</DistanceMeters>
          </Trackpoint>
          <Trackpoint>
            <Time>2021-04-01T10:34:37.000Z</Time>
            <Position>
              <LatitudeDegrees>42.4211477302014827728271484375</LatitudeDegrees>
              <LongitudeDegrees>2.7487313188612461090087890625</LongitudeDegrees>
            </Position>
            <AltitudeMeters>1077.5999755859375</AltitudeMeters>
            <DistanceMeters>20702.615211634</DistanceMeters>
          </Trackpoint>
          <Trackpoint>
            <Time>2021-04-01T10:34:39.000Z</Time>
            <Position>
              <LatitudeDegrees>42.421136833727359771728515625</LatitudeDegrees>
              <LongitudeDegrees>2.74872846901416778564453125</LongitudeDegrees>
            </Position>
            <AltitudeMeters>1077.5999755859375</AltitudeMeters>
            <DistanceMeters>20703.850558921</DistanceMeters>
          </Trackpoint>
          <Trackpoint>
            <Time>2021-04-01T10:34:48.000Z</Time>
            <Position>
              <LatitudeDegrees>42.42114144377410411834716796875</LatitudeDegrees>
              <LongitudeDegrees>2.74870525114238262176513671875</LongitudeDegrees>
            </Position>
            <AltitudeMeters>1077.5999755859375</AltitudeMeters>
            <DistanceMeters>20705.825652089</DistanceMeters>
          </Trackpoint>
          <Trackpoint>
            <Time>2021-04-01T10:34:51.000Z</Time>
            <Position>
              <LatitudeDegrees>42.42115200497210025787353515625</LatitudeDegrees>
              <LongitudeDegrees>2.74873291142284870147705078125</LongitudeDegrees>
            </Position>
            <AltitudeMeters>1077.5999755859375</AltitudeMeters>
            <DistanceMeters>20708.384324679</DistanceMeters>
          </Trackpoint>
          <Trackpoint>
            <Time>2021-04-01T10:34:53.000Z</Time>
            <Position>
              <LatitudeDegrees>42.42115451954305171966552734375</LatitudeDegrees>
              <LongitudeDegrees>2.74874447844922542572021484375</LongitudeDegrees>
            </Position>
            <AltitudeMeters>1077.5999755859375</AltitudeMeters>
            <DistanceMeters>20709.371871263</DistanceMeters>
          </Trackpoint>
          <Trackpoint>
            <Time>2021-04-01T10:34:54.000Z</Time>
            <Position>
              <LatitudeDegrees>42.4211467243731021881103515625</LatitudeDegrees>
              <LongitudeDegrees>2.7487433888018131256103515625</LongitudeDegrees>
            </Position>
            <AltitudeMeters>1077.5999755859375</AltitudeMeters>
            <DistanceMeters>20710.242805486</DistanceMeters>
          </Trackpoint>
          <Trackpoint>
            <Time>2021-04-01T10:34:56.000Z</Time>
            <Position>
              <LatitudeDegrees>42.421128451824188232421875</LatitudeDegrees>
              <LongitudeDegrees>2.7487345039844512939453125</LongitudeDegrees>
            </Position>
            <AltitudeMeters>1077.5999755859375</AltitudeMeters>
            <DistanceMeters>20712.405576764</DistanceMeters>
          </Trackpoint>
          <Trackpoint>
            <Time>2021-04-01T10:34:58.000Z</Time>
            <Position>
              <LatitudeDegrees>42.42111680097877979278564453125</LatitudeDegrees>
              <LongitudeDegrees>2.748730815947055816650390625</LongitudeDegrees>
            </Position>
            <AltitudeMeters>1077.5999755859375</AltitudeMeters>
            <DistanceMeters>20713.735950765</DistanceMeters>
          </Trackpoint>
          <Trackpoint>
            <Time>2021-04-01T10:35:00.000Z</Time>
            <Position>
              <LatitudeDegrees>42.42111160419881343841552734375</LatitudeDegrees>
              <LongitudeDegrees>2.74873240850865840911865234375</LongitudeDegrees>
            </Position>
            <AltitudeMeters>1077.5999755859375</AltitudeMeters>
            <DistanceMeters>20714.321734773</DistanceMeters>
          </Trackpoint>
          <Trackpoint>
            <Time>2021-04-01T10:35:01.000Z</Time>
            <Position>
              <LatitudeDegrees>42.42111160419881343841552734375</LatitudeDegrees>
              <LongitudeDegrees>2.74873240850865840911865234375</LongitudeDegrees>
            </Position>
            <AltitudeMeters>1077.5999755859375</AltitudeMeters>
            <DistanceMeters>20714.321734773</DistanceMeters>
          </Trackpoint>
          <Trackpoint>
            <Time>2021-04-01T10:35:15.000Z</Time>
            <Position>
              <LatitudeDegrees>42.42111160419881343841552734375</LatitudeDegrees>
              <LongitudeDegrees>2.74873240850865840911865234375</LongitudeDegrees>
            </Position>
            <AltitudeMeters>1077.5999755859375</AltitudeMeters>
            <DistanceMeters>20714.321734773</DistanceMeters>
          </Trackpoint>
          <Trackpoint>
            <Time>2021-04-01T10:35:17.000Z</Time>
            <Position>
              <LatitudeDegrees>42.42111160419881343841552734375</LatitudeDegrees>
              <LongitudeDegrees>2.74873249232769012451171875</LongitudeDegrees>
            </Position>
            <AltitudeMeters>1077.5999755859375</AltitudeMeters>
            <DistanceMeters>20714.321734773</DistanceMeters>
          </Trackpoint>
          <Trackpoint>
            <Time>2021-04-01T10:35:24.000Z</Time>
            <Position>
              <LatitudeDegrees>42.421090565621852874755859375</LatitudeDegrees>
              <LongitudeDegrees>2.748734839260578155517578125</LongitudeDegrees>
            </Position>
            <AltitudeMeters>1077.5999755859375</AltitudeMeters>
            <DistanceMeters>20716.672565857</DistanceMeters>
          </Trackpoint>
          <Trackpoint>
            <Time>2021-04-01T10:35:28.000Z</Time>
            <Position>
              <LatitudeDegrees>42.421080507338047027587890625</LatitudeDegrees>
              <LongitudeDegrees>2.74873928166925907135009765625</LongitudeDegrees>
            </Position>
            <AltitudeMeters>1077.5999755859375</AltitudeMeters>
            <DistanceMeters>20717.85181637</DistanceMeters>
          </Trackpoint>
          <Trackpoint>
            <Time>2021-04-01T10:35:35.000Z</Time>
            <Position>
              <LatitudeDegrees>42.42107321508228778839111328125</LatitudeDegrees>
              <LongitudeDegrees>2.748786471784114837646484375</LongitudeDegrees>
            </Position>
            <AltitudeMeters>1077.5999755859375</AltitudeMeters>
            <DistanceMeters>20721.813416155</DistanceMeters>
          </Trackpoint>
          <Trackpoint>
            <Time>2021-04-01T10:35:44.000Z</Time>
            <Position>
              <LatitudeDegrees>42.421067766845226287841796875</LatitudeDegrees>
              <LongitudeDegrees>2.74880298413336277008056640625</LongitudeDegrees>
            </Position>
            <AltitudeMeters>1077.5999755859375</AltitudeMeters>
            <DistanceMeters>20723.297780886</DistanceMeters>
          </Trackpoint>
          <Trackpoint>
            <Time>2021-04-01T10:35:51.000Z</Time>
            <Position>
              <LatitudeDegrees>42.42106701247394084930419921875</LatitudeDegrees>
              <LongitudeDegrees>2.7488231845200061798095703125</LongitudeDegrees>
            </Position>
            <AltitudeMeters>1077.5999755859375</AltitudeMeters>
            <DistanceMeters>20724.960069486</DistanceMeters>
          </Trackpoint>
          <Trackpoint>
            <Time>2021-04-01T10:35:53.000Z</Time>
            <Position>
              <LatitudeDegrees>42.42106701247394084930419921875</LatitudeDegrees>
              <LongitudeDegrees>2.7488241903483867645263671875</LongitudeDegrees>
            </Position>
            <AltitudeMeters>1077.5999755859375</AltitudeMeters>
            <DistanceMeters>20725.055096201</DistanceMeters>
          </Trackpoint>
          <Trackpoint>
            <Time>2021-04-01T10:36:09.000Z</Time>
            <Position>
              <LatitudeDegrees>42.42105226032435894012451171875</LatitudeDegrees>
              <LongitudeDegrees>2.7488272078335285186767578125</LongitudeDegrees>
            </Position>
            <AltitudeMeters>1077.5999755859375</AltitudeMeters>
            <DistanceMeters>20726.717384801</DistanceMeters>
          </Trackpoint>
          <Trackpoint>
            <Time>2021-04-01T10:36:12.000Z</Time>
            <Position>
              <LatitudeDegrees>42.42105226032435894012451171875</LatitudeDegrees>
              <LongitudeDegrees>2.748825363814830780029296875</LongitudeDegrees>
            </Position>
            <AltitudeMeters>1077.5999755859375</AltitudeMeters>
            <DistanceMeters>20726.85177287</DistanceMeters>
          </Trackpoint>
          <Trackpoint>
            <Time>2021-04-01T10:36:18.000Z</Time>
            <Position>
              <LatitudeDegrees>42.42105226032435894012451171875</LatitudeDegrees>
              <LongitudeDegrees>2.748822011053562164306640625</LongitudeDegrees>
            </Position>
            <AltitudeMeters>1077.5999755859375</AltitudeMeters>
            <DistanceMeters>20727.103189924</DistanceMeters>
          </Trackpoint>
          <Trackpoint>
            <Time>2021-04-01T10:36:26.000Z</Time>
            <Position>
              <LatitudeDegrees>42.42107606492936611175537109375</LatitudeDegrees>
              <LongitudeDegrees>2.74881321005523204803466796875</LongitudeDegrees>
            </Position>
            <AltitudeMeters>1077.5999755859375</AltitudeMeters>
            <DistanceMeters>20729.85076047</DistanceMeters>
          </Trackpoint>
          <Trackpoint>
            <Time>2021-04-01T10:36:30.000Z</Time>
            <Position>
              <LatitudeDegrees>42.4210796691477298736572265625</LatitudeDegrees>
              <LongitudeDegrees>2.748807929456233978271484375</LongitudeDegrees>
            </Position>
            <AltitudeMeters>1077.5999755859375</AltitudeMeters>
            <DistanceMeters>20730.444202111</DistanceMeters>
          </Trackpoint>
          <Trackpoint>
            <Time>2021-04-01T10:36:36.000Z</Time>
            <Position>
              <LatitudeDegrees>42.421079836785793304443359375</LatitudeDegrees>
              <LongitudeDegrees>2.74879284203052520751953125</LongitudeDegrees>
            </Position>
            <AltitudeMeters>1077.5999755859375</AltitudeMeters>
            <DistanceMeters>20731.683198881</DistanceMeters>
          </Trackpoint>
          <Trackpoint>
            <Time>2021-04-01T10:36:38.000Z</Time>
            <Position>
              <LatitudeDegrees>42.42108142934739589691162109375</LatitudeDegrees>
              <LongitudeDegrees>2.74879158474504947662353515625</LongitudeDegrees>
            </Position>
            <AltitudeMeters>1077.5999755859375</AltitudeMeters>
            <DistanceMeters>20731.87325231</DistanceMeters>
          </Trackpoint>
          <Trackpoint>
            <Time>2021-04-01T10:36:39.000Z</Time>
            <Position>
              <LatitudeDegrees>42.421081848442554473876953125</LatitudeDegrees>
              <LongitudeDegrees>2.74879141710698604583740234375</LongitudeDegrees>
            </Position>
            <AltitudeMeters>1078</AltitudeMeters>
            <DistanceMeters>20731.87325231</DistanceMeters>
          </Trackpoint>
          <Trackpoint>
            <Time>2021-04-01T10:36:42.000Z</Time>
            <Position>
              <LatitudeDegrees>42.4210833571851253509521484375</LatitudeDegrees>
              <LongitudeDegrees>2.74879124946892261505126953125</LongitudeDegrees>
            </Position>
            <AltitudeMeters>1078</AltitudeMeters>
            <DistanceMeters>20732.063305738</DistanceMeters>
          </Trackpoint>
          <Trackpoint>
            <Time>2021-04-01T10:36:43.000Z</Time>
            <Position>
              <LatitudeDegrees>42.42108352482318878173828125</LatitudeDegrees>
              <LongitudeDegrees>2.748791165649890899658203125</LongitudeDegrees>
            </Position>
            <AltitudeMeters>1078</AltitudeMeters>
            <DistanceMeters>20732.158332453</DistanceMeters>
          </Trackpoint>
          <Trackpoint>
            <Time>2021-04-01T10:36:45.000Z</Time>
            <Position>
              <LatitudeDegrees>42.42108813486993312835693359375</LatitudeDegrees>
              <LongitudeDegrees>2.7487933449447154998779296875</LongitudeDegrees>
            </Position>
            <AltitudeMeters>1078</AltitudeMeters>
            <DistanceMeters>20732.712428653</DistanceMeters>
          </Trackpoint>
          <Trackpoint>
            <Time>2021-04-01T10:36:46.000Z</Time>
            <Position>
              <LatitudeDegrees>42.42110087536275386810302734375</LatitudeDegrees>
              <LongitudeDegrees>2.74879778735339641571044921875</LongitudeDegrees>
            </Position>
            <AltitudeMeters>1078.199951171875</AltitudeMeters>
            <DistanceMeters>20734.178429401</DistanceMeters>
          </Trackpoint>
          <Trackpoint>
            <Time>2021-04-01T10:36:48.000Z</Time>
            <Position>
              <LatitudeDegrees>42.42112518288195133209228515625</LatitudeDegrees>
              <LongitudeDegrees>2.74880248121917247772216796875</LongitudeDegrees>
            </Position>
            <AltitudeMeters>1078.4000244140625</AltitudeMeters>
            <DistanceMeters>20736.909517672</DistanceMeters>
          </Trackpoint>
          <Trackpoint>
            <Time>2021-04-01T10:36:52.000Z</Time>
            <Position>
              <LatitudeDegrees>42.421185113489627838134765625</LatitudeDegrees>
              <LongitudeDegrees>2.74881027638912200927734375</LongitudeDegrees>
            </Position>
            <AltitudeMeters>1079</AltitudeMeters>
            <DistanceMeters>20743.610080341</DistanceMeters>
          </Trackpoint>
          <Trackpoint>
            <Time>2021-04-01T10:36:55.000Z</Time>
            <Position>
              <LatitudeDegrees>42.42122031748294830322265625</LatitudeDegrees>
              <LongitudeDegrees>2.7488191612064838409423828125</LongitudeDegrees>
            </Position>
            <AltitudeMeters>1079.199951171875</AltitudeMeters>
            <DistanceMeters>20747.595541978</DistanceMeters>
          </Trackpoint>
          <Trackpoint>
            <Time>2021-04-01T10:36:57.000Z</Time>
            <Position>
              <LatitudeDegrees>42.421238087117671966552734375</LatitudeDegrees>
              <LongitudeDegrees>2.74881505407392978668212890625</LongitudeDegrees>
            </Position>
            <AltitudeMeters>1079.199951171875</AltitudeMeters>
            <DistanceMeters>20749.602383799</DistanceMeters>
          </Trackpoint>
          <Trackpoint>
            <Time>2021-04-01T10:37:07.000Z</Time>
            <Position>
              <LatitudeDegrees>42.42129332385957241058349609375</LatitudeDegrees>
              <LongitudeDegrees>2.7487427182495594024658203125</LongitudeDegrees>
            </Position>
            <AltitudeMeters>1079.4000244140625</AltitudeMeters>
            <DistanceMeters>20758.153204167</DistanceMeters>
          </Trackpoint>
          <Trackpoint>
            <Time>2021-04-01T10:37:08.000Z</Time>
            <Position>
              <LatitudeDegrees>42.42130036465823650360107421875</LatitudeDegrees>
              <LongitudeDegrees>2.74873643182218074798583984375</LongitudeDegrees>
            </Position>
            <AltitudeMeters>1079.4000244140625</AltitudeMeters>
            <DistanceMeters>20759.084272016</DistanceMeters>
          </Trackpoint>
          <Trackpoint>
            <Time>2021-04-01T10:37:15.000Z</Time>
            <Position>
              <LatitudeDegrees>42.42133171297609806060791015625</LatitudeDegrees>
              <LongitudeDegrees>2.74866837076842784881591796875</LongitudeDegrees>
            </Position>
            <AltitudeMeters>1079.5999755859375</AltitudeMeters>
            <DistanceMeters>20765.675455352</DistanceMeters>
          </Trackpoint>
          <Trackpoint>
            <Time>2021-04-01T10:37:17.000Z</Time>
            <Position>
              <LatitudeDegrees>42.42133841849863529205322265625</LatitudeDegrees>
              <LongitudeDegrees>2.74864666163921356201171875</LongitudeDegrees>
            </Position>
            <AltitudeMeters>1079.5999755859375</AltitudeMeters>
            <DistanceMeters>20767.613627636</DistanceMeters>
          </Trackpoint>
          <Trackpoint>
            <Time>2021-04-01T10:37:26.000Z</Time>
            <Position>
              <LatitudeDegrees>42.4213747121393680572509765625</LatitudeDegrees>
              <LongitudeDegrees>2.74854180403053760528564453125</LongitudeDegrees>
            </Position>
            <AltitudeMeters>1079.5999755859375</AltitudeMeters>
            <DistanceMeters>20777.129593513</DistanceMeters>
          </Trackpoint>
          <Trackpoint>
            <Time>2021-04-01T10:37:35.000Z</Time>
            <Position>
              <LatitudeDegrees>42.42143145762383937835693359375</LatitudeDegrees>
              <LongitudeDegrees>2.748449184000492095947265625</LongitudeDegrees>
            </Position>
            <AltitudeMeters>1079.800048828125</AltitudeMeters>
            <DistanceMeters>20787.019222321</DistanceMeters>
          </Trackpoint>
          <Trackpoint>
            <Time>2021-04-01T10:37:45.000Z</Time>
            <Position>
              <LatitudeDegrees>42.421484850347042083740234375</LatitudeDegrees>
              <LongitudeDegrees>2.74834281764924526214599609375</LongitudeDegrees>
            </Position>
            <AltitudeMeters>1080</AltitudeMeters>
            <DistanceMeters>20797.587713961</DistanceMeters>
          </Trackpoint>
          <Trackpoint>
            <Time>2021-04-01T10:37:47.000Z</Time>
            <Position>
              <LatitudeDegrees>42.42149817757308483123779296875</LatitudeDegrees>
              <LongitudeDegrees>2.74832454510033130645751953125</LongitudeDegrees>
            </Position>
            <AltitudeMeters>1080</AltitudeMeters>
            <DistanceMeters>20799.699788241</DistanceMeters>
          </Trackpoint>
          <Trackpoint>
            <Time>2021-04-01T10:37:48.000Z</Time>
            <Position>
              <LatitudeDegrees>42.4215044640004634857177734375</LatitudeDegrees>
              <LongitudeDegrees>2.748323120176792144775390625</LongitudeDegrees>
            </Position>
            <AltitudeMeters>1080</AltitudeMeters>
            <DistanceMeters>20800.410903056</DistanceMeters>
          </Trackpoint>
          <Trackpoint>
            <Time>2021-04-01T10:37:50.000Z</Time>
            <Position>
              <LatitudeDegrees>42.4215218983590602874755859375</LatitudeDegrees>
              <LongitudeDegrees>2.74830392561852931976318359375</LongitudeDegrees>
            </Position>
            <AltitudeMeters>1080.199951171875</AltitudeMeters>
            <DistanceMeters>20802.912471159</DistanceMeters>
          </Trackpoint>
          <Trackpoint>
            <Time>2021-04-01T10:37:55.000Z</Time>
            <Position>
              <LatitudeDegrees>42.42154142819344997406005859375</LatitudeDegrees>
              <LongitudeDegrees>2.74824257008731365203857421875</LongitudeDegrees>
            </Position>
            <AltitudeMeters>1080.199951171875</AltitudeMeters>
            <DistanceMeters>20808.402680187</DistanceMeters>
          </Trackpoint>
          <Trackpoint>
            <Time>2021-04-01T10:37:57.000Z</Time>
            <Position>
              <LatitudeDegrees>42.4215500615537166595458984375</LatitudeDegrees>
              <LongitudeDegrees>2.74821775965392589569091796875</LongitudeDegrees>
            </Position>
            <AltitudeMeters>1080.199951171875</AltitudeMeters>
            <DistanceMeters>20810.655434715</DistanceMeters>
          </Trackpoint>
          <Trackpoint>
            <Time>2021-04-01T10:38:00.000Z</Time>
            <Position>
              <LatitudeDegrees>42.4215589463710784912109375</LatitudeDegrees>
              <LongitudeDegrees>2.74817861616611480712890625</LongitudeDegrees>
            </Position>
            <AltitudeMeters>1080.4000244140625</AltitudeMeters>
            <DistanceMeters>20814.019165647</DistanceMeters>
          </Trackpoint>
          <Trackpoint>
            <Time>2021-04-01T10:38:02.000Z</Time>
            <Position>
              <LatitudeDegrees>42.42156271822750568389892578125</LatitudeDegrees>
              <LongitudeDegrees>2.74814986623823642730712890625</LongitudeDegrees>
            </Position>
            <AltitudeMeters>1080.199951171875</AltitudeMeters>
            <DistanceMeters>20816.417531485</DistanceMeters>
          </Trackpoint>
          <Trackpoint>
            <Time>2021-04-01T10:38:04.000Z</Time>
            <Position>
              <LatitudeDegrees>42.42155936546623706817626953125</LatitudeDegrees>
              <LongitudeDegrees>2.74812120012938976287841796875</LongitudeDegrees>
            </Position>
            <AltitudeMeters>1080.199951171875</AltitudeMeters>
            <DistanceMeters>20818.800789357</DistanceMeters>
          </Trackpoint>
          <Trackpoint>
            <Time>2021-04-01T10:38:05.000Z</Time>
            <Position>
              <LatitudeDegrees>42.42156607098877429962158203125</LatitudeDegrees>
              <LongitudeDegrees>2.74810728617012500762939453125</LongitudeDegrees>
            </Position>
            <AltitudeMeters>1080.199951171875</AltitudeMeters>
            <DistanceMeters>20820.16467929</DistanceMeters>
          </Trackpoint>
          <Trackpoint>
            <Time>2021-04-01T10:38:14.000Z</Time>
            <Position>
              <LatitudeDegrees>42.42161502130329608917236328125</LatitudeDegrees>
              <LongitudeDegrees>2.74802866391837596893310546875</LongitudeDegrees>
            </Position>
            <AltitudeMeters>1079.800048828125</AltitudeMeters>
            <DistanceMeters>20828.615113865</DistanceMeters>
          </Trackpoint>
          <Trackpoint>
            <Time>2021-04-01T10:38:15.000Z</Time>
            <Position>
              <LatitudeDegrees>42.42162130773067474365234375</LatitudeDegrees>
              <LongitudeDegrees>2.74801692925393581390380859375</LongitudeDegrees>
            </Position>
            <AltitudeMeters>1079.800048828125</AltitudeMeters>
            <DistanceMeters>20829.801997147</DistanceMeters>
          </Trackpoint>
          <Trackpoint>
            <Time>2021-04-01T10:38:16.000Z</Time>
            <Position>
              <LatitudeDegrees>42.42163379676640033721923828125</LatitudeDegrees>
              <LongitudeDegrees>2.7480103075504302978515625</LongitudeDegrees>
            </Position>
            <AltitudeMeters>1079.800048828125</AltitudeMeters>
            <DistanceMeters>20831.295459193</DistanceMeters>
          </Trackpoint>
          <Trackpoint>
            <Time>2021-04-01T10:38:20.000Z</Time>
            <Position>
              <LatitudeDegrees>42.4216633848845958709716796875</LatitudeDegrees>
              <LongitudeDegrees>2.74796630255877971649169921875</LongitudeDegrees>
            </Position>
            <AltitudeMeters>1079.800048828125</AltitudeMeters>
            <DistanceMeters>20836.186335648</DistanceMeters>
          </Trackpoint>
          <Trackpoint>
            <Time>2021-04-01T10:38:22.000Z</Time>
            <Position>
              <LatitudeDegrees>42.4216573499143123626708984375</LatitudeDegrees>
              <LongitudeDegrees>2.74794853292405605316162109375</LongitudeDegrees>
            </Position>
            <AltitudeMeters>1079.800048828125</AltitudeMeters>
            <DistanceMeters>20837.793383209</DistanceMeters>
          </Trackpoint>
          <Trackpoint>
            <Time>2021-04-01T10:38:28.000Z</Time>
            <Position>
              <LatitudeDegrees>42.42169448174536228179931640625</LatitudeDegrees>
              <LongitudeDegrees>2.7479098923504352569580078125</LongitudeDegrees>
            </Position>
            <AltitudeMeters>1079.5999755859375</AltitudeMeters>
            <DistanceMeters>20843.005145861</DistanceMeters>
          </Trackpoint>
          <Trackpoint>
            <Time>2021-04-01T10:38:29.000Z</Time>
            <Position>
              <LatitudeDegrees>42.42169800214469432830810546875</LatitudeDegrees>
              <LongitudeDegrees>2.74791249074041843414306640625</LongitudeDegrees>
            </Position>
            <AltitudeMeters>1079.5999755859375</AltitudeMeters>
            <DistanceMeters>20843.45086066</DistanceMeters>
          </Trackpoint>
          <Trackpoint>
            <Time>2021-04-01T10:38:31.000Z</Time>
            <Position>
              <LatitudeDegrees>42.421702109277248382568359375</LatitudeDegrees>
              <LongitudeDegrees>2.74791617877781391143798828125</LongitudeDegrees>
            </Position>
            <AltitudeMeters>1079.4000244140625</AltitudeMeters>
            <DistanceMeters>20843.996747574</DistanceMeters>
          </Trackpoint>
          <Trackpoint>
            <Time>2021-04-01T10:38:33.000Z</Time>
            <Position>
              <LatitudeDegrees>42.4216962419450283050537109375</LatitudeDegrees>
              <LongitudeDegrees>2.747919447720050811767578125</LongitudeDegrees>
            </Position>
            <AltitudeMeters>1079.4000244140625</AltitudeMeters>
            <DistanceMeters>20844.701484549</DistanceMeters>
          </Trackpoint>
          <Trackpoint>
            <Time>2021-04-01T10:38:35.000Z</Time>
            <Position>
              <LatitudeDegrees>42.42169749923050403594970703125</LatitudeDegrees>
              <LongitudeDegrees>2.747922129929065704345703125</LongitudeDegrees>
            </Position>
            <AltitudeMeters>1079.4000244140625</AltitudeMeters>
            <DistanceMeters>20844.952901603</DistanceMeters>
          </Trackpoint>
          <Trackpoint>
            <Time>2021-04-01T10:38:42.000Z</Time>
            <Position>
              <LatitudeDegrees>42.42173052392899990081787109375</LatitudeDegrees>
              <LongitudeDegrees>2.74792724289000034332275390625</LongitudeDegrees>
            </Position>
            <AltitudeMeters>1079.199951171875</AltitudeMeters>
            <DistanceMeters>20848.652846993</DistanceMeters>
          </Trackpoint>
          <Trackpoint>
            <Time>2021-04-01T10:38:43.000Z</Time>
            <Position>
              <LatitudeDegrees>42.4217317812144756317138671875</LatitudeDegrees>
              <LongitudeDegrees>2.7479313500225543975830078125</LongitudeDegrees>
            </Position>
            <AltitudeMeters>1079.199951171875</AltitudeMeters>
            <DistanceMeters>20849.020883875</DistanceMeters>
          </Trackpoint>
          <Trackpoint>
            <Time>2021-04-01T10:38:52.000Z</Time>
            <Position>
              <LatitudeDegrees>42.4217518977820873260498046875</LatitudeDegrees>
              <LongitudeDegrees>2.74792439304292201995849609375</LongitudeDegrees>
            </Position>
            <AltitudeMeters>1079.199951171875</AltitudeMeters>
            <DistanceMeters>20851.332983626</DistanceMeters>
          </Trackpoint>
          <Trackpoint>
            <Time>2021-04-01T10:38:57.000Z</Time>
            <Position>
              <LatitudeDegrees>42.4217455275356769561767578125</LatitudeDegrees>
              <LongitudeDegrees>2.74795054458081722259521484375</LongitudeDegrees>
            </Position>
            <AltitudeMeters>1079.199951171875</AltitudeMeters>
            <DistanceMeters>20853.593740859</DistanceMeters>
          </Trackpoint>
          <Trackpoint>
            <Time>2021-04-01T10:39:01.000Z</Time>
            <Position>
              <LatitudeDegrees>42.4217455275356769561767578125</LatitudeDegrees>
              <LongitudeDegrees>2.74795054458081722259521484375</LongitudeDegrees>
            </Position>
            <AltitudeMeters>1079</AltitudeMeters>
            <DistanceMeters>20853.593740859</DistanceMeters>
          </Trackpoint>
          <Trackpoint>
            <Time>2021-04-01T10:39:05.000Z</Time>
            <Position>
              <LatitudeDegrees>42.4217572622001171112060546875</LatitudeDegrees>
              <LongitudeDegrees>2.74792724289000034332275390625</LongitudeDegrees>
            </Position>
            <AltitudeMeters>1079</AltitudeMeters>
            <DistanceMeters>20855.913638607</DistanceMeters>
          </Trackpoint>
          <Trackpoint>
            <Time>2021-04-01T10:39:08.000Z</Time>
            <Position>
              <LatitudeDegrees>42.4217874370515346527099609375</LatitudeDegrees>
              <LongitudeDegrees>2.747871167957782745361328125</LongitudeDegrees>
            </Position>
            <AltitudeMeters>1079</AltitudeMeters>
            <DistanceMeters>20861.615241469</DistanceMeters>
          </Trackpoint>
          <Trackpoint>
            <Time>2021-04-01T10:39:10.000Z</Time>
            <Position>
              <LatitudeDegrees>42.42180235683917999267578125</LatitudeDegrees>
              <LongitudeDegrees>2.74784090928733348846435546875</LongitudeDegrees>
            </Position>
            <AltitudeMeters>1078.800048828125</AltitudeMeters>
            <DistanceMeters>20864.605187234</DistanceMeters>
          </Trackpoint>
          <Trackpoint>
            <Time>2021-04-01T10:39:13.000Z</Time>
            <Position>
              <LatitudeDegrees>42.421816103160381317138671875</LatitudeDegrees>
              <LongitudeDegrees>2.74778567254543304443359375</LongitudeDegrees>
            </Position>
            <AltitudeMeters>1078.5999755859375</AltitudeMeters>
            <DistanceMeters>20869.3943828</DistanceMeters>
          </Trackpoint>
          <Trackpoint>
            <Time>2021-04-01T10:39:14.000Z</Time>
            <Position>
              <LatitudeDegrees>42.42182406596839427947998046875</LatitudeDegrees>
              <LongitudeDegrees>2.7477787993848323822021484375</LongitudeDegrees>
            </Position>
            <AltitudeMeters>1078.5999755859375</AltitudeMeters>
            <DistanceMeters>20870.443987166</DistanceMeters>
          </Trackpoint>
          <Trackpoint>
            <Time>2021-04-01T10:39:20.000Z</Time>
            <Position>
              <LatitudeDegrees>42.42180847562849521636962890625</LatitudeDegrees>
              <LongitudeDegrees>2.74766840972006320953369140625</LongitudeDegrees>
            </Position>
            <AltitudeMeters>1078.199951171875</AltitudeMeters>
            <DistanceMeters>20879.678217609</DistanceMeters>
          </Trackpoint>
          <Trackpoint>
            <Time>2021-04-01T10:39:21.000Z</Time>
            <Position>
              <LatitudeDegrees>42.42179858498275279998779296875</LatitudeDegrees>
              <LongitudeDegrees>2.74764862842857837677001953125</LongitudeDegrees>
            </Position>
            <AltitudeMeters>1078.199951171875</AltitudeMeters>
            <DistanceMeters>20881.644145562</DistanceMeters>
          </Trackpoint>
          <Trackpoint>
            <Time>2021-04-01T10:39:23.000Z</Time>
            <Position>
              <LatitudeDegrees>42.42178316228091716766357421875</LatitudeDegrees>
              <LongitudeDegrees>2.74761158041656017303466796875</LongitudeDegrees>
            </Position>
            <AltitudeMeters>1078.199951171875</AltitudeMeters>
            <DistanceMeters>20885.138235337</DistanceMeters>
          </Trackpoint>
          <Trackpoint>
            <Time>2021-04-01T10:39:27.000Z</Time>
            <Position>
              <LatitudeDegrees>42.421777881681919097900390625</LatitudeDegrees>
              <LongitudeDegrees>2.74757050909101963043212890625</LongitudeDegrees>
            </Position>
            <AltitudeMeters>1078.199951171875</AltitudeMeters>
            <DistanceMeters>20888.563154212</DistanceMeters>
          </Trackpoint>
          <Trackpoint>
            <Time>2021-04-01T10:39:28.000Z</Time>
            <Position>
              <LatitudeDegrees>42.42177410982549190521240234375</LatitudeDegrees>
              <LongitudeDegrees>2.74756732396781444549560546875</LongitudeDegrees>
            </Position>
            <AltitudeMeters>1078.199951171875</AltitudeMeters>
            <DistanceMeters>20889.06598832</DistanceMeters>
          </Trackpoint>
          <Trackpoint>
            <Time>2021-04-01T10:39:29.000Z</Time>
            <Position>
              <LatitudeDegrees>42.4217713437974452972412109375</LatitudeDegrees>
              <LongitudeDegrees>2.74756531231105327606201171875</LongitudeDegrees>
            </Position>
            <AltitudeMeters>1078.4000244140625</AltitudeMeters>
            <DistanceMeters>20889.408612011</DistanceMeters>
          </Trackpoint>
          <Trackpoint>
            <Time>2021-04-01T10:39:34.000Z</Time>
            <Position>
              <LatitudeDegrees>42.421782575547695159912109375</LatitudeDegrees>
              <LongitudeDegrees>2.74753916077315807342529296875</LongitudeDegrees>
            </Position>
            <AltitudeMeters>1078.5999755859375</AltitudeMeters>
            <DistanceMeters>20891.89388308</DistanceMeters>
          </Trackpoint>
          <Trackpoint>
            <Time>2021-04-01T10:39:40.000Z</Time>
            <Position>
              <LatitudeDegrees>42.42177511565387248992919921875</LatitudeDegrees>
              <LongitudeDegrees>2.74753153324127197265625</LongitudeDegrees>
            </Position>
            <AltitudeMeters>1078.5999755859375</AltitudeMeters>
            <DistanceMeters>20892.939176938</DistanceMeters>
          </Trackpoint>
          <Trackpoint>
            <Time>2021-04-01T10:39:51.000Z</Time>
            <Position>
              <LatitudeDegrees>42.42177628912031650543212890625</LatitudeDegrees>
              <LongitudeDegrees>2.74753153324127197265625</LongitudeDegrees>
            </Position>
            <AltitudeMeters>1079.800048828125</AltitudeMeters>
            <DistanceMeters>20893.073565007</DistanceMeters>
          </Trackpoint>
          <Trackpoint>
            <Time>2021-04-01T10:39:52.000Z</Time>
            <Position>
              <LatitudeDegrees>42.421777881681919097900390625</LatitudeDegrees>
              <LongitudeDegrees>2.74753153324127197265625</LongitudeDegrees>
            </Position>
            <AltitudeMeters>1079.800048828125</AltitudeMeters>
            <DistanceMeters>20893.263618435</DistanceMeters>
          </Trackpoint>
          <Trackpoint>
            <Time>2021-04-01T10:39:53.000Z</Time>
            <Position>
              <LatitudeDegrees>42.42177813313901424407958984375</LatitudeDegrees>
              <LongitudeDegrees>2.74753153324127197265625</LongitudeDegrees>
            </Position>
            <AltitudeMeters>1080.199951171875</AltitudeMeters>
            <DistanceMeters>20893.263618435</DistanceMeters>
          </Trackpoint>
          <Trackpoint>
            <Time>2021-04-01T10:39:58.000Z</Time>
            <Position>
              <LatitudeDegrees>42.42179087363183498382568359375</LatitudeDegrees>
              <LongitudeDegrees>2.74752574972808361053466796875</LongitudeDegrees>
            </Position>
            <AltitudeMeters>1080.5999755859375</AltitudeMeters>
            <DistanceMeters>20894.76010063</DistanceMeters>
          </Trackpoint>
          <Trackpoint>
            <Time>2021-04-01T10:40:03.000Z</Time>
            <Position>
              <LatitudeDegrees>42.42181384004652500152587890625</LatitudeDegrees>
              <LongitudeDegrees>2.74750580079853534698486328125</LongitudeDegrees>
            </Position>
            <AltitudeMeters>1081.4000244140625</AltitudeMeters>
            <DistanceMeters>20897.797984453</DistanceMeters>
          </Trackpoint>
          <Trackpoint>
            <Time>2021-04-01T10:40:10.000Z</Time>
            <Position>
              <LatitudeDegrees>42.42183362133800983428955078125</LatitudeDegrees>
              <LongitudeDegrees>2.74747797288000583648681640625</LongitudeDegrees>
            </Position>
            <AltitudeMeters>1082.4000244140625</AltitudeMeters>
            <DistanceMeters>20900.972502576</DistanceMeters>
          </Trackpoint>
          <Trackpoint>
            <Time>2021-04-01T10:40:12.000Z</Time>
            <Position>
              <LatitudeDegrees>42.4218417517840862274169921875</LatitudeDegrees>
              <LongitudeDegrees>2.74746020324528217315673828125</LongitudeDegrees>
            </Position>
            <AltitudeMeters>1082.800048828125</AltitudeMeters>
            <DistanceMeters>20902.688254575</DistanceMeters>
          </Trackpoint>
          <Trackpoint>
            <Time>2021-04-01T10:40:17.000Z</Time>
            <Position>
              <LatitudeDegrees>42.421875782310962677001953125</LatitudeDegrees>
              <LongitudeDegrees>2.7474368177354335784912109375</LongitudeDegrees>
            </Position>
            <AltitudeMeters>1083.5999755859375</AltitudeMeters>
            <DistanceMeters>20906.934789946</DistanceMeters>
          </Trackpoint>
          <Trackpoint>
            <Time>2021-04-01T10:40:23.000Z</Time>
            <Position>
              <LatitudeDegrees>42.421888522803783416748046875</LatitudeDegrees>
              <LongitudeDegrees>2.74741997011005878448486328125</LongitudeDegrees>
            </Position>
            <AltitudeMeters>1084.800048828125</AltitudeMeters>
            <DistanceMeters>20908.91444981</DistanceMeters>
          </Trackpoint>
          <Trackpoint>
            <Time>2021-04-01T10:40:29.000Z</Time>
            <Position>
              <LatitudeDegrees>42.42190754972398281097412109375</LatitudeDegrees>
              <LongitudeDegrees>2.74741728790104389190673828125</LongitudeDegrees>
            </Position>
            <AltitudeMeters>1085.800048828125</AltitudeMeters>
            <DistanceMeters>20911.043557223</DistanceMeters>
          </Trackpoint>
          <Trackpoint>
            <Time>2021-04-01T10:40:31.000Z</Time>
            <Position>
              <LatitudeDegrees>42.421914003789424896240234375</LatitudeDegrees>
              <LongitudeDegrees>2.74741561152040958404541015625</LongitudeDegrees>
            </Position>
            <AltitudeMeters>1086</AltitudeMeters>
            <DistanceMeters>20911.779630987</DistanceMeters>
          </Trackpoint>
          <Trackpoint>
            <Time>2021-04-01T10:40:35.000Z</Time>
            <Position>
              <LatitudeDegrees>42.42193370126187801361083984375</LatitudeDegrees>
              <LongitudeDegrees>2.74740957655012607574462890625</LongitudeDegrees>
            </Position>
            <AltitudeMeters>1086.800048828125</AltitudeMeters>
            <DistanceMeters>20914.028373482</DistanceMeters>
          </Trackpoint>
          <Trackpoint>
            <Time>2021-04-01T10:40:37.000Z</Time>
            <Position>
              <LatitudeDegrees>42.4219369702041149139404296875</LatitudeDegrees>
              <LongitudeDegrees>2.7474009431898593902587890625</LongitudeDegrees>
            </Position>
            <AltitudeMeters>1087.199951171875</AltitudeMeters>
            <DistanceMeters>20914.834701891</DistanceMeters>
          </Trackpoint>
          <Trackpoint>
            <Time>2021-04-01T10:40:40.000Z</Time>
            <Position>
              <LatitudeDegrees>42.42193973623216152191162109375</LatitudeDegrees>
              <LongitudeDegrees>2.74739264510571956634521484375</LongitudeDegrees>
            </Position>
            <AltitudeMeters>1087.5999755859375</AltitudeMeters>
            <DistanceMeters>20915.576884256</DistanceMeters>
          </Trackpoint>
          <Trackpoint>
            <Time>2021-04-01T10:40:42.000Z</Time>
            <Position>
              <LatitudeDegrees>42.4219403229653835296630859375</LatitudeDegrees>
              <LongitudeDegrees>2.74739080108702182769775390625</LongitudeDegrees>
            </Position>
            <AltitudeMeters>1088</AltitudeMeters>
            <DistanceMeters>20915.766937685</DistanceMeters>
          </Trackpoint>
          <Trackpoint>
            <Time>2021-04-01T10:40:43.000Z</Time>
            <Position>
              <LatitudeDegrees>42.421940825879573822021484375</LatitudeDegrees>
              <LongitudeDegrees>2.7473898790776729583740234375</LongitudeDegrees>
            </Position>
            <AltitudeMeters>1088</AltitudeMeters>
            <DistanceMeters>20915.8619644</DistanceMeters>
          </Trackpoint>
          <Trackpoint>
            <Time>2021-04-01T10:40:46.000Z</Time>
            <Position>
              <LatitudeDegrees>42.42194225080311298370361328125</LatitudeDegrees>
              <LongitudeDegrees>2.74738560430705547332763671875</LongitudeDegrees>
            </Position>
            <AltitudeMeters>1088.4000244140625</AltitudeMeters>
            <DistanceMeters>20916.242071257</DistanceMeters>
          </Trackpoint>
          <Trackpoint>
            <Time>2021-04-01T10:40:47.000Z</Time>
            <Position>
              <LatitudeDegrees>42.421942837536334991455078125</LatitudeDegrees>
              <LongitudeDegrees>2.74738241918385028839111328125</LongitudeDegrees>
            </Position>
            <AltitudeMeters>1088.4000244140625</AltitudeMeters>
            <DistanceMeters>20916.510847394</DistanceMeters>
          </Trackpoint>
          <Trackpoint>
            <Time>2021-04-01T10:40:54.000Z</Time>
            <Position>
              <LatitudeDegrees>42.4219503812491893768310546875</LatitudeDegrees>
              <LongitudeDegrees>2.74734285660088062286376953125</LongitudeDegrees>
            </Position>
            <AltitudeMeters>1089</AltitudeMeters>
            <DistanceMeters>20919.867860262</DistanceMeters>
          </Trackpoint>
          <Trackpoint>
            <Time>2021-04-01T10:41:02.000Z</Time>
            <Position>
              <LatitudeDegrees>42.42196194827556610107421875</LatitudeDegrees>
              <LongitudeDegrees>2.74731385521590709686279296875</LongitudeDegrees>
            </Position>
            <AltitudeMeters>1090.199951171875</AltitudeMeters>
            <DistanceMeters>20922.575704806</DistanceMeters>
          </Trackpoint>
          <Trackpoint>
            <Time>2021-04-01T10:41:09.000Z</Time>
            <Position>
              <LatitudeDegrees>42.4219775386154651641845703125</LatitudeDegrees>
              <LongitudeDegrees>2.74727663956582546234130859375</LongitudeDegrees>
            </Position>
            <AltitudeMeters>1091.4000244140625</AltitudeMeters>
            <DistanceMeters>20926.090408858</DistanceMeters>
          </Trackpoint>
          <Trackpoint>
            <Time>2021-04-01T10:41:16.000Z</Time>
            <Position>
              <LatitudeDegrees>42.421987093985080718994140625</LatitudeDegrees>
              <LongitudeDegrees>2.74725484661757946014404296875</LongitudeDegrees>
            </Position>
            <AltitudeMeters>1092.4000244140625</AltitudeMeters>
            <DistanceMeters>20928.172339859</DistanceMeters>
          </Trackpoint>
          <Trackpoint>
            <Time>2021-04-01T10:41:22.000Z</Time>
            <Position>
              <LatitudeDegrees>42.4220124073326587677001953125</LatitudeDegrees>
              <LongitudeDegrees>2.74724998511373996734619140625</LongitudeDegrees>
            </Position>
            <AltitudeMeters>1093.4000244140625</AltitudeMeters>
            <DistanceMeters>20931.016799122</DistanceMeters>
          </Trackpoint>
          <Trackpoint>
            <Time>2021-04-01T10:41:30.000Z</Time>
            <Position>
              <LatitudeDegrees>42.42202699184417724609375</LatitudeDegrees>
              <LongitudeDegrees>2.74724252521991729736328125</LongitudeDegrees>
            </Position>
            <AltitudeMeters>1094.4000244140625</AltitudeMeters>
            <DistanceMeters>20932.750873934</DistanceMeters>
          </Trackpoint>
          <Trackpoint>
            <Time>2021-04-01T10:41:37.000Z</Time>
            <Position>
              <LatitudeDegrees>42.4220338650047779083251953125</LatitudeDegrees>
              <LongitudeDegrees>2.74722567759454250335693359375</LongitudeDegrees>
            </Position>
            <AltitudeMeters>1095.5999755859375</AltitudeMeters>
            <DistanceMeters>20934.332433663</DistanceMeters>
          </Trackpoint>
          <Trackpoint>
            <Time>2021-04-01T10:41:43.000Z</Time>
            <Position>
              <LatitudeDegrees>42.42203839123249053955078125</LatitudeDegrees>
              <LongitudeDegrees>2.74718041531741619110107421875</LongitudeDegrees>
            </Position>
            <AltitudeMeters>1096.199951171875</AltitudeMeters>
            <DistanceMeters>20938.086890924</DistanceMeters>
          </Trackpoint>
          <Trackpoint>
            <Time>2021-04-01T10:41:46.000Z</Time>
            <Position>
              <LatitudeDegrees>42.42204065434634685516357421875</LatitudeDegrees>
              <LongitudeDegrees>2.74715744890272617340087890625</LongitudeDegrees>
            </Position>
            <AltitudeMeters>1096.5999755859375</AltitudeMeters>
            <DistanceMeters>20939.992170623</DistanceMeters>
          </Trackpoint>
          <Trackpoint>
            <Time>2021-04-01T10:41:51.000Z</Time>
            <Position>
              <LatitudeDegrees>42.4220415763556957244873046875</LatitudeDegrees>
              <LongitudeDegrees>2.74714118801057338714599609375</LongitudeDegrees>
            </Position>
            <AltitudeMeters>1097.199951171875</AltitudeMeters>
            <DistanceMeters>20941.336051306</DistanceMeters>
          </Trackpoint>
          <Trackpoint>
            <Time>2021-04-01T10:41:54.000Z</Time>
            <Position>
              <LatitudeDegrees>42.42204166017472743988037109375</LatitudeDegrees>
              <LongitudeDegrees>2.74713431484997272491455078125</LongitudeDegrees>
            </Position>
            <AltitudeMeters>1097.800048828125</AltitudeMeters>
            <DistanceMeters>20941.906211592</DistanceMeters>
          </Trackpoint>
          <Trackpoint>
            <Time>2021-04-01T10:42:00.000Z</Time>
            <Position>
              <LatitudeDegrees>42.42204467765986919403076171875</LatitudeDegrees>
              <LongitudeDegrees>2.74708905257284641265869140625</LongitudeDegrees>
            </Position>
            <AltitudeMeters>1098.800048828125</AltitudeMeters>
            <DistanceMeters>20945.640169014</DistanceMeters>
          </Trackpoint>
          <Trackpoint>
            <Time>2021-04-01T10:42:04.000Z</Time>
            <Position>
              <LatitudeDegrees>42.42204241454601287841796875</LatitudeDegrees>
              <LongitudeDegrees>2.74702333845198154449462890625</LongitudeDegrees>
            </Position>
            <AltitudeMeters>1099.5999755859375</AltitudeMeters>
            <DistanceMeters>20951.045009187</DistanceMeters>
          </Trackpoint>
          <Trackpoint>
            <Time>2021-04-01T10:42:06.000Z</Time>
            <Position>
              <LatitudeDegrees>42.4220435880124568939208984375</LatitudeDegrees>
              <LongitudeDegrees>2.74699509143829345703125</LongitudeDegrees>
            </Position>
            <AltitudeMeters>1100</AltitudeMeters>
            <DistanceMeters>20953.372678808</DistanceMeters>
          </Trackpoint>
          <Trackpoint>
            <Time>2021-04-01T10:42:09.000Z</Time>
            <Position>
              <LatitudeDegrees>42.42204635404050350189208984375</LatitudeDegrees>
              <LongitudeDegrees>2.74694974534213542938232421875</LongitudeDegrees>
            </Position>
            <AltitudeMeters>1100.5999755859375</AltitudeMeters>
            <DistanceMeters>20957.111469834</DistanceMeters>
          </Trackpoint>
          <Trackpoint>
            <Time>2021-04-01T10:42:11.000Z</Time>
            <Position>
              <LatitudeDegrees>42.42204551585018634796142578125</LatitudeDegrees>
              <LongitudeDegrees>2.74692870676517486572265625</LongitudeDegrees>
            </Position>
            <AltitudeMeters>1100.800048828125</AltitudeMeters>
            <DistanceMeters>20958.842938973</DistanceMeters>
          </Trackpoint>
          <Trackpoint>
            <Time>2021-04-01T10:42:13.000Z</Time>
            <Position>
              <LatitudeDegrees>42.4220449291169643402099609375</LatitudeDegrees>
              <LongitudeDegrees>2.7469050697982311248779296875</LongitudeDegrees>
            </Position>
            <AltitudeMeters>1101</AltitudeMeters>
            <DistanceMeters>20960.785764738</DistanceMeters>
          </Trackpoint>
          <Trackpoint>
            <Time>2021-04-01T10:42:16.000Z</Time>
            <Position>
              <LatitudeDegrees>42.42203612811863422393798828125</LatitudeDegrees>
              <LongitudeDegrees>2.74686969816684722900390625</LongitudeDegrees>
            </Position>
            <AltitudeMeters>1101.4000244140625</AltitudeMeters>
            <DistanceMeters>20963.853229433</DistanceMeters>
          </Trackpoint>
          <Trackpoint>
            <Time>2021-04-01T10:42:19.000Z</Time>
            <Position>
              <LatitudeDegrees>42.42203394882380962371826171875</LatitudeDegrees>
              <LongitudeDegrees>2.74684648029506206512451171875</LongitudeDegrees>
            </Position>
            <AltitudeMeters>1101.800048828125</AltitudeMeters>
            <DistanceMeters>20965.777373747</DistanceMeters>
          </Trackpoint>
          <Trackpoint>
            <Time>2021-04-01T10:42:21.000Z</Time>
            <Position>
              <LatitudeDegrees>42.422035038471221923828125</LatitudeDegrees>
              <LongitudeDegrees>2.74683021940290927886962890625</LongitudeDegrees>
            </Position>
            <AltitudeMeters>1102.199951171875</AltitudeMeters>
            <DistanceMeters>20967.12125443</DistanceMeters>
          </Trackpoint>
          <Trackpoint>
            <Time>2021-04-01T10:42:22.000Z</Time>
            <Position>
              <LatitudeDegrees>42.4220325239002704620361328125</LatitudeDegrees>
              <LongitudeDegrees>2.7468205802142620086669921875</LongitudeDegrees>
            </Position>
            <AltitudeMeters>1102.199951171875</AltitudeMeters>
            <DistanceMeters>20967.960507647</DistanceMeters>
          </Trackpoint>
          <Trackpoint>
            <Time>2021-04-01T10:42:25.000Z</Time>
            <Position>
              <LatitudeDegrees>42.4220283329486846923828125</LatitudeDegrees>
              <LongitudeDegrees>2.7467897348105907440185546875</LongitudeDegrees>
            </Position>
            <AltitudeMeters>1102.5999755859375</AltitudeMeters>
            <DistanceMeters>20970.536765823</DistanceMeters>
          </Trackpoint>
          <Trackpoint>
            <Time>2021-04-01T10:42:27.000Z</Time>
            <Position>
              <LatitudeDegrees>42.422031350433826446533203125</LatitudeDegrees>
              <LongitudeDegrees>2.746776156127452850341796875</LongitudeDegrees>
            </Position>
            <AltitudeMeters>1103</AltitudeMeters>
            <DistanceMeters>20971.700600633</DistanceMeters>
          </Trackpoint>
          <Trackpoint>
            <Time>2021-04-01T10:42:29.000Z</Time>
            <Position>
              <LatitudeDegrees>42.42204182781279087066650390625</LatitudeDegrees>
              <LongitudeDegrees>2.74676106870174407958984375</LongitudeDegrees>
            </Position>
            <AltitudeMeters>1103.199951171875</AltitudeMeters>
            <DistanceMeters>20973.403144183</DistanceMeters>
          </Trackpoint>
          <Trackpoint>
            <Time>2021-04-01T10:42:30.000Z</Time>
            <Position>
              <LatitudeDegrees>42.4220385588705539703369140625</LatitudeDegrees>
              <LongitudeDegrees>2.746743969619274139404296875</LongitudeDegrees>
            </Position>
            <AltitudeMeters>1103.4000244140625</AltitudeMeters>
            <DistanceMeters>20974.856773396</DistanceMeters>
          </Trackpoint>
          <Trackpoint>
            <Time>2021-04-01T10:42:33.000Z</Time>
            <Position>
              <LatitudeDegrees>42.4220311827957630157470703125</LatitudeDegrees>
              <LongitudeDegrees>2.7467028982937335968017578125</LongitudeDegrees>
            </Position>
            <AltitudeMeters>1103.5999755859375</AltitudeMeters>
            <DistanceMeters>20978.330126549</DistanceMeters>
          </Trackpoint>
          <Trackpoint>
            <Time>2021-04-01T10:42:34.000Z</Time>
            <Position>
              <LatitudeDegrees>42.4220321886241436004638671875</LatitudeDegrees>
              <LongitudeDegrees>2.74669879116117954254150390625</LongitudeDegrees>
            </Position>
            <AltitudeMeters>1103.800048828125</AltitudeMeters>
            <DistanceMeters>20978.685683957</DistanceMeters>
          </Trackpoint>
          <Trackpoint>
            <Time>2021-04-01T10:42:36.000Z</Time>
            <Position>
              <LatitudeDegrees>42.4220285005867481231689453125</LatitudeDegrees>
              <LongitudeDegrees>2.746680937707424163818359375</LongitudeDegrees>
            </Position>
            <AltitudeMeters>1104.4000244140625</AltitudeMeters>
            <DistanceMeters>20980.206111387</DistanceMeters>
          </Trackpoint>
          <Trackpoint>
            <Time>2021-04-01T10:42:42.000Z</Time>
            <Position>
              <LatitudeDegrees>42.4220422469079494476318359375</LatitudeDegrees>
              <LongitudeDegrees>2.7466391958296298980712890625</LongitudeDegrees>
            </Position>
            <AltitudeMeters>1105.199951171875</AltitudeMeters>
            <DistanceMeters>20983.960568648</DistanceMeters>
          </Trackpoint>
          <Trackpoint>
            <Time>2021-04-01T10:42:43.000Z</Time>
            <Position>
              <LatitudeDegrees>42.42203973233699798583984375</LatitudeDegrees>
              <LongitudeDegrees>2.74662704207003116607666015625</LongitudeDegrees>
            </Position>
            <AltitudeMeters>1105.199951171875</AltitudeMeters>
            <DistanceMeters>20984.997187719</DistanceMeters>
          </Trackpoint>
          <Trackpoint>
            <Time>2021-04-01T10:42:44.000Z</Time>
            <Position>
              <LatitudeDegrees>42.42203881032764911651611328125</LatitudeDegrees>
              <LongitudeDegrees>2.7466174028813838958740234375</LongitudeDegrees>
            </Position>
            <AltitudeMeters>1105.5999755859375</AltitudeMeters>
            <DistanceMeters>20985.792238252</DistanceMeters>
          </Trackpoint>
          <Trackpoint>
            <Time>2021-04-01T10:42:49.000Z</Time>
            <Position>
              <LatitudeDegrees>42.42205976508557796478271484375</LatitudeDegrees>
              <LongitudeDegrees>2.74658597074449062347412109375</LongitudeDegrees>
            </Position>
            <AltitudeMeters>1106.199951171875</AltitudeMeters>
            <DistanceMeters>20989.27078715</DistanceMeters>
          </Trackpoint>
          <Trackpoint>
            <Time>2021-04-01T10:42:51.000Z</Time>
            <Position>
              <LatitudeDegrees>42.42206060327589511871337890625</LatitudeDegrees>
              <LongitudeDegrees>2.74657038040459156036376953125</LongitudeDegrees>
            </Position>
            <AltitudeMeters>1106.4000244140625</AltitudeMeters>
            <DistanceMeters>20990.552767615</DistanceMeters>
          </Trackpoint>
          <Trackpoint>
            <Time>2021-04-01T10:42:53.000Z</Time>
            <Position>
              <LatitudeDegrees>42.422056831419467926025390625</LatitudeDegrees>
              <LongitudeDegrees>2.746566943824291229248046875</LongitudeDegrees>
            </Position>
            <AltitudeMeters>1106.5999755859375</AltitudeMeters>
            <DistanceMeters>20991.055601724</DistanceMeters>
          </Trackpoint>
          <Trackpoint>
            <Time>2021-04-01T10:42:58.000Z</Time>
            <Position>
              <LatitudeDegrees>42.42204048670828342437744140625</LatitudeDegrees>
              <LongitudeDegrees>2.74651229381561279296875</LongitudeDegrees>
            </Position>
            <AltitudeMeters>1107.4000244140625</AltitudeMeters>
            <DistanceMeters>20995.901032432</DistanceMeters>
          </Trackpoint>
          <Trackpoint>
            <Time>2021-04-01T10:43:00.000Z</Time>
            <Position>
              <LatitudeDegrees>42.42205448448657989501953125</LatitudeDegrees>
              <LongitudeDegrees>2.74649494327604770660400390625</LongitudeDegrees>
            </Position>
            <AltitudeMeters>1107.800048828125</AltitudeMeters>
            <DistanceMeters>20998.013106712</DistanceMeters>
          </Trackpoint>
          <Trackpoint>
            <Time>2021-04-01T10:43:05.000Z</Time>
            <Position>
              <LatitudeDegrees>42.42207652889192104339599609375</LatitudeDegrees>
              <LongitudeDegrees>2.7464765869081020355224609375</LongitudeDegrees>
            </Position>
            <AltitudeMeters>1108.4000244140625</AltitudeMeters>
            <DistanceMeters>21000.892275025</DistanceMeters>
          </Trackpoint>
          <Trackpoint>
            <Time>2021-04-01T10:43:06.000Z</Time>
            <Position>
              <LatitudeDegrees>42.42208373732864856719970703125</LatitudeDegrees>
              <LongitudeDegrees>2.746472395956516265869140625</LongitudeDegrees>
            </Position>
            <AltitudeMeters>1108.5999755859375</AltitudeMeters>
            <DistanceMeters>21001.763209249</DistanceMeters>
          </Trackpoint>
          <Trackpoint>
            <Time>2021-04-01T10:43:08.000Z</Time>
            <Position>
              <LatitudeDegrees>42.42207636125385761260986328125</LatitudeDegrees>
              <LongitudeDegrees>2.74643811397254467010498046875</LongitudeDegrees>
            </Position>
            <AltitudeMeters>1108.800048828125</AltitudeMeters>
            <DistanceMeters>21004.695210745</DistanceMeters>
          </Trackpoint>
          <Trackpoint>
            <Time>2021-04-01T10:43:09.000Z</Time>
            <Position>
              <LatitudeDegrees>42.42208189330995082855224609375</LatitudeDegrees>
              <LongitudeDegrees>2.74642872624099254608154296875</LongitudeDegrees>
            </Position>
            <AltitudeMeters>1109</AltitudeMeters>
            <DistanceMeters>21005.682757329</DistanceMeters>
          </Trackpoint>
          <Trackpoint>
            <Time>2021-04-01T10:43:11.000Z</Time>
            <Position>
              <LatitudeDegrees>42.4220787920057773590087890625</LatitudeDegrees>
              <LongitudeDegrees>2.74640391580760478973388671875</LongitudeDegrees>
            </Position>
            <AltitudeMeters>1109.4000244140625</AltitudeMeters>
            <DistanceMeters>21007.751635343</DistanceMeters>
          </Trackpoint>
          <Trackpoint>
            <Time>2021-04-01T10:43:15.000Z</Time>
            <Position>
              <LatitudeDegrees>42.42209865711629390716552734375</LatitudeDegrees>
              <LongitudeDegrees>2.74637793190777301788330078125</LongitudeDegrees>
            </Position>
            <AltitudeMeters>1109.800048828125</AltitudeMeters>
            <DistanceMeters>21010.82645079</DistanceMeters>
          </Trackpoint>
          <Trackpoint>
            <Time>2021-04-01T10:43:16.000Z</Time>
            <Position>
              <LatitudeDegrees>42.422101758420467376708984375</LatitudeDegrees>
              <LongitudeDegrees>2.7463692985475063323974609375</LongitudeDegrees>
            </Position>
            <AltitudeMeters>1110</AltitudeMeters>
            <DistanceMeters>21011.621501324</DistanceMeters>
          </Trackpoint>
          <Trackpoint>
            <Time>2021-04-01T10:43:19.000Z</Time>
            <Position>
              <LatitudeDegrees>42.42212011478841304779052734375</LatitudeDegrees>
              <LongitudeDegrees>2.74635161273181438446044921875</LongitudeDegrees>
            </Position>
            <AltitudeMeters>1110.5999755859375</AltitudeMeters>
            <DistanceMeters>21014.128478229</DistanceMeters>
          </Trackpoint>
          <Trackpoint>
            <Time>2021-04-01T10:43:20.000Z</Time>
            <Position>
              <LatitudeDegrees>42.42211927659809589385986328125</LatitudeDegrees>
              <LongitudeDegrees>2.7463434822857379913330078125</LongitudeDegrees>
            </Position>
            <AltitudeMeters>1110.800048828125</AltitudeMeters>
            <DistanceMeters>21014.800418571</DistanceMeters>
          </Trackpoint>
          <Trackpoint>
            <Time>2021-04-01T10:43:21.000Z</Time>
            <Position>
              <LatitudeDegrees>42.42212028242647647857666015625</LatitudeDegrees>
              <LongitudeDegrees>2.7463340945541858673095703125</LongitudeDegrees>
            </Position>
            <AltitudeMeters>1111</AltitudeMeters>
            <DistanceMeters>21015.578245751</DistanceMeters>
          </Trackpoint>
          <Trackpoint>
            <Time>2021-04-01T10:43:24.000Z</Time>
            <Position>
              <LatitudeDegrees>42.42213939316570758819580078125</LatitudeDegrees>
              <LongitudeDegrees>2.74632395245134830474853515625</LongitudeDegrees>
            </Position>
            <AltitudeMeters>1111.5999755859375</AltitudeMeters>
            <DistanceMeters>21017.862842911</DistanceMeters>
          </Trackpoint>
          <Trackpoint>
            <Time>2021-04-01T10:43:25.000Z</Time>
            <Position>
              <LatitudeDegrees>42.42214878089725971221923828125</LatitudeDegrees>
              <LongitudeDegrees>2.74631825275719165802001953125</LongitudeDegrees>
            </Position>
            <AltitudeMeters>1111.800048828125</AltitudeMeters>
            <DistanceMeters>21019.011055069</DistanceMeters>
          </Trackpoint>
          <Trackpoint>
            <Time>2021-04-01T10:43:27.000Z</Time>
            <Position>
              <LatitudeDegrees>42.42215582169592380523681640625</LatitudeDegrees>
              <LongitudeDegrees>2.7463089488446712493896484375</LongitudeDegrees>
            </Position>
            <AltitudeMeters>1112.199951171875</AltitudeMeters>
            <DistanceMeters>21020.106956601</DistanceMeters>
          </Trackpoint>
          <Trackpoint>
            <Time>2021-04-01T10:43:28.000Z</Time>
            <Position>
              <LatitudeDegrees>42.42215774953365325927734375</LatitudeDegrees>
              <LongitudeDegrees>2.74630215950310230255126953125</LongitudeDegrees>
            </Position>
            <AltitudeMeters>1112.4000244140625</AltitudeMeters>
            <DistanceMeters>21020.69274061</DistanceMeters>
          </Trackpoint>
          <Trackpoint>
            <Time>2021-04-01T10:43:33.000Z</Time>
            <Position>
              <LatitudeDegrees>42.42216043174266815185546875</LatitudeDegrees>
              <LongitudeDegrees>2.7462677098810672760009765625</LongitudeDegrees>
            </Position>
            <AltitudeMeters>1113.199951171875</AltitudeMeters>
            <DistanceMeters>21023.537199872</DistanceMeters>
          </Trackpoint>
          <Trackpoint>
            <Time>2021-04-01T10:43:35.000Z</Time>
            <Position>
              <LatitudeDegrees>42.42217141203582286834716796875</LatitudeDegrees>
              <LongitudeDegrees>2.74627349339425563812255859375</LongitudeDegrees>
            </Position>
            <AltitudeMeters>1113.4000244140625</AltitudeMeters>
            <DistanceMeters>21024.847052735</DistanceMeters>
          </Trackpoint>
          <Trackpoint>
            <Time>2021-04-01T10:43:36.000Z</Time>
            <Position>
              <LatitudeDegrees>42.42217258550226688385009765625</LatitudeDegrees>
              <LongitudeDegrees>2.74627290666103363037109375</LongitudeDegrees>
            </Position>
            <AltitudeMeters>1113.4000244140625</AltitudeMeters>
            <DistanceMeters>21025.011643833</DistanceMeters>
          </Trackpoint>
          <Trackpoint>
            <Time>2021-04-01T10:43:42.000Z</Time>
            <Position>
              <LatitudeDegrees>42.42221751250326633453369140625</LatitudeDegrees>
              <LongitudeDegrees>2.74624516256153583526611328125</LongitudeDegrees>
            </Position>
            <AltitudeMeters>1114.4000244140625</AltitudeMeters>
            <DistanceMeters>21030.506784925</DistanceMeters>
          </Trackpoint>
          <Trackpoint>
            <Time>2021-04-01T10:43:43.000Z</Time>
            <Position>
              <LatitudeDegrees>42.4222219549119472503662109375</LatitudeDegrees>
              <LongitudeDegrees>2.7462427318096160888671875</LongitudeDegrees>
            </Position>
            <AltitudeMeters>1114.5999755859375</AltitudeMeters>
            <DistanceMeters>21031.035871279</DistanceMeters>
          </Trackpoint>
          <Trackpoint>
            <Time>2021-04-01T10:43:48.000Z</Time>
            <Position>
              <LatitudeDegrees>42.42222975008189678192138671875</LatitudeDegrees>
              <LongitudeDegrees>2.74620275013148784637451171875</LongitudeDegrees>
            </Position>
            <AltitudeMeters>1115.5999755859375</AltitudeMeters>
            <DistanceMeters>21034.432993252</DistanceMeters>
          </Trackpoint>
          <Trackpoint>
            <Time>2021-04-01T10:43:52.000Z</Time>
            <Position>
              <LatitudeDegrees>42.4222469329833984375</LatitudeDegrees>
              <LongitudeDegrees>2.74619637988507747650146484375</LongitudeDegrees>
            </Position>
            <AltitudeMeters>1116</AltitudeMeters>
            <DistanceMeters>21036.417209301</DistanceMeters>
          </Trackpoint>
          <Trackpoint>
            <Time>2021-04-01T10:43:56.000Z</Time>
            <Position>
              <LatitudeDegrees>42.42225858382880687713623046875</LatitudeDegrees>
              <LongitudeDegrees>2.74618573486804962158203125</LongitudeDegrees>
            </Position>
            <AltitudeMeters>1116.5999755859375</AltitudeMeters>
            <DistanceMeters>21037.978657551</DistanceMeters>
          </Trackpoint>
          <Trackpoint>
            <Time>2021-04-01T10:43:58.000Z</Time>
            <Position>
              <LatitudeDegrees>42.422265373170375823974609375</LatitudeDegrees>
              <LongitudeDegrees>2.7461741678416728973388671875</LongitudeDegrees>
            </Position>
            <AltitudeMeters>1116.800048828125</AltitudeMeters>
            <DistanceMeters>21039.191877425</DistanceMeters>
          </Trackpoint>
          <Trackpoint>
            <Time>2021-04-01T10:44:01.000Z</Time>
            <Position>
              <LatitudeDegrees>42.4222766049206256866455078125</LatitudeDegrees>
              <LongitudeDegrees>2.74616184644401073455810546875</LongitudeDegrees>
            </Position>
            <AltitudeMeters>1117</AltitudeMeters>
            <DistanceMeters>21040.796113002</DistanceMeters>
          </Trackpoint>
          <Trackpoint>
            <Time>2021-04-01T10:44:03.000Z</Time>
            <Position>
              <LatitudeDegrees>42.4222829751670360565185546875</LatitudeDegrees>
              <LongitudeDegrees>2.74615086615085601806640625</LongitudeDegrees>
            </Position>
            <AltitudeMeters>1117.4000244140625</AltitudeMeters>
            <DistanceMeters>21041.94038617</DistanceMeters>
          </Trackpoint>
          <Trackpoint>
            <Time>2021-04-01T10:44:05.000Z</Time>
            <Position>
              <LatitudeDegrees>42.42229110561311244964599609375</LatitudeDegrees>
              <LongitudeDegrees>2.74614089168608188629150390625</LongitudeDegrees>
            </Position>
            <AltitudeMeters>1117.5999755859375</AltitudeMeters>
            <DistanceMeters>21043.161026417</DistanceMeters>
          </Trackpoint>
          <Trackpoint>
            <Time>2021-04-01T10:44:08.000Z</Time>
            <Position>
              <LatitudeDegrees>42.4222923628985881805419921875</LatitudeDegrees>
              <LongitudeDegrees>2.74612664245069026947021484375</LongitudeDegrees>
            </Position>
            <AltitudeMeters>1118</AltitudeMeters>
            <DistanceMeters>21044.34027693</DistanceMeters>
          </Trackpoint>
          <Trackpoint>
            <Time>2021-04-01T10:44:12.000Z</Time>
            <Position>
              <LatitudeDegrees>42.4223000742495059967041015625</LatitudeDegrees>
              <LongitudeDegrees>2.74610384367406368255615234375</LongitudeDegrees>
            </Position>
            <AltitudeMeters>1118.800048828125</AltitudeMeters>
            <DistanceMeters>21046.400407006</DistanceMeters>
          </Trackpoint>
          <Trackpoint>
            <Time>2021-04-01T10:44:15.000Z</Time>
            <Position>
              <LatitudeDegrees>42.42230870760977268218994140625</LatitudeDegrees>
              <LongitudeDegrees>2.74608842097222805023193359375</LongitudeDegrees>
            </Position>
            <AltitudeMeters>1119.4000244140625</AltitudeMeters>
            <DistanceMeters>21047.990508073</DistanceMeters>
          </Trackpoint>
          <Trackpoint>
            <Time>2021-04-01T10:44:17.000Z</Time>
            <Position>
              <LatitudeDegrees>42.42231189273297786712646484375</LatitudeDegrees>
              <LongitudeDegrees>2.7460772730410099029541015625</LongitudeDegrees>
            </Position>
            <AltitudeMeters>1119.800048828125</AltitudeMeters>
            <DistanceMeters>21048.97347205</DistanceMeters>
          </Trackpoint>
          <Trackpoint>
            <Time>2021-04-01T10:44:22.000Z</Time>
            <Position>
              <LatitudeDegrees>42.4223245494067668914794921875</LatitudeDegrees>
              <LongitudeDegrees>2.74606042541563510894775390625</LongitudeDegrees>
            </Position>
            <AltitudeMeters>1120.4000244140625</AltitudeMeters>
            <DistanceMeters>21050.948565218</DistanceMeters>
          </Trackpoint>
          <Trackpoint>
            <Time>2021-04-01T10:44:24.000Z</Time>
            <Position>
              <LatitudeDegrees>42.4223394691944122314453125</LatitudeDegrees>
              <LongitudeDegrees>2.7460417337715625762939453125</LongitudeDegrees>
            </Position>
            <AltitudeMeters>1120.4000244140625</AltitudeMeters>
            <DistanceMeters>21053.2133132</DistanceMeters>
          </Trackpoint>
          <Trackpoint>
            <Time>2021-04-01T10:44:26.000Z</Time>
            <Position>
              <LatitudeDegrees>42.42234407924115657806396484375</LatitudeDegrees>
              <LongitudeDegrees>2.74602170102298259735107421875</LongitudeDegrees>
            </Position>
            <AltitudeMeters>1120.5999755859375</AltitudeMeters>
            <DistanceMeters>21054.936941684</DistanceMeters>
          </Trackpoint>
          <Trackpoint>
            <Time>2021-04-01T10:44:28.000Z</Time>
            <Position>
              <LatitudeDegrees>42.42234072647988796234130859375</LatitudeDegrees>
              <LongitudeDegrees>2.7460068650543689727783203125</LongitudeDegrees>
            </Position>
            <AltitudeMeters>1120.5999755859375</AltitudeMeters>
            <DistanceMeters>21056.211858842</DistanceMeters>
          </Trackpoint>
          <Trackpoint>
            <Time>2021-04-01T10:44:29.000Z</Time>
            <Position>
              <LatitudeDegrees>42.42233569733798503875732421875</LatitudeDegrees>
              <LongitudeDegrees>2.7459981478750705718994140625</LongitudeDegrees>
            </Position>
            <AltitudeMeters>1120.800048828125</AltitudeMeters>
            <DistanceMeters>21057.123323067</DistanceMeters>
          </Trackpoint>
          <Trackpoint>
            <Time>2021-04-01T10:44:32.000Z</Time>
            <Position>
              <LatitudeDegrees>42.422342486679553985595703125</LatitudeDegrees>
              <LongitudeDegrees>2.74596353061497211456298828125</LongitudeDegrees>
            </Position>
            <AltitudeMeters>1121</AltitudeMeters>
            <DistanceMeters>21060.064549551</DistanceMeters>
          </Trackpoint>
          <Trackpoint>
            <Time>2021-04-01T10:44:37.000Z</Time>
            <Position>
              <LatitudeDegrees>42.42237123660743236541748046875</LatitudeDegrees>
              <LongitudeDegrees>2.745912484824657440185546875</LongitudeDegrees>
            </Position>
            <AltitudeMeters>1121.5999755859375</AltitudeMeters>
            <DistanceMeters>21065.340030155</DistanceMeters>
          </Trackpoint>
          <Trackpoint>
            <Time>2021-04-01T10:44:38.000Z</Time>
            <Position>
              <LatitudeDegrees>42.4223704822361469268798828125</LatitudeDegrees>
              <LongitudeDegrees>2.7459022589027881622314453125</LongitudeDegrees>
            </Position>
            <AltitudeMeters>1121.5999755859375</AltitudeMeters>
            <DistanceMeters>21066.179283372</DistanceMeters>
          </Trackpoint>
          <Trackpoint>
            <Time>2021-04-01T10:44:41.000Z</Time>
            <Position>
              <LatitudeDegrees>42.42238037288188934326171875</LatitudeDegrees>
              <LongitudeDegrees>2.745881639420986175537109375</LongitudeDegrees>
            </Position>
            <AltitudeMeters>1121.800048828125</AltitudeMeters>
            <DistanceMeters>21068.199579032</DistanceMeters>
          </Trackpoint>
          <Trackpoint>
            <Time>2021-04-01T10:44:42.000Z</Time>
            <Position>
              <LatitudeDegrees>42.42238347418606281280517578125</LatitudeDegrees>
              <LongitudeDegrees>2.74587736465036869049072265625</LongitudeDegrees>
            </Position>
            <AltitudeMeters>1122</AltitudeMeters>
            <DistanceMeters>21068.684122103</DistanceMeters>
          </Trackpoint>
          <Trackpoint>
            <Time>2021-04-01T10:44:43.000Z</Time>
            <Position>
              <LatitudeDegrees>42.42238682694733142852783203125</LatitudeDegrees>
              <LongitudeDegrees>2.74587434716522693634033203125</LongitudeDegrees>
            </Position>
            <AltitudeMeters>1122</AltitudeMeters>
            <DistanceMeters>21069.129836901</DistanceMeters>
          </Trackpoint>
          <Trackpoint>
            <Time>2021-04-01T10:44:47.000Z</Time>
            <Position>
              <LatitudeDegrees>42.42241146974265575408935546875</LatitudeDegrees>
              <LongitudeDegrees>2.74585439823567867279052734375</LongitudeDegrees>
            </Position>
            <AltitudeMeters>1122.4000244140625</AltitudeMeters>
            <DistanceMeters>21072.324204817</DistanceMeters>
          </Trackpoint>
          <Trackpoint>
            <Time>2021-04-01T10:44:48.000Z</Time>
            <Position>
              <LatitudeDegrees>42.4224140681326389312744140625</LatitudeDegrees>
              <LongitudeDegrees>2.7458472736179828643798828125</LongitudeDegrees>
            </Position>
            <AltitudeMeters>1122.4000244140625</AltitudeMeters>
            <DistanceMeters>21072.968707351</DistanceMeters>
          </Trackpoint>
          <Trackpoint>
            <Time>2021-04-01T10:44:51.000Z</Time>
            <Position>
              <LatitudeDegrees>42.42243343032896518707275390625</LatitudeDegrees>
              <LongitudeDegrees>2.7458417415618896484375</LongitudeDegrees>
            </Position>
            <AltitudeMeters>1122.5999755859375</AltitudeMeters>
            <DistanceMeters>21075.172835552</DistanceMeters>
          </Trackpoint>
          <Trackpoint>
            <Time>2021-04-01T10:44:52.000Z</Time>
            <Position>
              <LatitudeDegrees>42.42243929766118526458740234375</LatitudeDegrees>
              <LongitudeDegrees>2.7458321861922740936279296875</LongitudeDegrees>
            </Position>
            <AltitudeMeters>1122.5999755859375</AltitudeMeters>
            <DistanceMeters>21076.196304588</DistanceMeters>
          </Trackpoint>
          <Trackpoint>
            <Time>2021-04-01T10:44:55.000Z</Time>
            <Position>
              <LatitudeDegrees>42.42246025241911411285400390625</LatitudeDegrees>
              <LongitudeDegrees>2.74582958780229091644287109375</LongitudeDegrees>
            </Position>
            <AltitudeMeters>1123</AltitudeMeters>
            <DistanceMeters>21078.539440623</DistanceMeters>
          </Trackpoint>
          <Trackpoint>
            <Time>2021-04-01T10:45:02.000Z</Time>
            <Position>
              <LatitudeDegrees>42.4224667064845561981201171875</LatitudeDegrees>
              <LongitudeDegrees>2.74580209515988826751708984375</LongitudeDegrees>
            </Position>
            <AltitudeMeters>1124</AltitudeMeters>
            <DistanceMeters>21080.909400021</DistanceMeters>
          </Trackpoint>
          <Trackpoint>
            <Time>2021-04-01T10:45:03.000Z</Time>
            <Position>
              <LatitudeDegrees>42.42246779613196849822998046875</LatitudeDegrees>
              <LongitudeDegrees>2.7457929588854312896728515625</LongitudeDegrees>
            </Position>
            <AltitudeMeters>1124</AltitudeMeters>
            <DistanceMeters>21081.669613736</DistanceMeters>
          </Trackpoint>
          <Trackpoint>
            <Time>2021-04-01T10:45:08.000Z</Time>
            <Position>
              <LatitudeDegrees>42.42250509560108184814453125</LatitudeDegrees>
              <LongitudeDegrees>2.74573587812483310699462890625</LongitudeDegrees>
            </Position>
            <AltitudeMeters>1124.4000244140625</AltitudeMeters>
            <DistanceMeters>21087.932732134</DistanceMeters>
          </Trackpoint>
          <Trackpoint>
            <Time>2021-04-01T10:45:13.000Z</Time>
            <Position>
              <LatitudeDegrees>42.42250165902078151702880859375</LatitudeDegrees>
              <LongitudeDegrees>2.74571190588176250457763671875</LongitudeDegrees>
            </Position>
            <AltitudeMeters>1125.199951171875</AltitudeMeters>
            <DistanceMeters>21089.93732287</DistanceMeters>
          </Trackpoint>
          <Trackpoint>
            <Time>2021-04-01T10:45:14.000Z</Time>
            <Position>
              <LatitudeDegrees>42.42250584997236728668212890625</LatitudeDegrees>
              <LongitudeDegrees>2.74571207351982593536376953125</LongitudeDegrees>
            </Position>
            <AltitudeMeters>1125.4000244140625</AltitudeMeters>
            <DistanceMeters>21090.402856794</DistanceMeters>
          </Trackpoint>
          <Trackpoint>
            <Time>2021-04-01T10:45:19.000Z</Time>
            <Position>
              <LatitudeDegrees>42.4224861524999141693115234375</LatitudeDegrees>
              <LongitudeDegrees>2.74565490894019603729248046875</LongitudeDegrees>
            </Position>
            <AltitudeMeters>1126</AltitudeMeters>
            <DistanceMeters>21095.586823181</DistanceMeters>
          </Trackpoint>
          <Trackpoint>
            <Time>2021-04-01T10:45:23.000Z</Time>
            <Position>
              <LatitudeDegrees>42.4224982224404811859130859375</LatitudeDegrees>
              <LongitudeDegrees>2.7456229738891124725341796875</LongitudeDegrees>
            </Position>
            <AltitudeMeters>1126.199951171875</AltitudeMeters>
            <DistanceMeters>21098.534183617</DistanceMeters>
          </Trackpoint>
          <Trackpoint>
            <Time>2021-04-01T10:45:26.000Z</Time>
            <Position>
              <LatitudeDegrees>42.42249780334532260894775390625</LatitudeDegrees>
              <LongitudeDegrees>2.7456179447472095489501953125</LongitudeDegrees>
            </Position>
            <AltitudeMeters>1126.5999755859375</AltitudeMeters>
            <DistanceMeters>21098.948395462</DistanceMeters>
          </Trackpoint>
          <Trackpoint>
            <Time>2021-04-01T10:45:28.000Z</Time>
            <Position>
              <LatitudeDegrees>42.42249210365116596221923828125</LatitudeDegrees>
              <LongitudeDegrees>2.74561719037592411041259765625</LongitudeDegrees>
            </Position>
            <AltitudeMeters>1126.800048828125</AltitudeMeters>
            <DistanceMeters>21099.592897996</DistanceMeters>
          </Trackpoint>
          <Trackpoint>
            <Time>2021-04-01T10:45:32.000Z</Time>
            <Position>
              <LatitudeDegrees>42.422498725354671478271484375</LatitudeDegrees>
              <LongitudeDegrees>2.74560905992984771728515625</LongitudeDegrees>
            </Position>
            <AltitudeMeters>1126.800048828125</AltitudeMeters>
            <DistanceMeters>21100.589546584</DistanceMeters>
          </Trackpoint>
          <Trackpoint>
            <Time>2021-04-01T10:45:34.000Z</Time>
            <Position>
              <LatitudeDegrees>42.4224950373172760009765625</LatitudeDegrees>
              <LongitudeDegrees>2.7455921284854412078857421875</LongitudeDegrees>
            </Position>
            <AltitudeMeters>1127.199951171875</AltitudeMeters>
            <DistanceMeters>21102.040066426</DistanceMeters>
          </Trackpoint>
          <Trackpoint>
            <Time>2021-04-01T10:45:42.000Z</Time>
            <Position>
              <LatitudeDegrees>42.4224950373172760009765625</LatitudeDegrees>
              <LongitudeDegrees>2.7455921284854412078857421875</LongitudeDegrees>
            </Position>
            <AltitudeMeters>1128.199951171875</AltitudeMeters>
            <DistanceMeters>21102.040066426</DistanceMeters>
          </Trackpoint>
          <Trackpoint>
            <Time>2021-04-01T10:45:50.000Z</Time>
            <Position>
              <LatitudeDegrees>42.42251976393163204193115234375</LatitudeDegrees>
              <LongitudeDegrees>2.7455301024019718170166015625</LongitudeDegrees>
            </Position>
            <AltitudeMeters>1129.5999755859375</AltitudeMeters>
            <DistanceMeters>21107.832020672</DistanceMeters>
          </Trackpoint>
          <Trackpoint>
            <Time>2021-04-01T10:45:56.000Z</Time>
            <Position>
              <LatitudeDegrees>42.42255337536334991455078125</LatitudeDegrees>
              <LongitudeDegrees>2.74543379433453083038330078125</LongitudeDegrees>
            </Position>
            <AltitudeMeters>1130.5999755859375</AltitudeMeters>
            <DistanceMeters>21116.584285435</DistanceMeters>
          </Trackpoint>
          <Trackpoint>
            <Time>2021-04-01T10:46:03.000Z</Time>
            <Position>
              <LatitudeDegrees>42.4225632660090923309326171875</LatitudeDegrees>
              <LongitudeDegrees>2.745359949767589569091796875</LongitudeDegrees>
            </Position>
            <AltitudeMeters>1131.5999755859375</AltitudeMeters>
            <DistanceMeters>21122.751511876</DistanceMeters>
          </Trackpoint>
          <Trackpoint>
            <Time>2021-04-01T10:46:04.000Z</Time>
            <Position>
              <LatitudeDegrees>42.42257290519773960113525390625</LatitudeDegrees>
              <LongitudeDegrees>2.74536824785172939300537109375</LongitudeDegrees>
            </Position>
            <AltitudeMeters>1131.800048828125</AltitudeMeters>
            <DistanceMeters>21124.019326377</DistanceMeters>
          </Trackpoint>
          <Trackpoint>
            <Time>2021-04-01T10:46:07.000Z</Time>
            <Position>
              <LatitudeDegrees>42.42258229292929172515869140625</LatitudeDegrees>
              <LongitudeDegrees>2.74534863419830799102783203125</LongitudeDegrees>
            </Position>
            <AltitudeMeters>1132.4000244140625</AltitudeMeters>
            <DistanceMeters>21125.941122741</DistanceMeters>
          </Trackpoint>
          <Trackpoint>
            <Time>2021-04-01T10:46:09.000Z</Time>
            <Position>
              <LatitudeDegrees>42.422593943774700164794921875</LatitudeDegrees>
              <LongitudeDegrees>2.74532633833587169647216796875</LongitudeDegrees>
            </Position>
            <AltitudeMeters>1132.800048828125</AltitudeMeters>
            <DistanceMeters>21128.185846032</DistanceMeters>
          </Trackpoint>
          <Trackpoint>
            <Time>2021-04-01T10:46:12.000Z</Time>
            <Position>
              <LatitudeDegrees>42.42261313833296298980712890625</LatitudeDegrees>
              <LongitudeDegrees>2.7452990971505641937255859375</LongitudeDegrees>
            </Position>
            <AltitudeMeters>1133.4000244140625</AltitudeMeters>
            <DistanceMeters>21131.279691703</DistanceMeters>
          </Trackpoint>
          <Trackpoint>
            <Time>2021-04-01T10:46:14.000Z</Time>
            <Position>
              <LatitudeDegrees>42.4226219393312931060791015625</LatitudeDegrees>
              <LongitudeDegrees>2.74529532529413700103759765625</LongitudeDegrees>
            </Position>
            <AltitudeMeters>1133.800048828125</AltitudeMeters>
            <DistanceMeters>21132.311946042</DistanceMeters>
          </Trackpoint>
          <Trackpoint>
            <Time>2021-04-01T10:46:16.000Z</Time>
            <Position>
              <LatitudeDegrees>42.42263853549957275390625</LatitudeDegrees>
              <LongitudeDegrees>2.74528191424906253814697265625</LongitudeDegrees>
            </Position>
            <AltitudeMeters>1134.4000244140625</AltitudeMeters>
            <DistanceMeters>21134.464253923</DistanceMeters>
          </Trackpoint>
          <Trackpoint>
            <Time>2021-04-01T10:46:19.000Z</Time>
            <Position>
              <LatitudeDegrees>42.4226551316678524017333984375</LatitudeDegrees>
              <LongitudeDegrees>2.745268754661083221435546875</LongitudeDegrees>
            </Position>
            <AltitudeMeters>1135</AltitudeMeters>
            <DistanceMeters>21136.606047291</DistanceMeters>
          </Trackpoint>
          <Trackpoint>
            <Time>2021-04-01T10:46:22.000Z</Time>
            <Position>
              <LatitudeDegrees>42.4226658605039119720458984375</LatitudeDegrees>
              <LongitudeDegrees>2.74525894783437252044677734375</LongitudeDegrees>
            </Position>
            <AltitudeMeters>1135.800048828125</AltitudeMeters>
            <DistanceMeters>21138.047198769</DistanceMeters>
          </Trackpoint>
          <Trackpoint>
            <Time>2021-04-01T10:46:24.000Z</Time>
            <Position>
              <LatitudeDegrees>42.42267130874097347259521484375</LatitudeDegrees>
              <LongitudeDegrees>2.74525743909180164337158203125</LongitudeDegrees>
            </Position>
            <AltitudeMeters>1136</AltitudeMeters>
            <DistanceMeters>21138.663042264</DistanceMeters>
          </Trackpoint>
          <Trackpoint>
            <Time>2021-04-01T10:46:28.000Z</Time>
            <Position>
              <LatitudeDegrees>42.42267164401710033416748046875</LatitudeDegrees>
              <LongitudeDegrees>2.7452464587986469268798828125</LongitudeDegrees>
            </Position>
            <AltitudeMeters>1136.199951171875</AltitudeMeters>
            <DistanceMeters>21139.564544832</DistanceMeters>
          </Trackpoint>
          <Trackpoint>
            <Time>2021-04-01T10:46:30.000Z</Time>
            <Position>
              <LatitudeDegrees>42.422669045627117156982421875</LatitudeDegrees>
              <LongitudeDegrees>2.74523220956325531005859375</LongitudeDegrees>
            </Position>
            <AltitudeMeters>1136.199951171875</AltitudeMeters>
            <DistanceMeters>21140.770298666</DistanceMeters>
          </Trackpoint>
          <Trackpoint>
            <Time>2021-04-01T10:46:34.000Z</Time>
            <Position>
              <LatitudeDegrees>42.42266594432294368743896484375</LatitudeDegrees>
              <LongitudeDegrees>2.74522994644939899444580078125</LongitudeDegrees>
            </Position>
            <AltitudeMeters>1136</AltitudeMeters>
            <DistanceMeters>21141.150405524</DistanceMeters>
          </Trackpoint>
          <Trackpoint>
            <Time>2021-04-01T10:46:35.000Z</Time>
            <Position>
              <LatitudeDegrees>42.42266879417002201080322265625</LatitudeDegrees>
              <LongitudeDegrees>2.74522642605006694793701171875</LongitudeDegrees>
            </Position>
            <AltitudeMeters>1136</AltitudeMeters>
            <DistanceMeters>21141.57537791</DistanceMeters>
          </Trackpoint>
          <Trackpoint>
            <Time>2021-04-01T10:46:43.000Z</Time>
            <Position>
              <LatitudeDegrees>42.4226973764598369598388671875</LatitudeDegrees>
              <LongitudeDegrees>2.74518166668713092803955078125</LongitudeDegrees>
            </Position>
            <AltitudeMeters>1137.199951171875</AltitudeMeters>
            <DistanceMeters>21146.437552334</DistanceMeters>
          </Trackpoint>
          <Trackpoint>
            <Time>2021-04-01T10:46:45.000Z</Time>
            <Position>
              <LatitudeDegrees>42.42269997484982013702392578125</LatitudeDegrees>
              <LongitudeDegrees>2.74516775272786617279052734375</LongitudeDegrees>
            </Position>
            <AltitudeMeters>1137.4000244140625</AltitudeMeters>
            <DistanceMeters>21147.616802847</DistanceMeters>
          </Trackpoint>
          <Trackpoint>
            <Time>2021-04-01T10:46:48.000Z</Time>
            <Position>
              <LatitudeDegrees>42.4226987175643444061279296875</LatitudeDegrees>
              <LongitudeDegrees>2.74515249766409397125244140625</LongitudeDegrees>
            </Position>
            <AltitudeMeters>1137.800048828125</AltitudeMeters>
            <DistanceMeters>21148.881051054</DistanceMeters>
          </Trackpoint>
          <Trackpoint>
            <Time>2021-04-01T10:46:51.000Z</Time>
            <Position>
              <LatitudeDegrees>42.42270089685916900634765625</LatitudeDegrees>
              <LongitudeDegrees>2.74511662311851978302001953125</LongitudeDegrees>
            </Position>
            <AltitudeMeters>1138.4000244140625</AltitudeMeters>
            <DistanceMeters>21151.839115299</DistanceMeters>
          </Trackpoint>
          <Trackpoint>
            <Time>2021-04-01T10:46:52.000Z</Time>
            <Position>
              <LatitudeDegrees>42.42270533926784992218017578125</LatitudeDegrees>
              <LongitudeDegrees>2.74509835056960582733154296875</LongitudeDegrees>
            </Position>
            <AltitudeMeters>1138.5999755859375</AltitudeMeters>
            <DistanceMeters>21153.420675027</DistanceMeters>
          </Trackpoint>
          <Trackpoint>
            <Time>2021-04-01T10:46:56.000Z</Time>
            <Position>
              <LatitudeDegrees>42.4227268807590007781982421875</LatitudeDegrees>
              <LongitudeDegrees>2.74509684182703495025634765625</LongitudeDegrees>
            </Position>
            <AltitudeMeters>1139.199951171875</AltitudeMeters>
            <DistanceMeters>21155.820922675</DistanceMeters>
          </Trackpoint>
          <Trackpoint>
            <Time>2021-04-01T10:46:57.000Z</Time>
            <Position>
              <LatitudeDegrees>42.42272679693996906280517578125</LatitudeDegrees>
              <LongitudeDegrees>2.74509415961802005767822265625</LongitudeDegrees>
            </Position>
            <AltitudeMeters>1139.4000244140625</AltitudeMeters>
            <DistanceMeters>21156.010976104</DistanceMeters>
          </Trackpoint>
          <Trackpoint>
            <Time>2021-04-01T10:46:59.000Z</Time>
            <Position>
              <LatitudeDegrees>42.42273350246250629425048828125</LatitudeDegrees>
              <LongitudeDegrees>2.74508728645741939544677734375</LongitudeDegrees>
            </Position>
            <AltitudeMeters>1139.800048828125</AltitudeMeters>
            <DistanceMeters>21156.946880701</DistanceMeters>
          </Trackpoint>
          <Trackpoint>
            <Time>2021-04-01T10:47:00.000Z</Time>
            <Position>
              <LatitudeDegrees>42.42274247109889984130859375</LatitudeDegrees>
              <LongitudeDegrees>2.7450841851532459259033203125</LongitudeDegrees>
            </Position>
            <AltitudeMeters>1140</AltitudeMeters>
            <DistanceMeters>21157.97913504</DistanceMeters>
          </Trackpoint>
          <Trackpoint>
            <Time>2021-04-01T10:47:03.000Z</Time>
            <Position>
              <LatitudeDegrees>42.4227337539196014404296875</LatitudeDegrees>
              <LongitudeDegrees>2.74506415240466594696044921875</LongitudeDegrees>
            </Position>
            <AltitudeMeters>1140.5999755859375</AltitudeMeters>
            <DistanceMeters>21159.88914836</DistanceMeters>
          </Trackpoint>
          <Trackpoint>
            <Time>2021-04-01T10:47:06.000Z</Time>
            <Position>
              <LatitudeDegrees>42.42274406366050243377685546875</LatitudeDegrees>
              <LongitudeDegrees>2.74506147019565105438232421875</LongitudeDegrees>
            </Position>
            <AltitudeMeters>1141</AltitudeMeters>
            <DistanceMeters>21161.056856176</DistanceMeters>
          </Trackpoint>
          <Trackpoint>
            <Time>2021-04-01T10:47:10.000Z</Time>
            <Position>
              <LatitudeDegrees>42.4227587319910526275634765625</LatitudeDegrees>
              <LongitudeDegrees>2.74505107663571834564208984375</LongitudeDegrees>
            </Position>
            <AltitudeMeters>1141.5999755859375</AltitudeMeters>
            <DistanceMeters>21162.899492533</DistanceMeters>
          </Trackpoint>
          <Trackpoint>
            <Time>2021-04-01T10:47:15.000Z</Time>
            <Position>
              <LatitudeDegrees>42.42276384495198726654052734375</LatitudeDegrees>
              <LongitudeDegrees>2.745034396648406982421875</LongitudeDegrees>
            </Position>
            <AltitudeMeters>1142.4000244140625</AltitudeMeters>
            <DistanceMeters>21164.383857263</DistanceMeters>
          </Trackpoint>
          <Trackpoint>
            <Time>2021-04-01T10:47:18.000Z</Time>
            <Position>
              <LatitudeDegrees>42.42276937700808048248291015625</LatitudeDegrees>
              <LongitudeDegrees>2.74500958621501922607421875</LongitudeDegrees>
            </Position>
            <AltitudeMeters>1142.800048828125</AltitudeMeters>
            <DistanceMeters>21166.512964676</DistanceMeters>
          </Trackpoint>
          <Trackpoint>
            <Time>2021-04-01T10:47:24.000Z</Time>
            <Position>
              <LatitudeDegrees>42.422783374786376953125</LatitudeDegrees>
              <LongitudeDegrees>2.7449668385088443756103515625</LongitudeDegrees>
            </Position>
            <AltitudeMeters>1143.4000244140625</AltitudeMeters>
            <DistanceMeters>21170.354207301</DistanceMeters>
          </Trackpoint>
          <Trackpoint>
            <Time>2021-04-01T10:47:26.000Z</Time>
            <Position>
              <LatitudeDegrees>42.422783374786376953125</LatitudeDegrees>
              <LongitudeDegrees>2.74495803751051425933837890625</LongitudeDegrees>
            </Position>
            <AltitudeMeters>1143.800048828125</AltitudeMeters>
            <DistanceMeters>21171.077909197</DistanceMeters>
          </Trackpoint>
          <Trackpoint>
            <Time>2021-04-01T10:47:27.000Z</Time>
            <Position>
              <LatitudeDegrees>42.422786392271518707275390625</LatitudeDegrees>
              <LongitudeDegrees>2.744952924549579620361328125</LongitudeDegrees>
            </Position>
            <AltitudeMeters>1143.800048828125</AltitudeMeters>
            <DistanceMeters>21171.623796111</DistanceMeters>
          </Trackpoint>
          <Trackpoint>
            <Time>2021-04-01T10:47:34.000Z</Time>
            <Position>
              <LatitudeDegrees>42.4228190816938877105712890625</LatitudeDegrees>
              <LongitudeDegrees>2.74492241442203521728515625</LongitudeDegrees>
            </Position>
            <AltitudeMeters>1144.800048828125</AltitudeMeters>
            <DistanceMeters>21176.042282874</DistanceMeters>
          </Trackpoint>
          <Trackpoint>
            <Time>2021-04-01T10:47:35.000Z</Time>
            <Position>
              <LatitudeDegrees>42.42282452993094921112060546875</LatitudeDegrees>
              <LongitudeDegrees>2.744918055832386016845703125</LongitudeDegrees>
            </Position>
            <AltitudeMeters>1145</AltitudeMeters>
            <DistanceMeters>21176.747019849</DistanceMeters>
          </Trackpoint>
          <Trackpoint>
            <Time>2021-04-01T10:47:37.000Z</Time>
            <Position>
              <LatitudeDegrees>42.4228356778621673583984375</LatitudeDegrees>
              <LongitudeDegrees>2.7449131943285465240478515625</LongitudeDegrees>
            </Position>
            <AltitudeMeters>1145</AltitudeMeters>
            <DistanceMeters>21178.049960512</DistanceMeters>
          </Trackpoint>
          <Trackpoint>
            <Time>2021-04-01T10:47:38.000Z</Time>
            <Position>
              <LatitudeDegrees>42.4228412099182605743408203125</LatitudeDegrees>
              <LongitudeDegrees>2.744911015033721923828125</LongitudeDegrees>
            </Position>
            <AltitudeMeters>1145.199951171875</AltitudeMeters>
            <DistanceMeters>21178.694463046</DistanceMeters>
          </Trackpoint>
          <Trackpoint>
            <Time>2021-04-01T10:47:41.000Z</Time>
            <Position>
              <LatitudeDegrees>42.422848083078861236572265625</LatitudeDegrees>
              <LongitudeDegrees>2.7448930777609348297119140625</LongitudeDegrees>
            </Position>
            <AltitudeMeters>1145.4000244140625</AltitudeMeters>
            <DistanceMeters>21180.356751647</DistanceMeters>
          </Trackpoint>
          <Trackpoint>
            <Time>2021-04-01T10:47:44.000Z</Time>
            <Position>
              <LatitudeDegrees>42.42285311222076416015625</LatitudeDegrees>
              <LongitudeDegrees>2.74486633948981761932373046875</LongitudeDegrees>
            </Position>
            <AltitudeMeters>1145.5999755859375</AltitudeMeters>
            <DistanceMeters>21182.625483357</DistanceMeters>
          </Trackpoint>
          <Trackpoint>
            <Time>2021-04-01T10:47:45.000Z</Time>
            <Position>
              <LatitudeDegrees>42.42286048829555511474609375</LatitudeDegrees>
              <LongitudeDegrees>2.744859717786312103271484375</LongitudeDegrees>
            </Position>
            <AltitudeMeters>1145.5999755859375</AltitudeMeters>
            <DistanceMeters>21183.613029941</DistanceMeters>
          </Trackpoint>
          <Trackpoint>
            <Time>2021-04-01T10:47:47.000Z</Time>
            <Position>
              <LatitudeDegrees>42.422872893512248992919921875</LatitudeDegrees>
              <LongitudeDegrees>2.74485175497829914093017578125</LongitudeDegrees>
            </Position>
            <AltitudeMeters>1145.800048828125</AltitudeMeters>
            <DistanceMeters>21185.139384986</DistanceMeters>
          </Trackpoint>
          <Trackpoint>
            <Time>2021-04-01T10:47:48.000Z</Time>
            <Position>
              <LatitudeDegrees>42.4228759109973907470703125</LatitudeDegrees>
              <LongitudeDegrees>2.7448494918644428253173828125</LongitudeDegrees>
            </Position>
            <AltitudeMeters>1146</AltitudeMeters>
            <DistanceMeters>21185.531190166</DistanceMeters>
          </Trackpoint>
          <Trackpoint>
            <Time>2021-04-01T10:47:49.000Z</Time>
            <Position>
              <LatitudeDegrees>42.42287700064480304718017578125</LatitudeDegrees>
              <LongitudeDegrees>2.7448501624166965484619140625</LongitudeDegrees>
            </Position>
            <AltitudeMeters>1146</AltitudeMeters>
            <DistanceMeters>21185.721243595</DistanceMeters>
          </Trackpoint>
          <Trackpoint>
            <Time>2021-04-01T10:47:51.000Z</Time>
            <Position>
              <LatitudeDegrees>42.4228814430534839630126953125</LatitudeDegrees>
              <LongitudeDegrees>2.74484119378030300140380859375</LongitudeDegrees>
            </Position>
            <AltitudeMeters>1146.199951171875</AltitudeMeters>
            <DistanceMeters>21186.612673193</DistanceMeters>
          </Trackpoint>
          <Trackpoint>
            <Time>2021-04-01T10:47:52.000Z</Time>
            <Position>
              <LatitudeDegrees>42.42288471199572086334228515625</LatitudeDegrees>
              <LongitudeDegrees>2.74483649991452693939208984375</LongitudeDegrees>
            </Position>
            <AltitudeMeters>1146.4000244140625</AltitudeMeters>
            <DistanceMeters>21187.150225466</DistanceMeters>
          </Trackpoint>
          <Trackpoint>
            <Time>2021-04-01T10:47:58.000Z</Time>
            <Position>
              <LatitudeDegrees>42.42289225570857524871826171875</LatitudeDegrees>
              <LongitudeDegrees>2.74479098618030548095703125</LongitudeDegrees>
            </Position>
            <AltitudeMeters>1147</AltitudeMeters>
            <DistanceMeters>21190.983231384</DistanceMeters>
          </Trackpoint>
          <Trackpoint>
            <Time>2021-04-01T10:48:02.000Z</Time>
            <Position>
              <LatitudeDegrees>42.4228998832404613494873046875</LatitudeDegrees>
              <LongitudeDegrees>2.74476340971887111663818359375</LongitudeDegrees>
            </Position>
            <AltitudeMeters>1147.4000244140625</AltitudeMeters>
            <DistanceMeters>21193.402216613</DistanceMeters>
          </Trackpoint>
          <Trackpoint>
            <Time>2021-04-01T10:48:05.000Z</Time>
            <Position>
              <LatitudeDegrees>42.42289694957435131072998046875</LatitudeDegrees>
              <LongitudeDegrees>2.74474211968481540679931640625</LongitudeDegrees>
            </Position>
            <AltitudeMeters>1147.800048828125</AltitudeMeters>
            <DistanceMeters>21195.180003652</DistanceMeters>
          </Trackpoint>
          <Trackpoint>
            <Time>2021-04-01T10:48:06.000Z</Time>
            <Position>
              <LatitudeDegrees>42.42289393208920955657958984375</LatitudeDegrees>
              <LongitudeDegrees>2.74473524652421474456787109375</LongitudeDegrees>
            </Position>
            <AltitudeMeters>1148</AltitudeMeters>
            <DistanceMeters>21195.838368041</DistanceMeters>
          </Trackpoint>
          <Trackpoint>
            <Time>2021-04-01T10:48:12.000Z</Time>
            <Position>
              <LatitudeDegrees>42.42290382273495197296142578125</LatitudeDegrees>
              <LongitudeDegrees>2.7446741424500942230224609375</LongitudeDegrees>
            </Position>
            <AltitudeMeters>1148.800048828125</AltitudeMeters>
            <DistanceMeters>21200.977723409</DistanceMeters>
          </Trackpoint>
          <Trackpoint>
            <Time>2021-04-01T10:48:18.000Z</Time>
            <Position>
              <LatitudeDegrees>42.4228837899863719940185546875</LatitudeDegrees>
              <LongitudeDegrees>2.74464271031320095062255859375</LongitudeDegrees>
            </Position>
            <AltitudeMeters>1149</AltitudeMeters>
            <DistanceMeters>21204.388110258</DistanceMeters>
          </Trackpoint>
          <Trackpoint>
            <Time>2021-04-01T10:48:19.000Z</Time>
            <Position>
              <LatitudeDegrees>42.422876916825771331787109375</LatitudeDegrees>
              <LongitudeDegrees>2.744633741676807403564453125</LongitudeDegrees>
            </Position>
            <AltitudeMeters>1149</AltitudeMeters>
            <DistanceMeters>21205.450541223</DistanceMeters>
          </Trackpoint>
          <Trackpoint>
            <Time>2021-04-01T10:48:25.000Z</Time>
            <Position>
              <LatitudeDegrees>42.4228878132998943328857421875</LatitudeDegrees>
              <LongitudeDegrees>2.744623683393001556396484375</LongitudeDegrees>
            </Position>
            <AltitudeMeters>1149.800048828125</AltitudeMeters>
            <DistanceMeters>21206.916541971</DistanceMeters>
          </Trackpoint>
          <Trackpoint>
            <Time>2021-04-01T10:48:30.000Z</Time>
            <Position>
              <LatitudeDegrees>42.422893680632114410400390625</LatitudeDegrees>
              <LongitudeDegrees>2.74458236061036586761474609375</LongitudeDegrees>
            </Position>
            <AltitudeMeters>1150.199951171875</AltitudeMeters>
            <DistanceMeters>21210.374261048</DistanceMeters>
          </Trackpoint>
          <Trackpoint>
            <Time>2021-04-01T10:48:33.000Z</Time>
            <Position>
              <LatitudeDegrees>42.42291002534329891204833984375</LatitudeDegrees>
              <LongitudeDegrees>2.74457448162138462066650390625</LongitudeDegrees>
            </Position>
            <AltitudeMeters>1150.5999755859375</AltitudeMeters>
            <DistanceMeters>21212.303092688</DistanceMeters>
          </Trackpoint>
          <Trackpoint>
            <Time>2021-04-01T10:48:37.000Z</Time>
            <Position>
              <LatitudeDegrees>42.42291815578937530517578125</LatitudeDegrees>
              <LongitudeDegrees>2.7445624954998493194580078125</LongitudeDegrees>
            </Position>
            <AltitudeMeters>1150.5999755859375</AltitudeMeters>
            <DistanceMeters>21213.636856182</DistanceMeters>
          </Trackpoint>
          <Trackpoint>
            <Time>2021-04-01T10:48:40.000Z</Time>
            <Position>
              <LatitudeDegrees>42.42292393930256366729736328125</LatitudeDegrees>
              <LongitudeDegrees>2.74454581551253795623779296875</LongitudeDegrees>
            </Position>
            <AltitudeMeters>1150.4000244140625</AltitudeMeters>
            <DistanceMeters>21215.151332797</DistanceMeters>
          </Trackpoint>
          <Trackpoint>
            <Time>2021-04-01T10:48:46.000Z</Time>
            <Position>
              <LatitudeDegrees>42.42293634451925754547119140625</LatitudeDegrees>
              <LongitudeDegrees>2.7445215918123722076416015625</LongitudeDegrees>
            </Position>
            <AltitudeMeters>1150.4000244140625</AltitudeMeters>
            <DistanceMeters>21217.574048152</DistanceMeters>
          </Trackpoint>
          <Trackpoint>
            <Time>2021-04-01T10:48:52.000Z</Time>
            <Position>
              <LatitudeDegrees>42.42294237948954105377197265625</LatitudeDegrees>
              <LongitudeDegrees>2.74451362900435924530029296875</LongitudeDegrees>
            </Position>
            <AltitudeMeters>1151</AltitudeMeters>
            <DistanceMeters>21218.505116</DistanceMeters>
          </Trackpoint>
          <Trackpoint>
            <Time>2021-04-01T10:48:53.000Z</Time>
            <Position>
              <LatitudeDegrees>42.4229427985846996307373046875</LatitudeDegrees>
              <LongitudeDegrees>2.74451564066112041473388671875</LongitudeDegrees>
            </Position>
            <AltitudeMeters>1151.4000244140625</AltitudeMeters>
            <DistanceMeters>21218.695169429</DistanceMeters>
          </Trackpoint>
          <Trackpoint>
            <Time>2021-04-01T10:49:00.000Z</Time>
            <Position>
              <LatitudeDegrees>42.4229414574801921844482421875</LatitudeDegrees>
              <LongitudeDegrees>2.7444971166551113128662109375</LongitudeDegrees>
            </Position>
            <AltitudeMeters>1152.4000244140625</AltitudeMeters>
            <DistanceMeters>21220.227429157</DistanceMeters>
          </Trackpoint>
          <Trackpoint>
            <Time>2021-04-01T10:49:04.000Z</Time>
            <Position>
              <LatitudeDegrees>42.422937937080860137939453125</LatitudeDegrees>
              <LongitudeDegrees>2.74445981718599796295166015625</LongitudeDegrees>
            </Position>
            <AltitudeMeters>1153</AltitudeMeters>
            <DistanceMeters>21223.315431865</DistanceMeters>
          </Trackpoint>
          <Trackpoint>
            <Time>2021-04-01T10:49:06.000Z</Time>
            <Position>
              <LatitudeDegrees>42.4229397810995578765869140625</LatitudeDegrees>
              <LongitudeDegrees>2.74444556795060634613037109375</LongitudeDegrees>
            </Position>
            <AltitudeMeters>1153.4000244140625</AltitudeMeters>
            <DistanceMeters>21224.502315147</DistanceMeters>
          </Trackpoint>
          <Trackpoint>
            <Time>2021-04-01T10:49:07.000Z</Time>
            <Position>
              <LatitudeDegrees>42.4229364283382892608642578125</LatitudeDegrees>
              <LongitudeDegrees>2.74443835951387882232666015625</LongitudeDegrees>
            </Position>
            <AltitudeMeters>1153.4000244140625</AltitudeMeters>
            <DistanceMeters>21225.200616034</DistanceMeters>
          </Trackpoint>
          <Trackpoint>
            <Time>2021-04-01T10:49:08.000Z</Time>
            <Position>
              <LatitudeDegrees>42.4229402840137481689453125</LatitudeDegrees>
              <LongitudeDegrees>2.74443198926746845245361328125</LongitudeDegrees>
            </Position>
            <AltitudeMeters>1153.5999755859375</AltitudeMeters>
            <DistanceMeters>21225.879242513</DistanceMeters>
          </Trackpoint>
          <Trackpoint>
            <Time>2021-04-01T10:49:13.000Z</Time>
            <Position>
              <LatitudeDegrees>42.4229414574801921844482421875</LatitudeDegrees>
              <LongitudeDegrees>2.74438387714326381683349609375</LongitudeDegrees>
            </Position>
            <AltitudeMeters>1154.5999755859375</AltitudeMeters>
            <DistanceMeters>21229.835139691</DistanceMeters>
          </Trackpoint>
          <Trackpoint>
            <Time>2021-04-01T10:49:14.000Z</Time>
            <Position>
              <LatitudeDegrees>42.422949336469173431396484375</LatitudeDegrees>
              <LongitudeDegrees>2.7443760819733142852783203125</LongitudeDegrees>
            </Position>
            <AltitudeMeters>1154.5999755859375</AltitudeMeters>
            <DistanceMeters>21230.918610935</DistanceMeters>
          </Trackpoint>
          <Trackpoint>
            <Time>2021-04-01T10:49:17.000Z</Time>
            <Position>
              <LatitudeDegrees>42.42296551354229450225830078125</LatitudeDegrees>
              <LongitudeDegrees>2.744341380894184112548828125</LongitudeDegrees>
            </Position>
            <AltitudeMeters>1155</AltitudeMeters>
            <DistanceMeters>21234.28904654</DistanceMeters>
          </Trackpoint>
          <Trackpoint>
            <Time>2021-04-01T10:49:19.000Z</Time>
            <Position>
              <LatitudeDegrees>42.4229733087122440338134765625</LatitudeDegrees>
              <LongitudeDegrees>2.74431296624243259429931640625</LongitudeDegrees>
            </Position>
            <AltitudeMeters>1155.4000244140625</AltitudeMeters>
            <DistanceMeters>21236.781573891</DistanceMeters>
          </Trackpoint>
          <Trackpoint>
            <Time>2021-04-01T10:49:20.000Z</Time>
            <Position>
              <LatitudeDegrees>42.42297305725514888763427734375</LatitudeDegrees>
              <LongitudeDegrees>2.74430642835795879364013671875</LongitudeDegrees>
            </Position>
            <AltitudeMeters>1155.5999755859375</AltitudeMeters>
            <DistanceMeters>21237.319126164</DistanceMeters>
          </Trackpoint>
          <Trackpoint>
            <Time>2021-04-01T10:49:23.000Z</Time>
            <Position>
              <LatitudeDegrees>42.4229833669960498809814453125</LatitudeDegrees>
              <LongitudeDegrees>2.74428832344710826873779296875</LongitudeDegrees>
            </Position>
            <AltitudeMeters>1156.4000244140625</AltitudeMeters>
            <DistanceMeters>21239.195753408</DistanceMeters>
          </Trackpoint>
          <Trackpoint>
            <Time>2021-04-01T10:49:25.000Z</Time>
            <Position>
              <LatitudeDegrees>42.42298747412860393524169921875</LatitudeDegrees>
              <LongitudeDegrees>2.74427155964076519012451171875</LongitudeDegrees>
            </Position>
            <AltitudeMeters>1156.800048828125</AltitudeMeters>
            <DistanceMeters>21240.64938262</DistanceMeters>
          </Trackpoint>
          <Trackpoint>
            <Time>2021-04-01T10:49:26.000Z</Time>
            <Position>
              <LatitudeDegrees>42.4229947663843631744384765625</LatitudeDegrees>
              <LongitudeDegrees>2.7442640997469425201416015625</LongitudeDegrees>
            </Position>
            <AltitudeMeters>1157.199951171875</AltitudeMeters>
            <DistanceMeters>21241.663990286</DistanceMeters>
          </Trackpoint>
          <Trackpoint>
            <Time>2021-04-01T10:49:30.000Z</Time>
            <Position>
              <LatitudeDegrees>42.423010356724262237548828125</LatitudeDegrees>
              <LongitudeDegrees>2.74423769675195217132568359375</LongitudeDegrees>
            </Position>
            <AltitudeMeters>1157.800048828125</AltitudeMeters>
            <DistanceMeters>21244.442607812</DistanceMeters>
          </Trackpoint>
          <Trackpoint>
            <Time>2021-04-01T10:49:31.000Z</Time>
            <Position>
              <LatitudeDegrees>42.42301295511424541473388671875</LatitudeDegrees>
              <LongitudeDegrees>2.7442315779626369476318359375</LongitudeDegrees>
            </Position>
            <AltitudeMeters>1158</AltitudeMeters>
            <DistanceMeters>21245.028391821</DistanceMeters>
          </Trackpoint>
          <Trackpoint>
            <Time>2021-04-01T10:49:32.000Z</Time>
            <Position>
              <LatitudeDegrees>42.42301471531391143798828125</LatitudeDegrees>
              <LongitudeDegrees>2.744217999279499053955078125</LongitudeDegrees>
            </Position>
            <AltitudeMeters>1158.199951171875</AltitudeMeters>
            <DistanceMeters>21246.168712393</DistanceMeters>
          </Trackpoint>
          <Trackpoint>
            <Time>2021-04-01T10:49:34.000Z</Time>
            <Position>
              <LatitudeDegrees>42.42300800979137420654296875</LatitudeDegrees>
              <LongitudeDegrees>2.7442077733576297760009765625</LongitudeDegrees>
            </Position>
            <AltitudeMeters>1158.4000244140625</AltitudeMeters>
            <DistanceMeters>21247.297092107</DistanceMeters>
          </Trackpoint>
          <Trackpoint>
            <Time>2021-04-01T10:49:35.000Z</Time>
            <Position>
              <LatitudeDegrees>42.4230044893920421600341796875</LatitudeDegrees>
              <LongitudeDegrees>2.74420232512056827545166015625</LongitudeDegrees>
            </Position>
            <AltitudeMeters>1158.5999755859375</AltitudeMeters>
            <DistanceMeters>21247.898093819</DistanceMeters>
          </Trackpoint>
          <Trackpoint>
            <Time>2021-04-01T10:49:37.000Z</Time>
            <Position>
              <LatitudeDegrees>42.4230014719069004058837890625</LatitudeDegrees>
              <LongitudeDegrees>2.74418354965746402740478515625</LongitudeDegrees>
            </Position>
            <AltitudeMeters>1158.5999755859375</AltitudeMeters>
            <DistanceMeters>21249.476796166</DistanceMeters>
          </Trackpoint>
          <Trackpoint>
            <Time>2021-04-01T10:49:39.000Z</Time>
            <Position>
              <LatitudeDegrees>42.42299485020339488983154296875</LatitudeDegrees>
              <LongitudeDegrees>2.74416175670921802520751953125</LongitudeDegrees>
            </Position>
            <AltitudeMeters>1158.800048828125</AltitudeMeters>
            <DistanceMeters>21251.412637514</DistanceMeters>
          </Trackpoint>
          <Trackpoint>
            <Time>2021-04-01T10:49:40.000Z</Time>
            <Position>
              <LatitudeDegrees>42.42298210971057415008544921875</LatitudeDegrees>
              <LongitudeDegrees>2.7441558055579662322998046875</LongitudeDegrees>
            </Position>
            <AltitudeMeters>1159</AltitudeMeters>
            <DistanceMeters>21252.915141793</DistanceMeters>
          </Trackpoint>
          <Trackpoint>
            <Time>2021-04-01T10:49:43.000Z</Time>
            <Position>
              <LatitudeDegrees>42.4229676090180873870849609375</LatitudeDegrees>
              <LongitudeDegrees>2.74413309060037136077880859375</LongitudeDegrees>
            </Position>
            <AltitudeMeters>1159.199951171875</AltitudeMeters>
            <DistanceMeters>21255.385836367</DistanceMeters>
          </Trackpoint>
          <Trackpoint>
            <Time>2021-04-01T10:49:45.000Z</Time>
            <Position>
              <LatitudeDegrees>42.42296635173261165618896484375</LatitudeDegrees>
              <LongitudeDegrees>2.74411976337432861328125</LongitudeDegrees>
            </Position>
            <AltitudeMeters>1159.199951171875</AltitudeMeters>
            <DistanceMeters>21256.494028767</DistanceMeters>
          </Trackpoint>
          <Trackpoint>
            <Time>2021-04-01T10:49:46.000Z</Time>
            <Position>
              <LatitudeDegrees>42.42296450771391391754150390625</LatitudeDegrees>
              <LongitudeDegrees>2.74410911835730075836181640625</LongitudeDegrees>
            </Position>
            <AltitudeMeters>1159.199951171875</AltitudeMeters>
            <DistanceMeters>21257.385458365</DistanceMeters>
          </Trackpoint>
          <Trackpoint>
            <Time>2021-04-01T10:49:48.000Z</Time>
            <Position>
              <LatitudeDegrees>42.42295495234429836273193359375</LatitudeDegrees>
              <LongitudeDegrees>2.7440897561609745025634765625</LongitudeDegrees>
            </Position>
            <AltitudeMeters>1159.5999755859375</AltitudeMeters>
            <DistanceMeters>21259.297834102</DistanceMeters>
          </Trackpoint>
          <Trackpoint>
            <Time>2021-04-01T10:49:50.000Z</Time>
            <Position>
              <LatitudeDegrees>42.42294757626950740814208984375</LatitudeDegrees>
              <LongitudeDegrees>2.74406771175563335418701171875</LongitudeDegrees>
            </Position>
            <AltitudeMeters>1159.800048828125</AltitudeMeters>
            <DistanceMeters>21261.284324325</DistanceMeters>
          </Trackpoint>
          <Trackpoint>
            <Time>2021-04-01T10:49:52.000Z</Time>
            <Position>
              <LatitudeDegrees>42.4229394458234310150146484375</LatitudeDegrees>
              <LongitudeDegrees>2.7440481819212436676025390625</LongitudeDegrees>
            </Position>
            <AltitudeMeters>1160.199951171875</AltitudeMeters>
            <DistanceMeters>21263.126960682</DistanceMeters>
          </Trackpoint>
          <Trackpoint>
            <Time>2021-04-01T10:49:56.000Z</Time>
            <Position>
              <LatitudeDegrees>42.42292863316833972930908203125</LatitudeDegrees>
              <LongitudeDegrees>2.74401389993727207183837890625</LongitudeDegrees>
            </Position>
            <AltitudeMeters>1160.800048828125</AltitudeMeters>
            <DistanceMeters>21266.190006457</DistanceMeters>
          </Trackpoint>
          <Trackpoint>
            <Time>2021-04-01T10:49:57.000Z</Time>
            <Position>
              <LatitudeDegrees>42.42292561568319797515869140625</LatitudeDegrees>
              <LongitudeDegrees>2.74400484748184680938720703125</LongitudeDegrees>
            </Position>
            <AltitudeMeters>1161</AltitudeMeters>
            <DistanceMeters>21267.007457164</DistanceMeters>
          </Trackpoint>
          <Trackpoint>
            <Time>2021-04-01T10:50:01.000Z</Time>
            <Position>
              <LatitudeDegrees>42.4229173175990581512451171875</LatitudeDegrees>
              <LongitudeDegrees>2.74396981112658977508544921875</LongitudeDegrees>
            </Position>
            <AltitudeMeters>1161.5999755859375</AltitudeMeters>
            <DistanceMeters>21270.030442007</DistanceMeters>
          </Trackpoint>
          <Trackpoint>
            <Time>2021-04-01T10:50:02.000Z</Time>
            <Position>
              <LatitudeDegrees>42.42291589267551898956298828125</LatitudeDegrees>
              <LongitudeDegrees>2.7439553104341030120849609375</LongitudeDegrees>
            </Position>
            <AltitudeMeters>1161.800048828125</AltitudeMeters>
            <DistanceMeters>21271.23244543</DistanceMeters>
          </Trackpoint>
          <Trackpoint>
            <Time>2021-04-01T10:50:03.000Z</Time>
            <Position>
              <LatitudeDegrees>42.4229176528751850128173828125</LatitudeDegrees>
              <LongitudeDegrees>2.74395145475864410400390625</LongitudeDegrees>
            </Position>
            <AltitudeMeters>1162</AltitudeMeters>
            <DistanceMeters>21271.600482313</DistanceMeters>
          </Trackpoint>
          <Trackpoint>
            <Time>2021-04-01T10:50:04.000Z</Time>
            <Position>
              <LatitudeDegrees>42.42292209528386592864990234375</LatitudeDegrees>
              <LongitudeDegrees>2.74394198320806026458740234375</LongitudeDegrees>
            </Position>
            <AltitudeMeters>1162.199951171875</AltitudeMeters>
            <DistanceMeters>21272.521800491</DistanceMeters>
          </Trackpoint>
          <Trackpoint>
            <Time>2021-04-01T10:50:06.000Z</Time>
            <Position>
              <LatitudeDegrees>42.42291924543678760528564453125</LatitudeDegrees>
              <LongitudeDegrees>2.74392639286816120147705078125</LongitudeDegrees>
            </Position>
            <AltitudeMeters>1162.5999755859375</AltitudeMeters>
            <DistanceMeters>21273.83852927</DistanceMeters>
          </Trackpoint>
          <Trackpoint>
            <Time>2021-04-01T10:50:09.000Z</Time>
            <Position>
              <LatitudeDegrees>42.4229186587035655975341796875</LatitudeDegrees>
              <LongitudeDegrees>2.7439040131866931915283203125</LongitudeDegrees>
            </Position>
            <AltitudeMeters>1163</AltitudeMeters>
            <DistanceMeters>21275.676258464</DistanceMeters>
          </Trackpoint>
          <Trackpoint>
            <Time>2021-04-01T10:50:10.000Z</Time>
            <Position>
              <LatitudeDegrees>42.42292293347418308258056640625</LatitudeDegrees>
              <LongitudeDegrees>2.74389990605413913726806640625</LongitudeDegrees>
            </Position>
            <AltitudeMeters>1163</AltitudeMeters>
            <DistanceMeters>21276.262042473</DistanceMeters>
          </Trackpoint>
          <Trackpoint>
            <Time>2021-04-01T10:50:12.000Z</Time>
            <Position>
              <LatitudeDegrees>42.422928549349308013916015625</LatitudeDegrees>
              <LongitudeDegrees>2.7438862435519695281982421875</LongitudeDegrees>
            </Position>
            <AltitudeMeters>1163.4000244140625</AltitudeMeters>
            <DistanceMeters>21277.547540037</DistanceMeters>
          </Trackpoint>
          <Trackpoint>
            <Time>2021-04-01T10:50:13.000Z</Time>
            <Position>
              <LatitudeDegrees>42.42292980663478374481201171875</LatitudeDegrees>
              <LongitudeDegrees>2.743878699839115142822265625</LongitudeDegrees>
            </Position>
            <AltitudeMeters>1163.5999755859375</AltitudeMeters>
            <DistanceMeters>21278.192042571</DistanceMeters>
          </Trackpoint>
          <Trackpoint>
            <Time>2021-04-01T10:50:14.000Z</Time>
            <Position>
              <LatitudeDegrees>42.42292930372059345245361328125</LatitudeDegrees>
              <LongitudeDegrees>2.74387325160205364227294921875</LongitudeDegrees>
            </Position>
            <AltitudeMeters>1163.800048828125</AltitudeMeters>
            <DistanceMeters>21278.63775737</DistanceMeters>
          </Trackpoint>
          <Trackpoint>
            <Time>2021-04-01T10:50:16.000Z</Time>
            <Position>
              <LatitudeDegrees>42.42293030954897403717041015625</LatitudeDegrees>
              <LongitudeDegrees>2.74386302568018436431884765625</LongitudeDegrees>
            </Position>
            <AltitudeMeters>1164.199951171875</AltitudeMeters>
            <DistanceMeters>21279.487702142</DistanceMeters>
          </Trackpoint>
          <Trackpoint>
            <Time>2021-04-01T10:50:20.000Z</Time>
            <Position>
              <LatitudeDegrees>42.42294841445982456207275390625</LatitudeDegrees>
              <LongitudeDegrees>2.7438493631780147552490234375</LongitudeDegrees>
            </Position>
            <AltitudeMeters>1164.800048828125</AltitudeMeters>
            <DistanceMeters>21281.795893014</DistanceMeters>
          </Trackpoint>
          <Trackpoint>
            <Time>2021-04-01T10:50:22.000Z</Time>
            <Position>
              <LatitudeDegrees>42.4229510128498077392578125</LatitudeDegrees>
              <LongitudeDegrees>2.74383871816098690032958984375</LongitudeDegrees>
            </Position>
            <AltitudeMeters>1165</AltitudeMeters>
            <DistanceMeters>21282.712297461</DistanceMeters>
          </Trackpoint>
          <Trackpoint>
            <Time>2021-04-01T10:50:23.000Z</Time>
            <Position>
              <LatitudeDegrees>42.4229511804878711700439453125</LatitudeDegrees>
              <LongitudeDegrees>2.74383117444813251495361328125</LongitudeDegrees>
            </Position>
            <AltitudeMeters>1165.4000244140625</AltitudeMeters>
            <DistanceMeters>21283.342633374</DistanceMeters>
          </Trackpoint>
          <Trackpoint>
            <Time>2021-04-01T10:50:29.000Z</Time>
            <Position>
              <LatitudeDegrees>42.42293827235698699951171875</LatitudeDegrees>
              <LongitudeDegrees>2.7438074536621570587158203125</LongitudeDegrees>
            </Position>
            <AltitudeMeters>1166.199951171875</AltitudeMeters>
            <DistanceMeters>21285.765348728</DistanceMeters>
          </Trackpoint>
          <Trackpoint>
            <Time>2021-04-01T10:50:30.000Z</Time>
            <Position>
              <LatitudeDegrees>42.42293785326182842254638671875</LatitudeDegrees>
              <LongitudeDegrees>2.74380401708185672760009765625</LongitudeDegrees>
            </Position>
            <AltitudeMeters>1166.4000244140625</AltitudeMeters>
            <DistanceMeters>21286.050428871</DistanceMeters>
          </Trackpoint>
          <Trackpoint>
            <Time>2021-04-01T10:50:33.000Z</Time>
            <Position>
              <LatitudeDegrees>42.4229241907596588134765625</LatitudeDegrees>
              <LongitudeDegrees>2.7437699027359485626220703125</LongitudeDegrees>
            </Position>
            <AltitudeMeters>1166.800048828125</AltitudeMeters>
            <DistanceMeters>21289.239138027</DistanceMeters>
          </Trackpoint>
          <Trackpoint>
            <Time>2021-04-01T10:50:38.000Z</Time>
            <Position>
              <LatitudeDegrees>42.42294497787952423095703125</LatitudeDegrees>
              <LongitudeDegrees>2.74370527826249599456787109375</LongitudeDegrees>
            </Position>
            <AltitudeMeters>1167.199951171875</AltitudeMeters>
            <DistanceMeters>21295.031871756</DistanceMeters>
          </Trackpoint>
          <Trackpoint>
            <Time>2021-04-01T10:50:41.000Z</Time>
            <Position>
              <LatitudeDegrees>42.42294020019471645355224609375</LatitudeDegrees>
              <LongitudeDegrees>2.74368566460907459259033203125</LongitudeDegrees>
            </Position>
            <AltitudeMeters>1167.5999755859375</AltitudeMeters>
            <DistanceMeters>21296.7317613</DistanceMeters>
          </Trackpoint>
          <Trackpoint>
            <Time>2021-04-01T10:50:43.000Z</Time>
            <Position>
              <LatitudeDegrees>42.4229360930621623992919921875</LatitudeDegrees>
              <LongitudeDegrees>2.74366655386984348297119140625</LongitudeDegrees>
            </Position>
            <AltitudeMeters>1167.5999755859375</AltitudeMeters>
            <DistanceMeters>21298.366662713</DistanceMeters>
          </Trackpoint>
          <Trackpoint>
            <Time>2021-04-01T10:50:47.000Z</Time>
            <Position>
              <LatitudeDegrees>42.42292745970189571380615234375</LatitudeDegrees>
              <LongitudeDegrees>2.7436123229563236236572265625</LongitudeDegrees>
            </Position>
            <AltitudeMeters>1168.199951171875</AltitudeMeters>
            <DistanceMeters>21302.923983836</DistanceMeters>
          </Trackpoint>
          <Trackpoint>
            <Time>2021-04-01T10:50:51.000Z</Time>
            <Position>
              <LatitudeDegrees>42.42292980663478374481201171875</LatitudeDegrees>
              <LongitudeDegrees>2.74355658330023288726806640625</LongitudeDegrees>
            </Position>
            <AltitudeMeters>1168.5999755859375</AltitudeMeters>
            <DistanceMeters>21307.510930327</DistanceMeters>
          </Trackpoint>
          <Trackpoint>
            <Time>2021-04-01T10:50:52.000Z</Time>
            <Position>
              <LatitudeDegrees>42.42292913608253002166748046875</LatitudeDegrees>
              <LongitudeDegrees>2.74354987777769565582275390625</LongitudeDegrees>
            </Position>
            <AltitudeMeters>1168.5999755859375</AltitudeMeters>
            <DistanceMeters>21308.065026528</DistanceMeters>
          </Trackpoint>
          <Trackpoint>
            <Time>2021-04-01T10:50:53.000Z</Time>
            <Position>
              <LatitudeDegrees>42.4229297228157520294189453125</LatitudeDegrees>
              <LongitudeDegrees>2.74353981949388980865478515625</LongitudeDegrees>
            </Position>
            <AltitudeMeters>1168.800048828125</AltitudeMeters>
            <DistanceMeters>21308.893450217</DistanceMeters>
          </Trackpoint>
          <Trackpoint>
            <Time>2021-04-01T10:50:54.000Z</Time>
            <Position>
              <LatitudeDegrees>42.42292863316833972930908203125</LatitudeDegrees>
              <LongitudeDegrees>2.74353194050490856170654296875</LongitudeDegrees>
            </Position>
            <AltitudeMeters>1168.800048828125</AltitudeMeters>
            <DistanceMeters>21309.551814607</DistanceMeters>
          </Trackpoint>
          <Trackpoint>
            <Time>2021-04-01T10:50:56.000Z</Time>
            <Position>
              <LatitudeDegrees>42.42292360402643680572509765625</LatitudeDegrees>
              <LongitudeDegrees>2.7435167692601680755615234375</LongitudeDegrees>
            </Position>
            <AltitudeMeters>1169</AltitudeMeters>
            <DistanceMeters>21310.915704539</DistanceMeters>
          </Trackpoint>
          <Trackpoint>
            <Time>2021-04-01T10:51:02.000Z</Time>
            <Position>
              <LatitudeDegrees>42.4228998832404613494873046875</LatitudeDegrees>
              <LongitudeDegrees>2.74345122277736663818359375</LongitudeDegrees>
            </Position>
            <AltitudeMeters>1169.4000244140625</AltitudeMeters>
            <DistanceMeters>21316.91368958</DistanceMeters>
          </Trackpoint>
          <Trackpoint>
            <Time>2021-04-01T10:51:04.000Z</Time>
            <Position>
              <LatitudeDegrees>42.422888316214084625244140625</LatitudeDegrees>
              <LongitudeDegrees>2.7434316091239452362060546875</LongitudeDegrees>
            </Position>
            <AltitudeMeters>1169.800048828125</AltitudeMeters>
            <DistanceMeters>21318.976010119</DistanceMeters>
          </Trackpoint>
          <Trackpoint>
            <Time>2021-04-01T10:51:08.000Z</Time>
            <Position>
              <LatitudeDegrees>42.4228797666728496551513671875</LatitudeDegrees>
              <LongitudeDegrees>2.7433977462351322174072265625</LongitudeDegrees>
            </Position>
            <AltitudeMeters>1170.4000244140625</AltitudeMeters>
            <DistanceMeters>21321.917236604</DistanceMeters>
          </Trackpoint>
          <Trackpoint>
            <Time>2021-04-01T10:51:12.000Z</Time>
            <Position>
              <LatitudeDegrees>42.4228799343109130859375</LatitudeDegrees>
              <LongitudeDegrees>2.7433915436267852783203125</LongitudeDegrees>
            </Position>
            <AltitudeMeters>1171</AltitudeMeters>
            <DistanceMeters>21322.437719354</DistanceMeters>
          </Trackpoint>
          <Trackpoint>
            <Time>2021-04-01T10:51:14.000Z</Time>
            <Position>
              <LatitudeDegrees>42.4228871427476406097412109375</LatitudeDegrees>
              <LongitudeDegrees>2.74336413480341434478759765625</LongitudeDegrees>
            </Position>
            <AltitudeMeters>1171.199951171875</AltitudeMeters>
            <DistanceMeters>21324.830430884</DistanceMeters>
          </Trackpoint>
          <Trackpoint>
            <Time>2021-04-01T10:51:16.000Z</Time>
            <Position>
              <LatitudeDegrees>42.42289259098470211029052734375</LatitudeDegrees>
              <LongitudeDegrees>2.74334602989256381988525390625</LongitudeDegrees>
            </Position>
            <AltitudeMeters>1171.4000244140625</AltitudeMeters>
            <DistanceMeters>21326.437478445</DistanceMeters>
          </Trackpoint>
          <Trackpoint>
            <Time>2021-04-01T10:51:21.000Z</Time>
            <Position>
              <LatitudeDegrees>42.422894351184368133544921875</LatitudeDegrees>
              <LongitudeDegrees>2.7433159388601779937744140625</LongitudeDegrees>
            </Position>
            <AltitudeMeters>1172</AltitudeMeters>
            <DistanceMeters>21328.917293369</DistanceMeters>
          </Trackpoint>
          <Trackpoint>
            <Time>2021-04-01T10:51:22.000Z</Time>
            <Position>
              <LatitudeDegrees>42.4228968657553195953369140625</LatitudeDegrees>
              <LongitudeDegrees>2.74330814369022846221923828125</LongitudeDegrees>
            </Position>
            <AltitudeMeters>1172</AltitudeMeters>
            <DistanceMeters>21329.615594255</DistanceMeters>
          </Trackpoint>
          <Trackpoint>
            <Time>2021-04-01T10:51:26.000Z</Time>
            <Position>
              <LatitudeDegrees>42.4228871427476406097412109375</LatitudeDegrees>
              <LongitudeDegrees>2.74326858110725879669189453125</LongitudeDegrees>
            </Position>
            <AltitudeMeters>1173.199951171875</AltitudeMeters>
            <DistanceMeters>21333.041831167</DistanceMeters>
          </Trackpoint>
          <Trackpoint>
            <Time>2021-04-01T10:51:30.000Z</Time>
            <Position>
              <LatitudeDegrees>42.42288596928119659423828125</LatitudeDegrees>
              <LongitudeDegrees>2.7432294376194477081298828125</LongitudeDegrees>
            </Position>
            <AltitudeMeters>1173.5999755859375</AltitudeMeters>
            <DistanceMeters>21336.260137815</DistanceMeters>
          </Trackpoint>
          <Trackpoint>
            <Time>2021-04-01T10:51:37.000Z</Time>
            <Position>
              <LatitudeDegrees>42.422886304557323455810546875</LatitudeDegrees>
              <LongitudeDegrees>2.74314947426319122314453125</LongitudeDegrees>
            </Position>
            <AltitudeMeters>1174.199951171875</AltitudeMeters>
            <DistanceMeters>21342.830051468</DistanceMeters>
          </Trackpoint>
          <Trackpoint>
            <Time>2021-04-01T10:51:39.000Z</Time>
            <Position>
              <LatitudeDegrees>42.42288194596767425537109375</LatitudeDegrees>
              <LongitudeDegrees>2.7431389130651950836181640625</LongitudeDegrees>
            </Position>
            <AltitudeMeters>1174.4000244140625</AltitudeMeters>
            <DistanceMeters>21343.817598052</DistanceMeters>
          </Trackpoint>
          <Trackpoint>
            <Time>2021-04-01T10:51:45.000Z</Time>
            <Position>
              <LatitudeDegrees>42.4229013919830322265625</LatitudeDegrees>
              <LongitudeDegrees>2.74308635853230953216552734375</LongitudeDegrees>
            </Position>
            <AltitudeMeters>1174.5999755859375</AltitudeMeters>
            <DistanceMeters>21348.648096736</DistanceMeters>
          </Trackpoint>
          <Trackpoint>
            <Time>2021-04-01T10:51:50.000Z</Time>
            <Position>
              <LatitudeDegrees>42.42290650494396686553955078125</LatitudeDegrees>
              <LongitudeDegrees>2.7430839277803897857666015625</LongitudeDegrees>
            </Position>
            <AltitudeMeters>1174.800048828125</AltitudeMeters>
            <DistanceMeters>21349.249098448</DistanceMeters>
          </Trackpoint>
          <Trackpoint>
            <Time>2021-04-01T10:51:52.000Z</Time>
            <Position>
              <LatitudeDegrees>42.4229086004197597503662109375</LatitudeDegrees>
              <LongitudeDegrees>2.74308367632329463958740234375</LongitudeDegrees>
            </Position>
            <AltitudeMeters>1174.800048828125</AltitudeMeters>
            <DistanceMeters>21349.461584641</DistanceMeters>
          </Trackpoint>
          <Trackpoint>
            <Time>2021-04-01T10:51:56.000Z</Time>
            <Position>
              <LatitudeDegrees>42.42291119880974292755126953125</LatitudeDegrees>
              <LongitudeDegrees>2.74307847954332828521728515625</LongitudeDegrees>
            </Position>
            <AltitudeMeters>1175.199951171875</AltitudeMeters>
            <DistanceMeters>21349.973319158</DistanceMeters>
          </Trackpoint>
          <Trackpoint>
            <Time>2021-04-01T10:52:00.000Z</Time>
            <Position>
              <LatitudeDegrees>42.42291119880974292755126953125</LatitudeDegrees>
              <LongitudeDegrees>2.74307847954332828521728515625</LongitudeDegrees>
            </Position>
            <AltitudeMeters>1176.4000244140625</AltitudeMeters>
            <DistanceMeters>21349.973319158</DistanceMeters>
          </Trackpoint>
          <Trackpoint>
            <Time>2021-04-01T10:52:07.000Z</Time>
            <Position>
              <LatitudeDegrees>42.42291119880974292755126953125</LatitudeDegrees>
              <LongitudeDegrees>2.74307847954332828521728515625</LongitudeDegrees>
            </Position>
            <AltitudeMeters>1177.5999755859375</AltitudeMeters>
            <DistanceMeters>21349.973319158</DistanceMeters>
          </Trackpoint>
          <Trackpoint>
            <Time>2021-04-01T10:52:12.000Z</Time>
            <Position>
              <LatitudeDegrees>42.42291413247585296630859375</LatitudeDegrees>
              <LongitudeDegrees>2.74306959472596645355224609375</LongitudeDegrees>
            </Position>
            <AltitudeMeters>1178.5999755859375</AltitudeMeters>
            <DistanceMeters>21350.774028486</DistanceMeters>
          </Trackpoint>
          <Trackpoint>
            <Time>2021-04-01T10:52:13.000Z</Time>
            <Position>
              <LatitudeDegrees>42.42291455157101154327392578125</LatitudeDegrees>
              <LongitudeDegrees>2.74306791834533214569091796875</LongitudeDegrees>
            </Position>
            <AltitudeMeters>1178.800048828125</AltitudeMeters>
            <DistanceMeters>21350.908416554</DistanceMeters>
          </Trackpoint>
          <Trackpoint>
            <Time>2021-04-01T10:52:19.000Z</Time>
            <Position>
              <LatitudeDegrees>42.42291790433228015899658203125</LatitudeDegrees>
              <LongitudeDegrees>2.7430336363613605499267578125</LongitudeDegrees>
            </Position>
            <AltitudeMeters>1179.800048828125</AltitudeMeters>
            <DistanceMeters>21353.748109894</DistanceMeters>
          </Trackpoint>
          <Trackpoint>
            <Time>2021-04-01T10:52:25.000Z</Time>
            <Position>
              <LatitudeDegrees>42.422922514379024505615234375</LatitudeDegrees>
              <LongitudeDegrees>2.74298996664583683013916015625</LongitudeDegrees>
            </Position>
            <AltitudeMeters>1181</AltitudeMeters>
            <DistanceMeters>21357.374098215</DistanceMeters>
          </Trackpoint>
          <Trackpoint>
            <Time>2021-04-01T10:52:31.000Z</Time>
            <Position>
              <LatitudeDegrees>42.42293131537735462188720703125</LatitudeDegrees>
              <LongitudeDegrees>2.7429437823593616485595703125</LongitudeDegrees>
            </Position>
            <AltitudeMeters>1181.800048828125</AltitudeMeters>
            <DistanceMeters>21361.292150021</DistanceMeters>
          </Trackpoint>
          <Trackpoint>
            <Time>2021-04-01T10:52:34.000Z</Time>
            <Position>
              <LatitudeDegrees>42.4229327403008937835693359375</LatitudeDegrees>
              <LongitudeDegrees>2.74293196387588977813720703125</LongitudeDegrees>
            </Position>
            <AltitudeMeters>1182</AltitudeMeters>
            <DistanceMeters>21362.275113998</DistanceMeters>
          </Trackpoint>
          <Trackpoint>
            <Time>2021-04-01T10:52:43.000Z</Time>
            <Position>
              <LatitudeDegrees>42.42294187657535076141357421875</LatitudeDegrees>
              <LongitudeDegrees>2.74287194944918155670166015625</LongitudeDegrees>
            </Position>
            <AltitudeMeters>1183.199951171875</AltitudeMeters>
            <DistanceMeters>21367.307942668</DistanceMeters>
          </Trackpoint>
          <Trackpoint>
            <Time>2021-04-01T10:52:48.000Z</Time>
            <Position>
              <LatitudeDegrees>42.4229464866220951080322265625</LatitudeDegrees>
              <LongitudeDegrees>2.74283305741846561431884765625</LongitudeDegrees>
            </Position>
            <AltitudeMeters>1184</AltitudeMeters>
            <DistanceMeters>21370.544435936</DistanceMeters>
          </Trackpoint>
          <Trackpoint>
            <Time>2021-04-01T10:52:49.000Z</Time>
            <Position>
              <LatitudeDegrees>42.4229491688311100006103515625</LatitudeDegrees>
              <LongitudeDegrees>2.74282786063849925994873046875</LongitudeDegrees>
            </Position>
            <AltitudeMeters>1184.199951171875</AltitudeMeters>
            <DistanceMeters>21371.064918687</DistanceMeters>
          </Trackpoint>
          <Trackpoint>
            <Time>2021-04-01T10:52:52.000Z</Time>
            <Position>
              <LatitudeDegrees>42.42295746691524982452392578125</LatitudeDegrees>
              <LongitudeDegrees>2.74279651232063770294189453125</LongitudeDegrees>
            </Position>
            <AltitudeMeters>1184.5999755859375</AltitudeMeters>
            <DistanceMeters>21373.802611775</DistanceMeters>
          </Trackpoint>
          <Trackpoint>
            <Time>2021-04-01T10:52:57.000Z</Time>
            <Position>
              <LatitudeDegrees>42.42298278026282787322998046875</LatitudeDegrees>
              <LongitudeDegrees>2.74278410710394382476806640625</LongitudeDegrees>
            </Position>
            <AltitudeMeters>1185.4000244140625</AltitudeMeters>
            <DistanceMeters>21376.798591746</DistanceMeters>
          </Trackpoint>
          <Trackpoint>
            <Time>2021-04-01T10:53:00.000Z</Time>
            <Position>
              <LatitudeDegrees>42.42298630066215991973876953125</LatitudeDegrees>
              <LongitudeDegrees>2.74278142489492893218994140625</LongitudeDegrees>
            </Position>
            <AltitudeMeters>1185.800048828125</AltitudeMeters>
            <DistanceMeters>21377.244306545</DistanceMeters>
          </Trackpoint>
          <Trackpoint>
            <Time>2021-04-01T10:53:05.000Z</Time>
            <Position>
              <LatitudeDegrees>42.42299258708953857421875</LatitudeDegrees>
              <LongitudeDegrees>2.74276298470795154571533203125</LongitudeDegrees>
            </Position>
            <AltitudeMeters>1186.4000244140625</AltitudeMeters>
            <DistanceMeters>21378.912018614</DistanceMeters>
          </Trackpoint>
          <Trackpoint>
            <Time>2021-04-01T10:53:12.000Z</Time>
            <Position>
              <LatitudeDegrees>42.42300272919237613677978515625</LatitudeDegrees>
              <LongitudeDegrees>2.7427318878471851348876953125</LongitudeDegrees>
            </Position>
            <AltitudeMeters>1187.5999755859375</AltitudeMeters>
            <DistanceMeters>21381.705222159</DistanceMeters>
          </Trackpoint>
          <Trackpoint>
            <Time>2021-04-01T10:53:20.000Z</Time>
            <Position>
              <LatitudeDegrees>42.42302502505481243133544921875</LatitudeDegrees>
              <LongitudeDegrees>2.742705903947353363037109375</LongitudeDegrees>
            </Position>
            <AltitudeMeters>1188.5999755859375</AltitudeMeters>
            <DistanceMeters>21384.980543642</DistanceMeters>
          </Trackpoint>
          <Trackpoint>
            <Time>2021-04-01T10:53:33.000Z</Time>
            <Position>
              <LatitudeDegrees>42.423084117472171783447265625</LatitudeDegrees>
              <LongitudeDegrees>2.74263088591396808624267578125</LongitudeDegrees>
            </Position>
            <AltitudeMeters>1189.800048828125</AltitudeMeters>
            <DistanceMeters>21393.994567596</DistanceMeters>
          </Trackpoint>
          <Trackpoint>
            <Time>2021-04-01T10:53:39.000Z</Time>
            <Position>
              <LatitudeDegrees>42.42308755405247211456298828125</LatitudeDegrees>
              <LongitudeDegrees>2.7426044829189777374267578125</LongitudeDegrees>
            </Position>
            <AltitudeMeters>1190.800048828125</AltitudeMeters>
            <DistanceMeters>21396.198695797</DistanceMeters>
          </Trackpoint>
          <Trackpoint>
            <Time>2021-04-01T10:53:42.000Z</Time>
            <Position>
              <LatitudeDegrees>42.42309224791824817657470703125</LatitudeDegrees>
              <LongitudeDegrees>2.74259819649159908294677734375</LongitudeDegrees>
            </Position>
            <AltitudeMeters>1191.199951171875</AltitudeMeters>
            <DistanceMeters>21396.934769562</DistanceMeters>
          </Trackpoint>
          <Trackpoint>
            <Time>2021-04-01T10:53:45.000Z</Time>
            <Position>
              <LatitudeDegrees>42.42309987545013427734375</LatitudeDegrees>
              <LongitudeDegrees>2.74258210323750972747802734375</LongitudeDegrees>
            </Position>
            <AltitudeMeters>1192</AltitudeMeters>
            <DistanceMeters>21398.507741572</DistanceMeters>
          </Trackpoint>
          <Trackpoint>
            <Time>2021-04-01T10:53:51.000Z</Time>
            <Position>
              <LatitudeDegrees>42.42312996648252010345458984375</LatitudeDegrees>
              <LongitudeDegrees>2.742553018033504486083984375</LongitudeDegrees>
            </Position>
            <AltitudeMeters>1192.5999755859375</AltitudeMeters>
            <DistanceMeters>21402.623616134</DistanceMeters>
          </Trackpoint>
          <Trackpoint>
            <Time>2021-04-01T10:53:54.000Z</Time>
            <Position>
              <LatitudeDegrees>42.4231468141078948974609375</LatitudeDegrees>
              <LongitudeDegrees>2.742542959749698638916015625</LongitudeDegrees>
            </Position>
            <AltitudeMeters>1193</AltitudeMeters>
            <DistanceMeters>21404.674960967</DistanceMeters>
          </Trackpoint>
          <Trackpoint>
            <Time>2021-04-01T10:54:01.000Z</Time>
            <Position>
              <LatitudeDegrees>42.4231711216270923614501953125</LatitudeDegrees>
              <LongitudeDegrees>2.7423858828842639923095703125</LongitudeDegrees>
            </Position>
            <AltitudeMeters>1194</AltitudeMeters>
            <DistanceMeters>21417.860752253</DistanceMeters>
          </Trackpoint>
          <Trackpoint>
            <Time>2021-04-01T10:54:02.000Z</Time>
            <Position>
              <LatitudeDegrees>42.42316802032291889190673828125</LatitudeDegrees>
              <LongitudeDegrees>2.74236224591732025146484375</LongitudeDegrees>
            </Position>
            <AltitudeMeters>1194</AltitudeMeters>
            <DistanceMeters>21419.831268143</DistanceMeters>
          </Trackpoint>
          <Trackpoint>
            <Time>2021-04-01T10:54:04.000Z</Time>
            <Position>
              <LatitudeDegrees>42.42317355237901210784912109375</LatitudeDegrees>
              <LongitudeDegrees>2.7423144690692424774169921875</LongitudeDegrees>
            </Position>
            <AltitudeMeters>1194.199951171875</AltitudeMeters>
            <DistanceMeters>21423.804248589</DistanceMeters>
          </Trackpoint>
          <Trackpoint>
            <Time>2021-04-01T10:54:08.000Z</Time>
            <Position>
              <LatitudeDegrees>42.4231691099703311920166015625</LatitudeDegrees>
              <LongitudeDegrees>2.74224397726356983184814453125</LongitudeDegrees>
            </Position>
            <AltitudeMeters>1194.5999755859375</AltitudeMeters>
            <DistanceMeters>21429.617988876</DistanceMeters>
          </Trackpoint>
          <Trackpoint>
            <Time>2021-04-01T10:54:09.000Z</Time>
            <Position>
              <LatitudeDegrees>42.42316952906548976898193359375</LatitudeDegrees>
              <LongitudeDegrees>2.7422403730452060699462890625</LongitudeDegrees>
            </Position>
            <AltitudeMeters>1194.800048828125</AltitudeMeters>
            <DistanceMeters>21429.918489732</DistanceMeters>
          </Trackpoint>
          <Trackpoint>
            <Time>2021-04-01T10:54:10.000Z</Time>
            <Position>
              <LatitudeDegrees>42.42317187599837779998779296875</LatitudeDegrees>
              <LongitudeDegrees>2.7422289736568927764892578125</LongitudeDegrees>
            </Position>
            <AltitudeMeters>1195</AltitudeMeters>
            <DistanceMeters>21430.887575874</DistanceMeters>
          </Trackpoint>
          <Trackpoint>
            <Time>2021-04-01T10:54:11.000Z</Time>
            <Position>
              <LatitudeDegrees>42.42317690514028072357177734375</LatitudeDegrees>
              <LongitudeDegrees>2.742218077182769775390625</LongitudeDegrees>
            </Position>
            <AltitudeMeters>1195.199951171875</AltitudeMeters>
            <DistanceMeters>21431.945748582</DistanceMeters>
          </Trackpoint>
          <Trackpoint>
            <Time>2021-04-01T10:54:18.000Z</Time>
            <Position>
              <LatitudeDegrees>42.42318210192024707794189453125</LatitudeDegrees>
              <LongitudeDegrees>2.742157392203807830810546875</LongitudeDegrees>
            </Position>
            <AltitudeMeters>1195.5999755859375</AltitudeMeters>
            <DistanceMeters>21436.965102452</DistanceMeters>
          </Trackpoint>
          <Trackpoint>
            <Time>2021-04-01T10:54:19.000Z</Time>
            <Position>
              <LatitudeDegrees>42.42318461649119853973388671875</LatitudeDegrees>
              <LongitudeDegrees>2.74214976467192173004150390625</LongitudeDegrees>
            </Position>
            <AltitudeMeters>1195.5999755859375</AltitudeMeters>
            <DistanceMeters>21437.663403339</DistanceMeters>
          </Trackpoint>
          <Trackpoint>
            <Time>2021-04-01T10:54:23.000Z</Time>
            <Position>
              <LatitudeDegrees>42.42320406250655651092529296875</LatitudeDegrees>
              <LongitudeDegrees>2.74212461896240711212158203125</LongitudeDegrees>
            </Position>
            <AltitudeMeters>1196</AltitudeMeters>
            <DistanceMeters>21440.654858796</DistanceMeters>
          </Trackpoint>
          <Trackpoint>
            <Time>2021-04-01T10:54:26.000Z</Time>
            <Position>
              <LatitudeDegrees>42.42320842109620571136474609375</LatitudeDegrees>
              <LongitudeDegrees>2.742089331150054931640625</LongitudeDegrees>
            </Position>
            <AltitudeMeters>1196.4000244140625</AltitudeMeters>
            <DistanceMeters>21443.593013503</DistanceMeters>
          </Trackpoint>
          <Trackpoint>
            <Time>2021-04-01T10:54:28.000Z</Time>
            <Position>
              <LatitudeDegrees>42.4232170544564723968505859375</LatitudeDegrees>
              <LongitudeDegrees>2.74207390844821929931640625</LongitudeDegrees>
            </Position>
            <AltitudeMeters>1196.800048828125</AltitudeMeters>
            <DistanceMeters>21445.18311457</DistanceMeters>
          </Trackpoint>
          <Trackpoint>
            <Time>2021-04-01T10:54:30.000Z</Time>
            <Position>
              <LatitudeDegrees>42.42321965284645557403564453125</LatitudeDegrees>
              <LongitudeDegrees>2.74206183850765228271484375</LongitudeDegrees>
            </Position>
            <AltitudeMeters>1197.199951171875</AltitudeMeters>
            <DistanceMeters>21446.215368909</DistanceMeters>
          </Trackpoint>
          <Trackpoint>
            <Time>2021-04-01T10:54:32.000Z</Time>
            <Position>
              <LatitudeDegrees>42.42322535254061222076416015625</LatitudeDegrees>
              <LongitudeDegrees>2.74203375913202762603759765625</LongitudeDegrees>
            </Position>
            <AltitudeMeters>1197.5999755859375</AltitudeMeters>
            <DistanceMeters>21448.609966692</DistanceMeters>
          </Trackpoint>
          <Trackpoint>
            <Time>2021-04-01T10:54:33.000Z</Time>
            <Position>
              <LatitudeDegrees>42.4232237599790096282958984375</LatitudeDegrees>
              <LongitudeDegrees>2.74202722124755382537841796875</LongitudeDegrees>
            </Position>
            <AltitudeMeters>1197.5999755859375</AltitudeMeters>
            <DistanceMeters>21449.180126979</DistanceMeters>
          </Trackpoint>
          <Trackpoint>
            <Time>2021-04-01T10:54:34.000Z</Time>
            <Position>
              <LatitudeDegrees>42.42322283796966075897216796875</LatitudeDegrees>
              <LongitudeDegrees>2.74202026426792144775390625</LongitudeDegrees>
            </Position>
            <AltitudeMeters>1197.800048828125</AltitudeMeters>
            <DistanceMeters>21449.758151916</DistanceMeters>
          </Trackpoint>
          <Trackpoint>
            <Time>2021-04-01T10:54:38.000Z</Time>
            <Position>
              <LatitudeDegrees>42.423227615654468536376953125</LatitudeDegrees>
              <LongitudeDegrees>2.74201263673603534698486328125</LongitudeDegrees>
            </Position>
            <AltitudeMeters>1198.199951171875</AltitudeMeters>
            <DistanceMeters>21450.586575606</DistanceMeters>
          </Trackpoint>
          <Trackpoint>
            <Time>2021-04-01T10:54:39.000Z</Time>
            <Position>
              <LatitudeDegrees>42.4232297949492931365966796875</LatitudeDegrees>
              <LongitudeDegrees>2.7420080266892910003662109375</LongitudeDegrees>
            </Position>
            <AltitudeMeters>1198.199951171875</AltitudeMeters>
            <DistanceMeters>21451.032290405</DistanceMeters>
          </Trackpoint>
          <Trackpoint>
            <Time>2021-04-01T10:54:42.000Z</Time>
            <Position>
              <LatitudeDegrees>42.42322929203510284423828125</LatitudeDegrees>
              <LongitudeDegrees>2.74198749102652072906494140625</LongitudeDegrees>
            </Position>
            <AltitudeMeters>1198.5999755859375</AltitudeMeters>
            <DistanceMeters>21452.721522229</DistanceMeters>
          </Trackpoint>
          <Trackpoint>
            <Time>2021-04-01T10:54:43.000Z</Time>
            <Position>
              <LatitudeDegrees>42.4232267774641513824462890625</LatitudeDegrees>
              <LongitudeDegrees>2.74198179133236408233642578125</LongitudeDegrees>
            </Position>
            <AltitudeMeters>1198.5999755859375</AltitudeMeters>
            <DistanceMeters>21453.275618429</DistanceMeters>
          </Trackpoint>
          <Trackpoint>
            <Time>2021-04-01T10:54:44.000Z</Time>
            <Position>
              <LatitudeDegrees>42.42322652600705623626708984375</LatitudeDegrees>
              <LongitudeDegrees>2.74197340942919254302978515625</LongitudeDegrees>
            </Position>
            <AltitudeMeters>1198.5999755859375</AltitudeMeters>
            <DistanceMeters>21453.960865811</DistanceMeters>
          </Trackpoint>
          <Trackpoint>
            <Time>2021-04-01T10:54:47.000Z</Time>
            <Position>
              <LatitudeDegrees>42.42321990430355072021484375</LatitudeDegrees>
              <LongitudeDegrees>2.7419466711580753326416015625</LongitudeDegrees>
            </Position>
            <AltitudeMeters>1198.800048828125</AltitudeMeters>
            <DistanceMeters>21456.278816519</DistanceMeters>
          </Trackpoint>
          <Trackpoint>
            <Time>2021-04-01T10:54:48.000Z</Time>
            <Position>
              <LatitudeDegrees>42.4232180602848529815673828125</LatitudeDegrees>
              <LongitudeDegrees>2.7419376187026500701904296875</LongitudeDegrees>
            </Position>
            <AltitudeMeters>1198.800048828125</AltitudeMeters>
            <DistanceMeters>21457.039030234</DistanceMeters>
          </Trackpoint>
          <Trackpoint>
            <Time>2021-04-01T10:54:51.000Z</Time>
            <Position>
              <LatitudeDegrees>42.42321646772325038909912109375</LatitudeDegrees>
              <LongitudeDegrees>2.7419118024408817291259765625</LongitudeDegrees>
            </Position>
            <AltitudeMeters>1199</AltitudeMeters>
            <DistanceMeters>21459.163892164</DistanceMeters>
          </Trackpoint>
          <Trackpoint>
            <Time>2021-04-01T10:54:53.000Z</Time>
            <Position>
              <LatitudeDegrees>42.42322015576064586639404296875</LatitudeDegrees>
              <LongitudeDegrees>2.7418947033584117889404296875</LongitudeDegrees>
            </Position>
            <AltitudeMeters>1199</AltitudeMeters>
            <DistanceMeters>21460.626809837</DistanceMeters>
          </Trackpoint>
          <Trackpoint>
            <Time>2021-04-01T10:54:55.000Z</Time>
            <Position>
              <LatitudeDegrees>42.4232230894267559051513671875</LatitudeDegrees>
              <LongitudeDegrees>2.74188908748328685760498046875</LongitudeDegrees>
            </Position>
            <AltitudeMeters>1199.199951171875</AltitudeMeters>
            <DistanceMeters>21461.196970123</DistanceMeters>
          </Trackpoint>
          <Trackpoint>
            <Time>2021-04-01T10:54:56.000Z</Time>
            <Position>
              <LatitudeDegrees>42.42322149686515331268310546875</LatitudeDegrees>
              <LongitudeDegrees>2.7418903447687625885009765625</LongitudeDegrees>
            </Position>
            <AltitudeMeters>1199.4000244140625</AltitudeMeters>
            <DistanceMeters>21461.387023552</DistanceMeters>
          </Trackpoint>
          <Trackpoint>
            <Time>2021-04-01T10:55:03.000Z</Time>
            <Position>
              <LatitudeDegrees>42.4232123605906963348388671875</LatitudeDegrees>
              <LongitudeDegrees>2.741850949823856353759765625</LongitudeDegrees>
            </Position>
            <AltitudeMeters>1200.199951171875</AltitudeMeters>
            <DistanceMeters>21464.778825048</DistanceMeters>
          </Trackpoint>
          <Trackpoint>
            <Time>2021-04-01T10:55:08.000Z</Time>
            <Position>
              <LatitudeDegrees>42.423215210437774658203125</LatitudeDegrees>
              <LongitudeDegrees>2.74180945940315723419189453125</LongitudeDegrees>
            </Position>
            <AltitudeMeters>1200.4000244140625</AltitudeMeters>
            <DistanceMeters>21468.201106327</DistanceMeters>
          </Trackpoint>
          <Trackpoint>
            <Time>2021-04-01T10:55:14.000Z</Time>
            <Position>
              <LatitudeDegrees>42.4232257716357707977294921875</LatitudeDegrees>
              <LongitudeDegrees>2.7417553961277008056640625</LongitudeDegrees>
            </Position>
            <AltitudeMeters>1201</AltitudeMeters>
            <DistanceMeters>21472.795920656</DistanceMeters>
          </Trackpoint>
          <Trackpoint>
            <Time>2021-04-01T10:55:16.000Z</Time>
            <Position>
              <LatitudeDegrees>42.42322795093059539794921875</LatitudeDegrees>
              <LongitudeDegrees>2.7417366206645965576171875</LongitudeDegrees>
            </Position>
            <AltitudeMeters>1201.4000244140625</AltitudeMeters>
            <DistanceMeters>21474.357368907</DistanceMeters>
          </Trackpoint>
          <Trackpoint>
            <Time>2021-04-01T10:55:23.000Z</Time>
            <Position>
              <LatitudeDegrees>42.423234321177005767822265625</LatitudeDegrees>
              <LongitudeDegrees>2.741660512983798980712890625</LongitudeDegrees>
            </Position>
            <AltitudeMeters>1202.199951171875</AltitudeMeters>
            <DistanceMeters>21480.650691979</DistanceMeters>
          </Trackpoint>
          <Trackpoint>
            <Time>2021-04-01T10:55:29.000Z</Time>
            <Position>
              <LatitudeDegrees>42.42322954349219799041748046875</LatitudeDegrees>
              <LongitudeDegrees>2.7415802143514156341552734375</LongitudeDegrees>
            </Position>
            <AltitudeMeters>1202.5999755859375</AltitudeMeters>
            <DistanceMeters>21487.269219068</DistanceMeters>
          </Trackpoint>
          <Trackpoint>
            <Time>2021-04-01T10:55:33.000Z</Time>
            <Position>
              <LatitudeDegrees>42.42323390208184719085693359375</LatitudeDegrees>
              <LongitudeDegrees>2.74156554602086544036865234375</LongitudeDegrees>
            </Position>
            <AltitudeMeters>1202.800048828125</AltitudeMeters>
            <DistanceMeters>21488.572159731</DistanceMeters>
          </Trackpoint>
          <Trackpoint>
            <Time>2021-04-01T10:55:41.000Z</Time>
            <Position>
              <LatitudeDegrees>42.42324681021273136138916015625</LatitudeDegrees>
              <LongitudeDegrees>2.7415155060589313507080078125</LongitudeDegrees>
            </Position>
            <AltitudeMeters>1203</AltitudeMeters>
            <DistanceMeters>21492.92786755</DistanceMeters>
          </Trackpoint>
          <Trackpoint>
            <Time>2021-04-01T10:55:47.000Z</Time>
            <Position>
              <LatitudeDegrees>42.423259802162647247314453125</LatitudeDegrees>
              <LongitudeDegrees>2.74149044416844844818115234375</LongitudeDegrees>
            </Position>
            <AltitudeMeters>1203.4000244140625</AltitudeMeters>
            <DistanceMeters>21495.445627202</DistanceMeters>
          </Trackpoint>
          <Trackpoint>
            <Time>2021-04-01T10:55:50.000Z</Time>
            <Position>
              <LatitudeDegrees>42.42327849380671977996826171875</LatitudeDegrees>
              <LongitudeDegrees>2.74147309362888336181640625</LongitudeDegrees>
            </Position>
            <AltitudeMeters>1203.5999755859375</AltitudeMeters>
            <DistanceMeters>21497.966970855</DistanceMeters>
          </Trackpoint>
          <Trackpoint>
            <Time>2021-04-01T10:55:52.000Z</Time>
            <Position>
              <LatitudeDegrees>42.42329257540404796600341796875</LatitudeDegrees>
              <LongitudeDegrees>2.74146764539182186126708984375</LongitudeDegrees>
            </Position>
            <AltitudeMeters>1204</AltitudeMeters>
            <DistanceMeters>21499.59633959</DistanceMeters>
          </Trackpoint>
          <Trackpoint>
            <Time>2021-04-01T10:55:55.000Z</Time>
            <Position>
              <LatitudeDegrees>42.42330883629620075225830078125</LatitudeDegrees>
              <LongitudeDegrees>2.7414621971547603607177734375</LongitudeDegrees>
            </Position>
            <AltitudeMeters>1204.4000244140625</AltitudeMeters>
            <DistanceMeters>21501.463318301</DistanceMeters>
          </Trackpoint>
          <Trackpoint>
            <Time>2021-04-01T10:55:57.000Z</Time>
            <Position>
              <LatitudeDegrees>42.4233196489512920379638671875</LatitudeDegrees>
              <LongitudeDegrees>2.74145222268998622894287109375</LongitudeDegrees>
            </Position>
            <AltitudeMeters>1204.800048828125</AltitudeMeters>
            <DistanceMeters>21502.916947514</DistanceMeters>
          </Trackpoint>
          <Trackpoint>
            <Time>2021-04-01T10:56:01.000Z</Time>
            <Position>
              <LatitudeDegrees>42.42333834059536457061767578125</LatitudeDegrees>
              <LongitudeDegrees>2.74144115857779979705810546875</LongitudeDegrees>
            </Position>
            <AltitudeMeters>1205</AltitudeMeters>
            <DistanceMeters>21505.185679224</DistanceMeters>
          </Trackpoint>
          <Trackpoint>
            <Time>2021-04-01T10:56:07.000Z</Time>
            <Position>
              <LatitudeDegrees>42.42336248047649860382080078125</LatitudeDegrees>
              <LongitudeDegrees>2.74143411777913570404052734375</LongitudeDegrees>
            </Position>
            <AltitudeMeters>1206</AltitudeMeters>
            <DistanceMeters>21507.93324977</DistanceMeters>
          </Trackpoint>
          <Trackpoint>
            <Time>2021-04-01T10:56:12.000Z</Time>
            <Position>
              <LatitudeDegrees>42.4233774840831756591796875</LatitudeDegrees>
              <LongitudeDegrees>2.74142221547663211822509765625</LongitudeDegrees>
            </Position>
            <AltitudeMeters>1207.199951171875</AltitudeMeters>
            <DistanceMeters>21509.869091118</DistanceMeters>
          </Trackpoint>
          <Trackpoint>
            <Time>2021-04-01T10:56:20.000Z</Time>
            <Position>
              <LatitudeDegrees>42.42338217794895172119140625</LatitudeDegrees>
              <LongitudeDegrees>2.74139874614775180816650390625</LongitudeDegrees>
            </Position>
            <AltitudeMeters>1207.800048828125</AltitudeMeters>
            <DistanceMeters>21511.869172083</DistanceMeters>
          </Trackpoint>
          <Trackpoint>
            <Time>2021-04-01T10:56:25.000Z</Time>
            <Position>
              <LatitudeDegrees>42.4234004504978656768798828125</LatitudeDegrees>
              <LongitudeDegrees>2.74136655963957309722900390625</LongitudeDegrees>
            </Position>
            <AltitudeMeters>1208.4000244140625</AltitudeMeters>
            <DistanceMeters>21515.204596221</DistanceMeters>
          </Trackpoint>
          <Trackpoint>
            <Time>2021-04-01T10:56:27.000Z</Time>
            <Position>
              <LatitudeDegrees>42.42340154014527797698974609375</LatitudeDegrees>
              <LongitudeDegrees>2.74134426377713680267333984375</LongitudeDegrees>
            </Position>
            <AltitudeMeters>1208.800048828125</AltitudeMeters>
            <DistanceMeters>21517.039866913</DistanceMeters>
          </Trackpoint>
          <Trackpoint>
            <Time>2021-04-01T10:56:30.000Z</Time>
            <Position>
              <LatitudeDegrees>42.4233924038708209991455078125</LatitudeDegrees>
              <LongitudeDegrees>2.7413324452936649322509765625</LongitudeDegrees>
            </Position>
            <AltitudeMeters>1209.5999755859375</AltitudeMeters>
            <DistanceMeters>21518.449340864</DistanceMeters>
          </Trackpoint>
          <Trackpoint>
            <Time>2021-04-01T10:56:35.000Z</Time>
            <Position>
              <LatitudeDegrees>42.423387207090854644775390625</LatitudeDegrees>
              <LongitudeDegrees>2.74133923463523387908935546875</LongitudeDegrees>
            </Position>
            <AltitudeMeters>1210.4000244140625</AltitudeMeters>
            <DistanceMeters>21519.255669273</DistanceMeters>
          </Trackpoint>
          <Trackpoint>
            <Time>2021-04-01T10:56:37.000Z</Time>
            <Position>
              <LatitudeDegrees>42.42339022457599639892578125</LatitudeDegrees>
              <LongitudeDegrees>2.741335295140743255615234375</LongitudeDegrees>
            </Position>
            <AltitudeMeters>1210.5999755859375</AltitudeMeters>
            <DistanceMeters>21519.721203197</DistanceMeters>
          </Trackpoint>
          <Trackpoint>
            <Time>2021-04-01T10:56:43.000Z</Time>
            <Position>
              <LatitudeDegrees>42.42340623401105403900146484375</LatitudeDegrees>
              <LongitudeDegrees>2.7413079701364040374755859375</LongitudeDegrees>
            </Position>
            <AltitudeMeters>1211.4000244140625</AltitudeMeters>
            <DistanceMeters>21522.586223178</DistanceMeters>
          </Trackpoint>
          <Trackpoint>
            <Time>2021-04-01T10:56:45.000Z</Time>
            <Position>
              <LatitudeDegrees>42.423415370285511016845703125</LatitudeDegrees>
              <LongitudeDegrees>2.7413093112409114837646484375</LongitudeDegrees>
            </Position>
            <AltitudeMeters>1211.5999755859375</AltitudeMeters>
            <DistanceMeters>21523.609692214</DistanceMeters>
          </Trackpoint>
          <Trackpoint>
            <Time>2021-04-01T10:56:50.000Z</Time>
            <Position>
              <LatitudeDegrees>42.42343205027282238006591796875</LatitudeDegrees>
              <LongitudeDegrees>2.74128793738782405853271484375</LongitudeDegrees>
            </Position>
            <AltitudeMeters>1211.5999755859375</AltitudeMeters>
            <DistanceMeters>21526.166599593</DistanceMeters>
          </Trackpoint>
          <Trackpoint>
            <Time>2021-04-01T10:56:55.000Z</Time>
            <Position>
              <LatitudeDegrees>42.4234410189092159271240234375</LatitudeDegrees>
              <LongitudeDegrees>2.7412479557096958160400390625</LongitudeDegrees>
            </Position>
            <AltitudeMeters>1212</AltitudeMeters>
            <DistanceMeters>21529.600734103</DistanceMeters>
          </Trackpoint>
          <Trackpoint>
            <Time>2021-04-01T10:56:57.000Z</Time>
            <Position>
              <LatitudeDegrees>42.4234390072524547576904296875</LatitudeDegrees>
              <LongitudeDegrees>2.741231024265289306640625</LongitudeDegrees>
            </Position>
            <AltitudeMeters>1212.199951171875</AltitudeMeters>
            <DistanceMeters>21531.010208054</DistanceMeters>
          </Trackpoint>
          <Trackpoint>
            <Time>2021-04-01T10:57:02.000Z</Time>
            <Position>
              <LatitudeDegrees>42.4234225787222385406494140625</LatitudeDegrees>
              <LongitudeDegrees>2.741181068122386932373046875</LongitudeDegrees>
            </Position>
            <AltitudeMeters>1212.5999755859375</AltitudeMeters>
            <DistanceMeters>21535.503675638</DistanceMeters>
          </Trackpoint>
          <Trackpoint>
            <Time>2021-04-01T10:57:03.000Z</Time>
            <Position>
              <LatitudeDegrees>42.42342534475028514862060546875</LatitudeDegrees>
              <LongitudeDegrees>2.7411768771708011627197265625</LongitudeDegrees>
            </Position>
            <AltitudeMeters>1212.800048828125</AltitudeMeters>
            <DistanceMeters>21535.969209562</DistanceMeters>
          </Trackpoint>
          <Trackpoint>
            <Time>2021-04-01T10:57:08.000Z</Time>
            <Position>
              <LatitudeDegrees>42.4234364926815032958984375</LatitudeDegrees>
              <LongitudeDegrees>2.741162963211536407470703125</LongitudeDegrees>
            </Position>
            <AltitudeMeters>1213.5999755859375</AltitudeMeters>
            <DistanceMeters>21537.658441386</DistanceMeters>
          </Trackpoint>
          <Trackpoint>
            <Time>2021-04-01T10:57:09.000Z</Time>
            <Position>
              <LatitudeDegrees>42.42343825288116931915283203125</LatitudeDegrees>
              <LongitudeDegrees>2.74116053245961666107177734375</LongitudeDegrees>
            </Position>
            <AltitudeMeters>1213.5999755859375</AltitudeMeters>
            <DistanceMeters>21537.927217523</DistanceMeters>
          </Trackpoint>
          <Trackpoint>
            <Time>2021-04-01T10:57:10.000Z</Time>
            <Position>
              <LatitudeDegrees>42.42343942634761333465576171875</LatitudeDegrees>
              <LongitudeDegrees>2.74115919135510921478271484375</LongitudeDegrees>
            </Position>
            <AltitudeMeters>1213.800048828125</AltitudeMeters>
            <DistanceMeters>21538.061605591</DistanceMeters>
          </Trackpoint>
          <Trackpoint>
            <Time>2021-04-01T10:57:20.000Z</Time>
            <Position>
              <LatitudeDegrees>42.42344914935529232025146484375</LatitudeDegrees>
              <LongitudeDegrees>2.741072438657283782958984375</LongitudeDegrees>
            </Position>
            <AltitudeMeters>1214</AltitudeMeters>
            <DistanceMeters>21545.270495238</DistanceMeters>
          </Trackpoint>
          <Trackpoint>
            <Time>2021-04-01T10:57:28.000Z</Time>
            <Position>
              <LatitudeDegrees>42.423464320600032806396484375</LatitudeDegrees>
              <LongitudeDegrees>2.74099163711071014404296875</LongitudeDegrees>
            </Position>
            <AltitudeMeters>1214.5999755859375</AltitudeMeters>
            <DistanceMeters>21552.120332988</DistanceMeters>
          </Trackpoint>
          <Trackpoint>
            <Time>2021-04-01T10:57:32.000Z</Time>
            <Position>
              <LatitudeDegrees>42.42347429506480693817138671875</LatitudeDegrees>
              <LongitudeDegrees>2.74097294546663761138916015625</LongitudeDegrees>
            </Position>
            <AltitudeMeters>1214.800048828125</AltitudeMeters>
            <DistanceMeters>21554.013726858</DistanceMeters>
          </Trackpoint>
          <Trackpoint>
            <Time>2021-04-01T10:57:36.000Z</Time>
            <Position>
              <LatitudeDegrees>42.42348753847181797027587890625</LatitudeDegrees>
              <LongitudeDegrees>2.74095945060253143310546875</LongitudeDegrees>
            </Position>
            <AltitudeMeters>1215.4000244140625</AltitudeMeters>
            <DistanceMeters>21555.856363215</DistanceMeters>
          </Trackpoint>
          <Trackpoint>
            <Time>2021-04-01T10:57:38.000Z</Time>
            <Position>
              <LatitudeDegrees>42.42349441163241863250732421875</LatitudeDegrees>
              <LongitudeDegrees>2.74094914086163043975830078125</LongitudeDegrees>
            </Position>
            <AltitudeMeters>1215.800048828125</AltitudeMeters>
            <DistanceMeters>21556.996683787</DistanceMeters>
          </Trackpoint>
          <Trackpoint>
            <Time>2021-04-01T10:57:39.000Z</Time>
            <Position>
              <LatitudeDegrees>42.42349608801305294036865234375</LatitudeDegrees>
              <LongitudeDegrees>2.7409448660910129547119140625</LongitudeDegrees>
            </Position>
            <AltitudeMeters>1216.199951171875</AltitudeMeters>
            <DistanceMeters>21557.376790645</DistanceMeters>
          </Trackpoint>
          <Trackpoint>
            <Time>2021-04-01T10:57:43.000Z</Time>
            <Position>
              <LatitudeDegrees>42.42349960841238498687744140625</LatitudeDegrees>
              <LongitudeDegrees>2.740916870534420013427734375</LongitudeDegrees>
            </Position>
            <AltitudeMeters>1217.199951171875</AltitudeMeters>
            <DistanceMeters>21559.708336488</DistanceMeters>
          </Trackpoint>
          <Trackpoint>
            <Time>2021-04-01T10:57:44.000Z</Time>
            <Position>
              <LatitudeDegrees>42.4235000275075435638427734375</LatitudeDegrees>
              <LongitudeDegrees>2.74090941064059734344482421875</LongitudeDegrees>
            </Position>
            <AltitudeMeters>1217.4000244140625</AltitudeMeters>
            <DistanceMeters>21560.324179983</DistanceMeters>
          </Trackpoint>
          <Trackpoint>
            <Time>2021-04-01T10:57:48.000Z</Time>
            <Position>
              <LatitudeDegrees>42.42350229062139987945556640625</LatitudeDegrees>
              <LongitudeDegrees>2.74087898433208465576171875</LongitudeDegrees>
            </Position>
            <AltitudeMeters>1218.4000244140625</AltitudeMeters>
            <DistanceMeters>21562.836554047</DistanceMeters>
          </Trackpoint>
          <Trackpoint>
            <Time>2021-04-01T10:57:51.000Z</Time>
            <Position>
              <LatitudeDegrees>42.42349885404109954833984375</LatitudeDegrees>
              <LongitudeDegrees>2.7408593706786632537841796875</LongitudeDegrees>
            </Position>
            <AltitudeMeters>1218.5999755859375</AltitudeMeters>
            <DistanceMeters>21564.493401426</DistanceMeters>
          </Trackpoint>
          <Trackpoint>
            <Time>2021-04-01T10:58:00.000Z</Time>
            <Position>
              <LatitudeDegrees>42.42343473248183727264404296875</LatitudeDegrees>
              <LongitudeDegrees>2.7408305369317531585693359375</LongitudeDegrees>
            </Position>
            <AltitudeMeters>1218</AltitudeMeters>
            <DistanceMeters>21572.013131387</DistanceMeters>
          </Trackpoint>
          <Trackpoint>
            <Time>2021-04-01T10:58:04.000Z</Time>
            <Position>
              <LatitudeDegrees>42.423421405255794525146484375</LatitudeDegrees>
              <LongitudeDegrees>2.74080061353743076324462890625</LongitudeDegrees>
            </Position>
            <AltitudeMeters>1218.199951171875</AltitudeMeters>
            <DistanceMeters>21574.884448123</DistanceMeters>
          </Trackpoint>
          <Trackpoint>
            <Time>2021-04-01T10:58:10.000Z</Time>
            <Position>
              <LatitudeDegrees>42.42344981990754604339599609375</LatitudeDegrees>
              <LongitudeDegrees>2.74075501598417758941650390625</LongitudeDegrees>
            </Position>
            <AltitudeMeters>1218.5999755859375</AltitudeMeters>
            <DistanceMeters>21579.787310908</DistanceMeters>
          </Trackpoint>
          <Trackpoint>
            <Time>2021-04-01T10:58:14.000Z</Time>
            <Position>
              <LatitudeDegrees>42.42346800863742828369140625</LatitudeDegrees>
              <LongitudeDegrees>2.7407064847648143768310546875</LongitudeDegrees>
            </Position>
            <AltitudeMeters>1219.4000244140625</AltitudeMeters>
            <DistanceMeters>21584.260637344</DistanceMeters>
          </Trackpoint>
          <Trackpoint>
            <Time>2021-04-01T10:58:18.000Z</Time>
            <Position>
              <LatitudeDegrees>42.42347144521772861480712890625</LatitudeDegrees>
              <LongitudeDegrees>2.74066683836281299591064453125</LongitudeDegrees>
            </Position>
            <AltitudeMeters>1220.199951171875</AltitudeMeters>
            <DistanceMeters>21587.541468202</DistanceMeters>
          </Trackpoint>
          <Trackpoint>
            <Time>2021-04-01T10:58:21.000Z</Time>
            <Position>
              <LatitudeDegrees>42.4234742112457752227783203125</LatitudeDegrees>
              <LongitudeDegrees>2.74065233767032623291015625</LongitudeDegrees>
            </Position>
            <AltitudeMeters>1220.4000244140625</AltitudeMeters>
            <DistanceMeters>21588.773155193</DistanceMeters>
          </Trackpoint>
          <Trackpoint>
            <Time>2021-04-01T10:58:26.000Z</Time>
            <Position>
              <LatitudeDegrees>42.4234852753579616546630859375</LatitudeDegrees>
              <LongitudeDegrees>2.74063448421657085418701171875</LongitudeDegrees>
            </Position>
            <AltitudeMeters>1221.199951171875</AltitudeMeters>
            <DistanceMeters>21590.68553093</DistanceMeters>
          </Trackpoint>
          <Trackpoint>
            <Time>2021-04-01T10:58:28.000Z</Time>
            <Position>
              <LatitudeDegrees>42.42348871193826198577880859375</LatitudeDegrees>
              <LongitudeDegrees>2.740630544722080230712890625</LongitudeDegrees>
            </Position>
            <AltitudeMeters>1221.800048828125</AltitudeMeters>
            <DistanceMeters>21591.170074001</DistanceMeters>
          </Trackpoint>
          <Trackpoint>
            <Time>2021-04-01T10:58:33.000Z</Time>
            <Position>
              <LatitudeDegrees>42.42350497283041477203369140625</LatitudeDegrees>
              <LongitudeDegrees>2.7406099252402782440185546875</LongitudeDegrees>
            </Position>
            <AltitudeMeters>1223</AltitudeMeters>
            <DistanceMeters>21593.64806754</DistanceMeters>
          </Trackpoint>
          <Trackpoint>
            <Time>2021-04-01T10:58:35.000Z</Time>
            <Position>
              <LatitudeDegrees>42.423512935638427734375</LatitudeDegrees>
              <LongitudeDegrees>2.7405993640422821044921875</LongitudeDegrees>
            </Position>
            <AltitudeMeters>1223.5999755859375</AltitudeMeters>
            <DistanceMeters>21594.88706431</DistanceMeters>
          </Trackpoint>
          <Trackpoint>
            <Time>2021-04-01T10:58:36.000Z</Time>
            <Position>
              <LatitudeDegrees>42.42351628839969635009765625</LatitudeDegrees>
              <LongitudeDegrees>2.7405921556055545806884765625</LongitudeDegrees>
            </Position>
            <AltitudeMeters>1224</AltitudeMeters>
            <DistanceMeters>21595.591801285</DistanceMeters>
          </Trackpoint>
          <Trackpoint>
            <Time>2021-04-01T10:58:38.000Z</Time>
            <Position>
              <LatitudeDegrees>42.42352274246513843536376953125</LatitudeDegrees>
              <LongitudeDegrees>2.740580253303050994873046875</LongitudeDegrees>
            </Position>
            <AltitudeMeters>1224.5999755859375</AltitudeMeters>
            <DistanceMeters>21596.808737001</DistanceMeters>
          </Trackpoint>
          <Trackpoint>
            <Time>2021-04-01T10:58:40.000Z</Time>
            <Position>
              <LatitudeDegrees>42.42352978326380252838134765625</LatitudeDegrees>
              <LongitudeDegrees>2.7405737154185771942138671875</LongitudeDegrees>
            </Position>
            <AltitudeMeters>1225.199951171875</AltitudeMeters>
            <DistanceMeters>21597.763743661</DistanceMeters>
          </Trackpoint>
          <Trackpoint>
            <Time>2021-04-01T10:58:44.000Z</Time>
            <Position>
              <LatitudeDegrees>42.42353732697665691375732421875</LatitudeDegrees>
              <LongitudeDegrees>2.74055016227066516876220703125</LongitudeDegrees>
            </Position>
            <AltitudeMeters>1225.5999755859375</AltitudeMeters>
            <DistanceMeters>21599.875817941</DistanceMeters>
          </Trackpoint>
          <Trackpoint>
            <Time>2021-04-01T10:58:49.000Z</Time>
            <Position>
              <LatitudeDegrees>42.4235516600310802459716796875</LatitudeDegrees>
              <LongitudeDegrees>2.74053943343460559844970703125</LongitudeDegrees>
            </Position>
            <AltitudeMeters>1225.800048828125</AltitudeMeters>
            <DistanceMeters>21601.69874639</DistanceMeters>
          </Trackpoint>
          <Trackpoint>
            <Time>2021-04-01T10:58:52.000Z</Time>
            <Position>
              <LatitudeDegrees>42.4235597066581249237060546875</LatitudeDegrees>
              <LongitudeDegrees>2.74053105153143405914306640625</LongitudeDegrees>
            </Position>
            <AltitudeMeters>1226.199951171875</AltitudeMeters>
            <DistanceMeters>21602.823117638</DistanceMeters>
          </Trackpoint>
          <Trackpoint>
            <Time>2021-04-01T10:58:53.000Z</Time>
            <Position>
              <LatitudeDegrees>42.42355995811522006988525390625</LatitudeDegrees>
              <LongitudeDegrees>2.740526609122753143310546875</LongitudeDegrees>
            </Position>
            <AltitudeMeters>1226.4000244140625</AltitudeMeters>
            <DistanceMeters>21603.19115452</DistanceMeters>
          </Trackpoint>
          <Trackpoint>
            <Time>2021-04-01T10:59:02.000Z</Time>
            <Position>
              <LatitudeDegrees>42.42358242161571979522705078125</LatitudeDegrees>
              <LongitudeDegrees>2.7404865436255931854248046875</LongitudeDegrees>
            </Position>
            <AltitudeMeters>1227.4000244140625</AltitudeMeters>
            <DistanceMeters>21607.324543521</DistanceMeters>
          </Trackpoint>
          <Trackpoint>
            <Time>2021-04-01T10:59:05.000Z</Time>
            <Position>
              <LatitudeDegrees>42.4235979281365871429443359375</LatitudeDegrees>
              <LongitudeDegrees>2.740451507270336151123046875</LongitudeDegrees>
            </Position>
            <AltitudeMeters>1228</AltitudeMeters>
            <DistanceMeters>21610.68155639</DistanceMeters>
          </Trackpoint>
          <Trackpoint>
            <Time>2021-04-01T10:59:07.000Z</Time>
            <Position>
              <LatitudeDegrees>42.42361762560904026031494140625</LatitudeDegrees>
              <LongitudeDegrees>2.74043499492108821868896484375</LongitudeDegrees>
            </Position>
            <AltitudeMeters>1228.5999755859375</AltitudeMeters>
            <DistanceMeters>21613.259566526</DistanceMeters>
          </Trackpoint>
          <Trackpoint>
            <Time>2021-04-01T10:59:12.000Z</Time>
            <Position>
              <LatitudeDegrees>42.42365635000169277191162109375</LatitudeDegrees>
              <LongitudeDegrees>2.74043549783527851104736328125</LongitudeDegrees>
            </Position>
            <AltitudeMeters>1229.800048828125</AltitudeMeters>
            <DistanceMeters>21617.570470993</DistanceMeters>
          </Trackpoint>
          <Trackpoint>
            <Time>2021-04-01T10:59:15.000Z</Time>
            <Position>
              <LatitudeDegrees>42.4236659891903400421142578125</LatitudeDegrees>
              <LongitudeDegrees>2.7404211647808551788330078125</LongitudeDegrees>
            </Position>
            <AltitudeMeters>1230.199951171875</AltitudeMeters>
            <DistanceMeters>21619.166240888</DistanceMeters>
          </Trackpoint>
          <Trackpoint>
            <Time>2021-04-01T10:59:18.000Z</Time>
            <Position>
              <LatitudeDegrees>42.42368283681571483612060546875</LatitudeDegrees>
              <LongitudeDegrees>2.74040917865931987762451171875</LongitudeDegrees>
            </Position>
            <AltitudeMeters>1230.4000244140625</AltitudeMeters>
            <DistanceMeters>21621.282586303</DistanceMeters>
          </Trackpoint>
          <Trackpoint>
            <Time>2021-04-01T10:59:19.000Z</Time>
            <Position>
              <LatitudeDegrees>42.4236864410340785980224609375</LatitudeDegrees>
              <LongitudeDegrees>2.74040289223194122314453125</LongitudeDegrees>
            </Position>
            <AltitudeMeters>1230.4000244140625</AltitudeMeters>
            <DistanceMeters>21621.927088837</DistanceMeters>
          </Trackpoint>
          <Trackpoint>
            <Time>2021-04-01T10:59:24.000Z</Time>
            <Position>
              <LatitudeDegrees>42.42371669970452785491943359375</LatitudeDegrees>
              <LongitudeDegrees>2.7403816021978855133056640625</LongitudeDegrees>
            </Position>
            <AltitudeMeters>1230.800048828125</AltitudeMeters>
            <DistanceMeters>21625.723403103</DistanceMeters>
          </Trackpoint>
          <Trackpoint>
            <Time>2021-04-01T10:59:25.000Z</Time>
            <Position>
              <LatitudeDegrees>42.42372424341738224029541015625</LatitudeDegrees>
              <LongitudeDegrees>2.7403752319514751434326171875</LongitudeDegrees>
            </Position>
            <AltitudeMeters>1231</AltitudeMeters>
            <DistanceMeters>21626.710949687</DistanceMeters>
          </Trackpoint>
          <Trackpoint>
            <Time>2021-04-01T10:59:28.000Z</Time>
            <Position>
              <LatitudeDegrees>42.42374419234693050384521484375</LatitudeDegrees>
              <LongitudeDegrees>2.74036240763962268829345703125</LongitudeDegrees>
            </Position>
            <AltitudeMeters>1231.4000244140625</AltitudeMeters>
            <DistanceMeters>21629.168818915</DistanceMeters>
          </Trackpoint>
          <Trackpoint>
            <Time>2021-04-01T10:59:32.000Z</Time>
            <Position>
              <LatitudeDegrees>42.4237679131329059600830078125</LatitudeDegrees>
              <LongitudeDegrees>2.74035033769905567169189453125</LongitudeDegrees>
            </Position>
            <AltitudeMeters>1231.800048828125</AltitudeMeters>
            <DistanceMeters>21631.989368036</DistanceMeters>
          </Trackpoint>
          <Trackpoint>
            <Time>2021-04-01T10:59:34.000Z</Time>
            <Position>
              <LatitudeDegrees>42.42376866750419139862060546875</LatitudeDegrees>
              <LongitudeDegrees>2.7403433807194232940673828125</LongitudeDegrees>
            </Position>
            <AltitudeMeters>1232</AltitudeMeters>
            <DistanceMeters>21632.559528322</DistanceMeters>
          </Trackpoint>
          <Trackpoint>
            <Time>2021-04-01T10:59:35.000Z</Time>
            <Position>
              <LatitudeDegrees>42.42377470247447490692138671875</LatitudeDegrees>
              <LongitudeDegrees>2.74034078232944011688232421875</LongitudeDegrees>
            </Position>
            <AltitudeMeters>1232.199951171875</AltitudeMeters>
            <DistanceMeters>21633.257829209</DistanceMeters>
          </Trackpoint>
          <Trackpoint>
            <Time>2021-04-01T10:59:36.000Z</Time>
            <Position>
              <LatitudeDegrees>42.42377646267414093017578125</LatitudeDegrees>
              <LongitudeDegrees>2.74033608846366405487060546875</LongitudeDegrees>
            </Position>
            <AltitudeMeters>1232.4000244140625</AltitudeMeters>
            <DistanceMeters>21633.682801595</DistanceMeters>
          </Trackpoint>
          <Trackpoint>
            <Time>2021-04-01T10:59:37.000Z</Time>
            <Position>
              <LatitudeDegrees>42.42377537302672863006591796875</LatitudeDegrees>
              <LongitudeDegrees>2.74032888002693653106689453125</LongitudeDegrees>
            </Position>
            <AltitudeMeters>1232.5999755859375</AltitudeMeters>
            <DistanceMeters>21634.283803307</DistanceMeters>
          </Trackpoint>
          <Trackpoint>
            <Time>2021-04-01T10:59:40.000Z</Time>
            <Position>
              <LatitudeDegrees>42.423780150711536407470703125</LatitudeDegrees>
              <LongitudeDegrees>2.74031831882894039154052734375</LongitudeDegrees>
            </Position>
            <AltitudeMeters>1232.800048828125</AltitudeMeters>
            <DistanceMeters>21635.298410972</DistanceMeters>
          </Trackpoint>
          <Trackpoint>
            <Time>2021-04-01T10:59:46.000Z</Time>
            <Position>
              <LatitudeDegrees>42.423776127398014068603515625</LatitudeDegrees>
              <LongitudeDegrees>2.7403132058680057525634765625</LongitudeDegrees>
            </Position>
            <AltitudeMeters>1232.800048828125</AltitudeMeters>
            <DistanceMeters>21635.914254467</DistanceMeters>
          </Trackpoint>
          <Trackpoint>
            <Time>2021-04-01T10:59:48.000Z</Time>
            <Position>
              <LatitudeDegrees>42.4237826652824878692626953125</LatitudeDegrees>
              <LongitudeDegrees>2.74031840264797210693359375</LongitudeDegrees>
            </Position>
            <AltitudeMeters>1232.5999755859375</AltitudeMeters>
            <DistanceMeters>21636.764199239</DistanceMeters>
          </Trackpoint>
          <Trackpoint>
            <Time>2021-04-01T10:59:51.000Z</Time>
            <Position>
              <LatitudeDegrees>42.42378660477697849273681640625</LatitudeDegrees>
              <LongitudeDegrees>2.74031982757151126861572265625</LongitudeDegrees>
            </Position>
            <AltitudeMeters>1232.4000244140625</AltitudeMeters>
            <DistanceMeters>21637.229733164</DistanceMeters>
          </Trackpoint>
          <Trackpoint>
            <Time>2021-04-01T10:59:53.000Z</Time>
            <Position>
              <LatitudeDegrees>42.42378660477697849273681640625</LatitudeDegrees>
              <LongitudeDegrees>2.74031982757151126861572265625</LongitudeDegrees>
            </Position>
            <AltitudeMeters>1232.199951171875</AltitudeMeters>
            <DistanceMeters>21637.229733164</DistanceMeters>
          </Trackpoint>
          <Trackpoint>
            <Time>2021-04-01T10:59:58.000Z</Time>
            <Position>
              <LatitudeDegrees>42.42378660477697849273681640625</LatitudeDegrees>
              <LongitudeDegrees>2.74031982757151126861572265625</LongitudeDegrees>
            </Position>
            <AltitudeMeters>1232.5999755859375</AltitudeMeters>
            <DistanceMeters>21637.229733164</DistanceMeters>
          </Trackpoint>
          <Trackpoint>
            <Time>2021-04-01T11:00:00.000Z</Time>
            <Position>
              <LatitudeDegrees>42.42378660477697849273681640625</LatitudeDegrees>
              <LongitudeDegrees>2.74031982757151126861572265625</LongitudeDegrees>
            </Position>
            <AltitudeMeters>1232.800048828125</AltitudeMeters>
            <DistanceMeters>21637.229733164</DistanceMeters>
          </Trackpoint>
          <Trackpoint>
            <Time>2021-04-01T11:00:02.000Z</Time>
            <Position>
              <LatitudeDegrees>42.42378660477697849273681640625</LatitudeDegrees>
              <LongitudeDegrees>2.74031965993344783782958984375</LongitudeDegrees>
            </Position>
            <AltitudeMeters>1233</AltitudeMeters>
            <DistanceMeters>21637.229733164</DistanceMeters>
          </Trackpoint>
          <Trackpoint>
            <Time>2021-04-01T11:00:10.000Z</Time>
            <Position>
              <LatitudeDegrees>42.42378777824342250823974609375</LatitudeDegrees>
              <LongitudeDegrees>2.7403152175247669219970703125</LongitudeDegrees>
            </Position>
            <AltitudeMeters>1233.800048828125</AltitudeMeters>
            <DistanceMeters>21637.621538344</DistanceMeters>
          </Trackpoint>
          <Trackpoint>
            <Time>2021-04-01T11:00:13.000Z</Time>
            <Position>
              <LatitudeDegrees>42.42378828115761280059814453125</LatitudeDegrees>
              <LongitudeDegrees>2.74031446315348148345947265625</LongitudeDegrees>
            </Position>
            <AltitudeMeters>1233.800048828125</AltitudeMeters>
            <DistanceMeters>21637.716565059</DistanceMeters>
          </Trackpoint>
          <Trackpoint>
            <Time>2021-04-01T11:00:19.000Z</Time>
            <Position>
              <LatitudeDegrees>42.42378861643373966217041015625</LatitudeDegrees>
              <LongitudeDegrees>2.74031597189605236053466796875</LongitudeDegrees>
            </Position>
            <AltitudeMeters>1234</AltitudeMeters>
            <DistanceMeters>21637.850953127</DistanceMeters>
          </Trackpoint>
          <Trackpoint>
            <Time>2021-04-01T11:00:52.000Z</Time>
            <Position>
              <LatitudeDegrees>42.42377956397831439971923828125</LatitudeDegrees>
              <LongitudeDegrees>2.7403209172189235687255859375</LongitudeDegrees>
            </Position>
            <AltitudeMeters>1234.5999755859375</AltitudeMeters>
            <DistanceMeters>21638.942726955</DistanceMeters>
          </Trackpoint>
          <Trackpoint>
            <Time>2021-04-01T11:01:04.000Z</Time>
            <Position>
              <LatitudeDegrees>42.42378409020602703094482421875</LatitudeDegrees>
              <LongitudeDegrees>2.7403098531067371368408203125</LongitudeDegrees>
            </Position>
            <AltitudeMeters>1234.5999755859375</AltitudeMeters>
            <DistanceMeters>21639.983692455</DistanceMeters>
          </Trackpoint>
          <Trackpoint>
            <Time>2021-04-01T11:01:10.000Z</Time>
            <Position>
              <LatitudeDegrees>42.4238202162086963653564453125</LatitudeDegrees>
              <LongitudeDegrees>2.74025394581258296966552734375</LongitudeDegrees>
            </Position>
            <AltitudeMeters>1234.800048828125</AltitudeMeters>
            <DistanceMeters>21646.088373076</DistanceMeters>
          </Trackpoint>
          <Trackpoint>
            <Time>2021-04-01T11:01:13.000Z</Time>
            <Position>
              <LatitudeDegrees>42.4238440208137035369873046875</LatitudeDegrees>
              <LongitudeDegrees>2.7402131259441375732421875</LongitudeDegrees>
            </Position>
            <AltitudeMeters>1235</AltitudeMeters>
            <DistanceMeters>21650.36351924</DistanceMeters>
          </Trackpoint>
          <Trackpoint>
            <Time>2021-04-01T11:01:15.000Z</Time>
            <Position>
              <LatitudeDegrees>42.4238611198961734771728515625</LatitudeDegrees>
              <LongitudeDegrees>2.74017867632210254669189453125</LongitudeDegrees>
            </Position>
            <AltitudeMeters>1235</AltitudeMeters>
            <DistanceMeters>21653.773906089</DistanceMeters>
          </Trackpoint>
          <Trackpoint>
            <Time>2021-04-01T11:01:18.000Z</Time>
            <Position>
              <LatitudeDegrees>42.4238768778741359710693359375</LatitudeDegrees>
              <LongitudeDegrees>2.7401499263942241668701171875</LongitudeDegrees>
            </Position>
            <AltitudeMeters>1234.800048828125</AltitudeMeters>
            <DistanceMeters>21656.715132573</DistanceMeters>
          </Trackpoint>
          <Trackpoint>
            <Time>2021-04-01T11:01:23.000Z</Time>
            <Position>
              <LatitudeDegrees>42.42389380931854248046875</LatitudeDegrees>
              <LongitudeDegrees>2.74009653367102146148681640625</LongitudeDegrees>
            </Position>
            <AltitudeMeters>1235</AltitudeMeters>
            <DistanceMeters>21661.489220229</DistanceMeters>
          </Trackpoint>
          <Trackpoint>
            <Time>2021-04-01T11:01:24.000Z</Time>
            <Position>
              <LatitudeDegrees>42.4238959886133670806884765625</LatitudeDegrees>
              <LongitudeDegrees>2.7400771714746952056884765625</LongitudeDegrees>
            </Position>
            <AltitudeMeters>1235</AltitudeMeters>
            <DistanceMeters>21663.09626779</DistanceMeters>
          </Trackpoint>
          <Trackpoint>
            <Time>2021-04-01T11:01:27.000Z</Time>
            <Position>
              <LatitudeDegrees>42.4239040352404117584228515625</LatitudeDegrees>
              <LongitudeDegrees>2.7400396205484867095947265625</LongitudeDegrees>
            </Position>
            <AltitudeMeters>1235.199951171875</AltitudeMeters>
            <DistanceMeters>21666.307552159</DistanceMeters>
          </Trackpoint>
          <Trackpoint>
            <Time>2021-04-01T11:01:30.000Z</Time>
            <Position>
              <LatitudeDegrees>42.4238980002701282501220703125</LatitudeDegrees>
              <LongitudeDegrees>2.7400309033691883087158203125</LongitudeDegrees>
            </Position>
            <AltitudeMeters>1235.199951171875</AltitudeMeters>
            <DistanceMeters>21667.290516136</DistanceMeters>
          </Trackpoint>
          <Trackpoint>
            <Time>2021-04-01T11:01:35.000Z</Time>
            <Position>
              <LatitudeDegrees>42.423886097967624664306640625</LatitudeDegrees>
              <LongitudeDegrees>2.7400282211601734161376953125</LongitudeDegrees>
            </Position>
            <AltitudeMeters>1235.4000244140625</AltitudeMeters>
            <DistanceMeters>21668.631032906</DistanceMeters>
          </Trackpoint>
          <Trackpoint>
            <Time>2021-04-01T11:01:36.000Z</Time>
            <Position>
              <LatitudeDegrees>42.42388534359633922576904296875</LatitudeDegrees>
              <LongitudeDegrees>2.740031071007251739501953125</LongitudeDegrees>
            </Position>
            <AltitudeMeters>1235.5999755859375</AltitudeMeters>
            <DistanceMeters>21668.863799869</DistanceMeters>
          </Trackpoint>
          <Trackpoint>
            <Time>2021-04-01T11:01:43.000Z</Time>
            <Position>
              <LatitudeDegrees>42.4238923005759716033935546875</LatitudeDegrees>
              <LongitudeDegrees>2.7400486730039119720458984375</LongitudeDegrees>
            </Position>
            <AltitudeMeters>1235.4000244140625</AltitudeMeters>
            <DistanceMeters>21670.504215298</DistanceMeters>
          </Trackpoint>
          <Trackpoint>
            <Time>2021-04-01T11:01:45.000Z</Time>
            <Position>
              <LatitudeDegrees>42.4238923005759716033935546875</LatitudeDegrees>
              <LongitudeDegrees>2.7400486730039119720458984375</LongitudeDegrees>
            </Position>
            <AltitudeMeters>1235</AltitudeMeters>
            <DistanceMeters>NAN</DistanceMeters>
          </Trackpoint>
          <Trackpoint>
            <Time>2021-04-01T11:01:52.000Z</Time>
            <Position>
              <LatitudeDegrees>42.4238923005759716033935546875</LatitudeDegrees>
              <LongitudeDegrees>2.7400486730039119720458984375</LongitudeDegrees>
            </Position>
            <AltitudeMeters>1235.199951171875</AltitudeMeters>
            <DistanceMeters>NAN</DistanceMeters>
          </Trackpoint>
          <Trackpoint>
            <Time>2021-04-01T11:01:54.000Z</Time>
            <Position>
              <LatitudeDegrees>42.4238923005759716033935546875</LatitudeDegrees>
              <LongitudeDegrees>2.7400486730039119720458984375</LongitudeDegrees>
            </Position>
            <AltitudeMeters>1235.199951171875</AltitudeMeters>
            <DistanceMeters>NAN</DistanceMeters>
          </Trackpoint>
          <Trackpoint>
            <Time>2021-04-01T11:01:56.000Z</Time>
            <Position>
              <LatitudeDegrees>42.42389305494725704193115234375</LatitudeDegrees>
              <LongitudeDegrees>2.7400486730039119720458984375</LongitudeDegrees>
            </Position>
            <AltitudeMeters>1235</AltitudeMeters>
            <DistanceMeters>NAN</DistanceMeters>
          </Trackpoint>
          <Trackpoint>
            <Time>2021-04-01T11:01:59.000Z</Time>
            <Position>
              <LatitudeDegrees>42.423900179564952850341796875</LatitudeDegrees>
              <LongitudeDegrees>2.7400486730039119720458984375</LongitudeDegrees>
            </Position>
            <AltitudeMeters>1234.800048828125</AltitudeMeters>
            <DistanceMeters>NAN</DistanceMeters>
          </Trackpoint>
          <Trackpoint>
            <Time>2021-04-01T11:02:17.000Z</Time>
            <Position>
              <LatitudeDegrees>42.4239315278828144073486328125</LatitudeDegrees>
              <LongitudeDegrees>2.74008907377719879150390625</LongitudeDegrees>
            </Position>
            <AltitudeMeters>1234</AltitudeMeters>
            <DistanceMeters>NAN</DistanceMeters>
          </Trackpoint>
          <Trackpoint>
            <Time>2021-04-01T11:02:37.000Z</Time>
            <Position>
              <LatitudeDegrees>42.4239788018167018890380859375</LatitudeDegrees>
              <LongitudeDegrees>2.74002327583730220794677734375</LongitudeDegrees>
            </Position>
            <AltitudeMeters>1233.5999755859375</AltitudeMeters>
            <DistanceMeters>NAN</DistanceMeters>
          </Trackpoint>
          <Trackpoint>
            <Time>2021-04-01T11:02:41.000Z</Time>
            <Position>
              <LatitudeDegrees>42.423990033566951751708984375</LatitudeDegrees>
              <LongitudeDegrees>2.7399507723748683929443359375</LongitudeDegrees>
            </Position>
            <AltitudeMeters>1233.4000244140625</AltitudeMeters>
            <DistanceMeters>NAN</DistanceMeters>
          </Trackpoint>
          <Trackpoint>
            <Time>2021-04-01T11:02:44.000Z</Time>
            <Position>
              <LatitudeDegrees>42.42398559115827083587646484375</LatitudeDegrees>
              <LongitudeDegrees>2.7399065159261226654052734375</LongitudeDegrees>
            </Position>
            <AltitudeMeters>1233.199951171875</AltitudeMeters>
            <DistanceMeters>NAN</DistanceMeters>
          </Trackpoint>
          <Trackpoint>
            <Time>2021-04-01T11:02:48.000Z</Time>
            <Position>
              <LatitudeDegrees>42.42396446876227855682373046875</LatitudeDegrees>
              <LongitudeDegrees>2.73986645042896270751953125</LongitudeDegrees>
            </Position>
            <AltitudeMeters>1233.199951171875</AltitudeMeters>
            <DistanceMeters>NAN</DistanceMeters>
          </Trackpoint>
          <Trackpoint>
            <Time>2021-04-01T11:02:50.000Z</Time>
            <Position>
              <LatitudeDegrees>42.4239533208310604095458984375</LatitudeDegrees>
              <LongitudeDegrees>2.73984968662261962890625</LongitudeDegrees>
            </Position>
            <AltitudeMeters>1233.4000244140625</AltitudeMeters>
            <DistanceMeters>NAN</DistanceMeters>
          </Trackpoint>
          <Trackpoint>
            <Time>2021-04-01T11:02:52.000Z</Time>
            <Position>
              <LatitudeDegrees>42.42394519038498401641845703125</LatitudeDegrees>
              <LongitudeDegrees>2.739839963614940643310546875</LongitudeDegrees>
            </Position>
            <AltitudeMeters>1233.5999755859375</AltitudeMeters>
            <DistanceMeters>NAN</DistanceMeters>
          </Trackpoint>
          <Trackpoint>
            <Time>2021-04-01T11:02:58.000Z</Time>
            <Position>
              <LatitudeDegrees>42.42394435219466686248779296875</LatitudeDegrees>
              <LongitudeDegrees>2.73980073630809783935546875</LongitudeDegrees>
            </Position>
            <AltitudeMeters>1235</AltitudeMeters>
            <DistanceMeters>NAN</DistanceMeters>
          </Trackpoint>
          <Trackpoint>
            <Time>2021-04-01T11:03:04.000Z</Time>
            <Position>
              <LatitudeDegrees>42.42394569329917430877685546875</LatitudeDegrees>
              <LongitudeDegrees>2.7397546358406543731689453125</LongitudeDegrees>
            </Position>
            <AltitudeMeters>1235.5999755859375</AltitudeMeters>
            <DistanceMeters>NAN</DistanceMeters>
          </Trackpoint>
          <Trackpoint>
            <Time>2021-04-01T11:03:05.000Z</Time>
            <Position>
              <LatitudeDegrees>42.423943765461444854736328125</LatitudeDegrees>
              <LongitudeDegrees>2.7397475950419902801513671875</LongitudeDegrees>
            </Position>
            <AltitudeMeters>1235.800048828125</AltitudeMeters>
            <DistanceMeters>NAN</DistanceMeters>
          </Trackpoint>
          <Trackpoint>
            <Time>2021-04-01T11:03:08.000Z</Time>
            <Position>
              <LatitudeDegrees>42.42393814958631992340087890625</LatitudeDegrees>
              <LongitudeDegrees>2.73973929695785045623779296875</LongitudeDegrees>
            </Position>
            <AltitudeMeters>1236.199951171875</AltitudeMeters>
            <DistanceMeters>NAN</DistanceMeters>
          </Trackpoint>
          <Trackpoint>
            <Time>2021-04-01T11:03:11.000Z</Time>
            <Position>
              <LatitudeDegrees>42.42392892949283123016357421875</LatitudeDegrees>
              <LongitudeDegrees>2.73972102440893650054931640625</LongitudeDegrees>
            </Position>
            <AltitudeMeters>1236.5999755859375</AltitudeMeters>
            <DistanceMeters>NAN</DistanceMeters>
          </Trackpoint>
          <Trackpoint>
            <Time>2021-04-01T11:03:12.000Z</Time>
            <Position>
              <LatitudeDegrees>42.42392457090318202972412109375</LatitudeDegrees>
              <LongitudeDegrees>2.7397194318473339080810546875</LongitudeDegrees>
            </Position>
            <AltitudeMeters>1236.800048828125</AltitudeMeters>
            <DistanceMeters>NAN</DistanceMeters>
          </Trackpoint>
          <Trackpoint>
            <Time>2021-04-01T11:03:14.000Z</Time>
            <Position>
              <LatitudeDegrees>42.4239291809499263763427734375</LatitudeDegrees>
              <LongitudeDegrees>2.739717923104763031005859375</LongitudeDegrees>
            </Position>
            <AltitudeMeters>1236.800048828125</AltitudeMeters>
            <DistanceMeters>NAN</DistanceMeters>
          </Trackpoint>
          <Trackpoint>
            <Time>2021-04-01T11:03:18.000Z</Time>
            <Position>
              <LatitudeDegrees>42.4239298515021800994873046875</LatitudeDegrees>
              <LongitudeDegrees>2.73968732915818691253662109375</LongitudeDegrees>
            </Position>
            <AltitudeMeters>1236.800048828125</AltitudeMeters>
            <DistanceMeters>NAN</DistanceMeters>
          </Trackpoint>
          <Trackpoint>
            <Time>2021-04-01T11:03:24.000Z</Time>
            <Position>
              <LatitudeDegrees>42.42392172105610370635986328125</LatitudeDegrees>
              <LongitudeDegrees>2.73963653482496738433837890625</LongitudeDegrees>
            </Position>
            <AltitudeMeters>1237.199951171875</AltitudeMeters>
            <DistanceMeters>NAN</DistanceMeters>
          </Trackpoint>
          <Trackpoint>
            <Time>2021-04-01T11:03:25.000Z</Time>
            <Position>
              <LatitudeDegrees>42.42392021231353282928466796875</LatitudeDegrees>
              <LongitudeDegrees>2.7396364510059356689453125</LongitudeDegrees>
            </Position>
            <AltitudeMeters>1237.4000244140625</AltitudeMeters>
            <DistanceMeters>NAN</DistanceMeters>
          </Trackpoint>
          <Trackpoint>
            <Time>2021-04-01T11:03:30.000Z</Time>
            <Position>
              <LatitudeDegrees>42.42392540909349918365478515625</LatitudeDegrees>
              <LongitudeDegrees>2.739615999162197113037109375</LongitudeDegrees>
            </Position>
            <AltitudeMeters>1238.4000244140625</AltitudeMeters>
            <DistanceMeters>NAN</DistanceMeters>
          </Trackpoint>
          <Trackpoint>
            <Time>2021-04-01T11:03:33.000Z</Time>
            <Position>
              <LatitudeDegrees>42.42393328808248043060302734375</LatitudeDegrees>
              <LongitudeDegrees>2.739599905908107757568359375</LongitudeDegrees>
            </Position>
            <AltitudeMeters>1238.5999755859375</AltitudeMeters>
            <DistanceMeters>NAN</DistanceMeters>
          </Trackpoint>
          <Trackpoint>
            <Time>2021-04-01T11:03:37.000Z</Time>
            <Position>
              <LatitudeDegrees>42.42395575158298015594482421875</LatitudeDegrees>
              <LongitudeDegrees>2.73958339355885982513427734375</LongitudeDegrees>
            </Position>
            <AltitudeMeters>1239.199951171875</AltitudeMeters>
            <DistanceMeters>NAN</DistanceMeters>
          </Trackpoint>
          <Trackpoint>
            <Time>2021-04-01T11:03:38.000Z</Time>
            <Position>
              <LatitudeDegrees>42.42395751178264617919921875</LatitudeDegrees>
              <LongitudeDegrees>2.7395789511501789093017578125</LongitudeDegrees>
            </Position>
            <AltitudeMeters>1239.4000244140625</AltitudeMeters>
            <DistanceMeters>NAN</DistanceMeters>
          </Trackpoint>
          <Trackpoint>
            <Time>2021-04-01T11:03:41.000Z</Time>
            <Position>
              <LatitudeDegrees>42.42395239882171154022216796875</LatitudeDegrees>
              <LongitudeDegrees>2.73957333527505397796630859375</LongitudeDegrees>
            </Position>
            <AltitudeMeters>1240</AltitudeMeters>
            <DistanceMeters>NAN</DistanceMeters>
          </Trackpoint>
          <Trackpoint>
            <Time>2021-04-01T11:03:42.000Z</Time>
            <Position>
              <LatitudeDegrees>42.42395390756428241729736328125</LatitudeDegrees>
              <LongitudeDegrees>2.7395672164857387542724609375</LongitudeDegrees>
            </Position>
            <AltitudeMeters>1240.4000244140625</AltitudeMeters>
            <DistanceMeters>NAN</DistanceMeters>
          </Trackpoint>
          <Trackpoint>
            <Time>2021-04-01T11:03:43.000Z</Time>
            <Position>
              <LatitudeDegrees>42.4239529855549335479736328125</LatitudeDegrees>
              <LongitudeDegrees>2.73955757729709148406982421875</LongitudeDegrees>
            </Position>
            <AltitudeMeters>1240.4000244140625</AltitudeMeters>
            <DistanceMeters>NAN</DistanceMeters>
          </Trackpoint>
          <Trackpoint>
            <Time>2021-04-01T11:03:49.000Z</Time>
            <Position>
              <LatitudeDegrees>42.42393798194825649261474609375</LatitudeDegrees>
              <LongitudeDegrees>2.73954416625201702117919921875</LongitudeDegrees>
            </Position>
            <AltitudeMeters>1241.5999755859375</AltitudeMeters>
            <DistanceMeters>NAN</DistanceMeters>
          </Trackpoint>
          <Trackpoint>
            <Time>2021-04-01T11:03:53.000Z</Time>
            <Position>
              <LatitudeDegrees>42.42392892949283123016357421875</LatitudeDegrees>
              <LongitudeDegrees>2.73950879462063312530517578125</LongitudeDegrees>
            </Position>
            <AltitudeMeters>1242</AltitudeMeters>
            <DistanceMeters>NAN</DistanceMeters>
          </Trackpoint>
          <Trackpoint>
            <Time>2021-04-01T11:03:57.000Z</Time>
            <Position>
              <LatitudeDegrees>42.423932366073131561279296875</LatitudeDegrees>
              <LongitudeDegrees>2.73948197253048419952392578125</LongitudeDegrees>
            </Position>
            <AltitudeMeters>1242.199951171875</AltitudeMeters>
            <DistanceMeters>NAN</DistanceMeters>
          </Trackpoint>
          <Trackpoint>
            <Time>2021-04-01T11:04:00.000Z</Time>
            <Position>
              <LatitudeDegrees>42.42393203079700469970703125</LatitudeDegrees>
              <LongitudeDegrees>2.73947224952280521392822265625</LongitudeDegrees>
            </Position>
            <AltitudeMeters>1242.800048828125</AltitudeMeters>
            <DistanceMeters>NAN</DistanceMeters>
          </Trackpoint>
          <Trackpoint>
            <Time>2021-04-01T11:04:05.000Z</Time>
            <Position>
              <LatitudeDegrees>42.42393060587346553802490234375</LatitudeDegrees>
              <LongitudeDegrees>2.7394243888556957244873046875</LongitudeDegrees>
            </Position>
            <AltitudeMeters>1243.5999755859375</AltitudeMeters>
            <DistanceMeters>NAN</DistanceMeters>
          </Trackpoint>
          <Trackpoint>
            <Time>2021-04-01T11:04:06.000Z</Time>
            <Position>
              <LatitudeDegrees>42.423931695520877838134765625</LatitudeDegrees>
              <LongitudeDegrees>2.73941458202898502349853515625</LongitudeDegrees>
            </Position>
            <AltitudeMeters>1243.800048828125</AltitudeMeters>
            <DistanceMeters>NAN</DistanceMeters>
          </Trackpoint>
          <Trackpoint>
            <Time>2021-04-01T11:04:14.000Z</Time>
            <Position>
              <LatitudeDegrees>42.4239315278828144073486328125</LatitudeDegrees>
              <LongitudeDegrees>2.73937426507472991943359375</LongitudeDegrees>
            </Position>
            <AltitudeMeters>1244.800048828125</AltitudeMeters>
            <DistanceMeters>NAN</DistanceMeters>
          </Trackpoint>
          <Trackpoint>
            <Time>2021-04-01T11:04:15.000Z</Time>
            <Position>
              <LatitudeDegrees>42.42393060587346553802490234375</LatitudeDegrees>
              <LongitudeDegrees>2.73937049321830272674560546875</LongitudeDegrees>
            </Position>
            <AltitudeMeters>1245</AltitudeMeters>
            <DistanceMeters>NAN</DistanceMeters>
          </Trackpoint>
          <Trackpoint>
            <Time>2021-04-01T11:04:20.000Z</Time>
            <Position>
              <LatitudeDegrees>42.423934377729892730712890625</LatitudeDegrees>
              <LongitudeDegrees>2.73933780379593372344970703125</LongitudeDegrees>
            </Position>
            <AltitudeMeters>1245.4000244140625</AltitudeMeters>
            <DistanceMeters>NAN</DistanceMeters>
          </Trackpoint>
          <Trackpoint>
            <Time>2021-04-01T11:04:24.000Z</Time>
            <Position>
              <LatitudeDegrees>42.4239425919950008392333984375</LatitudeDegrees>
              <LongitudeDegrees>2.73931684903800487518310546875</LongitudeDegrees>
            </Position>
            <AltitudeMeters>1246</AltitudeMeters>
            <DistanceMeters>NAN</DistanceMeters>
          </Trackpoint>
          <Trackpoint>
            <Time>2021-04-01T11:04:28.000Z</Time>
            <Position>
              <LatitudeDegrees>42.423955835402011871337890625</LatitudeDegrees>
              <LongitudeDegrees>2.73931014351546764373779296875</LongitudeDegrees>
            </Position>
            <AltitudeMeters>1246.800048828125</AltitudeMeters>
            <DistanceMeters>NAN</DistanceMeters>
          </Trackpoint>
          <Trackpoint>
            <Time>2021-04-01T11:04:30.000Z</Time>
            <Position>
              <LatitudeDegrees>42.4239543266594409942626953125</LatitudeDegrees>
              <LongitudeDegrees>2.73930561728775501251220703125</LongitudeDegrees>
            </Position>
            <AltitudeMeters>1247.199951171875</AltitudeMeters>
            <DistanceMeters>NAN</DistanceMeters>
          </Trackpoint>
          <Trackpoint>
            <Time>2021-04-01T11:04:34.000Z</Time>
            <Position>
              <LatitudeDegrees>42.4239620380103588104248046875</LatitudeDegrees>
              <LongitudeDegrees>2.73929405026137828826904296875</LongitudeDegrees>
            </Position>
            <AltitudeMeters>1247.4000244140625</AltitudeMeters>
            <DistanceMeters>NAN</DistanceMeters>
          </Trackpoint>
          <Trackpoint>
            <Time>2021-04-01T11:04:39.000Z</Time>
            <Position>
              <LatitudeDegrees>42.42395876906812191009521484375</LatitudeDegrees>
              <LongitudeDegrees>2.73926940746605396270751953125</LongitudeDegrees>
            </Position>
            <AltitudeMeters>1247.800048828125</AltitudeMeters>
            <DistanceMeters>NAN</DistanceMeters>
          </Trackpoint>
          <Trackpoint>
            <Time>2021-04-01T11:04:42.000Z</Time>
            <Position>
              <LatitudeDegrees>42.42396824061870574951171875</LatitudeDegrees>
              <LongitudeDegrees>2.7392584271728992462158203125</LongitudeDegrees>
            </Position>
            <AltitudeMeters>1248</AltitudeMeters>
            <DistanceMeters>NAN</DistanceMeters>
          </Trackpoint>
          <Trackpoint>
            <Time>2021-04-01T11:04:43.000Z</Time>
            <Position>
              <LatitudeDegrees>42.4239700846374034881591796875</LatitudeDegrees>
              <LongitudeDegrees>2.73926119320094585418701171875</LongitudeDegrees>
            </Position>
            <AltitudeMeters>1248</AltitudeMeters>
            <DistanceMeters>NAN</DistanceMeters>
          </Trackpoint>
          <Trackpoint>
            <Time>2021-04-01T11:04:45.000Z</Time>
            <Position>
              <LatitudeDegrees>42.42397687397897243499755859375</LatitudeDegrees>
              <LongitudeDegrees>2.73925934918224811553955078125</LongitudeDegrees>
            </Position>
            <AltitudeMeters>1248.4000244140625</AltitudeMeters>
            <DistanceMeters>NAN</DistanceMeters>
          </Trackpoint>
          <Trackpoint>
            <Time>2021-04-01T11:04:49.000Z</Time>
            <Position>
              <LatitudeDegrees>42.4239999242126941680908203125</LatitudeDegrees>
              <LongitudeDegrees>2.73920570500195026397705078125</LongitudeDegrees>
            </Position>
            <AltitudeMeters>1249</AltitudeMeters>
            <DistanceMeters>NAN</DistanceMeters>
          </Trackpoint>
          <Trackpoint>
            <Time>2021-04-01T11:04:54.000Z</Time>
            <Position>
              <LatitudeDegrees>42.42398441769182682037353515625</LatitudeDegrees>
              <LongitudeDegrees>2.73916773498058319091796875</LongitudeDegrees>
            </Position>
            <AltitudeMeters>1249.4000244140625</AltitudeMeters>
            <DistanceMeters>NAN</DistanceMeters>
          </Trackpoint>
          <Trackpoint>
            <Time>2021-04-01T11:04:58.000Z</Time>
            <Position>
              <LatitudeDegrees>42.4240024387836456298828125</LatitudeDegrees>
              <LongitudeDegrees>2.73915968835353851318359375</LongitudeDegrees>
            </Position>
            <AltitudeMeters>1250</AltitudeMeters>
            <DistanceMeters>NAN</DistanceMeters>
          </Trackpoint>
          <Trackpoint>
            <Time>2021-04-01T11:05:03.000Z</Time>
            <Position>
              <LatitudeDegrees>42.4240042828023433685302734375</LatitudeDegrees>
              <LongitudeDegrees>2.73912205360829830169677734375</LongitudeDegrees>
            </Position>
            <AltitudeMeters>1250.4000244140625</AltitudeMeters>
            <DistanceMeters>NAN</DistanceMeters>
          </Trackpoint>
          <Trackpoint>
            <Time>2021-04-01T11:05:05.000Z</Time>
            <Position>
              <LatitudeDegrees>42.4240238964557647705078125</LatitudeDegrees>
              <LongitudeDegrees>2.7391129173338413238525390625</LongitudeDegrees>
            </Position>
            <AltitudeMeters>1250.5999755859375</AltitudeMeters>
            <DistanceMeters>NAN</DistanceMeters>
          </Trackpoint>
          <Trackpoint>
            <Time>2021-04-01T11:05:06.000Z</Time>
            <Position>
              <LatitudeDegrees>42.42403135634958744049072265625</LatitudeDegrees>
              <LongitudeDegrees>2.73910847492516040802001953125</LongitudeDegrees>
            </Position>
            <AltitudeMeters>1250.800048828125</AltitudeMeters>
            <DistanceMeters>NAN</DistanceMeters>
          </Trackpoint>
          <Trackpoint>
            <Time>2021-04-01T11:05:09.000Z</Time>
            <Position>
              <LatitudeDegrees>42.4240351282060146331787109375</LatitudeDegrees>
              <LongitudeDegrees>2.7391028590500354766845703125</LongitudeDegrees>
            </Position>
            <AltitudeMeters>1251.4000244140625</AltitudeMeters>
            <DistanceMeters>NAN</DistanceMeters>
          </Trackpoint>
          <Trackpoint>
            <Time>2021-04-01T11:05:10.000Z</Time>
            <Position>
              <LatitudeDegrees>42.4240327812731266021728515625</LatitudeDegrees>
              <LongitudeDegrees>2.7390968240797519683837890625</LongitudeDegrees>
            </Position>
            <AltitudeMeters>1251.4000244140625</AltitudeMeters>
            <DistanceMeters>NAN</DistanceMeters>
          </Trackpoint>
          <Trackpoint>
            <Time>2021-04-01T11:05:12.000Z</Time>
            <Position>
              <LatitudeDegrees>42.4240368045866489410400390625</LatitudeDegrees>
              <LongitudeDegrees>2.73908332921564579010009765625</LongitudeDegrees>
            </Position>
            <AltitudeMeters>1251.5999755859375</AltitudeMeters>
            <DistanceMeters>NAN</DistanceMeters>
          </Trackpoint>
          <Trackpoint>
            <Time>2021-04-01T11:05:15.000Z</Time>
            <Position>
              <LatitudeDegrees>42.424041330814361572265625</LatitudeDegrees>
              <LongitudeDegrees>2.73907192982733249664306640625</LongitudeDegrees>
            </Position>
            <AltitudeMeters>1251.800048828125</AltitudeMeters>
            <DistanceMeters>NAN</DistanceMeters>
          </Trackpoint>
          <Trackpoint>
            <Time>2021-04-01T11:05:18.000Z</Time>
            <Position>
              <LatitudeDegrees>42.42404962889850139617919921875</LatitudeDegrees>
              <LongitudeDegrees>2.73905784823000431060791015625</LongitudeDegrees>
            </Position>
            <AltitudeMeters>1252.199951171875</AltitudeMeters>
            <DistanceMeters>NAN</DistanceMeters>
          </Trackpoint>
          <Trackpoint>
            <Time>2021-04-01T11:05:20.000Z</Time>
            <Position>
              <LatitudeDegrees>42.42404728196561336517333984375</LatitudeDegrees>
              <LongitudeDegrees>2.739056088030338287353515625</LongitudeDegrees>
            </Position>
            <AltitudeMeters>1252.199951171875</AltitudeMeters>
            <DistanceMeters>NAN</DistanceMeters>
          </Trackpoint>
          <Trackpoint>
            <Time>2021-04-01T11:05:21.000Z</Time>
            <Position>
              <LatitudeDegrees>42.42404594086110591888427734375</LatitudeDegrees>
              <LongitudeDegrees>2.73905281908810138702392578125</LongitudeDegrees>
            </Position>
            <AltitudeMeters>1252.4000244140625</AltitudeMeters>
            <DistanceMeters>NAN</DistanceMeters>
          </Trackpoint>
          <Trackpoint>
            <Time>2021-04-01T11:05:22.000Z</Time>
            <Position>
              <LatitudeDegrees>42.424047701060771942138671875</LatitudeDegrees>
              <LongitudeDegrees>2.73904980160295963287353515625</LongitudeDegrees>
            </Position>
            <AltitudeMeters>1252.5999755859375</AltitudeMeters>
            <DistanceMeters>NAN</DistanceMeters>
          </Trackpoint>
          <Trackpoint>
            <Time>2021-04-01T11:05:27.000Z</Time>
            <Position>
              <LatitudeDegrees>42.42405901663005352020263671875</LatitudeDegrees>
              <LongitudeDegrees>2.73905617184937000274658203125</LongitudeDegrees>
            </Position>
            <AltitudeMeters>1254</AltitudeMeters>
            <DistanceMeters>NAN</DistanceMeters>
          </Trackpoint>
          <Trackpoint>
            <Time>2021-04-01T11:05:29.000Z</Time>
            <Position>
              <LatitudeDegrees>42.4240565858781337738037109375</LatitudeDegrees>
              <LongitudeDegrees>2.73906446993350982666015625</LongitudeDegrees>
            </Position>
            <AltitudeMeters>1255</AltitudeMeters>
            <DistanceMeters>NAN</DistanceMeters>
          </Trackpoint>
          <Trackpoint>
            <Time>2021-04-01T11:05:30.000Z</Time>
            <Position>
              <LatitudeDegrees>42.4240495450794696807861328125</LatitudeDegrees>
              <LongitudeDegrees>2.7390622906386852264404296875</LongitudeDegrees>
            </Position>
            <AltitudeMeters>1255.199951171875</AltitudeMeters>
            <DistanceMeters>NAN</DistanceMeters>
          </Trackpoint>
          <Trackpoint>
            <Time>2021-04-01T11:05:32.000Z</Time>
            <Position>
              <LatitudeDegrees>42.42404392920434474945068359375</LatitudeDegrees>
              <LongitudeDegrees>2.73908031173050403594970703125</LongitudeDegrees>
            </Position>
            <AltitudeMeters>1255.5999755859375</AltitudeMeters>
            <DistanceMeters>NAN</DistanceMeters>
          </Trackpoint>
          <Trackpoint>
            <Time>2021-04-01T11:05:36.000Z</Time>
            <Position>
              <LatitudeDegrees>42.42403957061469554901123046875</LatitudeDegrees>
              <LongitudeDegrees>2.739101685583591461181640625</LongitudeDegrees>
            </Position>
            <AltitudeMeters>1256.199951171875</AltitudeMeters>
            <DistanceMeters>NAN</DistanceMeters>
          </Trackpoint>
          <Trackpoint>
            <Time>2021-04-01T11:05:38.000Z</Time>
            <Position>
              <LatitudeDegrees>42.42402800358831882476806640625</LatitudeDegrees>
              <LongitudeDegrees>2.739121802151203155517578125</LongitudeDegrees>
            </Position>
            <AltitudeMeters>1256.4000244140625</AltitudeMeters>
            <DistanceMeters>NAN</DistanceMeters>
          </Trackpoint>
          <Trackpoint>
            <Time>2021-04-01T11:05:46.000Z</Time>
            <Position>
              <LatitudeDegrees>42.4240093119442462921142578125</LatitudeDegrees>
              <LongitudeDegrees>2.739149630069732666015625</LongitudeDegrees>
            </Position>
            <AltitudeMeters>1257</AltitudeMeters>
            <DistanceMeters>NAN</DistanceMeters>
          </Trackpoint>
          <Trackpoint>
            <Time>2021-04-01T11:05:51.000Z</Time>
            <Position>
              <LatitudeDegrees>42.42399129085242748260498046875</LatitudeDegrees>
              <LongitudeDegrees>2.73913211189210414886474609375</LongitudeDegrees>
            </Position>
            <AltitudeMeters>1257.199951171875</AltitudeMeters>
            <DistanceMeters>NAN</DistanceMeters>
          </Trackpoint>
          <Trackpoint>
            <Time>2021-04-01T11:05:53.000Z</Time>
            <Position>
              <LatitudeDegrees>42.4239861778914928436279296875</LatitudeDegrees>
              <LongitudeDegrees>2.73912641219794750213623046875</LongitudeDegrees>
            </Position>
            <AltitudeMeters>1257.4000244140625</AltitudeMeters>
            <DistanceMeters>NAN</DistanceMeters>
          </Trackpoint>
          <Trackpoint>
            <Time>2021-04-01T11:05:54.000Z</Time>
            <Position>
              <LatitudeDegrees>42.42398274131119251251220703125</LatitudeDegrees>
              <LongitudeDegrees>2.73912976495921611785888671875</LongitudeDegrees>
            </Position>
            <AltitudeMeters>1257.5999755859375</AltitudeMeters>
            <DistanceMeters>NAN</DistanceMeters>
          </Trackpoint>
          <Trackpoint>
            <Time>2021-04-01T11:05:59.000Z</Time>
            <Position>
              <LatitudeDegrees>42.4239674024283885955810546875</LatitudeDegrees>
              <LongitudeDegrees>2.7391249872744083404541015625</LongitudeDegrees>
            </Position>
            <AltitudeMeters>1258.4000244140625</AltitudeMeters>
            <DistanceMeters>NAN</DistanceMeters>
          </Trackpoint>
          <Trackpoint>
            <Time>2021-04-01T11:06:02.000Z</Time>
            <Position>
              <LatitudeDegrees>42.42395776323974132537841796875</LatitudeDegrees>
              <LongitudeDegrees>2.7391216345131397247314453125</LongitudeDegrees>
            </Position>
            <AltitudeMeters>1259</AltitudeMeters>
            <DistanceMeters>NAN</DistanceMeters>
          </Trackpoint>
          <Trackpoint>
            <Time>2021-04-01T11:06:09.000Z</Time>
            <Position>
              <LatitudeDegrees>42.4239224754273891448974609375</LatitudeDegrees>
              <LongitudeDegrees>2.73907830007374286651611328125</LongitudeDegrees>
            </Position>
            <AltitudeMeters>1259</AltitudeMeters>
            <DistanceMeters>NAN</DistanceMeters>
          </Trackpoint>
          <Trackpoint>
            <Time>2021-04-01T11:06:15.000Z</Time>
            <Position>
              <LatitudeDegrees>42.42391652427613735198974609375</LatitudeDegrees>
              <LongitudeDegrees>2.73906807415187358856201171875</LongitudeDegrees>
            </Position>
            <AltitudeMeters>1259.800048828125</AltitudeMeters>
            <DistanceMeters>NAN</DistanceMeters>
          </Trackpoint>
          <Trackpoint>
            <Time>2021-04-01T11:06:20.000Z</Time>
            <Position>
              <LatitudeDegrees>42.42387981154024600982666015625</LatitudeDegrees>
              <LongitudeDegrees>2.73906958289444446563720703125</LongitudeDegrees>
            </Position>
            <AltitudeMeters>1260.4000244140625</AltitudeMeters>
            <DistanceMeters>NAN</DistanceMeters>
          </Trackpoint>
          <Trackpoint>
            <Time>2021-04-01T11:06:23.000Z</Time>
            <Position>
              <LatitudeDegrees>42.423854582011699676513671875</LatitudeDegrees>
              <LongitudeDegrees>2.7390636317431926727294921875</LongitudeDegrees>
            </Position>
            <AltitudeMeters>1260.5999755859375</AltitudeMeters>
            <DistanceMeters>NAN</DistanceMeters>
          </Trackpoint>
          <Trackpoint>
            <Time>2021-04-01T11:06:27.000Z</Time>
            <Position>
              <LatitudeDegrees>42.4238383211195468902587890625</LatitudeDegrees>
              <LongitudeDegrees>2.73908081464469432830810546875</LongitudeDegrees>
            </Position>
            <AltitudeMeters>1260.800048828125</AltitudeMeters>
            <DistanceMeters>NAN</DistanceMeters>
          </Trackpoint>
          <Trackpoint>
            <Time>2021-04-01T11:06:28.000Z</Time>
            <Position>
              <LatitudeDegrees>42.42383270524442195892333984375</LatitudeDegrees>
              <LongitudeDegrees>2.73907813243567943572998046875</LongitudeDegrees>
            </Position>
            <AltitudeMeters>1261</AltitudeMeters>
            <DistanceMeters>NAN</DistanceMeters>
          </Trackpoint>
          <Trackpoint>
            <Time>2021-04-01T11:06:32.000Z</Time>
            <Position>
              <LatitudeDegrees>42.42382030002772808074951171875</LatitudeDegrees>
              <LongitudeDegrees>2.73907184600830078125</LongitudeDegrees>
            </Position>
            <AltitudeMeters>1261</AltitudeMeters>
            <DistanceMeters>NAN</DistanceMeters>
          </Trackpoint>
          <Trackpoint>
            <Time>2021-04-01T11:06:34.000Z</Time>
            <Position>
              <LatitudeDegrees>42.42380973882973194122314453125</LatitudeDegrees>
              <LongitudeDegrees>2.73906849324703216552734375</LongitudeDegrees>
            </Position>
            <AltitudeMeters>1261.800048828125</AltitudeMeters>
            <DistanceMeters>NAN</DistanceMeters>
          </Trackpoint>
          <Trackpoint>
            <Time>2021-04-01T11:06:35.000Z</Time>
            <Position>
              <LatitudeDegrees>42.42380722425878047943115234375</LatitudeDegrees>
              <LongitudeDegrees>2.73906555958092212677001953125</LongitudeDegrees>
            </Position>
            <AltitudeMeters>1262</AltitudeMeters>
            <DistanceMeters>NAN</DistanceMeters>
          </Trackpoint>
          <Trackpoint>
            <Time>2021-04-01T11:06:38.000Z</Time>
            <Position>
              <LatitudeDegrees>42.4237984232604503631591796875</LatitudeDegrees>
              <LongitudeDegrees>2.7390517294406890869140625</LongitudeDegrees>
            </Position>
            <AltitudeMeters>1263</AltitudeMeters>
            <DistanceMeters>NAN</DistanceMeters>
          </Trackpoint>
          <Trackpoint>
            <Time>2021-04-01T11:06:41.000Z</Time>
            <Position>
              <LatitudeDegrees>42.42379297502338886260986328125</LatitudeDegrees>
              <LongitudeDegrees>2.73903102613985538482666015625</LongitudeDegrees>
            </Position>
            <AltitudeMeters>1263</AltitudeMeters>
            <DistanceMeters>NAN</DistanceMeters>
          </Trackpoint>
          <Trackpoint>
            <Time>2021-04-01T11:06:42.000Z</Time>
            <Position>
              <LatitudeDegrees>42.42378727532923221588134765625</LatitudeDegrees>
              <LongitudeDegrees>2.73902515880763530731201171875</LongitudeDegrees>
            </Position>
            <AltitudeMeters>1263</AltitudeMeters>
            <DistanceMeters>NAN</DistanceMeters>
          </Trackpoint>
          <Trackpoint>
            <Time>2021-04-01T11:06:44.000Z</Time>
            <Position>
              <LatitudeDegrees>42.423774115741252899169921875</LatitudeDegrees>
              <LongitudeDegrees>2.739017195999622344970703125</LongitudeDegrees>
            </Position>
            <AltitudeMeters>1263.199951171875</AltitudeMeters>
            <DistanceMeters>NAN</DistanceMeters>
          </Trackpoint>
          <Trackpoint>
            <Time>2021-04-01T11:06:51.000Z</Time>
            <Position>
              <LatitudeDegrees>42.42374989204108715057373046875</LatitudeDegrees>
              <LongitudeDegrees>2.7389533258974552154541015625</LongitudeDegrees>
            </Position>
            <AltitudeMeters>1264</AltitudeMeters>
            <DistanceMeters>NAN</DistanceMeters>
          </Trackpoint>
          <Trackpoint>
            <Time>2021-04-01T11:06:52.000Z</Time>
            <Position>
              <LatitudeDegrees>42.423749975860118865966796875</LatitudeDegrees>
              <LongitudeDegrees>2.7389471232891082763671875</LongitudeDegrees>
            </Position>
            <AltitudeMeters>1264</AltitudeMeters>
            <DistanceMeters>NAN</DistanceMeters>
          </Trackpoint>
          <Trackpoint>
            <Time>2021-04-01T11:06:58.000Z</Time>
            <Position>
              <LatitudeDegrees>42.42376531474292278289794921875</LatitudeDegrees>
              <LongitudeDegrees>2.738937400281429290771484375</LongitudeDegrees>
            </Position>
            <AltitudeMeters>1265</AltitudeMeters>
            <DistanceMeters>NAN</DistanceMeters>
          </Trackpoint>
          <Trackpoint>
            <Time>2021-04-01T11:06:59.000Z</Time>
            <Position>
              <LatitudeDegrees>42.4237558431923389434814453125</LatitudeDegrees>
              <LongitudeDegrees>2.73892926983535289764404296875</LongitudeDegrees>
            </Position>
            <AltitudeMeters>1265.199951171875</AltitudeMeters>
            <DistanceMeters>NAN</DistanceMeters>
          </Trackpoint>
          <Trackpoint>
            <Time>2021-04-01T11:07:05.000Z</Time>
            <Position>
              <LatitudeDegrees>42.42372340522706508636474609375</LatitudeDegrees>
              <LongitudeDegrees>2.7388809062540531158447265625</LongitudeDegrees>
            </Position>
            <AltitudeMeters>1266.4000244140625</AltitudeMeters>
            <DistanceMeters>NAN</DistanceMeters>
          </Trackpoint>
          <Trackpoint>
            <Time>2021-04-01T11:07:06.000Z</Time>
            <Position>
              <LatitudeDegrees>42.4237179569900035858154296875</LatitudeDegrees>
              <LongitudeDegrees>2.73886690847575664520263671875</LongitudeDegrees>
            </Position>
            <AltitudeMeters>1266.800048828125</AltitudeMeters>
            <DistanceMeters>NAN</DistanceMeters>
          </Trackpoint>
          <Trackpoint>
            <Time>2021-04-01T11:07:14.000Z</Time>
            <Position>
              <LatitudeDegrees>42.423684597015380859375</LatitudeDegrees>
              <LongitudeDegrees>2.738828100264072418212890625</LongitudeDegrees>
            </Position>
            <AltitudeMeters>1267.5999755859375</AltitudeMeters>
            <DistanceMeters>NAN</DistanceMeters>
          </Trackpoint>
          <Trackpoint>
            <Time>2021-04-01T11:07:18.000Z</Time>
            <Position>
              <LatitudeDegrees>42.42370010353624820709228515625</LatitudeDegrees>
              <LongitudeDegrees>2.73878895677626132965087890625</LongitudeDegrees>
            </Position>
            <AltitudeMeters>1268.800048828125</AltitudeMeters>
            <DistanceMeters>NAN</DistanceMeters>
          </Trackpoint>
          <Trackpoint>
            <Time>2021-04-01T11:07:21.000Z</Time>
            <Position>
              <LatitudeDegrees>42.42369272746145725250244140625</LatitudeDegrees>
              <LongitudeDegrees>2.73875526152551174163818359375</LongitudeDegrees>
            </Position>
            <AltitudeMeters>1269.4000244140625</AltitudeMeters>
            <DistanceMeters>NAN</DistanceMeters>
          </Trackpoint>
          <Trackpoint>
            <Time>2021-04-01T11:07:26.000Z</Time>
            <Position>
              <LatitudeDegrees>42.42370177991688251495361328125</LatitudeDegrees>
              <LongitudeDegrees>2.73877252824604511260986328125</LongitudeDegrees>
            </Position>
            <AltitudeMeters>1270</AltitudeMeters>
            <DistanceMeters>NAN</DistanceMeters>
          </Trackpoint>
          <Trackpoint>
            <Time>2021-04-01T11:07:27.000Z</Time>
            <Position>
              <LatitudeDegrees>42.42370312102138996124267578125</LatitudeDegrees>
              <LongitudeDegrees>2.738767080008983612060546875</LongitudeDegrees>
            </Position>
            <AltitudeMeters>1270</AltitudeMeters>
            <DistanceMeters>NAN</DistanceMeters>
          </Trackpoint>
          <Trackpoint>
            <Time>2021-04-01T11:07:30.000Z</Time>
            <Position>
              <LatitudeDegrees>42.42370060645043849945068359375</LatitudeDegrees>
              <LongitudeDegrees>2.7387628890573978424072265625</LongitudeDegrees>
            </Position>
            <AltitudeMeters>1270</AltitudeMeters>
            <DistanceMeters>NAN</DistanceMeters>
          </Trackpoint>
          <Trackpoint>
            <Time>2021-04-01T11:07:33.000Z</Time>
            <Position>
              <LatitudeDegrees>42.4237008579075336456298828125</LatitudeDegrees>
              <LongitudeDegrees>2.73875710554420948028564453125</LongitudeDegrees>
            </Position>
            <AltitudeMeters>1270.199951171875</AltitudeMeters>
            <DistanceMeters>NAN</DistanceMeters>
          </Trackpoint>
          <Trackpoint>
            <Time>2021-04-01T11:07:36.000Z</Time>
            <Position>
              <LatitudeDegrees>42.42369708605110645294189453125</LatitudeDegrees>
              <LongitudeDegrees>2.73873548023402690887451171875</LongitudeDegrees>
            </Position>
            <AltitudeMeters>1270.5999755859375</AltitudeMeters>
            <DistanceMeters>NAN</DistanceMeters>
          </Trackpoint>
          <Trackpoint>
            <Time>2021-04-01T11:07:40.000Z</Time>
            <Position>
              <LatitudeDegrees>42.4236961640417575836181640625</LatitudeDegrees>
              <LongitudeDegrees>2.73871720768511295318603515625</LongitudeDegrees>
            </Position>
            <AltitudeMeters>1271</AltitudeMeters>
            <DistanceMeters>NAN</DistanceMeters>
          </Trackpoint>
          <Trackpoint>
            <Time>2021-04-01T11:07:43.000Z</Time>
            <Position>
              <LatitudeDegrees>42.42369540967047214508056640625</LatitudeDegrees>
              <LongitudeDegrees>2.738689295947551727294921875</LongitudeDegrees>
            </Position>
            <AltitudeMeters>1272.199951171875</AltitudeMeters>
            <DistanceMeters>NAN</DistanceMeters>
          </Trackpoint>
          <Trackpoint>
            <Time>2021-04-01T11:07:45.000Z</Time>
            <Position>
              <LatitudeDegrees>42.4236954934895038604736328125</LatitudeDegrees>
              <LongitudeDegrees>2.73866088129580020904541015625</LongitudeDegrees>
            </Position>
            <AltitudeMeters>1272.5999755859375</AltitudeMeters>
            <DistanceMeters>NAN</DistanceMeters>
          </Trackpoint>
          <Trackpoint>
            <Time>2021-04-01T11:07:51.000Z</Time>
            <Position>
              <LatitudeDegrees>42.42370362393558025360107421875</LatitudeDegrees>
              <LongitudeDegrees>2.7386287786066532135009765625</LongitudeDegrees>
            </Position>
            <AltitudeMeters>1273.4000244140625</AltitudeMeters>
            <DistanceMeters>NAN</DistanceMeters>
          </Trackpoint>
          <Trackpoint>
            <Time>2021-04-01T11:07:52.000Z</Time>
            <Position>
              <LatitudeDegrees>42.42370136082172393798828125</LatitudeDegrees>
              <LongitudeDegrees>2.7386257611215114593505859375</LongitudeDegrees>
            </Position>
            <AltitudeMeters>1273.5999755859375</AltitudeMeters>
            <DistanceMeters>NAN</DistanceMeters>
          </Trackpoint>
          <Trackpoint>
            <Time>2021-04-01T11:07:55.000Z</Time>
            <Position>
              <LatitudeDegrees>42.423697672784328460693359375</LatitudeDegrees>
              <LongitudeDegrees>2.7386230789124965667724609375</LongitudeDegrees>
            </Position>
            <AltitudeMeters>1274.4000244140625</AltitudeMeters>
            <DistanceMeters>NAN</DistanceMeters>
          </Trackpoint>
          <Trackpoint>
            <Time>2021-04-01T11:08:01.000Z</Time>
            <Position>
              <LatitudeDegrees>42.42370848543941974639892578125</LatitudeDegrees>
              <LongitudeDegrees>2.7386225759983062744140625</LongitudeDegrees>
            </Position>
            <AltitudeMeters>1275.199951171875</AltitudeMeters>
            <DistanceMeters>NAN</DistanceMeters>
          </Trackpoint>
          <Trackpoint>
            <Time>2021-04-01T11:08:05.000Z</Time>
            <Position>
              <LatitudeDegrees>42.42371468804776668548583984375</LatitudeDegrees>
              <LongitudeDegrees>2.7385903894901275634765625</LongitudeDegrees>
            </Position>
            <AltitudeMeters>1275</AltitudeMeters>
            <DistanceMeters>NAN</DistanceMeters>
          </Trackpoint>
          <Trackpoint>
            <Time>2021-04-01T11:08:10.000Z</Time>
            <Position>
              <LatitudeDegrees>42.42369733750820159912109375</LatitudeDegrees>
              <LongitudeDegrees>2.73857002146542072296142578125</LongitudeDegrees>
            </Position>
            <AltitudeMeters>1274.800048828125</AltitudeMeters>
            <DistanceMeters>NAN</DistanceMeters>
          </Trackpoint>
          <Trackpoint>
            <Time>2021-04-01T11:08:14.000Z</Time>
            <Position>
              <LatitudeDegrees>42.4236832559108734130859375</LatitudeDegrees>
              <LongitudeDegrees>2.73856021463871002197265625</LongitudeDegrees>
            </Position>
            <AltitudeMeters>1275.5999755859375</AltitudeMeters>
            <DistanceMeters>NAN</DistanceMeters>
          </Trackpoint>
          <Trackpoint>
            <Time>2021-04-01T11:08:19.000Z</Time>
            <Position>
              <LatitudeDegrees>42.42367764003574848175048828125</LatitudeDegrees>
              <LongitudeDegrees>2.73855225183069705963134765625</LongitudeDegrees>
            </Position>
            <AltitudeMeters>1276.800048828125</AltitudeMeters>
            <DistanceMeters>NAN</DistanceMeters>
          </Trackpoint>
          <Trackpoint>
            <Time>2021-04-01T11:08:25.000Z</Time>
            <Position>
              <LatitudeDegrees>42.4236609600484371185302734375</LatitudeDegrees>
              <LongitudeDegrees>2.7385520003736019134521484375</LongitudeDegrees>
            </Position>
            <AltitudeMeters>1277.800048828125</AltitudeMeters>
            <DistanceMeters>NAN</DistanceMeters>
          </Trackpoint>
          <Trackpoint>
            <Time>2021-04-01T11:08:27.000Z</Time>
            <Position>
              <LatitudeDegrees>42.4236623011529445648193359375</LatitudeDegrees>
              <LongitudeDegrees>2.73854454047977924346923828125</LongitudeDegrees>
            </Position>
            <AltitudeMeters>1278.199951171875</AltitudeMeters>
            <DistanceMeters>NAN</DistanceMeters>
          </Trackpoint>
          <Trackpoint>
            <Time>2021-04-01T11:08:29.000Z</Time>
            <Position>
              <LatitudeDegrees>42.4236669950187206268310546875</LatitudeDegrees>
              <LongitudeDegrees>2.7385285310447216033935546875</LongitudeDegrees>
            </Position>
            <AltitudeMeters>1278.800048828125</AltitudeMeters>
            <DistanceMeters>NAN</DistanceMeters>
          </Trackpoint>
          <Trackpoint>
            <Time>2021-04-01T11:08:32.000Z</Time>
            <Position>
              <LatitudeDegrees>42.4236671626567840576171875</LatitudeDegrees>
              <LongitudeDegrees>2.73851352743804454803466796875</LongitudeDegrees>
            </Position>
            <AltitudeMeters>1279.5999755859375</AltitudeMeters>
            <DistanceMeters>NAN</DistanceMeters>
          </Trackpoint>
          <Trackpoint>
            <Time>2021-04-01T11:08:34.000Z</Time>
            <Position>
              <LatitudeDegrees>42.4236673302948474884033203125</LatitudeDegrees>
              <LongitudeDegrees>2.73850045166909694671630859375</LongitudeDegrees>
            </Position>
            <AltitudeMeters>1280</AltitudeMeters>
            <DistanceMeters>NAN</DistanceMeters>
          </Trackpoint>
          <Trackpoint>
            <Time>2021-04-01T11:08:42.000Z</Time>
            <Position>
              <LatitudeDegrees>42.423658110201358795166015625</LatitudeDegrees>
              <LongitudeDegrees>2.73847170174121856689453125</LongitudeDegrees>
            </Position>
            <AltitudeMeters>1280.4000244140625</AltitudeMeters>
            <DistanceMeters>NAN</DistanceMeters>
          </Trackpoint>
          <Trackpoint>
            <Time>2021-04-01T11:08:44.000Z</Time>
            <Position>
              <LatitudeDegrees>42.423650734126567840576171875</LatitudeDegrees>
              <LongitudeDegrees>2.7384748868644237518310546875</LongitudeDegrees>
            </Position>
            <AltitudeMeters>1280.4000244140625</AltitudeMeters>
            <DistanceMeters>NAN</DistanceMeters>
          </Trackpoint>
          <Trackpoint>
            <Time>2021-04-01T11:08:48.000Z</Time>
            <Position>
              <LatitudeDegrees>42.42364143021404743194580078125</LatitudeDegrees>
              <LongitudeDegrees>2.73845518939197063446044921875</LongitudeDegrees>
            </Position>
            <AltitudeMeters>1280.5999755859375</AltitudeMeters>
            <DistanceMeters>NAN</DistanceMeters>
          </Trackpoint>
          <Trackpoint>
            <Time>2021-04-01T11:08:49.000Z</Time>
            <Position>
              <LatitudeDegrees>42.42364226840436458587646484375</LatitudeDegrees>
              <LongitudeDegrees>2.73845032788813114166259765625</LongitudeDegrees>
            </Position>
            <AltitudeMeters>1280.800048828125</AltitudeMeters>
            <DistanceMeters>NAN</DistanceMeters>
          </Trackpoint>
          <Trackpoint>
            <Time>2021-04-01T11:08:50.000Z</Time>
            <Position>
              <LatitudeDegrees>42.42364101111888885498046875</LatitudeDegrees>
              <LongitudeDegrees>2.73844613693654537200927734375</LongitudeDegrees>
            </Position>
            <AltitudeMeters>1281</AltitudeMeters>
            <DistanceMeters>NAN</DistanceMeters>
          </Trackpoint>
          <Trackpoint>
            <Time>2021-04-01T11:08:53.000Z</Time>
            <Position>
              <LatitudeDegrees>42.42363472469151020050048828125</LatitudeDegrees>
              <LongitudeDegrees>2.73842819966375827789306640625</LongitudeDegrees>
            </Position>
            <AltitudeMeters>1281.5999755859375</AltitudeMeters>
            <DistanceMeters>NAN</DistanceMeters>
          </Trackpoint>
          <Trackpoint>
            <Time>2021-04-01T11:08:57.000Z</Time>
            <Position>
              <LatitudeDegrees>42.42361360229551792144775390625</LatitudeDegrees>
              <LongitudeDegrees>2.73840271867811679840087890625</LongitudeDegrees>
            </Position>
            <AltitudeMeters>1282.199951171875</AltitudeMeters>
            <DistanceMeters>NAN</DistanceMeters>
          </Trackpoint>
          <Trackpoint>
            <Time>2021-04-01T11:09:02.000Z</Time>
            <Position>
              <LatitudeDegrees>42.42361142300069332122802734375</LatitudeDegrees>
              <LongitudeDegrees>2.7383860386908054351806640625</LongitudeDegrees>
            </Position>
            <AltitudeMeters>1282.5999755859375</AltitudeMeters>
            <DistanceMeters>NAN</DistanceMeters>
          </Trackpoint>
          <Trackpoint>
            <Time>2021-04-01T11:09:07.000Z</Time>
            <Position>
              <LatitudeDegrees>42.4236146919429302215576171875</LatitudeDegrees>
              <LongitudeDegrees>2.73836843669414520263671875</LongitudeDegrees>
            </Position>
            <AltitudeMeters>1283.199951171875</AltitudeMeters>
            <DistanceMeters>NAN</DistanceMeters>
          </Trackpoint>
          <Trackpoint>
            <Time>2021-04-01T11:09:09.000Z</Time>
            <Position>
              <LatitudeDegrees>42.42361879907548427581787109375</LatitudeDegrees>
              <LongitudeDegrees>2.73835795931518077850341796875</LongitudeDegrees>
            </Position>
            <AltitudeMeters>1283.4000244140625</AltitudeMeters>
            <DistanceMeters>NAN</DistanceMeters>
          </Trackpoint>
          <Trackpoint>
            <Time>2021-04-01T11:09:14.000Z</Time>
            <Position>
              <LatitudeDegrees>42.4236287735402584075927734375</LatitudeDegrees>
              <LongitudeDegrees>2.738320492208003997802734375</LongitudeDegrees>
            </Position>
            <AltitudeMeters>1284.199951171875</AltitudeMeters>
            <DistanceMeters>NAN</DistanceMeters>
          </Trackpoint>
          <Trackpoint>
            <Time>2021-04-01T11:09:15.000Z</Time>
            <Position>
              <LatitudeDegrees>42.4236358143389225006103515625</LatitudeDegrees>
              <LongitudeDegrees>2.738317139446735382080078125</LongitudeDegrees>
            </Position>
            <AltitudeMeters>1284.199951171875</AltitudeMeters>
            <DistanceMeters>NAN</DistanceMeters>
          </Trackpoint>
          <Trackpoint>
            <Time>2021-04-01T11:09:17.000Z</Time>
            <Position>
              <LatitudeDegrees>42.4236465431749820709228515625</LatitudeDegrees>
              <LongitudeDegrees>2.73830649442970752716064453125</LongitudeDegrees>
            </Position>
            <AltitudeMeters>1284.4000244140625</AltitudeMeters>
            <DistanceMeters>NAN</DistanceMeters>
          </Trackpoint>
          <Trackpoint>
            <Time>2021-04-01T11:09:19.000Z</Time>
            <Position>
              <LatitudeDegrees>42.42365500889718532562255859375</LatitudeDegrees>
              <LongitudeDegrees>2.73829895071685314178466796875</LongitudeDegrees>
            </Position>
            <AltitudeMeters>1284.5999755859375</AltitudeMeters>
            <DistanceMeters>NAN</DistanceMeters>
          </Trackpoint>
          <Trackpoint>
            <Time>2021-04-01T11:09:25.000Z</Time>
            <Position>
              <LatitudeDegrees>42.42365484125912189483642578125</LatitudeDegrees>
              <LongitudeDegrees>2.73829995654523372650146484375</LongitudeDegrees>
            </Position>
            <AltitudeMeters>1285.199951171875</AltitudeMeters>
            <DistanceMeters>NAN</DistanceMeters>
          </Trackpoint>
          <Trackpoint>
            <Time>2021-04-01T11:09:34.000Z</Time>
            <Position>
              <LatitudeDegrees>42.423680238425731658935546875</LatitudeDegrees>
              <LongitudeDegrees>2.73824547417461872100830078125</LongitudeDegrees>
            </Position>
            <AltitudeMeters>1285</AltitudeMeters>
            <DistanceMeters>NAN</DistanceMeters>
          </Trackpoint>
          <Trackpoint>
            <Time>2021-04-01T11:09:36.000Z</Time>
            <Position>
              <LatitudeDegrees>42.423688285052776336669921875</LatitudeDegrees>
              <LongitudeDegrees>2.7382282912731170654296875</LongitudeDegrees>
            </Position>
            <AltitudeMeters>1285.199951171875</AltitudeMeters>
            <DistanceMeters>NAN</DistanceMeters>
          </Trackpoint>
          <Trackpoint>
            <Time>2021-04-01T11:09:37.000Z</Time>
            <Position>
              <LatitudeDegrees>42.4236939847469329833984375</LatitudeDegrees>
              <LongitudeDegrees>2.73822401650249958038330078125</LongitudeDegrees>
            </Position>
            <AltitudeMeters>1285.4000244140625</AltitudeMeters>
            <DistanceMeters>NAN</DistanceMeters>
          </Trackpoint>
          <Trackpoint>
            <Time>2021-04-01T11:09:41.000Z</Time>
            <Position>
              <LatitudeDegrees>42.4236911348998546600341796875</LatitudeDegrees>
              <LongitudeDegrees>2.7382202446460723876953125</LongitudeDegrees>
            </Position>
            <AltitudeMeters>1286.5999755859375</AltitudeMeters>
            <DistanceMeters>NAN</DistanceMeters>
          </Trackpoint>
          <Trackpoint>
            <Time>2021-04-01T11:09:43.000Z</Time>
            <Position>
              <LatitudeDegrees>42.4236934818327426910400390625</LatitudeDegrees>
              <LongitudeDegrees>2.73821429349482059478759765625</LongitudeDegrees>
            </Position>
            <AltitudeMeters>1287</AltitudeMeters>
            <DistanceMeters>NAN</DistanceMeters>
          </Trackpoint>
          <Trackpoint>
            <Time>2021-04-01T11:09:47.000Z</Time>
            <Position>
              <LatitudeDegrees>42.42368468083441257476806640625</LatitudeDegrees>
              <LongitudeDegrees>2.73821865208446979522705078125</LongitudeDegrees>
            </Position>
            <AltitudeMeters>1287.4000244140625</AltitudeMeters>
            <DistanceMeters>NAN</DistanceMeters>
          </Trackpoint>
          <Trackpoint>
            <Time>2021-04-01T11:09:51.000Z</Time>
            <Position>
              <LatitudeDegrees>42.4236778914928436279296875</LatitudeDegrees>
              <LongitudeDegrees>2.73822334595024585723876953125</LongitudeDegrees>
            </Position>
            <AltitudeMeters>1287.5999755859375</AltitudeMeters>
            <DistanceMeters>NAN</DistanceMeters>
          </Trackpoint>
          <Trackpoint>
            <Time>2021-04-01T11:09:57.000Z</Time>
            <Position>
              <LatitudeDegrees>42.423673532903194427490234375</LatitudeDegrees>
              <LongitudeDegrees>2.73820507340133190155029296875</LongitudeDegrees>
            </Position>
            <AltitudeMeters>1288.5999755859375</AltitudeMeters>
            <DistanceMeters>NAN</DistanceMeters>
          </Trackpoint>
          <Trackpoint>
            <Time>2021-04-01T11:09:58.000Z</Time>
            <Position>
              <LatitudeDegrees>42.42367277853190898895263671875</LatitudeDegrees>
              <LongitudeDegrees>2.73821094073355197906494140625</LongitudeDegrees>
            </Position>
            <AltitudeMeters>1288.5999755859375</AltitudeMeters>
            <DistanceMeters>NAN</DistanceMeters>
          </Trackpoint>
          <Trackpoint>
            <Time>2021-04-01T11:09:59.000Z</Time>
            <Position>
              <LatitudeDegrees>42.42367177270352840423583984375</LatitudeDegrees>
              <LongitudeDegrees>2.7382210828363895416259765625</LongitudeDegrees>
            </Position>
            <AltitudeMeters>1288.5999755859375</AltitudeMeters>
            <DistanceMeters>NAN</DistanceMeters>
          </Trackpoint>
          <Trackpoint>
            <Time>2021-04-01T11:10:03.000Z</Time>
            <Position>
              <LatitudeDegrees>42.42366657592356204986572265625</LatitudeDegrees>
              <LongitudeDegrees>2.7381992898881435394287109375</LongitudeDegrees>
            </Position>
            <AltitudeMeters>1289.4000244140625</AltitudeMeters>
            <DistanceMeters>NAN</DistanceMeters>
          </Trackpoint>
          <Trackpoint>
            <Time>2021-04-01T11:10:07.000Z</Time>
            <Position>
              <LatitudeDegrees>42.4236693419516086578369140625</LatitudeDegrees>
              <LongitudeDegrees>2.738192416727542877197265625</LongitudeDegrees>
            </Position>
            <AltitudeMeters>1289.5999755859375</AltitudeMeters>
            <DistanceMeters>NAN</DistanceMeters>
          </Trackpoint>
          <Trackpoint>
            <Time>2021-04-01T11:10:08.000Z</Time>
            <Position>
              <LatitudeDegrees>42.4236726947128772735595703125</LatitudeDegrees>
              <LongitudeDegrees>2.73819333873689174652099609375</LongitudeDegrees>
            </Position>
            <AltitudeMeters>1289.800048828125</AltitudeMeters>
            <DistanceMeters>NAN</DistanceMeters>
          </Trackpoint>
          <Trackpoint>
            <Time>2021-04-01T11:10:16.000Z</Time>
            <Position>
              <LatitudeDegrees>42.423664145171642303466796875</LatitudeDegrees>
              <LongitudeDegrees>2.7381639182567596435546875</LongitudeDegrees>
            </Position>
            <AltitudeMeters>1290.5999755859375</AltitudeMeters>
            <DistanceMeters>NAN</DistanceMeters>
          </Trackpoint>
          <Trackpoint>
            <Time>2021-04-01T11:10:17.000Z</Time>
            <Position>
              <LatitudeDegrees>42.4236663244664669036865234375</LatitudeDegrees>
              <LongitudeDegrees>2.73816014640033245086669921875</LongitudeDegrees>
            </Position>
            <AltitudeMeters>1290.800048828125</AltitudeMeters>
            <DistanceMeters>NAN</DistanceMeters>
          </Trackpoint>
          <Trackpoint>
            <Time>2021-04-01T11:10:24.000Z</Time>
            <Position>
              <LatitudeDegrees>42.42366959340870380401611328125</LatitudeDegrees>
              <LongitudeDegrees>2.73813776671886444091796875</LongitudeDegrees>
            </Position>
            <AltitudeMeters>1291.5999755859375</AltitudeMeters>
            <DistanceMeters>NAN</DistanceMeters>
          </Trackpoint>
          <Trackpoint>
            <Time>2021-04-01T11:10:26.000Z</Time>
            <Position>
              <LatitudeDegrees>42.42366959340870380401611328125</LatitudeDegrees>
              <LongitudeDegrees>2.73813776671886444091796875</LongitudeDegrees>
            </Position>
            <AltitudeMeters>1291.800048828125</AltitudeMeters>
            <DistanceMeters>NAN</DistanceMeters>
          </Trackpoint>
          <Trackpoint>
            <Time>2021-04-01T11:10:27.000Z</Time>
            <Position>
              <LatitudeDegrees>42.42366959340870380401611328125</LatitudeDegrees>
              <LongitudeDegrees>2.73813776671886444091796875</LongitudeDegrees>
            </Position>
            <AltitudeMeters>1292</AltitudeMeters>
            <DistanceMeters>NAN</DistanceMeters>
          </Trackpoint>
          <Trackpoint>
            <Time>2021-04-01T11:10:31.000Z</Time>
            <Position>
              <LatitudeDegrees>42.42366959340870380401611328125</LatitudeDegrees>
              <LongitudeDegrees>2.73813776671886444091796875</LongitudeDegrees>
            </Position>
            <AltitudeMeters>1292.199951171875</AltitudeMeters>
            <DistanceMeters>NAN</DistanceMeters>
          </Trackpoint>
          <Trackpoint>
            <Time>2021-04-01T11:10:33.000Z</Time>
            <Position>
              <LatitudeDegrees>42.42366959340870380401611328125</LatitudeDegrees>
              <LongitudeDegrees>2.73813776671886444091796875</LongitudeDegrees>
            </Position>
            <AltitudeMeters>1292.4000244140625</AltitudeMeters>
            <DistanceMeters>NAN</DistanceMeters>
          </Trackpoint>
          <Trackpoint>
            <Time>2021-04-01T11:10:35.000Z</Time>
            <Position>
              <LatitudeDegrees>42.42366959340870380401611328125</LatitudeDegrees>
              <LongitudeDegrees>2.73813776671886444091796875</LongitudeDegrees>
            </Position>
            <AltitudeMeters>1292.800048828125</AltitudeMeters>
            <DistanceMeters>NAN</DistanceMeters>
          </Trackpoint>
          <Trackpoint>
            <Time>2021-04-01T11:10:36.000Z</Time>
            <Position>
              <LatitudeDegrees>42.42366959340870380401611328125</LatitudeDegrees>
              <LongitudeDegrees>2.73813776671886444091796875</LongitudeDegrees>
            </Position>
            <AltitudeMeters>1292.800048828125</AltitudeMeters>
            <DistanceMeters>NAN</DistanceMeters>
          </Trackpoint>
          <Trackpoint>
            <Time>2021-04-01T11:10:40.000Z</Time>
            <Position>
              <LatitudeDegrees>42.42366875521838665008544921875</LatitudeDegrees>
              <LongitudeDegrees>2.7381275407969951629638671875</LongitudeDegrees>
            </Position>
            <AltitudeMeters>1293.199951171875</AltitudeMeters>
            <DistanceMeters>NAN</DistanceMeters>
          </Trackpoint>
          <Trackpoint>
            <Time>2021-04-01T11:10:45.000Z</Time>
            <Position>
              <LatitudeDegrees>42.42366850376129150390625</LatitudeDegrees>
              <LongitudeDegrees>2.73812343366444110870361328125</LongitudeDegrees>
            </Position>
            <AltitudeMeters>1293.800048828125</AltitudeMeters>
            <DistanceMeters>NAN</DistanceMeters>
          </Trackpoint>
          <Trackpoint>
            <Time>2021-04-01T11:10:53.000Z</Time>
            <Position>
              <LatitudeDegrees>42.42367009632289409637451171875</LatitudeDegrees>
              <LongitudeDegrees>2.7381161414086818695068359375</LongitudeDegrees>
            </Position>
            <AltitudeMeters>1295</AltitudeMeters>
            <DistanceMeters>NAN</DistanceMeters>
          </Trackpoint>
          <Trackpoint>
            <Time>2021-04-01T11:10:56.000Z</Time>
            <Position>
              <LatitudeDegrees>42.42367051541805267333984375</LatitudeDegrees>
              <LongitudeDegrees>2.73811094462871551513671875</LongitudeDegrees>
            </Position>
            <AltitudeMeters>1295.199951171875</AltitudeMeters>
            <DistanceMeters>NAN</DistanceMeters>
          </Trackpoint>
          <Trackpoint>
            <Time>2021-04-01T11:11:00.000Z</Time>
            <Position>
              <LatitudeDegrees>42.42367587983608245849609375</LatitudeDegrees>
              <LongitudeDegrees>2.7380635030567646026611328125</LongitudeDegrees>
            </Position>
            <AltitudeMeters>1295.4000244140625</AltitudeMeters>
            <DistanceMeters>NAN</DistanceMeters>
          </Trackpoint>
          <Trackpoint>
            <Time>2021-04-01T11:11:05.000Z</Time>
            <Position>
              <LatitudeDegrees>42.42368970997631549835205078125</LatitudeDegrees>
              <LongitudeDegrees>2.73803316056728363037109375</LongitudeDegrees>
            </Position>
            <AltitudeMeters>1295.4000244140625</AltitudeMeters>
            <DistanceMeters>NAN</DistanceMeters>
          </Trackpoint>
          <Trackpoint>
            <Time>2021-04-01T11:11:10.000Z</Time>
            <Position>
              <LatitudeDegrees>42.42369733750820159912109375</LatitudeDegrees>
              <LongitudeDegrees>2.738013379275798797607421875</LongitudeDegrees>
            </Position>
            <AltitudeMeters>1295.800048828125</AltitudeMeters>
            <DistanceMeters>NAN</DistanceMeters>
          </Trackpoint>
          <Trackpoint>
            <Time>2021-04-01T11:11:11.000Z</Time>
            <Position>
              <LatitudeDegrees>42.42369825951755046844482421875</LatitudeDegrees>
              <LongitudeDegrees>2.738010697066783905029296875</LongitudeDegrees>
            </Position>
            <AltitudeMeters>1296</AltitudeMeters>
            <DistanceMeters>NAN</DistanceMeters>
          </Trackpoint>
          <Trackpoint>
            <Time>2021-04-01T11:11:13.000Z</Time>
            <Position>
              <LatitudeDegrees>42.42370001971721649169921875</LatitudeDegrees>
              <LongitudeDegrees>2.73800902068614959716796875</LongitudeDegrees>
            </Position>
            <AltitudeMeters>1296</AltitudeMeters>
            <DistanceMeters>NAN</DistanceMeters>
          </Trackpoint>
          <Trackpoint>
            <Time>2021-04-01T11:11:19.000Z</Time>
            <Position>
              <LatitudeDegrees>42.4237020313739776611328125</LatitudeDegrees>
              <LongitudeDegrees>2.73799435235559940338134765625</LongitudeDegrees>
            </Position>
            <AltitudeMeters>1296.199951171875</AltitudeMeters>
            <DistanceMeters>NAN</DistanceMeters>
          </Trackpoint>
          <Trackpoint>
            <Time>2021-04-01T11:11:23.000Z</Time>
            <Position>
              <LatitudeDegrees>42.42370395921170711517333984375</LatitudeDegrees>
              <LongitudeDegrees>2.73798546753823757171630859375</LongitudeDegrees>
            </Position>
            <AltitudeMeters>1296.5999755859375</AltitudeMeters>
            <DistanceMeters>NAN</DistanceMeters>
          </Trackpoint>
          <Trackpoint>
            <Time>2021-04-01T11:11:27.000Z</Time>
            <Position>
              <LatitudeDegrees>42.42371083237230777740478515625</LatitudeDegrees>
              <LongitudeDegrees>2.73797440342605113983154296875</LongitudeDegrees>
            </Position>
            <AltitudeMeters>1297.199951171875</AltitudeMeters>
            <DistanceMeters>NAN</DistanceMeters>
          </Trackpoint>
          <Trackpoint>
            <Time>2021-04-01T11:11:57.000Z</Time>
            <Position>
              <LatitudeDegrees>42.4237400852143764495849609375</LatitudeDegrees>
              <LongitudeDegrees>2.73795881308615207672119140625</LongitudeDegrees>
            </Position>
            <AltitudeMeters>1298</AltitudeMeters>
            <DistanceMeters>NAN</DistanceMeters>
          </Trackpoint>
          <Trackpoint>
            <Time>2021-04-01T11:11:58.000Z</Time>
            <Position>
              <LatitudeDegrees>42.42373815737664699554443359375</LatitudeDegrees>
              <LongitudeDegrees>2.737966440618038177490234375</LongitudeDegrees>
            </Position>
            <AltitudeMeters>1298.4000244140625</AltitudeMeters>
            <DistanceMeters>NAN</DistanceMeters>
          </Trackpoint>
          <Trackpoint>
            <Time>2021-04-01T11:12:00.000Z</Time>
            <Position>
              <LatitudeDegrees>42.42373229004442691802978515625</LatitudeDegrees>
              <LongitudeDegrees>2.737975828349590301513671875</LongitudeDegrees>
            </Position>
            <AltitudeMeters>1299</AltitudeMeters>
            <DistanceMeters>NAN</DistanceMeters>
          </Trackpoint>
          <Trackpoint>
            <Time>2021-04-01T11:12:03.000Z</Time>
            <Position>
              <LatitudeDegrees>42.42371954955160617828369140625</LatitudeDegrees>
              <LongitudeDegrees>2.7379783429205417633056640625</LongitudeDegrees>
            </Position>
            <AltitudeMeters>1299.5999755859375</AltitudeMeters>
            <DistanceMeters>NAN</DistanceMeters>
          </Trackpoint>
          <Trackpoint>
            <Time>2021-04-01T11:12:05.000Z</Time>
            <Position>
              <LatitudeDegrees>42.423714101314544677734375</LatitudeDegrees>
              <LongitudeDegrees>2.7379786781966686248779296875</LongitudeDegrees>
            </Position>
            <AltitudeMeters>1300</AltitudeMeters>
            <DistanceMeters>NAN</DistanceMeters>
          </Trackpoint>
          <Trackpoint>
            <Time>2021-04-01T11:12:08.000Z</Time>
            <Position>
              <LatitudeDegrees>42.423712424933910369873046875</LatitudeDegrees>
              <LongitudeDegrees>2.73797876201570034027099609375</LongitudeDegrees>
            </Position>
            <AltitudeMeters>1300.5999755859375</AltitudeMeters>
            <DistanceMeters>NAN</DistanceMeters>
          </Trackpoint>
          <Trackpoint>
            <Time>2021-04-01T11:12:17.000Z</Time>
            <Position>
              <LatitudeDegrees>42.42371217347681522369384765625</LatitudeDegrees>
              <LongitudeDegrees>2.73796082474291324615478515625</LongitudeDegrees>
            </Position>
            <AltitudeMeters>1301.5999755859375</AltitudeMeters>
            <DistanceMeters>NAN</DistanceMeters>
          </Trackpoint>
          <Trackpoint>
            <Time>2021-04-01T11:12:23.000Z</Time>
            <Position>
              <LatitudeDegrees>42.42373128421604633331298828125</LatitudeDegrees>
              <LongitudeDegrees>2.73793215863406658172607421875</LongitudeDegrees>
            </Position>
            <AltitudeMeters>1302.4000244140625</AltitudeMeters>
            <DistanceMeters>NAN</DistanceMeters>
          </Trackpoint>
          <Trackpoint>
            <Time>2021-04-01T11:12:25.000Z</Time>
            <Position>
              <LatitudeDegrees>42.4237400852143764495849609375</LatitudeDegrees>
              <LongitudeDegrees>2.73792612366378307342529296875</LongitudeDegrees>
            </Position>
            <AltitudeMeters>1302.5999755859375</AltitudeMeters>
            <DistanceMeters>NAN</DistanceMeters>
          </Trackpoint>
          <Trackpoint>
            <Time>2021-04-01T11:12:26.000Z</Time>
            <Position>
              <LatitudeDegrees>42.4237444438040256500244140625</LatitudeDegrees>
              <LongitudeDegrees>2.73792394436895847320556640625</LongitudeDegrees>
            </Position>
            <AltitudeMeters>1302.800048828125</AltitudeMeters>
            <DistanceMeters>NAN</DistanceMeters>
          </Trackpoint>
          <Trackpoint>
            <Time>2021-04-01T11:12:29.000Z</Time>
            <Position>
              <LatitudeDegrees>42.42376313544809818267822265625</LatitudeDegrees>
              <LongitudeDegrees>2.73790952749550342559814453125</LongitudeDegrees>
            </Position>
            <AltitudeMeters>1303</AltitudeMeters>
            <DistanceMeters>NAN</DistanceMeters>
          </Trackpoint>
          <Trackpoint>
            <Time>2021-04-01T11:12:35.000Z</Time>
            <Position>
              <LatitudeDegrees>42.42379934526979923248291015625</LatitudeDegrees>
              <LongitudeDegrees>2.73786510340869426727294921875</LongitudeDegrees>
            </Position>
            <AltitudeMeters>1304</AltitudeMeters>
            <DistanceMeters>NAN</DistanceMeters>
          </Trackpoint>
          <Trackpoint>
            <Time>2021-04-01T11:12:38.000Z</Time>
            <Position>
              <LatitudeDegrees>42.42380923591554164886474609375</LatitudeDegrees>
              <LongitudeDegrees>2.73784616030752658843994140625</LongitudeDegrees>
            </Position>
            <AltitudeMeters>1304.4000244140625</AltitudeMeters>
            <DistanceMeters>NAN</DistanceMeters>
          </Trackpoint>
          <Trackpoint>
            <Time>2021-04-01T11:12:39.000Z</Time>
            <Position>
              <LatitudeDegrees>42.42381325922906398773193359375</LatitudeDegrees>
              <LongitudeDegrees>2.73784213699400424957275390625</LongitudeDegrees>
            </Position>
            <AltitudeMeters>1304.4000244140625</AltitudeMeters>
            <DistanceMeters>NAN</DistanceMeters>
          </Trackpoint>
          <Trackpoint>
            <Time>2021-04-01T11:12:42.000Z</Time>
            <Position>
              <LatitudeDegrees>42.42382650263607501983642578125</LatitudeDegrees>
              <LongitudeDegrees>2.73782570846378803253173828125</LongitudeDegrees>
            </Position>
            <AltitudeMeters>1304.5999755859375</AltitudeMeters>
            <DistanceMeters>NAN</DistanceMeters>
          </Trackpoint>
          <Trackpoint>
            <Time>2021-04-01T11:12:46.000Z</Time>
            <Position>
              <LatitudeDegrees>42.423841841518878936767578125</LatitudeDegrees>
              <LongitudeDegrees>2.7377942763268947601318359375</LongitudeDegrees>
            </Position>
            <AltitudeMeters>1305</AltitudeMeters>
            <DistanceMeters>NAN</DistanceMeters>
          </Trackpoint>
          <Trackpoint>
            <Time>2021-04-01T11:12:49.000Z</Time>
            <Position>
              <LatitudeDegrees>42.42385466583073139190673828125</LatitudeDegrees>
              <LongitudeDegrees>2.737776674330234527587890625</LongitudeDegrees>
            </Position>
            <AltitudeMeters>1305.199951171875</AltitudeMeters>
            <DistanceMeters>NAN</DistanceMeters>
          </Trackpoint>
          <Trackpoint>
            <Time>2021-04-01T11:12:55.000Z</Time>
            <Position>
              <LatitudeDegrees>42.42388132028281688690185546875</LatitudeDegrees>
              <LongitudeDegrees>2.73774021305143833160400390625</LongitudeDegrees>
            </Position>
            <AltitudeMeters>1305.800048828125</AltitudeMeters>
            <DistanceMeters>NAN</DistanceMeters>
          </Trackpoint>
          <Trackpoint>
            <Time>2021-04-01T11:12:57.000Z</Time>
            <Position>
              <LatitudeDegrees>42.42388869635760784149169921875</LatitudeDegrees>
              <LongitudeDegrees>2.7377299033105373382568359375</LongitudeDegrees>
            </Position>
            <AltitudeMeters>1306</AltitudeMeters>
            <DistanceMeters>NAN</DistanceMeters>
          </Trackpoint>
          <Trackpoint>
            <Time>2021-04-01T11:13:05.000Z</Time>
            <Position>
              <LatitudeDegrees>42.42391266860067844390869140625</LatitudeDegrees>
              <LongitudeDegrees>2.7376879937946796417236328125</LongitudeDegrees>
            </Position>
            <AltitudeMeters>1307</AltitudeMeters>
            <DistanceMeters>NAN</DistanceMeters>
          </Trackpoint>
          <Trackpoint>
            <Time>2021-04-01T11:13:13.000Z</Time>
            <Position>
              <LatitudeDegrees>42.4239231459796428680419921875</LatitudeDegrees>
              <LongitudeDegrees>2.73766360245645046234130859375</LongitudeDegrees>
            </Position>
            <AltitudeMeters>1308.199951171875</AltitudeMeters>
            <DistanceMeters>NAN</DistanceMeters>
          </Trackpoint>
          <Trackpoint>
            <Time>2021-04-01T11:13:22.000Z</Time>
            <Position>
              <LatitudeDegrees>42.42394183762371540069580078125</LatitudeDegrees>
              <LongitudeDegrees>2.7376400493085384368896484375</LongitudeDegrees>
            </Position>
            <AltitudeMeters>1309.4000244140625</AltitudeMeters>
            <DistanceMeters>NAN</DistanceMeters>
          </Trackpoint>
          <Trackpoint>
            <Time>2021-04-01T11:13:32.000Z</Time>
            <Position>
              <LatitudeDegrees>42.42395994253456592559814453125</LatitudeDegrees>
              <LongitudeDegrees>2.73761766962707042694091796875</LongitudeDegrees>
            </Position>
            <AltitudeMeters>1310.4000244140625</AltitudeMeters>
            <DistanceMeters>NAN</DistanceMeters>
          </Trackpoint>
          <Trackpoint>
            <Time>2021-04-01T11:13:36.000Z</Time>
            <Position>
              <LatitudeDegrees>42.42396463640034198760986328125</LatitudeDegrees>
              <LongitudeDegrees>2.73761146701872348785400390625</LongitudeDegrees>
            </Position>
            <AltitudeMeters>1311.199951171875</AltitudeMeters>
            <DistanceMeters>NAN</DistanceMeters>
          </Trackpoint>
          <Trackpoint>
            <Time>2021-04-01T11:13:38.000Z</Time>
            <Position>
              <LatitudeDegrees>42.4239663966000080108642578125</LatitudeDegrees>
              <LongitudeDegrees>2.7376088686287403106689453125</LongitudeDegrees>
            </Position>
            <AltitudeMeters>1311.4000244140625</AltitudeMeters>
            <DistanceMeters>NAN</DistanceMeters>
          </Trackpoint>
          <Trackpoint>
            <Time>2021-04-01T11:13:43.000Z</Time>
            <Position>
              <LatitudeDegrees>42.423967905342578887939453125</LatitudeDegrees>
              <LongitudeDegrees>2.7376068569719791412353515625</LongitudeDegrees>
            </Position>
            <AltitudeMeters>1311.800048828125</AltitudeMeters>
            <DistanceMeters>NAN</DistanceMeters>
          </Trackpoint>
          <Trackpoint>
            <Time>2021-04-01T11:13:44.000Z</Time>
            <Position>
              <LatitudeDegrees>42.42396798916161060333251953125</LatitudeDegrees>
              <LongitudeDegrees>2.73760677315294742584228515625</LongitudeDegrees>
            </Position>
            <AltitudeMeters>1311.800048828125</AltitudeMeters>
            <DistanceMeters>NAN</DistanceMeters>
          </Trackpoint>
          <Trackpoint>
            <Time>2021-04-01T11:13:48.000Z</Time>
            <Position>
              <LatitudeDegrees>42.4239684082567691802978515625</LatitudeDegrees>
              <LongitudeDegrees>2.73760643787682056427001953125</LongitudeDegrees>
            </Position>
            <AltitudeMeters>1312.4000244140625</AltitudeMeters>
            <DistanceMeters>NAN</DistanceMeters>
          </Trackpoint>
          <Trackpoint>
            <Time>2021-04-01T11:13:50.000Z</Time>
            <Position>
              <LatitudeDegrees>42.42396865971386432647705078125</LatitudeDegrees>
              <LongitudeDegrees>2.7376061864197254180908203125</LongitudeDegrees>
            </Position>
            <AltitudeMeters>1312.5999755859375</AltitudeMeters>
            <DistanceMeters>NAN</DistanceMeters>
          </Trackpoint>
          <Trackpoint>
            <Time>2021-04-01T11:13:57.000Z</Time>
            <Position>
              <LatitudeDegrees>42.4239697493612766265869140625</LatitudeDegrees>
              <LongitudeDegrees>2.737604677677154541015625</LongitudeDegrees>
            </Position>
            <AltitudeMeters>1313.4000244140625</AltitudeMeters>
            <DistanceMeters>NAN</DistanceMeters>
          </Trackpoint>
          <Trackpoint>
            <Time>2021-04-01T11:13:58.000Z</Time>
            <Position>
              <LatitudeDegrees>42.423969916999340057373046875</LatitudeDegrees>
              <LongitudeDegrees>2.73760442622005939483642578125</LongitudeDegrees>
            </Position>
            <AltitudeMeters>1313.5999755859375</AltitudeMeters>
            <DistanceMeters>NAN</DistanceMeters>
          </Trackpoint>
          <Trackpoint>
            <Time>2021-04-01T11:14:04.000Z</Time>
            <Position>
              <LatitudeDegrees>42.42397100664675235748291015625</LatitudeDegrees>
              <LongitudeDegrees>2.73760308511555194854736328125</LongitudeDegrees>
            </Position>
            <AltitudeMeters>1314.199951171875</AltitudeMeters>
            <DistanceMeters>NAN</DistanceMeters>
          </Trackpoint>
          <Trackpoint>
            <Time>2021-04-01T11:14:07.000Z</Time>
            <Position>
              <LatitudeDegrees>42.423971593379974365234375</LatitudeDegrees>
              <LongitudeDegrees>2.73760241456329822540283203125</LongitudeDegrees>
            </Position>
            <AltitudeMeters>1314.5999755859375</AltitudeMeters>
            <DistanceMeters>NAN</DistanceMeters>
          </Trackpoint>
          <Trackpoint>
            <Time>2021-04-01T11:14:09.000Z</Time>
            <Position>
              <LatitudeDegrees>42.423971928656101226806640625</LatitudeDegrees>
              <LongitudeDegrees>2.7376019954681396484375</LongitudeDegrees>
            </Position>
            <AltitudeMeters>1314.800048828125</AltitudeMeters>
            <DistanceMeters>NAN</DistanceMeters>
          </Trackpoint>
          <Trackpoint>
            <Time>2021-04-01T11:14:14.000Z</Time>
            <Position>
              <LatitudeDegrees>42.42397301830351352691650390625</LatitudeDegrees>
              <LongitudeDegrees>2.73760073818266391754150390625</LongitudeDegrees>
            </Position>
            <AltitudeMeters>1315.199951171875</AltitudeMeters>
            <DistanceMeters>NAN</DistanceMeters>
          </Trackpoint>
          <Trackpoint>
            <Time>2021-04-01T11:14:18.000Z</Time>
            <Position>
              <LatitudeDegrees>42.42397385649383068084716796875</LatitudeDegrees>
              <LongitudeDegrees>2.73759973235428333282470703125</LongitudeDegrees>
            </Position>
            <AltitudeMeters>1315.5999755859375</AltitudeMeters>
            <DistanceMeters>NAN</DistanceMeters>
          </Trackpoint>
          <Trackpoint>
            <Time>2021-04-01T11:14:30.000Z</Time>
            <Position>
              <LatitudeDegrees>42.423976622521877288818359375</LatitudeDegrees>
              <LongitudeDegrees>2.7375961281359195709228515625</LongitudeDegrees>
            </Position>
            <AltitudeMeters>1316.800048828125</AltitudeMeters>
            <DistanceMeters>NAN</DistanceMeters>
          </Trackpoint>
          <Trackpoint>
            <Time>2021-04-01T11:14:41.000Z</Time>
            <Position>
              <LatitudeDegrees>42.423979304730892181396484375</LatitudeDegrees>
              <LongitudeDegrees>2.7375917695462703704833984375</LongitudeDegrees>
            </Position>
            <AltitudeMeters>1317.800048828125</AltitudeMeters>
            <DistanceMeters>NAN</DistanceMeters>
          </Trackpoint>
          <Trackpoint>
            <Time>2021-04-01T11:14:47.000Z</Time>
            <Position>
              <LatitudeDegrees>42.4239809811115264892578125</LatitudeDegrees>
              <LongitudeDegrees>2.737588919699192047119140625</LongitudeDegrees>
            </Position>
            <AltitudeMeters>1318.800048828125</AltitudeMeters>
            <DistanceMeters>NAN</DistanceMeters>
          </Trackpoint>
          <Trackpoint>
            <Time>2021-04-01T11:14:59.000Z</Time>
            <Position>
              <LatitudeDegrees>42.42398475296795368194580078125</LatitudeDegrees>
              <LongitudeDegrees>2.7375827170908451080322265625</LongitudeDegrees>
            </Position>
            <AltitudeMeters>1320</AltitudeMeters>
            <DistanceMeters>NAN</DistanceMeters>
          </Trackpoint>
          <Trackpoint>
            <Time>2021-04-01T11:15:09.000Z</Time>
            <Position>
              <LatitudeDegrees>42.423988021910190582275390625</LatitudeDegrees>
              <LongitudeDegrees>2.737576849758625030517578125</LongitudeDegrees>
            </Position>
            <AltitudeMeters>1321</AltitudeMeters>
            <DistanceMeters>NAN</DistanceMeters>
          </Trackpoint>
          <Trackpoint>
            <Time>2021-04-01T11:15:19.000Z</Time>
            <Position>
              <LatitudeDegrees>42.4239917099475860595703125</LatitudeDegrees>
              <LongitudeDegrees>2.737570144236087799072265625</LongitudeDegrees>
            </Position>
            <AltitudeMeters>1322.199951171875</AltitudeMeters>
            <DistanceMeters>NAN</DistanceMeters>
          </Trackpoint>
          <Trackpoint>
            <Time>2021-04-01T11:15:29.000Z</Time>
            <Position>
              <LatitudeDegrees>42.42399598471820354461669921875</LatitudeDegrees>
              <LongitudeDegrees>2.73756251670420169830322265625</LongitudeDegrees>
            </Position>
            <AltitudeMeters>1323.4000244140625</AltitudeMeters>
            <DistanceMeters>NAN</DistanceMeters>
          </Trackpoint>
          <Trackpoint>
            <Time>2021-04-01T11:15:35.000Z</Time>
            <Position>
              <LatitudeDegrees>42.42399866692721843719482421875</LatitudeDegrees>
              <LongitudeDegrees>2.7375577390193939208984375</LongitudeDegrees>
            </Position>
            <AltitudeMeters>1324.5999755859375</AltitudeMeters>
            <DistanceMeters>NAN</DistanceMeters>
          </Trackpoint>
          <Trackpoint>
            <Time>2021-04-01T11:15:44.000Z</Time>
            <Position>
              <LatitudeDegrees>42.42400310933589935302734375</LatitudeDegrees>
              <LongitudeDegrees>2.73755044676363468170166015625</LongitudeDegrees>
            </Position>
            <AltitudeMeters>1325.5999755859375</AltitudeMeters>
            <DistanceMeters>NAN</DistanceMeters>
          </Trackpoint>
          <Trackpoint>
            <Time>2021-04-01T11:15:56.000Z</Time>
            <Position>
              <LatitudeDegrees>42.42400956340134143829345703125</LatitudeDegrees>
              <LongitudeDegrees>2.7375401370227336883544921875</LongitudeDegrees>
            </Position>
            <AltitudeMeters>1326.5999755859375</AltitudeMeters>
            <DistanceMeters>NAN</DistanceMeters>
          </Trackpoint>
          <Trackpoint>
            <Time>2021-04-01T11:16:01.000Z</Time>
            <Position>
              <LatitudeDegrees>42.4240123294293880462646484375</LatitudeDegrees>
              <LongitudeDegrees>2.7375357784330844879150390625</LongitudeDegrees>
            </Position>
            <AltitudeMeters>1327.199951171875</AltitudeMeters>
            <DistanceMeters>NAN</DistanceMeters>
          </Trackpoint>
          <Trackpoint>
            <Time>2021-04-01T11:16:05.000Z</Time>
            <Position>
              <LatitudeDegrees>42.424014508724212646484375</LatitudeDegrees>
              <LongitudeDegrees>2.73753225803375244140625</LongitudeDegrees>
            </Position>
            <AltitudeMeters>1327.800048828125</AltitudeMeters>
            <DistanceMeters>NAN</DistanceMeters>
          </Trackpoint>
          <Trackpoint>
            <Time>2021-04-01T11:16:09.000Z</Time>
            <Position>
              <LatitudeDegrees>42.42401660420000553131103515625</LatitudeDegrees>
              <LongitudeDegrees>2.7375287376344203948974609375</LongitudeDegrees>
            </Position>
            <AltitudeMeters>1328.4000244140625</AltitudeMeters>
            <DistanceMeters>NAN</DistanceMeters>
          </Trackpoint>
          <Trackpoint>
            <Time>2021-04-01T11:16:13.000Z</Time>
            <Position>
              <LatitudeDegrees>42.42401878349483013153076171875</LatitudeDegrees>
              <LongitudeDegrees>2.737525217235088348388671875</LongitudeDegrees>
            </Position>
            <AltitudeMeters>1328.800048828125</AltitudeMeters>
            <DistanceMeters>NAN</DistanceMeters>
          </Trackpoint>
          <Trackpoint>
            <Time>2021-04-01T11:16:14.000Z</Time>
            <Position>
              <LatitudeDegrees>42.42401928640902042388916015625</LatitudeDegrees>
              <LongitudeDegrees>2.73752429522573947906494140625</LongitudeDegrees>
            </Position>
            <AltitudeMeters>1329.199951171875</AltitudeMeters>
            <DistanceMeters>NAN</DistanceMeters>
          </Trackpoint>
          <Trackpoint>
            <Time>2021-04-01T11:16:20.000Z</Time>
            <Position>
              <LatitudeDegrees>42.4240223877131938934326171875</LatitudeDegrees>
              <LongitudeDegrees>2.737518846988677978515625</LongitudeDegrees>
            </Position>
            <AltitudeMeters>1330</AltitudeMeters>
            <DistanceMeters>NAN</DistanceMeters>
          </Trackpoint>
          <Trackpoint>
            <Time>2021-04-01T11:16:26.000Z</Time>
            <Position>
              <LatitudeDegrees>42.42402532137930393218994140625</LatitudeDegrees>
              <LongitudeDegrees>2.737513147294521331787109375</LongitudeDegrees>
            </Position>
            <AltitudeMeters>1331</AltitudeMeters>
            <DistanceMeters>NAN</DistanceMeters>
          </Trackpoint>
          <Trackpoint>
            <Time>2021-04-01T11:16:34.000Z</Time>
            <Position>
              <LatitudeDegrees>42.4240290932357311248779296875</LatitudeDegrees>
              <LongitudeDegrees>2.73750551976263523101806640625</LongitudeDegrees>
            </Position>
            <AltitudeMeters>1332.199951171875</AltitudeMeters>
            <DistanceMeters>NAN</DistanceMeters>
          </Trackpoint>
          <Trackpoint>
            <Time>2021-04-01T11:16:43.000Z</Time>
            <Position>
              <LatitudeDegrees>42.42403261363506317138671875</LatitudeDegrees>
              <LongitudeDegrees>2.73749680258333683013916015625</LongitudeDegrees>
            </Position>
            <AltitudeMeters>1333.199951171875</AltitudeMeters>
            <DistanceMeters>NAN</DistanceMeters>
          </Trackpoint>
          <Trackpoint>
            <Time>2021-04-01T11:16:49.000Z</Time>
            <Position>
              <LatitudeDegrees>42.42403470911085605621337890625</LatitudeDegrees>
              <LongitudeDegrees>2.73749093525111675262451171875</LongitudeDegrees>
            </Position>
            <AltitudeMeters>1334.199951171875</AltitudeMeters>
            <DistanceMeters>NAN</DistanceMeters>
          </Trackpoint>
          <Trackpoint>
            <Time>2021-04-01T11:16:52.000Z</Time>
            <Position>
              <LatitudeDegrees>42.42403571493923664093017578125</LatitudeDegrees>
              <LongitudeDegrees>2.73748791776597499847412109375</LongitudeDegrees>
            </Position>
            <AltitudeMeters>1334.800048828125</AltitudeMeters>
            <DistanceMeters>NAN</DistanceMeters>
          </Trackpoint>
          <Trackpoint>
            <Time>2021-04-01T11:16:54.000Z</Time>
            <Position>
              <LatitudeDegrees>42.42403638549149036407470703125</LatitudeDegrees>
              <LongitudeDegrees>2.73748590610921382904052734375</LongitudeDegrees>
            </Position>
            <AltitudeMeters>1335.199951171875</AltitudeMeters>
            <DistanceMeters>NAN</DistanceMeters>
          </Trackpoint>
          <Trackpoint>
            <Time>2021-04-01T11:17:04.000Z</Time>
            <Position>
              <LatitudeDegrees>42.42403923533856868743896484375</LatitudeDegrees>
              <LongitudeDegrees>2.73747601546347141265869140625</LongitudeDegrees>
            </Position>
            <AltitudeMeters>1336.4000244140625</AltitudeMeters>
            <DistanceMeters>NAN</DistanceMeters>
          </Trackpoint>
          <Trackpoint>
            <Time>2021-04-01T11:17:13.000Z</Time>
            <Position>
              <LatitudeDegrees>42.4240411631762981414794921875</LatitudeDegrees>
              <LongitudeDegrees>2.7374670468270778656005859375</LongitudeDegrees>
            </Position>
            <AltitudeMeters>1337.4000244140625</AltitudeMeters>
            <DistanceMeters>NAN</DistanceMeters>
          </Trackpoint>
          <Trackpoint>
            <Time>2021-04-01T11:17:20.000Z</Time>
            <Position>
              <LatitudeDegrees>42.4240425042808055877685546875</LatitudeDegrees>
              <LongitudeDegrees>2.7374600060284137725830078125</LongitudeDegrees>
            </Position>
            <AltitudeMeters>1338</AltitudeMeters>
            <DistanceMeters>NAN</DistanceMeters>
          </Trackpoint>
          <Trackpoint>
            <Time>2021-04-01T11:17:23.000Z</Time>
            <Position>
              <LatitudeDegrees>42.424043007194995880126953125</LatitudeDegrees>
              <LongitudeDegrees>2.7374569885432720184326171875</LongitudeDegrees>
            </Position>
            <AltitudeMeters>1338.4000244140625</AltitudeMeters>
            <DistanceMeters>NAN</DistanceMeters>
          </Trackpoint>
          <Trackpoint>
            <Time>2021-04-01T11:17:30.000Z</Time>
            <Position>
              <LatitudeDegrees>42.42404409684240818023681640625</LatitudeDegrees>
              <LongitudeDegrees>2.73744978010654449462890625</LongitudeDegrees>
            </Position>
            <AltitudeMeters>1339.4000244140625</AltitudeMeters>
            <DistanceMeters>NAN</DistanceMeters>
          </Trackpoint>
          <Trackpoint>
            <Time>2021-04-01T11:17:41.000Z</Time>
            <Position>
              <LatitudeDegrees>42.42404543794691562652587890625</LatitudeDegrees>
              <LongitudeDegrees>2.7374385483562946319580078125</LongitudeDegrees>
            </Position>
            <AltitudeMeters>1340.5999755859375</AltitudeMeters>
            <DistanceMeters>NAN</DistanceMeters>
          </Trackpoint>
          <Trackpoint>
            <Time>2021-04-01T11:17:46.000Z</Time>
            <Position>
              <LatitudeDegrees>42.42404594086110591888427734375</LatitudeDegrees>
              <LongitudeDegrees>2.73743326775729656219482421875</LongitudeDegrees>
            </Position>
            <AltitudeMeters>1341.5999755859375</AltitudeMeters>
            <DistanceMeters>NAN</DistanceMeters>
          </Trackpoint>
          <Trackpoint>
            <Time>2021-04-01T11:17:52.000Z</Time>
            <Position>
              <LatitudeDegrees>42.42404644377529621124267578125</LatitudeDegrees>
              <LongitudeDegrees>2.73742672987282276153564453125</LongitudeDegrees>
            </Position>
            <AltitudeMeters>1341.800048828125</AltitudeMeters>
            <DistanceMeters>NAN</DistanceMeters>
          </Trackpoint>
          <Trackpoint>
            <Time>2021-04-01T11:17:55.000Z</Time>
            <Position>
              <LatitudeDegrees>42.42404661141335964202880859375</LatitudeDegrees>
              <LongitudeDegrees>2.73742337711155414581298828125</LongitudeDegrees>
            </Position>
            <AltitudeMeters>1341.800048828125</AltitudeMeters>
            <DistanceMeters>NAN</DistanceMeters>
          </Trackpoint>
          <Trackpoint>
            <Time>2021-04-01T11:17:58.000Z</Time>
            <Position>
              <LatitudeDegrees>42.42404677905142307281494140625</LatitudeDegrees>
              <LongitudeDegrees>2.7374201081693172454833984375</LongitudeDegrees>
            </Position>
            <AltitudeMeters>1342.199951171875</AltitudeMeters>
            <DistanceMeters>NAN</DistanceMeters>
          </Trackpoint>
          <Trackpoint>
            <Time>2021-04-01T11:17:59.000Z</Time>
            <Position>
              <LatitudeDegrees>42.4240468628704547882080078125</LatitudeDegrees>
              <LongitudeDegrees>2.73741901852190494537353515625</LongitudeDegrees>
            </Position>
            <AltitudeMeters>1342.800048828125</AltitudeMeters>
            <DistanceMeters>NAN</DistanceMeters>
          </Trackpoint>
          <Trackpoint>
            <Time>2021-04-01T11:18:03.000Z</Time>
            <Position>
              <LatitudeDegrees>42.42404711432754993438720703125</LatitudeDegrees>
              <LongitudeDegrees>2.737414576113224029541015625</LongitudeDegrees>
            </Position>
            <AltitudeMeters>1343.5999755859375</AltitudeMeters>
            <DistanceMeters>NAN</DistanceMeters>
          </Trackpoint>
          <Trackpoint>
            <Time>2021-04-01T11:18:04.000Z</Time>
            <Position>
              <LatitudeDegrees>42.4240471981465816497802734375</LatitudeDegrees>
              <LongitudeDegrees>2.73741348646581172943115234375</LongitudeDegrees>
            </Position>
            <AltitudeMeters>1343.800048828125</AltitudeMeters>
            <DistanceMeters>NAN</DistanceMeters>
          </Trackpoint>
          <Trackpoint>
            <Time>2021-04-01T11:18:08.000Z</Time>
            <Position>
              <LatitudeDegrees>42.42404728196561336517333984375</LatitudeDegrees>
              <LongitudeDegrees>2.7374088764190673828125</LongitudeDegrees>
            </Position>
            <AltitudeMeters>1344.800048828125</AltitudeMeters>
            <DistanceMeters>NAN</DistanceMeters>
          </Trackpoint>
          <Trackpoint>
            <Time>2021-04-01T11:18:09.000Z</Time>
            <Position>
              <LatitudeDegrees>42.42404728196561336517333984375</LatitudeDegrees>
              <LongitudeDegrees>2.7374077029526233673095703125</LongitudeDegrees>
            </Position>
            <AltitudeMeters>1345.199951171875</AltitudeMeters>
            <DistanceMeters>NAN</DistanceMeters>
          </Trackpoint>
          <Trackpoint>
            <Time>2021-04-01T11:18:13.000Z</Time>
            <Position>
              <LatitudeDegrees>42.42404728196561336517333984375</LatitudeDegrees>
              <LongitudeDegrees>2.73740309290587902069091796875</LongitudeDegrees>
            </Position>
            <AltitudeMeters>1345.800048828125</AltitudeMeters>
            <DistanceMeters>NAN</DistanceMeters>
          </Trackpoint>
          <Trackpoint>
            <Time>2021-04-01T11:18:16.000Z</Time>
            <Position>
              <LatitudeDegrees>42.42404728196561336517333984375</LatitudeDegrees>
              <LongitudeDegrees>2.7373994886875152587890625</LongitudeDegrees>
            </Position>
            <AltitudeMeters>1346</AltitudeMeters>
            <DistanceMeters>NAN</DistanceMeters>
          </Trackpoint>
          <Trackpoint>
            <Time>2021-04-01T11:18:20.000Z</Time>
            <Position>
              <LatitudeDegrees>42.4240471981465816497802734375</LatitudeDegrees>
              <LongitudeDegrees>2.73739479482173919677734375</LongitudeDegrees>
            </Position>
            <AltitudeMeters>1346.4000244140625</AltitudeMeters>
            <DistanceMeters>NAN</DistanceMeters>
          </Trackpoint>
          <Trackpoint>
            <Time>2021-04-01T11:18:24.000Z</Time>
            <Position>
              <LatitudeDegrees>42.424047030508518218994140625</LatitudeDegrees>
              <LongitudeDegrees>2.73739001713693141937255859375</LongitudeDegrees>
            </Position>
            <AltitudeMeters>1347.4000244140625</AltitudeMeters>
            <DistanceMeters>NAN</DistanceMeters>
          </Trackpoint>
          <Trackpoint>
            <Time>2021-04-01T11:18:30.000Z</Time>
            <Position>
              <LatitudeDegrees>42.4240468628704547882080078125</LatitudeDegrees>
              <LongitudeDegrees>2.73738247342407703399658203125</LongitudeDegrees>
            </Position>
            <AltitudeMeters>1348.4000244140625</AltitudeMeters>
            <DistanceMeters>NAN</DistanceMeters>
          </Trackpoint>
          <Trackpoint>
            <Time>2021-04-01T11:18:32.000Z</Time>
            <Position>
              <LatitudeDegrees>42.42404677905142307281494140625</LatitudeDegrees>
              <LongitudeDegrees>2.73737995885312557220458984375</LongitudeDegrees>
            </Position>
            <AltitudeMeters>1348.5999755859375</AltitudeMeters>
            <DistanceMeters>NAN</DistanceMeters>
          </Trackpoint>
          <Trackpoint>
            <Time>2021-04-01T11:18:41.000Z</Time>
            <Position>
              <LatitudeDegrees>42.4240465275943279266357421875</LatitudeDegrees>
              <LongitudeDegrees>2.73736797273159027099609375</LongitudeDegrees>
            </Position>
            <AltitudeMeters>1349.5999755859375</AltitudeMeters>
            <DistanceMeters>NAN</DistanceMeters>
          </Trackpoint>
          <Trackpoint>
            <Time>2021-04-01T11:18:50.000Z</Time>
            <Position>
              <LatitudeDegrees>42.4240465275943279266357421875</LatitudeDegrees>
              <LongitudeDegrees>2.737355567514896392822265625</LongitudeDegrees>
            </Position>
            <AltitudeMeters>1350.800048828125</AltitudeMeters>
            <DistanceMeters>NAN</DistanceMeters>
          </Trackpoint>
          <Trackpoint>
            <Time>2021-04-01T11:19:02.000Z</Time>
            <Position>
              <LatitudeDegrees>42.424046695232391357421875</LatitudeDegrees>
              <LongitudeDegrees>2.73733838461339473724365234375</LongitudeDegrees>
            </Position>
            <AltitudeMeters>1351.800048828125</AltitudeMeters>
            <DistanceMeters>NAN</DistanceMeters>
          </Trackpoint>
          <Trackpoint>
            <Time>2021-04-01T11:19:09.000Z</Time>
            <Position>
              <LatitudeDegrees>42.42404711432754993438720703125</LatitudeDegrees>
              <LongitudeDegrees>2.737328074872493743896484375</LongitudeDegrees>
            </Position>
            <AltitudeMeters>1352.199951171875</AltitudeMeters>
            <DistanceMeters>NAN</DistanceMeters>
          </Trackpoint>
          <Trackpoint>
            <Time>2021-04-01T11:19:14.000Z</Time>
            <Position>
              <LatitudeDegrees>42.42404761724174022674560546875</LatitudeDegrees>
              <LongitudeDegrees>2.73732044734060764312744140625</LongitudeDegrees>
            </Position>
            <AltitudeMeters>1352.800048828125</AltitudeMeters>
            <DistanceMeters>NAN</DistanceMeters>
          </Trackpoint>
          <Trackpoint>
            <Time>2021-04-01T11:19:19.000Z</Time>
            <Position>
              <LatitudeDegrees>42.42404812015593051910400390625</LatitudeDegrees>
              <LongitudeDegrees>2.7373128198087215423583984375</LongitudeDegrees>
            </Position>
            <AltitudeMeters>1354</AltitudeMeters>
            <DistanceMeters>NAN</DistanceMeters>
          </Trackpoint>
          <Trackpoint>
            <Time>2021-04-01T11:19:32.000Z</Time>
            <Position>
              <LatitudeDegrees>42.42404962889850139617919921875</LatitudeDegrees>
              <LongitudeDegrees>2.7372927032411098480224609375</LongitudeDegrees>
            </Position>
            <AltitudeMeters>1355</AltitudeMeters>
            <DistanceMeters>NAN</DistanceMeters>
          </Trackpoint>
          <Trackpoint>
            <Time>2021-04-01T11:19:39.000Z</Time>
            <Position>
              <LatitudeDegrees>42.42405046708881855010986328125</LatitudeDegrees>
              <LongitudeDegrees>2.73728172294795513153076171875</LongitudeDegrees>
            </Position>
            <AltitudeMeters>1356.199951171875</AltitudeMeters>
            <DistanceMeters>NAN</DistanceMeters>
          </Trackpoint>
          <Trackpoint>
            <Time>2021-04-01T11:19:54.000Z</Time>
            <Position>
              <LatitudeDegrees>42.42405281402170658111572265625</LatitudeDegrees>
              <LongitudeDegrees>2.73725775070488452911376953125</LongitudeDegrees>
            </Position>
            <AltitudeMeters>1357.199951171875</AltitudeMeters>
            <DistanceMeters>NAN</DistanceMeters>
          </Trackpoint>
          <Trackpoint>
            <Time>2021-04-01T11:20:03.000Z</Time>
            <Position>
              <LatitudeDegrees>42.42405465804040431976318359375</LatitudeDegrees>
              <LongitudeDegrees>2.73724299855530261993408203125</LongitudeDegrees>
            </Position>
            <AltitudeMeters>1358.4000244140625</AltitudeMeters>
            <DistanceMeters>NAN</DistanceMeters>
          </Trackpoint>
          <Trackpoint>
            <Time>2021-04-01T11:20:09.000Z</Time>
            <Position>
              <LatitudeDegrees>42.4240560829639434814453125</LatitudeDegrees>
              <LongitudeDegrees>2.737232856452465057373046875</LongitudeDegrees>
            </Position>
            <AltitudeMeters>1358.5999755859375</AltitudeMeters>
            <DistanceMeters>NAN</DistanceMeters>
          </Trackpoint>
          <Trackpoint>
            <Time>2021-04-01T11:20:15.000Z</Time>
            <Position>
              <LatitudeDegrees>42.4240575917065143585205078125</LatitudeDegrees>
              <LongitudeDegrees>2.7372224628925323486328125</LongitudeDegrees>
            </Position>
            <AltitudeMeters>1359.4000244140625</AltitudeMeters>
            <DistanceMeters>NAN</DistanceMeters>
          </Trackpoint>
          <Trackpoint>
            <Time>2021-04-01T11:20:23.000Z</Time>
            <Position>
              <LatitudeDegrees>42.42405968718230724334716796875</LatitudeDegrees>
              <LongitudeDegrees>2.7372082136571407318115234375</LongitudeDegrees>
            </Position>
            <AltitudeMeters>1360</AltitudeMeters>
            <DistanceMeters>NAN</DistanceMeters>
          </Trackpoint>
          <Trackpoint>
            <Time>2021-04-01T11:20:24.000Z</Time>
            <Position>
              <LatitudeDegrees>42.4240599386394023895263671875</LatitudeDegrees>
              <LongitudeDegrees>2.73720645345747470855712890625</LongitudeDegrees>
            </Position>
            <AltitudeMeters>1360.199951171875</AltitudeMeters>
            <DistanceMeters>NAN</DistanceMeters>
          </Trackpoint>
          <Trackpoint>
            <Time>2021-04-01T11:20:25.000Z</Time>
            <Position>
              <LatitudeDegrees>42.42406019009649753570556640625</LatitudeDegrees>
              <LongitudeDegrees>2.737204693257808685302734375</LongitudeDegrees>
            </Position>
            <AltitudeMeters>1360.4000244140625</AltitudeMeters>
            <DistanceMeters>NAN</DistanceMeters>
          </Trackpoint>
          <Trackpoint>
            <Time>2021-04-01T11:20:27.000Z</Time>
            <Position>
              <LatitudeDegrees>42.42406077682971954345703125</LatitudeDegrees>
              <LongitudeDegrees>2.73720108903944492340087890625</LongitudeDegrees>
            </Position>
            <AltitudeMeters>1360.5999755859375</AltitudeMeters>
            <DistanceMeters>NAN</DistanceMeters>
          </Trackpoint>
          <Trackpoint>
            <Time>2021-04-01T11:20:36.000Z</Time>
            <Position>
              <LatitudeDegrees>42.42406303994357585906982421875</LatitudeDegrees>
              <LongitudeDegrees>2.73718466050922870635986328125</LongitudeDegrees>
            </Position>
            <AltitudeMeters>1361.199951171875</AltitudeMeters>
            <DistanceMeters>NAN</DistanceMeters>
          </Trackpoint>
          <Trackpoint>
            <Time>2021-04-01T11:20:38.000Z</Time>
            <Position>
              <LatitudeDegrees>42.42406354285776615142822265625</LatitudeDegrees>
              <LongitudeDegrees>2.73718097247183322906494140625</LongitudeDegrees>
            </Position>
            <AltitudeMeters>1361.4000244140625</AltitudeMeters>
            <DistanceMeters>NAN</DistanceMeters>
          </Trackpoint>
          <Trackpoint>
            <Time>2021-04-01T11:20:40.000Z</Time>
            <Position>
              <LatitudeDegrees>42.42406404577195644378662109375</LatitudeDegrees>
              <LongitudeDegrees>2.73717728443443775177001953125</LongitudeDegrees>
            </Position>
            <AltitudeMeters>1361.5999755859375</AltitudeMeters>
            <DistanceMeters>NAN</DistanceMeters>
          </Trackpoint>
          <Trackpoint>
            <Time>2021-04-01T11:20:42.000Z</Time>
            <Position>
              <LatitudeDegrees>42.424064464867115020751953125</LatitudeDegrees>
              <LongitudeDegrees>2.73717359639704227447509765625</LongitudeDegrees>
            </Position>
            <AltitudeMeters>1362.199951171875</AltitudeMeters>
            <DistanceMeters>NAN</DistanceMeters>
          </Trackpoint>
          <Trackpoint>
            <Time>2021-04-01T11:20:44.000Z</Time>
            <Position>
              <LatitudeDegrees>42.4240649677813053131103515625</LatitudeDegrees>
              <LongitudeDegrees>2.737169824540615081787109375</LongitudeDegrees>
            </Position>
            <AltitudeMeters>1362.5999755859375</AltitudeMeters>
            <DistanceMeters>NAN</DistanceMeters>
          </Trackpoint>
          <Trackpoint>
            <Time>2021-04-01T11:20:46.000Z</Time>
            <Position>
              <LatitudeDegrees>42.42406547069549560546875</LatitudeDegrees>
              <LongitudeDegrees>2.73716605268418788909912109375</LongitudeDegrees>
            </Position>
            <AltitudeMeters>1362.800048828125</AltitudeMeters>
            <DistanceMeters>NAN</DistanceMeters>
          </Trackpoint>
          <Trackpoint>
            <Time>2021-04-01T11:20:48.000Z</Time>
            <Position>
              <LatitudeDegrees>42.42406588979065418243408203125</LatitudeDegrees>
              <LongitudeDegrees>2.73716236464679241180419921875</LongitudeDegrees>
            </Position>
            <AltitudeMeters>1363</AltitudeMeters>
            <DistanceMeters>NAN</DistanceMeters>
          </Trackpoint>
          <Trackpoint>
            <Time>2021-04-01T11:20:51.000Z</Time>
            <Position>
              <LatitudeDegrees>42.424066476523876190185546875</LatitudeDegrees>
              <LongitudeDegrees>2.73715674877166748046875</LongitudeDegrees>
            </Position>
            <AltitudeMeters>1363.5999755859375</AltitudeMeters>
            <DistanceMeters>NAN</DistanceMeters>
          </Trackpoint>
          <Trackpoint>
            <Time>2021-04-01T11:21:05.000Z</Time>
            <Position>
              <LatitudeDegrees>42.42406924255192279815673828125</LatitudeDegrees>
              <LongitudeDegrees>2.73713001050055027008056640625</LongitudeDegrees>
            </Position>
            <AltitudeMeters>1364.5999755859375</AltitudeMeters>
            <DistanceMeters>NAN</DistanceMeters>
          </Trackpoint>
          <Trackpoint>
            <Time>2021-04-01T11:21:09.000Z</Time>
            <Position>
              <LatitudeDegrees>42.4240699969232082366943359375</LatitudeDegrees>
              <LongitudeDegrees>2.737122215330600738525390625</LongitudeDegrees>
            </Position>
            <AltitudeMeters>1364.5999755859375</AltitudeMeters>
            <DistanceMeters>NAN</DistanceMeters>
          </Trackpoint>
          <Trackpoint>
            <Time>2021-04-01T11:21:13.000Z</Time>
            <Position>
              <LatitudeDegrees>42.4240706674754619598388671875</LatitudeDegrees>
              <LongitudeDegrees>2.7371143363416194915771484375</LongitudeDegrees>
            </Position>
            <AltitudeMeters>1365.199951171875</AltitudeMeters>
            <DistanceMeters>NAN</DistanceMeters>
          </Trackpoint>
          <Trackpoint>
            <Time>2021-04-01T11:21:20.000Z</Time>
            <Position>
              <LatitudeDegrees>42.42407175712287425994873046875</LatitudeDegrees>
              <LongitudeDegrees>2.73710050620138645172119140625</LongitudeDegrees>
            </Position>
            <AltitudeMeters>1365.800048828125</AltitudeMeters>
            <DistanceMeters>NAN</DistanceMeters>
          </Trackpoint>
          <Trackpoint>
            <Time>2021-04-01T11:21:27.000Z</Time>
            <Position>
              <LatitudeDegrees>42.42407284677028656005859375</LatitudeDegrees>
              <LongitudeDegrees>2.73708634078502655029296875</LongitudeDegrees>
            </Position>
            <AltitudeMeters>1366.800048828125</AltitudeMeters>
            <DistanceMeters>NAN</DistanceMeters>
          </Trackpoint>
          <Trackpoint>
            <Time>2021-04-01T11:21:39.000Z</Time>
            <Position>
              <LatitudeDegrees>42.4240748584270477294921875</LatitudeDegrees>
              <LongitudeDegrees>2.7370616979897022247314453125</LongitudeDegrees>
            </Position>
            <AltitudeMeters>1367.800048828125</AltitudeMeters>
            <DistanceMeters>NAN</DistanceMeters>
          </Trackpoint>
          <Trackpoint>
            <Time>2021-04-01T11:21:44.000Z</Time>
            <Position>
              <LatitudeDegrees>42.42407578043639659881591796875</LatitudeDegrees>
              <LongitudeDegrees>2.73705122061073780059814453125</LongitudeDegrees>
            </Position>
            <AltitudeMeters>1368.4000244140625</AltitudeMeters>
            <DistanceMeters>NAN</DistanceMeters>
          </Trackpoint>
          <Trackpoint>
            <Time>2021-04-01T11:21:52.000Z</Time>
            <Position>
              <LatitudeDegrees>42.4240773729979991912841796875</LatitudeDegrees>
              <LongitudeDegrees>2.737034372985363006591796875</LongitudeDegrees>
            </Position>
            <AltitudeMeters>1369</AltitudeMeters>
            <DistanceMeters>NAN</DistanceMeters>
          </Trackpoint>
          <Trackpoint>
            <Time>2021-04-01T11:21:57.000Z</Time>
            <Position>
              <LatitudeDegrees>42.42412607185542583465576171875</LatitudeDegrees>
              <LongitudeDegrees>2.7367374859750270843505859375</LongitudeDegrees>
            </Position>
            <AltitudeMeters>1370</AltitudeMeters>
            <DistanceMeters>NAN</DistanceMeters>
          </Trackpoint>
          <Trackpoint>
            <Time>2021-04-01T11:21:58.000Z</Time>
            <Position>
              <LatitudeDegrees>42.42414937354624271392822265625</LatitudeDegrees>
              <LongitudeDegrees>2.7365882880985736846923828125</LongitudeDegrees>
            </Position>
            <AltitudeMeters>1370</AltitudeMeters>
            <DistanceMeters>NAN</DistanceMeters>
          </Trackpoint>
          <Trackpoint>
            <Time>2021-04-01T11:22:00.000Z</Time>
            <Position>
              <LatitudeDegrees>42.42419756948947906494140625</LatitudeDegrees>
              <LongitudeDegrees>2.736294753849506378173828125</LongitudeDegrees>
            </Position>
            <AltitudeMeters>1370.199951171875</AltitudeMeters>
            <DistanceMeters>NAN</DistanceMeters>
          </Trackpoint>
          <Trackpoint>
            <Time>2021-04-01T11:22:02.000Z</Time>
            <Position>
              <LatitudeDegrees>42.42424040101468563079833984375</LatitudeDegrees>
              <LongitudeDegrees>2.73600012995302677154541015625</LongitudeDegrees>
            </Position>
            <AltitudeMeters>1370.4000244140625</AltitudeMeters>
            <DistanceMeters>NAN</DistanceMeters>
          </Trackpoint>
          <Trackpoint>
            <Time>2021-04-01T11:22:04.000Z</Time>
            <Position>
              <LatitudeDegrees>42.42428163997828960418701171875</LatitudeDegrees>
              <LongitudeDegrees>2.7357051707804203033447265625</LongitudeDegrees>
            </Position>
            <AltitudeMeters>1370.5999755859375</AltitudeMeters>
            <DistanceMeters>NAN</DistanceMeters>
          </Trackpoint>
          <Trackpoint>
            <Time>2021-04-01T11:22:07.000Z</Time>
            <Position>
              <LatitudeDegrees>42.42430980317294597625732421875</LatitudeDegrees>
              <LongitudeDegrees>2.73555345833301544189453125</LongitudeDegrees>
            </Position>
            <AltitudeMeters>1371</AltitudeMeters>
            <DistanceMeters>NAN</DistanceMeters>
          </Trackpoint>
          <Trackpoint>
            <Time>2021-04-01T11:22:12.000Z</Time>
            <Position>
              <LatitudeDegrees>42.42430862970650196075439453125</LatitudeDegrees>
              <LongitudeDegrees>2.73553594015538692474365234375</LongitudeDegrees>
            </Position>
            <AltitudeMeters>1371.199951171875</AltitudeMeters>
            <DistanceMeters>NAN</DistanceMeters>
          </Trackpoint>
          <Trackpoint>
            <Time>2021-04-01T11:22:13.000Z</Time>
            <Position>
              <LatitudeDegrees>42.42430829443037509918212890625</LatitudeDegrees>
              <LongitudeDegrees>2.73553241975605487823486328125</LongitudeDegrees>
            </Position>
            <AltitudeMeters>1371.199951171875</AltitudeMeters>
            <DistanceMeters>NAN</DistanceMeters>
          </Trackpoint>
          <Trackpoint>
            <Time>2021-04-01T11:22:16.000Z</Time>
            <Position>
              <LatitudeDegrees>42.4242869205772876739501953125</LatitudeDegrees>
              <LongitudeDegrees>2.73551993072032928466796875</LongitudeDegrees>
            </Position>
            <AltitudeMeters>1371.4000244140625</AltitudeMeters>
            <DistanceMeters>NAN</DistanceMeters>
          </Trackpoint>
          <Trackpoint>
            <Time>2021-04-01T11:22:20.000Z</Time>
            <Position>
              <LatitudeDegrees>42.424278371036052703857421875</LatitudeDegrees>
              <LongitudeDegrees>2.7354952879250049591064453125</LongitudeDegrees>
            </Position>
            <AltitudeMeters>1372</AltitudeMeters>
            <DistanceMeters>NAN</DistanceMeters>
          </Trackpoint>
          <Trackpoint>
            <Time>2021-04-01T11:22:21.000Z</Time>
            <Position>
              <LatitudeDegrees>42.42427803575992584228515625</LatitudeDegrees>
              <LongitudeDegrees>2.73548380471765995025634765625</LongitudeDegrees>
            </Position>
            <AltitudeMeters>1372.199951171875</AltitudeMeters>
            <DistanceMeters>NAN</DistanceMeters>
          </Trackpoint>
          <Trackpoint>
            <Time>2021-04-01T11:22:28.000Z</Time>
            <Position>
              <LatitudeDegrees>42.42429270409047603607177734375</LatitudeDegrees>
              <LongitudeDegrees>2.7354466728866100311279296875</LongitudeDegrees>
            </Position>
            <AltitudeMeters>1372.800048828125</AltitudeMeters>
            <DistanceMeters>NAN</DistanceMeters>
          </Trackpoint>
          <Trackpoint>
            <Time>2021-04-01T11:22:33.000Z</Time>
            <Position>
              <LatitudeDegrees>42.424268312752246856689453125</LatitudeDegrees>
              <LongitudeDegrees>2.7354255504906177520751953125</LongitudeDegrees>
            </Position>
            <AltitudeMeters>1373</AltitudeMeters>
            <DistanceMeters>NAN</DistanceMeters>
          </Trackpoint>
          <Trackpoint>
            <Time>2021-04-01T11:22:36.000Z</Time>
            <Position>
              <LatitudeDegrees>42.4242735095322132110595703125</LatitudeDegrees>
              <LongitudeDegrees>2.735423035919666290283203125</LongitudeDegrees>
            </Position>
            <AltitudeMeters>1373</AltitudeMeters>
            <DistanceMeters>NAN</DistanceMeters>
          </Trackpoint>
          <Trackpoint>
            <Time>2021-04-01T11:22:41.000Z</Time>
            <Position>
              <LatitudeDegrees>42.424270994961261749267578125</LatitudeDegrees>
              <LongitudeDegrees>2.73540115915238857269287109375</LongitudeDegrees>
            </Position>
            <AltitudeMeters>1373.199951171875</AltitudeMeters>
            <DistanceMeters>NAN</DistanceMeters>
          </Trackpoint>
          <Trackpoint>
            <Time>2021-04-01T11:22:45.000Z</Time>
            <Position>
              <LatitudeDegrees>42.4242664687335491180419921875</LatitudeDegrees>
              <LongitudeDegrees>2.73538640700280666351318359375</LongitudeDegrees>
            </Position>
            <AltitudeMeters>1373.800048828125</AltitudeMeters>
            <DistanceMeters>NAN</DistanceMeters>
          </Trackpoint>
          <Trackpoint>
            <Time>2021-04-01T11:22:48.000Z</Time>
            <Position>
              <LatitudeDegrees>42.42425800301134586334228515625</LatitudeDegrees>
              <LongitudeDegrees>2.73537785746157169342041015625</LongitudeDegrees>
            </Position>
            <AltitudeMeters>1374.4000244140625</AltitudeMeters>
            <DistanceMeters>NAN</DistanceMeters>
          </Trackpoint>
          <Trackpoint>
            <Time>2021-04-01T11:22:53.000Z</Time>
            <Position>
              <LatitudeDegrees>42.42425297386944293975830078125</LatitudeDegrees>
              <LongitudeDegrees>2.735356651246547698974609375</LongitudeDegrees>
            </Position>
            <AltitudeMeters>1375.4000244140625</AltitudeMeters>
            <DistanceMeters>NAN</DistanceMeters>
          </Trackpoint>
          <Trackpoint>
            <Time>2021-04-01T11:22:54.000Z</Time>
            <Position>
              <LatitudeDegrees>42.424251548945903778076171875</LatitudeDegrees>
              <LongitudeDegrees>2.7353511191904544830322265625</LongitudeDegrees>
            </Position>
            <AltitudeMeters>1375.5999755859375</AltitudeMeters>
            <DistanceMeters>NAN</DistanceMeters>
          </Trackpoint>
          <Trackpoint>
            <Time>2021-04-01T11:23:01.000Z</Time>
            <Position>
              <LatitudeDegrees>42.424239479005336761474609375</LatitudeDegrees>
              <LongitudeDegrees>2.73530828766524791717529296875</LongitudeDegrees>
            </Position>
            <AltitudeMeters>1376.199951171875</AltitudeMeters>
            <DistanceMeters>NAN</DistanceMeters>
          </Trackpoint>
          <Trackpoint>
            <Time>2021-04-01T11:23:08.000Z</Time>
            <Position>
              <LatitudeDegrees>42.4242369644343852996826171875</LatitudeDegrees>
              <LongitudeDegrees>2.7352723293006420135498046875</LongitudeDegrees>
            </Position>
            <AltitudeMeters>1376.4000244140625</AltitudeMeters>
            <DistanceMeters>NAN</DistanceMeters>
          </Trackpoint>
          <Trackpoint>
            <Time>2021-04-01T11:23:10.000Z</Time>
            <Position>
              <LatitudeDegrees>42.424238808453083038330078125</LatitudeDegrees>
              <LongitudeDegrees>2.73525950498878955841064453125</LongitudeDegrees>
            </Position>
            <AltitudeMeters>1377</AltitudeMeters>
            <DistanceMeters>NAN</DistanceMeters>
          </Trackpoint>
          <Trackpoint>
            <Time>2021-04-01T11:23:12.000Z</Time>
            <Position>
              <LatitudeDegrees>42.42423721589148044586181640625</LatitudeDegrees>
              <LongitudeDegrees>2.735238969326019287109375</LongitudeDegrees>
            </Position>
            <AltitudeMeters>1377.5999755859375</AltitudeMeters>
            <DistanceMeters>NAN</DistanceMeters>
          </Trackpoint>
          <Trackpoint>
            <Time>2021-04-01T11:23:18.000Z</Time>
            <Position>
              <LatitudeDegrees>42.4242372997105121612548828125</LatitudeDegrees>
              <LongitudeDegrees>2.73518725298345088958740234375</LongitudeDegrees>
            </Position>
            <AltitudeMeters>1378.5999755859375</AltitudeMeters>
            <DistanceMeters>NAN</DistanceMeters>
          </Trackpoint>
          <Trackpoint>
            <Time>2021-04-01T11:23:19.000Z</Time>
            <Position>
              <LatitudeDegrees>42.4242429994046688079833984375</LatitudeDegrees>
              <LongitudeDegrees>2.73517820052802562713623046875</LongitudeDegrees>
            </Position>
            <AltitudeMeters>1378.5999755859375</AltitudeMeters>
            <DistanceMeters>NAN</DistanceMeters>
          </Trackpoint>
          <Trackpoint>
            <Time>2021-04-01T11:23:25.000Z</Time>
            <Position>
              <LatitudeDegrees>42.42425817064940929412841796875</LatitudeDegrees>
              <LongitudeDegrees>2.7351244725286960601806640625</LongitudeDegrees>
            </Position>
            <AltitudeMeters>1379.4000244140625</AltitudeMeters>
            <DistanceMeters>NAN</DistanceMeters>
          </Trackpoint>
          <Trackpoint>
            <Time>2021-04-01T11:23:27.000Z</Time>
            <Position>
              <LatitudeDegrees>42.42425431497395038604736328125</LatitudeDegrees>
              <LongitudeDegrees>2.73511952720582485198974609375</LongitudeDegrees>
            </Position>
            <AltitudeMeters>1379.5999755859375</AltitudeMeters>
            <DistanceMeters>NAN</DistanceMeters>
          </Trackpoint>
          <Trackpoint>
            <Time>2021-04-01T11:23:30.000Z</Time>
            <Position>
              <LatitudeDegrees>42.424242831766605377197265625</LatitudeDegrees>
              <LongitudeDegrees>2.73512992076575756072998046875</LongitudeDegrees>
            </Position>
            <AltitudeMeters>1379.800048828125</AltitudeMeters>
            <DistanceMeters>NAN</DistanceMeters>
          </Trackpoint>
          <Trackpoint>
            <Time>2021-04-01T11:23:36.000Z</Time>
            <Position>
              <LatitudeDegrees>42.4242277443408966064453125</LatitudeDegrees>
              <LongitudeDegrees>2.73511952720582485198974609375</LongitudeDegrees>
            </Position>
            <AltitudeMeters>1380.4000244140625</AltitudeMeters>
            <DistanceMeters>NAN</DistanceMeters>
          </Trackpoint>
          <Trackpoint>
            <Time>2021-04-01T11:23:38.000Z</Time>
            <Position>
              <LatitudeDegrees>42.42422414012253284454345703125</LatitudeDegrees>
              <LongitudeDegrees>2.73510687053203582763671875</LongitudeDegrees>
            </Position>
            <AltitudeMeters>1380.800048828125</AltitudeMeters>
            <DistanceMeters>NAN</DistanceMeters>
          </Trackpoint>
          <Trackpoint>
            <Time>2021-04-01T11:23:44.000Z</Time>
            <Position>
              <LatitudeDegrees>42.42424325086176395416259765625</LatitudeDegrees>
              <LongitudeDegrees>2.73504777811467647552490234375</LongitudeDegrees>
            </Position>
            <AltitudeMeters>1381.5999755859375</AltitudeMeters>
            <DistanceMeters>NAN</DistanceMeters>
          </Trackpoint>
          <Trackpoint>
            <Time>2021-04-01T11:23:48.000Z</Time>
            <Position>
              <LatitudeDegrees>42.42424626834690570831298828125</LatitudeDegrees>
              <LongitudeDegrees>2.73502799682319164276123046875</LongitudeDegrees>
            </Position>
            <AltitudeMeters>1381.800048828125</AltitudeMeters>
            <DistanceMeters>NAN</DistanceMeters>
          </Trackpoint>
          <Trackpoint>
            <Time>2021-04-01T11:23:50.000Z</Time>
            <Position>
              <LatitudeDegrees>42.4242523871362209320068359375</LatitudeDegrees>
              <LongitudeDegrees>2.73500218056142330169677734375</LongitudeDegrees>
            </Position>
            <AltitudeMeters>1382.4000244140625</AltitudeMeters>
            <DistanceMeters>NAN</DistanceMeters>
          </Trackpoint>
          <Trackpoint>
            <Time>2021-04-01T11:23:57.000Z</Time>
            <Position>
              <LatitudeDegrees>42.4242406524717807769775390625</LatitudeDegrees>
              <LongitudeDegrees>2.73496328853070735931396484375</LongitudeDegrees>
            </Position>
            <AltitudeMeters>1383</AltitudeMeters>
            <DistanceMeters>NAN</DistanceMeters>
          </Trackpoint>
          <Trackpoint>
            <Time>2021-04-01T11:24:05.000Z</Time>
            <Position>
              <LatitudeDegrees>42.42421793751418590545654296875</LatitudeDegrees>
              <LongitudeDegrees>2.73498214781284332275390625</LongitudeDegrees>
            </Position>
            <AltitudeMeters>1383.800048828125</AltitudeMeters>
            <DistanceMeters>NAN</DistanceMeters>
          </Trackpoint>
          <Trackpoint>
            <Time>2021-04-01T11:24:12.000Z</Time>
            <Position>
              <LatitudeDegrees>42.42418440990149974822998046875</LatitudeDegrees>
              <LongitudeDegrees>2.73498072288930416107177734375</LongitudeDegrees>
            </Position>
            <AltitudeMeters>1384.199951171875</AltitudeMeters>
            <DistanceMeters>NAN</DistanceMeters>
          </Trackpoint>
          <Trackpoint>
            <Time>2021-04-01T11:24:16.000Z</Time>
            <Position>
              <LatitudeDegrees>42.4241645447909832000732421875</LatitudeDegrees>
              <LongitudeDegrees>2.734969072043895721435546875</LongitudeDegrees>
            </Position>
            <AltitudeMeters>1385</AltitudeMeters>
            <DistanceMeters>NAN</DistanceMeters>
          </Trackpoint>
          <Trackpoint>
            <Time>2021-04-01T11:24:17.000Z</Time>
            <Position>
              <LatitudeDegrees>42.42415742017328739166259765625</LatitudeDegrees>
              <LongitudeDegrees>2.7349695749580860137939453125</LongitudeDegrees>
            </Position>
            <AltitudeMeters>1385.199951171875</AltitudeMeters>
            <DistanceMeters>NAN</DistanceMeters>
          </Trackpoint>
          <Trackpoint>
            <Time>2021-04-01T11:24:19.000Z</Time>
            <Position>
              <LatitudeDegrees>42.4241564981639385223388671875</LatitudeDegrees>
              <LongitudeDegrees>2.73495507426559925079345703125</LongitudeDegrees>
            </Position>
            <AltitudeMeters>1385.800048828125</AltitudeMeters>
            <DistanceMeters>NAN</DistanceMeters>
          </Trackpoint>
          <Trackpoint>
            <Time>2021-04-01T11:24:21.000Z</Time>
            <Position>
              <LatitudeDegrees>42.4241621978580951690673828125</LatitudeDegrees>
              <LongitudeDegrees>2.7349370531737804412841796875</LongitudeDegrees>
            </Position>
            <AltitudeMeters>1386.4000244140625</AltitudeMeters>
            <DistanceMeters>NAN</DistanceMeters>
          </Trackpoint>
          <Trackpoint>
            <Time>2021-04-01T11:24:23.000Z</Time>
            <Position>
              <LatitudeDegrees>42.42416479624807834625244140625</LatitudeDegrees>
              <LongitudeDegrees>2.73491718806326389312744140625</LongitudeDegrees>
            </Position>
            <AltitudeMeters>1386.800048828125</AltitudeMeters>
            <DistanceMeters>NAN</DistanceMeters>
          </Trackpoint>
          <Trackpoint>
            <Time>2021-04-01T11:24:27.000Z</Time>
            <Position>
              <LatitudeDegrees>42.42417401634156703948974609375</LatitudeDegrees>
              <LongitudeDegrees>2.734880559146404266357421875</LongitudeDegrees>
            </Position>
            <AltitudeMeters>1387</AltitudeMeters>
            <DistanceMeters>NAN</DistanceMeters>
          </Trackpoint>
          <Trackpoint>
            <Time>2021-04-01T11:24:31.000Z</Time>
            <Position>
              <LatitudeDegrees>42.42417854256927967071533203125</LatitudeDegrees>
              <LongitudeDegrees>2.734853066504001617431640625</LongitudeDegrees>
            </Position>
            <AltitudeMeters>1387.4000244140625</AltitudeMeters>
            <DistanceMeters>NAN</DistanceMeters>
          </Trackpoint>
          <Trackpoint>
            <Time>2021-04-01T11:24:32.000Z</Time>
            <Position>
              <LatitudeDegrees>42.42417904548346996307373046875</LatitudeDegrees>
              <LongitudeDegrees>2.73484393022954463958740234375</LongitudeDegrees>
            </Position>
            <AltitudeMeters>1387.5999755859375</AltitudeMeters>
            <DistanceMeters>NAN</DistanceMeters>
          </Trackpoint>
          <Trackpoint>
            <Time>2021-04-01T11:24:33.000Z</Time>
            <Position>
              <LatitudeDegrees>42.424180470407009124755859375</LatitudeDegrees>
              <LongitudeDegrees>2.734836302697658538818359375</LongitudeDegrees>
            </Position>
            <AltitudeMeters>1387.5999755859375</AltitudeMeters>
            <DistanceMeters>NAN</DistanceMeters>
          </Trackpoint>
          <Trackpoint>
            <Time>2021-04-01T11:24:34.000Z</Time>
            <Position>
              <LatitudeDegrees>42.42417904548346996307373046875</LatitudeDegrees>
              <LongitudeDegrees>2.7348307706415653228759765625</LongitudeDegrees>
            </Position>
            <AltitudeMeters>1387.800048828125</AltitudeMeters>
            <DistanceMeters>NAN</DistanceMeters>
          </Trackpoint>
          <Trackpoint>
            <Time>2021-04-01T11:24:35.000Z</Time>
            <Position>
              <LatitudeDegrees>42.42417871020734310150146484375</LatitudeDegrees>
              <LongitudeDegrees>2.734824903309345245361328125</LongitudeDegrees>
            </Position>
            <AltitudeMeters>1388</AltitudeMeters>
            <DistanceMeters>NAN</DistanceMeters>
          </Trackpoint>
          <Trackpoint>
            <Time>2021-04-01T11:24:40.000Z</Time>
            <Position>
              <LatitudeDegrees>42.4241829849779605865478515625</LatitudeDegrees>
              <LongitudeDegrees>2.73479548282921314239501953125</LongitudeDegrees>
            </Position>
            <AltitudeMeters>1388.5999755859375</AltitudeMeters>
            <DistanceMeters>NAN</DistanceMeters>
          </Trackpoint>
          <Trackpoint>
            <Time>2021-04-01T11:24:44.000Z</Time>
            <Position>
              <LatitudeDegrees>42.42419245652854442596435546875</LatitudeDegrees>
              <LongitudeDegrees>2.7347516454756259918212890625</LongitudeDegrees>
            </Position>
            <AltitudeMeters>1388.800048828125</AltitudeMeters>
            <DistanceMeters>NAN</DistanceMeters>
          </Trackpoint>
          <Trackpoint>
            <Time>2021-04-01T11:24:47.000Z</Time>
            <Position>
              <LatitudeDegrees>42.4242017604410648345947265625</LatitudeDegrees>
              <LongitudeDegrees>2.73472331464290618896484375</LongitudeDegrees>
            </Position>
            <AltitudeMeters>1389</AltitudeMeters>
            <DistanceMeters>NAN</DistanceMeters>
          </Trackpoint>
          <Trackpoint>
            <Time>2021-04-01T11:24:51.000Z</Time>
            <Position>
              <LatitudeDegrees>42.42420720867812633514404296875</LatitudeDegrees>
              <LongitudeDegrees>2.7346973307430744171142578125</LongitudeDegrees>
            </Position>
            <AltitudeMeters>1389.199951171875</AltitudeMeters>
            <DistanceMeters>NAN</DistanceMeters>
          </Trackpoint>
          <Trackpoint>
            <Time>2021-04-01T11:24:53.000Z</Time>
            <Position>
              <LatitudeDegrees>42.4242057837545871734619140625</LatitudeDegrees>
              <LongitudeDegrees>2.7346862666308879852294921875</LongitudeDegrees>
            </Position>
            <AltitudeMeters>1389.4000244140625</AltitudeMeters>
            <DistanceMeters>NAN</DistanceMeters>
          </Trackpoint>
          <Trackpoint>
            <Time>2021-04-01T11:24:55.000Z</Time>
            <Position>
              <LatitudeDegrees>42.42420452646911144256591796875</LatitudeDegrees>
              <LongitudeDegrees>2.73467679508030414581298828125</LongitudeDegrees>
            </Position>
            <AltitudeMeters>1389.5999755859375</AltitudeMeters>
            <DistanceMeters>NAN</DistanceMeters>
          </Trackpoint>
          <Trackpoint>
            <Time>2021-04-01T11:24:56.000Z</Time>
            <Position>
              <LatitudeDegrees>42.4242061190307140350341796875</LatitudeDegrees>
              <LongitudeDegrees>2.73467478342354297637939453125</LongitudeDegrees>
            </Position>
            <AltitudeMeters>1389.800048828125</AltitudeMeters>
            <DistanceMeters>NAN</DistanceMeters>
          </Trackpoint>
          <Trackpoint>
            <Time>2021-04-01T11:25:00.000Z</Time>
            <Position>
              <LatitudeDegrees>42.42421139962971210479736328125</LatitudeDegrees>
              <LongitudeDegrees>2.73463136516511440277099609375</LongitudeDegrees>
            </Position>
            <AltitudeMeters>1390.199951171875</AltitudeMeters>
            <DistanceMeters>NAN</DistanceMeters>
          </Trackpoint>
          <Trackpoint>
            <Time>2021-04-01T11:25:02.000Z</Time>
            <Position>
              <LatitudeDegrees>42.42421743459999561309814453125</LatitudeDegrees>
              <LongitudeDegrees>2.73461258970201015472412109375</LongitudeDegrees>
            </Position>
            <AltitudeMeters>1390.199951171875</AltitudeMeters>
            <DistanceMeters>NAN</DistanceMeters>
          </Trackpoint>
          <Trackpoint>
            <Time>2021-04-01T11:25:05.000Z</Time>
            <Position>
              <LatitudeDegrees>42.42422212846577167510986328125</LatitudeDegrees>
              <LongitudeDegrees>2.73458710871636867523193359375</LongitudeDegrees>
            </Position>
            <AltitudeMeters>1390.800048828125</AltitudeMeters>
            <DistanceMeters>NAN</DistanceMeters>
          </Trackpoint>
          <Trackpoint>
            <Time>2021-04-01T11:25:08.000Z</Time>
            <Position>
              <LatitudeDegrees>42.42422766052186489105224609375</LatitudeDegrees>
              <LongitudeDegrees>2.73455894552171230316162109375</LongitudeDegrees>
            </Position>
            <AltitudeMeters>1391.4000244140625</AltitudeMeters>
            <DistanceMeters>NAN</DistanceMeters>
          </Trackpoint>
          <Trackpoint>
            <Time>2021-04-01T11:25:10.000Z</Time>
            <Position>
              <LatitudeDegrees>42.4242312647402286529541015625</LatitudeDegrees>
              <LongitudeDegrees>2.734541259706020355224609375</LongitudeDegrees>
            </Position>
            <AltitudeMeters>1391.5999755859375</AltitudeMeters>
            <DistanceMeters>NAN</DistanceMeters>
          </Trackpoint>
          <Trackpoint>
            <Time>2021-04-01T11:25:12.000Z</Time>
            <Position>
              <LatitudeDegrees>42.42423688061535358428955078125</LatitudeDegrees>
              <LongitudeDegrees>2.7345323748886585235595703125</LongitudeDegrees>
            </Position>
            <AltitudeMeters>1391.5999755859375</AltitudeMeters>
            <DistanceMeters>NAN</DistanceMeters>
          </Trackpoint>
          <Trackpoint>
            <Time>2021-04-01T11:25:15.000Z</Time>
            <Position>
              <LatitudeDegrees>42.42423989810049533843994140625</LatitudeDegrees>
              <LongitudeDegrees>2.73451678454875946044921875</LongitudeDegrees>
            </Position>
            <AltitudeMeters>1391.800048828125</AltitudeMeters>
            <DistanceMeters>NAN</DistanceMeters>
          </Trackpoint>
          <Trackpoint>
            <Time>2021-04-01T11:25:19.000Z</Time>
            <Position>
              <LatitudeDegrees>42.42424056865274906158447265625</LatitudeDegrees>
              <LongitudeDegrees>2.73448015563189983367919921875</LongitudeDegrees>
            </Position>
            <AltitudeMeters>1392</AltitudeMeters>
            <DistanceMeters>NAN</DistanceMeters>
          </Trackpoint>
          <Trackpoint>
            <Time>2021-04-01T11:25:20.000Z</Time>
            <Position>
              <LatitudeDegrees>42.4242403171956539154052734375</LatitudeDegrees>
              <LongitudeDegrees>2.73447386920452117919921875</LongitudeDegrees>
            </Position>
            <AltitudeMeters>1392</AltitudeMeters>
            <DistanceMeters>NAN</DistanceMeters>
          </Trackpoint>
          <Trackpoint>
            <Time>2021-04-01T11:25:28.000Z</Time>
            <Position>
              <LatitudeDegrees>42.42423637770116329193115234375</LatitudeDegrees>
              <LongitudeDegrees>2.7343980967998504638671875</LongitudeDegrees>
            </Position>
            <AltitudeMeters>1393</AltitudeMeters>
            <DistanceMeters>NAN</DistanceMeters>
          </Trackpoint>
          <Trackpoint>
            <Time>2021-04-01T11:25:32.000Z</Time>
            <Position>
              <LatitudeDegrees>42.42424023337662220001220703125</LatitudeDegrees>
              <LongitudeDegrees>2.734344787895679473876953125</LongitudeDegrees>
            </Position>
            <AltitudeMeters>1394</AltitudeMeters>
            <DistanceMeters>NAN</DistanceMeters>
          </Trackpoint>
          <Trackpoint>
            <Time>2021-04-01T11:25:34.000Z</Time>
            <Position>
              <LatitudeDegrees>42.4242413230240345001220703125</LatitudeDegrees>
              <LongitudeDegrees>2.734327353537082672119140625</LongitudeDegrees>
            </Position>
            <AltitudeMeters>1394</AltitudeMeters>
            <DistanceMeters>NAN</DistanceMeters>
          </Trackpoint>
          <Trackpoint>
            <Time>2021-04-01T11:25:35.000Z</Time>
            <Position>
              <LatitudeDegrees>42.42423922754824161529541015625</LatitudeDegrees>
              <LongitudeDegrees>2.73432257585227489471435546875</LongitudeDegrees>
            </Position>
            <AltitudeMeters>1394.199951171875</AltitudeMeters>
            <DistanceMeters>NAN</DistanceMeters>
          </Trackpoint>
          <Trackpoint>
            <Time>2021-04-01T11:25:40.000Z</Time>
            <Position>
              <LatitudeDegrees>42.4242304265499114990234375</LatitudeDegrees>
              <LongitudeDegrees>2.73427672684192657470703125</LongitudeDegrees>
            </Position>
            <AltitudeMeters>1394.800048828125</AltitudeMeters>
            <DistanceMeters>NAN</DistanceMeters>
          </Trackpoint>
          <Trackpoint>
            <Time>2021-04-01T11:25:43.000Z</Time>
            <Position>
              <LatitudeDegrees>42.42421894334256649017333984375</LatitudeDegrees>
              <LongitudeDegrees>2.734256274998188018798828125</LongitudeDegrees>
            </Position>
            <AltitudeMeters>1394.800048828125</AltitudeMeters>
            <DistanceMeters>NAN</DistanceMeters>
          </Trackpoint>
          <Trackpoint>
            <Time>2021-04-01T11:25:50.000Z</Time>
            <Position>
              <LatitudeDegrees>42.42420653812587261199951171875</LatitudeDegrees>
              <LongitudeDegrees>2.7342021279036998748779296875</LongitudeDegrees>
            </Position>
            <AltitudeMeters>1393.800048828125</AltitudeMeters>
            <DistanceMeters>NAN</DistanceMeters>
          </Trackpoint>
          <Trackpoint>
            <Time>2021-04-01T11:25:53.000Z</Time>
            <Position>
              <LatitudeDegrees>42.42420955561101436614990234375</LatitudeDegrees>
              <LongitudeDegrees>2.73417388089001178741455078125</LongitudeDegrees>
            </Position>
            <AltitudeMeters>1393.199951171875</AltitudeMeters>
            <DistanceMeters>NAN</DistanceMeters>
          </Trackpoint>
          <Trackpoint>
            <Time>2021-04-01T11:25:55.000Z</Time>
            <Position>
              <LatitudeDegrees>42.4242114834487438201904296875</LatitudeDegrees>
              <LongitudeDegrees>2.7341501601040363311767578125</LongitudeDegrees>
            </Position>
            <AltitudeMeters>1392.800048828125</AltitudeMeters>
            <DistanceMeters>NAN</DistanceMeters>
          </Trackpoint>
          <Trackpoint>
            <Time>2021-04-01T11:25:57.000Z</Time>
            <Position>
              <LatitudeDegrees>42.424212656915187835693359375</LatitudeDegrees>
              <LongitudeDegrees>2.73413063026964664459228515625</LongitudeDegrees>
            </Position>
            <AltitudeMeters>1392.800048828125</AltitudeMeters>
            <DistanceMeters>NAN</DistanceMeters>
          </Trackpoint>
          <Trackpoint>
            <Time>2021-04-01T11:26:03.000Z</Time>
            <Position>
              <LatitudeDegrees>42.42421089671552181243896484375</LatitudeDegrees>
              <LongitudeDegrees>2.7340589649975299835205078125</LongitudeDegrees>
            </Position>
            <AltitudeMeters>1392.800048828125</AltitudeMeters>
            <DistanceMeters>NAN</DistanceMeters>
          </Trackpoint>
          <Trackpoint>
            <Time>2021-04-01T11:26:06.000Z</Time>
            <Position>
              <LatitudeDegrees>42.42421408183872699737548828125</LatitudeDegrees>
              <LongitudeDegrees>2.734019570052623748779296875</LongitudeDegrees>
            </Position>
            <AltitudeMeters>1392</AltitudeMeters>
            <DistanceMeters>NAN</DistanceMeters>
          </Trackpoint>
          <Trackpoint>
            <Time>2021-04-01T11:26:12.000Z</Time>
            <Position>
              <LatitudeDegrees>42.42420989088714122772216796875</LatitudeDegrees>
              <LongitudeDegrees>2.73392393253743648529052734375</LongitudeDegrees>
            </Position>
            <AltitudeMeters>1391.5999755859375</AltitudeMeters>
            <DistanceMeters>NAN</DistanceMeters>
          </Trackpoint>
          <Trackpoint>
            <Time>2021-04-01T11:26:13.000Z</Time>
            <Position>
              <LatitudeDegrees>42.42420720867812633514404296875</LatitudeDegrees>
              <LongitudeDegrees>2.7339077554643154144287109375</LongitudeDegrees>
            </Position>
            <AltitudeMeters>1391.5999755859375</AltitudeMeters>
            <DistanceMeters>NAN</DistanceMeters>
          </Trackpoint>
          <Trackpoint>
            <Time>2021-04-01T11:26:16.000Z</Time>
            <Position>
              <LatitudeDegrees>42.42419379763305187225341796875</LatitudeDegrees>
              <LongitudeDegrees>2.7338723838329315185546875</LongitudeDegrees>
            </Position>
            <AltitudeMeters>1391.199951171875</AltitudeMeters>
            <DistanceMeters>NAN</DistanceMeters>
          </Trackpoint>
          <Trackpoint>
            <Time>2021-04-01T11:26:17.000Z</Time>
            <Position>
              <LatitudeDegrees>42.42418776266276836395263671875</LatitudeDegrees>
              <LongitudeDegrees>2.7338651753962039947509765625</LongitudeDegrees>
            </Position>
            <AltitudeMeters>1390.800048828125</AltitudeMeters>
            <DistanceMeters>NAN</DistanceMeters>
          </Trackpoint>
          <Trackpoint>
            <Time>2021-04-01T11:26:18.000Z</Time>
            <Position>
              <LatitudeDegrees>42.424184493720531463623046875</LatitudeDegrees>
              <LongitudeDegrees>2.73386232554912567138671875</LongitudeDegrees>
            </Position>
            <AltitudeMeters>1390.5999755859375</AltitudeMeters>
            <DistanceMeters>NAN</DistanceMeters>
          </Trackpoint>
          <Trackpoint>
            <Time>2021-04-01T11:26:19.000Z</Time>
            <Position>
              <LatitudeDegrees>42.4241806380450725555419921875</LatitudeDegrees>
              <LongitudeDegrees>2.73385838605463504791259765625</LongitudeDegrees>
            </Position>
            <AltitudeMeters>1390.5999755859375</AltitudeMeters>
            <DistanceMeters>NAN</DistanceMeters>
          </Trackpoint>
          <Trackpoint>
            <Time>2021-04-01T11:26:20.000Z</Time>
            <Position>
              <LatitudeDegrees>42.424176447093486785888671875</LatitudeDegrees>
              <LongitudeDegrees>2.7338510937988758087158203125</LongitudeDegrees>
            </Position>
            <AltitudeMeters>1390.4000244140625</AltitudeMeters>
            <DistanceMeters>NAN</DistanceMeters>
          </Trackpoint>
          <Trackpoint>
            <Time>2021-04-01T11:26:23.000Z</Time>
            <Position>
              <LatitudeDegrees>42.42416806519031524658203125</LatitudeDegrees>
              <LongitudeDegrees>2.73382552899420261383056640625</LongitudeDegrees>
            </Position>
            <AltitudeMeters>1390.800048828125</AltitudeMeters>
            <DistanceMeters>NAN</DistanceMeters>
          </Trackpoint>
          <Trackpoint>
            <Time>2021-04-01T11:26:26.000Z</Time>
            <Position>
              <LatitudeDegrees>42.424164377152919769287109375</LatitudeDegrees>
              <LongitudeDegrees>2.73379703052341938018798828125</LongitudeDegrees>
            </Position>
            <AltitudeMeters>1392</AltitudeMeters>
            <DistanceMeters>NAN</DistanceMeters>
          </Trackpoint>
          <Trackpoint>
            <Time>2021-04-01T11:26:29.000Z</Time>
            <Position>
              <LatitudeDegrees>42.42416462861001491546630859375</LatitudeDegrees>
              <LongitudeDegrees>2.73377574048936367034912109375</LongitudeDegrees>
            </Position>
            <AltitudeMeters>1392.4000244140625</AltitudeMeters>
            <DistanceMeters>NAN</DistanceMeters>
          </Trackpoint>
          <Trackpoint>
            <Time>2021-04-01T11:26:34.000Z</Time>
            <Position>
              <LatitudeDegrees>42.42416345514357089996337890625</LatitudeDegrees>
              <LongitudeDegrees>2.73373517207801342010498046875</LongitudeDegrees>
            </Position>
            <AltitudeMeters>1392</AltitudeMeters>
            <DistanceMeters>NAN</DistanceMeters>
          </Trackpoint>
          <Trackpoint>
            <Time>2021-04-01T11:26:36.000Z</Time>
            <Position>
              <LatitudeDegrees>42.4241595156490802764892578125</LatitudeDegrees>
              <LongitudeDegrees>2.7337156422436237335205078125</LongitudeDegrees>
            </Position>
            <AltitudeMeters>1392</AltitudeMeters>
            <DistanceMeters>NAN</DistanceMeters>
          </Trackpoint>
          <Trackpoint>
            <Time>2021-04-01T11:26:38.000Z</Time>
            <Position>
              <LatitudeDegrees>42.4241521395742893218994140625</LatitudeDegrees>
              <LongitudeDegrees>2.73369829170405864715576171875</LongitudeDegrees>
            </Position>
            <AltitudeMeters>1392.4000244140625</AltitudeMeters>
            <DistanceMeters>NAN</DistanceMeters>
          </Trackpoint>
          <Trackpoint>
            <Time>2021-04-01T11:26:39.000Z</Time>
            <Position>
              <LatitudeDegrees>42.42415054701268672943115234375</LatitudeDegrees>
              <LongitudeDegrees>2.73368823342025279998779296875</LongitudeDegrees>
            </Position>
            <AltitudeMeters>1392.4000244140625</AltitudeMeters>
            <DistanceMeters>NAN</DistanceMeters>
          </Trackpoint>
          <Trackpoint>
            <Time>2021-04-01T11:26:40.000Z</Time>
            <Position>
              <LatitudeDegrees>42.4241484515368938446044921875</LatitudeDegrees>
              <LongitudeDegrees>2.7336784265935420989990234375</LongitudeDegrees>
            </Position>
            <AltitudeMeters>1392.5999755859375</AltitudeMeters>
            <DistanceMeters>NAN</DistanceMeters>
          </Trackpoint>
          <Trackpoint>
            <Time>2021-04-01T11:26:42.000Z</Time>
            <Position>
              <LatitudeDegrees>42.42414551787078380584716796875</LatitudeDegrees>
              <LongitudeDegrees>2.73365705274045467376708984375</LongitudeDegrees>
            </Position>
            <AltitudeMeters>1392.4000244140625</AltitudeMeters>
            <DistanceMeters>NAN</DistanceMeters>
          </Trackpoint>
          <Trackpoint>
            <Time>2021-04-01T11:26:45.000Z</Time>
            <Position>
              <LatitudeDegrees>42.4241392314434051513671875</LatitudeDegrees>
              <LongitudeDegrees>2.7336271293461322784423828125</LongitudeDegrees>
            </Position>
            <AltitudeMeters>1391.800048828125</AltitudeMeters>
            <DistanceMeters>NAN</DistanceMeters>
          </Trackpoint>
          <Trackpoint>
            <Time>2021-04-01T11:26:47.000Z</Time>
            <Position>
              <LatitudeDegrees>42.4241373874247074127197265625</LatitudeDegrees>
              <LongitudeDegrees>2.73360542021691799163818359375</LongitudeDegrees>
            </Position>
            <AltitudeMeters>1391.5999755859375</AltitudeMeters>
            <DistanceMeters>NAN</DistanceMeters>
          </Trackpoint>
          <Trackpoint>
            <Time>2021-04-01T11:26:49.000Z</Time>
            <Position>
              <LatitudeDegrees>42.4241390638053417205810546875</LatitudeDegrees>
              <LongitudeDegrees>2.7335828728973865509033203125</LongitudeDegrees>
            </Position>
            <AltitudeMeters>1391.800048828125</AltitudeMeters>
            <DistanceMeters>NAN</DistanceMeters>
          </Trackpoint>
          <Trackpoint>
            <Time>2021-04-01T11:26:54.000Z</Time>
            <Position>
              <LatitudeDegrees>42.4241216294467449188232421875</LatitudeDegrees>
              <LongitudeDegrees>2.7335349284112453460693359375</LongitudeDegrees>
            </Position>
            <AltitudeMeters>1393.4000244140625</AltitudeMeters>
            <DistanceMeters>NAN</DistanceMeters>
          </Trackpoint>
          <Trackpoint>
            <Time>2021-04-01T11:26:57.000Z</Time>
            <Position>
              <LatitudeDegrees>42.424116432666778564453125</LatitudeDegrees>
              <LongitudeDegrees>2.733514644205570220947265625</LongitudeDegrees>
            </Position>
            <AltitudeMeters>1394.5999755859375</AltitudeMeters>
            <DistanceMeters>NAN</DistanceMeters>
          </Trackpoint>
          <Trackpoint>
            <Time>2021-04-01T11:26:59.000Z</Time>
            <Position>
              <LatitudeDegrees>42.4241125769913196563720703125</LatitudeDegrees>
              <LongitudeDegrees>2.7334967069327831268310546875</LongitudeDegrees>
            </Position>
            <AltitudeMeters>1394.5999755859375</AltitudeMeters>
            <DistanceMeters>NAN</DistanceMeters>
          </Trackpoint>
          <Trackpoint>
            <Time>2021-04-01T11:27:01.000Z</Time>
            <Position>
              <LatitudeDegrees>42.42410964332520961761474609375</LatitudeDegrees>
              <LongitudeDegrees>2.73347717709839344024658203125</LongitudeDegrees>
            </Position>
            <AltitudeMeters>1394.5999755859375</AltitudeMeters>
            <DistanceMeters>NAN</DistanceMeters>
          </Trackpoint>
          <Trackpoint>
            <Time>2021-04-01T11:27:02.000Z</Time>
            <Position>
              <LatitudeDegrees>42.42410562001168727874755859375</LatitudeDegrees>
              <LongitudeDegrees>2.73346762172877788543701171875</LongitudeDegrees>
            </Position>
            <AltitudeMeters>1394.5999755859375</AltitudeMeters>
            <DistanceMeters>NAN</DistanceMeters>
          </Trackpoint>
          <Trackpoint>
            <Time>2021-04-01T11:27:07.000Z</Time>
            <Position>
              <LatitudeDegrees>42.42410712875425815582275390625</LatitudeDegrees>
              <LongitudeDegrees>2.733412720263004302978515625</LongitudeDegrees>
            </Position>
            <AltitudeMeters>1395.199951171875</AltitudeMeters>
            <DistanceMeters>NAN</DistanceMeters>
          </Trackpoint>
          <Trackpoint>
            <Time>2021-04-01T11:27:10.000Z</Time>
            <Position>
              <LatitudeDegrees>42.42410662584006786346435546875</LatitudeDegrees>
              <LongitudeDegrees>2.7333786897361278533935546875</LongitudeDegrees>
            </Position>
            <AltitudeMeters>1395.5999755859375</AltitudeMeters>
            <DistanceMeters>NAN</DistanceMeters>
          </Trackpoint>
          <Trackpoint>
            <Time>2021-04-01T11:27:12.000Z</Time>
            <Position>
              <LatitudeDegrees>42.42410142906010150909423828125</LatitudeDegrees>
              <LongitudeDegrees>2.7333568967878818511962890625</LongitudeDegrees>
            </Position>
            <AltitudeMeters>1395.5999755859375</AltitudeMeters>
            <DistanceMeters>NAN</DistanceMeters>
          </Trackpoint>
          <Trackpoint>
            <Time>2021-04-01T11:27:14.000Z</Time>
            <Position>
              <LatitudeDegrees>42.42409908212721347808837890625</LatitudeDegrees>
              <LongitudeDegrees>2.73333703167736530303955078125</LongitudeDegrees>
            </Position>
            <AltitudeMeters>1395.4000244140625</AltitudeMeters>
            <DistanceMeters>NAN</DistanceMeters>
          </Trackpoint>
          <Trackpoint>
            <Time>2021-04-01T11:27:17.000Z</Time>
            <Position>
              <LatitudeDegrees>42.4240971542894840240478515625</LatitudeDegrees>
              <LongitudeDegrees>2.73331557400524616241455078125</LongitudeDegrees>
            </Position>
            <AltitudeMeters>1395.199951171875</AltitudeMeters>
            <DistanceMeters>NAN</DistanceMeters>
          </Trackpoint>
          <Trackpoint>
            <Time>2021-04-01T11:27:18.000Z</Time>
            <Position>
              <LatitudeDegrees>42.4240958131849765777587890625</LatitudeDegrees>
              <LongitudeDegrees>2.7333118021488189697265625</LongitudeDegrees>
            </Position>
            <AltitudeMeters>1395</AltitudeMeters>
            <DistanceMeters>NAN</DistanceMeters>
          </Trackpoint>
          <Trackpoint>
            <Time>2021-04-01T11:27:19.000Z</Time>
            <Position>
              <LatitudeDegrees>42.42409656755626201629638671875</LatitudeDegrees>
              <LongitudeDegrees>2.7333069406449794769287109375</LongitudeDegrees>
            </Position>
            <AltitudeMeters>1395</AltitudeMeters>
            <DistanceMeters>NAN</DistanceMeters>
          </Trackpoint>
          <Trackpoint>
            <Time>2021-04-01T11:27:24.000Z</Time>
            <Position>
              <LatitudeDegrees>42.4240763671696186065673828125</LatitudeDegrees>
              <LongitudeDegrees>2.73326779715716838836669921875</LongitudeDegrees>
            </Position>
            <AltitudeMeters>1395.199951171875</AltitudeMeters>
            <DistanceMeters>NAN</DistanceMeters>
          </Trackpoint>
          <Trackpoint>
            <Time>2021-04-01T11:27:28.000Z</Time>
            <Position>
              <LatitudeDegrees>42.424057759344577789306640625</LatitudeDegrees>
              <LongitudeDegrees>2.73321800865232944488525390625</LongitudeDegrees>
            </Position>
            <AltitudeMeters>1394.800048828125</AltitudeMeters>
            <DistanceMeters>NAN</DistanceMeters>
          </Trackpoint>
          <Trackpoint>
            <Time>2021-04-01T11:27:32.000Z</Time>
            <Position>
              <LatitudeDegrees>42.424056418240070343017578125</LatitudeDegrees>
              <LongitudeDegrees>2.73316939361393451690673828125</LongitudeDegrees>
            </Position>
            <AltitudeMeters>1395</AltitudeMeters>
            <DistanceMeters>NAN</DistanceMeters>
          </Trackpoint>
          <Trackpoint>
            <Time>2021-04-01T11:27:34.000Z</Time>
            <Position>
              <LatitudeDegrees>42.42405013181269168853759765625</LatitudeDegrees>
              <LongitudeDegrees>2.73315045051276683807373046875</LongitudeDegrees>
            </Position>
            <AltitudeMeters>1395</AltitudeMeters>
            <DistanceMeters>NAN</DistanceMeters>
          </Trackpoint>
          <Trackpoint>
            <Time>2021-04-01T11:27:38.000Z</Time>
            <Position>
              <LatitudeDegrees>42.42403873242437839508056640625</LatitudeDegrees>
              <LongitudeDegrees>2.733109630644321441650390625</LongitudeDegrees>
            </Position>
            <AltitudeMeters>1394.5999755859375</AltitudeMeters>
            <DistanceMeters>NAN</DistanceMeters>
          </Trackpoint>
          <Trackpoint>
            <Time>2021-04-01T11:27:39.000Z</Time>
            <Position>
              <LatitudeDegrees>42.42403663694858551025390625</LatitudeDegrees>
              <LongitudeDegrees>2.73309948854148387908935546875</LongitudeDegrees>
            </Position>
            <AltitudeMeters>1394.199951171875</AltitudeMeters>
            <DistanceMeters>NAN</DistanceMeters>
          </Trackpoint>
          <Trackpoint>
            <Time>2021-04-01T11:27:42.000Z</Time>
            <Position>
              <LatitudeDegrees>42.4240347929298877716064453125</LatitudeDegrees>
              <LongitudeDegrees>2.73307886905968189239501953125</LongitudeDegrees>
            </Position>
            <AltitudeMeters>1394</AltitudeMeters>
            <DistanceMeters>NAN</DistanceMeters>
          </Trackpoint>
          <Trackpoint>
            <Time>2021-04-01T11:27:47.000Z</Time>
            <Position>
              <LatitudeDegrees>42.4240290932357311248779296875</LatitudeDegrees>
              <LongitudeDegrees>2.73303729481995105743408203125</LongitudeDegrees>
            </Position>
            <AltitudeMeters>1394</AltitudeMeters>
            <DistanceMeters>NAN</DistanceMeters>
          </Trackpoint>
          <Trackpoint>
            <Time>2021-04-01T11:27:51.000Z</Time>
            <Position>
              <LatitudeDegrees>42.42402632720768451690673828125</LatitudeDegrees>
              <LongitudeDegrees>2.7329917810857295989990234375</LongitudeDegrees>
            </Position>
            <AltitudeMeters>1394.5999755859375</AltitudeMeters>
            <DistanceMeters>NAN</DistanceMeters>
          </Trackpoint>
          <Trackpoint>
            <Time>2021-04-01T11:28:03.000Z</Time>
            <Position>
              <LatitudeDegrees>42.42401090450584888458251953125</LatitudeDegrees>
              <LongitudeDegrees>2.73286856710910797119140625</LongitudeDegrees>
            </Position>
            <AltitudeMeters>1394.5999755859375</AltitudeMeters>
            <DistanceMeters>NAN</DistanceMeters>
          </Trackpoint>
          <Trackpoint>
            <Time>2021-04-01T11:28:11.000Z</Time>
            <Position>
              <LatitudeDegrees>42.42400134913623332977294921875</LatitudeDegrees>
              <LongitudeDegrees>2.7327755279839038848876953125</LongitudeDegrees>
            </Position>
            <AltitudeMeters>1395.5999755859375</AltitudeMeters>
            <DistanceMeters>NAN</DistanceMeters>
          </Trackpoint>
          <Trackpoint>
            <Time>2021-04-01T11:28:15.000Z</Time>
            <Position>
              <LatitudeDegrees>42.42400453425943851470947265625</LatitudeDegrees>
              <LongitudeDegrees>2.7327297627925872802734375</LongitudeDegrees>
            </Position>
            <AltitudeMeters>1395.800048828125</AltitudeMeters>
            <DistanceMeters>NAN</DistanceMeters>
          </Trackpoint>
          <Trackpoint>
            <Time>2021-04-01T11:28:25.000Z</Time>
            <Position>
              <LatitudeDegrees>42.42398793809115886688232421875</LatitudeDegrees>
              <LongitudeDegrees>2.7326357178390026092529296875</LongitudeDegrees>
            </Position>
            <AltitudeMeters>1395</AltitudeMeters>
            <DistanceMeters>NAN</DistanceMeters>
          </Trackpoint>
          <Trackpoint>
            <Time>2021-04-01T11:28:34.000Z</Time>
            <Position>
              <LatitudeDegrees>42.42395323701202869415283203125</LatitudeDegrees>
              <LongitudeDegrees>2.73256153799593448638916015625</LongitudeDegrees>
            </Position>
            <AltitudeMeters>1395.800048828125</AltitudeMeters>
            <DistanceMeters>NAN</DistanceMeters>
          </Trackpoint>
          <Trackpoint>
            <Time>2021-04-01T11:28:45.000Z</Time>
            <Position>
              <LatitudeDegrees>42.423906214535236358642578125</LatitudeDegrees>
              <LongitudeDegrees>2.7324964106082916259765625</LongitudeDegrees>
            </Position>
            <AltitudeMeters>1395.4000244140625</AltitudeMeters>
            <DistanceMeters>NAN</DistanceMeters>
          </Trackpoint>
          <Trackpoint>
            <Time>2021-04-01T11:28:57.000Z</Time>
            <Position>
              <LatitudeDegrees>42.42393873631954193115234375</LatitudeDegrees>
              <LongitudeDegrees>2.73244502954185009002685546875</LongitudeDegrees>
            </Position>
            <AltitudeMeters>1395.800048828125</AltitudeMeters>
            <DistanceMeters>NAN</DistanceMeters>
          </Trackpoint>
          <Trackpoint>
            <Time>2021-04-01T11:29:06.000Z</Time>
            <Position>
              <LatitudeDegrees>42.4239246547222137451171875</LatitudeDegrees>
              <LongitudeDegrees>2.732441090047359466552734375</LongitudeDegrees>
            </Position>
            <AltitudeMeters>1395.5999755859375</AltitudeMeters>
            <DistanceMeters>NAN</DistanceMeters>
          </Trackpoint>
          <Trackpoint>
            <Time>2021-04-01T11:29:08.000Z</Time>
            <Position>
              <LatitudeDegrees>42.423920296132564544677734375</LatitudeDegrees>
              <LongitudeDegrees>2.7324261702597141265869140625</LongitudeDegrees>
            </Position>
            <AltitudeMeters>1395.5999755859375</AltitudeMeters>
            <DistanceMeters>NAN</DistanceMeters>
          </Trackpoint>
          <Trackpoint>
            <Time>2021-04-01T11:29:09.000Z</Time>
            <Position>
              <LatitudeDegrees>42.42391719482839107513427734375</LatitudeDegrees>
              <LongitudeDegrees>2.73242256604135036468505859375</LongitudeDegrees>
            </Position>
            <AltitudeMeters>1395.5999755859375</AltitudeMeters>
            <DistanceMeters>NAN</DistanceMeters>
          </Trackpoint>
          <Trackpoint>
            <Time>2021-04-01T11:29:11.000Z</Time>
            <Position>
              <LatitudeDegrees>42.42390864528715610504150390625</LatitudeDegrees>
              <LongitudeDegrees>2.73241083137691020965576171875</LongitudeDegrees>
            </Position>
            <AltitudeMeters>1395.5999755859375</AltitudeMeters>
            <DistanceMeters>NAN</DistanceMeters>
          </Trackpoint>
          <Trackpoint>
            <Time>2021-04-01T11:29:18.000Z</Time>
            <Position>
              <LatitudeDegrees>42.423894815146923065185546875</LatitudeDegrees>
              <LongitudeDegrees>2.73233572952449321746826171875</LongitudeDegrees>
            </Position>
            <AltitudeMeters>1396.199951171875</AltitudeMeters>
            <DistanceMeters>NAN</DistanceMeters>
          </Trackpoint>
          <Trackpoint>
            <Time>2021-04-01T11:29:21.000Z</Time>
            <Position>
              <LatitudeDegrees>42.4238845892250537872314453125</LatitudeDegrees>
              <LongitudeDegrees>2.7323185466229915618896484375</LongitudeDegrees>
            </Position>
            <AltitudeMeters>1396.5999755859375</AltitudeMeters>
            <DistanceMeters>NAN</DistanceMeters>
          </Trackpoint>
          <Trackpoint>
            <Time>2021-04-01T11:29:26.000Z</Time>
            <Position>
              <LatitudeDegrees>42.42387436330318450927734375</LatitudeDegrees>
              <LongitudeDegrees>2.73227982223033905029296875</LongitudeDegrees>
            </Position>
            <AltitudeMeters>1396.800048828125</AltitudeMeters>
            <DistanceMeters>NAN</DistanceMeters>
          </Trackpoint>
          <Trackpoint>
            <Time>2021-04-01T11:29:28.000Z</Time>
            <Position>
              <LatitudeDegrees>42.4238671548664569854736328125</LatitudeDegrees>
              <LongitudeDegrees>2.7322679199278354644775390625</LongitudeDegrees>
            </Position>
            <AltitudeMeters>1396.800048828125</AltitudeMeters>
            <DistanceMeters>NAN</DistanceMeters>
          </Trackpoint>
          <Trackpoint>
            <Time>2021-04-01T11:29:36.000Z</Time>
            <Position>
              <LatitudeDegrees>42.42382767610251903533935546875</LatitudeDegrees>
              <LongitudeDegrees>2.7322025410830974578857421875</LongitudeDegrees>
            </Position>
            <AltitudeMeters>1397.199951171875</AltitudeMeters>
            <DistanceMeters>NAN</DistanceMeters>
          </Trackpoint>
          <Trackpoint>
            <Time>2021-04-01T11:29:39.000Z</Time>
            <Position>
              <LatitudeDegrees>42.4238178692758083343505859375</LatitudeDegrees>
              <LongitudeDegrees>2.7321794070303440093994140625</LongitudeDegrees>
            </Position>
            <AltitudeMeters>1397.4000244140625</AltitudeMeters>
            <DistanceMeters>NAN</DistanceMeters>
          </Trackpoint>
          <Trackpoint>
            <Time>2021-04-01T11:29:45.000Z</Time>
            <Position>
              <LatitudeDegrees>42.4237866885960102081298828125</LatitudeDegrees>
              <LongitudeDegrees>2.732142694294452667236328125</LongitudeDegrees>
            </Position>
            <AltitudeMeters>1397.5999755859375</AltitudeMeters>
            <DistanceMeters>NAN</DistanceMeters>
          </Trackpoint>
          <Trackpoint>
            <Time>2021-04-01T11:29:47.000Z</Time>
            <Position>
              <LatitudeDegrees>42.42378476075828075408935546875</LatitudeDegrees>
              <LongitudeDegrees>2.732124589383602142333984375</LongitudeDegrees>
            </Position>
            <AltitudeMeters>1397.800048828125</AltitudeMeters>
            <DistanceMeters>NAN</DistanceMeters>
          </Trackpoint>
          <Trackpoint>
            <Time>2021-04-01T11:29:55.000Z</Time>
            <Position>
              <LatitudeDegrees>42.42377235554158687591552734375</LatitudeDegrees>
              <LongitudeDegrees>2.7320406027138233184814453125</LongitudeDegrees>
            </Position>
            <AltitudeMeters>1398.4000244140625</AltitudeMeters>
            <DistanceMeters>NAN</DistanceMeters>
          </Trackpoint>
          <Trackpoint>
            <Time>2021-04-01T11:29:57.000Z</Time>
            <Position>
              <LatitudeDegrees>42.42376246489584445953369140625</LatitudeDegrees>
              <LongitudeDegrees>2.73202040232717990875244140625</LongitudeDegrees>
            </Position>
            <AltitudeMeters>1398.5999755859375</AltitudeMeters>
            <DistanceMeters>NAN</DistanceMeters>
          </Trackpoint>
          <Trackpoint>
            <Time>2021-04-01T11:30:04.000Z</Time>
            <Position>
              <LatitudeDegrees>42.42374838329851627349853515625</LatitudeDegrees>
              <LongitudeDegrees>2.731960304081439971923828125</LongitudeDegrees>
            </Position>
            <AltitudeMeters>1399.800048828125</AltitudeMeters>
            <DistanceMeters>NAN</DistanceMeters>
          </Trackpoint>
          <Trackpoint>
            <Time>2021-04-01T11:30:07.000Z</Time>
            <Position>
              <LatitudeDegrees>42.42373488843441009521484375</LatitudeDegrees>
              <LongitudeDegrees>2.73192618973553180694580078125</LongitudeDegrees>
            </Position>
            <AltitudeMeters>1400</AltitudeMeters>
            <DistanceMeters>NAN</DistanceMeters>
          </Trackpoint>
          <Trackpoint>
            <Time>2021-04-01T11:30:10.000Z</Time>
            <Position>
              <LatitudeDegrees>42.42372541688382625579833984375</LatitudeDegrees>
              <LongitudeDegrees>2.73190858773887157440185546875</LongitudeDegrees>
            </Position>
            <AltitudeMeters>1399.800048828125</AltitudeMeters>
            <DistanceMeters>NAN</DistanceMeters>
          </Trackpoint>
          <Trackpoint>
            <Time>2021-04-01T11:30:17.000Z</Time>
            <Position>
              <LatitudeDegrees>42.42368954233825206756591796875</LatitudeDegrees>
              <LongitudeDegrees>2.7318736352026462554931640625</LongitudeDegrees>
            </Position>
            <AltitudeMeters>1400.5999755859375</AltitudeMeters>
            <DistanceMeters>NAN</DistanceMeters>
          </Trackpoint>
          <Trackpoint>
            <Time>2021-04-01T11:30:18.000Z</Time>
            <Position>
              <LatitudeDegrees>42.42368635721504688262939453125</LatitudeDegrees>
              <LongitudeDegrees>2.73186852224171161651611328125</LongitudeDegrees>
            </Position>
            <AltitudeMeters>1400.800048828125</AltitudeMeters>
            <DistanceMeters>NAN</DistanceMeters>
          </Trackpoint>
          <Trackpoint>
            <Time>2021-04-01T11:30:21.000Z</Time>
            <Position>
              <LatitudeDegrees>42.42367328144609928131103515625</LatitudeDegrees>
              <LongitudeDegrees>2.731851004064083099365234375</LongitudeDegrees>
            </Position>
            <AltitudeMeters>1401.199951171875</AltitudeMeters>
            <DistanceMeters>NAN</DistanceMeters>
          </Trackpoint>
          <Trackpoint>
            <Time>2021-04-01T11:30:25.000Z</Time>
            <Position>
              <LatitudeDegrees>42.42365500889718532562255859375</LatitudeDegrees>
              <LongitudeDegrees>2.7318253554403781890869140625</LongitudeDegrees>
            </Position>
            <AltitudeMeters>1401.4000244140625</AltitudeMeters>
            <DistanceMeters>NAN</DistanceMeters>
          </Trackpoint>
          <Trackpoint>
            <Time>2021-04-01T11:30:28.000Z</Time>
            <Position>
              <LatitudeDegrees>42.42364377714693546295166015625</LatitudeDegrees>
              <LongitudeDegrees>2.73180012591183185577392578125</LongitudeDegrees>
            </Position>
            <AltitudeMeters>1401.800048828125</AltitudeMeters>
            <DistanceMeters>NAN</DistanceMeters>
          </Trackpoint>
          <Trackpoint>
            <Time>2021-04-01T11:30:30.000Z</Time>
            <Position>
              <LatitudeDegrees>42.42363698780536651611328125</LatitudeDegrees>
              <LongitudeDegrees>2.73178252391517162322998046875</LongitudeDegrees>
            </Position>
            <AltitudeMeters>1401.800048828125</AltitudeMeters>
            <DistanceMeters>NAN</DistanceMeters>
          </Trackpoint>
          <Trackpoint>
            <Time>2021-04-01T11:30:33.000Z</Time>
            <Position>
              <LatitudeDegrees>42.42362625896930694580078125</LatitudeDegrees>
              <LongitudeDegrees>2.73175788111984729766845703125</LongitudeDegrees>
            </Position>
            <AltitudeMeters>1402.4000244140625</AltitudeMeters>
            <DistanceMeters>NAN</DistanceMeters>
          </Trackpoint>
          <Trackpoint>
            <Time>2021-04-01T11:30:36.000Z</Time>
            <Position>
              <LatitudeDegrees>42.42362382821738719940185546875</LatitudeDegrees>
              <LongitudeDegrees>2.7317341603338718414306640625</LongitudeDegrees>
            </Position>
            <AltitudeMeters>1402.5999755859375</AltitudeMeters>
            <DistanceMeters>NAN</DistanceMeters>
          </Trackpoint>
          <Trackpoint>
            <Time>2021-04-01T11:30:39.000Z</Time>
            <Position>
              <LatitudeDegrees>42.4236244149506092071533203125</LatitudeDegrees>
              <LongitudeDegrees>2.7317110262811183929443359375</LongitudeDegrees>
            </Position>
            <AltitudeMeters>1402.5999755859375</AltitudeMeters>
            <DistanceMeters>NAN</DistanceMeters>
          </Trackpoint>
          <Trackpoint>
            <Time>2021-04-01T11:30:41.000Z</Time>
            <Position>
              <LatitudeDegrees>42.4236230738461017608642578125</LatitudeDegrees>
              <LongitudeDegrees>2.73170088417828083038330078125</LongitudeDegrees>
            </Position>
            <AltitudeMeters>1402.5999755859375</AltitudeMeters>
            <DistanceMeters>NAN</DistanceMeters>
          </Trackpoint>
          <Trackpoint>
            <Time>2021-04-01T11:30:44.000Z</Time>
            <Position>
              <LatitudeDegrees>42.42362500168383121490478515625</LatitudeDegrees>
              <LongitudeDegrees>2.73168127052485942840576171875</LongitudeDegrees>
            </Position>
            <AltitudeMeters>1402.800048828125</AltitudeMeters>
            <DistanceMeters>NAN</DistanceMeters>
          </Trackpoint>
          <Trackpoint>
            <Time>2021-04-01T11:30:45.000Z</Time>
            <Position>
              <LatitudeDegrees>42.42362583987414836883544921875</LatitudeDegrees>
              <LongitudeDegrees>2.7316744811832904815673828125</LongitudeDegrees>
            </Position>
            <AltitudeMeters>1403</AltitudeMeters>
            <DistanceMeters>NAN</DistanceMeters>
          </Trackpoint>
          <Trackpoint>
            <Time>2021-04-01T11:30:52.000Z</Time>
            <Position>
              <LatitudeDegrees>42.4236167035996913909912109375</LatitudeDegrees>
              <LongitudeDegrees>2.73162259720265865325927734375</LongitudeDegrees>
            </Position>
            <AltitudeMeters>1404</AltitudeMeters>
            <DistanceMeters>NAN</DistanceMeters>
          </Trackpoint>
          <Trackpoint>
            <Time>2021-04-01T11:30:53.000Z</Time>
            <Position>
              <LatitudeDegrees>42.42361494340002536773681640625</LatitudeDegrees>
              <LongitudeDegrees>2.73161924444139003753662109375</LongitudeDegrees>
            </Position>
            <AltitudeMeters>1404.199951171875</AltitudeMeters>
            <DistanceMeters>NAN</DistanceMeters>
          </Trackpoint>
          <Trackpoint>
            <Time>2021-04-01T11:30:59.000Z</Time>
            <Position>
              <LatitudeDegrees>42.42359600029885768890380859375</LatitudeDegrees>
              <LongitudeDegrees>2.73157708346843719482421875</LongitudeDegrees>
            </Position>
            <AltitudeMeters>1404.800048828125</AltitudeMeters>
            <DistanceMeters>NAN</DistanceMeters>
          </Trackpoint>
          <Trackpoint>
            <Time>2021-04-01T11:31:02.000Z</Time>
            <Position>
              <LatitudeDegrees>42.4235828407108783721923828125</LatitudeDegrees>
              <LongitudeDegrees>2.73155319504439830780029296875</LongitudeDegrees>
            </Position>
            <AltitudeMeters>1405.199951171875</AltitudeMeters>
            <DistanceMeters>NAN</DistanceMeters>
          </Trackpoint>
          <Trackpoint>
            <Time>2021-04-01T11:31:06.000Z</Time>
            <Position>
              <LatitudeDegrees>42.4235704354941844940185546875</LatitudeDegrees>
              <LongitudeDegrees>2.73152620531618595123291015625</LongitudeDegrees>
            </Position>
            <AltitudeMeters>1405.800048828125</AltitudeMeters>
            <DistanceMeters>NAN</DistanceMeters>
          </Trackpoint>
          <Trackpoint>
            <Time>2021-04-01T11:31:08.000Z</Time>
            <Position>
              <LatitudeDegrees>42.423563897609710693359375</LatitudeDegrees>
              <LongitudeDegrees>2.73151698522269725799560546875</LongitudeDegrees>
            </Position>
            <AltitudeMeters>1406.199951171875</AltitudeMeters>
            <DistanceMeters>NAN</DistanceMeters>
          </Trackpoint>
          <Trackpoint>
            <Time>2021-04-01T11:31:11.000Z</Time>
            <Position>
              <LatitudeDegrees>42.42354939691722393035888671875</LatitudeDegrees>
              <LongitudeDegrees>2.73150357417762279510498046875</LongitudeDegrees>
            </Position>
            <AltitudeMeters>1407.4000244140625</AltitudeMeters>
            <DistanceMeters>NAN</DistanceMeters>
          </Trackpoint>
          <Trackpoint>
            <Time>2021-04-01T11:31:15.000Z</Time>
            <Position>
              <LatitudeDegrees>42.42354168556630611419677734375</LatitudeDegrees>
              <LongitudeDegrees>2.7314873971045017242431640625</LongitudeDegrees>
            </Position>
            <AltitudeMeters>1408.5999755859375</AltitudeMeters>
            <DistanceMeters>NAN</DistanceMeters>
          </Trackpoint>
          <Trackpoint>
            <Time>2021-04-01T11:31:18.000Z</Time>
            <Position>
              <LatitudeDegrees>42.42353363893926143646240234375</LatitudeDegrees>
              <LongitudeDegrees>2.73146753199398517608642578125</LongitudeDegrees>
            </Position>
            <AltitudeMeters>1409</AltitudeMeters>
            <DistanceMeters>NAN</DistanceMeters>
          </Trackpoint>
          <Trackpoint>
            <Time>2021-04-01T11:31:20.000Z</Time>
            <Position>
              <LatitudeDegrees>42.4235298670828342437744140625</LatitudeDegrees>
              <LongitudeDegrees>2.7314474992454051971435546875</LongitudeDegrees>
            </Position>
            <AltitudeMeters>1409.5999755859375</AltitudeMeters>
            <DistanceMeters>NAN</DistanceMeters>
          </Trackpoint>
          <Trackpoint>
            <Time>2021-04-01T11:31:25.000Z</Time>
            <Position>
              <LatitudeDegrees>42.423513270914554595947265625</LatitudeDegrees>
              <LongitudeDegrees>2.7314190007746219635009765625</LongitudeDegrees>
            </Position>
            <AltitudeMeters>1410.5999755859375</AltitudeMeters>
            <DistanceMeters>NAN</DistanceMeters>
          </Trackpoint>
          <Trackpoint>
            <Time>2021-04-01T11:31:26.000Z</Time>
            <Position>
              <LatitudeDegrees>42.4235084094107151031494140625</LatitudeDegrees>
              <LongitudeDegrees>2.73141372017562389373779296875</LongitudeDegrees>
            </Position>
            <AltitudeMeters>1410.800048828125</AltitudeMeters>
            <DistanceMeters>NAN</DistanceMeters>
          </Trackpoint>
          <Trackpoint>
            <Time>2021-04-01T11:31:29.000Z</Time>
            <Position>
              <LatitudeDegrees>42.4234983511269092559814453125</LatitudeDegrees>
              <LongitudeDegrees>2.73138538934290409088134765625</LongitudeDegrees>
            </Position>
            <AltitudeMeters>1411</AltitudeMeters>
            <DistanceMeters>NAN</DistanceMeters>
          </Trackpoint>
          <Trackpoint>
            <Time>2021-04-01T11:31:34.000Z</Time>
            <Position>
              <LatitudeDegrees>42.42348653264343738555908203125</LatitudeDegrees>
              <LongitudeDegrees>2.73133099079132080078125</LongitudeDegrees>
            </Position>
            <AltitudeMeters>1411.800048828125</AltitudeMeters>
            <DistanceMeters>NAN</DistanceMeters>
          </Trackpoint>
          <Trackpoint>
            <Time>2021-04-01T11:31:40.000Z</Time>
            <Position>
              <LatitudeDegrees>42.4234742112457752227783203125</LatitudeDegrees>
              <LongitudeDegrees>2.73127776570618152618408203125</LongitudeDegrees>
            </Position>
            <AltitudeMeters>1411.800048828125</AltitudeMeters>
            <DistanceMeters>NAN</DistanceMeters>
          </Trackpoint>
          <Trackpoint>
            <Time>2021-04-01T11:31:48.000Z</Time>
            <Position>
              <LatitudeDegrees>42.42346473969519138336181640625</LatitudeDegrees>
              <LongitudeDegrees>2.73120551370084285736083984375</LongitudeDegrees>
            </Position>
            <AltitudeMeters>1412.5999755859375</AltitudeMeters>
            <DistanceMeters>NAN</DistanceMeters>
          </Trackpoint>
          <Trackpoint>
            <Time>2021-04-01T11:31:50.000Z</Time>
            <Position>
              <LatitudeDegrees>42.42346356622874736785888671875</LatitudeDegrees>
              <LongitudeDegrees>2.7311896719038486480712890625</LongitudeDegrees>
            </Position>
            <AltitudeMeters>1412.800048828125</AltitudeMeters>
            <DistanceMeters>NAN</DistanceMeters>
          </Trackpoint>
          <Trackpoint>
            <Time>2021-04-01T11:31:51.000Z</Time>
            <Position>
              <LatitudeDegrees>42.42346356622874736785888671875</LatitudeDegrees>
              <LongitudeDegrees>2.73118078708648681640625</LongitudeDegrees>
            </Position>
            <AltitudeMeters>1413</AltitudeMeters>
            <DistanceMeters>NAN</DistanceMeters>
          </Trackpoint>
          <Trackpoint>
            <Time>2021-04-01T11:31:54.000Z</Time>
            <Position>
              <LatitudeDegrees>42.423456944525241851806640625</LatitudeDegrees>
              <LongitudeDegrees>2.7311564795672893524169921875</LongitudeDegrees>
            </Position>
            <AltitudeMeters>1414</AltitudeMeters>
            <DistanceMeters>NAN</DistanceMeters>
          </Trackpoint>
          <Trackpoint>
            <Time>2021-04-01T11:31:58.000Z</Time>
            <Position>
              <LatitudeDegrees>42.423436157405376434326171875</LatitudeDegrees>
              <LongitudeDegrees>2.731135189533233642578125</LongitudeDegrees>
            </Position>
            <AltitudeMeters>1415.4000244140625</AltitudeMeters>
            <DistanceMeters>NAN</DistanceMeters>
          </Trackpoint>
          <Trackpoint>
            <Time>2021-04-01T11:32:00.000Z</Time>
            <Position>
              <LatitudeDegrees>42.4234333075582981109619140625</LatitudeDegrees>
              <LongitudeDegrees>2.7311192639172077178955078125</LongitudeDegrees>
            </Position>
            <AltitudeMeters>1415.800048828125</AltitudeMeters>
            <DistanceMeters>NAN</DistanceMeters>
          </Trackpoint>
          <Trackpoint>
            <Time>2021-04-01T11:32:10.000Z</Time>
            <Position>
              <LatitudeDegrees>42.42338678799569606781005859375</LatitudeDegrees>
              <LongitudeDegrees>2.73108297027647495269775390625</LongitudeDegrees>
            </Position>
            <AltitudeMeters>1415.5999755859375</AltitudeMeters>
            <DistanceMeters>NAN</DistanceMeters>
          </Trackpoint>
          <Trackpoint>
            <Time>2021-04-01T11:32:21.000Z</Time>
            <Position>
              <LatitudeDegrees>42.42330950684845447540283203125</LatitudeDegrees>
              <LongitudeDegrees>2.73105279542505741119384765625</LongitudeDegrees>
            </Position>
            <AltitudeMeters>1416.4000244140625</AltitudeMeters>
            <DistanceMeters>NAN</DistanceMeters>
          </Trackpoint>
          <Trackpoint>
            <Time>2021-04-01T11:32:23.000Z</Time>
            <Position>
              <LatitudeDegrees>42.4233035556972026824951171875</LatitudeDegrees>
              <LongitudeDegrees>2.731043659150600433349609375</LongitudeDegrees>
            </Position>
            <AltitudeMeters>1416.5999755859375</AltitudeMeters>
            <DistanceMeters>NAN</DistanceMeters>
          </Trackpoint>
          <Trackpoint>
            <Time>2021-04-01T11:32:32.000Z</Time>
            <Position>
              <LatitudeDegrees>42.4232572875916957855224609375</LatitudeDegrees>
              <LongitudeDegrees>2.7309908531606197357177734375</LongitudeDegrees>
            </Position>
            <AltitudeMeters>1416.5999755859375</AltitudeMeters>
            <DistanceMeters>NAN</DistanceMeters>
          </Trackpoint>
          <Trackpoint>
            <Time>2021-04-01T11:32:33.000Z</Time>
            <Position>
              <LatitudeDegrees>42.42325267754495143890380859375</LatitudeDegrees>
              <LongitudeDegrees>2.73098289035260677337646484375</LongitudeDegrees>
            </Position>
            <AltitudeMeters>1416.5999755859375</AltitudeMeters>
            <DistanceMeters>NAN</DistanceMeters>
          </Trackpoint>
          <Trackpoint>
            <Time>2021-04-01T11:32:35.000Z</Time>
            <Position>
              <LatitudeDegrees>42.42324463091790676116943359375</LatitudeDegrees>
              <LongitudeDegrees>2.73096822202205657958984375</LongitudeDegrees>
            </Position>
            <AltitudeMeters>1416.5999755859375</AltitudeMeters>
            <DistanceMeters>NAN</DistanceMeters>
          </Trackpoint>
          <Trackpoint>
            <Time>2021-04-01T11:32:39.000Z</Time>
            <Position>
              <LatitudeDegrees>42.423234991729259490966796875</LatitudeDegrees>
              <LongitudeDegrees>2.7309271506965160369873046875</LongitudeDegrees>
            </Position>
            <AltitudeMeters>1417.5999755859375</AltitudeMeters>
            <DistanceMeters>NAN</DistanceMeters>
          </Trackpoint>
          <Trackpoint>
            <Time>2021-04-01T11:32:42.000Z</Time>
            <Position>
              <LatitudeDegrees>42.42322803474962711334228515625</LatitudeDegrees>
              <LongitudeDegrees>2.73089102469384670257568359375</LongitudeDegrees>
            </Position>
            <AltitudeMeters>1418</AltitudeMeters>
            <DistanceMeters>NAN</DistanceMeters>
          </Trackpoint>
          <Trackpoint>
            <Time>2021-04-01T11:32:45.000Z</Time>
            <Position>
              <LatitudeDegrees>42.42322417907416820526123046875</LatitudeDegrees>
              <LongitudeDegrees>2.73085213266313076019287109375</LongitudeDegrees>
            </Position>
            <AltitudeMeters>1418.199951171875</AltitudeMeters>
            <DistanceMeters>NAN</DistanceMeters>
          </Trackpoint>
          <Trackpoint>
            <Time>2021-04-01T11:32:53.000Z</Time>
            <Position>
              <LatitudeDegrees>42.42318595759570598602294921875</LatitudeDegrees>
              <LongitudeDegrees>2.73078843019902706146240234375</LongitudeDegrees>
            </Position>
            <AltitudeMeters>1418.5999755859375</AltitudeMeters>
            <DistanceMeters>NAN</DistanceMeters>
          </Trackpoint>
          <Trackpoint>
            <Time>2021-04-01T11:32:55.000Z</Time>
            <Position>
              <LatitudeDegrees>42.42318009026348590850830078125</LatitudeDegrees>
              <LongitudeDegrees>2.7307749353349208831787109375</LongitudeDegrees>
            </Position>
            <AltitudeMeters>1419</AltitudeMeters>
            <DistanceMeters>NAN</DistanceMeters>
          </Trackpoint>
          <Trackpoint>
            <Time>2021-04-01T11:32:59.000Z</Time>
            <Position>
              <LatitudeDegrees>42.42316760122776031494140625</LatitudeDegrees>
              <LongitudeDegrees>2.73073830641806125640869140625</LongitudeDegrees>
            </Position>
            <AltitudeMeters>1419.4000244140625</AltitudeMeters>
            <DistanceMeters>NAN</DistanceMeters>
          </Trackpoint>
          <Trackpoint>
            <Time>2021-04-01T11:33:01.000Z</Time>
            <Position>
              <LatitudeDegrees>42.423158548772335052490234375</LatitudeDegrees>
              <LongitudeDegrees>2.73072791285812854766845703125</LongitudeDegrees>
            </Position>
            <AltitudeMeters>1419.5999755859375</AltitudeMeters>
            <DistanceMeters>NAN</DistanceMeters>
          </Trackpoint>
          <Trackpoint>
            <Time>2021-04-01T11:33:06.000Z</Time>
            <Position>
              <LatitudeDegrees>42.4231345765292644500732421875</LatitudeDegrees>
              <LongitudeDegrees>2.73069689981639385223388671875</LongitudeDegrees>
            </Position>
            <AltitudeMeters>1419.800048828125</AltitudeMeters>
            <DistanceMeters>NAN</DistanceMeters>
          </Trackpoint>
          <Trackpoint>
            <Time>2021-04-01T11:33:16.000Z</Time>
            <Position>
              <LatitudeDegrees>42.423084117472171783447265625</LatitudeDegrees>
              <LongitudeDegrees>2.730664126574993133544921875</LongitudeDegrees>
            </Position>
            <AltitudeMeters>1420.800048828125</AltitudeMeters>
            <DistanceMeters>NAN</DistanceMeters>
          </Trackpoint>
          <Trackpoint>
            <Time>2021-04-01T11:33:17.000Z</Time>
            <Position>
              <LatitudeDegrees>42.42307799868285655975341796875</LatitudeDegrees>
              <LongitudeDegrees>2.73066152818500995635986328125</LongitudeDegrees>
            </Position>
            <AltitudeMeters>1421</AltitudeMeters>
            <DistanceMeters>NAN</DistanceMeters>
          </Trackpoint>
          <Trackpoint>
            <Time>2021-04-01T11:33:20.000Z</Time>
            <Position>
              <LatitudeDegrees>42.4230621568858623504638671875</LatitudeDegrees>
              <LongitudeDegrees>2.730662114918231964111328125</LongitudeDegrees>
            </Position>
            <AltitudeMeters>1421.800048828125</AltitudeMeters>
            <DistanceMeters>NAN</DistanceMeters>
          </Trackpoint>
          <Trackpoint>
            <Time>2021-04-01T11:33:28.000Z</Time>
            <Position>
              <LatitudeDegrees>42.42300557903945446014404296875</LatitudeDegrees>
              <LongitudeDegrees>2.73065884597599506378173828125</LongitudeDegrees>
            </Position>
            <AltitudeMeters>1422.5999755859375</AltitudeMeters>
            <DistanceMeters>NAN</DistanceMeters>
          </Trackpoint>
          <Trackpoint>
            <Time>2021-04-01T11:33:33.000Z</Time>
            <Position>
              <LatitudeDegrees>42.422976829111576080322265625</LatitudeDegrees>
              <LongitudeDegrees>2.730663456022739410400390625</LongitudeDegrees>
            </Position>
            <AltitudeMeters>1423</AltitudeMeters>
            <DistanceMeters>NAN</DistanceMeters>
          </Trackpoint>
          <Trackpoint>
            <Time>2021-04-01T11:33:34.000Z</Time>
            <Position>
              <LatitudeDegrees>42.42297138087451457977294921875</LatitudeDegrees>
              <LongitudeDegrees>2.73066672496497631072998046875</LongitudeDegrees>
            </Position>
            <AltitudeMeters>1423</AltitudeMeters>
            <DistanceMeters>NAN</DistanceMeters>
          </Trackpoint>
          <Trackpoint>
            <Time>2021-04-01T11:33:35.000Z</Time>
            <Position>
              <LatitudeDegrees>42.42296450771391391754150390625</LatitudeDegrees>
              <LongitudeDegrees>2.730669490993022918701171875</LongitudeDegrees>
            </Position>
            <AltitudeMeters>1423.199951171875</AltitudeMeters>
            <DistanceMeters>NAN</DistanceMeters>
          </Trackpoint>
          <Trackpoint>
            <Time>2021-04-01T11:33:38.000Z</Time>
            <Position>
              <LatitudeDegrees>42.42294120602309703826904296875</LatitudeDegrees>
              <LongitudeDegrees>2.73067292757332324981689453125</LongitudeDegrees>
            </Position>
            <AltitudeMeters>1423.800048828125</AltitudeMeters>
            <DistanceMeters>NAN</DistanceMeters>
          </Trackpoint>
          <Trackpoint>
            <Time>2021-04-01T11:33:39.000Z</Time>
            <Position>
              <LatitudeDegrees>42.4229344166815280914306640625</LatitudeDegrees>
              <LongitudeDegrees>2.7306723408401012420654296875</LongitudeDegrees>
            </Position>
            <AltitudeMeters>1424</AltitudeMeters>
            <DistanceMeters>NAN</DistanceMeters>
          </Trackpoint>
          <Trackpoint>
            <Time>2021-04-01T11:33:42.000Z</Time>
            <Position>
              <LatitudeDegrees>42.42291438393294811248779296875</LatitudeDegrees>
              <LongitudeDegrees>2.7306599356234073638916015625</LongitudeDegrees>
            </Position>
            <AltitudeMeters>1424.4000244140625</AltitudeMeters>
            <DistanceMeters>NAN</DistanceMeters>
          </Trackpoint>
          <Trackpoint>
            <Time>2021-04-01T11:33:48.000Z</Time>
            <Position>
              <LatitudeDegrees>42.42289108224213123321533203125</LatitudeDegrees>
              <LongitudeDegrees>2.73061425425112247467041015625</LongitudeDegrees>
            </Position>
            <AltitudeMeters>1425</AltitudeMeters>
            <DistanceMeters>NAN</DistanceMeters>
          </Trackpoint>
          <Trackpoint>
            <Time>2021-04-01T11:33:57.000Z</Time>
            <Position>
              <LatitudeDegrees>42.4228690378367900848388671875</LatitudeDegrees>
              <LongitudeDegrees>2.7305278368294239044189453125</LongitudeDegrees>
            </Position>
            <AltitudeMeters>1425.800048828125</AltitudeMeters>
            <DistanceMeters>NAN</DistanceMeters>
          </Trackpoint>
          <Trackpoint>
            <Time>2021-04-01T11:33:59.000Z</Time>
            <Position>
              <LatitudeDegrees>42.42286317050457000732421875</LatitudeDegrees>
              <LongitudeDegrees>2.73050663061439990997314453125</LongitudeDegrees>
            </Position>
            <AltitudeMeters>1425.800048828125</AltitudeMeters>
            <DistanceMeters>NAN</DistanceMeters>
          </Trackpoint>
          <Trackpoint>
            <Time>2021-04-01T11:34:01.000Z</Time>
            <Position>
              <LatitudeDegrees>42.42285646498203277587890625</LatitudeDegrees>
              <LongitudeDegrees>2.73048819042742252349853515625</LongitudeDegrees>
            </Position>
            <AltitudeMeters>1426</AltitudeMeters>
            <DistanceMeters>NAN</DistanceMeters>
          </Trackpoint>
          <Trackpoint>
            <Time>2021-04-01T11:34:05.000Z</Time>
            <Position>
              <LatitudeDegrees>42.422846741974353790283203125</LatitudeDegrees>
              <LongitudeDegrees>2.730459608137607574462890625</LongitudeDegrees>
            </Position>
            <AltitudeMeters>1427.199951171875</AltitudeMeters>
            <DistanceMeters>NAN</DistanceMeters>
          </Trackpoint>
          <Trackpoint>
            <Time>2021-04-01T11:34:11.000Z</Time>
            <Position>
              <LatitudeDegrees>42.4228370189666748046875</LatitudeDegrees>
              <LongitudeDegrees>2.73040805943310260772705078125</LongitudeDegrees>
            </Position>
            <AltitudeMeters>1427.4000244140625</AltitudeMeters>
            <DistanceMeters>NAN</DistanceMeters>
          </Trackpoint>
          <Trackpoint>
            <Time>2021-04-01T11:34:21.000Z</Time>
            <Position>
              <LatitudeDegrees>42.42281933315098285675048828125</LatitudeDegrees>
              <LongitudeDegrees>2.730350308120250701904296875</LongitudeDegrees>
            </Position>
            <AltitudeMeters>1428</AltitudeMeters>
            <DistanceMeters>NAN</DistanceMeters>
          </Trackpoint>
          <Trackpoint>
            <Time>2021-04-01T11:34:22.000Z</Time>
            <Position>
              <LatitudeDegrees>42.42281564511358737945556640625</LatitudeDegrees>
              <LongitudeDegrees>2.7303493022918701171875</LongitudeDegrees>
            </Position>
            <AltitudeMeters>1428.4000244140625</AltitudeMeters>
            <DistanceMeters>NAN</DistanceMeters>
          </Trackpoint>
          <Trackpoint>
            <Time>2021-04-01T11:34:25.000Z</Time>
            <Position>
              <LatitudeDegrees>42.42280491627752780914306640625</LatitudeDegrees>
              <LongitudeDegrees>2.73034569807350635528564453125</LongitudeDegrees>
            </Position>
            <AltitudeMeters>1429.5999755859375</AltitudeMeters>
            <DistanceMeters>NAN</DistanceMeters>
          </Trackpoint>
          <Trackpoint>
            <Time>2021-04-01T11:34:32.000Z</Time>
            <Position>
              <LatitudeDegrees>42.42276535369455814361572265625</LatitudeDegrees>
              <LongitudeDegrees>2.73034603334963321685791015625</LongitudeDegrees>
            </Position>
            <AltitudeMeters>1430</AltitudeMeters>
            <DistanceMeters>NAN</DistanceMeters>
          </Trackpoint>
          <Trackpoint>
            <Time>2021-04-01T11:34:36.000Z</Time>
            <Position>
              <LatitudeDegrees>42.4227498471736907958984375</LatitudeDegrees>
              <LongitudeDegrees>2.730332873761653900146484375</LongitudeDegrees>
            </Position>
            <AltitudeMeters>1430.5999755859375</AltitudeMeters>
            <DistanceMeters>NAN</DistanceMeters>
          </Trackpoint>
          <Trackpoint>
            <Time>2021-04-01T11:34:43.000Z</Time>
            <Position>
              <LatitudeDegrees>42.42271875031292438507080078125</LatitudeDegrees>
              <LongitudeDegrees>2.73030596785247325897216796875</LongitudeDegrees>
            </Position>
            <AltitudeMeters>1431.800048828125</AltitudeMeters>
            <DistanceMeters>NAN</DistanceMeters>
          </Trackpoint>
          <Trackpoint>
            <Time>2021-04-01T11:34:49.000Z</Time>
            <Position>
              <LatitudeDegrees>42.42271288298070430755615234375</LatitudeDegrees>
              <LongitudeDegrees>2.7302576042711734771728515625</LongitudeDegrees>
            </Position>
            <AltitudeMeters>1432</AltitudeMeters>
            <DistanceMeters>NAN</DistanceMeters>
          </Trackpoint>
          <Trackpoint>
            <Time>2021-04-01T11:34:52.000Z</Time>
            <Position>
              <LatitudeDegrees>42.42271455936133861541748046875</LatitudeDegrees>
              <LongitudeDegrees>2.73024645633995532989501953125</LongitudeDegrees>
            </Position>
            <AltitudeMeters>1432</AltitudeMeters>
            <DistanceMeters>NAN</DistanceMeters>
          </Trackpoint>
          <Trackpoint>
            <Time>2021-04-01T11:34:56.000Z</Time>
            <Position>
              <LatitudeDegrees>42.42273651994764804840087890625</LatitudeDegrees>
              <LongitudeDegrees>2.73020857013761997222900390625</LongitudeDegrees>
            </Position>
            <AltitudeMeters>1431.800048828125</AltitudeMeters>
            <DistanceMeters>NAN</DistanceMeters>
          </Trackpoint>
          <Trackpoint>
            <Time>2021-04-01T11:34:58.000Z</Time>
            <Position>
              <LatitudeDegrees>42.422747500240802764892578125</LatitudeDegrees>
              <LongitudeDegrees>2.7302140183746814727783203125</LongitudeDegrees>
            </Position>
            <AltitudeMeters>1432.199951171875</AltitudeMeters>
            <DistanceMeters>NAN</DistanceMeters>
          </Trackpoint>
          <Trackpoint>
            <Time>2021-04-01T11:35:04.000Z</Time>
            <Position>
              <LatitudeDegrees>42.42278295569121837615966796875</LatitudeDegrees>
              <LongitudeDegrees>2.73017537780106067657470703125</LongitudeDegrees>
            </Position>
            <AltitudeMeters>1431.4000244140625</AltitudeMeters>
            <DistanceMeters>NAN</DistanceMeters>
          </Trackpoint>
          <Trackpoint>
            <Time>2021-04-01T11:35:12.000Z</Time>
            <Position>
              <LatitudeDegrees>42.42280441336333751678466796875</LatitudeDegrees>
              <LongitudeDegrees>2.73010530509054660797119140625</LongitudeDegrees>
            </Position>
            <AltitudeMeters>1430.5999755859375</AltitudeMeters>
            <DistanceMeters>NAN</DistanceMeters>
          </Trackpoint>
          <Trackpoint>
            <Time>2021-04-01T11:35:13.000Z</Time>
            <Position>
              <LatitudeDegrees>42.42281028069555759429931640625</LatitudeDegrees>
              <LongitudeDegrees>2.73010044358670711517333984375</LongitudeDegrees>
            </Position>
            <AltitudeMeters>1430.5999755859375</AltitudeMeters>
            <DistanceMeters>NAN</DistanceMeters>
          </Trackpoint>
          <Trackpoint>
            <Time>2021-04-01T11:35:16.000Z</Time>
            <Position>
              <LatitudeDegrees>42.42282687686383724212646484375</LatitudeDegrees>
              <LongitudeDegrees>2.7300918102264404296875</LongitudeDegrees>
            </Position>
            <AltitudeMeters>1430.4000244140625</AltitudeMeters>
            <DistanceMeters>NAN</DistanceMeters>
          </Trackpoint>
          <Trackpoint>
            <Time>2021-04-01T11:35:22.000Z</Time>
            <Position>
              <LatitudeDegrees>42.42284682579338550567626953125</LatitudeDegrees>
              <LongitudeDegrees>2.73007102310657501220703125</LongitudeDegrees>
            </Position>
            <AltitudeMeters>1429.800048828125</AltitudeMeters>
            <DistanceMeters>NAN</DistanceMeters>
          </Trackpoint>
          <Trackpoint>
            <Time>2021-04-01T11:35:23.000Z</Time>
            <Position>
              <LatitudeDegrees>42.42284816689789295196533203125</LatitudeDegrees>
              <LongitudeDegrees>2.7300728671252727508544921875</LongitudeDegrees>
            </Position>
            <AltitudeMeters>1429.800048828125</AltitudeMeters>
            <DistanceMeters>NAN</DistanceMeters>
          </Trackpoint>
          <Trackpoint>
            <Time>2021-04-01T11:35:25.000Z</Time>
            <Position>
              <LatitudeDegrees>42.42284816689789295196533203125</LatitudeDegrees>
              <LongitudeDegrees>2.73007898591458797454833984375</LongitudeDegrees>
            </Position>
            <AltitudeMeters>1429.5999755859375</AltitudeMeters>
            <DistanceMeters>NAN</DistanceMeters>
          </Trackpoint>
          <Trackpoint>
            <Time>2021-04-01T11:35:26.000Z</Time>
            <Position>
              <LatitudeDegrees>42.4228490889072418212890625</LatitudeDegrees>
              <LongitudeDegrees>2.7300797402858734130859375</LongitudeDegrees>
            </Position>
            <AltitudeMeters>1429.5999755859375</AltitudeMeters>
            <DistanceMeters>NAN</DistanceMeters>
          </Trackpoint>
          <Trackpoint>
            <Time>2021-04-01T11:35:28.000Z</Time>
            <Position>
              <LatitudeDegrees>42.42285219021141529083251953125</LatitudeDegrees>
              <LongitudeDegrees>2.730078063905239105224609375</LongitudeDegrees>
            </Position>
            <AltitudeMeters>1430</AltitudeMeters>
            <DistanceMeters>NAN</DistanceMeters>
          </Trackpoint>
          <Trackpoint>
            <Time>2021-04-01T11:35:32.000Z</Time>
            <Position>
              <LatitudeDegrees>42.42285286076366901397705078125</LatitudeDegrees>
              <LongitudeDegrees>2.73008133284747600555419921875</LongitudeDegrees>
            </Position>
            <AltitudeMeters>1430.199951171875</AltitudeMeters>
            <DistanceMeters>NAN</DistanceMeters>
          </Trackpoint>
          <Trackpoint>
            <Time>2021-04-01T11:35:37.000Z</Time>
            <Position>
              <LatitudeDegrees>42.42285286076366901397705078125</LatitudeDegrees>
              <LongitudeDegrees>2.73008133284747600555419921875</LongitudeDegrees>
            </Position>
            <AltitudeMeters>1429.800048828125</AltitudeMeters>
            <DistanceMeters>NAN</DistanceMeters>
          </Trackpoint>
          <Trackpoint>
            <Time>2021-04-01T11:35:40.000Z</Time>
            <Position>
              <LatitudeDegrees>42.42285286076366901397705078125</LatitudeDegrees>
              <LongitudeDegrees>2.7300802432000637054443359375</LongitudeDegrees>
            </Position>
            <AltitudeMeters>1429.5999755859375</AltitudeMeters>
            <DistanceMeters>NAN</DistanceMeters>
          </Trackpoint>
          <Trackpoint>
            <Time>2021-04-01T11:35:51.000Z</Time>
            <Position>
              <LatitudeDegrees>42.4228609912097454071044921875</LatitudeDegrees>
              <LongitudeDegrees>2.7300797402858734130859375</LongitudeDegrees>
            </Position>
            <AltitudeMeters>1429.5999755859375</AltitudeMeters>
            <DistanceMeters>NAN</DistanceMeters>
          </Trackpoint>
          <Trackpoint>
            <Time>2021-04-01T11:35:53.000Z</Time>
            <Position>
              <LatitudeDegrees>42.42286174558103084564208984375</LatitudeDegrees>
              <LongitudeDegrees>2.73007999174296855926513671875</LongitudeDegrees>
            </Position>
            <AltitudeMeters>1429.5999755859375</AltitudeMeters>
            <DistanceMeters>NAN</DistanceMeters>
          </Trackpoint>
          <Trackpoint>
            <Time>2021-04-01T11:36:00.000Z</Time>
            <Position>
              <LatitudeDegrees>42.422862835228443145751953125</LatitudeDegrees>
              <LongitudeDegrees>2.730080746114253997802734375</LongitudeDegrees>
            </Position>
            <AltitudeMeters>1429.199951171875</AltitudeMeters>
            <DistanceMeters>NAN</DistanceMeters>
          </Trackpoint>
          <Trackpoint>
            <Time>2021-04-01T11:36:10.000Z</Time>
            <Position>
              <LatitudeDegrees>42.42286585271358489990234375</LatitudeDegrees>
              <LongitudeDegrees>2.7300815843045711517333984375</LongitudeDegrees>
            </Position>
            <AltitudeMeters>1429</AltitudeMeters>
            <DistanceMeters>NAN</DistanceMeters>
          </Trackpoint>
          <Trackpoint>
            <Time>2021-04-01T11:36:21.000Z</Time>
            <Position>
              <LatitudeDegrees>42.422868199646472930908203125</LatitudeDegrees>
              <LongitudeDegrees>2.73008250631392002105712890625</LongitudeDegrees>
            </Position>
            <AltitudeMeters>1428.5999755859375</AltitudeMeters>
            <DistanceMeters>NAN</DistanceMeters>
          </Trackpoint>
          <Trackpoint>
            <Time>2021-04-01T11:36:26.000Z</Time>
            <Position>
              <LatitudeDegrees>42.422868199646472930908203125</LatitudeDegrees>
              <LongitudeDegrees>2.73008577525615692138671875</LongitudeDegrees>
            </Position>
            <AltitudeMeters>1428</AltitudeMeters>
            <DistanceMeters>NAN</DistanceMeters>
          </Trackpoint>
          <Trackpoint>
            <Time>2021-04-01T11:36:27.000Z</Time>
            <Position>
              <LatitudeDegrees>42.422868199646472930908203125</LatitudeDegrees>
              <LongitudeDegrees>2.73008787073194980621337890625</LongitudeDegrees>
            </Position>
            <AltitudeMeters>1428</AltitudeMeters>
            <DistanceMeters>NAN</DistanceMeters>
          </Trackpoint>
          <Trackpoint>
            <Time>2021-04-01T11:36:29.000Z</Time>
            <Position>
              <LatitudeDegrees>42.422866523265838623046875</LatitudeDegrees>
              <LongitudeDegrees>2.73008904419839382171630859375</LongitudeDegrees>
            </Position>
            <AltitudeMeters>1428.199951171875</AltitudeMeters>
            <DistanceMeters>NAN</DistanceMeters>
          </Trackpoint>
          <Trackpoint>
            <Time>2021-04-01T11:36:40.000Z</Time>
            <Position>
              <LatitudeDegrees>42.4228623323142528533935546875</LatitudeDegrees>
              <LongitudeDegrees>2.73009155876934528350830078125</LongitudeDegrees>
            </Position>
            <AltitudeMeters>1427.5999755859375</AltitudeMeters>
            <DistanceMeters>NAN</DistanceMeters>
          </Trackpoint>
          <Trackpoint>
            <Time>2021-04-01T11:36:43.000Z</Time>
            <Position>
              <LatitudeDegrees>42.4228623323142528533935546875</LatitudeDegrees>
              <LongitudeDegrees>2.73009155876934528350830078125</LongitudeDegrees>
            </Position>
            <AltitudeMeters>1427.5999755859375</AltitudeMeters>
            <DistanceMeters>NAN</DistanceMeters>
          </Trackpoint>
          <Trackpoint>
            <Time>2021-04-01T11:36:47.000Z</Time>
            <Position>
              <LatitudeDegrees>42.4228623323142528533935546875</LatitudeDegrees>
              <LongitudeDegrees>2.73008988238871097564697265625</LongitudeDegrees>
            </Position>
            <AltitudeMeters>1428</AltitudeMeters>
            <DistanceMeters>NAN</DistanceMeters>
          </Trackpoint>
          <Trackpoint>
            <Time>2021-04-01T11:36:48.000Z</Time>
            <Position>
              <LatitudeDegrees>42.42286258377134799957275390625</LatitudeDegrees>
              <LongitudeDegrees>2.7300896309316158294677734375</LongitudeDegrees>
            </Position>
            <AltitudeMeters>1428</AltitudeMeters>
            <DistanceMeters>NAN</DistanceMeters>
          </Trackpoint>
          <Trackpoint>
            <Time>2021-04-01T11:36:51.000Z</Time>
            <Position>
              <LatitudeDegrees>42.42286308668553829193115234375</LatitudeDegrees>
              <LongitudeDegrees>2.7300889603793621063232421875</LongitudeDegrees>
            </Position>
            <AltitudeMeters>1428</AltitudeMeters>
            <DistanceMeters>NAN</DistanceMeters>
          </Trackpoint>
          <Trackpoint>
            <Time>2021-04-01T11:37:25.000Z</Time>
            <Position>
              <LatitudeDegrees>42.42287297733128070831298828125</LatitudeDegrees>
              <LongitudeDegrees>2.73000237531960010528564453125</LongitudeDegrees>
            </Position>
            <AltitudeMeters>1426.800048828125</AltitudeMeters>
            <DistanceMeters>NAN</DistanceMeters>
          </Trackpoint>
          <Trackpoint>
            <Time>2021-04-01T11:37:28.000Z</Time>
            <Position>
              <LatitudeDegrees>42.422874905169010162353515625</LatitudeDegrees>
              <LongitudeDegrees>2.7300017885863780975341796875</LongitudeDegrees>
            </Position>
            <AltitudeMeters>1426.5999755859375</AltitudeMeters>
            <DistanceMeters>NAN</DistanceMeters>
          </Trackpoint>
          <Trackpoint>
            <Time>2021-04-01T11:37:38.000Z</Time>
            <Position>
              <LatitudeDegrees>42.4228770844638347625732421875</LatitudeDegrees>
              <LongitudeDegrees>2.73000354878604412078857421875</LongitudeDegrees>
            </Position>
            <AltitudeMeters>1426.5999755859375</AltitudeMeters>
            <DistanceMeters>NAN</DistanceMeters>
          </Trackpoint>
          <Trackpoint>
            <Time>2021-04-01T11:37:41.000Z</Time>
            <Position>
              <LatitudeDegrees>42.42287767119705677032470703125</LatitudeDegrees>
              <LongitudeDegrees>2.730005644261837005615234375</LongitudeDegrees>
            </Position>
            <AltitudeMeters>1426.800048828125</AltitudeMeters>
            <DistanceMeters>NAN</DistanceMeters>
          </Trackpoint>
          <Trackpoint>
            <Time>2021-04-01T11:37:44.000Z</Time>
            <Position>
              <LatitudeDegrees>42.4228787608444690704345703125</LatitudeDegrees>
              <LongitudeDegrees>2.73000975139439105987548828125</LongitudeDegrees>
            </Position>
            <AltitudeMeters>1426.800048828125</AltitudeMeters>
            <DistanceMeters>NAN</DistanceMeters>
          </Trackpoint>
          <Trackpoint>
            <Time>2021-04-01T11:38:05.000Z</Time>
            <Position>
              <LatitudeDegrees>42.42288152687251567840576171875</LatitudeDegrees>
              <LongitudeDegrees>2.7300094999372959136962890625</LongitudeDegrees>
            </Position>
            <AltitudeMeters>1426.800048828125</AltitudeMeters>
            <DistanceMeters>NAN</DistanceMeters>
          </Trackpoint>
          <Trackpoint>
            <Time>2021-04-01T11:38:10.000Z</Time>
            <Position>
              <LatitudeDegrees>42.42287783883512020111083984375</LatitudeDegrees>
              <LongitudeDegrees>2.7299555204808712005615234375</LongitudeDegrees>
            </Position>
            <AltitudeMeters>1427</AltitudeMeters>
            <DistanceMeters>NAN</DistanceMeters>
          </Trackpoint>
          <Trackpoint>
            <Time>2021-04-01T11:38:13.000Z</Time>
            <Position>
              <LatitudeDegrees>42.422870211303234100341796875</LatitudeDegrees>
              <LongitudeDegrees>2.7298934943974018096923828125</LongitudeDegrees>
            </Position>
            <AltitudeMeters>1426.800048828125</AltitudeMeters>
            <DistanceMeters>NAN</DistanceMeters>
          </Trackpoint>
          <Trackpoint>
            <Time>2021-04-01T11:38:14.000Z</Time>
            <Position>
              <LatitudeDegrees>42.42286543361842632293701171875</LatitudeDegrees>
              <LongitudeDegrees>2.7298723720014095306396484375</LongitudeDegrees>
            </Position>
            <AltitudeMeters>1426.800048828125</AltitudeMeters>
            <DistanceMeters>NAN</DistanceMeters>
          </Trackpoint>
          <Trackpoint>
            <Time>2021-04-01T11:38:16.000Z</Time>
            <Position>
              <LatitudeDegrees>42.4228598177433013916015625</LatitudeDegrees>
              <LongitudeDegrees>2.72982669062912464141845703125</LongitudeDegrees>
            </Position>
            <AltitudeMeters>1426.5999755859375</AltitudeMeters>
            <DistanceMeters>NAN</DistanceMeters>
          </Trackpoint>
          <Trackpoint>
            <Time>2021-04-01T11:38:17.000Z</Time>
            <Position>
              <LatitudeDegrees>42.422858141362667083740234375</LatitudeDegrees>
              <LongitudeDegrees>2.7298034727573394775390625</LongitudeDegrees>
            </Position>
            <AltitudeMeters>1426.5999755859375</AltitudeMeters>
            <DistanceMeters>NAN</DistanceMeters>
          </Trackpoint>
          <Trackpoint>
            <Time>2021-04-01T11:38:25.000Z</Time>
            <Position>
              <LatitudeDegrees>42.4228381924331188201904296875</LatitudeDegrees>
              <LongitudeDegrees>2.72970146499574184417724609375</LongitudeDegrees>
            </Position>
            <AltitudeMeters>1426.5999755859375</AltitudeMeters>
            <DistanceMeters>NAN</DistanceMeters>
          </Trackpoint>
          <Trackpoint>
            <Time>2021-04-01T11:38:32.000Z</Time>
            <Position>
              <LatitudeDegrees>42.42281631566584110260009765625</LatitudeDegrees>
              <LongitudeDegrees>2.72964052855968475341796875</LongitudeDegrees>
            </Position>
            <AltitudeMeters>1426.800048828125</AltitudeMeters>
            <DistanceMeters>NAN</DistanceMeters>
          </Trackpoint>
          <Trackpoint>
            <Time>2021-04-01T11:38:33.000Z</Time>
            <Position>
              <LatitudeDegrees>42.4228113703429698944091796875</LatitudeDegrees>
              <LongitudeDegrees>2.729634828865528106689453125</LongitudeDegrees>
            </Position>
            <AltitudeMeters>1426.800048828125</AltitudeMeters>
            <DistanceMeters>NAN</DistanceMeters>
          </Trackpoint>
          <Trackpoint>
            <Time>2021-04-01T11:38:35.000Z</Time>
            <Position>
              <LatitudeDegrees>42.4228016473352909088134765625</LatitudeDegrees>
              <LongitudeDegrees>2.72962049581110477447509765625</LongitudeDegrees>
            </Position>
            <AltitudeMeters>1426.800048828125</AltitudeMeters>
            <DistanceMeters>NAN</DistanceMeters>
          </Trackpoint>
          <Trackpoint>
            <Time>2021-04-01T11:38:37.000Z</Time>
            <Position>
              <LatitudeDegrees>42.42279737256467342376708984375</LatitudeDegrees>
              <LongitudeDegrees>2.729599960148334503173828125</LongitudeDegrees>
            </Position>
            <AltitudeMeters>1427.199951171875</AltitudeMeters>
            <DistanceMeters>NAN</DistanceMeters>
          </Trackpoint>
          <Trackpoint>
            <Time>2021-04-01T11:38:38.000Z</Time>
            <Position>
              <LatitudeDegrees>42.42279469035565853118896484375</LatitudeDegrees>
              <LongitudeDegrees>2.7295880578458309173583984375</LongitudeDegrees>
            </Position>
            <AltitudeMeters>1427.4000244140625</AltitudeMeters>
            <DistanceMeters>NAN</DistanceMeters>
          </Trackpoint>
          <Trackpoint>
            <Time>2021-04-01T11:38:39.000Z</Time>
            <Position>
              <LatitudeDegrees>42.422791086137294769287109375</LatitudeDegrees>
              <LongitudeDegrees>2.72957892157137393951416015625</LongitudeDegrees>
            </Position>
            <AltitudeMeters>1427.4000244140625</AltitudeMeters>
            <DistanceMeters>NAN</DistanceMeters>
          </Trackpoint>
          <Trackpoint>
            <Time>2021-04-01T11:38:40.000Z</Time>
            <Position>
              <LatitudeDegrees>42.4227872304618358612060546875</LatitudeDegrees>
              <LongitudeDegrees>2.72956718690693378448486328125</LongitudeDegrees>
            </Position>
            <AltitudeMeters>1427.5999755859375</AltitudeMeters>
            <DistanceMeters>NAN</DistanceMeters>
          </Trackpoint>
          <Trackpoint>
            <Time>2021-04-01T11:38:44.000Z</Time>
            <Position>
              <LatitudeDegrees>42.42277725599706172943115234375</LatitudeDegrees>
              <LongitudeDegrees>2.7295263670384883880615234375</LongitudeDegrees>
            </Position>
            <AltitudeMeters>1427.5999755859375</AltitudeMeters>
            <DistanceMeters>NAN</DistanceMeters>
          </Trackpoint>
          <Trackpoint>
            <Time>2021-04-01T11:38:51.000Z</Time>
            <Position>
              <LatitudeDegrees>42.42276434786617755889892578125</LatitudeDegrees>
              <LongitudeDegrees>2.729457803070545196533203125</LongitudeDegrees>
            </Position>
            <AltitudeMeters>1427.800048828125</AltitudeMeters>
            <DistanceMeters>NAN</DistanceMeters>
          </Trackpoint>
          <Trackpoint>
            <Time>2021-04-01T11:38:54.000Z</Time>
            <Position>
              <LatitudeDegrees>42.4227550439536571502685546875</LatitudeDegrees>
              <LongitudeDegrees>2.729426957666873931884765625</LongitudeDegrees>
            </Position>
            <AltitudeMeters>1427.800048828125</AltitudeMeters>
            <DistanceMeters>NAN</DistanceMeters>
          </Trackpoint>
          <Trackpoint>
            <Time>2021-04-01T11:38:57.000Z</Time>
            <Position>
              <LatitudeDegrees>42.4227476678788661956787109375</LatitudeDegrees>
              <LongitudeDegrees>2.7293942682445049285888671875</LongitudeDegrees>
            </Position>
            <AltitudeMeters>1428</AltitudeMeters>
            <DistanceMeters>NAN</DistanceMeters>
          </Trackpoint>
          <Trackpoint>
            <Time>2021-04-01T11:39:04.000Z</Time>
            <Position>
              <LatitudeDegrees>42.422730065882205963134765625</LatitudeDegrees>
              <LongitudeDegrees>2.72931623272597789764404296875</LongitudeDegrees>
            </Position>
            <AltitudeMeters>1428.199951171875</AltitudeMeters>
            <DistanceMeters>NAN</DistanceMeters>
          </Trackpoint>
          <Trackpoint>
            <Time>2021-04-01T11:39:07.000Z</Time>
            <Position>
              <LatitudeDegrees>42.422722689807415008544921875</LatitudeDegrees>
              <LongitudeDegrees>2.7292886562645435333251953125</LongitudeDegrees>
            </Position>
            <AltitudeMeters>1428.199951171875</AltitudeMeters>
            <DistanceMeters>NAN</DistanceMeters>
          </Trackpoint>
          <Trackpoint>
            <Time>2021-04-01T11:39:17.000Z</Time>
            <Position>
              <LatitudeDegrees>42.42270492017269134521484375</LatitudeDegrees>
              <LongitudeDegrees>2.729188241064548492431640625</LongitudeDegrees>
            </Position>
            <AltitudeMeters>1427.5999755859375</AltitudeMeters>
            <DistanceMeters>NAN</DistanceMeters>
          </Trackpoint>
          <Trackpoint>
            <Time>2021-04-01T11:39:25.000Z</Time>
            <Position>
              <LatitudeDegrees>42.42269687354564666748046875</LatitudeDegrees>
              <LongitudeDegrees>2.7290928550064563751220703125</LongitudeDegrees>
            </Position>
            <AltitudeMeters>1426.800048828125</AltitudeMeters>
            <DistanceMeters>NAN</DistanceMeters>
          </Trackpoint>
          <Trackpoint>
            <Time>2021-04-01T11:39:26.000Z</Time>
            <Position>
              <LatitudeDegrees>42.42269477806985378265380859375</LatitudeDegrees>
              <LongitudeDegrees>2.72908271290361881256103515625</LongitudeDegrees>
            </Position>
            <AltitudeMeters>1426.5999755859375</AltitudeMeters>
            <DistanceMeters>NAN</DistanceMeters>
          </Trackpoint>
          <Trackpoint>
            <Time>2021-04-01T11:39:28.000Z</Time>
            <Position>
              <LatitudeDegrees>42.4226906709372997283935546875</LatitudeDegrees>
              <LongitudeDegrees>2.7290596626698970794677734375</LongitudeDegrees>
            </Position>
            <AltitudeMeters>1426.5999755859375</AltitudeMeters>
            <DistanceMeters>NAN</DistanceMeters>
          </Trackpoint>
          <Trackpoint>
            <Time>2021-04-01T11:39:33.000Z</Time>
            <Position>
              <LatitudeDegrees>42.42267499677836894989013671875</LatitudeDegrees>
              <LongitudeDegrees>2.72902051918208599090576171875</LongitudeDegrees>
            </Position>
            <AltitudeMeters>1426.800048828125</AltitudeMeters>
            <DistanceMeters>NAN</DistanceMeters>
          </Trackpoint>
          <Trackpoint>
            <Time>2021-04-01T11:39:36.000Z</Time>
            <Position>
              <LatitudeDegrees>42.42266192100942134857177734375</LatitudeDegrees>
              <LongitudeDegrees>2.72900073789060115814208984375</LongitudeDegrees>
            </Position>
            <AltitudeMeters>1427</AltitudeMeters>
            <DistanceMeters>NAN</DistanceMeters>
          </Trackpoint>
          <Trackpoint>
            <Time>2021-04-01T11:39:42.000Z</Time>
            <Position>
              <LatitudeDegrees>42.42264096625149250030517578125</LatitudeDegrees>
              <LongitudeDegrees>2.72895664907991886138916015625</LongitudeDegrees>
            </Position>
            <AltitudeMeters>1427.5999755859375</AltitudeMeters>
            <DistanceMeters>NAN</DistanceMeters>
          </Trackpoint>
          <Trackpoint>
            <Time>2021-04-01T11:39:44.000Z</Time>
            <Position>
              <LatitudeDegrees>42.42263442836701869964599609375</LatitudeDegrees>
              <LongitudeDegrees>2.72894457913935184478759765625</LongitudeDegrees>
            </Position>
            <AltitudeMeters>1428</AltitudeMeters>
            <DistanceMeters>NAN</DistanceMeters>
          </Trackpoint>
          <Trackpoint>
            <Time>2021-04-01T11:39:51.000Z</Time>
            <Position>
              <LatitudeDegrees>42.42262504063546657562255859375</LatitudeDegrees>
              <LongitudeDegrees>2.72887073457241058349609375</LongitudeDegrees>
            </Position>
            <AltitudeMeters>1428.4000244140625</AltitudeMeters>
            <DistanceMeters>NAN</DistanceMeters>
          </Trackpoint>
          <Trackpoint>
            <Time>2021-04-01T11:39:52.000Z</Time>
            <Position>
              <LatitudeDegrees>42.422625124454498291015625</LatitudeDegrees>
              <LongitudeDegrees>2.7288687229156494140625</LongitudeDegrees>
            </Position>
            <AltitudeMeters>1428</AltitudeMeters>
            <DistanceMeters>NAN</DistanceMeters>
          </Trackpoint>
          <Trackpoint>
            <Time>2021-04-01T11:39:57.000Z</Time>
            <Position>
              <LatitudeDegrees>42.42263828404247760772705078125</LatitudeDegrees>
              <LongitudeDegrees>2.72885422222316265106201171875</LongitudeDegrees>
            </Position>
            <AltitudeMeters>1428</AltitudeMeters>
            <DistanceMeters>NAN</DistanceMeters>
          </Trackpoint>
          <Trackpoint>
            <Time>2021-04-01T11:40:01.000Z</Time>
            <Position>
              <LatitudeDegrees>42.42265798151493072509765625</LatitudeDegrees>
              <LongitudeDegrees>2.72883192636072635650634765625</LongitudeDegrees>
            </Position>
            <AltitudeMeters>1428.4000244140625</AltitudeMeters>
            <DistanceMeters>NAN</DistanceMeters>
          </Trackpoint>
          <Trackpoint>
            <Time>2021-04-01T11:40:03.000Z</Time>
            <Position>
              <LatitudeDegrees>42.42265773005783557891845703125</LatitudeDegrees>
              <LongitudeDegrees>2.728817425668239593505859375</LongitudeDegrees>
            </Position>
            <AltitudeMeters>1428.4000244140625</AltitudeMeters>
            <DistanceMeters>NAN</DistanceMeters>
          </Trackpoint>
          <Trackpoint>
            <Time>2021-04-01T11:40:09.000Z</Time>
            <Position>
              <LatitudeDegrees>42.42264951579272747039794921875</LatitudeDegrees>
              <LongitudeDegrees>2.728775180876255035400390625</LongitudeDegrees>
            </Position>
            <AltitudeMeters>1428</AltitudeMeters>
            <DistanceMeters>NAN</DistanceMeters>
          </Trackpoint>
          <Trackpoint>
            <Time>2021-04-01T11:40:15.000Z</Time>
            <Position>
              <LatitudeDegrees>42.42265622131526470184326171875</LatitudeDegrees>
              <LongitudeDegrees>2.72873251698911190032958984375</LongitudeDegrees>
            </Position>
            <AltitudeMeters>1427.5999755859375</AltitudeMeters>
            <DistanceMeters>NAN</DistanceMeters>
          </Trackpoint>
          <Trackpoint>
            <Time>2021-04-01T11:40:23.000Z</Time>
            <Position>
              <LatitudeDegrees>42.422668039798736572265625</LatitudeDegrees>
              <LongitudeDegrees>2.7286586724221706390380859375</LongitudeDegrees>
            </Position>
            <AltitudeMeters>1426.800048828125</AltitudeMeters>
            <DistanceMeters>NAN</DistanceMeters>
          </Trackpoint>
          <Trackpoint>
            <Time>2021-04-01T11:40:25.000Z</Time>
            <Position>
              <LatitudeDegrees>42.42266309447586536407470703125</LatitudeDegrees>
              <LongitudeDegrees>2.72863897494971752166748046875</LongitudeDegrees>
            </Position>
            <AltitudeMeters>1426.800048828125</AltitudeMeters>
            <DistanceMeters>NAN</DistanceMeters>
          </Trackpoint>
          <Trackpoint>
            <Time>2021-04-01T11:40:28.000Z</Time>
            <Position>
              <LatitudeDegrees>42.42266091518104076385498046875</LatitudeDegrees>
              <LongitudeDegrees>2.72862539626657962799072265625</LongitudeDegrees>
            </Position>
            <AltitudeMeters>1426.199951171875</AltitudeMeters>
            <DistanceMeters>NAN</DistanceMeters>
          </Trackpoint>
          <Trackpoint>
            <Time>2021-04-01T11:40:30.000Z</Time>
            <Position>
              <LatitudeDegrees>42.42265504784882068634033203125</LatitudeDegrees>
              <LongitudeDegrees>2.72861190140247344970703125</LongitudeDegrees>
            </Position>
            <AltitudeMeters>1426</AltitudeMeters>
            <DistanceMeters>NAN</DistanceMeters>
          </Trackpoint>
          <Trackpoint>
            <Time>2021-04-01T11:40:39.000Z</Time>
            <Position>
              <LatitudeDegrees>42.422645576298236846923828125</LatitudeDegrees>
              <LongitudeDegrees>2.728523053228855133056640625</LongitudeDegrees>
            </Position>
            <AltitudeMeters>1427.5999755859375</AltitudeMeters>
            <DistanceMeters>NAN</DistanceMeters>
          </Trackpoint>
          <Trackpoint>
            <Time>2021-04-01T11:40:42.000Z</Time>
            <Position>
              <LatitudeDegrees>42.4226440675556659698486328125</LatitudeDegrees>
              <LongitudeDegrees>2.7285000868141651153564453125</LongitudeDegrees>
            </Position>
            <AltitudeMeters>1428.4000244140625</AltitudeMeters>
            <DistanceMeters>NAN</DistanceMeters>
          </Trackpoint>
          <Trackpoint>
            <Time>2021-04-01T11:40:51.000Z</Time>
            <Position>
              <LatitudeDegrees>42.42264213971793651580810546875</LatitudeDegrees>
              <LongitudeDegrees>2.72841182537376880645751953125</LongitudeDegrees>
            </Position>
            <AltitudeMeters>1428.800048828125</AltitudeMeters>
            <DistanceMeters>NAN</DistanceMeters>
          </Trackpoint>
          <Trackpoint>
            <Time>2021-04-01T11:40:54.000Z</Time>
            <Position>
              <LatitudeDegrees>42.4226423911750316619873046875</LatitudeDegrees>
              <LongitudeDegrees>2.728383578360080718994140625</LongitudeDegrees>
            </Position>
            <AltitudeMeters>1429.800048828125</AltitudeMeters>
            <DistanceMeters>NAN</DistanceMeters>
          </Trackpoint>
          <Trackpoint>
            <Time>2021-04-01T11:40:57.000Z</Time>
            <Position>
              <LatitudeDegrees>42.42263275198638439178466796875</LatitudeDegrees>
              <LongitudeDegrees>2.72836220450699329376220703125</LongitudeDegrees>
            </Position>
            <AltitudeMeters>1430</AltitudeMeters>
            <DistanceMeters>NAN</DistanceMeters>
          </Trackpoint>
          <Trackpoint>
            <Time>2021-04-01T11:41:01.000Z</Time>
            <Position>
              <LatitudeDegrees>42.42262721993029117584228515625</LatitudeDegrees>
              <LongitudeDegrees>2.728328593075275421142578125</LongitudeDegrees>
            </Position>
            <AltitudeMeters>1430</AltitudeMeters>
            <DistanceMeters>NAN</DistanceMeters>
          </Trackpoint>
          <Trackpoint>
            <Time>2021-04-01T11:41:08.000Z</Time>
            <Position>
              <LatitudeDegrees>42.42262520827353000640869140625</LatitudeDegrees>
              <LongitudeDegrees>2.72832431830465793609619140625</LongitudeDegrees>
            </Position>
            <AltitudeMeters>1429.800048828125</AltitudeMeters>
            <DistanceMeters>NAN</DistanceMeters>
          </Trackpoint>
          <Trackpoint>
            <Time>2021-04-01T11:41:17.000Z</Time>
            <Position>
              <LatitudeDegrees>42.42263124324381351470947265625</LatitudeDegrees>
              <LongitudeDegrees>2.72832733578979969024658203125</LongitudeDegrees>
            </Position>
            <AltitudeMeters>1430</AltitudeMeters>
            <DistanceMeters>NAN</DistanceMeters>
          </Trackpoint>
          <Trackpoint>
            <Time>2021-04-01T11:41:22.000Z</Time>
            <Position>
              <LatitudeDegrees>42.42263124324381351470947265625</LatitudeDegrees>
              <LongitudeDegrees>2.72832733578979969024658203125</LongitudeDegrees>
            </Position>
            <AltitudeMeters>1429</AltitudeMeters>
            <DistanceMeters>NAN</DistanceMeters>
          </Trackpoint>
          <Trackpoint>
            <Time>2021-04-01T11:41:25.000Z</Time>
            <Position>
              <LatitudeDegrees>42.4226346798241138458251953125</LatitudeDegrees>
              <LongitudeDegrees>2.72830805741250514984130859375</LongitudeDegrees>
            </Position>
            <AltitudeMeters>1427.800048828125</AltitudeMeters>
            <DistanceMeters>NAN</DistanceMeters>
          </Trackpoint>
          <Trackpoint>
            <Time>2021-04-01T11:41:26.000Z</Time>
            <Position>
              <LatitudeDegrees>42.42263677529990673065185546875</LatitudeDegrees>
              <LongitudeDegrees>2.72829473018646240234375</LongitudeDegrees>
            </Position>
            <AltitudeMeters>1427.4000244140625</AltitudeMeters>
            <DistanceMeters>NAN</DistanceMeters>
          </Trackpoint>
          <Trackpoint>
            <Time>2021-04-01T11:41:29.000Z</Time>
            <Position>
              <LatitudeDegrees>42.4226390384137630462646484375</LatitudeDegrees>
              <LongitudeDegrees>2.7282462827861309051513671875</LongitudeDegrees>
            </Position>
            <AltitudeMeters>1426.5999755859375</AltitudeMeters>
            <DistanceMeters>NAN</DistanceMeters>
          </Trackpoint>
          <Trackpoint>
            <Time>2021-04-01T11:41:35.000Z</Time>
            <Position>
              <LatitudeDegrees>42.42265387438237667083740234375</LatitudeDegrees>
              <LongitudeDegrees>2.72816271521151065826416015625</LongitudeDegrees>
            </Position>
            <AltitudeMeters>1426.4000244140625</AltitudeMeters>
            <DistanceMeters>NAN</DistanceMeters>
          </Trackpoint>
          <Trackpoint>
            <Time>2021-04-01T11:41:39.000Z</Time>
            <Position>
              <LatitudeDegrees>42.4226534552872180938720703125</LatitudeDegrees>
              <LongitudeDegrees>2.72812700830399990081787109375</LongitudeDegrees>
            </Position>
            <AltitudeMeters>1426</AltitudeMeters>
            <DistanceMeters>NAN</DistanceMeters>
          </Trackpoint>
          <Trackpoint>
            <Time>2021-04-01T11:41:41.000Z</Time>
            <Position>
              <LatitudeDegrees>42.422649599611759185791015625</LatitudeDegrees>
              <LongitudeDegrees>2.7281054668128490447998046875</LongitudeDegrees>
            </Position>
            <AltitudeMeters>1425.800048828125</AltitudeMeters>
            <DistanceMeters>NAN</DistanceMeters>
          </Trackpoint>
          <Trackpoint>
            <Time>2021-04-01T11:41:44.000Z</Time>
            <Position>
              <LatitudeDegrees>42.4226407147943973541259765625</LatitudeDegrees>
              <LongitudeDegrees>2.7280732803046703338623046875</LongitudeDegrees>
            </Position>
            <AltitudeMeters>1425.4000244140625</AltitudeMeters>
            <DistanceMeters>NAN</DistanceMeters>
          </Trackpoint>
          <Trackpoint>
            <Time>2021-04-01T11:41:47.000Z</Time>
            <Position>
              <LatitudeDegrees>42.42264457046985626220703125</LatitudeDegrees>
              <LongitudeDegrees>2.72804469801485538482666015625</LongitudeDegrees>
            </Position>
            <AltitudeMeters>1425.4000244140625</AltitudeMeters>
            <DistanceMeters>NAN</DistanceMeters>
          </Trackpoint>
          <Trackpoint>
            <Time>2021-04-01T11:41:49.000Z</Time>
            <Position>
              <LatitudeDegrees>42.42263291962444782257080078125</LatitudeDegrees>
              <LongitudeDegrees>2.72803128696978092193603515625</LongitudeDegrees>
            </Position>
            <AltitudeMeters>1425</AltitudeMeters>
            <DistanceMeters>NAN</DistanceMeters>
          </Trackpoint>
          <Trackpoint>
            <Time>2021-04-01T11:41:51.000Z</Time>
            <Position>
              <LatitudeDegrees>42.422626130282878875732421875</LatitudeDegrees>
              <LongitudeDegrees>2.72800781764090061187744140625</LongitudeDegrees>
            </Position>
            <AltitudeMeters>1424.800048828125</AltitudeMeters>
            <DistanceMeters>NAN</DistanceMeters>
          </Trackpoint>
          <Trackpoint>
            <Time>2021-04-01T11:41:53.000Z</Time>
            <Position>
              <LatitudeDegrees>42.42263224907219409942626953125</LatitudeDegrees>
              <LongitudeDegrees>2.7279820851981639862060546875</LongitudeDegrees>
            </Position>
            <AltitudeMeters>1424.800048828125</AltitudeMeters>
            <DistanceMeters>NAN</DistanceMeters>
          </Trackpoint>
          <Trackpoint>
            <Time>2021-04-01T11:41:55.000Z</Time>
            <Position>
              <LatitudeDegrees>42.4226460792124271392822265625</LatitudeDegrees>
              <LongitudeDegrees>2.72796356119215488433837890625</LongitudeDegrees>
            </Position>
            <AltitudeMeters>1425.199951171875</AltitudeMeters>
            <DistanceMeters>NAN</DistanceMeters>
          </Trackpoint>
          <Trackpoint>
            <Time>2021-04-01T11:41:58.000Z</Time>
            <Position>
              <LatitudeDegrees>42.42266334593296051025390625</LatitudeDegrees>
              <LongitudeDegrees>2.7279502339661121368408203125</LongitudeDegrees>
            </Position>
            <AltitudeMeters>1426</AltitudeMeters>
            <DistanceMeters>NAN</DistanceMeters>
          </Trackpoint>
          <Trackpoint>
            <Time>2021-04-01T11:42:00.000Z</Time>
            <Position>
              <LatitudeDegrees>42.422675080597400665283203125</LatitudeDegrees>
              <LongitudeDegrees>2.72794143296778202056884765625</LongitudeDegrees>
            </Position>
            <AltitudeMeters>1426.5999755859375</AltitudeMeters>
            <DistanceMeters>NAN</DistanceMeters>
          </Trackpoint>
          <Trackpoint>
            <Time>2021-04-01T11:42:04.000Z</Time>
            <Position>
              <LatitudeDegrees>42.422695867717266082763671875</LatitudeDegrees>
              <LongitudeDegrees>2.72790421731770038604736328125</LongitudeDegrees>
            </Position>
            <AltitudeMeters>1427.800048828125</AltitudeMeters>
            <DistanceMeters>NAN</DistanceMeters>
          </Trackpoint>
          <Trackpoint>
            <Time>2021-04-01T11:42:05.000Z</Time>
            <Position>
              <LatitudeDegrees>42.42270349524915218353271484375</LatitudeDegrees>
              <LongitudeDegrees>2.72789617069065570831298828125</LongitudeDegrees>
            </Position>
            <AltitudeMeters>1428</AltitudeMeters>
            <DistanceMeters>NAN</DistanceMeters>
          </Trackpoint>
          <Trackpoint>
            <Time>2021-04-01T11:42:07.000Z</Time>
            <Position>
              <LatitudeDegrees>42.4227121286094188690185546875</LatitudeDegrees>
              <LongitudeDegrees>2.72788477130234241485595703125</LongitudeDegrees>
            </Position>
            <AltitudeMeters>1428.4000244140625</AltitudeMeters>
            <DistanceMeters>NAN</DistanceMeters>
          </Trackpoint>
          <Trackpoint>
            <Time>2021-04-01T11:42:15.000Z</Time>
            <Position>
              <LatitudeDegrees>42.42276124656200408935546875</LatitudeDegrees>
              <LongitudeDegrees>2.7278134413063526153564453125</LongitudeDegrees>
            </Position>
            <AltitudeMeters>1428</AltitudeMeters>
            <DistanceMeters>NAN</DistanceMeters>
          </Trackpoint>
          <Trackpoint>
            <Time>2021-04-01T11:42:24.000Z</Time>
            <Position>
              <LatitudeDegrees>42.422804497182369232177734375</LatitudeDegrees>
              <LongitudeDegrees>2.72773347795009613037109375</LongitudeDegrees>
            </Position>
            <AltitudeMeters>1427.4000244140625</AltitudeMeters>
            <DistanceMeters>NAN</DistanceMeters>
          </Trackpoint>
          <Trackpoint>
            <Time>2021-04-01T11:42:33.000Z</Time>
            <Position>
              <LatitudeDegrees>42.42283358238637447357177734375</LatitudeDegrees>
              <LongitudeDegrees>2.72766885347664356231689453125</LongitudeDegrees>
            </Position>
            <AltitudeMeters>1427.800048828125</AltitudeMeters>
            <DistanceMeters>NAN</DistanceMeters>
          </Trackpoint>
          <Trackpoint>
            <Time>2021-04-01T11:42:38.000Z</Time>
            <Position>
              <LatitudeDegrees>42.42283307947218418121337890625</LatitudeDegrees>
              <LongitudeDegrees>2.727635912597179412841796875</LongitudeDegrees>
            </Position>
            <AltitudeMeters>1428.800048828125</AltitudeMeters>
            <DistanceMeters>NAN</DistanceMeters>
          </Trackpoint>
          <Trackpoint>
            <Time>2021-04-01T11:42:39.000Z</Time>
            <Position>
              <LatitudeDegrees>42.42283693514764308929443359375</LatitudeDegrees>
              <LongitudeDegrees>2.7276300452649593353271484375</LongitudeDegrees>
            </Position>
            <AltitudeMeters>1429</AltitudeMeters>
            <DistanceMeters>NAN</DistanceMeters>
          </Trackpoint>
          <Trackpoint>
            <Time>2021-04-01T11:42:42.000Z</Time>
            <Position>
              <LatitudeDegrees>42.4228438921272754669189453125</LatitudeDegrees>
              <LongitudeDegrees>2.727609090507030487060546875</LongitudeDegrees>
            </Position>
            <AltitudeMeters>1430</AltitudeMeters>
            <DistanceMeters>NAN</DistanceMeters>
          </Trackpoint>
          <Trackpoint>
            <Time>2021-04-01T11:42:44.000Z</Time>
            <Position>
              <LatitudeDegrees>42.4228479154407978057861328125</LatitudeDegrees>
              <LongitudeDegrees>2.72759224288165569305419921875</LongitudeDegrees>
            </Position>
            <AltitudeMeters>1430.800048828125</AltitudeMeters>
            <DistanceMeters>NAN</DistanceMeters>
          </Trackpoint>
          <Trackpoint>
            <Time>2021-04-01T11:42:45.000Z</Time>
            <Position>
              <LatitudeDegrees>42.4228532798588275909423828125</LatitudeDegrees>
              <LongitudeDegrees>2.72758570499718189239501953125</LongitudeDegrees>
            </Position>
            <AltitudeMeters>1431.199951171875</AltitudeMeters>
            <DistanceMeters>NAN</DistanceMeters>
          </Trackpoint>
          <Trackpoint>
            <Time>2021-04-01T11:42:47.000Z</Time>
            <Position>
              <LatitudeDegrees>42.42286493070423603057861328125</LatitudeDegrees>
              <LongitudeDegrees>2.7275737188756465911865234375</LongitudeDegrees>
            </Position>
            <AltitudeMeters>1431.5999755859375</AltitudeMeters>
            <DistanceMeters>NAN</DistanceMeters>
          </Trackpoint>
          <Trackpoint>
            <Time>2021-04-01T11:42:49.000Z</Time>
            <Position>
              <LatitudeDegrees>42.42287524044513702392578125</LatitudeDegrees>
              <LongitudeDegrees>2.7275619842112064361572265625</LongitudeDegrees>
            </Position>
            <AltitudeMeters>1431.5999755859375</AltitudeMeters>
            <DistanceMeters>NAN</DistanceMeters>
          </Trackpoint>
          <Trackpoint>
            <Time>2021-04-01T11:42:52.000Z</Time>
            <Position>
              <LatitudeDegrees>42.42289393208920955657958984375</LatitudeDegrees>
              <LongitudeDegrees>2.7275401912629604339599609375</LongitudeDegrees>
            </Position>
            <AltitudeMeters>1431.5999755859375</AltitudeMeters>
            <DistanceMeters>NAN</DistanceMeters>
          </Trackpoint>
          <Trackpoint>
            <Time>2021-04-01T11:42:57.000Z</Time>
            <Position>
              <LatitudeDegrees>42.42290164344012737274169921875</LatitudeDegrees>
              <LongitudeDegrees>2.72751512937247753143310546875</LongitudeDegrees>
            </Position>
            <AltitudeMeters>1431.199951171875</AltitudeMeters>
            <DistanceMeters>NAN</DistanceMeters>
          </Trackpoint>
          <Trackpoint>
            <Time>2021-04-01T11:43:04.000Z</Time>
            <Position>
              <LatitudeDegrees>42.4228975363075733184814453125</LatitudeDegrees>
              <LongitudeDegrees>2.7274875529110431671142578125</LongitudeDegrees>
            </Position>
            <AltitudeMeters>1431.199951171875</AltitudeMeters>
            <DistanceMeters>NAN</DistanceMeters>
          </Trackpoint>
          <Trackpoint>
            <Time>2021-04-01T11:43:17.000Z</Time>
            <Position>
              <LatitudeDegrees>42.4228982068598270416259765625</LatitudeDegrees>
              <LongitudeDegrees>2.7274860441684722900390625</LongitudeDegrees>
            </Position>
            <AltitudeMeters>1431.199951171875</AltitudeMeters>
            <DistanceMeters>NAN</DistanceMeters>
          </Trackpoint>
          <Trackpoint>
            <Time>2021-04-01T11:43:24.000Z</Time>
            <Position>
              <LatitudeDegrees>42.422898709774017333984375</LatitudeDegrees>
              <LongitudeDegrees>2.72748361341655254364013671875</LongitudeDegrees>
            </Position>
            <AltitudeMeters>1430.199951171875</AltitudeMeters>
            <DistanceMeters>NAN</DistanceMeters>
          </Trackpoint>
          <Trackpoint>
            <Time>2021-04-01T11:43:29.000Z</Time>
            <Position>
              <LatitudeDegrees>42.4229002185165882110595703125</LatitudeDegrees>
              <LongitudeDegrees>2.72747975774109363555908203125</LongitudeDegrees>
            </Position>
            <AltitudeMeters>1429.199951171875</AltitudeMeters>
            <DistanceMeters>NAN</DistanceMeters>
          </Trackpoint>
          <Trackpoint>
            <Time>2021-04-01T11:43:35.000Z</Time>
            <Position>
              <LatitudeDegrees>42.42291773669421672821044921875</LatitudeDegrees>
              <LongitudeDegrees>2.72747774608433246612548828125</LongitudeDegrees>
            </Position>
            <AltitudeMeters>1428.5999755859375</AltitudeMeters>
            <DistanceMeters>NAN</DistanceMeters>
          </Trackpoint>
          <Trackpoint>
            <Time>2021-04-01T11:43:40.000Z</Time>
            <Position>
              <LatitudeDegrees>42.4229186587035655975341796875</LatitudeDegrees>
              <LongitudeDegrees>2.7274634130299091339111328125</LongitudeDegrees>
            </Position>
            <AltitudeMeters>1428</AltitudeMeters>
            <DistanceMeters>NAN</DistanceMeters>
          </Trackpoint>
          <Trackpoint>
            <Time>2021-04-01T11:43:47.000Z</Time>
            <Position>
              <LatitudeDegrees>42.422919832170009613037109375</LatitudeDegrees>
              <LongitudeDegrees>2.727456204593181610107421875</LongitudeDegrees>
            </Position>
            <AltitudeMeters>1427</AltitudeMeters>
            <DistanceMeters>NAN</DistanceMeters>
          </Trackpoint>
          <Trackpoint>
            <Time>2021-04-01T11:43:53.000Z</Time>
            <Position>
              <LatitudeDegrees>42.4229263700544834136962890625</LatitudeDegrees>
              <LongitudeDegrees>2.72744488902390003204345703125</LongitudeDegrees>
            </Position>
            <AltitudeMeters>1425.800048828125</AltitudeMeters>
            <DistanceMeters>NAN</DistanceMeters>
          </Trackpoint>
          <Trackpoint>
            <Time>2021-04-01T11:43:55.000Z</Time>
            <Position>
              <LatitudeDegrees>42.4229307286441326141357421875</LatitudeDegrees>
              <LongitudeDegrees>2.72744245827198028564453125</LongitudeDegrees>
            </Position>
            <AltitudeMeters>1425.4000244140625</AltitudeMeters>
            <DistanceMeters>NAN</DistanceMeters>
          </Trackpoint>
          <Trackpoint>
            <Time>2021-04-01T11:44:03.000Z</Time>
            <Position>
              <LatitudeDegrees>42.4229434691369533538818359375</LatitudeDegrees>
              <LongitudeDegrees>2.727427370846271514892578125</LongitudeDegrees>
            </Position>
            <AltitudeMeters>1424.800048828125</AltitudeMeters>
            <DistanceMeters>NAN</DistanceMeters>
          </Trackpoint>
          <Trackpoint>
            <Time>2021-04-01T11:44:10.000Z</Time>
            <Position>
              <LatitudeDegrees>42.4229518510401248931884765625</LatitudeDegrees>
              <LongitudeDegrees>2.727407254278659820556640625</LongitudeDegrees>
            </Position>
            <AltitudeMeters>1423.5999755859375</AltitudeMeters>
            <DistanceMeters>NAN</DistanceMeters>
          </Trackpoint>
          <Trackpoint>
            <Time>2021-04-01T11:44:15.000Z</Time>
            <Position>
              <LatitudeDegrees>42.42295478470623493194580078125</LatitudeDegrees>
              <LongitudeDegrees>2.727387137711048126220703125</LongitudeDegrees>
            </Position>
            <AltitudeMeters>1422.5999755859375</AltitudeMeters>
            <DistanceMeters>NAN</DistanceMeters>
          </Trackpoint>
          <Trackpoint>
            <Time>2021-04-01T11:44:18.000Z</Time>
            <Position>
              <LatitudeDegrees>42.4229568801820278167724609375</LatitudeDegrees>
              <LongitudeDegrees>2.72737615741789340972900390625</LongitudeDegrees>
            </Position>
            <AltitudeMeters>1422.199951171875</AltitudeMeters>
            <DistanceMeters>NAN</DistanceMeters>
          </Trackpoint>
          <Trackpoint>
            <Time>2021-04-01T11:44:24.000Z</Time>
            <Position>
              <LatitudeDegrees>42.42296132259070873260498046875</LatitudeDegrees>
              <LongitudeDegrees>2.72735117934644222259521484375</LongitudeDegrees>
            </Position>
            <AltitudeMeters>1421.4000244140625</AltitudeMeters>
            <DistanceMeters>NAN</DistanceMeters>
          </Trackpoint>
          <Trackpoint>
            <Time>2021-04-01T11:44:25.000Z</Time>
            <Position>
              <LatitudeDegrees>42.42296249605715274810791015625</LatitudeDegrees>
              <LongitudeDegrees>2.72734682075679302215576171875</LongitudeDegrees>
            </Position>
            <AltitudeMeters>1421.199951171875</AltitudeMeters>
            <DistanceMeters>NAN</DistanceMeters>
          </Trackpoint>
          <Trackpoint>
            <Time>2021-04-01T11:44:27.000Z</Time>
            <Position>
              <LatitudeDegrees>42.422964088618755340576171875</LatitudeDegrees>
              <LongitudeDegrees>2.727340199053287506103515625</LongitudeDegrees>
            </Position>
            <AltitudeMeters>1420.800048828125</AltitudeMeters>
            <DistanceMeters>NAN</DistanceMeters>
          </Trackpoint>
          <Trackpoint>
            <Time>2021-04-01T11:44:29.000Z</Time>
            <Position>
              <LatitudeDegrees>42.42297045886516571044921875</LatitudeDegrees>
              <LongitudeDegrees>2.72733743302524089813232421875</LongitudeDegrees>
            </Position>
            <AltitudeMeters>1420.4000244140625</AltitudeMeters>
            <DistanceMeters>NAN</DistanceMeters>
          </Trackpoint>
          <Trackpoint>
            <Time>2021-04-01T11:44:31.000Z</Time>
            <Position>
              <LatitudeDegrees>42.4229753203690052032470703125</LatitudeDegrees>
              <LongitudeDegrees>2.72733525373041629791259765625</LongitudeDegrees>
            </Position>
            <AltitudeMeters>1419.800048828125</AltitudeMeters>
            <DistanceMeters>NAN</DistanceMeters>
          </Trackpoint>
          <Trackpoint>
            <Time>2021-04-01T11:44:32.000Z</Time>
            <Position>
              <LatitudeDegrees>42.422976829111576080322265625</LatitudeDegrees>
              <LongitudeDegrees>2.7273346669971942901611328125</LongitudeDegrees>
            </Position>
            <AltitudeMeters>1419.5999755859375</AltitudeMeters>
            <DistanceMeters>NAN</DistanceMeters>
          </Trackpoint>
          <Trackpoint>
            <Time>2021-04-01T11:44:35.000Z</Time>
            <Position>
              <LatitudeDegrees>42.4229800142347812652587890625</LatitudeDegrees>
              <LongitudeDegrees>2.727326117455959320068359375</LongitudeDegrees>
            </Position>
            <AltitudeMeters>1419.199951171875</AltitudeMeters>
            <DistanceMeters>NAN</DistanceMeters>
          </Trackpoint>
          <Trackpoint>
            <Time>2021-04-01T11:44:40.000Z</Time>
            <Position>
              <LatitudeDegrees>42.42298923432826995849609375</LatitudeDegrees>
              <LongitudeDegrees>2.727305330336093902587890625</LongitudeDegrees>
            </Position>
            <AltitudeMeters>1419.199951171875</AltitudeMeters>
            <DistanceMeters>NAN</DistanceMeters>
          </Trackpoint>
          <Trackpoint>
            <Time>2021-04-01T11:44:59.000Z</Time>
            <Position>
              <LatitudeDegrees>42.42298915050923824310302734375</LatitudeDegrees>
              <LongitudeDegrees>2.72718722932040691375732421875</LongitudeDegrees>
            </Position>
            <AltitudeMeters>1418.5999755859375</AltitudeMeters>
            <DistanceMeters>NAN</DistanceMeters>
          </Trackpoint>
          <Trackpoint>
            <Time>2021-04-01T11:45:01.000Z</Time>
            <Position>
              <LatitudeDegrees>42.4229826964437961578369140625</LatitudeDegrees>
              <LongitudeDegrees>2.72717247717082500457763671875</LongitudeDegrees>
            </Position>
            <AltitudeMeters>1418.199951171875</AltitudeMeters>
            <DistanceMeters>NAN</DistanceMeters>
          </Trackpoint>
          <Trackpoint>
            <Time>2021-04-01T11:45:10.000Z</Time>
            <Position>
              <LatitudeDegrees>42.42295310832560062408447265625</LatitudeDegrees>
              <LongitudeDegrees>2.72718764841556549072265625</LongitudeDegrees>
            </Position>
            <AltitudeMeters>1418</AltitudeMeters>
            <DistanceMeters>NAN</DistanceMeters>
          </Trackpoint>
          <Trackpoint>
            <Time>2021-04-01T11:45:18.000Z</Time>
            <Position>
              <LatitudeDegrees>42.42296936921775341033935546875</LatitudeDegrees>
              <LongitudeDegrees>2.72717691957950592041015625</LongitudeDegrees>
            </Position>
            <AltitudeMeters>1418.199951171875</AltitudeMeters>
            <DistanceMeters>NAN</DistanceMeters>
          </Trackpoint>
          <Trackpoint>
            <Time>2021-04-01T11:45:26.000Z</Time>
            <Position>
              <LatitudeDegrees>42.4229679442942142486572265625</LatitudeDegrees>
              <LongitudeDegrees>2.72714783437550067901611328125</LongitudeDegrees>
            </Position>
            <AltitudeMeters>1417.800048828125</AltitudeMeters>
            <DistanceMeters>NAN</DistanceMeters>
          </Trackpoint>
          <Trackpoint>
            <Time>2021-04-01T11:45:33.000Z</Time>
            <Position>
              <LatitudeDegrees>42.4229622446000576019287109375</LatitudeDegrees>
              <LongitudeDegrees>2.72710458375513553619384765625</LongitudeDegrees>
            </Position>
            <AltitudeMeters>1418</AltitudeMeters>
            <DistanceMeters>NAN</DistanceMeters>
          </Trackpoint>
          <Trackpoint>
            <Time>2021-04-01T11:45:37.000Z</Time>
            <Position>
              <LatitudeDegrees>42.42296065203845500946044921875</LatitudeDegrees>
              <LongitudeDegrees>2.72708999924361705780029296875</LongitudeDegrees>
            </Position>
            <AltitudeMeters>1418.199951171875</AltitudeMeters>
            <DistanceMeters>NAN</DistanceMeters>
          </Trackpoint>
          <Trackpoint>
            <Time>2021-04-01T11:45:38.000Z</Time>
            <Position>
              <LatitudeDegrees>42.42296107113361358642578125</LatitudeDegrees>
              <LongitudeDegrees>2.72708840668201446533203125</LongitudeDegrees>
            </Position>
            <AltitudeMeters>1418.199951171875</AltitudeMeters>
            <DistanceMeters>NAN</DistanceMeters>
          </Trackpoint>
          <Trackpoint>
            <Time>2021-04-01T11:45:39.000Z</Time>
            <Position>
              <LatitudeDegrees>42.42296216078102588653564453125</LatitudeDegrees>
              <LongitudeDegrees>2.7270852215588092803955078125</LongitudeDegrees>
            </Position>
            <AltitudeMeters>1418.199951171875</AltitudeMeters>
            <DistanceMeters>NAN</DistanceMeters>
          </Trackpoint>
          <Trackpoint>
            <Time>2021-04-01T11:45:47.000Z</Time>
            <Position>
              <LatitudeDegrees>42.4229652620851993560791015625</LatitudeDegrees>
              <LongitudeDegrees>2.72704825736582279205322265625</LongitudeDegrees>
            </Position>
            <AltitudeMeters>1418.4000244140625</AltitudeMeters>
            <DistanceMeters>NAN</DistanceMeters>
          </Trackpoint>
          <Trackpoint>
            <Time>2021-04-01T11:45:55.000Z</Time>
            <Position>
              <LatitudeDegrees>42.42295025847852230072021484375</LatitudeDegrees>
              <LongitudeDegrees>2.72700014524161815643310546875</LongitudeDegrees>
            </Position>
            <AltitudeMeters>1418.5999755859375</AltitudeMeters>
            <DistanceMeters>NAN</DistanceMeters>
          </Trackpoint>
          <Trackpoint>
            <Time>2021-04-01T11:45:56.000Z</Time>
            <Position>
              <LatitudeDegrees>42.42294975556433200836181640625</LatitudeDegrees>
              <LongitudeDegrees>2.72699478082358837127685546875</LongitudeDegrees>
            </Position>
            <AltitudeMeters>1419</AltitudeMeters>
            <DistanceMeters>NAN</DistanceMeters>
          </Trackpoint>
          <Trackpoint>
            <Time>2021-04-01T11:46:00.000Z</Time>
            <Position>
              <LatitudeDegrees>42.4229391105473041534423828125</LatitudeDegrees>
              <LongitudeDegrees>2.72697600536048412322998046875</LongitudeDegrees>
            </Position>
            <AltitudeMeters>1419.199951171875</AltitudeMeters>
            <DistanceMeters>NAN</DistanceMeters>
          </Trackpoint>
          <Trackpoint>
            <Time>2021-04-01T11:46:01.000Z</Time>
            <Position>
              <LatitudeDegrees>42.42293701507151126861572265625</LatitudeDegrees>
              <LongitudeDegrees>2.72697047330439090728759765625</LongitudeDegrees>
            </Position>
            <AltitudeMeters>1419.199951171875</AltitudeMeters>
            <DistanceMeters>NAN</DistanceMeters>
          </Trackpoint>
          <Trackpoint>
            <Time>2021-04-01T11:46:04.000Z</Time>
            <Position>
              <LatitudeDegrees>42.42293232120573520660400390625</LatitudeDegrees>
              <LongitudeDegrees>2.72695857100188732147216796875</LongitudeDegrees>
            </Position>
            <AltitudeMeters>1419.4000244140625</AltitudeMeters>
            <DistanceMeters>NAN</DistanceMeters>
          </Trackpoint>
          <Trackpoint>
            <Time>2021-04-01T11:46:11.000Z</Time>
            <Position>
              <LatitudeDegrees>42.422916479408740997314453125</LatitudeDegrees>
              <LongitudeDegrees>2.7269387058913707733154296875</LongitudeDegrees>
            </Position>
            <AltitudeMeters>1420.199951171875</AltitudeMeters>
            <DistanceMeters>NAN</DistanceMeters>
          </Trackpoint>
          <Trackpoint>
            <Time>2021-04-01T11:46:12.000Z</Time>
            <Position>
              <LatitudeDegrees>42.42291413247585296630859375</LatitudeDegrees>
              <LongitudeDegrees>2.7269361913204193115234375</LongitudeDegrees>
            </Position>
            <AltitudeMeters>1420.199951171875</AltitudeMeters>
            <DistanceMeters>NAN</DistanceMeters>
          </Trackpoint>
          <Trackpoint>
            <Time>2021-04-01T11:46:18.000Z</Time>
            <Position>
              <LatitudeDegrees>42.42290969006717205047607421875</LatitudeDegrees>
              <LongitudeDegrees>2.7269254624843597412109375</LongitudeDegrees>
            </Position>
            <AltitudeMeters>1419.4000244140625</AltitudeMeters>
            <DistanceMeters>NAN</DistanceMeters>
          </Trackpoint>
          <Trackpoint>
            <Time>2021-04-01T11:46:27.000Z</Time>
            <Position>
              <LatitudeDegrees>42.42290969006717205047607421875</LatitudeDegrees>
              <LongitudeDegrees>2.7269254624843597412109375</LongitudeDegrees>
            </Position>
            <AltitudeMeters>1418.199951171875</AltitudeMeters>
            <DistanceMeters>NAN</DistanceMeters>
          </Trackpoint>
          <Trackpoint>
            <Time>2021-04-01T11:46:31.000Z</Time>
            <Position>
              <LatitudeDegrees>42.42290969006717205047607421875</LatitudeDegrees>
              <LongitudeDegrees>2.7269254624843597412109375</LongitudeDegrees>
            </Position>
            <AltitudeMeters>1417</AltitudeMeters>
            <DistanceMeters>NAN</DistanceMeters>
          </Trackpoint>
          <Trackpoint>
            <Time>2021-04-01T11:46:35.000Z</Time>
            <Position>
              <LatitudeDegrees>42.42291002534329891204833984375</LatitudeDegrees>
              <LongitudeDegrees>2.7269192598760128021240234375</LongitudeDegrees>
            </Position>
            <AltitudeMeters>1416.199951171875</AltitudeMeters>
            <DistanceMeters>NAN</DistanceMeters>
          </Trackpoint>
          <Trackpoint>
            <Time>2021-04-01T11:46:37.000Z</Time>
            <Position>
              <LatitudeDegrees>42.422911785542964935302734375</LatitudeDegrees>
              <LongitudeDegrees>2.7269058488309383392333984375</LongitudeDegrees>
            </Position>
            <AltitudeMeters>1415.800048828125</AltitudeMeters>
            <DistanceMeters>NAN</DistanceMeters>
          </Trackpoint>
          <Trackpoint>
            <Time>2021-04-01T11:46:43.000Z</Time>
            <Position>
              <LatitudeDegrees>42.4229126237332820892333984375</LatitudeDegrees>
              <LongitudeDegrees>2.72687022574245929718017578125</LongitudeDegrees>
            </Position>
            <AltitudeMeters>1414.5999755859375</AltitudeMeters>
            <DistanceMeters>NAN</DistanceMeters>
          </Trackpoint>
          <Trackpoint>
            <Time>2021-04-01T11:46:46.000Z</Time>
            <Position>
              <LatitudeDegrees>42.42291891016066074371337890625</LatitudeDegrees>
              <LongitudeDegrees>2.72685932926833629608154296875</LongitudeDegrees>
            </Position>
            <AltitudeMeters>1414</AltitudeMeters>
            <DistanceMeters>NAN</DistanceMeters>
          </Trackpoint>
          <Trackpoint>
            <Time>2021-04-01T11:46:49.000Z</Time>
            <Position>
              <LatitudeDegrees>42.42292192764580249786376953125</LatitudeDegrees>
              <LongitudeDegrees>2.72684692405164241790771484375</LongitudeDegrees>
            </Position>
            <AltitudeMeters>1413.5999755859375</AltitudeMeters>
            <DistanceMeters>NAN</DistanceMeters>
          </Trackpoint>
          <Trackpoint>
            <Time>2021-04-01T11:46:50.000Z</Time>
            <Position>
              <LatitudeDegrees>42.4229223467409610748291015625</LatitudeDegrees>
              <LongitudeDegrees>2.7268391288816928863525390625</LongitudeDegrees>
            </Position>
            <AltitudeMeters>1413.4000244140625</AltitudeMeters>
            <DistanceMeters>NAN</DistanceMeters>
          </Trackpoint>
          <Trackpoint>
            <Time>2021-04-01T11:46:54.000Z</Time>
            <Position>
              <LatitudeDegrees>42.42293114773929119110107421875</LatitudeDegrees>
              <LongitudeDegrees>2.72681021131575107574462890625</LongitudeDegrees>
            </Position>
            <AltitudeMeters>1412.5999755859375</AltitudeMeters>
            <DistanceMeters>NAN</DistanceMeters>
          </Trackpoint>
          <Trackpoint>
            <Time>2021-04-01T11:47:02.000Z</Time>
            <Position>
              <LatitudeDegrees>42.42294690571725368499755859375</LatitudeDegrees>
              <LongitudeDegrees>2.72677869535982608795166015625</LongitudeDegrees>
            </Position>
            <AltitudeMeters>1411.800048828125</AltitudeMeters>
            <DistanceMeters>NAN</DistanceMeters>
          </Trackpoint>
          <Trackpoint>
            <Time>2021-04-01T11:47:05.000Z</Time>
            <Position>
              <LatitudeDegrees>42.42295294068753719329833984375</LatitudeDegrees>
              <LongitudeDegrees>2.72675874643027782440185546875</LongitudeDegrees>
            </Position>
            <AltitudeMeters>1411.4000244140625</AltitudeMeters>
            <DistanceMeters>NAN</DistanceMeters>
          </Trackpoint>
          <Trackpoint>
            <Time>2021-04-01T11:47:07.000Z</Time>
            <Position>
              <LatitudeDegrees>42.42295813746750354766845703125</LatitudeDegrees>
              <LongitudeDegrees>2.72675422020256519317626953125</LongitudeDegrees>
            </Position>
            <AltitudeMeters>1411</AltitudeMeters>
            <DistanceMeters>NAN</DistanceMeters>
          </Trackpoint>
          <Trackpoint>
            <Time>2021-04-01T11:47:13.000Z</Time>
            <Position>
              <LatitudeDegrees>42.42295973002910614013671875</LatitudeDegrees>
              <LongitudeDegrees>2.726745419204235076904296875</LongitudeDegrees>
            </Position>
            <AltitudeMeters>1410.4000244140625</AltitudeMeters>
            <DistanceMeters>NAN</DistanceMeters>
          </Trackpoint>
          <Trackpoint>
            <Time>2021-04-01T11:47:30.000Z</Time>
            <Position>
              <LatitudeDegrees>42.42297691293060779571533203125</LatitudeDegrees>
              <LongitudeDegrees>2.72665833123028278350830078125</LongitudeDegrees>
            </Position>
            <AltitudeMeters>1409.4000244140625</AltitudeMeters>
            <DistanceMeters>NAN</DistanceMeters>
          </Trackpoint>
          <Trackpoint>
            <Time>2021-04-01T11:47:35.000Z</Time>
            <Position>
              <LatitudeDegrees>42.4229783378541469573974609375</LatitudeDegrees>
              <LongitudeDegrees>2.72664324380457401275634765625</LongitudeDegrees>
            </Position>
            <AltitudeMeters>1408.800048828125</AltitudeMeters>
            <DistanceMeters>NAN</DistanceMeters>
          </Trackpoint>
          <Trackpoint>
            <Time>2021-04-01T11:47:36.000Z</Time>
            <Position>
              <LatitudeDegrees>42.42297850549221038818359375</LatitudeDegrees>
              <LongitudeDegrees>2.72664123214781284332275390625</LongitudeDegrees>
            </Position>
            <AltitudeMeters>1408.800048828125</AltitudeMeters>
            <DistanceMeters>NAN</DistanceMeters>
          </Trackpoint>
          <Trackpoint>
            <Time>2021-04-01T11:47:37.000Z</Time>
            <Position>
              <LatitudeDegrees>42.42297875694930553436279296875</LatitudeDegrees>
              <LongitudeDegrees>2.72663645446300506591796875</LongitudeDegrees>
            </Position>
            <AltitudeMeters>1408.5999755859375</AltitudeMeters>
            <DistanceMeters>NAN</DistanceMeters>
          </Trackpoint>
          <Trackpoint>
            <Time>2021-04-01T11:47:39.000Z</Time>
            <Position>
              <LatitudeDegrees>42.4229790084064006805419921875</LatitudeDegrees>
              <LongitudeDegrees>2.72662572562694549560546875</LongitudeDegrees>
            </Position>
            <AltitudeMeters>1408.5999755859375</AltitudeMeters>
            <DistanceMeters>NAN</DistanceMeters>
          </Trackpoint>
          <Trackpoint>
            <Time>2021-04-01T11:47:40.000Z</Time>
            <Position>
              <LatitudeDegrees>42.42297909222543239593505859375</LatitudeDegrees>
              <LongitudeDegrees>2.72662195377051830291748046875</LongitudeDegrees>
            </Position>
            <AltitudeMeters>1408.4000244140625</AltitudeMeters>
            <DistanceMeters>NAN</DistanceMeters>
          </Trackpoint>
          <Trackpoint>
            <Time>2021-04-01T11:47:44.000Z</Time>
            <Position>
              <LatitudeDegrees>42.42297909222543239593505859375</LatitudeDegrees>
              <LongitudeDegrees>2.7266089618206024169921875</LongitudeDegrees>
            </Position>
            <AltitudeMeters>1407.4000244140625</AltitudeMeters>
            <DistanceMeters>NAN</DistanceMeters>
          </Trackpoint>
          <Trackpoint>
            <Time>2021-04-01T11:47:45.000Z</Time>
            <Position>
              <LatitudeDegrees>42.42297925986349582672119140625</LatitudeDegrees>
              <LongitudeDegrees>2.72660569287836551666259765625</LongitudeDegrees>
            </Position>
            <AltitudeMeters>1407.199951171875</AltitudeMeters>
            <DistanceMeters>NAN</DistanceMeters>
          </Trackpoint>
          <Trackpoint>
            <Time>2021-04-01T11:47:53.000Z</Time>
            <Position>
              <LatitudeDegrees>42.42298060096800327301025390625</LatitudeDegrees>
              <LongitudeDegrees>2.72657065652310848236083984375</LongitudeDegrees>
            </Position>
            <AltitudeMeters>1407</AltitudeMeters>
            <DistanceMeters>NAN</DistanceMeters>
          </Trackpoint>
          <Trackpoint>
            <Time>2021-04-01T11:47:54.000Z</Time>
            <Position>
              <LatitudeDegrees>42.42298060096800327301025390625</LatitudeDegrees>
              <LongitudeDegrees>2.726564370095729827880859375</LongitudeDegrees>
            </Position>
            <AltitudeMeters>1407</AltitudeMeters>
            <DistanceMeters>NAN</DistanceMeters>
          </Trackpoint>
          <Trackpoint>
            <Time>2021-04-01T11:48:03.000Z</Time>
            <Position>
              <LatitudeDegrees>42.422980852425098419189453125</LatitudeDegrees>
              <LongitudeDegrees>2.72651650942862033843994140625</LongitudeDegrees>
            </Position>
            <AltitudeMeters>1406.199951171875</AltitudeMeters>
            <DistanceMeters>NAN</DistanceMeters>
          </Trackpoint>
          <Trackpoint>
            <Time>2021-04-01T11:48:07.000Z</Time>
            <Position>
              <LatitudeDegrees>42.42298093624413013458251953125</LatitudeDegrees>
              <LongitudeDegrees>2.72650276310741901397705078125</LongitudeDegrees>
            </Position>
            <AltitudeMeters>1405</AltitudeMeters>
            <DistanceMeters>NAN</DistanceMeters>
          </Trackpoint>
          <Trackpoint>
            <Time>2021-04-01T11:48:11.000Z</Time>
            <Position>
              <LatitudeDegrees>42.4229813553392887115478515625</LatitudeDegrees>
              <LongitudeDegrees>2.726492621004581451416015625</LongitudeDegrees>
            </Position>
            <AltitudeMeters>1404</AltitudeMeters>
            <DistanceMeters>NAN</DistanceMeters>
          </Trackpoint>
          <Trackpoint>
            <Time>2021-04-01T11:48:24.000Z</Time>
            <Position>
              <LatitudeDegrees>42.4229920841753482818603515625</LatitudeDegrees>
              <LongitudeDegrees>2.72642129100859165191650390625</LongitudeDegrees>
            </Position>
            <AltitudeMeters>1402.800048828125</AltitudeMeters>
            <DistanceMeters>NAN</DistanceMeters>
          </Trackpoint>
          <Trackpoint>
            <Time>2021-04-01T11:48:30.000Z</Time>
            <Position>
              <LatitudeDegrees>42.42299702949821949005126953125</LatitudeDegrees>
              <LongitudeDegrees>2.72640871815383434295654296875</LongitudeDegrees>
            </Position>
            <AltitudeMeters>1401.800048828125</AltitudeMeters>
            <DistanceMeters>NAN</DistanceMeters>
          </Trackpoint>
          <Trackpoint>
            <Time>2021-04-01T11:48:34.000Z</Time>
            <Position>
              <LatitudeDegrees>42.422998957335948944091796875</LatitudeDegrees>
              <LongitudeDegrees>2.72640083916485309600830078125</LongitudeDegrees>
            </Position>
            <AltitudeMeters>1400.800048828125</AltitudeMeters>
            <DistanceMeters>NAN</DistanceMeters>
          </Trackpoint>
          <Trackpoint>
            <Time>2021-04-01T11:48:40.000Z</Time>
            <Position>
              <LatitudeDegrees>42.423016726970672607421875</LatitudeDegrees>
              <LongitudeDegrees>2.72638558410108089447021484375</LongitudeDegrees>
            </Position>
            <AltitudeMeters>1399.5999755859375</AltitudeMeters>
            <DistanceMeters>NAN</DistanceMeters>
          </Trackpoint>
          <Trackpoint>
            <Time>2021-04-01T11:48:55.000Z</Time>
            <Position>
              <LatitudeDegrees>42.42304715327918529510498046875</LatitudeDegrees>
              <LongitudeDegrees>2.7263553254306316375732421875</LongitudeDegrees>
            </Position>
            <AltitudeMeters>1398.5999755859375</AltitudeMeters>
            <DistanceMeters>NAN</DistanceMeters>
          </Trackpoint>
          <Trackpoint>
            <Time>2021-04-01T11:48:57.000Z</Time>
            <Position>
              <LatitudeDegrees>42.42304765619337558746337890625</LatitudeDegrees>
              <LongitudeDegrees>2.7263459376990795135498046875</LongitudeDegrees>
            </Position>
            <AltitudeMeters>1398.5999755859375</AltitudeMeters>
            <DistanceMeters>NAN</DistanceMeters>
          </Trackpoint>
          <Trackpoint>
            <Time>2021-04-01T11:49:00.000Z</Time>
            <Position>
              <LatitudeDegrees>42.4230480752885341644287109375</LatitudeDegrees>
              <LongitudeDegrees>2.72633059881627559661865234375</LongitudeDegrees>
            </Position>
            <AltitudeMeters>1398.199951171875</AltitudeMeters>
            <DistanceMeters>NAN</DistanceMeters>
          </Trackpoint>
          <Trackpoint>
            <Time>2021-04-01T11:49:01.000Z</Time>
            <Position>
              <LatitudeDegrees>42.42304815910756587982177734375</LatitudeDegrees>
              <LongitudeDegrees>2.72632674314081668853759765625</LongitudeDegrees>
            </Position>
            <AltitudeMeters>1398.199951171875</AltitudeMeters>
            <DistanceMeters>NAN</DistanceMeters>
          </Trackpoint>
          <Trackpoint>
            <Time>2021-04-01T11:49:04.000Z</Time>
            <Position>
              <LatitudeDegrees>42.42304832674562931060791015625</LatitudeDegrees>
              <LongitudeDegrees>2.7263187803328037261962890625</LongitudeDegrees>
            </Position>
            <AltitudeMeters>1398</AltitudeMeters>
            <DistanceMeters>NAN</DistanceMeters>
          </Trackpoint>
          <Trackpoint>
            <Time>2021-04-01T11:49:09.000Z</Time>
            <Position>
              <LatitudeDegrees>42.42304690182209014892578125</LatitudeDegrees>
              <LongitudeDegrees>2.72630226798355579376220703125</LongitudeDegrees>
            </Position>
            <AltitudeMeters>1398</AltitudeMeters>
            <DistanceMeters>NAN</DistanceMeters>
          </Trackpoint>
          <Trackpoint>
            <Time>2021-04-01T11:49:15.000Z</Time>
            <Position>
              <LatitudeDegrees>42.4230390228331089019775390625</LatitudeDegrees>
              <LongitudeDegrees>2.72620470263063907623291015625</LongitudeDegrees>
            </Position>
            <AltitudeMeters>1398</AltitudeMeters>
            <DistanceMeters>NAN</DistanceMeters>
          </Trackpoint>
          <Trackpoint>
            <Time>2021-04-01T11:49:17.000Z</Time>
            <Position>
              <LatitudeDegrees>42.4230336584150791168212890625</LatitudeDegrees>
              <LongitudeDegrees>2.7261746115982532501220703125</LongitudeDegrees>
            </Position>
            <AltitudeMeters>1398</AltitudeMeters>
            <DistanceMeters>NAN</DistanceMeters>
          </Trackpoint>
          <Trackpoint>
            <Time>2021-04-01T11:49:21.000Z</Time>
            <Position>
              <LatitudeDegrees>42.42302603088319301605224609375</LatitudeDegrees>
              <LongitudeDegrees>2.72611853666603565216064453125</LongitudeDegrees>
            </Position>
            <AltitudeMeters>1397.5999755859375</AltitudeMeters>
            <DistanceMeters>NAN</DistanceMeters>
          </Trackpoint>
          <Trackpoint>
            <Time>2021-04-01T11:49:22.000Z</Time>
            <Position>
              <LatitudeDegrees>42.423023767769336700439453125</LatitudeDegrees>
              <LongitudeDegrees>2.72611283697187900543212890625</LongitudeDegrees>
            </Position>
            <AltitudeMeters>1397.5999755859375</AltitudeMeters>
            <DistanceMeters>NAN</DistanceMeters>
          </Trackpoint>
          <Trackpoint>
            <Time>2021-04-01T11:49:32.000Z</Time>
            <Position>
              <LatitudeDegrees>42.42301664315164089202880859375</LatitudeDegrees>
              <LongitudeDegrees>2.72605173289775848388671875</LongitudeDegrees>
            </Position>
            <AltitudeMeters>1396.5999755859375</AltitudeMeters>
            <DistanceMeters>NAN</DistanceMeters>
          </Trackpoint>
          <Trackpoint>
            <Time>2021-04-01T11:49:38.000Z</Time>
            <Position>
              <LatitudeDegrees>42.423026449978351593017578125</LatitudeDegrees>
              <LongitudeDegrees>2.72600135765969753265380859375</LongitudeDegrees>
            </Position>
            <AltitudeMeters>1396.5999755859375</AltitudeMeters>
            <DistanceMeters>NAN</DistanceMeters>
          </Trackpoint>
          <Trackpoint>
            <Time>2021-04-01T11:49:41.000Z</Time>
            <Position>
              <LatitudeDegrees>42.42303223349153995513916015625</LatitudeDegrees>
              <LongitudeDegrees>2.7259734459221363067626953125</LongitudeDegrees>
            </Position>
            <AltitudeMeters>1396.4000244140625</AltitudeMeters>
            <DistanceMeters>NAN</DistanceMeters>
          </Trackpoint>
          <Trackpoint>
            <Time>2021-04-01T11:49:44.000Z</Time>
            <Position>
              <LatitudeDegrees>42.42303927429020404815673828125</LatitudeDegrees>
              <LongitudeDegrees>2.72595458664000034332275390625</LongitudeDegrees>
            </Position>
            <AltitudeMeters>1395.800048828125</AltitudeMeters>
            <DistanceMeters>NAN</DistanceMeters>
          </Trackpoint>
          <Trackpoint>
            <Time>2021-04-01T11:49:45.000Z</Time>
            <Position>
              <LatitudeDegrees>42.42304212413728237152099609375</LatitudeDegrees>
              <LongitudeDegrees>2.72594704292714595794677734375</LongitudeDegrees>
            </Position>
            <AltitudeMeters>1395.800048828125</AltitudeMeters>
            <DistanceMeters>NAN</DistanceMeters>
          </Trackpoint>
          <Trackpoint>
            <Time>2021-04-01T11:49:47.000Z</Time>
            <Position>
              <LatitudeDegrees>42.42304681800305843353271484375</LatitudeDegrees>
              <LongitudeDegrees>2.72593245841562747955322265625</LongitudeDegrees>
            </Position>
            <AltitudeMeters>1395.5999755859375</AltitudeMeters>
            <DistanceMeters>NAN</DistanceMeters>
          </Trackpoint>
          <Trackpoint>
            <Time>2021-04-01T11:49:48.000Z</Time>
            <Position>
              <LatitudeDegrees>42.423048578202724456787109375</LatitudeDegrees>
              <LongitudeDegrees>2.72592256776988506317138671875</LongitudeDegrees>
            </Position>
            <AltitudeMeters>1395.4000244140625</AltitudeMeters>
            <DistanceMeters>NAN</DistanceMeters>
          </Trackpoint>
          <Trackpoint>
            <Time>2021-04-01T11:49:53.000Z</Time>
            <Position>
              <LatitudeDegrees>42.42304597981274127960205078125</LatitudeDegrees>
              <LongitudeDegrees>2.7258919738233089447021484375</LongitudeDegrees>
            </Position>
            <AltitudeMeters>1395.4000244140625</AltitudeMeters>
            <DistanceMeters>NAN</DistanceMeters>
          </Trackpoint>
          <Trackpoint>
            <Time>2021-04-01T11:49:55.000Z</Time>
            <Position>
              <LatitudeDegrees>42.4230437166988849639892578125</LatitudeDegrees>
              <LongitudeDegrees>2.7258819155395030975341796875</LongitudeDegrees>
            </Position>
            <AltitudeMeters>1395.4000244140625</AltitudeMeters>
            <DistanceMeters>NAN</DistanceMeters>
          </Trackpoint>
          <Trackpoint>
            <Time>2021-04-01T11:49:59.000Z</Time>
            <Position>
              <LatitudeDegrees>42.423039861023426055908203125</LatitudeDegrees>
              <LongitudeDegrees>2.7258659899234771728515625</LongitudeDegrees>
            </Position>
            <AltitudeMeters>1396</AltitudeMeters>
            <DistanceMeters>NAN</DistanceMeters>
          </Trackpoint>
          <Trackpoint>
            <Time>2021-04-01T11:50:00.000Z</Time>
            <Position>
              <LatitudeDegrees>42.42303893901407718658447265625</LatitudeDegrees>
              <LongitudeDegrees>2.72586674429476261138916015625</LongitudeDegrees>
            </Position>
            <AltitudeMeters>1396</AltitudeMeters>
            <DistanceMeters>NAN</DistanceMeters>
          </Trackpoint>
          <Trackpoint>
            <Time>2021-04-01T11:50:02.000Z</Time>
            <Position>
              <LatitudeDegrees>42.42303743027150630950927734375</LatitudeDegrees>
              <LongitudeDegrees>2.7258711867034435272216796875</LongitudeDegrees>
            </Position>
            <AltitudeMeters>1396</AltitudeMeters>
            <DistanceMeters>NAN</DistanceMeters>
          </Trackpoint>
          <Trackpoint>
            <Time>2021-04-01T11:50:13.000Z</Time>
            <Position>
              <LatitudeDegrees>42.4230343289673328399658203125</LatitudeDegrees>
              <LongitudeDegrees>2.72586808539927005767822265625</LongitudeDegrees>
            </Position>
            <AltitudeMeters>1395.800048828125</AltitudeMeters>
            <DistanceMeters>NAN</DistanceMeters>
          </Trackpoint>
          <Trackpoint>
            <Time>2021-04-01T11:50:20.000Z</Time>
            <Position>
              <LatitudeDegrees>42.4230343289673328399658203125</LatitudeDegrees>
              <LongitudeDegrees>2.72587110288441181182861328125</LongitudeDegrees>
            </Position>
            <AltitudeMeters>1395.5999755859375</AltitudeMeters>
            <DistanceMeters>NAN</DistanceMeters>
          </Trackpoint>
          <Trackpoint>
            <Time>2021-04-01T11:50:30.000Z</Time>
            <Position>
              <LatitudeDegrees>42.42302686907351016998291015625</LatitudeDegrees>
              <LongitudeDegrees>2.72587629966437816619873046875</LongitudeDegrees>
            </Position>
            <AltitudeMeters>1395.5999755859375</AltitudeMeters>
            <DistanceMeters>NAN</DistanceMeters>
          </Trackpoint>
          <Trackpoint>
            <Time>2021-04-01T11:50:32.000Z</Time>
            <Position>
              <LatitudeDegrees>42.4230246059596538543701171875</LatitudeDegrees>
              <LongitudeDegrees>2.72588099353015422821044921875</LongitudeDegrees>
            </Position>
            <AltitudeMeters>1395.4000244140625</AltitudeMeters>
            <DistanceMeters>NAN</DistanceMeters>
          </Trackpoint>
          <Trackpoint>
            <Time>2021-04-01T11:50:34.000Z</Time>
            <Position>
              <LatitudeDegrees>42.42302167229354381561279296875</LatitudeDegrees>
              <LongitudeDegrees>2.72588468156754970550537109375</LongitudeDegrees>
            </Position>
            <AltitudeMeters>1395.4000244140625</AltitudeMeters>
            <DistanceMeters>NAN</DistanceMeters>
          </Trackpoint>
          <Trackpoint>
            <Time>2021-04-01T11:50:37.000Z</Time>
            <Position>
              <LatitudeDegrees>42.4230180680751800537109375</LatitudeDegrees>
              <LongitudeDegrees>2.72588870488107204437255859375</LongitudeDegrees>
            </Position>
            <AltitudeMeters>1395</AltitudeMeters>
            <DistanceMeters>NAN</DistanceMeters>
          </Trackpoint>
          <Trackpoint>
            <Time>2021-04-01T11:50:48.000Z</Time>
            <Position>
              <LatitudeDegrees>42.42301681078970432281494140625</LatitudeDegrees>
              <LongitudeDegrees>2.72589440457522869110107421875</LongitudeDegrees>
            </Position>
            <AltitudeMeters>1394.4000244140625</AltitudeMeters>
            <DistanceMeters>NAN</DistanceMeters>
          </Trackpoint>
          <Trackpoint>
            <Time>2021-04-01T11:50:54.000Z</Time>
            <Position>
              <LatitudeDegrees>42.4230158887803554534912109375</LatitudeDegrees>
              <LongitudeDegrees>2.72589909844100475311279296875</LongitudeDegrees>
            </Position>
            <AltitudeMeters>1394.4000244140625</AltitudeMeters>
            <DistanceMeters>NAN</DistanceMeters>
          </Trackpoint>
          <Trackpoint>
            <Time>2021-04-01T11:50:57.000Z</Time>
            <Position>
              <LatitudeDegrees>42.4230158887803554534912109375</LatitudeDegrees>
              <LongitudeDegrees>2.7258996851742267608642578125</LongitudeDegrees>
            </Position>
            <AltitudeMeters>1394.4000244140625</AltitudeMeters>
            <DistanceMeters>NAN</DistanceMeters>
          </Trackpoint>
          <Trackpoint>
            <Time>2021-04-01T11:51:15.000Z</Time>
            <Position>
              <LatitudeDegrees>42.42301228456199169158935546875</LatitudeDegrees>
              <LongitudeDegrees>2.72591133601963520050048828125</LongitudeDegrees>
            </Position>
            <AltitudeMeters>1394</AltitudeMeters>
            <DistanceMeters>NAN</DistanceMeters>
          </Trackpoint>
          <Trackpoint>
            <Time>2021-04-01T11:51:24.000Z</Time>
            <Position>
              <LatitudeDegrees>42.4229939281940460205078125</LatitudeDegrees>
              <LongitudeDegrees>2.72579717449843883514404296875</LongitudeDegrees>
            </Position>
            <AltitudeMeters>1394.199951171875</AltitudeMeters>
            <DistanceMeters>NAN</DistanceMeters>
          </Trackpoint>
          <Trackpoint>
            <Time>2021-04-01T11:51:26.000Z</Time>
            <Position>
              <LatitudeDegrees>42.42299459874629974365234375</LatitudeDegrees>
              <LongitudeDegrees>2.725746296346187591552734375</LongitudeDegrees>
            </Position>
            <AltitudeMeters>1394.199951171875</AltitudeMeters>
            <DistanceMeters>NAN</DistanceMeters>
          </Trackpoint>
          <Trackpoint>
            <Time>2021-04-01T11:51:30.000Z</Time>
            <Position>
              <LatitudeDegrees>42.422984540462493896484375</LatitudeDegrees>
              <LongitudeDegrees>2.725687958300113677978515625</LongitudeDegrees>
            </Position>
            <AltitudeMeters>1394.199951171875</AltitudeMeters>
            <DistanceMeters>NAN</DistanceMeters>
          </Trackpoint>
          <Trackpoint>
            <Time>2021-04-01T11:51:41.000Z</Time>
            <Position>
              <LatitudeDegrees>42.42298730649054050445556640625</LatitudeDegrees>
              <LongitudeDegrees>2.72559751756489276885986328125</LongitudeDegrees>
            </Position>
            <AltitudeMeters>1393.800048828125</AltitudeMeters>
            <DistanceMeters>NAN</DistanceMeters>
          </Trackpoint>
          <Trackpoint>
            <Time>2021-04-01T11:51:49.000Z</Time>
            <Position>
              <LatitudeDegrees>42.4229992926120758056640625</LatitudeDegrees>
              <LongitudeDegrees>2.7255473099648952484130859375</LongitudeDegrees>
            </Position>
            <AltitudeMeters>1393.800048828125</AltitudeMeters>
            <DistanceMeters>NAN</DistanceMeters>
          </Trackpoint>
          <Trackpoint>
            <Time>2021-04-01T11:51:52.000Z</Time>
            <Position>
              <LatitudeDegrees>42.4230073392391204833984375</LatitudeDegrees>
              <LongitudeDegrees>2.725529372692108154296875</LongitudeDegrees>
            </Position>
            <AltitudeMeters>1393.5999755859375</AltitudeMeters>
            <DistanceMeters>NAN</DistanceMeters>
          </Trackpoint>
          <Trackpoint>
            <Time>2021-04-01T11:51:53.000Z</Time>
            <Position>
              <LatitudeDegrees>42.42300792597234249114990234375</LatitudeDegrees>
              <LongitudeDegrees>2.72552442736923694610595703125</LongitudeDegrees>
            </Position>
            <AltitudeMeters>1393.4000244140625</AltitudeMeters>
            <DistanceMeters>NAN</DistanceMeters>
          </Trackpoint>
          <Trackpoint>
            <Time>2021-04-01T11:51:56.000Z</Time>
            <Position>
              <LatitudeDegrees>42.4230046570301055908203125</LatitudeDegrees>
              <LongitudeDegrees>2.72550364024937152862548828125</LongitudeDegrees>
            </Position>
            <AltitudeMeters>1393</AltitudeMeters>
            <DistanceMeters>NAN</DistanceMeters>
          </Trackpoint>
          <Trackpoint>
            <Time>2021-04-01T11:51:57.000Z</Time>
            <Position>
              <LatitudeDegrees>42.4230046570301055908203125</LatitudeDegrees>
              <LongitudeDegrees>2.72549425251781940460205078125</LongitudeDegrees>
            </Position>
            <AltitudeMeters>1392.800048828125</AltitudeMeters>
            <DistanceMeters>NAN</DistanceMeters>
          </Trackpoint>
          <Trackpoint>
            <Time>2021-04-01T11:51:59.000Z</Time>
            <Position>
              <LatitudeDegrees>42.42300373502075672149658203125</LatitudeDegrees>
              <LongitudeDegrees>2.7254809252917766571044921875</LongitudeDegrees>
            </Position>
            <AltitudeMeters>1392.800048828125</AltitudeMeters>
            <DistanceMeters>NAN</DistanceMeters>
          </Trackpoint>
          <Trackpoint>
            <Time>2021-04-01T11:52:03.000Z</Time>
            <Position>
              <LatitudeDegrees>42.423005998134613037109375</LatitudeDegrees>
              <LongitudeDegrees>2.72545938380062580108642578125</LongitudeDegrees>
            </Position>
            <AltitudeMeters>1392.4000244140625</AltitudeMeters>
            <DistanceMeters>NAN</DistanceMeters>
          </Trackpoint>
          <Trackpoint>
            <Time>2021-04-01T11:52:04.000Z</Time>
            <Position>
              <LatitudeDegrees>42.42300792597234249114990234375</LatitudeDegrees>
              <LongitudeDegrees>2.72545217536389827728271484375</LongitudeDegrees>
            </Position>
            <AltitudeMeters>1392</AltitudeMeters>
            <DistanceMeters>NAN</DistanceMeters>
          </Trackpoint>
          <Trackpoint>
            <Time>2021-04-01T11:52:11.000Z</Time>
            <Position>
              <LatitudeDegrees>42.42300675250589847564697265625</LatitudeDegrees>
              <LongitudeDegrees>2.7253883890807628631591796875</LongitudeDegrees>
            </Position>
            <AltitudeMeters>1391.199951171875</AltitudeMeters>
            <DistanceMeters>NAN</DistanceMeters>
          </Trackpoint>
          <Trackpoint>
            <Time>2021-04-01T11:52:13.000Z</Time>
            <Position>
              <LatitudeDegrees>42.42300742305815219879150390625</LatitudeDegrees>
              <LongitudeDegrees>2.7253751456737518310546875</LongitudeDegrees>
            </Position>
            <AltitudeMeters>1391</AltitudeMeters>
            <DistanceMeters>NAN</DistanceMeters>
          </Trackpoint>
          <Trackpoint>
            <Time>2021-04-01T11:52:17.000Z</Time>
            <Position>
              <LatitudeDegrees>42.42300331592559814453125</LatitudeDegrees>
              <LongitudeDegrees>2.7253401093184947967529296875</LongitudeDegrees>
            </Position>
            <AltitudeMeters>1390.5999755859375</AltitudeMeters>
            <DistanceMeters>NAN</DistanceMeters>
          </Trackpoint>
          <Trackpoint>
            <Time>2021-04-01T11:52:18.000Z</Time>
            <Position>
              <LatitudeDegrees>42.423002310097217559814453125</LatitudeDegrees>
              <LongitudeDegrees>2.72533231414854526519775390625</LongitudeDegrees>
            </Position>
            <AltitudeMeters>1390.4000244140625</AltitudeMeters>
            <DistanceMeters>NAN</DistanceMeters>
          </Trackpoint>
          <Trackpoint>
            <Time>2021-04-01T11:52:19.000Z</Time>
            <Position>
              <LatitudeDegrees>42.423001639544963836669921875</LatitudeDegrees>
              <LongitudeDegrees>2.72532627917826175689697265625</LongitudeDegrees>
            </Position>
            <AltitudeMeters>1390.4000244140625</AltitudeMeters>
            <DistanceMeters>NAN</DistanceMeters>
          </Trackpoint>
          <Trackpoint>
            <Time>2021-04-01T11:52:21.000Z</Time>
            <Position>
              <LatitudeDegrees>42.42299996316432952880859375</LatitudeDegrees>
              <LongitudeDegrees>2.725319154560565948486328125</LongitudeDegrees>
            </Position>
            <AltitudeMeters>1390.199951171875</AltitudeMeters>
            <DistanceMeters>NAN</DistanceMeters>
          </Trackpoint>
          <Trackpoint>
            <Time>2021-04-01T11:52:23.000Z</Time>
            <Position>
              <LatitudeDegrees>42.4229947663843631744384765625</LatitudeDegrees>
              <LongitudeDegrees>2.7253112755715847015380859375</LongitudeDegrees>
            </Position>
            <AltitudeMeters>1390</AltitudeMeters>
            <DistanceMeters>NAN</DistanceMeters>
          </Trackpoint>
          <Trackpoint>
            <Time>2021-04-01T11:52:24.000Z</Time>
            <Position>
              <LatitudeDegrees>42.42299451492726802825927734375</LatitudeDegrees>
              <LongitudeDegrees>2.72530482150614261627197265625</LongitudeDegrees>
            </Position>
            <AltitudeMeters>1390</AltitudeMeters>
            <DistanceMeters>NAN</DistanceMeters>
          </Trackpoint>
          <Trackpoint>
            <Time>2021-04-01T11:52:29.000Z</Time>
            <Position>
              <LatitudeDegrees>42.42300859652459621429443359375</LatitudeDegrees>
              <LongitudeDegrees>2.72526408545672893524169921875</LongitudeDegrees>
            </Position>
            <AltitudeMeters>1389.199951171875</AltitudeMeters>
            <DistanceMeters>NAN</DistanceMeters>
          </Trackpoint>
          <Trackpoint>
            <Time>2021-04-01T11:52:33.000Z</Time>
            <Position>
              <LatitudeDegrees>42.42301697842776775360107421875</LatitudeDegrees>
              <LongitudeDegrees>2.72522963583469390869140625</LongitudeDegrees>
            </Position>
            <AltitudeMeters>1389</AltitudeMeters>
            <DistanceMeters>NAN</DistanceMeters>
          </Trackpoint>
          <Trackpoint>
            <Time>2021-04-01T11:52:34.000Z</Time>
            <Position>
              <LatitudeDegrees>42.42301932536065578460693359375</LatitudeDegrees>
              <LongitudeDegrees>2.72521865554153919219970703125</LongitudeDegrees>
            </Position>
            <AltitudeMeters>1389</AltitudeMeters>
            <DistanceMeters>NAN</DistanceMeters>
          </Trackpoint>
          <Trackpoint>
            <Time>2021-04-01T11:52:39.000Z</Time>
            <Position>
              <LatitudeDegrees>42.4230363406240940093994140625</LatitudeDegrees>
              <LongitudeDegrees>2.72516735829412937164306640625</LongitudeDegrees>
            </Position>
            <AltitudeMeters>1389</AltitudeMeters>
            <DistanceMeters>NAN</DistanceMeters>
          </Trackpoint>
          <Trackpoint>
            <Time>2021-04-01T11:52:42.000Z</Time>
            <Position>
              <LatitudeDegrees>42.42303793318569660186767578125</LatitudeDegrees>
              <LongitudeDegrees>2.72513014264404773712158203125</LongitudeDegrees>
            </Position>
            <AltitudeMeters>1388.800048828125</AltitudeMeters>
            <DistanceMeters>NAN</DistanceMeters>
          </Trackpoint>
          <Trackpoint>
            <Time>2021-04-01T11:52:46.000Z</Time>
            <Position>
              <LatitudeDegrees>42.42303340695798397064208984375</LatitudeDegrees>
              <LongitudeDegrees>2.72508823312819004058837890625</LongitudeDegrees>
            </Position>
            <AltitudeMeters>1388.5999755859375</AltitudeMeters>
            <DistanceMeters>NAN</DistanceMeters>
          </Trackpoint>
          <Trackpoint>
            <Time>2021-04-01T11:52:52.000Z</Time>
            <Position>
              <LatitudeDegrees>42.42301982827484607696533203125</LatitudeDegrees>
              <LongitudeDegrees>2.7250299789011478424072265625</LongitudeDegrees>
            </Position>
            <AltitudeMeters>1388.5999755859375</AltitudeMeters>
            <DistanceMeters>NAN</DistanceMeters>
          </Trackpoint>
          <Trackpoint>
            <Time>2021-04-01T11:52:58.000Z</Time>
            <Position>
              <LatitudeDegrees>42.42301697842776775360107421875</LatitudeDegrees>
              <LongitudeDegrees>2.72496334277093410491943359375</LongitudeDegrees>
            </Position>
            <AltitudeMeters>1388.5999755859375</AltitudeMeters>
            <DistanceMeters>NAN</DistanceMeters>
          </Trackpoint>
          <Trackpoint>
            <Time>2021-04-01T11:53:07.000Z</Time>
            <Position>
              <LatitudeDegrees>42.4230339936912059783935546875</LatitudeDegrees>
              <LongitudeDegrees>2.724867202341556549072265625</LongitudeDegrees>
            </Position>
            <AltitudeMeters>1388.4000244140625</AltitudeMeters>
            <DistanceMeters>NAN</DistanceMeters>
          </Trackpoint>
          <Trackpoint>
            <Time>2021-04-01T11:53:12.000Z</Time>
            <Position>
              <LatitudeDegrees>42.4230100214481353759765625</LatitudeDegrees>
              <LongitudeDegrees>2.7248345129191875457763671875</LongitudeDegrees>
            </Position>
            <AltitudeMeters>1388</AltitudeMeters>
            <DistanceMeters>NAN</DistanceMeters>
          </Trackpoint>
          <Trackpoint>
            <Time>2021-04-01T11:53:14.000Z</Time>
            <Position>
              <LatitudeDegrees>42.4229977838695049285888671875</LatitudeDegrees>
              <LongitudeDegrees>2.72482168860733509063720703125</LongitudeDegrees>
            </Position>
            <AltitudeMeters>1387.800048828125</AltitudeMeters>
            <DistanceMeters>NAN</DistanceMeters>
          </Trackpoint>
          <Trackpoint>
            <Time>2021-04-01T11:53:19.000Z</Time>
            <Position>
              <LatitudeDegrees>42.4229773320257663726806640625</LatitudeDegrees>
              <LongitudeDegrees>2.724782042205333709716796875</LongitudeDegrees>
            </Position>
            <AltitudeMeters>1388</AltitudeMeters>
            <DistanceMeters>NAN</DistanceMeters>
          </Trackpoint>
          <Trackpoint>
            <Time>2021-04-01T11:53:22.000Z</Time>
            <Position>
              <LatitudeDegrees>42.422984205186367034912109375</LatitudeDegrees>
              <LongitudeDegrees>2.7247555553913116455078125</LongitudeDegrees>
            </Position>
            <AltitudeMeters>1388.4000244140625</AltitudeMeters>
            <DistanceMeters>NAN</DistanceMeters>
          </Trackpoint>
          <Trackpoint>
            <Time>2021-04-01T11:53:23.000Z</Time>
            <Position>
              <LatitudeDegrees>42.422986216843128204345703125</LatitudeDegrees>
              <LongitudeDegrees>2.72475061006844043731689453125</LongitudeDegrees>
            </Position>
            <AltitudeMeters>1388.5999755859375</AltitudeMeters>
            <DistanceMeters>NAN</DistanceMeters>
          </Trackpoint>
          <Trackpoint>
            <Time>2021-04-01T11:53:24.000Z</Time>
            <Position>
              <LatitudeDegrees>42.422988228499889373779296875</LatitudeDegrees>
              <LongitudeDegrees>2.72474348545074462890625</LongitudeDegrees>
            </Position>
            <AltitudeMeters>1388.800048828125</AltitudeMeters>
            <DistanceMeters>NAN</DistanceMeters>
          </Trackpoint>
          <Trackpoint>
            <Time>2021-04-01T11:53:26.000Z</Time>
            <Position>
              <LatitudeDegrees>42.4229924194514751434326171875</LatitudeDegrees>
              <LongitudeDegrees>2.72472613491117954254150390625</LongitudeDegrees>
            </Position>
            <AltitudeMeters>1389</AltitudeMeters>
            <DistanceMeters>NAN</DistanceMeters>
          </Trackpoint>
          <Trackpoint>
            <Time>2021-04-01T11:53:27.000Z</Time>
            <Position>
              <LatitudeDegrees>42.42299501784145832061767578125</LatitudeDegrees>
              <LongitudeDegrees>2.724719010293483734130859375</LongitudeDegrees>
            </Position>
            <AltitudeMeters>1389</AltitudeMeters>
            <DistanceMeters>NAN</DistanceMeters>
          </Trackpoint>
          <Trackpoint>
            <Time>2021-04-01T11:53:29.000Z</Time>
            <Position>
              <LatitudeDegrees>42.4230001308023929595947265625</LatitudeDegrees>
              <LongitudeDegrees>2.724706940352916717529296875</LongitudeDegrees>
            </Position>
            <AltitudeMeters>1389.199951171875</AltitudeMeters>
            <DistanceMeters>NAN</DistanceMeters>
          </Trackpoint>
          <Trackpoint>
            <Time>2021-04-01T11:53:30.000Z</Time>
            <Position>
              <LatitudeDegrees>42.42300054989755153656005859375</LatitudeDegrees>
              <LongitudeDegrees>2.72469998337328433990478515625</LongitudeDegrees>
            </Position>
            <AltitudeMeters>1389.199951171875</AltitudeMeters>
            <DistanceMeters>NAN</DistanceMeters>
          </Trackpoint>
          <Trackpoint>
            <Time>2021-04-01T11:53:32.000Z</Time>
            <Position>
              <LatitudeDegrees>42.4230011366307735443115234375</LatitudeDegrees>
              <LongitudeDegrees>2.72468992508947849273681640625</LongitudeDegrees>
            </Position>
            <AltitudeMeters>1389.4000244140625</AltitudeMeters>
            <DistanceMeters>NAN</DistanceMeters>
          </Trackpoint>
          <Trackpoint>
            <Time>2021-04-01T11:53:33.000Z</Time>
            <Position>
              <LatitudeDegrees>42.4229994602501392364501953125</LatitudeDegrees>
              <LongitudeDegrees>2.72468623705208301544189453125</LongitudeDegrees>
            </Position>
            <AltitudeMeters>1389.5999755859375</AltitudeMeters>
            <DistanceMeters>NAN</DistanceMeters>
          </Trackpoint>
          <Trackpoint>
            <Time>2021-04-01T11:53:36.000Z</Time>
            <Position>
              <LatitudeDegrees>42.4229910783469676971435546875</LatitudeDegrees>
              <LongitudeDegrees>2.724675424396991729736328125</LongitudeDegrees>
            </Position>
            <AltitudeMeters>1390</AltitudeMeters>
            <DistanceMeters>NAN</DistanceMeters>
          </Trackpoint>
          <Trackpoint>
            <Time>2021-04-01T11:53:37.000Z</Time>
            <Position>
              <LatitudeDegrees>42.42298847995698451995849609375</LatitudeDegrees>
              <LongitudeDegrees>2.72467282600700855255126953125</LongitudeDegrees>
            </Position>
            <AltitudeMeters>1390.199951171875</AltitudeMeters>
            <DistanceMeters>NAN</DistanceMeters>
          </Trackpoint>
          <Trackpoint>
            <Time>2021-04-01T11:53:39.000Z</Time>
            <Position>
              <LatitudeDegrees>42.42297984659671783447265625</LatitudeDegrees>
              <LongitudeDegrees>2.7246648631989955902099609375</LongitudeDegrees>
            </Position>
            <AltitudeMeters>1390.4000244140625</AltitudeMeters>
            <DistanceMeters>NAN</DistanceMeters>
          </Trackpoint>
          <Trackpoint>
            <Time>2021-04-01T11:53:42.000Z</Time>
            <Position>
              <LatitudeDegrees>42.42296836338937282562255859375</LatitudeDegrees>
              <LongitudeDegrees>2.7246524579823017120361328125</LongitudeDegrees>
            </Position>
            <AltitudeMeters>1391</AltitudeMeters>
            <DistanceMeters>NAN</DistanceMeters>
          </Trackpoint>
          <Trackpoint>
            <Time>2021-04-01T11:53:43.000Z</Time>
            <Position>
              <LatitudeDegrees>42.422962747514247894287109375</LatitudeDegrees>
              <LongitudeDegrees>2.724649608135223388671875</LongitudeDegrees>
            </Position>
            <AltitudeMeters>1391.199951171875</AltitudeMeters>
            <DistanceMeters>NAN</DistanceMeters>
          </Trackpoint>
          <Trackpoint>
            <Time>2021-04-01T11:53:48.000Z</Time>
            <Position>
              <LatitudeDegrees>42.42294589988887310028076171875</LatitudeDegrees>
              <LongitudeDegrees>2.7246420644223690032958984375</LongitudeDegrees>
            </Position>
            <AltitudeMeters>1391.5999755859375</AltitudeMeters>
            <DistanceMeters>NAN</DistanceMeters>
          </Trackpoint>
          <Trackpoint>
            <Time>2021-04-01T11:53:50.000Z</Time>
            <Position>
              <LatitudeDegrees>42.42294229567050933837890625</LatitudeDegrees>
              <LongitudeDegrees>2.724641896784305572509765625</LongitudeDegrees>
            </Position>
            <AltitudeMeters>1392.4000244140625</AltitudeMeters>
            <DistanceMeters>NAN</DistanceMeters>
          </Trackpoint>
          <Trackpoint>
            <Time>2021-04-01T11:53:51.000Z</Time>
            <Position>
              <LatitudeDegrees>42.42293936200439929962158203125</LatitudeDegrees>
              <LongitudeDegrees>2.72464063949882984161376953125</LongitudeDegrees>
            </Position>
            <AltitudeMeters>1392.5999755859375</AltitudeMeters>
            <DistanceMeters>NAN</DistanceMeters>
          </Trackpoint>
          <Trackpoint>
            <Time>2021-04-01T11:54:00.000Z</Time>
            <Position>
              <LatitudeDegrees>42.42291773669421672821044921875</LatitudeDegrees>
              <LongitudeDegrees>2.7245911024510860443115234375</LongitudeDegrees>
            </Position>
            <AltitudeMeters>1393.199951171875</AltitudeMeters>
            <DistanceMeters>NAN</DistanceMeters>
          </Trackpoint>
          <Trackpoint>
            <Time>2021-04-01T11:54:02.000Z</Time>
            <Position>
              <LatitudeDegrees>42.42291656322777271270751953125</LatitudeDegrees>
              <LongitudeDegrees>2.7245803736150264739990234375</LongitudeDegrees>
            </Position>
            <AltitudeMeters>1393.4000244140625</AltitudeMeters>
            <DistanceMeters>NAN</DistanceMeters>
          </Trackpoint>
          <Trackpoint>
            <Time>2021-04-01T11:54:07.000Z</Time>
            <Position>
              <LatitudeDegrees>42.42291874252259731292724609375</LatitudeDegrees>
              <LongitudeDegrees>2.7245505340397357940673828125</LongitudeDegrees>
            </Position>
            <AltitudeMeters>1394.800048828125</AltitudeMeters>
            <DistanceMeters>NAN</DistanceMeters>
          </Trackpoint>
          <Trackpoint>
            <Time>2021-04-01T11:54:10.000Z</Time>
            <Position>
              <LatitudeDegrees>42.422919832170009613037109375</LatitudeDegrees>
              <LongitudeDegrees>2.72452957928180694580078125</LongitudeDegrees>
            </Position>
            <AltitudeMeters>1395.199951171875</AltitudeMeters>
            <DistanceMeters>NAN</DistanceMeters>
          </Trackpoint>
          <Trackpoint>
            <Time>2021-04-01T11:54:12.000Z</Time>
            <Position>
              <LatitudeDegrees>42.42291748523712158203125</LatitudeDegrees>
              <LongitudeDegrees>2.7245173417031764984130859375</LongitudeDegrees>
            </Position>
            <AltitudeMeters>1395.5999755859375</AltitudeMeters>
            <DistanceMeters>NAN</DistanceMeters>
          </Trackpoint>
          <Trackpoint>
            <Time>2021-04-01T11:54:13.000Z</Time>
            <Position>
              <LatitudeDegrees>42.42291606031358242034912109375</LatitudeDegrees>
              <LongitudeDegrees>2.72451558150351047515869140625</LongitudeDegrees>
            </Position>
            <AltitudeMeters>1395.800048828125</AltitudeMeters>
            <DistanceMeters>NAN</DistanceMeters>
          </Trackpoint>
          <Trackpoint>
            <Time>2021-04-01T11:54:19.000Z</Time>
            <Position>
              <LatitudeDegrees>42.42290767841041088104248046875</LatitudeDegrees>
              <LongitudeDegrees>2.7244868315756320953369140625</LongitudeDegrees>
            </Position>
            <AltitudeMeters>1396.800048828125</AltitudeMeters>
            <DistanceMeters>NAN</DistanceMeters>
          </Trackpoint>
          <Trackpoint>
            <Time>2021-04-01T11:54:20.000Z</Time>
            <Position>
              <LatitudeDegrees>42.42290969006717205047607421875</LatitudeDegrees>
              <LongitudeDegrees>2.72447920404374599456787109375</LongitudeDegrees>
            </Position>
            <AltitudeMeters>1397</AltitudeMeters>
            <DistanceMeters>NAN</DistanceMeters>
          </Trackpoint>
          <Trackpoint>
            <Time>2021-04-01T11:54:22.000Z</Time>
            <Position>
              <LatitudeDegrees>42.42291413247585296630859375</LatitudeDegrees>
              <LongitudeDegrees>2.72447015158832073211669921875</LongitudeDegrees>
            </Position>
            <AltitudeMeters>1397.5999755859375</AltitudeMeters>
            <DistanceMeters>NAN</DistanceMeters>
          </Trackpoint>
          <Trackpoint>
            <Time>2021-04-01T11:54:24.000Z</Time>
            <Position>
              <LatitudeDegrees>42.4229119531810283660888671875</LatitudeDegrees>
              <LongitudeDegrees>2.72446143440902233123779296875</LongitudeDegrees>
            </Position>
            <AltitudeMeters>1398.199951171875</AltitudeMeters>
            <DistanceMeters>NAN</DistanceMeters>
          </Trackpoint>
          <Trackpoint>
            <Time>2021-04-01T11:54:27.000Z</Time>
            <Position>
              <LatitudeDegrees>42.42290751077234745025634765625</LatitudeDegrees>
              <LongitudeDegrees>2.72445322014391422271728515625</LongitudeDegrees>
            </Position>
            <AltitudeMeters>1398.4000244140625</AltitudeMeters>
            <DistanceMeters>NAN</DistanceMeters>
          </Trackpoint>
          <Trackpoint>
            <Time>2021-04-01T11:54:30.000Z</Time>
            <Position>
              <LatitudeDegrees>42.422895021736621856689453125</LatitudeDegrees>
              <LongitudeDegrees>2.72444886155426502227783203125</LongitudeDegrees>
            </Position>
            <AltitudeMeters>1399</AltitudeMeters>
            <DistanceMeters>NAN</DistanceMeters>
          </Trackpoint>
          <Trackpoint>
            <Time>2021-04-01T11:54:32.000Z</Time>
            <Position>
              <LatitudeDegrees>42.42288420908153057098388671875</LatitudeDegrees>
              <LongitudeDegrees>2.72444584406912326812744140625</LongitudeDegrees>
            </Position>
            <AltitudeMeters>1399.199951171875</AltitudeMeters>
            <DistanceMeters>NAN</DistanceMeters>
          </Trackpoint>
          <Trackpoint>
            <Time>2021-04-01T11:54:34.000Z</Time>
            <Position>
              <LatitudeDegrees>42.42287767119705677032470703125</LatitudeDegrees>
              <LongitudeDegrees>2.72443838417530059814453125</LongitudeDegrees>
            </Position>
            <AltitudeMeters>1399.5999755859375</AltitudeMeters>
            <DistanceMeters>NAN</DistanceMeters>
          </Trackpoint>
          <Trackpoint>
            <Time>2021-04-01T11:54:39.000Z</Time>
            <Position>
              <LatitudeDegrees>42.42286861874163150787353515625</LatitudeDegrees>
              <LongitudeDegrees>2.724424302577972412109375</LongitudeDegrees>
            </Position>
            <AltitudeMeters>1400.199951171875</AltitudeMeters>
            <DistanceMeters>NAN</DistanceMeters>
          </Trackpoint>
          <Trackpoint>
            <Time>2021-04-01T11:54:42.000Z</Time>
            <Position>
              <LatitudeDegrees>42.4228643439710140228271484375</LatitudeDegrees>
              <LongitudeDegrees>2.72442363202571868896484375</LongitudeDegrees>
            </Position>
            <AltitudeMeters>1400.199951171875</AltitudeMeters>
            <DistanceMeters>NAN</DistanceMeters>
          </Trackpoint>
          <Trackpoint>
            <Time>2021-04-01T11:54:44.000Z</Time>
            <Position>
              <LatitudeDegrees>42.42286643944680690765380859375</LatitudeDegrees>
              <LongitudeDegrees>2.724419943988323211669921875</LongitudeDegrees>
            </Position>
            <AltitudeMeters>1400.5999755859375</AltitudeMeters>
            <DistanceMeters>NAN</DistanceMeters>
          </Trackpoint>
          <Trackpoint>
            <Time>2021-04-01T11:54:46.000Z</Time>
            <Position>
              <LatitudeDegrees>42.42286643944680690765380859375</LatitudeDegrees>
              <LongitudeDegrees>2.724419943988323211669921875</LongitudeDegrees>
            </Position>
            <AltitudeMeters>1401</AltitudeMeters>
            <DistanceMeters>NAN</DistanceMeters>
          </Trackpoint>
          <Trackpoint>
            <Time>2021-04-01T11:54:50.000Z</Time>
            <Position>
              <LatitudeDegrees>42.42286643944680690765380859375</LatitudeDegrees>
              <LongitudeDegrees>2.724419943988323211669921875</LongitudeDegrees>
            </Position>
            <AltitudeMeters>1401</AltitudeMeters>
            <DistanceMeters>NAN</DistanceMeters>
          </Trackpoint>
          <Trackpoint>
            <Time>2021-04-01T11:54:53.000Z</Time>
            <Position>
              <LatitudeDegrees>42.42286643944680690765380859375</LatitudeDegrees>
              <LongitudeDegrees>2.724419943988323211669921875</LongitudeDegrees>
            </Position>
            <AltitudeMeters>1401.4000244140625</AltitudeMeters>
            <DistanceMeters>NAN</DistanceMeters>
          </Trackpoint>
          <Trackpoint>
            <Time>2021-04-01T11:54:55.000Z</Time>
            <Position>
              <LatitudeDegrees>42.42286643944680690765380859375</LatitudeDegrees>
              <LongitudeDegrees>2.724419943988323211669921875</LongitudeDegrees>
            </Position>
            <AltitudeMeters>1401.5999755859375</AltitudeMeters>
            <DistanceMeters>NAN</DistanceMeters>
          </Trackpoint>
          <Trackpoint>
            <Time>2021-04-01T11:54:58.000Z</Time>
            <Position>
              <LatitudeDegrees>42.42286643944680690765380859375</LatitudeDegrees>
              <LongitudeDegrees>2.724419943988323211669921875</LongitudeDegrees>
            </Position>
            <AltitudeMeters>1401.4000244140625</AltitudeMeters>
            <DistanceMeters>NAN</DistanceMeters>
          </Trackpoint>
          <Trackpoint>
            <Time>2021-04-01T11:55:04.000Z</Time>
            <Position>
              <LatitudeDegrees>42.42286543361842632293701171875</LatitudeDegrees>
              <LongitudeDegrees>2.72441717796027660369873046875</LongitudeDegrees>
            </Position>
            <AltitudeMeters>1400.800048828125</AltitudeMeters>
            <DistanceMeters>NAN</DistanceMeters>
          </Trackpoint>
          <Trackpoint>
            <Time>2021-04-01T11:55:06.000Z</Time>
            <Position>
              <LatitudeDegrees>42.4228650145232677459716796875</LatitudeDegrees>
              <LongitudeDegrees>2.7244157530367374420166015625</LongitudeDegrees>
            </Position>
            <AltitudeMeters>1400.800048828125</AltitudeMeters>
            <DistanceMeters>NAN</DistanceMeters>
          </Trackpoint>
          <Trackpoint>
            <Time>2021-04-01T11:55:20.000Z</Time>
            <Position>
              <LatitudeDegrees>42.42286157794296741485595703125</LatitudeDegrees>
              <LongitudeDegrees>2.72441198118031024932861328125</LongitudeDegrees>
            </Position>
            <AltitudeMeters>1401.199951171875</AltitudeMeters>
            <DistanceMeters>NAN</DistanceMeters>
          </Trackpoint>
          <Trackpoint>
            <Time>2021-04-01T11:55:24.000Z</Time>
            <Position>
              <LatitudeDegrees>42.42286241613328456878662109375</LatitudeDegrees>
              <LongitudeDegrees>2.72441156208515167236328125</LongitudeDegrees>
            </Position>
            <AltitudeMeters>1401.199951171875</AltitudeMeters>
            <DistanceMeters>NAN</DistanceMeters>
          </Trackpoint>
          <Trackpoint>
            <Time>2021-04-01T11:55:26.000Z</Time>
            <Position>
              <LatitudeDegrees>42.42286291904747486114501953125</LatitudeDegrees>
              <LongitudeDegrees>2.72441089153289794921875</LongitudeDegrees>
            </Position>
            <AltitudeMeters>1401.4000244140625</AltitudeMeters>
            <DistanceMeters>NAN</DistanceMeters>
          </Trackpoint>
          <Trackpoint>
            <Time>2021-04-01T11:55:27.000Z</Time>
            <Position>
              <LatitudeDegrees>42.42286308668553829193115234375</LatitudeDegrees>
              <LongitudeDegrees>2.72441064007580280303955078125</LongitudeDegrees>
            </Position>
            <AltitudeMeters>1401.5999755859375</AltitudeMeters>
            <DistanceMeters>NAN</DistanceMeters>
          </Trackpoint>
          <Trackpoint>
            <Time>2021-04-01T11:55:28.000Z</Time>
            <Position>
              <LatitudeDegrees>42.4228636734187602996826171875</LatitudeDegrees>
              <LongitudeDegrees>2.724410556256771087646484375</LongitudeDegrees>
            </Position>
            <AltitudeMeters>1402</AltitudeMeters>
            <DistanceMeters>NAN</DistanceMeters>
          </Trackpoint>
          <Trackpoint>
            <Time>2021-04-01T11:55:31.000Z</Time>
            <Position>
              <LatitudeDegrees>42.42286384105682373046875</LatitudeDegrees>
              <LongitudeDegrees>2.72441022098064422607421875</LongitudeDegrees>
            </Position>
            <AltitudeMeters>1402.800048828125</AltitudeMeters>
            <DistanceMeters>NAN</DistanceMeters>
          </Trackpoint>
          <Trackpoint>
            <Time>2021-04-01T11:55:34.000Z</Time>
            <Position>
              <LatitudeDegrees>42.42286384105682373046875</LatitudeDegrees>
              <LongitudeDegrees>2.7244097180664539337158203125</LongitudeDegrees>
            </Position>
            <AltitudeMeters>1403</AltitudeMeters>
            <DistanceMeters>NAN</DistanceMeters>
          </Trackpoint>
          <Trackpoint>
            <Time>2021-04-01T11:55:36.000Z</Time>
            <Position>
              <LatitudeDegrees>42.42286384105682373046875</LatitudeDegrees>
              <LongitudeDegrees>2.72440963424742221832275390625</LongitudeDegrees>
            </Position>
            <AltitudeMeters>1403.5999755859375</AltitudeMeters>
            <DistanceMeters>NAN</DistanceMeters>
          </Trackpoint>
          <Trackpoint>
            <Time>2021-04-01T11:55:37.000Z</Time>
            <Position>
              <LatitudeDegrees>42.42286384105682373046875</LatitudeDegrees>
              <LongitudeDegrees>2.72440896369516849517822265625</LongitudeDegrees>
            </Position>
            <AltitudeMeters>1404</AltitudeMeters>
            <DistanceMeters>NAN</DistanceMeters>
          </Trackpoint>
          <Trackpoint>
            <Time>2021-04-01T11:55:38.000Z</Time>
            <Position>
              <LatitudeDegrees>42.4228633381426334381103515625</LatitudeDegrees>
              <LongitudeDegrees>2.72440846078097820281982421875</LongitudeDegrees>
            </Position>
            <AltitudeMeters>1404</AltitudeMeters>
            <DistanceMeters>NAN</DistanceMeters>
          </Trackpoint>
          <Trackpoint>
            <Time>2021-04-01T11:55:40.000Z</Time>
            <Position>
              <LatitudeDegrees>42.42286275140941143035888671875</LatitudeDegrees>
              <LongitudeDegrees>2.72440795786678791046142578125</LongitudeDegrees>
            </Position>
            <AltitudeMeters>1404.199951171875</AltitudeMeters>
            <DistanceMeters>NAN</DistanceMeters>
          </Trackpoint>
          <Trackpoint>
            <Time>2021-04-01T11:55:41.000Z</Time>
            <Position>
              <LatitudeDegrees>42.4228624999523162841796875</LatitudeDegrees>
              <LongitudeDegrees>2.72440695203840732574462890625</LongitudeDegrees>
            </Position>
            <AltitudeMeters>1404.4000244140625</AltitudeMeters>
            <DistanceMeters>NAN</DistanceMeters>
          </Trackpoint>
          <Trackpoint>
            <Time>2021-04-01T11:55:43.000Z</Time>
            <Position>
              <LatitudeDegrees>42.42286124266684055328369140625</LatitudeDegrees>
              <LongitudeDegrees>2.72440083324909210205078125</LongitudeDegrees>
            </Position>
            <AltitudeMeters>1404.5999755859375</AltitudeMeters>
            <DistanceMeters>NAN</DistanceMeters>
          </Trackpoint>
          <Trackpoint>
            <Time>2021-04-01T11:55:44.000Z</Time>
            <Position>
              <LatitudeDegrees>42.42286073975265026092529296875</LatitudeDegrees>
              <LongitudeDegrees>2.724399827420711517333984375</LongitudeDegrees>
            </Position>
            <AltitudeMeters>1404.800048828125</AltitudeMeters>
            <DistanceMeters>NAN</DistanceMeters>
          </Trackpoint>
          <Trackpoint>
            <Time>2021-04-01T11:55:46.000Z</Time>
            <Position>
              <LatitudeDegrees>42.42285336367785930633544921875</LatitudeDegrees>
              <LongitudeDegrees>2.72438348270952701568603515625</LongitudeDegrees>
            </Position>
            <AltitudeMeters>1405.199951171875</AltitudeMeters>
            <DistanceMeters>NAN</DistanceMeters>
          </Trackpoint>
          <Trackpoint>
            <Time>2021-04-01T11:55:50.000Z</Time>
            <Position>
              <LatitudeDegrees>42.42283165454864501953125</LatitudeDegrees>
              <LongitudeDegrees>2.72433084435760974884033203125</LongitudeDegrees>
            </Position>
            <AltitudeMeters>1405.800048828125</AltitudeMeters>
            <DistanceMeters>NAN</DistanceMeters>
          </Trackpoint>
          <Trackpoint>
            <Time>2021-04-01T11:55:52.000Z</Time>
            <Position>
              <LatitudeDegrees>42.42282268591225147247314453125</LatitudeDegrees>
              <LongitudeDegrees>2.72430184297263622283935546875</LongitudeDegrees>
            </Position>
            <AltitudeMeters>1406.4000244140625</AltitudeMeters>
            <DistanceMeters>NAN</DistanceMeters>
          </Trackpoint>
          <Trackpoint>
            <Time>2021-04-01T11:55:59.000Z</Time>
            <Position>
              <LatitudeDegrees>42.42280684411525726318359375</LatitudeDegrees>
              <LongitudeDegrees>2.72423696704208850860595703125</LongitudeDegrees>
            </Position>
            <AltitudeMeters>1407.4000244140625</AltitudeMeters>
            <DistanceMeters>NAN</DistanceMeters>
          </Trackpoint>
          <Trackpoint>
            <Time>2021-04-01T11:56:00.000Z</Time>
            <Position>
              <LatitudeDegrees>42.42280776612460613250732421875</LatitudeDegrees>
              <LongitudeDegrees>2.72422959096729755401611328125</LongitudeDegrees>
            </Position>
            <AltitudeMeters>1407.5999755859375</AltitudeMeters>
            <DistanceMeters>NAN</DistanceMeters>
          </Trackpoint>
          <Trackpoint>
            <Time>2021-04-01T11:56:04.000Z</Time>
            <Position>
              <LatitudeDegrees>42.42280893959105014801025390625</LatitudeDegrees>
              <LongitudeDegrees>2.72419958375394344329833984375</LongitudeDegrees>
            </Position>
            <AltitudeMeters>1408.199951171875</AltitudeMeters>
            <DistanceMeters>NAN</DistanceMeters>
          </Trackpoint>
          <Trackpoint>
            <Time>2021-04-01T11:56:06.000Z</Time>
            <Position>
              <LatitudeDegrees>42.42280240170657634735107421875</LatitudeDegrees>
              <LongitudeDegrees>2.7241844125092029571533203125</LongitudeDegrees>
            </Position>
            <AltitudeMeters>1408.4000244140625</AltitudeMeters>
            <DistanceMeters>NAN</DistanceMeters>
          </Trackpoint>
          <Trackpoint>
            <Time>2021-04-01T11:56:08.000Z</Time>
            <Position>
              <LatitudeDegrees>42.42279737256467342376708984375</LatitudeDegrees>
              <LongitudeDegrees>2.72416773252189159393310546875</LongitudeDegrees>
            </Position>
            <AltitudeMeters>1408.5999755859375</AltitudeMeters>
            <DistanceMeters>NAN</DistanceMeters>
          </Trackpoint>
          <Trackpoint>
            <Time>2021-04-01T11:56:09.000Z</Time>
            <Position>
              <LatitudeDegrees>42.42279318161308765411376953125</LatitudeDegrees>
              <LongitudeDegrees>2.7241626195609569549560546875</LongitudeDegrees>
            </Position>
            <AltitudeMeters>1408.5999755859375</AltitudeMeters>
            <DistanceMeters>NAN</DistanceMeters>
          </Trackpoint>
          <Trackpoint>
            <Time>2021-04-01T11:56:10.000Z</Time>
            <Position>
              <LatitudeDegrees>42.4227889068424701690673828125</LatitudeDegrees>
              <LongitudeDegrees>2.7241582609713077545166015625</LongitudeDegrees>
            </Position>
            <AltitudeMeters>1408.800048828125</AltitudeMeters>
            <DistanceMeters>NAN</DistanceMeters>
          </Trackpoint>
          <Trackpoint>
            <Time>2021-04-01T11:56:14.000Z</Time>
            <Position>
              <LatitudeDegrees>42.42278379388153553009033203125</LatitudeDegrees>
              <LongitudeDegrees>2.72413655184209346771240234375</LongitudeDegrees>
            </Position>
            <AltitudeMeters>1409</AltitudeMeters>
            <DistanceMeters>NAN</DistanceMeters>
          </Trackpoint>
          <Trackpoint>
            <Time>2021-04-01T11:56:15.000Z</Time>
            <Position>
              <LatitudeDegrees>42.4227828718721866607666015625</LatitudeDegrees>
              <LongitudeDegrees>2.724134959280490875244140625</LongitudeDegrees>
            </Position>
            <AltitudeMeters>1409</AltitudeMeters>
            <DistanceMeters>NAN</DistanceMeters>
          </Trackpoint>
          <Trackpoint>
            <Time>2021-04-01T11:56:17.000Z</Time>
            <Position>
              <LatitudeDegrees>42.42278379388153553009033203125</LatitudeDegrees>
              <LongitudeDegrees>2.72413202561438083648681640625</LongitudeDegrees>
            </Position>
            <AltitudeMeters>1409.199951171875</AltitudeMeters>
            <DistanceMeters>NAN</DistanceMeters>
          </Trackpoint>
          <Trackpoint>
            <Time>2021-04-01T11:56:21.000Z</Time>
            <Position>
              <LatitudeDegrees>42.42277239449322223663330078125</LatitudeDegrees>
              <LongitudeDegrees>2.724128253757953643798828125</LongitudeDegrees>
            </Position>
            <AltitudeMeters>1409</AltitudeMeters>
            <DistanceMeters>NAN</DistanceMeters>
          </Trackpoint>
          <Trackpoint>
            <Time>2021-04-01T11:56:22.000Z</Time>
            <Position>
              <LatitudeDegrees>42.42277055047452449798583984375</LatitudeDegrees>
              <LongitudeDegrees>2.7241279184818267822265625</LongitudeDegrees>
            </Position>
            <AltitudeMeters>1409</AltitudeMeters>
            <DistanceMeters>NAN</DistanceMeters>
          </Trackpoint>
          <Trackpoint>
            <Time>2021-04-01T11:56:25.000Z</Time>
            <Position>
              <LatitudeDegrees>42.42276837117969989776611328125</LatitudeDegrees>
              <LongitudeDegrees>2.724126912653446197509765625</LongitudeDegrees>
            </Position>
            <AltitudeMeters>1409</AltitudeMeters>
            <DistanceMeters>NAN</DistanceMeters>
          </Trackpoint>
          <Trackpoint>
            <Time>2021-04-01T11:56:34.000Z</Time>
            <Position>
              <LatitudeDegrees>42.4227671138942241668701171875</LatitudeDegrees>
              <LongitudeDegrees>2.72412833757698535919189453125</LongitudeDegrees>
            </Position>
            <AltitudeMeters>1408.5999755859375</AltitudeMeters>
            <DistanceMeters>NAN</DistanceMeters>
          </Trackpoint>
          <Trackpoint>
            <Time>2021-04-01T11:56:38.000Z</Time>
            <Position>
              <LatitudeDegrees>42.4227671138942241668701171875</LatitudeDegrees>
              <LongitudeDegrees>2.72412833757698535919189453125</LongitudeDegrees>
            </Position>
            <AltitudeMeters>1408.800048828125</AltitudeMeters>
            <DistanceMeters>NAN</DistanceMeters>
          </Trackpoint>
          <Trackpoint>
            <Time>2021-04-01T11:56:44.000Z</Time>
            <Position>
              <LatitudeDegrees>42.42276803590357303619384765625</LatitudeDegrees>
              <LongitudeDegrees>2.7241279184818267822265625</LongitudeDegrees>
            </Position>
            <AltitudeMeters>1408.800048828125</AltitudeMeters>
            <DistanceMeters>NAN</DistanceMeters>
          </Trackpoint>
          <Trackpoint>
            <Time>2021-04-01T11:56:46.000Z</Time>
            <Position>
              <LatitudeDegrees>42.4227687902748584747314453125</LatitudeDegrees>
              <LongitudeDegrees>2.724127583205699920654296875</LongitudeDegrees>
            </Position>
            <AltitudeMeters>1408.5999755859375</AltitudeMeters>
            <DistanceMeters>NAN</DistanceMeters>
          </Trackpoint>
          <Trackpoint>
            <Time>2021-04-01T11:56:49.000Z</Time>
            <Position>
              <LatitudeDegrees>42.4227687902748584747314453125</LatitudeDegrees>
              <LongitudeDegrees>2.72412666119635105133056640625</LongitudeDegrees>
            </Position>
            <AltitudeMeters>1408.5999755859375</AltitudeMeters>
            <DistanceMeters>NAN</DistanceMeters>
          </Trackpoint>
          <Trackpoint>
            <Time>2021-04-01T11:56:55.000Z</Time>
            <Position>
              <LatitudeDegrees>42.42276703007519245147705078125</LatitudeDegrees>
              <LongitudeDegrees>2.7241254039108753204345703125</LongitudeDegrees>
            </Position>
            <AltitudeMeters>1408.4000244140625</AltitudeMeters>
            <DistanceMeters>NAN</DistanceMeters>
          </Trackpoint>
          <Trackpoint>
            <Time>2021-04-01T11:57:01.000Z</Time>
            <Position>
              <LatitudeDegrees>42.4227667786180973052978515625</LatitudeDegrees>
              <LongitudeDegrees>2.72411593236029148101806640625</LongitudeDegrees>
            </Position>
            <AltitudeMeters>1408.5999755859375</AltitudeMeters>
            <DistanceMeters>NAN</DistanceMeters>
          </Trackpoint>
          <Trackpoint>
            <Time>2021-04-01T11:57:12.000Z</Time>
            <Position>
              <LatitudeDegrees>42.4227540381252765655517578125</LatitudeDegrees>
              <LongitudeDegrees>2.72411241196095943450927734375</LongitudeDegrees>
            </Position>
            <AltitudeMeters>1408.4000244140625</AltitudeMeters>
            <DistanceMeters>NAN</DistanceMeters>
          </Trackpoint>
          <Trackpoint>
            <Time>2021-04-01T11:57:16.000Z</Time>
            <Position>
              <LatitudeDegrees>42.42275378666818141937255859375</LatitudeDegrees>
              <LongitudeDegrees>2.72411157377064228057861328125</LongitudeDegrees>
            </Position>
            <AltitudeMeters>1408.5999755859375</AltitudeMeters>
            <DistanceMeters>NAN</DistanceMeters>
          </Trackpoint>
          <Trackpoint>
            <Time>2021-04-01T11:57:21.000Z</Time>
            <Position>
              <LatitudeDegrees>42.42275378666818141937255859375</LatitudeDegrees>
              <LongitudeDegrees>2.7241113223135471343994140625</LongitudeDegrees>
            </Position>
            <AltitudeMeters>1407.800048828125</AltitudeMeters>
            <DistanceMeters>NAN</DistanceMeters>
          </Trackpoint>
          <Trackpoint>
            <Time>2021-04-01T11:57:24.000Z</Time>
            <Position>
              <LatitudeDegrees>42.42275378666818141937255859375</LatitudeDegrees>
              <LongitudeDegrees>2.7241113223135471343994140625</LongitudeDegrees>
            </Position>
            <AltitudeMeters>1407.199951171875</AltitudeMeters>
            <DistanceMeters>NAN</DistanceMeters>
          </Trackpoint>
          <Trackpoint>
            <Time>2021-04-01T11:57:30.000Z</Time>
            <Position>
              <LatitudeDegrees>42.42275948636233806610107421875</LatitudeDegrees>
              <LongitudeDegrees>2.7240731008350849151611328125</LongitudeDegrees>
            </Position>
            <AltitudeMeters>1406</AltitudeMeters>
            <DistanceMeters>NAN</DistanceMeters>
          </Trackpoint>
          <Trackpoint>
            <Time>2021-04-01T11:57:33.000Z</Time>
            <Position>
              <LatitudeDegrees>42.4227748252451419830322265625</LatitudeDegrees>
              <LongitudeDegrees>2.72400177083909511566162109375</LongitudeDegrees>
            </Position>
            <AltitudeMeters>1406</AltitudeMeters>
            <DistanceMeters>NAN</DistanceMeters>
          </Trackpoint>
          <Trackpoint>
            <Time>2021-04-01T11:57:35.000Z</Time>
            <Position>
              <LatitudeDegrees>42.42278899066150188446044921875</LatitudeDegrees>
              <LongitudeDegrees>2.7239617891609668731689453125</LongitudeDegrees>
            </Position>
            <AltitudeMeters>1405.800048828125</AltitudeMeters>
            <DistanceMeters>NAN</DistanceMeters>
          </Trackpoint>
          <Trackpoint>
            <Time>2021-04-01T11:57:37.000Z</Time>
            <Position>
              <LatitudeDegrees>42.4227962829172611236572265625</LatitudeDegrees>
              <LongitudeDegrees>2.72392583079636096954345703125</LongitudeDegrees>
            </Position>
            <AltitudeMeters>1405.5999755859375</AltitudeMeters>
            <DistanceMeters>NAN</DistanceMeters>
          </Trackpoint>
          <Trackpoint>
            <Time>2021-04-01T11:57:40.000Z</Time>
            <Position>
              <LatitudeDegrees>42.422793768346309661865234375</LatitudeDegrees>
              <LongitudeDegrees>2.72388693876564502716064453125</LongitudeDegrees>
            </Position>
            <AltitudeMeters>1405.4000244140625</AltitudeMeters>
            <DistanceMeters>NAN</DistanceMeters>
          </Trackpoint>
          <Trackpoint>
            <Time>2021-04-01T11:57:42.000Z</Time>
            <Position>
              <LatitudeDegrees>42.42279075086116790771484375</LatitudeDegrees>
              <LongitudeDegrees>2.7238766290247440338134765625</LongitudeDegrees>
            </Position>
            <AltitudeMeters>1405</AltitudeMeters>
            <DistanceMeters>NAN</DistanceMeters>
          </Trackpoint>
          <Trackpoint>
            <Time>2021-04-01T11:57:45.000Z</Time>
            <Position>
              <LatitudeDegrees>42.4227952770888805389404296875</LatitudeDegrees>
              <LongitudeDegrees>2.72386514581739902496337890625</LongitudeDegrees>
            </Position>
            <AltitudeMeters>1404.800048828125</AltitudeMeters>
            <DistanceMeters>NAN</DistanceMeters>
          </Trackpoint>
          <Trackpoint>
            <Time>2021-04-01T11:57:50.000Z</Time>
            <Position>
              <LatitudeDegrees>42.42280424572527408599853515625</LatitudeDegrees>
              <LongitudeDegrees>2.72385240532457828521728515625</LongitudeDegrees>
            </Position>
            <AltitudeMeters>1404.5999755859375</AltitudeMeters>
            <DistanceMeters>NAN</DistanceMeters>
          </Trackpoint>
          <Trackpoint>
            <Time>2021-04-01T11:57:51.000Z</Time>
            <Position>
              <LatitudeDegrees>42.42280893959105014801025390625</LatitudeDegrees>
              <LongitudeDegrees>2.723849304020404815673828125</LongitudeDegrees>
            </Position>
            <AltitudeMeters>1404.4000244140625</AltitudeMeters>
            <DistanceMeters>NAN</DistanceMeters>
          </Trackpoint>
          <Trackpoint>
            <Time>2021-04-01T11:57:54.000Z</Time>
            <Position>
              <LatitudeDegrees>42.42282452993094921112060546875</LatitudeDegrees>
              <LongitudeDegrees>2.72383865900337696075439453125</LongitudeDegrees>
            </Position>
            <AltitudeMeters>1404.199951171875</AltitudeMeters>
            <DistanceMeters>NAN</DistanceMeters>
          </Trackpoint>
          <Trackpoint>
            <Time>2021-04-01T11:57:56.000Z</Time>
            <Position>
              <LatitudeDegrees>42.4228264577686786651611328125</LatitudeDegrees>
              <LongitudeDegrees>2.72383715026080608367919921875</LongitudeDegrees>
            </Position>
            <AltitudeMeters>1403.800048828125</AltitudeMeters>
            <DistanceMeters>NAN</DistanceMeters>
          </Trackpoint>
          <Trackpoint>
            <Time>2021-04-01T11:57:57.000Z</Time>
            <Position>
              <LatitudeDegrees>42.4228281341493129730224609375</LatitudeDegrees>
              <LongitudeDegrees>2.72383664734661579132080078125</LongitudeDegrees>
            </Position>
            <AltitudeMeters>1403.5999755859375</AltitudeMeters>
            <DistanceMeters>NAN</DistanceMeters>
          </Trackpoint>
          <Trackpoint>
            <Time>2021-04-01T11:58:01.000Z</Time>
            <Position>
              <LatitudeDegrees>42.42283768951892852783203125</LatitudeDegrees>
              <LongitudeDegrees>2.72380144335329532623291015625</LongitudeDegrees>
            </Position>
            <AltitudeMeters>1402.5999755859375</AltitudeMeters>
            <DistanceMeters>NAN</DistanceMeters>
          </Trackpoint>
          <Trackpoint>
            <Time>2021-04-01T11:58:04.000Z</Time>
            <Position>
              <LatitudeDegrees>42.42284028790891170501708984375</LatitudeDegrees>
              <LongitudeDegrees>2.723780907690525054931640625</LongitudeDegrees>
            </Position>
            <AltitudeMeters>1402.4000244140625</AltitudeMeters>
            <DistanceMeters>NAN</DistanceMeters>
          </Trackpoint>
          <Trackpoint>
            <Time>2021-04-01T11:58:06.000Z</Time>
            <Position>
              <LatitudeDegrees>42.4228438921272754669189453125</LatitudeDegrees>
              <LongitudeDegrees>2.7237686701118946075439453125</LongitudeDegrees>
            </Position>
            <AltitudeMeters>1402.199951171875</AltitudeMeters>
            <DistanceMeters>NAN</DistanceMeters>
          </Trackpoint>
          <Trackpoint>
            <Time>2021-04-01T11:58:08.000Z</Time>
            <Position>
              <LatitudeDegrees>42.4228415451943874359130859375</LatitudeDegrees>
              <LongitudeDegrees>2.7237619645893573760986328125</LongitudeDegrees>
            </Position>
            <AltitudeMeters>1401.800048828125</AltitudeMeters>
            <DistanceMeters>NAN</DistanceMeters>
          </Trackpoint>
          <Trackpoint>
            <Time>2021-04-01T11:58:09.000Z</Time>
            <Position>
              <LatitudeDegrees>42.42283861152827739715576171875</LatitudeDegrees>
              <LongitudeDegrees>2.72376288659870624542236328125</LongitudeDegrees>
            </Position>
            <AltitudeMeters>1401.5999755859375</AltitudeMeters>
            <DistanceMeters>NAN</DistanceMeters>
          </Trackpoint>
          <Trackpoint>
            <Time>2021-04-01T11:58:10.000Z</Time>
            <Position>
              <LatitudeDegrees>42.4228361807763576507568359375</LatitudeDegrees>
              <LongitudeDegrees>2.7237669937312602996826171875</LongitudeDegrees>
            </Position>
            <AltitudeMeters>1401.4000244140625</AltitudeMeters>
            <DistanceMeters>NAN</DistanceMeters>
          </Trackpoint>
          <Trackpoint>
            <Time>2021-04-01T11:58:14.000Z</Time>
            <Position>
              <LatitudeDegrees>42.422836683690547943115234375</LatitudeDegrees>
              <LongitudeDegrees>2.7237658202648162841796875</LongitudeDegrees>
            </Position>
            <AltitudeMeters>1400.800048828125</AltitudeMeters>
            <DistanceMeters>NAN</DistanceMeters>
          </Trackpoint>
          <Trackpoint>
            <Time>2021-04-01T11:58:16.000Z</Time>
            <Position>
              <LatitudeDegrees>42.4228375218808650970458984375</LatitudeDegrees>
              <LongitudeDegrees>2.72376070730388164520263671875</LongitudeDegrees>
            </Position>
            <AltitudeMeters>1400.5999755859375</AltitudeMeters>
            <DistanceMeters>NAN</DistanceMeters>
          </Trackpoint>
          <Trackpoint>
            <Time>2021-04-01T11:58:19.000Z</Time>
            <Position>
              <LatitudeDegrees>42.4228324927389621734619140625</LatitudeDegrees>
              <LongitudeDegrees>2.72375752218067646026611328125</LongitudeDegrees>
            </Position>
            <AltitudeMeters>1400.4000244140625</AltitudeMeters>
            <DistanceMeters>NAN</DistanceMeters>
          </Trackpoint>
          <Trackpoint>
            <Time>2021-04-01T11:58:20.000Z</Time>
            <Position>
              <LatitudeDegrees>42.422829978168010711669921875</LatitudeDegrees>
              <LongitudeDegrees>2.72375467233359813690185546875</LongitudeDegrees>
            </Position>
            <AltitudeMeters>1400.4000244140625</AltitudeMeters>
            <DistanceMeters>NAN</DistanceMeters>
          </Trackpoint>
          <Trackpoint>
            <Time>2021-04-01T11:58:26.000Z</Time>
            <Position>
              <LatitudeDegrees>42.42283341474831104278564453125</LatitudeDegrees>
              <LongitudeDegrees>2.723716199398040771484375</LongitudeDegrees>
            </Position>
            <AltitudeMeters>1399.5999755859375</AltitudeMeters>
            <DistanceMeters>NAN</DistanceMeters>
          </Trackpoint>
          <Trackpoint>
            <Time>2021-04-01T11:58:28.000Z</Time>
            <Position>
              <LatitudeDegrees>42.42283173836767673492431640625</LatitudeDegrees>
              <LongitudeDegrees>2.72369599901139736175537109375</LongitudeDegrees>
            </Position>
            <AltitudeMeters>1399.199951171875</AltitudeMeters>
            <DistanceMeters>NAN</DistanceMeters>
          </Trackpoint>
          <Trackpoint>
            <Time>2021-04-01T11:58:32.000Z</Time>
            <Position>
              <LatitudeDegrees>42.42282017134130001068115234375</LatitudeDegrees>
              <LongitudeDegrees>2.72364704869687557220458984375</LongitudeDegrees>
            </Position>
            <AltitudeMeters>1398.5999755859375</AltitudeMeters>
            <DistanceMeters>NAN</DistanceMeters>
          </Trackpoint>
          <Trackpoint>
            <Time>2021-04-01T11:58:35.000Z</Time>
            <Position>
              <LatitudeDegrees>42.42280391044914722442626953125</LatitudeDegrees>
              <LongitudeDegrees>2.72361720912158489227294921875</LongitudeDegrees>
            </Position>
            <AltitudeMeters>1398.199951171875</AltitudeMeters>
            <DistanceMeters>NAN</DistanceMeters>
          </Trackpoint>
          <Trackpoint>
            <Time>2021-04-01T11:58:40.000Z</Time>
            <Position>
              <LatitudeDegrees>42.42278136312961578369140625</LatitudeDegrees>
              <LongitudeDegrees>2.72357337176799774169921875</LongitudeDegrees>
            </Position>
            <AltitudeMeters>1397.199951171875</AltitudeMeters>
            <DistanceMeters>NAN</DistanceMeters>
          </Trackpoint>
          <Trackpoint>
            <Time>2021-04-01T11:58:43.000Z</Time>
            <Position>
              <LatitudeDegrees>42.422781027853488922119140625</LatitudeDegrees>
              <LongitudeDegrees>2.7235405147075653076171875</LongitudeDegrees>
            </Position>
            <AltitudeMeters>1396.800048828125</AltitudeMeters>
            <DistanceMeters>NAN</DistanceMeters>
          </Trackpoint>
          <Trackpoint>
            <Time>2021-04-01T11:58:45.000Z</Time>
            <Position>
              <LatitudeDegrees>42.42276853881776332855224609375</LatitudeDegrees>
              <LongitudeDegrees>2.723520062863826751708984375</LongitudeDegrees>
            </Position>
            <AltitudeMeters>1396.199951171875</AltitudeMeters>
            <DistanceMeters>NAN</DistanceMeters>
          </Trackpoint>
          <Trackpoint>
            <Time>2021-04-01T11:58:50.000Z</Time>
            <Position>
              <LatitudeDegrees>42.42274909280240535736083984375</LatitudeDegrees>
              <LongitudeDegrees>2.723461724817752838134765625</LongitudeDegrees>
            </Position>
            <AltitudeMeters>1395.800048828125</AltitudeMeters>
            <DistanceMeters>NAN</DistanceMeters>
          </Trackpoint>
          <Trackpoint>
            <Time>2021-04-01T11:58:51.000Z</Time>
            <Position>
              <LatitudeDegrees>42.42274909280240535736083984375</LatitudeDegrees>
              <LongitudeDegrees>2.72344839759171009063720703125</LongitudeDegrees>
            </Position>
            <AltitudeMeters>1395.5999755859375</AltitudeMeters>
            <DistanceMeters>NAN</DistanceMeters>
          </Trackpoint>
          <Trackpoint>
            <Time>2021-04-01T11:58:53.000Z</Time>
            <Position>
              <LatitudeDegrees>42.42274037562310695648193359375</LatitudeDegrees>
              <LongitudeDegrees>2.72342442534863948822021484375</LongitudeDegrees>
            </Position>
            <AltitudeMeters>1395.199951171875</AltitudeMeters>
            <DistanceMeters>NAN</DistanceMeters>
          </Trackpoint>
          <Trackpoint>
            <Time>2021-04-01T11:58:57.000Z</Time>
            <Position>
              <LatitudeDegrees>42.42273165844380855560302734375</LatitudeDegrees>
              <LongitudeDegrees>2.72341252304613590240478515625</LongitudeDegrees>
            </Position>
            <AltitudeMeters>1394.5999755859375</AltitudeMeters>
            <DistanceMeters>NAN</DistanceMeters>
          </Trackpoint>
          <Trackpoint>
            <Time>2021-04-01T11:58:58.000Z</Time>
            <Position>
              <LatitudeDegrees>42.4227310717105865478515625</LatitudeDegrees>
              <LongitudeDegrees>2.72341386415064334869384765625</LongitudeDegrees>
            </Position>
            <AltitudeMeters>1394.5999755859375</AltitudeMeters>
            <DistanceMeters>NAN</DistanceMeters>
          </Trackpoint>
          <Trackpoint>
            <Time>2021-04-01T11:59:11.000Z</Time>
            <Position>
              <LatitudeDegrees>42.42272562347352504730224609375</LatitudeDegrees>
              <LongitudeDegrees>2.72341855801641941070556640625</LongitudeDegrees>
            </Position>
            <AltitudeMeters>1394</AltitudeMeters>
            <DistanceMeters>NAN</DistanceMeters>
          </Trackpoint>
          <Trackpoint>
            <Time>2021-04-01T11:59:15.000Z</Time>
            <Position>
              <LatitudeDegrees>42.42272629402577877044677734375</LatitudeDegrees>
              <LongitudeDegrees>2.723412103950977325439453125</LongitudeDegrees>
            </Position>
            <AltitudeMeters>1392.4000244140625</AltitudeMeters>
            <DistanceMeters>NAN</DistanceMeters>
          </Trackpoint>
          <Trackpoint>
            <Time>2021-04-01T11:59:18.000Z</Time>
            <Position>
              <LatitudeDegrees>42.4227255396544933319091796875</LatitudeDegrees>
              <LongitudeDegrees>2.7233676798641681671142578125</LongitudeDegrees>
            </Position>
            <AltitudeMeters>1391.199951171875</AltitudeMeters>
            <DistanceMeters>NAN</DistanceMeters>
          </Trackpoint>
          <Trackpoint>
            <Time>2021-04-01T11:59:19.000Z</Time>
            <Position>
              <LatitudeDegrees>42.42272503674030303955078125</LatitudeDegrees>
              <LongitudeDegrees>2.7233535982668399810791015625</LongitudeDegrees>
            </Position>
            <AltitudeMeters>1390.800048828125</AltitudeMeters>
            <DistanceMeters>NAN</DistanceMeters>
          </Trackpoint>
          <Trackpoint>
            <Time>2021-04-01T11:59:21.000Z</Time>
            <Position>
              <LatitudeDegrees>42.42272579111158847808837890625</LatitudeDegrees>
              <LongitudeDegrees>2.72332065738737583160400390625</LongitudeDegrees>
            </Position>
            <AltitudeMeters>1390</AltitudeMeters>
            <DistanceMeters>NAN</DistanceMeters>
          </Trackpoint>
          <Trackpoint>
            <Time>2021-04-01T11:59:23.000Z</Time>
            <Position>
              <LatitudeDegrees>42.4227168224751949310302734375</LatitudeDegrees>
              <LongitudeDegrees>2.72328712977468967437744140625</LongitudeDegrees>
            </Position>
            <AltitudeMeters>1389.5999755859375</AltitudeMeters>
            <DistanceMeters>NAN</DistanceMeters>
          </Trackpoint>
          <Trackpoint>
            <Time>2021-04-01T11:59:25.000Z</Time>
            <Position>
              <LatitudeDegrees>42.42270383052527904510498046875</LatitudeDegrees>
              <LongitudeDegrees>2.72326734848320484161376953125</LongitudeDegrees>
            </Position>
            <AltitudeMeters>1389.199951171875</AltitudeMeters>
            <DistanceMeters>NAN</DistanceMeters>
          </Trackpoint>
          <Trackpoint>
            <Time>2021-04-01T11:59:26.000Z</Time>
            <Position>
              <LatitudeDegrees>42.42269930429756641387939453125</LatitudeDegrees>
              <LongitudeDegrees>2.72325946949422359466552734375</LongitudeDegrees>
            </Position>
            <AltitudeMeters>1389</AltitudeMeters>
            <DistanceMeters>NAN</DistanceMeters>
          </Trackpoint>
          <Trackpoint>
            <Time>2021-04-01T11:59:30.000Z</Time>
            <Position>
              <LatitudeDegrees>42.4226913414895534515380859375</LatitudeDegrees>
              <LongitudeDegrees>2.72322376258671283721923828125</LongitudeDegrees>
            </Position>
            <AltitudeMeters>1388.199951171875</AltitudeMeters>
            <DistanceMeters>NAN</DistanceMeters>
          </Trackpoint>
          <Trackpoint>
            <Time>2021-04-01T11:59:31.000Z</Time>
            <Position>
              <LatitudeDegrees>42.42269008420407772064208984375</LatitudeDegrees>
              <LongitudeDegrees>2.72321269847452640533447265625</LongitudeDegrees>
            </Position>
            <AltitudeMeters>1388.199951171875</AltitudeMeters>
            <DistanceMeters>NAN</DistanceMeters>
          </Trackpoint>
          <Trackpoint>
            <Time>2021-04-01T11:59:33.000Z</Time>
            <Position>
              <LatitudeDegrees>42.42268186993896961212158203125</LatitudeDegrees>
              <LongitudeDegrees>2.72319325245916843414306640625</LongitudeDegrees>
            </Position>
            <AltitudeMeters>1387.5999755859375</AltitudeMeters>
            <DistanceMeters>NAN</DistanceMeters>
          </Trackpoint>
          <Trackpoint>
            <Time>2021-04-01T11:59:36.000Z</Time>
            <Position>
              <LatitudeDegrees>42.42266125045716762542724609375</LatitudeDegrees>
              <LongitudeDegrees>2.72316408343613147735595703125</LongitudeDegrees>
            </Position>
            <AltitudeMeters>1386.199951171875</AltitudeMeters>
            <DistanceMeters>NAN</DistanceMeters>
          </Trackpoint>
          <Trackpoint>
            <Time>2021-04-01T11:59:39.000Z</Time>
            <Position>
              <LatitudeDegrees>42.42265127599239349365234375</LatitudeDegrees>
              <LongitudeDegrees>2.7231336571276187896728515625</LongitudeDegrees>
            </Position>
            <AltitudeMeters>1385.800048828125</AltitudeMeters>
            <DistanceMeters>NAN</DistanceMeters>
          </Trackpoint>
          <Trackpoint>
            <Time>2021-04-01T11:59:42.000Z</Time>
            <Position>
              <LatitudeDegrees>42.42264381609857082366943359375</LatitudeDegrees>
              <LongitudeDegrees>2.72310222499072551727294921875</LongitudeDegrees>
            </Position>
            <AltitudeMeters>1385.199951171875</AltitudeMeters>
            <DistanceMeters>NAN</DistanceMeters>
          </Trackpoint>
          <Trackpoint>
            <Time>2021-04-01T11:59:44.000Z</Time>
            <Position>
              <LatitudeDegrees>42.42263811640441417694091796875</LatitudeDegrees>
              <LongitudeDegrees>2.72308847866952419281005859375</LongitudeDegrees>
            </Position>
            <AltitudeMeters>1384.800048828125</AltitudeMeters>
            <DistanceMeters>NAN</DistanceMeters>
          </Trackpoint>
          <Trackpoint>
            <Time>2021-04-01T11:59:45.000Z</Time>
            <Position>
              <LatitudeDegrees>42.42263325490057468414306640625</LatitudeDegrees>
              <LongitudeDegrees>2.72308646701276302337646484375</LongitudeDegrees>
            </Position>
            <AltitudeMeters>1384.5999755859375</AltitudeMeters>
            <DistanceMeters>NAN</DistanceMeters>
          </Trackpoint>
          <Trackpoint>
            <Time>2021-04-01T11:59:46.000Z</Time>
            <Position>
              <LatitudeDegrees>42.42262713611125946044921875</LatitudeDegrees>
              <LongitudeDegrees>2.7230791747570037841796875</LongitudeDegrees>
            </Position>
            <AltitudeMeters>1384.199951171875</AltitudeMeters>
            <DistanceMeters>NAN</DistanceMeters>
          </Trackpoint>
          <Trackpoint>
            <Time>2021-04-01T11:59:47.000Z</Time>
            <Position>
              <LatitudeDegrees>42.42262319661676883697509765625</LatitudeDegrees>
              <LongitudeDegrees>2.723074145615100860595703125</LongitudeDegrees>
            </Position>
            <AltitudeMeters>1383.800048828125</AltitudeMeters>
            <DistanceMeters>NAN</DistanceMeters>
          </Trackpoint>
          <Trackpoint>
            <Time>2021-04-01T11:59:50.000Z</Time>
            <Position>
              <LatitudeDegrees>42.42261347360908985137939453125</LatitudeDegrees>
              <LongitudeDegrees>2.7230528555810451507568359375</LongitudeDegrees>
            </Position>
            <AltitudeMeters>1383.4000244140625</AltitudeMeters>
            <DistanceMeters>NAN</DistanceMeters>
          </Trackpoint>
          <Trackpoint>
            <Time>2021-04-01T11:59:52.000Z</Time>
            <Position>
              <LatitudeDegrees>42.4226078577339649200439453125</LatitudeDegrees>
              <LongitudeDegrees>2.723031900823116302490234375</LongitudeDegrees>
            </Position>
            <AltitudeMeters>1383.199951171875</AltitudeMeters>
            <DistanceMeters>NAN</DistanceMeters>
          </Trackpoint>
          <Trackpoint>
            <Time>2021-04-01T11:59:53.000Z</Time>
            <Position>
              <LatitudeDegrees>42.4226058460772037506103515625</LatitudeDegrees>
              <LongitudeDegrees>2.72302259691059589385986328125</LongitudeDegrees>
            </Position>
            <AltitudeMeters>1382.800048828125</AltitudeMeters>
            <DistanceMeters>NAN</DistanceMeters>
          </Trackpoint>
          <Trackpoint>
            <Time>2021-04-01T11:59:56.000Z</Time>
            <Position>
              <LatitudeDegrees>42.42260056547820568084716796875</LatitudeDegrees>
              <LongitudeDegrees>2.72299158386886119842529296875</LongitudeDegrees>
            </Position>
            <AltitudeMeters>1381.800048828125</AltitudeMeters>
            <DistanceMeters>NAN</DistanceMeters>
          </Trackpoint>
          <Trackpoint>
            <Time>2021-04-01T11:59:57.000Z</Time>
            <Position>
              <LatitudeDegrees>42.42260173894464969635009765625</LatitudeDegrees>
              <LongitudeDegrees>2.72297901101410388946533203125</LongitudeDegrees>
            </Position>
            <AltitudeMeters>1381.4000244140625</AltitudeMeters>
            <DistanceMeters>NAN</DistanceMeters>
          </Trackpoint>
          <Trackpoint>
            <Time>2021-04-01T11:59:59.000Z</Time>
            <Position>
              <LatitudeDegrees>42.4226050078868865966796875</LatitudeDegrees>
              <LongitudeDegrees>2.7229536138474941253662109375</LongitudeDegrees>
            </Position>
            <AltitudeMeters>1381</AltitudeMeters>
            <DistanceMeters>NAN</DistanceMeters>
          </Trackpoint>
          <Trackpoint>
            <Time>2021-04-01T12:00:01.000Z</Time>
            <Position>
              <LatitudeDegrees>42.42260240949690341949462890625</LatitudeDegrees>
              <LongitudeDegrees>2.72292788140475749969482421875</LongitudeDegrees>
            </Position>
            <AltitudeMeters>1380.5999755859375</AltitudeMeters>
            <DistanceMeters>NAN</DistanceMeters>
          </Trackpoint>
          <Trackpoint>
            <Time>2021-04-01T12:00:02.000Z</Time>
            <Position>
              <LatitudeDegrees>42.42259738035500049591064453125</LatitudeDegrees>
              <LongitudeDegrees>2.72291564382612705230712890625</LongitudeDegrees>
            </Position>
            <AltitudeMeters>1380.4000244140625</AltitudeMeters>
            <DistanceMeters>NAN</DistanceMeters>
          </Trackpoint>
          <Trackpoint>
            <Time>2021-04-01T12:00:06.000Z</Time>
            <Position>
              <LatitudeDegrees>42.42257592268288135528564453125</LatitudeDegrees>
              <LongitudeDegrees>2.7228744886815547943115234375</LongitudeDegrees>
            </Position>
            <AltitudeMeters>1380.4000244140625</AltitudeMeters>
            <DistanceMeters>NAN</DistanceMeters>
          </Trackpoint>
          <Trackpoint>
            <Time>2021-04-01T12:00:10.000Z</Time>
            <Position>
              <LatitudeDegrees>42.42257122881710529327392578125</LatitudeDegrees>
              <LongitudeDegrees>2.72282914258539676666259765625</LongitudeDegrees>
            </Position>
            <AltitudeMeters>1380.199951171875</AltitudeMeters>
            <DistanceMeters>NAN</DistanceMeters>
          </Trackpoint>
          <Trackpoint>
            <Time>2021-04-01T12:00:19.000Z</Time>
            <Position>
              <LatitudeDegrees>42.42255044169723987579345703125</LatitudeDegrees>
              <LongitudeDegrees>2.722737528383731842041015625</LongitudeDegrees>
            </Position>
            <AltitudeMeters>1380.5999755859375</AltitudeMeters>
            <DistanceMeters>NAN</DistanceMeters>
          </Trackpoint>
          <Trackpoint>
            <Time>2021-04-01T12:00:20.000Z</Time>
            <Position>
              <LatitudeDegrees>42.42254608310759067535400390625</LatitudeDegrees>
              <LongitudeDegrees>2.722727470099925994873046875</LongitudeDegrees>
            </Position>
            <AltitudeMeters>1380.5999755859375</AltitudeMeters>
            <DistanceMeters>NAN</DistanceMeters>
          </Trackpoint>
          <Trackpoint>
            <Time>2021-04-01T12:00:21.000Z</Time>
            <Position>
              <LatitudeDegrees>42.422541640698909759521484375</LatitudeDegrees>
              <LongitudeDegrees>2.72271682508289813995361328125</LongitudeDegrees>
            </Position>
            <AltitudeMeters>1380.800048828125</AltitudeMeters>
            <DistanceMeters>NAN</DistanceMeters>
          </Trackpoint>
          <Trackpoint>
            <Time>2021-04-01T12:00:22.000Z</Time>
            <Position>
              <LatitudeDegrees>42.42253669537603855133056640625</LatitudeDegrees>
              <LongitudeDegrees>2.72270509041845798492431640625</LongitudeDegrees>
            </Position>
            <AltitudeMeters>1380.800048828125</AltitudeMeters>
            <DistanceMeters>NAN</DistanceMeters>
          </Trackpoint>
          <Trackpoint>
            <Time>2021-04-01T12:00:24.000Z</Time>
            <Position>
              <LatitudeDegrees>42.4225314147770404815673828125</LatitudeDegrees>
              <LongitudeDegrees>2.72267977707087993621826171875</LongitudeDegrees>
            </Position>
            <AltitudeMeters>1380.800048828125</AltitudeMeters>
            <DistanceMeters>NAN</DistanceMeters>
          </Trackpoint>
          <Trackpoint>
            <Time>2021-04-01T12:00:26.000Z</Time>
            <Position>
              <LatitudeDegrees>42.4225401319563388824462890625</LatitudeDegrees>
              <LongitudeDegrees>2.72265144623816013336181640625</LongitudeDegrees>
            </Position>
            <AltitudeMeters>1381</AltitudeMeters>
            <DistanceMeters>NAN</DistanceMeters>
          </Trackpoint>
          <Trackpoint>
            <Time>2021-04-01T12:00:27.000Z</Time>
            <Position>
              <LatitudeDegrees>42.422544322907924652099609375</LatitudeDegrees>
              <LongitudeDegrees>2.72263552062213420867919921875</LongitudeDegrees>
            </Position>
            <AltitudeMeters>1381</AltitudeMeters>
            <DistanceMeters>NAN</DistanceMeters>
          </Trackpoint>
          <Trackpoint>
            <Time>2021-04-01T12:00:29.000Z</Time>
            <Position>
              <LatitudeDegrees>42.4225495196878910064697265625</LatitudeDegrees>
              <LongitudeDegrees>2.72261045873165130615234375</LongitudeDegrees>
            </Position>
            <AltitudeMeters>1380.5999755859375</AltitudeMeters>
            <DistanceMeters>NAN</DistanceMeters>
          </Trackpoint>
          <Trackpoint>
            <Time>2021-04-01T12:00:34.000Z</Time>
            <Position>
              <LatitudeDegrees>42.4225629307329654693603515625</LatitudeDegrees>
              <LongitudeDegrees>2.72253963164985179901123046875</LongitudeDegrees>
            </Position>
            <AltitudeMeters>1379.5999755859375</AltitudeMeters>
            <DistanceMeters>NAN</DistanceMeters>
          </Trackpoint>
          <Trackpoint>
            <Time>2021-04-01T12:00:37.000Z</Time>
            <Position>
              <LatitudeDegrees>42.42256016470491886138916015625</LatitudeDegrees>
              <LongitudeDegrees>2.7225053496658802032470703125</LongitudeDegrees>
            </Position>
            <AltitudeMeters>1378.5999755859375</AltitudeMeters>
            <DistanceMeters>NAN</DistanceMeters>
          </Trackpoint>
          <Trackpoint>
            <Time>2021-04-01T12:00:38.000Z</Time>
            <Position>
              <LatitudeDegrees>42.42255982942879199981689453125</LatitudeDegrees>
              <LongitudeDegrees>2.72249604575335979461669921875</LongitudeDegrees>
            </Position>
            <AltitudeMeters>1378.4000244140625</AltitudeMeters>
            <DistanceMeters>NAN</DistanceMeters>
          </Trackpoint>
          <Trackpoint>
            <Time>2021-04-01T12:00:43.000Z</Time>
            <Position>
              <LatitudeDegrees>42.42257483303546905517578125</LatitudeDegrees>
              <LongitudeDegrees>2.722455561161041259765625</LongitudeDegrees>
            </Position>
            <AltitudeMeters>1377.4000244140625</AltitudeMeters>
            <DistanceMeters>NAN</DistanceMeters>
          </Trackpoint>
          <Trackpoint>
            <Time>2021-04-01T12:00:44.000Z</Time>
            <Position>
              <LatitudeDegrees>42.422577179968357086181640625</LatitudeDegrees>
              <LongitudeDegrees>2.722447179257869720458984375</LongitudeDegrees>
            </Position>
            <AltitudeMeters>1377</AltitudeMeters>
            <DistanceMeters>NAN</DistanceMeters>
          </Trackpoint>
          <Trackpoint>
            <Time>2021-04-01T12:00:45.000Z</Time>
            <Position>
              <LatitudeDegrees>42.42257944308221340179443359375</LatitudeDegrees>
              <LongitudeDegrees>2.7224403060972690582275390625</LongitudeDegrees>
            </Position>
            <AltitudeMeters>1376.5999755859375</AltitudeMeters>
            <DistanceMeters>NAN</DistanceMeters>
          </Trackpoint>
          <Trackpoint>
            <Time>2021-04-01T12:00:48.000Z</Time>
            <Position>
              <LatitudeDegrees>42.42258531041443347930908203125</LatitudeDegrees>
              <LongitudeDegrees>2.72242127917706966400146484375</LongitudeDegrees>
            </Position>
            <AltitudeMeters>1375.800048828125</AltitudeMeters>
            <DistanceMeters>NAN</DistanceMeters>
          </Trackpoint>
          <Trackpoint>
            <Time>2021-04-01T12:00:50.000Z</Time>
            <Position>
              <LatitudeDegrees>42.4225870706140995025634765625</LatitudeDegrees>
              <LongitudeDegrees>2.72240526974201202392578125</LongitudeDegrees>
            </Position>
            <AltitudeMeters>1375.199951171875</AltitudeMeters>
            <DistanceMeters>NAN</DistanceMeters>
          </Trackpoint>
          <Trackpoint>
            <Time>2021-04-01T12:00:52.000Z</Time>
            <Position>
              <LatitudeDegrees>42.4225910939276218414306640625</LatitudeDegrees>
              <LongitudeDegrees>2.722395546734333038330078125</LongitudeDegrees>
            </Position>
            <AltitudeMeters>1374.4000244140625</AltitudeMeters>
            <DistanceMeters>NAN</DistanceMeters>
          </Trackpoint>
          <Trackpoint>
            <Time>2021-04-01T12:00:54.000Z</Time>
            <Position>
              <LatitudeDegrees>42.42259494960308074951171875</LatitudeDegrees>
              <LongitudeDegrees>2.7223952114582061767578125</LongitudeDegrees>
            </Position>
            <AltitudeMeters>1373.800048828125</AltitudeMeters>
            <DistanceMeters>NAN</DistanceMeters>
          </Trackpoint>
          <Trackpoint>
            <Time>2021-04-01T12:00:58.000Z</Time>
            <Position>
              <LatitudeDegrees>42.42259905673563480377197265625</LatitudeDegrees>
              <LongitudeDegrees>2.72237400524318218231201171875</LongitudeDegrees>
            </Position>
            <AltitudeMeters>1373.5999755859375</AltitudeMeters>
            <DistanceMeters>NAN</DistanceMeters>
          </Trackpoint>
          <Trackpoint>
            <Time>2021-04-01T12:00:59.000Z</Time>
            <Position>
              <LatitudeDegrees>42.42259939201176166534423828125</LatitudeDegrees>
              <LongitudeDegrees>2.72236361168324947357177734375</LongitudeDegrees>
            </Position>
            <AltitudeMeters>1373.4000244140625</AltitudeMeters>
            <DistanceMeters>NAN</DistanceMeters>
          </Trackpoint>
          <Trackpoint>
            <Time>2021-04-01T12:01:02.000Z</Time>
            <Position>
              <LatitudeDegrees>42.4225944466888904571533203125</LatitudeDegrees>
              <LongitudeDegrees>2.72231885232031345367431640625</LongitudeDegrees>
            </Position>
            <AltitudeMeters>1372.4000244140625</AltitudeMeters>
            <DistanceMeters>NAN</DistanceMeters>
          </Trackpoint>
          <Trackpoint>
            <Time>2021-04-01T12:01:03.000Z</Time>
            <Position>
              <LatitudeDegrees>42.4225902557373046875</LatitudeDegrees>
              <LongitudeDegrees>2.7223072014749050140380859375</LongitudeDegrees>
            </Position>
            <AltitudeMeters>1372</AltitudeMeters>
            <DistanceMeters>NAN</DistanceMeters>
          </Trackpoint>
          <Trackpoint>
            <Time>2021-04-01T12:01:08.000Z</Time>
            <Position>
              <LatitudeDegrees>42.42256536148488521575927734375</LatitudeDegrees>
              <LongitudeDegrees>2.7222552336752414703369140625</LongitudeDegrees>
            </Position>
            <AltitudeMeters>1371</AltitudeMeters>
            <DistanceMeters>NAN</DistanceMeters>
          </Trackpoint>
          <Trackpoint>
            <Time>2021-04-01T12:01:10.000Z</Time>
            <Position>
              <LatitudeDegrees>42.422552369534969329833984375</LatitudeDegrees>
              <LongitudeDegrees>2.7222297526895999908447265625</LongitudeDegrees>
            </Position>
            <AltitudeMeters>1370.5999755859375</AltitudeMeters>
            <DistanceMeters>NAN</DistanceMeters>
          </Trackpoint>
          <Trackpoint>
            <Time>2021-04-01T12:01:15.000Z</Time>
            <Position>
              <LatitudeDegrees>42.422524206340312957763671875</LatitudeDegrees>
              <LongitudeDegrees>2.72217652760446071624755859375</LongitudeDegrees>
            </Position>
            <AltitudeMeters>1370.199951171875</AltitudeMeters>
            <DistanceMeters>NAN</DistanceMeters>
          </Trackpoint>
          <Trackpoint>
            <Time>2021-04-01T12:01:17.000Z</Time>
            <Position>
              <LatitudeDegrees>42.42251657880842685699462890625</LatitudeDegrees>
              <LongitudeDegrees>2.72215641103684902191162109375</LongitudeDegrees>
            </Position>
            <AltitudeMeters>1370.199951171875</AltitudeMeters>
            <DistanceMeters>NAN</DistanceMeters>
          </Trackpoint>
          <Trackpoint>
            <Time>2021-04-01T12:01:19.000Z</Time>
            <Position>
              <LatitudeDegrees>42.4225139804184436798095703125</LatitudeDegrees>
              <LongitudeDegrees>2.72213168442249298095703125</LongitudeDegrees>
            </Position>
            <AltitudeMeters>1370</AltitudeMeters>
            <DistanceMeters>NAN</DistanceMeters>
          </Trackpoint>
          <Trackpoint>
            <Time>2021-04-01T12:01:23.000Z</Time>
            <Position>
              <LatitudeDegrees>42.422510795295238494873046875</LatitudeDegrees>
              <LongitudeDegrees>2.7220865897834300994873046875</LongitudeDegrees>
            </Position>
            <AltitudeMeters>1369.5999755859375</AltitudeMeters>
            <DistanceMeters>NAN</DistanceMeters>
          </Trackpoint>
          <Trackpoint>
            <Time>2021-04-01T12:01:26.000Z</Time>
            <Position>
              <LatitudeDegrees>42.42251004092395305633544921875</LatitudeDegrees>
              <LongitudeDegrees>2.72206471301615238189697265625</LongitudeDegrees>
            </Position>
            <AltitudeMeters>1370</AltitudeMeters>
            <DistanceMeters>NAN</DistanceMeters>
          </Trackpoint>
          <Trackpoint>
            <Time>2021-04-01T12:01:28.000Z</Time>
            <Position>
              <LatitudeDegrees>42.422509454190731048583984375</LatitudeDegrees>
              <LongitudeDegrees>2.722048871219158172607421875</LongitudeDegrees>
            </Position>
            <AltitudeMeters>1370.5999755859375</AltitudeMeters>
            <DistanceMeters>NAN</DistanceMeters>
          </Trackpoint>
          <Trackpoint>
            <Time>2021-04-01T12:01:34.000Z</Time>
            <Position>
              <LatitudeDegrees>42.42250300012528896331787109375</LatitudeDegrees>
              <LongitudeDegrees>2.72199816070497035980224609375</LongitudeDegrees>
            </Position>
            <AltitudeMeters>1371</AltitudeMeters>
            <DistanceMeters>NAN</DistanceMeters>
          </Trackpoint>
          <Trackpoint>
            <Time>2021-04-01T12:01:35.000Z</Time>
            <Position>
              <LatitudeDegrees>42.4225009046494960784912109375</LatitudeDegrees>
              <LongitudeDegrees>2.7219903655350208282470703125</LongitudeDegrees>
            </Position>
            <AltitudeMeters>1371</AltitudeMeters>
            <DistanceMeters>NAN</DistanceMeters>
          </Trackpoint>
          <Trackpoint>
            <Time>2021-04-01T12:01:41.000Z</Time>
            <Position>
              <LatitudeDegrees>42.4224861524999141693115234375</LatitudeDegrees>
              <LongitudeDegrees>2.7219528146088123321533203125</LongitudeDegrees>
            </Position>
            <AltitudeMeters>1371.4000244140625</AltitudeMeters>
            <DistanceMeters>NAN</DistanceMeters>
          </Trackpoint>
          <Trackpoint>
            <Time>2021-04-01T12:01:47.000Z</Time>
            <Position>
              <LatitudeDegrees>42.42246687412261962890625</LatitudeDegrees>
              <LongitudeDegrees>2.72192406468093395233154296875</LongitudeDegrees>
            </Position>
            <AltitudeMeters>1371</AltitudeMeters>
            <DistanceMeters>NAN</DistanceMeters>
          </Trackpoint>
          <Trackpoint>
            <Time>2021-04-01T12:01:49.000Z</Time>
            <Position>
              <LatitudeDegrees>42.42247617803514003753662109375</LatitudeDegrees>
              <LongitudeDegrees>2.72191149182617664337158203125</LongitudeDegrees>
            </Position>
            <AltitudeMeters>1370.800048828125</AltitudeMeters>
            <DistanceMeters>NAN</DistanceMeters>
          </Trackpoint>
          <Trackpoint>
            <Time>2021-04-01T12:01:53.000Z</Time>
            <Position>
              <LatitudeDegrees>42.42246645502746105194091796875</LatitudeDegrees>
              <LongitudeDegrees>2.72188601084053516387939453125</LongitudeDegrees>
            </Position>
            <AltitudeMeters>1370</AltitudeMeters>
            <DistanceMeters>NAN</DistanceMeters>
          </Trackpoint>
          <Trackpoint>
            <Time>2021-04-01T12:01:55.000Z</Time>
            <Position>
              <LatitudeDegrees>42.422463186085224151611328125</LatitudeDegrees>
              <LongitudeDegrees>2.72186773829162120819091796875</LongitudeDegrees>
            </Position>
            <AltitudeMeters>1369.800048828125</AltitudeMeters>
            <DistanceMeters>NAN</DistanceMeters>
          </Trackpoint>
          <Trackpoint>
            <Time>2021-04-01T12:02:00.000Z</Time>
            <Position>
              <LatitudeDegrees>42.42247031070291996002197265625</LatitudeDegrees>
              <LongitudeDegrees>2.721824236214160919189453125</LongitudeDegrees>
            </Position>
            <AltitudeMeters>1368.800048828125</AltitudeMeters>
            <DistanceMeters>NAN</DistanceMeters>
          </Trackpoint>
          <Trackpoint>
            <Time>2021-04-01T12:02:02.000Z</Time>
            <Position>
              <LatitudeDegrees>42.422463186085224151611328125</LatitudeDegrees>
              <LongitudeDegrees>2.7218024432659149169921875</LongitudeDegrees>
            </Position>
            <AltitudeMeters>1368.199951171875</AltitudeMeters>
            <DistanceMeters>NAN</DistanceMeters>
          </Trackpoint>
          <Trackpoint>
            <Time>2021-04-01T12:02:04.000Z</Time>
            <Position>
              <LatitudeDegrees>42.42245824076235294342041015625</LatitudeDegrees>
              <LongitudeDegrees>2.7217808179557323455810546875</LongitudeDegrees>
            </Position>
            <AltitudeMeters>1367.800048828125</AltitudeMeters>
            <DistanceMeters>NAN</DistanceMeters>
          </Trackpoint>
          <Trackpoint>
            <Time>2021-04-01T12:02:10.000Z</Time>
            <Position>
              <LatitudeDegrees>42.422470562160015106201171875</LatitudeDegrees>
              <LongitudeDegrees>2.721715606749057769775390625</LongitudeDegrees>
            </Position>
            <AltitudeMeters>1366.4000244140625</AltitudeMeters>
            <DistanceMeters>NAN</DistanceMeters>
          </Trackpoint>
          <Trackpoint>
            <Time>2021-04-01T12:02:13.000Z</Time>
            <Position>
              <LatitudeDegrees>42.42247047834098339080810546875</LatitudeDegrees>
              <LongitudeDegrees>2.72168685682117938995361328125</LongitudeDegrees>
            </Position>
            <AltitudeMeters>1365.5999755859375</AltitudeMeters>
            <DistanceMeters>NAN</DistanceMeters>
          </Trackpoint>
          <Trackpoint>
            <Time>2021-04-01T12:02:15.000Z</Time>
            <Position>
              <LatitudeDegrees>42.42248740978538990020751953125</LatitudeDegrees>
              <LongitudeDegrees>2.72166321985423564910888671875</LongitudeDegrees>
            </Position>
            <AltitudeMeters>1365.199951171875</AltitudeMeters>
            <DistanceMeters>NAN</DistanceMeters>
          </Trackpoint>
          <Trackpoint>
            <Time>2021-04-01T12:02:18.000Z</Time>
            <Position>
              <LatitudeDegrees>42.42250584997236728668212890625</LatitudeDegrees>
              <LongitudeDegrees>2.72163421846926212310791015625</LongitudeDegrees>
            </Position>
            <AltitudeMeters>1364.5999755859375</AltitudeMeters>
            <DistanceMeters>NAN</DistanceMeters>
          </Trackpoint>
          <Trackpoint>
            <Time>2021-04-01T12:02:21.000Z</Time>
            <Position>
              <LatitudeDegrees>42.42251272313296794891357421875</LatitudeDegrees>
              <LongitudeDegrees>2.7216120064258575439453125</LongitudeDegrees>
            </Position>
            <AltitudeMeters>1364</AltitudeMeters>
            <DistanceMeters>NAN</DistanceMeters>
          </Trackpoint>
          <Trackpoint>
            <Time>2021-04-01T12:02:25.000Z</Time>
            <Position>
              <LatitudeDegrees>42.422494031488895416259765625</LatitudeDegrees>
              <LongitudeDegrees>2.721602283418178558349609375</LongitudeDegrees>
            </Position>
            <AltitudeMeters>1363.4000244140625</AltitudeMeters>
            <DistanceMeters>NAN</DistanceMeters>
          </Trackpoint>
          <Trackpoint>
            <Time>2021-04-01T12:02:26.000Z</Time>
            <Position>
              <LatitudeDegrees>42.42249612696468830108642578125</LatitudeDegrees>
              <LongitudeDegrees>2.7215985953807830810546875</LongitudeDegrees>
            </Position>
            <AltitudeMeters>1363.199951171875</AltitudeMeters>
            <DistanceMeters>NAN</DistanceMeters>
          </Trackpoint>
          <Trackpoint>
            <Time>2021-04-01T12:02:30.000Z</Time>
            <Position>
              <LatitudeDegrees>42.42249713279306888580322265625</LatitudeDegrees>
              <LongitudeDegrees>2.72158845327794551849365234375</LongitudeDegrees>
            </Position>
            <AltitudeMeters>1363.199951171875</AltitudeMeters>
            <DistanceMeters>NAN</DistanceMeters>
          </Trackpoint>
          <Trackpoint>
            <Time>2021-04-01T12:02:36.000Z</Time>
            <Position>
              <LatitudeDegrees>42.4224784411489963531494140625</LatitudeDegrees>
              <LongitudeDegrees>2.72153765894472599029541015625</LongitudeDegrees>
            </Position>
            <AltitudeMeters>1363</AltitudeMeters>
            <DistanceMeters>NAN</DistanceMeters>
          </Trackpoint>
          <Trackpoint>
            <Time>2021-04-01T12:02:38.000Z</Time>
            <Position>
              <LatitudeDegrees>42.42247684858739376068115234375</LatitudeDegrees>
              <LongitudeDegrees>2.7215169556438922882080078125</LongitudeDegrees>
            </Position>
            <AltitudeMeters>1362.800048828125</AltitudeMeters>
            <DistanceMeters>NAN</DistanceMeters>
          </Trackpoint>
          <Trackpoint>
            <Time>2021-04-01T12:02:44.000Z</Time>
            <Position>
              <LatitudeDegrees>42.42247148416936397552490234375</LatitudeDegrees>
              <LongitudeDegrees>2.72144101560115814208984375</LongitudeDegrees>
            </Position>
            <AltitudeMeters>1362.5999755859375</AltitudeMeters>
            <DistanceMeters>NAN</DistanceMeters>
          </Trackpoint>
          <Trackpoint>
            <Time>2021-04-01T12:02:49.000Z</Time>
            <Position>
              <LatitudeDegrees>42.4224378727376461029052734375</LatitudeDegrees>
              <LongitudeDegrees>2.72144428454339504241943359375</LongitudeDegrees>
            </Position>
            <AltitudeMeters>1363</AltitudeMeters>
            <DistanceMeters>NAN</DistanceMeters>
          </Trackpoint>
          <Trackpoint>
            <Time>2021-04-01T12:02:58.000Z</Time>
            <Position>
              <LatitudeDegrees>42.4224328435957431793212890625</LatitudeDegrees>
              <LongitudeDegrees>2.72141125984489917755126953125</LongitudeDegrees>
            </Position>
            <AltitudeMeters>1362.800048828125</AltitudeMeters>
            <DistanceMeters>NAN</DistanceMeters>
          </Trackpoint>
          <Trackpoint>
            <Time>2021-04-01T12:03:04.000Z</Time>
            <Position>
              <LatitudeDegrees>42.4224294908344745635986328125</LatitudeDegrees>
              <LongitudeDegrees>2.72140958346426486968994140625</LongitudeDegrees>
            </Position>
            <AltitudeMeters>1362.4000244140625</AltitudeMeters>
            <DistanceMeters>NAN</DistanceMeters>
          </Trackpoint>
          <Trackpoint>
            <Time>2021-04-01T12:03:08.000Z</Time>
            <Position>
              <LatitudeDegrees>42.4224294908344745635986328125</LatitudeDegrees>
              <LongitudeDegrees>2.72140958346426486968994140625</LongitudeDegrees>
            </Position>
            <AltitudeMeters>1362.199951171875</AltitudeMeters>
            <DistanceMeters>NAN</DistanceMeters>
          </Trackpoint>
          <Trackpoint>
            <Time>2021-04-01T12:03:18.000Z</Time>
            <Position>
              <LatitudeDegrees>42.4224328435957431793212890625</LatitudeDegrees>
              <LongitudeDegrees>2.72140958346426486968994140625</LongitudeDegrees>
            </Position>
            <AltitudeMeters>1362.5999755859375</AltitudeMeters>
            <DistanceMeters>NAN</DistanceMeters>
          </Trackpoint>
          <Trackpoint>
            <Time>2021-04-01T12:03:22.000Z</Time>
            <Position>
              <LatitudeDegrees>42.4224328435957431793212890625</LatitudeDegrees>
              <LongitudeDegrees>2.72140958346426486968994140625</LongitudeDegrees>
            </Position>
            <AltitudeMeters>1362.800048828125</AltitudeMeters>
            <DistanceMeters>NAN</DistanceMeters>
          </Trackpoint>
          <Trackpoint>
            <Time>2021-04-01T12:03:25.000Z</Time>
            <Position>
              <LatitudeDegrees>42.4224328435957431793212890625</LatitudeDegrees>
              <LongitudeDegrees>2.72140991874039173126220703125</LongitudeDegrees>
            </Position>
            <AltitudeMeters>1362.800048828125</AltitudeMeters>
            <DistanceMeters>NAN</DistanceMeters>
          </Trackpoint>
          <Trackpoint>
            <Time>2021-04-01T12:03:34.000Z</Time>
            <Position>
              <LatitudeDegrees>42.42242119275033473968505859375</LatitudeDegrees>
              <LongitudeDegrees>2.72136515937745571136474609375</LongitudeDegrees>
            </Position>
            <AltitudeMeters>1362</AltitudeMeters>
            <DistanceMeters>NAN</DistanceMeters>
          </Trackpoint>
          <Trackpoint>
            <Time>2021-04-01T12:03:35.000Z</Time>
            <Position>
              <LatitudeDegrees>42.42241364903748035430908203125</LatitudeDegrees>
              <LongitudeDegrees>2.72135158069431781768798828125</LongitudeDegrees>
            </Position>
            <AltitudeMeters>1361.5999755859375</AltitudeMeters>
            <DistanceMeters>NAN</DistanceMeters>
          </Trackpoint>
          <Trackpoint>
            <Time>2021-04-01T12:03:36.000Z</Time>
            <Position>
              <LatitudeDegrees>42.4224073626101016998291015625</LatitudeDegrees>
              <LongitudeDegrees>2.7213338948786258697509765625</LongitudeDegrees>
            </Position>
            <AltitudeMeters>1361.4000244140625</AltitudeMeters>
            <DistanceMeters>NAN</DistanceMeters>
          </Trackpoint>
          <Trackpoint>
            <Time>2021-04-01T12:03:41.000Z</Time>
            <Position>
              <LatitudeDegrees>42.4223718233406543731689453125</LatitudeDegrees>
              <LongitudeDegrees>2.72123959846794605255126953125</LongitudeDegrees>
            </Position>
            <AltitudeMeters>1360.4000244140625</AltitudeMeters>
            <DistanceMeters>NAN</DistanceMeters>
          </Trackpoint>
          <Trackpoint>
            <Time>2021-04-01T12:03:42.000Z</Time>
            <Position>
              <LatitudeDegrees>42.4223657883703708648681640625</LatitudeDegrees>
              <LongitudeDegrees>2.7212292887270450592041015625</LongitudeDegrees>
            </Position>
            <AltitudeMeters>1360.4000244140625</AltitudeMeters>
            <DistanceMeters>NAN</DistanceMeters>
          </Trackpoint>
          <Trackpoint>
            <Time>2021-04-01T12:03:43.000Z</Time>
            <Position>
              <LatitudeDegrees>42.4223610945045948028564453125</LatitudeDegrees>
              <LongitudeDegrees>2.721218727529048919677734375</LongitudeDegrees>
            </Position>
            <AltitudeMeters>1360.4000244140625</AltitudeMeters>
            <DistanceMeters>NAN</DistanceMeters>
          </Trackpoint>
          <Trackpoint>
            <Time>2021-04-01T12:03:54.000Z</Time>
            <Position>
              <LatitudeDegrees>42.42233402095735073089599609375</LatitudeDegrees>
              <LongitudeDegrees>2.72106827236711978912353515625</LongitudeDegrees>
            </Position>
            <AltitudeMeters>1361</AltitudeMeters>
            <DistanceMeters>NAN</DistanceMeters>
          </Trackpoint>
          <Trackpoint>
            <Time>2021-04-01T12:03:57.000Z</Time>
            <Position>
              <LatitudeDegrees>42.4223341047763824462890625</LatitudeDegrees>
              <LongitudeDegrees>2.72102720104157924652099609375</LongitudeDegrees>
            </Position>
            <AltitudeMeters>1361</AltitudeMeters>
            <DistanceMeters>NAN</DistanceMeters>
          </Trackpoint>
          <Trackpoint>
            <Time>2021-04-01T12:03:59.000Z</Time>
            <Position>
              <LatitudeDegrees>42.422335445880889892578125</LatitudeDegrees>
              <LongitudeDegrees>2.72099887020885944366455078125</LongitudeDegrees>
            </Position>
            <AltitudeMeters>1361</AltitudeMeters>
            <DistanceMeters>NAN</DistanceMeters>
          </Trackpoint>
          <Trackpoint>
            <Time>2021-04-01T12:04:01.000Z</Time>
            <Position>
              <LatitudeDegrees>42.422332428395748138427734375</LatitudeDegrees>
              <LongitudeDegrees>2.72097137756645679473876953125</LongitudeDegrees>
            </Position>
            <AltitudeMeters>1361.199951171875</AltitudeMeters>
            <DistanceMeters>NAN</DistanceMeters>
          </Trackpoint>
          <Trackpoint>
            <Time>2021-04-01T12:04:04.000Z</Time>
            <Position>
              <LatitudeDegrees>42.42232404649257659912109375</LatitudeDegrees>
              <LongitudeDegrees>2.72093734703958034515380859375</LongitudeDegrees>
            </Position>
            <AltitudeMeters>1361.199951171875</AltitudeMeters>
            <DistanceMeters>NAN</DistanceMeters>
          </Trackpoint>
          <Trackpoint>
            <Time>2021-04-01T12:04:10.000Z</Time>
            <Position>
              <LatitudeDegrees>42.4223206937313079833984375</LatitudeDegrees>
              <LongitudeDegrees>2.72085822187364101409912109375</LongitudeDegrees>
            </Position>
            <AltitudeMeters>1359.800048828125</AltitudeMeters>
            <DistanceMeters>NAN</DistanceMeters>
          </Trackpoint>
          <Trackpoint>
            <Time>2021-04-01T12:04:11.000Z</Time>
            <Position>
              <LatitudeDegrees>42.42231474258005619049072265625</LatitudeDegrees>
              <LongitudeDegrees>2.72084849886596202850341796875</LongitudeDegrees>
            </Position>
            <AltitudeMeters>1359.5999755859375</AltitudeMeters>
            <DistanceMeters>NAN</DistanceMeters>
          </Trackpoint>
          <Trackpoint>
            <Time>2021-04-01T12:04:12.000Z</Time>
            <Position>
              <LatitudeDegrees>42.42230937816202640533447265625</LatitudeDegrees>
              <LongitudeDegrees>2.72083760239183902740478515625</LongitudeDegrees>
            </Position>
            <AltitudeMeters>1359.5999755859375</AltitudeMeters>
            <DistanceMeters>NAN</DistanceMeters>
          </Trackpoint>
          <Trackpoint>
            <Time>2021-04-01T12:04:13.000Z</Time>
            <Position>
              <LatitudeDegrees>42.42230149917304515838623046875</LatitudeDegrees>
              <LongitudeDegrees>2.72082871757447719573974609375</LongitudeDegrees>
            </Position>
            <AltitudeMeters>1359.199951171875</AltitudeMeters>
            <DistanceMeters>NAN</DistanceMeters>
          </Trackpoint>
          <Trackpoint>
            <Time>2021-04-01T12:04:15.000Z</Time>
            <Position>
              <LatitudeDegrees>42.42229362018406391143798828125</LatitudeDegrees>
              <LongitudeDegrees>2.72081279195845127105712890625</LongitudeDegrees>
            </Position>
            <AltitudeMeters>1359.199951171875</AltitudeMeters>
            <DistanceMeters>NAN</DistanceMeters>
          </Trackpoint>
          <Trackpoint>
            <Time>2021-04-01T12:04:17.000Z</Time>
            <Position>
              <LatitudeDegrees>42.42227836512029170989990234375</LatitudeDegrees>
              <LongitudeDegrees>2.720792591571807861328125</LongitudeDegrees>
            </Position>
            <AltitudeMeters>1359.199951171875</AltitudeMeters>
            <DistanceMeters>NAN</DistanceMeters>
          </Trackpoint>
          <Trackpoint>
            <Time>2021-04-01T12:04:19.000Z</Time>
            <Position>
              <LatitudeDegrees>42.422269396483898162841796875</LatitudeDegrees>
              <LongitudeDegrees>2.720766775310039520263671875</LongitudeDegrees>
            </Position>
            <AltitudeMeters>1359</AltitudeMeters>
            <DistanceMeters>NAN</DistanceMeters>
          </Trackpoint>
          <Trackpoint>
            <Time>2021-04-01T12:04:24.000Z</Time>
            <Position>
              <LatitudeDegrees>42.42223964072763919830322265625</LatitudeDegrees>
              <LongitudeDegrees>2.72070852108299732208251953125</LongitudeDegrees>
            </Position>
            <AltitudeMeters>1358.199951171875</AltitudeMeters>
            <DistanceMeters>NAN</DistanceMeters>
          </Trackpoint>
          <Trackpoint>
            <Time>2021-04-01T12:04:31.000Z</Time>
            <Position>
              <LatitudeDegrees>42.4222187697887420654296875</LatitudeDegrees>
              <LongitudeDegrees>2.72061497904360294342041015625</LongitudeDegrees>
            </Position>
            <AltitudeMeters>1358.5999755859375</AltitudeMeters>
            <DistanceMeters>NAN</DistanceMeters>
          </Trackpoint>
          <Trackpoint>
            <Time>2021-04-01T12:04:36.000Z</Time>
            <Position>
              <LatitudeDegrees>42.42220594547688961029052734375</LatitudeDegrees>
              <LongitudeDegrees>2.72055965848267078399658203125</LongitudeDegrees>
            </Position>
            <AltitudeMeters>1359.4000244140625</AltitudeMeters>
            <DistanceMeters>NAN</DistanceMeters>
          </Trackpoint>
          <Trackpoint>
            <Time>2021-04-01T12:04:42.000Z</Time>
            <Position>
              <LatitudeDegrees>42.42218029685318470001220703125</LatitudeDegrees>
              <LongitudeDegrees>2.72049285471439361572265625</LongitudeDegrees>
            </Position>
            <AltitudeMeters>1359.800048828125</AltitudeMeters>
            <DistanceMeters>NAN</DistanceMeters>
          </Trackpoint>
          <Trackpoint>
            <Time>2021-04-01T12:04:45.000Z</Time>
            <Position>
              <LatitudeDegrees>42.42216118611395359039306640625</LatitudeDegrees>
              <LongitudeDegrees>2.72046896629035472869873046875</LongitudeDegrees>
            </Position>
            <AltitudeMeters>1359.800048828125</AltitudeMeters>
            <DistanceMeters>NAN</DistanceMeters>
          </Trackpoint>
          <Trackpoint>
            <Time>2021-04-01T12:04:47.000Z</Time>
            <Position>
              <LatitudeDegrees>42.4221538938581943511962890625</LatitudeDegrees>
              <LongitudeDegrees>2.72044750861823558807373046875</LongitudeDegrees>
            </Position>
            <AltitudeMeters>1359.800048828125</AltitudeMeters>
            <DistanceMeters>NAN</DistanceMeters>
          </Trackpoint>
          <Trackpoint>
            <Time>2021-04-01T12:04:49.000Z</Time>
            <Position>
              <LatitudeDegrees>42.42214408703148365020751953125</LatitudeDegrees>
              <LongitudeDegrees>2.7204259671270847320556640625</LongitudeDegrees>
            </Position>
            <AltitudeMeters>1360</AltitudeMeters>
            <DistanceMeters>NAN</DistanceMeters>
          </Trackpoint>
          <Trackpoint>
            <Time>2021-04-01T12:04:53.000Z</Time>
            <Position>
              <LatitudeDegrees>42.4221383035182952880859375</LatitudeDegrees>
              <LongitudeDegrees>2.72036972455680370330810546875</LongitudeDegrees>
            </Position>
            <AltitudeMeters>1360</AltitudeMeters>
            <DistanceMeters>NAN</DistanceMeters>
          </Trackpoint>
          <Trackpoint>
            <Time>2021-04-01T12:05:00.000Z</Time>
            <Position>
              <LatitudeDegrees>42.422128580510616302490234375</LatitudeDegrees>
              <LongitudeDegrees>2.72028054110705852508544921875</LongitudeDegrees>
            </Position>
            <AltitudeMeters>1359.4000244140625</AltitudeMeters>
            <DistanceMeters>NAN</DistanceMeters>
          </Trackpoint>
          <Trackpoint>
            <Time>2021-04-01T12:05:06.000Z</Time>
            <Position>
              <LatitudeDegrees>42.42212346754968166351318359375</LatitudeDegrees>
              <LongitudeDegrees>2.7202144078910350799560546875</LongitudeDegrees>
            </Position>
            <AltitudeMeters>1359.800048828125</AltitudeMeters>
            <DistanceMeters>NAN</DistanceMeters>
          </Trackpoint>
          <Trackpoint>
            <Time>2021-04-01T12:05:07.000Z</Time>
            <Position>
              <LatitudeDegrees>42.42212648503482341766357421875</LatitudeDegrees>
              <LongitudeDegrees>2.720200158655643463134765625</LongitudeDegrees>
            </Position>
            <AltitudeMeters>1359.800048828125</AltitudeMeters>
            <DistanceMeters>NAN</DistanceMeters>
          </Trackpoint>
          <Trackpoint>
            <Time>2021-04-01T12:05:09.000Z</Time>
            <Position>
              <LatitudeDegrees>42.42213184945285320281982421875</LatitudeDegrees>
              <LongitudeDegrees>2.7201718278229236602783203125</LongitudeDegrees>
            </Position>
            <AltitudeMeters>1359.5999755859375</AltitudeMeters>
            <DistanceMeters>NAN</DistanceMeters>
          </Trackpoint>
          <Trackpoint>
            <Time>2021-04-01T12:05:12.000Z</Time>
            <Position>
              <LatitudeDegrees>42.42213352583348751068115234375</LatitudeDegrees>
              <LongitudeDegrees>2.72013637237250804901123046875</LongitudeDegrees>
            </Position>
            <AltitudeMeters>1359.5999755859375</AltitudeMeters>
            <DistanceMeters>NAN</DistanceMeters>
          </Trackpoint>
          <Trackpoint>
            <Time>2021-04-01T12:05:20.000Z</Time>
            <Position>
              <LatitudeDegrees>42.4221431650221347808837890625</LatitudeDegrees>
              <LongitudeDegrees>2.72003176622092723846435546875</LongitudeDegrees>
            </Position>
            <AltitudeMeters>1360.4000244140625</AltitudeMeters>
            <DistanceMeters>NAN</DistanceMeters>
          </Trackpoint>
          <Trackpoint>
            <Time>2021-04-01T12:05:29.000Z</Time>
            <Position>
              <LatitudeDegrees>42.4221597611904144287109375</LatitudeDegrees>
              <LongitudeDegrees>2.71989380009472370147705078125</LongitudeDegrees>
            </Position>
            <AltitudeMeters>1359.800048828125</AltitudeMeters>
            <DistanceMeters>NAN</DistanceMeters>
          </Trackpoint>
          <Trackpoint>
            <Time>2021-04-01T12:05:33.000Z</Time>
            <Position>
              <LatitudeDegrees>42.42216085083782672882080078125</LatitudeDegrees>
              <LongitudeDegrees>2.71983361802995204925537109375</LongitudeDegrees>
            </Position>
            <AltitudeMeters>1360.199951171875</AltitudeMeters>
            <DistanceMeters>NAN</DistanceMeters>
          </Trackpoint>
          <Trackpoint>
            <Time>2021-04-01T12:05:34.000Z</Time>
            <Position>
              <LatitudeDegrees>42.42216311395168304443359375</LatitudeDegrees>
              <LongitudeDegrees>2.71982230246067047119140625</LongitudeDegrees>
            </Position>
            <AltitudeMeters>1360.199951171875</AltitudeMeters>
            <DistanceMeters>NAN</DistanceMeters>
          </Trackpoint>
          <Trackpoint>
            <Time>2021-04-01T12:05:36.000Z</Time>
            <Position>
              <LatitudeDegrees>42.4221599288284778594970703125</LatitudeDegrees>
              <LongitudeDegrees>2.71980713121592998504638671875</LongitudeDegrees>
            </Position>
            <AltitudeMeters>1360</AltitudeMeters>
            <DistanceMeters>NAN</DistanceMeters>
          </Trackpoint>
          <Trackpoint>
            <Time>2021-04-01T12:05:38.000Z</Time>
            <Position>
              <LatitudeDegrees>42.422160096466541290283203125</LatitudeDegrees>
              <LongitudeDegrees>2.71978517062962055206298828125</LongitudeDegrees>
            </Position>
            <AltitudeMeters>1360</AltitudeMeters>
            <DistanceMeters>NAN</DistanceMeters>
          </Trackpoint>
          <Trackpoint>
            <Time>2021-04-01T12:05:40.000Z</Time>
            <Position>
              <LatitudeDegrees>42.42216001264750957489013671875</LatitudeDegrees>
              <LongitudeDegrees>2.719760946929454803466796875</LongitudeDegrees>
            </Position>
            <AltitudeMeters>1359.800048828125</AltitudeMeters>
            <DistanceMeters>NAN</DistanceMeters>
          </Trackpoint>
          <Trackpoint>
            <Time>2021-04-01T12:05:46.000Z</Time>
            <Position>
              <LatitudeDegrees>42.42215816862881183624267578125</LatitudeDegrees>
              <LongitudeDegrees>2.71967352367937564849853515625</LongitudeDegrees>
            </Position>
            <AltitudeMeters>1359.5999755859375</AltitudeMeters>
            <DistanceMeters>NAN</DistanceMeters>
          </Trackpoint>
          <Trackpoint>
            <Time>2021-04-01T12:05:48.000Z</Time>
            <Position>
              <LatitudeDegrees>42.42216856218874454498291015625</LatitudeDegrees>
              <LongitudeDegrees>2.71964753977954387664794921875</LongitudeDegrees>
            </Position>
            <AltitudeMeters>1359.4000244140625</AltitudeMeters>
            <DistanceMeters>NAN</DistanceMeters>
          </Trackpoint>
          <Trackpoint>
            <Time>2021-04-01T12:05:51.000Z</Time>
            <Position>
              <LatitudeDegrees>42.4221726693212985992431640625</LatitudeDegrees>
              <LongitudeDegrees>2.7196139283478260040283203125</LongitudeDegrees>
            </Position>
            <AltitudeMeters>1359.800048828125</AltitudeMeters>
            <DistanceMeters>NAN</DistanceMeters>
          </Trackpoint>
          <Trackpoint>
            <Time>2021-04-01T12:05:54.000Z</Time>
            <Position>
              <LatitudeDegrees>42.42217275314033031463623046875</LatitudeDegrees>
              <LongitudeDegrees>2.71958132274448871612548828125</LongitudeDegrees>
            </Position>
            <AltitudeMeters>1360.199951171875</AltitudeMeters>
            <DistanceMeters>NAN</DistanceMeters>
          </Trackpoint>
          <Trackpoint>
            <Time>2021-04-01T12:05:57.000Z</Time>
            <Position>
              <LatitudeDegrees>42.42217409424483776092529296875</LatitudeDegrees>
              <LongitudeDegrees>2.71955600939691066741943359375</LongitudeDegrees>
            </Position>
            <AltitudeMeters>1360.4000244140625</AltitudeMeters>
            <DistanceMeters>NAN</DistanceMeters>
          </Trackpoint>
          <Trackpoint>
            <Time>2021-04-01T12:06:00.000Z</Time>
            <Position>
              <LatitudeDegrees>42.422164790332317352294921875</LatitudeDegrees>
              <LongitudeDegrees>2.71954025141894817352294921875</LongitudeDegrees>
            </Position>
            <AltitudeMeters>1360.800048828125</AltitudeMeters>
            <DistanceMeters>NAN</DistanceMeters>
          </Trackpoint>
          <Trackpoint>
            <Time>2021-04-01T12:06:02.000Z</Time>
            <Position>
              <LatitudeDegrees>42.42216839455068111419677734375</LatitudeDegrees>
              <LongitudeDegrees>2.71953740157186985015869140625</LongitudeDegrees>
            </Position>
            <AltitudeMeters>1360.800048828125</AltitudeMeters>
            <DistanceMeters>NAN</DistanceMeters>
          </Trackpoint>
          <Trackpoint>
            <Time>2021-04-01T12:06:08.000Z</Time>
            <Position>
              <LatitudeDegrees>42.4221651256084442138671875</LatitudeDegrees>
              <LongitudeDegrees>2.7195118367671966552734375</LongitudeDegrees>
            </Position>
            <AltitudeMeters>1361.4000244140625</AltitudeMeters>
            <DistanceMeters>NAN</DistanceMeters>
          </Trackpoint>
          <Trackpoint>
            <Time>2021-04-01T12:06:11.000Z</Time>
            <Position>
              <LatitudeDegrees>42.42218029685318470001220703125</LatitudeDegrees>
              <LongitudeDegrees>2.7194885350763797760009765625</LongitudeDegrees>
            </Position>
            <AltitudeMeters>1361.4000244140625</AltitudeMeters>
            <DistanceMeters>NAN</DistanceMeters>
          </Trackpoint>
          <Trackpoint>
            <Time>2021-04-01T12:06:19.000Z</Time>
            <Position>
              <LatitudeDegrees>42.42218130268156528472900390625</LatitudeDegrees>
              <LongitudeDegrees>2.71941854618489742279052734375</LongitudeDegrees>
            </Position>
            <AltitudeMeters>1361.4000244140625</AltitudeMeters>
            <DistanceMeters>NAN</DistanceMeters>
          </Trackpoint>
          <Trackpoint>
            <Time>2021-04-01T12:06:27.000Z</Time>
            <Position>
              <LatitudeDegrees>42.42218985222280025482177734375</LatitudeDegrees>
              <LongitudeDegrees>2.719355933368206024169921875</LongitudeDegrees>
            </Position>
            <AltitudeMeters>1361.4000244140625</AltitudeMeters>
            <DistanceMeters>NAN</DistanceMeters>
          </Trackpoint>
          <Trackpoint>
            <Time>2021-04-01T12:06:32.000Z</Time>
            <Position>
              <LatitudeDegrees>42.42218214087188243865966796875</LatitudeDegrees>
              <LongitudeDegrees>2.7193517424166202545166015625</LongitudeDegrees>
            </Position>
            <AltitudeMeters>1361.4000244140625</AltitudeMeters>
            <DistanceMeters>NAN</DistanceMeters>
          </Trackpoint>
          <Trackpoint>
            <Time>2021-04-01T12:06:34.000Z</Time>
            <Position>
              <LatitudeDegrees>42.42218817584216594696044921875</LatitudeDegrees>
              <LongitudeDegrees>2.719334475696086883544921875</LongitudeDegrees>
            </Position>
            <AltitudeMeters>1361.4000244140625</AltitudeMeters>
            <DistanceMeters>NAN</DistanceMeters>
          </Trackpoint>
          <Trackpoint>
            <Time>2021-04-01T12:06:40.000Z</Time>
            <Position>
              <LatitudeDegrees>42.42223192937672138214111328125</LatitudeDegrees>
              <LongitudeDegrees>2.7192856930196285247802734375</LongitudeDegrees>
            </Position>
            <AltitudeMeters>1361.4000244140625</AltitudeMeters>
            <DistanceMeters>NAN</DistanceMeters>
          </Trackpoint>
          <Trackpoint>
            <Time>2021-04-01T12:06:45.000Z</Time>
            <Position>
              <LatitudeDegrees>42.42228247225284576416015625</LatitudeDegrees>
              <LongitudeDegrees>2.7192618884146213531494140625</LongitudeDegrees>
            </Position>
            <AltitudeMeters>1361.4000244140625</AltitudeMeters>
            <DistanceMeters>NAN</DistanceMeters>
          </Trackpoint>
          <Trackpoint>
            <Time>2021-04-01T12:06:50.000Z</Time>
            <Position>
              <LatitudeDegrees>42.42230258882045745849609375</LatitudeDegrees>
              <LongitudeDegrees>2.7192434482276439666748046875</LongitudeDegrees>
            </Position>
            <AltitudeMeters>1361.4000244140625</AltitudeMeters>
            <DistanceMeters>NAN</DistanceMeters>
          </Trackpoint>
          <Trackpoint>
            <Time>2021-04-01T12:06:53.000Z</Time>
            <Position>
              <LatitudeDegrees>42.4222967214882373809814453125</LatitudeDegrees>
              <LongitudeDegrees>2.71922877989709377288818359375</LongitudeDegrees>
            </Position>
            <AltitudeMeters>1361.4000244140625</AltitudeMeters>
            <DistanceMeters>NAN</DistanceMeters>
          </Trackpoint>
          <Trackpoint>
            <Time>2021-04-01T12:06:56.000Z</Time>
            <Position>
              <LatitudeDegrees>42.42227568291127681732177734375</LatitudeDegrees>
              <LongitudeDegrees>2.71920296363532543182373046875</LongitudeDegrees>
            </Position>
            <AltitudeMeters>1361.4000244140625</AltitudeMeters>
            <DistanceMeters>NAN</DistanceMeters>
          </Trackpoint>
          <Trackpoint>
            <Time>2021-04-01T12:07:00.000Z</Time>
            <Position>
              <LatitudeDegrees>42.42226294241845607757568359375</LatitudeDegrees>
              <LongitudeDegrees>2.71917320787906646728515625</LongitudeDegrees>
            </Position>
            <AltitudeMeters>1361.4000244140625</AltitudeMeters>
            <DistanceMeters>NAN</DistanceMeters>
          </Trackpoint>
          <Trackpoint>
            <Time>2021-04-01T12:07:06.000Z</Time>
            <Position>
              <LatitudeDegrees>42.4222501181066036224365234375</LatitudeDegrees>
              <LongitudeDegrees>2.7191416919231414794921875</LongitudeDegrees>
            </Position>
            <AltitudeMeters>1361.4000244140625</AltitudeMeters>
            <DistanceMeters>NAN</DistanceMeters>
          </Trackpoint>
          <Trackpoint>
            <Time>2021-04-01T12:07:09.000Z</Time>
            <Position>
              <LatitudeDegrees>42.4222588352859020233154296875</LatitudeDegrees>
              <LongitudeDegrees>2.7191140316426753997802734375</LongitudeDegrees>
            </Position>
            <AltitudeMeters>1370.199951171875</AltitudeMeters>
            <DistanceMeters>NAN</DistanceMeters>
          </Trackpoint>
          <Trackpoint>
            <Time>2021-04-01T12:07:13.000Z</Time>
            <Position>
              <LatitudeDegrees>42.42227802984416484832763671875</LatitudeDegrees>
              <LongitudeDegrees>2.7190987765789031982421875</LongitudeDegrees>
            </Position>
            <AltitudeMeters>1370.199951171875</AltitudeMeters>
            <DistanceMeters>NAN</DistanceMeters>
          </Trackpoint>
          <Trackpoint>
            <Time>2021-04-01T12:07:14.000Z</Time>
            <Position>
              <LatitudeDegrees>42.42228222079575061798095703125</LatitudeDegrees>
              <LongitudeDegrees>2.719093076884746551513671875</LongitudeDegrees>
            </Position>
            <AltitudeMeters>1370.199951171875</AltitudeMeters>
            <DistanceMeters>NAN</DistanceMeters>
          </Trackpoint>
          <Trackpoint>
            <Time>2021-04-01T12:07:15.000Z</Time>
            <Position>
              <LatitudeDegrees>42.42228372953832149505615234375</LatitudeDegrees>
              <LongitudeDegrees>2.719083018600940704345703125</LongitudeDegrees>
            </Position>
            <AltitudeMeters>1370.4000244140625</AltitudeMeters>
            <DistanceMeters>NAN</DistanceMeters>
          </Trackpoint>
          <Trackpoint>
            <Time>2021-04-01T12:07:20.000Z</Time>
            <Position>
              <LatitudeDegrees>42.4222833104431629180908203125</LatitudeDegrees>
              <LongitudeDegrees>2.71903985179960727691650390625</LongitudeDegrees>
            </Position>
            <AltitudeMeters>1371.199951171875</AltitudeMeters>
            <DistanceMeters>NAN</DistanceMeters>
          </Trackpoint>
          <Trackpoint>
            <Time>2021-04-01T12:07:21.000Z</Time>
            <Position>
              <LatitudeDegrees>42.4222792871296405792236328125</LatitudeDegrees>
              <LongitudeDegrees>2.71902862004935741424560546875</LongitudeDegrees>
            </Position>
            <AltitudeMeters>1371.4000244140625</AltitudeMeters>
            <DistanceMeters>NAN</DistanceMeters>
          </Trackpoint>
          <Trackpoint>
            <Time>2021-04-01T12:07:26.000Z</Time>
            <Position>
              <LatitudeDegrees>42.42229722440242767333984375</LatitudeDegrees>
              <LongitudeDegrees>2.71898704580962657928466796875</LongitudeDegrees>
            </Position>
            <AltitudeMeters>1371.5999755859375</AltitudeMeters>
            <DistanceMeters>NAN</DistanceMeters>
          </Trackpoint>
          <Trackpoint>
            <Time>2021-04-01T12:07:27.000Z</Time>
            <Position>
              <LatitudeDegrees>42.4223000742495059967041015625</LatitudeDegrees>
              <LongitudeDegrees>2.7189802564680576324462890625</LongitudeDegrees>
            </Position>
            <AltitudeMeters>1371.800048828125</AltitudeMeters>
            <DistanceMeters>NAN</DistanceMeters>
          </Trackpoint>
          <Trackpoint>
            <Time>2021-04-01T12:07:31.000Z</Time>
            <Position>
              <LatitudeDegrees>42.42228490300476551055908203125</LatitudeDegrees>
              <LongitudeDegrees>2.71896542049944400787353515625</LongitudeDegrees>
            </Position>
            <AltitudeMeters>1372</AltitudeMeters>
            <DistanceMeters>NAN</DistanceMeters>
          </Trackpoint>
          <Trackpoint>
            <Time>2021-04-01T12:07:32.000Z</Time>
            <Position>
              <LatitudeDegrees>42.42228205315768718719482421875</LatitudeDegrees>
              <LongitudeDegrees>2.7189584635198116302490234375</LongitudeDegrees>
            </Position>
            <AltitudeMeters>1372.199951171875</AltitudeMeters>
            <DistanceMeters>NAN</DistanceMeters>
          </Trackpoint>
          <Trackpoint>
            <Time>2021-04-01T12:07:34.000Z</Time>
            <Position>
              <LatitudeDegrees>42.42228238843381404876708984375</LatitudeDegrees>
              <LongitudeDegrees>2.71895083598792552947998046875</LongitudeDegrees>
            </Position>
            <AltitudeMeters>1372.4000244140625</AltitudeMeters>
            <DistanceMeters>NAN</DistanceMeters>
          </Trackpoint>
          <Trackpoint>
            <Time>2021-04-01T12:07:35.000Z</Time>
            <Position>
              <LatitudeDegrees>42.4222804605960845947265625</LatitudeDegrees>
              <LongitudeDegrees>2.7189507521688938140869140625</LongitudeDegrees>
            </Position>
            <AltitudeMeters>1372.4000244140625</AltitudeMeters>
            <DistanceMeters>NAN</DistanceMeters>
          </Trackpoint>
          <Trackpoint>
            <Time>2021-04-01T12:07:40.000Z</Time>
            <Position>
              <LatitudeDegrees>42.422255985438823699951171875</LatitudeDegrees>
              <LongitudeDegrees>2.7189353294670581817626953125</LongitudeDegrees>
            </Position>
            <AltitudeMeters>1373</AltitudeMeters>
            <DistanceMeters>NAN</DistanceMeters>
          </Trackpoint>
          <Trackpoint>
            <Time>2021-04-01T12:07:43.000Z</Time>
            <Position>
              <LatitudeDegrees>42.42224466986954212188720703125</LatitudeDegrees>
              <LongitudeDegrees>2.71892803721129894256591796875</LongitudeDegrees>
            </Position>
            <AltitudeMeters>1373.5999755859375</AltitudeMeters>
            <DistanceMeters>NAN</DistanceMeters>
          </Trackpoint>
          <Trackpoint>
            <Time>2021-04-01T12:07:46.000Z</Time>
            <Position>
              <LatitudeDegrees>42.42225338704884052276611328125</LatitudeDegrees>
              <LongitudeDegrees>2.71890624426305294036865234375</LongitudeDegrees>
            </Position>
            <AltitudeMeters>1374</AltitudeMeters>
            <DistanceMeters>NAN</DistanceMeters>
          </Trackpoint>
          <Trackpoint>
            <Time>2021-04-01T12:07:51.000Z</Time>
            <Position>
              <LatitudeDegrees>42.422264032065868377685546875</LatitudeDegrees>
              <LongitudeDegrees>2.71888528950512409210205078125</LongitudeDegrees>
            </Position>
            <AltitudeMeters>1374.199951171875</AltitudeMeters>
            <DistanceMeters>NAN</DistanceMeters>
          </Trackpoint>
          <Trackpoint>
            <Time>2021-04-01T12:07:58.000Z</Time>
            <Position>
              <LatitudeDegrees>42.42225967347621917724609375</LatitudeDegrees>
              <LongitudeDegrees>2.718866765499114990234375</LongitudeDegrees>
            </Position>
            <AltitudeMeters>1374.5999755859375</AltitudeMeters>
            <DistanceMeters>NAN</DistanceMeters>
          </Trackpoint>
          <Trackpoint>
            <Time>2021-04-01T12:08:00.000Z</Time>
            <Position>
              <LatitudeDegrees>42.42226746864616870880126953125</LatitudeDegrees>
              <LongitudeDegrees>2.71886684931814670562744140625</LongitudeDegrees>
            </Position>
            <AltitudeMeters>1375</AltitudeMeters>
            <DistanceMeters>NAN</DistanceMeters>
          </Trackpoint>
          <Trackpoint>
            <Time>2021-04-01T12:08:03.000Z</Time>
            <Position>
              <LatitudeDegrees>42.42226629517972469329833984375</LatitudeDegrees>
              <LongitudeDegrees>2.71884304471313953399658203125</LongitudeDegrees>
            </Position>
            <AltitudeMeters>1375.199951171875</AltitudeMeters>
            <DistanceMeters>NAN</DistanceMeters>
          </Trackpoint>
          <Trackpoint>
            <Time>2021-04-01T12:08:06.000Z</Time>
            <Position>
              <LatitudeDegrees>42.4222601763904094696044921875</LatitudeDegrees>
              <LongitudeDegrees>2.718810103833675384521484375</LongitudeDegrees>
            </Position>
            <AltitudeMeters>1375.4000244140625</AltitudeMeters>
            <DistanceMeters>NAN</DistanceMeters>
          </Trackpoint>
          <Trackpoint>
            <Time>2021-04-01T12:08:09.000Z</Time>
            <Position>
              <LatitudeDegrees>42.422249615192413330078125</LatitudeDegrees>
              <LongitudeDegrees>2.71878839470446109771728515625</LongitudeDegrees>
            </Position>
            <AltitudeMeters>1375.5999755859375</AltitudeMeters>
            <DistanceMeters>NAN</DistanceMeters>
          </Trackpoint>
          <Trackpoint>
            <Time>2021-04-01T12:08:13.000Z</Time>
            <Position>
              <LatitudeDegrees>42.4222362041473388671875</LatitudeDegrees>
              <LongitudeDegrees>2.71878269501030445098876953125</LongitudeDegrees>
            </Position>
            <AltitudeMeters>1375.5999755859375</AltitudeMeters>
            <DistanceMeters>NAN</DistanceMeters>
          </Trackpoint>
          <Trackpoint>
            <Time>2021-04-01T12:08:16.000Z</Time>
            <Position>
              <LatitudeDegrees>42.42221231572329998016357421875</LatitudeDegrees>
              <LongitudeDegrees>2.71876894868910312652587890625</LongitudeDegrees>
            </Position>
            <AltitudeMeters>1375.5999755859375</AltitudeMeters>
            <DistanceMeters>NAN</DistanceMeters>
          </Trackpoint>
          <Trackpoint>
            <Time>2021-04-01T12:08:18.000Z</Time>
            <Position>
              <LatitudeDegrees>42.42221080698072910308837890625</LatitudeDegrees>
              <LongitudeDegrees>2.71875704638659954071044921875</LongitudeDegrees>
            </Position>
            <AltitudeMeters>1375.800048828125</AltitudeMeters>
            <DistanceMeters>NAN</DistanceMeters>
          </Trackpoint>
          <Trackpoint>
            <Time>2021-04-01T12:08:20.000Z</Time>
            <Position>
              <LatitudeDegrees>42.42220108397305011749267578125</LatitudeDegrees>
              <LongitudeDegrees>2.71874732337892055511474609375</LongitudeDegrees>
            </Position>
            <AltitudeMeters>1376.199951171875</AltitudeMeters>
            <DistanceMeters>NAN</DistanceMeters>
          </Trackpoint>
          <Trackpoint>
            <Time>2021-04-01T12:08:22.000Z</Time>
            <Position>
              <LatitudeDegrees>42.42218029685318470001220703125</LatitudeDegrees>
              <LongitudeDegrees>2.7187157236039638519287109375</LongitudeDegrees>
            </Position>
            <AltitudeMeters>1376.4000244140625</AltitudeMeters>
            <DistanceMeters>NAN</DistanceMeters>
          </Trackpoint>
          <Trackpoint>
            <Time>2021-04-01T12:08:24.000Z</Time>
            <Position>
              <LatitudeDegrees>42.42217241786420345306396484375</LatitudeDegrees>
              <LongitudeDegrees>2.71869309246540069580078125</LongitudeDegrees>
            </Position>
            <AltitudeMeters>1376.5999755859375</AltitudeMeters>
            <DistanceMeters>NAN</DistanceMeters>
          </Trackpoint>
          <Trackpoint>
            <Time>2021-04-01T12:08:26.000Z</Time>
            <Position>
              <LatitudeDegrees>42.4221699871122837066650390625</LatitudeDegrees>
              <LongitudeDegrees>2.71865746937692165374755859375</LongitudeDegrees>
            </Position>
            <AltitudeMeters>1376.800048828125</AltitudeMeters>
            <DistanceMeters>NAN</DistanceMeters>
          </Trackpoint>
          <Trackpoint>
            <Time>2021-04-01T12:08:29.000Z</Time>
            <Position>
              <LatitudeDegrees>42.4221639521420001983642578125</LatitudeDegrees>
              <LongitudeDegrees>2.71864204667508602142333984375</LongitudeDegrees>
            </Position>
            <AltitudeMeters>1377</AltitudeMeters>
            <DistanceMeters>NAN</DistanceMeters>
          </Trackpoint>
          <Trackpoint>
            <Time>2021-04-01T12:08:34.000Z</Time>
            <Position>
              <LatitudeDegrees>42.42215640842914581298828125</LatitudeDegrees>
              <LongitudeDegrees>2.71862293593585491180419921875</LongitudeDegrees>
            </Position>
            <AltitudeMeters>1377</AltitudeMeters>
            <DistanceMeters>NAN</DistanceMeters>
          </Trackpoint>
          <Trackpoint>
            <Time>2021-04-01T12:08:39.000Z</Time>
            <Position>
              <LatitudeDegrees>42.4221463501453399658203125</LatitudeDegrees>
              <LongitudeDegrees>2.7185933478176593780517578125</LongitudeDegrees>
            </Position>
            <AltitudeMeters>1378</AltitudeMeters>
            <DistanceMeters>NAN</DistanceMeters>
          </Trackpoint>
          <Trackpoint>
            <Time>2021-04-01T12:08:43.000Z</Time>
            <Position>
              <LatitudeDegrees>42.42213788442313671112060546875</LatitudeDegrees>
              <LongitudeDegrees>2.7185685373842716217041015625</LongitudeDegrees>
            </Position>
            <AltitudeMeters>1379</AltitudeMeters>
            <DistanceMeters>NAN</DistanceMeters>
          </Trackpoint>
          <Trackpoint>
            <Time>2021-04-01T12:08:44.000Z</Time>
            <Position>
              <LatitudeDegrees>42.42213629186153411865234375</LatitudeDegrees>
              <LongitudeDegrees>2.71856459788978099822998046875</LongitudeDegrees>
            </Position>
            <AltitudeMeters>1379.199951171875</AltitudeMeters>
            <DistanceMeters>NAN</DistanceMeters>
          </Trackpoint>
          <Trackpoint>
            <Time>2021-04-01T12:08:47.000Z</Time>
            <Position>
              <LatitudeDegrees>42.42214324884116649627685546875</LatitudeDegrees>
              <LongitudeDegrees>2.7185460738837718963623046875</LongitudeDegrees>
            </Position>
            <AltitudeMeters>1379.800048828125</AltitudeMeters>
            <DistanceMeters>NAN</DistanceMeters>
          </Trackpoint>
          <Trackpoint>
            <Time>2021-04-01T12:08:48.000Z</Time>
            <Position>
              <LatitudeDegrees>42.42214291356503963470458984375</LatitudeDegrees>
              <LongitudeDegrees>2.7185420505702495574951171875</LongitudeDegrees>
            </Position>
            <AltitudeMeters>1380</AltitudeMeters>
            <DistanceMeters>NAN</DistanceMeters>
          </Trackpoint>
          <Trackpoint>
            <Time>2021-04-01T12:08:53.000Z</Time>
            <Position>
              <LatitudeDegrees>42.42214039899408817291259765625</LatitudeDegrees>
              <LongitudeDegrees>2.71850659511983394622802734375</LongitudeDegrees>
            </Position>
            <AltitudeMeters>1380.199951171875</AltitudeMeters>
            <DistanceMeters>NAN</DistanceMeters>
          </Trackpoint>
          <Trackpoint>
            <Time>2021-04-01T12:08:55.000Z</Time>
            <Position>
              <LatitudeDegrees>42.422134615480899810791015625</LatitudeDegrees>
              <LongitudeDegrees>2.71849469281733036041259765625</LongitudeDegrees>
            </Position>
            <AltitudeMeters>1380.199951171875</AltitudeMeters>
            <DistanceMeters>NAN</DistanceMeters>
          </Trackpoint>
          <Trackpoint>
            <Time>2021-04-01T12:08:59.000Z</Time>
            <Position>
              <LatitudeDegrees>42.422123216092586517333984375</LatitudeDegrees>
              <LongitudeDegrees>2.71847809664905071258544921875</LongitudeDegrees>
            </Position>
            <AltitudeMeters>1380.199951171875</AltitudeMeters>
            <DistanceMeters>NAN</DistanceMeters>
          </Trackpoint>
          <Trackpoint>
            <Time>2021-04-01T12:09:06.000Z</Time>
            <Position>
              <LatitudeDegrees>42.42212824523448944091796875</LatitudeDegrees>
              <LongitudeDegrees>2.7184253744781017303466796875</LongitudeDegrees>
            </Position>
            <AltitudeMeters>1379.4000244140625</AltitudeMeters>
            <DistanceMeters>NAN</DistanceMeters>
          </Trackpoint>
          <Trackpoint>
            <Time>2021-04-01T12:09:07.000Z</Time>
            <Position>
              <LatitudeDegrees>42.42213034071028232574462890625</LatitudeDegrees>
              <LongitudeDegrees>2.71841791458427906036376953125</LongitudeDegrees>
            </Position>
            <AltitudeMeters>1379.199951171875</AltitudeMeters>
            <DistanceMeters>NAN</DistanceMeters>
          </Trackpoint>
          <Trackpoint>
            <Time>2021-04-01T12:09:09.000Z</Time>
            <Position>
              <LatitudeDegrees>42.42213017307221889495849609375</LatitudeDegrees>
              <LongitudeDegrees>2.7184156514704227447509765625</LongitudeDegrees>
            </Position>
            <AltitudeMeters>1379</AltitudeMeters>
            <DistanceMeters>NAN</DistanceMeters>
          </Trackpoint>
          <Trackpoint>
            <Time>2021-04-01T12:09:14.000Z</Time>
            <Position>
              <LatitudeDegrees>42.42213050834834575653076171875</LatitudeDegrees>
              <LongitudeDegrees>2.71839000284671783447265625</LongitudeDegrees>
            </Position>
            <AltitudeMeters>1378.4000244140625</AltitudeMeters>
            <DistanceMeters>NAN</DistanceMeters>
          </Trackpoint>
          <Trackpoint>
            <Time>2021-04-01T12:09:15.000Z</Time>
            <Position>
              <LatitudeDegrees>42.42213134653866291046142578125</LatitudeDegrees>
              <LongitudeDegrees>2.71838505752384662628173828125</LongitudeDegrees>
            </Position>
            <AltitudeMeters>1378.199951171875</AltitudeMeters>
            <DistanceMeters>NAN</DistanceMeters>
          </Trackpoint>
          <Trackpoint>
            <Time>2021-04-01T12:09:18.000Z</Time>
            <Position>
              <LatitudeDegrees>42.422144673764705657958984375</LatitudeDegrees>
              <LongitudeDegrees>2.718362174928188323974609375</LongitudeDegrees>
            </Position>
            <AltitudeMeters>1378</AltitudeMeters>
            <DistanceMeters>NAN</DistanceMeters>
          </Trackpoint>
          <Trackpoint>
            <Time>2021-04-01T12:09:19.000Z</Time>
            <Position>
              <LatitudeDegrees>42.4221528880298137664794921875</LatitudeDegrees>
              <LongitudeDegrees>2.71835186518728733062744140625</LongitudeDegrees>
            </Position>
            <AltitudeMeters>1377.800048828125</AltitudeMeters>
            <DistanceMeters>NAN</DistanceMeters>
          </Trackpoint>
          <Trackpoint>
            <Time>2021-04-01T12:09:21.000Z</Time>
            <Position>
              <LatitudeDegrees>42.42216101847589015960693359375</LatitudeDegrees>
              <LongitudeDegrees>2.71832856349647045135498046875</LongitudeDegrees>
            </Position>
            <AltitudeMeters>1377.5999755859375</AltitudeMeters>
            <DistanceMeters>NAN</DistanceMeters>
          </Trackpoint>
          <Trackpoint>
            <Time>2021-04-01T12:09:23.000Z</Time>
            <Position>
              <LatitudeDegrees>42.4221605993807315826416015625</LatitudeDegrees>
              <LongitudeDegrees>2.718316577374935150146484375</LongitudeDegrees>
            </Position>
            <AltitudeMeters>1377</AltitudeMeters>
            <DistanceMeters>NAN</DistanceMeters>
          </Trackpoint>
          <Trackpoint>
            <Time>2021-04-01T12:09:24.000Z</Time>
            <Position>
              <LatitudeDegrees>42.42216177284717559814453125</LatitudeDegrees>
              <LongitudeDegrees>2.71830878220498561859130859375</LongitudeDegrees>
            </Position>
            <AltitudeMeters>1376.800048828125</AltitudeMeters>
            <DistanceMeters>NAN</DistanceMeters>
          </Trackpoint>
          <Trackpoint>
            <Time>2021-04-01T12:09:29.000Z</Time>
            <Position>
              <LatitudeDegrees>42.42214291356503963470458984375</LatitudeDegrees>
              <LongitudeDegrees>2.7182914316654205322265625</LongitudeDegrees>
            </Position>
            <AltitudeMeters>1376.199951171875</AltitudeMeters>
            <DistanceMeters>NAN</DistanceMeters>
          </Trackpoint>
          <Trackpoint>
            <Time>2021-04-01T12:09:31.000Z</Time>
            <Position>
              <LatitudeDegrees>42.42213654331862926483154296875</LatitudeDegrees>
              <LongitudeDegrees>2.71827927790582180023193359375</LongitudeDegrees>
            </Position>
            <AltitudeMeters>1375.5999755859375</AltitudeMeters>
            <DistanceMeters>NAN</DistanceMeters>
          </Trackpoint>
          <Trackpoint>
            <Time>2021-04-01T12:09:32.000Z</Time>
            <Position>
              <LatitudeDegrees>42.4221367947757244110107421875</LatitudeDegrees>
              <LongitudeDegrees>2.71827307529747486114501953125</LongitudeDegrees>
            </Position>
            <AltitudeMeters>1375.5999755859375</AltitudeMeters>
            <DistanceMeters>NAN</DistanceMeters>
          </Trackpoint>
          <Trackpoint>
            <Time>2021-04-01T12:09:39.000Z</Time>
            <Position>
              <LatitudeDegrees>42.42211324162781238555908203125</LatitudeDegrees>
              <LongitudeDegrees>2.7182453311979770660400390625</LongitudeDegrees>
            </Position>
            <AltitudeMeters>1374.800048828125</AltitudeMeters>
            <DistanceMeters>NAN</DistanceMeters>
          </Trackpoint>
          <Trackpoint>
            <Time>2021-04-01T12:09:40.000Z</Time>
            <Position>
              <LatitudeDegrees>42.42210678756237030029296875</LatitudeDegrees>
              <LongitudeDegrees>2.71824072115123271942138671875</LongitudeDegrees>
            </Position>
            <AltitudeMeters>1374.5999755859375</AltitudeMeters>
            <DistanceMeters>NAN</DistanceMeters>
          </Trackpoint>
          <Trackpoint>
            <Time>2021-04-01T12:09:45.000Z</Time>
            <Position>
              <LatitudeDegrees>42.42209681309759616851806640625</LatitudeDegrees>
              <LongitudeDegrees>2.7181841433048248291015625</LongitudeDegrees>
            </Position>
            <AltitudeMeters>1374</AltitudeMeters>
            <DistanceMeters>NAN</DistanceMeters>
          </Trackpoint>
          <Trackpoint>
            <Time>2021-04-01T12:09:46.000Z</Time>
            <Position>
              <LatitudeDegrees>42.42209480144083499908447265625</LatitudeDegrees>
              <LongitudeDegrees>2.71817601285874843597412109375</LongitudeDegrees>
            </Position>
            <AltitudeMeters>1374</AltitudeMeters>
            <DistanceMeters>NAN</DistanceMeters>
          </Trackpoint>
          <Trackpoint>
            <Time>2021-04-01T12:09:47.000Z</Time>
            <Position>
              <LatitudeDegrees>42.4220911972224712371826171875</LatitudeDegrees>
              <LongitudeDegrees>2.718170396983623504638671875</LongitudeDegrees>
            </Position>
            <AltitudeMeters>1374</AltitudeMeters>
            <DistanceMeters>NAN</DistanceMeters>
          </Trackpoint>
          <Trackpoint>
            <Time>2021-04-01T12:09:49.000Z</Time>
            <Position>
              <LatitudeDegrees>42.42208273150026798248291015625</LatitudeDegrees>
              <LongitudeDegrees>2.71816075779497623443603515625</LongitudeDegrees>
            </Position>
            <AltitudeMeters>1373.800048828125</AltitudeMeters>
            <DistanceMeters>NAN</DistanceMeters>
          </Trackpoint>
          <Trackpoint>
            <Time>2021-04-01T12:09:51.000Z</Time>
            <Position>
              <LatitudeDegrees>42.42207384668290615081787109375</LatitudeDegrees>
              <LongitudeDegrees>2.71814784966409206390380859375</LongitudeDegrees>
            </Position>
            <AltitudeMeters>1373.5999755859375</AltitudeMeters>
            <DistanceMeters>NAN</DistanceMeters>
          </Trackpoint>
          <Trackpoint>
            <Time>2021-04-01T12:09:52.000Z</Time>
            <Position>
              <LatitudeDegrees>42.4220710806548595428466796875</LatitudeDegrees>
              <LongitudeDegrees>2.718139551579952239990234375</LongitudeDegrees>
            </Position>
            <AltitudeMeters>1373.4000244140625</AltitudeMeters>
            <DistanceMeters>NAN</DistanceMeters>
          </Trackpoint>
          <Trackpoint>
            <Time>2021-04-01T12:09:55.000Z</Time>
            <Position>
              <LatitudeDegrees>42.42205238901078701019287109375</LatitudeDegrees>
              <LongitudeDegrees>2.7181065268814563751220703125</LongitudeDegrees>
            </Position>
            <AltitudeMeters>1373</AltitudeMeters>
            <DistanceMeters>NAN</DistanceMeters>
          </Trackpoint>
          <Trackpoint>
            <Time>2021-04-01T12:09:57.000Z</Time>
            <Position>
              <LatitudeDegrees>42.4220412410795688629150390625</LatitudeDegrees>
              <LongitudeDegrees>2.7181155793368816375732421875</LongitudeDegrees>
            </Position>
            <AltitudeMeters>1373</AltitudeMeters>
            <DistanceMeters>NAN</DistanceMeters>
          </Trackpoint>
          <Trackpoint>
            <Time>2021-04-01T12:09:58.000Z</Time>
            <Position>
              <LatitudeDegrees>42.4220355413854122161865234375</LatitudeDegrees>
              <LongitudeDegrees>2.7181125618517398834228515625</LongitudeDegrees>
            </Position>
            <AltitudeMeters>1373</AltitudeMeters>
            <DistanceMeters>NAN</DistanceMeters>
          </Trackpoint>
          <Trackpoint>
            <Time>2021-04-01T12:10:04.000Z</Time>
            <Position>
              <LatitudeDegrees>42.42200310342013835906982421875</LatitudeDegrees>
              <LongitudeDegrees>2.71803318522870540618896484375</LongitudeDegrees>
            </Position>
            <AltitudeMeters>1372.5999755859375</AltitudeMeters>
            <DistanceMeters>NAN</DistanceMeters>
          </Trackpoint>
          <Trackpoint>
            <Time>2021-04-01T12:10:09.000Z</Time>
            <Position>
              <LatitudeDegrees>42.4219768680632114410400390625</LatitudeDegrees>
              <LongitudeDegrees>2.71799395792186260223388671875</LongitudeDegrees>
            </Position>
            <AltitudeMeters>1373</AltitudeMeters>
            <DistanceMeters>NAN</DistanceMeters>
          </Trackpoint>
          <Trackpoint>
            <Time>2021-04-01T12:10:11.000Z</Time>
            <Position>
              <LatitudeDegrees>42.42197862826287746429443359375</LatitudeDegrees>
              <LongitudeDegrees>2.71797920577228069305419921875</LongitudeDegrees>
            </Position>
            <AltitudeMeters>1373.4000244140625</AltitudeMeters>
            <DistanceMeters>NAN</DistanceMeters>
          </Trackpoint>
          <Trackpoint>
            <Time>2021-04-01T12:10:13.000Z</Time>
            <Position>
              <LatitudeDegrees>42.4219748564064502716064453125</LatitudeDegrees>
              <LongitudeDegrees>2.717959173023700714111328125</LongitudeDegrees>
            </Position>
            <AltitudeMeters>1373.5999755859375</AltitudeMeters>
            <DistanceMeters>NAN</DistanceMeters>
          </Trackpoint>
          <Trackpoint>
            <Time>2021-04-01T12:10:20.000Z</Time>
            <Position>
              <LatitudeDegrees>42.42194811813533306121826171875</LatitudeDegrees>
              <LongitudeDegrees>2.7179398946464061737060546875</LongitudeDegrees>
            </Position>
            <AltitudeMeters>1374</AltitudeMeters>
            <DistanceMeters>NAN</DistanceMeters>
          </Trackpoint>
          <Trackpoint>
            <Time>2021-04-01T12:10:21.000Z</Time>
            <Position>
              <LatitudeDegrees>42.42194007150828838348388671875</LatitudeDegrees>
              <LongitudeDegrees>2.71793796680867671966552734375</LongitudeDegrees>
            </Position>
            <AltitudeMeters>1374</AltitudeMeters>
            <DistanceMeters>NAN</DistanceMeters>
          </Trackpoint>
          <Trackpoint>
            <Time>2021-04-01T12:10:22.000Z</Time>
            <Position>
              <LatitudeDegrees>42.4219373054802417755126953125</LatitudeDegrees>
              <LongitudeDegrees>2.71793444640934467315673828125</LongitudeDegrees>
            </Position>
            <AltitudeMeters>1374</AltitudeMeters>
            <DistanceMeters>NAN</DistanceMeters>
          </Trackpoint>
          <Trackpoint>
            <Time>2021-04-01T12:10:25.000Z</Time>
            <Position>
              <LatitudeDegrees>42.421933114528656005859375</LatitudeDegrees>
              <LongitudeDegrees>2.71792086772620677947998046875</LongitudeDegrees>
            </Position>
            <AltitudeMeters>1374.5999755859375</AltitudeMeters>
            <DistanceMeters>NAN</DistanceMeters>
          </Trackpoint>
          <Trackpoint>
            <Time>2021-04-01T12:10:27.000Z</Time>
            <Position>
              <LatitudeDegrees>42.42192707955837249755859375</LatitudeDegrees>
              <LongitudeDegrees>2.717910222709178924560546875</LongitudeDegrees>
            </Position>
            <AltitudeMeters>1374.800048828125</AltitudeMeters>
            <DistanceMeters>NAN</DistanceMeters>
          </Trackpoint>
          <Trackpoint>
            <Time>2021-04-01T12:10:29.000Z</Time>
            <Position>
              <LatitudeDegrees>42.4219222180545330047607421875</LatitudeDegrees>
              <LongitudeDegrees>2.7178946323692798614501953125</LongitudeDegrees>
            </Position>
            <AltitudeMeters>1375.199951171875</AltitudeMeters>
            <DistanceMeters>NAN</DistanceMeters>
          </Trackpoint>
          <Trackpoint>
            <Time>2021-04-01T12:10:32.000Z</Time>
            <Position>
              <LatitudeDegrees>42.4219183623790740966796875</LatitudeDegrees>
              <LongitudeDegrees>2.7178835682570934295654296875</LongitudeDegrees>
            </Position>
            <AltitudeMeters>1375.5999755859375</AltitudeMeters>
            <DistanceMeters>NAN</DistanceMeters>
          </Trackpoint>
          <Trackpoint>
            <Time>2021-04-01T12:10:35.000Z</Time>
            <Position>
              <LatitudeDegrees>42.42191232740879058837890625</LatitudeDegrees>
              <LongitudeDegrees>2.71786294877529144287109375</LongitudeDegrees>
            </Position>
            <AltitudeMeters>1376</AltitudeMeters>
            <DistanceMeters>NAN</DistanceMeters>
          </Trackpoint>
          <Trackpoint>
            <Time>2021-04-01T12:10:37.000Z</Time>
            <Position>
              <LatitudeDegrees>42.4219024367630481719970703125</LatitudeDegrees>
              <LongitudeDegrees>2.71785045973956584930419921875</LongitudeDegrees>
            </Position>
            <AltitudeMeters>1376.4000244140625</AltitudeMeters>
            <DistanceMeters>NAN</DistanceMeters>
          </Trackpoint>
          <Trackpoint>
            <Time>2021-04-01T12:10:39.000Z</Time>
            <Position>
              <LatitudeDegrees>42.42190185002982616424560546875</LatitudeDegrees>
              <LongitudeDegrees>2.71783746778964996337890625</LongitudeDegrees>
            </Position>
            <AltitudeMeters>1376.4000244140625</AltitudeMeters>
            <DistanceMeters>NAN</DistanceMeters>
          </Trackpoint>
          <Trackpoint>
            <Time>2021-04-01T12:10:41.000Z</Time>
            <Position>
              <LatitudeDegrees>42.42189480923116207122802734375</LatitudeDegrees>
              <LongitudeDegrees>2.71782648749649524688720703125</LongitudeDegrees>
            </Position>
            <AltitudeMeters>1376.800048828125</AltitudeMeters>
            <DistanceMeters>NAN</DistanceMeters>
          </Trackpoint>
          <Trackpoint>
            <Time>2021-04-01T12:10:42.000Z</Time>
            <Position>
              <LatitudeDegrees>42.42189028300344944000244140625</LatitudeDegrees>
              <LongitudeDegrees>2.71782212890684604644775390625</LongitudeDegrees>
            </Position>
            <AltitudeMeters>1376.800048828125</AltitudeMeters>
            <DistanceMeters>NAN</DistanceMeters>
          </Trackpoint>
          <Trackpoint>
            <Time>2021-04-01T12:10:43.000Z</Time>
            <Position>
              <LatitudeDegrees>42.42188743315637111663818359375</LatitudeDegrees>
              <LongitudeDegrees>2.7178171835839748382568359375</LongitudeDegrees>
            </Position>
            <AltitudeMeters>1376.800048828125</AltitudeMeters>
            <DistanceMeters>NAN</DistanceMeters>
          </Trackpoint>
          <Trackpoint>
            <Time>2021-04-01T12:10:47.000Z</Time>
            <Position>
              <LatitudeDegrees>42.42187335155904293060302734375</LatitudeDegrees>
              <LongitudeDegrees>2.71779765374958515167236328125</LongitudeDegrees>
            </Position>
            <AltitudeMeters>1377.4000244140625</AltitudeMeters>
            <DistanceMeters>NAN</DistanceMeters>
          </Trackpoint>
          <Trackpoint>
            <Time>2021-04-01T12:10:48.000Z</Time>
            <Position>
              <LatitudeDegrees>42.4218679033219814300537109375</LatitudeDegrees>
              <LongitudeDegrees>2.71779178641736507415771484375</LongitudeDegrees>
            </Position>
            <AltitudeMeters>1377.4000244140625</AltitudeMeters>
            <DistanceMeters>NAN</DistanceMeters>
          </Trackpoint>
          <Trackpoint>
            <Time>2021-04-01T12:10:50.000Z</Time>
            <Position>
              <LatitudeDegrees>42.4218620359897613525390625</LatitudeDegrees>
              <LongitudeDegrees>2.71777586080133914947509765625</LongitudeDegrees>
            </Position>
            <AltitudeMeters>1377.5999755859375</AltitudeMeters>
            <DistanceMeters>NAN</DistanceMeters>
          </Trackpoint>
          <Trackpoint>
            <Time>2021-04-01T12:10:51.000Z</Time>
            <Position>
              <LatitudeDegrees>42.421858347952365875244140625</LatitudeDegrees>
              <LongitudeDegrees>2.71776529960334300994873046875</LongitudeDegrees>
            </Position>
            <AltitudeMeters>1377.800048828125</AltitudeMeters>
            <DistanceMeters>NAN</DistanceMeters>
          </Trackpoint>
          <Trackpoint>
            <Time>2021-04-01T12:10:52.000Z</Time>
            <Position>
              <LatitudeDegrees>42.4218524806201457977294921875</LatitudeDegrees>
              <LongitudeDegrees>2.71775901317596435546875</LongitudeDegrees>
            </Position>
            <AltitudeMeters>1378</AltitudeMeters>
            <DistanceMeters>NAN</DistanceMeters>
          </Trackpoint>
          <Trackpoint>
            <Time>2021-04-01T12:10:55.000Z</Time>
            <Position>
              <LatitudeDegrees>42.42184351198375225067138671875</LatitudeDegrees>
              <LongitudeDegrees>2.71775004453957080841064453125</LongitudeDegrees>
            </Position>
            <AltitudeMeters>1378</AltitudeMeters>
            <DistanceMeters>NAN</DistanceMeters>
          </Trackpoint>
          <Trackpoint>
            <Time>2021-04-01T12:10:57.000Z</Time>
            <Position>
              <LatitudeDegrees>42.42184066213667392730712890625</LatitudeDegrees>
              <LongitudeDegrees>2.71773411892354488372802734375</LongitudeDegrees>
            </Position>
            <AltitudeMeters>1378.199951171875</AltitudeMeters>
            <DistanceMeters>NAN</DistanceMeters>
          </Trackpoint>
          <Trackpoint>
            <Time>2021-04-01T12:11:06.000Z</Time>
            <Position>
              <LatitudeDegrees>42.4218212999403476715087890625</LatitudeDegrees>
              <LongitudeDegrees>2.7176986634731292724609375</LongitudeDegrees>
            </Position>
            <AltitudeMeters>1378.5999755859375</AltitudeMeters>
            <DistanceMeters>NAN</DistanceMeters>
          </Trackpoint>
          <Trackpoint>
            <Time>2021-04-01T12:11:14.000Z</Time>
            <Position>
              <LatitudeDegrees>42.4218192882835865020751953125</LatitudeDegrees>
              <LongitudeDegrees>2.71765633486211299896240234375</LongitudeDegrees>
            </Position>
            <AltitudeMeters>1378.5999755859375</AltitudeMeters>
            <DistanceMeters>NAN</DistanceMeters>
          </Trackpoint>
          <Trackpoint>
            <Time>2021-04-01T12:11:24.000Z</Time>
            <Position>
              <LatitudeDegrees>42.4218343757092952728271484375</LatitudeDegrees>
              <LongitudeDegrees>2.71759162656962871551513671875</LongitudeDegrees>
            </Position>
            <AltitudeMeters>1378.5999755859375</AltitudeMeters>
            <DistanceMeters>NAN</DistanceMeters>
          </Trackpoint>
          <Trackpoint>
            <Time>2021-04-01T12:11:33.000Z</Time>
            <Position>
              <LatitudeDegrees>42.42185692302882671356201171875</LatitudeDegrees>
              <LongitudeDegrees>2.7175087295472621917724609375</LongitudeDegrees>
            </Position>
            <AltitudeMeters>1378.5999755859375</AltitudeMeters>
            <DistanceMeters>NAN</DistanceMeters>
          </Trackpoint>
          <Trackpoint>
            <Time>2021-04-01T12:11:40.000Z</Time>
            <Position>
              <LatitudeDegrees>42.42188542149960994720458984375</LatitudeDegrees>
              <LongitudeDegrees>2.7174815721809864044189453125</LongitudeDegrees>
            </Position>
            <AltitudeMeters>1378.5999755859375</AltitudeMeters>
            <DistanceMeters>NAN</DistanceMeters>
          </Trackpoint>
          <Trackpoint>
            <Time>2021-04-01T12:11:42.000Z</Time>
            <Position>
              <LatitudeDegrees>42.421884499490261077880859375</LatitudeDegrees>
              <LongitudeDegrees>2.717466987669467926025390625</LongitudeDegrees>
            </Position>
            <AltitudeMeters>1378.5999755859375</AltitudeMeters>
            <DistanceMeters>NAN</DistanceMeters>
          </Trackpoint>
          <Trackpoint>
            <Time>2021-04-01T12:11:44.000Z</Time>
            <Position>
              <LatitudeDegrees>42.42188206873834133148193359375</LatitudeDegrees>
              <LongitudeDegrees>2.71745751611888408660888671875</LongitudeDegrees>
            </Position>
            <AltitudeMeters>1378.5999755859375</AltitudeMeters>
            <DistanceMeters>NAN</DistanceMeters>
          </Trackpoint>
          <Trackpoint>
            <Time>2021-04-01T12:11:47.000Z</Time>
            <Position>
              <LatitudeDegrees>42.4218674004077911376953125</LatitudeDegrees>
              <LongitudeDegrees>2.717455923557281494140625</LongitudeDegrees>
            </Position>
            <AltitudeMeters>1378.5999755859375</AltitudeMeters>
            <DistanceMeters>NAN</DistanceMeters>
          </Trackpoint>
          <Trackpoint>
            <Time>2021-04-01T12:11:51.000Z</Time>
            <Position>
              <LatitudeDegrees>42.42186463437974452972412109375</LatitudeDegrees>
              <LongitudeDegrees>2.71745332516729831695556640625</LongitudeDegrees>
            </Position>
            <AltitudeMeters>1378.5999755859375</AltitudeMeters>
            <DistanceMeters>NAN</DistanceMeters>
          </Trackpoint>
          <Trackpoint>
            <Time>2021-04-01T12:11:59.000Z</Time>
            <Position>
              <LatitudeDegrees>42.42186463437974452972412109375</LatitudeDegrees>
              <LongitudeDegrees>2.71745332516729831695556640625</LongitudeDegrees>
            </Position>
            <AltitudeMeters>1378.5999755859375</AltitudeMeters>
            <DistanceMeters>NAN</DistanceMeters>
          </Trackpoint>
          <Trackpoint>
            <Time>2021-04-01T12:12:06.000Z</Time>
            <Position>
              <LatitudeDegrees>42.4218648858368396759033203125</LatitudeDegrees>
              <LongitudeDegrees>2.71744963712990283966064453125</LongitudeDegrees>
            </Position>
            <AltitudeMeters>1387</AltitudeMeters>
            <DistanceMeters>NAN</DistanceMeters>
          </Trackpoint>
          <Trackpoint>
            <Time>2021-04-01T12:12:29.000Z</Time>
            <Position>
              <LatitudeDegrees>42.42184049449861049652099609375</LatitudeDegrees>
              <LongitudeDegrees>2.71733187139034271240234375</LongitudeDegrees>
            </Position>
            <AltitudeMeters>1385.800048828125</AltitudeMeters>
            <DistanceMeters>NAN</DistanceMeters>
          </Trackpoint>
          <Trackpoint>
            <Time>2021-04-01T12:12:33.000Z</Time>
            <Position>
              <LatitudeDegrees>42.42184166796505451202392578125</LatitudeDegrees>
              <LongitudeDegrees>2.7172472141683101654052734375</LongitudeDegrees>
            </Position>
            <AltitudeMeters>1385</AltitudeMeters>
            <DistanceMeters>NAN</DistanceMeters>
          </Trackpoint>
          <Trackpoint>
            <Time>2021-04-01T12:12:38.000Z</Time>
            <Position>
              <LatitudeDegrees>42.421832196414470672607421875</LatitudeDegrees>
              <LongitudeDegrees>2.7171332202851772308349609375</LongitudeDegrees>
            </Position>
            <AltitudeMeters>1385</AltitudeMeters>
            <DistanceMeters>NAN</DistanceMeters>
          </Trackpoint>
          <Trackpoint>
            <Time>2021-04-01T12:12:41.000Z</Time>
            <Position>
              <LatitudeDegrees>42.421826831996440887451171875</LatitudeDegrees>
              <LongitudeDegrees>2.717083431780338287353515625</LongitudeDegrees>
            </Position>
            <AltitudeMeters>1385</AltitudeMeters>
            <DistanceMeters>NAN</DistanceMeters>
          </Trackpoint>
          <Trackpoint>
            <Time>2021-04-01T12:12:43.000Z</Time>
            <Position>
              <LatitudeDegrees>42.421818114817142486572265625</LatitudeDegrees>
              <LongitudeDegrees>2.71706725470721721649169921875</LongitudeDegrees>
            </Position>
            <AltitudeMeters>1385.199951171875</AltitudeMeters>
            <DistanceMeters>NAN</DistanceMeters>
          </Trackpoint>
          <Trackpoint>
            <Time>2021-04-01T12:12:47.000Z</Time>
            <Position>
              <LatitudeDegrees>42.42180503904819488525390625</LatitudeDegrees>
              <LongitudeDegrees>2.71700455807149410247802734375</LongitudeDegrees>
            </Position>
            <AltitudeMeters>1385.4000244140625</AltitudeMeters>
            <DistanceMeters>NAN</DistanceMeters>
          </Trackpoint>
          <Trackpoint>
            <Time>2021-04-01T12:12:49.000Z</Time>
            <Position>
              <LatitudeDegrees>42.42180378176271915435791015625</LatitudeDegrees>
              <LongitudeDegrees>2.7169830165803432464599609375</LongitudeDegrees>
            </Position>
            <AltitudeMeters>1385.5999755859375</AltitudeMeters>
            <DistanceMeters>NAN</DistanceMeters>
          </Trackpoint>
          <Trackpoint>
            <Time>2021-04-01T12:12:50.000Z</Time>
            <Position>
              <LatitudeDegrees>42.42180461995303630828857421875</LatitudeDegrees>
              <LongitudeDegrees>2.71697052754461765289306640625</LongitudeDegrees>
            </Position>
            <AltitudeMeters>1385.5999755859375</AltitudeMeters>
            <DistanceMeters>NAN</DistanceMeters>
          </Trackpoint>
          <Trackpoint>
            <Time>2021-04-01T12:12:52.000Z</Time>
            <Position>
              <LatitudeDegrees>42.42180093191564083099365234375</LatitudeDegrees>
              <LongitudeDegrees>2.71695259027183055877685546875</LongitudeDegrees>
            </Position>
            <AltitudeMeters>1385.800048828125</AltitudeMeters>
            <DistanceMeters>NAN</DistanceMeters>
          </Trackpoint>
          <Trackpoint>
            <Time>2021-04-01T12:12:54.000Z</Time>
            <Position>
              <LatitudeDegrees>42.42179104126989841461181640625</LatitudeDegrees>
              <LongitudeDegrees>2.71693490445613861083984375</LongitudeDegrees>
            </Position>
            <AltitudeMeters>1385.800048828125</AltitudeMeters>
            <DistanceMeters>NAN</DistanceMeters>
          </Trackpoint>
          <Trackpoint>
            <Time>2021-04-01T12:12:57.000Z</Time>
            <Position>
              <LatitudeDegrees>42.42177679203450679779052734375</LatitudeDegrees>
              <LongitudeDegrees>2.71690464578568935394287109375</LongitudeDegrees>
            </Position>
            <AltitudeMeters>1385.4000244140625</AltitudeMeters>
            <DistanceMeters>NAN</DistanceMeters>
          </Trackpoint>
          <Trackpoint>
            <Time>2021-04-01T12:12:58.000Z</Time>
            <Position>
              <LatitudeDegrees>42.42177310399711132049560546875</LatitudeDegrees>
              <LongitudeDegrees>2.71689794026315212249755859375</LongitudeDegrees>
            </Position>
            <AltitudeMeters>1385.4000244140625</AltitudeMeters>
            <DistanceMeters>NAN</DistanceMeters>
          </Trackpoint>
          <Trackpoint>
            <Time>2021-04-01T12:12:59.000Z</Time>
            <Position>
              <LatitudeDegrees>42.421772181987762451171875</LatitudeDegrees>
              <LongitudeDegrees>2.71688838489353656768798828125</LongitudeDegrees>
            </Position>
            <AltitudeMeters>1385.4000244140625</AltitudeMeters>
            <DistanceMeters>NAN</DistanceMeters>
          </Trackpoint>
          <Trackpoint>
            <Time>2021-04-01T12:13:05.000Z</Time>
            <Position>
              <LatitudeDegrees>42.421755082905292510986328125</LatitudeDegrees>
              <LongitudeDegrees>2.7168069966137409210205078125</LongitudeDegrees>
            </Position>
            <AltitudeMeters>1384.5999755859375</AltitudeMeters>
            <DistanceMeters>NAN</DistanceMeters>
          </Trackpoint>
          <Trackpoint>
            <Time>2021-04-01T12:13:06.000Z</Time>
            <Position>
              <LatitudeDegrees>42.42174695245921611785888671875</LatitudeDegrees>
              <LongitudeDegrees>2.716800458729267120361328125</LongitudeDegrees>
            </Position>
            <AltitudeMeters>1384.4000244140625</AltitudeMeters>
            <DistanceMeters>NAN</DistanceMeters>
          </Trackpoint>
          <Trackpoint>
            <Time>2021-04-01T12:13:08.000Z</Time>
            <Position>
              <LatitudeDegrees>42.42174125276505947113037109375</LatitudeDegrees>
              <LongitudeDegrees>2.71678025834262371063232421875</LongitudeDegrees>
            </Position>
            <AltitudeMeters>1384</AltitudeMeters>
            <DistanceMeters>NAN</DistanceMeters>
          </Trackpoint>
          <Trackpoint>
            <Time>2021-04-01T12:13:12.000Z</Time>
            <Position>
              <LatitudeDegrees>42.42173907347023487091064453125</LatitudeDegrees>
              <LongitudeDegrees>2.71671705879271030426025390625</LongitudeDegrees>
            </Position>
            <AltitudeMeters>1383.5999755859375</AltitudeMeters>
            <DistanceMeters>NAN</DistanceMeters>
          </Trackpoint>
          <Trackpoint>
            <Time>2021-04-01T12:13:14.000Z</Time>
            <Position>
              <LatitudeDegrees>42.42173387669026851654052734375</LatitudeDegrees>
              <LongitudeDegrees>2.7166973613202571868896484375</LongitudeDegrees>
            </Position>
            <AltitudeMeters>1383.4000244140625</AltitudeMeters>
            <DistanceMeters>NAN</DistanceMeters>
          </Trackpoint>
          <Trackpoint>
            <Time>2021-04-01T12:13:18.000Z</Time>
            <Position>
              <LatitudeDegrees>42.4217270873486995697021484375</LatitudeDegrees>
              <LongitudeDegrees>2.7166618220508098602294921875</LongitudeDegrees>
            </Position>
            <AltitudeMeters>1382.5999755859375</AltitudeMeters>
            <DistanceMeters>NAN</DistanceMeters>
          </Trackpoint>
          <Trackpoint>
            <Time>2021-04-01T12:13:19.000Z</Time>
            <Position>
              <LatitudeDegrees>42.42172365076839923858642578125</LatitudeDegrees>
              <LongitudeDegrees>2.7166544459760189056396484375</LongitudeDegrees>
            </Position>
            <AltitudeMeters>1382.4000244140625</AltitudeMeters>
            <DistanceMeters>NAN</DistanceMeters>
          </Trackpoint>
          <Trackpoint>
            <Time>2021-04-01T12:13:20.000Z</Time>
            <Position>
              <LatitudeDegrees>42.42171996273100376129150390625</LatitudeDegrees>
              <LongitudeDegrees>2.71664061583578586578369140625</LongitudeDegrees>
            </Position>
            <AltitudeMeters>1382.4000244140625</AltitudeMeters>
            <DistanceMeters>NAN</DistanceMeters>
          </Trackpoint>
          <Trackpoint>
            <Time>2021-04-01T12:13:22.000Z</Time>
            <Position>
              <LatitudeDegrees>42.42172348313033580780029296875</LatitudeDegrees>
              <LongitudeDegrees>2.71659870631992816925048828125</LongitudeDegrees>
            </Position>
            <AltitudeMeters>1381.800048828125</AltitudeMeters>
            <DistanceMeters>NAN</DistanceMeters>
          </Trackpoint>
          <Trackpoint>
            <Time>2021-04-01T12:13:24.000Z</Time>
            <Position>
              <LatitudeDegrees>42.42173002101480960845947265625</LatitudeDegrees>
              <LongitudeDegrees>2.716567106544971466064453125</LongitudeDegrees>
            </Position>
            <AltitudeMeters>1381.199951171875</AltitudeMeters>
            <DistanceMeters>NAN</DistanceMeters>
          </Trackpoint>
          <Trackpoint>
            <Time>2021-04-01T12:13:26.000Z</Time>
            <Position>
              <LatitudeDegrees>42.42173119448125362396240234375</LatitudeDegrees>
              <LongitudeDegrees>2.71653751842677593231201171875</LongitudeDegrees>
            </Position>
            <AltitudeMeters>1380.800048828125</AltitudeMeters>
            <DistanceMeters>NAN</DistanceMeters>
          </Trackpoint>
          <Trackpoint>
            <Time>2021-04-01T12:13:27.000Z</Time>
            <Position>
              <LatitudeDegrees>42.42173370905220508575439453125</LatitudeDegrees>
              <LongitudeDegrees>2.7165184915065765380859375</LongitudeDegrees>
            </Position>
            <AltitudeMeters>1380.800048828125</AltitudeMeters>
            <DistanceMeters>NAN</DistanceMeters>
          </Trackpoint>
          <Trackpoint>
            <Time>2021-04-01T12:13:30.000Z</Time>
            <Position>
              <LatitudeDegrees>42.42173806764185428619384765625</LatitudeDegrees>
              <LongitudeDegrees>2.71648001857101917266845703125</LongitudeDegrees>
            </Position>
            <AltitudeMeters>1380</AltitudeMeters>
            <DistanceMeters>NAN</DistanceMeters>
          </Trackpoint>
          <Trackpoint>
            <Time>2021-04-01T12:13:31.000Z</Time>
            <Position>
              <LatitudeDegrees>42.4217358045279979705810546875</LatitudeDegrees>
              <LongitudeDegrees>2.71646342240273952484130859375</LongitudeDegrees>
            </Position>
            <AltitudeMeters>1379.800048828125</AltitudeMeters>
            <DistanceMeters>NAN</DistanceMeters>
          </Trackpoint>
          <Trackpoint>
            <Time>2021-04-01T12:13:32.000Z</Time>
            <Position>
              <LatitudeDegrees>42.4217341281473636627197265625</LatitudeDegrees>
              <LongitudeDegrees>2.71644531749188899993896484375</LongitudeDegrees>
            </Position>
            <AltitudeMeters>1379.4000244140625</AltitudeMeters>
            <DistanceMeters>NAN</DistanceMeters>
          </Trackpoint>
          <Trackpoint>
            <Time>2021-04-01T12:13:33.000Z</Time>
            <Position>
              <LatitudeDegrees>42.42173119448125362396240234375</LatitudeDegrees>
              <LongitudeDegrees>2.71642796695232391357421875</LongitudeDegrees>
            </Position>
            <AltitudeMeters>1379.199951171875</AltitudeMeters>
            <DistanceMeters>NAN</DistanceMeters>
          </Trackpoint>
          <Trackpoint>
            <Time>2021-04-01T12:13:35.000Z</Time>
            <Position>
              <LatitudeDegrees>42.421726249158382415771484375</LatitudeDegrees>
              <LongitudeDegrees>2.71640785038471221923828125</LongitudeDegrees>
            </Position>
            <AltitudeMeters>1378.800048828125</AltitudeMeters>
            <DistanceMeters>NAN</DistanceMeters>
          </Trackpoint>
          <Trackpoint>
            <Time>2021-04-01T12:13:37.000Z</Time>
            <Position>
              <LatitudeDegrees>42.4217166937887668609619140625</LatitudeDegrees>
              <LongitudeDegrees>2.71639083512127399444580078125</LongitudeDegrees>
            </Position>
            <AltitudeMeters>1378.4000244140625</AltitudeMeters>
            <DistanceMeters>NAN</DistanceMeters>
          </Trackpoint>
          <Trackpoint>
            <Time>2021-04-01T12:13:39.000Z</Time>
            <Position>
              <LatitudeDegrees>42.42170043289661407470703125</LatitudeDegrees>
              <LongitudeDegrees>2.7163738198578357696533203125</LongitudeDegrees>
            </Position>
            <AltitudeMeters>1378.199951171875</AltitudeMeters>
            <DistanceMeters>NAN</DistanceMeters>
          </Trackpoint>
          <Trackpoint>
            <Time>2021-04-01T12:13:41.000Z</Time>
            <Position>
              <LatitudeDegrees>42.42169012315571308135986328125</LatitudeDegrees>
              <LongitudeDegrees>2.7163516916334629058837890625</LongitudeDegrees>
            </Position>
            <AltitudeMeters>1378.199951171875</AltitudeMeters>
            <DistanceMeters>NAN</DistanceMeters>
          </Trackpoint>
          <Trackpoint>
            <Time>2021-04-01T12:13:45.000Z</Time>
            <Position>
              <LatitudeDegrees>42.42166883312165737152099609375</LatitudeDegrees>
              <LongitudeDegrees>2.71631238050758838653564453125</LongitudeDegrees>
            </Position>
            <AltitudeMeters>1378.199951171875</AltitudeMeters>
            <DistanceMeters>NAN</DistanceMeters>
          </Trackpoint>
          <Trackpoint>
            <Time>2021-04-01T12:13:48.000Z</Time>
            <Position>
              <LatitudeDegrees>42.4216694198548793792724609375</LatitudeDegrees>
              <LongitudeDegrees>2.7162878215312957763671875</LongitudeDegrees>
            </Position>
            <AltitudeMeters>1378.5999755859375</AltitudeMeters>
            <DistanceMeters>NAN</DistanceMeters>
          </Trackpoint>
          <Trackpoint>
            <Time>2021-04-01T12:13:53.000Z</Time>
            <Position>
              <LatitudeDegrees>42.421660535037517547607421875</LatitudeDegrees>
              <LongitudeDegrees>2.716219425201416015625</LongitudeDegrees>
            </Position>
            <AltitudeMeters>1378.199951171875</AltitudeMeters>
            <DistanceMeters>NAN</DistanceMeters>
          </Trackpoint>
          <Trackpoint>
            <Time>2021-04-01T12:13:55.000Z</Time>
            <Position>
              <LatitudeDegrees>42.4216633848845958709716796875</LatitudeDegrees>
              <LongitudeDegrees>2.7162028290331363677978515625</LongitudeDegrees>
            </Position>
            <AltitudeMeters>1377.800048828125</AltitudeMeters>
            <DistanceMeters>NAN</DistanceMeters>
          </Trackpoint>
          <Trackpoint>
            <Time>2021-04-01T12:13:56.000Z</Time>
            <Position>
              <LatitudeDegrees>42.42165843956172466278076171875</LatitudeDegrees>
              <LongitudeDegrees>2.7161951176822185516357421875</LongitudeDegrees>
            </Position>
            <AltitudeMeters>1377.4000244140625</AltitudeMeters>
            <DistanceMeters>NAN</DistanceMeters>
          </Trackpoint>
          <Trackpoint>
            <Time>2021-04-01T12:13:58.000Z</Time>
            <Position>
              <LatitudeDegrees>42.4216395802795886993408203125</LatitudeDegrees>
              <LongitudeDegrees>2.71618464030325412750244140625</LongitudeDegrees>
            </Position>
            <AltitudeMeters>1377</AltitudeMeters>
            <DistanceMeters>NAN</DistanceMeters>
          </Trackpoint>
          <Trackpoint>
            <Time>2021-04-01T12:14:00.000Z</Time>
            <Position>
              <LatitudeDegrees>42.4216325394809246063232421875</LatitudeDegrees>
              <LongitudeDegrees>2.716167457401752471923828125</LongitudeDegrees>
            </Position>
            <AltitudeMeters>1376.800048828125</AltitudeMeters>
            <DistanceMeters>NAN</DistanceMeters>
          </Trackpoint>
          <Trackpoint>
            <Time>2021-04-01T12:14:02.000Z</Time>
            <Position>
              <LatitudeDegrees>42.421626336872577667236328125</LatitudeDegrees>
              <LongitudeDegrees>2.71614558063447475433349609375</LongitudeDegrees>
            </Position>
            <AltitudeMeters>1376.199951171875</AltitudeMeters>
            <DistanceMeters>NAN</DistanceMeters>
          </Trackpoint>
          <Trackpoint>
            <Time>2021-04-01T12:14:04.000Z</Time>
            <Position>
              <LatitudeDegrees>42.4216204695403575897216796875</LatitudeDegrees>
              <LongitudeDegrees>2.7161203511059284210205078125</LongitudeDegrees>
            </Position>
            <AltitudeMeters>1375.4000244140625</AltitudeMeters>
            <DistanceMeters>NAN</DistanceMeters>
          </Trackpoint>
          <Trackpoint>
            <Time>2021-04-01T12:14:06.000Z</Time>
            <Position>
              <LatitudeDegrees>42.42161502130329608917236328125</LatitudeDegrees>
              <LongitudeDegrees>2.71609445102512836456298828125</LongitudeDegrees>
            </Position>
            <AltitudeMeters>1375</AltitudeMeters>
            <DistanceMeters>NAN</DistanceMeters>
          </Trackpoint>
          <Trackpoint>
            <Time>2021-04-01T12:14:09.000Z</Time>
            <Position>
              <LatitudeDegrees>42.42160345427691936492919921875</LatitudeDegrees>
              <LongitudeDegrees>2.71605824120342731475830078125</LongitudeDegrees>
            </Position>
            <AltitudeMeters>1374.800048828125</AltitudeMeters>
            <DistanceMeters>NAN</DistanceMeters>
          </Trackpoint>
          <Trackpoint>
            <Time>2021-04-01T12:14:11.000Z</Time>
            <Position>
              <LatitudeDegrees>42.421600520610809326171875</LatitudeDegrees>
              <LongitudeDegrees>2.71603175438940525054931640625</LongitudeDegrees>
            </Position>
            <AltitudeMeters>1374.4000244140625</AltitudeMeters>
            <DistanceMeters>NAN</DistanceMeters>
          </Trackpoint>
          <Trackpoint>
            <Time>2021-04-01T12:14:12.000Z</Time>
            <Position>
              <LatitudeDegrees>42.4215986765921115875244140625</LatitudeDegrees>
              <LongitudeDegrees>2.7160196006298065185546875</LongitudeDegrees>
            </Position>
            <AltitudeMeters>1374.199951171875</AltitudeMeters>
            <DistanceMeters>NAN</DistanceMeters>
          </Trackpoint>
          <Trackpoint>
            <Time>2021-04-01T12:14:14.000Z</Time>
            <Position>
              <LatitudeDegrees>42.42159582674503326416015625</LatitudeDegrees>
              <LongitudeDegrees>2.7159949578344821929931640625</LongitudeDegrees>
            </Position>
            <AltitudeMeters>1374.199951171875</AltitudeMeters>
            <DistanceMeters>NAN</DistanceMeters>
          </Trackpoint>
          <Trackpoint>
            <Time>2021-04-01T12:14:15.000Z</Time>
            <Position>
              <LatitudeDegrees>42.421594820916652679443359375</LatitudeDegrees>
              <LongitudeDegrees>2.71598934195935726165771484375</LongitudeDegrees>
            </Position>
            <AltitudeMeters>1374.199951171875</AltitudeMeters>
            <DistanceMeters>NAN</DistanceMeters>
          </Trackpoint>
          <Trackpoint>
            <Time>2021-04-01T12:14:20.000Z</Time>
            <Position>
              <LatitudeDegrees>42.421592138707637786865234375</LatitudeDegrees>
              <LongitudeDegrees>2.71597601473331451416015625</LongitudeDegrees>
            </Position>
            <AltitudeMeters>1374.199951171875</AltitudeMeters>
            <DistanceMeters>NAN</DistanceMeters>
          </Trackpoint>
          <Trackpoint>
            <Time>2021-04-01T12:14:21.000Z</Time>
            <Position>
              <LatitudeDegrees>42.4215913005173206329345703125</LatitudeDegrees>
              <LongitudeDegrees>2.71597526036202907562255859375</LongitudeDegrees>
            </Position>
            <AltitudeMeters>1374.199951171875</AltitudeMeters>
            <DistanceMeters>NAN</DistanceMeters>
          </Trackpoint>
          <Trackpoint>
            <Time>2021-04-01T12:14:28.000Z</Time>
            <Position>
              <LatitudeDegrees>42.42157646454870700836181640625</LatitudeDegrees>
              <LongitudeDegrees>2.7159168384969234466552734375</LongitudeDegrees>
            </Position>
            <AltitudeMeters>1374.800048828125</AltitudeMeters>
            <DistanceMeters>NAN</DistanceMeters>
          </Trackpoint>
          <Trackpoint>
            <Time>2021-04-01T12:14:32.000Z</Time>
            <Position>
              <LatitudeDegrees>42.42154427804052829742431640625</LatitudeDegrees>
              <LongitudeDegrees>2.71591055206954479217529296875</LongitudeDegrees>
            </Position>
            <AltitudeMeters>1375.4000244140625</AltitudeMeters>
            <DistanceMeters>NAN</DistanceMeters>
          </Trackpoint>
          <Trackpoint>
            <Time>2021-04-01T12:14:34.000Z</Time>
            <Position>
              <LatitudeDegrees>42.42154545150697231292724609375</LatitudeDegrees>
              <LongitudeDegrees>2.71591273136436939239501953125</LongitudeDegrees>
            </Position>
            <AltitudeMeters>1375.800048828125</AltitudeMeters>
            <DistanceMeters>NAN</DistanceMeters>
          </Trackpoint>
          <Trackpoint>
            <Time>2021-04-01T12:14:35.000Z</Time>
            <Position>
              <LatitudeDegrees>42.4215482175350189208984375</LatitudeDegrees>
              <LongitudeDegrees>2.71591424010694026947021484375</LongitudeDegrees>
            </Position>
            <AltitudeMeters>1375.800048828125</AltitudeMeters>
            <DistanceMeters>NAN</DistanceMeters>
          </Trackpoint>
          <Trackpoint>
            <Time>2021-04-01T12:14:37.000Z</Time>
            <Position>
              <LatitudeDegrees>42.4215514026582241058349609375</LatitudeDegrees>
              <LongitudeDegrees>2.71590292453765869140625</LongitudeDegrees>
            </Position>
            <AltitudeMeters>1376.4000244140625</AltitudeMeters>
            <DistanceMeters>NAN</DistanceMeters>
          </Trackpoint>
          <Trackpoint>
            <Time>2021-04-01T12:14:41.000Z</Time>
            <Position>
              <LatitudeDegrees>42.42153019644320011138916015625</LatitudeDegrees>
              <LongitudeDegrees>2.71587677299976348876953125</LongitudeDegrees>
            </Position>
            <AltitudeMeters>1376.800048828125</AltitudeMeters>
            <DistanceMeters>NAN</DistanceMeters>
          </Trackpoint>
          <Trackpoint>
            <Time>2021-04-01T12:14:42.000Z</Time>
            <Position>
              <LatitudeDegrees>42.42152298800647258758544921875</LatitudeDegrees>
              <LongitudeDegrees>2.715868391096591949462890625</LongitudeDegrees>
            </Position>
            <AltitudeMeters>1377.5999755859375</AltitudeMeters>
            <DistanceMeters>NAN</DistanceMeters>
          </Trackpoint>
          <Trackpoint>
            <Time>2021-04-01T12:14:48.000Z</Time>
            <Position>
              <LatitudeDegrees>42.42148610763251781463623046875</LatitudeDegrees>
              <LongitudeDegrees>2.71582120098173618316650390625</LongitudeDegrees>
            </Position>
            <AltitudeMeters>1378.199951171875</AltitudeMeters>
            <DistanceMeters>NAN</DistanceMeters>
          </Trackpoint>
          <Trackpoint>
            <Time>2021-04-01T12:14:51.000Z</Time>
            <Position>
              <LatitudeDegrees>42.4214637279510498046875</LatitudeDegrees>
              <LongitudeDegrees>2.7157958038151264190673828125</LongitudeDegrees>
            </Position>
            <AltitudeMeters>1377.800048828125</AltitudeMeters>
            <DistanceMeters>NAN</DistanceMeters>
          </Trackpoint>
          <Trackpoint>
            <Time>2021-04-01T12:14:53.000Z</Time>
            <Position>
              <LatitudeDegrees>42.42144419811666011810302734375</LatitudeDegrees>
              <LongitudeDegrees>2.715782225131988525390625</LongitudeDegrees>
            </Position>
            <AltitudeMeters>1377.4000244140625</AltitudeMeters>
            <DistanceMeters>NAN</DistanceMeters>
          </Trackpoint>
          <Trackpoint>
            <Time>2021-04-01T12:14:55.000Z</Time>
            <Position>
              <LatitudeDegrees>42.42142994888126850128173828125</LatitudeDegrees>
              <LongitudeDegrees>2.71577191539108753204345703125</LongitudeDegrees>
            </Position>
            <AltitudeMeters>1376.4000244140625</AltitudeMeters>
            <DistanceMeters>NAN</DistanceMeters>
          </Trackpoint>
          <Trackpoint>
            <Time>2021-04-01T12:14:56.000Z</Time>
            <Position>
              <LatitudeDegrees>42.42142290808260440826416015625</LatitudeDegrees>
              <LongitudeDegrees>2.7157626114785671234130859375</LongitudeDegrees>
            </Position>
            <AltitudeMeters>1376.199951171875</AltitudeMeters>
            <DistanceMeters>NAN</DistanceMeters>
          </Trackpoint>
          <Trackpoint>
            <Time>2021-04-01T12:14:58.000Z</Time>
            <Position>
              <LatitudeDegrees>42.4214079044759273529052734375</LatitudeDegrees>
              <LongitudeDegrees>2.7157441712915897369384765625</LongitudeDegrees>
            </Position>
            <AltitudeMeters>1376</AltitudeMeters>
            <DistanceMeters>NAN</DistanceMeters>
          </Trackpoint>
          <Trackpoint>
            <Time>2021-04-01T12:15:02.000Z</Time>
            <Position>
              <LatitudeDegrees>42.42136255837976932525634765625</LatitudeDegrees>
              <LongitudeDegrees>2.71569832228124141693115234375</LongitudeDegrees>
            </Position>
            <AltitudeMeters>1375.199951171875</AltitudeMeters>
            <DistanceMeters>NAN</DistanceMeters>
          </Trackpoint>
          <Trackpoint>
            <Time>2021-04-01T12:15:04.000Z</Time>
            <Position>
              <LatitudeDegrees>42.421349398791790008544921875</LatitudeDegrees>
              <LongitudeDegrees>2.715685330331325531005859375</LongitudeDegrees>
            </Position>
            <AltitudeMeters>1374.5999755859375</AltitudeMeters>
            <DistanceMeters>NAN</DistanceMeters>
          </Trackpoint>
          <Trackpoint>
            <Time>2021-04-01T12:15:05.000Z</Time>
            <Position>
              <LatitudeDegrees>42.4213401786983013153076171875</LatitudeDegrees>
              <LongitudeDegrees>2.715682648122310638427734375</LongitudeDegrees>
            </Position>
            <AltitudeMeters>1374.4000244140625</AltitudeMeters>
            <DistanceMeters>NAN</DistanceMeters>
          </Trackpoint>
          <Trackpoint>
            <Time>2021-04-01T12:15:14.000Z</Time>
            <Position>
              <LatitudeDegrees>42.42125912569463253021240234375</LatitudeDegrees>
              <LongitudeDegrees>2.71565658040344715118408203125</LongitudeDegrees>
            </Position>
            <AltitudeMeters>1375</AltitudeMeters>
            <DistanceMeters>NAN</DistanceMeters>
          </Trackpoint>
          <Trackpoint>
            <Time>2021-04-01T12:15:15.000Z</Time>
            <Position>
              <LatitudeDegrees>42.42125107906758785247802734375</LatitudeDegrees>
              <LongitudeDegrees>2.7156521379947662353515625</LongitudeDegrees>
            </Position>
            <AltitudeMeters>1375</AltitudeMeters>
            <DistanceMeters>NAN</DistanceMeters>
          </Trackpoint>
          <Trackpoint>
            <Time>2021-04-01T12:15:17.000Z</Time>
            <Position>
              <LatitudeDegrees>42.42122593335807323455810546875</LatitudeDegrees>
              <LongitudeDegrees>2.7156254835426807403564453125</LongitudeDegrees>
            </Position>
            <AltitudeMeters>1374.199951171875</AltitudeMeters>
            <DistanceMeters>NAN</DistanceMeters>
          </Trackpoint>
          <Trackpoint>
            <Time>2021-04-01T12:15:19.000Z</Time>
            <Position>
              <LatitudeDegrees>42.421211935579776763916015625</LatitudeDegrees>
              <LongitudeDegrees>2.71560528315603733062744140625</LongitudeDegrees>
            </Position>
            <AltitudeMeters>1374</AltitudeMeters>
            <DistanceMeters>NAN</DistanceMeters>
          </Trackpoint>
          <Trackpoint>
            <Time>2021-04-01T12:15:20.000Z</Time>
            <Position>
              <LatitudeDegrees>42.42119877599179744720458984375</LatitudeDegrees>
              <LongitudeDegrees>2.71560050547122955322265625</LongitudeDegrees>
            </Position>
            <AltitudeMeters>1373.800048828125</AltitudeMeters>
            <DistanceMeters>NAN</DistanceMeters>
          </Trackpoint>
          <Trackpoint>
            <Time>2021-04-01T12:15:23.000Z</Time>
            <Position>
              <LatitudeDegrees>42.42117798887193202972412109375</LatitudeDegrees>
              <LongitudeDegrees>2.715576030313968658447265625</LongitudeDegrees>
            </Position>
            <AltitudeMeters>1373.800048828125</AltitudeMeters>
            <DistanceMeters>NAN</DistanceMeters>
          </Trackpoint>
          <Trackpoint>
            <Time>2021-04-01T12:15:26.000Z</Time>
            <Position>
              <LatitudeDegrees>42.42115250788629055023193359375</LatitudeDegrees>
              <LongitudeDegrees>2.71554887294769287109375</LongitudeDegrees>
            </Position>
            <AltitudeMeters>1373.800048828125</AltitudeMeters>
            <DistanceMeters>NAN</DistanceMeters>
          </Trackpoint>
          <Trackpoint>
            <Time>2021-04-01T12:15:27.000Z</Time>
            <Position>
              <LatitudeDegrees>42.4211416952311992645263671875</LatitudeDegrees>
              <LongitudeDegrees>2.7155403234064579010009765625</LongitudeDegrees>
            </Position>
            <AltitudeMeters>1373.800048828125</AltitudeMeters>
            <DistanceMeters>NAN</DistanceMeters>
          </Trackpoint>
          <Trackpoint>
            <Time>2021-04-01T12:15:33.000Z</Time>
            <Position>
              <LatitudeDegrees>42.42107422091066837310791015625</LatitudeDegrees>
              <LongitudeDegrees>2.71553370170295238494873046875</LongitudeDegrees>
            </Position>
            <AltitudeMeters>1373.199951171875</AltitudeMeters>
            <DistanceMeters>NAN</DistanceMeters>
          </Trackpoint>
          <Trackpoint>
            <Time>2021-04-01T12:15:34.000Z</Time>
            <Position>
              <LatitudeDegrees>42.42106617428362369537353515625</LatitudeDegrees>
              <LongitudeDegrees>2.7155312709510326385498046875</LongitudeDegrees>
            </Position>
            <AltitudeMeters>1373.199951171875</AltitudeMeters>
            <DistanceMeters>NAN</DistanceMeters>
          </Trackpoint>
          <Trackpoint>
            <Time>2021-04-01T12:15:37.000Z</Time>
            <Position>
              <LatitudeDegrees>42.421033568680286407470703125</LatitudeDegrees>
              <LongitudeDegrees>2.7155195362865924835205078125</LongitudeDegrees>
            </Position>
            <AltitudeMeters>1373</AltitudeMeters>
            <DistanceMeters>NAN</DistanceMeters>
          </Trackpoint>
          <Trackpoint>
            <Time>2021-04-01T12:15:39.000Z</Time>
            <Position>
              <LatitudeDegrees>42.4210136197507381439208984375</LatitudeDegrees>
              <LongitudeDegrees>2.71550889126956462860107421875</LongitudeDegrees>
            </Position>
            <AltitudeMeters>1373</AltitudeMeters>
            <DistanceMeters>NAN</DistanceMeters>
          </Trackpoint>
          <Trackpoint>
            <Time>2021-04-01T12:15:41.000Z</Time>
            <Position>
              <LatitudeDegrees>42.4209975264966487884521484375</LatitudeDegrees>
              <LongitudeDegrees>2.7154994197189807891845703125</LongitudeDegrees>
            </Position>
            <AltitudeMeters>1373</AltitudeMeters>
            <DistanceMeters>NAN</DistanceMeters>
          </Trackpoint>
          <Trackpoint>
            <Time>2021-04-01T12:15:43.000Z</Time>
            <Position>
              <LatitudeDegrees>42.42098537273705005645751953125</LatitudeDegrees>
              <LongitudeDegrees>2.7154964022338390350341796875</LongitudeDegrees>
            </Position>
            <AltitudeMeters>1373.199951171875</AltitudeMeters>
            <DistanceMeters>NAN</DistanceMeters>
          </Trackpoint>
          <Trackpoint>
            <Time>2021-04-01T12:15:45.000Z</Time>
            <Position>
              <LatitudeDegrees>42.4209723807871341705322265625</LatitudeDegrees>
              <LongitudeDegrees>2.7154858410358428955078125</LongitudeDegrees>
            </Position>
            <AltitudeMeters>1373.4000244140625</AltitudeMeters>
            <DistanceMeters>NAN</DistanceMeters>
          </Trackpoint>
          <Trackpoint>
            <Time>2021-04-01T12:15:48.000Z</Time>
            <Position>
              <LatitudeDegrees>42.42096173577010631561279296875</LatitudeDegrees>
              <LongitudeDegrees>2.7154451049864292144775390625</LongitudeDegrees>
            </Position>
            <AltitudeMeters>1373.4000244140625</AltitudeMeters>
            <DistanceMeters>NAN</DistanceMeters>
          </Trackpoint>
          <Trackpoint>
            <Time>2021-04-01T12:15:52.000Z</Time>
            <Position>
              <LatitudeDegrees>42.42095134221017360687255859375</LatitudeDegrees>
              <LongitudeDegrees>2.71540244109928607940673828125</LongitudeDegrees>
            </Position>
            <AltitudeMeters>1373.4000244140625</AltitudeMeters>
            <DistanceMeters>NAN</DistanceMeters>
          </Trackpoint>
          <Trackpoint>
            <Time>2021-04-01T12:15:54.000Z</Time>
            <Position>
              <LatitudeDegrees>42.42094430141150951385498046875</LatitudeDegrees>
              <LongitudeDegrees>2.7153938077390193939208984375</LongitudeDegrees>
            </Position>
            <AltitudeMeters>1373.5999755859375</AltitudeMeters>
            <DistanceMeters>NAN</DistanceMeters>
          </Trackpoint>
          <Trackpoint>
            <Time>2021-04-01T12:15:56.000Z</Time>
            <Position>
              <LatitudeDegrees>42.4209143780171871185302734375</LatitudeDegrees>
              <LongitudeDegrees>2.7153911255300045013427734375</LongitudeDegrees>
            </Position>
            <AltitudeMeters>1373.800048828125</AltitudeMeters>
            <DistanceMeters>NAN</DistanceMeters>
          </Trackpoint>
          <Trackpoint>
            <Time>2021-04-01T12:15:58.000Z</Time>
            <Position>
              <LatitudeDegrees>42.4209056608378887176513671875</LatitudeDegrees>
              <LongitudeDegrees>2.7153817377984523773193359375</LongitudeDegrees>
            </Position>
            <AltitudeMeters>1374</AltitudeMeters>
            <DistanceMeters>NAN</DistanceMeters>
          </Trackpoint>
          <Trackpoint>
            <Time>2021-04-01T12:15:59.000Z</Time>
            <Position>
              <LatitudeDegrees>42.420906834304332733154296875</LatitudeDegrees>
              <LongitudeDegrees>2.715380229055881500244140625</LongitudeDegrees>
            </Position>
            <AltitudeMeters>1374</AltitudeMeters>
            <DistanceMeters>NAN</DistanceMeters>
          </Trackpoint>
          <Trackpoint>
            <Time>2021-04-01T12:16:01.000Z</Time>
            <Position>
              <LatitudeDegrees>42.42091119289398193359375</LatitudeDegrees>
              <LongitudeDegrees>2.715370841324329376220703125</LongitudeDegrees>
            </Position>
            <AltitudeMeters>1374.199951171875</AltitudeMeters>
            <DistanceMeters>NAN</DistanceMeters>
          </Trackpoint>
          <Trackpoint>
            <Time>2021-04-01T12:16:02.000Z</Time>
            <Position>
              <LatitudeDegrees>42.4209043197333812713623046875</LatitudeDegrees>
              <LongitudeDegrees>2.7153649739921092987060546875</LongitudeDegrees>
            </Position>
            <AltitudeMeters>1374.199951171875</AltitudeMeters>
            <DistanceMeters>NAN</DistanceMeters>
          </Trackpoint>
          <Trackpoint>
            <Time>2021-04-01T12:16:04.000Z</Time>
            <Position>
              <LatitudeDegrees>42.42089065723121166229248046875</LatitudeDegrees>
              <LongitudeDegrees>2.71535717882215976715087890625</LongitudeDegrees>
            </Position>
            <AltitudeMeters>1374.4000244140625</AltitudeMeters>
            <DistanceMeters>NAN</DistanceMeters>
          </Trackpoint>
          <Trackpoint>
            <Time>2021-04-01T12:16:05.000Z</Time>
            <Position>
              <LatitudeDegrees>42.42088378407061100006103515625</LatitudeDegrees>
              <LongitudeDegrees>2.71535868756473064422607421875</LongitudeDegrees>
            </Position>
            <AltitudeMeters>1374.5999755859375</AltitudeMeters>
            <DistanceMeters>NAN</DistanceMeters>
          </Trackpoint>
          <Trackpoint>
            <Time>2021-04-01T12:16:11.000Z</Time>
            <Position>
              <LatitudeDegrees>42.42084480822086334228515625</LatitudeDegrees>
              <LongitudeDegrees>2.715319879353046417236328125</LongitudeDegrees>
            </Position>
            <AltitudeMeters>1374.199951171875</AltitudeMeters>
            <DistanceMeters>NAN</DistanceMeters>
          </Trackpoint>
          <Trackpoint>
            <Time>2021-04-01T12:16:13.000Z</Time>
            <Position>
              <LatitudeDegrees>42.42083349265158176422119140625</LatitudeDegrees>
              <LongitudeDegrees>2.7153034508228302001953125</LongitudeDegrees>
            </Position>
            <AltitudeMeters>1374</AltitudeMeters>
            <DistanceMeters>NAN</DistanceMeters>
          </Trackpoint>
          <Trackpoint>
            <Time>2021-04-01T12:16:14.000Z</Time>
            <Position>
              <LatitudeDegrees>42.4208275415003299713134765625</LatitudeDegrees>
              <LongitudeDegrees>2.71529632620513439178466796875</LongitudeDegrees>
            </Position>
            <AltitudeMeters>1374</AltitudeMeters>
            <DistanceMeters>NAN</DistanceMeters>
          </Trackpoint>
          <Trackpoint>
            <Time>2021-04-01T12:16:17.000Z</Time>
            <Position>
              <LatitudeDegrees>42.420833073556423187255859375</LatitudeDegrees>
              <LongitudeDegrees>2.7152871899306774139404296875</LongitudeDegrees>
            </Position>
            <AltitudeMeters>1374</AltitudeMeters>
            <DistanceMeters>NAN</DistanceMeters>
          </Trackpoint>
          <Trackpoint>
            <Time>2021-04-01T12:16:26.000Z</Time>
            <Position>
              <LatitudeDegrees>42.4208409525454044342041015625</LatitudeDegrees>
              <LongitudeDegrees>2.71525181829929351806640625</LongitudeDegrees>
            </Position>
            <AltitudeMeters>1374</AltitudeMeters>
            <DistanceMeters>NAN</DistanceMeters>
          </Trackpoint>
          <Trackpoint>
            <Time>2021-04-01T12:16:33.000Z</Time>
            <Position>
              <LatitudeDegrees>42.42078001610934734344482421875</LatitudeDegrees>
              <LongitudeDegrees>2.7152122557163238525390625</LongitudeDegrees>
            </Position>
            <AltitudeMeters>1374</AltitudeMeters>
            <DistanceMeters>NAN</DistanceMeters>
          </Trackpoint>
          <Trackpoint>
            <Time>2021-04-01T12:16:39.000Z</Time>
            <Position>
              <LatitudeDegrees>42.420733161270618438720703125</LatitudeDegrees>
              <LongitudeDegrees>2.71520546637475490570068359375</LongitudeDegrees>
            </Position>
            <AltitudeMeters>1374</AltitudeMeters>
            <DistanceMeters>NAN</DistanceMeters>
          </Trackpoint>
          <Trackpoint>
            <Time>2021-04-01T12:16:42.000Z</Time>
            <Position>
              <LatitudeDegrees>42.42071514017879962921142578125</LatitudeDegrees>
              <LongitudeDegrees>2.71518266759812831878662109375</LongitudeDegrees>
            </Position>
            <AltitudeMeters>1374</AltitudeMeters>
            <DistanceMeters>NAN</DistanceMeters>
          </Trackpoint>
          <Trackpoint>
            <Time>2021-04-01T12:16:51.000Z</Time>
            <Position>
              <LatitudeDegrees>42.42064037360250949859619140625</LatitudeDegrees>
              <LongitudeDegrees>2.7151158638298511505126953125</LongitudeDegrees>
            </Position>
            <AltitudeMeters>1374.199951171875</AltitudeMeters>
            <DistanceMeters>NAN</DistanceMeters>
          </Trackpoint>
          <Trackpoint>
            <Time>2021-04-01T12:16:52.000Z</Time>
            <Position>
              <LatitudeDegrees>42.4206350930035114288330078125</LatitudeDegrees>
              <LongitudeDegrees>2.71510655991733074188232421875</LongitudeDegrees>
            </Position>
            <AltitudeMeters>1374.199951171875</AltitudeMeters>
            <DistanceMeters>NAN</DistanceMeters>
          </Trackpoint>
          <Trackpoint>
            <Time>2021-04-01T12:17:02.000Z</Time>
            <Position>
              <LatitudeDegrees>42.4205630086362361907958984375</LatitudeDegrees>
              <LongitudeDegrees>2.7150545082986354827880859375</LongitudeDegrees>
            </Position>
            <AltitudeMeters>1375.199951171875</AltitudeMeters>
            <DistanceMeters>NAN</DistanceMeters>
          </Trackpoint>
          <Trackpoint>
            <Time>2021-04-01T12:17:04.000Z</Time>
            <Position>
              <LatitudeDegrees>42.42055051960051059722900390625</LatitudeDegrees>
              <LongitudeDegrees>2.71504352800548076629638671875</LongitudeDegrees>
            </Position>
            <AltitudeMeters>1375.4000244140625</AltitudeMeters>
            <DistanceMeters>NAN</DistanceMeters>
          </Trackpoint>
          <Trackpoint>
            <Time>2021-04-01T12:17:06.000Z</Time>
            <Position>
              <LatitudeDegrees>42.42054264061152935028076171875</LatitudeDegrees>
              <LongitudeDegrees>2.71503665484488010406494140625</LongitudeDegrees>
            </Position>
            <AltitudeMeters>1375.5999755859375</AltitudeMeters>
            <DistanceMeters>NAN</DistanceMeters>
          </Trackpoint>
          <Trackpoint>
            <Time>2021-04-01T12:17:09.000Z</Time>
            <Position>
              <LatitudeDegrees>42.4205262959003448486328125</LatitudeDegrees>
              <LongitudeDegrees>2.71501737646758556365966796875</LongitudeDegrees>
            </Position>
            <AltitudeMeters>1375.4000244140625</AltitudeMeters>
            <DistanceMeters>NAN</DistanceMeters>
          </Trackpoint>
          <Trackpoint>
            <Time>2021-04-01T12:17:15.000Z</Time>
            <Position>
              <LatitudeDegrees>42.42048128508031368255615234375</LatitudeDegrees>
              <LongitudeDegrees>2.7149747125804424285888671875</LongitudeDegrees>
            </Position>
            <AltitudeMeters>1375.199951171875</AltitudeMeters>
            <DistanceMeters>NAN</DistanceMeters>
          </Trackpoint>
          <Trackpoint>
            <Time>2021-04-01T12:17:19.000Z</Time>
            <Position>
              <LatitudeDegrees>42.4204459972679615020751953125</LatitudeDegrees>
              <LongitudeDegrees>2.71494696848094463348388671875</LongitudeDegrees>
            </Position>
            <AltitudeMeters>1375.5999755859375</AltitudeMeters>
            <DistanceMeters>NAN</DistanceMeters>
          </Trackpoint>
          <Trackpoint>
            <Time>2021-04-01T12:17:20.000Z</Time>
            <Position>
              <LatitudeDegrees>42.42043736390769481658935546875</LatitudeDegrees>
              <LongitudeDegrees>2.71494495682418346405029296875</LongitudeDegrees>
            </Position>
            <AltitudeMeters>1375.5999755859375</AltitudeMeters>
            <DistanceMeters>NAN</DistanceMeters>
          </Trackpoint>
          <Trackpoint>
            <Time>2021-04-01T12:17:25.000Z</Time>
            <Position>
              <LatitudeDegrees>42.420409619808197021484375</LatitudeDegrees>
              <LongitudeDegrees>2.7149348147213459014892578125</LongitudeDegrees>
            </Position>
            <AltitudeMeters>1376.800048828125</AltitudeMeters>
            <DistanceMeters>NAN</DistanceMeters>
          </Trackpoint>
          <Trackpoint>
            <Time>2021-04-01T12:17:28.000Z</Time>
            <Position>
              <LatitudeDegrees>42.42038841359317302703857421875</LatitudeDegrees>
              <LongitudeDegrees>2.71492970176041126251220703125</LongitudeDegrees>
            </Position>
            <AltitudeMeters>1377.199951171875</AltitudeMeters>
            <DistanceMeters>NAN</DistanceMeters>
          </Trackpoint>
          <Trackpoint>
            <Time>2021-04-01T12:17:37.000Z</Time>
            <Position>
              <LatitudeDegrees>42.42033828981220722198486328125</LatitudeDegrees>
              <LongitudeDegrees>2.71485175006091594696044921875</LongitudeDegrees>
            </Position>
            <AltitudeMeters>1377.800048828125</AltitudeMeters>
            <DistanceMeters>NAN</DistanceMeters>
          </Trackpoint>
          <Trackpoint>
            <Time>2021-04-01T12:17:43.000Z</Time>
            <Position>
              <LatitudeDegrees>42.42031163536012172698974609375</LatitudeDegrees>
              <LongitudeDegrees>2.71478385664522647857666015625</LongitudeDegrees>
            </Position>
            <AltitudeMeters>1378.199951171875</AltitudeMeters>
            <DistanceMeters>NAN</DistanceMeters>
          </Trackpoint>
          <Trackpoint>
            <Time>2021-04-01T12:17:44.000Z</Time>
            <Position>
              <LatitudeDegrees>42.42030576802790164947509765625</LatitudeDegrees>
              <LongitudeDegrees>2.7147752232849597930908203125</LongitudeDegrees>
            </Position>
            <AltitudeMeters>1378.199951171875</AltitudeMeters>
            <DistanceMeters>NAN</DistanceMeters>
          </Trackpoint>
          <Trackpoint>
            <Time>2021-04-01T12:17:46.000Z</Time>
            <Position>
              <LatitudeDegrees>42.4202951230108737945556640625</LatitudeDegrees>
              <LongitudeDegrees>2.71475167013704776763916015625</LongitudeDegrees>
            </Position>
            <AltitudeMeters>1378</AltitudeMeters>
            <DistanceMeters>NAN</DistanceMeters>
          </Trackpoint>
          <Trackpoint>
            <Time>2021-04-01T12:17:48.000Z</Time>
            <Position>
              <LatitudeDegrees>42.4202877469360828399658203125</LatitudeDegrees>
              <LongitudeDegrees>2.71473188884556293487548828125</LongitudeDegrees>
            </Position>
            <AltitudeMeters>1378</AltitudeMeters>
            <DistanceMeters>NAN</DistanceMeters>
          </Trackpoint>
          <Trackpoint>
            <Time>2021-04-01T12:17:55.000Z</Time>
            <Position>
              <LatitudeDegrees>42.42026402615010738372802734375</LatitudeDegrees>
              <LongitudeDegrees>2.714653350412845611572265625</LongitudeDegrees>
            </Position>
            <AltitudeMeters>1378.199951171875</AltitudeMeters>
            <DistanceMeters>NAN</DistanceMeters>
          </Trackpoint>
          <Trackpoint>
            <Time>2021-04-01T12:17:56.000Z</Time>
            <Position>
              <LatitudeDegrees>42.420263104140758514404296875</LatitudeDegrees>
              <LongitudeDegrees>2.71464052610099315643310546875</LongitudeDegrees>
            </Position>
            <AltitudeMeters>1378.199951171875</AltitudeMeters>
            <DistanceMeters>NAN</DistanceMeters>
          </Trackpoint>
          <Trackpoint>
            <Time>2021-04-01T12:18:03.000Z</Time>
            <Position>
              <LatitudeDegrees>42.4202391318976879119873046875</LatitudeDegrees>
              <LongitudeDegrees>2.714561484754085540771484375</LongitudeDegrees>
            </Position>
            <AltitudeMeters>1378.199951171875</AltitudeMeters>
            <DistanceMeters>NAN</DistanceMeters>
          </Trackpoint>
          <Trackpoint>
            <Time>2021-04-01T12:18:05.000Z</Time>
            <Position>
              <LatitudeDegrees>42.4202300794422626495361328125</LatitudeDegrees>
              <LongitudeDegrees>2.7145368419587612152099609375</LongitudeDegrees>
            </Position>
            <AltitudeMeters>1378.4000244140625</AltitudeMeters>
            <DistanceMeters>NAN</DistanceMeters>
          </Trackpoint>
          <Trackpoint>
            <Time>2021-04-01T12:18:06.000Z</Time>
            <Position>
              <LatitudeDegrees>42.42022597230970859527587890625</LatitudeDegrees>
              <LongitudeDegrees>2.71452359855175018310546875</LongitudeDegrees>
            </Position>
            <AltitudeMeters>1378.4000244140625</AltitudeMeters>
            <DistanceMeters>NAN</DistanceMeters>
          </Trackpoint>
          <Trackpoint>
            <Time>2021-04-01T12:18:07.000Z</Time>
            <Position>
              <LatitudeDegrees>42.42022228427231311798095703125</LatitudeDegrees>
              <LongitudeDegrees>2.71451161243021488189697265625</LongitudeDegrees>
            </Position>
            <AltitudeMeters>1378.4000244140625</AltitudeMeters>
            <DistanceMeters>NAN</DistanceMeters>
          </Trackpoint>
          <Trackpoint>
            <Time>2021-04-01T12:18:11.000Z</Time>
            <Position>
              <LatitudeDegrees>42.420217506587505340576171875</LatitudeDegrees>
              <LongitudeDegrees>2.714458890259265899658203125</LongitudeDegrees>
            </Position>
            <AltitudeMeters>1378.5999755859375</AltitudeMeters>
            <DistanceMeters>NAN</DistanceMeters>
          </Trackpoint>
          <Trackpoint>
            <Time>2021-04-01T12:18:14.000Z</Time>
            <Position>
              <LatitudeDegrees>42.42021180689334869384765625</LatitudeDegrees>
              <LongitudeDegrees>2.71442435681819915771484375</LongitudeDegrees>
            </Position>
            <AltitudeMeters>1378.4000244140625</AltitudeMeters>
            <DistanceMeters>NAN</DistanceMeters>
          </Trackpoint>
          <Trackpoint>
            <Time>2021-04-01T12:18:16.000Z</Time>
            <Position>
              <LatitudeDegrees>42.42020837031304836273193359375</LatitudeDegrees>
              <LongitudeDegrees>2.71440155804157257080078125</LongitudeDegrees>
            </Position>
            <AltitudeMeters>1378.4000244140625</AltitudeMeters>
            <DistanceMeters>NAN</DistanceMeters>
          </Trackpoint>
          <Trackpoint>
            <Time>2021-04-01T12:18:23.000Z</Time>
            <Position>
              <LatitudeDegrees>42.42018900811672210693359375</LatitudeDegrees>
              <LongitudeDegrees>2.71434296853840351104736328125</LongitudeDegrees>
            </Position>
            <AltitudeMeters>1378.800048828125</AltitudeMeters>
            <DistanceMeters>NAN</DistanceMeters>
          </Trackpoint>
          <Trackpoint>
            <Time>2021-04-01T12:18:25.000Z</Time>
            <Position>
              <LatitudeDegrees>42.42017953656613826751708984375</LatitudeDegrees>
              <LongitudeDegrees>2.7143244445323944091796875</LongitudeDegrees>
            </Position>
            <AltitudeMeters>1379</AltitudeMeters>
            <DistanceMeters>NAN</DistanceMeters>
          </Trackpoint>
          <Trackpoint>
            <Time>2021-04-01T12:18:31.000Z</Time>
            <Position>
              <LatitudeDegrees>42.4201479367911815643310546875</LatitudeDegrees>
              <LongitudeDegrees>2.71427557803690433502197265625</LongitudeDegrees>
            </Position>
            <AltitudeMeters>1379.5999755859375</AltitudeMeters>
            <DistanceMeters>NAN</DistanceMeters>
          </Trackpoint>
          <Trackpoint>
            <Time>2021-04-01T12:18:32.000Z</Time>
            <Position>
              <LatitudeDegrees>42.4201422370970249176025390625</LatitudeDegrees>
              <LongitudeDegrees>2.71426677703857421875</LongitudeDegrees>
            </Position>
            <AltitudeMeters>1379.800048828125</AltitudeMeters>
            <DistanceMeters>NAN</DistanceMeters>
          </Trackpoint>
          <Trackpoint>
            <Time>2021-04-01T12:18:33.000Z</Time>
            <Position>
              <LatitudeDegrees>42.4201315082609653472900390625</LatitudeDegrees>
              <LongitudeDegrees>2.71426049061119556427001953125</LongitudeDegrees>
            </Position>
            <AltitudeMeters>1379.800048828125</AltitudeMeters>
            <DistanceMeters>NAN</DistanceMeters>
          </Trackpoint>
          <Trackpoint>
            <Time>2021-04-01T12:18:35.000Z</Time>
            <Position>
              <LatitudeDegrees>42.4201239645481109619140625</LatitudeDegrees>
              <LongitudeDegrees>2.71423987112939357757568359375</LongitudeDegrees>
            </Position>
            <AltitudeMeters>1380.199951171875</AltitudeMeters>
            <DistanceMeters>NAN</DistanceMeters>
          </Trackpoint>
          <Trackpoint>
            <Time>2021-04-01T12:18:40.000Z</Time>
            <Position>
              <LatitudeDegrees>42.4200959689915180206298828125</LatitudeDegrees>
              <LongitudeDegrees>2.71419947035610675811767578125</LongitudeDegrees>
            </Position>
            <AltitudeMeters>1380.5999755859375</AltitudeMeters>
            <DistanceMeters>NAN</DistanceMeters>
          </Trackpoint>
          <Trackpoint>
            <Time>2021-04-01T12:18:44.000Z</Time>
            <Position>
              <LatitudeDegrees>42.42007845081388950347900390625</LatitudeDegrees>
              <LongitudeDegrees>2.71415722556412220001220703125</LongitudeDegrees>
            </Position>
            <AltitudeMeters>1381</AltitudeMeters>
            <DistanceMeters>NAN</DistanceMeters>
          </Trackpoint>
          <Trackpoint>
            <Time>2021-04-01T12:18:48.000Z</Time>
            <Position>
              <LatitudeDegrees>42.42007090710103511810302734375</LatitudeDegrees>
              <LongitudeDegrees>2.71411850117146968841552734375</LongitudeDegrees>
            </Position>
            <AltitudeMeters>1381.199951171875</AltitudeMeters>
            <DistanceMeters>NAN</DistanceMeters>
          </Trackpoint>
          <Trackpoint>
            <Time>2021-04-01T12:18:53.000Z</Time>
            <Position>
              <LatitudeDegrees>42.42005825042724609375</LatitudeDegrees>
              <LongitudeDegrees>2.71406284533441066741943359375</LongitudeDegrees>
            </Position>
            <AltitudeMeters>1381</AltitudeMeters>
            <DistanceMeters>NAN</DistanceMeters>
          </Trackpoint>
          <Trackpoint>
            <Time>2021-04-01T12:18:56.000Z</Time>
            <Position>
              <LatitudeDegrees>42.42004215717315673828125</LatitudeDegrees>
              <LongitudeDegrees>2.71403585560619831085205078125</LongitudeDegrees>
            </Position>
            <AltitudeMeters>1380.800048828125</AltitudeMeters>
            <DistanceMeters>NAN</DistanceMeters>
          </Trackpoint>
          <Trackpoint>
            <Time>2021-04-01T12:18:58.000Z</Time>
            <Position>
              <LatitudeDegrees>42.42002899758517742156982421875</LatitudeDegrees>
              <LongitudeDegrees>2.71401942707598209381103515625</LongitudeDegrees>
            </Position>
            <AltitudeMeters>1380.5999755859375</AltitudeMeters>
            <DistanceMeters>NAN</DistanceMeters>
          </Trackpoint>
          <Trackpoint>
            <Time>2021-04-01T12:19:03.000Z</Time>
            <Position>
              <LatitudeDegrees>42.420027740299701690673828125</LatitudeDegrees>
              <LongitudeDegrees>2.71396259777247905731201171875</LongitudeDegrees>
            </Position>
            <AltitudeMeters>1380.5999755859375</AltitudeMeters>
            <DistanceMeters>NAN</DistanceMeters>
          </Trackpoint>
          <Trackpoint>
            <Time>2021-04-01T12:19:09.000Z</Time>
            <Position>
              <LatitudeDegrees>42.42000536061823368072509765625</LatitudeDegrees>
              <LongitudeDegrees>2.71389856003224849700927734375</LongitudeDegrees>
            </Position>
            <AltitudeMeters>1381.4000244140625</AltitudeMeters>
            <DistanceMeters>NAN</DistanceMeters>
          </Trackpoint>
          <Trackpoint>
            <Time>2021-04-01T12:19:13.000Z</Time>
            <Position>
              <LatitudeDegrees>42.41998541168868541717529296875</LatitudeDegrees>
              <LongitudeDegrees>2.7138599194586277008056640625</LongitudeDegrees>
            </Position>
            <AltitudeMeters>1381.800048828125</AltitudeMeters>
            <DistanceMeters>NAN</DistanceMeters>
          </Trackpoint>
          <Trackpoint>
            <Time>2021-04-01T12:19:17.000Z</Time>
            <Position>
              <LatitudeDegrees>42.4199839867651462554931640625</LatitudeDegrees>
              <LongitudeDegrees>2.71380568854510784149169921875</LongitudeDegrees>
            </Position>
            <AltitudeMeters>1382</AltitudeMeters>
            <DistanceMeters>NAN</DistanceMeters>
          </Trackpoint>
          <Trackpoint>
            <Time>2021-04-01T12:19:20.000Z</Time>
            <Position>
              <LatitudeDegrees>42.41997065953910350799560546875</LatitudeDegrees>
              <LongitudeDegrees>2.71377953700721263885498046875</LongitudeDegrees>
            </Position>
            <AltitudeMeters>1382.4000244140625</AltitudeMeters>
            <DistanceMeters>NAN</DistanceMeters>
          </Trackpoint>
          <Trackpoint>
            <Time>2021-04-01T12:19:27.000Z</Time>
            <Position>
              <LatitudeDegrees>42.4199496209621429443359375</LatitudeDegrees>
              <LongitudeDegrees>2.71371063776314258575439453125</LongitudeDegrees>
            </Position>
            <AltitudeMeters>1383</AltitudeMeters>
            <DistanceMeters>NAN</DistanceMeters>
          </Trackpoint>
          <Trackpoint>
            <Time>2021-04-01T12:19:28.000Z</Time>
            <Position>
              <LatitudeDegrees>42.41994735784828662872314453125</LatitudeDegrees>
              <LongitudeDegrees>2.71369840018451213836669921875</LongitudeDegrees>
            </Position>
            <AltitudeMeters>1383.199951171875</AltitudeMeters>
            <DistanceMeters>NAN</DistanceMeters>
          </Trackpoint>
          <Trackpoint>
            <Time>2021-04-01T12:19:33.000Z</Time>
            <Position>
              <LatitudeDegrees>42.41993285715579986572265625</LatitudeDegrees>
              <LongitudeDegrees>2.71363955922424793243408203125</LongitudeDegrees>
            </Position>
            <AltitudeMeters>1383.4000244140625</AltitudeMeters>
            <DistanceMeters>NAN</DistanceMeters>
          </Trackpoint>
          <Trackpoint>
            <Time>2021-04-01T12:19:38.000Z</Time>
            <Position>
              <LatitudeDegrees>42.41991274058818817138671875</LatitudeDegrees>
              <LongitudeDegrees>2.71359044127166271209716796875</LongitudeDegrees>
            </Position>
            <AltitudeMeters>1384.199951171875</AltitudeMeters>
            <DistanceMeters>NAN</DistanceMeters>
          </Trackpoint>
          <Trackpoint>
            <Time>2021-04-01T12:19:43.000Z</Time>
            <Position>
              <LatitudeDegrees>42.41994031704962253570556640625</LatitudeDegrees>
              <LongitudeDegrees>2.7135350368916988372802734375</LongitudeDegrees>
            </Position>
            <AltitudeMeters>1384.5999755859375</AltitudeMeters>
            <DistanceMeters>NAN</DistanceMeters>
          </Trackpoint>
          <Trackpoint>
            <Time>2021-04-01T12:19:46.000Z</Time>
            <Position>
              <LatitudeDegrees>42.4199420772492885589599609375</LatitudeDegrees>
              <LongitudeDegrees>2.71348885260522365570068359375</LongitudeDegrees>
            </Position>
            <AltitudeMeters>1385.4000244140625</AltitudeMeters>
            <DistanceMeters>NAN</DistanceMeters>
          </Trackpoint>
          <Trackpoint>
            <Time>2021-04-01T12:19:50.000Z</Time>
            <Position>
              <LatitudeDegrees>42.4199159257113933563232421875</LatitudeDegrees>
              <LongitudeDegrees>2.7134522236883640289306640625</LongitudeDegrees>
            </Position>
            <AltitudeMeters>1386.199951171875</AltitudeMeters>
            <DistanceMeters>NAN</DistanceMeters>
          </Trackpoint>
          <Trackpoint>
            <Time>2021-04-01T12:19:51.000Z</Time>
            <Position>
              <LatitudeDegrees>42.4199115671217441558837890625</LatitudeDegrees>
              <LongitudeDegrees>2.71343755535781383514404296875</LongitudeDegrees>
            </Position>
            <AltitudeMeters>1386.4000244140625</AltitudeMeters>
            <DistanceMeters>NAN</DistanceMeters>
          </Trackpoint>
          <Trackpoint>
            <Time>2021-04-01T12:19:55.000Z</Time>
            <Position>
              <LatitudeDegrees>42.419907711446285247802734375</LatitudeDegrees>
              <LongitudeDegrees>2.7133990824222564697265625</LongitudeDegrees>
            </Position>
            <AltitudeMeters>1386.5999755859375</AltitudeMeters>
            <DistanceMeters>NAN</DistanceMeters>
          </Trackpoint>
          <Trackpoint>
            <Time>2021-04-01T12:19:57.000Z</Time>
            <Position>
              <LatitudeDegrees>42.41989639587700366973876953125</LatitudeDegrees>
              <LongitudeDegrees>2.71337737329304218292236328125</LongitudeDegrees>
            </Position>
            <AltitudeMeters>1386.5999755859375</AltitudeMeters>
            <DistanceMeters>NAN</DistanceMeters>
          </Trackpoint>
          <Trackpoint>
            <Time>2021-04-01T12:20:05.000Z</Time>
            <Position>
              <LatitudeDegrees>42.419870831072330474853515625</LatitudeDegrees>
              <LongitudeDegrees>2.7133159339427947998046875</LongitudeDegrees>
            </Position>
            <AltitudeMeters>1387</AltitudeMeters>
            <DistanceMeters>NAN</DistanceMeters>
          </Trackpoint>
          <Trackpoint>
            <Time>2021-04-01T12:20:08.000Z</Time>
            <Position>
              <LatitudeDegrees>42.41987259127199649810791015625</LatitudeDegrees>
              <LongitudeDegrees>2.713279388844966888427734375</LongitudeDegrees>
            </Position>
            <AltitudeMeters>1387.199951171875</AltitudeMeters>
            <DistanceMeters>NAN</DistanceMeters>
          </Trackpoint>
          <Trackpoint>
            <Time>2021-04-01T12:20:11.000Z</Time>
            <Position>
              <LatitudeDegrees>42.41985465399920940399169921875</LatitudeDegrees>
              <LongitudeDegrees>2.71325684152543544769287109375</LongitudeDegrees>
            </Position>
            <AltitudeMeters>1387.4000244140625</AltitudeMeters>
            <DistanceMeters>NAN</DistanceMeters>
          </Trackpoint>
          <Trackpoint>
            <Time>2021-04-01T12:20:14.000Z</Time>
            <Position>
              <LatitudeDegrees>42.41983889602124691009521484375</LatitudeDegrees>
              <LongitudeDegrees>2.7132302708923816680908203125</LongitudeDegrees>
            </Position>
            <AltitudeMeters>1387.5999755859375</AltitudeMeters>
            <DistanceMeters>NAN</DistanceMeters>
          </Trackpoint>
          <Trackpoint>
            <Time>2021-04-01T12:20:15.000Z</Time>
            <Position>
              <LatitudeDegrees>42.419837303459644317626953125</LatitudeDegrees>
              <LongitudeDegrees>2.713215351104736328125</LongitudeDegrees>
            </Position>
            <AltitudeMeters>1387.5999755859375</AltitudeMeters>
            <DistanceMeters>NAN</DistanceMeters>
          </Trackpoint>
          <Trackpoint>
            <Time>2021-04-01T12:20:21.000Z</Time>
            <Position>
              <LatitudeDegrees>42.41982682608067989349365234375</LatitudeDegrees>
              <LongitudeDegrees>2.71316128782927989959716796875</LongitudeDegrees>
            </Position>
            <AltitudeMeters>1387.800048828125</AltitudeMeters>
            <DistanceMeters>NAN</DistanceMeters>
          </Trackpoint>
          <Trackpoint>
            <Time>2021-04-01T12:20:25.000Z</Time>
            <Position>
              <LatitudeDegrees>42.41982263512909412384033203125</LatitudeDegrees>
              <LongitudeDegrees>2.7131169475615024566650390625</LongitudeDegrees>
            </Position>
            <AltitudeMeters>1388</AltitudeMeters>
            <DistanceMeters>NAN</DistanceMeters>
          </Trackpoint>
          <Trackpoint>
            <Time>2021-04-01T12:20:26.000Z</Time>
            <Position>
              <LatitudeDegrees>42.4198173545300960540771484375</LatitudeDegrees>
              <LongitudeDegrees>2.71310999058187007904052734375</LongitudeDegrees>
            </Position>
            <AltitudeMeters>1388.199951171875</AltitudeMeters>
            <DistanceMeters>NAN</DistanceMeters>
          </Trackpoint>
          <Trackpoint>
            <Time>2021-04-01T12:20:28.000Z</Time>
            <Position>
              <LatitudeDegrees>42.41981073282659053802490234375</LatitudeDegrees>
              <LongitudeDegrees>2.71309171803295612335205078125</LongitudeDegrees>
            </Position>
            <AltitudeMeters>1388.4000244140625</AltitudeMeters>
            <DistanceMeters>NAN</DistanceMeters>
          </Trackpoint>
          <Trackpoint>
            <Time>2021-04-01T12:20:30.000Z</Time>
            <Position>
              <LatitudeDegrees>42.4197972379624843597412109375</LatitudeDegrees>
              <LongitudeDegrees>2.71308367140591144561767578125</LongitudeDegrees>
            </Position>
            <AltitudeMeters>1388.4000244140625</AltitudeMeters>
            <DistanceMeters>NAN</DistanceMeters>
          </Trackpoint>
          <Trackpoint>
            <Time>2021-04-01T12:20:32.000Z</Time>
            <Position>
              <LatitudeDegrees>42.41979380138218402862548828125</LatitudeDegrees>
              <LongitudeDegrees>2.713069505989551544189453125</LongitudeDegrees>
            </Position>
            <AltitudeMeters>1388.5999755859375</AltitudeMeters>
            <DistanceMeters>NAN</DistanceMeters>
          </Trackpoint>
          <Trackpoint>
            <Time>2021-04-01T12:20:33.000Z</Time>
            <Position>
              <LatitudeDegrees>42.41979413665831089019775390625</LatitudeDegrees>
              <LongitudeDegrees>2.71306036971509456634521484375</LongitudeDegrees>
            </Position>
            <AltitudeMeters>1388.5999755859375</AltitudeMeters>
            <DistanceMeters>NAN</DistanceMeters>
          </Trackpoint>
          <Trackpoint>
            <Time>2021-04-01T12:20:39.000Z</Time>
            <Position>
              <LatitudeDegrees>42.419771589338779449462890625</LatitudeDegrees>
              <LongitudeDegrees>2.7130227349698543548583984375</LongitudeDegrees>
            </Position>
            <AltitudeMeters>1389.199951171875</AltitudeMeters>
            <DistanceMeters>NAN</DistanceMeters>
          </Trackpoint>
          <Trackpoint>
            <Time>2021-04-01T12:20:41.000Z</Time>
            <Position>
              <LatitudeDegrees>42.4197670631110668182373046875</LatitudeDegrees>
              <LongitudeDegrees>2.7130099944770336151123046875</LongitudeDegrees>
            </Position>
            <AltitudeMeters>1389.199951171875</AltitudeMeters>
            <DistanceMeters>NAN</DistanceMeters>
          </Trackpoint>
          <Trackpoint>
            <Time>2021-04-01T12:20:47.000Z</Time>
            <Position>
              <LatitudeDegrees>42.41974619217216968536376953125</LatitudeDegrees>
              <LongitudeDegrees>2.7129647321999073028564453125</LongitudeDegrees>
            </Position>
            <AltitudeMeters>1389.5999755859375</AltitudeMeters>
            <DistanceMeters>NAN</DistanceMeters>
          </Trackpoint>
          <Trackpoint>
            <Time>2021-04-01T12:20:49.000Z</Time>
            <Position>
              <LatitudeDegrees>42.41974183358252048492431640625</LatitudeDegrees>
              <LongitudeDegrees>2.71295257844030857086181640625</LongitudeDegrees>
            </Position>
            <AltitudeMeters>1389.800048828125</AltitudeMeters>
            <DistanceMeters>NAN</DistanceMeters>
          </Trackpoint>
          <Trackpoint>
            <Time>2021-04-01T12:20:50.000Z</Time>
            <Position>
              <LatitudeDegrees>42.419739067554473876953125</LatitudeDegrees>
              <LongitudeDegrees>2.7129429392516613006591796875</LongitudeDegrees>
            </Position>
            <AltitudeMeters>1389.800048828125</AltitudeMeters>
            <DistanceMeters>NAN</DistanceMeters>
          </Trackpoint>
          <Trackpoint>
            <Time>2021-04-01T12:20:55.000Z</Time>
            <Position>
              <LatitudeDegrees>42.4197311885654926300048828125</LatitudeDegrees>
              <LongitudeDegrees>2.7128936536610126495361328125</LongitudeDegrees>
            </Position>
            <AltitudeMeters>1390</AltitudeMeters>
            <DistanceMeters>NAN</DistanceMeters>
          </Trackpoint>
          <Trackpoint>
            <Time>2021-04-01T12:20:57.000Z</Time>
            <Position>
              <LatitudeDegrees>42.4197269976139068603515625</LatitudeDegrees>
              <LongitudeDegrees>2.71287529729306697845458984375</LongitudeDegrees>
            </Position>
            <AltitudeMeters>1390.199951171875</AltitudeMeters>
            <DistanceMeters>NAN</DistanceMeters>
          </Trackpoint>
          <Trackpoint>
            <Time>2021-04-01T12:21:05.000Z</Time>
            <Position>
              <LatitudeDegrees>42.4197067134082317352294921875</LatitudeDegrees>
              <LongitudeDegrees>2.71280002780258655548095703125</LongitudeDegrees>
            </Position>
            <AltitudeMeters>1390.199951171875</AltitudeMeters>
            <DistanceMeters>NAN</DistanceMeters>
          </Trackpoint>
          <Trackpoint>
            <Time>2021-04-01T12:21:12.000Z</Time>
            <Position>
              <LatitudeDegrees>42.41966472007334232330322265625</LatitudeDegrees>
              <LongitudeDegrees>2.71274856291711330413818359375</LongitudeDegrees>
            </Position>
            <AltitudeMeters>1390.5999755859375</AltitudeMeters>
            <DistanceMeters>NAN</DistanceMeters>
          </Trackpoint>
          <Trackpoint>
            <Time>2021-04-01T12:21:14.000Z</Time>
            <Position>
              <LatitudeDegrees>42.41965767927467823028564453125</LatitudeDegrees>
              <LongitudeDegrees>2.712736241519451141357421875</LongitudeDegrees>
            </Position>
            <AltitudeMeters>1391.199951171875</AltitudeMeters>
            <DistanceMeters>NAN</DistanceMeters>
          </Trackpoint>
          <Trackpoint>
            <Time>2021-04-01T12:21:22.000Z</Time>
            <Position>
              <LatitudeDegrees>42.41962079890072345733642578125</LatitudeDegrees>
              <LongitudeDegrees>2.712661139667034149169921875</LongitudeDegrees>
            </Position>
            <AltitudeMeters>1391.5999755859375</AltitudeMeters>
            <DistanceMeters>NAN</DistanceMeters>
          </Trackpoint>
          <Trackpoint>
            <Time>2021-04-01T12:21:29.000Z</Time>
            <Position>
              <LatitudeDegrees>42.41956681944429874420166015625</LatitudeDegrees>
              <LongitudeDegrees>2.71260858513414859771728515625</LongitudeDegrees>
            </Position>
            <AltitudeMeters>1391.800048828125</AltitudeMeters>
            <DistanceMeters>NAN</DistanceMeters>
          </Trackpoint>
          <Trackpoint>
            <Time>2021-04-01T12:21:30.000Z</Time>
            <Position>
              <LatitudeDegrees>42.41956028155982494354248046875</LatitudeDegrees>
              <LongitudeDegrees>2.71259986795485019683837890625</LongitudeDegrees>
            </Position>
            <AltitudeMeters>1391.800048828125</AltitudeMeters>
            <DistanceMeters>NAN</DistanceMeters>
          </Trackpoint>
          <Trackpoint>
            <Time>2021-04-01T12:21:33.000Z</Time>
            <Position>
              <LatitudeDegrees>42.41954552941024303436279296875</LatitudeDegrees>
              <LongitudeDegrees>2.71257656626403331756591796875</LongitudeDegrees>
            </Position>
            <AltitudeMeters>1392.199951171875</AltitudeMeters>
            <DistanceMeters>NAN</DistanceMeters>
          </Trackpoint>
          <Trackpoint>
            <Time>2021-04-01T12:21:35.000Z</Time>
            <Position>
              <LatitudeDegrees>42.41953857243061065673828125</LatitudeDegrees>
              <LongitudeDegrees>2.71255075000226497650146484375</LongitudeDegrees>
            </Position>
            <AltitudeMeters>1392.199951171875</AltitudeMeters>
            <DistanceMeters>NAN</DistanceMeters>
          </Trackpoint>
          <Trackpoint>
            <Time>2021-04-01T12:21:40.000Z</Time>
            <Position>
              <LatitudeDegrees>42.4195293523371219635009765625</LatitudeDegrees>
              <LongitudeDegrees>2.71251169033348560333251953125</LongitudeDegrees>
            </Position>
            <AltitudeMeters>1393</AltitudeMeters>
            <DistanceMeters>NAN</DistanceMeters>
          </Trackpoint>
          <Trackpoint>
            <Time>2021-04-01T12:21:41.000Z</Time>
            <Position>
              <LatitudeDegrees>42.4195285141468048095703125</LatitudeDegrees>
              <LongitudeDegrees>2.7125023864209651947021484375</LongitudeDegrees>
            </Position>
            <AltitudeMeters>1393.199951171875</AltitudeMeters>
            <DistanceMeters>NAN</DistanceMeters>
          </Trackpoint>
          <Trackpoint>
            <Time>2021-04-01T12:21:45.000Z</Time>
            <Position>
              <LatitudeDegrees>42.4194954894483089447021484375</LatitudeDegrees>
              <LongitudeDegrees>2.71248905919492244720458984375</LongitudeDegrees>
            </Position>
            <AltitudeMeters>1393.5999755859375</AltitudeMeters>
            <DistanceMeters>NAN</DistanceMeters>
          </Trackpoint>
          <Trackpoint>
            <Time>2021-04-01T12:21:46.000Z</Time>
            <Position>
              <LatitudeDegrees>42.41948769427835941314697265625</LatitudeDegrees>
              <LongitudeDegrees>2.7124872989952564239501953125</LongitudeDegrees>
            </Position>
            <AltitudeMeters>1393.800048828125</AltitudeMeters>
            <DistanceMeters>NAN</DistanceMeters>
          </Trackpoint>
          <Trackpoint>
            <Time>2021-04-01T12:21:52.000Z</Time>
            <Position>
              <LatitudeDegrees>42.41947419941425323486328125</LatitudeDegrees>
              <LongitudeDegrees>2.71245653741061687469482421875</LongitudeDegrees>
            </Position>
            <AltitudeMeters>1392.800048828125</AltitudeMeters>
            <DistanceMeters>NAN</DistanceMeters>
          </Trackpoint>
          <Trackpoint>
            <Time>2021-04-01T12:21:59.000Z</Time>
            <Position>
              <LatitudeDegrees>42.41945886053144931793212890625</LatitudeDegrees>
              <LongitudeDegrees>2.7124450542032718658447265625</LongitudeDegrees>
            </Position>
            <AltitudeMeters>1392.4000244140625</AltitudeMeters>
            <DistanceMeters>NAN</DistanceMeters>
          </Trackpoint>
          <Trackpoint>
            <Time>2021-04-01T12:22:01.000Z</Time>
            <Position>
              <LatitudeDegrees>42.41944779641926288604736328125</LatitudeDegrees>
              <LongitudeDegrees>2.71244916133582592010498046875</LongitudeDegrees>
            </Position>
            <AltitudeMeters>1392.4000244140625</AltitudeMeters>
            <DistanceMeters>NAN</DistanceMeters>
          </Trackpoint>
          <Trackpoint>
            <Time>2021-04-01T12:22:04.000Z</Time>
            <Position>
              <LatitudeDegrees>42.41942281834781169891357421875</LatitudeDegrees>
              <LongitudeDegrees>2.7124390192329883575439453125</LongitudeDegrees>
            </Position>
            <AltitudeMeters>1391.800048828125</AltitudeMeters>
            <DistanceMeters>NAN</DistanceMeters>
          </Trackpoint>
          <Trackpoint>
            <Time>2021-04-01T12:22:12.000Z</Time>
            <Position>
              <LatitudeDegrees>42.41937839426100254058837890625</LatitudeDegrees>
              <LongitudeDegrees>2.712397612631320953369140625</LongitudeDegrees>
            </Position>
            <AltitudeMeters>1391</AltitudeMeters>
            <DistanceMeters>NAN</DistanceMeters>
          </Trackpoint>
          <Trackpoint>
            <Time>2021-04-01T12:22:13.000Z</Time>
            <Position>
              <LatitudeDegrees>42.41937805898487567901611328125</LatitudeDegrees>
              <LongitudeDegrees>2.712393589317798614501953125</LongitudeDegrees>
            </Position>
            <AltitudeMeters>1390.800048828125</AltitudeMeters>
            <DistanceMeters>NAN</DistanceMeters>
          </Trackpoint>
          <Trackpoint>
            <Time>2021-04-01T12:22:17.000Z</Time>
            <Position>
              <LatitudeDegrees>42.41935023106634616851806640625</LatitudeDegrees>
              <LongitudeDegrees>2.71237137727439403533935546875</LongitudeDegrees>
            </Position>
            <AltitudeMeters>1390</AltitudeMeters>
            <DistanceMeters>NAN</DistanceMeters>
          </Trackpoint>
          <Trackpoint>
            <Time>2021-04-01T12:22:19.000Z</Time>
            <Position>
              <LatitudeDegrees>42.419335730373859405517578125</LatitudeDegrees>
              <LongitudeDegrees>2.71235461346805095672607421875</LongitudeDegrees>
            </Position>
            <AltitudeMeters>1389.800048828125</AltitudeMeters>
            <DistanceMeters>NAN</DistanceMeters>
          </Trackpoint>
          <Trackpoint>
            <Time>2021-04-01T12:22:20.000Z</Time>
            <Position>
              <LatitudeDegrees>42.4193251691758632659912109375</LatitudeDegrees>
              <LongitudeDegrees>2.71234698593616485595703125</LongitudeDegrees>
            </Position>
            <AltitudeMeters>1389.5999755859375</AltitudeMeters>
            <DistanceMeters>NAN</DistanceMeters>
          </Trackpoint>
          <Trackpoint>
            <Time>2021-04-01T12:22:27.000Z</Time>
            <Position>
              <LatitudeDegrees>42.4192819185554981231689453125</LatitudeDegrees>
              <LongitudeDegrees>2.71229426376521587371826171875</LongitudeDegrees>
            </Position>
            <AltitudeMeters>1388.5999755859375</AltitudeMeters>
            <DistanceMeters>NAN</DistanceMeters>
          </Trackpoint>
          <Trackpoint>
            <Time>2021-04-01T12:22:28.000Z</Time>
            <Position>
              <LatitudeDegrees>42.4192825891077518463134765625</LatitudeDegrees>
              <LongitudeDegrees>2.7122854627668857574462890625</LongitudeDegrees>
            </Position>
            <AltitudeMeters>1388.4000244140625</AltitudeMeters>
            <DistanceMeters>NAN</DistanceMeters>
          </Trackpoint>
          <Trackpoint>
            <Time>2021-04-01T12:22:31.000Z</Time>
            <Position>
              <LatitudeDegrees>42.4192737042903900146484375</LatitudeDegrees>
              <LongitudeDegrees>2.7122660167515277862548828125</LongitudeDegrees>
            </Position>
            <AltitudeMeters>1387.5999755859375</AltitudeMeters>
            <DistanceMeters>NAN</DistanceMeters>
          </Trackpoint>
          <Trackpoint>
            <Time>2021-04-01T12:22:36.000Z</Time>
            <Position>
              <LatitudeDegrees>42.4192530848085880279541015625</LatitudeDegrees>
              <LongitudeDegrees>2.7122257836163043975830078125</LongitudeDegrees>
            </Position>
            <AltitudeMeters>1387.199951171875</AltitudeMeters>
            <DistanceMeters>NAN</DistanceMeters>
          </Trackpoint>
          <Trackpoint>
            <Time>2021-04-01T12:22:42.000Z</Time>
            <Position>
              <LatitudeDegrees>42.419237829744815826416015625</LatitudeDegrees>
              <LongitudeDegrees>2.7121684513986110687255859375</LongitudeDegrees>
            </Position>
            <AltitudeMeters>1386.800048828125</AltitudeMeters>
            <DistanceMeters>NAN</DistanceMeters>
          </Trackpoint>
          <Trackpoint>
            <Time>2021-04-01T12:22:48.000Z</Time>
            <Position>
              <LatitudeDegrees>42.41920153610408306121826171875</LatitudeDegrees>
              <LongitudeDegrees>2.712145484983921051025390625</LongitudeDegrees>
            </Position>
            <AltitudeMeters>1387.199951171875</AltitudeMeters>
            <DistanceMeters>NAN</DistanceMeters>
          </Trackpoint>
          <Trackpoint>
            <Time>2021-04-01T12:22:54.000Z</Time>
            <Position>
              <LatitudeDegrees>42.4191431142389774322509765625</LatitudeDegrees>
              <LongitudeDegrees>2.71211363375186920166015625</LongitudeDegrees>
            </Position>
            <AltitudeMeters>1387.5999755859375</AltitudeMeters>
            <DistanceMeters>NAN</DistanceMeters>
          </Trackpoint>
          <Trackpoint>
            <Time>2021-04-01T12:22:57.000Z</Time>
            <Position>
              <LatitudeDegrees>42.41910950280725955963134765625</LatitudeDegrees>
              <LongitudeDegrees>2.71208890713751316070556640625</LongitudeDegrees>
            </Position>
            <AltitudeMeters>1387.5999755859375</AltitudeMeters>
            <DistanceMeters>NAN</DistanceMeters>
          </Trackpoint>
          <Trackpoint>
            <Time>2021-04-01T12:23:01.000Z</Time>
            <Position>
              <LatitudeDegrees>42.419086955487728118896484375</LatitudeDegrees>
              <LongitudeDegrees>2.71205806173384189605712890625</LongitudeDegrees>
            </Position>
            <AltitudeMeters>1387.800048828125</AltitudeMeters>
            <DistanceMeters>NAN</DistanceMeters>
          </Trackpoint>
          <Trackpoint>
            <Time>2021-04-01T12:23:05.000Z</Time>
            <Position>
              <LatitudeDegrees>42.419050075113773345947265625</LatitudeDegrees>
              <LongitudeDegrees>2.71202512085437774658203125</LongitudeDegrees>
            </Position>
            <AltitudeMeters>1388.800048828125</AltitudeMeters>
            <DistanceMeters>NAN</DistanceMeters>
          </Trackpoint>
          <Trackpoint>
            <Time>2021-04-01T12:23:08.000Z</Time>
            <Position>
              <LatitudeDegrees>42.41902115754783153533935546875</LatitudeDegrees>
              <LongitudeDegrees>2.71202101372182369232177734375</LongitudeDegrees>
            </Position>
            <AltitudeMeters>1389</AltitudeMeters>
            <DistanceMeters>NAN</DistanceMeters>
          </Trackpoint>
          <Trackpoint>
            <Time>2021-04-01T12:23:12.000Z</Time>
            <Position>
              <LatitudeDegrees>42.41898712702095508575439453125</LatitudeDegrees>
              <LongitudeDegrees>2.71203006617724895477294921875</LongitudeDegrees>
            </Position>
            <AltitudeMeters>1390</AltitudeMeters>
            <DistanceMeters>NAN</DistanceMeters>
          </Trackpoint>
          <Trackpoint>
            <Time>2021-04-01T12:23:16.000Z</Time>
            <Position>
              <LatitudeDegrees>42.418962903320789337158203125</LatitudeDegrees>
              <LongitudeDegrees>2.7120242826640605926513671875</LongitudeDegrees>
            </Position>
            <AltitudeMeters>1390.199951171875</AltitudeMeters>
            <DistanceMeters>NAN</DistanceMeters>
          </Trackpoint>
          <Trackpoint>
            <Time>2021-04-01T12:23:18.000Z</Time>
            <Position>
              <LatitudeDegrees>42.4189409427344799041748046875</LatitudeDegrees>
              <LongitudeDegrees>2.7120343409478664398193359375</LongitudeDegrees>
            </Position>
            <AltitudeMeters>1390.5999755859375</AltitudeMeters>
            <DistanceMeters>NAN</DistanceMeters>
          </Trackpoint>
          <Trackpoint>
            <Time>2021-04-01T12:23:20.000Z</Time>
            <Position>
              <LatitudeDegrees>42.41893582977354526519775390625</LatitudeDegrees>
              <LongitudeDegrees>2.71204465068876743316650390625</LongitudeDegrees>
            </Position>
            <AltitudeMeters>1391</AltitudeMeters>
            <DistanceMeters>NAN</DistanceMeters>
          </Trackpoint>
          <Trackpoint>
            <Time>2021-04-01T12:23:22.000Z</Time>
            <Position>
              <LatitudeDegrees>42.41893708705902099609375</LatitudeDegrees>
              <LongitudeDegrees>2.71204733289778232574462890625</LongitudeDegrees>
            </Position>
            <AltitudeMeters>1391.199951171875</AltitudeMeters>
            <DistanceMeters>NAN</DistanceMeters>
          </Trackpoint>
          <Trackpoint>
            <Time>2021-04-01T12:23:26.000Z</Time>
            <Position>
              <LatitudeDegrees>42.4189235083758831024169921875</LatitudeDegrees>
              <LongitudeDegrees>2.71205998957157135009765625</LongitudeDegrees>
            </Position>
            <AltitudeMeters>1392</AltitudeMeters>
            <DistanceMeters>NAN</DistanceMeters>
          </Trackpoint>
          <Trackpoint>
            <Time>2021-04-01T12:23:28.000Z</Time>
            <Position>
              <LatitudeDegrees>42.4189102649688720703125</LatitudeDegrees>
              <LongitudeDegrees>2.71204791963100433349609375</LongitudeDegrees>
            </Position>
            <AltitudeMeters>1392.4000244140625</AltitudeMeters>
            <DistanceMeters>NAN</DistanceMeters>
          </Trackpoint>
          <Trackpoint>
            <Time>2021-04-01T12:23:29.000Z</Time>
            <Position>
              <LatitudeDegrees>42.4189043976366519927978515625</LatitudeDegrees>
              <LongitudeDegrees>2.71203987300395965576171875</LongitudeDegrees>
            </Position>
            <AltitudeMeters>1392.4000244140625</AltitudeMeters>
            <DistanceMeters>NAN</DistanceMeters>
          </Trackpoint>
          <Trackpoint>
            <Time>2021-04-01T12:23:31.000Z</Time>
            <Position>
              <LatitudeDegrees>42.41890112869441509246826171875</LatitudeDegrees>
              <LongitudeDegrees>2.71203476004302501678466796875</LongitudeDegrees>
            </Position>
            <AltitudeMeters>1392.800048828125</AltitudeMeters>
            <DistanceMeters>NAN</DistanceMeters>
          </Trackpoint>
          <Trackpoint>
            <Time>2021-04-01T12:23:32.000Z</Time>
            <Position>
              <LatitudeDegrees>42.41890347562730312347412109375</LatitudeDegrees>
              <LongitudeDegrees>2.7120350115001201629638671875</LongitudeDegrees>
            </Position>
            <AltitudeMeters>1393</AltitudeMeters>
            <DistanceMeters>NAN</DistanceMeters>
          </Trackpoint>
          <Trackpoint>
            <Time>2021-04-01T12:23:36.000Z</Time>
            <Position>
              <LatitudeDegrees>42.41890112869441509246826171875</LatitudeDegrees>
              <LongitudeDegrees>2.7120350115001201629638671875</LongitudeDegrees>
            </Position>
            <AltitudeMeters>1393.199951171875</AltitudeMeters>
            <DistanceMeters>NAN</DistanceMeters>
          </Trackpoint>
          <Trackpoint>
            <Time>2021-04-01T12:23:43.000Z</Time>
            <Position>
              <LatitudeDegrees>42.41889844648540019989013671875</LatitudeDegrees>
              <LongitudeDegrees>2.7120353467762470245361328125</LongitudeDegrees>
            </Position>
            <AltitudeMeters>1393</AltitudeMeters>
            <DistanceMeters>NAN</DistanceMeters>
          </Trackpoint>
          <Trackpoint>
            <Time>2021-04-01T12:23:51.000Z</Time>
            <Position>
              <LatitudeDegrees>42.41889844648540019989013671875</LatitudeDegrees>
              <LongitudeDegrees>2.7120353467762470245361328125</LongitudeDegrees>
            </Position>
            <AltitudeMeters>1392.800048828125</AltitudeMeters>
            <DistanceMeters>NAN</DistanceMeters>
          </Trackpoint>
          <Trackpoint>
            <Time>2021-04-01T12:23:58.000Z</Time>
            <Position>
              <LatitudeDegrees>42.41890012286603450775146484375</LatitudeDegrees>
              <LongitudeDegrees>2.712034843862056732177734375</LongitudeDegrees>
            </Position>
            <AltitudeMeters>1393</AltitudeMeters>
            <DistanceMeters>NAN</DistanceMeters>
          </Trackpoint>
          <Trackpoint>
            <Time>2021-04-01T12:24:07.000Z</Time>
            <Position>
              <LatitudeDegrees>42.41890029050409793853759765625</LatitudeDegrees>
              <LongitudeDegrees>2.71203191019594669342041015625</LongitudeDegrees>
            </Position>
            <AltitudeMeters>1394.199951171875</AltitudeMeters>
            <DistanceMeters>NAN</DistanceMeters>
          </Trackpoint>
          <Trackpoint>
            <Time>2021-04-01T12:24:12.000Z</Time>
            <Position>
              <LatitudeDegrees>42.418899871408939361572265625</LatitudeDegrees>
              <LongitudeDegrees>2.71203107200562953948974609375</LongitudeDegrees>
            </Position>
            <AltitudeMeters>1395</AltitudeMeters>
            <DistanceMeters>NAN</DistanceMeters>
          </Trackpoint>
          <Trackpoint>
            <Time>2021-04-01T12:24:13.000Z</Time>
            <Position>
              <LatitudeDegrees>42.418899871408939361572265625</LatitudeDegrees>
              <LongitudeDegrees>2.71203073672950267791748046875</LongitudeDegrees>
            </Position>
            <AltitudeMeters>1395.199951171875</AltitudeMeters>
            <DistanceMeters>NAN</DistanceMeters>
          </Trackpoint>
          <Trackpoint>
            <Time>2021-04-01T12:24:15.000Z</Time>
            <Position>
              <LatitudeDegrees>42.418899871408939361572265625</LatitudeDegrees>
              <LongitudeDegrees>2.71202906034886837005615234375</LongitudeDegrees>
            </Position>
            <AltitudeMeters>1395.199951171875</AltitudeMeters>
            <DistanceMeters>NAN</DistanceMeters>
          </Trackpoint>
          <Trackpoint>
            <Time>2021-04-01T12:24:20.000Z</Time>
            <Position>
              <LatitudeDegrees>42.41889542900025844573974609375</LatitudeDegrees>
              <LongitudeDegrees>2.712021432816982269287109375</LongitudeDegrees>
            </Position>
            <AltitudeMeters>1394.4000244140625</AltitudeMeters>
            <DistanceMeters>NAN</DistanceMeters>
          </Trackpoint>
          <Trackpoint>
            <Time>2021-04-01T12:24:24.000Z</Time>
            <Position>
              <LatitudeDegrees>42.41887782700359821319580078125</LatitudeDegrees>
              <LongitudeDegrees>2.71202118135988712310791015625</LongitudeDegrees>
            </Position>
            <AltitudeMeters>1394.800048828125</AltitudeMeters>
            <DistanceMeters>NAN</DistanceMeters>
          </Trackpoint>
          <Trackpoint>
            <Time>2021-04-01T12:24:30.000Z</Time>
            <Position>
              <LatitudeDegrees>42.418807335197925567626953125</LatitudeDegrees>
              <LongitudeDegrees>2.71206694655120372772216796875</LongitudeDegrees>
            </Position>
            <AltitudeMeters>1395.199951171875</AltitudeMeters>
            <DistanceMeters>NAN</DistanceMeters>
          </Trackpoint>
          <Trackpoint>
            <Time>2021-04-01T12:24:38.000Z</Time>
            <Position>
              <LatitudeDegrees>42.41871337406337261199951171875</LatitudeDegrees>
              <LongitudeDegrees>2.7121024020016193389892578125</LongitudeDegrees>
            </Position>
            <AltitudeMeters>1394.5999755859375</AltitudeMeters>
            <DistanceMeters>NAN</DistanceMeters>
          </Trackpoint>
          <Trackpoint>
            <Time>2021-04-01T12:24:39.000Z</Time>
            <Position>
              <LatitudeDegrees>42.4187106080353260040283203125</LatitudeDegrees>
              <LongitudeDegrees>2.712106592953205108642578125</LongitudeDegrees>
            </Position>
            <AltitudeMeters>1394.4000244140625</AltitudeMeters>
            <DistanceMeters>NAN</DistanceMeters>
          </Trackpoint>
          <Trackpoint>
            <Time>2021-04-01T12:24:41.000Z</Time>
            <Position>
              <LatitudeDegrees>42.418698705732822418212890625</LatitudeDegrees>
              <LongitudeDegrees>2.71211857907474040985107421875</LongitudeDegrees>
            </Position>
            <AltitudeMeters>1394.199951171875</AltitudeMeters>
            <DistanceMeters>NAN</DistanceMeters>
          </Trackpoint>
          <Trackpoint>
            <Time>2021-04-01T12:24:42.000Z</Time>
            <Position>
              <LatitudeDegrees>42.4186918325722217559814453125</LatitudeDegrees>
              <LongitudeDegrees>2.71212779916822910308837890625</LongitudeDegrees>
            </Position>
            <AltitudeMeters>1394</AltitudeMeters>
            <DistanceMeters>NAN</DistanceMeters>
          </Trackpoint>
          <Trackpoint>
            <Time>2021-04-01T12:24:45.000Z</Time>
            <Position>
              <LatitudeDegrees>42.4186784215271472930908203125</LatitudeDegrees>
              <LongitudeDegrees>2.71215545944869518280029296875</LongitudeDegrees>
            </Position>
            <AltitudeMeters>1393.800048828125</AltitudeMeters>
            <DistanceMeters>NAN</DistanceMeters>
          </Trackpoint>
          <Trackpoint>
            <Time>2021-04-01T12:24:51.000Z</Time>
            <Position>
              <LatitudeDegrees>42.41864715702831745147705078125</LatitudeDegrees>
              <LongitudeDegrees>2.712187729775905609130859375</LongitudeDegrees>
            </Position>
            <AltitudeMeters>1394.199951171875</AltitudeMeters>
            <DistanceMeters>NAN</DistanceMeters>
          </Trackpoint>
          <Trackpoint>
            <Time>2021-04-01T12:24:53.000Z</Time>
            <Position>
              <LatitudeDegrees>42.4186311475932598114013671875</LatitudeDegrees>
              <LongitudeDegrees>2.71220189519226551055908203125</LongitudeDegrees>
            </Position>
            <AltitudeMeters>1394.4000244140625</AltitudeMeters>
            <DistanceMeters>NAN</DistanceMeters>
          </Trackpoint>
          <Trackpoint>
            <Time>2021-04-01T12:24:58.000Z</Time>
            <Position>
              <LatitudeDegrees>42.4185808561742305755615234375</LatitudeDegrees>
              <LongitudeDegrees>2.71221765317022800445556640625</LongitudeDegrees>
            </Position>
            <AltitudeMeters>1394</AltitudeMeters>
            <DistanceMeters>NAN</DistanceMeters>
          </Trackpoint>
          <Trackpoint>
            <Time>2021-04-01T12:25:03.000Z</Time>
            <Position>
              <LatitudeDegrees>42.4185433052480220794677734375</LatitudeDegrees>
              <LongitudeDegrees>2.7122308127582073211669921875</LongitudeDegrees>
            </Position>
            <AltitudeMeters>1393.4000244140625</AltitudeMeters>
            <DistanceMeters>NAN</DistanceMeters>
          </Trackpoint>
          <Trackpoint>
            <Time>2021-04-01T12:25:05.000Z</Time>
            <Position>
              <LatitudeDegrees>42.4185272119939327239990234375</LatitudeDegrees>
              <LongitudeDegrees>2.7122479118406772613525390625</LongitudeDegrees>
            </Position>
            <AltitudeMeters>1393.199951171875</AltitudeMeters>
            <DistanceMeters>NAN</DistanceMeters>
          </Trackpoint>
          <Trackpoint>
            <Time>2021-04-01T12:25:06.000Z</Time>
            <Position>
              <LatitudeDegrees>42.41851606406271457672119140625</LatitudeDegrees>
              <LongitudeDegrees>2.71225620992481708526611328125</LongitudeDegrees>
            </Position>
            <AltitudeMeters>1392.800048828125</AltitudeMeters>
            <DistanceMeters>NAN</DistanceMeters>
          </Trackpoint>
          <Trackpoint>
            <Time>2021-04-01T12:25:10.000Z</Time>
            <Position>
              <LatitudeDegrees>42.41849309764802455902099609375</LatitudeDegrees>
              <LongitudeDegrees>2.71228236146271228790283203125</LongitudeDegrees>
            </Position>
            <AltitudeMeters>1392</AltitudeMeters>
            <DistanceMeters>NAN</DistanceMeters>
          </Trackpoint>
          <Trackpoint>
            <Time>2021-04-01T12:25:12.000Z</Time>
            <Position>
              <LatitudeDegrees>42.41847801022231578826904296875</LatitudeDegrees>
              <LongitudeDegrees>2.7122918330132961273193359375</LongitudeDegrees>
            </Position>
            <AltitudeMeters>1392</AltitudeMeters>
            <DistanceMeters>NAN</DistanceMeters>
          </Trackpoint>
          <Trackpoint>
            <Time>2021-04-01T12:25:17.000Z</Time>
            <Position>
              <LatitudeDegrees>42.418450601398944854736328125</LatitudeDegrees>
              <LongitudeDegrees>2.71233701147139072418212890625</LongitudeDegrees>
            </Position>
            <AltitudeMeters>1392</AltitudeMeters>
            <DistanceMeters>NAN</DistanceMeters>
          </Trackpoint>
          <Trackpoint>
            <Time>2021-04-01T12:25:20.000Z</Time>
            <Position>
              <LatitudeDegrees>42.41842201910912990570068359375</LatitudeDegrees>
              <LongitudeDegrees>2.71236039698123931884765625</LongitudeDegrees>
            </Position>
            <AltitudeMeters>1392</AltitudeMeters>
            <DistanceMeters>NAN</DistanceMeters>
          </Trackpoint>
          <Trackpoint>
            <Time>2021-04-01T12:25:26.000Z</Time>
            <Position>
              <LatitudeDegrees>42.4183833785355091094970703125</LatitudeDegrees>
              <LongitudeDegrees>2.7123917452991008758544921875</LongitudeDegrees>
            </Position>
            <AltitudeMeters>1391.800048828125</AltitudeMeters>
            <DistanceMeters>NAN</DistanceMeters>
          </Trackpoint>
          <Trackpoint>
            <Time>2021-04-01T12:25:27.000Z</Time>
            <Position>
              <LatitudeDegrees>42.41837826557457447052001953125</LatitudeDegrees>
              <LongitudeDegrees>2.712400294840335845947265625</LongitudeDegrees>
            </Position>
            <AltitudeMeters>1391.5999755859375</AltitudeMeters>
            <DistanceMeters>NAN</DistanceMeters>
          </Trackpoint>
          <Trackpoint>
            <Time>2021-04-01T12:25:33.000Z</Time>
            <Position>
              <LatitudeDegrees>42.41835311986505985260009765625</LatitudeDegrees>
              <LongitudeDegrees>2.71245134063065052032470703125</LongitudeDegrees>
            </Position>
            <AltitudeMeters>1390.5999755859375</AltitudeMeters>
            <DistanceMeters>NAN</DistanceMeters>
          </Trackpoint>
          <Trackpoint>
            <Time>2021-04-01T12:25:34.000Z</Time>
            <Position>
              <LatitudeDegrees>42.41835060529410839080810546875</LatitudeDegrees>
              <LongitudeDegrees>2.7124591358006000518798828125</LongitudeDegrees>
            </Position>
            <AltitudeMeters>1390.5999755859375</AltitudeMeters>
            <DistanceMeters>NAN</DistanceMeters>
          </Trackpoint>
          <Trackpoint>
            <Time>2021-04-01T12:25:43.000Z</Time>
            <Position>
              <LatitudeDegrees>42.4182807840406894683837890625</LatitudeDegrees>
              <LongitudeDegrees>2.712517641484737396240234375</LongitudeDegrees>
            </Position>
            <AltitudeMeters>1389.5999755859375</AltitudeMeters>
            <DistanceMeters>NAN</DistanceMeters>
          </Trackpoint>
          <Trackpoint>
            <Time>2021-04-01T12:25:47.000Z</Time>
            <Position>
              <LatitudeDegrees>42.4182888306677341461181640625</LatitudeDegrees>
              <LongitudeDegrees>2.712523676455020904541015625</LongitudeDegrees>
            </Position>
            <AltitudeMeters>1389.5999755859375</AltitudeMeters>
            <DistanceMeters>NAN</DistanceMeters>
          </Trackpoint>
          <Trackpoint>
            <Time>2021-04-01T12:25:49.000Z</Time>
            <Position>
              <LatitudeDegrees>42.41829981096088886260986328125</LatitudeDegrees>
              <LongitudeDegrees>2.7125070802867412567138671875</LongitudeDegrees>
            </Position>
            <AltitudeMeters>1389.4000244140625</AltitudeMeters>
            <DistanceMeters>NAN</DistanceMeters>
          </Trackpoint>
          <Trackpoint>
            <Time>2021-04-01T12:25:51.000Z</Time>
            <Position>
              <LatitudeDegrees>42.4182931892573833465576171875</LatitudeDegrees>
              <LongitudeDegrees>2.71250582300126552581787109375</LongitudeDegrees>
            </Position>
            <AltitudeMeters>1389.4000244140625</AltitudeMeters>
            <DistanceMeters>NAN</DistanceMeters>
          </Trackpoint>
          <Trackpoint>
            <Time>2021-04-01T12:25:55.000Z</Time>
            <Position>
              <LatitudeDegrees>42.41825806908309459686279296875</LatitudeDegrees>
              <LongitudeDegrees>2.71249987185001373291015625</LongitudeDegrees>
            </Position>
            <AltitudeMeters>1388.4000244140625</AltitudeMeters>
            <DistanceMeters>NAN</DistanceMeters>
          </Trackpoint>
          <Trackpoint>
            <Time>2021-04-01T12:25:58.000Z</Time>
            <Position>
              <LatitudeDegrees>42.41823275573551654815673828125</LatitudeDegrees>
              <LongitudeDegrees>2.7125057391822338104248046875</LongitudeDegrees>
            </Position>
            <AltitudeMeters>1387.800048828125</AltitudeMeters>
            <DistanceMeters>NAN</DistanceMeters>
          </Trackpoint>
          <Trackpoint>
            <Time>2021-04-01T12:26:00.000Z</Time>
            <Position>
              <LatitudeDegrees>42.41822085343301296234130859375</LatitudeDegrees>
              <LongitudeDegrees>2.71251001395285129547119140625</LongitudeDegrees>
            </Position>
            <AltitudeMeters>1387.4000244140625</AltitudeMeters>
            <DistanceMeters>NAN</DistanceMeters>
          </Trackpoint>
          <Trackpoint>
            <Time>2021-04-01T12:26:03.000Z</Time>
            <Position>
              <LatitudeDegrees>42.41819822229444980621337890625</LatitudeDegrees>
              <LongitudeDegrees>2.7124980278313159942626953125</LongitudeDegrees>
            </Position>
            <AltitudeMeters>1386.5999755859375</AltitudeMeters>
            <DistanceMeters>NAN</DistanceMeters>
          </Trackpoint>
          <Trackpoint>
            <Time>2021-04-01T12:26:05.000Z</Time>
            <Position>
              <LatitudeDegrees>42.4181993119418621063232421875</LatitudeDegrees>
              <LongitudeDegrees>2.7124785818159580230712890625</LongitudeDegrees>
            </Position>
            <AltitudeMeters>1386.199951171875</AltitudeMeters>
            <DistanceMeters>NAN</DistanceMeters>
          </Trackpoint>
          <Trackpoint>
            <Time>2021-04-01T12:26:06.000Z</Time>
            <Position>
              <LatitudeDegrees>42.41820107214152812957763671875</LatitudeDegrees>
              <LongitudeDegrees>2.71247061900794506072998046875</LongitudeDegrees>
            </Position>
            <AltitudeMeters>1385.800048828125</AltitudeMeters>
            <DistanceMeters>NAN</DistanceMeters>
          </Trackpoint>
          <Trackpoint>
            <Time>2021-04-01T12:26:08.000Z</Time>
            <Position>
              <LatitudeDegrees>42.4181946180760860443115234375</LatitudeDegrees>
              <LongitudeDegrees>2.71245695650577545166015625</LongitudeDegrees>
            </Position>
            <AltitudeMeters>1385.4000244140625</AltitudeMeters>
            <DistanceMeters>NAN</DistanceMeters>
          </Trackpoint>
          <Trackpoint>
            <Time>2021-04-01T12:26:10.000Z</Time>
            <Position>
              <LatitudeDegrees>42.41817827336490154266357421875</LatitudeDegrees>
              <LongitudeDegrees>2.7124567888677120208740234375</LongitudeDegrees>
            </Position>
            <AltitudeMeters>1385</AltitudeMeters>
            <DistanceMeters>NAN</DistanceMeters>
          </Trackpoint>
          <Trackpoint>
            <Time>2021-04-01T12:26:11.000Z</Time>
            <Position>
              <LatitudeDegrees>42.41816771216690540313720703125</LatitudeDegrees>
              <LongitudeDegrees>2.712459303438663482666015625</LongitudeDegrees>
            </Position>
            <AltitudeMeters>1384.5999755859375</AltitudeMeters>
            <DistanceMeters>NAN</DistanceMeters>
          </Trackpoint>
          <Trackpoint>
            <Time>2021-04-01T12:26:13.000Z</Time>
            <Position>
              <LatitudeDegrees>42.41814927197992801666259765625</LatitudeDegrees>
              <LongitudeDegrees>2.7124651707708835601806640625</LongitudeDegrees>
            </Position>
            <AltitudeMeters>1384.4000244140625</AltitudeMeters>
            <DistanceMeters>NAN</DistanceMeters>
          </Trackpoint>
          <Trackpoint>
            <Time>2021-04-01T12:26:16.000Z</Time>
            <Position>
              <LatitudeDegrees>42.4181252159178256988525390625</LatitudeDegrees>
              <LongitudeDegrees>2.7124645002186298370361328125</LongitudeDegrees>
            </Position>
            <AltitudeMeters>1383.800048828125</AltitudeMeters>
            <DistanceMeters>NAN</DistanceMeters>
          </Trackpoint>
          <Trackpoint>
            <Time>2021-04-01T12:26:18.000Z</Time>
            <Position>
              <LatitudeDegrees>42.418110631406307220458984375</LatitudeDegrees>
              <LongitudeDegrees>2.71245804615318775177001953125</LongitudeDegrees>
            </Position>
            <AltitudeMeters>1383.5999755859375</AltitudeMeters>
            <DistanceMeters>NAN</DistanceMeters>
          </Trackpoint>
          <Trackpoint>
            <Time>2021-04-01T12:26:19.000Z</Time>
            <Position>
              <LatitudeDegrees>42.418104596436023712158203125</LatitudeDegrees>
              <LongitudeDegrees>2.7124547772109508514404296875</LongitudeDegrees>
            </Position>
            <AltitudeMeters>1383.4000244140625</AltitudeMeters>
            <DistanceMeters>NAN</DistanceMeters>
          </Trackpoint>
          <Trackpoint>
            <Time>2021-04-01T12:26:22.000Z</Time>
            <Position>
              <LatitudeDegrees>42.418077103793621063232421875</LatitudeDegrees>
              <LongitudeDegrees>2.712440527975559234619140625</LongitudeDegrees>
            </Position>
            <AltitudeMeters>1382.5999755859375</AltitudeMeters>
            <DistanceMeters>NAN</DistanceMeters>
          </Trackpoint>
          <Trackpoint>
            <Time>2021-04-01T12:26:29.000Z</Time>
            <Position>
              <LatitudeDegrees>42.41801298223435878753662109375</LatitudeDegrees>
              <LongitudeDegrees>2.7124279551208019256591796875</LongitudeDegrees>
            </Position>
            <AltitudeMeters>1382.4000244140625</AltitudeMeters>
            <DistanceMeters>NAN</DistanceMeters>
          </Trackpoint>
          <Trackpoint>
            <Time>2021-04-01T12:26:33.000Z</Time>
            <Position>
              <LatitudeDegrees>42.417996637523174285888671875</LatitudeDegrees>
              <LongitudeDegrees>2.7124209143221378326416015625</LongitudeDegrees>
            </Position>
            <AltitudeMeters>1382.4000244140625</AltitudeMeters>
            <DistanceMeters>NAN</DistanceMeters>
          </Trackpoint>
          <Trackpoint>
            <Time>2021-04-01T12:26:35.000Z</Time>
            <Position>
              <LatitudeDegrees>42.41799135692417621612548828125</LatitudeDegrees>
              <LongitudeDegrees>2.7124326489865779876708984375</LongitudeDegrees>
            </Position>
            <AltitudeMeters>1382.5999755859375</AltitudeMeters>
            <DistanceMeters>NAN</DistanceMeters>
          </Trackpoint>
          <Trackpoint>
            <Time>2021-04-01T12:26:36.000Z</Time>
            <Position>
              <LatitudeDegrees>42.41799269802868366241455078125</LatitudeDegrees>
              <LongitudeDegrees>2.7124356664717197418212890625</LongitudeDegrees>
            </Position>
            <AltitudeMeters>1382.800048828125</AltitudeMeters>
            <DistanceMeters>NAN</DistanceMeters>
          </Trackpoint>
          <Trackpoint>
            <Time>2021-04-01T12:26:40.000Z</Time>
            <Position>
              <LatitudeDegrees>42.4179927818477153778076171875</LatitudeDegrees>
              <LongitudeDegrees>2.71244731731712818145751953125</LongitudeDegrees>
            </Position>
            <AltitudeMeters>1383.5999755859375</AltitudeMeters>
            <DistanceMeters>NAN</DistanceMeters>
          </Trackpoint>
          <Trackpoint>
            <Time>2021-04-01T12:26:41.000Z</Time>
            <Position>
              <LatitudeDegrees>42.41798800416290760040283203125</LatitudeDegrees>
              <LongitudeDegrees>2.71245025098323822021484375</LongitudeDegrees>
            </Position>
            <AltitudeMeters>1383.5999755859375</AltitudeMeters>
            <DistanceMeters>NAN</DistanceMeters>
          </Trackpoint>
          <Trackpoint>
            <Time>2021-04-01T12:26:43.000Z</Time>
            <Position>
              <LatitudeDegrees>42.4179750122129917144775390625</LatitudeDegrees>
              <LongitudeDegrees>2.71245687268674373626708984375</LongitudeDegrees>
            </Position>
            <AltitudeMeters>1383.800048828125</AltitudeMeters>
            <DistanceMeters>NAN</DistanceMeters>
          </Trackpoint>
          <Trackpoint>
            <Time>2021-04-01T12:26:49.000Z</Time>
            <Position>
              <LatitudeDegrees>42.417929582297801971435546875</LatitudeDegrees>
              <LongitudeDegrees>2.7124420367181301116943359375</LongitudeDegrees>
            </Position>
            <AltitudeMeters>1383.199951171875</AltitudeMeters>
            <DistanceMeters>NAN</DistanceMeters>
          </Trackpoint>
          <Trackpoint>
            <Time>2021-04-01T12:26:54.000Z</Time>
            <Position>
              <LatitudeDegrees>42.417894043028354644775390625</LatitudeDegrees>
              <LongitudeDegrees>2.71245251409709453582763671875</LongitudeDegrees>
            </Position>
            <AltitudeMeters>1382.5999755859375</AltitudeMeters>
            <DistanceMeters>NAN</DistanceMeters>
          </Trackpoint>
          <Trackpoint>
            <Time>2021-04-01T12:26:55.000Z</Time>
            <Position>
              <LatitudeDegrees>42.4178895168006420135498046875</LatitudeDegrees>
              <LongitudeDegrees>2.71245963871479034423828125</LongitudeDegrees>
            </Position>
            <AltitudeMeters>1382.4000244140625</AltitudeMeters>
            <DistanceMeters>NAN</DistanceMeters>
          </Trackpoint>
          <Trackpoint>
            <Time>2021-04-01T12:26:57.000Z</Time>
            <Position>
              <LatitudeDegrees>42.4178824760019779205322265625</LatitudeDegrees>
              <LongitudeDegrees>2.71247112192213535308837890625</LongitudeDegrees>
            </Position>
            <AltitudeMeters>1382.4000244140625</AltitudeMeters>
            <DistanceMeters>NAN</DistanceMeters>
          </Trackpoint>
          <Trackpoint>
            <Time>2021-04-01T12:26:59.000Z</Time>
            <Position>
              <LatitudeDegrees>42.417874597012996673583984375</LatitudeDegrees>
              <LongitudeDegrees>2.7124802581965923309326171875</LongitudeDegrees>
            </Position>
            <AltitudeMeters>1382</AltitudeMeters>
            <DistanceMeters>NAN</DistanceMeters>
          </Trackpoint>
          <Trackpoint>
            <Time>2021-04-01T12:27:01.000Z</Time>
            <Position>
              <LatitudeDegrees>42.4178653769195079803466796875</LatitudeDegrees>
              <LongitudeDegrees>2.71247975528240203857421875</LongitudeDegrees>
            </Position>
            <AltitudeMeters>1381.4000244140625</AltitudeMeters>
            <DistanceMeters>NAN</DistanceMeters>
          </Trackpoint>
          <Trackpoint>
            <Time>2021-04-01T12:27:03.000Z</Time>
            <Position>
              <LatitudeDegrees>42.4178539775311946868896484375</LatitudeDegrees>
              <LongitudeDegrees>2.7124737203121185302734375</LongitudeDegrees>
            </Position>
            <AltitudeMeters>1380.5999755859375</AltitudeMeters>
            <DistanceMeters>NAN</DistanceMeters>
          </Trackpoint>
          <Trackpoint>
            <Time>2021-04-01T12:27:04.000Z</Time>
            <Position>
              <LatitudeDegrees>42.4178492836654186248779296875</LatitudeDegrees>
              <LongitudeDegrees>2.71247648634016513824462890625</LongitudeDegrees>
            </Position>
            <AltitudeMeters>1380.4000244140625</AltitudeMeters>
            <DistanceMeters>NAN</DistanceMeters>
          </Trackpoint>
          <Trackpoint>
            <Time>2021-04-01T12:27:11.000Z</Time>
            <Position>
              <LatitudeDegrees>42.41781064309179782867431640625</LatitudeDegrees>
              <LongitudeDegrees>2.71251303143799304962158203125</LongitudeDegrees>
            </Position>
            <AltitudeMeters>1379.4000244140625</AltitudeMeters>
            <DistanceMeters>NAN</DistanceMeters>
          </Trackpoint>
          <Trackpoint>
            <Time>2021-04-01T12:27:12.000Z</Time>
            <Position>
              <LatitudeDegrees>42.41780578158795833587646484375</LatitudeDegrees>
              <LongitudeDegrees>2.71251705475151538848876953125</LongitudeDegrees>
            </Position>
            <AltitudeMeters>1379</AltitudeMeters>
            <DistanceMeters>NAN</DistanceMeters>
          </Trackpoint>
          <Trackpoint>
            <Time>2021-04-01T12:27:17.000Z</Time>
            <Position>
              <LatitudeDegrees>42.41777074523270130157470703125</LatitudeDegrees>
              <LongitudeDegrees>2.71253583021461963653564453125</LongitudeDegrees>
            </Position>
            <AltitudeMeters>1377.800048828125</AltitudeMeters>
            <DistanceMeters>NAN</DistanceMeters>
          </Trackpoint>
          <Trackpoint>
            <Time>2021-04-01T12:27:19.000Z</Time>
            <Position>
              <LatitudeDegrees>42.41775465197861194610595703125</LatitudeDegrees>
              <LongitudeDegrees>2.7125308848917484283447265625</LongitudeDegrees>
            </Position>
            <AltitudeMeters>1377.4000244140625</AltitudeMeters>
            <DistanceMeters>NAN</DistanceMeters>
          </Trackpoint>
          <Trackpoint>
            <Time>2021-04-01T12:27:21.000Z</Time>
            <Position>
              <LatitudeDegrees>42.41774417459964752197265625</LatitudeDegrees>
              <LongitudeDegrees>2.71251118741929531097412109375</LongitudeDegrees>
            </Position>
            <AltitudeMeters>1377.199951171875</AltitudeMeters>
            <DistanceMeters>NAN</DistanceMeters>
          </Trackpoint>
          <Trackpoint>
            <Time>2021-04-01T12:27:24.000Z</Time>
            <Position>
              <LatitudeDegrees>42.41772565059363842010498046875</LatitudeDegrees>
              <LongitudeDegrees>2.7124960161745548248291015625</LongitudeDegrees>
            </Position>
            <AltitudeMeters>1376.800048828125</AltitudeMeters>
            <DistanceMeters>NAN</DistanceMeters>
          </Trackpoint>
          <Trackpoint>
            <Time>2021-04-01T12:27:25.000Z</Time>
            <Position>
              <LatitudeDegrees>42.41771676577627658843994140625</LatitudeDegrees>
              <LongitudeDegrees>2.712492831051349639892578125</LongitudeDegrees>
            </Position>
            <AltitudeMeters>1376.4000244140625</AltitudeMeters>
            <DistanceMeters>NAN</DistanceMeters>
          </Trackpoint>
          <Trackpoint>
            <Time>2021-04-01T12:27:28.000Z</Time>
            <Position>
              <LatitudeDegrees>42.41770327091217041015625</LatitudeDegrees>
              <LongitudeDegrees>2.71248050965368747711181640625</LongitudeDegrees>
            </Position>
            <AltitudeMeters>1375.5999755859375</AltitudeMeters>
            <DistanceMeters>NAN</DistanceMeters>
          </Trackpoint>
          <Trackpoint>
            <Time>2021-04-01T12:27:29.000Z</Time>
            <Position>
              <LatitudeDegrees>42.41770402528345584869384765625</LatitudeDegrees>
              <LongitudeDegrees>2.71247246302664279937744140625</LongitudeDegrees>
            </Position>
            <AltitudeMeters>1375.4000244140625</AltitudeMeters>
            <DistanceMeters>NAN</DistanceMeters>
          </Trackpoint>
          <Trackpoint>
            <Time>2021-04-01T12:27:31.000Z</Time>
            <Position>
              <LatitudeDegrees>42.41770855151116847991943359375</LatitudeDegrees>
              <LongitudeDegrees>2.7124577946960926055908203125</LongitudeDegrees>
            </Position>
            <AltitudeMeters>1375</AltitudeMeters>
            <DistanceMeters>NAN</DistanceMeters>
          </Trackpoint>
          <Trackpoint>
            <Time>2021-04-01T12:27:33.000Z</Time>
            <Position>
              <LatitudeDegrees>42.41771643050014972686767578125</LatitudeDegrees>
              <LongitudeDegrees>2.71244547329843044281005859375</LongitudeDegrees>
            </Position>
            <AltitudeMeters>1374.5999755859375</AltitudeMeters>
            <DistanceMeters>NAN</DistanceMeters>
          </Trackpoint>
          <Trackpoint>
            <Time>2021-04-01T12:27:39.000Z</Time>
            <Position>
              <LatitudeDegrees>42.417719364166259765625</LatitudeDegrees>
              <LongitudeDegrees>2.71240725181996822357177734375</LongitudeDegrees>
            </Position>
            <AltitudeMeters>1373.5999755859375</AltitudeMeters>
            <DistanceMeters>NAN</DistanceMeters>
          </Trackpoint>
          <Trackpoint>
            <Time>2021-04-01T12:27:40.000Z</Time>
            <Position>
              <LatitudeDegrees>42.41771777160465717315673828125</LatitudeDegrees>
              <LongitudeDegrees>2.712405659258365631103515625</LongitudeDegrees>
            </Position>
            <AltitudeMeters>1373.4000244140625</AltitudeMeters>
            <DistanceMeters>NAN</DistanceMeters>
          </Trackpoint>
          <Trackpoint>
            <Time>2021-04-01T12:27:42.000Z</Time>
            <Position>
              <LatitudeDegrees>42.41771467030048370361328125</LatitudeDegrees>
              <LongitudeDegrees>2.7124039828777313232421875</LongitudeDegrees>
            </Position>
            <AltitudeMeters>1373</AltitudeMeters>
            <DistanceMeters>NAN</DistanceMeters>
          </Trackpoint>
          <Trackpoint>
            <Time>2021-04-01T12:27:44.000Z</Time>
            <Position>
              <LatitudeDegrees>42.4177057854831218719482421875</LatitudeDegrees>
              <LongitudeDegrees>2.71240021102130413055419921875</LongitudeDegrees>
            </Position>
            <AltitudeMeters>1372.5999755859375</AltitudeMeters>
            <DistanceMeters>NAN</DistanceMeters>
          </Trackpoint>
          <Trackpoint>
            <Time>2021-04-01T12:27:47.000Z</Time>
            <Position>
              <LatitudeDegrees>42.41768248379230499267578125</LatitudeDegrees>
              <LongitudeDegrees>2.712394930422306060791015625</LongitudeDegrees>
            </Position>
            <AltitudeMeters>1372</AltitudeMeters>
            <DistanceMeters>NAN</DistanceMeters>
          </Trackpoint>
          <Trackpoint>
            <Time>2021-04-01T12:27:49.000Z</Time>
            <Position>
              <LatitudeDegrees>42.4176642112433910369873046875</LatitudeDegrees>
              <LongitudeDegrees>2.712392248213291168212890625</LongitudeDegrees>
            </Position>
            <AltitudeMeters>1371.199951171875</AltitudeMeters>
            <DistanceMeters>NAN</DistanceMeters>
          </Trackpoint>
          <Trackpoint>
            <Time>2021-04-01T12:27:53.000Z</Time>
            <Position>
              <LatitudeDegrees>42.41763462312519550323486328125</LatitudeDegrees>
              <LongitudeDegrees>2.71238914690911769866943359375</LongitudeDegrees>
            </Position>
            <AltitudeMeters>1370.199951171875</AltitudeMeters>
            <DistanceMeters>NAN</DistanceMeters>
          </Trackpoint>
          <Trackpoint>
            <Time>2021-04-01T12:27:57.000Z</Time>
            <Position>
              <LatitudeDegrees>42.41760847158730030059814453125</LatitudeDegrees>
              <LongitudeDegrees>2.71237783133983612060546875</LongitudeDegrees>
            </Position>
            <AltitudeMeters>1369.199951171875</AltitudeMeters>
            <DistanceMeters>NAN</DistanceMeters>
          </Trackpoint>
          <Trackpoint>
            <Time>2021-04-01T12:28:01.000Z</Time>
            <Position>
              <LatitudeDegrees>42.417592294514179229736328125</LatitudeDegrees>
              <LongitudeDegrees>2.712394259870052337646484375</LongitudeDegrees>
            </Position>
            <AltitudeMeters>1368.800048828125</AltitudeMeters>
            <DistanceMeters>NAN</DistanceMeters>
          </Trackpoint>
          <Trackpoint>
            <Time>2021-04-01T12:28:02.000Z</Time>
            <Position>
              <LatitudeDegrees>42.4175884388387203216552734375</LatitudeDegrees>
              <LongitudeDegrees>2.7124014683067798614501953125</LongitudeDegrees>
            </Position>
            <AltitudeMeters>1368.5999755859375</AltitudeMeters>
            <DistanceMeters>NAN</DistanceMeters>
          </Trackpoint>
          <Trackpoint>
            <Time>2021-04-01T12:28:04.000Z</Time>
            <Position>
              <LatitudeDegrees>42.4175839126110076904296875</LatitudeDegrees>
              <LongitudeDegrees>2.71241848357021808624267578125</LongitudeDegrees>
            </Position>
            <AltitudeMeters>1368</AltitudeMeters>
            <DistanceMeters>NAN</DistanceMeters>
          </Trackpoint>
          <Trackpoint>
            <Time>2021-04-01T12:28:07.000Z</Time>
            <Position>
              <LatitudeDegrees>42.41757477633655071258544921875</LatitudeDegrees>
              <LongitudeDegrees>2.71243776194751262664794921875</LongitudeDegrees>
            </Position>
            <AltitudeMeters>1366.800048828125</AltitudeMeters>
            <DistanceMeters>NAN</DistanceMeters>
          </Trackpoint>
          <Trackpoint>
            <Time>2021-04-01T12:28:09.000Z</Time>
            <Position>
              <LatitudeDegrees>42.4175622873008251190185546875</LatitudeDegrees>
              <LongitudeDegrees>2.7124433778226375579833984375</LongitudeDegrees>
            </Position>
            <AltitudeMeters>1366.4000244140625</AltitudeMeters>
            <DistanceMeters>NAN</DistanceMeters>
          </Trackpoint>
          <Trackpoint>
            <Time>2021-04-01T12:28:13.000Z</Time>
            <Position>
              <LatitudeDegrees>42.4175401590764522552490234375</LatitudeDegrees>
              <LongitudeDegrees>2.7124415338039398193359375</LongitudeDegrees>
            </Position>
            <AltitudeMeters>1365.800048828125</AltitudeMeters>
            <DistanceMeters>NAN</DistanceMeters>
          </Trackpoint>
          <Trackpoint>
            <Time>2021-04-01T12:28:16.000Z</Time>
            <Position>
              <LatitudeDegrees>42.41753638722002506256103515625</LatitudeDegrees>
              <LongitudeDegrees>2.7124256081879138946533203125</LongitudeDegrees>
            </Position>
            <AltitudeMeters>1365.5999755859375</AltitudeMeters>
            <DistanceMeters>NAN</DistanceMeters>
          </Trackpoint>
          <Trackpoint>
            <Time>2021-04-01T12:28:18.000Z</Time>
            <Position>
              <LatitudeDegrees>42.4175250716507434844970703125</LatitudeDegrees>
              <LongitudeDegrees>2.71241060458123683929443359375</LongitudeDegrees>
            </Position>
            <AltitudeMeters>1365.5999755859375</AltitudeMeters>
            <DistanceMeters>NAN</DistanceMeters>
          </Trackpoint>
          <Trackpoint>
            <Time>2021-04-01T12:28:23.000Z</Time>
            <Position>
              <LatitudeDegrees>42.417506463825702667236328125</LatitudeDegrees>
              <LongitudeDegrees>2.71240507252514362335205078125</LongitudeDegrees>
            </Position>
            <AltitudeMeters>1365.4000244140625</AltitudeMeters>
            <DistanceMeters>NAN</DistanceMeters>
          </Trackpoint>
          <Trackpoint>
            <Time>2021-04-01T12:28:28.000Z</Time>
            <Position>
              <LatitudeDegrees>42.41751258261501789093017578125</LatitudeDegrees>
              <LongitudeDegrees>2.712415046989917755126953125</LongitudeDegrees>
            </Position>
            <AltitudeMeters>1364.800048828125</AltitudeMeters>
            <DistanceMeters>NAN</DistanceMeters>
          </Trackpoint>
          <Trackpoint>
            <Time>2021-04-01T12:28:31.000Z</Time>
            <Position>
              <LatitudeDegrees>42.41751258261501789093017578125</LatitudeDegrees>
              <LongitudeDegrees>2.712415046989917755126953125</LongitudeDegrees>
            </Position>
            <AltitudeMeters>1364.5999755859375</AltitudeMeters>
            <DistanceMeters>NAN</DistanceMeters>
          </Trackpoint>
          <Trackpoint>
            <Time>2021-04-01T12:28:48.000Z</Time>
            <Position>
              <LatitudeDegrees>42.41750487126410007476806640625</LatitudeDegrees>
              <LongitudeDegrees>2.71242502145469188690185546875</LongitudeDegrees>
            </Position>
            <AltitudeMeters>1364.199951171875</AltitudeMeters>
            <DistanceMeters>NAN</DistanceMeters>
          </Trackpoint>
          <Trackpoint>
            <Time>2021-04-01T12:28:49.000Z</Time>
            <Position>
              <LatitudeDegrees>42.4175022728741168975830078125</LatitudeDegrees>
              <LongitudeDegrees>2.71242921240627765655517578125</LongitudeDegrees>
            </Position>
            <AltitudeMeters>1364</AltitudeMeters>
            <DistanceMeters>NAN</DistanceMeters>
          </Trackpoint>
          <Trackpoint>
            <Time>2021-04-01T12:28:51.000Z</Time>
            <Position>
              <LatitudeDegrees>42.4174962379038333892822265625</LatitudeDegrees>
              <LongitudeDegrees>2.71243692375719547271728515625</LongitudeDegrees>
            </Position>
            <AltitudeMeters>1363.4000244140625</AltitudeMeters>
            <DistanceMeters>NAN</DistanceMeters>
          </Trackpoint>
          <Trackpoint>
            <Time>2021-04-01T12:28:55.000Z</Time>
            <Position>
              <LatitudeDegrees>42.41749338805675506591796875</LatitudeDegrees>
              <LongitudeDegrees>2.71243893541395664215087890625</LongitudeDegrees>
            </Position>
            <AltitudeMeters>1362</AltitudeMeters>
            <DistanceMeters>NAN</DistanceMeters>
          </Trackpoint>
          <Trackpoint>
            <Time>2021-04-01T12:29:18.000Z</Time>
            <Position>
              <LatitudeDegrees>42.41744871251285076141357421875</LatitudeDegrees>
              <LongitudeDegrees>2.7124366723001003265380859375</LongitudeDegrees>
            </Position>
            <AltitudeMeters>1362.199951171875</AltitudeMeters>
            <DistanceMeters>NAN</DistanceMeters>
          </Trackpoint>
          <Trackpoint>
            <Time>2021-04-01T12:29:27.000Z</Time>
            <Position>
              <LatitudeDegrees>42.41744787432253360748291015625</LatitudeDegrees>
              <LongitudeDegrees>2.712384872138500213623046875</LongitudeDegrees>
            </Position>
            <AltitudeMeters>1362.5999755859375</AltitudeMeters>
            <DistanceMeters>NAN</DistanceMeters>
          </Trackpoint>
          <Trackpoint>
            <Time>2021-04-01T12:29:38.000Z</Time>
            <Position>
              <LatitudeDegrees>42.41744955070316791534423828125</LatitudeDegrees>
              <LongitudeDegrees>2.712374143302440643310546875</LongitudeDegrees>
            </Position>
            <AltitudeMeters>1362.800048828125</AltitudeMeters>
            <DistanceMeters>NAN</DistanceMeters>
          </Trackpoint>
          <Trackpoint>
            <Time>2021-04-01T12:29:40.000Z</Time>
            <Position>
              <LatitudeDegrees>42.4174503050744533538818359375</LatitudeDegrees>
              <LongitudeDegrees>2.71237405948340892791748046875</LongitudeDegrees>
            </Position>
            <AltitudeMeters>1362.800048828125</AltitudeMeters>
            <DistanceMeters>NAN</DistanceMeters>
          </Trackpoint>
          <Trackpoint>
            <Time>2021-04-01T12:29:43.000Z</Time>
            <Position>
              <LatitudeDegrees>42.4174513109028339385986328125</LatitudeDegrees>
              <LongitudeDegrees>2.7123739756643772125244140625</LongitudeDegrees>
            </Position>
            <AltitudeMeters>1363</AltitudeMeters>
            <DistanceMeters>NAN</DistanceMeters>
          </Trackpoint>
          <Trackpoint>
            <Time>2021-04-01T12:29:45.000Z</Time>
            <Position>
              <LatitudeDegrees>42.4174516461789608001708984375</LatitudeDegrees>
              <LongitudeDegrees>2.712373472750186920166015625</LongitudeDegrees>
            </Position>
            <AltitudeMeters>1362.5999755859375</AltitudeMeters>
            <DistanceMeters>NAN</DistanceMeters>
          </Trackpoint>
          <Trackpoint>
            <Time>2021-04-01T12:29:54.000Z</Time>
            <Position>
              <LatitudeDegrees>42.41744267754256725311279296875</LatitudeDegrees>
              <LongitudeDegrees>2.71232209168374538421630859375</LongitudeDegrees>
            </Position>
            <AltitudeMeters>1363.4000244140625</AltitudeMeters>
            <DistanceMeters>NAN</DistanceMeters>
          </Trackpoint>
          <Trackpoint>
            <Time>2021-04-01T12:29:55.000Z</Time>
            <Position>
              <LatitudeDegrees>42.41744418628513813018798828125</LatitudeDegrees>
              <LongitudeDegrees>2.71230465732514858245849609375</LongitudeDegrees>
            </Position>
            <AltitudeMeters>1363.5999755859375</AltitudeMeters>
            <DistanceMeters>NAN</DistanceMeters>
          </Trackpoint>
          <Trackpoint>
            <Time>2021-04-01T12:29:58.000Z</Time>
            <Position>
              <LatitudeDegrees>42.41745541803538799285888671875</LatitudeDegrees>
              <LongitudeDegrees>2.71226727403700351715087890625</LongitudeDegrees>
            </Position>
            <AltitudeMeters>1364</AltitudeMeters>
            <DistanceMeters>NAN</DistanceMeters>
          </Trackpoint>
          <Trackpoint>
            <Time>2021-04-01T12:30:01.000Z</Time>
            <Position>
              <LatitudeDegrees>42.41746011190116405487060546875</LatitudeDegrees>
              <LongitudeDegrees>2.71224145777523517608642578125</LongitudeDegrees>
            </Position>
            <AltitudeMeters>1363.800048828125</AltitudeMeters>
            <DistanceMeters>NAN</DistanceMeters>
          </Trackpoint>
          <Trackpoint>
            <Time>2021-04-01T12:30:03.000Z</Time>
            <Position>
              <LatitudeDegrees>42.41745927371084690093994140625</LatitudeDegrees>
              <LongitudeDegrees>2.71223575808107852935791015625</LongitudeDegrees>
            </Position>
            <AltitudeMeters>1363.5999755859375</AltitudeMeters>
            <DistanceMeters>NAN</DistanceMeters>
          </Trackpoint>
          <Trackpoint>
            <Time>2021-04-01T12:30:11.000Z</Time>
            <Position>
              <LatitudeDegrees>42.41741962730884552001953125</LatitudeDegrees>
              <LongitudeDegrees>2.71220692433416843414306640625</LongitudeDegrees>
            </Position>
            <AltitudeMeters>1362.4000244140625</AltitudeMeters>
            <DistanceMeters>NAN</DistanceMeters>
          </Trackpoint>
          <Trackpoint>
            <Time>2021-04-01T12:30:13.000Z</Time>
            <Position>
              <LatitudeDegrees>42.4174083955585956573486328125</LatitudeDegrees>
              <LongitudeDegrees>2.71219720132648944854736328125</LongitudeDegrees>
            </Position>
            <AltitudeMeters>1361.800048828125</AltitudeMeters>
            <DistanceMeters>NAN</DistanceMeters>
          </Trackpoint>
          <Trackpoint>
            <Time>2021-04-01T12:30:16.000Z</Time>
            <Position>
              <LatitudeDegrees>42.41740160621702671051025390625</LatitudeDegrees>
              <LongitudeDegrees>2.71219301037490367889404296875</LongitudeDegrees>
            </Position>
            <AltitudeMeters>1361</AltitudeMeters>
            <DistanceMeters>NAN</DistanceMeters>
          </Trackpoint>
          <Trackpoint>
            <Time>2021-04-01T12:30:19.000Z</Time>
            <Position>
              <LatitudeDegrees>42.417391799390316009521484375</LatitudeDegrees>
              <LongitudeDegrees>2.7121781744062900543212890625</LongitudeDegrees>
            </Position>
            <AltitudeMeters>1360.199951171875</AltitudeMeters>
            <DistanceMeters>NAN</DistanceMeters>
          </Trackpoint>
          <Trackpoint>
            <Time>2021-04-01T12:30:20.000Z</Time>
            <Position>
              <LatitudeDegrees>42.41738878190517425537109375</LatitudeDegrees>
              <LongitudeDegrees>2.71217339672148227691650390625</LongitudeDegrees>
            </Position>
            <AltitudeMeters>1360</AltitudeMeters>
            <DistanceMeters>NAN</DistanceMeters>
          </Trackpoint>
          <Trackpoint>
            <Time>2021-04-01T12:30:25.000Z</Time>
            <Position>
              <LatitudeDegrees>42.41737511940300464630126953125</LatitudeDegrees>
              <LongitudeDegrees>2.71214355714619159698486328125</LongitudeDegrees>
            </Position>
            <AltitudeMeters>1359</AltitudeMeters>
            <DistanceMeters>NAN</DistanceMeters>
          </Trackpoint>
          <Trackpoint>
            <Time>2021-04-01T12:30:27.000Z</Time>
            <Position>
              <LatitudeDegrees>42.41737310774624347686767578125</LatitudeDegrees>
              <LongitudeDegrees>2.71214288659393787384033203125</LongitudeDegrees>
            </Position>
            <AltitudeMeters>1358.5999755859375</AltitudeMeters>
            <DistanceMeters>NAN</DistanceMeters>
          </Trackpoint>
          <Trackpoint>
            <Time>2021-04-01T12:30:32.000Z</Time>
            <Position>
              <LatitudeDegrees>42.41737914271652698516845703125</LatitudeDegrees>
              <LongitudeDegrees>2.71209930069744586944580078125</LongitudeDegrees>
            </Position>
            <AltitudeMeters>1357.800048828125</AltitudeMeters>
            <DistanceMeters>NAN</DistanceMeters>
          </Trackpoint>
          <Trackpoint>
            <Time>2021-04-01T12:30:34.000Z</Time>
            <Position>
              <LatitudeDegrees>42.417382411658763885498046875</LatitudeDegrees>
              <LongitudeDegrees>2.712086141109466552734375</LongitudeDegrees>
            </Position>
            <AltitudeMeters>1357.199951171875</AltitudeMeters>
            <DistanceMeters>NAN</DistanceMeters>
          </Trackpoint>
          <Trackpoint>
            <Time>2021-04-01T12:30:36.000Z</Time>
            <Position>
              <LatitudeDegrees>42.41738140583038330078125</LatitudeDegrees>
              <LongitudeDegrees>2.71206761710345745086669921875</LongitudeDegrees>
            </Position>
            <AltitudeMeters>1356.5999755859375</AltitudeMeters>
            <DistanceMeters>NAN</DistanceMeters>
          </Trackpoint>
          <Trackpoint>
            <Time>2021-04-01T12:30:40.000Z</Time>
            <Position>
              <LatitudeDegrees>42.4173653125762939453125</LatitudeDegrees>
              <LongitudeDegrees>2.712046913802623748779296875</LongitudeDegrees>
            </Position>
            <AltitudeMeters>1355.5999755859375</AltitudeMeters>
            <DistanceMeters>NAN</DistanceMeters>
          </Trackpoint>
          <Trackpoint>
            <Time>2021-04-01T12:30:42.000Z</Time>
            <Position>
              <LatitudeDegrees>42.417354248464107513427734375</LatitudeDegrees>
              <LongitudeDegrees>2.71203710697591304779052734375</LongitudeDegrees>
            </Position>
            <AltitudeMeters>1355.199951171875</AltitudeMeters>
            <DistanceMeters>NAN</DistanceMeters>
          </Trackpoint>
          <Trackpoint>
            <Time>2021-04-01T12:30:46.000Z</Time>
            <Position>
              <LatitudeDegrees>42.417349554598331451416015625</LatitudeDegrees>
              <LongitudeDegrees>2.7119944430887699127197265625</LongitudeDegrees>
            </Position>
            <AltitudeMeters>1354.199951171875</AltitudeMeters>
            <DistanceMeters>NAN</DistanceMeters>
          </Trackpoint>
          <Trackpoint>
            <Time>2021-04-01T12:30:48.000Z</Time>
            <Position>
              <LatitudeDegrees>42.417354583740234375</LatitudeDegrees>
              <LongitudeDegrees>2.71197684109210968017578125</LongitudeDegrees>
            </Position>
            <AltitudeMeters>1353.800048828125</AltitudeMeters>
            <DistanceMeters>NAN</DistanceMeters>
          </Trackpoint>
          <Trackpoint>
            <Time>2021-04-01T12:30:51.000Z</Time>
            <Position>
              <LatitudeDegrees>42.4173738621175289154052734375</LatitudeDegrees>
              <LongitudeDegrees>2.71195077337324619293212890625</LongitudeDegrees>
            </Position>
            <AltitudeMeters>1353.199951171875</AltitudeMeters>
            <DistanceMeters>NAN</DistanceMeters>
          </Trackpoint>
          <Trackpoint>
            <Time>2021-04-01T12:30:55.000Z</Time>
            <Position>
              <LatitudeDegrees>42.41740361787378787994384765625</LatitudeDegrees>
              <LongitudeDegrees>2.71192722022533416748046875</LongitudeDegrees>
            </Position>
            <AltitudeMeters>1351.800048828125</AltitudeMeters>
            <DistanceMeters>NAN</DistanceMeters>
          </Trackpoint>
          <Trackpoint>
            <Time>2021-04-01T12:30:59.000Z</Time>
            <Position>
              <LatitudeDegrees>42.41742591373622417449951171875</LatitudeDegrees>
              <LongitudeDegrees>2.7119069360196590423583984375</LongitudeDegrees>
            </Position>
            <AltitudeMeters>1351</AltitudeMeters>
            <DistanceMeters>NAN</DistanceMeters>
          </Trackpoint>
          <Trackpoint>
            <Time>2021-04-01T12:31:00.000Z</Time>
            <Position>
              <LatitudeDegrees>42.4174318648874759674072265625</LatitudeDegrees>
              <LongitudeDegrees>2.7119045890867710113525390625</LongitudeDegrees>
            </Position>
            <AltitudeMeters>1350.800048828125</AltitudeMeters>
            <DistanceMeters>NAN</DistanceMeters>
          </Trackpoint>
          <Trackpoint>
            <Time>2021-04-01T12:31:04.000Z</Time>
            <Position>
              <LatitudeDegrees>42.41743748076260089874267578125</LatitudeDegrees>
              <LongitudeDegrees>2.71190132014453411102294921875</LongitudeDegrees>
            </Position>
            <AltitudeMeters>1349.5999755859375</AltitudeMeters>
            <DistanceMeters>NAN</DistanceMeters>
          </Trackpoint>
          <Trackpoint>
            <Time>2021-04-01T12:31:05.000Z</Time>
            <Position>
              <LatitudeDegrees>42.41743572056293487548828125</LatitudeDegrees>
              <LongitudeDegrees>2.71189503371715545654296875</LongitudeDegrees>
            </Position>
            <AltitudeMeters>1349.4000244140625</AltitudeMeters>
            <DistanceMeters>NAN</DistanceMeters>
          </Trackpoint>
          <Trackpoint>
            <Time>2021-04-01T12:31:07.000Z</Time>
            <Position>
              <LatitudeDegrees>42.4174358882009983062744140625</LatitudeDegrees>
              <LongitudeDegrees>2.71188137121498584747314453125</LongitudeDegrees>
            </Position>
            <AltitudeMeters>1348.800048828125</AltitudeMeters>
            <DistanceMeters>NAN</DistanceMeters>
          </Trackpoint>
          <Trackpoint>
            <Time>2021-04-01T12:31:08.000Z</Time>
            <Position>
              <LatitudeDegrees>42.41743848659098148345947265625</LatitudeDegrees>
              <LongitudeDegrees>2.711870558559894561767578125</LongitudeDegrees>
            </Position>
            <AltitudeMeters>1348.4000244140625</AltitudeMeters>
            <DistanceMeters>NAN</DistanceMeters>
          </Trackpoint>
          <Trackpoint>
            <Time>2021-04-01T12:31:11.000Z</Time>
            <Position>
              <LatitudeDegrees>42.41742541082203388214111328125</LatitudeDegrees>
              <LongitudeDegrees>2.71184985525906085968017578125</LongitudeDegrees>
            </Position>
            <AltitudeMeters>1347.199951171875</AltitudeMeters>
            <DistanceMeters>NAN</DistanceMeters>
          </Trackpoint>
          <Trackpoint>
            <Time>2021-04-01T12:31:14.000Z</Time>
            <Position>
              <LatitudeDegrees>42.417404539883136749267578125</LatitudeDegrees>
              <LongitudeDegrees>2.71184884943068027496337890625</LongitudeDegrees>
            </Position>
            <AltitudeMeters>1346.800048828125</AltitudeMeters>
            <DistanceMeters>NAN</DistanceMeters>
          </Trackpoint>
          <Trackpoint>
            <Time>2021-04-01T12:31:16.000Z</Time>
            <Position>
              <LatitudeDegrees>42.41739138029515743255615234375</LatitudeDegrees>
              <LongitudeDegrees>2.71184382028877735137939453125</LongitudeDegrees>
            </Position>
            <AltitudeMeters>1346</AltitudeMeters>
            <DistanceMeters>NAN</DistanceMeters>
          </Trackpoint>
          <Trackpoint>
            <Time>2021-04-01T12:31:19.000Z</Time>
            <Position>
              <LatitudeDegrees>42.41736925207078456878662109375</LatitudeDegrees>
              <LongitudeDegrees>2.71182336844503879547119140625</LongitudeDegrees>
            </Position>
            <AltitudeMeters>1345.5999755859375</AltitudeMeters>
            <DistanceMeters>NAN</DistanceMeters>
          </Trackpoint>
          <Trackpoint>
            <Time>2021-04-01T12:31:21.000Z</Time>
            <Position>
              <LatitudeDegrees>42.4173584394156932830810546875</LatitudeDegrees>
              <LongitudeDegrees>2.71180660463869571685791015625</LongitudeDegrees>
            </Position>
            <AltitudeMeters>1345.199951171875</AltitudeMeters>
            <DistanceMeters>NAN</DistanceMeters>
          </Trackpoint>
          <Trackpoint>
            <Time>2021-04-01T12:31:22.000Z</Time>
            <Position>
              <LatitudeDegrees>42.4173517338931560516357421875</LatitudeDegrees>
              <LongitudeDegrees>2.71180409006774425506591796875</LongitudeDegrees>
            </Position>
            <AltitudeMeters>1345</AltitudeMeters>
            <DistanceMeters>NAN</DistanceMeters>
          </Trackpoint>
          <Trackpoint>
            <Time>2021-04-01T12:31:26.000Z</Time>
            <Position>
              <LatitudeDegrees>42.41730538196861743927001953125</LatitudeDegrees>
              <LongitudeDegrees>2.71179570816457271575927734375</LongitudeDegrees>
            </Position>
            <AltitudeMeters>1343.800048828125</AltitudeMeters>
            <DistanceMeters>NAN</DistanceMeters>
          </Trackpoint>
          <Trackpoint>
            <Time>2021-04-01T12:31:29.000Z</Time>
            <Position>
              <LatitudeDegrees>42.4172793142497539520263671875</LatitudeDegrees>
              <LongitudeDegrees>2.71179378032684326171875</LongitudeDegrees>
            </Position>
            <AltitudeMeters>1343.4000244140625</AltitudeMeters>
            <DistanceMeters>NAN</DistanceMeters>
          </Trackpoint>
          <Trackpoint>
            <Time>2021-04-01T12:31:30.000Z</Time>
            <Position>
              <LatitudeDegrees>42.41727218963205814361572265625</LatitudeDegrees>
              <LongitudeDegrees>2.711794786155223846435546875</LongitudeDegrees>
            </Position>
            <AltitudeMeters>1343.199951171875</AltitudeMeters>
            <DistanceMeters>NAN</DistanceMeters>
          </Trackpoint>
          <Trackpoint>
            <Time>2021-04-01T12:31:32.000Z</Time>
            <Position>
              <LatitudeDegrees>42.4172588624060153961181640625</LatitudeDegrees>
              <LongitudeDegrees>2.7117983065545558929443359375</LongitudeDegrees>
            </Position>
            <AltitudeMeters>1343</AltitudeMeters>
            <DistanceMeters>NAN</DistanceMeters>
          </Trackpoint>
          <Trackpoint>
            <Time>2021-04-01T12:31:35.000Z</Time>
            <Position>
              <LatitudeDegrees>42.41725274361670017242431640625</LatitudeDegrees>
              <LongitudeDegrees>2.711773999035358428955078125</LongitudeDegrees>
            </Position>
            <AltitudeMeters>1342.5999755859375</AltitudeMeters>
            <DistanceMeters>NAN</DistanceMeters>
          </Trackpoint>
          <Trackpoint>
            <Time>2021-04-01T12:31:36.000Z</Time>
            <Position>
              <LatitudeDegrees>42.41724888794124126434326171875</LatitudeDegrees>
              <LongitudeDegrees>2.71176762878894805908203125</LongitudeDegrees>
            </Position>
            <AltitudeMeters>1342.4000244140625</AltitudeMeters>
            <DistanceMeters>NAN</DistanceMeters>
          </Trackpoint>
          <Trackpoint>
            <Time>2021-04-01T12:31:39.000Z</Time>
            <Position>
              <LatitudeDegrees>42.41722625680267810821533203125</LatitudeDegrees>
              <LongitudeDegrees>2.711761929094791412353515625</LongitudeDegrees>
            </Position>
            <AltitudeMeters>1341.800048828125</AltitudeMeters>
            <DistanceMeters>NAN</DistanceMeters>
          </Trackpoint>
          <Trackpoint>
            <Time>2021-04-01T12:31:40.000Z</Time>
            <Position>
              <LatitudeDegrees>42.41721904836595058441162109375</LatitudeDegrees>
              <LongitudeDegrees>2.7117570675909519195556640625</LongitudeDegrees>
            </Position>
            <AltitudeMeters>1341.5999755859375</AltitudeMeters>
            <DistanceMeters>NAN</DistanceMeters>
          </Trackpoint>
          <Trackpoint>
            <Time>2021-04-01T12:31:41.000Z</Time>
            <Position>
              <LatitudeDegrees>42.4172082357108592987060546875</LatitudeDegrees>
              <LongitudeDegrees>2.71175664849579334259033203125</LongitudeDegrees>
            </Position>
            <AltitudeMeters>1341.4000244140625</AltitudeMeters>
            <DistanceMeters>NAN</DistanceMeters>
          </Trackpoint>
          <Trackpoint>
            <Time>2021-04-01T12:31:43.000Z</Time>
            <Position>
              <LatitudeDegrees>42.41718870587646961212158203125</LatitudeDegrees>
              <LongitudeDegrees>2.7117570675909519195556640625</LongitudeDegrees>
            </Position>
            <AltitudeMeters>1341</AltitudeMeters>
            <DistanceMeters>NAN</DistanceMeters>
          </Trackpoint>
          <Trackpoint>
            <Time>2021-04-01T12:31:45.000Z</Time>
            <Position>
              <LatitudeDegrees>42.41717177443206310272216796875</LatitudeDegrees>
              <LongitudeDegrees>2.711745835840702056884765625</LongitudeDegrees>
            </Position>
            <AltitudeMeters>1340.4000244140625</AltitudeMeters>
            <DistanceMeters>NAN</DistanceMeters>
          </Trackpoint>
          <Trackpoint>
            <Time>2021-04-01T12:31:47.000Z</Time>
            <Position>
              <LatitudeDegrees>42.41715434007346630096435546875</LatitudeDegrees>
              <LongitudeDegrees>2.71172781474888324737548828125</LongitudeDegrees>
            </Position>
            <AltitudeMeters>1340.199951171875</AltitudeMeters>
            <DistanceMeters>NAN</DistanceMeters>
          </Trackpoint>
          <Trackpoint>
            <Time>2021-04-01T12:31:49.000Z</Time>
            <Position>
              <LatitudeDegrees>42.4171411804854869842529296875</LatitudeDegrees>
              <LongitudeDegrees>2.71171842701733112335205078125</LongitudeDegrees>
            </Position>
            <AltitudeMeters>1340.199951171875</AltitudeMeters>
            <DistanceMeters>NAN</DistanceMeters>
          </Trackpoint>
          <Trackpoint>
            <Time>2021-04-01T12:31:51.000Z</Time>
            <Position>
              <LatitudeDegrees>42.417128272354602813720703125</LatitudeDegrees>
              <LongitudeDegrees>2.711709626019001007080078125</LongitudeDegrees>
            </Position>
            <AltitudeMeters>1339.5999755859375</AltitudeMeters>
            <DistanceMeters>NAN</DistanceMeters>
          </Trackpoint>
          <Trackpoint>
            <Time>2021-04-01T12:31:52.000Z</Time>
            <Position>
              <LatitudeDegrees>42.41711561568081378936767578125</LatitudeDegrees>
              <LongitudeDegrees>2.7117148227989673614501953125</LongitudeDegrees>
            </Position>
            <AltitudeMeters>1339.4000244140625</AltitudeMeters>
            <DistanceMeters>NAN</DistanceMeters>
          </Trackpoint>
          <Trackpoint>
            <Time>2021-04-01T12:31:53.000Z</Time>
            <Position>
              <LatitudeDegrees>42.41710572503507137298583984375</LatitudeDegrees>
              <LongitudeDegrees>2.71171825937926769256591796875</LongitudeDegrees>
            </Position>
            <AltitudeMeters>1339</AltitudeMeters>
            <DistanceMeters>NAN</DistanceMeters>
          </Trackpoint>
          <Trackpoint>
            <Time>2021-04-01T12:31:54.000Z</Time>
            <Position>
              <LatitudeDegrees>42.41709600202739238739013671875</LatitudeDegrees>
              <LongitudeDegrees>2.71172060631215572357177734375</LongitudeDegrees>
            </Position>
            <AltitudeMeters>1338.800048828125</AltitudeMeters>
            <DistanceMeters>NAN</DistanceMeters>
          </Trackpoint>
          <Trackpoint>
            <Time>2021-04-01T12:31:56.000Z</Time>
            <Position>
              <LatitudeDegrees>42.41708762012422084808349609375</LatitudeDegrees>
              <LongitudeDegrees>2.7117191813886165618896484375</LongitudeDegrees>
            </Position>
            <AltitudeMeters>1338.4000244140625</AltitudeMeters>
            <DistanceMeters>NAN</DistanceMeters>
          </Trackpoint>
          <Trackpoint>
            <Time>2021-04-01T12:31:58.000Z</Time>
            <Position>
              <LatitudeDegrees>42.41707202978432178497314453125</LatitudeDegrees>
              <LongitudeDegrees>2.7117081172764301300048828125</LongitudeDegrees>
            </Position>
            <AltitudeMeters>1338</AltitudeMeters>
            <DistanceMeters>NAN</DistanceMeters>
          </Trackpoint>
          <Trackpoint>
            <Time>2021-04-01T12:31:59.000Z</Time>
            <Position>
              <LatitudeDegrees>42.41707052104175090789794921875</LatitudeDegrees>
              <LongitudeDegrees>2.71169696934521198272705078125</LongitudeDegrees>
            </Position>
            <AltitudeMeters>1337.800048828125</AltitudeMeters>
            <DistanceMeters>NAN</DistanceMeters>
          </Trackpoint>
          <Trackpoint>
            <Time>2021-04-01T12:32:01.000Z</Time>
            <Position>
              <LatitudeDegrees>42.4170771427452564239501953125</LatitudeDegrees>
              <LongitudeDegrees>2.71166830323636531829833984375</LongitudeDegrees>
            </Position>
            <AltitudeMeters>1337.5999755859375</AltitudeMeters>
            <DistanceMeters>NAN</DistanceMeters>
          </Trackpoint>
          <Trackpoint>
            <Time>2021-04-01T12:32:05.000Z</Time>
            <Position>
              <LatitudeDegrees>42.41709449328482151031494140625</LatitudeDegrees>
              <LongitudeDegrees>2.7116256393492221832275390625</LongitudeDegrees>
            </Position>
            <AltitudeMeters>1336.800048828125</AltitudeMeters>
            <DistanceMeters>NAN</DistanceMeters>
          </Trackpoint>
          <Trackpoint>
            <Time>2021-04-01T12:32:07.000Z</Time>
            <Position>
              <LatitudeDegrees>42.41709264926612377166748046875</LatitudeDegrees>
              <LongitudeDegrees>2.71160577423870563507080078125</LongitudeDegrees>
            </Position>
            <AltitudeMeters>1336.5999755859375</AltitudeMeters>
            <DistanceMeters>NAN</DistanceMeters>
          </Trackpoint>
          <Trackpoint>
            <Time>2021-04-01T12:32:10.000Z</Time>
            <Position>
              <LatitudeDegrees>42.4170863628387451171875</LatitudeDegrees>
              <LongitudeDegrees>2.71157861687242984771728515625</LongitudeDegrees>
            </Position>
            <AltitudeMeters>1336.199951171875</AltitudeMeters>
            <DistanceMeters>NAN</DistanceMeters>
          </Trackpoint>
          <Trackpoint>
            <Time>2021-04-01T12:32:11.000Z</Time>
            <Position>
              <LatitudeDegrees>42.417087368667125701904296875</LatitudeDegrees>
              <LongitudeDegrees>2.7115642838180065155029296875</LongitudeDegrees>
            </Position>
            <AltitudeMeters>1336</AltitudeMeters>
            <DistanceMeters>NAN</DistanceMeters>
          </Trackpoint>
          <Trackpoint>
            <Time>2021-04-01T12:32:13.000Z</Time>
            <Position>
              <LatitudeDegrees>42.41707588545978069305419921875</LatitudeDegrees>
              <LongitudeDegrees>2.71154559217393398284912109375</LongitudeDegrees>
            </Position>
            <AltitudeMeters>1335.5999755859375</AltitudeMeters>
            <DistanceMeters>NAN</DistanceMeters>
          </Trackpoint>
          <Trackpoint>
            <Time>2021-04-01T12:32:14.000Z</Time>
            <Position>
              <LatitudeDegrees>42.41706850938498973846435546875</LatitudeDegrees>
              <LongitudeDegrees>2.71154324524104595184326171875</LongitudeDegrees>
            </Position>
            <AltitudeMeters>1335.5999755859375</AltitudeMeters>
            <DistanceMeters>NAN</DistanceMeters>
          </Trackpoint>
          <Trackpoint>
            <Time>2021-04-01T12:32:18.000Z</Time>
            <Position>
              <LatitudeDegrees>42.41703414358198642730712890625</LatitudeDegrees>
              <LongitudeDegrees>2.71151910535991191864013671875</LongitudeDegrees>
            </Position>
            <AltitudeMeters>1335.199951171875</AltitudeMeters>
            <DistanceMeters>NAN</DistanceMeters>
          </Trackpoint>
          <Trackpoint>
            <Time>2021-04-01T12:32:20.000Z</Time>
            <Position>
              <LatitudeDegrees>42.4170218221843242645263671875</LatitudeDegrees>
              <LongitudeDegrees>2.7115025930106639862060546875</LongitudeDegrees>
            </Position>
            <AltitudeMeters>1335</AltitudeMeters>
            <DistanceMeters>NAN</DistanceMeters>
          </Trackpoint>
          <Trackpoint>
            <Time>2021-04-01T12:32:25.000Z</Time>
            <Position>
              <LatitudeDegrees>42.417015619575977325439453125</LatitudeDegrees>
              <LongitudeDegrees>2.71144651807844638824462890625</LongitudeDegrees>
            </Position>
            <AltitudeMeters>1334.800048828125</AltitudeMeters>
            <DistanceMeters>NAN</DistanceMeters>
          </Trackpoint>
          <Trackpoint>
            <Time>2021-04-01T12:32:28.000Z</Time>
            <Position>
              <LatitudeDegrees>42.41699776612222194671630859375</LatitudeDegrees>
              <LongitudeDegrees>2.7114221267402172088623046875</LongitudeDegrees>
            </Position>
            <AltitudeMeters>1334.199951171875</AltitudeMeters>
            <DistanceMeters>NAN</DistanceMeters>
          </Trackpoint>
          <Trackpoint>
            <Time>2021-04-01T12:32:32.000Z</Time>
            <Position>
              <LatitudeDegrees>42.416970692574977874755859375</LatitudeDegrees>
              <LongitudeDegrees>2.7114164270460605621337890625</LongitudeDegrees>
            </Position>
            <AltitudeMeters>1334</AltitudeMeters>
            <DistanceMeters>NAN</DistanceMeters>
          </Trackpoint>
          <Trackpoint>
            <Time>2021-04-01T12:32:35.000Z</Time>
            <Position>
              <LatitudeDegrees>42.41695292294025421142578125</LatitudeDegrees>
              <LongitudeDegrees>2.71139287389814853668212890625</LongitudeDegrees>
            </Position>
            <AltitudeMeters>1334.5999755859375</AltitudeMeters>
            <DistanceMeters>NAN</DistanceMeters>
          </Trackpoint>
          <Trackpoint>
            <Time>2021-04-01T12:32:36.000Z</Time>
            <Position>
              <LatitudeDegrees>42.41694311611354351043701171875</LatitudeDegrees>
              <LongitudeDegrees>2.7113882638514041900634765625</LongitudeDegrees>
            </Position>
            <AltitudeMeters>1334.800048828125</AltitudeMeters>
            <DistanceMeters>NAN</DistanceMeters>
          </Trackpoint>
          <Trackpoint>
            <Time>2021-04-01T12:32:40.000Z</Time>
            <Position>
              <LatitudeDegrees>42.41690942086279392242431640625</LatitudeDegrees>
              <LongitudeDegrees>2.7113755233585834503173828125</LongitudeDegrees>
            </Position>
            <AltitudeMeters>1335.4000244140625</AltitudeMeters>
            <DistanceMeters>NAN</DistanceMeters>
          </Trackpoint>
          <Trackpoint>
            <Time>2021-04-01T12:32:41.000Z</Time>
            <Position>
              <LatitudeDegrees>42.416900955140590667724609375</LatitudeDegrees>
              <LongitudeDegrees>2.7113725058734416961669921875</LongitudeDegrees>
            </Position>
            <AltitudeMeters>1335.4000244140625</AltitudeMeters>
            <DistanceMeters>NAN</DistanceMeters>
          </Trackpoint>
          <Trackpoint>
            <Time>2021-04-01T12:32:47.000Z</Time>
            <Position>
              <LatitudeDegrees>42.4168568663299083709716796875</LatitudeDegrees>
              <LongitudeDegrees>2.71133973263204097747802734375</LongitudeDegrees>
            </Position>
            <AltitudeMeters>1335.5999755859375</AltitudeMeters>
            <DistanceMeters>NAN</DistanceMeters>
          </Trackpoint>
          <Trackpoint>
            <Time>2021-04-01T12:32:48.000Z</Time>
            <Position>
              <LatitudeDegrees>42.4168491549789905548095703125</LatitudeDegrees>
              <LongitudeDegrees>2.7113332785665988922119140625</LongitudeDegrees>
            </Position>
            <AltitudeMeters>1335.800048828125</AltitudeMeters>
            <DistanceMeters>NAN</DistanceMeters>
          </Trackpoint>
          <Trackpoint>
            <Time>2021-04-01T12:32:49.000Z</Time>
            <Position>
              <LatitudeDegrees>42.41684387437999248504638671875</LatitudeDegrees>
              <LongitudeDegrees>2.71132481284439563751220703125</LongitudeDegrees>
            </Position>
            <AltitudeMeters>1335.800048828125</AltitudeMeters>
            <DistanceMeters>NAN</DistanceMeters>
          </Trackpoint>
          <Trackpoint>
            <Time>2021-04-01T12:32:52.000Z</Time>
            <Position>
              <LatitudeDegrees>42.41682677529752254486083984375</LatitudeDegrees>
              <LongitudeDegrees>2.711297236382961273193359375</LongitudeDegrees>
            </Position>
            <AltitudeMeters>1335.800048828125</AltitudeMeters>
            <DistanceMeters>NAN</DistanceMeters>
          </Trackpoint>
          <Trackpoint>
            <Time>2021-04-01T12:32:54.000Z</Time>
            <Position>
              <LatitudeDegrees>42.4168166331946849822998046875</LatitudeDegrees>
              <LongitudeDegrees>2.71128860302269458770751953125</LongitudeDegrees>
            </Position>
            <AltitudeMeters>1336</AltitudeMeters>
            <DistanceMeters>NAN</DistanceMeters>
          </Trackpoint>
          <Trackpoint>
            <Time>2021-04-01T12:32:57.000Z</Time>
            <Position>
              <LatitudeDegrees>42.4167998693883419036865234375</LatitudeDegrees>
              <LongitudeDegrees>2.711277790367603302001953125</LongitudeDegrees>
            </Position>
            <AltitudeMeters>1336.4000244140625</AltitudeMeters>
            <DistanceMeters>NAN</DistanceMeters>
          </Trackpoint>
          <Trackpoint>
            <Time>2021-04-01T12:32:58.000Z</Time>
            <Position>
              <LatitudeDegrees>42.41679475642740726470947265625</LatitudeDegrees>
              <LongitudeDegrees>2.71127410233020782470703125</LongitudeDegrees>
            </Position>
            <AltitudeMeters>1336.4000244140625</AltitudeMeters>
            <DistanceMeters>NAN</DistanceMeters>
          </Trackpoint>
          <Trackpoint>
            <Time>2021-04-01T12:32:59.000Z</Time>
            <Position>
              <LatitudeDegrees>42.4167904816567897796630859375</LatitudeDegrees>
              <LongitudeDegrees>2.7112729288637638092041015625</LongitudeDegrees>
            </Position>
            <AltitudeMeters>1336.5999755859375</AltitudeMeters>
            <DistanceMeters>NAN</DistanceMeters>
          </Trackpoint>
          <Trackpoint>
            <Time>2021-04-01T12:33:01.000Z</Time>
            <Position>
              <LatitudeDegrees>42.41678101010620594024658203125</LatitudeDegrees>
              <LongitudeDegrees>2.71126798354089260101318359375</LongitudeDegrees>
            </Position>
            <AltitudeMeters>1337</AltitudeMeters>
            <DistanceMeters>NAN</DistanceMeters>
          </Trackpoint>
          <Trackpoint>
            <Time>2021-04-01T12:33:02.000Z</Time>
            <Position>
              <LatitudeDegrees>42.4167765676975250244140625</LatitudeDegrees>
              <LongitudeDegrees>2.7112648822367191314697265625</LongitudeDegrees>
            </Position>
            <AltitudeMeters>1337.199951171875</AltitudeMeters>
            <DistanceMeters>NAN</DistanceMeters>
          </Trackpoint>
          <Trackpoint>
            <Time>2021-04-01T12:33:04.000Z</Time>
            <Position>
              <LatitudeDegrees>42.41676223464310169219970703125</LatitudeDegrees>
              <LongitudeDegrees>2.71126111038029193878173828125</LongitudeDegrees>
            </Position>
            <AltitudeMeters>1337.4000244140625</AltitudeMeters>
            <DistanceMeters>NAN</DistanceMeters>
          </Trackpoint>
          <Trackpoint>
            <Time>2021-04-01T12:33:06.000Z</Time>
            <Position>
              <LatitudeDegrees>42.41674882359802722930908203125</LatitudeDegrees>
              <LongitudeDegrees>2.711251638829708099365234375</LongitudeDegrees>
            </Position>
            <AltitudeMeters>1337.800048828125</AltitudeMeters>
            <DistanceMeters>NAN</DistanceMeters>
          </Trackpoint>
          <Trackpoint>
            <Time>2021-04-01T12:33:13.000Z</Time>
            <Position>
              <LatitudeDegrees>42.4167197383940219879150390625</LatitudeDegrees>
              <LongitudeDegrees>2.71120159886777400970458984375</LongitudeDegrees>
            </Position>
            <AltitudeMeters>1338.800048828125</AltitudeMeters>
            <DistanceMeters>NAN</DistanceMeters>
          </Trackpoint>
          <Trackpoint>
            <Time>2021-04-01T12:33:14.000Z</Time>
            <Position>
              <LatitudeDegrees>42.416715882718563079833984375</LatitudeDegrees>
              <LongitudeDegrees>2.71119506098330020904541015625</LongitudeDegrees>
            </Position>
            <AltitudeMeters>1339</AltitudeMeters>
            <DistanceMeters>NAN</DistanceMeters>
          </Trackpoint>
          <Trackpoint>
            <Time>2021-04-01T12:33:16.000Z</Time>
            <Position>
              <LatitudeDegrees>42.4167093448340892791748046875</LatitudeDegrees>
              <LongitudeDegrees>2.71118164993822574615478515625</LongitudeDegrees>
            </Position>
            <AltitudeMeters>1339</AltitudeMeters>
            <DistanceMeters>NAN</DistanceMeters>
          </Trackpoint>
          <Trackpoint>
            <Time>2021-04-01T12:33:17.000Z</Time>
            <Position>
              <LatitudeDegrees>42.4167096801102161407470703125</LatitudeDegrees>
              <LongitudeDegrees>2.71117360331118106842041015625</LongitudeDegrees>
            </Position>
            <AltitudeMeters>1339</AltitudeMeters>
            <DistanceMeters>NAN</DistanceMeters>
          </Trackpoint>
          <Trackpoint>
            <Time>2021-04-01T12:33:22.000Z</Time>
            <Position>
              <LatitudeDegrees>42.416702806949615478515625</LatitudeDegrees>
              <LongitudeDegrees>2.711149044334888458251953125</LongitudeDegrees>
            </Position>
            <AltitudeMeters>1339.199951171875</AltitudeMeters>
            <DistanceMeters>NAN</DistanceMeters>
          </Trackpoint>
          <Trackpoint>
            <Time>2021-04-01T12:33:25.000Z</Time>
            <Position>
              <LatitudeDegrees>42.41668662987649440765380859375</LatitudeDegrees>
              <LongitudeDegrees>2.711120881140232086181640625</LongitudeDegrees>
            </Position>
            <AltitudeMeters>1339</AltitudeMeters>
            <DistanceMeters>NAN</DistanceMeters>
          </Trackpoint>
          <Trackpoint>
            <Time>2021-04-01T12:33:30.000Z</Time>
            <Position>
              <LatitudeDegrees>42.416664250195026397705078125</LatitudeDegrees>
              <LongitudeDegrees>2.7110727690160274505615234375</LongitudeDegrees>
            </Position>
            <AltitudeMeters>1338.800048828125</AltitudeMeters>
            <DistanceMeters>NAN</DistanceMeters>
          </Trackpoint>
          <Trackpoint>
            <Time>2021-04-01T12:33:39.000Z</Time>
            <Position>
              <LatitudeDegrees>42.4165966920554637908935546875</LatitudeDegrees>
              <LongitudeDegrees>2.71100579760968685150146484375</LongitudeDegrees>
            </Position>
            <AltitudeMeters>1338.800048828125</AltitudeMeters>
            <DistanceMeters>NAN</DistanceMeters>
          </Trackpoint>
          <Trackpoint>
            <Time>2021-04-01T12:33:47.000Z</Time>
            <Position>
              <LatitudeDegrees>42.41656391881406307220458984375</LatitudeDegrees>
              <LongitudeDegrees>2.71093958057463169097900390625</LongitudeDegrees>
            </Position>
            <AltitudeMeters>1339.199951171875</AltitudeMeters>
            <DistanceMeters>NAN</DistanceMeters>
          </Trackpoint>
          <Trackpoint>
            <Time>2021-04-01T12:33:55.000Z</Time>
            <Position>
              <LatitudeDegrees>42.41651882417500019073486328125</LatitudeDegrees>
              <LongitudeDegrees>2.71088073961436748504638671875</LongitudeDegrees>
            </Position>
            <AltitudeMeters>1339.800048828125</AltitudeMeters>
            <DistanceMeters>NAN</DistanceMeters>
          </Trackpoint>
          <Trackpoint>
            <Time>2021-04-01T12:33:57.000Z</Time>
            <Position>
              <LatitudeDegrees>42.41651463322341442108154296875</LatitudeDegrees>
              <LongitudeDegrees>2.7108612097799777984619140625</LongitudeDegrees>
            </Position>
            <AltitudeMeters>1340</AltitudeMeters>
            <DistanceMeters>NAN</DistanceMeters>
          </Trackpoint>
          <Trackpoint>
            <Time>2021-04-01T12:34:05.000Z</Time>
            <Position>
              <LatitudeDegrees>42.4164917506277561187744140625</LatitudeDegrees>
              <LongitudeDegrees>2.7108001895248889923095703125</LongitudeDegrees>
            </Position>
            <AltitudeMeters>1340</AltitudeMeters>
            <DistanceMeters>NAN</DistanceMeters>
          </Trackpoint>
          <Trackpoint>
            <Time>2021-04-01T12:34:10.000Z</Time>
            <Position>
              <LatitudeDegrees>42.41648563183844089508056640625</LatitudeDegrees>
              <LongitudeDegrees>2.710748724639415740966796875</LongitudeDegrees>
            </Position>
            <AltitudeMeters>1339</AltitudeMeters>
            <DistanceMeters>NAN</DistanceMeters>
          </Trackpoint>
          <Trackpoint>
            <Time>2021-04-01T12:34:11.000Z</Time>
            <Position>
              <LatitudeDegrees>42.41648613475263118743896484375</LatitudeDegrees>
              <LongitudeDegrees>2.710747383534908294677734375</LongitudeDegrees>
            </Position>
            <AltitudeMeters>1338.5999755859375</AltitudeMeters>
            <DistanceMeters>NAN</DistanceMeters>
          </Trackpoint>
          <Trackpoint>
            <Time>2021-04-01T12:34:12.000Z</Time>
            <Position>
              <LatitudeDegrees>42.41648730821907520294189453125</LatitudeDegrees>
              <LongitudeDegrees>2.71074880845844745635986328125</LongitudeDegrees>
            </Position>
            <AltitudeMeters>1338.4000244140625</AltitudeMeters>
            <DistanceMeters>NAN</DistanceMeters>
          </Trackpoint>
          <Trackpoint>
            <Time>2021-04-01T12:34:21.000Z</Time>
            <Position>
              <LatitudeDegrees>42.41648362018167972564697265625</LatitudeDegrees>
              <LongitudeDegrees>2.71075886674225330352783203125</LongitudeDegrees>
            </Position>
            <AltitudeMeters>1338.199951171875</AltitudeMeters>
            <DistanceMeters>NAN</DistanceMeters>
          </Trackpoint>
          <Trackpoint>
            <Time>2021-04-01T12:34:28.000Z</Time>
            <Position>
              <LatitudeDegrees>42.4164776690304279327392578125</LatitudeDegrees>
              <LongitudeDegrees>2.71073271520435810089111328125</LongitudeDegrees>
            </Position>
            <AltitudeMeters>1337.199951171875</AltitudeMeters>
            <DistanceMeters>NAN</DistanceMeters>
          </Trackpoint>
          <Trackpoint>
            <Time>2021-04-01T12:34:29.000Z</Time>
            <Position>
              <LatitudeDegrees>42.41647372953593730926513671875</LatitudeDegrees>
              <LongitudeDegrees>2.710713855922222137451171875</LongitudeDegrees>
            </Position>
            <AltitudeMeters>1336.800048828125</AltitudeMeters>
            <DistanceMeters>NAN</DistanceMeters>
          </Trackpoint>
          <Trackpoint>
            <Time>2021-04-01T12:34:31.000Z</Time>
            <Position>
              <LatitudeDegrees>42.41645746864378452301025390625</LatitudeDegrees>
              <LongitudeDegrees>2.71068074740469455718994140625</LongitudeDegrees>
            </Position>
            <AltitudeMeters>1336.4000244140625</AltitudeMeters>
            <DistanceMeters>NAN</DistanceMeters>
          </Trackpoint>
          <Trackpoint>
            <Time>2021-04-01T12:34:32.000Z</Time>
            <Position>
              <LatitudeDegrees>42.41645093075931072235107421875</LatitudeDegrees>
              <LongitudeDegrees>2.71066549234092235565185546875</LongitudeDegrees>
            </Position>
            <AltitudeMeters>1336.199951171875</AltitudeMeters>
            <DistanceMeters>NAN</DistanceMeters>
          </Trackpoint>
          <Trackpoint>
            <Time>2021-04-01T12:34:35.000Z</Time>
            <Position>
              <LatitudeDegrees>42.41643081419169902801513671875</LatitudeDegrees>
              <LongitudeDegrees>2.7106147818267345428466796875</LongitudeDegrees>
            </Position>
            <AltitudeMeters>1336.199951171875</AltitudeMeters>
            <DistanceMeters>NAN</DistanceMeters>
          </Trackpoint>
          <Trackpoint>
            <Time>2021-04-01T12:34:37.000Z</Time>
            <Position>
              <LatitudeDegrees>42.41642796434462070465087890625</LatitudeDegrees>
              <LongitudeDegrees>2.710591815412044525146484375</LongitudeDegrees>
            </Position>
            <AltitudeMeters>1336.199951171875</AltitudeMeters>
            <DistanceMeters>NAN</DistanceMeters>
          </Trackpoint>
          <Trackpoint>
            <Time>2021-04-01T12:34:41.000Z</Time>
            <Position>
              <LatitudeDegrees>42.41641539148986339569091796875</LatitudeDegrees>
              <LongitudeDegrees>2.710551582276821136474609375</LongitudeDegrees>
            </Position>
            <AltitudeMeters>1335.800048828125</AltitudeMeters>
            <DistanceMeters>NAN</DistanceMeters>
          </Trackpoint>
          <Trackpoint>
            <Time>2021-04-01T12:34:44.000Z</Time>
            <Position>
              <LatitudeDegrees>42.4164055846631526947021484375</LatitudeDegrees>
              <LongitudeDegrees>2.71051612682640552520751953125</LongitudeDegrees>
            </Position>
            <AltitudeMeters>1335.4000244140625</AltitudeMeters>
            <DistanceMeters>NAN</DistanceMeters>
          </Trackpoint>
          <Trackpoint>
            <Time>2021-04-01T12:34:46.000Z</Time>
            <Position>
              <LatitudeDegrees>42.41639426909387111663818359375</LatitudeDegrees>
              <LongitudeDegrees>2.71049366332590579986572265625</LongitudeDegrees>
            </Position>
            <AltitudeMeters>1335.199951171875</AltitudeMeters>
            <DistanceMeters>NAN</DistanceMeters>
          </Trackpoint>
          <Trackpoint>
            <Time>2021-04-01T12:34:48.000Z</Time>
            <Position>
              <LatitudeDegrees>42.41638697683811187744140625</LatitudeDegrees>
              <LongitudeDegrees>2.71046700887382030487060546875</LongitudeDegrees>
            </Position>
            <AltitudeMeters>1335</AltitudeMeters>
            <DistanceMeters>NAN</DistanceMeters>
          </Trackpoint>
          <Trackpoint>
            <Time>2021-04-01T12:34:51.000Z</Time>
            <Position>
              <LatitudeDegrees>42.41637499071657657623291015625</LatitudeDegrees>
              <LongitudeDegrees>2.71042426116764545440673828125</LongitudeDegrees>
            </Position>
            <AltitudeMeters>1334.800048828125</AltitudeMeters>
            <DistanceMeters>NAN</DistanceMeters>
          </Trackpoint>
          <Trackpoint>
            <Time>2021-04-01T12:34:52.000Z</Time>
            <Position>
              <LatitudeDegrees>42.4163720570504665374755859375</LatitudeDegrees>
              <LongitudeDegrees>2.71041101776063442230224609375</LongitudeDegrees>
            </Position>
            <AltitudeMeters>1334.800048828125</AltitudeMeters>
            <DistanceMeters>NAN</DistanceMeters>
          </Trackpoint>
          <Trackpoint>
            <Time>2021-04-01T12:35:00.000Z</Time>
            <Position>
              <LatitudeDegrees>42.4163418821990489959716796875</LatitudeDegrees>
              <LongitudeDegrees>2.710329629480838775634765625</LongitudeDegrees>
            </Position>
            <AltitudeMeters>1334.5999755859375</AltitudeMeters>
            <DistanceMeters>NAN</DistanceMeters>
          </Trackpoint>
          <Trackpoint>
            <Time>2021-04-01T12:35:09.000Z</Time>
            <Position>
              <LatitudeDegrees>42.41633207537233829498291015625</LatitudeDegrees>
              <LongitudeDegrees>2.71021404303610324859619140625</LongitudeDegrees>
            </Position>
            <AltitudeMeters>1334.5999755859375</AltitudeMeters>
            <DistanceMeters>NAN</DistanceMeters>
          </Trackpoint>
          <Trackpoint>
            <Time>2021-04-01T12:35:14.000Z</Time>
            <Position>
              <LatitudeDegrees>42.4163318239152431488037109375</LatitudeDegrees>
              <LongitudeDegrees>2.710139192640781402587890625</LongitudeDegrees>
            </Position>
            <AltitudeMeters>1334.199951171875</AltitudeMeters>
            <DistanceMeters>NAN</DistanceMeters>
          </Trackpoint>
          <Trackpoint>
            <Time>2021-04-01T12:35:17.000Z</Time>
            <Position>
              <LatitudeDegrees>42.4163247831165790557861328125</LatitudeDegrees>
              <LongitudeDegrees>2.7101111970841884613037109375</LongitudeDegrees>
            </Position>
            <AltitudeMeters>1334</AltitudeMeters>
            <DistanceMeters>NAN</DistanceMeters>
          </Trackpoint>
          <Trackpoint>
            <Time>2021-04-01T12:35:19.000Z</Time>
            <Position>
              <LatitudeDegrees>42.41632939316332340240478515625</LatitudeDegrees>
              <LongitudeDegrees>2.71008345298469066619873046875</LongitudeDegrees>
            </Position>
            <AltitudeMeters>1334</AltitudeMeters>
            <DistanceMeters>NAN</DistanceMeters>
          </Trackpoint>
          <Trackpoint>
            <Time>2021-04-01T12:35:24.000Z</Time>
            <Position>
              <LatitudeDegrees>42.41633509285748004913330078125</LatitudeDegrees>
              <LongitudeDegrees>2.71002360619604587554931640625</LongitudeDegrees>
            </Position>
            <AltitudeMeters>1333.800048828125</AltitudeMeters>
            <DistanceMeters>NAN</DistanceMeters>
          </Trackpoint>
          <Trackpoint>
            <Time>2021-04-01T12:35:26.000Z</Time>
            <Position>
              <LatitudeDegrees>42.41633442230522632598876953125</LatitudeDegrees>
              <LongitudeDegrees>2.7100060880184173583984375</LongitudeDegrees>
            </Position>
            <AltitudeMeters>1333.5999755859375</AltitudeMeters>
            <DistanceMeters>NAN</DistanceMeters>
          </Trackpoint>
          <Trackpoint>
            <Time>2021-04-01T12:35:27.000Z</Time>
            <Position>
              <LatitudeDegrees>42.416335009038448333740234375</LatitudeDegrees>
              <LongitudeDegrees>2.7099982090294361114501953125</LongitudeDegrees>
            </Position>
            <AltitudeMeters>1333.5999755859375</AltitudeMeters>
            <DistanceMeters>NAN</DistanceMeters>
          </Trackpoint>
          <Trackpoint>
            <Time>2021-04-01T12:35:28.000Z</Time>
            <Position>
              <LatitudeDegrees>42.416336350142955780029296875</LatitudeDegrees>
              <LongitudeDegrees>2.70999527536332607269287109375</LongitudeDegrees>
            </Position>
            <AltitudeMeters>1333.5999755859375</AltitudeMeters>
            <DistanceMeters>NAN</DistanceMeters>
          </Trackpoint>
          <Trackpoint>
            <Time>2021-04-01T12:35:33.000Z</Time>
            <Position>
              <LatitudeDegrees>42.4163442291319370269775390625</LatitudeDegrees>
              <LongitudeDegrees>2.7099982090294361114501953125</LongitudeDegrees>
            </Position>
            <AltitudeMeters>1333.800048828125</AltitudeMeters>
            <DistanceMeters>NAN</DistanceMeters>
          </Trackpoint>
          <Trackpoint>
            <Time>2021-04-01T12:35:41.000Z</Time>
            <Position>
              <LatitudeDegrees>42.41633308120071887969970703125</LatitudeDegrees>
              <LongitudeDegrees>2.7100096084177494049072265625</LongitudeDegrees>
            </Position>
            <AltitudeMeters>1333.4000244140625</AltitudeMeters>
            <DistanceMeters>NAN</DistanceMeters>
          </Trackpoint>
          <Trackpoint>
            <Time>2021-04-01T12:35:42.000Z</Time>
            <Position>
              <LatitudeDegrees>42.41633308120071887969970703125</LatitudeDegrees>
              <LongitudeDegrees>2.7100096084177494049072265625</LongitudeDegrees>
            </Position>
            <AltitudeMeters>1333.4000244140625</AltitudeMeters>
            <DistanceMeters>NAN</DistanceMeters>
          </Trackpoint>
          <Trackpoint>
            <Time>2021-04-01T12:35:46.000Z</Time>
            <Position>
              <LatitudeDegrees>42.41633308120071887969970703125</LatitudeDegrees>
              <LongitudeDegrees>2.710008434951305389404296875</LongitudeDegrees>
            </Position>
            <AltitudeMeters>1333.5999755859375</AltitudeMeters>
            <DistanceMeters>NAN</DistanceMeters>
          </Trackpoint>
          <Trackpoint>
            <Time>2021-04-01T12:35:50.000Z</Time>
            <Position>
              <LatitudeDegrees>42.41633308120071887969970703125</LatitudeDegrees>
              <LongitudeDegrees>2.710001058876514434814453125</LongitudeDegrees>
            </Position>
            <AltitudeMeters>1334.4000244140625</AltitudeMeters>
            <DistanceMeters>NAN</DistanceMeters>
          </Trackpoint>
          <Trackpoint>
            <Time>2021-04-01T12:35:53.000Z</Time>
            <Position>
              <LatitudeDegrees>42.41633190773427486419677734375</LatitudeDegrees>
              <LongitudeDegrees>2.70999728702008724212646484375</LongitudeDegrees>
            </Position>
            <AltitudeMeters>1334.4000244140625</AltitudeMeters>
            <DistanceMeters>NAN</DistanceMeters>
          </Trackpoint>
          <Trackpoint>
            <Time>2021-04-01T12:36:02.000Z</Time>
            <Position>
              <LatitudeDegrees>42.4163264594972133636474609375</LatitudeDegrees>
              <LongitudeDegrees>2.70998957566916942596435546875</LongitudeDegrees>
            </Position>
            <AltitudeMeters>1335</AltitudeMeters>
            <DistanceMeters>NAN</DistanceMeters>
          </Trackpoint>
          <Trackpoint>
            <Time>2021-04-01T12:36:03.000Z</Time>
            <Position>
              <LatitudeDegrees>42.416323609650135040283203125</LatitudeDegrees>
              <LongitudeDegrees>2.70998932421207427978515625</LongitudeDegrees>
            </Position>
            <AltitudeMeters>1335</AltitudeMeters>
            <DistanceMeters>NAN</DistanceMeters>
          </Trackpoint>
          <Trackpoint>
            <Time>2021-04-01T12:36:04.000Z</Time>
            <Position>
              <LatitudeDegrees>42.41632285527884960174560546875</LatitudeDegrees>
              <LongitudeDegrees>2.709988653659820556640625</LongitudeDegrees>
            </Position>
            <AltitudeMeters>1335</AltitudeMeters>
            <DistanceMeters>NAN</DistanceMeters>
          </Trackpoint>
          <Trackpoint>
            <Time>2021-04-01T12:36:05.000Z</Time>
            <Position>
              <LatitudeDegrees>42.41632252000272274017333984375</LatitudeDegrees>
              <LongitudeDegrees>2.70998169668018817901611328125</LongitudeDegrees>
            </Position>
            <AltitudeMeters>1335.199951171875</AltitudeMeters>
            <DistanceMeters>NAN</DistanceMeters>
          </Trackpoint>
          <Trackpoint>
            <Time>2021-04-01T12:36:07.000Z</Time>
            <Position>
              <LatitudeDegrees>42.416321597993373870849609375</LatitudeDegrees>
              <LongitudeDegrees>2.7099703811109066009521484375</LongitudeDegrees>
            </Position>
            <AltitudeMeters>1335.4000244140625</AltitudeMeters>
            <DistanceMeters>NAN</DistanceMeters>
          </Trackpoint>
          <Trackpoint>
            <Time>2021-04-01T12:36:11.000Z</Time>
            <Position>
              <LatitudeDegrees>42.41631732322275638580322265625</LatitudeDegrees>
              <LongitudeDegrees>2.7099636755883693695068359375</LongitudeDegrees>
            </Position>
            <AltitudeMeters>1336.199951171875</AltitudeMeters>
            <DistanceMeters>NAN</DistanceMeters>
          </Trackpoint>
          <Trackpoint>
            <Time>2021-04-01T12:36:17.000Z</Time>
            <Position>
              <LatitudeDegrees>42.41630072705447673797607421875</LatitudeDegrees>
              <LongitudeDegrees>2.70994347520172595977783203125</LongitudeDegrees>
            </Position>
            <AltitudeMeters>1337.199951171875</AltitudeMeters>
            <DistanceMeters>NAN</DistanceMeters>
          </Trackpoint>
          <Trackpoint>
            <Time>2021-04-01T12:36:23.000Z</Time>
            <Position>
              <LatitudeDegrees>42.4162885732948780059814453125</LatitudeDegrees>
              <LongitudeDegrees>2.7099036611616611480712890625</LongitudeDegrees>
            </Position>
            <AltitudeMeters>1337.800048828125</AltitudeMeters>
            <DistanceMeters>NAN</DistanceMeters>
          </Trackpoint>
          <Trackpoint>
            <Time>2021-04-01T12:36:25.000Z</Time>
            <Position>
              <LatitudeDegrees>42.41628706455230712890625</LatitudeDegrees>
              <LongitudeDegrees>2.70988731645047664642333984375</LongitudeDegrees>
            </Position>
            <AltitudeMeters>1338</AltitudeMeters>
            <DistanceMeters>NAN</DistanceMeters>
          </Trackpoint>
          <Trackpoint>
            <Time>2021-04-01T12:36:26.000Z</Time>
            <Position>
              <LatitudeDegrees>42.41628639400005340576171875</LatitudeDegrees>
              <LongitudeDegrees>2.70988010801374912261962890625</LongitudeDegrees>
            </Position>
            <AltitudeMeters>1338</AltitudeMeters>
            <DistanceMeters>NAN</DistanceMeters>
          </Trackpoint>
          <Trackpoint>
            <Time>2021-04-01T12:36:28.000Z</Time>
            <Position>
              <LatitudeDegrees>42.41628580726683139801025390625</LatitudeDegrees>
              <LongitudeDegrees>2.70986619405448436737060546875</LongitudeDegrees>
            </Position>
            <AltitudeMeters>1338.199951171875</AltitudeMeters>
            <DistanceMeters>NAN</DistanceMeters>
          </Trackpoint>
          <Trackpoint>
            <Time>2021-04-01T12:36:30.000Z</Time>
            <Position>
              <LatitudeDegrees>42.416284047067165374755859375</LatitudeDegrees>
              <LongitudeDegrees>2.709853537380695343017578125</LongitudeDegrees>
            </Position>
            <AltitudeMeters>1338.4000244140625</AltitudeMeters>
            <DistanceMeters>NAN</DistanceMeters>
          </Trackpoint>
          <Trackpoint>
            <Time>2021-04-01T12:36:35.000Z</Time>
            <Position>
              <LatitudeDegrees>42.4162714742124080657958984375</LatitudeDegrees>
              <LongitudeDegrees>2.7098218537867069244384765625</LongitudeDegrees>
            </Position>
            <AltitudeMeters>1339.4000244140625</AltitudeMeters>
            <DistanceMeters>NAN</DistanceMeters>
          </Trackpoint>
          <Trackpoint>
            <Time>2021-04-01T12:36:38.000Z</Time>
            <Position>
              <LatitudeDegrees>42.416248507797718048095703125</LatitudeDegrees>
              <LongitudeDegrees>2.709770388901233673095703125</LongitudeDegrees>
            </Position>
            <AltitudeMeters>1340.199951171875</AltitudeMeters>
            <DistanceMeters>NAN</DistanceMeters>
          </Trackpoint>
          <Trackpoint>
            <Time>2021-04-01T12:36:40.000Z</Time>
            <Position>
              <LatitudeDegrees>42.41623953916132450103759765625</LatitudeDegrees>
              <LongitudeDegrees>2.709742225706577301025390625</LongitudeDegrees>
            </Position>
            <AltitudeMeters>1340.199951171875</AltitudeMeters>
            <DistanceMeters>NAN</DistanceMeters>
          </Trackpoint>
          <Trackpoint>
            <Time>2021-04-01T12:36:46.000Z</Time>
            <Position>
              <LatitudeDegrees>42.4162238650023937225341796875</LatitudeDegrees>
              <LongitudeDegrees>2.70965262316167354583740234375</LongitudeDegrees>
            </Position>
            <AltitudeMeters>1340</AltitudeMeters>
            <DistanceMeters>NAN</DistanceMeters>
          </Trackpoint>
          <Trackpoint>
            <Time>2021-04-01T12:36:54.000Z</Time>
            <Position>
              <LatitudeDegrees>42.41621933877468109130859375</LatitudeDegrees>
              <LongitudeDegrees>2.70957651548087596893310546875</LongitudeDegrees>
            </Position>
            <AltitudeMeters>1340</AltitudeMeters>
            <DistanceMeters>NAN</DistanceMeters>
          </Trackpoint>
          <Trackpoint>
            <Time>2021-04-01T12:36:59.000Z</Time>
            <Position>
              <LatitudeDegrees>42.41621472872793674468994140625</LatitudeDegrees>
              <LongitudeDegrees>2.7095259726047515869140625</LongitudeDegrees>
            </Position>
            <AltitudeMeters>1340.199951171875</AltitudeMeters>
            <DistanceMeters>NAN</DistanceMeters>
          </Trackpoint>
          <Trackpoint>
            <Time>2021-04-01T12:37:00.000Z</Time>
            <Position>
              <LatitudeDegrees>42.4162131361663341522216796875</LatitudeDegrees>
              <LongitudeDegrees>2.7095140703022480010986328125</LongitudeDegrees>
            </Position>
            <AltitudeMeters>1340.199951171875</AltitudeMeters>
            <DistanceMeters>NAN</DistanceMeters>
          </Trackpoint>
          <Trackpoint>
            <Time>2021-04-01T12:37:07.000Z</Time>
            <Position>
              <LatitudeDegrees>42.41622461937367916107177734375</LatitudeDegrees>
              <LongitudeDegrees>2.70946604199707508087158203125</LongitudeDegrees>
            </Position>
            <AltitudeMeters>1340.199951171875</AltitudeMeters>
            <DistanceMeters>NAN</DistanceMeters>
          </Trackpoint>
          <Trackpoint>
            <Time>2021-04-01T12:37:10.000Z</Time>
            <Position>
              <LatitudeDegrees>42.416224367916584014892578125</LatitudeDegrees>
              <LongitudeDegrees>2.7094466798007488250732421875</LongitudeDegrees>
            </Position>
            <AltitudeMeters>1340.4000244140625</AltitudeMeters>
            <DistanceMeters>NAN</DistanceMeters>
          </Trackpoint>
          <Trackpoint>
            <Time>2021-04-01T12:37:15.000Z</Time>
            <Position>
              <LatitudeDegrees>42.41621741093695163726806640625</LatitudeDegrees>
              <LongitudeDegrees>2.70938172005116939544677734375</LongitudeDegrees>
            </Position>
            <AltitudeMeters>1340.4000244140625</AltitudeMeters>
            <DistanceMeters>NAN</DistanceMeters>
          </Trackpoint>
          <Trackpoint>
            <Time>2021-04-01T12:37:21.000Z</Time>
            <Position>
              <LatitudeDegrees>42.416205592453479766845703125</LatitudeDegrees>
              <LongitudeDegrees>2.7093226276338100433349609375</LongitudeDegrees>
            </Position>
            <AltitudeMeters>1340.5999755859375</AltitudeMeters>
            <DistanceMeters>NAN</DistanceMeters>
          </Trackpoint>
          <Trackpoint>
            <Time>2021-04-01T12:37:23.000Z</Time>
            <Position>
              <LatitudeDegrees>42.41620249114930629730224609375</LatitudeDegrees>
              <LongitudeDegrees>2.709299661219120025634765625</LongitudeDegrees>
            </Position>
            <AltitudeMeters>1340.800048828125</AltitudeMeters>
            <DistanceMeters>NAN</DistanceMeters>
          </Trackpoint>
          <Trackpoint>
            <Time>2021-04-01T12:37:31.000Z</Time>
            <Position>
              <LatitudeDegrees>42.41618371568620204925537109375</LatitudeDegrees>
              <LongitudeDegrees>2.70921307615935802459716796875</LongitudeDegrees>
            </Position>
            <AltitudeMeters>1341.199951171875</AltitudeMeters>
            <DistanceMeters>NAN</DistanceMeters>
          </Trackpoint>
          <Trackpoint>
            <Time>2021-04-01T12:37:32.000Z</Time>
            <Position>
              <LatitudeDegrees>42.41618170402944087982177734375</LatitudeDegrees>
              <LongitudeDegrees>2.70920704118907451629638671875</LongitudeDegrees>
            </Position>
            <AltitudeMeters>1341.4000244140625</AltitudeMeters>
            <DistanceMeters>NAN</DistanceMeters>
          </Trackpoint>
          <Trackpoint>
            <Time>2021-04-01T12:37:33.000Z</Time>
            <Position>
              <LatitudeDegrees>42.41618170402944087982177734375</LatitudeDegrees>
              <LongitudeDegrees>2.7091992460191249847412109375</LongitudeDegrees>
            </Position>
            <AltitudeMeters>1341.4000244140625</AltitudeMeters>
            <DistanceMeters>NAN</DistanceMeters>
          </Trackpoint>
          <Trackpoint>
            <Time>2021-04-01T12:37:34.000Z</Time>
            <Position>
              <LatitudeDegrees>42.4161811172962188720703125</LatitudeDegrees>
              <LongitudeDegrees>2.70919161848723888397216796875</LongitudeDegrees>
            </Position>
            <AltitudeMeters>1341.5999755859375</AltitudeMeters>
            <DistanceMeters>NAN</DistanceMeters>
          </Trackpoint>
          <Trackpoint>
            <Time>2021-04-01T12:37:37.000Z</Time>
            <Position>
              <LatitudeDegrees>42.41617734543979167938232421875</LatitudeDegrees>
              <LongitudeDegrees>2.7091680653393268585205078125</LongitudeDegrees>
            </Position>
            <AltitudeMeters>1341.800048828125</AltitudeMeters>
            <DistanceMeters>NAN</DistanceMeters>
          </Trackpoint>
          <Trackpoint>
            <Time>2021-04-01T12:37:40.000Z</Time>
            <Position>
              <LatitudeDegrees>42.416182793676853179931640625</LatitudeDegrees>
              <LongitudeDegrees>2.709136717021465301513671875</LongitudeDegrees>
            </Position>
            <AltitudeMeters>1341.800048828125</AltitudeMeters>
            <DistanceMeters>NAN</DistanceMeters>
          </Trackpoint>
          <Trackpoint>
            <Time>2021-04-01T12:37:43.000Z</Time>
            <Position>
              <LatitudeDegrees>42.4161843024194240570068359375</LatitudeDegrees>
              <LongitudeDegrees>2.70909740589559078216552734375</LongitudeDegrees>
            </Position>
            <AltitudeMeters>1341.5999755859375</AltitudeMeters>
            <DistanceMeters>NAN</DistanceMeters>
          </Trackpoint>
          <Trackpoint>
            <Time>2021-04-01T12:37:46.000Z</Time>
            <Position>
              <LatitudeDegrees>42.41618539206683635711669921875</LatitudeDegrees>
              <LongitudeDegrees>2.70905683748424053192138671875</LongitudeDegrees>
            </Position>
            <AltitudeMeters>1341.4000244140625</AltitudeMeters>
            <DistanceMeters>NAN</DistanceMeters>
          </Trackpoint>
          <Trackpoint>
            <Time>2021-04-01T12:37:54.000Z</Time>
            <Position>
              <LatitudeDegrees>42.41614826023578643798828125</LatitudeDegrees>
              <LongitudeDegrees>2.7089789696037769317626953125</LongitudeDegrees>
            </Position>
            <AltitudeMeters>1341.5999755859375</AltitudeMeters>
            <DistanceMeters>NAN</DistanceMeters>
          </Trackpoint>
          <Trackpoint>
            <Time>2021-04-01T12:38:02.000Z</Time>
            <Position>
              <LatitudeDegrees>42.41610978730022907257080078125</LatitudeDegrees>
              <LongitudeDegrees>2.708900012075901031494140625</LongitudeDegrees>
            </Position>
            <AltitudeMeters>1341.800048828125</AltitudeMeters>
            <DistanceMeters>NAN</DistanceMeters>
          </Trackpoint>
          <Trackpoint>
            <Time>2021-04-01T12:38:06.000Z</Time>
            <Position>
              <LatitudeDegrees>42.4160921014845371246337890625</LatitudeDegrees>
              <LongitudeDegrees>2.70886723883450031280517578125</LongitudeDegrees>
            </Position>
            <AltitudeMeters>1341.5999755859375</AltitudeMeters>
            <DistanceMeters>NAN</DistanceMeters>
          </Trackpoint>
          <Trackpoint>
            <Time>2021-04-01T12:38:10.000Z</Time>
            <Position>
              <LatitudeDegrees>42.416072152554988861083984375</LatitudeDegrees>
              <LongitudeDegrees>2.70883404649794101715087890625</LongitudeDegrees>
            </Position>
            <AltitudeMeters>1341.5999755859375</AltitudeMeters>
            <DistanceMeters>NAN</DistanceMeters>
          </Trackpoint>
          <Trackpoint>
            <Time>2021-04-01T12:38:13.000Z</Time>
            <Position>
              <LatitudeDegrees>42.41606620140373706817626953125</LatitudeDegrees>
              <LongitudeDegrees>2.70880806259810924530029296875</LongitudeDegrees>
            </Position>
            <AltitudeMeters>1341.800048828125</AltitudeMeters>
            <DistanceMeters>NAN</DistanceMeters>
          </Trackpoint>
          <Trackpoint>
            <Time>2021-04-01T12:38:18.000Z</Time>
            <Position>
              <LatitudeDegrees>42.4160542152822017669677734375</LatitudeDegrees>
              <LongitudeDegrees>2.70876011811196804046630859375</LongitudeDegrees>
            </Position>
            <AltitudeMeters>1341.800048828125</AltitudeMeters>
            <DistanceMeters>NAN</DistanceMeters>
          </Trackpoint>
          <Trackpoint>
            <Time>2021-04-01T12:38:20.000Z</Time>
            <Position>
              <LatitudeDegrees>42.41604776121675968170166015625</LatitudeDegrees>
              <LongitudeDegrees>2.7087365649640560150146484375</LongitudeDegrees>
            </Position>
            <AltitudeMeters>1341.5999755859375</AltitudeMeters>
            <DistanceMeters>NAN</DistanceMeters>
          </Trackpoint>
          <Trackpoint>
            <Time>2021-04-01T12:38:26.000Z</Time>
            <Position>
              <LatitudeDegrees>42.41603602655231952667236328125</LatitudeDegrees>
              <LongitudeDegrees>2.7086676657199859619140625</LongitudeDegrees>
            </Position>
            <AltitudeMeters>1341.800048828125</AltitudeMeters>
            <DistanceMeters>NAN</DistanceMeters>
          </Trackpoint>
          <Trackpoint>
            <Time>2021-04-01T12:38:29.000Z</Time>
            <Position>
              <LatitudeDegrees>42.416027896106243133544921875</LatitudeDegrees>
              <LongitudeDegrees>2.70862634293735027313232421875</LongitudeDegrees>
            </Position>
            <AltitudeMeters>1341.800048828125</AltitudeMeters>
            <DistanceMeters>NAN</DistanceMeters>
          </Trackpoint>
          <Trackpoint>
            <Time>2021-04-01T12:38:38.000Z</Time>
            <Position>
              <LatitudeDegrees>42.4159834720194339752197265625</LatitudeDegrees>
              <LongitudeDegrees>2.70853665657341480255126953125</LongitudeDegrees>
            </Position>
            <AltitudeMeters>1342.4000244140625</AltitudeMeters>
            <DistanceMeters>NAN</DistanceMeters>
          </Trackpoint>
          <Trackpoint>
            <Time>2021-04-01T12:38:39.000Z</Time>
            <Position>
              <LatitudeDegrees>42.4159797839820384979248046875</LatitudeDegrees>
              <LongitudeDegrees>2.70852752029895782470703125</LongitudeDegrees>
            </Position>
            <AltitudeMeters>1342.4000244140625</AltitudeMeters>
            <DistanceMeters>NAN</DistanceMeters>
          </Trackpoint>
          <Trackpoint>
            <Time>2021-04-01T12:38:48.000Z</Time>
            <Position>
              <LatitudeDegrees>42.41594097577035427093505859375</LatitudeDegrees>
              <LongitudeDegrees>2.70846121944487094879150390625</LongitudeDegrees>
            </Position>
            <AltitudeMeters>1342.800048828125</AltitudeMeters>
            <DistanceMeters>NAN</DistanceMeters>
          </Trackpoint>
          <Trackpoint>
            <Time>2021-04-01T12:38:55.000Z</Time>
            <Position>
              <LatitudeDegrees>42.41590342484414577484130859375</LatitudeDegrees>
              <LongitudeDegrees>2.7084182202816009521484375</LongitudeDegrees>
            </Position>
            <AltitudeMeters>1342</AltitudeMeters>
            <DistanceMeters>NAN</DistanceMeters>
          </Trackpoint>
          <Trackpoint>
            <Time>2021-04-01T12:38:58.000Z</Time>
            <Position>
              <LatitudeDegrees>42.41589202545583248138427734375</LatitudeDegrees>
              <LongitudeDegrees>2.70838695578277111053466796875</LongitudeDegrees>
            </Position>
            <AltitudeMeters>1341.4000244140625</AltitudeMeters>
            <DistanceMeters>NAN</DistanceMeters>
          </Trackpoint>
          <Trackpoint>
            <Time>2021-04-01T12:38:59.000Z</Time>
            <Position>
              <LatitudeDegrees>42.4158902652561664581298828125</LatitudeDegrees>
              <LongitudeDegrees>2.70837773568928241729736328125</LongitudeDegrees>
            </Position>
            <AltitudeMeters>1341.4000244140625</AltitudeMeters>
            <DistanceMeters>NAN</DistanceMeters>
          </Trackpoint>
          <Trackpoint>
            <Time>2021-04-01T12:39:04.000Z</Time>
            <Position>
              <LatitudeDegrees>42.41587526164948940277099609375</LatitudeDegrees>
              <LongitudeDegrees>2.7083503268659114837646484375</LongitudeDegrees>
            </Position>
            <AltitudeMeters>1340.199951171875</AltitudeMeters>
            <DistanceMeters>NAN</DistanceMeters>
          </Trackpoint>
          <Trackpoint>
            <Time>2021-04-01T12:39:05.000Z</Time>
            <Position>
              <LatitudeDegrees>42.41587542928755283355712890625</LatitudeDegrees>
              <LongitudeDegrees>2.7083473093807697296142578125</LongitudeDegrees>
            </Position>
            <AltitudeMeters>1340</AltitudeMeters>
            <DistanceMeters>NAN</DistanceMeters>
          </Trackpoint>
          <Trackpoint>
            <Time>2021-04-01T12:39:07.000Z</Time>
            <Position>
              <LatitudeDegrees>42.415879704058170318603515625</LatitudeDegrees>
              <LongitudeDegrees>2.70834202878177165985107421875</LongitudeDegrees>
            </Position>
            <AltitudeMeters>1339.800048828125</AltitudeMeters>
            <DistanceMeters>NAN</DistanceMeters>
          </Trackpoint>
          <Trackpoint>
            <Time>2021-04-01T12:39:13.000Z</Time>
            <Position>
              <LatitudeDegrees>42.415887750685214996337890625</LatitudeDegrees>
              <LongitudeDegrees>2.70832836627960205078125</LongitudeDegrees>
            </Position>
            <AltitudeMeters>1339.199951171875</AltitudeMeters>
            <DistanceMeters>NAN</DistanceMeters>
          </Trackpoint>
          <Trackpoint>
            <Time>2021-04-01T12:39:14.000Z</Time>
            <Position>
              <LatitudeDegrees>42.41587844677269458770751953125</LatitudeDegrees>
              <LongitudeDegrees>2.70832023583352565765380859375</LongitudeDegrees>
            </Position>
            <AltitudeMeters>1339.199951171875</AltitudeMeters>
            <DistanceMeters>NAN</DistanceMeters>
          </Trackpoint>
          <Trackpoint>
            <Time>2021-04-01T12:39:18.000Z</Time>
            <Position>
              <LatitudeDegrees>42.4158672988414764404296875</LatitudeDegrees>
              <LongitudeDegrees>2.70829995162785053253173828125</LongitudeDegrees>
            </Position>
            <AltitudeMeters>1339</AltitudeMeters>
            <DistanceMeters>NAN</DistanceMeters>
          </Trackpoint>
          <Trackpoint>
            <Time>2021-04-01T12:39:19.000Z</Time>
            <Position>
              <LatitudeDegrees>42.41585983894765377044677734375</LatitudeDegrees>
              <LongitudeDegrees>2.70830028690397739410400390625</LongitudeDegrees>
            </Position>
            <AltitudeMeters>1339</AltitudeMeters>
            <DistanceMeters>NAN</DistanceMeters>
          </Trackpoint>
          <Trackpoint>
            <Time>2021-04-01T12:39:20.000Z</Time>
            <Position>
              <LatitudeDegrees>42.41585279814898967742919921875</LatitudeDegrees>
              <LongitudeDegrees>2.7083097584545612335205078125</LongitudeDegrees>
            </Position>
            <AltitudeMeters>1338.800048828125</AltitudeMeters>
            <DistanceMeters>NAN</DistanceMeters>
          </Trackpoint>
          <Trackpoint>
            <Time>2021-04-01T12:39:21.000Z</Time>
            <Position>
              <LatitudeDegrees>42.41584508679807186126708984375</LatitudeDegrees>
              <LongitudeDegrees>2.70832040347158908843994140625</LongitudeDegrees>
            </Position>
            <AltitudeMeters>1338.800048828125</AltitudeMeters>
            <DistanceMeters>NAN</DistanceMeters>
          </Trackpoint>
          <Trackpoint>
            <Time>2021-04-01T12:39:26.000Z</Time>
            <Position>
              <LatitudeDegrees>42.41584508679807186126708984375</LatitudeDegrees>
              <LongitudeDegrees>2.70832040347158908843994140625</LongitudeDegrees>
            </Position>
            <AltitudeMeters>1338.800048828125</AltitudeMeters>
            <DistanceMeters>NAN</DistanceMeters>
          </Trackpoint>
          <Trackpoint>
            <Time>2021-04-01T12:39:30.000Z</Time>
            <Position>
              <LatitudeDegrees>42.41584508679807186126708984375</LatitudeDegrees>
              <LongitudeDegrees>2.70832040347158908843994140625</LongitudeDegrees>
            </Position>
            <AltitudeMeters>1338.800048828125</AltitudeMeters>
            <DistanceMeters>NAN</DistanceMeters>
          </Trackpoint>
          <Trackpoint>
            <Time>2021-04-01T12:39:33.000Z</Time>
            <Position>
              <LatitudeDegrees>42.41584508679807186126708984375</LatitudeDegrees>
              <LongitudeDegrees>2.70831487141549587249755859375</LongitudeDegrees>
            </Position>
            <AltitudeMeters>1339</AltitudeMeters>
            <DistanceMeters>NAN</DistanceMeters>
          </Trackpoint>
          <Trackpoint>
            <Time>2021-04-01T12:39:38.000Z</Time>
            <Position>
              <LatitudeDegrees>42.41584382951259613037109375</LatitudeDegrees>
              <LongitudeDegrees>2.70830489695072174072265625</LongitudeDegrees>
            </Position>
            <AltitudeMeters>1338.4000244140625</AltitudeMeters>
            <DistanceMeters>NAN</DistanceMeters>
          </Trackpoint>
          <Trackpoint>
            <Time>2021-04-01T12:39:41.000Z</Time>
            <Position>
              <LatitudeDegrees>42.4158433265984058380126953125</LatitudeDegrees>
              <LongitudeDegrees>2.70830355584621429443359375</LongitudeDegrees>
            </Position>
            <AltitudeMeters>1338</AltitudeMeters>
            <DistanceMeters>NAN</DistanceMeters>
          </Trackpoint>
          <Trackpoint>
            <Time>2021-04-01T12:39:44.000Z</Time>
            <Position>
              <LatitudeDegrees>42.41584156639873981475830078125</LatitudeDegrees>
              <LongitudeDegrees>2.70830221474170684814453125</LongitudeDegrees>
            </Position>
            <AltitudeMeters>1337.199951171875</AltitudeMeters>
            <DistanceMeters>NAN</DistanceMeters>
          </Trackpoint>
          <Trackpoint>
            <Time>2021-04-01T12:39:46.000Z</Time>
            <Position>
              <LatitudeDegrees>42.4158403091132640838623046875</LatitudeDegrees>
              <LongitudeDegrees>2.70830045454204082489013671875</LongitudeDegrees>
            </Position>
            <AltitudeMeters>1336.5999755859375</AltitudeMeters>
            <DistanceMeters>NAN</DistanceMeters>
          </Trackpoint>
          <Trackpoint>
            <Time>2021-04-01T12:39:47.000Z</Time>
            <Position>
              <LatitudeDegrees>42.41583989001810550689697265625</LatitudeDegrees>
              <LongitudeDegrees>2.70829995162785053253173828125</LongitudeDegrees>
            </Position>
            <AltitudeMeters>1336.5999755859375</AltitudeMeters>
            <DistanceMeters>NAN</DistanceMeters>
          </Trackpoint>
          <Trackpoint>
            <Time>2021-04-01T12:39:50.000Z</Time>
            <Position>
              <LatitudeDegrees>42.41583167575299739837646484375</LatitudeDegrees>
              <LongitudeDegrees>2.708288468420505523681640625</LongitudeDegrees>
            </Position>
            <AltitudeMeters>1336</AltitudeMeters>
            <DistanceMeters>NAN</DistanceMeters>
          </Trackpoint>
          <Trackpoint>
            <Time>2021-04-01T12:39:52.000Z</Time>
            <Position>
              <LatitudeDegrees>42.4158243834972381591796875</LatitudeDegrees>
              <LongitudeDegrees>2.70828067325055599212646484375</LongitudeDegrees>
            </Position>
            <AltitudeMeters>1335.5999755859375</AltitudeMeters>
            <DistanceMeters>NAN</DistanceMeters>
          </Trackpoint>
          <Trackpoint>
            <Time>2021-04-01T12:39:55.000Z</Time>
            <Position>
              <LatitudeDegrees>42.415821366012096405029296875</LatitudeDegrees>
              <LongitudeDegrees>2.7082705311477184295654296875</LongitudeDegrees>
            </Position>
            <AltitudeMeters>1335</AltitudeMeters>
            <DistanceMeters>NAN</DistanceMeters>
          </Trackpoint>
          <Trackpoint>
            <Time>2021-04-01T12:39:58.000Z</Time>
            <Position>
              <LatitudeDegrees>42.41581826470792293548583984375</LatitudeDegrees>
              <LongitudeDegrees>2.70824982784688472747802734375</LongitudeDegrees>
            </Position>
            <AltitudeMeters>1334.4000244140625</AltitudeMeters>
            <DistanceMeters>NAN</DistanceMeters>
          </Trackpoint>
          <Trackpoint>
            <Time>2021-04-01T12:40:03.000Z</Time>
            <Position>
              <LatitudeDegrees>42.41581658832728862762451171875</LatitudeDegrees>
              <LongitudeDegrees>2.70821345038712024688720703125</LongitudeDegrees>
            </Position>
            <AltitudeMeters>1333.4000244140625</AltitudeMeters>
            <DistanceMeters>NAN</DistanceMeters>
          </Trackpoint>
          <Trackpoint>
            <Time>2021-04-01T12:40:14.000Z</Time>
            <Position>
              <LatitudeDegrees>42.41578356362879276275634765625</LatitudeDegrees>
              <LongitudeDegrees>2.70813147537410259246826171875</LongitudeDegrees>
            </Position>
            <AltitudeMeters>1332.5999755859375</AltitudeMeters>
            <DistanceMeters>NAN</DistanceMeters>
          </Trackpoint>
          <Trackpoint>
            <Time>2021-04-01T12:40:21.000Z</Time>
            <Position>
              <LatitudeDegrees>42.415753640234470367431640625</LatitudeDegrees>
              <LongitudeDegrees>2.70808051340281963348388671875</LongitudeDegrees>
            </Position>
            <AltitudeMeters>1332.4000244140625</AltitudeMeters>
            <DistanceMeters>NAN</DistanceMeters>
          </Trackpoint>
          <Trackpoint>
            <Time>2021-04-01T12:40:24.000Z</Time>
            <Position>
              <LatitudeDegrees>42.41572036407887935638427734375</LatitudeDegrees>
              <LongitudeDegrees>2.7080185711383819580078125</LongitudeDegrees>
            </Position>
            <AltitudeMeters>1332</AltitudeMeters>
            <DistanceMeters>NAN</DistanceMeters>
          </Trackpoint>
          <Trackpoint>
            <Time>2021-04-01T12:40:25.000Z</Time>
            <Position>
              <LatitudeDegrees>42.41571265272796154022216796875</LatitudeDegrees>
              <LongitudeDegrees>2.7080051600933074951171875</LongitudeDegrees>
            </Position>
            <AltitudeMeters>1332</AltitudeMeters>
            <DistanceMeters>NAN</DistanceMeters>
          </Trackpoint>
          <Trackpoint>
            <Time>2021-04-01T12:40:27.000Z</Time>
            <Position>
              <LatitudeDegrees>42.41569521836936473846435546875</LatitudeDegrees>
              <LongitudeDegrees>2.7079831995069980621337890625</LongitudeDegrees>
            </Position>
            <AltitudeMeters>1332</AltitudeMeters>
            <DistanceMeters>NAN</DistanceMeters>
          </Trackpoint>
          <Trackpoint>
            <Time>2021-04-01T12:40:31.000Z</Time>
            <Position>
              <LatitudeDegrees>42.415684573352336883544921875</LatitudeDegrees>
              <LongitudeDegrees>2.7079225145280361175537109375</LongitudeDegrees>
            </Position>
            <AltitudeMeters>1331.199951171875</AltitudeMeters>
            <DistanceMeters>NAN</DistanceMeters>
          </Trackpoint>
          <Trackpoint>
            <Time>2021-04-01T12:40:32.000Z</Time>
            <Position>
              <LatitudeDegrees>42.41568516008555889129638671875</LatitudeDegrees>
              <LongitudeDegrees>2.70791329443454742431640625</LongitudeDegrees>
            </Position>
            <AltitudeMeters>1331</AltitudeMeters>
            <DistanceMeters>NAN</DistanceMeters>
          </Trackpoint>
          <Trackpoint>
            <Time>2021-04-01T12:40:33.000Z</Time>
            <Position>
              <LatitudeDegrees>42.415683567523956298828125</LatitudeDegrees>
              <LongitudeDegrees>2.70790466107428073883056640625</LongitudeDegrees>
            </Position>
            <AltitudeMeters>1331</AltitudeMeters>
            <DistanceMeters>NAN</DistanceMeters>
          </Trackpoint>
          <Trackpoint>
            <Time>2021-04-01T12:40:34.000Z</Time>
            <Position>
              <LatitudeDegrees>42.41568063385784626007080078125</LatitudeDegrees>
              <LongitudeDegrees>2.70789963193237781524658203125</LongitudeDegrees>
            </Position>
            <AltitudeMeters>1330.5999755859375</AltitudeMeters>
            <DistanceMeters>NAN</DistanceMeters>
          </Trackpoint>
          <Trackpoint>
            <Time>2021-04-01T12:40:39.000Z</Time>
            <Position>
              <LatitudeDegrees>42.41567141376435756683349609375</LatitudeDegrees>
              <LongitudeDegrees>2.707868702709674835205078125</LongitudeDegrees>
            </Position>
            <AltitudeMeters>1330.199951171875</AltitudeMeters>
            <DistanceMeters>NAN</DistanceMeters>
          </Trackpoint>
          <Trackpoint>
            <Time>2021-04-01T12:40:40.000Z</Time>
            <Position>
              <LatitudeDegrees>42.4156696535646915435791015625</LatitudeDegrees>
              <LongitudeDegrees>2.70786593668162822723388671875</LongitudeDegrees>
            </Position>
            <AltitudeMeters>1330.199951171875</AltitudeMeters>
            <DistanceMeters>NAN</DistanceMeters>
          </Trackpoint>
          <Trackpoint>
            <Time>2021-04-01T12:40:42.000Z</Time>
            <Position>
              <LatitudeDegrees>42.41566554643213748931884765625</LatitudeDegrees>
              <LongitudeDegrees>2.70786375738680362701416015625</LongitudeDegrees>
            </Position>
            <AltitudeMeters>1329.800048828125</AltitudeMeters>
            <DistanceMeters>NAN</DistanceMeters>
          </Trackpoint>
          <Trackpoint>
            <Time>2021-04-01T12:40:47.000Z</Time>
            <Position>
              <LatitudeDegrees>42.415655069053173065185546875</LatitudeDegrees>
              <LongitudeDegrees>2.707834504544734954833984375</LongitudeDegrees>
            </Position>
            <AltitudeMeters>1329.199951171875</AltitudeMeters>
            <DistanceMeters>NAN</DistanceMeters>
          </Trackpoint>
          <Trackpoint>
            <Time>2021-04-01T12:40:48.000Z</Time>
            <Position>
              <LatitudeDegrees>42.4156559072434902191162109375</LatitudeDegrees>
              <LongitudeDegrees>2.70782000385224819183349609375</LongitudeDegrees>
            </Position>
            <AltitudeMeters>1329.199951171875</AltitudeMeters>
            <DistanceMeters>NAN</DistanceMeters>
          </Trackpoint>
          <Trackpoint>
            <Time>2021-04-01T12:40:52.000Z</Time>
            <Position>
              <LatitudeDegrees>42.41566252894699573516845703125</LatitudeDegrees>
              <LongitudeDegrees>2.70776267163455486297607421875</LongitudeDegrees>
            </Position>
            <AltitudeMeters>1328.199951171875</AltitudeMeters>
            <DistanceMeters>NAN</DistanceMeters>
          </Trackpoint>
          <Trackpoint>
            <Time>2021-04-01T12:40:53.000Z</Time>
            <Position>
              <LatitudeDegrees>42.4156619422137737274169921875</LatitudeDegrees>
              <LongitudeDegrees>2.70774900913238525390625</LongitudeDegrees>
            </Position>
            <AltitudeMeters>1327.800048828125</AltitudeMeters>
            <DistanceMeters>NAN</DistanceMeters>
          </Trackpoint>
          <Trackpoint>
            <Time>2021-04-01T12:40:55.000Z</Time>
            <Position>
              <LatitudeDegrees>42.41565196774899959564208984375</LatitudeDegrees>
              <LongitudeDegrees>2.7077407948672771453857421875</LongitudeDegrees>
            </Position>
            <AltitudeMeters>1327.4000244140625</AltitudeMeters>
            <DistanceMeters>NAN</DistanceMeters>
          </Trackpoint>
          <Trackpoint>
            <Time>2021-04-01T12:40:59.000Z</Time>
            <Position>
              <LatitudeDegrees>42.4156327731907367706298828125</LatitudeDegrees>
              <LongitudeDegrees>2.70771707408130168914794921875</LongitudeDegrees>
            </Position>
            <AltitudeMeters>1327</AltitudeMeters>
            <DistanceMeters>NAN</DistanceMeters>
          </Trackpoint>
          <Trackpoint>
            <Time>2021-04-01T12:41:01.000Z</Time>
            <Position>
              <LatitudeDegrees>42.415626905858516693115234375</LatitudeDegrees>
              <LongitudeDegrees>2.70770835690200328826904296875</LongitudeDegrees>
            </Position>
            <AltitudeMeters>1327</AltitudeMeters>
            <DistanceMeters>NAN</DistanceMeters>
          </Trackpoint>
          <Trackpoint>
            <Time>2021-04-01T12:41:03.000Z</Time>
            <Position>
              <LatitudeDegrees>42.415629923343658447265625</LatitudeDegrees>
              <LongitudeDegrees>2.70769041962921619415283203125</LongitudeDegrees>
            </Position>
            <AltitudeMeters>1326.800048828125</AltitudeMeters>
            <DistanceMeters>NAN</DistanceMeters>
          </Trackpoint>
          <Trackpoint>
            <Time>2021-04-01T12:41:04.000Z</Time>
            <Position>
              <LatitudeDegrees>42.4156290851533412933349609375</LatitudeDegrees>
              <LongitudeDegrees>2.70768036134541034698486328125</LongitudeDegrees>
            </Position>
            <AltitudeMeters>1326.5999755859375</AltitudeMeters>
            <DistanceMeters>NAN</DistanceMeters>
          </Trackpoint>
          <Trackpoint>
            <Time>2021-04-01T12:41:06.000Z</Time>
            <Position>
              <LatitudeDegrees>42.415626905858516693115234375</LatitudeDegrees>
              <LongitudeDegrees>2.707660831511020660400390625</LongitudeDegrees>
            </Position>
            <AltitudeMeters>1326</AltitudeMeters>
            <DistanceMeters>NAN</DistanceMeters>
          </Trackpoint>
          <Trackpoint>
            <Time>2021-04-01T12:41:07.000Z</Time>
            <Position>
              <LatitudeDegrees>42.41562933661043643951416015625</LatitudeDegrees>
              <LongitudeDegrees>2.7076509408652782440185546875</LongitudeDegrees>
            </Position>
            <AltitudeMeters>1325.800048828125</AltitudeMeters>
            <DistanceMeters>NAN</DistanceMeters>
          </Trackpoint>
          <Trackpoint>
            <Time>2021-04-01T12:41:08.000Z</Time>
            <Position>
              <LatitudeDegrees>42.41562916897237300872802734375</LatitudeDegrees>
              <LongitudeDegrees>2.7076439000666141510009765625</LongitudeDegrees>
            </Position>
            <AltitudeMeters>1325.4000244140625</AltitudeMeters>
            <DistanceMeters>NAN</DistanceMeters>
          </Trackpoint>
          <Trackpoint>
            <Time>2021-04-01T12:41:10.000Z</Time>
            <Position>
              <LatitudeDegrees>42.415629923343658447265625</LatitudeDegrees>
              <LongitudeDegrees>2.70762856118381023406982421875</LongitudeDegrees>
            </Position>
            <AltitudeMeters>1325.199951171875</AltitudeMeters>
            <DistanceMeters>NAN</DistanceMeters>
          </Trackpoint>
          <Trackpoint>
            <Time>2021-04-01T12:41:11.000Z</Time>
            <Position>
              <LatitudeDegrees>42.4156267382204532623291015625</LatitudeDegrees>
              <LongitudeDegrees>2.7076180838048458099365234375</LongitudeDegrees>
            </Position>
            <AltitudeMeters>1324.800048828125</AltitudeMeters>
            <DistanceMeters>NAN</DistanceMeters>
          </Trackpoint>
          <Trackpoint>
            <Time>2021-04-01T12:41:14.000Z</Time>
            <Position>
              <LatitudeDegrees>42.41561156697571277618408203125</LatitudeDegrees>
              <LongitudeDegrees>2.7075932733714580535888671875</LongitudeDegrees>
            </Position>
            <AltitudeMeters>1324.199951171875</AltitudeMeters>
            <DistanceMeters>NAN</DistanceMeters>
          </Trackpoint>
          <Trackpoint>
            <Time>2021-04-01T12:41:17.000Z</Time>
            <Position>
              <LatitudeDegrees>42.41559178568422794342041015625</LatitudeDegrees>
              <LongitudeDegrees>2.70757340826094150543212890625</LongitudeDegrees>
            </Position>
            <AltitudeMeters>1324</AltitudeMeters>
            <DistanceMeters>NAN</DistanceMeters>
          </Trackpoint>
          <Trackpoint>
            <Time>2021-04-01T12:41:20.000Z</Time>
            <Position>
              <LatitudeDegrees>42.415577955543994903564453125</LatitudeDegrees>
              <LongitudeDegrees>2.7075634337961673736572265625</LongitudeDegrees>
            </Position>
            <AltitudeMeters>1324.4000244140625</AltitudeMeters>
            <DistanceMeters>NAN</DistanceMeters>
          </Trackpoint>
          <Trackpoint>
            <Time>2021-04-01T12:41:21.000Z</Time>
            <Position>
              <LatitudeDegrees>42.41557602770626544952392578125</LatitudeDegrees>
              <LongitudeDegrees>2.7075545489788055419921875</LongitudeDegrees>
            </Position>
            <AltitudeMeters>1324.4000244140625</AltitudeMeters>
            <DistanceMeters>NAN</DistanceMeters>
          </Trackpoint>
          <Trackpoint>
            <Time>2021-04-01T12:41:22.000Z</Time>
            <Position>
              <LatitudeDegrees>42.4155722558498382568359375</LatitudeDegrees>
              <LongitudeDegrees>2.70754490979015827178955078125</LongitudeDegrees>
            </Position>
            <AltitudeMeters>1324.5999755859375</AltitudeMeters>
            <DistanceMeters>NAN</DistanceMeters>
          </Trackpoint>
          <Trackpoint>
            <Time>2021-04-01T12:41:23.000Z</Time>
            <Position>
              <LatitudeDegrees>42.415559850633144378662109375</LatitudeDegrees>
              <LongitudeDegrees>2.707540802657604217529296875</LongitudeDegrees>
            </Position>
            <AltitudeMeters>1324.5999755859375</AltitudeMeters>
            <DistanceMeters>NAN</DistanceMeters>
          </Trackpoint>
          <Trackpoint>
            <Time>2021-04-01T12:41:26.000Z</Time>
            <Position>
              <LatitudeDegrees>42.4155492894351482391357421875</LatitudeDegrees>
              <LongitudeDegrees>2.70751523785293102264404296875</LongitudeDegrees>
            </Position>
            <AltitudeMeters>1324.800048828125</AltitudeMeters>
            <DistanceMeters>NAN</DistanceMeters>
          </Trackpoint>
          <Trackpoint>
            <Time>2021-04-01T12:41:27.000Z</Time>
            <Position>
              <LatitudeDegrees>42.4155466072261333465576171875</LatitudeDegrees>
              <LongitudeDegrees>2.7075050957500934600830078125</LongitudeDegrees>
            </Position>
            <AltitudeMeters>1324.800048828125</AltitudeMeters>
            <DistanceMeters>NAN</DistanceMeters>
          </Trackpoint>
          <Trackpoint>
            <Time>2021-04-01T12:41:29.000Z</Time>
            <Position>
              <LatitudeDegrees>42.41554476320743560791015625</LatitudeDegrees>
              <LongitudeDegrees>2.70748103968799114227294921875</LongitudeDegrees>
            </Position>
            <AltitudeMeters>1325</AltitudeMeters>
            <DistanceMeters>NAN</DistanceMeters>
          </Trackpoint>
          <Trackpoint>
            <Time>2021-04-01T12:41:37.000Z</Time>
            <Position>
              <LatitudeDegrees>42.4155181087553501129150390625</LatitudeDegrees>
              <LongitudeDegrees>2.70738733001053333282470703125</LongitudeDegrees>
            </Position>
            <AltitudeMeters>1324.4000244140625</AltitudeMeters>
            <DistanceMeters>NAN</DistanceMeters>
          </Trackpoint>
          <Trackpoint>
            <Time>2021-04-01T12:41:38.000Z</Time>
            <Position>
              <LatitudeDegrees>42.41551525890827178955078125</LatitudeDegrees>
              <LongitudeDegrees>2.70737685263156890869140625</LongitudeDegrees>
            </Position>
            <AltitudeMeters>1324.4000244140625</AltitudeMeters>
            <DistanceMeters>NAN</DistanceMeters>
          </Trackpoint>
          <Trackpoint>
            <Time>2021-04-01T12:41:47.000Z</Time>
            <Position>
              <LatitudeDegrees>42.4155167676508426666259765625</LatitudeDegrees>
              <LongitudeDegrees>2.70726763643324375152587890625</LongitudeDegrees>
            </Position>
            <AltitudeMeters>1323.800048828125</AltitudeMeters>
            <DistanceMeters>NAN</DistanceMeters>
          </Trackpoint>
          <Trackpoint>
            <Time>2021-04-01T12:41:54.000Z</Time>
            <Position>
              <LatitudeDegrees>42.41549271158874034881591796875</LatitudeDegrees>
              <LongitudeDegrees>2.7071966417133808135986328125</LongitudeDegrees>
            </Position>
            <AltitudeMeters>1323.800048828125</AltitudeMeters>
            <DistanceMeters>NAN</DistanceMeters>
          </Trackpoint>
          <Trackpoint>
            <Time>2021-04-01T12:42:02.000Z</Time>
            <Position>
              <LatitudeDegrees>42.4154614470899105072021484375</LatitudeDegrees>
              <LongitudeDegrees>2.70712715573608875274658203125</LongitudeDegrees>
            </Position>
            <AltitudeMeters>1324.4000244140625</AltitudeMeters>
            <DistanceMeters>NAN</DistanceMeters>
          </Trackpoint>
          <Trackpoint>
            <Time>2021-04-01T12:42:08.000Z</Time>
            <Position>
              <LatitudeDegrees>42.41544627584517002105712890625</LatitudeDegrees>
              <LongitudeDegrees>2.70706345327198505401611328125</LongitudeDegrees>
            </Position>
            <AltitudeMeters>1324.5999755859375</AltitudeMeters>
            <DistanceMeters>NAN</DistanceMeters>
          </Trackpoint>
          <Trackpoint>
            <Time>2021-04-01T12:42:09.000Z</Time>
            <Position>
              <LatitudeDegrees>42.41544476710259914398193359375</LatitudeDegrees>
              <LongitudeDegrees>2.7070504613220691680908203125</LongitudeDegrees>
            </Position>
            <AltitudeMeters>1324.5999755859375</AltitudeMeters>
            <DistanceMeters>NAN</DistanceMeters>
          </Trackpoint>
          <Trackpoint>
            <Time>2021-04-01T12:42:10.000Z</Time>
            <Position>
              <LatitudeDegrees>42.4154450185596942901611328125</LatitudeDegrees>
              <LongitudeDegrees>2.7070368826389312744140625</LongitudeDegrees>
            </Position>
            <AltitudeMeters>1324.4000244140625</AltitudeMeters>
            <DistanceMeters>NAN</DistanceMeters>
          </Trackpoint>
          <Trackpoint>
            <Time>2021-04-01T12:42:19.000Z</Time>
            <Position>
              <LatitudeDegrees>42.41544677875936031341552734375</LatitudeDegrees>
              <LongitudeDegrees>2.706930600106716156005859375</LongitudeDegrees>
            </Position>
            <AltitudeMeters>1324.199951171875</AltitudeMeters>
            <DistanceMeters>NAN</DistanceMeters>
          </Trackpoint>
          <Trackpoint>
            <Time>2021-04-01T12:42:20.000Z</Time>
            <Position>
              <LatitudeDegrees>42.41544728167355060577392578125</LatitudeDegrees>
              <LongitudeDegrees>2.70691324956715106964111328125</LongitudeDegrees>
            </Position>
            <AltitudeMeters>1324.199951171875</AltitudeMeters>
            <DistanceMeters>NAN</DistanceMeters>
          </Trackpoint>
          <Trackpoint>
            <Time>2021-04-01T12:42:29.000Z</Time>
            <Position>
              <LatitudeDegrees>42.41545356810092926025390625</LatitudeDegrees>
              <LongitudeDegrees>2.7068026922643184661865234375</LongitudeDegrees>
            </Position>
            <AltitudeMeters>1323.4000244140625</AltitudeMeters>
            <DistanceMeters>NAN</DistanceMeters>
          </Trackpoint>
          <Trackpoint>
            <Time>2021-04-01T12:42:34.000Z</Time>
            <Position>
              <LatitudeDegrees>42.415463291108608245849609375</LatitudeDegrees>
              <LongitudeDegrees>2.7067517302930355072021484375</LongitudeDegrees>
            </Position>
            <AltitudeMeters>1323.5999755859375</AltitudeMeters>
            <DistanceMeters>NAN</DistanceMeters>
          </Trackpoint>
          <Trackpoint>
            <Time>2021-04-01T12:42:35.000Z</Time>
            <Position>
              <LatitudeDegrees>42.41546253673732280731201171875</LatitudeDegrees>
              <LongitudeDegrees>2.7067433483898639678955078125</LongitudeDegrees>
            </Position>
            <AltitudeMeters>1323.5999755859375</AltitudeMeters>
            <DistanceMeters>NAN</DistanceMeters>
          </Trackpoint>
          <Trackpoint>
            <Time>2021-04-01T12:42:40.000Z</Time>
            <Position>
              <LatitudeDegrees>42.41546471603214740753173828125</LatitudeDegrees>
              <LongitudeDegrees>2.70668559707701206207275390625</LongitudeDegrees>
            </Position>
            <AltitudeMeters>1323.800048828125</AltitudeMeters>
            <DistanceMeters>NAN</DistanceMeters>
          </Trackpoint>
          <Trackpoint>
            <Time>2021-04-01T12:42:44.000Z</Time>
            <Position>
              <LatitudeDegrees>42.41547276265919208526611328125</LatitudeDegrees>
              <LongitudeDegrees>2.7066434361040592193603515625</LongitudeDegrees>
            </Position>
            <AltitudeMeters>1323.800048828125</AltitudeMeters>
            <DistanceMeters>NAN</DistanceMeters>
          </Trackpoint>
          <Trackpoint>
            <Time>2021-04-01T12:42:48.000Z</Time>
            <Position>
              <LatitudeDegrees>42.415477372705936431884765625</LatitudeDegrees>
              <LongitudeDegrees>2.7066109143197536468505859375</LongitudeDegrees>
            </Position>
            <AltitudeMeters>1324.199951171875</AltitudeMeters>
            <DistanceMeters>NAN</DistanceMeters>
          </Trackpoint>
          <Trackpoint>
            <Time>2021-04-01T12:42:50.000Z</Time>
            <Position>
              <LatitudeDegrees>42.4154802225530147552490234375</LatitudeDegrees>
              <LongitudeDegrees>2.7065931446850299835205078125</LongitudeDegrees>
            </Position>
            <AltitudeMeters>1324.4000244140625</AltitudeMeters>
            <DistanceMeters>NAN</DistanceMeters>
          </Trackpoint>
          <Trackpoint>
            <Time>2021-04-01T12:42:55.000Z</Time>
            <Position>
              <LatitudeDegrees>42.4154969863593578338623046875</LatitudeDegrees>
              <LongitudeDegrees>2.70655182190239429473876953125</LongitudeDegrees>
            </Position>
            <AltitudeMeters>1324.5999755859375</AltitudeMeters>
            <DistanceMeters>NAN</DistanceMeters>
          </Trackpoint>
          <Trackpoint>
            <Time>2021-04-01T12:42:58.000Z</Time>
            <Position>
              <LatitudeDegrees>42.41549002937972545623779296875</LatitudeDegrees>
              <LongitudeDegrees>2.7065291069447994232177734375</LongitudeDegrees>
            </Position>
            <AltitudeMeters>1324.5999755859375</AltitudeMeters>
            <DistanceMeters>NAN</DistanceMeters>
          </Trackpoint>
          <Trackpoint>
            <Time>2021-04-01T12:43:01.000Z</Time>
            <Position>
              <LatitudeDegrees>42.41548952646553516387939453125</LatitudeDegrees>
              <LongitudeDegrees>2.70649574697017669677734375</LongitudeDegrees>
            </Position>
            <AltitudeMeters>1325.4000244140625</AltitudeMeters>
            <DistanceMeters>NAN</DistanceMeters>
          </Trackpoint>
          <Trackpoint>
            <Time>2021-04-01T12:43:02.000Z</Time>
            <Position>
              <LatitudeDegrees>42.41549237631261348724365234375</LatitudeDegrees>
              <LongitudeDegrees>2.7064843475818634033203125</LongitudeDegrees>
            </Position>
            <AltitudeMeters>1325.800048828125</AltitudeMeters>
            <DistanceMeters>NAN</DistanceMeters>
          </Trackpoint>
          <Trackpoint>
            <Time>2021-04-01T12:43:06.000Z</Time>
            <Position>
              <LatitudeDegrees>42.41550679318606853485107421875</LatitudeDegrees>
              <LongitudeDegrees>2.70644855685532093048095703125</LongitudeDegrees>
            </Position>
            <AltitudeMeters>1326.5999755859375</AltitudeMeters>
            <DistanceMeters>NAN</DistanceMeters>
          </Trackpoint>
          <Trackpoint>
            <Time>2021-04-01T12:43:07.000Z</Time>
            <Position>
              <LatitudeDegrees>42.41550855338573455810546875</LatitudeDegrees>
              <LongitudeDegrees>2.70643581636250019073486328125</LongitudeDegrees>
            </Position>
            <AltitudeMeters>1326.5999755859375</AltitudeMeters>
            <DistanceMeters>NAN</DistanceMeters>
          </Trackpoint>
          <Trackpoint>
            <Time>2021-04-01T12:43:08.000Z</Time>
            <Position>
              <LatitudeDegrees>42.41550712846219539642333984375</LatitudeDegrees>
              <LongitudeDegrees>2.7064238302409648895263671875</LongitudeDegrees>
            </Position>
            <AltitudeMeters>1326.5999755859375</AltitudeMeters>
            <DistanceMeters>NAN</DistanceMeters>
          </Trackpoint>
          <Trackpoint>
            <Time>2021-04-01T12:43:09.000Z</Time>
            <Position>
              <LatitudeDegrees>42.41550855338573455810546875</LatitudeDegrees>
              <LongitudeDegrees>2.70641301758587360382080078125</LongitudeDegrees>
            </Position>
            <AltitudeMeters>1326.5999755859375</AltitudeMeters>
            <DistanceMeters>NAN</DistanceMeters>
          </Trackpoint>
          <Trackpoint>
            <Time>2021-04-01T12:43:11.000Z</Time>
            <Position>
              <LatitudeDegrees>42.41550914011895656585693359375</LatitudeDegrees>
              <LongitudeDegrees>2.70638669840991497039794921875</LongitudeDegrees>
            </Position>
            <AltitudeMeters>1326.5999755859375</AltitudeMeters>
            <DistanceMeters>NAN</DistanceMeters>
          </Trackpoint>
          <Trackpoint>
            <Time>2021-04-01T12:43:14.000Z</Time>
            <Position>
              <LatitudeDegrees>42.4155013449490070343017578125</LatitudeDegrees>
              <LongitudeDegrees>2.70635568536818027496337890625</LongitudeDegrees>
            </Position>
            <AltitudeMeters>1327</AltitudeMeters>
            <DistanceMeters>NAN</DistanceMeters>
          </Trackpoint>
          <Trackpoint>
            <Time>2021-04-01T12:43:15.000Z</Time>
            <Position>
              <LatitudeDegrees>42.41550276987254619598388671875</LatitudeDegrees>
              <LongitudeDegrees>2.7063475549221038818359375</LongitudeDegrees>
            </Position>
            <AltitudeMeters>1327.199951171875</AltitudeMeters>
            <DistanceMeters>NAN</DistanceMeters>
          </Trackpoint>
          <Trackpoint>
            <Time>2021-04-01T12:43:17.000Z</Time>
            <Position>
              <LatitudeDegrees>42.41551249288022518157958984375</LatitudeDegrees>
              <LongitudeDegrees>2.70632810890674591064453125</LongitudeDegrees>
            </Position>
            <AltitudeMeters>1327.4000244140625</AltitudeMeters>
            <DistanceMeters>NAN</DistanceMeters>
          </Trackpoint>
          <Trackpoint>
            <Time>2021-04-01T12:43:19.000Z</Time>
            <Position>
              <LatitudeDegrees>42.41551450453698635101318359375</LatitudeDegrees>
              <LongitudeDegrees>2.70630354993045330047607421875</LongitudeDegrees>
            </Position>
            <AltitudeMeters>1327.5999755859375</AltitudeMeters>
            <DistanceMeters>NAN</DistanceMeters>
          </Trackpoint>
          <Trackpoint>
            <Time>2021-04-01T12:43:20.000Z</Time>
            <Position>
              <LatitudeDegrees>42.41551701910793781280517578125</LatitudeDegrees>
              <LongitudeDegrees>2.70628963597118854522705078125</LongitudeDegrees>
            </Position>
            <AltitudeMeters>1327.800048828125</AltitudeMeters>
            <DistanceMeters>NAN</DistanceMeters>
          </Trackpoint>
          <Trackpoint>
            <Time>2021-04-01T12:43:27.000Z</Time>
            <Position>
              <LatitudeDegrees>42.41553897969424724578857421875</LatitudeDegrees>
              <LongitudeDegrees>2.70620405673980712890625</LongitudeDegrees>
            </Position>
            <AltitudeMeters>1328.4000244140625</AltitudeMeters>
            <DistanceMeters>NAN</DistanceMeters>
          </Trackpoint>
          <Trackpoint>
            <Time>2021-04-01T12:43:29.000Z</Time>
            <Position>
              <LatitudeDegrees>42.41553713567554950714111328125</LatitudeDegrees>
              <LongitudeDegrees>2.70617916248738765716552734375</LongitudeDegrees>
            </Position>
            <AltitudeMeters>1328.800048828125</AltitudeMeters>
            <DistanceMeters>NAN</DistanceMeters>
          </Trackpoint>
          <Trackpoint>
            <Time>2021-04-01T12:43:33.000Z</Time>
            <Position>
              <LatitudeDegrees>42.4155456013977527618408203125</LatitudeDegrees>
              <LongitudeDegrees>2.70614345557987689971923828125</LongitudeDegrees>
            </Position>
            <AltitudeMeters>1329.199951171875</AltitudeMeters>
            <DistanceMeters>NAN</DistanceMeters>
          </Trackpoint>
          <Trackpoint>
            <Time>2021-04-01T12:43:37.000Z</Time>
            <Position>
              <LatitudeDegrees>42.41555892862379550933837890625</LatitudeDegrees>
              <LongitudeDegrees>2.70610489882528781890869140625</LongitudeDegrees>
            </Position>
            <AltitudeMeters>1329.800048828125</AltitudeMeters>
            <DistanceMeters>NAN</DistanceMeters>
          </Trackpoint>
          <Trackpoint>
            <Time>2021-04-01T12:43:40.000Z</Time>
            <Position>
              <LatitudeDegrees>42.41555708460509777069091796875</LatitudeDegrees>
              <LongitudeDegrees>2.70607220940291881561279296875</LongitudeDegrees>
            </Position>
            <AltitudeMeters>1330.199951171875</AltitudeMeters>
            <DistanceMeters>NAN</DistanceMeters>
          </Trackpoint>
          <Trackpoint>
            <Time>2021-04-01T12:43:43.000Z</Time>
            <Position>
              <LatitudeDegrees>42.415571250021457672119140625</LatitudeDegrees>
              <LongitudeDegrees>2.706048823893070220947265625</LongitudeDegrees>
            </Position>
            <AltitudeMeters>1330.199951171875</AltitudeMeters>
            <DistanceMeters>NAN</DistanceMeters>
          </Trackpoint>
          <Trackpoint>
            <Time>2021-04-01T12:43:44.000Z</Time>
            <Position>
              <LatitudeDegrees>42.41557401604950428009033203125</LatitudeDegrees>
              <LongitudeDegrees>2.70604111254215240478515625</LongitudeDegrees>
            </Position>
            <AltitudeMeters>1330.199951171875</AltitudeMeters>
            <DistanceMeters>NAN</DistanceMeters>
          </Trackpoint>
          <Trackpoint>
            <Time>2021-04-01T12:43:46.000Z</Time>
            <Position>
              <LatitudeDegrees>42.41557904519140720367431640625</LatitudeDegrees>
              <LongitudeDegrees>2.7060174755752086639404296875</LongitudeDegrees>
            </Position>
            <AltitudeMeters>1330.199951171875</AltitudeMeters>
            <DistanceMeters>NAN</DistanceMeters>
          </Trackpoint>
          <Trackpoint>
            <Time>2021-04-01T12:43:48.000Z</Time>
            <Position>
              <LatitudeDegrees>42.4155804701149463653564453125</LatitudeDegrees>
              <LongitudeDegrees>2.7059930004179477691650390625</LongitudeDegrees>
            </Position>
            <AltitudeMeters>1330</AltitudeMeters>
            <DistanceMeters>NAN</DistanceMeters>
          </Trackpoint>
          <Trackpoint>
            <Time>2021-04-01T12:43:53.000Z</Time>
            <Position>
              <LatitudeDegrees>42.41558424197137355804443359375</LatitudeDegrees>
              <LongitudeDegrees>2.70592535845935344696044921875</LongitudeDegrees>
            </Position>
            <AltitudeMeters>1330</AltitudeMeters>
            <DistanceMeters>NAN</DistanceMeters>
          </Trackpoint>
          <Trackpoint>
            <Time>2021-04-01T12:43:57.000Z</Time>
            <Position>
              <LatitudeDegrees>42.41558709181845188140869140625</LatitudeDegrees>
              <LongitudeDegrees>2.705868780612945556640625</LongitudeDegrees>
            </Position>
            <AltitudeMeters>1330</AltitudeMeters>
            <DistanceMeters>NAN</DistanceMeters>
          </Trackpoint>
          <Trackpoint>
            <Time>2021-04-01T12:44:02.000Z</Time>
            <Position>
              <LatitudeDegrees>42.41560569964349269866943359375</LatitudeDegrees>
              <LongitudeDegrees>2.70580817945301532745361328125</LongitudeDegrees>
            </Position>
            <AltitudeMeters>1329.800048828125</AltitudeMeters>
            <DistanceMeters>NAN</DistanceMeters>
          </Trackpoint>
          <Trackpoint>
            <Time>2021-04-01T12:44:06.000Z</Time>
            <Position>
              <LatitudeDegrees>42.41561852395534515380859375</LatitudeDegrees>
              <LongitudeDegrees>2.70575688220560550689697265625</LongitudeDegrees>
            </Position>
            <AltitudeMeters>1329.5999755859375</AltitudeMeters>
            <DistanceMeters>NAN</DistanceMeters>
          </Trackpoint>
          <Trackpoint>
            <Time>2021-04-01T12:44:10.000Z</Time>
            <Position>
              <LatitudeDegrees>42.41563118062913417816162109375</LatitudeDegrees>
              <LongitudeDegrees>2.7057145535945892333984375</LongitudeDegrees>
            </Position>
            <AltitudeMeters>1329.5999755859375</AltitudeMeters>
            <DistanceMeters>NAN</DistanceMeters>
          </Trackpoint>
          <Trackpoint>
            <Time>2021-04-01T12:44:12.000Z</Time>
            <Position>
              <LatitudeDegrees>42.41563486866652965545654296875</LatitudeDegrees>
              <LongitudeDegrees>2.705692760646343231201171875</LongitudeDegrees>
            </Position>
            <AltitudeMeters>1329.5999755859375</AltitudeMeters>
            <DistanceMeters>NAN</DistanceMeters>
          </Trackpoint>
          <Trackpoint>
            <Time>2021-04-01T12:44:16.000Z</Time>
            <Position>
              <LatitudeDegrees>42.415620870888233184814453125</LatitudeDegrees>
              <LongitudeDegrees>2.70566401071846485137939453125</LongitudeDegrees>
            </Position>
            <AltitudeMeters>1329.4000244140625</AltitudeMeters>
            <DistanceMeters>NAN</DistanceMeters>
          </Trackpoint>
          <Trackpoint>
            <Time>2021-04-01T12:44:19.000Z</Time>
            <Position>
              <LatitudeDegrees>42.415610812604427337646484375</LatitudeDegrees>
              <LongitudeDegrees>2.70565831102430820465087890625</LongitudeDegrees>
            </Position>
            <AltitudeMeters>1329.800048828125</AltitudeMeters>
            <DistanceMeters>NAN</DistanceMeters>
          </Trackpoint>
          <Trackpoint>
            <Time>2021-04-01T12:44:27.000Z</Time>
            <Position>
              <LatitudeDegrees>42.4155948869884014129638671875</LatitudeDegrees>
              <LongitudeDegrees>2.705649845302104949951171875</LongitudeDegrees>
            </Position>
            <AltitudeMeters>1330</AltitudeMeters>
            <DistanceMeters>NAN</DistanceMeters>
          </Trackpoint>
          <Trackpoint>
            <Time>2021-04-01T12:44:28.000Z</Time>
            <Position>
              <LatitudeDegrees>42.4155875109136104583740234375</LatitudeDegrees>
              <LongitudeDegrees>2.70564875565469264984130859375</LongitudeDegrees>
            </Position>
            <AltitudeMeters>1330</AltitudeMeters>
            <DistanceMeters>NAN</DistanceMeters>
          </Trackpoint>
          <Trackpoint>
            <Time>2021-04-01T12:44:35.000Z</Time>
            <Position>
              <LatitudeDegrees>42.415537722408771514892578125</LatitudeDegrees>
              <LongitudeDegrees>2.70563073456287384033203125</LongitudeDegrees>
            </Position>
            <AltitudeMeters>1331</AltitudeMeters>
            <DistanceMeters>NAN</DistanceMeters>
          </Trackpoint>
          <Trackpoint>
            <Time>2021-04-01T12:44:36.000Z</Time>
            <Position>
              <LatitudeDegrees>42.415529005229473114013671875</LatitudeDegrees>
              <LongitudeDegrees>2.70563098601996898651123046875</LongitudeDegrees>
            </Position>
            <AltitudeMeters>1331.199951171875</AltitudeMeters>
            <DistanceMeters>NAN</DistanceMeters>
          </Trackpoint>
          <Trackpoint>
            <Time>2021-04-01T12:44:39.000Z</Time>
            <Position>
              <LatitudeDegrees>42.4155033566057682037353515625</LatitudeDegrees>
              <LongitudeDegrees>2.70563148893415927886962890625</LongitudeDegrees>
            </Position>
            <AltitudeMeters>1331.800048828125</AltitudeMeters>
            <DistanceMeters>NAN</DistanceMeters>
          </Trackpoint>
          <Trackpoint>
            <Time>2021-04-01T12:44:41.000Z</Time>
            <Position>
              <LatitudeDegrees>42.41549019701778888702392578125</LatitudeDegrees>
              <LongitudeDegrees>2.7056252025067806243896484375</LongitudeDegrees>
            </Position>
            <AltitudeMeters>1332.199951171875</AltitudeMeters>
            <DistanceMeters>NAN</DistanceMeters>
          </Trackpoint>
          <Trackpoint>
            <Time>2021-04-01T12:44:46.000Z</Time>
            <Position>
              <LatitudeDegrees>42.4154520593583583831787109375</LatitudeDegrees>
              <LongitudeDegrees>2.7056114561855792999267578125</LongitudeDegrees>
            </Position>
            <AltitudeMeters>1332.5999755859375</AltitudeMeters>
            <DistanceMeters>NAN</DistanceMeters>
          </Trackpoint>
          <Trackpoint>
            <Time>2021-04-01T12:44:49.000Z</Time>
            <Position>
              <LatitudeDegrees>42.41543554700911045074462890625</LatitudeDegrees>
              <LongitudeDegrees>2.70559159107506275177001953125</LongitudeDegrees>
            </Position>
            <AltitudeMeters>1333.199951171875</AltitudeMeters>
            <DistanceMeters>NAN</DistanceMeters>
          </Trackpoint>
          <Trackpoint>
            <Time>2021-04-01T12:44:53.000Z</Time>
            <Position>
              <LatitudeDegrees>42.41540755145251750946044921875</LatitudeDegrees>
              <LongitudeDegrees>2.70558019168674945831298828125</LongitudeDegrees>
            </Position>
            <AltitudeMeters>1334</AltitudeMeters>
            <DistanceMeters>NAN</DistanceMeters>
          </Trackpoint>
          <Trackpoint>
            <Time>2021-04-01T12:44:58.000Z</Time>
            <Position>
              <LatitudeDegrees>42.415376119315624237060546875</LatitudeDegrees>
              <LongitudeDegrees>2.70557499490678310394287109375</LongitudeDegrees>
            </Position>
            <AltitudeMeters>1334.199951171875</AltitudeMeters>
            <DistanceMeters>NAN</DistanceMeters>
          </Trackpoint>
          <Trackpoint>
            <Time>2021-04-01T12:44:59.000Z</Time>
            <Position>
              <LatitudeDegrees>42.41536580957472324371337890625</LatitudeDegrees>
              <LongitudeDegrees>2.705570720136165618896484375</LongitudeDegrees>
            </Position>
            <AltitudeMeters>1334.4000244140625</AltitudeMeters>
            <DistanceMeters>NAN</DistanceMeters>
          </Trackpoint>
          <Trackpoint>
            <Time>2021-04-01T12:45:02.000Z</Time>
            <Position>
              <LatitudeDegrees>42.41535030305385589599609375</LatitudeDegrees>
              <LongitudeDegrees>2.7055725641548633575439453125</LongitudeDegrees>
            </Position>
            <AltitudeMeters>1334.5999755859375</AltitudeMeters>
            <DistanceMeters>NAN</DistanceMeters>
          </Trackpoint>
          <Trackpoint>
            <Time>2021-04-01T12:45:06.000Z</Time>
            <Position>
              <LatitudeDegrees>42.4153149314224720001220703125</LatitudeDegrees>
              <LongitudeDegrees>2.70557248033583164215087890625</LongitudeDegrees>
            </Position>
            <AltitudeMeters>1335.5999755859375</AltitudeMeters>
            <DistanceMeters>NAN</DistanceMeters>
          </Trackpoint>
          <Trackpoint>
            <Time>2021-04-01T12:45:08.000Z</Time>
            <Position>
              <LatitudeDegrees>42.41530160419642925262451171875</LatitudeDegrees>
              <LongitudeDegrees>2.70556409843266010284423828125</LongitudeDegrees>
            </Position>
            <AltitudeMeters>1335.800048828125</AltitudeMeters>
            <DistanceMeters>NAN</DistanceMeters>
          </Trackpoint>
          <Trackpoint>
            <Time>2021-04-01T12:45:11.000Z</Time>
            <Position>
              <LatitudeDegrees>42.4152904562652111053466796875</LatitudeDegrees>
              <LongitudeDegrees>2.705557309091091156005859375</LongitudeDegrees>
            </Position>
            <AltitudeMeters>1335.4000244140625</AltitudeMeters>
            <DistanceMeters>NAN</DistanceMeters>
          </Trackpoint>
          <Trackpoint>
            <Time>2021-04-01T12:45:13.000Z</Time>
            <Position>
              <LatitudeDegrees>42.41528316400945186614990234375</LatitudeDegrees>
              <LongitudeDegrees>2.70556208677589893341064453125</LongitudeDegrees>
            </Position>
            <AltitudeMeters>1335.4000244140625</AltitudeMeters>
            <DistanceMeters>NAN</DistanceMeters>
          </Trackpoint>
          <Trackpoint>
            <Time>2021-04-01T12:45:19.000Z</Time>
            <Position>
              <LatitudeDegrees>42.41529054008424282073974609375</LatitudeDegrees>
              <LongitudeDegrees>2.705568373203277587890625</LongitudeDegrees>
            </Position>
            <AltitudeMeters>1335.199951171875</AltitudeMeters>
            <DistanceMeters>NAN</DistanceMeters>
          </Trackpoint>
          <Trackpoint>
            <Time>2021-04-01T12:45:20.000Z</Time>
            <Position>
              <LatitudeDegrees>42.4152887798845767974853515625</LatitudeDegrees>
              <LongitudeDegrees>2.7055692113935947418212890625</LongitudeDegrees>
            </Position>
            <AltitudeMeters>1335.199951171875</AltitudeMeters>
            <DistanceMeters>NAN</DistanceMeters>
          </Trackpoint>
          <Trackpoint>
            <Time>2021-04-01T12:45:24.000Z</Time>
            <Position>
              <LatitudeDegrees>42.41528232581913471221923828125</LatitudeDegrees>
              <LongitudeDegrees>2.70556963048875331878662109375</LongitudeDegrees>
            </Position>
            <AltitudeMeters>1335.199951171875</AltitudeMeters>
            <DistanceMeters>NAN</DistanceMeters>
          </Trackpoint>
          <Trackpoint>
            <Time>2021-04-01T12:45:33.000Z</Time>
            <Position>
              <LatitudeDegrees>42.41528433747589588165283203125</LatitudeDegrees>
              <LongitudeDegrees>2.7055692113935947418212890625</LongitudeDegrees>
            </Position>
            <AltitudeMeters>1335.199951171875</AltitudeMeters>
            <DistanceMeters>NAN</DistanceMeters>
          </Trackpoint>
          <Trackpoint>
            <Time>2021-04-01T12:45:35.000Z</Time>
            <Position>
              <LatitudeDegrees>42.41528668440878391265869140625</LatitudeDegrees>
              <LongitudeDegrees>2.70556845702230930328369140625</LongitudeDegrees>
            </Position>
            <AltitudeMeters>1335.4000244140625</AltitudeMeters>
            <DistanceMeters>NAN</DistanceMeters>
          </Trackpoint>
          <Trackpoint>
            <Time>2021-04-01T12:45:36.000Z</Time>
            <Position>
              <LatitudeDegrees>42.415288276970386505126953125</LatitudeDegrees>
              <LongitudeDegrees>2.7055682055652141571044921875</LongitudeDegrees>
            </Position>
            <AltitudeMeters>1335.4000244140625</AltitudeMeters>
            <DistanceMeters>NAN</DistanceMeters>
          </Trackpoint>
          <Trackpoint>
            <Time>2021-04-01T12:45:45.000Z</Time>
            <Position>
              <LatitudeDegrees>42.41529121063649654388427734375</LatitudeDegrees>
              <LongitudeDegrees>2.70555538125336170196533203125</LongitudeDegrees>
            </Position>
            <AltitudeMeters>1335.4000244140625</AltitudeMeters>
            <DistanceMeters>NAN</DistanceMeters>
          </Trackpoint>
          <Trackpoint>
            <Time>2021-04-01T12:45:48.000Z</Time>
            <Position>
              <LatitudeDegrees>42.41529355756938457489013671875</LatitudeDegrees>
              <LongitudeDegrees>2.70555521361529827117919921875</LongitudeDegrees>
            </Position>
            <AltitudeMeters>1335.199951171875</AltitudeMeters>
            <DistanceMeters>NAN</DistanceMeters>
          </Trackpoint>
          <Trackpoint>
            <Time>2021-04-01T12:45:54.000Z</Time>
            <Position>
              <LatitudeDegrees>42.41529489867389202117919921875</LatitudeDegrees>
              <LongitudeDegrees>2.70555521361529827117919921875</LongitudeDegrees>
            </Position>
            <AltitudeMeters>1335.4000244140625</AltitudeMeters>
            <DistanceMeters>NAN</DistanceMeters>
          </Trackpoint>
          <Trackpoint>
            <Time>2021-04-01T12:46:29.000Z</Time>
            <Position>
              <LatitudeDegrees>42.41529892198741436004638671875</LatitudeDegrees>
              <LongitudeDegrees>2.705570049583911895751953125</LongitudeDegrees>
            </Position>
            <AltitudeMeters>1335.800048828125</AltitudeMeters>
            <DistanceMeters>NAN</DistanceMeters>
          </Trackpoint>
          <Trackpoint>
            <Time>2021-04-01T12:46:30.000Z</Time>
            <Position>
              <LatitudeDegrees>42.415303029119968414306640625</LatitudeDegrees>
              <LongitudeDegrees>2.705570049583911895751953125</LongitudeDegrees>
            </Position>
            <AltitudeMeters>1335.800048828125</AltitudeMeters>
            <DistanceMeters>NAN</DistanceMeters>
          </Trackpoint>
          <Trackpoint>
            <Time>2021-04-01T12:46:35.000Z</Time>
            <Position>
              <LatitudeDegrees>42.41530663333833217620849609375</LatitudeDegrees>
              <LongitudeDegrees>2.70557038486003875732421875</LongitudeDegrees>
            </Position>
            <AltitudeMeters>1335.800048828125</AltitudeMeters>
            <DistanceMeters>NAN</DistanceMeters>
          </Trackpoint>
          <Trackpoint>
            <Time>2021-04-01T12:46:38.000Z</Time>
            <Position>
              <LatitudeDegrees>42.41530663333833217620849609375</LatitudeDegrees>
              <LongitudeDegrees>2.7055695466697216033935546875</LongitudeDegrees>
            </Position>
            <AltitudeMeters>1336.199951171875</AltitudeMeters>
            <DistanceMeters>NAN</DistanceMeters>
          </Trackpoint>
          <Trackpoint>
            <Time>2021-04-01T12:46:39.000Z</Time>
            <Position>
              <LatitudeDegrees>42.41530663333833217620849609375</LatitudeDegrees>
              <LongitudeDegrees>2.70556912757456302642822265625</LongitudeDegrees>
            </Position>
            <AltitudeMeters>1336.199951171875</AltitudeMeters>
            <DistanceMeters>NAN</DistanceMeters>
          </Trackpoint>
          <Trackpoint>
            <Time>2021-04-01T12:46:40.000Z</Time>
            <Position>
              <LatitudeDegrees>42.41530663333833217620849609375</LatitudeDegrees>
              <LongitudeDegrees>2.70556862466037273406982421875</LongitudeDegrees>
            </Position>
            <AltitudeMeters>1336.199951171875</AltitudeMeters>
            <DistanceMeters>NAN</DistanceMeters>
          </Trackpoint>
          <Trackpoint>
            <Time>2021-04-01T12:46:42.000Z</Time>
            <Position>
              <LatitudeDegrees>42.41530663333833217620849609375</LatitudeDegrees>
              <LongitudeDegrees>2.705568037927150726318359375</LongitudeDegrees>
            </Position>
            <AltitudeMeters>1336.199951171875</AltitudeMeters>
            <DistanceMeters>NAN</DistanceMeters>
          </Trackpoint>
          <Trackpoint>
            <Time>2021-04-01T12:46:45.000Z</Time>
            <Position>
              <LatitudeDegrees>42.4153068847954273223876953125</LatitudeDegrees>
              <LongitudeDegrees>2.7055678702890872955322265625</LongitudeDegrees>
            </Position>
            <AltitudeMeters>1336.199951171875</AltitudeMeters>
            <DistanceMeters>NAN</DistanceMeters>
          </Trackpoint>
          <Trackpoint>
            <Time>2021-04-01T12:47:03.000Z</Time>
            <Position>
              <LatitudeDegrees>42.41530696861445903778076171875</LatitudeDegrees>
              <LongitudeDegrees>2.705563344061374664306640625</LongitudeDegrees>
            </Position>
            <AltitudeMeters>1336</AltitudeMeters>
            <DistanceMeters>NAN</DistanceMeters>
          </Trackpoint>
          <Trackpoint>
            <Time>2021-04-01T12:47:16.000Z</Time>
            <Position>
              <LatitudeDegrees>42.41530738770961761474609375</LatitudeDegrees>
              <LongitudeDegrees>2.70556242205202579498291015625</LongitudeDegrees>
            </Position>
            <AltitudeMeters>1336.4000244140625</AltitudeMeters>
            <DistanceMeters>NAN</DistanceMeters>
          </Trackpoint>
          <Trackpoint>
            <Time>2021-04-01T12:47:22.000Z</Time>
            <Position>
              <LatitudeDegrees>42.4153062142431735992431640625</LatitudeDegrees>
              <LongitudeDegrees>2.70555957220494747161865234375</LongitudeDegrees>
            </Position>
            <AltitudeMeters>1336.4000244140625</AltitudeMeters>
            <DistanceMeters>NAN</DistanceMeters>
          </Trackpoint>
          <Trackpoint>
            <Time>2021-04-01T12:47:24.000Z</Time>
            <Position>
              <LatitudeDegrees>42.4153058789670467376708984375</LatitudeDegrees>
              <LongitudeDegrees>2.7055591531097888946533203125</LongitudeDegrees>
            </Position>
            <AltitudeMeters>1336.4000244140625</AltitudeMeters>
            <DistanceMeters>NAN</DistanceMeters>
          </Trackpoint>
          <Trackpoint>
            <Time>2021-04-01T12:47:29.000Z</Time>
            <Position>
              <LatitudeDegrees>42.41530478931963443756103515625</LatitudeDegrees>
              <LongitudeDegrees>2.7055588178336620330810546875</LongitudeDegrees>
            </Position>
            <AltitudeMeters>1336</AltitudeMeters>
            <DistanceMeters>NAN</DistanceMeters>
          </Trackpoint>
          <Trackpoint>
            <Time>2021-04-01T12:47:30.000Z</Time>
            <Position>
              <LatitudeDegrees>42.4153042025864124298095703125</LatitudeDegrees>
              <LongitudeDegrees>2.7055588178336620330810546875</LongitudeDegrees>
            </Position>
            <AltitudeMeters>1336</AltitudeMeters>
            <DistanceMeters>NAN</DistanceMeters>
          </Trackpoint>
          <Trackpoint>
            <Time>2021-04-01T12:47:35.000Z</Time>
            <Position>
              <LatitudeDegrees>42.4153025262057781219482421875</LatitudeDegrees>
              <LongitudeDegrees>2.7055584825575351715087890625</LongitudeDegrees>
            </Position>
            <AltitudeMeters>1336.5999755859375</AltitudeMeters>
            <DistanceMeters>NAN</DistanceMeters>
          </Trackpoint>
          <Trackpoint>
            <Time>2021-04-01T12:47:43.000Z</Time>
            <Position>
              <LatitudeDegrees>42.41529825143516063690185546875</LatitudeDegrees>
              <LongitudeDegrees>2.705557979643344879150390625</LongitudeDegrees>
            </Position>
            <AltitudeMeters>1336.5999755859375</AltitudeMeters>
            <DistanceMeters>NAN</DistanceMeters>
          </Trackpoint>
          <Trackpoint>
            <Time>2021-04-01T12:47:50.000Z</Time>
            <Position>
              <LatitudeDegrees>42.415296323597431182861328125</LatitudeDegrees>
              <LongitudeDegrees>2.7055574767291545867919921875</LongitudeDegrees>
            </Position>
            <AltitudeMeters>1336.800048828125</AltitudeMeters>
            <DistanceMeters>NAN</DistanceMeters>
          </Trackpoint>
          <Trackpoint>
            <Time>2021-04-01T12:47:55.000Z</Time>
            <Position>
              <LatitudeDegrees>42.41529540158808231353759765625</LatitudeDegrees>
              <LongitudeDegrees>2.70555772818624973297119140625</LongitudeDegrees>
            </Position>
            <AltitudeMeters>1336.800048828125</AltitudeMeters>
            <DistanceMeters>NAN</DistanceMeters>
          </Trackpoint>
          <Trackpoint>
            <Time>2021-04-01T12:48:15.000Z</Time>
            <Position>
              <LatitudeDegrees>42.41529422812163829803466796875</LatitudeDegrees>
              <LongitudeDegrees>2.70555487833917140960693359375</LongitudeDegrees>
            </Position>
            <AltitudeMeters>1337.199951171875</AltitudeMeters>
            <DistanceMeters>NAN</DistanceMeters>
          </Trackpoint>
          <Trackpoint>
            <Time>2021-04-01T12:48:18.000Z</Time>
            <Position>
              <LatitudeDegrees>42.41529338993132114410400390625</LatitudeDegrees>
              <LongitudeDegrees>2.7055544592440128326416015625</LongitudeDegrees>
            </Position>
            <AltitudeMeters>1337</AltitudeMeters>
            <DistanceMeters>NAN</DistanceMeters>
          </Trackpoint>
          <Trackpoint>
            <Time>2021-04-01T12:48:21.000Z</Time>
            <Position>
              <LatitudeDegrees>42.41529255174100399017333984375</LatitudeDegrees>
              <LongitudeDegrees>2.70555429160594940185546875</LongitudeDegrees>
            </Position>
            <AltitudeMeters>1336.800048828125</AltitudeMeters>
            <DistanceMeters>NAN</DistanceMeters>
          </Trackpoint>
          <Trackpoint>
            <Time>2021-04-01T12:48:38.000Z</Time>
            <Position>
              <LatitudeDegrees>42.41528936661779880523681640625</LatitudeDegrees>
              <LongitudeDegrees>2.70555839873850345611572265625</LongitudeDegrees>
            </Position>
            <AltitudeMeters>1336.5999755859375</AltitudeMeters>
            <DistanceMeters>NAN</DistanceMeters>
          </Trackpoint>
          <Trackpoint>
            <Time>2021-04-01T12:48:39.000Z</Time>
            <Position>
              <LatitudeDegrees>42.41528919897973537445068359375</LatitudeDegrees>
              <LongitudeDegrees>2.705558650195598602294921875</LongitudeDegrees>
            </Position>
            <AltitudeMeters>1336.5999755859375</AltitudeMeters>
            <DistanceMeters>NAN</DistanceMeters>
          </Trackpoint>
          <Trackpoint>
            <Time>2021-04-01T12:48:41.000Z</Time>
            <Position>
              <LatitudeDegrees>42.41528903134167194366455078125</LatitudeDegrees>
              <LongitudeDegrees>2.70555906929075717926025390625</LongitudeDegrees>
            </Position>
            <AltitudeMeters>1336.5999755859375</AltitudeMeters>
            <DistanceMeters>NAN</DistanceMeters>
          </Trackpoint>
          <Trackpoint>
            <Time>2021-04-01T12:48:50.000Z</Time>
            <Position>
              <LatitudeDegrees>42.4152887798845767974853515625</LatitudeDegrees>
              <LongitudeDegrees>2.70555940456688404083251953125</LongitudeDegrees>
            </Position>
            <AltitudeMeters>1336.5999755859375</AltitudeMeters>
            <DistanceMeters>NAN</DistanceMeters>
          </Trackpoint>
          <Trackpoint>
            <Time>2021-04-01T12:48:57.000Z</Time>
            <Position>
              <LatitudeDegrees>42.4152887798845767974853515625</LatitudeDegrees>
              <LongitudeDegrees>2.7055594883859157562255859375</LongitudeDegrees>
            </Position>
            <AltitudeMeters>1336.5999755859375</AltitudeMeters>
            <DistanceMeters>NAN</DistanceMeters>
          </Trackpoint>
          <Trackpoint>
            <Time>2021-04-01T12:48:58.000Z</Time>
            <Position>
              <LatitudeDegrees>42.41528869606554508209228515625</LatitudeDegrees>
              <LongitudeDegrees>2.7055594883859157562255859375</LongitudeDegrees>
            </Position>
            <AltitudeMeters>1336.5999755859375</AltitudeMeters>
            <DistanceMeters>NAN</DistanceMeters>
          </Trackpoint>
          <Trackpoint>
            <Time>2021-04-01T12:49:08.000Z</Time>
            <Position>
              <LatitudeDegrees>42.41528861224651336669921875</LatitudeDegrees>
              <LongitudeDegrees>2.70555973984301090240478515625</LongitudeDegrees>
            </Position>
            <AltitudeMeters>1336.5999755859375</AltitudeMeters>
            <DistanceMeters>NAN</DistanceMeters>
          </Trackpoint>
          <Trackpoint>
            <Time>2021-04-01T12:49:12.000Z</Time>
            <Position>
              <LatitudeDegrees>42.41528861224651336669921875</LatitudeDegrees>
              <LongitudeDegrees>2.70555973984301090240478515625</LongitudeDegrees>
            </Position>
            <AltitudeMeters>1336.5999755859375</AltitudeMeters>
            <DistanceMeters>NAN</DistanceMeters>
          </Trackpoint>
          <Trackpoint>
            <Time>2021-04-01T12:49:14.000Z</Time>
            <Position>
              <LatitudeDegrees>42.41528861224651336669921875</LatitudeDegrees>
              <LongitudeDegrees>2.70555973984301090240478515625</LongitudeDegrees>
            </Position>
            <AltitudeMeters>1336.5999755859375</AltitudeMeters>
            <DistanceMeters>NAN</DistanceMeters>
          </Trackpoint>
          <Trackpoint>
            <Time>2021-04-01T12:49:16.000Z</Time>
            <Position>
              <LatitudeDegrees>42.41528861224651336669921875</LatitudeDegrees>
              <LongitudeDegrees>2.7055598236620426177978515625</LongitudeDegrees>
            </Position>
            <AltitudeMeters>1336.5999755859375</AltitudeMeters>
            <DistanceMeters>NAN</DistanceMeters>
          </Trackpoint>
          <Trackpoint>
            <Time>2021-04-01T12:49:33.000Z</Time>
            <Position>
              <LatitudeDegrees>42.41528861224651336669921875</LatitudeDegrees>
              <LongitudeDegrees>2.70555973984301090240478515625</LongitudeDegrees>
            </Position>
            <AltitudeMeters>1336.5999755859375</AltitudeMeters>
            <DistanceMeters>NAN</DistanceMeters>
          </Trackpoint>
          <Trackpoint>
            <Time>2021-04-01T12:49:38.000Z</Time>
            <Position>
              <LatitudeDegrees>42.4152887798845767974853515625</LatitudeDegrees>
              <LongitudeDegrees>2.70555973984301090240478515625</LongitudeDegrees>
            </Position>
            <AltitudeMeters>1336.5999755859375</AltitudeMeters>
            <DistanceMeters>NAN</DistanceMeters>
          </Trackpoint>
          <Trackpoint>
            <Time>2021-04-01T12:49:51.000Z</Time>
            <Position>
              <LatitudeDegrees>42.4152891151607036590576171875</LatitudeDegrees>
              <LongitudeDegrees>2.70555957220494747161865234375</LongitudeDegrees>
            </Position>
            <AltitudeMeters>1336.5999755859375</AltitudeMeters>
            <DistanceMeters>NAN</DistanceMeters>
          </Trackpoint>
          <Trackpoint>
            <Time>2021-04-01T12:50:12.000Z</Time>
            <Position>
              <LatitudeDegrees>42.41528986953198909759521484375</LatitudeDegrees>
              <LongitudeDegrees>2.70555923692882061004638671875</LongitudeDegrees>
            </Position>
            <AltitudeMeters>1336.5999755859375</AltitudeMeters>
            <DistanceMeters>NAN</DistanceMeters>
          </Trackpoint>
          <Trackpoint>
            <Time>2021-04-01T12:50:20.000Z</Time>
            <Position>
              <LatitudeDegrees>42.41529020480811595916748046875</LatitudeDegrees>
              <LongitudeDegrees>2.70555906929075717926025390625</LongitudeDegrees>
            </Position>
            <AltitudeMeters>1336.5999755859375</AltitudeMeters>
            <DistanceMeters>NAN</DistanceMeters>
          </Trackpoint>
          <Trackpoint>
            <Time>2021-04-01T12:50:26.000Z</Time>
            <Position>
              <LatitudeDegrees>42.4152904562652111053466796875</LatitudeDegrees>
              <LongitudeDegrees>2.7055589854717254638671875</LongitudeDegrees>
            </Position>
            <AltitudeMeters>1336.5999755859375</AltitudeMeters>
            <DistanceMeters>NAN</DistanceMeters>
          </Trackpoint>
          <Trackpoint>
            <Time>2021-04-01T12:51:00.000Z</Time>
            <Position>
              <LatitudeDegrees>42.41529154591262340545654296875</LatitudeDegrees>
              <LongitudeDegrees>2.70555823110044002532958984375</LongitudeDegrees>
            </Position>
            <AltitudeMeters>1336.5999755859375</AltitudeMeters>
            <DistanceMeters>NAN</DistanceMeters>
          </Trackpoint>
          <Trackpoint>
            <Time>2021-04-01T12:51:04.000Z</Time>
            <Position>
              <LatitudeDegrees>42.41529154591262340545654296875</LatitudeDegrees>
              <LongitudeDegrees>2.70555806346237659454345703125</LongitudeDegrees>
            </Position>
            <AltitudeMeters>1336.5999755859375</AltitudeMeters>
            <DistanceMeters>NAN</DistanceMeters>
          </Trackpoint>
          <Trackpoint>
            <Time>2021-04-01T12:51:05.000Z</Time>
            <Position>
              <LatitudeDegrees>42.41529154591262340545654296875</LatitudeDegrees>
              <LongitudeDegrees>2.70555806346237659454345703125</LongitudeDegrees>
            </Position>
            <AltitudeMeters>1336.5999755859375</AltitudeMeters>
            <DistanceMeters>NAN</DistanceMeters>
          </Trackpoint>
          <Trackpoint>
            <Time>2021-04-01T12:51:20.000Z</Time>
            <Position>
              <LatitudeDegrees>42.41529137827455997467041015625</LatitudeDegrees>
              <LongitudeDegrees>2.70555739291012287139892578125</LongitudeDegrees>
            </Position>
            <AltitudeMeters>1336.5999755859375</AltitudeMeters>
            <DistanceMeters>NAN</DistanceMeters>
          </Trackpoint>
          <Trackpoint>
            <Time>2021-04-01T12:51:24.000Z</Time>
            <Position>
              <LatitudeDegrees>42.41529137827455997467041015625</LatitudeDegrees>
              <LongitudeDegrees>2.70555722527205944061279296875</LongitudeDegrees>
            </Position>
            <AltitudeMeters>1336.5999755859375</AltitudeMeters>
            <DistanceMeters>NAN</DistanceMeters>
          </Trackpoint>
          <Trackpoint>
            <Time>2021-04-01T12:51:26.000Z</Time>
            <Position>
              <LatitudeDegrees>42.41529137827455997467041015625</LatitudeDegrees>
              <LongitudeDegrees>2.7055571414530277252197265625</LongitudeDegrees>
            </Position>
            <AltitudeMeters>1336.5999755859375</AltitudeMeters>
            <DistanceMeters>NAN</DistanceMeters>
          </Trackpoint>
          <Trackpoint>
            <Time>2021-04-01T12:51:28.000Z</Time>
            <Position>
              <LatitudeDegrees>42.41529137827455997467041015625</LatitudeDegrees>
              <LongitudeDegrees>2.70555705763399600982666015625</LongitudeDegrees>
            </Position>
            <AltitudeMeters>1336.5999755859375</AltitudeMeters>
            <DistanceMeters>NAN</DistanceMeters>
          </Trackpoint>
          <Trackpoint>
            <Time>2021-04-01T12:51:30.000Z</Time>
            <Position>
              <LatitudeDegrees>42.41529137827455997467041015625</LatitudeDegrees>
              <LongitudeDegrees>2.70555697381496429443359375</LongitudeDegrees>
            </Position>
            <AltitudeMeters>1336.5999755859375</AltitudeMeters>
            <DistanceMeters>NAN</DistanceMeters>
          </Trackpoint>
          <Trackpoint>
            <Time>2021-04-01T12:51:41.000Z</Time>
            <Position>
              <LatitudeDegrees>42.41529154591262340545654296875</LatitudeDegrees>
              <LongitudeDegrees>2.7055564709007740020751953125</LongitudeDegrees>
            </Position>
            <AltitudeMeters>1336.5999755859375</AltitudeMeters>
            <DistanceMeters>NAN</DistanceMeters>
          </Trackpoint>
          <Trackpoint>
            <Time>2021-04-01T12:51:54.000Z</Time>
            <Position>
              <LatitudeDegrees>42.41529188118875026702880859375</LatitudeDegrees>
              <LongitudeDegrees>2.70555588416755199432373046875</LongitudeDegrees>
            </Position>
            <AltitudeMeters>1336.5999755859375</AltitudeMeters>
            <DistanceMeters>NAN</DistanceMeters>
          </Trackpoint>
          <Trackpoint>
            <Time>2021-04-01T12:52:01.000Z</Time>
            <Position>
              <LatitudeDegrees>42.4152921326458454132080078125</LatitudeDegrees>
              <LongitudeDegrees>2.70555554889142513275146484375</LongitudeDegrees>
            </Position>
            <AltitudeMeters>1336.5999755859375</AltitudeMeters>
            <DistanceMeters>NAN</DistanceMeters>
          </Trackpoint>
          <Trackpoint>
            <Time>2021-04-01T12:52:02.000Z</Time>
            <Position>
              <LatitudeDegrees>42.4152921326458454132080078125</LatitudeDegrees>
              <LongitudeDegrees>2.70555554889142513275146484375</LongitudeDegrees>
            </Position>
            <AltitudeMeters>1336.5999755859375</AltitudeMeters>
            <DistanceMeters>NAN</DistanceMeters>
          </Trackpoint>
          <Trackpoint>
            <Time>2021-04-01T12:52:08.000Z</Time>
            <Position>
              <LatitudeDegrees>42.415292300283908843994140625</LatitudeDegrees>
              <LongitudeDegrees>2.705555297434329986572265625</LongitudeDegrees>
            </Position>
            <AltitudeMeters>1336.5999755859375</AltitudeMeters>
            <DistanceMeters>NAN</DistanceMeters>
          </Trackpoint>
          <Trackpoint>
            <Time>2021-04-01T12:52:16.000Z</Time>
            <Position>
              <LatitudeDegrees>42.41529271937906742095947265625</LatitudeDegrees>
              <LongitudeDegrees>2.7055551297962665557861328125</LongitudeDegrees>
            </Position>
            <AltitudeMeters>1336.5999755859375</AltitudeMeters>
            <DistanceMeters>NAN</DistanceMeters>
          </Trackpoint>
          <Trackpoint>
            <Time>2021-04-01T12:52:29.000Z</Time>
            <Position>
              <LatitudeDegrees>42.41529338993132114410400390625</LatitudeDegrees>
              <LongitudeDegrees>2.705554962158203125</LongitudeDegrees>
            </Position>
            <AltitudeMeters>1336.5999755859375</AltitudeMeters>
            <DistanceMeters>NAN</DistanceMeters>
          </Trackpoint>
          <Trackpoint>
            <Time>2021-04-01T12:52:40.000Z</Time>
            <Position>
              <LatitudeDegrees>42.41529389284551143646240234375</LatitudeDegrees>
              <LongitudeDegrees>2.705554962158203125</LongitudeDegrees>
            </Position>
            <AltitudeMeters>1336.5999755859375</AltitudeMeters>
            <DistanceMeters>NAN</DistanceMeters>
          </Trackpoint>
          <Trackpoint>
            <Time>2021-04-01T12:52:41.000Z</Time>
            <Position>
              <LatitudeDegrees>42.41529397666454315185546875</LatitudeDegrees>
              <LongitudeDegrees>2.705554962158203125</LongitudeDegrees>
            </Position>
            <AltitudeMeters>1336.5999755859375</AltitudeMeters>
            <DistanceMeters>NAN</DistanceMeters>
          </Trackpoint>
          <Trackpoint>
            <Time>2021-04-01T12:52:43.000Z</Time>
            <Position>
              <LatitudeDegrees>42.41529406048357486724853515625</LatitudeDegrees>
              <LongitudeDegrees>2.705554962158203125</LongitudeDegrees>
            </Position>
            <AltitudeMeters>1336.5999755859375</AltitudeMeters>
            <DistanceMeters>NAN</DistanceMeters>
          </Trackpoint>
          <Trackpoint>
            <Time>2021-04-01T12:52:45.000Z</Time>
            <Position>
              <LatitudeDegrees>42.4152941443026065826416015625</LatitudeDegrees>
              <LongitudeDegrees>2.70555504597723484039306640625</LongitudeDegrees>
            </Position>
            <AltitudeMeters>1336.5999755859375</AltitudeMeters>
            <DistanceMeters>NAN</DistanceMeters>
          </Trackpoint>
          <Trackpoint>
            <Time>2021-04-01T12:53:05.000Z</Time>
            <Position>
              <LatitudeDegrees>42.41529489867389202117919921875</LatitudeDegrees>
              <LongitudeDegrees>2.705554962158203125</LongitudeDegrees>
            </Position>
            <AltitudeMeters>1336.5999755859375</AltitudeMeters>
            <DistanceMeters>NAN</DistanceMeters>
          </Trackpoint>
          <Trackpoint>
            <Time>2021-04-01T12:53:13.000Z</Time>
            <Position>
              <LatitudeDegrees>42.4152951501309871673583984375</LatitudeDegrees>
              <LongitudeDegrees>2.705554626882076263427734375</LongitudeDegrees>
            </Position>
            <AltitudeMeters>1336.5999755859375</AltitudeMeters>
            <DistanceMeters>NAN</DistanceMeters>
          </Trackpoint>
          <Trackpoint>
            <Time>2021-04-01T12:53:14.000Z</Time>
            <Position>
              <LatitudeDegrees>42.4152951501309871673583984375</LatitudeDegrees>
              <LongitudeDegrees>2.705554626882076263427734375</LongitudeDegrees>
            </Position>
            <AltitudeMeters>1336.5999755859375</AltitudeMeters>
            <DistanceMeters>NAN</DistanceMeters>
          </Trackpoint>
          <Trackpoint>
            <Time>2021-04-01T12:53:21.000Z</Time>
            <Position>
              <LatitudeDegrees>42.41529540158808231353759765625</LatitudeDegrees>
              <LongitudeDegrees>2.70555429160594940185546875</LongitudeDegrees>
            </Position>
            <AltitudeMeters>1336.5999755859375</AltitudeMeters>
            <DistanceMeters>NAN</DistanceMeters>
          </Trackpoint>
          <Trackpoint>
            <Time>2021-04-01T12:53:29.000Z</Time>
            <Position>
              <LatitudeDegrees>42.41529556922614574432373046875</LatitudeDegrees>
              <LongitudeDegrees>2.70555404014885425567626953125</LongitudeDegrees>
            </Position>
            <AltitudeMeters>1336.5999755859375</AltitudeMeters>
            <DistanceMeters>NAN</DistanceMeters>
          </Trackpoint>
          <Trackpoint>
            <Time>2021-04-01T12:53:37.000Z</Time>
            <Position>
              <LatitudeDegrees>42.4152958206832408905029296875</LatitudeDegrees>
              <LongitudeDegrees>2.7055537886917591094970703125</LongitudeDegrees>
            </Position>
            <AltitudeMeters>1336.5999755859375</AltitudeMeters>
            <DistanceMeters>NAN</DistanceMeters>
          </Trackpoint>
          <Trackpoint>
            <Time>2021-04-01T12:53:57.000Z</Time>
            <Position>
              <LatitudeDegrees>42.41529640741646289825439453125</LatitudeDegrees>
              <LongitudeDegrees>2.70555370487272739410400390625</LongitudeDegrees>
            </Position>
            <AltitudeMeters>1336.5999755859375</AltitudeMeters>
            <DistanceMeters>NAN</DistanceMeters>
          </Trackpoint>
          <Trackpoint>
            <Time>2021-04-01T12:54:04.000Z</Time>
            <Position>
              <LatitudeDegrees>42.41529665887355804443359375</LatitudeDegrees>
              <LongitudeDegrees>2.70555387251079082489013671875</LongitudeDegrees>
            </Position>
            <AltitudeMeters>1336.5999755859375</AltitudeMeters>
            <DistanceMeters>NAN</DistanceMeters>
          </Trackpoint>
          <Trackpoint>
            <Time>2021-04-01T12:54:12.000Z</Time>
            <Position>
              <LatitudeDegrees>42.41529707796871662139892578125</LatitudeDegrees>
              <LongitudeDegrees>2.70555404014885425567626953125</LongitudeDegrees>
            </Position>
            <AltitudeMeters>1336.5999755859375</AltitudeMeters>
            <DistanceMeters>NAN</DistanceMeters>
          </Trackpoint>
          <Trackpoint>
            <Time>2021-04-01T12:54:28.000Z</Time>
            <Position>
              <LatitudeDegrees>42.4152981676161289215087890625</LatitudeDegrees>
              <LongitudeDegrees>2.70555437542498111724853515625</LongitudeDegrees>
            </Position>
            <AltitudeMeters>1336.5999755859375</AltitudeMeters>
            <DistanceMeters>NAN</DistanceMeters>
          </Trackpoint>
          <Trackpoint>
            <Time>2021-04-01T12:54:35.000Z</Time>
            <Position>
              <LatitudeDegrees>42.41529858671128749847412109375</LatitudeDegrees>
              <LongitudeDegrees>2.70555437542498111724853515625</LongitudeDegrees>
            </Position>
            <AltitudeMeters>1336.5999755859375</AltitudeMeters>
            <DistanceMeters>NAN</DistanceMeters>
          </Trackpoint>
          <Trackpoint>
            <Time>2021-04-01T12:54:43.000Z</Time>
            <Position>
              <LatitudeDegrees>42.415299005806446075439453125</LatitudeDegrees>
              <LongitudeDegrees>2.70555429160594940185546875</LongitudeDegrees>
            </Position>
            <AltitudeMeters>1336.5999755859375</AltitudeMeters>
            <DistanceMeters>NAN</DistanceMeters>
          </Trackpoint>
          <Trackpoint>
            <Time>2021-04-01T12:54:52.000Z</Time>
            <Position>
              <LatitudeDegrees>42.41529934108257293701171875</LatitudeDegrees>
              <LongitudeDegrees>2.7055541239678859710693359375</LongitudeDegrees>
            </Position>
            <AltitudeMeters>1336.5999755859375</AltitudeMeters>
            <DistanceMeters>NAN</DistanceMeters>
          </Trackpoint>
          <Trackpoint>
            <Time>2021-04-01T12:55:00.000Z</Time>
            <Position>
              <LatitudeDegrees>42.41529959253966808319091796875</LatitudeDegrees>
              <LongitudeDegrees>2.70555404014885425567626953125</LongitudeDegrees>
            </Position>
            <AltitudeMeters>1336.5999755859375</AltitudeMeters>
            <DistanceMeters>NAN</DistanceMeters>
          </Trackpoint>
          <Trackpoint>
            <Time>2021-04-01T12:55:07.000Z</Time>
            <Position>
              <LatitudeDegrees>42.4152998439967632293701171875</LatitudeDegrees>
              <LongitudeDegrees>2.705553956329822540283203125</LongitudeDegrees>
            </Position>
            <AltitudeMeters>1336.5999755859375</AltitudeMeters>
            <DistanceMeters>NAN</DistanceMeters>
          </Trackpoint>
          <Trackpoint>
            <Time>2021-04-01T12:55:10.000Z</Time>
            <Position>
              <LatitudeDegrees>42.41529992781579494476318359375</LatitudeDegrees>
              <LongitudeDegrees>2.705553956329822540283203125</LongitudeDegrees>
            </Position>
            <AltitudeMeters>1336.5999755859375</AltitudeMeters>
            <DistanceMeters>NAN</DistanceMeters>
          </Trackpoint>
          <Trackpoint>
            <Time>2021-04-01T12:55:23.000Z</Time>
            <Position>
              <LatitudeDegrees>42.4153001792728900909423828125</LatitudeDegrees>
              <LongitudeDegrees>2.7055537886917591094970703125</LongitudeDegrees>
            </Position>
            <AltitudeMeters>1336.5999755859375</AltitudeMeters>
            <DistanceMeters>NAN</DistanceMeters>
          </Trackpoint>
          <Trackpoint>
            <Time>2021-04-01T12:55:29.000Z</Time>
            <Position>
              <LatitudeDegrees>42.41530026309192180633544921875</LatitudeDegrees>
              <LongitudeDegrees>2.7055537886917591094970703125</LongitudeDegrees>
            </Position>
            <AltitudeMeters>1336.5999755859375</AltitudeMeters>
            <DistanceMeters>NAN</DistanceMeters>
          </Trackpoint>
          <Trackpoint>
            <Time>2021-04-01T12:55:32.000Z</Time>
            <Position>
              <LatitudeDegrees>42.415300346910953521728515625</LatitudeDegrees>
              <LongitudeDegrees>2.70555370487272739410400390625</LongitudeDegrees>
            </Position>
            <AltitudeMeters>1336.5999755859375</AltitudeMeters>
            <DistanceMeters>NAN</DistanceMeters>
          </Trackpoint>
          <Trackpoint>
            <Time>2021-04-01T12:55:35.000Z</Time>
            <Position>
              <LatitudeDegrees>42.41530043072998523712158203125</LatitudeDegrees>
              <LongitudeDegrees>2.70555370487272739410400390625</LongitudeDegrees>
            </Position>
            <AltitudeMeters>1336.5999755859375</AltitudeMeters>
            <DistanceMeters>NAN</DistanceMeters>
          </Trackpoint>
          <Trackpoint>
            <Time>2021-04-01T12:55:38.000Z</Time>
            <Position>
              <LatitudeDegrees>42.41530043072998523712158203125</LatitudeDegrees>
              <LongitudeDegrees>2.70555370487272739410400390625</LongitudeDegrees>
            </Position>
            <AltitudeMeters>1336.5999755859375</AltitudeMeters>
            <DistanceMeters>NAN</DistanceMeters>
          </Trackpoint>
          <Trackpoint>
            <Time>2021-04-01T12:55:52.000Z</Time>
            <Position>
              <LatitudeDegrees>42.415301017463207244873046875</LatitudeDegrees>
              <LongitudeDegrees>2.7055537886917591094970703125</LongitudeDegrees>
            </Position>
            <AltitudeMeters>1336.5999755859375</AltitudeMeters>
            <DistanceMeters>NAN</DistanceMeters>
          </Trackpoint>
          <Trackpoint>
            <Time>2021-04-01T12:55:56.000Z</Time>
            <Position>
              <LatitudeDegrees>42.4153011851012706756591796875</LatitudeDegrees>
              <LongitudeDegrees>2.7055537886917591094970703125</LongitudeDegrees>
            </Position>
            <AltitudeMeters>1336.5999755859375</AltitudeMeters>
            <DistanceMeters>NAN</DistanceMeters>
          </Trackpoint>
          <Trackpoint>
            <Time>2021-04-01T12:56:01.000Z</Time>
            <Position>
              <LatitudeDegrees>42.4153013527393341064453125</LatitudeDegrees>
              <LongitudeDegrees>2.705553956329822540283203125</LongitudeDegrees>
            </Position>
            <AltitudeMeters>1336.5999755859375</AltitudeMeters>
            <DistanceMeters>NAN</DistanceMeters>
          </Trackpoint>
          <Trackpoint>
            <Time>2021-04-01T12:56:08.000Z</Time>
            <Position>
              <LatitudeDegrees>42.41530160419642925262451171875</LatitudeDegrees>
              <LongitudeDegrees>2.70555404014885425567626953125</LongitudeDegrees>
            </Position>
            <AltitudeMeters>1336.5999755859375</AltitudeMeters>
            <DistanceMeters>NAN</DistanceMeters>
          </Trackpoint>
          <Trackpoint>
            <Time>2021-04-01T12:56:10.000Z</Time>
            <Position>
              <LatitudeDegrees>42.41530160419642925262451171875</LatitudeDegrees>
              <LongitudeDegrees>2.7055541239678859710693359375</LongitudeDegrees>
            </Position>
            <AltitudeMeters>1336.5999755859375</AltitudeMeters>
            <DistanceMeters>NAN</DistanceMeters>
          </Trackpoint>
          <Trackpoint>
            <Time>2021-04-01T12:56:12.000Z</Time>
            <Position>
              <LatitudeDegrees>42.41530160419642925262451171875</LatitudeDegrees>
              <LongitudeDegrees>2.7055541239678859710693359375</LongitudeDegrees>
            </Position>
            <AltitudeMeters>1336.5999755859375</AltitudeMeters>
            <DistanceMeters>NAN</DistanceMeters>
          </Trackpoint>
          <Trackpoint>
            <Time>2021-04-01T12:56:25.000Z</Time>
            <Position>
              <LatitudeDegrees>42.41530177183449268341064453125</LatitudeDegrees>
              <LongitudeDegrees>2.7055544592440128326416015625</LongitudeDegrees>
            </Position>
            <AltitudeMeters>1336.5999755859375</AltitudeMeters>
            <DistanceMeters>NAN</DistanceMeters>
          </Trackpoint>
          <Trackpoint>
            <Time>2021-04-01T12:56:29.000Z</Time>
            <Position>
              <LatitudeDegrees>42.4153018556535243988037109375</LatitudeDegrees>
              <LongitudeDegrees>2.7055544592440128326416015625</LongitudeDegrees>
            </Position>
            <AltitudeMeters>1336.5999755859375</AltitudeMeters>
            <DistanceMeters>NAN</DistanceMeters>
          </Trackpoint>
          <Trackpoint>
            <Time>2021-04-01T12:56:33.000Z</Time>
            <Position>
              <LatitudeDegrees>42.41530202329158782958984375</LatitudeDegrees>
              <LongitudeDegrees>2.70555454306304454803466796875</LongitudeDegrees>
            </Position>
            <AltitudeMeters>1336.5999755859375</AltitudeMeters>
            <DistanceMeters>NAN</DistanceMeters>
          </Trackpoint>
          <Trackpoint>
            <Time>2021-04-01T12:56:35.000Z</Time>
            <Position>
              <LatitudeDegrees>42.41530210711061954498291015625</LatitudeDegrees>
              <LongitudeDegrees>2.70555454306304454803466796875</LongitudeDegrees>
            </Position>
            <AltitudeMeters>1336.5999755859375</AltitudeMeters>
            <DistanceMeters>NAN</DistanceMeters>
          </Trackpoint>
          <Trackpoint>
            <Time>2021-04-01T12:56:41.000Z</Time>
            <Position>
              <LatitudeDegrees>42.415302358567714691162109375</LatitudeDegrees>
              <LongitudeDegrees>2.705554626882076263427734375</LongitudeDegrees>
            </Position>
            <AltitudeMeters>1336.5999755859375</AltitudeMeters>
            <DistanceMeters>NAN</DistanceMeters>
          </Trackpoint>
          <Trackpoint>
            <Time>2021-04-01T12:56:53.000Z</Time>
            <Position>
              <LatitudeDegrees>42.41530294530093669891357421875</LatitudeDegrees>
              <LongitudeDegrees>2.705554626882076263427734375</LongitudeDegrees>
            </Position>
            <AltitudeMeters>1336.5999755859375</AltitudeMeters>
            <DistanceMeters>NAN</DistanceMeters>
          </Trackpoint>
          <Trackpoint>
            <Time>2021-04-01T12:57:02.000Z</Time>
            <Position>
              <LatitudeDegrees>42.41530328057706356048583984375</LatitudeDegrees>
              <LongitudeDegrees>2.705554626882076263427734375</LongitudeDegrees>
            </Position>
            <AltitudeMeters>1336.5999755859375</AltitudeMeters>
            <DistanceMeters>NAN</DistanceMeters>
          </Trackpoint>
          <Trackpoint>
            <Time>2021-04-01T12:57:04.000Z</Time>
            <Position>
              <LatitudeDegrees>42.41530336439609527587890625</LatitudeDegrees>
              <LongitudeDegrees>2.705554626882076263427734375</LongitudeDegrees>
            </Position>
            <AltitudeMeters>1336.5999755859375</AltitudeMeters>
            <DistanceMeters>NAN</DistanceMeters>
          </Trackpoint>
          <Trackpoint>
            <Time>2021-04-01T12:57:05.000Z</Time>
            <Position>
              <LatitudeDegrees>42.41530336439609527587890625</LatitudeDegrees>
              <LongitudeDegrees>2.705554626882076263427734375</LongitudeDegrees>
            </Position>
            <AltitudeMeters>1336.5999755859375</AltitudeMeters>
            <DistanceMeters>NAN</DistanceMeters>
          </Trackpoint>
          <Trackpoint>
            <Time>2021-04-01T12:57:22.000Z</Time>
            <Position>
              <LatitudeDegrees>42.4153040349483489990234375</LatitudeDegrees>
              <LongitudeDegrees>2.70555420778691768646240234375</LongitudeDegrees>
            </Position>
            <AltitudeMeters>1336.5999755859375</AltitudeMeters>
            <DistanceMeters>NAN</DistanceMeters>
          </Trackpoint>
          <Trackpoint>
            <Time>2021-04-01T12:57:25.000Z</Time>
            <Position>
              <LatitudeDegrees>42.41530411876738071441650390625</LatitudeDegrees>
              <LongitudeDegrees>2.7055541239678859710693359375</LongitudeDegrees>
            </Position>
            <AltitudeMeters>1336.5999755859375</AltitudeMeters>
            <DistanceMeters>NAN</DistanceMeters>
          </Trackpoint>
          <Trackpoint>
            <Time>2021-04-01T12:57:28.000Z</Time>
            <Position>
              <LatitudeDegrees>42.41530411876738071441650390625</LatitudeDegrees>
              <LongitudeDegrees>2.70555404014885425567626953125</LongitudeDegrees>
            </Position>
            <AltitudeMeters>1336.5999755859375</AltitudeMeters>
            <DistanceMeters>NAN</DistanceMeters>
          </Trackpoint>
          <Trackpoint>
            <Time>2021-04-01T12:57:29.000Z</Time>
            <Position>
              <LatitudeDegrees>42.4153042025864124298095703125</LatitudeDegrees>
              <LongitudeDegrees>2.70555404014885425567626953125</LongitudeDegrees>
            </Position>
            <AltitudeMeters>1336.5999755859375</AltitudeMeters>
            <DistanceMeters>NAN</DistanceMeters>
          </Trackpoint>
          <Trackpoint>
            <Time>2021-04-01T12:57:32.000Z</Time>
            <Position>
              <LatitudeDegrees>42.4153042025864124298095703125</LatitudeDegrees>
              <LongitudeDegrees>2.70555387251079082489013671875</LongitudeDegrees>
            </Position>
            <AltitudeMeters>1336.5999755859375</AltitudeMeters>
            <DistanceMeters>NAN</DistanceMeters>
          </Trackpoint>
          <Trackpoint>
            <Time>2021-04-01T12:58:01.000Z</Time>
            <Position>
              <LatitudeDegrees>42.41530470550060272216796875</LatitudeDegrees>
              <LongitudeDegrees>2.70555269904434680938720703125</LongitudeDegrees>
            </Position>
            <AltitudeMeters>1336.5999755859375</AltitudeMeters>
            <DistanceMeters>NAN</DistanceMeters>
          </Trackpoint>
          <Trackpoint>
            <Time>2021-04-01T12:58:13.000Z</Time>
            <Position>
              <LatitudeDegrees>42.41530495695769786834716796875</LatitudeDegrees>
              <LongitudeDegrees>2.70555236376821994781494140625</LongitudeDegrees>
            </Position>
            <AltitudeMeters>1336.5999755859375</AltitudeMeters>
            <DistanceMeters>NAN</DistanceMeters>
          </Trackpoint>
          <Trackpoint>
            <Time>2021-04-01T12:58:25.000Z</Time>
            <Position>
              <LatitudeDegrees>42.41530529223382472991943359375</LatitudeDegrees>
              <LongitudeDegrees>2.7055521123111248016357421875</LongitudeDegrees>
            </Position>
            <AltitudeMeters>1336.5999755859375</AltitudeMeters>
            <DistanceMeters>NAN</DistanceMeters>
          </Trackpoint>
          <Trackpoint>
            <Time>2021-04-01T12:58:31.000Z</Time>
            <Position>
              <LatitudeDegrees>42.41530545987188816070556640625</LatitudeDegrees>
              <LongitudeDegrees>2.70555202849209308624267578125</LongitudeDegrees>
            </Position>
            <AltitudeMeters>1336.5999755859375</AltitudeMeters>
            <DistanceMeters>NAN</DistanceMeters>
          </Trackpoint>
          <Trackpoint>
            <Time>2021-04-01T12:58:40.000Z</Time>
            <Position>
              <LatitudeDegrees>42.4153058789670467376708984375</LatitudeDegrees>
              <LongitudeDegrees>2.705551944673061370849609375</LongitudeDegrees>
            </Position>
            <AltitudeMeters>1336.5999755859375</AltitudeMeters>
            <DistanceMeters>NAN</DistanceMeters>
          </Trackpoint>
          <Trackpoint>
            <Time>2021-04-01T12:58:50.000Z</Time>
            <Position>
              <LatitudeDegrees>42.415306381881237030029296875</LatitudeDegrees>
              <LongitudeDegrees>2.70555186085402965545654296875</LongitudeDegrees>
            </Position>
            <AltitudeMeters>1336.5999755859375</AltitudeMeters>
            <DistanceMeters>NAN</DistanceMeters>
          </Trackpoint>
          <Trackpoint>
            <Time>2021-04-01T12:58:53.000Z</Time>
            <Position>
              <LatitudeDegrees>42.4153065495193004608154296875</LatitudeDegrees>
              <LongitudeDegrees>2.7055517770349979400634765625</LongitudeDegrees>
            </Position>
            <AltitudeMeters>1336.5999755859375</AltitudeMeters>
            <DistanceMeters>NAN</DistanceMeters>
          </Trackpoint>
          <Trackpoint>
            <Time>2021-04-01T12:58:55.000Z</Time>
            <Position>
              <LatitudeDegrees>42.41530663333833217620849609375</LatitudeDegrees>
              <LongitudeDegrees>2.7055517770349979400634765625</LongitudeDegrees>
            </Position>
            <AltitudeMeters>1336.5999755859375</AltitudeMeters>
            <DistanceMeters>NAN</DistanceMeters>
          </Trackpoint>
          <Trackpoint>
            <Time>2021-04-01T12:59:13.000Z</Time>
            <Position>
              <LatitudeDegrees>42.4153075553476810455322265625</LatitudeDegrees>
              <LongitudeDegrees>2.70555135793983936309814453125</LongitudeDegrees>
            </Position>
            <AltitudeMeters>1336.5999755859375</AltitudeMeters>
            <DistanceMeters>NAN</DistanceMeters>
          </Trackpoint>
          <Trackpoint>
            <Time>2021-04-01T12:59:17.000Z</Time>
            <Position>
              <LatitudeDegrees>42.41530763916671276092529296875</LatitudeDegrees>
              <LongitudeDegrees>2.70555119030177593231201171875</LongitudeDegrees>
            </Position>
            <AltitudeMeters>1336.5999755859375</AltitudeMeters>
            <DistanceMeters>NAN</DistanceMeters>
          </Trackpoint>
          <Trackpoint>
            <Time>2021-04-01T12:59:20.000Z</Time>
            <Position>
              <LatitudeDegrees>42.415307722985744476318359375</LatitudeDegrees>
              <LongitudeDegrees>2.70555102266371250152587890625</LongitudeDegrees>
            </Position>
            <AltitudeMeters>1336.5999755859375</AltitudeMeters>
            <DistanceMeters>NAN</DistanceMeters>
          </Trackpoint>
          <Trackpoint>
            <Time>2021-04-01T12:59:21.000Z</Time>
            <Position>
              <LatitudeDegrees>42.415307722985744476318359375</LatitudeDegrees>
              <LongitudeDegrees>2.7055509388446807861328125</LongitudeDegrees>
            </Position>
            <AltitudeMeters>1336.5999755859375</AltitudeMeters>
            <DistanceMeters>NAN</DistanceMeters>
          </Trackpoint>
          <Trackpoint>
            <Time>2021-04-01T12:59:25.000Z</Time>
            <Position>
              <LatitudeDegrees>42.41530780680477619171142578125</LatitudeDegrees>
              <LongitudeDegrees>2.7055507712066173553466796875</LongitudeDegrees>
            </Position>
            <AltitudeMeters>1336.5999755859375</AltitudeMeters>
            <DistanceMeters>NAN</DistanceMeters>
          </Trackpoint>
          <Trackpoint>
            <Time>2021-04-01T12:59:40.000Z</Time>
            <Position>
              <LatitudeDegrees>42.4153078906238079071044921875</LatitudeDegrees>
              <LongitudeDegrees>2.705549933016300201416015625</LongitudeDegrees>
            </Position>
            <AltitudeMeters>1336.5999755859375</AltitudeMeters>
            <DistanceMeters>NAN</DistanceMeters>
          </Trackpoint>
          <Trackpoint>
            <Time>2021-04-01T12:59:47.000Z</Time>
            <Position>
              <LatitudeDegrees>42.4153078906238079071044921875</LatitudeDegrees>
              <LongitudeDegrees>2.70554968155920505523681640625</LongitudeDegrees>
            </Position>
            <AltitudeMeters>1336.5999755859375</AltitudeMeters>
            <DistanceMeters>NAN</DistanceMeters>
          </Trackpoint>
          <Trackpoint>
            <Time>2021-04-01T13:00:03.000Z</Time>
            <Position>
              <LatitudeDegrees>42.415308058261871337890625</LatitudeDegrees>
              <LongitudeDegrees>2.705549262464046478271484375</LongitudeDegrees>
            </Position>
            <AltitudeMeters>1336.5999755859375</AltitudeMeters>
            <DistanceMeters>NAN</DistanceMeters>
          </Trackpoint>
          <Trackpoint>
            <Time>2021-04-01T13:00:43.000Z</Time>
            <Position>
              <LatitudeDegrees>42.41530847735702991485595703125</LatitudeDegrees>
              <LongitudeDegrees>2.70554867573082447052001953125</LongitudeDegrees>
            </Position>
            <AltitudeMeters>1336.5999755859375</AltitudeMeters>
            <DistanceMeters>NAN</DistanceMeters>
          </Trackpoint>
          <Trackpoint>
            <Time>2021-04-01T13:00:50.000Z</Time>
            <Position>
              <LatitudeDegrees>42.41530847735702991485595703125</LatitudeDegrees>
              <LongitudeDegrees>2.70554850809276103973388671875</LongitudeDegrees>
            </Position>
            <AltitudeMeters>1336.5999755859375</AltitudeMeters>
            <DistanceMeters>NAN</DistanceMeters>
          </Trackpoint>
          <Trackpoint>
            <Time>2021-04-01T13:00:57.000Z</Time>
            <Position>
              <LatitudeDegrees>42.415308393537998199462890625</LatitudeDegrees>
              <LongitudeDegrees>2.705548591911792755126953125</LongitudeDegrees>
            </Position>
            <AltitudeMeters>1336.5999755859375</AltitudeMeters>
            <DistanceMeters>NAN</DistanceMeters>
          </Trackpoint>
          <Trackpoint>
            <Time>2021-04-01T13:01:01.000Z</Time>
            <Position>
              <LatitudeDegrees>42.415308393537998199462890625</LatitudeDegrees>
              <LongitudeDegrees>2.705548591911792755126953125</LongitudeDegrees>
            </Position>
            <AltitudeMeters>1336.5999755859375</AltitudeMeters>
            <DistanceMeters>NAN</DistanceMeters>
          </Trackpoint>
          <Trackpoint>
            <Time>2021-04-01T13:01:07.000Z</Time>
            <Position>
              <LatitudeDegrees>42.415308393537998199462890625</LatitudeDegrees>
              <LongitudeDegrees>2.70554867573082447052001953125</LongitudeDegrees>
            </Position>
            <AltitudeMeters>1336.5999755859375</AltitudeMeters>
            <DistanceMeters>NAN</DistanceMeters>
          </Trackpoint>
          <Trackpoint>
            <Time>2021-04-01T13:01:09.000Z</Time>
            <Position>
              <LatitudeDegrees>42.415308393537998199462890625</LatitudeDegrees>
              <LongitudeDegrees>2.70554867573082447052001953125</LongitudeDegrees>
            </Position>
            <AltitudeMeters>1336.5999755859375</AltitudeMeters>
            <DistanceMeters>NAN</DistanceMeters>
          </Trackpoint>
          <Trackpoint>
            <Time>2021-04-01T13:01:16.000Z</Time>
            <Position>
              <LatitudeDegrees>42.41530847735702991485595703125</LatitudeDegrees>
              <LongitudeDegrees>2.70554884336888790130615234375</LongitudeDegrees>
            </Position>
            <AltitudeMeters>1336.5999755859375</AltitudeMeters>
            <DistanceMeters>NAN</DistanceMeters>
          </Trackpoint>
          <Trackpoint>
            <Time>2021-04-01T13:01:40.000Z</Time>
            <Position>
              <LatitudeDegrees>42.4153095670044422149658203125</LatitudeDegrees>
              <LongitudeDegrees>2.70554984919726848602294921875</LongitudeDegrees>
            </Position>
            <AltitudeMeters>1336.5999755859375</AltitudeMeters>
            <DistanceMeters>NAN</DistanceMeters>
          </Trackpoint>
          <Trackpoint>
            <Time>2021-04-01T13:01:43.000Z</Time>
            <Position>
              <LatitudeDegrees>42.41530981846153736114501953125</LatitudeDegrees>
              <LongitudeDegrees>2.7055501006543636322021484375</LongitudeDegrees>
            </Position>
            <AltitudeMeters>1336.5999755859375</AltitudeMeters>
            <DistanceMeters>NAN</DistanceMeters>
          </Trackpoint>
          <Trackpoint>
            <Time>2021-04-01T13:01:57.000Z</Time>
            <Position>
              <LatitudeDegrees>42.4153109081089496612548828125</LatitudeDegrees>
              <LongitudeDegrees>2.7055511064827442169189453125</LongitudeDegrees>
            </Position>
            <AltitudeMeters>1336.5999755859375</AltitudeMeters>
            <DistanceMeters>NAN</DistanceMeters>
          </Trackpoint>
          <Trackpoint>
            <Time>2021-04-01T13:02:01.000Z</Time>
            <Position>
              <LatitudeDegrees>42.4153112433850765228271484375</LatitudeDegrees>
              <LongitudeDegrees>2.7055514417588710784912109375</LongitudeDegrees>
            </Position>
            <AltitudeMeters>1336.5999755859375</AltitudeMeters>
            <DistanceMeters>NAN</DistanceMeters>
          </Trackpoint>
          <Trackpoint>
            <Time>2021-04-01T13:02:04.000Z</Time>
            <Position>
              <LatitudeDegrees>42.41531141102313995361328125</LatitudeDegrees>
              <LongitudeDegrees>2.70555160939693450927734375</LongitudeDegrees>
            </Position>
            <AltitudeMeters>1336.5999755859375</AltitudeMeters>
            <DistanceMeters>NAN</DistanceMeters>
          </Trackpoint>
          <Trackpoint>
            <Time>2021-04-01T13:02:17.000Z</Time>
            <Position>
              <LatitudeDegrees>42.4153120815753936767578125</LatitudeDegrees>
              <LongitudeDegrees>2.70555219613015651702880859375</LongitudeDegrees>
            </Position>
            <AltitudeMeters>1336.5999755859375</AltitudeMeters>
            <DistanceMeters>NAN</DistanceMeters>
          </Trackpoint>
          <Trackpoint>
            <Time>2021-04-01T13:02:44.000Z</Time>
            <Position>
              <LatitudeDegrees>42.41531283594667911529541015625</LatitudeDegrees>
              <LongitudeDegrees>2.70555286668241024017333984375</LongitudeDegrees>
            </Position>
            <AltitudeMeters>1336.5999755859375</AltitudeMeters>
            <DistanceMeters>NAN</DistanceMeters>
          </Trackpoint>
          <Trackpoint>
            <Time>2021-04-01T13:02:47.000Z</Time>
            <Position>
              <LatitudeDegrees>42.4153129197657108306884765625</LatitudeDegrees>
              <LongitudeDegrees>2.70555295050144195556640625</LongitudeDegrees>
            </Position>
            <AltitudeMeters>1336.5999755859375</AltitudeMeters>
            <DistanceMeters>NAN</DistanceMeters>
          </Trackpoint>
          <Trackpoint>
            <Time>2021-04-01T13:02:56.000Z</Time>
            <Position>
              <LatitudeDegrees>42.41531317122280597686767578125</LatitudeDegrees>
              <LongitudeDegrees>2.7055531181395053863525390625</LongitudeDegrees>
            </Position>
            <AltitudeMeters>1336.5999755859375</AltitudeMeters>
            <DistanceMeters>NAN</DistanceMeters>
          </Trackpoint>
          <Trackpoint>
            <Time>2021-04-01T13:03:11.000Z</Time>
            <Position>
              <LatitudeDegrees>42.415313757956027984619140625</LatitudeDegrees>
              <LongitudeDegrees>2.70555336959660053253173828125</LongitudeDegrees>
            </Position>
            <AltitudeMeters>1336.5999755859375</AltitudeMeters>
            <DistanceMeters>NAN</DistanceMeters>
          </Trackpoint>
          <Trackpoint>
            <Time>2021-04-01T13:03:18.000Z</Time>
            <Position>
              <LatitudeDegrees>42.41531409323215484619140625</LatitudeDegrees>
              <LongitudeDegrees>2.7055534534156322479248046875</LongitudeDegrees>
            </Position>
            <AltitudeMeters>1336.5999755859375</AltitudeMeters>
            <DistanceMeters>NAN</DistanceMeters>
          </Trackpoint>
          <Trackpoint>
            <Time>2021-04-01T13:03:23.000Z</Time>
            <Position>
              <LatitudeDegrees>42.41531434468924999237060546875</LatitudeDegrees>
              <LongitudeDegrees>2.7055534534156322479248046875</LongitudeDegrees>
            </Position>
            <AltitudeMeters>1336.5999755859375</AltitudeMeters>
            <DistanceMeters>NAN</DistanceMeters>
          </Trackpoint>
          <Trackpoint>
            <Time>2021-04-01T13:03:46.000Z</Time>
            <Position>
              <LatitudeDegrees>42.415315099060535430908203125</LatitudeDegrees>
              <LongitudeDegrees>2.70555370487272739410400390625</LongitudeDegrees>
            </Position>
            <AltitudeMeters>1340</AltitudeMeters>
            <DistanceMeters>NAN</DistanceMeters>
          </Trackpoint>
          <Trackpoint>
            <Time>2021-04-01T13:03:58.000Z</Time>
            <Position>
              <LatitudeDegrees>42.41531518287956714630126953125</LatitudeDegrees>
              <LongitudeDegrees>2.70555387251079082489013671875</LongitudeDegrees>
            </Position>
            <AltitudeMeters>1339.199951171875</AltitudeMeters>
            <DistanceMeters>NAN</DistanceMeters>
          </Trackpoint>
          <Trackpoint>
            <Time>2021-04-01T13:04:02.000Z</Time>
            <Position>
              <LatitudeDegrees>42.41531518287956714630126953125</LatitudeDegrees>
              <LongitudeDegrees>2.70555387251079082489013671875</LongitudeDegrees>
            </Position>
            <AltitudeMeters>1339.199951171875</AltitudeMeters>
            <DistanceMeters>NAN</DistanceMeters>
          </Trackpoint>
          <Trackpoint>
            <Time>2021-04-01T13:04:08.000Z</Time>
            <Position>
              <LatitudeDegrees>42.41531501524150371551513671875</LatitudeDegrees>
              <LongitudeDegrees>2.7055537886917591094970703125</LongitudeDegrees>
            </Position>
            <AltitudeMeters>1339.5999755859375</AltitudeMeters>
            <DistanceMeters>NAN</DistanceMeters>
          </Trackpoint>
          <Trackpoint>
            <Time>2021-04-01T13:04:21.000Z</Time>
            <Position>
              <LatitudeDegrees>42.41531434468924999237060546875</LatitudeDegrees>
              <LongitudeDegrees>2.70555353723466396331787109375</LongitudeDegrees>
            </Position>
            <AltitudeMeters>1339.4000244140625</AltitudeMeters>
            <DistanceMeters>NAN</DistanceMeters>
          </Trackpoint>
          <Trackpoint>
            <Time>2021-04-01T13:04:40.000Z</Time>
            <Position>
              <LatitudeDegrees>42.415313422679901123046875</LatitudeDegrees>
              <LongitudeDegrees>2.70555320195853710174560546875</LongitudeDegrees>
            </Position>
            <AltitudeMeters>1339.199951171875</AltitudeMeters>
            <DistanceMeters>NAN</DistanceMeters>
          </Trackpoint>
          <Trackpoint>
            <Time>2021-04-01T13:04:44.000Z</Time>
            <Position>
              <LatitudeDegrees>42.41531317122280597686767578125</LatitudeDegrees>
              <LongitudeDegrees>2.70555320195853710174560546875</LongitudeDegrees>
            </Position>
            <AltitudeMeters>1339.199951171875</AltitudeMeters>
            <DistanceMeters>NAN</DistanceMeters>
          </Trackpoint>
          <Trackpoint>
            <Time>2021-04-01T13:04:47.000Z</Time>
            <Position>
              <LatitudeDegrees>42.415313087403774261474609375</LatitudeDegrees>
              <LongitudeDegrees>2.70555320195853710174560546875</LongitudeDegrees>
            </Position>
            <AltitudeMeters>1339.199951171875</AltitudeMeters>
            <DistanceMeters>NAN</DistanceMeters>
          </Trackpoint>
          <Trackpoint>
            <Time>2021-04-01T13:04:50.000Z</Time>
            <Position>
              <LatitudeDegrees>42.4153129197657108306884765625</LatitudeDegrees>
              <LongitudeDegrees>2.70555320195853710174560546875</LongitudeDegrees>
            </Position>
            <AltitudeMeters>1339</AltitudeMeters>
            <DistanceMeters>NAN</DistanceMeters>
          </Trackpoint>
          <Trackpoint>
            <Time>2021-04-01T13:04:57.000Z</Time>
            <Position>
              <LatitudeDegrees>42.41531266830861568450927734375</LatitudeDegrees>
              <LongitudeDegrees>2.70555320195853710174560546875</LongitudeDegrees>
            </Position>
            <AltitudeMeters>1338.800048828125</AltitudeMeters>
            <DistanceMeters>NAN</DistanceMeters>
          </Trackpoint>
          <Trackpoint>
            <Time>2021-04-01T13:04:58.000Z</Time>
            <Position>
              <LatitudeDegrees>42.41531266830861568450927734375</LatitudeDegrees>
              <LongitudeDegrees>2.70555320195853710174560546875</LongitudeDegrees>
            </Position>
            <AltitudeMeters>1338.800048828125</AltitudeMeters>
            <DistanceMeters>NAN</DistanceMeters>
          </Trackpoint>
          <Trackpoint>
            <Time>2021-04-01T13:04:59.000Z</Time>
            <Position>
              <LatitudeDegrees>42.4153125844895839691162109375</LatitudeDegrees>
              <LongitudeDegrees>2.70555320195853710174560546875</LongitudeDegrees>
            </Position>
            <AltitudeMeters>1339</AltitudeMeters>
            <DistanceMeters>NAN</DistanceMeters>
          </Trackpoint>
          <Trackpoint>
            <Time>2021-04-01T13:05:12.000Z</Time>
            <Position>
              <LatitudeDegrees>42.41531216539442539215087890625</LatitudeDegrees>
              <LongitudeDegrees>2.70555320195853710174560546875</LongitudeDegrees>
            </Position>
            <AltitudeMeters>1339</AltitudeMeters>
            <DistanceMeters>NAN</DistanceMeters>
          </Trackpoint>
          <Trackpoint>
            <Time>2021-04-01T13:05:15.000Z</Time>
            <Position>
              <LatitudeDegrees>42.4153120815753936767578125</LatitudeDegrees>
              <LongitudeDegrees>2.70555320195853710174560546875</LongitudeDegrees>
            </Position>
            <AltitudeMeters>1338.800048828125</AltitudeMeters>
            <DistanceMeters>NAN</DistanceMeters>
          </Trackpoint>
          <Trackpoint>
            <Time>2021-04-01T13:05:21.000Z</Time>
            <Position>
              <LatitudeDegrees>42.41531183011829853057861328125</LatitudeDegrees>
              <LongitudeDegrees>2.705553285777568817138671875</LongitudeDegrees>
            </Position>
            <AltitudeMeters>1338.4000244140625</AltitudeMeters>
            <DistanceMeters>NAN</DistanceMeters>
          </Trackpoint>
          <Trackpoint>
            <Time>2021-04-01T13:05:23.000Z</Time>
            <Position>
              <LatitudeDegrees>42.415311746299266815185546875</LatitudeDegrees>
              <LongitudeDegrees>2.705553285777568817138671875</LongitudeDegrees>
            </Position>
            <AltitudeMeters>1338</AltitudeMeters>
            <DistanceMeters>NAN</DistanceMeters>
          </Trackpoint>
          <Trackpoint>
            <Time>2021-04-01T13:05:46.000Z</Time>
            <Position>
              <LatitudeDegrees>42.4153105728328227996826171875</LatitudeDegrees>
              <LongitudeDegrees>2.705553285777568817138671875</LongitudeDegrees>
            </Position>
            <AltitudeMeters>1338.199951171875</AltitudeMeters>
            <DistanceMeters>NAN</DistanceMeters>
          </Trackpoint>
          <Trackpoint>
            <Time>2021-04-01T13:05:50.000Z</Time>
            <Position>
              <LatitudeDegrees>42.415310405194759368896484375</LatitudeDegrees>
              <LongitudeDegrees>2.705553285777568817138671875</LongitudeDegrees>
            </Position>
            <AltitudeMeters>1338.800048828125</AltitudeMeters>
            <DistanceMeters>NAN</DistanceMeters>
          </Trackpoint>
          <Trackpoint>
            <Time>2021-04-01T13:05:55.000Z</Time>
            <Position>
              <LatitudeDegrees>42.4153102375566959381103515625</LatitudeDegrees>
              <LongitudeDegrees>2.705553285777568817138671875</LongitudeDegrees>
            </Position>
            <AltitudeMeters>1338.800048828125</AltitudeMeters>
            <DistanceMeters>NAN</DistanceMeters>
          </Trackpoint>
          <Trackpoint>
            <Time>2021-04-01T13:05:57.000Z</Time>
            <Position>
              <LatitudeDegrees>42.41531015373766422271728515625</LatitudeDegrees>
              <LongitudeDegrees>2.705553285777568817138671875</LongitudeDegrees>
            </Position>
            <AltitudeMeters>1338.800048828125</AltitudeMeters>
            <DistanceMeters>NAN</DistanceMeters>
          </Trackpoint>
          <Trackpoint>
            <Time>2021-04-01T13:06:33.000Z</Time>
            <Position>
              <LatitudeDegrees>42.41530914790928363800048828125</LatitudeDegrees>
              <LongitudeDegrees>2.70555353723466396331787109375</LongitudeDegrees>
            </Position>
            <AltitudeMeters>1338.800048828125</AltitudeMeters>
            <DistanceMeters>NAN</DistanceMeters>
          </Trackpoint>
          <Trackpoint>
            <Time>2021-04-01T13:06:38.000Z</Time>
            <Position>
              <LatitudeDegrees>42.415309064090251922607421875</LatitudeDegrees>
              <LongitudeDegrees>2.70555353723466396331787109375</LongitudeDegrees>
            </Position>
            <AltitudeMeters>1338.800048828125</AltitudeMeters>
            <DistanceMeters>NAN</DistanceMeters>
          </Trackpoint>
          <Trackpoint>
            <Time>2021-04-01T13:06:41.000Z</Time>
            <Position>
              <LatitudeDegrees>42.41530898027122020721435546875</LatitudeDegrees>
              <LongitudeDegrees>2.70555353723466396331787109375</LongitudeDegrees>
            </Position>
            <AltitudeMeters>1338.800048828125</AltitudeMeters>
            <DistanceMeters>NAN</DistanceMeters>
          </Trackpoint>
          <Trackpoint>
            <Time>2021-04-01T13:07:01.000Z</Time>
            <Position>
              <LatitudeDegrees>42.41530864499509334564208984375</LatitudeDegrees>
              <LongitudeDegrees>2.705553285777568817138671875</LongitudeDegrees>
            </Position>
            <AltitudeMeters>1338.800048828125</AltitudeMeters>
            <DistanceMeters>NAN</DistanceMeters>
          </Trackpoint>
          <Trackpoint>
            <Time>2021-04-01T13:07:05.000Z</Time>
            <Position>
              <LatitudeDegrees>42.4153085611760616302490234375</LatitudeDegrees>
              <LongitudeDegrees>2.705553285777568817138671875</LongitudeDegrees>
            </Position>
            <AltitudeMeters>1338.800048828125</AltitudeMeters>
            <DistanceMeters>NAN</DistanceMeters>
          </Trackpoint>
          <Trackpoint>
            <Time>2021-04-01T13:07:08.000Z</Time>
            <Position>
              <LatitudeDegrees>42.41530847735702991485595703125</LatitudeDegrees>
              <LongitudeDegrees>2.70555320195853710174560546875</LongitudeDegrees>
            </Position>
            <AltitudeMeters>1338.800048828125</AltitudeMeters>
            <DistanceMeters>NAN</DistanceMeters>
          </Trackpoint>
          <Trackpoint>
            <Time>2021-04-01T13:07:09.000Z</Time>
            <Position>
              <LatitudeDegrees>42.41530847735702991485595703125</LatitudeDegrees>
              <LongitudeDegrees>2.70555320195853710174560546875</LongitudeDegrees>
            </Position>
            <AltitudeMeters>1338.800048828125</AltitudeMeters>
            <DistanceMeters>NAN</DistanceMeters>
          </Trackpoint>
          <Trackpoint>
            <Time>2021-04-01T13:07:13.000Z</Time>
            <Position>
              <LatitudeDegrees>42.415308393537998199462890625</LatitudeDegrees>
              <LongitudeDegrees>2.7055531181395053863525390625</LongitudeDegrees>
            </Position>
            <AltitudeMeters>1338.800048828125</AltitudeMeters>
            <DistanceMeters>NAN</DistanceMeters>
          </Trackpoint>
          <Trackpoint>
            <Time>2021-04-01T13:07:15.000Z</Time>
            <Position>
              <LatitudeDegrees>42.41530830971896648406982421875</LatitudeDegrees>
              <LongitudeDegrees>2.70555303432047367095947265625</LongitudeDegrees>
            </Position>
            <AltitudeMeters>1338.800048828125</AltitudeMeters>
            <DistanceMeters>NAN</DistanceMeters>
          </Trackpoint>
          <Trackpoint>
            <Time>2021-04-01T13:07:17.000Z</Time>
            <Position>
              <LatitudeDegrees>42.41530830971896648406982421875</LatitudeDegrees>
              <LongitudeDegrees>2.70555303432047367095947265625</LongitudeDegrees>
            </Position>
            <AltitudeMeters>1338.800048828125</AltitudeMeters>
            <DistanceMeters>NAN</DistanceMeters>
          </Trackpoint>
          <Trackpoint>
            <Time>2021-04-01T13:07:25.000Z</Time>
            <Position>
              <LatitudeDegrees>42.41530814208090305328369140625</LatitudeDegrees>
              <LongitudeDegrees>2.70555286668241024017333984375</LongitudeDegrees>
            </Position>
            <AltitudeMeters>1338.800048828125</AltitudeMeters>
            <DistanceMeters>NAN</DistanceMeters>
          </Trackpoint>
          <Trackpoint>
            <Time>2021-04-01T13:07:34.000Z</Time>
            <Position>
              <LatitudeDegrees>42.41530797444283962249755859375</LatitudeDegrees>
              <LongitudeDegrees>2.7055527828633785247802734375</LongitudeDegrees>
            </Position>
            <AltitudeMeters>1338.800048828125</AltitudeMeters>
            <DistanceMeters>NAN</DistanceMeters>
          </Trackpoint>
          <Trackpoint>
            <Time>2021-04-01T13:07:38.000Z</Time>
            <Position>
              <LatitudeDegrees>42.4153078906238079071044921875</LatitudeDegrees>
              <LongitudeDegrees>2.7055527828633785247802734375</LongitudeDegrees>
            </Position>
            <AltitudeMeters>1338.800048828125</AltitudeMeters>
            <DistanceMeters>NAN</DistanceMeters>
          </Trackpoint>
          <Trackpoint>
            <Time>2021-04-01T13:07:39.000Z</Time>
            <Position>
              <LatitudeDegrees>42.4153078906238079071044921875</LatitudeDegrees>
              <LongitudeDegrees>2.70555269904434680938720703125</LongitudeDegrees>
            </Position>
            <AltitudeMeters>1338.800048828125</AltitudeMeters>
            <DistanceMeters>NAN</DistanceMeters>
          </Trackpoint>
          <Trackpoint>
            <Time>2021-04-01T13:07:48.000Z</Time>
            <Position>
              <LatitudeDegrees>42.4153078906238079071044921875</LatitudeDegrees>
              <LongitudeDegrees>2.70555253140628337860107421875</LongitudeDegrees>
            </Position>
            <AltitudeMeters>1338.800048828125</AltitudeMeters>
            <DistanceMeters>NAN</DistanceMeters>
          </Trackpoint>
          <Trackpoint>
            <Time>2021-04-01T13:07:49.000Z</Time>
            <Position>
              <LatitudeDegrees>42.4153078906238079071044921875</LatitudeDegrees>
              <LongitudeDegrees>2.70555253140628337860107421875</LongitudeDegrees>
            </Position>
            <AltitudeMeters>1338.800048828125</AltitudeMeters>
            <DistanceMeters>NAN</DistanceMeters>
          </Trackpoint>
          <Trackpoint>
            <Time>2021-04-01T13:07:58.000Z</Time>
            <Position>
              <LatitudeDegrees>42.41530763916671276092529296875</LatitudeDegrees>
              <LongitudeDegrees>2.705552279949188232421875</LongitudeDegrees>
            </Position>
            <AltitudeMeters>1338.800048828125</AltitudeMeters>
            <DistanceMeters>NAN</DistanceMeters>
          </Trackpoint>
          <Trackpoint>
            <Time>2021-04-01T13:08:02.000Z</Time>
            <Position>
              <LatitudeDegrees>42.41530738770961761474609375</LatitudeDegrees>
              <LongitudeDegrees>2.70555219613015651702880859375</LongitudeDegrees>
            </Position>
            <AltitudeMeters>1338.800048828125</AltitudeMeters>
            <DistanceMeters>NAN</DistanceMeters>
          </Trackpoint>
          <Trackpoint>
            <Time>2021-04-01T13:08:07.000Z</Time>
            <Position>
              <LatitudeDegrees>42.415307052433490753173828125</LatitudeDegrees>
              <LongitudeDegrees>2.70555202849209308624267578125</LongitudeDegrees>
            </Position>
            <AltitudeMeters>1338.800048828125</AltitudeMeters>
            <DistanceMeters>NAN</DistanceMeters>
          </Trackpoint>
          <Trackpoint>
            <Time>2021-04-01T13:08:09.000Z</Time>
            <Position>
              <LatitudeDegrees>42.4153068847954273223876953125</LatitudeDegrees>
              <LongitudeDegrees>2.705551944673061370849609375</LongitudeDegrees>
            </Position>
            <AltitudeMeters>1338.800048828125</AltitudeMeters>
            <DistanceMeters>NAN</DistanceMeters>
          </Trackpoint>
          <Trackpoint>
            <Time>2021-04-01T13:08:23.000Z</Time>
            <Position>
              <LatitudeDegrees>42.41530562750995159149169921875</LatitudeDegrees>
              <LongitudeDegrees>2.7055514417588710784912109375</LongitudeDegrees>
            </Position>
            <AltitudeMeters>1338.800048828125</AltitudeMeters>
            <DistanceMeters>NAN</DistanceMeters>
          </Trackpoint>
          <Trackpoint>
            <Time>2021-04-01T13:08:26.000Z</Time>
            <Position>
              <LatitudeDegrees>42.4153052084147930145263671875</LatitudeDegrees>
              <LongitudeDegrees>2.70555135793983936309814453125</LongitudeDegrees>
            </Position>
            <AltitudeMeters>1338.800048828125</AltitudeMeters>
            <DistanceMeters>NAN</DistanceMeters>
          </Trackpoint>
          <Trackpoint>
            <Time>2021-04-01T13:08:33.000Z</Time>
            <Position>
              <LatitudeDegrees>42.4151767976582050323486328125</LatitudeDegrees>
              <LongitudeDegrees>2.7055088616907596588134765625</LongitudeDegrees>
            </Position>
            <AltitudeMeters>1338.800048828125</AltitudeMeters>
            <DistanceMeters>NAN</DistanceMeters>
          </Trackpoint>
          <Trackpoint>
            <Time>2021-04-01T13:08:36.000Z</Time>
            <Position>
              <LatitudeDegrees>42.41510613821446895599365234375</LatitudeDegrees>
              <LongitudeDegrees>2.705494947731494903564453125</LongitudeDegrees>
            </Position>
            <AltitudeMeters>1338.800048828125</AltitudeMeters>
            <DistanceMeters>NAN</DistanceMeters>
          </Trackpoint>
          <Trackpoint>
            <Time>2021-04-01T13:08:45.000Z</Time>
            <Position>
              <LatitudeDegrees>42.4150115065276622772216796875</LatitudeDegrees>
              <LongitudeDegrees>2.70551464520394802093505859375</LongitudeDegrees>
            </Position>
            <AltitudeMeters>1338.4000244140625</AltitudeMeters>
            <DistanceMeters>NAN</DistanceMeters>
          </Trackpoint>
          <Trackpoint>
            <Time>2021-04-01T13:08:54.000Z</Time>
            <Position>
              <LatitudeDegrees>42.41496146656572818756103515625</LatitudeDegrees>
              <LongitudeDegrees>2.70551674067974090576171875</LongitudeDegrees>
            </Position>
            <AltitudeMeters>1338.199951171875</AltitudeMeters>
            <DistanceMeters>NAN</DistanceMeters>
          </Trackpoint>
          <Trackpoint>
            <Time>2021-04-01T13:09:01.000Z</Time>
            <Position>
              <LatitudeDegrees>42.41492249071598052978515625</LatitudeDegrees>
              <LongitudeDegrees>2.705505006015300750732421875</LongitudeDegrees>
            </Position>
            <AltitudeMeters>1337</AltitudeMeters>
            <DistanceMeters>NAN</DistanceMeters>
          </Trackpoint>
          <Trackpoint>
            <Time>2021-04-01T13:09:02.000Z</Time>
            <Position>
              <LatitudeDegrees>42.4149109236896038055419921875</LatitudeDegrees>
              <LongitudeDegrees>2.7055024914443492889404296875</LongitudeDegrees>
            </Position>
            <AltitudeMeters>1337</AltitudeMeters>
            <DistanceMeters>NAN</DistanceMeters>
          </Trackpoint>
          <Trackpoint>
            <Time>2021-04-01T13:09:06.000Z</Time>
            <Position>
              <LatitudeDegrees>42.41487714461982250213623046875</LatitudeDegrees>
              <LongitudeDegrees>2.7055034972727298736572265625</LongitudeDegrees>
            </Position>
            <AltitudeMeters>1336.800048828125</AltitudeMeters>
            <DistanceMeters>NAN</DistanceMeters>
          </Trackpoint>
          <Trackpoint>
            <Time>2021-04-01T13:09:10.000Z</Time>
            <Position>
              <LatitudeDegrees>42.41484948433935642242431640625</LatitudeDegrees>
              <LongitudeDegrees>2.7055028267204761505126953125</LongitudeDegrees>
            </Position>
            <AltitudeMeters>1336.5999755859375</AltitudeMeters>
            <DistanceMeters>NAN</DistanceMeters>
          </Trackpoint>
          <Trackpoint>
            <Time>2021-04-01T13:09:13.000Z</Time>
            <Position>
              <LatitudeDegrees>42.41483372636139392852783203125</LatitudeDegrees>
              <LongitudeDegrees>2.70550257526338100433349609375</LongitudeDegrees>
            </Position>
            <AltitudeMeters>1335.800048828125</AltitudeMeters>
            <DistanceMeters>NAN</DistanceMeters>
          </Trackpoint>
          <Trackpoint>
            <Time>2021-04-01T13:09:22.000Z</Time>
            <Position>
              <LatitudeDegrees>42.414771951735019683837890625</LatitudeDegrees>
              <LongitudeDegrees>2.70547357387840747833251953125</LongitudeDegrees>
            </Position>
            <AltitudeMeters>1334.5999755859375</AltitudeMeters>
            <DistanceMeters>NAN</DistanceMeters>
          </Trackpoint>
          <Trackpoint>
            <Time>2021-04-01T13:09:30.000Z</Time>
            <Position>
              <LatitudeDegrees>42.41474001668393611907958984375</LatitudeDegrees>
              <LongitudeDegrees>2.70546452142298221588134765625</LongitudeDegrees>
            </Position>
            <AltitudeMeters>1333.4000244140625</AltitudeMeters>
            <DistanceMeters>NAN</DistanceMeters>
          </Trackpoint>
          <Trackpoint>
            <Time>2021-04-01T13:09:38.000Z</Time>
            <Position>
              <LatitudeDegrees>42.414688132703304290771484375</LatitudeDegrees>
              <LongitudeDegrees>2.70544457249343395233154296875</LongitudeDegrees>
            </Position>
            <AltitudeMeters>1332.4000244140625</AltitudeMeters>
            <DistanceMeters>NAN</DistanceMeters>
          </Trackpoint>
          <Trackpoint>
            <Time>2021-04-01T13:09:42.000Z</Time>
            <Position>
              <LatitudeDegrees>42.4146698601543903350830078125</LatitudeDegrees>
              <LongitudeDegrees>2.70542998798191547393798828125</LongitudeDegrees>
            </Position>
            <AltitudeMeters>1331.800048828125</AltitudeMeters>
            <DistanceMeters>NAN</DistanceMeters>
          </Trackpoint>
          <Trackpoint>
            <Time>2021-04-01T13:09:43.000Z</Time>
            <Position>
              <LatitudeDegrees>42.41466625593602657318115234375</LatitudeDegrees>
              <LongitudeDegrees>2.70543535239994525909423828125</LongitudeDegrees>
            </Position>
            <AltitudeMeters>1331.5999755859375</AltitudeMeters>
            <DistanceMeters>NAN</DistanceMeters>
          </Trackpoint>
          <Trackpoint>
            <Time>2021-04-01T13:09:44.000Z</Time>
            <Position>
              <LatitudeDegrees>42.414657287299633026123046875</LatitudeDegrees>
              <LongitudeDegrees>2.70543887279927730560302734375</LongitudeDegrees>
            </Position>
            <AltitudeMeters>1331.4000244140625</AltitudeMeters>
            <DistanceMeters>NAN</DistanceMeters>
          </Trackpoint>
          <Trackpoint>
            <Time>2021-04-01T13:09:46.000Z</Time>
            <Position>
              <LatitudeDegrees>42.41464295424520969390869140625</LatitudeDegrees>
              <LongitudeDegrees>2.7054334245622158050537109375</LongitudeDegrees>
            </Position>
            <AltitudeMeters>1331.199951171875</AltitudeMeters>
            <DistanceMeters>NAN</DistanceMeters>
          </Trackpoint>
          <Trackpoint>
            <Time>2021-04-01T13:09:51.000Z</Time>
            <Position>
              <LatitudeDegrees>42.414606325328350067138671875</LatitudeDegrees>
              <LongitudeDegrees>2.70541992969810962677001953125</LongitudeDegrees>
            </Position>
            <AltitudeMeters>1330.800048828125</AltitudeMeters>
            <DistanceMeters>NAN</DistanceMeters>
          </Trackpoint>
          <Trackpoint>
            <Time>2021-04-01T13:09:54.000Z</Time>
            <Position>
              <LatitudeDegrees>42.41457958705723285675048828125</LatitudeDegrees>
              <LongitudeDegrees>2.705419845879077911376953125</LongitudeDegrees>
            </Position>
            <AltitudeMeters>1330.199951171875</AltitudeMeters>
            <DistanceMeters>NAN</DistanceMeters>
          </Trackpoint>
          <Trackpoint>
            <Time>2021-04-01T13:09:57.000Z</Time>
            <Position>
              <LatitudeDegrees>42.4145535193383693695068359375</LatitudeDegrees>
              <LongitudeDegrees>2.70540819503366947174072265625</LongitudeDegrees>
            </Position>
            <AltitudeMeters>1329.800048828125</AltitudeMeters>
            <DistanceMeters>NAN</DistanceMeters>
          </Trackpoint>
          <Trackpoint>
            <Time>2021-04-01T13:10:02.000Z</Time>
            <Position>
              <LatitudeDegrees>42.4145112745463848114013671875</LatitudeDegrees>
              <LongitudeDegrees>2.70539847202599048614501953125</LongitudeDegrees>
            </Position>
            <AltitudeMeters>1329</AltitudeMeters>
            <DistanceMeters>NAN</DistanceMeters>
          </Trackpoint>
          <Trackpoint>
            <Time>2021-04-01T13:10:05.000Z</Time>
            <Position>
              <LatitudeDegrees>42.414490319788455963134765625</LatitudeDegrees>
              <LongitudeDegrees>2.7053928561508655548095703125</LongitudeDegrees>
            </Position>
            <AltitudeMeters>1328.5999755859375</AltitudeMeters>
            <DistanceMeters>NAN</DistanceMeters>
          </Trackpoint>
          <Trackpoint>
            <Time>2021-04-01T13:10:07.000Z</Time>
            <Position>
              <LatitudeDegrees>42.41447053849697113037109375</LatitudeDegrees>
              <LongitudeDegrees>2.70538355223834514617919921875</LongitudeDegrees>
            </Position>
            <AltitudeMeters>1328.4000244140625</AltitudeMeters>
            <DistanceMeters>NAN</DistanceMeters>
          </Trackpoint>
          <Trackpoint>
            <Time>2021-04-01T13:10:10.000Z</Time>
            <Position>
              <LatitudeDegrees>42.41443960927426815032958984375</LatitudeDegrees>
              <LongitudeDegrees>2.70537885837256908416748046875</LongitudeDegrees>
            </Position>
            <AltitudeMeters>1327.800048828125</AltitudeMeters>
            <DistanceMeters>NAN</DistanceMeters>
          </Trackpoint>
          <Trackpoint>
            <Time>2021-04-01T13:10:12.000Z</Time>
            <Position>
              <LatitudeDegrees>42.4144294671714305877685546875</LatitudeDegrees>
              <LongitudeDegrees>2.7053656987845897674560546875</LongitudeDegrees>
            </Position>
            <AltitudeMeters>1327.5999755859375</AltitudeMeters>
            <DistanceMeters>NAN</DistanceMeters>
          </Trackpoint>
          <Trackpoint>
            <Time>2021-04-01T13:10:15.000Z</Time>
            <Position>
              <LatitudeDegrees>42.41440616548061370849609375</LatitudeDegrees>
              <LongitudeDegrees>2.70536041818559169769287109375</LongitudeDegrees>
            </Position>
            <AltitudeMeters>1326.5999755859375</AltitudeMeters>
            <DistanceMeters>NAN</DistanceMeters>
          </Trackpoint>
          <Trackpoint>
            <Time>2021-04-01T13:10:19.000Z</Time>
            <Position>
              <LatitudeDegrees>42.41438764147460460662841796875</LatitudeDegrees>
              <LongitudeDegrees>2.70536595024168491363525390625</LongitudeDegrees>
            </Position>
            <AltitudeMeters>1326.199951171875</AltitudeMeters>
            <DistanceMeters>NAN</DistanceMeters>
          </Trackpoint>
          <Trackpoint>
            <Time>2021-04-01T13:10:23.000Z</Time>
            <Position>
              <LatitudeDegrees>42.41438562981784343719482421875</LatitudeDegrees>
              <LongitudeDegrees>2.705368213355541229248046875</LongitudeDegrees>
            </Position>
            <AltitudeMeters>1325.5999755859375</AltitudeMeters>
            <DistanceMeters>NAN</DistanceMeters>
          </Trackpoint>
          <Trackpoint>
            <Time>2021-04-01T13:10:38.000Z</Time>
            <Position>
              <LatitudeDegrees>42.4143895693123340606689453125</LatitudeDegrees>
              <LongitudeDegrees>2.7053658664226531982421875</LongitudeDegrees>
            </Position>
            <AltitudeMeters>1325.5999755859375</AltitudeMeters>
            <DistanceMeters>NAN</DistanceMeters>
          </Trackpoint>
          <Trackpoint>
            <Time>2021-04-01T13:10:39.000Z</Time>
            <Position>
              <LatitudeDegrees>42.4143895693123340606689453125</LatitudeDegrees>
              <LongitudeDegrees>2.7053658664226531982421875</LongitudeDegrees>
            </Position>
            <AltitudeMeters>1325.5999755859375</AltitudeMeters>
            <DistanceMeters>NAN</DistanceMeters>
          </Trackpoint>
          <Trackpoint>
            <Time>2021-04-01T13:10:40.000Z</Time>
            <Position>
              <LatitudeDegrees>42.4143895693123340606689453125</LatitudeDegrees>
              <LongitudeDegrees>2.7053658664226531982421875</LongitudeDegrees>
            </Position>
            <AltitudeMeters>1325.5999755859375</AltitudeMeters>
            <DistanceMeters>NAN</DistanceMeters>
          </Trackpoint>
          <Trackpoint>
            <Time>2021-04-01T13:10:42.000Z</Time>
            <Position>
              <LatitudeDegrees>42.4143895693123340606689453125</LatitudeDegrees>
              <LongitudeDegrees>2.7053658664226531982421875</LongitudeDegrees>
            </Position>
            <AltitudeMeters>1325.4000244140625</AltitudeMeters>
            <DistanceMeters>NAN</DistanceMeters>
          </Trackpoint>
          <Trackpoint>
            <Time>2021-04-01T13:10:44.000Z</Time>
            <Position>
              <LatitudeDegrees>42.4143895693123340606689453125</LatitudeDegrees>
              <LongitudeDegrees>2.7053658664226531982421875</LongitudeDegrees>
            </Position>
            <AltitudeMeters>1325</AltitudeMeters>
            <DistanceMeters>NAN</DistanceMeters>
          </Trackpoint>
          <Trackpoint>
            <Time>2021-04-01T13:10:47.000Z</Time>
            <Position>
              <LatitudeDegrees>42.41438378579914569854736328125</LatitudeDegrees>
              <LongitudeDegrees>2.70536385476589202880859375</LongitudeDegrees>
            </Position>
            <AltitudeMeters>1324.5999755859375</AltitudeMeters>
            <DistanceMeters>NAN</DistanceMeters>
          </Trackpoint>
          <Trackpoint>
            <Time>2021-04-01T13:10:49.000Z</Time>
            <Position>
              <LatitudeDegrees>42.41435143165290355682373046875</LatitudeDegrees>
              <LongitudeDegrees>2.70536226220428943634033203125</LongitudeDegrees>
            </Position>
            <AltitudeMeters>1324.199951171875</AltitudeMeters>
            <DistanceMeters>NAN</DistanceMeters>
          </Trackpoint>
          <Trackpoint>
            <Time>2021-04-01T13:10:51.000Z</Time>
            <Position>
              <LatitudeDegrees>42.41432142443954944610595703125</LatitudeDegrees>
              <LongitudeDegrees>2.70536259748041629791259765625</LongitudeDegrees>
            </Position>
            <AltitudeMeters>1323.5999755859375</AltitudeMeters>
            <DistanceMeters>NAN</DistanceMeters>
          </Trackpoint>
          <Trackpoint>
            <Time>2021-04-01T13:10:52.000Z</Time>
            <Position>
              <LatitudeDegrees>42.41430432535707950592041015625</LatitudeDegrees>
              <LongitudeDegrees>2.70536578260362148284912109375</LongitudeDegrees>
            </Position>
            <AltitudeMeters>1323.5999755859375</AltitudeMeters>
            <DistanceMeters>NAN</DistanceMeters>
          </Trackpoint>
          <Trackpoint>
            <Time>2021-04-01T13:11:01.000Z</Time>
            <Position>
              <LatitudeDegrees>42.41420424543321132659912109375</LatitudeDegrees>
              <LongitudeDegrees>2.70537458360195159912109375</LongitudeDegrees>
            </Position>
            <AltitudeMeters>1323.4000244140625</AltitudeMeters>
            <DistanceMeters>NAN</DistanceMeters>
          </Trackpoint>
          <Trackpoint>
            <Time>2021-04-01T13:11:13.000Z</Time>
            <Position>
              <LatitudeDegrees>42.414109446108341217041015625</LatitudeDegrees>
              <LongitudeDegrees>2.70537600852549076080322265625</LongitudeDegrees>
            </Position>
            <AltitudeMeters>1322.5999755859375</AltitudeMeters>
            <DistanceMeters>NAN</DistanceMeters>
          </Trackpoint>
          <Trackpoint>
            <Time>2021-04-01T13:11:14.000Z</Time>
            <Position>
              <LatitudeDegrees>42.41410165093839168548583984375</LatitudeDegrees>
              <LongitudeDegrees>2.70537416450679302215576171875</LongitudeDegrees>
            </Position>
            <AltitudeMeters>1322.4000244140625</AltitudeMeters>
            <DistanceMeters>NAN</DistanceMeters>
          </Trackpoint>
          <Trackpoint>
            <Time>2021-04-01T13:11:21.000Z</Time>
            <Position>
              <LatitudeDegrees>42.41405454464256763458251953125</LatitudeDegrees>
              <LongitudeDegrees>2.705372907221317291259765625</LongitudeDegrees>
            </Position>
            <AltitudeMeters>1321</AltitudeMeters>
            <DistanceMeters>NAN</DistanceMeters>
          </Trackpoint>
          <Trackpoint>
            <Time>2021-04-01T13:11:23.000Z</Time>
            <Position>
              <LatitudeDegrees>42.4140375293791294097900390625</LatitudeDegrees>
              <LongitudeDegrees>2.70537802018225193023681640625</LongitudeDegrees>
            </Position>
            <AltitudeMeters>1320.5999755859375</AltitudeMeters>
            <DistanceMeters>NAN</DistanceMeters>
          </Trackpoint>
          <Trackpoint>
            <Time>2021-04-01T13:11:26.000Z</Time>
            <Position>
              <LatitudeDegrees>42.4140123836696147918701171875</LatitudeDegrees>
              <LongitudeDegrees>2.70538120530545711517333984375</LongitudeDegrees>
            </Position>
            <AltitudeMeters>1320</AltitudeMeters>
            <DistanceMeters>NAN</DistanceMeters>
          </Trackpoint>
          <Trackpoint>
            <Time>2021-04-01T13:11:28.000Z</Time>
            <Position>
              <LatitudeDegrees>42.413996122777462005615234375</LatitudeDegrees>
              <LongitudeDegrees>2.70537265576422214508056640625</LongitudeDegrees>
            </Position>
            <AltitudeMeters>1319.4000244140625</AltitudeMeters>
            <DistanceMeters>NAN</DistanceMeters>
          </Trackpoint>
          <Trackpoint>
            <Time>2021-04-01T13:11:29.000Z</Time>
            <Position>
              <LatitudeDegrees>42.4139905907213687896728515625</LatitudeDegrees>
              <LongitudeDegrees>2.70536276511847972869873046875</LongitudeDegrees>
            </Position>
            <AltitudeMeters>1319</AltitudeMeters>
            <DistanceMeters>NAN</DistanceMeters>
          </Trackpoint>
          <Trackpoint>
            <Time>2021-04-01T13:11:30.000Z</Time>
            <Position>
              <LatitudeDegrees>42.413988411426544189453125</LatitudeDegrees>
              <LongitudeDegrees>2.7053549699485301971435546875</LongitudeDegrees>
            </Position>
            <AltitudeMeters>1318.800048828125</AltitudeMeters>
            <DistanceMeters>NAN</DistanceMeters>
          </Trackpoint>
          <Trackpoint>
            <Time>2021-04-01T13:11:31.000Z</Time>
            <Position>
              <LatitudeDegrees>42.41398497484624385833740234375</LatitudeDegrees>
              <LongitudeDegrees>2.70535119809210300445556640625</LongitudeDegrees>
            </Position>
            <AltitudeMeters>1318.4000244140625</AltitudeMeters>
            <DistanceMeters>NAN</DistanceMeters>
          </Trackpoint>
          <Trackpoint>
            <Time>2021-04-01T13:11:35.000Z</Time>
            <Position>
              <LatitudeDegrees>42.413959912955760955810546875</LatitudeDegrees>
              <LongitudeDegrees>2.7053365297615528106689453125</LongitudeDegrees>
            </Position>
            <AltitudeMeters>1317.800048828125</AltitudeMeters>
            <DistanceMeters>NAN</DistanceMeters>
          </Trackpoint>
          <Trackpoint>
            <Time>2021-04-01T13:11:36.000Z</Time>
            <Position>
              <LatitudeDegrees>42.4139535427093505859375</LatitudeDegrees>
              <LongitudeDegrees>2.7053271420300006866455078125</LongitudeDegrees>
            </Position>
            <AltitudeMeters>1317.5999755859375</AltitudeMeters>
            <DistanceMeters>NAN</DistanceMeters>
          </Trackpoint>
          <Trackpoint>
            <Time>2021-04-01T13:11:37.000Z</Time>
            <Position>
              <LatitudeDegrees>42.413946501910686492919921875</LatitudeDegrees>
              <LongitudeDegrees>2.70531364716589450836181640625</LongitudeDegrees>
            </Position>
            <AltitudeMeters>1317.4000244140625</AltitudeMeters>
            <DistanceMeters>NAN</DistanceMeters>
          </Trackpoint>
          <Trackpoint>
            <Time>2021-04-01T13:11:39.000Z</Time>
            <Position>
              <LatitudeDegrees>42.4139320850372314453125</LatitudeDegrees>
              <LongitudeDegrees>2.7053019963204860687255859375</LongitudeDegrees>
            </Position>
            <AltitudeMeters>1316.5999755859375</AltitudeMeters>
            <DistanceMeters>NAN</DistanceMeters>
          </Trackpoint>
          <Trackpoint>
            <Time>2021-04-01T13:11:40.000Z</Time>
            <Position>
              <LatitudeDegrees>42.41392663680016994476318359375</LatitudeDegrees>
              <LongitudeDegrees>2.705301828682422637939453125</LongitudeDegrees>
            </Position>
            <AltitudeMeters>1316.4000244140625</AltitudeMeters>
            <DistanceMeters>NAN</DistanceMeters>
          </Trackpoint>
          <Trackpoint>
            <Time>2021-04-01T13:11:42.000Z</Time>
            <Position>
              <LatitudeDegrees>42.41391875781118869781494140625</LatitudeDegrees>
              <LongitudeDegrees>2.70529587753117084503173828125</LongitudeDegrees>
            </Position>
            <AltitudeMeters>1316</AltitudeMeters>
            <DistanceMeters>NAN</DistanceMeters>
          </Trackpoint>
          <Trackpoint>
            <Time>2021-04-01T13:11:45.000Z</Time>
            <Position>
              <LatitudeDegrees>42.41391423158347606658935546875</LatitudeDegrees>
              <LongitudeDegrees>2.7052805386483669281005859375</LongitudeDegrees>
            </Position>
            <AltitudeMeters>1315.4000244140625</AltitudeMeters>
            <DistanceMeters>NAN</DistanceMeters>
          </Trackpoint>
          <Trackpoint>
            <Time>2021-04-01T13:11:49.000Z</Time>
            <Position>
              <LatitudeDegrees>42.413892187178134918212890625</LatitudeDegrees>
              <LongitudeDegrees>2.70527089945971965789794921875</LongitudeDegrees>
            </Position>
            <AltitudeMeters>1314.4000244140625</AltitudeMeters>
            <DistanceMeters>NAN</DistanceMeters>
          </Trackpoint>
          <Trackpoint>
            <Time>2021-04-01T13:11:50.000Z</Time>
            <Position>
              <LatitudeDegrees>42.4138853140175342559814453125</LatitudeDegrees>
              <LongitudeDegrees>2.70526804961264133453369140625</LongitudeDegrees>
            </Position>
            <AltitudeMeters>1314</AltitudeMeters>
            <DistanceMeters>NAN</DistanceMeters>
          </Trackpoint>
          <Trackpoint>
            <Time>2021-04-01T13:11:54.000Z</Time>
            <Position>
              <LatitudeDegrees>42.41386167705059051513671875</LatitudeDegrees>
              <LongitudeDegrees>2.70525933243334293365478515625</LongitudeDegrees>
            </Position>
            <AltitudeMeters>1313.5999755859375</AltitudeMeters>
            <DistanceMeters>NAN</DistanceMeters>
          </Trackpoint>
          <Trackpoint>
            <Time>2021-04-01T13:11:56.000Z</Time>
            <Position>
              <LatitudeDegrees>42.4138450808823108673095703125</LatitudeDegrees>
              <LongitudeDegrees>2.70525765605270862579345703125</LongitudeDegrees>
            </Position>
            <AltitudeMeters>1313</AltitudeMeters>
            <DistanceMeters>NAN</DistanceMeters>
          </Trackpoint>
          <Trackpoint>
            <Time>2021-04-01T13:11:57.000Z</Time>
            <Position>
              <LatitudeDegrees>42.41383560933172702789306640625</LatitudeDegrees>
              <LongitudeDegrees>2.70525413565337657928466796875</LongitudeDegrees>
            </Position>
            <AltitudeMeters>1312.800048828125</AltitudeMeters>
            <DistanceMeters>NAN</DistanceMeters>
          </Trackpoint>
          <Trackpoint>
            <Time>2021-04-01T13:11:59.000Z</Time>
            <Position>
              <LatitudeDegrees>42.4138256348669528961181640625</LatitudeDegrees>
              <LongitudeDegrees>2.705240137875080108642578125</LongitudeDegrees>
            </Position>
            <AltitudeMeters>1312.199951171875</AltitudeMeters>
            <DistanceMeters>NAN</DistanceMeters>
          </Trackpoint>
          <Trackpoint>
            <Time>2021-04-01T13:12:00.000Z</Time>
            <Position>
              <LatitudeDegrees>42.41382286883890628814697265625</LatitudeDegrees>
              <LongitudeDegrees>2.7052379585802555084228515625</LongitudeDegrees>
            </Position>
            <AltitudeMeters>1312.199951171875</AltitudeMeters>
            <DistanceMeters>NAN</DistanceMeters>
          </Trackpoint>
          <Trackpoint>
            <Time>2021-04-01T13:12:01.000Z</Time>
            <Position>
              <LatitudeDegrees>42.41381607949733734130859375</LatitudeDegrees>
              <LongitudeDegrees>2.70523988641798496246337890625</LongitudeDegrees>
            </Position>
            <AltitudeMeters>1311.800048828125</AltitudeMeters>
            <DistanceMeters>NAN</DistanceMeters>
          </Trackpoint>
          <Trackpoint>
            <Time>2021-04-01T13:12:09.000Z</Time>
            <Position>
              <LatitudeDegrees>42.4137676320970058441162109375</LatitudeDegrees>
              <LongitudeDegrees>2.70524944178760051727294921875</LongitudeDegrees>
            </Position>
            <AltitudeMeters>1310.5999755859375</AltitudeMeters>
            <DistanceMeters>NAN</DistanceMeters>
          </Trackpoint>
          <Trackpoint>
            <Time>2021-04-01T13:12:10.000Z</Time>
            <Position>
              <LatitudeDegrees>42.41376469843089580535888671875</LatitudeDegrees>
              <LongitudeDegrees>2.70525027997791767120361328125</LongitudeDegrees>
            </Position>
            <AltitudeMeters>1310.4000244140625</AltitudeMeters>
            <DistanceMeters>NAN</DistanceMeters>
          </Trackpoint>
          <Trackpoint>
            <Time>2021-04-01T13:12:12.000Z</Time>
            <Position>
              <LatitudeDegrees>42.41375950165092945098876953125</LatitudeDegrees>
              <LongitudeDegrees>2.70524726249277591705322265625</LongitudeDegrees>
            </Position>
            <AltitudeMeters>1309.800048828125</AltitudeMeters>
            <DistanceMeters>NAN</DistanceMeters>
          </Trackpoint>
          <Trackpoint>
            <Time>2021-04-01T13:12:13.000Z</Time>
            <Position>
              <LatitudeDegrees>42.41375447250902652740478515625</LatitudeDegrees>
              <LongitudeDegrees>2.7052449993789196014404296875</LongitudeDegrees>
            </Position>
            <AltitudeMeters>1309.5999755859375</AltitudeMeters>
            <DistanceMeters>NAN</DistanceMeters>
          </Trackpoint>
          <Trackpoint>
            <Time>2021-04-01T13:12:18.000Z</Time>
            <Position>
              <LatitudeDegrees>42.41373821161687374114990234375</LatitudeDegrees>
              <LongitudeDegrees>2.70523116923868656158447265625</LongitudeDegrees>
            </Position>
            <AltitudeMeters>1309.199951171875</AltitudeMeters>
            <DistanceMeters>NAN</DistanceMeters>
          </Trackpoint>
          <Trackpoint>
            <Time>2021-04-01T13:12:24.000Z</Time>
            <Position>
              <LatitudeDegrees>42.41369948722422122955322265625</LatitudeDegrees>
              <LongitudeDegrees>2.7052178420126438140869140625</LongitudeDegrees>
            </Position>
            <AltitudeMeters>1309</AltitudeMeters>
            <DistanceMeters>NAN</DistanceMeters>
          </Trackpoint>
          <Trackpoint>
            <Time>2021-04-01T13:12:25.000Z</Time>
            <Position>
              <LatitudeDegrees>42.41369278170168399810791015625</LatitudeDegrees>
              <LongitudeDegrees>2.70521658472716808319091796875</LongitudeDegrees>
            </Position>
            <AltitudeMeters>1309</AltitudeMeters>
            <DistanceMeters>NAN</DistanceMeters>
          </Trackpoint>
          <Trackpoint>
            <Time>2021-04-01T13:12:26.000Z</Time>
            <Position>
              <LatitudeDegrees>42.41368574090301990509033203125</LatitudeDegrees>
              <LongitudeDegrees>2.70521256141364574432373046875</LongitudeDegrees>
            </Position>
            <AltitudeMeters>1308.800048828125</AltitudeMeters>
            <DistanceMeters>NAN</DistanceMeters>
          </Trackpoint>
          <Trackpoint>
            <Time>2021-04-01T13:12:27.000Z</Time>
            <Position>
              <LatitudeDegrees>42.41368205286562442779541015625</LatitudeDegrees>
              <LongitudeDegrees>2.70520292222499847412109375</LongitudeDegrees>
            </Position>
            <AltitudeMeters>1308.5999755859375</AltitudeMeters>
            <DistanceMeters>NAN</DistanceMeters>
          </Trackpoint>
          <Trackpoint>
            <Time>2021-04-01T13:12:28.000Z</Time>
            <Position>
              <LatitudeDegrees>42.41367786191403865814208984375</LatitudeDegrees>
              <LongitudeDegrees>2.70519663579761981964111328125</LongitudeDegrees>
            </Position>
            <AltitudeMeters>1308.4000244140625</AltitudeMeters>
            <DistanceMeters>NAN</DistanceMeters>
          </Trackpoint>
          <Trackpoint>
            <Time>2021-04-01T13:12:30.000Z</Time>
            <Position>
              <LatitudeDegrees>42.41367534734308719635009765625</LatitudeDegrees>
              <LongitudeDegrees>2.70517744123935699462890625</LongitudeDegrees>
            </Position>
            <AltitudeMeters>1308.199951171875</AltitudeMeters>
            <DistanceMeters>NAN</DistanceMeters>
          </Trackpoint>
          <Trackpoint>
            <Time>2021-04-01T13:12:33.000Z</Time>
            <Position>
              <LatitudeDegrees>42.41366679780185222625732421875</LatitudeDegrees>
              <LongitudeDegrees>2.70515841431915760040283203125</LongitudeDegrees>
            </Position>
            <AltitudeMeters>1307.5999755859375</AltitudeMeters>
            <DistanceMeters>NAN</DistanceMeters>
          </Trackpoint>
          <Trackpoint>
            <Time>2021-04-01T13:12:36.000Z</Time>
            <Position>
              <LatitudeDegrees>42.41365506313741207122802734375</LatitudeDegrees>
              <LongitudeDegrees>2.7051346935331821441650390625</LongitudeDegrees>
            </Position>
            <AltitudeMeters>1306.800048828125</AltitudeMeters>
            <DistanceMeters>NAN</DistanceMeters>
          </Trackpoint>
          <Trackpoint>
            <Time>2021-04-01T13:12:38.000Z</Time>
            <Position>
              <LatitudeDegrees>42.41364634595811367034912109375</LatitudeDegrees>
              <LongitudeDegrees>2.70511482842266559600830078125</LongitudeDegrees>
            </Position>
            <AltitudeMeters>1306.4000244140625</AltitudeMeters>
            <DistanceMeters>NAN</DistanceMeters>
          </Trackpoint>
          <Trackpoint>
            <Time>2021-04-01T13:12:39.000Z</Time>
            <Position>
              <LatitudeDegrees>42.41363930515944957733154296875</LatitudeDegrees>
              <LongitudeDegrees>2.70509940572082996368408203125</LongitudeDegrees>
            </Position>
            <AltitudeMeters>1306.4000244140625</AltitudeMeters>
            <DistanceMeters>NAN</DistanceMeters>
          </Trackpoint>
          <Trackpoint>
            <Time>2021-04-01T13:12:42.000Z</Time>
            <Position>
              <LatitudeDegrees>42.41362564265727996826171875</LatitudeDegrees>
              <LongitudeDegrees>2.70508113317191600799560546875</LongitudeDegrees>
            </Position>
            <AltitudeMeters>1305.199951171875</AltitudeMeters>
            <DistanceMeters>NAN</DistanceMeters>
          </Trackpoint>
          <Trackpoint>
            <Time>2021-04-01T13:12:47.000Z</Time>
            <Position>
              <LatitudeDegrees>42.41360980086028575897216796875</LatitudeDegrees>
              <LongitudeDegrees>2.70504173822700977325439453125</LongitudeDegrees>
            </Position>
            <AltitudeMeters>1304.4000244140625</AltitudeMeters>
            <DistanceMeters>NAN</DistanceMeters>
          </Trackpoint>
          <Trackpoint>
            <Time>2021-04-01T13:12:48.000Z</Time>
            <Position>
              <LatitudeDegrees>42.413609214127063751220703125</LatitudeDegrees>
              <LongitudeDegrees>2.705037631094455718994140625</LongitudeDegrees>
            </Position>
            <AltitudeMeters>1304</AltitudeMeters>
            <DistanceMeters>NAN</DistanceMeters>
          </Trackpoint>
          <Trackpoint>
            <Time>2021-04-01T13:12:51.000Z</Time>
            <Position>
              <LatitudeDegrees>42.413585074245929718017578125</LatitudeDegrees>
              <LongitudeDegrees>2.705018520355224609375</LongitudeDegrees>
            </Position>
            <AltitudeMeters>1302.800048828125</AltitudeMeters>
            <DistanceMeters>NAN</DistanceMeters>
          </Trackpoint>
          <Trackpoint>
            <Time>2021-04-01T13:12:53.000Z</Time>
            <Position>
              <LatitudeDegrees>42.41358046419918537139892578125</LatitudeDegrees>
              <LongitudeDegrees>2.70499781705439090728759765625</LongitudeDegrees>
            </Position>
            <AltitudeMeters>1302.4000244140625</AltitudeMeters>
            <DistanceMeters>NAN</DistanceMeters>
          </Trackpoint>
          <Trackpoint>
            <Time>2021-04-01T13:12:56.000Z</Time>
            <Position>
              <LatitudeDegrees>42.4135673046112060546875</LatitudeDegrees>
              <LongitudeDegrees>2.704978622496128082275390625</LongitudeDegrees>
            </Position>
            <AltitudeMeters>1301.5999755859375</AltitudeMeters>
            <DistanceMeters>NAN</DistanceMeters>
          </Trackpoint>
          <Trackpoint>
            <Time>2021-04-01T13:13:00.000Z</Time>
            <Position>
              <LatitudeDegrees>42.4135552346706390380859375</LatitudeDegrees>
              <LongitudeDegrees>2.7049352042376995086669921875</LongitudeDegrees>
            </Position>
            <AltitudeMeters>1301.199951171875</AltitudeMeters>
            <DistanceMeters>NAN</DistanceMeters>
          </Trackpoint>
          <Trackpoint>
            <Time>2021-04-01T13:13:02.000Z</Time>
            <Position>
              <LatitudeDegrees>42.41354794241487979888916015625</LatitudeDegrees>
              <LongitudeDegrees>2.70491056144237518310546875</LongitudeDegrees>
            </Position>
            <AltitudeMeters>1300.800048828125</AltitudeMeters>
            <DistanceMeters>NAN</DistanceMeters>
          </Trackpoint>
          <Trackpoint>
            <Time>2021-04-01T13:13:03.000Z</Time>
            <Position>
              <LatitudeDegrees>42.41354894824326038360595703125</LatitudeDegrees>
              <LongitudeDegrees>2.7048963122069835662841796875</LongitudeDegrees>
            </Position>
            <AltitudeMeters>1300.4000244140625</AltitudeMeters>
            <DistanceMeters>NAN</DistanceMeters>
          </Trackpoint>
          <Trackpoint>
            <Time>2021-04-01T13:13:08.000Z</Time>
            <Position>
              <LatitudeDegrees>42.4135416559875011444091796875</LatitudeDegrees>
              <LongitudeDegrees>2.7048517204821109771728515625</LongitudeDegrees>
            </Position>
            <AltitudeMeters>1299.199951171875</AltitudeMeters>
            <DistanceMeters>NAN</DistanceMeters>
          </Trackpoint>
          <Trackpoint>
            <Time>2021-04-01T13:13:09.000Z</Time>
            <Position>
              <LatitudeDegrees>42.41353503428399562835693359375</LatitudeDegrees>
              <LongitudeDegrees>2.70484350621700286865234375</LongitudeDegrees>
            </Position>
            <AltitudeMeters>1299</AltitudeMeters>
            <DistanceMeters>NAN</DistanceMeters>
          </Trackpoint>
          <Trackpoint>
            <Time>2021-04-01T13:13:15.000Z</Time>
            <Position>
              <LatitudeDegrees>42.413503266870975494384765625</LatitudeDegrees>
              <LongitudeDegrees>2.704766727983951568603515625</LongitudeDegrees>
            </Position>
            <AltitudeMeters>1298</AltitudeMeters>
            <DistanceMeters>NAN</DistanceMeters>
          </Trackpoint>
          <Trackpoint>
            <Time>2021-04-01T13:13:16.000Z</Time>
            <Position>
              <LatitudeDegrees>42.41349983029067516326904296875</LatitudeDegrees>
              <LongitudeDegrees>2.70475239492952823638916015625</LongitudeDegrees>
            </Position>
            <AltitudeMeters>1297.5999755859375</AltitudeMeters>
            <DistanceMeters>NAN</DistanceMeters>
          </Trackpoint>
          <Trackpoint>
            <Time>2021-04-01T13:13:19.000Z</Time>
            <Position>
              <LatitudeDegrees>42.413493879139423370361328125</LatitudeDegrees>
              <LongitudeDegrees>2.7047194540500640869140625</LongitudeDegrees>
            </Position>
            <AltitudeMeters>1296.800048828125</AltitudeMeters>
            <DistanceMeters>NAN</DistanceMeters>
          </Trackpoint>
          <Trackpoint>
            <Time>2021-04-01T13:13:24.000Z</Time>
            <Position>
              <LatitudeDegrees>42.4134813062846660614013671875</LatitudeDegrees>
              <LongitudeDegrees>2.704663462936878204345703125</LongitudeDegrees>
            </Position>
            <AltitudeMeters>1295.5999755859375</AltitudeMeters>
            <DistanceMeters>NAN</DistanceMeters>
          </Trackpoint>
          <Trackpoint>
            <Time>2021-04-01T13:13:25.000Z</Time>
            <Position>
              <LatitudeDegrees>42.41347585804760456085205078125</LatitudeDegrees>
              <LongitudeDegrees>2.70465281791985034942626953125</LongitudeDegrees>
            </Position>
            <AltitudeMeters>1295.4000244140625</AltitudeMeters>
            <DistanceMeters>NAN</DistanceMeters>
          </Trackpoint>
          <Trackpoint>
            <Time>2021-04-01T13:13:30.000Z</Time>
            <Position>
              <LatitudeDegrees>42.41345289163291454315185546875</LatitudeDegrees>
              <LongitudeDegrees>2.70461275242269039154052734375</LongitudeDegrees>
            </Position>
            <AltitudeMeters>1294.5999755859375</AltitudeMeters>
            <DistanceMeters>NAN</DistanceMeters>
          </Trackpoint>
          <Trackpoint>
            <Time>2021-04-01T13:13:31.000Z</Time>
            <Position>
              <LatitudeDegrees>42.41344618611037731170654296875</LatitudeDegrees>
              <LongitudeDegrees>2.7046068012714385986328125</LongitudeDegrees>
            </Position>
            <AltitudeMeters>1294.5999755859375</AltitudeMeters>
            <DistanceMeters>NAN</DistanceMeters>
          </Trackpoint>
          <Trackpoint>
            <Time>2021-04-01T13:13:34.000Z</Time>
            <Position>
              <LatitudeDegrees>42.4134360440075397491455078125</LatitudeDegrees>
              <LongitudeDegrees>2.7045938931405544281005859375</LongitudeDegrees>
            </Position>
            <AltitudeMeters>1294.199951171875</AltitudeMeters>
            <DistanceMeters>NAN</DistanceMeters>
          </Trackpoint>
          <Trackpoint>
            <Time>2021-04-01T13:13:40.000Z</Time>
            <Position>
              <LatitudeDegrees>42.41343562491238117218017578125</LatitudeDegrees>
              <LongitudeDegrees>2.70458735525608062744140625</LongitudeDegrees>
            </Position>
            <AltitudeMeters>1294.4000244140625</AltitudeMeters>
            <DistanceMeters>NAN</DistanceMeters>
          </Trackpoint>
          <Trackpoint>
            <Time>2021-04-01T13:13:42.000Z</Time>
            <Position>
              <LatitudeDegrees>42.4134316854178905487060546875</LatitudeDegrees>
              <LongitudeDegrees>2.7045784704387187957763671875</LongitudeDegrees>
            </Position>
            <AltitudeMeters>1294.199951171875</AltitudeMeters>
            <DistanceMeters>NAN</DistanceMeters>
          </Trackpoint>
          <Trackpoint>
            <Time>2021-04-01T13:13:47.000Z</Time>
            <Position>
              <LatitudeDegrees>42.41343059577047824859619140625</LatitudeDegrees>
              <LongitudeDegrees>2.70458140410482883453369140625</LongitudeDegrees>
            </Position>
            <AltitudeMeters>1294</AltitudeMeters>
            <DistanceMeters>NAN</DistanceMeters>
          </Trackpoint>
          <Trackpoint>
            <Time>2021-04-01T13:13:51.000Z</Time>
            <Position>
              <LatitudeDegrees>42.413429506123065948486328125</LatitudeDegrees>
              <LongitudeDegrees>2.70457603968679904937744140625</LongitudeDegrees>
            </Position>
            <AltitudeMeters>1293.4000244140625</AltitudeMeters>
            <DistanceMeters>NAN</DistanceMeters>
          </Trackpoint>
          <Trackpoint>
            <Time>2021-04-01T13:13:54.000Z</Time>
            <Position>
              <LatitudeDegrees>42.413420118391513824462890625</LatitudeDegrees>
              <LongitudeDegrees>2.70453010685741901397705078125</LongitudeDegrees>
            </Position>
            <AltitudeMeters>1292.800048828125</AltitudeMeters>
            <DistanceMeters>NAN</DistanceMeters>
          </Trackpoint>
          <Trackpoint>
            <Time>2021-04-01T13:13:59.000Z</Time>
            <Position>
              <LatitudeDegrees>42.4133978225290775299072265625</LatitudeDegrees>
              <LongitudeDegrees>2.70447243936359882354736328125</LongitudeDegrees>
            </Position>
            <AltitudeMeters>1292.4000244140625</AltitudeMeters>
            <DistanceMeters>NAN</DistanceMeters>
          </Trackpoint>
          <Trackpoint>
            <Time>2021-04-01T13:14:02.000Z</Time>
            <Position>
              <LatitudeDegrees>42.4133733473718166351318359375</LatitudeDegrees>
              <LongitudeDegrees>2.7044483833014965057373046875</LongitudeDegrees>
            </Position>
            <AltitudeMeters>1292</AltitudeMeters>
            <DistanceMeters>NAN</DistanceMeters>
          </Trackpoint>
          <Trackpoint>
            <Time>2021-04-01T13:14:06.000Z</Time>
            <Position>
              <LatitudeDegrees>42.4133639596402645111083984375</LatitudeDegrees>
              <LongitudeDegrees>2.7044161967933177947998046875</LongitudeDegrees>
            </Position>
            <AltitudeMeters>1291.199951171875</AltitudeMeters>
            <DistanceMeters>NAN</DistanceMeters>
          </Trackpoint>
          <Trackpoint>
            <Time>2021-04-01T13:14:08.000Z</Time>
            <Position>
              <LatitudeDegrees>42.4133642949163913726806640625</LatitudeDegrees>
              <LongitudeDegrees>2.70439817570149898529052734375</LongitudeDegrees>
            </Position>
            <AltitudeMeters>1290.800048828125</AltitudeMeters>
            <DistanceMeters>NAN</DistanceMeters>
          </Trackpoint>
          <Trackpoint>
            <Time>2021-04-01T13:14:10.000Z</Time>
            <Position>
              <LatitudeDegrees>42.41337007842957973480224609375</LatitudeDegrees>
              <LongitudeDegrees>2.70438484847545623779296875</LongitudeDegrees>
            </Position>
            <AltitudeMeters>1290.199951171875</AltitudeMeters>
            <DistanceMeters>NAN</DistanceMeters>
          </Trackpoint>
          <Trackpoint>
            <Time>2021-04-01T13:14:11.000Z</Time>
            <Position>
              <LatitudeDegrees>42.413371503353118896484375</LatitudeDegrees>
              <LongitudeDegrees>2.7043779753148555755615234375</LongitudeDegrees>
            </Position>
            <AltitudeMeters>1290</AltitudeMeters>
            <DistanceMeters>NAN</DistanceMeters>
          </Trackpoint>
          <Trackpoint>
            <Time>2021-04-01T13:14:16.000Z</Time>
            <Position>
              <LatitudeDegrees>42.4133487045764923095703125</LatitudeDegrees>
              <LongitudeDegrees>2.70433967001736164093017578125</LongitudeDegrees>
            </Position>
            <AltitudeMeters>1288.800048828125</AltitudeMeters>
            <DistanceMeters>NAN</DistanceMeters>
          </Trackpoint>
          <Trackpoint>
            <Time>2021-04-01T13:14:17.000Z</Time>
            <Position>
              <LatitudeDegrees>42.41334375925362110137939453125</LatitudeDegrees>
              <LongitudeDegrees>2.7043320424854755401611328125</LongitudeDegrees>
            </Position>
            <AltitudeMeters>1288.5999755859375</AltitudeMeters>
            <DistanceMeters>NAN</DistanceMeters>
          </Trackpoint>
          <Trackpoint>
            <Time>2021-04-01T13:14:19.000Z</Time>
            <Position>
              <LatitudeDegrees>42.41333135403692722320556640625</LatitudeDegrees>
              <LongitudeDegrees>2.704324834048748016357421875</LongitudeDegrees>
            </Position>
            <AltitudeMeters>1288.4000244140625</AltitudeMeters>
            <DistanceMeters>NAN</DistanceMeters>
          </Trackpoint>
          <Trackpoint>
            <Time>2021-04-01T13:14:25.000Z</Time>
            <Position>
              <LatitudeDegrees>42.4132808111608028411865234375</LatitudeDegrees>
              <LongitudeDegrees>2.7043018676340579986572265625</LongitudeDegrees>
            </Position>
            <AltitudeMeters>1288</AltitudeMeters>
            <DistanceMeters>NAN</DistanceMeters>
          </Trackpoint>
          <Trackpoint>
            <Time>2021-04-01T13:14:26.000Z</Time>
            <Position>
              <LatitudeDegrees>42.41327335126698017120361328125</LatitudeDegrees>
              <LongitudeDegrees>2.70429356954991817474365234375</LongitudeDegrees>
            </Position>
            <AltitudeMeters>1287.800048828125</AltitudeMeters>
            <DistanceMeters>NAN</DistanceMeters>
          </Trackpoint>
          <Trackpoint>
            <Time>2021-04-01T13:14:28.000Z</Time>
            <Position>
              <LatitudeDegrees>42.4132580123841762542724609375</LatitudeDegrees>
              <LongitudeDegrees>2.704280577600002288818359375</LongitudeDegrees>
            </Position>
            <AltitudeMeters>1287.4000244140625</AltitudeMeters>
            <DistanceMeters>NAN</DistanceMeters>
          </Trackpoint>
          <Trackpoint>
            <Time>2021-04-01T13:14:31.000Z</Time>
            <Position>
              <LatitudeDegrees>42.41323915310204029083251953125</LatitudeDegrees>
              <LongitudeDegrees>2.70426792092621326446533203125</LongitudeDegrees>
            </Position>
            <AltitudeMeters>1286.800048828125</AltitudeMeters>
            <DistanceMeters>NAN</DistanceMeters>
          </Trackpoint>
          <Trackpoint>
            <Time>2021-04-01T13:14:36.000Z</Time>
            <Position>
              <LatitudeDegrees>42.413194142282009124755859375</LatitudeDegrees>
              <LongitudeDegrees>2.70426926203072071075439453125</LongitudeDegrees>
            </Position>
            <AltitudeMeters>1286.5999755859375</AltitudeMeters>
            <DistanceMeters>NAN</DistanceMeters>
          </Trackpoint>
          <Trackpoint>
            <Time>2021-04-01T13:14:38.000Z</Time>
            <Position>
              <LatitudeDegrees>42.41317662410438060760498046875</LatitudeDegrees>
              <LongitudeDegrees>2.70426557399332523345947265625</LongitudeDegrees>
            </Position>
            <AltitudeMeters>1286.4000244140625</AltitudeMeters>
            <DistanceMeters>NAN</DistanceMeters>
          </Trackpoint>
          <Trackpoint>
            <Time>2021-04-01T13:14:41.000Z</Time>
            <Position>
              <LatitudeDegrees>42.4131503887474536895751953125</LatitudeDegrees>
              <LongitudeDegrees>2.70426683127880096435546875</LongitudeDegrees>
            </Position>
            <AltitudeMeters>1285.5999755859375</AltitudeMeters>
            <DistanceMeters>NAN</DistanceMeters>
          </Trackpoint>
          <Trackpoint>
            <Time>2021-04-01T13:14:43.000Z</Time>
            <Position>
              <LatitudeDegrees>42.41313119418919086456298828125</LatitudeDegrees>
              <LongitudeDegrees>2.70426993258297443389892578125</LongitudeDegrees>
            </Position>
            <AltitudeMeters>1285.4000244140625</AltitudeMeters>
            <DistanceMeters>NAN</DistanceMeters>
          </Trackpoint>
          <Trackpoint>
            <Time>2021-04-01T13:14:46.000Z</Time>
            <Position>
              <LatitudeDegrees>42.41310437209904193878173828125</LatitudeDegrees>
              <LongitudeDegrees>2.7042596228420734405517578125</LongitudeDegrees>
            </Position>
            <AltitudeMeters>1285</AltitudeMeters>
            <DistanceMeters>NAN</DistanceMeters>
          </Trackpoint>
          <Trackpoint>
            <Time>2021-04-01T13:14:47.000Z</Time>
            <Position>
              <LatitudeDegrees>42.41309213452041149139404296875</LatitudeDegrees>
              <LongitudeDegrees>2.70425635389983654022216796875</LongitudeDegrees>
            </Position>
            <AltitudeMeters>1284.800048828125</AltitudeMeters>
            <DistanceMeters>NAN</DistanceMeters>
          </Trackpoint>
          <Trackpoint>
            <Time>2021-04-01T13:14:48.000Z</Time>
            <Position>
              <LatitudeDegrees>42.41307939402759075164794921875</LatitudeDegrees>
              <LongitudeDegrees>2.704255096614360809326171875</LongitudeDegrees>
            </Position>
            <AltitudeMeters>1284.5999755859375</AltitudeMeters>
            <DistanceMeters>NAN</DistanceMeters>
          </Trackpoint>
          <Trackpoint>
            <Time>2021-04-01T13:14:50.000Z</Time>
            <Position>
              <LatitudeDegrees>42.41305776871740818023681640625</LatitudeDegrees>
              <LongitudeDegrees>2.70425149239599704742431640625</LongitudeDegrees>
            </Position>
            <AltitudeMeters>1284.199951171875</AltitudeMeters>
            <DistanceMeters>NAN</DistanceMeters>
          </Trackpoint>
          <Trackpoint>
            <Time>2021-04-01T13:14:54.000Z</Time>
            <Position>
              <LatitudeDegrees>42.41302482783794403076171875</LatitudeDegrees>
              <LongitudeDegrees>2.7042579464614391326904296875</LongitudeDegrees>
            </Position>
            <AltitudeMeters>1283.199951171875</AltitudeMeters>
            <DistanceMeters>NAN</DistanceMeters>
          </Trackpoint>
          <Trackpoint>
            <Time>2021-04-01T13:14:58.000Z</Time>
            <Position>
              <LatitudeDegrees>42.41299264132976531982421875</LatitudeDegrees>
              <LongitudeDegrees>2.70426280796527862548828125</LongitudeDegrees>
            </Position>
            <AltitudeMeters>1282.199951171875</AltitudeMeters>
            <DistanceMeters>NAN</DistanceMeters>
          </Trackpoint>
          <Trackpoint>
            <Time>2021-04-01T13:15:03.000Z</Time>
            <Position>
              <LatitudeDegrees>42.4129475466907024383544921875</LatitudeDegrees>
              <LongitudeDegrees>2.70423808135092258453369140625</LongitudeDegrees>
            </Position>
            <AltitudeMeters>1280.800048828125</AltitudeMeters>
            <DistanceMeters>NAN</DistanceMeters>
          </Trackpoint>
          <Trackpoint>
            <Time>2021-04-01T13:15:04.000Z</Time>
            <Position>
              <LatitudeDegrees>42.4129391647875308990478515625</LatitudeDegrees>
              <LongitudeDegrees>2.7042294479906558990478515625</LongitudeDegrees>
            </Position>
            <AltitudeMeters>1280.5999755859375</AltitudeMeters>
            <DistanceMeters>NAN</DistanceMeters>
          </Trackpoint>
          <Trackpoint>
            <Time>2021-04-01T13:15:07.000Z</Time>
            <Position>
              <LatitudeDegrees>42.41291209124028682708740234375</LatitudeDegrees>
              <LongitudeDegrees>2.70421813242137432098388671875</LongitudeDegrees>
            </Position>
            <AltitudeMeters>1279.800048828125</AltitudeMeters>
            <DistanceMeters>NAN</DistanceMeters>
          </Trackpoint>
          <Trackpoint>
            <Time>2021-04-01T13:15:11.000Z</Time>
            <Position>
              <LatitudeDegrees>42.41287152282893657684326171875</LatitudeDegrees>
              <LongitudeDegrees>2.70420790649950504302978515625</LongitudeDegrees>
            </Position>
            <AltitudeMeters>1279.199951171875</AltitudeMeters>
            <DistanceMeters>NAN</DistanceMeters>
          </Trackpoint>
          <Trackpoint>
            <Time>2021-04-01T13:15:13.000Z</Time>
            <Position>
              <LatitudeDegrees>42.41285710595548152923583984375</LatitudeDegrees>
              <LongitudeDegrees>2.7042125165462493896484375</LongitudeDegrees>
            </Position>
            <AltitudeMeters>1279</AltitudeMeters>
            <DistanceMeters>NAN</DistanceMeters>
          </Trackpoint>
          <Trackpoint>
            <Time>2021-04-01T13:15:14.000Z</Time>
            <Position>
              <LatitudeDegrees>42.41284721530973911285400390625</LatitudeDegrees>
              <LongitudeDegrees>2.7042140252888202667236328125</LongitudeDegrees>
            </Position>
            <AltitudeMeters>1278.5999755859375</AltitudeMeters>
            <DistanceMeters>NAN</DistanceMeters>
          </Trackpoint>
          <Trackpoint>
            <Time>2021-04-01T13:15:17.000Z</Time>
            <Position>
              <LatitudeDegrees>42.4128167890012264251708984375</LatitudeDegrees>
              <LongitudeDegrees>2.7042143605649471282958984375</LongitudeDegrees>
            </Position>
            <AltitudeMeters>1277.4000244140625</AltitudeMeters>
            <DistanceMeters>NAN</DistanceMeters>
          </Trackpoint>
          <Trackpoint>
            <Time>2021-04-01T13:15:21.000Z</Time>
            <Position>
              <LatitudeDegrees>42.41278133355081081390380859375</LatitudeDegrees>
              <LongitudeDegrees>2.70424009300768375396728515625</LongitudeDegrees>
            </Position>
            <AltitudeMeters>1276.4000244140625</AltitudeMeters>
            <DistanceMeters>NAN</DistanceMeters>
          </Trackpoint>
          <Trackpoint>
            <Time>2021-04-01T13:15:22.000Z</Time>
            <Position>
              <LatitudeDegrees>42.4127738736569881439208984375</LatitudeDegrees>
              <LongitudeDegrees>2.7042418532073497772216796875</LongitudeDegrees>
            </Position>
            <AltitudeMeters>1276</AltitudeMeters>
            <DistanceMeters>NAN</DistanceMeters>
          </Trackpoint>
          <Trackpoint>
            <Time>2021-04-01T13:15:28.000Z</Time>
            <Position>
              <LatitudeDegrees>42.41271637380123138427734375</LatitudeDegrees>
              <LongitudeDegrees>2.70424135029315948486328125</LongitudeDegrees>
            </Position>
            <AltitudeMeters>1275.199951171875</AltitudeMeters>
            <DistanceMeters>NAN</DistanceMeters>
          </Trackpoint>
          <Trackpoint>
            <Time>2021-04-01T13:15:31.000Z</Time>
            <Position>
              <LatitudeDegrees>42.41269290447235107421875</LatitudeDegrees>
              <LongitudeDegrees>2.7042401768267154693603515625</LongitudeDegrees>
            </Position>
            <AltitudeMeters>1274</AltitudeMeters>
            <DistanceMeters>NAN</DistanceMeters>
          </Trackpoint>
          <Trackpoint>
            <Time>2021-04-01T13:15:40.000Z</Time>
            <Position>
              <LatitudeDegrees>42.41259642876684665679931640625</LatitudeDegrees>
              <LongitudeDegrees>2.70423623733222484588623046875</LongitudeDegrees>
            </Position>
            <AltitudeMeters>1273</AltitudeMeters>
            <DistanceMeters>NAN</DistanceMeters>
          </Trackpoint>
          <Trackpoint>
            <Time>2021-04-01T13:15:41.000Z</Time>
            <Position>
              <LatitudeDegrees>42.4125851131975650787353515625</LatitudeDegrees>
              <LongitudeDegrees>2.7042334713041782379150390625</LongitudeDegrees>
            </Position>
            <AltitudeMeters>1272.800048828125</AltitudeMeters>
            <DistanceMeters>NAN</DistanceMeters>
          </Trackpoint>
          <Trackpoint>
            <Time>2021-04-01T13:15:46.000Z</Time>
            <Position>
              <LatitudeDegrees>42.412531636655330657958984375</LatitudeDegrees>
              <LongitudeDegrees>2.70422031171619892120361328125</LongitudeDegrees>
            </Position>
            <AltitudeMeters>1271.800048828125</AltitudeMeters>
            <DistanceMeters>NAN</DistanceMeters>
          </Trackpoint>
          <Trackpoint>
            <Time>2021-04-01T13:15:51.000Z</Time>
            <Position>
              <LatitudeDegrees>42.41247237659990787506103515625</LatitudeDegrees>
              <LongitudeDegrees>2.7042083255946636199951171875</LongitudeDegrees>
            </Position>
            <AltitudeMeters>1270.800048828125</AltitudeMeters>
            <DistanceMeters>NAN</DistanceMeters>
          </Trackpoint>
          <Trackpoint>
            <Time>2021-04-01T13:15:52.000Z</Time>
            <Position>
              <LatitudeDegrees>42.412457205355167388916015625</LatitudeDegrees>
              <LongitudeDegrees>2.70420572720468044281005859375</LongitudeDegrees>
            </Position>
            <AltitudeMeters>1270.800048828125</AltitudeMeters>
            <DistanceMeters>NAN</DistanceMeters>
          </Trackpoint>
          <Trackpoint>
            <Time>2021-04-01T13:15:53.000Z</Time>
            <Position>
              <LatitudeDegrees>42.41244547069072723388671875</LatitudeDegrees>
              <LongitudeDegrees>2.704200111329555511474609375</LongitudeDegrees>
            </Position>
            <AltitudeMeters>1270.800048828125</AltitudeMeters>
            <DistanceMeters>NAN</DistanceMeters>
          </Trackpoint>
          <Trackpoint>
            <Time>2021-04-01T13:15:57.000Z</Time>
            <Position>
              <LatitudeDegrees>42.4124057404696941375732421875</LatitudeDegrees>
              <LongitudeDegrees>2.70417924039065837860107421875</LongitudeDegrees>
            </Position>
            <AltitudeMeters>1269.800048828125</AltitudeMeters>
            <DistanceMeters>NAN</DistanceMeters>
          </Trackpoint>
          <Trackpoint>
            <Time>2021-04-01T13:15:59.000Z</Time>
            <Position>
              <LatitudeDegrees>42.41239182651042938232421875</LatitudeDegrees>
              <LongitudeDegrees>2.70416582934558391571044921875</LongitudeDegrees>
            </Position>
            <AltitudeMeters>1269.4000244140625</AltitudeMeters>
            <DistanceMeters>NAN</DistanceMeters>
          </Trackpoint>
          <Trackpoint>
            <Time>2021-04-01T13:16:01.000Z</Time>
            <Position>
              <LatitudeDegrees>42.412376068532466888427734375</LatitudeDegrees>
              <LongitudeDegrees>2.7041481435298919677734375</LongitudeDegrees>
            </Position>
            <AltitudeMeters>1269</AltitudeMeters>
            <DistanceMeters>NAN</DistanceMeters>
          </Trackpoint>
          <Trackpoint>
            <Time>2021-04-01T13:16:02.000Z</Time>
            <Position>
              <LatitudeDegrees>42.4123698659241199493408203125</LatitudeDegrees>
              <LongitudeDegrees>2.70413984544575214385986328125</LongitudeDegrees>
            </Position>
            <AltitudeMeters>1268.800048828125</AltitudeMeters>
            <DistanceMeters>NAN</DistanceMeters>
          </Trackpoint>
          <Trackpoint>
            <Time>2021-04-01T13:16:03.000Z</Time>
            <Position>
              <LatitudeDegrees>42.41236492060124874114990234375</LatitudeDegrees>
              <LongitudeDegrees>2.70413213409483432769775390625</LongitudeDegrees>
            </Position>
            <AltitudeMeters>1268.5999755859375</AltitudeMeters>
            <DistanceMeters>NAN</DistanceMeters>
          </Trackpoint>
          <Trackpoint>
            <Time>2021-04-01T13:16:05.000Z</Time>
            <Position>
              <LatitudeDegrees>42.41235301829874515533447265625</LatitudeDegrees>
              <LongitudeDegrees>2.70412266254425048828125</LongitudeDegrees>
            </Position>
            <AltitudeMeters>1268.4000244140625</AltitudeMeters>
            <DistanceMeters>NAN</DistanceMeters>
          </Trackpoint>
          <Trackpoint>
            <Time>2021-04-01T13:16:09.000Z</Time>
            <Position>
              <LatitudeDegrees>42.41230867803096771240234375</LatitudeDegrees>
              <LongitudeDegrees>2.70410346798598766326904296875</LongitudeDegrees>
            </Position>
            <AltitudeMeters>1267.5999755859375</AltitudeMeters>
            <DistanceMeters>NAN</DistanceMeters>
          </Trackpoint>
          <Trackpoint>
            <Time>2021-04-01T13:16:10.000Z</Time>
            <Position>
              <LatitudeDegrees>42.41229887120425701141357421875</LatitudeDegrees>
              <LongitudeDegrees>2.70409542135894298553466796875</LongitudeDegrees>
            </Position>
            <AltitudeMeters>1267.4000244140625</AltitudeMeters>
            <DistanceMeters>NAN</DistanceMeters>
          </Trackpoint>
          <Trackpoint>
            <Time>2021-04-01T13:16:12.000Z</Time>
            <Position>
              <LatitudeDegrees>42.41228177212178707122802734375</LatitudeDegrees>
              <LongitudeDegrees>2.70408703945577144622802734375</LongitudeDegrees>
            </Position>
            <AltitudeMeters>1267</AltitudeMeters>
            <DistanceMeters>NAN</DistanceMeters>
          </Trackpoint>
          <Trackpoint>
            <Time>2021-04-01T13:16:15.000Z</Time>
            <Position>
              <LatitudeDegrees>42.41224765777587890625</LatitudeDegrees>
              <LongitudeDegrees>2.7040849439799785614013671875</LongitudeDegrees>
            </Position>
            <AltitudeMeters>1266.5999755859375</AltitudeMeters>
            <DistanceMeters>NAN</DistanceMeters>
          </Trackpoint>
          <Trackpoint>
            <Time>2021-04-01T13:16:16.000Z</Time>
            <Position>
              <LatitudeDegrees>42.41223801858723163604736328125</LatitudeDegrees>
              <LongitudeDegrees>2.7040819264948368072509765625</LongitudeDegrees>
            </Position>
            <AltitudeMeters>1266.4000244140625</AltitudeMeters>
            <DistanceMeters>NAN</DistanceMeters>
          </Trackpoint>
          <Trackpoint>
            <Time>2021-04-01T13:16:17.000Z</Time>
            <Position>
              <LatitudeDegrees>42.41223013959825038909912109375</LatitudeDegrees>
              <LongitudeDegrees>2.7040789090096950531005859375</LongitudeDegrees>
            </Position>
            <AltitudeMeters>1266.4000244140625</AltitudeMeters>
            <DistanceMeters>NAN</DistanceMeters>
          </Trackpoint>
          <Trackpoint>
            <Time>2021-04-01T13:16:20.000Z</Time>
            <Position>
              <LatitudeDegrees>42.4122062511742115020751953125</LatitudeDegrees>
              <LongitudeDegrees>2.7040621452033519744873046875</LongitudeDegrees>
            </Position>
            <AltitudeMeters>1266.199951171875</AltitudeMeters>
            <DistanceMeters>NAN</DistanceMeters>
          </Trackpoint>
          <Trackpoint>
            <Time>2021-04-01T13:16:23.000Z</Time>
            <Position>
              <LatitudeDegrees>42.41218102164566516876220703125</LatitudeDegrees>
              <LongitudeDegrees>2.70403683185577392578125</LongitudeDegrees>
            </Position>
            <AltitudeMeters>1265.4000244140625</AltitudeMeters>
            <DistanceMeters>NAN</DistanceMeters>
          </Trackpoint>
          <Trackpoint>
            <Time>2021-04-01T13:16:27.000Z</Time>
            <Position>
              <LatitudeDegrees>42.412151433527469635009765625</LatitudeDegrees>
              <LongitudeDegrees>2.70399433560669422149658203125</LongitudeDegrees>
            </Position>
            <AltitudeMeters>1265</AltitudeMeters>
            <DistanceMeters>NAN</DistanceMeters>
          </Trackpoint>
          <Trackpoint>
            <Time>2021-04-01T13:16:29.000Z</Time>
            <Position>
              <LatitudeDegrees>42.41214238107204437255859375</LatitudeDegrees>
              <LongitudeDegrees>2.70397673361003398895263671875</LongitudeDegrees>
            </Position>
            <AltitudeMeters>1265</AltitudeMeters>
            <DistanceMeters>NAN</DistanceMeters>
          </Trackpoint>
          <Trackpoint>
            <Time>2021-04-01T13:16:31.000Z</Time>
            <Position>
              <LatitudeDegrees>42.4121418781578540802001953125</LatitudeDegrees>
              <LongitudeDegrees>2.70396851934492588043212890625</LongitudeDegrees>
            </Position>
            <AltitudeMeters>1265.199951171875</AltitudeMeters>
            <DistanceMeters>NAN</DistanceMeters>
          </Trackpoint>
          <Trackpoint>
            <Time>2021-04-01T13:16:32.000Z</Time>
            <Position>
              <LatitudeDegrees>42.41214397363364696502685546875</LatitudeDegrees>
              <LongitudeDegrees>2.70396969281136989593505859375</LongitudeDegrees>
            </Position>
            <AltitudeMeters>1265.199951171875</AltitudeMeters>
            <DistanceMeters>NAN</DistanceMeters>
          </Trackpoint>
          <Trackpoint>
            <Time>2021-04-01T13:16:33.000Z</Time>
            <Position>
              <LatitudeDegrees>42.41214573383331298828125</LatitudeDegrees>
              <LongitudeDegrees>2.70396516658365726470947265625</LongitudeDegrees>
            </Position>
            <AltitudeMeters>1265.199951171875</AltitudeMeters>
            <DistanceMeters>NAN</DistanceMeters>
          </Trackpoint>
          <Trackpoint>
            <Time>2021-04-01T13:16:34.000Z</Time>
            <Position>
              <LatitudeDegrees>42.41214280016720294952392578125</LatitudeDegrees>
              <LongitudeDegrees>2.7039588801562786102294921875</LongitudeDegrees>
            </Position>
            <AltitudeMeters>1265.199951171875</AltitudeMeters>
            <DistanceMeters>NAN</DistanceMeters>
          </Trackpoint>
          <Trackpoint>
            <Time>2021-04-01T13:16:36.000Z</Time>
            <Position>
              <LatitudeDegrees>42.41213743574917316436767578125</LatitudeDegrees>
              <LongitudeDegrees>2.70394303835928440093994140625</LongitudeDegrees>
            </Position>
            <AltitudeMeters>1265.199951171875</AltitudeMeters>
            <DistanceMeters>NAN</DistanceMeters>
          </Trackpoint>
          <Trackpoint>
            <Time>2021-04-01T13:16:37.000Z</Time>
            <Position>
              <LatitudeDegrees>42.412133328616619110107421875</LatitudeDegrees>
              <LongitudeDegrees>2.70393021404743194580078125</LongitudeDegrees>
            </Position>
            <AltitudeMeters>1265.199951171875</AltitudeMeters>
            <DistanceMeters>NAN</DistanceMeters>
          </Trackpoint>
          <Trackpoint>
            <Time>2021-04-01T13:16:39.000Z</Time>
            <Position>
              <LatitudeDegrees>42.41212955676019191741943359375</LatitudeDegrees>
              <LongitudeDegrees>2.70391889847815036773681640625</LongitudeDegrees>
            </Position>
            <AltitudeMeters>1265.4000244140625</AltitudeMeters>
            <DistanceMeters>NAN</DistanceMeters>
          </Trackpoint>
          <Trackpoint>
            <Time>2021-04-01T13:16:45.000Z</Time>
            <Position>
              <LatitudeDegrees>42.41212184540927410125732421875</LatitudeDegrees>
              <LongitudeDegrees>2.70385234616696834564208984375</LongitudeDegrees>
            </Position>
            <AltitudeMeters>1265.5999755859375</AltitudeMeters>
            <DistanceMeters>NAN</DistanceMeters>
          </Trackpoint>
          <Trackpoint>
            <Time>2021-04-01T13:16:54.000Z</Time>
            <Position>
              <LatitudeDegrees>42.41210306994616985321044921875</LatitudeDegrees>
              <LongitudeDegrees>2.7037489973008632659912109375</LongitudeDegrees>
            </Position>
            <AltitudeMeters>1265.4000244140625</AltitudeMeters>
            <DistanceMeters>NAN</DistanceMeters>
          </Trackpoint>
          <Trackpoint>
            <Time>2021-04-01T13:16:56.000Z</Time>
            <Position>
              <LatitudeDegrees>42.41209535859525203704833984375</LatitudeDegrees>
              <LongitudeDegrees>2.70372577942907810211181640625</LongitudeDegrees>
            </Position>
            <AltitudeMeters>1265.4000244140625</AltitudeMeters>
            <DistanceMeters>NAN</DistanceMeters>
          </Trackpoint>
          <Trackpoint>
            <Time>2021-04-01T13:16:59.000Z</Time>
            <Position>
              <LatitudeDegrees>42.41209519095718860626220703125</LatitudeDegrees>
              <LongitudeDegrees>2.70369459874927997589111328125</LongitudeDegrees>
            </Position>
            <AltitudeMeters>1265.4000244140625</AltitudeMeters>
            <DistanceMeters>NAN</DistanceMeters>
          </Trackpoint>
          <Trackpoint>
            <Time>2021-04-01T13:17:03.000Z</Time>
            <Position>
              <LatitudeDegrees>42.412091754376888275146484375</LatitudeDegrees>
              <LongitudeDegrees>2.70364799536764621734619140625</LongitudeDegrees>
            </Position>
            <AltitudeMeters>1265</AltitudeMeters>
            <DistanceMeters>NAN</DistanceMeters>
          </Trackpoint>
          <Trackpoint>
            <Time>2021-04-01T13:17:06.000Z</Time>
            <Position>
              <LatitudeDegrees>42.412101812660694122314453125</LatitudeDegrees>
              <LongitudeDegrees>2.703621089458465576171875</LongitudeDegrees>
            </Position>
            <AltitudeMeters>1265</AltitudeMeters>
            <DistanceMeters>NAN</DistanceMeters>
          </Trackpoint>
          <Trackpoint>
            <Time>2021-04-01T13:17:07.000Z</Time>
            <Position>
              <LatitudeDegrees>42.4121041595935821533203125</LatitudeDegrees>
              <LongitudeDegrees>2.703613378107547760009765625</LongitudeDegrees>
            </Position>
            <AltitudeMeters>1265</AltitudeMeters>
            <DistanceMeters>NAN</DistanceMeters>
          </Trackpoint>
          <Trackpoint>
            <Time>2021-04-01T13:17:12.000Z</Time>
            <Position>
              <LatitudeDegrees>42.4121080152690410614013671875</LatitudeDegrees>
              <LongitudeDegrees>2.703562416136264801025390625</LongitudeDegrees>
            </Position>
            <AltitudeMeters>1264.800048828125</AltitudeMeters>
            <DistanceMeters>NAN</DistanceMeters>
          </Trackpoint>
          <Trackpoint>
            <Time>2021-04-01T13:17:19.000Z</Time>
            <Position>
              <LatitudeDegrees>42.412125952541828155517578125</LatitudeDegrees>
              <LongitudeDegrees>2.7034579776227474212646484375</LongitudeDegrees>
            </Position>
            <AltitudeMeters>1264.199951171875</AltitudeMeters>
            <DistanceMeters>NAN</DistanceMeters>
          </Trackpoint>
          <Trackpoint>
            <Time>2021-04-01T13:17:21.000Z</Time>
            <Position>
              <LatitudeDegrees>42.4121237732470035552978515625</LatitudeDegrees>
              <LongitudeDegrees>2.70342721603810787200927734375</LongitudeDegrees>
            </Position>
            <AltitudeMeters>1264</AltitudeMeters>
            <DistanceMeters>NAN</DistanceMeters>
          </Trackpoint>
          <Trackpoint>
            <Time>2021-04-01T13:17:28.000Z</Time>
            <Position>
              <LatitudeDegrees>42.4121060036122798919677734375</LatitudeDegrees>
              <LongitudeDegrees>2.7033292315900325775146484375</LongitudeDegrees>
            </Position>
            <AltitudeMeters>1263.4000244140625</AltitudeMeters>
            <DistanceMeters>NAN</DistanceMeters>
          </Trackpoint>
          <Trackpoint>
            <Time>2021-04-01T13:17:30.000Z</Time>
            <Position>
              <LatitudeDegrees>42.412100471556186676025390625</LatitudeDegrees>
              <LongitudeDegrees>2.703296206891536712646484375</LongitudeDegrees>
            </Position>
            <AltitudeMeters>1263.199951171875</AltitudeMeters>
            <DistanceMeters>NAN</DistanceMeters>
          </Trackpoint>
          <Trackpoint>
            <Time>2021-04-01T13:17:36.000Z</Time>
            <Position>
              <LatitudeDegrees>42.41210105828940868377685546875</LatitudeDegrees>
              <LongitudeDegrees>2.70322320051491260528564453125</LongitudeDegrees>
            </Position>
            <AltitudeMeters>1262.4000244140625</AltitudeMeters>
            <DistanceMeters>NAN</DistanceMeters>
          </Trackpoint>
          <Trackpoint>
            <Time>2021-04-01T13:17:39.000Z</Time>
            <Position>
              <LatitudeDegrees>42.412097789347171783447265625</LatitudeDegrees>
              <LongitudeDegrees>2.7031853981316089630126953125</LongitudeDegrees>
            </Position>
            <AltitudeMeters>1262.199951171875</AltitudeMeters>
            <DistanceMeters>NAN</DistanceMeters>
          </Trackpoint>
          <Trackpoint>
            <Time>2021-04-01T13:17:41.000Z</Time>
            <Position>
              <LatitudeDegrees>42.41209066472947597503662109375</LatitudeDegrees>
              <LongitudeDegrees>2.7031501941382884979248046875</LongitudeDegrees>
            </Position>
            <AltitudeMeters>1262</AltitudeMeters>
            <DistanceMeters>NAN</DistanceMeters>
          </Trackpoint>
          <Trackpoint>
            <Time>2021-04-01T13:17:44.000Z</Time>
            <Position>
              <LatitudeDegrees>42.4120785109698772430419921875</LatitudeDegrees>
              <LongitudeDegrees>2.70310417748987674713134765625</LongitudeDegrees>
            </Position>
            <AltitudeMeters>1261.4000244140625</AltitudeMeters>
            <DistanceMeters>NAN</DistanceMeters>
          </Trackpoint>
          <Trackpoint>
            <Time>2021-04-01T13:17:46.000Z</Time>
            <Position>
              <LatitudeDegrees>42.4120694585144519805908203125</LatitudeDegrees>
              <LongitudeDegrees>2.70308154635131359100341796875</LongitudeDegrees>
            </Position>
            <AltitudeMeters>1261.199951171875</AltitudeMeters>
            <DistanceMeters>NAN</DistanceMeters>
          </Trackpoint>
          <Trackpoint>
            <Time>2021-04-01T13:17:47.000Z</Time>
            <Position>
              <LatitudeDegrees>42.4120617471635341644287109375</LatitudeDegrees>
              <LongitudeDegrees>2.70307400263845920562744140625</LongitudeDegrees>
            </Position>
            <AltitudeMeters>1261</AltitudeMeters>
            <DistanceMeters>NAN</DistanceMeters>
          </Trackpoint>
          <Trackpoint>
            <Time>2021-04-01T13:17:50.000Z</Time>
            <Position>
              <LatitudeDegrees>42.412059567868709564208984375</LatitudeDegrees>
              <LongitudeDegrees>2.70305891521275043487548828125</LongitudeDegrees>
            </Position>
            <AltitudeMeters>1260.5999755859375</AltitudeMeters>
            <DistanceMeters>NAN</DistanceMeters>
          </Trackpoint>
          <Trackpoint>
            <Time>2021-04-01T13:17:52.000Z</Time>
            <Position>
              <LatitudeDegrees>42.4120587296783924102783203125</LatitudeDegrees>
              <LongitudeDegrees>2.7030402235686779022216796875</LongitudeDegrees>
            </Position>
            <AltitudeMeters>1260.4000244140625</AltitudeMeters>
            <DistanceMeters>NAN</DistanceMeters>
          </Trackpoint>
          <Trackpoint>
            <Time>2021-04-01T13:17:55.000Z</Time>
            <Position>
              <LatitudeDegrees>42.412042133510112762451171875</LatitudeDegrees>
              <LongitudeDegrees>2.70300091244280338287353515625</LongitudeDegrees>
            </Position>
            <AltitudeMeters>1260.199951171875</AltitudeMeters>
            <DistanceMeters>NAN</DistanceMeters>
          </Trackpoint>
          <Trackpoint>
            <Time>2021-04-01T13:17:56.000Z</Time>
            <Position>
              <LatitudeDegrees>42.41203953512012958526611328125</LatitudeDegrees>
              <LongitudeDegrees>2.70299336872994899749755859375</LongitudeDegrees>
            </Position>
            <AltitudeMeters>1260.4000244140625</AltitudeMeters>
            <DistanceMeters>NAN</DistanceMeters>
          </Trackpoint>
          <Trackpoint>
            <Time>2021-04-01T13:18:01.000Z</Time>
            <Position>
              <LatitudeDegrees>42.41205026395618915557861328125</LatitudeDegrees>
              <LongitudeDegrees>2.70294693298637866973876953125</LongitudeDegrees>
            </Position>
            <AltitudeMeters>1260.5999755859375</AltitudeMeters>
            <DistanceMeters>NAN</DistanceMeters>
          </Trackpoint>
          <Trackpoint>
            <Time>2021-04-01T13:18:02.000Z</Time>
            <Position>
              <LatitudeDegrees>42.41205864585936069488525390625</LatitudeDegrees>
              <LongitudeDegrees>2.70294022746384143829345703125</LongitudeDegrees>
            </Position>
            <AltitudeMeters>1260.199951171875</AltitudeMeters>
            <DistanceMeters>NAN</DistanceMeters>
          </Trackpoint>
          <Trackpoint>
            <Time>2021-04-01T13:18:04.000Z</Time>
            <Position>
              <LatitudeDegrees>42.41206116043031215667724609375</LatitudeDegrees>
              <LongitudeDegrees>2.70292036235332489013671875</LongitudeDegrees>
            </Position>
            <AltitudeMeters>1260</AltitudeMeters>
            <DistanceMeters>NAN</DistanceMeters>
          </Trackpoint>
          <Trackpoint>
            <Time>2021-04-01T13:18:07.000Z</Time>
            <Position>
              <LatitudeDegrees>42.412065602838993072509765625</LatitudeDegrees>
              <LongitudeDegrees>2.70289764739573001861572265625</LongitudeDegrees>
            </Position>
            <AltitudeMeters>1259.800048828125</AltitudeMeters>
            <DistanceMeters>NAN</DistanceMeters>
          </Trackpoint>
          <Trackpoint>
            <Time>2021-04-01T13:18:12.000Z</Time>
            <Position>
              <LatitudeDegrees>42.41206333972513675689697265625</LatitudeDegrees>
              <LongitudeDegrees>2.70285665988922119140625</LongitudeDegrees>
            </Position>
            <AltitudeMeters>1259.199951171875</AltitudeMeters>
            <DistanceMeters>NAN</DistanceMeters>
          </Trackpoint>
          <Trackpoint>
            <Time>2021-04-01T13:18:15.000Z</Time>
            <Position>
              <LatitudeDegrees>42.4120640940964221954345703125</LatitudeDegrees>
              <LongitudeDegrees>2.70283243618905544281005859375</LongitudeDegrees>
            </Position>
            <AltitudeMeters>1258.800048828125</AltitudeMeters>
            <DistanceMeters>NAN</DistanceMeters>
          </Trackpoint>
          <Trackpoint>
            <Time>2021-04-01T13:18:17.000Z</Time>
            <Position>
              <LatitudeDegrees>42.4120657704770565032958984375</LatitudeDegrees>
              <LongitudeDegrees>2.7028212882578372955322265625</LongitudeDegrees>
            </Position>
            <AltitudeMeters>1258.5999755859375</AltitudeMeters>
            <DistanceMeters>NAN</DistanceMeters>
          </Trackpoint>
          <Trackpoint>
            <Time>2021-04-01T13:18:19.000Z</Time>
            <Position>
              <LatitudeDegrees>42.4120627529919147491455078125</LatitudeDegrees>
              <LongitudeDegrees>2.7028078772127628326416015625</LongitudeDegrees>
            </Position>
            <AltitudeMeters>1258.5999755859375</AltitudeMeters>
            <DistanceMeters>NAN</DistanceMeters>
          </Trackpoint>
          <Trackpoint>
            <Time>2021-04-01T13:18:24.000Z</Time>
            <Position>
              <LatitudeDegrees>42.412067949771881103515625</LatitudeDegrees>
              <LongitudeDegrees>2.70277225412428379058837890625</LongitudeDegrees>
            </Position>
            <AltitudeMeters>1257.800048828125</AltitudeMeters>
            <DistanceMeters>NAN</DistanceMeters>
          </Trackpoint>
          <Trackpoint>
            <Time>2021-04-01T13:18:28.000Z</Time>
            <Position>
              <LatitudeDegrees>42.4120671115815639495849609375</LatitudeDegrees>
              <LongitudeDegrees>2.7027384750545024871826171875</LongitudeDegrees>
            </Position>
            <AltitudeMeters>1257.199951171875</AltitudeMeters>
            <DistanceMeters>NAN</DistanceMeters>
          </Trackpoint>
          <Trackpoint>
            <Time>2021-04-01T13:18:31.000Z</Time>
            <Position>
              <LatitudeDegrees>42.4120691232383251190185546875</LatitudeDegrees>
              <LongitudeDegrees>2.70271190442144870758056640625</LongitudeDegrees>
            </Position>
            <AltitudeMeters>1256.5999755859375</AltitudeMeters>
            <DistanceMeters>NAN</DistanceMeters>
          </Trackpoint>
          <Trackpoint>
            <Time>2021-04-01T13:18:36.000Z</Time>
            <Position>
              <LatitudeDegrees>42.4120583944022655487060546875</LatitudeDegrees>
              <LongitudeDegrees>2.702650465071201324462890625</LongitudeDegrees>
            </Position>
            <AltitudeMeters>1255.800048828125</AltitudeMeters>
            <DistanceMeters>NAN</DistanceMeters>
          </Trackpoint>
          <Trackpoint>
            <Time>2021-04-01T13:18:37.000Z</Time>
            <Position>
              <LatitudeDegrees>42.41205495782196521759033203125</LatitudeDegrees>
              <LongitudeDegrees>2.70263680256903171539306640625</LongitudeDegrees>
            </Position>
            <AltitudeMeters>1255.5999755859375</AltitudeMeters>
            <DistanceMeters>NAN</DistanceMeters>
          </Trackpoint>
          <Trackpoint>
            <Time>2021-04-01T13:18:42.000Z</Time>
            <Position>
              <LatitudeDegrees>42.41204439662396907806396484375</LatitudeDegrees>
              <LongitudeDegrees>2.70258232019841670989990234375</LongitudeDegrees>
            </Position>
            <AltitudeMeters>1254.4000244140625</AltitudeMeters>
            <DistanceMeters>NAN</DistanceMeters>
          </Trackpoint>
          <Trackpoint>
            <Time>2021-04-01T13:18:43.000Z</Time>
            <Position>
              <LatitudeDegrees>42.4120423011481761932373046875</LatitudeDegrees>
              <LongitudeDegrees>2.7025705017149448394775390625</LongitudeDegrees>
            </Position>
            <AltitudeMeters>1254.199951171875</AltitudeMeters>
            <DistanceMeters>NAN</DistanceMeters>
          </Trackpoint>
          <Trackpoint>
            <Time>2021-04-01T13:18:47.000Z</Time>
            <Position>
              <LatitudeDegrees>42.41203400306403636932373046875</LatitudeDegrees>
              <LongitudeDegrees>2.7025195397436618804931640625</LongitudeDegrees>
            </Position>
            <AltitudeMeters>1253.4000244140625</AltitudeMeters>
            <DistanceMeters>NAN</DistanceMeters>
          </Trackpoint>
          <Trackpoint>
            <Time>2021-04-01T13:18:51.000Z</Time>
            <Position>
              <LatitudeDegrees>42.412034086883068084716796875</LatitudeDegrees>
              <LongitudeDegrees>2.70247645676136016845703125</LongitudeDegrees>
            </Position>
            <AltitudeMeters>1252.5999755859375</AltitudeMeters>
            <DistanceMeters>NAN</DistanceMeters>
          </Trackpoint>
          <Trackpoint>
            <Time>2021-04-01T13:18:53.000Z</Time>
            <Position>
              <LatitudeDegrees>42.41202545352280139923095703125</LatitudeDegrees>
              <LongitudeDegrees>2.702456004917621612548828125</LongitudeDegrees>
            </Position>
            <AltitudeMeters>1252</AltitudeMeters>
            <DistanceMeters>NAN</DistanceMeters>
          </Trackpoint>
          <Trackpoint>
            <Time>2021-04-01T13:18:59.000Z</Time>
            <Position>
              <LatitudeDegrees>42.4120389483869075775146484375</LatitudeDegrees>
              <LongitudeDegrees>2.7023871056735515594482421875</LongitudeDegrees>
            </Position>
            <AltitudeMeters>1251</AltitudeMeters>
            <DistanceMeters>NAN</DistanceMeters>
          </Trackpoint>
          <Trackpoint>
            <Time>2021-04-01T13:19:00.000Z</Time>
            <Position>
              <LatitudeDegrees>42.4120397865772247314453125</LatitudeDegrees>
              <LongitudeDegrees>2.702376879751682281494140625</LongitudeDegrees>
            </Position>
            <AltitudeMeters>1251</AltitudeMeters>
            <DistanceMeters>NAN</DistanceMeters>
          </Trackpoint>
          <Trackpoint>
            <Time>2021-04-01T13:19:04.000Z</Time>
            <Position>
              <LatitudeDegrees>42.41202528588473796844482421875</LatitudeDegrees>
              <LongitudeDegrees>2.70232751034200191497802734375</LongitudeDegrees>
            </Position>
            <AltitudeMeters>1249.800048828125</AltitudeMeters>
            <DistanceMeters>NAN</DistanceMeters>
          </Trackpoint>
          <Trackpoint>
            <Time>2021-04-01T13:19:05.000Z</Time>
            <Position>
              <LatitudeDegrees>42.4120225198566913604736328125</LatitudeDegrees>
              <LongitudeDegrees>2.7023163624107837677001953125</LongitudeDegrees>
            </Position>
            <AltitudeMeters>1249.5999755859375</AltitudeMeters>
            <DistanceMeters>NAN</DistanceMeters>
          </Trackpoint>
          <Trackpoint>
            <Time>2021-04-01T13:19:11.000Z</Time>
            <Position>
              <LatitudeDegrees>42.41200902499258518218994140625</LatitudeDegrees>
              <LongitudeDegrees>2.70226028747856616973876953125</LongitudeDegrees>
            </Position>
            <AltitudeMeters>1248.5999755859375</AltitudeMeters>
            <DistanceMeters>NAN</DistanceMeters>
          </Trackpoint>
          <Trackpoint>
            <Time>2021-04-01T13:19:13.000Z</Time>
            <Position>
              <LatitudeDegrees>42.411998547613620758056640625</LatitudeDegrees>
              <LongitudeDegrees>2.70223866216838359832763671875</LongitudeDegrees>
            </Position>
            <AltitudeMeters>1248.4000244140625</AltitudeMeters>
            <DistanceMeters>NAN</DistanceMeters>
          </Trackpoint>
          <Trackpoint>
            <Time>2021-04-01T13:19:14.000Z</Time>
            <Position>
              <LatitudeDegrees>42.41200022399425506591796875</LatitudeDegrees>
              <LongitudeDegrees>2.7022308669984340667724609375</LongitudeDegrees>
            </Position>
            <AltitudeMeters>1248.199951171875</AltitudeMeters>
            <DistanceMeters>NAN</DistanceMeters>
          </Trackpoint>
          <Trackpoint>
            <Time>2021-04-01T13:19:16.000Z</Time>
            <Position>
              <LatitudeDegrees>42.41200047545135021209716796875</LatitudeDegrees>
              <LongitudeDegrees>2.70221519283950328826904296875</LongitudeDegrees>
            </Position>
            <AltitudeMeters>1247.5999755859375</AltitudeMeters>
            <DistanceMeters>NAN</DistanceMeters>
          </Trackpoint>
          <Trackpoint>
            <Time>2021-04-01T13:19:17.000Z</Time>
            <Position>
              <LatitudeDegrees>42.41200282238423824310302734375</LatitudeDegrees>
              <LongitudeDegrees>2.7022067271173000335693359375</LongitudeDegrees>
            </Position>
            <AltitudeMeters>1247.4000244140625</AltitudeMeters>
            <DistanceMeters>NAN</DistanceMeters>
          </Trackpoint>
          <Trackpoint>
            <Time>2021-04-01T13:19:20.000Z</Time>
            <Position>
              <LatitudeDegrees>42.41201941855251789093017578125</LatitudeDegrees>
              <LongitudeDegrees>2.70218971185386180877685546875</LongitudeDegrees>
            </Position>
            <AltitudeMeters>1246.5999755859375</AltitudeMeters>
            <DistanceMeters>NAN</DistanceMeters>
          </Trackpoint>
          <Trackpoint>
            <Time>2021-04-01T13:19:21.000Z</Time>
            <Position>
              <LatitudeDegrees>42.41202310658991336822509765625</LatitudeDegrees>
              <LongitudeDegrees>2.70218334160745143890380859375</LongitudeDegrees>
            </Position>
            <AltitudeMeters>1246.199951171875</AltitudeMeters>
            <DistanceMeters>NAN</DistanceMeters>
          </Trackpoint>
          <Trackpoint>
            <Time>2021-04-01T13:19:26.000Z</Time>
            <Position>
              <LatitudeDegrees>42.412026040256023406982421875</LatitudeDegrees>
              <LongitudeDegrees>2.70215190947055816650390625</LongitudeDegrees>
            </Position>
            <AltitudeMeters>1244.800048828125</AltitudeMeters>
            <DistanceMeters>NAN</DistanceMeters>
          </Trackpoint>
          <Trackpoint>
            <Time>2021-04-01T13:19:28.000Z</Time>
            <Position>
              <LatitudeDegrees>42.41202478297054767608642578125</LatitudeDegrees>
              <LongitudeDegrees>2.7021356485784053802490234375</LongitudeDegrees>
            </Position>
            <AltitudeMeters>1244.4000244140625</AltitudeMeters>
            <DistanceMeters>NAN</DistanceMeters>
          </Trackpoint>
          <Trackpoint>
            <Time>2021-04-01T13:19:30.000Z</Time>
            <Position>
              <LatitudeDegrees>42.41202645935118198394775390625</LatitudeDegrees>
              <LongitudeDegrees>2.70211796276271343231201171875</LongitudeDegrees>
            </Position>
            <AltitudeMeters>1243.800048828125</AltitudeMeters>
            <DistanceMeters>NAN</DistanceMeters>
          </Trackpoint>
          <Trackpoint>
            <Time>2021-04-01T13:19:33.000Z</Time>
            <Position>
              <LatitudeDegrees>42.4120290577411651611328125</LatitudeDegrees>
              <LongitudeDegrees>2.70209298469126224517822265625</LongitudeDegrees>
            </Position>
            <AltitudeMeters>1242.800048828125</AltitudeMeters>
            <DistanceMeters>NAN</DistanceMeters>
          </Trackpoint>
          <Trackpoint>
            <Time>2021-04-01T13:19:34.000Z</Time>
            <Position>
              <LatitudeDegrees>42.41202847100794315338134765625</LatitudeDegrees>
              <LongitudeDegrees>2.7020843513309955596923828125</LongitudeDegrees>
            </Position>
            <AltitudeMeters>1242.5999755859375</AltitudeMeters>
            <DistanceMeters>NAN</DistanceMeters>
          </Trackpoint>
          <Trackpoint>
            <Time>2021-04-01T13:19:37.000Z</Time>
            <Position>
              <LatitudeDegrees>42.4120201729238033294677734375</LatitudeDegrees>
              <LongitudeDegrees>2.7020481415092945098876953125</LongitudeDegrees>
            </Position>
            <AltitudeMeters>1242.199951171875</AltitudeMeters>
            <DistanceMeters>NAN</DistanceMeters>
          </Trackpoint>
          <Trackpoint>
            <Time>2021-04-01T13:19:41.000Z</Time>
            <Position>
              <LatitudeDegrees>42.41200692951679229736328125</LatitudeDegrees>
              <LongitudeDegrees>2.702008746564388275146484375</LongitudeDegrees>
            </Position>
            <AltitudeMeters>1241.4000244140625</AltitudeMeters>
            <DistanceMeters>NAN</DistanceMeters>
          </Trackpoint>
          <Trackpoint>
            <Time>2021-04-01T13:19:44.000Z</Time>
            <Position>
              <LatitudeDegrees>42.4120008945465087890625</LatitudeDegrees>
              <LongitudeDegrees>2.7019596286118030548095703125</LongitudeDegrees>
            </Position>
            <AltitudeMeters>1241</AltitudeMeters>
            <DistanceMeters>NAN</DistanceMeters>
          </Trackpoint>
          <Trackpoint>
            <Time>2021-04-01T13:19:47.000Z</Time>
            <Position>
              <LatitudeDegrees>42.4120013974606990814208984375</LatitudeDegrees>
              <LongitudeDegrees>2.70193238742649555206298828125</LongitudeDegrees>
            </Position>
            <AltitudeMeters>1240.199951171875</AltitudeMeters>
            <DistanceMeters>NAN</DistanceMeters>
          </Trackpoint>
          <Trackpoint>
            <Time>2021-04-01T13:19:52.000Z</Time>
            <Position>
              <LatitudeDegrees>42.41198790259659290313720703125</LatitudeDegrees>
              <LongitudeDegrees>2.70192551426589488983154296875</LongitudeDegrees>
            </Position>
            <AltitudeMeters>1239.4000244140625</AltitudeMeters>
            <DistanceMeters>NAN</DistanceMeters>
          </Trackpoint>
          <Trackpoint>
            <Time>2021-04-01T13:19:53.000Z</Time>
            <Position>
              <LatitudeDegrees>42.4119819514453411102294921875</LatitudeDegrees>
              <LongitudeDegrees>2.70191361196339130401611328125</LongitudeDegrees>
            </Position>
            <AltitudeMeters>1239</AltitudeMeters>
            <DistanceMeters>NAN</DistanceMeters>
          </Trackpoint>
          <Trackpoint>
            <Time>2021-04-01T13:19:58.000Z</Time>
            <Position>
              <LatitudeDegrees>42.4119638465344905853271484375</LatitudeDegrees>
              <LongitudeDegrees>2.70187756977975368499755859375</LongitudeDegrees>
            </Position>
            <AltitudeMeters>1238</AltitudeMeters>
            <DistanceMeters>NAN</DistanceMeters>
          </Trackpoint>
          <Trackpoint>
            <Time>2021-04-01T13:20:00.000Z</Time>
            <Position>
              <LatitudeDegrees>42.41195504553616046905517578125</LatitudeDegrees>
              <LongitudeDegrees>2.7018664218485355377197265625</LongitudeDegrees>
            </Position>
            <AltitudeMeters>1237.4000244140625</AltitudeMeters>
            <DistanceMeters>NAN</DistanceMeters>
          </Trackpoint>
          <Trackpoint>
            <Time>2021-04-01T13:20:01.000Z</Time>
            <Position>
              <LatitudeDegrees>42.411950267851352691650390625</LatitudeDegrees>
              <LongitudeDegrees>2.70186164416372776031494140625</LongitudeDegrees>
            </Position>
            <AltitudeMeters>1237.199951171875</AltitudeMeters>
            <DistanceMeters>NAN</DistanceMeters>
          </Trackpoint>
          <Trackpoint>
            <Time>2021-04-01T13:20:03.000Z</Time>
            <Position>
              <LatitudeDegrees>42.41194523870944976806640625</LatitudeDegrees>
              <LongitudeDegrees>2.70184789784252643585205078125</LongitudeDegrees>
            </Position>
            <AltitudeMeters>1236.800048828125</AltitudeMeters>
            <DistanceMeters>NAN</DistanceMeters>
          </Trackpoint>
          <Trackpoint>
            <Time>2021-04-01T13:20:07.000Z</Time>
            <Position>
              <LatitudeDegrees>42.411930151283740997314453125</LatitudeDegrees>
              <LongitudeDegrees>2.70182761363685131072998046875</LongitudeDegrees>
            </Position>
            <AltitudeMeters>1236.4000244140625</AltitudeMeters>
            <DistanceMeters>NAN</DistanceMeters>
          </Trackpoint>
          <Trackpoint>
            <Time>2021-04-01T13:20:11.000Z</Time>
            <Position>
              <LatitudeDegrees>42.411931492388248443603515625</LatitudeDegrees>
              <LongitudeDegrees>2.70180045627057552337646484375</LongitudeDegrees>
            </Position>
            <AltitudeMeters>1235.800048828125</AltitudeMeters>
            <DistanceMeters>NAN</DistanceMeters>
          </Trackpoint>
          <Trackpoint>
            <Time>2021-04-01T13:20:13.000Z</Time>
            <Position>
              <LatitudeDegrees>42.41194834001362323760986328125</LatitudeDegrees>
              <LongitudeDegrees>2.70179785788059234619140625</LongitudeDegrees>
            </Position>
            <AltitudeMeters>1235.199951171875</AltitudeMeters>
            <DistanceMeters>NAN</DistanceMeters>
          </Trackpoint>
          <Trackpoint>
            <Time>2021-04-01T13:20:15.000Z</Time>
            <Position>
              <LatitudeDegrees>42.4119604937732219696044921875</LatitudeDegrees>
              <LongitudeDegrees>2.70179844461381435394287109375</LongitudeDegrees>
            </Position>
            <AltitudeMeters>1234.5999755859375</AltitudeMeters>
            <DistanceMeters>NAN</DistanceMeters>
          </Trackpoint>
          <Trackpoint>
            <Time>2021-04-01T13:20:17.000Z</Time>
            <Position>
              <LatitudeDegrees>42.41196803748607635498046875</LatitudeDegrees>
              <LongitudeDegrees>2.70179450511932373046875</LongitudeDegrees>
            </Position>
            <AltitudeMeters>1234</AltitudeMeters>
            <DistanceMeters>NAN</DistanceMeters>
          </Trackpoint>
          <Trackpoint>
            <Time>2021-04-01T13:20:19.000Z</Time>
            <Position>
              <LatitudeDegrees>42.4119728989899158477783203125</LatitudeDegrees>
              <LongitudeDegrees>2.70177413709461688995361328125</LongitudeDegrees>
            </Position>
            <AltitudeMeters>1233.5999755859375</AltitudeMeters>
            <DistanceMeters>NAN</DistanceMeters>
          </Trackpoint>
          <Trackpoint>
            <Time>2021-04-01T13:20:20.000Z</Time>
            <Position>
              <LatitudeDegrees>42.41197583265602588653564453125</LatitudeDegrees>
              <LongitudeDegrees>2.701766006648540496826171875</LongitudeDegrees>
            </Position>
            <AltitudeMeters>1233.4000244140625</AltitudeMeters>
            <DistanceMeters>NAN</DistanceMeters>
          </Trackpoint>
          <Trackpoint>
            <Time>2021-04-01T13:20:24.000Z</Time>
            <Position>
              <LatitudeDegrees>42.41198957897722721099853515625</LatitudeDegrees>
              <LongitudeDegrees>2.701734490692615509033203125</LongitudeDegrees>
            </Position>
            <AltitudeMeters>1232.4000244140625</AltitudeMeters>
            <DistanceMeters>NAN</DistanceMeters>
          </Trackpoint>
          <Trackpoint>
            <Time>2021-04-01T13:20:29.000Z</Time>
            <Position>
              <LatitudeDegrees>42.41198438219726085662841796875</LatitudeDegrees>
              <LongitudeDegrees>2.7016925811767578125</LongitudeDegrees>
            </Position>
            <AltitudeMeters>1231.199951171875</AltitudeMeters>
            <DistanceMeters>NAN</DistanceMeters>
          </Trackpoint>
          <Trackpoint>
            <Time>2021-04-01T13:20:30.000Z</Time>
            <Position>
              <LatitudeDegrees>42.4119779281318187713623046875</LatitudeDegrees>
              <LongitudeDegrees>2.7016826905310153961181640625</LongitudeDegrees>
            </Position>
            <AltitudeMeters>1231</AltitudeMeters>
            <DistanceMeters>NAN</DistanceMeters>
          </Trackpoint>
          <Trackpoint>
            <Time>2021-04-01T13:20:33.000Z</Time>
            <Position>
              <LatitudeDegrees>42.41196828894317150115966796875</LatitudeDegrees>
              <LongitudeDegrees>2.70165729336440563201904296875</LongitudeDegrees>
            </Position>
            <AltitudeMeters>1230</AltitudeMeters>
            <DistanceMeters>NAN</DistanceMeters>
          </Trackpoint>
          <Trackpoint>
            <Time>2021-04-01T13:20:38.000Z</Time>
            <Position>
              <LatitudeDegrees>42.41195571608841419219970703125</LatitudeDegrees>
              <LongitudeDegrees>2.701623849570751190185546875</LongitudeDegrees>
            </Position>
            <AltitudeMeters>1228.5999755859375</AltitudeMeters>
            <DistanceMeters>NAN</DistanceMeters>
          </Trackpoint>
          <Trackpoint>
            <Time>2021-04-01T13:20:45.000Z</Time>
            <Position>
              <LatitudeDegrees>42.4119420535862445831298828125</LatitudeDegrees>
              <LongitudeDegrees>2.7015874721109867095947265625</LongitudeDegrees>
            </Position>
            <AltitudeMeters>1227.5999755859375</AltitudeMeters>
            <DistanceMeters>NAN</DistanceMeters>
          </Trackpoint>
          <Trackpoint>
            <Time>2021-04-01T13:20:50.000Z</Time>
            <Position>
              <LatitudeDegrees>42.4119541235268115997314453125</LatitudeDegrees>
              <LongitudeDegrees>2.70157112739980220794677734375</LongitudeDegrees>
            </Position>
            <AltitudeMeters>1226.4000244140625</AltitudeMeters>
            <DistanceMeters>NAN</DistanceMeters>
          </Trackpoint>
          <Trackpoint>
            <Time>2021-04-01T13:20:52.000Z</Time>
            <Position>
              <LatitudeDegrees>42.4119454063475131988525390625</LatitudeDegrees>
              <LongitudeDegrees>2.7015519328415393829345703125</LongitudeDegrees>
            </Position>
            <AltitudeMeters>1225.5999755859375</AltitudeMeters>
            <DistanceMeters>NAN</DistanceMeters>
          </Trackpoint>
          <Trackpoint>
            <Time>2021-04-01T13:20:54.000Z</Time>
            <Position>
              <LatitudeDegrees>42.41193844936788082122802734375</LatitudeDegrees>
              <LongitudeDegrees>2.70153391174972057342529296875</LongitudeDegrees>
            </Position>
            <AltitudeMeters>1225.199951171875</AltitudeMeters>
            <DistanceMeters>NAN</DistanceMeters>
          </Trackpoint>
          <Trackpoint>
            <Time>2021-04-01T13:20:58.000Z</Time>
            <Position>
              <LatitudeDegrees>42.41194481961429119110107421875</LatitudeDegrees>
              <LongitudeDegrees>2.70150440745055675506591796875</LongitudeDegrees>
            </Position>
            <AltitudeMeters>1224.5999755859375</AltitudeMeters>
            <DistanceMeters>NAN</DistanceMeters>
          </Trackpoint>
          <Trackpoint>
            <Time>2021-04-01T13:21:01.000Z</Time>
            <Position>
              <LatitudeDegrees>42.4119561351835727691650390625</LatitudeDegrees>
              <LongitudeDegrees>2.70149216987192630767822265625</LongitudeDegrees>
            </Position>
            <AltitudeMeters>1224</AltitudeMeters>
            <DistanceMeters>NAN</DistanceMeters>
          </Trackpoint>
          <Trackpoint>
            <Time>2021-04-01T13:21:05.000Z</Time>
            <Position>
              <LatitudeDegrees>42.41195856593549251556396484375</LatitudeDegrees>
              <LongitudeDegrees>2.70146518014371395111083984375</LongitudeDegrees>
            </Position>
            <AltitudeMeters>1222.800048828125</AltitudeMeters>
            <DistanceMeters>NAN</DistanceMeters>
          </Trackpoint>
          <Trackpoint>
            <Time>2021-04-01T13:21:10.000Z</Time>
            <Position>
              <LatitudeDegrees>42.41194884292781352996826171875</LatitudeDegrees>
              <LongitudeDegrees>2.70143173635005950927734375</LongitudeDegrees>
            </Position>
            <AltitudeMeters>1221.5999755859375</AltitudeMeters>
            <DistanceMeters>NAN</DistanceMeters>
          </Trackpoint>
          <Trackpoint>
            <Time>2021-04-01T13:21:13.000Z</Time>
            <Position>
              <LatitudeDegrees>42.41195253096520900726318359375</LatitudeDegrees>
              <LongitudeDegrees>2.70141371525824069976806640625</LongitudeDegrees>
            </Position>
            <AltitudeMeters>1221</AltitudeMeters>
            <DistanceMeters>NAN</DistanceMeters>
          </Trackpoint>
          <Trackpoint>
            <Time>2021-04-01T13:21:15.000Z</Time>
            <Position>
              <LatitudeDegrees>42.41196661256253719329833984375</LatitudeDegrees>
              <LongitudeDegrees>2.70140818320214748382568359375</LongitudeDegrees>
            </Position>
            <AltitudeMeters>1220.5999755859375</AltitudeMeters>
            <DistanceMeters>NAN</DistanceMeters>
          </Trackpoint>
          <Trackpoint>
            <Time>2021-04-01T13:21:20.000Z</Time>
            <Position>
              <LatitudeDegrees>42.4119849689304828643798828125</LatitudeDegrees>
              <LongitudeDegrees>2.70138077437877655029296875</LongitudeDegrees>
            </Position>
            <AltitudeMeters>1219.199951171875</AltitudeMeters>
            <DistanceMeters>NAN</DistanceMeters>
          </Trackpoint>
          <Trackpoint>
            <Time>2021-04-01T13:21:22.000Z</Time>
            <Position>
              <LatitudeDegrees>42.41198421455919742584228515625</LatitudeDegrees>
              <LongitudeDegrees>2.70136476494371891021728515625</LongitudeDegrees>
            </Position>
            <AltitudeMeters>1218.5999755859375</AltitudeMeters>
            <DistanceMeters>NAN</DistanceMeters>
          </Trackpoint>
          <Trackpoint>
            <Time>2021-04-01T13:21:25.000Z</Time>
            <Position>
              <LatitudeDegrees>42.41199376992881298065185546875</LatitudeDegrees>
              <LongitudeDegrees>2.7013454027473926544189453125</LongitudeDegrees>
            </Position>
            <AltitudeMeters>1218.199951171875</AltitudeMeters>
            <DistanceMeters>NAN</DistanceMeters>
          </Trackpoint>
          <Trackpoint>
            <Time>2021-04-01T13:21:29.000Z</Time>
            <Position>
              <LatitudeDegrees>42.41200282238423824310302734375</LatitudeDegrees>
              <LongitudeDegrees>2.70132419653236865997314453125</LongitudeDegrees>
            </Position>
            <AltitudeMeters>1217.4000244140625</AltitudeMeters>
            <DistanceMeters>NAN</DistanceMeters>
          </Trackpoint>
          <Trackpoint>
            <Time>2021-04-01T13:21:31.000Z</Time>
            <Position>
              <LatitudeDegrees>42.4120077677071094512939453125</LatitudeDegrees>
              <LongitudeDegrees>2.70132134668529033660888671875</LongitudeDegrees>
            </Position>
            <AltitudeMeters>1216.800048828125</AltitudeMeters>
            <DistanceMeters>NAN</DistanceMeters>
          </Trackpoint>
          <Trackpoint>
            <Time>2021-04-01T13:21:36.000Z</Time>
            <Position>
              <LatitudeDegrees>42.41198991425335407257080078125</LatitudeDegrees>
              <LongitudeDegrees>2.70128228701651096343994140625</LongitudeDegrees>
            </Position>
            <AltitudeMeters>1215.5999755859375</AltitudeMeters>
            <DistanceMeters>NAN</DistanceMeters>
          </Trackpoint>
          <Trackpoint>
            <Time>2021-04-01T13:21:40.000Z</Time>
            <Position>
              <LatitudeDegrees>42.4119742400944232940673828125</LatitudeDegrees>
              <LongitudeDegrees>2.70124976523220539093017578125</LongitudeDegrees>
            </Position>
            <AltitudeMeters>1214.5999755859375</AltitudeMeters>
            <DistanceMeters>NAN</DistanceMeters>
          </Trackpoint>
          <Trackpoint>
            <Time>2021-04-01T13:21:44.000Z</Time>
            <Position>
              <LatitudeDegrees>42.4119534529745578765869140625</LatitudeDegrees>
              <LongitudeDegrees>2.70121690817177295684814453125</LongitudeDegrees>
            </Position>
            <AltitudeMeters>1213.199951171875</AltitudeMeters>
            <DistanceMeters>NAN</DistanceMeters>
          </Trackpoint>
          <Trackpoint>
            <Time>2021-04-01T13:21:46.000Z</Time>
            <Position>
              <LatitudeDegrees>42.41194532252848148345947265625</LatitudeDegrees>
              <LongitudeDegrees>2.70120165310800075531005859375</LongitudeDegrees>
            </Position>
            <AltitudeMeters>1213</AltitudeMeters>
            <DistanceMeters>NAN</DistanceMeters>
          </Trackpoint>
          <Trackpoint>
            <Time>2021-04-01T13:21:50.000Z</Time>
            <Position>
              <LatitudeDegrees>42.41192922927439212799072265625</LatitudeDegrees>
              <LongitudeDegrees>2.70117558538913726806640625</LongitudeDegrees>
            </Position>
            <AltitudeMeters>1212.199951171875</AltitudeMeters>
            <DistanceMeters>NAN</DistanceMeters>
          </Trackpoint>
          <Trackpoint>
            <Time>2021-04-01T13:21:52.000Z</Time>
            <Position>
              <LatitudeDegrees>42.41191699169576168060302734375</LatitudeDegrees>
              <LongitudeDegrees>2.70115949213504791259765625</LongitudeDegrees>
            </Position>
            <AltitudeMeters>1211.5999755859375</AltitudeMeters>
            <DistanceMeters>NAN</DistanceMeters>
          </Trackpoint>
          <Trackpoint>
            <Time>2021-04-01T13:21:53.000Z</Time>
            <Position>
              <LatitudeDegrees>42.4119159020483493804931640625</LatitudeDegrees>
              <LongitudeDegrees>2.70115270279347896575927734375</LongitudeDegrees>
            </Position>
            <AltitudeMeters>1211.199951171875</AltitudeMeters>
            <DistanceMeters>NAN</DistanceMeters>
          </Trackpoint>
          <Trackpoint>
            <Time>2021-04-01T13:21:55.000Z</Time>
            <Position>
              <LatitudeDegrees>42.411919422447681427001953125</LatitudeDegrees>
              <LongitudeDegrees>2.701150439679622650146484375</LongitudeDegrees>
            </Position>
            <AltitudeMeters>1210.800048828125</AltitudeMeters>
            <DistanceMeters>NAN</DistanceMeters>
          </Trackpoint>
          <Trackpoint>
            <Time>2021-04-01T13:21:57.000Z</Time>
            <Position>
              <LatitudeDegrees>42.4119189195334911346435546875</LatitudeDegrees>
              <LongitudeDegrees>2.70114834420382976531982421875</LongitudeDegrees>
            </Position>
            <AltitudeMeters>1210.199951171875</AltitudeMeters>
            <DistanceMeters>NAN</DistanceMeters>
          </Trackpoint>
          <Trackpoint>
            <Time>2021-04-01T13:21:58.000Z</Time>
            <Position>
              <LatitudeDegrees>42.4119175784289836883544921875</LatitudeDegrees>
              <LongitudeDegrees>2.70114717073738574981689453125</LongitudeDegrees>
            </Position>
            <AltitudeMeters>1210</AltitudeMeters>
            <DistanceMeters>NAN</DistanceMeters>
          </Trackpoint>
          <Trackpoint>
            <Time>2021-04-01T13:22:02.000Z</Time>
            <Position>
              <LatitudeDegrees>42.411901652812957763671875</LatitudeDegrees>
              <LongitudeDegrees>2.70113795064389705657958984375</LongitudeDegrees>
            </Position>
            <AltitudeMeters>1209.5999755859375</AltitudeMeters>
            <DistanceMeters>NAN</DistanceMeters>
          </Trackpoint>
          <Trackpoint>
            <Time>2021-04-01T13:22:05.000Z</Time>
            <Position>
              <LatitudeDegrees>42.41189251653850078582763671875</LatitudeDegrees>
              <LongitudeDegrees>2.70111523568630218505859375</LongitudeDegrees>
            </Position>
            <AltitudeMeters>1209</AltitudeMeters>
            <DistanceMeters>NAN</DistanceMeters>
          </Trackpoint>
          <Trackpoint>
            <Time>2021-04-01T13:22:09.000Z</Time>
            <Position>
              <LatitudeDegrees>42.41188162006437778472900390625</LatitudeDegrees>
              <LongitudeDegrees>2.70109101198613643646240234375</LongitudeDegrees>
            </Position>
            <AltitudeMeters>1208</AltitudeMeters>
            <DistanceMeters>NAN</DistanceMeters>
          </Trackpoint>
          <Trackpoint>
            <Time>2021-04-01T13:22:12.000Z</Time>
            <Position>
              <LatitudeDegrees>42.4118749983608722686767578125</LatitudeDegrees>
              <LongitudeDegrees>2.701068632304668426513671875</LongitudeDegrees>
            </Position>
            <AltitudeMeters>1207.199951171875</AltitudeMeters>
            <DistanceMeters>NAN</DistanceMeters>
          </Trackpoint>
          <Trackpoint>
            <Time>2021-04-01T13:22:13.000Z</Time>
            <Position>
              <LatitudeDegrees>42.41187323816120624542236328125</LatitudeDegrees>
              <LongitudeDegrees>2.70105899311602115631103515625</LongitudeDegrees>
            </Position>
            <AltitudeMeters>1206.800048828125</AltitudeMeters>
            <DistanceMeters>NAN</DistanceMeters>
          </Trackpoint>
          <Trackpoint>
            <Time>2021-04-01T13:22:17.000Z</Time>
            <Position>
              <LatitudeDegrees>42.411867119371891021728515625</LatitudeDegrees>
              <LongitudeDegrees>2.70102110691368579864501953125</LongitudeDegrees>
            </Position>
            <AltitudeMeters>1205.5999755859375</AltitudeMeters>
            <DistanceMeters>NAN</DistanceMeters>
          </Trackpoint>
          <Trackpoint>
            <Time>2021-04-01T13:22:18.000Z</Time>
            <Position>
              <LatitudeDegrees>42.41186074912548065185546875</LatitudeDegrees>
              <LongitudeDegrees>2.70101238973438739776611328125</LongitudeDegrees>
            </Position>
            <AltitudeMeters>1205.4000244140625</AltitudeMeters>
            <DistanceMeters>NAN</DistanceMeters>
          </Trackpoint>
          <Trackpoint>
            <Time>2021-04-01T13:22:22.000Z</Time>
            <Position>
              <LatitudeDegrees>42.41183283738791942596435546875</LatitudeDegrees>
              <LongitudeDegrees>2.700988836586475372314453125</LongitudeDegrees>
            </Position>
            <AltitudeMeters>1204.4000244140625</AltitudeMeters>
            <DistanceMeters>NAN</DistanceMeters>
          </Trackpoint>
          <Trackpoint>
            <Time>2021-04-01T13:22:26.000Z</Time>
            <Position>
              <LatitudeDegrees>42.4117844738066196441650390625</LatitudeDegrees>
              <LongitudeDegrees>2.70095354877412319183349609375</LongitudeDegrees>
            </Position>
            <AltitudeMeters>1203.800048828125</AltitudeMeters>
            <DistanceMeters>NAN</DistanceMeters>
          </Trackpoint>
          <Trackpoint>
            <Time>2021-04-01T13:22:27.000Z</Time>
            <Position>
              <LatitudeDegrees>42.411779947578907012939453125</LatitudeDegrees>
              <LongitudeDegrees>2.700949944555759429931640625</LongitudeDegrees>
            </Position>
            <AltitudeMeters>1203.4000244140625</AltitudeMeters>
            <DistanceMeters>NAN</DistanceMeters>
          </Trackpoint>
          <Trackpoint>
            <Time>2021-04-01T13:22:33.000Z</Time>
            <Position>
              <LatitudeDegrees>42.41176192648708820343017578125</LatitudeDegrees>
              <LongitudeDegrees>2.700927145779132843017578125</LongitudeDegrees>
            </Position>
            <AltitudeMeters>1202.199951171875</AltitudeMeters>
            <DistanceMeters>NAN</DistanceMeters>
          </Trackpoint>
          <Trackpoint>
            <Time>2021-04-01T13:22:34.000Z</Time>
            <Position>
              <LatitudeDegrees>42.41175421513617038726806640625</LatitudeDegrees>
              <LongitudeDegrees>2.7009242959320545196533203125</LongitudeDegrees>
            </Position>
            <AltitudeMeters>1202</AltitudeMeters>
            <DistanceMeters>NAN</DistanceMeters>
          </Trackpoint>
          <Trackpoint>
            <Time>2021-04-01T13:22:37.000Z</Time>
            <Position>
              <LatitudeDegrees>42.411730326712131500244140625</LatitudeDegrees>
              <LongitudeDegrees>2.700898312032222747802734375</LongitudeDegrees>
            </Position>
            <AltitudeMeters>1201.199951171875</AltitudeMeters>
            <DistanceMeters>NAN</DistanceMeters>
          </Trackpoint>
          <Trackpoint>
            <Time>2021-04-01T13:22:38.000Z</Time>
            <Position>
              <LatitudeDegrees>42.4117281474173069000244140625</LatitudeDegrees>
              <LongitudeDegrees>2.7008914388716220855712890625</LongitudeDegrees>
            </Position>
            <AltitudeMeters>1201</AltitudeMeters>
            <DistanceMeters>NAN</DistanceMeters>
          </Trackpoint>
          <Trackpoint>
            <Time>2021-04-01T13:22:41.000Z</Time>
            <Position>
              <LatitudeDegrees>42.41171901114284992218017578125</LatitudeDegrees>
              <LongitudeDegrees>2.70086755044758319854736328125</LongitudeDegrees>
            </Position>
            <AltitudeMeters>1200.199951171875</AltitudeMeters>
            <DistanceMeters>NAN</DistanceMeters>
          </Trackpoint>
          <Trackpoint>
            <Time>2021-04-01T13:22:43.000Z</Time>
            <Position>
              <LatitudeDegrees>42.41171096451580524444580078125</LatitudeDegrees>
              <LongitudeDegrees>2.70085296593606472015380859375</LongitudeDegrees>
            </Position>
            <AltitudeMeters>1199.800048828125</AltitudeMeters>
            <DistanceMeters>NAN</DistanceMeters>
          </Trackpoint>
          <Trackpoint>
            <Time>2021-04-01T13:22:46.000Z</Time>
            <Position>
              <LatitudeDegrees>42.41170174442231655120849609375</LatitudeDegrees>
              <LongitudeDegrees>2.70083704032003879547119140625</LongitudeDegrees>
            </Position>
            <AltitudeMeters>1199.4000244140625</AltitudeMeters>
            <DistanceMeters>NAN</DistanceMeters>
          </Trackpoint>
          <Trackpoint>
            <Time>2021-04-01T13:22:48.000Z</Time>
            <Position>
              <LatitudeDegrees>42.4116986431181430816650390625</LatitudeDegrees>
              <LongitudeDegrees>2.70082849077880382537841796875</LongitudeDegrees>
            </Position>
            <AltitudeMeters>1199</AltitudeMeters>
            <DistanceMeters>NAN</DistanceMeters>
          </Trackpoint>
          <Trackpoint>
            <Time>2021-04-01T13:22:49.000Z</Time>
            <Position>
              <LatitudeDegrees>42.41169721819460391998291015625</LatitudeDegrees>
              <LongitudeDegrees>2.70082413218915462493896484375</LongitudeDegrees>
            </Position>
            <AltitudeMeters>1198.5999755859375</AltitudeMeters>
            <DistanceMeters>NAN</DistanceMeters>
          </Trackpoint>
          <Trackpoint>
            <Time>2021-04-01T13:22:53.000Z</Time>
            <Position>
              <LatitudeDegrees>42.411678694188594818115234375</LatitudeDegrees>
              <LongitudeDegrees>2.70080317743122577667236328125</LongitudeDegrees>
            </Position>
            <AltitudeMeters>1197.5999755859375</AltitudeMeters>
            <DistanceMeters>NAN</DistanceMeters>
          </Trackpoint>
          <Trackpoint>
            <Time>2021-04-01T13:22:55.000Z</Time>
            <Position>
              <LatitudeDegrees>42.411674670875072479248046875</LatitudeDegrees>
              <LongitudeDegrees>2.7008007466793060302734375</LongitudeDegrees>
            </Position>
            <AltitudeMeters>1197.199951171875</AltitudeMeters>
            <DistanceMeters>NAN</DistanceMeters>
          </Trackpoint>
          <Trackpoint>
            <Time>2021-04-01T13:22:59.000Z</Time>
            <Position>
              <LatitudeDegrees>42.41166855208575725555419921875</LatitudeDegrees>
              <LongitudeDegrees>2.7007824741303920745849609375</LongitudeDegrees>
            </Position>
            <AltitudeMeters>1196.5999755859375</AltitudeMeters>
            <DistanceMeters>NAN</DistanceMeters>
          </Trackpoint>
          <Trackpoint>
            <Time>2021-04-01T13:23:00.000Z</Time>
            <Position>
              <LatitudeDegrees>42.41166586987674236297607421875</LatitudeDegrees>
              <LongitudeDegrees>2.7007784508168697357177734375</LongitudeDegrees>
            </Position>
            <AltitudeMeters>1196.5999755859375</AltitudeMeters>
            <DistanceMeters>NAN</DistanceMeters>
          </Trackpoint>
          <Trackpoint>
            <Time>2021-04-01T13:23:01.000Z</Time>
            <Position>
              <LatitudeDegrees>42.41166293621063232421875</LatitudeDegrees>
              <LongitudeDegrees>2.70077886991202831268310546875</LongitudeDegrees>
            </Position>
            <AltitudeMeters>1196.4000244140625</AltitudeMeters>
            <DistanceMeters>NAN</DistanceMeters>
          </Trackpoint>
          <Trackpoint>
            <Time>2021-04-01T13:23:07.000Z</Time>
            <Position>
              <LatitudeDegrees>42.4116453342139720916748046875</LatitudeDegrees>
              <LongitudeDegrees>2.7007415704429149627685546875</LongitudeDegrees>
            </Position>
            <AltitudeMeters>1195.5999755859375</AltitudeMeters>
            <DistanceMeters>NAN</DistanceMeters>
          </Trackpoint>
          <Trackpoint>
            <Time>2021-04-01T13:23:08.000Z</Time>
            <Position>
              <LatitudeDegrees>42.411648519337177276611328125</LatitudeDegrees>
              <LongitudeDegrees>2.70073846913874149322509765625</LongitudeDegrees>
            </Position>
            <AltitudeMeters>1195.4000244140625</AltitudeMeters>
            <DistanceMeters>NAN</DistanceMeters>
          </Trackpoint>
          <Trackpoint>
            <Time>2021-04-01T13:23:13.000Z</Time>
            <Position>
              <LatitudeDegrees>42.41166000254452228546142578125</LatitudeDegrees>
              <LongitudeDegrees>2.70071826875209808349609375</LongitudeDegrees>
            </Position>
            <AltitudeMeters>1194.199951171875</AltitudeMeters>
            <DistanceMeters>NAN</DistanceMeters>
          </Trackpoint>
          <Trackpoint>
            <Time>2021-04-01T13:23:16.000Z</Time>
            <Position>
              <LatitudeDegrees>42.41164726205170154571533203125</LatitudeDegrees>
              <LongitudeDegrees>2.700711227953433990478515625</LongitudeDegrees>
            </Position>
            <AltitudeMeters>1194</AltitudeMeters>
            <DistanceMeters>NAN</DistanceMeters>
          </Trackpoint>
          <Trackpoint>
            <Time>2021-04-01T13:23:20.000Z</Time>
            <Position>
              <LatitudeDegrees>42.41162446327507495880126953125</LatitudeDegrees>
              <LongitudeDegrees>2.70068063400685787200927734375</LongitudeDegrees>
            </Position>
            <AltitudeMeters>1193</AltitudeMeters>
            <DistanceMeters>NAN</DistanceMeters>
          </Trackpoint>
          <Trackpoint>
            <Time>2021-04-01T13:23:24.000Z</Time>
            <Position>
              <LatitudeDegrees>42.41160283796489238739013671875</LatitudeDegrees>
              <LongitudeDegrees>2.70064827986061573028564453125</LongitudeDegrees>
            </Position>
            <AltitudeMeters>1192.4000244140625</AltitudeMeters>
            <DistanceMeters>NAN</DistanceMeters>
          </Trackpoint>
          <Trackpoint>
            <Time>2021-04-01T13:23:25.000Z</Time>
            <Position>
              <LatitudeDegrees>42.411601245403289794921875</LatitudeDegrees>
              <LongitudeDegrees>2.700638137757778167724609375</LongitudeDegrees>
            </Position>
            <AltitudeMeters>1192.4000244140625</AltitudeMeters>
            <DistanceMeters>NAN</DistanceMeters>
          </Trackpoint>
          <Trackpoint>
            <Time>2021-04-01T13:23:26.000Z</Time>
            <Position>
              <LatitudeDegrees>42.41160015575587749481201171875</LatitudeDegrees>
              <LongitudeDegrees>2.7006279118359088897705078125</LongitudeDegrees>
            </Position>
            <AltitudeMeters>1192</AltitudeMeters>
            <DistanceMeters>NAN</DistanceMeters>
          </Trackpoint>
          <Trackpoint>
            <Time>2021-04-01T13:23:30.000Z</Time>
            <Position>
              <LatitudeDegrees>42.4115722440183162689208984375</LatitudeDegrees>
              <LongitudeDegrees>2.700611315667629241943359375</LongitudeDegrees>
            </Position>
            <AltitudeMeters>1191.199951171875</AltitudeMeters>
            <DistanceMeters>NAN</DistanceMeters>
          </Trackpoint>
          <Trackpoint>
            <Time>2021-04-01T13:23:31.000Z</Time>
            <Position>
              <LatitudeDegrees>42.4115709029138088226318359375</LatitudeDegrees>
              <LongitudeDegrees>2.70060687325894832611083984375</LongitudeDegrees>
            </Position>
            <AltitudeMeters>1191</AltitudeMeters>
            <DistanceMeters>NAN</DistanceMeters>
          </Trackpoint>
          <Trackpoint>
            <Time>2021-04-01T13:23:34.000Z</Time>
            <Position>
              <LatitudeDegrees>42.41156713105738162994384765625</LatitudeDegrees>
              <LongitudeDegrees>2.70058189518749713897705078125</LongitudeDegrees>
            </Position>
            <AltitudeMeters>1190.4000244140625</AltitudeMeters>
            <DistanceMeters>NAN</DistanceMeters>
          </Trackpoint>
          <Trackpoint>
            <Time>2021-04-01T13:23:37.000Z</Time>
            <Position>
              <LatitudeDegrees>42.41155254654586315155029296875</LatitudeDegrees>
              <LongitudeDegrees>2.7005538158118724822998046875</LongitudeDegrees>
            </Position>
            <AltitudeMeters>1190</AltitudeMeters>
            <DistanceMeters>NAN</DistanceMeters>
          </Trackpoint>
          <Trackpoint>
            <Time>2021-04-01T13:23:39.000Z</Time>
            <Position>
              <LatitudeDegrees>42.41154835559427738189697265625</LatitudeDegrees>
              <LongitudeDegrees>2.7005420811474323272705078125</LongitudeDegrees>
            </Position>
            <AltitudeMeters>1189.5999755859375</AltitudeMeters>
            <DistanceMeters>NAN</DistanceMeters>
          </Trackpoint>
          <Trackpoint>
            <Time>2021-04-01T13:23:40.000Z</Time>
            <Position>
              <LatitudeDegrees>42.4115400575101375579833984375</LatitudeDegrees>
              <LongitudeDegrees>2.70053998567163944244384765625</LongitudeDegrees>
            </Position>
            <AltitudeMeters>1189.5999755859375</AltitudeMeters>
            <DistanceMeters>NAN</DistanceMeters>
          </Trackpoint>
          <Trackpoint>
            <Time>2021-04-01T13:23:41.000Z</Time>
            <Position>
              <LatitudeDegrees>42.41153217852115631103515625</LatitudeDegrees>
              <LongitudeDegrees>2.7005370520055294036865234375</LongitudeDegrees>
            </Position>
            <AltitudeMeters>1189.4000244140625</AltitudeMeters>
            <DistanceMeters>NAN</DistanceMeters>
          </Trackpoint>
          <Trackpoint>
            <Time>2021-04-01T13:23:43.000Z</Time>
            <Position>
              <LatitudeDegrees>42.41151751019060611724853515625</LatitudeDegrees>
              <LongitudeDegrees>2.7005293406546115875244140625</LongitudeDegrees>
            </Position>
            <AltitudeMeters>1189.199951171875</AltitudeMeters>
            <DistanceMeters>NAN</DistanceMeters>
          </Trackpoint>
          <Trackpoint>
            <Time>2021-04-01T13:23:49.000Z</Time>
            <Position>
              <LatitudeDegrees>42.41147107444703578948974609375</LatitudeDegrees>
              <LongitudeDegrees>2.70048852078616619110107421875</LongitudeDegrees>
            </Position>
            <AltitudeMeters>1189.4000244140625</AltitudeMeters>
            <DistanceMeters>NAN</DistanceMeters>
          </Trackpoint>
          <Trackpoint>
            <Time>2021-04-01T13:23:53.000Z</Time>
            <Position>
              <LatitudeDegrees>42.4114429950714111328125</LatitudeDegrees>
              <LongitudeDegrees>2.70044200122356414794921875</LongitudeDegrees>
            </Position>
            <AltitudeMeters>1188.800048828125</AltitudeMeters>
            <DistanceMeters>NAN</DistanceMeters>
          </Trackpoint>
          <Trackpoint>
            <Time>2021-04-01T13:23:56.000Z</Time>
            <Position>
              <LatitudeDegrees>42.41141776554286479949951171875</LatitudeDegrees>
              <LongitudeDegrees>2.70041073672473430633544921875</LongitudeDegrees>
            </Position>
            <AltitudeMeters>1188.4000244140625</AltitudeMeters>
            <DistanceMeters>NAN</DistanceMeters>
          </Trackpoint>
          <Trackpoint>
            <Time>2021-04-01T13:24:00.000Z</Time>
            <Position>
              <LatitudeDegrees>42.41138993762433528900146484375</LatitudeDegrees>
              <LongitudeDegrees>2.7003731019794940948486328125</LongitudeDegrees>
            </Position>
            <AltitudeMeters>1187.5999755859375</AltitudeMeters>
            <DistanceMeters>NAN</DistanceMeters>
          </Trackpoint>
          <Trackpoint>
            <Time>2021-04-01T13:24:03.000Z</Time>
            <Position>
              <LatitudeDegrees>42.4113828130066394805908203125</LatitudeDegrees>
              <LongitudeDegrees>2.7003476209938526153564453125</LongitudeDegrees>
            </Position>
            <AltitudeMeters>1187</AltitudeMeters>
            <DistanceMeters>NAN</DistanceMeters>
          </Trackpoint>
          <Trackpoint>
            <Time>2021-04-01T13:24:05.000Z</Time>
            <Position>
              <LatitudeDegrees>42.4113764427602291107177734375</LatitudeDegrees>
              <LongitudeDegrees>2.70032742060720920562744140625</LongitudeDegrees>
            </Position>
            <AltitudeMeters>1186.5999755859375</AltitudeMeters>
            <DistanceMeters>NAN</DistanceMeters>
          </Trackpoint>
          <Trackpoint>
            <Time>2021-04-01T13:24:10.000Z</Time>
            <Position>
              <LatitudeDegrees>42.41135221906006336212158203125</LatitudeDegrees>
              <LongitudeDegrees>2.70028115250170230865478515625</LongitudeDegrees>
            </Position>
            <AltitudeMeters>1185.199951171875</AltitudeMeters>
            <DistanceMeters>NAN</DistanceMeters>
          </Trackpoint>
          <Trackpoint>
            <Time>2021-04-01T13:24:12.000Z</Time>
            <Position>
              <LatitudeDegrees>42.411342076957225799560546875</LatitudeDegrees>
              <LongitudeDegrees>2.70025692880153656005859375</LongitudeDegrees>
            </Position>
            <AltitudeMeters>1184.800048828125</AltitudeMeters>
            <DistanceMeters>NAN</DistanceMeters>
          </Trackpoint>
          <Trackpoint>
            <Time>2021-04-01T13:24:19.000Z</Time>
            <Position>
              <LatitudeDegrees>42.41129857487976551055908203125</LatitudeDegrees>
              <LongitudeDegrees>2.7001876942813396453857421875</LongitudeDegrees>
            </Position>
            <AltitudeMeters>1184</AltitudeMeters>
            <DistanceMeters>NAN</DistanceMeters>
          </Trackpoint>
          <Trackpoint>
            <Time>2021-04-01T13:24:21.000Z</Time>
            <Position>
              <LatitudeDegrees>42.41128901951014995574951171875</LatitudeDegrees>
              <LongitudeDegrees>2.7001689188182353973388671875</LongitudeDegrees>
            </Position>
            <AltitudeMeters>1183.5999755859375</AltitudeMeters>
            <DistanceMeters>NAN</DistanceMeters>
          </Trackpoint>
          <Trackpoint>
            <Time>2021-04-01T13:24:25.000Z</Time>
            <Position>
              <LatitudeDegrees>42.41126395761966705322265625</LatitudeDegrees>
              <LongitudeDegrees>2.7001374028623104095458984375</LongitudeDegrees>
            </Position>
            <AltitudeMeters>1183</AltitudeMeters>
            <DistanceMeters>NAN</DistanceMeters>
          </Trackpoint>
          <Trackpoint>
            <Time>2021-04-01T13:24:30.000Z</Time>
            <Position>
              <LatitudeDegrees>42.41124652326107025146484375</LatitudeDegrees>
              <LongitudeDegrees>2.70008551888167858123779296875</LongitudeDegrees>
            </Position>
            <AltitudeMeters>1182.4000244140625</AltitudeMeters>
            <DistanceMeters>NAN</DistanceMeters>
          </Trackpoint>
          <Trackpoint>
            <Time>2021-04-01T13:24:32.000Z</Time>
            <Position>
              <LatitudeDegrees>42.41124409250915050506591796875</LatitudeDegrees>
              <LongitudeDegrees>2.70006758160889148712158203125</LongitudeDegrees>
            </Position>
            <AltitudeMeters>1181.800048828125</AltitudeMeters>
            <DistanceMeters>NAN</DistanceMeters>
          </Trackpoint>
          <Trackpoint>
            <Time>2021-04-01T13:24:36.000Z</Time>
            <Position>
              <LatitudeDegrees>42.41122531704604625701904296875</LatitudeDegrees>
              <LongitudeDegrees>2.700028605759143829345703125</LongitudeDegrees>
            </Position>
            <AltitudeMeters>1181.199951171875</AltitudeMeters>
            <DistanceMeters>NAN</DistanceMeters>
          </Trackpoint>
          <Trackpoint>
            <Time>2021-04-01T13:24:40.000Z</Time>
            <Position>
              <LatitudeDegrees>42.41119782440364360809326171875</LatitudeDegrees>
              <LongitudeDegrees>2.69999004900455474853515625</LongitudeDegrees>
            </Position>
            <AltitudeMeters>1180.5999755859375</AltitudeMeters>
            <DistanceMeters>NAN</DistanceMeters>
          </Trackpoint>
          <Trackpoint>
            <Time>2021-04-01T13:24:47.000Z</Time>
            <Position>
              <LatitudeDegrees>42.41116714663803577423095703125</LatitudeDegrees>
              <LongitudeDegrees>2.69993648864328861236572265625</LongitudeDegrees>
            </Position>
            <AltitudeMeters>1179.800048828125</AltitudeMeters>
            <DistanceMeters>NAN</DistanceMeters>
          </Trackpoint>
          <Trackpoint>
            <Time>2021-04-01T13:24:48.000Z</Time>
            <Position>
              <LatitudeDegrees>42.41116496734321117401123046875</LatitudeDegrees>
              <LongitudeDegrees>2.69992827437818050384521484375</LongitudeDegrees>
            </Position>
            <AltitudeMeters>1179.5999755859375</AltitudeMeters>
            <DistanceMeters>NAN</DistanceMeters>
          </Trackpoint>
          <Trackpoint>
            <Time>2021-04-01T13:24:54.000Z</Time>
            <Position>
              <LatitudeDegrees>42.4111524783074855804443359375</LatitudeDegrees>
              <LongitudeDegrees>2.69987965933978557586669921875</LongitudeDegrees>
            </Position>
            <AltitudeMeters>1178.5999755859375</AltitudeMeters>
            <DistanceMeters>NAN</DistanceMeters>
          </Trackpoint>
          <Trackpoint>
            <Time>2021-04-01T13:24:55.000Z</Time>
            <Position>
              <LatitudeDegrees>42.411148287355899810791015625</LatitudeDegrees>
              <LongitudeDegrees>2.69986934959888458251953125</LongitudeDegrees>
            </Position>
            <AltitudeMeters>1178</AltitudeMeters>
            <DistanceMeters>NAN</DistanceMeters>
          </Trackpoint>
          <Trackpoint>
            <Time>2021-04-01T13:25:00.000Z</Time>
            <Position>
              <LatitudeDegrees>42.411129176616668701171875</LatitudeDegrees>
              <LongitudeDegrees>2.6998163759708404541015625</LongitudeDegrees>
            </Position>
            <AltitudeMeters>1177</AltitudeMeters>
            <DistanceMeters>NAN</DistanceMeters>
          </Trackpoint>
          <Trackpoint>
            <Time>2021-04-01T13:25:04.000Z</Time>
            <Position>
              <LatitudeDegrees>42.41111199371516704559326171875</LatitudeDegrees>
              <LongitudeDegrees>2.69978092052042484283447265625</LongitudeDegrees>
            </Position>
            <AltitudeMeters>1176.4000244140625</AltitudeMeters>
            <DistanceMeters>NAN</DistanceMeters>
          </Trackpoint>
          <Trackpoint>
            <Time>2021-04-01T13:25:07.000Z</Time>
            <Position>
              <LatitudeDegrees>42.411100007593631744384765625</LatitudeDegrees>
              <LongitudeDegrees>2.69975359551608562469482421875</LongitudeDegrees>
            </Position>
            <AltitudeMeters>1176</AltitudeMeters>
            <DistanceMeters>NAN</DistanceMeters>
          </Trackpoint>
          <Trackpoint>
            <Time>2021-04-01T13:25:12.000Z</Time>
            <Position>
              <LatitudeDegrees>42.41107125766575336456298828125</LatitudeDegrees>
              <LongitudeDegrees>2.6996955089271068572998046875</LongitudeDegrees>
            </Position>
            <AltitudeMeters>1174.800048828125</AltitudeMeters>
            <DistanceMeters>NAN</DistanceMeters>
          </Trackpoint>
          <Trackpoint>
            <Time>2021-04-01T13:25:15.000Z</Time>
            <Position>
              <LatitudeDegrees>42.41106220521032810211181640625</LatitudeDegrees>
              <LongitudeDegrees>2.69965946674346923828125</LongitudeDegrees>
            </Position>
            <AltitudeMeters>1174.5999755859375</AltitudeMeters>
            <DistanceMeters>NAN</DistanceMeters>
          </Trackpoint>
          <Trackpoint>
            <Time>2021-04-01T13:25:20.000Z</Time>
            <Position>
              <LatitudeDegrees>42.41103504784405231475830078125</LatitudeDegrees>
              <LongitudeDegrees>2.69961655139923095703125</LongitudeDegrees>
            </Position>
            <AltitudeMeters>1173.800048828125</AltitudeMeters>
            <DistanceMeters>NAN</DistanceMeters>
          </Trackpoint>
          <Trackpoint>
            <Time>2021-04-01T13:25:23.000Z</Time>
            <Position>
              <LatitudeDegrees>42.41103387437760829925537109375</LatitudeDegrees>
              <LongitudeDegrees>2.699590735137462615966796875</LongitudeDegrees>
            </Position>
            <AltitudeMeters>1173.199951171875</AltitudeMeters>
            <DistanceMeters>NAN</DistanceMeters>
          </Trackpoint>
          <Trackpoint>
            <Time>2021-04-01T13:25:24.000Z</Time>
            <Position>
              <LatitudeDegrees>42.41103588603436946868896484375</LatitudeDegrees>
              <LongitudeDegrees>2.699582017958164215087890625</LongitudeDegrees>
            </Position>
            <AltitudeMeters>1172.800048828125</AltitudeMeters>
            <DistanceMeters>NAN</DistanceMeters>
          </Trackpoint>
          <Trackpoint>
            <Time>2021-04-01T13:25:30.000Z</Time>
            <Position>
              <LatitudeDegrees>42.4110455252230167388916015625</LatitudeDegrees>
              <LongitudeDegrees>2.69953834824264049530029296875</LongitudeDegrees>
            </Position>
            <AltitudeMeters>1171.800048828125</AltitudeMeters>
            <DistanceMeters>NAN</DistanceMeters>
          </Trackpoint>
          <Trackpoint>
            <Time>2021-04-01T13:25:33.000Z</Time>
            <Position>
              <LatitudeDegrees>42.41103789769113063812255859375</LatitudeDegrees>
              <LongitudeDegrees>2.69950582645833492279052734375</LongitudeDegrees>
            </Position>
            <AltitudeMeters>1171.199951171875</AltitudeMeters>
            <DistanceMeters>NAN</DistanceMeters>
          </Trackpoint>
          <Trackpoint>
            <Time>2021-04-01T13:25:38.000Z</Time>
            <Position>
              <LatitudeDegrees>42.41104410029947757720947265625</LatitudeDegrees>
              <LongitudeDegrees>2.6994621567428112030029296875</LongitudeDegrees>
            </Position>
            <AltitudeMeters>1170.5999755859375</AltitudeMeters>
            <DistanceMeters>NAN</DistanceMeters>
          </Trackpoint>
          <Trackpoint>
            <Time>2021-04-01T13:25:41.000Z</Time>
            <Position>
              <LatitudeDegrees>42.41103999316692352294921875</LatitudeDegrees>
              <LongitudeDegrees>2.6994343288242816925048828125</LongitudeDegrees>
            </Position>
            <AltitudeMeters>1169.4000244140625</AltitudeMeters>
            <DistanceMeters>NAN</DistanceMeters>
          </Trackpoint>
          <Trackpoint>
            <Time>2021-04-01T13:25:44.000Z</Time>
            <Position>
              <LatitudeDegrees>42.41101861931383609771728515625</LatitudeDegrees>
              <LongitudeDegrees>2.69941815175116062164306640625</LongitudeDegrees>
            </Position>
            <AltitudeMeters>1169</AltitudeMeters>
            <DistanceMeters>NAN</DistanceMeters>
          </Trackpoint>
          <Trackpoint>
            <Time>2021-04-01T13:25:50.000Z</Time>
            <Position>
              <LatitudeDegrees>42.4109829962253570556640625</LatitudeDegrees>
              <LongitudeDegrees>2.6993873901665210723876953125</LongitudeDegrees>
            </Position>
            <AltitudeMeters>1168.199951171875</AltitudeMeters>
            <DistanceMeters>NAN</DistanceMeters>
          </Trackpoint>
          <Trackpoint>
            <Time>2021-04-01T13:25:54.000Z</Time>
            <Position>
              <LatitudeDegrees>42.41095692850649356842041015625</LatitudeDegrees>
              <LongitudeDegrees>2.69936165772378444671630859375</LongitudeDegrees>
            </Position>
            <AltitudeMeters>1166.5999755859375</AltitudeMeters>
            <DistanceMeters>NAN</DistanceMeters>
          </Trackpoint>
          <Trackpoint>
            <Time>2021-04-01T13:25:55.000Z</Time>
            <Position>
              <LatitudeDegrees>42.410952486097812652587890625</LatitudeDegrees>
              <LongitudeDegrees>2.6993541978299617767333984375</LongitudeDegrees>
            </Position>
            <AltitudeMeters>1166.199951171875</AltitudeMeters>
            <DistanceMeters>NAN</DistanceMeters>
          </Trackpoint>
          <Trackpoint>
            <Time>2021-04-01T13:25:57.000Z</Time>
            <Position>
              <LatitudeDegrees>42.4109462834894657135009765625</LatitudeDegrees>
              <LongitudeDegrees>2.69933684729039669036865234375</LongitudeDegrees>
            </Position>
            <AltitudeMeters>1165.5999755859375</AltitudeMeters>
            <DistanceMeters>NAN</DistanceMeters>
          </Trackpoint>
          <Trackpoint>
            <Time>2021-04-01T13:25:58.000Z</Time>
            <Position>
              <LatitudeDegrees>42.41094267927110195159912109375</LatitudeDegrees>
              <LongitudeDegrees>2.6993307285010814666748046875</LongitudeDegrees>
            </Position>
            <AltitudeMeters>1165.4000244140625</AltitudeMeters>
            <DistanceMeters>NAN</DistanceMeters>
          </Trackpoint>
          <Trackpoint>
            <Time>2021-04-01T13:26:05.000Z</Time>
            <Position>
              <LatitudeDegrees>42.4109362252056598663330078125</LatitudeDegrees>
              <LongitudeDegrees>2.6992754079401493072509765625</LongitudeDegrees>
            </Position>
            <AltitudeMeters>1164.4000244140625</AltitudeMeters>
            <DistanceMeters>NAN</DistanceMeters>
          </Trackpoint>
          <Trackpoint>
            <Time>2021-04-01T13:26:07.000Z</Time>
            <Position>
              <LatitudeDegrees>42.4109412543475627899169921875</LatitudeDegrees>
              <LongitudeDegrees>2.69926174543797969818115234375</LongitudeDegrees>
            </Position>
            <AltitudeMeters>1164</AltitudeMeters>
            <DistanceMeters>NAN</DistanceMeters>
          </Trackpoint>
          <Trackpoint>
            <Time>2021-04-01T13:26:12.000Z</Time>
            <Position>
              <LatitudeDegrees>42.41094150580465793609619140625</LatitudeDegrees>
              <LongitudeDegrees>2.6992130465805530548095703125</LongitudeDegrees>
            </Position>
            <AltitudeMeters>1163.199951171875</AltitudeMeters>
            <DistanceMeters>NAN</DistanceMeters>
          </Trackpoint>
          <Trackpoint>
            <Time>2021-04-01T13:26:17.000Z</Time>
            <Position>
              <LatitudeDegrees>42.4109164439141750335693359375</LatitudeDegrees>
              <LongitudeDegrees>2.69918630830943584442138671875</LongitudeDegrees>
            </Position>
            <AltitudeMeters>1162.5999755859375</AltitudeMeters>
            <DistanceMeters>NAN</DistanceMeters>
          </Trackpoint>
          <Trackpoint>
            <Time>2021-04-01T13:26:20.000Z</Time>
            <Position>
              <LatitudeDegrees>42.4108996801078319549560546875</LatitudeDegrees>
              <LongitudeDegrees>2.6991590671241283416748046875</LongitudeDegrees>
            </Position>
            <AltitudeMeters>1161.800048828125</AltitudeMeters>
            <DistanceMeters>NAN</DistanceMeters>
          </Trackpoint>
          <Trackpoint>
            <Time>2021-04-01T13:26:22.000Z</Time>
            <Position>
              <LatitudeDegrees>42.4109043739736080169677734375</LatitudeDegrees>
              <LongitudeDegrees>2.69912880845367908477783203125</LongitudeDegrees>
            </Position>
            <AltitudeMeters>1161.199951171875</AltitudeMeters>
            <DistanceMeters>NAN</DistanceMeters>
          </Trackpoint>
          <Trackpoint>
            <Time>2021-04-01T13:26:23.000Z</Time>
            <Position>
              <LatitudeDegrees>42.410907559096813201904296875</LatitudeDegrees>
              <LongitudeDegrees>2.69911967217922210693359375</LongitudeDegrees>
            </Position>
            <AltitudeMeters>1160.800048828125</AltitudeMeters>
            <DistanceMeters>NAN</DistanceMeters>
          </Trackpoint>
          <Trackpoint>
            <Time>2021-04-01T13:26:28.000Z</Time>
            <Position>
              <LatitudeDegrees>42.41091853938996791839599609375</LatitudeDegrees>
              <LongitudeDegrees>2.6990792714059352874755859375</LongitudeDegrees>
            </Position>
            <AltitudeMeters>1160</AltitudeMeters>
            <DistanceMeters>NAN</DistanceMeters>
          </Trackpoint>
          <Trackpoint>
            <Time>2021-04-01T13:26:30.000Z</Time>
            <Position>
              <LatitudeDegrees>42.41091116331517696380615234375</LatitudeDegrees>
              <LongitudeDegrees>2.69906938076019287109375</LongitudeDegrees>
            </Position>
            <AltitudeMeters>1159.800048828125</AltitudeMeters>
            <DistanceMeters>NAN</DistanceMeters>
          </Trackpoint>
          <Trackpoint>
            <Time>2021-04-01T13:26:33.000Z</Time>
            <Position>
              <LatitudeDegrees>42.4109120853245258331298828125</LatitudeDegrees>
              <LongitudeDegrees>2.69904314540326595306396484375</LongitudeDegrees>
            </Position>
            <AltitudeMeters>1158.5999755859375</AltitudeMeters>
            <DistanceMeters>NAN</DistanceMeters>
          </Trackpoint>
          <Trackpoint>
            <Time>2021-04-01T13:26:34.000Z</Time>
            <Position>
              <LatitudeDegrees>42.41091703064739704132080078125</LatitudeDegrees>
              <LongitudeDegrees>2.69902713596820831298828125</LongitudeDegrees>
            </Position>
            <AltitudeMeters>1158.5999755859375</AltitudeMeters>
            <DistanceMeters>NAN</DistanceMeters>
          </Trackpoint>
          <Trackpoint>
            <Time>2021-04-01T13:26:39.000Z</Time>
            <Position>
              <LatitudeDegrees>42.41093329153954982757568359375</LatitudeDegrees>
              <LongitudeDegrees>2.6989837177097797393798828125</LongitudeDegrees>
            </Position>
            <AltitudeMeters>1158.199951171875</AltitudeMeters>
            <DistanceMeters>NAN</DistanceMeters>
          </Trackpoint>
          <Trackpoint>
            <Time>2021-04-01T13:26:42.000Z</Time>
            <Position>
              <LatitudeDegrees>42.41093798540532588958740234375</LatitudeDegrees>
              <LongitudeDegrees>2.6989579014480113983154296875</LongitudeDegrees>
            </Position>
            <AltitudeMeters>1157.199951171875</AltitudeMeters>
            <DistanceMeters>NAN</DistanceMeters>
          </Trackpoint>
          <Trackpoint>
            <Time>2021-04-01T13:26:44.000Z</Time>
            <Position>
              <LatitudeDegrees>42.41093178279697895050048828125</LatitudeDegrees>
              <LongitudeDegrees>2.6989381201565265655517578125</LongitudeDegrees>
            </Position>
            <AltitudeMeters>1156.199951171875</AltitudeMeters>
            <DistanceMeters>NAN</DistanceMeters>
          </Trackpoint>
          <Trackpoint>
            <Time>2021-04-01T13:26:47.000Z</Time>
            <Position>
              <LatitudeDegrees>42.41093362681567668914794921875</LatitudeDegrees>
              <LongitudeDegrees>2.698900401592254638671875</LongitudeDegrees>
            </Position>
            <AltitudeMeters>1155.4000244140625</AltitudeMeters>
            <DistanceMeters>NAN</DistanceMeters>
          </Trackpoint>
          <Trackpoint>
            <Time>2021-04-01T13:26:48.000Z</Time>
            <Position>
              <LatitudeDegrees>42.4109342135488986968994140625</LatitudeDegrees>
              <LongitudeDegrees>2.69888631999492645263671875</LongitudeDegrees>
            </Position>
            <AltitudeMeters>1154.800048828125</AltitudeMeters>
            <DistanceMeters>NAN</DistanceMeters>
          </Trackpoint>
          <Trackpoint>
            <Time>2021-04-01T13:26:50.000Z</Time>
            <Position>
              <LatitudeDegrees>42.41093538701534271240234375</LatitudeDegrees>
              <LongitudeDegrees>2.69886410795152187347412109375</LongitudeDegrees>
            </Position>
            <AltitudeMeters>1154.199951171875</AltitudeMeters>
            <DistanceMeters>NAN</DistanceMeters>
          </Trackpoint>
          <Trackpoint>
            <Time>2021-04-01T13:26:51.000Z</Time>
            <Position>
              <LatitudeDegrees>42.41093228571116924285888671875</LatitudeDegrees>
              <LongitudeDegrees>2.6988519541919231414794921875</LongitudeDegrees>
            </Position>
            <AltitudeMeters>1154</AltitudeMeters>
            <DistanceMeters>NAN</DistanceMeters>
          </Trackpoint>
          <Trackpoint>
            <Time>2021-04-01T13:26:53.000Z</Time>
            <Position>
              <LatitudeDegrees>42.41092440672218799591064453125</LatitudeDegrees>
              <LongitudeDegrees>2.69882999360561370849609375</LongitudeDegrees>
            </Position>
            <AltitudeMeters>1153.5999755859375</AltitudeMeters>
            <DistanceMeters>NAN</DistanceMeters>
          </Trackpoint>
          <Trackpoint>
            <Time>2021-04-01T13:26:55.000Z</Time>
            <Position>
              <LatitudeDegrees>42.41091317497193813323974609375</LatitudeDegrees>
              <LongitudeDegrees>2.69880778156220912933349609375</LongitudeDegrees>
            </Position>
            <AltitudeMeters>1153.199951171875</AltitudeMeters>
            <DistanceMeters>NAN</DistanceMeters>
          </Trackpoint>
          <Trackpoint>
            <Time>2021-04-01T13:26:58.000Z</Time>
            <Position>
              <LatitudeDegrees>42.41089926101267337799072265625</LatitudeDegrees>
              <LongitudeDegrees>2.6987729966640472412109375</LongitudeDegrees>
            </Position>
            <AltitudeMeters>1152.800048828125</AltitudeMeters>
            <DistanceMeters>NAN</DistanceMeters>
          </Trackpoint>
          <Trackpoint>
            <Time>2021-04-01T13:26:59.000Z</Time>
            <Position>
              <LatitudeDegrees>42.4108946509659290313720703125</LatitudeDegrees>
              <LongitudeDegrees>2.69876151345670223236083984375</LongitudeDegrees>
            </Position>
            <AltitudeMeters>1152.4000244140625</AltitudeMeters>
            <DistanceMeters>NAN</DistanceMeters>
          </Trackpoint>
          <Trackpoint>
            <Time>2021-04-01T13:27:04.000Z</Time>
            <Position>
              <LatitudeDegrees>42.41087864153087139129638671875</LatitudeDegrees>
              <LongitudeDegrees>2.69871038384735584259033203125</LongitudeDegrees>
            </Position>
            <AltitudeMeters>1151.4000244140625</AltitudeMeters>
            <DistanceMeters>NAN</DistanceMeters>
          </Trackpoint>
          <Trackpoint>
            <Time>2021-04-01T13:27:07.000Z</Time>
            <Position>
              <LatitudeDegrees>42.4108731932938098907470703125</LatitudeDegrees>
              <LongitudeDegrees>2.6986759342253208160400390625</LongitudeDegrees>
            </Position>
            <AltitudeMeters>1150.199951171875</AltitudeMeters>
            <DistanceMeters>NAN</DistanceMeters>
          </Trackpoint>
          <Trackpoint>
            <Time>2021-04-01T13:27:11.000Z</Time>
            <Position>
              <LatitudeDegrees>42.41085626184940338134765625</LatitudeDegrees>
              <LongitudeDegrees>2.6986380480229854583740234375</LongitudeDegrees>
            </Position>
            <AltitudeMeters>1149.4000244140625</AltitudeMeters>
            <DistanceMeters>NAN</DistanceMeters>
          </Trackpoint>
          <Trackpoint>
            <Time>2021-04-01T13:27:12.000Z</Time>
            <Position>
              <LatitudeDegrees>42.410850562155246734619140625</LatitudeDegrees>
              <LongitudeDegrees>2.6986266486346721649169921875</LongitudeDegrees>
            </Position>
            <AltitudeMeters>1149.199951171875</AltitudeMeters>
            <DistanceMeters>NAN</DistanceMeters>
          </Trackpoint>
          <Trackpoint>
            <Time>2021-04-01T13:27:15.000Z</Time>
            <Position>
              <LatitudeDegrees>42.41084611974656581878662109375</LatitudeDegrees>
              <LongitudeDegrees>2.69859773106873035430908203125</LongitudeDegrees>
            </Position>
            <AltitudeMeters>1148.4000244140625</AltitudeMeters>
            <DistanceMeters>NAN</DistanceMeters>
          </Trackpoint>
          <Trackpoint>
            <Time>2021-04-01T13:27:16.000Z</Time>
            <Position>
              <LatitudeDegrees>42.4108450300991535186767578125</LatitudeDegrees>
              <LongitudeDegrees>2.69859203137457370758056640625</LongitudeDegrees>
            </Position>
            <AltitudeMeters>1148</AltitudeMeters>
            <DistanceMeters>NAN</DistanceMeters>
          </Trackpoint>
          <Trackpoint>
            <Time>2021-04-01T13:27:22.000Z</Time>
            <Position>
              <LatitudeDegrees>42.410812675952911376953125</LatitudeDegrees>
              <LongitudeDegrees>2.69853838719427585601806640625</LongitudeDegrees>
            </Position>
            <AltitudeMeters>1146.5999755859375</AltitudeMeters>
            <DistanceMeters>NAN</DistanceMeters>
          </Trackpoint>
          <Trackpoint>
            <Time>2021-04-01T13:27:23.000Z</Time>
            <Position>
              <LatitudeDegrees>42.4108094908297061920166015625</LatitudeDegrees>
              <LongitudeDegrees>2.69852958619594573974609375</LongitudeDegrees>
            </Position>
            <AltitudeMeters>1146.4000244140625</AltitudeMeters>
            <DistanceMeters>NAN</DistanceMeters>
          </Trackpoint>
          <Trackpoint>
            <Time>2021-04-01T13:27:27.000Z</Time>
            <Position>
              <LatitudeDegrees>42.4107866920530796051025390625</LatitudeDegrees>
              <LongitudeDegrees>2.6984841562807559967041015625</LongitudeDegrees>
            </Position>
            <AltitudeMeters>1145.5999755859375</AltitudeMeters>
            <DistanceMeters>NAN</DistanceMeters>
          </Trackpoint>
          <Trackpoint>
            <Time>2021-04-01T13:27:33.000Z</Time>
            <Position>
              <LatitudeDegrees>42.4107588641345500946044921875</LatitudeDegrees>
              <LongitudeDegrees>2.69842154346406459808349609375</LongitudeDegrees>
            </Position>
            <AltitudeMeters>1145</AltitudeMeters>
            <DistanceMeters>NAN</DistanceMeters>
          </Trackpoint>
          <Trackpoint>
            <Time>2021-04-01T13:27:37.000Z</Time>
            <Position>
              <LatitudeDegrees>42.4107615463435649871826171875</LatitudeDegrees>
              <LongitudeDegrees>2.69838114269077777862548828125</LongitudeDegrees>
            </Position>
            <AltitudeMeters>1144.5999755859375</AltitudeMeters>
            <DistanceMeters>NAN</DistanceMeters>
          </Trackpoint>
          <Trackpoint>
            <Time>2021-04-01T13:27:41.000Z</Time>
            <Position>
              <LatitudeDegrees>42.4107709340751171112060546875</LatitudeDegrees>
              <LongitudeDegrees>2.69834719598293304443359375</LongitudeDegrees>
            </Position>
            <AltitudeMeters>1144</AltitudeMeters>
            <DistanceMeters>NAN</DistanceMeters>
          </Trackpoint>
          <Trackpoint>
            <Time>2021-04-01T13:27:44.000Z</Time>
            <Position>
              <LatitudeDegrees>42.41078577004373073577880859375</LatitudeDegrees>
              <LongitudeDegrees>2.69833688624203205108642578125</LongitudeDegrees>
            </Position>
            <AltitudeMeters>1143.4000244140625</AltitudeMeters>
            <DistanceMeters>NAN</DistanceMeters>
          </Trackpoint>
          <Trackpoint>
            <Time>2021-04-01T13:27:47.000Z</Time>
            <Position>
              <LatitudeDegrees>42.410780154168605804443359375</LatitudeDegrees>
              <LongitudeDegrees>2.69831391982734203338623046875</LongitudeDegrees>
            </Position>
            <AltitudeMeters>1142.5999755859375</AltitudeMeters>
            <DistanceMeters>NAN</DistanceMeters>
          </Trackpoint>
          <Trackpoint>
            <Time>2021-04-01T13:27:50.000Z</Time>
            <Position>
              <LatitudeDegrees>42.41077118553221225738525390625</LatitudeDegrees>
              <LongitudeDegrees>2.6982928812503814697265625</LongitudeDegrees>
            </Position>
            <AltitudeMeters>1142.199951171875</AltitudeMeters>
            <DistanceMeters>NAN</DistanceMeters>
          </Trackpoint>
          <Trackpoint>
            <Time>2021-04-01T13:27:56.000Z</Time>
            <Position>
              <LatitudeDegrees>42.410782836377620697021484375</LatitudeDegrees>
              <LongitudeDegrees>2.69824803806841373443603515625</LongitudeDegrees>
            </Position>
            <AltitudeMeters>1141</AltitudeMeters>
            <DistanceMeters>NAN</DistanceMeters>
          </Trackpoint>
          <Trackpoint>
            <Time>2021-04-01T13:27:57.000Z</Time>
            <Position>
              <LatitudeDegrees>42.41078543476760387420654296875</LatitudeDegrees>
              <LongitudeDegrees>2.69823915325105190277099609375</LongitudeDegrees>
            </Position>
            <AltitudeMeters>1140.5999755859375</AltitudeMeters>
            <DistanceMeters>NAN</DistanceMeters>
          </Trackpoint>
          <Trackpoint>
            <Time>2021-04-01T13:27:59.000Z</Time>
            <Position>
              <LatitudeDegrees>42.41078325547277927398681640625</LatitudeDegrees>
              <LongitudeDegrees>2.698218785226345062255859375</LongitudeDegrees>
            </Position>
            <AltitudeMeters>1139.800048828125</AltitudeMeters>
            <DistanceMeters>NAN</DistanceMeters>
          </Trackpoint>
          <Trackpoint>
            <Time>2021-04-01T13:28:02.000Z</Time>
            <Position>
              <LatitudeDegrees>42.410798929631710052490234375</LatitudeDegrees>
              <LongitudeDegrees>2.6981954835355281829833984375</LongitudeDegrees>
            </Position>
            <AltitudeMeters>1138.800048828125</AltitudeMeters>
            <DistanceMeters>NAN</DistanceMeters>
          </Trackpoint>
          <Trackpoint>
            <Time>2021-04-01T13:28:04.000Z</Time>
            <Position>
              <LatitudeDegrees>42.41080622188746929168701171875</LatitudeDegrees>
              <LongitudeDegrees>2.698182575404644012451171875</LongitudeDegrees>
            </Position>
            <AltitudeMeters>1138.199951171875</AltitudeMeters>
            <DistanceMeters>NAN</DistanceMeters>
          </Trackpoint>
          <Trackpoint>
            <Time>2021-04-01T13:28:07.000Z</Time>
            <Position>
              <LatitudeDegrees>42.41081468760967254638671875</LatitudeDegrees>
              <LongitudeDegrees>2.6981539092957973480224609375</LongitudeDegrees>
            </Position>
            <AltitudeMeters>1137.5999755859375</AltitudeMeters>
            <DistanceMeters>NAN</DistanceMeters>
          </Trackpoint>
          <Trackpoint>
            <Time>2021-04-01T13:28:10.000Z</Time>
            <Position>
              <LatitudeDegrees>42.410813011229038238525390625</LatitudeDegrees>
              <LongitudeDegrees>2.69812935031950473785400390625</LongitudeDegrees>
            </Position>
            <AltitudeMeters>1136.4000244140625</AltitudeMeters>
            <DistanceMeters>NAN</DistanceMeters>
          </Trackpoint>
          <Trackpoint>
            <Time>2021-04-01T13:28:13.000Z</Time>
            <Position>
              <LatitudeDegrees>42.41080873645842075347900390625</LatitudeDegrees>
              <LongitudeDegrees>2.6980989240109920501708984375</LongitudeDegrees>
            </Position>
            <AltitudeMeters>1135.5999755859375</AltitudeMeters>
            <DistanceMeters>NAN</DistanceMeters>
          </Trackpoint>
          <Trackpoint>
            <Time>2021-04-01T13:28:14.000Z</Time>
            <Position>
              <LatitudeDegrees>42.41080773063004016876220703125</LatitudeDegrees>
              <LongitudeDegrees>2.6980915479362010955810546875</LongitudeDegrees>
            </Position>
            <AltitudeMeters>1135.199951171875</AltitudeMeters>
            <DistanceMeters>NAN</DistanceMeters>
          </Trackpoint>
          <Trackpoint>
            <Time>2021-04-01T13:28:19.000Z</Time>
            <Position>
              <LatitudeDegrees>42.41080136038362979888916015625</LatitudeDegrees>
              <LongitudeDegrees>2.69803094677627086639404296875</LongitudeDegrees>
            </Position>
            <AltitudeMeters>1134.4000244140625</AltitudeMeters>
            <DistanceMeters>NAN</DistanceMeters>
          </Trackpoint>
          <Trackpoint>
            <Time>2021-04-01T13:28:20.000Z</Time>
            <Position>
              <LatitudeDegrees>42.41080219857394695281982421875</LatitudeDegrees>
              <LongitudeDegrees>2.69801988266408443450927734375</LongitudeDegrees>
            </Position>
            <AltitudeMeters>1133.800048828125</AltitudeMeters>
            <DistanceMeters>NAN</DistanceMeters>
          </Trackpoint>
          <Trackpoint>
            <Time>2021-04-01T13:28:23.000Z</Time>
            <Position>
              <LatitudeDegrees>42.41080152802169322967529296875</LatitudeDegrees>
              <LongitudeDegrees>2.69797696731984615325927734375</LongitudeDegrees>
            </Position>
            <AltitudeMeters>1132.800048828125</AltitudeMeters>
            <DistanceMeters>NAN</DistanceMeters>
          </Trackpoint>
          <Trackpoint>
            <Time>2021-04-01T13:28:25.000Z</Time>
            <Position>
              <LatitudeDegrees>42.4107954092323780059814453125</LatitudeDegrees>
              <LongitudeDegrees>2.697951234877109527587890625</LongitudeDegrees>
            </Position>
            <AltitudeMeters>1132</AltitudeMeters>
            <DistanceMeters>NAN</DistanceMeters>
          </Trackpoint>
          <Trackpoint>
            <Time>2021-04-01T13:28:26.000Z</Time>
            <Position>
              <LatitudeDegrees>42.410795576870441436767578125</LatitudeDegrees>
              <LongitudeDegrees>2.69793857820332050323486328125</LongitudeDegrees>
            </Position>
            <AltitudeMeters>1131.5999755859375</AltitudeMeters>
            <DistanceMeters>NAN</DistanceMeters>
          </Trackpoint>
          <Trackpoint>
            <Time>2021-04-01T13:28:29.000Z</Time>
            <Position>
              <LatitudeDegrees>42.41078711114823818206787109375</LatitudeDegrees>
              <LongitudeDegrees>2.6979031227529048919677734375</LongitudeDegrees>
            </Position>
            <AltitudeMeters>1130.4000244140625</AltitudeMeters>
            <DistanceMeters>NAN</DistanceMeters>
          </Trackpoint>
          <Trackpoint>
            <Time>2021-04-01T13:28:30.000Z</Time>
            <Position>
              <LatitudeDegrees>42.4107833392918109893798828125</LatitudeDegrees>
              <LongitudeDegrees>2.69789348356425762176513671875</LongitudeDegrees>
            </Position>
            <AltitudeMeters>1130</AltitudeMeters>
            <DistanceMeters>NAN</DistanceMeters>
          </Trackpoint>
          <Trackpoint>
            <Time>2021-04-01T13:28:32.000Z</Time>
            <Position>
              <LatitudeDegrees>42.41077445447444915771484375</LatitudeDegrees>
              <LongitudeDegrees>2.69787068478763103485107421875</LongitudeDegrees>
            </Position>
            <AltitudeMeters>1129.5999755859375</AltitudeMeters>
            <DistanceMeters>NAN</DistanceMeters>
          </Trackpoint>
          <Trackpoint>
            <Time>2021-04-01T13:28:33.000Z</Time>
            <Position>
              <LatitudeDegrees>42.4107709340751171112060546875</LatitudeDegrees>
              <LongitudeDegrees>2.697860039770603179931640625</LongitudeDegrees>
            </Position>
            <AltitudeMeters>1129.199951171875</AltitudeMeters>
            <DistanceMeters>NAN</DistanceMeters>
          </Trackpoint>
          <Trackpoint>
            <Time>2021-04-01T13:28:39.000Z</Time>
            <Position>
              <LatitudeDegrees>42.41074386052787303924560546875</LatitudeDegrees>
              <LongitudeDegrees>2.697803713381290435791015625</LongitudeDegrees>
            </Position>
            <AltitudeMeters>1128</AltitudeMeters>
            <DistanceMeters>NAN</DistanceMeters>
          </Trackpoint>
          <Trackpoint>
            <Time>2021-04-01T13:28:42.000Z</Time>
            <Position>
              <LatitudeDegrees>42.41072139702737331390380859375</LatitudeDegrees>
              <LongitudeDegrees>2.69776909612119197845458984375</LongitudeDegrees>
            </Position>
            <AltitudeMeters>1127.4000244140625</AltitudeMeters>
            <DistanceMeters>NAN</DistanceMeters>
          </Trackpoint>
          <Trackpoint>
            <Time>2021-04-01T13:28:44.000Z</Time>
            <Position>
              <LatitudeDegrees>42.41070597432553768157958984375</LatitudeDegrees>
              <LongitudeDegrees>2.69774680025875568389892578125</LongitudeDegrees>
            </Position>
            <AltitudeMeters>1127</AltitudeMeters>
            <DistanceMeters>NAN</DistanceMeters>
          </Trackpoint>
          <Trackpoint>
            <Time>2021-04-01T13:28:50.000Z</Time>
            <Position>
              <LatitudeDegrees>42.41066674701869487762451171875</LatitudeDegrees>
              <LongitudeDegrees>2.69768460653722286224365234375</LongitudeDegrees>
            </Position>
            <AltitudeMeters>1126.199951171875</AltitudeMeters>
            <DistanceMeters>NAN</DistanceMeters>
          </Trackpoint>
          <Trackpoint>
            <Time>2021-04-01T13:28:51.000Z</Time>
            <Position>
              <LatitudeDegrees>42.4106636457145214080810546875</LatitudeDegrees>
              <LongitudeDegrees>2.697676979005336761474609375</LongitudeDegrees>
            </Position>
            <AltitudeMeters>1126.199951171875</AltitudeMeters>
            <DistanceMeters>NAN</DistanceMeters>
          </Trackpoint>
          <Trackpoint>
            <Time>2021-04-01T13:28:54.000Z</Time>
            <Position>
              <LatitudeDegrees>42.41064981557428836822509765625</LatitudeDegrees>
              <LongitudeDegrees>2.6976426132023334503173828125</LongitudeDegrees>
            </Position>
            <AltitudeMeters>1125.5999755859375</AltitudeMeters>
            <DistanceMeters>NAN</DistanceMeters>
          </Trackpoint>
          <Trackpoint>
            <Time>2021-04-01T13:29:02.000Z</Time>
            <Position>
              <LatitudeDegrees>42.410591728985309600830078125</LatitudeDegrees>
              <LongitudeDegrees>2.69756658934056758880615234375</LongitudeDegrees>
            </Position>
            <AltitudeMeters>1124.4000244140625</AltitudeMeters>
            <DistanceMeters>NAN</DistanceMeters>
          </Trackpoint>
          <Trackpoint>
            <Time>2021-04-01T13:29:10.000Z</Time>
            <Position>
              <LatitudeDegrees>42.4105476401746273040771484375</LatitudeDegrees>
              <LongitudeDegrees>2.697486542165279388427734375</LongitudeDegrees>
            </Position>
            <AltitudeMeters>1123.4000244140625</AltitudeMeters>
            <DistanceMeters>NAN</DistanceMeters>
          </Trackpoint>
          <Trackpoint>
            <Time>2021-04-01T13:29:11.000Z</Time>
            <Position>
              <LatitudeDegrees>42.41054001264274120330810546875</LatitudeDegrees>
              <LongitudeDegrees>2.69747388549149036407470703125</LongitudeDegrees>
            </Position>
            <AltitudeMeters>1123.199951171875</AltitudeMeters>
            <DistanceMeters>NAN</DistanceMeters>
          </Trackpoint>
          <Trackpoint>
            <Time>2021-04-01T13:29:12.000Z</Time>
            <Position>
              <LatitudeDegrees>42.41053146310150623321533203125</LatitudeDegrees>
              <LongitudeDegrees>2.6974649168550968170166015625</LongitudeDegrees>
            </Position>
            <AltitudeMeters>1123</AltitudeMeters>
            <DistanceMeters>NAN</DistanceMeters>
          </Trackpoint>
          <Trackpoint>
            <Time>2021-04-01T13:29:16.000Z</Time>
            <Position>
              <LatitudeDegrees>42.4104956723749637603759765625</LatitudeDegrees>
              <LongitudeDegrees>2.6974303834140300750732421875</LongitudeDegrees>
            </Position>
            <AltitudeMeters>1123</AltitudeMeters>
            <DistanceMeters>NAN</DistanceMeters>
          </Trackpoint>
          <Trackpoint>
            <Time>2021-04-01T13:29:20.000Z</Time>
            <Position>
              <LatitudeDegrees>42.41046206094324588775634765625</LatitudeDegrees>
              <LongitudeDegrees>2.6973836123943328857421875</LongitudeDegrees>
            </Position>
            <AltitudeMeters>1122.5999755859375</AltitudeMeters>
            <DistanceMeters>NAN</DistanceMeters>
          </Trackpoint>
          <Trackpoint>
            <Time>2021-04-01T13:29:21.000Z</Time>
            <Position>
              <LatitudeDegrees>42.41045393049716949462890625</LatitudeDegrees>
              <LongitudeDegrees>2.6973727159202098846435546875</LongitudeDegrees>
            </Position>
            <AltitudeMeters>1122.4000244140625</AltitudeMeters>
            <DistanceMeters>NAN</DistanceMeters>
          </Trackpoint>
          <Trackpoint>
            <Time>2021-04-01T13:29:29.000Z</Time>
            <Position>
              <LatitudeDegrees>42.41041512228548526763916015625</LatitudeDegrees>
              <LongitudeDegrees>2.69727959297597408294677734375</LongitudeDegrees>
            </Position>
            <AltitudeMeters>1121.800048828125</AltitudeMeters>
            <DistanceMeters>NAN</DistanceMeters>
          </Trackpoint>
          <Trackpoint>
            <Time>2021-04-01T13:29:34.000Z</Time>
            <Position>
              <LatitudeDegrees>42.41039492189884185791015625</LatitudeDegrees>
              <LongitudeDegrees>2.6972526870667934417724609375</LongitudeDegrees>
            </Position>
            <AltitudeMeters>1121.800048828125</AltitudeMeters>
            <DistanceMeters>NAN</DistanceMeters>
          </Trackpoint>
          <Trackpoint>
            <Time>2021-04-01T13:29:36.000Z</Time>
            <Position>
              <LatitudeDegrees>42.410387881100177764892578125</LatitudeDegrees>
              <LongitudeDegrees>2.69725109450519084930419921875</LongitudeDegrees>
            </Position>
            <AltitudeMeters>1121.800048828125</AltitudeMeters>
            <DistanceMeters>NAN</DistanceMeters>
          </Trackpoint>
          <Trackpoint>
            <Time>2021-04-01T13:29:37.000Z</Time>
            <Position>
              <LatitudeDegrees>42.4103793315589427947998046875</LatitudeDegrees>
              <LongitudeDegrees>2.69724640063941478729248046875</LongitudeDegrees>
            </Position>
            <AltitudeMeters>1121.800048828125</AltitudeMeters>
            <DistanceMeters>NAN</DistanceMeters>
          </Trackpoint>
          <Trackpoint>
            <Time>2021-04-01T13:29:39.000Z</Time>
            <Position>
              <LatitudeDegrees>42.41036550141870975494384765625</LatitudeDegrees>
              <LongitudeDegrees>2.697241120040416717529296875</LongitudeDegrees>
            </Position>
            <AltitudeMeters>1122</AltitudeMeters>
            <DistanceMeters>NAN</DistanceMeters>
          </Trackpoint>
          <Trackpoint>
            <Time>2021-04-01T13:29:43.000Z</Time>
            <Position>
              <LatitudeDegrees>42.41034639067947864532470703125</LatitudeDegrees>
              <LongitudeDegrees>2.69722930155694484710693359375</LongitudeDegrees>
            </Position>
            <AltitudeMeters>1122.199951171875</AltitudeMeters>
            <DistanceMeters>NAN</DistanceMeters>
          </Trackpoint>
          <Trackpoint>
            <Time>2021-04-01T13:29:45.000Z</Time>
            <Position>
              <LatitudeDegrees>42.41034639067947864532470703125</LatitudeDegrees>
              <LongitudeDegrees>2.69722578115761280059814453125</LongitudeDegrees>
            </Position>
            <AltitudeMeters>1122.199951171875</AltitudeMeters>
            <DistanceMeters>NAN</DistanceMeters>
          </Trackpoint>
          <Trackpoint>
            <Time>2021-04-01T13:29:51.000Z</Time>
            <Position>
              <LatitudeDegrees>42.41035494022071361541748046875</LatitudeDegrees>
              <LongitudeDegrees>2.697225697338581085205078125</LongitudeDegrees>
            </Position>
            <AltitudeMeters>1122.199951171875</AltitudeMeters>
            <DistanceMeters>NAN</DistanceMeters>
          </Trackpoint>
          <Trackpoint>
            <Time>2021-04-01T13:29:52.000Z</Time>
            <Position>
              <LatitudeDegrees>42.4103592149913311004638671875</LatitudeDegrees>
              <LongitudeDegrees>2.69722695462405681610107421875</LongitudeDegrees>
            </Position>
            <AltitudeMeters>1122.199951171875</AltitudeMeters>
            <DistanceMeters>NAN</DistanceMeters>
          </Trackpoint>
          <Trackpoint>
            <Time>2021-04-01T13:29:54.000Z</Time>
            <Position>
              <LatitudeDegrees>42.41036944091320037841796875</LatitudeDegrees>
              <LongitudeDegrees>2.69722469151020050048828125</LongitudeDegrees>
            </Position>
            <AltitudeMeters>1122</AltitudeMeters>
            <DistanceMeters>NAN</DistanceMeters>
          </Trackpoint>
          <Trackpoint>
            <Time>2021-04-01T13:30:00.000Z</Time>
            <Position>
              <LatitudeDegrees>42.41040003485977649688720703125</LatitudeDegrees>
              <LongitudeDegrees>2.6972037367522716522216796875</LongitudeDegrees>
            </Position>
            <AltitudeMeters>1122</AltitudeMeters>
            <DistanceMeters>NAN</DistanceMeters>
          </Trackpoint>
          <Trackpoint>
            <Time>2021-04-01T13:30:01.000Z</Time>
            <Position>
              <LatitudeDegrees>42.4103981070220470428466796875</LatitudeDegrees>
              <LongitudeDegrees>2.69720030017197132110595703125</LongitudeDegrees>
            </Position>
            <AltitudeMeters>1122.199951171875</AltitudeMeters>
            <DistanceMeters>NAN</DistanceMeters>
          </Trackpoint>
          <Trackpoint>
            <Time>2021-04-01T13:30:04.000Z</Time>
            <Position>
              <LatitudeDegrees>42.41039919666945934295654296875</LatitudeDegrees>
              <LongitudeDegrees>2.69720013253390789031982421875</LongitudeDegrees>
            </Position>
            <AltitudeMeters>1122.199951171875</AltitudeMeters>
            <DistanceMeters>NAN</DistanceMeters>
          </Trackpoint>
          <Trackpoint>
            <Time>2021-04-01T13:30:17.000Z</Time>
            <Position>
              <LatitudeDegrees>42.41039969958364963531494140625</LatitudeDegrees>
              <LongitudeDegrees>2.69721706397831439971923828125</LongitudeDegrees>
            </Position>
            <AltitudeMeters>1122</AltitudeMeters>
            <DistanceMeters>NAN</DistanceMeters>
          </Trackpoint>
          <Trackpoint>
            <Time>2021-04-01T13:30:20.000Z</Time>
            <Position>
              <LatitudeDegrees>42.4104031361639499664306640625</LatitudeDegrees>
              <LongitudeDegrees>2.6972221769392490386962890625</LongitudeDegrees>
            </Position>
            <AltitudeMeters>1122.199951171875</AltitudeMeters>
            <DistanceMeters>NAN</DistanceMeters>
          </Trackpoint>
          <Trackpoint>
            <Time>2021-04-01T13:30:32.000Z</Time>
            <Position>
              <LatitudeDegrees>42.41041294299066066741943359375</LatitudeDegrees>
              <LongitudeDegrees>2.6972262002527713775634765625</LongitudeDegrees>
            </Position>
            <AltitudeMeters>1122</AltitudeMeters>
            <DistanceMeters>NAN</DistanceMeters>
          </Trackpoint>
          <Trackpoint>
            <Time>2021-04-01T13:30:39.000Z</Time>
            <Position>
              <LatitudeDegrees>42.41041143424808979034423828125</LatitudeDegrees>
              <LongitudeDegrees>2.6972265355288982391357421875</LongitudeDegrees>
            </Position>
            <AltitudeMeters>1121.800048828125</AltitudeMeters>
            <DistanceMeters>NAN</DistanceMeters>
          </Trackpoint>
          <Trackpoint>
            <Time>2021-04-01T13:31:04.000Z</Time>
            <Position>
              <LatitudeDegrees>42.41034940816462039947509765625</LatitudeDegrees>
              <LongitudeDegrees>2.6972191594541072845458984375</LongitudeDegrees>
            </Position>
            <AltitudeMeters>1122.4000244140625</AltitudeMeters>
            <DistanceMeters>NAN</DistanceMeters>
          </Trackpoint>
          <Trackpoint>
            <Time>2021-04-01T13:31:06.000Z</Time>
            <Position>
              <LatitudeDegrees>42.41034136153757572174072265625</LatitudeDegrees>
              <LongitudeDegrees>2.697214968502521514892578125</LongitudeDegrees>
            </Position>
            <AltitudeMeters>1122.5999755859375</AltitudeMeters>
            <DistanceMeters>NAN</DistanceMeters>
          </Trackpoint>
          <Trackpoint>
            <Time>2021-04-01T13:31:07.000Z</Time>
            <Position>
              <LatitudeDegrees>42.41033163852989673614501953125</LatitudeDegrees>
              <LongitudeDegrees>2.6971936784684658050537109375</LongitudeDegrees>
            </Position>
            <AltitudeMeters>1122.5999755859375</AltitudeMeters>
            <DistanceMeters>NAN</DistanceMeters>
          </Trackpoint>
          <Trackpoint>
            <Time>2021-04-01T13:31:08.000Z</Time>
            <Position>
              <LatitudeDegrees>42.4103243462741374969482421875</LatitudeDegrees>
              <LongitudeDegrees>2.6971802674233913421630859375</LongitudeDegrees>
            </Position>
            <AltitudeMeters>1122.5999755859375</AltitudeMeters>
            <DistanceMeters>NAN</DistanceMeters>
          </Trackpoint>
          <Trackpoint>
            <Time>2021-04-01T13:31:10.000Z</Time>
            <Position>
              <LatitudeDegrees>42.410308755934238433837890625</LatitudeDegrees>
              <LongitudeDegrees>2.69715084694325923919677734375</LongitudeDegrees>
            </Position>
            <AltitudeMeters>1122.199951171875</AltitudeMeters>
            <DistanceMeters>NAN</DistanceMeters>
          </Trackpoint>
          <Trackpoint>
            <Time>2021-04-01T13:31:15.000Z</Time>
            <Position>
              <LatitudeDegrees>42.4102707020938396453857421875</LatitudeDegrees>
              <LongitudeDegrees>2.6970867253839969635009765625</LongitudeDegrees>
            </Position>
            <AltitudeMeters>1121.800048828125</AltitudeMeters>
            <DistanceMeters>NAN</DistanceMeters>
          </Trackpoint>
          <Trackpoint>
            <Time>2021-04-01T13:31:17.000Z</Time>
            <Position>
              <LatitudeDegrees>42.4102626554667949676513671875</LatitudeDegrees>
              <LongitudeDegrees>2.69707356579601764678955078125</LongitudeDegrees>
            </Position>
            <AltitudeMeters>1121.4000244140625</AltitudeMeters>
            <DistanceMeters>NAN</DistanceMeters>
          </Trackpoint>
          <Trackpoint>
            <Time>2021-04-01T13:31:19.000Z</Time>
            <Position>
              <LatitudeDegrees>42.41025771014392375946044921875</LatitudeDegrees>
              <LongitudeDegrees>2.69705931656062602996826171875</LongitudeDegrees>
            </Position>
            <AltitudeMeters>1121.199951171875</AltitudeMeters>
            <DistanceMeters>NAN</DistanceMeters>
          </Trackpoint>
          <Trackpoint>
            <Time>2021-04-01T13:31:22.000Z</Time>
            <Position>
              <LatitudeDegrees>42.410249412059783935546875</LatitudeDegrees>
              <LongitudeDegrees>2.6970267109572887420654296875</LongitudeDegrees>
            </Position>
            <AltitudeMeters>1120.199951171875</AltitudeMeters>
            <DistanceMeters>NAN</DistanceMeters>
          </Trackpoint>
          <Trackpoint>
            <Time>2021-04-01T13:31:26.000Z</Time>
            <Position>
              <LatitudeDegrees>42.41024605929851531982421875</LatitudeDegrees>
              <LongitudeDegrees>2.69695672206580638885498046875</LongitudeDegrees>
            </Position>
            <AltitudeMeters>1120</AltitudeMeters>
            <DistanceMeters>NAN</DistanceMeters>
          </Trackpoint>
          <Trackpoint>
            <Time>2021-04-01T13:31:27.000Z</Time>
            <Position>
              <LatitudeDegrees>42.41024564020335674285888671875</LatitudeDegrees>
              <LongitudeDegrees>2.6969422213733196258544921875</LongitudeDegrees>
            </Position>
            <AltitudeMeters>1120</AltitudeMeters>
            <DistanceMeters>NAN</DistanceMeters>
          </Trackpoint>
          <Trackpoint>
            <Time>2021-04-01T13:31:32.000Z</Time>
            <Position>
              <LatitudeDegrees>42.41022057831287384033203125</LatitudeDegrees>
              <LongitudeDegrees>2.6968842186033725738525390625</LongitudeDegrees>
            </Position>
            <AltitudeMeters>1118.800048828125</AltitudeMeters>
            <DistanceMeters>NAN</DistanceMeters>
          </Trackpoint>
          <Trackpoint>
            <Time>2021-04-01T13:31:35.000Z</Time>
            <Position>
              <LatitudeDegrees>42.4102103523910045623779296875</LatitudeDegrees>
              <LongitudeDegrees>2.6968637667596340179443359375</LongitudeDegrees>
            </Position>
            <AltitudeMeters>1118</AltitudeMeters>
            <DistanceMeters>NAN</DistanceMeters>
          </Trackpoint>
          <Trackpoint>
            <Time>2021-04-01T13:31:36.000Z</Time>
            <Position>
              <LatitudeDegrees>42.41020373068749904632568359375</LatitudeDegrees>
              <LongitudeDegrees>2.6968567259609699249267578125</LongitudeDegrees>
            </Position>
            <AltitudeMeters>1117.5999755859375</AltitudeMeters>
            <DistanceMeters>NAN</DistanceMeters>
          </Trackpoint>
          <Trackpoint>
            <Time>2021-04-01T13:31:38.000Z</Time>
            <Position>
              <LatitudeDegrees>42.410186044871807098388671875</LatitudeDegrees>
              <LongitudeDegrees>2.69684323109686374664306640625</LongitudeDegrees>
            </Position>
            <AltitudeMeters>1117</AltitudeMeters>
            <DistanceMeters>NAN</DistanceMeters>
          </Trackpoint>
          <Trackpoint>
            <Time>2021-04-01T13:31:40.000Z</Time>
            <Position>
              <LatitudeDegrees>42.41017791442573070526123046875</LatitudeDegrees>
              <LongitudeDegrees>2.69682705402374267578125</LongitudeDegrees>
            </Position>
            <AltitudeMeters>1116.5999755859375</AltitudeMeters>
            <DistanceMeters>NAN</DistanceMeters>
          </Trackpoint>
          <Trackpoint>
            <Time>2021-04-01T13:31:44.000Z</Time>
            <Position>
              <LatitudeDegrees>42.4101557023823261260986328125</LatitudeDegrees>
              <LongitudeDegrees>2.69680383615195751190185546875</LongitudeDegrees>
            </Position>
            <AltitudeMeters>1115.800048828125</AltitudeMeters>
            <DistanceMeters>NAN</DistanceMeters>
          </Trackpoint>
          <Trackpoint>
            <Time>2021-04-01T13:31:45.000Z</Time>
            <Position>
              <LatitudeDegrees>42.41015226580202579498291015625</LatitudeDegrees>
              <LongitudeDegrees>2.6967933587729930877685546875</LongitudeDegrees>
            </Position>
            <AltitudeMeters>1115.199951171875</AltitudeMeters>
            <DistanceMeters>NAN</DistanceMeters>
          </Trackpoint>
          <Trackpoint>
            <Time>2021-04-01T13:31:49.000Z</Time>
            <Position>
              <LatitudeDegrees>42.41012829355895519256591796875</LatitudeDegrees>
              <LongitudeDegrees>2.6967640221118927001953125</LongitudeDegrees>
            </Position>
            <AltitudeMeters>1114.199951171875</AltitudeMeters>
            <DistanceMeters>NAN</DistanceMeters>
          </Trackpoint>
          <Trackpoint>
            <Time>2021-04-01T13:31:54.000Z</Time>
            <Position>
              <LatitudeDegrees>42.41009208373725414276123046875</LatitudeDegrees>
              <LongitudeDegrees>2.69673921167850494384765625</LongitudeDegrees>
            </Position>
            <AltitudeMeters>1113</AltitudeMeters>
            <DistanceMeters>NAN</DistanceMeters>
          </Trackpoint>
          <Trackpoint>
            <Time>2021-04-01T13:31:58.000Z</Time>
            <Position>
              <LatitudeDegrees>42.41007984615862369537353515625</LatitudeDegrees>
              <LongitudeDegrees>2.69669939763844013214111328125</LongitudeDegrees>
            </Position>
            <AltitudeMeters>1111.800048828125</AltitudeMeters>
            <DistanceMeters>NAN</DistanceMeters>
          </Trackpoint>
          <Trackpoint>
            <Time>2021-04-01T13:32:00.000Z</Time>
            <Position>
              <LatitudeDegrees>42.41007012315094470977783203125</LatitudeDegrees>
              <LongitudeDegrees>2.69668581895530223846435546875</LongitudeDegrees>
            </Position>
            <AltitudeMeters>1111.4000244140625</AltitudeMeters>
            <DistanceMeters>NAN</DistanceMeters>
          </Trackpoint>
          <Trackpoint>
            <Time>2021-04-01T13:32:03.000Z</Time>
            <Position>
              <LatitudeDegrees>42.41004816256463527679443359375</LatitudeDegrees>
              <LongitudeDegrees>2.69667492248117923736572265625</LongitudeDegrees>
            </Position>
            <AltitudeMeters>1110.800048828125</AltitudeMeters>
            <DistanceMeters>NAN</DistanceMeters>
          </Trackpoint>
          <Trackpoint>
            <Time>2021-04-01T13:32:05.000Z</Time>
            <Position>
              <LatitudeDegrees>42.41004221141338348388671875</LatitudeDegrees>
              <LongitudeDegrees>2.696656398475170135498046875</LongitudeDegrees>
            </Position>
            <AltitudeMeters>1109.5999755859375</AltitudeMeters>
            <DistanceMeters>NAN</DistanceMeters>
          </Trackpoint>
          <Trackpoint>
            <Time>2021-04-01T13:32:06.000Z</Time>
            <Position>
              <LatitudeDegrees>42.41003810428082942962646484375</LatitudeDegrees>
              <LongitudeDegrees>2.69665061496198177337646484375</LongitudeDegrees>
            </Position>
            <AltitudeMeters>1109.4000244140625</AltitudeMeters>
            <DistanceMeters>NAN</DistanceMeters>
          </Trackpoint>
          <Trackpoint>
            <Time>2021-04-01T13:32:11.000Z</Time>
            <Position>
              <LatitudeDegrees>42.4100048281252384185791015625</LatitudeDegrees>
              <LongitudeDegrees>2.69662848673760890960693359375</LongitudeDegrees>
            </Position>
            <AltitudeMeters>1109</AltitudeMeters>
            <DistanceMeters>NAN</DistanceMeters>
          </Trackpoint>
          <Trackpoint>
            <Time>2021-04-01T13:32:12.000Z</Time>
            <Position>
              <LatitudeDegrees>42.409994937479496002197265625</LatitudeDegrees>
              <LongitudeDegrees>2.69662312231957912445068359375</LongitudeDegrees>
            </Position>
            <AltitudeMeters>1108.5999755859375</AltitudeMeters>
            <DistanceMeters>NAN</DistanceMeters>
          </Trackpoint>
          <Trackpoint>
            <Time>2021-04-01T13:32:14.000Z</Time>
            <Position>
              <LatitudeDegrees>42.40998362191021442413330078125</LatitudeDegrees>
              <LongitudeDegrees>2.6966082863509654998779296875</LongitudeDegrees>
            </Position>
            <AltitudeMeters>1107.5999755859375</AltitudeMeters>
            <DistanceMeters>NAN</DistanceMeters>
          </Trackpoint>
          <Trackpoint>
            <Time>2021-04-01T13:32:17.000Z</Time>
            <Position>
              <LatitudeDegrees>42.40996308624744415283203125</LatitudeDegrees>
              <LongitudeDegrees>2.6965868286788463592529296875</LongitudeDegrees>
            </Position>
            <AltitudeMeters>1106.4000244140625</AltitudeMeters>
            <DistanceMeters>NAN</DistanceMeters>
          </Trackpoint>
          <Trackpoint>
            <Time>2021-04-01T13:32:19.000Z</Time>
            <Position>
              <LatitudeDegrees>42.40994296967983245849609375</LatitudeDegrees>
              <LongitudeDegrees>2.696577943861484527587890625</LongitudeDegrees>
            </Position>
            <AltitudeMeters>1106</AltitudeMeters>
            <DistanceMeters>NAN</DistanceMeters>
          </Trackpoint>
          <Trackpoint>
            <Time>2021-04-01T13:32:21.000Z</Time>
            <Position>
              <LatitudeDegrees>42.4099236913025379180908203125</LatitudeDegrees>
              <LongitudeDegrees>2.696569897234439849853515625</LongitudeDegrees>
            </Position>
            <AltitudeMeters>1105.5999755859375</AltitudeMeters>
            <DistanceMeters>NAN</DistanceMeters>
          </Trackpoint>
          <Trackpoint>
            <Time>2021-04-01T13:32:22.000Z</Time>
            <Position>
              <LatitudeDegrees>42.40991413593292236328125</LatitudeDegrees>
              <LongitudeDegrees>2.6965647004544734954833984375</LongitudeDegrees>
            </Position>
            <AltitudeMeters>1105.4000244140625</AltitudeMeters>
            <DistanceMeters>NAN</DistanceMeters>
          </Trackpoint>
          <Trackpoint>
            <Time>2021-04-01T13:32:26.000Z</Time>
            <Position>
              <LatitudeDegrees>42.40986979566514492034912109375</LatitudeDegrees>
              <LongitudeDegrees>2.696542404592037200927734375</LongitudeDegrees>
            </Position>
            <AltitudeMeters>1104.199951171875</AltitudeMeters>
            <DistanceMeters>NAN</DistanceMeters>
          </Trackpoint>
          <Trackpoint>
            <Time>2021-04-01T13:32:28.000Z</Time>
            <Position>
              <LatitudeDegrees>42.40985353477299213409423828125</LatitudeDegrees>
              <LongitudeDegrees>2.6965408958494663238525390625</LongitudeDegrees>
            </Position>
            <AltitudeMeters>1103.199951171875</AltitudeMeters>
            <DistanceMeters>NAN</DistanceMeters>
          </Trackpoint>
          <Trackpoint>
            <Time>2021-04-01T13:32:32.000Z</Time>
            <Position>
              <LatitudeDegrees>42.40982118062674999237060546875</LatitudeDegrees>
              <LongitudeDegrees>2.69653561525046825408935546875</LongitudeDegrees>
            </Position>
            <AltitudeMeters>1102.199951171875</AltitudeMeters>
            <DistanceMeters>NAN</DistanceMeters>
          </Trackpoint>
          <Trackpoint>
            <Time>2021-04-01T13:32:33.000Z</Time>
            <Position>
              <LatitudeDegrees>42.4098137207329273223876953125</LatitudeDegrees>
              <LongitudeDegrees>2.69653058610856533050537109375</LongitudeDegrees>
            </Position>
            <AltitudeMeters>1102</AltitudeMeters>
            <DistanceMeters>NAN</DistanceMeters>
          </Trackpoint>
          <Trackpoint>
            <Time>2021-04-01T13:32:39.000Z</Time>
            <Position>
              <LatitudeDegrees>42.409766279160976409912109375</LatitudeDegrees>
              <LongitudeDegrees>2.69649739377200603485107421875</LongitudeDegrees>
            </Position>
            <AltitudeMeters>1101</AltitudeMeters>
            <DistanceMeters>NAN</DistanceMeters>
          </Trackpoint>
          <Trackpoint>
            <Time>2021-04-01T13:32:41.000Z</Time>
            <Position>
              <LatitudeDegrees>42.40974825806915760040283203125</LatitudeDegrees>
              <LongitudeDegrees>2.69648431800305843353271484375</LongitudeDegrees>
            </Position>
            <AltitudeMeters>1099.800048828125</AltitudeMeters>
            <DistanceMeters>NAN</DistanceMeters>
          </Trackpoint>
          <Trackpoint>
            <Time>2021-04-01T13:32:42.000Z</Time>
            <Position>
              <LatitudeDegrees>42.40973853506147861480712890625</LatitudeDegrees>
              <LongitudeDegrees>2.696479372680187225341796875</LongitudeDegrees>
            </Position>
            <AltitudeMeters>1099.5999755859375</AltitudeMeters>
            <DistanceMeters>NAN</DistanceMeters>
          </Trackpoint>
          <Trackpoint>
            <Time>2021-04-01T13:32:43.000Z</Time>
            <Position>
              <LatitudeDegrees>42.40973241627216339111328125</LatitudeDegrees>
              <LongitudeDegrees>2.69647342152893543243408203125</LongitudeDegrees>
            </Position>
            <AltitudeMeters>1099.4000244140625</AltitudeMeters>
            <DistanceMeters>NAN</DistanceMeters>
          </Trackpoint>
          <Trackpoint>
            <Time>2021-04-01T13:32:45.000Z</Time>
            <Position>
              <LatitudeDegrees>42.40971456281840801239013671875</LatitudeDegrees>
              <LongitudeDegrees>2.69646721892058849334716796875</LongitudeDegrees>
            </Position>
            <AltitudeMeters>1098.4000244140625</AltitudeMeters>
            <DistanceMeters>NAN</DistanceMeters>
          </Trackpoint>
          <Trackpoint>
            <Time>2021-04-01T13:32:47.000Z</Time>
            <Position>
              <LatitudeDegrees>42.40969796665012836456298828125</LatitudeDegrees>
              <LongitudeDegrees>2.696462608873844146728515625</LongitudeDegrees>
            </Position>
            <AltitudeMeters>1097.800048828125</AltitudeMeters>
            <DistanceMeters>NAN</DistanceMeters>
          </Trackpoint>
          <Trackpoint>
            <Time>2021-04-01T13:32:50.000Z</Time>
            <Position>
              <LatitudeDegrees>42.4096796102821826934814453125</LatitudeDegrees>
              <LongitudeDegrees>2.69645431078970432281494140625</LongitudeDegrees>
            </Position>
            <AltitudeMeters>1097.4000244140625</AltitudeMeters>
            <DistanceMeters>NAN</DistanceMeters>
          </Trackpoint>
          <Trackpoint>
            <Time>2021-04-01T13:32:52.000Z</Time>
            <Position>
              <LatitudeDegrees>42.4096678756177425384521484375</LatitudeDegrees>
              <LongitudeDegrees>2.696454562246799468994140625</LongitudeDegrees>
            </Position>
            <AltitudeMeters>1097.4000244140625</AltitudeMeters>
            <DistanceMeters>NAN</DistanceMeters>
          </Trackpoint>
          <Trackpoint>
            <Time>2021-04-01T13:32:54.000Z</Time>
            <Position>
              <LatitudeDegrees>42.4096554704010486602783203125</LatitudeDegrees>
              <LongitudeDegrees>2.69644760526716709136962890625</LongitudeDegrees>
            </Position>
            <AltitudeMeters>1096.5999755859375</AltitudeMeters>
            <DistanceMeters>NAN</DistanceMeters>
          </Trackpoint>
          <Trackpoint>
            <Time>2021-04-01T13:32:55.000Z</Time>
            <Position>
              <LatitudeDegrees>42.40964801050722599029541015625</LatitudeDegrees>
              <LongitudeDegrees>2.6964443363249301910400390625</LongitudeDegrees>
            </Position>
            <AltitudeMeters>1096</AltitudeMeters>
            <DistanceMeters>NAN</DistanceMeters>
          </Trackpoint>
          <Trackpoint>
            <Time>2021-04-01T13:32:56.000Z</Time>
            <Position>
              <LatitudeDegrees>42.409642897546291351318359375</LatitudeDegrees>
              <LongitudeDegrees>2.6964389719069004058837890625</LongitudeDegrees>
            </Position>
            <AltitudeMeters>1095.800048828125</AltitudeMeters>
            <DistanceMeters>NAN</DistanceMeters>
          </Trackpoint>
          <Trackpoint>
            <Time>2021-04-01T13:32:57.000Z</Time>
            <Position>
              <LatitudeDegrees>42.40963744930922985076904296875</LatitudeDegrees>
              <LongitudeDegrees>2.69643318839371204376220703125</LongitudeDegrees>
            </Position>
            <AltitudeMeters>1095.4000244140625</AltitudeMeters>
            <DistanceMeters>NAN</DistanceMeters>
          </Trackpoint>
          <Trackpoint>
            <Time>2021-04-01T13:32:59.000Z</Time>
            <Position>
              <LatitudeDegrees>42.40962387062609195709228515625</LatitudeDegrees>
              <LongitudeDegrees>2.6964255608618259429931640625</LongitudeDegrees>
            </Position>
            <AltitudeMeters>1095</AltitudeMeters>
            <DistanceMeters>NAN</DistanceMeters>
          </Trackpoint>
          <Trackpoint>
            <Time>2021-04-01T13:33:02.000Z</Time>
            <Position>
              <LatitudeDegrees>42.409600317478179931640625</LatitudeDegrees>
              <LongitudeDegrees>2.6964255608618259429931640625</LongitudeDegrees>
            </Position>
            <AltitudeMeters>1094.5999755859375</AltitudeMeters>
            <DistanceMeters>NAN</DistanceMeters>
          </Trackpoint>
          <Trackpoint>
            <Time>2021-04-01T13:33:04.000Z</Time>
            <Position>
              <LatitudeDegrees>42.409586571156978607177734375</LatitudeDegrees>
              <LongitudeDegrees>2.69641474820673465728759765625</LongitudeDegrees>
            </Position>
            <AltitudeMeters>1093.800048828125</AltitudeMeters>
            <DistanceMeters>NAN</DistanceMeters>
          </Trackpoint>
          <Trackpoint>
            <Time>2021-04-01T13:33:07.000Z</Time>
            <Position>
              <LatitudeDegrees>42.409562431275844573974609375</LatitudeDegrees>
              <LongitudeDegrees>2.69640318118035793304443359375</LongitudeDegrees>
            </Position>
            <AltitudeMeters>1092.5999755859375</AltitudeMeters>
            <DistanceMeters>NAN</DistanceMeters>
          </Trackpoint>
          <Trackpoint>
            <Time>2021-04-01T13:33:09.000Z</Time>
            <Position>
              <LatitudeDegrees>42.40954256616532802581787109375</LatitudeDegrees>
              <LongitudeDegrees>2.69640251062810420989990234375</LongitudeDegrees>
            </Position>
            <AltitudeMeters>1092.199951171875</AltitudeMeters>
            <DistanceMeters>NAN</DistanceMeters>
          </Trackpoint>
          <Trackpoint>
            <Time>2021-04-01T13:33:11.000Z</Time>
            <Position>
              <LatitudeDegrees>42.4095223657786846160888671875</LatitudeDegrees>
              <LongitudeDegrees>2.69640033133327960968017578125</LongitudeDegrees>
            </Position>
            <AltitudeMeters>1091.199951171875</AltitudeMeters>
            <DistanceMeters>NAN</DistanceMeters>
          </Trackpoint>
          <Trackpoint>
            <Time>2021-04-01T13:33:15.000Z</Time>
            <Position>
              <LatitudeDegrees>42.409481294453144073486328125</LatitudeDegrees>
              <LongitudeDegrees>2.69638306461274623870849609375</LongitudeDegrees>
            </Position>
            <AltitudeMeters>1090.199951171875</AltitudeMeters>
            <DistanceMeters>NAN</DistanceMeters>
          </Trackpoint>
          <Trackpoint>
            <Time>2021-04-01T13:33:18.000Z</Time>
            <Position>
              <LatitudeDegrees>42.409455813467502593994140625</LatitudeDegrees>
              <LongitudeDegrees>2.6963643729686737060546875</LongitudeDegrees>
            </Position>
            <AltitudeMeters>1089.199951171875</AltitudeMeters>
            <DistanceMeters>NAN</DistanceMeters>
          </Trackpoint>
          <Trackpoint>
            <Time>2021-04-01T13:33:19.000Z</Time>
            <Position>
              <LatitudeDegrees>42.4094460904598236083984375</LatitudeDegrees>
              <LongitudeDegrees>2.69635540433228015899658203125</LongitudeDegrees>
            </Position>
            <AltitudeMeters>1089</AltitudeMeters>
            <DistanceMeters>NAN</DistanceMeters>
          </Trackpoint>
          <Trackpoint>
            <Time>2021-04-01T13:33:23.000Z</Time>
            <Position>
              <LatitudeDegrees>42.4094187654554843902587890625</LatitudeDegrees>
              <LongitudeDegrees>2.69630813039839267730712890625</LongitudeDegrees>
            </Position>
            <AltitudeMeters>1088</AltitudeMeters>
            <DistanceMeters>NAN</DistanceMeters>
          </Trackpoint>
          <Trackpoint>
            <Time>2021-04-01T13:33:25.000Z</Time>
            <Position>
              <LatitudeDegrees>42.40939906798303127288818359375</LatitudeDegrees>
              <LongitudeDegrees>2.69628616981208324432373046875</LongitudeDegrees>
            </Position>
            <AltitudeMeters>1087.4000244140625</AltitudeMeters>
            <DistanceMeters>NAN</DistanceMeters>
          </Trackpoint>
          <Trackpoint>
            <Time>2021-04-01T13:33:26.000Z</Time>
            <Position>
              <LatitudeDegrees>42.4093872494995594024658203125</LatitudeDegrees>
              <LongitudeDegrees>2.6962773688137531280517578125</LongitudeDegrees>
            </Position>
            <AltitudeMeters>1087.199951171875</AltitudeMeters>
            <DistanceMeters>NAN</DistanceMeters>
          </Trackpoint>
          <Trackpoint>
            <Time>2021-04-01T13:33:28.000Z</Time>
            <Position>
              <LatitudeDegrees>42.4093657918274402618408203125</LatitudeDegrees>
              <LongitudeDegrees>2.6962592639029026031494140625</LongitudeDegrees>
            </Position>
            <AltitudeMeters>1086.800048828125</AltitudeMeters>
            <DistanceMeters>NAN</DistanceMeters>
          </Trackpoint>
          <Trackpoint>
            <Time>2021-04-01T13:33:31.000Z</Time>
            <Position>
              <LatitudeDegrees>42.40933871828019618988037109375</LatitudeDegrees>
              <LongitudeDegrees>2.69623654894530773162841796875</LongitudeDegrees>
            </Position>
            <AltitudeMeters>1085.800048828125</AltitudeMeters>
            <DistanceMeters>NAN</DistanceMeters>
          </Trackpoint>
          <Trackpoint>
            <Time>2021-04-01T13:33:35.000Z</Time>
            <Position>
              <LatitudeDegrees>42.409309633076190948486328125</LatitudeDegrees>
              <LongitudeDegrees>2.69621458835899829864501953125</LongitudeDegrees>
            </Position>
            <AltitudeMeters>1085</AltitudeMeters>
            <DistanceMeters>NAN</DistanceMeters>
          </Trackpoint>
          <Trackpoint>
            <Time>2021-04-01T13:33:37.000Z</Time>
            <Position>
              <LatitudeDegrees>42.40929253399372100830078125</LatitudeDegrees>
              <LongitudeDegrees>2.6961918734014034271240234375</LongitudeDegrees>
            </Position>
            <AltitudeMeters>1084.4000244140625</AltitudeMeters>
            <DistanceMeters>NAN</DistanceMeters>
          </Trackpoint>
          <Trackpoint>
            <Time>2021-04-01T13:33:41.000Z</Time>
            <Position>
              <LatitudeDegrees>42.4092561565339565277099609375</LatitudeDegrees>
              <LongitudeDegrees>2.6961573399603366851806640625</LongitudeDegrees>
            </Position>
            <AltitudeMeters>1083.199951171875</AltitudeMeters>
            <DistanceMeters>NAN</DistanceMeters>
          </Trackpoint>
          <Trackpoint>
            <Time>2021-04-01T13:33:42.000Z</Time>
            <Position>
              <LatitudeDegrees>42.4092424102127552032470703125</LatitudeDegrees>
              <LongitudeDegrees>2.69614384509623050689697265625</LongitudeDegrees>
            </Position>
            <AltitudeMeters>1082.800048828125</AltitudeMeters>
            <DistanceMeters>NAN</DistanceMeters>
          </Trackpoint>
          <Trackpoint>
            <Time>2021-04-01T13:33:46.000Z</Time>
            <Position>
              <LatitudeDegrees>42.40920175798237323760986328125</LatitudeDegrees>
              <LongitudeDegrees>2.69609740935266017913818359375</LongitudeDegrees>
            </Position>
            <AltitudeMeters>1082</AltitudeMeters>
            <DistanceMeters>NAN</DistanceMeters>
          </Trackpoint>
          <Trackpoint>
            <Time>2021-04-01T13:33:48.000Z</Time>
            <Position>
              <LatitudeDegrees>42.4091820605099201202392578125</LatitudeDegrees>
              <LongitudeDegrees>2.69607829861342906951904296875</LongitudeDegrees>
            </Position>
            <AltitudeMeters>1081.800048828125</AltitudeMeters>
            <DistanceMeters>NAN</DistanceMeters>
          </Trackpoint>
          <Trackpoint>
            <Time>2021-04-01T13:33:49.000Z</Time>
            <Position>
              <LatitudeDegrees>42.40917828865349292755126953125</LatitudeDegrees>
              <LongitudeDegrees>2.69607427529990673065185546875</LongitudeDegrees>
            </Position>
            <AltitudeMeters>1081.800048828125</AltitudeMeters>
            <DistanceMeters>NAN</DistanceMeters>
          </Trackpoint>
          <Trackpoint>
            <Time>2021-04-01T13:33:54.000Z</Time>
            <Position>
              <LatitudeDegrees>42.4091461859643459320068359375</LatitudeDegrees>
              <LongitudeDegrees>2.6960326172411441802978515625</LongitudeDegrees>
            </Position>
            <AltitudeMeters>1080.800048828125</AltitudeMeters>
            <DistanceMeters>NAN</DistanceMeters>
          </Trackpoint>
          <Trackpoint>
            <Time>2021-04-01T13:33:56.000Z</Time>
            <Position>
              <LatitudeDegrees>42.4091314338147640228271484375</LatitudeDegrees>
              <LongitudeDegrees>2.6960121653974056243896484375</LongitudeDegrees>
            </Position>
            <AltitudeMeters>1080.199951171875</AltitudeMeters>
            <DistanceMeters>NAN</DistanceMeters>
          </Trackpoint>
          <Trackpoint>
            <Time>2021-04-01T13:33:57.000Z</Time>
            <Position>
              <LatitudeDegrees>42.40912514738738536834716796875</LatitudeDegrees>
              <LongitudeDegrees>2.69600403495132923126220703125</LongitudeDegrees>
            </Position>
            <AltitudeMeters>1080</AltitudeMeters>
            <DistanceMeters>NAN</DistanceMeters>
          </Trackpoint>
          <Trackpoint>
            <Time>2021-04-01T13:33:58.000Z</Time>
            <Position>
              <LatitudeDegrees>42.4091180227696895599365234375</LatitudeDegrees>
              <LongitudeDegrees>2.69599489867687225341796875</LongitudeDegrees>
            </Position>
            <AltitudeMeters>1079.800048828125</AltitudeMeters>
            <DistanceMeters>NAN</DistanceMeters>
          </Trackpoint>
          <Trackpoint>
            <Time>2021-04-01T13:34:00.000Z</Time>
            <Position>
              <LatitudeDegrees>42.4091041088104248046875</LatitudeDegrees>
              <LongitudeDegrees>2.6959789730608463287353515625</LongitudeDegrees>
            </Position>
            <AltitudeMeters>1079.5999755859375</AltitudeMeters>
            <DistanceMeters>NAN</DistanceMeters>
          </Trackpoint>
          <Trackpoint>
            <Time>2021-04-01T13:34:02.000Z</Time>
            <Position>
              <LatitudeDegrees>42.40909681655466556549072265625</LatitudeDegrees>
              <LongitudeDegrees>2.69595458172261714935302734375</LongitudeDegrees>
            </Position>
            <AltitudeMeters>1079.4000244140625</AltitudeMeters>
            <DistanceMeters>NAN</DistanceMeters>
          </Trackpoint>
          <Trackpoint>
            <Time>2021-04-01T13:34:06.000Z</Time>
            <Position>
              <LatitudeDegrees>42.4091116525232791900634765625</LatitudeDegrees>
              <LongitudeDegrees>2.695916779339313507080078125</LongitudeDegrees>
            </Position>
            <AltitudeMeters>1079</AltitudeMeters>
            <DistanceMeters>NAN</DistanceMeters>
          </Trackpoint>
          <Trackpoint>
            <Time>2021-04-01T13:34:08.000Z</Time>
            <Position>
              <LatitudeDegrees>42.40910989232361316680908203125</LatitudeDegrees>
              <LongitudeDegrees>2.6959137618541717529296875</LongitudeDegrees>
            </Position>
            <AltitudeMeters>1079</AltitudeMeters>
            <DistanceMeters>NAN</DistanceMeters>
          </Trackpoint>
          <Trackpoint>
            <Time>2021-04-01T13:34:09.000Z</Time>
            <Position>
              <LatitudeDegrees>42.40910855121910572052001953125</LatitudeDegrees>
              <LongitudeDegrees>2.69591334275901317596435546875</LongitudeDegrees>
            </Position>
            <AltitudeMeters>1078.800048828125</AltitudeMeters>
            <DistanceMeters>NAN</DistanceMeters>
          </Trackpoint>
          <Trackpoint>
            <Time>2021-04-01T13:34:13.000Z</Time>
            <Position>
              <LatitudeDegrees>42.4091032706201076507568359375</LatitudeDegrees>
              <LongitudeDegrees>2.6959115825593471527099609375</LongitudeDegrees>
            </Position>
            <AltitudeMeters>1078.800048828125</AltitudeMeters>
            <DistanceMeters>NAN</DistanceMeters>
          </Trackpoint>
          <Trackpoint>
            <Time>2021-04-01T13:34:17.000Z</Time>
            <Position>
              <LatitudeDegrees>42.4091062881052494049072265625</LatitudeDegrees>
              <LongitudeDegrees>2.69590730778872966766357421875</LongitudeDegrees>
            </Position>
            <AltitudeMeters>1078.800048828125</AltitudeMeters>
            <DistanceMeters>NAN</DistanceMeters>
          </Trackpoint>
          <Trackpoint>
            <Time>2021-04-01T13:34:20.000Z</Time>
            <Position>
              <LatitudeDegrees>42.409108467400074005126953125</LatitudeDegrees>
              <LongitudeDegrees>2.69591032527387142181396484375</LongitudeDegrees>
            </Position>
            <AltitudeMeters>1078.800048828125</AltitudeMeters>
            <DistanceMeters>NAN</DistanceMeters>
          </Trackpoint>
          <Trackpoint>
            <Time>2021-04-01T13:34:23.000Z</Time>
            <Position>
              <LatitudeDegrees>42.409108467400074005126953125</LatitudeDegrees>
              <LongitudeDegrees>2.69591032527387142181396484375</LongitudeDegrees>
            </Position>
            <AltitudeMeters>1078.5999755859375</AltitudeMeters>
            <DistanceMeters>NAN</DistanceMeters>
          </Trackpoint>
          <Trackpoint>
            <Time>2021-04-01T13:34:27.000Z</Time>
            <Position>
              <LatitudeDegrees>42.409108467400074005126953125</LatitudeDegrees>
              <LongitudeDegrees>2.69591032527387142181396484375</LongitudeDegrees>
            </Position>
            <AltitudeMeters>1078.199951171875</AltitudeMeters>
            <DistanceMeters>NAN</DistanceMeters>
          </Trackpoint>
          <Trackpoint>
            <Time>2021-04-01T13:34:43.000Z</Time>
            <Position>
              <LatitudeDegrees>42.40909882821142673492431640625</LatitudeDegrees>
              <LongitudeDegrees>2.6959223113954067230224609375</LongitudeDegrees>
            </Position>
            <AltitudeMeters>1078.4000244140625</AltitudeMeters>
            <DistanceMeters>NAN</DistanceMeters>
          </Trackpoint>
          <Trackpoint>
            <Time>2021-04-01T13:35:23.000Z</Time>
            <Position>
              <LatitudeDegrees>42.40908307023346424102783203125</LatitudeDegrees>
              <LongitudeDegrees>2.69596799276769161224365234375</LongitudeDegrees>
            </Position>
            <AltitudeMeters>1079.199951171875</AltitudeMeters>
            <DistanceMeters>NAN</DistanceMeters>
          </Trackpoint>
          <Trackpoint>
            <Time>2021-04-01T13:35:29.000Z</Time>
            <Position>
              <LatitudeDegrees>42.40909664891660213470458984375</LatitudeDegrees>
              <LongitudeDegrees>2.69596799276769161224365234375</LongitudeDegrees>
            </Position>
            <AltitudeMeters>1079.5999755859375</AltitudeMeters>
            <DistanceMeters>NAN</DistanceMeters>
          </Trackpoint>
          <Trackpoint>
            <Time>2021-04-01T13:35:39.000Z</Time>
            <Position>
              <LatitudeDegrees>42.409053146839141845703125</LatitudeDegrees>
              <LongitudeDegrees>2.69593429751694202423095703125</LongitudeDegrees>
            </Position>
            <AltitudeMeters>1078.800048828125</AltitudeMeters>
            <DistanceMeters>NAN</DistanceMeters>
          </Trackpoint>
          <Trackpoint>
            <Time>2021-04-01T13:35:43.000Z</Time>
            <Position>
              <LatitudeDegrees>42.4090062081813812255859375</LatitudeDegrees>
              <LongitudeDegrees>2.69588920287787914276123046875</LongitudeDegrees>
            </Position>
            <AltitudeMeters>1078.5999755859375</AltitudeMeters>
            <DistanceMeters>NAN</DistanceMeters>
          </Trackpoint>
          <Trackpoint>
            <Time>2021-04-01T13:35:49.000Z</Time>
            <Position>
              <LatitudeDegrees>42.408940829336643218994140625</LatitudeDegrees>
              <LongitudeDegrees>2.69582860171794891357421875</LongitudeDegrees>
            </Position>
            <AltitudeMeters>1078</AltitudeMeters>
            <DistanceMeters>NAN</DistanceMeters>
          </Trackpoint>
          <Trackpoint>
            <Time>2021-04-01T13:35:51.000Z</Time>
            <Position>
              <LatitudeDegrees>42.40892096422612667083740234375</LatitudeDegrees>
              <LongitudeDegrees>2.69580538384616374969482421875</LongitudeDegrees>
            </Position>
            <AltitudeMeters>1078</AltitudeMeters>
            <DistanceMeters>NAN</DistanceMeters>
          </Trackpoint>
          <Trackpoint>
            <Time>2021-04-01T13:35:56.000Z</Time>
            <Position>
              <LatitudeDegrees>42.40888307802379131317138671875</LatitudeDegrees>
              <LongitudeDegrees>2.6957650668919086456298828125</LongitudeDegrees>
            </Position>
            <AltitudeMeters>1078.199951171875</AltitudeMeters>
            <DistanceMeters>NAN</DistanceMeters>
          </Trackpoint>
          <Trackpoint>
            <Time>2021-04-01T13:35:57.000Z</Time>
            <Position>
              <LatitudeDegrees>42.408874444663524627685546875</LatitudeDegrees>
              <LongitudeDegrees>2.69576297141611576080322265625</LongitudeDegrees>
            </Position>
            <AltitudeMeters>1078.199951171875</AltitudeMeters>
            <DistanceMeters>NAN</DistanceMeters>
          </Trackpoint>
          <Trackpoint>
            <Time>2021-04-01T13:36:02.000Z</Time>
            <Position>
              <LatitudeDegrees>42.40883245132863521575927734375</LatitudeDegrees>
              <LongitudeDegrees>2.6957288570702075958251953125</LongitudeDegrees>
            </Position>
            <AltitudeMeters>1078.4000244140625</AltitudeMeters>
            <DistanceMeters>NAN</DistanceMeters>
          </Trackpoint>
          <Trackpoint>
            <Time>2021-04-01T13:36:08.000Z</Time>
            <Position>
              <LatitudeDegrees>42.4087881110608577728271484375</LatitudeDegrees>
              <LongitudeDegrees>2.6956939883530139923095703125</LongitudeDegrees>
            </Position>
            <AltitudeMeters>1079.199951171875</AltitudeMeters>
            <DistanceMeters>NAN</DistanceMeters>
          </Trackpoint>
          <Trackpoint>
            <Time>2021-04-01T13:36:11.000Z</Time>
            <Position>
              <LatitudeDegrees>42.40877059288322925567626953125</LatitudeDegrees>
              <LongitudeDegrees>2.69567579962313175201416015625</LongitudeDegrees>
            </Position>
            <AltitudeMeters>1079.4000244140625</AltitudeMeters>
            <DistanceMeters>NAN</DistanceMeters>
          </Trackpoint>
          <Trackpoint>
            <Time>2021-04-01T13:36:12.000Z</Time>
            <Position>
              <LatitudeDegrees>42.4087648093700408935546875</LatitudeDegrees>
              <LongitudeDegrees>2.6956701837480068206787109375</LongitudeDegrees>
            </Position>
            <AltitudeMeters>1079.5999755859375</AltitudeMeters>
            <DistanceMeters>NAN</DistanceMeters>
          </Trackpoint>
          <Trackpoint>
            <Time>2021-04-01T13:36:14.000Z</Time>
            <Position>
              <LatitudeDegrees>42.40874879993498325347900390625</LatitudeDegrees>
              <LongitudeDegrees>2.6956604607403278350830078125</LongitudeDegrees>
            </Position>
            <AltitudeMeters>1080</AltitudeMeters>
            <DistanceMeters>NAN</DistanceMeters>
          </Trackpoint>
          <Trackpoint>
            <Time>2021-04-01T13:36:18.000Z</Time>
            <Position>
              <LatitudeDegrees>42.40871854126453399658203125</LatitudeDegrees>
              <LongitudeDegrees>2.6956483907997608184814453125</LongitudeDegrees>
            </Position>
            <AltitudeMeters>1080.5999755859375</AltitudeMeters>
            <DistanceMeters>NAN</DistanceMeters>
          </Trackpoint>
          <Trackpoint>
            <Time>2021-04-01T13:36:19.000Z</Time>
            <Position>
              <LatitudeDegrees>42.4087133444845676422119140625</LatitudeDegrees>
              <LongitudeDegrees>2.695643864572048187255859375</LongitudeDegrees>
            </Position>
            <AltitudeMeters>1080.5999755859375</AltitudeMeters>
            <DistanceMeters>NAN</DistanceMeters>
          </Trackpoint>
          <Trackpoint>
            <Time>2021-04-01T13:36:20.000Z</Time>
            <Position>
              <LatitudeDegrees>42.40870554931461811065673828125</LatitudeDegrees>
              <LongitudeDegrees>2.695639841258525848388671875</LongitudeDegrees>
            </Position>
            <AltitudeMeters>1080.800048828125</AltitudeMeters>
            <DistanceMeters>NAN</DistanceMeters>
          </Trackpoint>
          <Trackpoint>
            <Time>2021-04-01T13:36:27.000Z</Time>
            <Position>
              <LatitudeDegrees>42.4086623825132846832275390625</LatitudeDegrees>
              <LongitudeDegrees>2.69560438580811023712158203125</LongitudeDegrees>
            </Position>
            <AltitudeMeters>1081.5999755859375</AltitudeMeters>
            <DistanceMeters>NAN</DistanceMeters>
          </Trackpoint>
          <Trackpoint>
            <Time>2021-04-01T13:36:28.000Z</Time>
            <Position>
              <LatitudeDegrees>42.40865643136203289031982421875</LatitudeDegrees>
              <LongitudeDegrees>2.69560069777071475982666015625</LongitudeDegrees>
            </Position>
            <AltitudeMeters>1081.800048828125</AltitudeMeters>
            <DistanceMeters>NAN</DistanceMeters>
          </Trackpoint>
          <Trackpoint>
            <Time>2021-04-01T13:36:32.000Z</Time>
            <Position>
              <LatitudeDegrees>42.40863673388957977294921875</LatitudeDegrees>
              <LongitudeDegrees>2.69557924009859561920166015625</LongitudeDegrees>
            </Position>
            <AltitudeMeters>1082.4000244140625</AltitudeMeters>
            <DistanceMeters>NAN</DistanceMeters>
          </Trackpoint>
          <Trackpoint>
            <Time>2021-04-01T13:36:35.000Z</Time>
            <Position>
              <LatitudeDegrees>42.4086204729974269866943359375</LatitudeDegrees>
              <LongitudeDegrees>2.69556733779609203338623046875</LongitudeDegrees>
            </Position>
            <AltitudeMeters>1082.5999755859375</AltitudeMeters>
            <DistanceMeters>NAN</DistanceMeters>
          </Trackpoint>
          <Trackpoint>
            <Time>2021-04-01T13:36:38.000Z</Time>
            <Position>
              <LatitudeDegrees>42.40860454738140106201171875</LatitudeDegrees>
              <LongitudeDegrees>2.695547640323638916015625</LongitudeDegrees>
            </Position>
            <AltitudeMeters>1082.800048828125</AltitudeMeters>
            <DistanceMeters>NAN</DistanceMeters>
          </Trackpoint>
          <Trackpoint>
            <Time>2021-04-01T13:36:41.000Z</Time>
            <Position>
              <LatitudeDegrees>42.40859306417405605316162109375</LatitudeDegrees>
              <LongitudeDegrees>2.69552811048924922943115234375</LongitudeDegrees>
            </Position>
            <AltitudeMeters>1083.199951171875</AltitudeMeters>
            <DistanceMeters>NAN</DistanceMeters>
          </Trackpoint>
          <Trackpoint>
            <Time>2021-04-01T13:36:46.000Z</Time>
            <Position>
              <LatitudeDegrees>42.4085716903209686279296875</LatitudeDegrees>
              <LongitudeDegrees>2.69548687152564525604248046875</LongitudeDegrees>
            </Position>
            <AltitudeMeters>1084</AltitudeMeters>
            <DistanceMeters>NAN</DistanceMeters>
          </Trackpoint>
          <Trackpoint>
            <Time>2021-04-01T13:36:54.000Z</Time>
            <Position>
              <LatitudeDegrees>42.40855157375335693359375</LatitudeDegrees>
              <LongitudeDegrees>2.69543255679309368133544921875</LongitudeDegrees>
            </Position>
            <AltitudeMeters>1085</AltitudeMeters>
            <DistanceMeters>NAN</DistanceMeters>
          </Trackpoint>
          <Trackpoint>
            <Time>2021-04-01T13:37:01.000Z</Time>
            <Position>
              <LatitudeDegrees>42.4085245840251445770263671875</LatitudeDegrees>
              <LongitudeDegrees>2.6953888870775699615478515625</LongitudeDegrees>
            </Position>
            <AltitudeMeters>1085.4000244140625</AltitudeMeters>
            <DistanceMeters>NAN</DistanceMeters>
          </Trackpoint>
          <Trackpoint>
            <Time>2021-04-01T13:37:03.000Z</Time>
            <Position>
              <LatitudeDegrees>42.4085162021219730377197265625</LatitudeDegrees>
              <LongitudeDegrees>2.6953748054802417755126953125</LongitudeDegrees>
            </Position>
            <AltitudeMeters>1085.800048828125</AltitudeMeters>
            <DistanceMeters>NAN</DistanceMeters>
          </Trackpoint>
          <Trackpoint>
            <Time>2021-04-01T13:37:07.000Z</Time>
            <Position>
              <LatitudeDegrees>42.40850036032497882843017578125</LatitudeDegrees>
              <LongitudeDegrees>2.6953399367630481719970703125</LongitudeDegrees>
            </Position>
            <AltitudeMeters>1086</AltitudeMeters>
            <DistanceMeters>NAN</DistanceMeters>
          </Trackpoint>
          <Trackpoint>
            <Time>2021-04-01T13:37:14.000Z</Time>
            <Position>
              <LatitudeDegrees>42.408466078341007232666015625</LatitudeDegrees>
              <LongitudeDegrees>2.69527263008058071136474609375</LongitudeDegrees>
            </Position>
            <AltitudeMeters>1085.5999755859375</AltitudeMeters>
            <DistanceMeters>NAN</DistanceMeters>
          </Trackpoint>
          <Trackpoint>
            <Time>2021-04-01T13:37:22.000Z</Time>
            <Position>
              <LatitudeDegrees>42.40841033868491649627685546875</LatitudeDegrees>
              <LongitudeDegrees>2.69521513022482395172119140625</LongitudeDegrees>
            </Position>
            <AltitudeMeters>1085.5999755859375</AltitudeMeters>
            <DistanceMeters>NAN</DistanceMeters>
          </Trackpoint>
          <Trackpoint>
            <Time>2021-04-01T13:37:27.000Z</Time>
            <Position>
              <LatitudeDegrees>42.40836876444518566131591796875</LatitudeDegrees>
              <LongitudeDegrees>2.69519434310495853424072265625</LongitudeDegrees>
            </Position>
            <AltitudeMeters>1086</AltitudeMeters>
            <DistanceMeters>NAN</DistanceMeters>
          </Trackpoint>
          <Trackpoint>
            <Time>2021-04-01T13:37:29.000Z</Time>
            <Position>
              <LatitudeDegrees>42.408355437219142913818359375</LatitudeDegrees>
              <LongitudeDegrees>2.69518889486789703369140625</LongitudeDegrees>
            </Position>
            <AltitudeMeters>1086.199951171875</AltitudeMeters>
            <DistanceMeters>NAN</DistanceMeters>
          </Trackpoint>
          <Trackpoint>
            <Time>2021-04-01T13:37:30.000Z</Time>
            <Position>
              <LatitudeDegrees>42.408349402248859405517578125</LatitudeDegrees>
              <LongitudeDegrees>2.6951823569834232330322265625</LongitudeDegrees>
            </Position>
            <AltitudeMeters>1086.199951171875</AltitudeMeters>
            <DistanceMeters>NAN</DistanceMeters>
          </Trackpoint>
          <Trackpoint>
            <Time>2021-04-01T13:37:33.000Z</Time>
            <Position>
              <LatitudeDegrees>42.40833071060478687286376953125</LatitudeDegrees>
              <LongitudeDegrees>2.69517481327056884765625</LongitudeDegrees>
            </Position>
            <AltitudeMeters>1086.4000244140625</AltitudeMeters>
            <DistanceMeters>NAN</DistanceMeters>
          </Trackpoint>
          <Trackpoint>
            <Time>2021-04-01T13:37:41.000Z</Time>
            <Position>
              <LatitudeDegrees>42.40828326903283596038818359375</LatitudeDegrees>
              <LongitudeDegrees>2.69515930674970149993896484375</LongitudeDegrees>
            </Position>
            <AltitudeMeters>1087.199951171875</AltitudeMeters>
            <DistanceMeters>NAN</DistanceMeters>
          </Trackpoint>
          <Trackpoint>
            <Time>2021-04-01T13:37:45.000Z</Time>
            <Position>
              <LatitudeDegrees>42.40826315246522426605224609375</LatitudeDegrees>
              <LongitudeDegrees>2.69514824263751506805419921875</LongitudeDegrees>
            </Position>
            <AltitudeMeters>1087.800048828125</AltitudeMeters>
            <DistanceMeters>NAN</DistanceMeters>
          </Trackpoint>
          <Trackpoint>
            <Time>2021-04-01T13:37:49.000Z</Time>
            <Position>
              <LatitudeDegrees>42.40824253298342227935791015625</LatitudeDegrees>
              <LongitudeDegrees>2.6951412856578826904296875</LongitudeDegrees>
            </Position>
            <AltitudeMeters>1088.199951171875</AltitudeMeters>
            <DistanceMeters>NAN</DistanceMeters>
          </Trackpoint>
          <Trackpoint>
            <Time>2021-04-01T13:37:50.000Z</Time>
            <Position>
              <LatitudeDegrees>42.4082385934889316558837890625</LatitudeDegrees>
              <LongitudeDegrees>2.6951357536017894744873046875</LongitudeDegrees>
            </Position>
            <AltitudeMeters>1088.199951171875</AltitudeMeters>
            <DistanceMeters>NAN</DistanceMeters>
          </Trackpoint>
          <Trackpoint>
            <Time>2021-04-01T13:37:55.000Z</Time>
            <Position>
              <LatitudeDegrees>42.40821923129260540008544921875</LatitudeDegrees>
              <LongitudeDegrees>2.69513131119310855865478515625</LongitudeDegrees>
            </Position>
            <AltitudeMeters>1089</AltitudeMeters>
            <DistanceMeters>NAN</DistanceMeters>
          </Trackpoint>
          <Trackpoint>
            <Time>2021-04-01T13:37:57.000Z</Time>
            <Position>
              <LatitudeDegrees>42.40820950828492641448974609375</LatitudeDegrees>
              <LongitudeDegrees>2.695120163261890411376953125</LongitudeDegrees>
            </Position>
            <AltitudeMeters>1089.4000244140625</AltitudeMeters>
            <DistanceMeters>NAN</DistanceMeters>
          </Trackpoint>
          <Trackpoint>
            <Time>2021-04-01T13:37:59.000Z</Time>
            <Position>
              <LatitudeDegrees>42.4082017131149768829345703125</LatitudeDegrees>
              <LongitudeDegrees>2.69511387683451175689697265625</LongitudeDegrees>
            </Position>
            <AltitudeMeters>1089.4000244140625</AltitudeMeters>
            <DistanceMeters>NAN</DistanceMeters>
          </Trackpoint>
          <Trackpoint>
            <Time>2021-04-01T13:38:03.000Z</Time>
            <Position>
              <LatitudeDegrees>42.40818687714636325836181640625</LatitudeDegrees>
              <LongitudeDegrees>2.695107758045196533203125</LongitudeDegrees>
            </Position>
            <AltitudeMeters>1090</AltitudeMeters>
            <DistanceMeters>NAN</DistanceMeters>
          </Trackpoint>
          <Trackpoint>
            <Time>2021-04-01T13:38:06.000Z</Time>
            <Position>
              <LatitudeDegrees>42.408180423080921173095703125</LatitudeDegrees>
              <LongitudeDegrees>2.69509493373334407806396484375</LongitudeDegrees>
            </Position>
            <AltitudeMeters>1090.4000244140625</AltitudeMeters>
            <DistanceMeters>NAN</DistanceMeters>
          </Trackpoint>
          <Trackpoint>
            <Time>2021-04-01T13:38:07.000Z</Time>
            <Position>
              <LatitudeDegrees>42.4081805907189846038818359375</LatitudeDegrees>
              <LongitudeDegrees>2.69508923403918743133544921875</LongitudeDegrees>
            </Position>
            <AltitudeMeters>1090.5999755859375</AltitudeMeters>
            <DistanceMeters>NAN</DistanceMeters>
          </Trackpoint>
          <Trackpoint>
            <Time>2021-04-01T13:38:10.000Z</Time>
            <Position>
              <LatitudeDegrees>42.40817933343350887298583984375</LatitudeDegrees>
              <LongitudeDegrees>2.69506593234837055206298828125</LongitudeDegrees>
            </Position>
            <AltitudeMeters>1091</AltitudeMeters>
            <DistanceMeters>NAN</DistanceMeters>
          </Trackpoint>
          <Trackpoint>
            <Time>2021-04-01T13:38:13.000Z</Time>
            <Position>
              <LatitudeDegrees>42.40816977806389331817626953125</LatitudeDegrees>
              <LongitudeDegrees>2.69505168311297893524169921875</LongitudeDegrees>
            </Position>
            <AltitudeMeters>1091.4000244140625</AltitudeMeters>
            <DistanceMeters>NAN</DistanceMeters>
          </Trackpoint>
          <Trackpoint>
            <Time>2021-04-01T13:38:14.000Z</Time>
            <Position>
              <LatitudeDegrees>42.40816533565521240234375</LatitudeDegrees>
              <LongitudeDegrees>2.69505000673234462738037109375</LongitudeDegrees>
            </Position>
            <AltitudeMeters>1091.4000244140625</AltitudeMeters>
            <DistanceMeters>NAN</DistanceMeters>
          </Trackpoint>
          <Trackpoint>
            <Time>2021-04-01T13:38:16.000Z</Time>
            <Position>
              <LatitudeDegrees>42.40814999677240848541259765625</LatitudeDegrees>
              <LongitudeDegrees>2.69504548050463199615478515625</LongitudeDegrees>
            </Position>
            <AltitudeMeters>1091.5999755859375</AltitudeMeters>
            <DistanceMeters>NAN</DistanceMeters>
          </Trackpoint>
          <Trackpoint>
            <Time>2021-04-01T13:38:22.000Z</Time>
            <Position>
              <LatitudeDegrees>42.408125102519989013671875</LatitudeDegrees>
              <LongitudeDegrees>2.69504413940012454986572265625</LongitudeDegrees>
            </Position>
            <AltitudeMeters>1092.5999755859375</AltitudeMeters>
            <DistanceMeters>NAN</DistanceMeters>
          </Trackpoint>
          <Trackpoint>
            <Time>2021-04-01T13:38:24.000Z</Time>
            <Position>
              <LatitudeDegrees>42.4081199057400226593017578125</LatitudeDegrees>
              <LongitudeDegrees>2.6950267888605594635009765625</LongitudeDegrees>
            </Position>
            <AltitudeMeters>1093</AltitudeMeters>
            <DistanceMeters>NAN</DistanceMeters>
          </Trackpoint>
          <Trackpoint>
            <Time>2021-04-01T13:38:29.000Z</Time>
            <Position>
              <LatitudeDegrees>42.4081162177026271820068359375</LatitudeDegrees>
              <LongitudeDegrees>2.69498697482049465179443359375</LongitudeDegrees>
            </Position>
            <AltitudeMeters>1093.4000244140625</AltitudeMeters>
            <DistanceMeters>NAN</DistanceMeters>
          </Trackpoint>
          <Trackpoint>
            <Time>2021-04-01T13:38:30.000Z</Time>
            <Position>
              <LatitudeDegrees>42.40811412222683429718017578125</LatitudeDegrees>
              <LongitudeDegrees>2.69498236477375030517578125</LongitudeDegrees>
            </Position>
            <AltitudeMeters>1093.5999755859375</AltitudeMeters>
            <DistanceMeters>NAN</DistanceMeters>
          </Trackpoint>
          <Trackpoint>
            <Time>2021-04-01T13:38:31.000Z</Time>
            <Position>
              <LatitudeDegrees>42.40810691379010677337646484375</LatitudeDegrees>
              <LongitudeDegrees>2.6949815265834331512451171875</LongitudeDegrees>
            </Position>
            <AltitudeMeters>1093.5999755859375</AltitudeMeters>
            <DistanceMeters>NAN</DistanceMeters>
          </Trackpoint>
          <Trackpoint>
            <Time>2021-04-01T13:38:32.000Z</Time>
            <Position>
              <LatitudeDegrees>42.40810691379010677337646484375</LatitudeDegrees>
              <LongitudeDegrees>2.6949815265834331512451171875</LongitudeDegrees>
            </Position>
            <AltitudeMeters>1093.800048828125</AltitudeMeters>
            <DistanceMeters>NAN</DistanceMeters>
          </Trackpoint>
          <Trackpoint>
            <Time>2021-04-01T13:38:34.000Z</Time>
            <Position>
              <LatitudeDegrees>42.40810490213334560394287109375</LatitudeDegrees>
              <LongitudeDegrees>2.694983370602130889892578125</LongitudeDegrees>
            </Position>
            <AltitudeMeters>1094</AltitudeMeters>
            <DistanceMeters>NAN</DistanceMeters>
          </Trackpoint>
          <Trackpoint>
            <Time>2021-04-01T13:38:37.000Z</Time>
            <Position>
              <LatitudeDegrees>42.408097274601459503173828125</LatitudeDegrees>
              <LongitudeDegrees>2.69497725181281566619873046875</LongitudeDegrees>
            </Position>
            <AltitudeMeters>1094.5999755859375</AltitudeMeters>
            <DistanceMeters>NAN</DistanceMeters>
          </Trackpoint>
          <Trackpoint>
            <Time>2021-04-01T13:38:38.000Z</Time>
            <Position>
              <LatitudeDegrees>42.4080955982208251953125</LatitudeDegrees>
              <LongitudeDegrees>2.69497607834637165069580078125</LongitudeDegrees>
            </Position>
            <AltitudeMeters>1094.5999755859375</AltitudeMeters>
            <DistanceMeters>NAN</DistanceMeters>
          </Trackpoint>
          <Trackpoint>
            <Time>2021-04-01T13:38:40.000Z</Time>
            <Position>
              <LatitudeDegrees>42.408076487481594085693359375</LatitudeDegrees>
              <LongitudeDegrees>2.69499309360980987548828125</LongitudeDegrees>
            </Position>
            <AltitudeMeters>1094.800048828125</AltitudeMeters>
            <DistanceMeters>NAN</DistanceMeters>
          </Trackpoint>
          <Trackpoint>
            <Time>2021-04-01T13:38:45.000Z</Time>
            <Position>
              <LatitudeDegrees>42.408057041466236114501953125</LatitudeDegrees>
              <LongitudeDegrees>2.69500290043652057647705078125</LongitudeDegrees>
            </Position>
            <AltitudeMeters>1095</AltitudeMeters>
            <DistanceMeters>NAN</DistanceMeters>
          </Trackpoint>
          <Trackpoint>
            <Time>2021-04-01T13:38:46.000Z</Time>
            <Position>
              <LatitudeDegrees>42.40805444307625293731689453125</LatitudeDegrees>
              <LongitudeDegrees>2.69498613663017749786376953125</LongitudeDegrees>
            </Position>
            <AltitudeMeters>1095.199951171875</AltitudeMeters>
            <DistanceMeters>NAN</DistanceMeters>
          </Trackpoint>
          <Trackpoint>
            <Time>2021-04-01T13:38:48.000Z</Time>
            <Position>
              <LatitudeDegrees>42.408055029809474945068359375</LatitudeDegrees>
              <LongitudeDegrees>2.694975323975086212158203125</LongitudeDegrees>
            </Position>
            <AltitudeMeters>1096</AltitudeMeters>
            <DistanceMeters>NAN</DistanceMeters>
          </Trackpoint>
          <Trackpoint>
            <Time>2021-04-01T13:38:50.000Z</Time>
            <Position>
              <LatitudeDegrees>42.40806299261748790740966796875</LatitudeDegrees>
              <LongitudeDegrees>2.69495747052133083343505859375</LongitudeDegrees>
            </Position>
            <AltitudeMeters>1096.4000244140625</AltitudeMeters>
            <DistanceMeters>NAN</DistanceMeters>
          </Trackpoint>
          <Trackpoint>
            <Time>2021-04-01T13:38:52.000Z</Time>
            <Position>
              <LatitudeDegrees>42.40806500427424907684326171875</LatitudeDegrees>
              <LongitudeDegrees>2.69494741223752498626708984375</LongitudeDegrees>
            </Position>
            <AltitudeMeters>1096.800048828125</AltitudeMeters>
            <DistanceMeters>NAN</DistanceMeters>
          </Trackpoint>
          <Trackpoint>
            <Time>2021-04-01T13:38:54.000Z</Time>
            <Position>
              <LatitudeDegrees>42.40805377252399921417236328125</LatitudeDegrees>
              <LongitudeDegrees>2.6949308998882770538330078125</LongitudeDegrees>
            </Position>
            <AltitudeMeters>1097</AltitudeMeters>
            <DistanceMeters>NAN</DistanceMeters>
          </Trackpoint>
          <Trackpoint>
            <Time>2021-04-01T13:38:55.000Z</Time>
            <Position>
              <LatitudeDegrees>42.408048324286937713623046875</LatitudeDegrees>
              <LongitudeDegrees>2.69492863677442073822021484375</LongitudeDegrees>
            </Position>
            <AltitudeMeters>1097.4000244140625</AltitudeMeters>
            <DistanceMeters>NAN</DistanceMeters>
          </Trackpoint>
          <Trackpoint>
            <Time>2021-04-01T13:39:00.000Z</Time>
            <Position>
              <LatitudeDegrees>42.40803818218410015106201171875</LatitudeDegrees>
              <LongitudeDegrees>2.69494347274303436279296875</LongitudeDegrees>
            </Position>
            <AltitudeMeters>1098</AltitudeMeters>
            <DistanceMeters>NAN</DistanceMeters>
          </Trackpoint>
          <Trackpoint>
            <Time>2021-04-01T13:39:03.000Z</Time>
            <Position>
              <LatitudeDegrees>42.4080173112452030181884765625</LatitudeDegrees>
              <LongitudeDegrees>2.69493685103952884674072265625</LongitudeDegrees>
            </Position>
            <AltitudeMeters>1098.199951171875</AltitudeMeters>
            <DistanceMeters>NAN</DistanceMeters>
          </Trackpoint>
          <Trackpoint>
            <Time>2021-04-01T13:39:06.000Z</Time>
            <Position>
              <LatitudeDegrees>42.40800633095204830169677734375</LatitudeDegrees>
              <LongitudeDegrees>2.69492913968861103057861328125</LongitudeDegrees>
            </Position>
            <AltitudeMeters>1098.5999755859375</AltitudeMeters>
            <DistanceMeters>NAN</DistanceMeters>
          </Trackpoint>
          <Trackpoint>
            <Time>2021-04-01T13:39:11.000Z</Time>
            <Position>
              <LatitudeDegrees>42.40799007005989551544189453125</LatitudeDegrees>
              <LongitudeDegrees>2.69491732120513916015625</LongitudeDegrees>
            </Position>
            <AltitudeMeters>1099.5999755859375</AltitudeMeters>
            <DistanceMeters>NAN</DistanceMeters>
          </Trackpoint>
          <Trackpoint>
            <Time>2021-04-01T13:39:12.000Z</Time>
            <Position>
              <LatitudeDegrees>42.40799007005989551544189453125</LatitudeDegrees>
              <LongitudeDegrees>2.69491732120513916015625</LongitudeDegrees>
            </Position>
            <AltitudeMeters>1099.800048828125</AltitudeMeters>
            <DistanceMeters>NAN</DistanceMeters>
          </Trackpoint>
          <Trackpoint>
            <Time>2021-04-01T13:39:18.000Z</Time>
            <Position>
              <LatitudeDegrees>42.4079735577106475830078125</LatitudeDegrees>
              <LongitudeDegrees>2.694898881018161773681640625</LongitudeDegrees>
            </Position>
            <AltitudeMeters>1100.5999755859375</AltitudeMeters>
            <DistanceMeters>NAN</DistanceMeters>
          </Trackpoint>
          <Trackpoint>
            <Time>2021-04-01T13:39:20.000Z</Time>
            <Position>
              <LatitudeDegrees>42.40796886384487152099609375</LatitudeDegrees>
              <LongitudeDegrees>2.69488672725856304168701171875</LongitudeDegrees>
            </Position>
            <AltitudeMeters>1100.5999755859375</AltitudeMeters>
            <DistanceMeters>NAN</DistanceMeters>
          </Trackpoint>
          <Trackpoint>
            <Time>2021-04-01T13:39:22.000Z</Time>
            <Position>
              <LatitudeDegrees>42.4079623259603977203369140625</LatitudeDegrees>
              <LongitudeDegrees>2.694872058928012847900390625</LongitudeDegrees>
            </Position>
            <AltitudeMeters>1100.800048828125</AltitudeMeters>
            <DistanceMeters>NAN</DistanceMeters>
          </Trackpoint>
          <Trackpoint>
            <Time>2021-04-01T13:39:29.000Z</Time>
            <Position>
              <LatitudeDegrees>42.407938353717327117919921875</LatitudeDegrees>
              <LongitudeDegrees>2.69483475945889949798583984375</LongitudeDegrees>
            </Position>
            <AltitudeMeters>1101.5999755859375</AltitudeMeters>
            <DistanceMeters>NAN</DistanceMeters>
          </Trackpoint>
          <Trackpoint>
            <Time>2021-04-01T13:39:33.000Z</Time>
            <Position>
              <LatitudeDegrees>42.40792603231966495513916015625</LatitudeDegrees>
              <LongitudeDegrees>2.69482788629829883575439453125</LongitudeDegrees>
            </Position>
            <AltitudeMeters>1102</AltitudeMeters>
            <DistanceMeters>NAN</DistanceMeters>
          </Trackpoint>
          <Trackpoint>
            <Time>2021-04-01T13:39:38.000Z</Time>
            <Position>
              <LatitudeDegrees>42.4079029820859432220458984375</LatitudeDegrees>
              <LongitudeDegrees>2.69480793736875057220458984375</LongitudeDegrees>
            </Position>
            <AltitudeMeters>1102.800048828125</AltitudeMeters>
            <DistanceMeters>NAN</DistanceMeters>
          </Trackpoint>
          <Trackpoint>
            <Time>2021-04-01T13:39:42.000Z</Time>
            <Position>
              <LatitudeDegrees>42.40788026712834835052490234375</LatitudeDegrees>
              <LongitudeDegrees>2.694790251553058624267578125</LongitudeDegrees>
            </Position>
            <AltitudeMeters>1103</AltitudeMeters>
            <DistanceMeters>NAN</DistanceMeters>
          </Trackpoint>
          <Trackpoint>
            <Time>2021-04-01T13:39:47.000Z</Time>
            <Position>
              <LatitudeDegrees>42.40785227157175540924072265625</LatitudeDegrees>
              <LongitudeDegrees>2.69477575086057186126708984375</LongitudeDegrees>
            </Position>
            <AltitudeMeters>1103.4000244140625</AltitudeMeters>
            <DistanceMeters>NAN</DistanceMeters>
          </Trackpoint>
          <Trackpoint>
            <Time>2021-04-01T13:39:55.000Z</Time>
            <Position>
              <LatitudeDegrees>42.40780751220881938934326171875</LatitudeDegrees>
              <LongitudeDegrees>2.69473283551633358001708984375</LongitudeDegrees>
            </Position>
            <AltitudeMeters>1104.199951171875</AltitudeMeters>
            <DistanceMeters>NAN</DistanceMeters>
          </Trackpoint>
          <Trackpoint>
            <Time>2021-04-01T13:39:56.000Z</Time>
            <Position>
              <LatitudeDegrees>42.40780013613402843475341796875</LatitudeDegrees>
              <LongitudeDegrees>2.69472445361316204071044921875</LongitudeDegrees>
            </Position>
            <AltitudeMeters>1104.4000244140625</AltitudeMeters>
            <DistanceMeters>NAN</DistanceMeters>
          </Trackpoint>
          <Trackpoint>
            <Time>2021-04-01T13:40:01.000Z</Time>
            <Position>
              <LatitudeDegrees>42.407766692340373992919921875</LatitudeDegrees>
              <LongitudeDegrees>2.69468908198177814483642578125</LongitudeDegrees>
            </Position>
            <AltitudeMeters>1104.5999755859375</AltitudeMeters>
            <DistanceMeters>NAN</DistanceMeters>
          </Trackpoint>
          <Trackpoint>
            <Time>2021-04-01T13:40:05.000Z</Time>
            <Position>
              <LatitudeDegrees>42.4077423848211765289306640625</LatitudeDegrees>
              <LongitudeDegrees>2.69465823657810688018798828125</LongitudeDegrees>
            </Position>
            <AltitudeMeters>1105</AltitudeMeters>
            <DistanceMeters>NAN</DistanceMeters>
          </Trackpoint>
          <Trackpoint>
            <Time>2021-04-01T13:40:10.000Z</Time>
            <Position>
              <LatitudeDegrees>42.4077138863503932952880859375</LatitudeDegrees>
              <LongitudeDegrees>2.69464633427560329437255859375</LongitudeDegrees>
            </Position>
            <AltitudeMeters>1105.199951171875</AltitudeMeters>
            <DistanceMeters>NAN</DistanceMeters>
          </Trackpoint>
          <Trackpoint>
            <Time>2021-04-01T13:40:12.000Z</Time>
            <Position>
              <LatitudeDegrees>42.4077048338949680328369140625</LatitudeDegrees>
              <LongitudeDegrees>2.69464482553303241729736328125</LongitudeDegrees>
            </Position>
            <AltitudeMeters>1105.199951171875</AltitudeMeters>
            <DistanceMeters>NAN</DistanceMeters>
          </Trackpoint>
          <Trackpoint>
            <Time>2021-04-01T13:40:14.000Z</Time>
            <Position>
              <LatitudeDegrees>42.407684884965419769287109375</LatitudeDegrees>
              <LongitudeDegrees>2.69463099539279937744140625</LongitudeDegrees>
            </Position>
            <AltitudeMeters>1105.4000244140625</AltitudeMeters>
            <DistanceMeters>NAN</DistanceMeters>
          </Trackpoint>
          <Trackpoint>
            <Time>2021-04-01T13:40:20.000Z</Time>
            <Position>
              <LatitudeDegrees>42.40764825604856014251708984375</LatitudeDegrees>
              <LongitudeDegrees>2.69459721632301807403564453125</LongitudeDegrees>
            </Position>
            <AltitudeMeters>1105.5999755859375</AltitudeMeters>
            <DistanceMeters>NAN</DistanceMeters>
          </Trackpoint>
          <Trackpoint>
            <Time>2021-04-01T13:40:28.000Z</Time>
            <Position>
              <LatitudeDegrees>42.4075770936906337738037109375</LatitudeDegrees>
              <LongitudeDegrees>2.69453669898211956024169921875</LongitudeDegrees>
            </Position>
            <AltitudeMeters>1105.199951171875</AltitudeMeters>
            <DistanceMeters>NAN</DistanceMeters>
          </Trackpoint>
          <Trackpoint>
            <Time>2021-04-01T13:40:31.000Z</Time>
            <Position>
              <LatitudeDegrees>42.4075573123991489410400390625</LatitudeDegrees>
              <LongitudeDegrees>2.69451557658612728118896484375</LongitudeDegrees>
            </Position>
            <AltitudeMeters>1104.800048828125</AltitudeMeters>
            <DistanceMeters>NAN</DistanceMeters>
          </Trackpoint>
          <Trackpoint>
            <Time>2021-04-01T13:40:34.000Z</Time>
            <Position>
              <LatitudeDegrees>42.4075390398502349853515625</LatitudeDegrees>
              <LongitudeDegrees>2.69449026323854923248291015625</LongitudeDegrees>
            </Position>
            <AltitudeMeters>1104.4000244140625</AltitudeMeters>
            <DistanceMeters>NAN</DistanceMeters>
          </Trackpoint>
          <Trackpoint>
            <Time>2021-04-01T13:40:36.000Z</Time>
            <Position>
              <LatitudeDegrees>42.407528646290302276611328125</LatitudeDegrees>
              <LongitudeDegrees>2.6944772712886333465576171875</LongitudeDegrees>
            </Position>
            <AltitudeMeters>1104.199951171875</AltitudeMeters>
            <DistanceMeters>NAN</DistanceMeters>
          </Trackpoint>
          <Trackpoint>
            <Time>2021-04-01T13:40:38.000Z</Time>
            <Position>
              <LatitudeDegrees>42.4075157381594181060791015625</LatitudeDegrees>
              <LongitudeDegrees>2.6944554783403873443603515625</LongitudeDegrees>
            </Position>
            <AltitudeMeters>1103.800048828125</AltitudeMeters>
            <DistanceMeters>NAN</DistanceMeters>
          </Trackpoint>
          <Trackpoint>
            <Time>2021-04-01T13:40:39.000Z</Time>
            <Position>
              <LatitudeDegrees>42.40751213394105434417724609375</LatitudeDegrees>
              <LongitudeDegrees>2.69444500096142292022705078125</LongitudeDegrees>
            </Position>
            <AltitudeMeters>1103.5999755859375</AltitudeMeters>
            <DistanceMeters>NAN</DistanceMeters>
          </Trackpoint>
          <Trackpoint>
            <Time>2021-04-01T13:40:41.000Z</Time>
            <Position>
              <LatitudeDegrees>42.4075033329427242279052734375</LatitudeDegrees>
              <LongitudeDegrees>2.6944289915263652801513671875</LongitudeDegrees>
            </Position>
            <AltitudeMeters>1103.4000244140625</AltitudeMeters>
            <DistanceMeters>NAN</DistanceMeters>
          </Trackpoint>
          <Trackpoint>
            <Time>2021-04-01T13:40:47.000Z</Time>
            <Position>
              <LatitudeDegrees>42.40746620111167430877685546875</LatitudeDegrees>
              <LongitudeDegrees>2.6943917758762836456298828125</LongitudeDegrees>
            </Position>
            <AltitudeMeters>1103.199951171875</AltitudeMeters>
            <DistanceMeters>NAN</DistanceMeters>
          </Trackpoint>
          <Trackpoint>
            <Time>2021-04-01T13:40:49.000Z</Time>
            <Position>
              <LatitudeDegrees>42.4074476771056652069091796875</LatitudeDegrees>
              <LongitudeDegrees>2.69438230432569980621337890625</LongitudeDegrees>
            </Position>
            <AltitudeMeters>1103.199951171875</AltitudeMeters>
            <DistanceMeters>NAN</DistanceMeters>
          </Trackpoint>
          <Trackpoint>
            <Time>2021-04-01T13:40:52.000Z</Time>
            <Position>
              <LatitudeDegrees>42.40741389803588390350341796875</LatitudeDegrees>
              <LongitudeDegrees>2.69437006674706935882568359375</LongitudeDegrees>
            </Position>
            <AltitudeMeters>1103.199951171875</AltitudeMeters>
            <DistanceMeters>NAN</DistanceMeters>
          </Trackpoint>
          <Trackpoint>
            <Time>2021-04-01T13:40:54.000Z</Time>
            <Position>
              <LatitudeDegrees>42.40739864297211170196533203125</LatitudeDegrees>
              <LongitudeDegrees>2.6943562366068363189697265625</LongitudeDegrees>
            </Position>
            <AltitudeMeters>1103.4000244140625</AltitudeMeters>
            <DistanceMeters>NAN</DistanceMeters>
          </Trackpoint>
          <Trackpoint>
            <Time>2021-04-01T13:40:57.000Z</Time>
            <Position>
              <LatitudeDegrees>42.40737936459481716156005859375</LatitudeDegrees>
              <LongitudeDegrees>2.69434257410466670989990234375</LongitudeDegrees>
            </Position>
            <AltitudeMeters>1104</AltitudeMeters>
            <DistanceMeters>NAN</DistanceMeters>
          </Trackpoint>
          <Trackpoint>
            <Time>2021-04-01T13:41:02.000Z</Time>
            <Position>
              <LatitudeDegrees>42.40732605569064617156982421875</LatitudeDegrees>
              <LongitudeDegrees>2.69432262517511844635009765625</LongitudeDegrees>
            </Position>
            <AltitudeMeters>1103.800048828125</AltitudeMeters>
            <DistanceMeters>NAN</DistanceMeters>
          </Trackpoint>
          <Trackpoint>
            <Time>2021-04-01T13:41:05.000Z</Time>
            <Position>
              <LatitudeDegrees>42.407297305762767791748046875</LatitudeDegrees>
              <LongitudeDegrees>2.69431273452937602996826171875</LongitudeDegrees>
            </Position>
            <AltitudeMeters>1103.4000244140625</AltitudeMeters>
            <DistanceMeters>NAN</DistanceMeters>
          </Trackpoint>
          <Trackpoint>
            <Time>2021-04-01T13:41:11.000Z</Time>
            <Position>
              <LatitudeDegrees>42.4072394706308841705322265625</LatitudeDegrees>
              <LongitudeDegrees>2.69428205676376819610595703125</LongitudeDegrees>
            </Position>
            <AltitudeMeters>1102</AltitudeMeters>
            <DistanceMeters>NAN</DistanceMeters>
          </Trackpoint>
          <Trackpoint>
            <Time>2021-04-01T13:41:16.000Z</Time>
            <Position>
              <LatitudeDegrees>42.40718607790768146514892578125</LatitudeDegrees>
              <LongitudeDegrees>2.6942737586796283721923828125</LongitudeDegrees>
            </Position>
            <AltitudeMeters>1101</AltitudeMeters>
            <DistanceMeters>NAN</DistanceMeters>
          </Trackpoint>
          <Trackpoint>
            <Time>2021-04-01T13:41:23.000Z</Time>
            <Position>
              <LatitudeDegrees>42.40710175596177577972412109375</LatitudeDegrees>
              <LongitudeDegrees>2.6942561566829681396484375</LongitudeDegrees>
            </Position>
            <AltitudeMeters>1099.800048828125</AltitudeMeters>
            <DistanceMeters>NAN</DistanceMeters>
          </Trackpoint>
          <Trackpoint>
            <Time>2021-04-01T13:41:26.000Z</Time>
            <Position>
              <LatitudeDegrees>42.40706495940685272216796875</LatitudeDegrees>
              <LongitudeDegrees>2.6942466013133525848388671875</LongitudeDegrees>
            </Position>
            <AltitudeMeters>1099</AltitudeMeters>
            <DistanceMeters>NAN</DistanceMeters>
          </Trackpoint>
          <Trackpoint>
            <Time>2021-04-01T13:41:28.000Z</Time>
            <Position>
              <LatitudeDegrees>42.4070490337908267974853515625</LatitudeDegrees>
              <LongitudeDegrees>2.69424316473305225372314453125</LongitudeDegrees>
            </Position>
            <AltitudeMeters>1098.800048828125</AltitudeMeters>
            <DistanceMeters>NAN</DistanceMeters>
          </Trackpoint>
          <Trackpoint>
            <Time>2021-04-01T13:41:32.000Z</Time>
            <Position>
              <LatitudeDegrees>42.40701659582555294036865234375</LatitudeDegrees>
              <LongitudeDegrees>2.69421516917645931243896484375</LongitudeDegrees>
            </Position>
            <AltitudeMeters>1098.5999755859375</AltitudeMeters>
            <DistanceMeters>NAN</DistanceMeters>
          </Trackpoint>
          <Trackpoint>
            <Time>2021-04-01T13:41:42.000Z</Time>
            <Position>
              <LatitudeDegrees>42.40694467909634113311767578125</LatitudeDegrees>
              <LongitudeDegrees>2.69412129186093807220458984375</LongitudeDegrees>
            </Position>
            <AltitudeMeters>1098.199951171875</AltitudeMeters>
            <DistanceMeters>NAN</DistanceMeters>
          </Trackpoint>
          <Trackpoint>
            <Time>2021-04-01T13:41:49.000Z</Time>
            <Position>
              <LatitudeDegrees>42.40692623890936374664306640625</LatitudeDegrees>
              <LongitudeDegrees>2.69402087666094303131103515625</LongitudeDegrees>
            </Position>
            <AltitudeMeters>1098</AltitudeMeters>
            <DistanceMeters>NAN</DistanceMeters>
          </Trackpoint>
          <Trackpoint>
            <Time>2021-04-01T13:41:52.000Z</Time>
            <Position>
              <LatitudeDegrees>42.4069167673587799072265625</LatitudeDegrees>
              <LongitudeDegrees>2.69398391246795654296875</LongitudeDegrees>
            </Position>
            <AltitudeMeters>1097.800048828125</AltitudeMeters>
            <DistanceMeters>NAN</DistanceMeters>
          </Trackpoint>
          <Trackpoint>
            <Time>2021-04-01T13:41:55.000Z</Time>
            <Position>
              <LatitudeDegrees>42.406901009380817413330078125</LatitudeDegrees>
              <LongitudeDegrees>2.6939478702843189239501953125</LongitudeDegrees>
            </Position>
            <AltitudeMeters>1097.800048828125</AltitudeMeters>
            <DistanceMeters>NAN</DistanceMeters>
          </Trackpoint>
          <Trackpoint>
            <Time>2021-04-01T13:42:01.000Z</Time>
            <Position>
              <LatitudeDegrees>42.40688282065093517303466796875</LatitudeDegrees>
              <LongitudeDegrees>2.6938838325440883636474609375</LongitudeDegrees>
            </Position>
            <AltitudeMeters>1096.5999755859375</AltitudeMeters>
            <DistanceMeters>NAN</DistanceMeters>
          </Trackpoint>
          <Trackpoint>
            <Time>2021-04-01T13:42:03.000Z</Time>
            <Position>
              <LatitudeDegrees>42.4068696610629558563232421875</LatitudeDegrees>
              <LongitudeDegrees>2.69385038875043392181396484375</LongitudeDegrees>
            </Position>
            <AltitudeMeters>1096.199951171875</AltitudeMeters>
            <DistanceMeters>NAN</DistanceMeters>
          </Trackpoint>
          <Trackpoint>
            <Time>2021-04-01T13:42:07.000Z</Time>
            <Position>
              <LatitudeDegrees>42.4068622849881649017333984375</LatitudeDegrees>
              <LongitudeDegrees>2.69380713813006877899169921875</LongitudeDegrees>
            </Position>
            <AltitudeMeters>1095.5999755859375</AltitudeMeters>
            <DistanceMeters>NAN</DistanceMeters>
          </Trackpoint>
          <Trackpoint>
            <Time>2021-04-01T13:42:10.000Z</Time>
            <Position>
              <LatitudeDegrees>42.406851388514041900634765625</LatitudeDegrees>
              <LongitudeDegrees>2.69379171542823314666748046875</LongitudeDegrees>
            </Position>
            <AltitudeMeters>1094.800048828125</AltitudeMeters>
            <DistanceMeters>NAN</DistanceMeters>
          </Trackpoint>
          <Trackpoint>
            <Time>2021-04-01T13:42:11.000Z</Time>
            <Position>
              <LatitudeDegrees>42.40683588199317455291748046875</LatitudeDegrees>
              <LongitudeDegrees>2.69377444870769977569580078125</LongitudeDegrees>
            </Position>
            <AltitudeMeters>1094.5999755859375</AltitudeMeters>
            <DistanceMeters>NAN</DistanceMeters>
          </Trackpoint>
          <Trackpoint>
            <Time>2021-04-01T13:42:12.000Z</Time>
            <Position>
              <LatitudeDegrees>42.40683588199317455291748046875</LatitudeDegrees>
              <LongitudeDegrees>2.69377444870769977569580078125</LongitudeDegrees>
            </Position>
            <AltitudeMeters>1094.4000244140625</AltitudeMeters>
            <DistanceMeters>NAN</DistanceMeters>
          </Trackpoint>
          <Trackpoint>
            <Time>2021-04-01T13:42:16.000Z</Time>
            <Position>
              <LatitudeDegrees>42.4068126641213893890380859375</LatitudeDegrees>
              <LongitudeDegrees>2.69372315146028995513916015625</LongitudeDegrees>
            </Position>
            <AltitudeMeters>1093.4000244140625</AltitudeMeters>
            <DistanceMeters>NAN</DistanceMeters>
          </Trackpoint>
          <Trackpoint>
            <Time>2021-04-01T13:42:19.000Z</Time>
            <Position>
              <LatitudeDegrees>42.40680168382823467254638671875</LatitudeDegrees>
              <LongitudeDegrees>2.69370068795979022979736328125</LongitudeDegrees>
            </Position>
            <AltitudeMeters>1092.800048828125</AltitudeMeters>
            <DistanceMeters>NAN</DistanceMeters>
          </Trackpoint>
          <Trackpoint>
            <Time>2021-04-01T13:42:21.000Z</Time>
            <Position>
              <LatitudeDegrees>42.40679028443992137908935546875</LatitudeDegrees>
              <LongitudeDegrees>2.69366137683391571044921875</LongitudeDegrees>
            </Position>
            <AltitudeMeters>1092.199951171875</AltitudeMeters>
            <DistanceMeters>NAN</DistanceMeters>
          </Trackpoint>
          <Trackpoint>
            <Time>2021-04-01T13:42:25.000Z</Time>
            <Position>
              <LatitudeDegrees>42.4067808128893375396728515625</LatitudeDegrees>
              <LongitudeDegrees>2.69361301325261592864990234375</LongitudeDegrees>
            </Position>
            <AltitudeMeters>1091.199951171875</AltitudeMeters>
            <DistanceMeters>NAN</DistanceMeters>
          </Trackpoint>
          <Trackpoint>
            <Time>2021-04-01T13:42:30.000Z</Time>
            <Position>
              <LatitudeDegrees>42.406774275004863739013671875</LatitudeDegrees>
              <LongitudeDegrees>2.69353372044861316680908203125</LongitudeDegrees>
            </Position>
            <AltitudeMeters>1090.199951171875</AltitudeMeters>
            <DistanceMeters>NAN</DistanceMeters>
          </Trackpoint>
          <Trackpoint>
            <Time>2021-04-01T13:42:34.000Z</Time>
            <Position>
              <LatitudeDegrees>42.4067620374262332916259765625</LatitudeDegrees>
              <LongitudeDegrees>2.693493403494358062744140625</LongitudeDegrees>
            </Position>
            <AltitudeMeters>1089.199951171875</AltitudeMeters>
            <DistanceMeters>NAN</DistanceMeters>
          </Trackpoint>
          <Trackpoint>
            <Time>2021-04-01T13:42:39.000Z</Time>
            <Position>
              <LatitudeDegrees>42.40673772990703582763671875</LatitudeDegrees>
              <LongitudeDegrees>2.693420313298702239990234375</LongitudeDegrees>
            </Position>
            <AltitudeMeters>1088.199951171875</AltitudeMeters>
            <DistanceMeters>NAN</DistanceMeters>
          </Trackpoint>
          <Trackpoint>
            <Time>2021-04-01T13:42:40.000Z</Time>
            <Position>
              <LatitudeDegrees>42.40672708489000797271728515625</LatitudeDegrees>
              <LongitudeDegrees>2.6933933235704898834228515625</LongitudeDegrees>
            </Position>
            <AltitudeMeters>1088</AltitudeMeters>
            <DistanceMeters>NAN</DistanceMeters>
          </Trackpoint>
          <Trackpoint>
            <Time>2021-04-01T13:42:45.000Z</Time>
            <Position>
              <LatitudeDegrees>42.40670763887465000152587890625</LatitudeDegrees>
              <LongitudeDegrees>2.69334596581757068634033203125</LongitudeDegrees>
            </Position>
            <AltitudeMeters>1087</AltitudeMeters>
            <DistanceMeters>NAN</DistanceMeters>
          </Trackpoint>
          <Trackpoint>
            <Time>2021-04-01T13:42:49.000Z</Time>
            <Position>
              <LatitudeDegrees>42.40668333135545253753662109375</LatitudeDegrees>
              <LongitudeDegrees>2.69329416565597057342529296875</LongitudeDegrees>
            </Position>
            <AltitudeMeters>1086</AltitudeMeters>
            <DistanceMeters>NAN</DistanceMeters>
          </Trackpoint>
          <Trackpoint>
            <Time>2021-04-01T13:42:52.000Z</Time>
            <Position>
              <LatitudeDegrees>42.40666958503425121307373046875</LatitudeDegrees>
              <LongitudeDegrees>2.6932583749294281005859375</LongitudeDegrees>
            </Position>
            <AltitudeMeters>1084.800048828125</AltitudeMeters>
            <DistanceMeters>NAN</DistanceMeters>
          </Trackpoint>
          <Trackpoint>
            <Time>2021-04-01T13:42:53.000Z</Time>
            <Position>
              <LatitudeDegrees>42.40666522644460201263427734375</LatitudeDegrees>
              <LongitudeDegrees>2.69324672408401966094970703125</LongitudeDegrees>
            </Position>
            <AltitudeMeters>1084.5999755859375</AltitudeMeters>
            <DistanceMeters>NAN</DistanceMeters>
          </Trackpoint>
          <Trackpoint>
            <Time>2021-04-01T13:42:57.000Z</Time>
            <Position>
              <LatitudeDegrees>42.40665256977081298828125</LatitudeDegrees>
              <LongitudeDegrees>2.69320137798786163330078125</LongitudeDegrees>
            </Position>
            <AltitudeMeters>1083.800048828125</AltitudeMeters>
            <DistanceMeters>NAN</DistanceMeters>
          </Trackpoint>
          <Trackpoint>
            <Time>2021-04-01T13:42:58.000Z</Time>
            <Position>
              <LatitudeDegrees>42.406648211181163787841796875</LatitudeDegrees>
              <LongitudeDegrees>2.69318570382893085479736328125</LongitudeDegrees>
            </Position>
            <AltitudeMeters>1083.5999755859375</AltitudeMeters>
            <DistanceMeters>NAN</DistanceMeters>
          </Trackpoint>
          <Trackpoint>
            <Time>2021-04-01T13:43:03.000Z</Time>
            <Position>
              <LatitudeDegrees>42.4066114984452724456787109375</LatitudeDegrees>
              <LongitudeDegrees>2.69310574047267436981201171875</LongitudeDegrees>
            </Position>
            <AltitudeMeters>1082.800048828125</AltitudeMeters>
            <DistanceMeters>NAN</DistanceMeters>
          </Trackpoint>
          <Trackpoint>
            <Time>2021-04-01T13:43:04.000Z</Time>
            <Position>
              <LatitudeDegrees>42.4066114984452724456787109375</LatitudeDegrees>
              <LongitudeDegrees>2.69310574047267436981201171875</LongitudeDegrees>
            </Position>
            <AltitudeMeters>1082.5999755859375</AltitudeMeters>
            <DistanceMeters>NAN</DistanceMeters>
          </Trackpoint>
          <Trackpoint>
            <Time>2021-04-01T13:43:07.000Z</Time>
            <Position>
              <LatitudeDegrees>42.40659825503826141357421875</LatitudeDegrees>
              <LongitudeDegrees>2.6930724643170833587646484375</LongitudeDegrees>
            </Position>
            <AltitudeMeters>1081.5999755859375</AltitudeMeters>
            <DistanceMeters>NAN</DistanceMeters>
          </Trackpoint>
          <Trackpoint>
            <Time>2021-04-01T13:43:08.000Z</Time>
            <Position>
              <LatitudeDegrees>42.4065935611724853515625</LatitudeDegrees>
              <LongitudeDegrees>2.69306450150907039642333984375</LongitudeDegrees>
            </Position>
            <AltitudeMeters>1081.4000244140625</AltitudeMeters>
            <DistanceMeters>NAN</DistanceMeters>
          </Trackpoint>
          <Trackpoint>
            <Time>2021-04-01T13:43:13.000Z</Time>
            <Position>
              <LatitudeDegrees>42.40655894391238689422607421875</LatitudeDegrees>
              <LongitudeDegrees>2.69301689229905605316162109375</LongitudeDegrees>
            </Position>
            <AltitudeMeters>1080.4000244140625</AltitudeMeters>
            <DistanceMeters>NAN</DistanceMeters>
          </Trackpoint>
          <Trackpoint>
            <Time>2021-04-01T13:43:17.000Z</Time>
            <Position>
              <LatitudeDegrees>42.40653698332607746124267578125</LatitudeDegrees>
              <LongitudeDegrees>2.6929826103150844573974609375</LongitudeDegrees>
            </Position>
            <AltitudeMeters>1079.5999755859375</AltitudeMeters>
            <DistanceMeters>NAN</DistanceMeters>
          </Trackpoint>
          <Trackpoint>
            <Time>2021-04-01T13:43:18.000Z</Time>
            <Position>
              <LatitudeDegrees>42.4065266735851764678955078125</LatitudeDegrees>
              <LongitudeDegrees>2.69297079183161258697509765625</LongitudeDegrees>
            </Position>
            <AltitudeMeters>1079.4000244140625</AltitudeMeters>
            <DistanceMeters>NAN</DistanceMeters>
          </Trackpoint>
          <Trackpoint>
            <Time>2021-04-01T13:43:23.000Z</Time>
            <Position>
              <LatitudeDegrees>42.40648300386965274810791015625</LatitudeDegrees>
              <LongitudeDegrees>2.69290893338620662689208984375</LongitudeDegrees>
            </Position>
            <AltitudeMeters>1078.4000244140625</AltitudeMeters>
            <DistanceMeters>NAN</DistanceMeters>
          </Trackpoint>
          <Trackpoint>
            <Time>2021-04-01T13:43:27.000Z</Time>
            <Position>
              <LatitudeDegrees>42.40643992088735103607177734375</LatitudeDegrees>
              <LongitudeDegrees>2.69287205301225185394287109375</LongitudeDegrees>
            </Position>
            <AltitudeMeters>1077.5999755859375</AltitudeMeters>
            <DistanceMeters>NAN</DistanceMeters>
          </Trackpoint>
          <Trackpoint>
            <Time>2021-04-01T13:43:29.000Z</Time>
            <Position>
              <LatitudeDegrees>42.40642667748034000396728515625</LatitudeDegrees>
              <LongitudeDegrees>2.69285109825432300567626953125</LongitudeDegrees>
            </Position>
            <AltitudeMeters>1077.199951171875</AltitudeMeters>
            <DistanceMeters>NAN</DistanceMeters>
          </Trackpoint>
          <Trackpoint>
            <Time>2021-04-01T13:43:31.000Z</Time>
            <Position>
              <LatitudeDegrees>42.40641896612942218780517578125</LatitudeDegrees>
              <LongitudeDegrees>2.6928300596773624420166015625</LongitudeDegrees>
            </Position>
            <AltitudeMeters>1077.199951171875</AltitudeMeters>
            <DistanceMeters>NAN</DistanceMeters>
          </Trackpoint>
          <Trackpoint>
            <Time>2021-04-01T13:43:34.000Z</Time>
            <Position>
              <LatitudeDegrees>42.4064049683511257171630859375</LatitudeDegrees>
              <LongitudeDegrees>2.69278270192444324493408203125</LongitudeDegrees>
            </Position>
            <AltitudeMeters>1076.800048828125</AltitudeMeters>
            <DistanceMeters>NAN</DistanceMeters>
          </Trackpoint>
          <Trackpoint>
            <Time>2021-04-01T13:43:39.000Z</Time>
            <Position>
              <LatitudeDegrees>42.40639734081923961639404296875</LatitudeDegrees>
              <LongitudeDegrees>2.6927375234663486480712890625</LongitudeDegrees>
            </Position>
            <AltitudeMeters>1076.4000244140625</AltitudeMeters>
            <DistanceMeters>NAN</DistanceMeters>
          </Trackpoint>
          <Trackpoint>
            <Time>2021-04-01T13:43:40.000Z</Time>
            <Position>
              <LatitudeDegrees>42.406392730772495269775390625</LatitudeDegrees>
              <LongitudeDegrees>2.69272662699222564697265625</LongitudeDegrees>
            </Position>
            <AltitudeMeters>1076.199951171875</AltitudeMeters>
            <DistanceMeters>NAN</DistanceMeters>
          </Trackpoint>
          <Trackpoint>
            <Time>2021-04-01T13:43:43.000Z</Time>
            <Position>
              <LatitudeDegrees>42.40638158284127712249755859375</LatitudeDegrees>
              <LongitudeDegrees>2.692700140178203582763671875</LongitudeDegrees>
            </Position>
            <AltitudeMeters>1075.800048828125</AltitudeMeters>
            <DistanceMeters>NAN</DistanceMeters>
          </Trackpoint>
          <Trackpoint>
            <Time>2021-04-01T13:43:47.000Z</Time>
            <Position>
              <LatitudeDegrees>42.4063690938055515289306640625</LatitudeDegrees>
              <LongitudeDegrees>2.6926604099571704864501953125</LongitudeDegrees>
            </Position>
            <AltitudeMeters>1075.4000244140625</AltitudeMeters>
            <DistanceMeters>NAN</DistanceMeters>
          </Trackpoint>
          <Trackpoint>
            <Time>2021-04-01T13:43:48.000Z</Time>
            <Position>
              <LatitudeDegrees>42.40636616013944149017333984375</LatitudeDegrees>
              <LongitudeDegrees>2.692650519311428070068359375</LongitudeDegrees>
            </Position>
            <AltitudeMeters>1075.199951171875</AltitudeMeters>
            <DistanceMeters>NAN</DistanceMeters>
          </Trackpoint>
          <Trackpoint>
            <Time>2021-04-01T13:43:55.000Z</Time>
            <Position>
              <LatitudeDegrees>42.40633497945964336395263671875</LatitudeDegrees>
              <LongitudeDegrees>2.692548595368862152099609375</LongitudeDegrees>
            </Position>
            <AltitudeMeters>1074.4000244140625</AltitudeMeters>
            <DistanceMeters>NAN</DistanceMeters>
          </Trackpoint>
          <Trackpoint>
            <Time>2021-04-01T13:43:56.000Z</Time>
            <Position>
              <LatitudeDegrees>42.40633497945964336395263671875</LatitudeDegrees>
              <LongitudeDegrees>2.692548595368862152099609375</LongitudeDegrees>
            </Position>
            <AltitudeMeters>1074.4000244140625</AltitudeMeters>
            <DistanceMeters>NAN</DistanceMeters>
          </Trackpoint>
          <Trackpoint>
            <Time>2021-04-01T13:43:58.000Z</Time>
            <Position>
              <LatitudeDegrees>42.40632307715713977813720703125</LatitudeDegrees>
              <LongitudeDegrees>2.6925340108573436737060546875</LongitudeDegrees>
            </Position>
            <AltitudeMeters>1074</AltitudeMeters>
            <DistanceMeters>NAN</DistanceMeters>
          </Trackpoint>
          <Trackpoint>
            <Time>2021-04-01T13:44:04.000Z</Time>
            <Position>
              <LatitudeDegrees>42.40630027838051319122314453125</LatitudeDegrees>
              <LongitudeDegrees>2.6924672909080982208251953125</LongitudeDegrees>
            </Position>
            <AltitudeMeters>1073</AltitudeMeters>
            <DistanceMeters>NAN</DistanceMeters>
          </Trackpoint>
          <Trackpoint>
            <Time>2021-04-01T13:44:05.000Z</Time>
            <Position>
              <LatitudeDegrees>42.40629516541957855224609375</LatitudeDegrees>
              <LongitudeDegrees>2.6924371160566806793212890625</LongitudeDegrees>
            </Position>
            <AltitudeMeters>1072.800048828125</AltitudeMeters>
            <DistanceMeters>NAN</DistanceMeters>
          </Trackpoint>
          <Trackpoint>
            <Time>2021-04-01T13:44:06.000Z</Time>
            <Position>
              <LatitudeDegrees>42.40629516541957855224609375</LatitudeDegrees>
              <LongitudeDegrees>2.6924371160566806793212890625</LongitudeDegrees>
            </Position>
            <AltitudeMeters>1072.199951171875</AltitudeMeters>
            <DistanceMeters>NAN</DistanceMeters>
          </Trackpoint>
          <Trackpoint>
            <Time>2021-04-01T13:44:07.000Z</Time>
            <Position>
              <LatitudeDegrees>42.40629306994378566741943359375</LatitudeDegrees>
              <LongitudeDegrees>2.69242085516452789306640625</LongitudeDegrees>
            </Position>
            <AltitudeMeters>1071.800048828125</AltitudeMeters>
            <DistanceMeters>NAN</DistanceMeters>
          </Trackpoint>
          <Trackpoint>
            <Time>2021-04-01T13:44:08.000Z</Time>
            <Position>
              <LatitudeDegrees>42.40628485567867755889892578125</LatitudeDegrees>
              <LongitudeDegrees>2.69238875247538089752197265625</LongitudeDegrees>
            </Position>
            <AltitudeMeters>1071.5999755859375</AltitudeMeters>
            <DistanceMeters>NAN</DistanceMeters>
          </Trackpoint>
          <Trackpoint>
            <Time>2021-04-01T13:44:09.000Z</Time>
            <Position>
              <LatitudeDegrees>42.40628384985029697418212890625</LatitudeDegrees>
              <LongitudeDegrees>2.69237366504967212677001953125</LongitudeDegrees>
            </Position>
            <AltitudeMeters>1071.199951171875</AltitudeMeters>
            <DistanceMeters>NAN</DistanceMeters>
          </Trackpoint>
          <Trackpoint>
            <Time>2021-04-01T13:44:11.000Z</Time>
            <Position>
              <LatitudeDegrees>42.406279742717742919921875</LatitudeDegrees>
              <LongitudeDegrees>2.69236184656620025634765625</LongitudeDegrees>
            </Position>
            <AltitudeMeters>1070.800048828125</AltitudeMeters>
            <DistanceMeters>NAN</DistanceMeters>
          </Trackpoint>
          <Trackpoint>
            <Time>2021-04-01T13:44:15.000Z</Time>
            <Position>
              <LatitudeDegrees>42.40627278573811054229736328125</LatitudeDegrees>
              <LongitudeDegrees>2.69232831895351409912109375</LongitudeDegrees>
            </Position>
            <AltitudeMeters>1069.5999755859375</AltitudeMeters>
            <DistanceMeters>NAN</DistanceMeters>
          </Trackpoint>
          <Trackpoint>
            <Time>2021-04-01T13:44:20.000Z</Time>
            <Position>
              <LatitudeDegrees>42.40625225007534027099609375</LatitudeDegrees>
              <LongitudeDegrees>2.6922781951725482940673828125</LongitudeDegrees>
            </Position>
            <AltitudeMeters>1068.5999755859375</AltitudeMeters>
            <DistanceMeters>NAN</DistanceMeters>
          </Trackpoint>
          <Trackpoint>
            <Time>2021-04-01T13:44:24.000Z</Time>
            <Position>
              <LatitudeDegrees>42.40620824508368968963623046875</LatitudeDegrees>
              <LongitudeDegrees>2.692246176302433013916015625</LongitudeDegrees>
            </Position>
            <AltitudeMeters>1068.199951171875</AltitudeMeters>
            <DistanceMeters>NAN</DistanceMeters>
          </Trackpoint>
          <Trackpoint>
            <Time>2021-04-01T13:44:27.000Z</Time>
            <Position>
              <LatitudeDegrees>42.4061970971524715423583984375</LatitudeDegrees>
              <LongitudeDegrees>2.6922346092760562896728515625</LongitudeDegrees>
            </Position>
            <AltitudeMeters>1067.5999755859375</AltitudeMeters>
            <DistanceMeters>NAN</DistanceMeters>
          </Trackpoint>
          <Trackpoint>
            <Time>2021-04-01T13:44:32.000Z</Time>
            <Position>
              <LatitudeDegrees>42.4061622284352779388427734375</LatitudeDegrees>
              <LongitudeDegrees>2.69215405918657779693603515625</LongitudeDegrees>
            </Position>
            <AltitudeMeters>1066.4000244140625</AltitudeMeters>
            <DistanceMeters>NAN</DistanceMeters>
          </Trackpoint>
          <Trackpoint>
            <Time>2021-04-01T13:44:34.000Z</Time>
            <Position>
              <LatitudeDegrees>42.40615837275981903076171875</LatitudeDegrees>
              <LongitudeDegrees>2.6921398937702178955078125</LongitudeDegrees>
            </Position>
            <AltitudeMeters>1065.5999755859375</AltitudeMeters>
            <DistanceMeters>NAN</DistanceMeters>
          </Trackpoint>
          <Trackpoint>
            <Time>2021-04-01T13:44:35.000Z</Time>
            <Position>
              <LatitudeDegrees>42.40615560673177242279052734375</LatitudeDegrees>
              <LongitudeDegrees>2.69212723709642887115478515625</LongitudeDegrees>
            </Position>
            <AltitudeMeters>1065.4000244140625</AltitudeMeters>
            <DistanceMeters>NAN</DistanceMeters>
          </Trackpoint>
          <Trackpoint>
            <Time>2021-04-01T13:44:36.000Z</Time>
            <Position>
              <LatitudeDegrees>42.40615560673177242279052734375</LatitudeDegrees>
              <LongitudeDegrees>2.6921155862510204315185546875</LongitudeDegrees>
            </Position>
            <AltitudeMeters>1065.4000244140625</AltitudeMeters>
            <DistanceMeters>NAN</DistanceMeters>
          </Trackpoint>
          <Trackpoint>
            <Time>2021-04-01T13:44:41.000Z</Time>
            <Position>
              <LatitudeDegrees>42.40615007467567920684814453125</LatitudeDegrees>
              <LongitudeDegrees>2.692057080566883087158203125</LongitudeDegrees>
            </Position>
            <AltitudeMeters>1064.800048828125</AltitudeMeters>
            <DistanceMeters>NAN</DistanceMeters>
          </Trackpoint>
          <Trackpoint>
            <Time>2021-04-01T13:44:44.000Z</Time>
            <Position>
              <LatitudeDegrees>42.40614487789571285247802734375</LatitudeDegrees>
              <LongitudeDegrees>2.692014835774898529052734375</LongitudeDegrees>
            </Position>
            <AltitudeMeters>1064.199951171875</AltitudeMeters>
            <DistanceMeters>NAN</DistanceMeters>
          </Trackpoint>
          <Trackpoint>
            <Time>2021-04-01T13:44:45.000Z</Time>
            <Position>
              <LatitudeDegrees>42.40614487789571285247802734375</LatitudeDegrees>
              <LongitudeDegrees>2.692014835774898529052734375</LongitudeDegrees>
            </Position>
            <AltitudeMeters>1064.199951171875</AltitudeMeters>
            <DistanceMeters>NAN</DistanceMeters>
          </Trackpoint>
          <Trackpoint>
            <Time>2021-04-01T13:44:46.000Z</Time>
            <Position>
              <LatitudeDegrees>42.40614739246666431427001953125</LatitudeDegrees>
              <LongitudeDegrees>2.6920031011104583740234375</LongitudeDegrees>
            </Position>
            <AltitudeMeters>1064</AltitudeMeters>
            <DistanceMeters>NAN</DistanceMeters>
          </Trackpoint>
          <Trackpoint>
            <Time>2021-04-01T13:44:50.000Z</Time>
            <Position>
              <LatitudeDegrees>42.40616105496883392333984375</LatitudeDegrees>
              <LongitudeDegrees>2.69194669090211391448974609375</LongitudeDegrees>
            </Position>
            <AltitudeMeters>1064</AltitudeMeters>
            <DistanceMeters>NAN</DistanceMeters>
          </Trackpoint>
          <Trackpoint>
            <Time>2021-04-01T13:44:54.000Z</Time>
            <Position>
              <LatitudeDegrees>42.40616507828235626220703125</LatitudeDegrees>
              <LongitudeDegrees>2.69191517494618892669677734375</LongitudeDegrees>
            </Position>
            <AltitudeMeters>1063.199951171875</AltitudeMeters>
            <DistanceMeters>NAN</DistanceMeters>
          </Trackpoint>
          <Trackpoint>
            <Time>2021-04-01T13:44:58.000Z</Time>
            <Position>
              <LatitudeDegrees>42.40615904331207275390625</LatitudeDegrees>
              <LongitudeDegrees>2.69185599870979785919189453125</LongitudeDegrees>
            </Position>
            <AltitudeMeters>1062.4000244140625</AltitudeMeters>
            <DistanceMeters>NAN</DistanceMeters>
          </Trackpoint>
          <Trackpoint>
            <Time>2021-04-01T13:44:59.000Z</Time>
            <Position>
              <LatitudeDegrees>42.4061528407037258148193359375</LatitudeDegrees>
              <LongitudeDegrees>2.69184007309377193450927734375</LongitudeDegrees>
            </Position>
            <AltitudeMeters>1062.199951171875</AltitudeMeters>
            <DistanceMeters>NAN</DistanceMeters>
          </Trackpoint>
          <Trackpoint>
            <Time>2021-04-01T13:45:02.000Z</Time>
            <Position>
              <LatitudeDegrees>42.40613549016416072845458984375</LatitudeDegrees>
              <LongitudeDegrees>2.691815011203289031982421875</LongitudeDegrees>
            </Position>
            <AltitudeMeters>1061.800048828125</AltitudeMeters>
            <DistanceMeters>NAN</DistanceMeters>
          </Trackpoint>
          <Trackpoint>
            <Time>2021-04-01T13:45:04.000Z</Time>
            <Position>
              <LatitudeDegrees>42.4061384238302707672119140625</LatitudeDegrees>
              <LongitudeDegrees>2.691781818866729736328125</LongitudeDegrees>
            </Position>
            <AltitudeMeters>1061.4000244140625</AltitudeMeters>
            <DistanceMeters>NAN</DistanceMeters>
          </Trackpoint>
          <Trackpoint>
            <Time>2021-04-01T13:45:05.000Z</Time>
            <Position>
              <LatitudeDegrees>42.4061380885541439056396484375</LatitudeDegrees>
              <LongitudeDegrees>2.6917724311351776123046875</LongitudeDegrees>
            </Position>
            <AltitudeMeters>1061</AltitudeMeters>
            <DistanceMeters>NAN</DistanceMeters>
          </Trackpoint>
          <Trackpoint>
            <Time>2021-04-01T13:45:06.000Z</Time>
            <Position>
              <LatitudeDegrees>42.40613834001123905181884765625</LatitudeDegrees>
              <LongitudeDegrees>2.69175994209945201873779296875</LongitudeDegrees>
            </Position>
            <AltitudeMeters>1060.5999755859375</AltitudeMeters>
            <DistanceMeters>NAN</DistanceMeters>
          </Trackpoint>
          <Trackpoint>
            <Time>2021-04-01T13:45:09.000Z</Time>
            <Position>
              <LatitudeDegrees>42.406139932572841644287109375</LatitudeDegrees>
              <LongitudeDegrees>2.6917367242276668548583984375</LongitudeDegrees>
            </Position>
            <AltitudeMeters>1060.199951171875</AltitudeMeters>
            <DistanceMeters>NAN</DistanceMeters>
          </Trackpoint>
          <Trackpoint>
            <Time>2021-04-01T13:45:12.000Z</Time>
            <Position>
              <LatitudeDegrees>42.40614336915314197540283203125</LatitudeDegrees>
              <LongitudeDegrees>2.69170026294887065887451171875</LongitudeDegrees>
            </Position>
            <AltitudeMeters>1059.800048828125</AltitudeMeters>
            <DistanceMeters>NAN</DistanceMeters>
          </Trackpoint>
          <Trackpoint>
            <Time>2021-04-01T13:45:15.000Z</Time>
            <Position>
              <LatitudeDegrees>42.40614588372409343719482421875</LatitudeDegrees>
              <LongitudeDegrees>2.6916559226810932159423828125</LongitudeDegrees>
            </Position>
            <AltitudeMeters>1059.199951171875</AltitudeMeters>
            <DistanceMeters>NAN</DistanceMeters>
          </Trackpoint>
          <Trackpoint>
            <Time>2021-04-01T13:45:17.000Z</Time>
            <Position>
              <LatitudeDegrees>42.40614538080990314483642578125</LatitudeDegrees>
              <LongitudeDegrees>2.6916404999792575836181640625</LongitudeDegrees>
            </Position>
            <AltitudeMeters>1058.800048828125</AltitudeMeters>
            <DistanceMeters>NAN</DistanceMeters>
          </Trackpoint>
          <Trackpoint>
            <Time>2021-04-01T13:45:20.000Z</Time>
            <Position>
              <LatitudeDegrees>42.4061528407037258148193359375</LatitudeDegrees>
              <LongitudeDegrees>2.69159481860697269439697265625</LongitudeDegrees>
            </Position>
            <AltitudeMeters>1058.4000244140625</AltitudeMeters>
            <DistanceMeters>NAN</DistanceMeters>
          </Trackpoint>
          <Trackpoint>
            <Time>2021-04-01T13:45:24.000Z</Time>
            <Position>
              <LatitudeDegrees>42.4061578698456287384033203125</LatitudeDegrees>
              <LongitudeDegrees>2.69155307672917842864990234375</LongitudeDegrees>
            </Position>
            <AltitudeMeters>1057.5999755859375</AltitudeMeters>
            <DistanceMeters>NAN</DistanceMeters>
          </Trackpoint>
          <Trackpoint>
            <Time>2021-04-01T13:45:29.000Z</Time>
            <Position>
              <LatitudeDegrees>42.40615594200789928436279296875</LatitudeDegrees>
              <LongitudeDegrees>2.6914852671325206756591796875</LongitudeDegrees>
            </Position>
            <AltitudeMeters>1056.5999755859375</AltitudeMeters>
            <DistanceMeters>NAN</DistanceMeters>
          </Trackpoint>
          <Trackpoint>
            <Time>2021-04-01T13:45:34.000Z</Time>
            <Position>
              <LatitudeDegrees>42.4061528407037258148193359375</LatitudeDegrees>
              <LongitudeDegrees>2.6914071477949619293212890625</LongitudeDegrees>
            </Position>
            <AltitudeMeters>1055.4000244140625</AltitudeMeters>
            <DistanceMeters>NAN</DistanceMeters>
          </Trackpoint>
          <Trackpoint>
            <Time>2021-04-01T13:45:35.000Z</Time>
            <Position>
              <LatitudeDegrees>42.40616373717784881591796875</LatitudeDegrees>
              <LongitudeDegrees>2.6914031244814395904541015625</LongitudeDegrees>
            </Position>
            <AltitudeMeters>1055.199951171875</AltitudeMeters>
            <DistanceMeters>NAN</DistanceMeters>
          </Trackpoint>
          <Trackpoint>
            <Time>2021-04-01T13:45:38.000Z</Time>
            <Position>
              <LatitudeDegrees>42.40618041716516017913818359375</LatitudeDegrees>
              <LongitudeDegrees>2.69136984832584857940673828125</LongitudeDegrees>
            </Position>
            <AltitudeMeters>1054.800048828125</AltitudeMeters>
            <DistanceMeters>NAN</DistanceMeters>
          </Trackpoint>
          <Trackpoint>
            <Time>2021-04-01T13:45:40.000Z</Time>
            <Position>
              <LatitudeDegrees>42.40618385374546051025390625</LatitudeDegrees>
              <LongitudeDegrees>2.69133866764605045318603515625</LongitudeDegrees>
            </Position>
            <AltitudeMeters>1054.5999755859375</AltitudeMeters>
            <DistanceMeters>NAN</DistanceMeters>
          </Trackpoint>
          <Trackpoint>
            <Time>2021-04-01T13:45:41.000Z</Time>
            <Position>
              <LatitudeDegrees>42.40618259645998477935791015625</LatitudeDegrees>
              <LongitudeDegrees>2.691330201923847198486328125</LongitudeDegrees>
            </Position>
            <AltitudeMeters>1054.5999755859375</AltitudeMeters>
            <DistanceMeters>NAN</DistanceMeters>
          </Trackpoint>
          <Trackpoint>
            <Time>2021-04-01T13:45:44.000Z</Time>
            <Position>
              <LatitudeDegrees>42.406199611723423004150390625</LatitudeDegrees>
              <LongitudeDegrees>2.69131578505039215087890625</LongitudeDegrees>
            </Position>
            <AltitudeMeters>1054.4000244140625</AltitudeMeters>
            <DistanceMeters>NAN</DistanceMeters>
          </Trackpoint>
          <Trackpoint>
            <Time>2021-04-01T13:45:46.000Z</Time>
            <Position>
              <LatitudeDegrees>42.4062038026750087738037109375</LatitudeDegrees>
              <LongitudeDegrees>2.6912948302924633026123046875</LongitudeDegrees>
            </Position>
            <AltitudeMeters>1054</AltitudeMeters>
            <DistanceMeters>NAN</DistanceMeters>
          </Trackpoint>
          <Trackpoint>
            <Time>2021-04-01T13:45:49.000Z</Time>
            <Position>
              <LatitudeDegrees>42.4062121845781803131103515625</LatitudeDegrees>
              <LongitudeDegrees>2.6912767253816127777099609375</LongitudeDegrees>
            </Position>
            <AltitudeMeters>1053.5999755859375</AltitudeMeters>
            <DistanceMeters>NAN</DistanceMeters>
          </Trackpoint>
          <Trackpoint>
            <Time>2021-04-01T13:45:51.000Z</Time>
            <Position>
              <LatitudeDegrees>42.4061957560479640960693359375</LatitudeDegrees>
              <LongitudeDegrees>2.69124604761600494384765625</LongitudeDegrees>
            </Position>
            <AltitudeMeters>1053.199951171875</AltitudeMeters>
            <DistanceMeters>NAN</DistanceMeters>
          </Trackpoint>
          <Trackpoint>
            <Time>2021-04-01T13:45:52.000Z</Time>
            <Position>
              <LatitudeDegrees>42.4061944149434566497802734375</LatitudeDegrees>
              <LongitudeDegrees>2.6912334747612476348876953125</LongitudeDegrees>
            </Position>
            <AltitudeMeters>1053.199951171875</AltitudeMeters>
            <DistanceMeters>NAN</DistanceMeters>
          </Trackpoint>
          <Trackpoint>
            <Time>2021-04-01T13:45:57.000Z</Time>
            <Position>
              <LatitudeDegrees>42.40617119707167148590087890625</LatitudeDegrees>
              <LongitudeDegrees>2.69115149974822998046875</LongitudeDegrees>
            </Position>
            <AltitudeMeters>1053</AltitudeMeters>
            <DistanceMeters>NAN</DistanceMeters>
          </Trackpoint>
          <Trackpoint>
            <Time>2021-04-01T13:46:00.000Z</Time>
            <Position>
              <LatitudeDegrees>42.40614831447601318359375</LatitudeDegrees>
              <LongitudeDegrees>2.69109710119664669036865234375</LongitudeDegrees>
            </Position>
            <AltitudeMeters>1052.199951171875</AltitudeMeters>
            <DistanceMeters>NAN</DistanceMeters>
          </Trackpoint>
          <Trackpoint>
            <Time>2021-04-01T13:46:01.000Z</Time>
            <Position>
              <LatitudeDegrees>42.40614269860088825225830078125</LatitudeDegrees>
              <LongitudeDegrees>2.6910872943699359893798828125</LongitudeDegrees>
            </Position>
            <AltitudeMeters>1052.199951171875</AltitudeMeters>
            <DistanceMeters>NAN</DistanceMeters>
          </Trackpoint>
          <Trackpoint>
            <Time>2021-04-01T13:46:05.000Z</Time>
            <Position>
              <LatitudeDegrees>42.40614504553377628326416015625</LatitudeDegrees>
              <LongitudeDegrees>2.69103557802736759185791015625</LongitudeDegrees>
            </Position>
            <AltitudeMeters>1051.199951171875</AltitudeMeters>
            <DistanceMeters>NAN</DistanceMeters>
          </Trackpoint>
          <Trackpoint>
            <Time>2021-04-01T13:46:07.000Z</Time>
            <Position>
              <LatitudeDegrees>42.40615300834178924560546875</LatitudeDegrees>
              <LongitudeDegrees>2.69100992940366268157958984375</LongitudeDegrees>
            </Position>
            <AltitudeMeters>1051</AltitudeMeters>
            <DistanceMeters>NAN</DistanceMeters>
          </Trackpoint>
          <Trackpoint>
            <Time>2021-04-01T13:46:10.000Z</Time>
            <Position>
              <LatitudeDegrees>42.40616482682526111602783203125</LatitudeDegrees>
              <LongitudeDegrees>2.69097640179097652435302734375</LongitudeDegrees>
            </Position>
            <AltitudeMeters>1051</AltitudeMeters>
            <DistanceMeters>NAN</DistanceMeters>
          </Trackpoint>
          <Trackpoint>
            <Time>2021-04-01T13:46:12.000Z</Time>
            <Position>
              <LatitudeDegrees>42.4061726219952106475830078125</LatitudeDegrees>
              <LongitudeDegrees>2.6909572072327136993408203125</LongitudeDegrees>
            </Position>
            <AltitudeMeters>1051</AltitudeMeters>
            <DistanceMeters>NAN</DistanceMeters>
          </Trackpoint>
          <Trackpoint>
            <Time>2021-04-01T13:46:14.000Z</Time>
            <Position>
              <LatitudeDegrees>42.40618997253477573394775390625</LatitudeDegrees>
              <LongitudeDegrees>2.69095192663371562957763671875</LongitudeDegrees>
            </Position>
            <AltitudeMeters>1050.800048828125</AltitudeMeters>
            <DistanceMeters>NAN</DistanceMeters>
          </Trackpoint>
          <Trackpoint>
            <Time>2021-04-01T13:46:18.000Z</Time>
            <Position>
              <LatitudeDegrees>42.40620933473110198974609375</LatitudeDegrees>
              <LongitudeDegrees>2.69091404043138027191162109375</LongitudeDegrees>
            </Position>
            <AltitudeMeters>1050.199951171875</AltitudeMeters>
            <DistanceMeters>NAN</DistanceMeters>
          </Trackpoint>
          <Trackpoint>
            <Time>2021-04-01T13:46:20.000Z</Time>
            <Position>
              <LatitudeDegrees>42.40620941855013370513916015625</LatitudeDegrees>
              <LongitudeDegrees>2.690876908600330352783203125</LongitudeDegrees>
            </Position>
            <AltitudeMeters>1050.199951171875</AltitudeMeters>
            <DistanceMeters>NAN</DistanceMeters>
          </Trackpoint>
          <Trackpoint>
            <Time>2021-04-01T13:46:22.000Z</Time>
            <Position>
              <LatitudeDegrees>42.4062098376452922821044921875</LatitudeDegrees>
              <LongitudeDegrees>2.690849415957927703857421875</LongitudeDegrees>
            </Position>
            <AltitudeMeters>1050</AltitudeMeters>
            <DistanceMeters>NAN</DistanceMeters>
          </Trackpoint>
          <Trackpoint>
            <Time>2021-04-01T13:46:27.000Z</Time>
            <Position>
              <LatitudeDegrees>42.4062011204659938812255859375</LatitudeDegrees>
              <LongitudeDegrees>2.69077758304774761199951171875</LongitudeDegrees>
            </Position>
            <AltitudeMeters>1050</AltitudeMeters>
            <DistanceMeters>NAN</DistanceMeters>
          </Trackpoint>
          <Trackpoint>
            <Time>2021-04-01T13:46:29.000Z</Time>
            <Position>
              <LatitudeDegrees>42.40620036609470844268798828125</LatitudeDegrees>
              <LongitudeDegrees>2.690748162567615509033203125</LongitudeDegrees>
            </Position>
            <AltitudeMeters>1050.199951171875</AltitudeMeters>
            <DistanceMeters>NAN</DistanceMeters>
          </Trackpoint>
          <Trackpoint>
            <Time>2021-04-01T13:46:37.000Z</Time>
            <Position>
              <LatitudeDegrees>42.4061856977641582489013671875</LatitudeDegrees>
              <LongitudeDegrees>2.6906702108681201934814453125</LongitudeDegrees>
            </Position>
            <AltitudeMeters>1050.5999755859375</AltitudeMeters>
            <DistanceMeters>NAN</DistanceMeters>
          </Trackpoint>
          <Trackpoint>
            <Time>2021-04-01T13:46:43.000Z</Time>
            <Position>
              <LatitudeDegrees>42.40615862421691417694091796875</LatitudeDegrees>
              <LongitudeDegrees>2.69059024751186370849609375</LongitudeDegrees>
            </Position>
            <AltitudeMeters>1050.5999755859375</AltitudeMeters>
            <DistanceMeters>NAN</DistanceMeters>
          </Trackpoint>
          <Trackpoint>
            <Time>2021-04-01T13:46:46.000Z</Time>
            <Position>
              <LatitudeDegrees>42.40614420734345912933349609375</LatitudeDegrees>
              <LongitudeDegrees>2.69055345095694065093994140625</LongitudeDegrees>
            </Position>
            <AltitudeMeters>1050.199951171875</AltitudeMeters>
            <DistanceMeters>NAN</DistanceMeters>
          </Trackpoint>
          <Trackpoint>
            <Time>2021-04-01T13:46:51.000Z</Time>
            <Position>
              <LatitudeDegrees>42.4061186425387859344482421875</LatitudeDegrees>
              <LongitudeDegrees>2.69048103131353855133056640625</LongitudeDegrees>
            </Position>
            <AltitudeMeters>1049.800048828125</AltitudeMeters>
            <DistanceMeters>NAN</DistanceMeters>
          </Trackpoint>
          <Trackpoint>
            <Time>2021-04-01T13:46:54.000Z</Time>
            <Position>
              <LatitudeDegrees>42.40611939691007137298583984375</LatitudeDegrees>
              <LongitudeDegrees>2.69043610431253910064697265625</LongitudeDegrees>
            </Position>
            <AltitudeMeters>1049.800048828125</AltitudeMeters>
            <DistanceMeters>NAN</DistanceMeters>
          </Trackpoint>
          <Trackpoint>
            <Time>2021-04-01T13:46:57.000Z</Time>
            <Position>
              <LatitudeDegrees>42.40611922927200794219970703125</LatitudeDegrees>
              <LongitudeDegrees>2.69039712846279144287109375</LongitudeDegrees>
            </Position>
            <AltitudeMeters>1049.5999755859375</AltitudeMeters>
            <DistanceMeters>NAN</DistanceMeters>
          </Trackpoint>
          <Trackpoint>
            <Time>2021-04-01T13:47:03.000Z</Time>
            <Position>
              <LatitudeDegrees>42.40612350404262542724609375</LatitudeDegrees>
              <LongitudeDegrees>2.690347172319889068603515625</LongitudeDegrees>
            </Position>
            <AltitudeMeters>1049.5999755859375</AltitudeMeters>
            <DistanceMeters>NAN</DistanceMeters>
          </Trackpoint>
          <Trackpoint>
            <Time>2021-04-01T13:47:06.000Z</Time>
            <Position>
              <LatitudeDegrees>42.406128533184528350830078125</LatitudeDegrees>
              <LongitudeDegrees>2.69033552147448062896728515625</LongitudeDegrees>
            </Position>
            <AltitudeMeters>1049.800048828125</AltitudeMeters>
            <DistanceMeters>NAN</DistanceMeters>
          </Trackpoint>
          <Trackpoint>
            <Time>2021-04-01T13:47:13.000Z</Time>
            <Position>
              <LatitudeDegrees>42.4061159603297710418701171875</LatitudeDegrees>
              <LongitudeDegrees>2.6902796141803264617919921875</LongitudeDegrees>
            </Position>
            <AltitudeMeters>1050.199951171875</AltitudeMeters>
            <DistanceMeters>NAN</DistanceMeters>
          </Trackpoint>
          <Trackpoint>
            <Time>2021-04-01T13:47:21.000Z</Time>
            <Position>
              <LatitudeDegrees>42.40613347850739955902099609375</LatitudeDegrees>
              <LongitudeDegrees>2.690184228122234344482421875</LongitudeDegrees>
            </Position>
            <AltitudeMeters>1050.4000244140625</AltitudeMeters>
            <DistanceMeters>NAN</DistanceMeters>
          </Trackpoint>
          <Trackpoint>
            <Time>2021-04-01T13:47:25.000Z</Time>
            <Position>
              <LatitudeDegrees>42.40614018402993679046630859375</LatitudeDegrees>
              <LongitudeDegrees>2.6901495270431041717529296875</LongitudeDegrees>
            </Position>
            <AltitudeMeters>1050.800048828125</AltitudeMeters>
            <DistanceMeters>NAN</DistanceMeters>
          </Trackpoint>
          <Trackpoint>
            <Time>2021-04-01T13:47:30.000Z</Time>
            <Position>
              <LatitudeDegrees>42.40615493617951869964599609375</LatitudeDegrees>
              <LongitudeDegrees>2.69006780348718166351318359375</LongitudeDegrees>
            </Position>
            <AltitudeMeters>1051</AltitudeMeters>
            <DistanceMeters>NAN</DistanceMeters>
          </Trackpoint>
          <Trackpoint>
            <Time>2021-04-01T13:47:32.000Z</Time>
            <Position>
              <LatitudeDegrees>42.40615971386432647705078125</LatitudeDegrees>
              <LongitudeDegrees>2.6900402270257472991943359375</LongitudeDegrees>
            </Position>
            <AltitudeMeters>1051.199951171875</AltitudeMeters>
            <DistanceMeters>NAN</DistanceMeters>
          </Trackpoint>
          <Trackpoint>
            <Time>2021-04-01T13:47:41.000Z</Time>
            <Position>
              <LatitudeDegrees>42.4061518348753452301025390625</LatitudeDegrees>
              <LongitudeDegrees>2.68993855454027652740478515625</LongitudeDegrees>
            </Position>
            <AltitudeMeters>1051.4000244140625</AltitudeMeters>
            <DistanceMeters>NAN</DistanceMeters>
          </Trackpoint>
          <Trackpoint>
            <Time>2021-04-01T13:47:53.000Z</Time>
            <Position>
              <LatitudeDegrees>42.40612811408936977386474609375</LatitudeDegrees>
              <LongitudeDegrees>2.68978164531290531158447265625</LongitudeDegrees>
            </Position>
            <AltitudeMeters>1051.199951171875</AltitudeMeters>
            <DistanceMeters>NAN</DistanceMeters>
          </Trackpoint>
          <Trackpoint>
            <Time>2021-04-01T13:48:02.000Z</Time>
            <Position>
              <LatitudeDegrees>42.4061290360987186431884765625</LatitudeDegrees>
              <LongitudeDegrees>2.689655162394046783447265625</LongitudeDegrees>
            </Position>
            <AltitudeMeters>1051</AltitudeMeters>
            <DistanceMeters>NAN</DistanceMeters>
          </Trackpoint>
          <Trackpoint>
            <Time>2021-04-01T13:48:03.000Z</Time>
            <Position>
              <LatitudeDegrees>42.4061290360987186431884765625</LatitudeDegrees>
              <LongitudeDegrees>2.689655162394046783447265625</LongitudeDegrees>
            </Position>
            <AltitudeMeters>1051</AltitudeMeters>
            <DistanceMeters>NAN</DistanceMeters>
          </Trackpoint>
          <Trackpoint>
            <Time>2021-04-01T13:48:05.000Z</Time>
            <Position>
              <LatitudeDegrees>42.406118810176849365234375</LatitudeDegrees>
              <LongitudeDegrees>2.6896221376955509185791015625</LongitudeDegrees>
            </Position>
            <AltitudeMeters>1051</AltitudeMeters>
            <DistanceMeters>NAN</DistanceMeters>
          </Trackpoint>
          <Trackpoint>
            <Time>2021-04-01T13:48:06.000Z</Time>
            <Position>
              <LatitudeDegrees>42.4061045609414577484130859375</LatitudeDegrees>
              <LongitudeDegrees>2.6895990036427974700927734375</LongitudeDegrees>
            </Position>
            <AltitudeMeters>1051</AltitudeMeters>
            <DistanceMeters>NAN</DistanceMeters>
          </Trackpoint>
          <Trackpoint>
            <Time>2021-04-01T13:48:10.000Z</Time>
            <Position>
              <LatitudeDegrees>42.4060908146202564239501953125</LatitudeDegrees>
              <LongitudeDegrees>2.68955315463244915008544921875</LongitudeDegrees>
            </Position>
            <AltitudeMeters>1050.5999755859375</AltitudeMeters>
            <DistanceMeters>NAN</DistanceMeters>
          </Trackpoint>
          <Trackpoint>
            <Time>2021-04-01T13:48:14.000Z</Time>
            <Position>
              <LatitudeDegrees>42.406071536242961883544921875</LatitudeDegrees>
              <LongitudeDegrees>2.68949632532894611358642578125</LongitudeDegrees>
            </Position>
            <AltitudeMeters>1050.199951171875</AltitudeMeters>
            <DistanceMeters>NAN</DistanceMeters>
          </Trackpoint>
          <Trackpoint>
            <Time>2021-04-01T13:48:16.000Z</Time>
            <Position>
              <LatitudeDegrees>42.4060718715190887451171875</LatitudeDegrees>
              <LongitudeDegrees>2.689469419419765472412109375</LongitudeDegrees>
            </Position>
            <AltitudeMeters>1050.199951171875</AltitudeMeters>
            <DistanceMeters>NAN</DistanceMeters>
          </Trackpoint>
          <Trackpoint>
            <Time>2021-04-01T13:48:17.000Z</Time>
            <Position>
              <LatitudeDegrees>42.40606784820556640625</LatitudeDegrees>
              <LongitudeDegrees>2.6894578523933887481689453125</LongitudeDegrees>
            </Position>
            <AltitudeMeters>1050.199951171875</AltitudeMeters>
            <DistanceMeters>NAN</DistanceMeters>
          </Trackpoint>
          <Trackpoint>
            <Time>2021-04-01T13:48:19.000Z</Time>
            <Position>
              <LatitudeDegrees>42.40606239996850490570068359375</LatitudeDegrees>
              <LongitudeDegrees>2.68943178467452526092529296875</LongitudeDegrees>
            </Position>
            <AltitudeMeters>1050.199951171875</AltitudeMeters>
            <DistanceMeters>NAN</DistanceMeters>
          </Trackpoint>
          <Trackpoint>
            <Time>2021-04-01T13:48:27.000Z</Time>
            <Position>
              <LatitudeDegrees>42.406066842377185821533203125</LatitudeDegrees>
              <LongitudeDegrees>2.6893277652561664581298828125</LongitudeDegrees>
            </Position>
            <AltitudeMeters>1049.800048828125</AltitudeMeters>
            <DistanceMeters>NAN</DistanceMeters>
          </Trackpoint>
          <Trackpoint>
            <Time>2021-04-01T13:48:31.000Z</Time>
            <Position>
              <LatitudeDegrees>42.4060750566422939300537109375</LatitudeDegrees>
              <LongitudeDegrees>2.68927671946585178375244140625</LongitudeDegrees>
            </Position>
            <AltitudeMeters>1049.800048828125</AltitudeMeters>
            <DistanceMeters>NAN</DistanceMeters>
          </Trackpoint>
          <Trackpoint>
            <Time>2021-04-01T13:48:41.000Z</Time>
            <Position>
              <LatitudeDegrees>42.4060864560306072235107421875</LatitudeDegrees>
              <LongitudeDegrees>2.6891626417636871337890625</LongitudeDegrees>
            </Position>
            <AltitudeMeters>1049.5999755859375</AltitudeMeters>
            <DistanceMeters>NAN</DistanceMeters>
          </Trackpoint>
          <Trackpoint>
            <Time>2021-04-01T13:48:48.000Z</Time>
            <Position>
              <LatitudeDegrees>42.4060841090977191925048828125</LatitudeDegrees>
              <LongitudeDegrees>2.68913674168288707733154296875</LongitudeDegrees>
            </Position>
            <AltitudeMeters>1049</AltitudeMeters>
            <DistanceMeters>NAN</DistanceMeters>
          </Trackpoint>
          <Trackpoint>
            <Time>2021-04-01T13:48:51.000Z</Time>
            <Position>
              <LatitudeDegrees>42.40608033724129199981689453125</LatitudeDegrees>
              <LongitudeDegrees>2.68912534229457378387451171875</LongitudeDegrees>
            </Position>
            <AltitudeMeters>1048.800048828125</AltitudeMeters>
            <DistanceMeters>NAN</DistanceMeters>
          </Trackpoint>
          <Trackpoint>
            <Time>2021-04-01T13:49:04.000Z</Time>
            <Position>
              <LatitudeDegrees>42.40604647435247898101806640625</LatitudeDegrees>
              <LongitudeDegrees>2.68911235034465789794921875</LongitudeDegrees>
            </Position>
            <AltitudeMeters>1048</AltitudeMeters>
            <DistanceMeters>NAN</DistanceMeters>
          </Trackpoint>
          <Trackpoint>
            <Time>2021-04-01T13:49:05.000Z</Time>
            <Position>
              <LatitudeDegrees>42.406034655869007110595703125</LatitudeDegrees>
              <LongitudeDegrees>2.68910874612629413604736328125</LongitudeDegrees>
            </Position>
            <AltitudeMeters>1047.800048828125</AltitudeMeters>
            <DistanceMeters>NAN</DistanceMeters>
          </Trackpoint>
          <Trackpoint>
            <Time>2021-04-01T13:49:08.000Z</Time>
            <Position>
              <LatitudeDegrees>42.40597992204129695892333984375</LatitudeDegrees>
              <LongitudeDegrees>2.68911729566752910614013671875</LongitudeDegrees>
            </Position>
            <AltitudeMeters>1047.5999755859375</AltitudeMeters>
            <DistanceMeters>NAN</DistanceMeters>
          </Trackpoint>
          <Trackpoint>
            <Time>2021-04-01T13:49:11.000Z</Time>
            <Position>
              <LatitudeDegrees>42.4059476517140865325927734375</LatitudeDegrees>
              <LongitudeDegrees>2.6891074888408184051513671875</LongitudeDegrees>
            </Position>
            <AltitudeMeters>1046.800048828125</AltitudeMeters>
            <DistanceMeters>NAN</DistanceMeters>
          </Trackpoint>
          <Trackpoint>
            <Time>2021-04-01T13:49:14.000Z</Time>
            <Position>
              <LatitudeDegrees>42.40593700669705867767333984375</LatitudeDegrees>
              <LongitudeDegrees>2.68910673446953296661376953125</LongitudeDegrees>
            </Position>
            <AltitudeMeters>1046.199951171875</AltitudeMeters>
            <DistanceMeters>NAN</DistanceMeters>
          </Trackpoint>
          <Trackpoint>
            <Time>2021-04-01T13:49:16.000Z</Time>
            <Position>
              <LatitudeDegrees>42.40591471083462238311767578125</LatitudeDegrees>
              <LongitudeDegrees>2.68909332342445850372314453125</LongitudeDegrees>
            </Position>
            <AltitudeMeters>1045.800048828125</AltitudeMeters>
            <DistanceMeters>NAN</DistanceMeters>
          </Trackpoint>
          <Trackpoint>
            <Time>2021-04-01T13:49:17.000Z</Time>
            <Position>
              <LatitudeDegrees>42.40591471083462238311767578125</LatitudeDegrees>
              <LongitudeDegrees>2.68909332342445850372314453125</LongitudeDegrees>
            </Position>
            <AltitudeMeters>1045.5999755859375</AltitudeMeters>
            <DistanceMeters>NAN</DistanceMeters>
          </Trackpoint>
          <Trackpoint>
            <Time>2021-04-01T13:49:19.000Z</Time>
            <Position>
              <LatitudeDegrees>42.40589878521859645843505859375</LatitudeDegrees>
              <LongitudeDegrees>2.68907220102846622467041015625</LongitudeDegrees>
            </Position>
            <AltitudeMeters>1045</AltitudeMeters>
            <DistanceMeters>NAN</DistanceMeters>
          </Trackpoint>
          <Trackpoint>
            <Time>2021-04-01T13:49:23.000Z</Time>
            <Position>
              <LatitudeDegrees>42.40588084794580936431884765625</LatitudeDegrees>
              <LongitudeDegrees>2.68904705531895160675048828125</LongitudeDegrees>
            </Position>
            <AltitudeMeters>1044.4000244140625</AltitudeMeters>
            <DistanceMeters>NAN</DistanceMeters>
          </Trackpoint>
          <Trackpoint>
            <Time>2021-04-01T13:49:26.000Z</Time>
            <Position>
              <LatitudeDegrees>42.4058866314589977264404296875</LatitudeDegrees>
              <LongitudeDegrees>2.68900900147855281829833984375</LongitudeDegrees>
            </Position>
            <AltitudeMeters>1044.199951171875</AltitudeMeters>
            <DistanceMeters>NAN</DistanceMeters>
          </Trackpoint>
          <Trackpoint>
            <Time>2021-04-01T13:49:32.000Z</Time>
            <Position>
              <LatitudeDegrees>42.40591051988303661346435546875</LatitudeDegrees>
              <LongitudeDegrees>2.68897195346653461456298828125</LongitudeDegrees>
            </Position>
            <AltitudeMeters>1044.199951171875</AltitudeMeters>
            <DistanceMeters>NAN</DistanceMeters>
          </Trackpoint>
          <Trackpoint>
            <Time>2021-04-01T13:49:33.000Z</Time>
            <Position>
              <LatitudeDegrees>42.4059215001761913299560546875</LatitudeDegrees>
              <LongitudeDegrees>2.68897798843681812286376953125</LongitudeDegrees>
            </Position>
            <AltitudeMeters>1044.199951171875</AltitudeMeters>
            <DistanceMeters>NAN</DistanceMeters>
          </Trackpoint>
          <Trackpoint>
            <Time>2021-04-01T13:49:34.000Z</Time>
            <Position>
              <LatitudeDegrees>42.4059218354523181915283203125</LatitudeDegrees>
              <LongitudeDegrees>2.6889737136662006378173828125</LongitudeDegrees>
            </Position>
            <AltitudeMeters>1044.199951171875</AltitudeMeters>
            <DistanceMeters>NAN</DistanceMeters>
          </Trackpoint>
          <Trackpoint>
            <Time>2021-04-01T13:49:37.000Z</Time>
            <Position>
              <LatitudeDegrees>42.4059305526316165924072265625</LatitudeDegrees>
              <LongitudeDegrees>2.6889804191887378692626953125</LongitudeDegrees>
            </Position>
            <AltitudeMeters>1044.199951171875</AltitudeMeters>
            <DistanceMeters>NAN</DistanceMeters>
          </Trackpoint>
          <Trackpoint>
            <Time>2021-04-01T13:49:39.000Z</Time>
            <Position>
              <LatitudeDegrees>42.4059251882135868072509765625</LatitudeDegrees>
              <LongitudeDegrees>2.68897966481745243072509765625</LongitudeDegrees>
            </Position>
            <AltitudeMeters>1044.199951171875</AltitudeMeters>
            <DistanceMeters>NAN</DistanceMeters>
          </Trackpoint>
          <Trackpoint>
            <Time>2021-04-01T13:49:41.000Z</Time>
            <Position>
              <LatitudeDegrees>42.4059245176613330841064453125</LatitudeDegrees>
              <LongitudeDegrees>2.688961811363697052001953125</LongitudeDegrees>
            </Position>
            <AltitudeMeters>1044.199951171875</AltitudeMeters>
            <DistanceMeters>NAN</DistanceMeters>
          </Trackpoint>
          <Trackpoint>
            <Time>2021-04-01T13:49:49.000Z</Time>
            <Position>
              <LatitudeDegrees>42.4059704504907131195068359375</LatitudeDegrees>
              <LongitudeDegrees>2.68887572921812534332275390625</LongitudeDegrees>
            </Position>
            <AltitudeMeters>1045</AltitudeMeters>
            <DistanceMeters>NAN</DistanceMeters>
          </Trackpoint>
          <Trackpoint>
            <Time>2021-04-01T13:49:53.000Z</Time>
            <Position>
              <LatitudeDegrees>42.4059835262596607208251953125</LatitudeDegrees>
              <LongitudeDegrees>2.6888461410999298095703125</LongitudeDegrees>
            </Position>
            <AltitudeMeters>1045</AltitudeMeters>
            <DistanceMeters>NAN</DistanceMeters>
          </Trackpoint>
          <Trackpoint>
            <Time>2021-04-01T13:49:58.000Z</Time>
            <Position>
              <LatitudeDegrees>42.406002469360828399658203125</LatitudeDegrees>
              <LongitudeDegrees>2.68880800344049930572509765625</LongitudeDegrees>
            </Position>
            <AltitudeMeters>1045.199951171875</AltitudeMeters>
            <DistanceMeters>NAN</DistanceMeters>
          </Trackpoint>
          <Trackpoint>
            <Time>2021-04-01T13:49:59.000Z</Time>
            <Position>
              <LatitudeDegrees>42.406005151569843292236328125</LatitudeDegrees>
              <LongitudeDegrees>2.688794843852519989013671875</LongitudeDegrees>
            </Position>
            <AltitudeMeters>1045.4000244140625</AltitudeMeters>
            <DistanceMeters>NAN</DistanceMeters>
          </Trackpoint>
          <Trackpoint>
            <Time>2021-04-01T13:50:02.000Z</Time>
            <Position>
              <LatitudeDegrees>42.40601110272109508514404296875</LatitudeDegrees>
              <LongitudeDegrees>2.68877833150327205657958984375</LongitudeDegrees>
            </Position>
            <AltitudeMeters>1045.4000244140625</AltitudeMeters>
            <DistanceMeters>NAN</DistanceMeters>
          </Trackpoint>
          <Trackpoint>
            <Time>2021-04-01T13:50:07.000Z</Time>
            <Position>
              <LatitudeDegrees>42.4060274474322795867919921875</LatitudeDegrees>
              <LongitudeDegrees>2.68871060572564601898193359375</LongitudeDegrees>
            </Position>
            <AltitudeMeters>1045.4000244140625</AltitudeMeters>
            <DistanceMeters>NAN</DistanceMeters>
          </Trackpoint>
          <Trackpoint>
            <Time>2021-04-01T13:50:17.000Z</Time>
            <Position>
              <LatitudeDegrees>42.40607983432710170745849609375</LatitudeDegrees>
              <LongitudeDegrees>2.68860247917473316192626953125</LongitudeDegrees>
            </Position>
            <AltitudeMeters>1045.5999755859375</AltitudeMeters>
            <DistanceMeters>NAN</DistanceMeters>
          </Trackpoint>
          <Trackpoint>
            <Time>2021-04-01T13:50:23.000Z</Time>
            <Position>
              <LatitudeDegrees>42.40610213018953800201416015625</LatitudeDegrees>
              <LongitudeDegrees>2.68854246474802494049072265625</LongitudeDegrees>
            </Position>
            <AltitudeMeters>1045.800048828125</AltitudeMeters>
            <DistanceMeters>NAN</DistanceMeters>
          </Trackpoint>
          <Trackpoint>
            <Time>2021-04-01T13:50:25.000Z</Time>
            <Position>
              <LatitudeDegrees>42.40611269138753414154052734375</LatitudeDegrees>
              <LongitudeDegrees>2.68850524909794330596923828125</LongitudeDegrees>
            </Position>
            <AltitudeMeters>1046</AltitudeMeters>
            <DistanceMeters>NAN</DistanceMeters>
          </Trackpoint>
          <Trackpoint>
            <Time>2021-04-01T13:50:31.000Z</Time>
            <Position>
              <LatitudeDegrees>42.40612559951841831207275390625</LatitudeDegrees>
              <LongitudeDegrees>2.6884570531547069549560546875</LongitudeDegrees>
            </Position>
            <AltitudeMeters>1046.5999755859375</AltitudeMeters>
            <DistanceMeters>NAN</DistanceMeters>
          </Trackpoint>
          <Trackpoint>
            <Time>2021-04-01T13:50:34.000Z</Time>
            <Position>
              <LatitudeDegrees>42.40613951347768306732177734375</LatitudeDegrees>
              <LongitudeDegrees>2.6884208433330059051513671875</LongitudeDegrees>
            </Position>
            <AltitudeMeters>1046.800048828125</AltitudeMeters>
            <DistanceMeters>NAN</DistanceMeters>
          </Trackpoint>
          <Trackpoint>
            <Time>2021-04-01T13:50:40.000Z</Time>
            <Position>
              <LatitudeDegrees>42.40615367889404296875</LatitudeDegrees>
              <LongitudeDegrees>2.68836225382983684539794921875</LongitudeDegrees>
            </Position>
            <AltitudeMeters>1047.199951171875</AltitudeMeters>
            <DistanceMeters>NAN</DistanceMeters>
          </Trackpoint>
          <Trackpoint>
            <Time>2021-04-01T13:50:43.000Z</Time>
            <Position>
              <LatitudeDegrees>42.40616784431040287017822265625</LatitudeDegrees>
              <LongitudeDegrees>2.68831548281013965606689453125</LongitudeDegrees>
            </Position>
            <AltitudeMeters>1047.199951171875</AltitudeMeters>
            <DistanceMeters>NAN</DistanceMeters>
          </Trackpoint>
          <Trackpoint>
            <Time>2021-04-01T13:50:45.000Z</Time>
            <Position>
              <LatitudeDegrees>42.40616868250072002410888671875</LatitudeDegrees>
              <LongitudeDegrees>2.688306011259555816650390625</LongitudeDegrees>
            </Position>
            <AltitudeMeters>1047.199951171875</AltitudeMeters>
            <DistanceMeters>NAN</DistanceMeters>
          </Trackpoint>
          <Trackpoint>
            <Time>2021-04-01T13:50:46.000Z</Time>
            <Position>
              <LatitudeDegrees>42.4061722867190837860107421875</LatitudeDegrees>
              <LongitudeDegrees>2.688289918005466461181640625</LongitudeDegrees>
            </Position>
            <AltitudeMeters>1047.199951171875</AltitudeMeters>
            <DistanceMeters>NAN</DistanceMeters>
          </Trackpoint>
          <Trackpoint>
            <Time>2021-04-01T13:50:50.000Z</Time>
            <Position>
              <LatitudeDegrees>42.40617890842258930206298828125</LatitudeDegrees>
              <LongitudeDegrees>2.68826007843017578125</LongitudeDegrees>
            </Position>
            <AltitudeMeters>1047.199951171875</AltitudeMeters>
            <DistanceMeters>NAN</DistanceMeters>
          </Trackpoint>
          <Trackpoint>
            <Time>2021-04-01T13:50:54.000Z</Time>
            <Position>
              <LatitudeDegrees>42.4061913974583148956298828125</LatitudeDegrees>
              <LongitudeDegrees>2.688199393451213836669921875</LongitudeDegrees>
            </Position>
            <AltitudeMeters>1047.5999755859375</AltitudeMeters>
            <DistanceMeters>NAN</DistanceMeters>
          </Trackpoint>
          <Trackpoint>
            <Time>2021-04-01T13:50:56.000Z</Time>
            <Position>
              <LatitudeDegrees>42.4061867035925388336181640625</LatitudeDegrees>
              <LongitudeDegrees>2.68818120472133159637451171875</LongitudeDegrees>
            </Position>
            <AltitudeMeters>1048</AltitudeMeters>
            <DistanceMeters>NAN</DistanceMeters>
          </Trackpoint>
          <Trackpoint>
            <Time>2021-04-01T13:50:58.000Z</Time>
            <Position>
              <LatitudeDegrees>42.40618863143026828765869140625</LatitudeDegrees>
              <LongitudeDegrees>2.68814742565155029296875</LongitudeDegrees>
            </Position>
            <AltitudeMeters>1048.199951171875</AltitudeMeters>
            <DistanceMeters>NAN</DistanceMeters>
          </Trackpoint>
          <Trackpoint>
            <Time>2021-04-01T13:51:02.000Z</Time>
            <Position>
              <LatitudeDegrees>42.40619483403861522674560546875</LatitudeDegrees>
              <LongitudeDegrees>2.68808833323419094085693359375</LongitudeDegrees>
            </Position>
            <AltitudeMeters>1048.5999755859375</AltitudeMeters>
            <DistanceMeters>NAN</DistanceMeters>
          </Trackpoint>
          <Trackpoint>
            <Time>2021-04-01T13:51:03.000Z</Time>
            <Position>
              <LatitudeDegrees>42.40620556287467479705810546875</LatitudeDegrees>
              <LongitudeDegrees>2.68805815838277339935302734375</LongitudeDegrees>
            </Position>
            <AltitudeMeters>1048.800048828125</AltitudeMeters>
            <DistanceMeters>NAN</DistanceMeters>
          </Trackpoint>
          <Trackpoint>
            <Time>2021-04-01T13:51:05.000Z</Time>
            <Position>
              <LatitudeDegrees>42.40621461533010005950927734375</LatitudeDegrees>
              <LongitudeDegrees>2.688038460910320281982421875</LongitudeDegrees>
            </Position>
            <AltitudeMeters>1049</AltitudeMeters>
            <DistanceMeters>NAN</DistanceMeters>
          </Trackpoint>
          <Trackpoint>
            <Time>2021-04-01T13:51:06.000Z</Time>
            <Position>
              <LatitudeDegrees>42.40621738135814666748046875</LatitudeDegrees>
              <LongitudeDegrees>2.68802630715072154998779296875</LongitudeDegrees>
            </Position>
            <AltitudeMeters>1049.199951171875</AltitudeMeters>
            <DistanceMeters>NAN</DistanceMeters>
          </Trackpoint>
          <Trackpoint>
            <Time>2021-04-01T13:51:11.000Z</Time>
            <Position>
              <LatitudeDegrees>42.4062323011457920074462890625</LatitudeDegrees>
              <LongitudeDegrees>2.6879638619720935821533203125</LongitudeDegrees>
            </Position>
            <AltitudeMeters>1049.800048828125</AltitudeMeters>
            <DistanceMeters>NAN</DistanceMeters>
          </Trackpoint>
          <Trackpoint>
            <Time>2021-04-01T13:51:15.000Z</Time>
            <Position>
              <LatitudeDegrees>42.40624881349503993988037109375</LatitudeDegrees>
              <LongitudeDegrees>2.6879206113517284393310546875</LongitudeDegrees>
            </Position>
            <AltitudeMeters>1050</AltitudeMeters>
            <DistanceMeters>NAN</DistanceMeters>
          </Trackpoint>
          <Trackpoint>
            <Time>2021-04-01T13:51:24.000Z</Time>
            <Position>
              <LatitudeDegrees>42.4062839336693286895751953125</LatitudeDegrees>
              <LongitudeDegrees>2.68783285282552242279052734375</LongitudeDegrees>
            </Position>
            <AltitudeMeters>1051</AltitudeMeters>
            <DistanceMeters>NAN</DistanceMeters>
          </Trackpoint>
          <Trackpoint>
            <Time>2021-04-01T13:51:27.000Z</Time>
            <Position>
              <LatitudeDegrees>42.4062986858189105987548828125</LatitudeDegrees>
              <LongitudeDegrees>2.6877995766699314117431640625</LongitudeDegrees>
            </Position>
            <AltitudeMeters>1051</AltitudeMeters>
            <DistanceMeters>NAN</DistanceMeters>
          </Trackpoint>
          <Trackpoint>
            <Time>2021-04-01T13:51:35.000Z</Time>
            <Position>
              <LatitudeDegrees>42.40633883513510227203369140625</LatitudeDegrees>
              <LongitudeDegrees>2.6877150870859622955322265625</LongitudeDegrees>
            </Position>
            <AltitudeMeters>1051.800048828125</AltitudeMeters>
            <DistanceMeters>NAN</DistanceMeters>
          </Trackpoint>
          <Trackpoint>
            <Time>2021-04-01T13:51:37.000Z</Time>
            <Position>
              <LatitudeDegrees>42.4063419364392757415771484375</LatitudeDegrees>
              <LongitudeDegrees>2.687699832022190093994140625</LongitudeDegrees>
            </Position>
            <AltitudeMeters>1052</AltitudeMeters>
            <DistanceMeters>NAN</DistanceMeters>
          </Trackpoint>
          <Trackpoint>
            <Time>2021-04-01T13:51:45.000Z</Time>
            <Position>
              <LatitudeDegrees>42.4063838459551334381103515625</LatitudeDegrees>
              <LongitudeDegrees>2.68761165440082550048828125</LongitudeDegrees>
            </Position>
            <AltitudeMeters>1052.5999755859375</AltitudeMeters>
            <DistanceMeters>NAN</DistanceMeters>
          </Trackpoint>
          <Trackpoint>
            <Time>2021-04-01T13:51:47.000Z</Time>
            <Position>
              <LatitudeDegrees>42.40639532916247844696044921875</LatitudeDegrees>
              <LongitudeDegrees>2.68757879734039306640625</LongitudeDegrees>
            </Position>
            <AltitudeMeters>1052.5999755859375</AltitudeMeters>
            <DistanceMeters>NAN</DistanceMeters>
          </Trackpoint>
          <Trackpoint>
            <Time>2021-04-01T13:51:54.000Z</Time>
            <Position>
              <LatitudeDegrees>42.40641159005463123321533203125</LatitudeDegrees>
              <LongitudeDegrees>2.6874954812228679656982421875</LongitudeDegrees>
            </Position>
            <AltitudeMeters>1053</AltitudeMeters>
            <DistanceMeters>NAN</DistanceMeters>
          </Trackpoint>
          <Trackpoint>
            <Time>2021-04-01T13:51:55.000Z</Time>
            <Position>
              <LatitudeDegrees>42.406414858996868133544921875</LatitudeDegrees>
              <LongitudeDegrees>2.68748785369098186492919921875</LongitudeDegrees>
            </Position>
            <AltitudeMeters>1053.199951171875</AltitudeMeters>
            <DistanceMeters>NAN</DistanceMeters>
          </Trackpoint>
          <Trackpoint>
            <Time>2021-04-01T13:52:05.000Z</Time>
            <Position>
              <LatitudeDegrees>42.4064351432025432586669921875</LatitudeDegrees>
              <LongitudeDegrees>2.6873875223100185394287109375</LongitudeDegrees>
            </Position>
            <AltitudeMeters>1054.199951171875</AltitudeMeters>
            <DistanceMeters>NAN</DistanceMeters>
          </Trackpoint>
          <Trackpoint>
            <Time>2021-04-01T13:52:10.000Z</Time>
            <Position>
              <LatitudeDegrees>42.40643790923058986663818359375</LatitudeDegrees>
              <LongitudeDegrees>2.68731384538114070892333984375</LongitudeDegrees>
            </Position>
            <AltitudeMeters>1054.4000244140625</AltitudeMeters>
            <DistanceMeters>NAN</DistanceMeters>
          </Trackpoint>
          <Trackpoint>
            <Time>2021-04-01T13:52:15.000Z</Time>
            <Position>
              <LatitudeDegrees>42.40644511766731739044189453125</LatitudeDegrees>
              <LongitudeDegrees>2.68726405687630176544189453125</LongitudeDegrees>
            </Position>
            <AltitudeMeters>1055.199951171875</AltitudeMeters>
            <DistanceMeters>NAN</DistanceMeters>
          </Trackpoint>
          <Trackpoint>
            <Time>2021-04-01T13:52:23.000Z</Time>
            <Position>
              <LatitudeDegrees>42.40645819343626499176025390625</LatitudeDegrees>
              <LongitudeDegrees>2.6871618814766407012939453125</LongitudeDegrees>
            </Position>
            <AltitudeMeters>1056</AltitudeMeters>
            <DistanceMeters>NAN</DistanceMeters>
          </Trackpoint>
          <Trackpoint>
            <Time>2021-04-01T13:52:24.000Z</Time>
            <Position>
              <LatitudeDegrees>42.40646121092140674591064453125</LatitudeDegrees>
              <LongitudeDegrees>2.68713413737714290618896484375</LongitudeDegrees>
            </Position>
            <AltitudeMeters>1056.199951171875</AltitudeMeters>
            <DistanceMeters>NAN</DistanceMeters>
          </Trackpoint>
          <Trackpoint>
            <Time>2021-04-01T13:52:25.000Z</Time>
            <Position>
              <LatitudeDegrees>42.40646121092140674591064453125</LatitudeDegrees>
              <LongitudeDegrees>2.68713413737714290618896484375</LongitudeDegrees>
            </Position>
            <AltitudeMeters>1056.199951171875</AltitudeMeters>
            <DistanceMeters>NAN</DistanceMeters>
          </Trackpoint>
          <Trackpoint>
            <Time>2021-04-01T13:52:35.000Z</Time>
            <Position>
              <LatitudeDegrees>42.40649691782891750335693359375</LatitudeDegrees>
              <LongitudeDegrees>2.6870143599808216094970703125</LongitudeDegrees>
            </Position>
            <AltitudeMeters>1057</AltitudeMeters>
            <DistanceMeters>NAN</DistanceMeters>
          </Trackpoint>
          <Trackpoint>
            <Time>2021-04-01T13:52:38.000Z</Time>
            <Position>
              <LatitudeDegrees>42.40650546737015247344970703125</LatitudeDegrees>
              <LongitudeDegrees>2.68696147017180919647216796875</LongitudeDegrees>
            </Position>
            <AltitudeMeters>1057.199951171875</AltitudeMeters>
            <DistanceMeters>NAN</DistanceMeters>
          </Trackpoint>
          <Trackpoint>
            <Time>2021-04-01T13:52:39.000Z</Time>
            <Position>
              <LatitudeDegrees>42.4065063893795013427734375</LatitudeDegrees>
              <LongitudeDegrees>2.6869506575167179107666015625</LongitudeDegrees>
            </Position>
            <AltitudeMeters>1057.4000244140625</AltitudeMeters>
            <DistanceMeters>NAN</DistanceMeters>
          </Trackpoint>
          <Trackpoint>
            <Time>2021-04-01T13:52:47.000Z</Time>
            <Position>
              <LatitudeDegrees>42.4065337143838405609130859375</LatitudeDegrees>
              <LongitudeDegrees>2.68686197698116302490234375</LongitudeDegrees>
            </Position>
            <AltitudeMeters>1058.199951171875</AltitudeMeters>
            <DistanceMeters>NAN</DistanceMeters>
          </Trackpoint>
          <Trackpoint>
            <Time>2021-04-01T13:52:57.000Z</Time>
            <Position>
              <LatitudeDegrees>42.406561039388179779052734375</LatitudeDegrees>
              <LongitudeDegrees>2.68675929866731166839599609375</LongitudeDegrees>
            </Position>
            <AltitudeMeters>1059.4000244140625</AltitudeMeters>
            <DistanceMeters>NAN</DistanceMeters>
          </Trackpoint>
          <Trackpoint>
            <Time>2021-04-01T13:53:01.000Z</Time>
            <Position>
              <LatitudeDegrees>42.406585179269313812255859375</LatitudeDegrees>
              <LongitudeDegrees>2.686701714992523193359375</LongitudeDegrees>
            </Position>
            <AltitudeMeters>1060</AltitudeMeters>
            <DistanceMeters>NAN</DistanceMeters>
          </Trackpoint>
          <Trackpoint>
            <Time>2021-04-01T13:53:06.000Z</Time>
            <Position>
              <LatitudeDegrees>42.4066041223704814910888671875</LatitudeDegrees>
              <LongitudeDegrees>2.6866452209651470184326171875</LongitudeDegrees>
            </Position>
            <AltitudeMeters>1060.4000244140625</AltitudeMeters>
            <DistanceMeters>NAN</DistanceMeters>
          </Trackpoint>
          <Trackpoint>
            <Time>2021-04-01T13:53:16.000Z</Time>
            <Position>
              <LatitudeDegrees>42.40663446485996246337890625</LatitudeDegrees>
              <LongitudeDegrees>2.686519324779510498046875</LongitudeDegrees>
            </Position>
            <AltitudeMeters>1061.4000244140625</AltitudeMeters>
            <DistanceMeters>NAN</DistanceMeters>
          </Trackpoint>
          <Trackpoint>
            <Time>2021-04-01T13:53:17.000Z</Time>
            <Position>
              <LatitudeDegrees>42.40663739852607250213623046875</LatitudeDegrees>
              <LongitudeDegrees>2.68650331534445285797119140625</LongitudeDegrees>
            </Position>
            <AltitudeMeters>1061.4000244140625</AltitudeMeters>
            <DistanceMeters>NAN</DistanceMeters>
          </Trackpoint>
          <Trackpoint>
            <Time>2021-04-01T13:53:23.000Z</Time>
            <Position>
              <LatitudeDegrees>42.40665650926530361175537109375</LatitudeDegrees>
              <LongitudeDegrees>2.6864326559007167816162109375</LongitudeDegrees>
            </Position>
            <AltitudeMeters>1062</AltitudeMeters>
            <DistanceMeters>NAN</DistanceMeters>
          </Trackpoint>
          <Trackpoint>
            <Time>2021-04-01T13:53:28.000Z</Time>
            <Position>
              <LatitudeDegrees>42.40667696110904216766357421875</LatitudeDegrees>
              <LongitudeDegrees>2.68637121655046939849853515625</LongitudeDegrees>
            </Position>
            <AltitudeMeters>1062.4000244140625</AltitudeMeters>
            <DistanceMeters>NAN</DistanceMeters>
          </Trackpoint>
          <Trackpoint>
            <Time>2021-04-01T13:53:29.000Z</Time>
            <Position>
              <LatitudeDegrees>42.40667863748967647552490234375</LatitudeDegrees>
              <LongitudeDegrees>2.68635847605764865875244140625</LongitudeDegrees>
            </Position>
            <AltitudeMeters>1062.5999755859375</AltitudeMeters>
            <DistanceMeters>NAN</DistanceMeters>
          </Trackpoint>
          <Trackpoint>
            <Time>2021-04-01T13:53:37.000Z</Time>
            <Position>
              <LatitudeDegrees>42.4067020229995250701904296875</LatitudeDegrees>
              <LongitudeDegrees>2.68626024015247821807861328125</LongitudeDegrees>
            </Position>
            <AltitudeMeters>1063.4000244140625</AltitudeMeters>
            <DistanceMeters>NAN</DistanceMeters>
          </Trackpoint>
          <Trackpoint>
            <Time>2021-04-01T13:53:39.000Z</Time>
            <Position>
              <LatitudeDegrees>42.406706549227237701416015625</LatitudeDegrees>
              <LongitudeDegrees>2.68623425625264644622802734375</LongitudeDegrees>
            </Position>
            <AltitudeMeters>1063.5999755859375</AltitudeMeters>
            <DistanceMeters>NAN</DistanceMeters>
          </Trackpoint>
          <Trackpoint>
            <Time>2021-04-01T13:53:44.000Z</Time>
            <Position>
              <LatitudeDegrees>42.406722642481327056884765625</LatitudeDegrees>
              <LongitudeDegrees>2.68617474474012851715087890625</LongitudeDegrees>
            </Position>
            <AltitudeMeters>1064</AltitudeMeters>
            <DistanceMeters>NAN</DistanceMeters>
          </Trackpoint>
          <Trackpoint>
            <Time>2021-04-01T13:53:55.000Z</Time>
            <Position>
              <LatitudeDegrees>42.40674820728600025177001953125</LatitudeDegrees>
              <LongitudeDegrees>2.6860742457211017608642578125</LongitudeDegrees>
            </Position>
            <AltitudeMeters>1064.199951171875</AltitudeMeters>
            <DistanceMeters>NAN</DistanceMeters>
          </Trackpoint>
          <Trackpoint>
            <Time>2021-04-01T13:53:56.000Z</Time>
            <Position>
              <LatitudeDegrees>42.4067477881908416748046875</LatitudeDegrees>
              <LongitudeDegrees>2.68606225959956645965576171875</LongitudeDegrees>
            </Position>
            <AltitudeMeters>1064.4000244140625</AltitudeMeters>
            <DistanceMeters>NAN</DistanceMeters>
          </Trackpoint>
          <Trackpoint>
            <Time>2021-04-01T13:54:02.000Z</Time>
            <Position>
              <LatitudeDegrees>42.40675005130469799041748046875</LatitudeDegrees>
              <LongitudeDegrees>2.68597106449306011199951171875</LongitudeDegrees>
            </Position>
            <AltitudeMeters>1064.5999755859375</AltitudeMeters>
            <DistanceMeters>NAN</DistanceMeters>
          </Trackpoint>
          <Trackpoint>
            <Time>2021-04-01T13:54:05.000Z</Time>
            <Position>
              <LatitudeDegrees>42.40675558336079120635986328125</LatitudeDegrees>
              <LongitudeDegrees>2.6859263889491558074951171875</LongitudeDegrees>
            </Position>
            <AltitudeMeters>1064.5999755859375</AltitudeMeters>
            <DistanceMeters>NAN</DistanceMeters>
          </Trackpoint>
          <Trackpoint>
            <Time>2021-04-01T13:54:06.000Z</Time>
            <Position>
              <LatitudeDegrees>42.40675658918917179107666015625</LatitudeDegrees>
              <LongitudeDegrees>2.68591457046568393707275390625</LongitudeDegrees>
            </Position>
            <AltitudeMeters>1064.5999755859375</AltitudeMeters>
            <DistanceMeters>NAN</DistanceMeters>
          </Trackpoint>
          <Trackpoint>
            <Time>2021-04-01T13:54:08.000Z</Time>
            <Position>
              <LatitudeDegrees>42.40675860084593296051025390625</LatitudeDegrees>
              <LongitudeDegrees>2.6858915202319622039794921875</LongitudeDegrees>
            </Position>
            <AltitudeMeters>1064.5999755859375</AltitudeMeters>
            <DistanceMeters>NAN</DistanceMeters>
          </Trackpoint>
          <Trackpoint>
            <Time>2021-04-01T13:54:19.000Z</Time>
            <Position>
              <LatitudeDegrees>42.406746111810207366943359375</LatitudeDegrees>
              <LongitudeDegrees>2.68575967289507389068603515625</LongitudeDegrees>
            </Position>
            <AltitudeMeters>1065.4000244140625</AltitudeMeters>
            <DistanceMeters>NAN</DistanceMeters>
          </Trackpoint>
          <Trackpoint>
            <Time>2021-04-01T13:54:22.000Z</Time>
            <Position>
              <LatitudeDegrees>42.4067338742315769195556640625</LatitudeDegrees>
              <LongitudeDegrees>2.68572681583464145660400390625</LongitudeDegrees>
            </Position>
            <AltitudeMeters>1065.4000244140625</AltitudeMeters>
            <DistanceMeters>NAN</DistanceMeters>
          </Trackpoint>
          <Trackpoint>
            <Time>2021-04-01T13:54:23.000Z</Time>
            <Position>
              <LatitudeDegrees>42.4067338742315769195556640625</LatitudeDegrees>
              <LongitudeDegrees>2.68572681583464145660400390625</LongitudeDegrees>
            </Position>
            <AltitudeMeters>1065.5999755859375</AltitudeMeters>
            <DistanceMeters>NAN</DistanceMeters>
          </Trackpoint>
          <Trackpoint>
            <Time>2021-04-01T13:54:33.000Z</Time>
            <Position>
              <LatitudeDegrees>42.406664304435253143310546875</LatitudeDegrees>
              <LongitudeDegrees>2.685620784759521484375</LongitudeDegrees>
            </Position>
            <AltitudeMeters>1066.199951171875</AltitudeMeters>
            <DistanceMeters>NAN</DistanceMeters>
          </Trackpoint>
          <Trackpoint>
            <Time>2021-04-01T13:54:41.000Z</Time>
            <Position>
              <LatitudeDegrees>42.40660688839852809906005859375</LatitudeDegrees>
              <LongitudeDegrees>2.68556789495050907135009765625</LongitudeDegrees>
            </Position>
            <AltitudeMeters>1066.5999755859375</AltitudeMeters>
            <DistanceMeters>NAN</DistanceMeters>
          </Trackpoint>
          <Trackpoint>
            <Time>2021-04-01T13:54:43.000Z</Time>
            <Position>
              <LatitudeDegrees>42.40656296722590923309326171875</LatitudeDegrees>
              <LongitudeDegrees>2.6855602674186229705810546875</LongitudeDegrees>
            </Position>
            <AltitudeMeters>1066.199951171875</AltitudeMeters>
            <DistanceMeters>NAN</DistanceMeters>
          </Trackpoint>
          <Trackpoint>
            <Time>2021-04-01T13:54:44.000Z</Time>
            <Position>
              <LatitudeDegrees>42.40656296722590923309326171875</LatitudeDegrees>
              <LongitudeDegrees>2.6855602674186229705810546875</LongitudeDegrees>
            </Position>
            <AltitudeMeters>1066.4000244140625</AltitudeMeters>
            <DistanceMeters>NAN</DistanceMeters>
          </Trackpoint>
          <Trackpoint>
            <Time>2021-04-01T13:54:46.000Z</Time>
            <Position>
              <LatitudeDegrees>42.40653631277382373809814453125</LatitudeDegrees>
              <LongitudeDegrees>2.68554903566837310791015625</LongitudeDegrees>
            </Position>
            <AltitudeMeters>1066.5999755859375</AltitudeMeters>
            <DistanceMeters>NAN</DistanceMeters>
          </Trackpoint>
          <Trackpoint>
            <Time>2021-04-01T13:54:48.000Z</Time>
            <Position>
              <LatitudeDegrees>42.40652122534811496734619140625</LatitudeDegrees>
              <LongitudeDegrees>2.6855314336717128753662109375</LongitudeDegrees>
            </Position>
            <AltitudeMeters>1066.800048828125</AltitudeMeters>
            <DistanceMeters>NAN</DistanceMeters>
          </Trackpoint>
          <Trackpoint>
            <Time>2021-04-01T13:54:50.000Z</Time>
            <Position>
              <LatitudeDegrees>42.40650571882724761962890625</LatitudeDegrees>
              <LongitudeDegrees>2.68551542423665523529052734375</LongitudeDegrees>
            </Position>
            <AltitudeMeters>1067</AltitudeMeters>
            <DistanceMeters>NAN</DistanceMeters>
          </Trackpoint>
          <Trackpoint>
            <Time>2021-04-01T13:54:53.000Z</Time>
            <Position>
              <LatitudeDegrees>42.40648115985095500946044921875</LatitudeDegrees>
              <LongitudeDegrees>2.685492374002933502197265625</LongitudeDegrees>
            </Position>
            <AltitudeMeters>1066.800048828125</AltitudeMeters>
            <DistanceMeters>NAN</DistanceMeters>
          </Trackpoint>
          <Trackpoint>
            <Time>2021-04-01T13:54:55.000Z</Time>
            <Position>
              <LatitudeDegrees>42.40646774880588054656982421875</LatitudeDegrees>
              <LongitudeDegrees>2.68547703512012958526611328125</LongitudeDegrees>
            </Position>
            <AltitudeMeters>1067</AltitudeMeters>
            <DistanceMeters>NAN</DistanceMeters>
          </Trackpoint>
          <Trackpoint>
            <Time>2021-04-01T13:55:01.000Z</Time>
            <Position>
              <LatitudeDegrees>42.406432293355464935302734375</LatitudeDegrees>
              <LongitudeDegrees>2.68543194048106670379638671875</LongitudeDegrees>
            </Position>
            <AltitudeMeters>1067.4000244140625</AltitudeMeters>
            <DistanceMeters>NAN</DistanceMeters>
          </Trackpoint>
          <Trackpoint>
            <Time>2021-04-01T13:55:12.000Z</Time>
            <Position>
              <LatitudeDegrees>42.4063516594469547271728515625</LatitudeDegrees>
              <LongitudeDegrees>2.68529615364968776702880859375</LongitudeDegrees>
            </Position>
            <AltitudeMeters>1067.4000244140625</AltitudeMeters>
            <DistanceMeters>NAN</DistanceMeters>
          </Trackpoint>
          <Trackpoint>
            <Time>2021-04-01T13:55:16.000Z</Time>
            <Position>
              <LatitudeDegrees>42.40632710047066211700439453125</LatitudeDegrees>
              <LongitudeDegrees>2.68525407649576663970947265625</LongitudeDegrees>
            </Position>
            <AltitudeMeters>1067.5999755859375</AltitudeMeters>
            <DistanceMeters>NAN</DistanceMeters>
          </Trackpoint>
          <Trackpoint>
            <Time>2021-04-01T13:55:20.000Z</Time>
            <Position>
              <LatitudeDegrees>42.4062998592853546142578125</LatitudeDegrees>
              <LongitudeDegrees>2.68521501682698726654052734375</LongitudeDegrees>
            </Position>
            <AltitudeMeters>1067.800048828125</AltitudeMeters>
            <DistanceMeters>NAN</DistanceMeters>
          </Trackpoint>
          <Trackpoint>
            <Time>2021-04-01T13:55:24.000Z</Time>
            <Position>
              <LatitudeDegrees>42.4062864482402801513671875</LatitudeDegrees>
              <LongitudeDegrees>2.6851773820817470550537109375</LongitudeDegrees>
            </Position>
            <AltitudeMeters>1067.800048828125</AltitudeMeters>
            <DistanceMeters>NAN</DistanceMeters>
          </Trackpoint>
          <Trackpoint>
            <Time>2021-04-01T13:55:32.000Z</Time>
            <Position>
              <LatitudeDegrees>42.406247891485691070556640625</LatitudeDegrees>
              <LongitudeDegrees>2.6850932277739048004150390625</LongitudeDegrees>
            </Position>
            <AltitudeMeters>1068</AltitudeMeters>
            <DistanceMeters>NAN</DistanceMeters>
          </Trackpoint>
          <Trackpoint>
            <Time>2021-04-01T13:55:33.000Z</Time>
            <Position>
              <LatitudeDegrees>42.40624487400054931640625</LatitudeDegrees>
              <LongitudeDegrees>2.6850845105946063995361328125</LongitudeDegrees>
            </Position>
            <AltitudeMeters>1068</AltitudeMeters>
            <DistanceMeters>NAN</DistanceMeters>
          </Trackpoint>
          <Trackpoint>
            <Time>2021-04-01T13:55:37.000Z</Time>
            <Position>
              <LatitudeDegrees>42.40623154677450656890869140625</LatitudeDegrees>
              <LongitudeDegrees>2.6850385777652263641357421875</LongitudeDegrees>
            </Position>
            <AltitudeMeters>1068</AltitudeMeters>
            <DistanceMeters>NAN</DistanceMeters>
          </Trackpoint>
          <Trackpoint>
            <Time>2021-04-01T13:55:41.000Z</Time>
            <Position>
              <LatitudeDegrees>42.406211681663990020751953125</LatitudeDegrees>
              <LongitudeDegrees>2.6850100792944431304931640625</LongitudeDegrees>
            </Position>
            <AltitudeMeters>1068</AltitudeMeters>
            <DistanceMeters>NAN</DistanceMeters>
          </Trackpoint>
          <Trackpoint>
            <Time>2021-04-01T13:55:43.000Z</Time>
            <Position>
              <LatitudeDegrees>42.4062128551304340362548828125</LatitudeDegrees>
              <LongitudeDegrees>2.685006558895111083984375</LongitudeDegrees>
            </Position>
            <AltitudeMeters>1068</AltitudeMeters>
            <DistanceMeters>NAN</DistanceMeters>
          </Trackpoint>
          <Trackpoint>
            <Time>2021-04-01T13:55:44.000Z</Time>
            <Position>
              <LatitudeDegrees>42.40622199140489101409912109375</LatitudeDegrees>
              <LongitudeDegrees>2.68500932492315769195556640625</LongitudeDegrees>
            </Position>
            <AltitudeMeters>1068.199951171875</AltitudeMeters>
            <DistanceMeters>NAN</DistanceMeters>
          </Trackpoint>
          <Trackpoint>
            <Time>2021-04-01T13:55:49.000Z</Time>
            <Position>
              <LatitudeDegrees>42.40624981932342052459716796875</LatitudeDegrees>
              <LongitudeDegrees>2.68499675206840038299560546875</LongitudeDegrees>
            </Position>
            <AltitudeMeters>1068.4000244140625</AltitudeMeters>
            <DistanceMeters>NAN</DistanceMeters>
          </Trackpoint>
          <Trackpoint>
            <Time>2021-04-01T13:55:52.000Z</Time>
            <Position>
              <LatitudeDegrees>42.40625761449337005615234375</LatitudeDegrees>
              <LongitudeDegrees>2.68498971126973628997802734375</LongitudeDegrees>
            </Position>
            <AltitudeMeters>1068.4000244140625</AltitudeMeters>
            <DistanceMeters>NAN</DistanceMeters>
          </Trackpoint>
          <Trackpoint>
            <Time>2021-04-01T13:55:54.000Z</Time>
            <Position>
              <LatitudeDegrees>42.40625761449337005615234375</LatitudeDegrees>
              <LongitudeDegrees>2.68498971126973628997802734375</LongitudeDegrees>
            </Position>
            <AltitudeMeters>1068.4000244140625</AltitudeMeters>
            <DistanceMeters>NAN</DistanceMeters>
          </Trackpoint>
          <Trackpoint>
            <Time>2021-04-01T13:55:58.000Z</Time>
            <Position>
              <LatitudeDegrees>42.40625761449337005615234375</LatitudeDegrees>
              <LongitudeDegrees>2.68498971126973628997802734375</LongitudeDegrees>
            </Position>
            <AltitudeMeters>1068.4000244140625</AltitudeMeters>
            <DistanceMeters>NAN</DistanceMeters>
          </Trackpoint>
          <Trackpoint>
            <Time>2021-04-01T13:56:05.000Z</Time>
            <Position>
              <LatitudeDegrees>42.40625761449337005615234375</LatitudeDegrees>
              <LongitudeDegrees>2.68499373458325862884521484375</LongitudeDegrees>
            </Position>
            <AltitudeMeters>1068.4000244140625</AltitudeMeters>
            <DistanceMeters>NAN</DistanceMeters>
          </Trackpoint>
          <Trackpoint>
            <Time>2021-04-01T13:56:08.000Z</Time>
            <Position>
              <LatitudeDegrees>42.40625761449337005615234375</LatitudeDegrees>
              <LongitudeDegrees>2.68499826081097126007080078125</LongitudeDegrees>
            </Position>
            <AltitudeMeters>1068.4000244140625</AltitudeMeters>
            <DistanceMeters>NAN</DistanceMeters>
          </Trackpoint>
          <Trackpoint>
            <Time>2021-04-01T13:56:20.000Z</Time>
            <Position>
              <LatitudeDegrees>42.406271360814571380615234375</LatitudeDegrees>
              <LongitudeDegrees>2.6850070618093013763427734375</LongitudeDegrees>
            </Position>
            <AltitudeMeters>1068.800048828125</AltitudeMeters>
            <DistanceMeters>NAN</DistanceMeters>
          </Trackpoint>
          <Trackpoint>
            <Time>2021-04-01T13:56:24.000Z</Time>
            <Position>
              <LatitudeDegrees>42.40627362392842769622802734375</LatitudeDegrees>
              <LongitudeDegrees>2.6850090734660625457763671875</LongitudeDegrees>
            </Position>
            <AltitudeMeters>1068.800048828125</AltitudeMeters>
            <DistanceMeters>NAN</DistanceMeters>
          </Trackpoint>
          <Trackpoint>
            <Time>2021-04-01T13:56:27.000Z</Time>
            <Position>
              <LatitudeDegrees>42.40627706050872802734375</LatitudeDegrees>
              <LongitudeDegrees>2.68500949256122112274169921875</LongitudeDegrees>
            </Position>
            <AltitudeMeters>1068.5999755859375</AltitudeMeters>
            <DistanceMeters>NAN</DistanceMeters>
          </Trackpoint>
          <Trackpoint>
            <Time>2021-04-01T13:56:30.000Z</Time>
            <Position>
              <LatitudeDegrees>42.40629072301089763641357421875</LatitudeDegrees>
              <LongitudeDegrees>2.68500949256122112274169921875</LongitudeDegrees>
            </Position>
            <AltitudeMeters>1068.5999755859375</AltitudeMeters>
            <DistanceMeters>NAN</DistanceMeters>
          </Trackpoint>
          <Trackpoint>
            <Time>2021-04-01T13:56:35.000Z</Time>
            <Position>
              <LatitudeDegrees>42.4062953330576419830322265625</LatitudeDegrees>
              <LongitudeDegrees>2.68500949256122112274169921875</LongitudeDegrees>
            </Position>
            <AltitudeMeters>1068.800048828125</AltitudeMeters>
            <DistanceMeters>NAN</DistanceMeters>
          </Trackpoint>
          <Trackpoint>
            <Time>2021-04-01T13:56:38.000Z</Time>
            <Position>
              <LatitudeDegrees>42.40629650652408599853515625</LatitudeDegrees>
              <LongitudeDegrees>2.68500949256122112274169921875</LongitudeDegrees>
            </Position>
            <AltitudeMeters>1068.800048828125</AltitudeMeters>
            <DistanceMeters>NAN</DistanceMeters>
          </Trackpoint>
          <Trackpoint>
            <Time>2021-04-01T13:56:40.000Z</Time>
            <Position>
              <LatitudeDegrees>42.40629650652408599853515625</LatitudeDegrees>
              <LongitudeDegrees>2.68500949256122112274169921875</LongitudeDegrees>
            </Position>
            <AltitudeMeters>1068.5999755859375</AltitudeMeters>
            <DistanceMeters>NAN</DistanceMeters>
          </Trackpoint>
          <Trackpoint>
            <Time>2021-04-01T13:56:42.000Z</Time>
            <Position>
              <LatitudeDegrees>42.40629650652408599853515625</LatitudeDegrees>
              <LongitudeDegrees>2.6850078999996185302734375</LongitudeDegrees>
            </Position>
            <AltitudeMeters>1068.5999755859375</AltitudeMeters>
            <DistanceMeters>NAN</DistanceMeters>
          </Trackpoint>
          <Trackpoint>
            <Time>2021-04-01T13:56:48.000Z</Time>
            <Position>
              <LatitudeDegrees>42.40629122592508792877197265625</LatitudeDegrees>
              <LongitudeDegrees>2.68499918282032012939453125</LongitudeDegrees>
            </Position>
            <AltitudeMeters>1068.800048828125</AltitudeMeters>
            <DistanceMeters>NAN</DistanceMeters>
          </Trackpoint>
          <Trackpoint>
            <Time>2021-04-01T13:56:52.000Z</Time>
            <Position>
              <LatitudeDegrees>42.40622886456549167633056640625</LatitudeDegrees>
              <LongitudeDegrees>2.68495735712349414825439453125</LongitudeDegrees>
            </Position>
            <AltitudeMeters>1069.199951171875</AltitudeMeters>
            <DistanceMeters>NAN</DistanceMeters>
          </Trackpoint>
          <Trackpoint>
            <Time>2021-04-01T13:56:55.000Z</Time>
            <Position>
              <LatitudeDegrees>42.4062006175518035888671875</LatitudeDegrees>
              <LongitudeDegrees>2.684933803975582122802734375</LongitudeDegrees>
            </Position>
            <AltitudeMeters>1069.4000244140625</AltitudeMeters>
            <DistanceMeters>NAN</DistanceMeters>
          </Trackpoint>
          <Trackpoint>
            <Time>2021-04-01T13:56:58.000Z</Time>
            <Position>
              <LatitudeDegrees>42.4061457999050617218017578125</LatitudeDegrees>
              <LongitudeDegrees>2.68488921225070953369140625</LongitudeDegrees>
            </Position>
            <AltitudeMeters>1069.5999755859375</AltitudeMeters>
            <DistanceMeters>NAN</DistanceMeters>
          </Trackpoint>
          <Trackpoint>
            <Time>2021-04-01T13:57:00.000Z</Time>
            <Position>
              <LatitudeDegrees>42.4061380885541439056396484375</LatitudeDegrees>
              <LongitudeDegrees>2.68487856723368167877197265625</LongitudeDegrees>
            </Position>
            <AltitudeMeters>1069.5999755859375</AltitudeMeters>
            <DistanceMeters>NAN</DistanceMeters>
          </Trackpoint>
          <Trackpoint>
            <Time>2021-04-01T13:57:01.000Z</Time>
            <Position>
              <LatitudeDegrees>42.40613012574613094329833984375</LatitudeDegrees>
              <LongitudeDegrees>2.68486934714019298553466796875</LongitudeDegrees>
            </Position>
            <AltitudeMeters>1069.5999755859375</AltitudeMeters>
            <DistanceMeters>NAN</DistanceMeters>
          </Trackpoint>
          <Trackpoint>
            <Time>2021-04-01T13:57:02.000Z</Time>
            <Position>
              <LatitudeDegrees>42.40611277520656585693359375</LatitudeDegrees>
              <LongitudeDegrees>2.68484755419194698333740234375</LongitudeDegrees>
            </Position>
            <AltitudeMeters>1069.5999755859375</AltitudeMeters>
            <DistanceMeters>NAN</DistanceMeters>
          </Trackpoint>
          <Trackpoint>
            <Time>2021-04-01T13:57:06.000Z</Time>
            <Position>
              <LatitudeDegrees>42.40609274245798587799072265625</LatitudeDegrees>
              <LongitudeDegrees>2.68482483923435211181640625</LongitudeDegrees>
            </Position>
            <AltitudeMeters>1069.5999755859375</AltitudeMeters>
            <DistanceMeters>NAN</DistanceMeters>
          </Trackpoint>
          <Trackpoint>
            <Time>2021-04-01T13:57:08.000Z</Time>
            <Position>
              <LatitudeDegrees>42.4060717038810253143310546875</LatitudeDegrees>
              <LongitudeDegrees>2.684802375733852386474609375</LongitudeDegrees>
            </Position>
            <AltitudeMeters>1069.5999755859375</AltitudeMeters>
            <DistanceMeters>NAN</DistanceMeters>
          </Trackpoint>
          <Trackpoint>
            <Time>2021-04-01T13:57:17.000Z</Time>
            <Position>
              <LatitudeDegrees>42.4059942550957202911376953125</LatitudeDegrees>
              <LongitudeDegrees>2.68470707349479198455810546875</LongitudeDegrees>
            </Position>
            <AltitudeMeters>1069.800048828125</AltitudeMeters>
            <DistanceMeters>NAN</DistanceMeters>
          </Trackpoint>
          <Trackpoint>
            <Time>2021-04-01T13:57:18.000Z</Time>
            <Position>
              <LatitudeDegrees>42.4059942550957202911376953125</LatitudeDegrees>
              <LongitudeDegrees>2.68470707349479198455810546875</LongitudeDegrees>
            </Position>
            <AltitudeMeters>1069.800048828125</AltitudeMeters>
            <DistanceMeters>NAN</DistanceMeters>
          </Trackpoint>
          <Trackpoint>
            <Time>2021-04-01T13:57:19.000Z</Time>
            <Position>
              <LatitudeDegrees>42.4059791676700115203857421875</LatitudeDegrees>
              <LongitudeDegrees>2.6846828497946262359619140625</LongitudeDegrees>
            </Position>
            <AltitudeMeters>1069.800048828125</AltitudeMeters>
            <DistanceMeters>NAN</DistanceMeters>
          </Trackpoint>
          <Trackpoint>
            <Time>2021-04-01T13:57:24.000Z</Time>
            <Position>
              <LatitudeDegrees>42.405950166285037994384765625</LatitudeDegrees>
              <LongitudeDegrees>2.6846208237111568450927734375</LongitudeDegrees>
            </Position>
            <AltitudeMeters>1070</AltitudeMeters>
            <DistanceMeters>NAN</DistanceMeters>
          </Trackpoint>
          <Trackpoint>
            <Time>2021-04-01T13:57:26.000Z</Time>
            <Position>
              <LatitudeDegrees>42.4059375934302806854248046875</LatitudeDegrees>
              <LongitudeDegrees>2.68459592945873737335205078125</LongitudeDegrees>
            </Position>
            <AltitudeMeters>1070</AltitudeMeters>
            <DistanceMeters>NAN</DistanceMeters>
          </Trackpoint>
          <Trackpoint>
            <Time>2021-04-01T13:57:35.000Z</Time>
            <Position>
              <LatitudeDegrees>42.40588151849806308746337890625</LatitudeDegrees>
              <LongitudeDegrees>2.68447556532919406890869140625</LongitudeDegrees>
            </Position>
            <AltitudeMeters>1070</AltitudeMeters>
            <DistanceMeters>NAN</DistanceMeters>
          </Trackpoint>
          <Trackpoint>
            <Time>2021-04-01T13:57:37.000Z</Time>
            <Position>
              <LatitudeDegrees>42.4058795906603336334228515625</LatitudeDegrees>
              <LongitudeDegrees>2.68446466885507106781005859375</LongitudeDegrees>
            </Position>
            <AltitudeMeters>1070</AltitudeMeters>
            <DistanceMeters>NAN</DistanceMeters>
          </Trackpoint>
          <Trackpoint>
            <Time>2021-04-01T13:57:39.000Z</Time>
            <Position>
              <LatitudeDegrees>42.4058745615184307098388671875</LatitudeDegrees>
              <LongitudeDegrees>2.68443332053720951080322265625</LongitudeDegrees>
            </Position>
            <AltitudeMeters>1070.199951171875</AltitudeMeters>
            <DistanceMeters>NAN</DistanceMeters>
          </Trackpoint>
          <Trackpoint>
            <Time>2021-04-01T13:57:42.000Z</Time>
            <Position>
              <LatitudeDegrees>42.4058608151972293853759765625</LatitudeDegrees>
              <LongitudeDegrees>2.684395350515842437744140625</LongitudeDegrees>
            </Position>
            <AltitudeMeters>1070.199951171875</AltitudeMeters>
            <DistanceMeters>NAN</DistanceMeters>
          </Trackpoint>
          <Trackpoint>
            <Time>2021-04-01T13:57:47.000Z</Time>
            <Position>
              <LatitudeDegrees>42.4058366753160953521728515625</LatitudeDegrees>
              <LongitudeDegrees>2.684320248663425445556640625</LongitudeDegrees>
            </Position>
            <AltitudeMeters>1070.199951171875</AltitudeMeters>
            <DistanceMeters>NAN</DistanceMeters>
          </Trackpoint>
          <Trackpoint>
            <Time>2021-04-01T13:57:49.000Z</Time>
            <Position>
              <LatitudeDegrees>42.40582452155649662017822265625</LatitudeDegrees>
              <LongitudeDegrees>2.6842801831662654876708984375</LongitudeDegrees>
            </Position>
            <AltitudeMeters>1070.4000244140625</AltitudeMeters>
            <DistanceMeters>NAN</DistanceMeters>
          </Trackpoint>
          <Trackpoint>
            <Time>2021-04-01T13:57:54.000Z</Time>
            <Position>
              <LatitudeDegrees>42.40579518489539623260498046875</LatitudeDegrees>
              <LongitudeDegrees>2.68424120731651782989501953125</LongitudeDegrees>
            </Position>
            <AltitudeMeters>1070.199951171875</AltitudeMeters>
            <DistanceMeters>NAN</DistanceMeters>
          </Trackpoint>
          <Trackpoint>
            <Time>2021-04-01T13:57:56.000Z</Time>
            <Position>
              <LatitudeDegrees>42.4057940952479839324951171875</LatitudeDegrees>
              <LongitudeDegrees>2.6842453144490718841552734375</LongitudeDegrees>
            </Position>
            <AltitudeMeters>1070.199951171875</AltitudeMeters>
            <DistanceMeters>NAN</DistanceMeters>
          </Trackpoint>
          <Trackpoint>
            <Time>2021-04-01T13:57:59.000Z</Time>
            <Position>
              <LatitudeDegrees>42.40579350851476192474365234375</LatitudeDegrees>
              <LongitudeDegrees>2.6842463202774524688720703125</LongitudeDegrees>
            </Position>
            <AltitudeMeters>1070.199951171875</AltitudeMeters>
            <DistanceMeters>NAN</DistanceMeters>
          </Trackpoint>
          <Trackpoint>
            <Time>2021-04-01T13:58:01.000Z</Time>
            <Position>
              <LatitudeDegrees>42.4057974480092525482177734375</LatitudeDegrees>
              <LongitudeDegrees>2.68425327725708484649658203125</LongitudeDegrees>
            </Position>
            <AltitudeMeters>1070</AltitudeMeters>
            <DistanceMeters>NAN</DistanceMeters>
          </Trackpoint>
          <Trackpoint>
            <Time>2021-04-01T13:58:04.000Z</Time>
            <Position>
              <LatitudeDegrees>42.40580507554113864898681640625</LatitudeDegrees>
              <LongitudeDegrees>2.684259898960590362548828125</LongitudeDegrees>
            </Position>
            <AltitudeMeters>1070</AltitudeMeters>
            <DistanceMeters>NAN</DistanceMeters>
          </Trackpoint>
          <Trackpoint>
            <Time>2021-04-01T13:58:08.000Z</Time>
            <Position>
              <LatitudeDegrees>42.40581412799656391143798828125</LatitudeDegrees>
              <LongitudeDegrees>2.6842627488076686859130859375</LongitudeDegrees>
            </Position>
            <AltitudeMeters>1069.800048828125</AltitudeMeters>
            <DistanceMeters>NAN</DistanceMeters>
          </Trackpoint>
          <Trackpoint>
            <Time>2021-04-01T13:58:18.000Z</Time>
            <Position>
              <LatitudeDegrees>42.40581412799656391143798828125</LatitudeDegrees>
              <LongitudeDegrees>2.6842617429792881011962890625</LongitudeDegrees>
            </Position>
            <AltitudeMeters>1069.800048828125</AltitudeMeters>
            <DistanceMeters>NAN</DistanceMeters>
          </Trackpoint>
          <Trackpoint>
            <Time>2021-04-01T13:58:21.000Z</Time>
            <Position>
              <LatitudeDegrees>42.40581412799656391143798828125</LatitudeDegrees>
              <LongitudeDegrees>2.68425981514155864715576171875</LongitudeDegrees>
            </Position>
            <AltitudeMeters>1069.800048828125</AltitudeMeters>
            <DistanceMeters>NAN</DistanceMeters>
          </Trackpoint>
          <Trackpoint>
            <Time>2021-04-01T13:58:22.000Z</Time>
            <Position>
              <LatitudeDegrees>42.40581412799656391143798828125</LatitudeDegrees>
              <LongitudeDegrees>2.68425931222736835479736328125</LongitudeDegrees>
            </Position>
            <AltitudeMeters>1069.800048828125</AltitudeMeters>
            <DistanceMeters>NAN</DistanceMeters>
          </Trackpoint>
          <Trackpoint>
            <Time>2021-04-01T13:58:23.000Z</Time>
            <Position>
              <LatitudeDegrees>42.4058125354349613189697265625</LatitudeDegrees>
              <LongitudeDegrees>2.6842543669044971466064453125</LongitudeDegrees>
            </Position>
            <AltitudeMeters>1069.800048828125</AltitudeMeters>
            <DistanceMeters>NAN</DistanceMeters>
          </Trackpoint>
          <Trackpoint>
            <Time>2021-04-01T13:58:27.000Z</Time>
            <Position>
              <LatitudeDegrees>42.4057687819004058837890625</LatitudeDegrees>
              <LongitudeDegrees>2.6841705478727817535400390625</LongitudeDegrees>
            </Position>
            <AltitudeMeters>1069.800048828125</AltitudeMeters>
            <DistanceMeters>NAN</DistanceMeters>
          </Trackpoint>
          <Trackpoint>
            <Time>2021-04-01T13:58:28.000Z</Time>
            <Position>
              <LatitudeDegrees>42.40575897507369518280029296875</LatitudeDegrees>
              <LongitudeDegrees>2.68414934165775775909423828125</LongitudeDegrees>
            </Position>
            <AltitudeMeters>1069.800048828125</AltitudeMeters>
            <DistanceMeters>NAN</DistanceMeters>
          </Trackpoint>
          <Trackpoint>
            <Time>2021-04-01T13:58:34.000Z</Time>
            <Position>
              <LatitudeDegrees>42.405712790787220001220703125</LatitudeDegrees>
              <LongitudeDegrees>2.6840562187135219573974609375</LongitudeDegrees>
            </Position>
            <AltitudeMeters>1069.800048828125</AltitudeMeters>
            <DistanceMeters>NAN</DistanceMeters>
          </Trackpoint>
          <Trackpoint>
            <Time>2021-04-01T13:58:39.000Z</Time>
            <Position>
              <LatitudeDegrees>42.40568387322127819061279296875</LatitudeDegrees>
              <LongitudeDegrees>2.6839938573539257049560546875</LongitudeDegrees>
            </Position>
            <AltitudeMeters>1069.5999755859375</AltitudeMeters>
            <DistanceMeters>NAN</DistanceMeters>
          </Trackpoint>
          <Trackpoint>
            <Time>2021-04-01T13:58:44.000Z</Time>
            <Position>
              <LatitudeDegrees>42.4056643433868885040283203125</LatitudeDegrees>
              <LongitudeDegrees>2.683950774371623992919921875</LongitudeDegrees>
            </Position>
            <AltitudeMeters>1069.800048828125</AltitudeMeters>
            <DistanceMeters>NAN</DistanceMeters>
          </Trackpoint>
          <Trackpoint>
            <Time>2021-04-01T13:58:47.000Z</Time>
            <Position>
              <LatitudeDegrees>42.405642382800579071044921875</LatitudeDegrees>
              <LongitudeDegrees>2.6838996447622776031494140625</LongitudeDegrees>
            </Position>
            <AltitudeMeters>1070</AltitudeMeters>
            <DistanceMeters>NAN</DistanceMeters>
          </Trackpoint>
          <Trackpoint>
            <Time>2021-04-01T13:58:59.000Z</Time>
            <Position>
              <LatitudeDegrees>42.40555445663630962371826171875</LatitudeDegrees>
              <LongitudeDegrees>2.68377877771854400634765625</LongitudeDegrees>
            </Position>
            <AltitudeMeters>1070.800048828125</AltitudeMeters>
            <DistanceMeters>NAN</DistanceMeters>
          </Trackpoint>
          <Trackpoint>
            <Time>2021-04-01T13:59:01.000Z</Time>
            <Position>
              <LatitudeDegrees>42.40554674528539180755615234375</LatitudeDegrees>
              <LongitudeDegrees>2.683767713606357574462890625</LongitudeDegrees>
            </Position>
            <AltitudeMeters>1070.800048828125</AltitudeMeters>
            <DistanceMeters>NAN</DistanceMeters>
          </Trackpoint>
          <Trackpoint>
            <Time>2021-04-01T13:59:05.000Z</Time>
            <Position>
              <LatitudeDegrees>42.40550952963531017303466796875</LatitudeDegrees>
              <LongitudeDegrees>2.68373175524175167083740234375</LongitudeDegrees>
            </Position>
            <AltitudeMeters>1070.800048828125</AltitudeMeters>
            <DistanceMeters>NAN</DistanceMeters>
          </Trackpoint>
          <Trackpoint>
            <Time>2021-04-01T13:59:08.000Z</Time>
            <Position>
              <LatitudeDegrees>42.40548153407871723175048828125</LatitudeDegrees>
              <LongitudeDegrees>2.68370375968515872955322265625</LongitudeDegrees>
            </Position>
            <AltitudeMeters>1071</AltitudeMeters>
            <DistanceMeters>NAN</DistanceMeters>
          </Trackpoint>
          <Trackpoint>
            <Time>2021-04-01T13:59:11.000Z</Time>
            <Position>
              <LatitudeDegrees>42.40545152686536312103271484375</LatitudeDegrees>
              <LongitudeDegrees>2.683669812977313995361328125</LongitudeDegrees>
            </Position>
            <AltitudeMeters>1070.800048828125</AltitudeMeters>
            <DistanceMeters>NAN</DistanceMeters>
          </Trackpoint>
          <Trackpoint>
            <Time>2021-04-01T13:59:15.000Z</Time>
            <Position>
              <LatitudeDegrees>42.4054273031651973724365234375</LatitudeDegrees>
              <LongitudeDegrees>2.68363905139267444610595703125</LongitudeDegrees>
            </Position>
            <AltitudeMeters>1070.800048828125</AltitudeMeters>
            <DistanceMeters>NAN</DistanceMeters>
          </Trackpoint>
          <Trackpoint>
            <Time>2021-04-01T13:59:17.000Z</Time>
            <Position>
              <LatitudeDegrees>42.4053998105227947235107421875</LatitudeDegrees>
              <LongitudeDegrees>2.683606110513210296630859375</LongitudeDegrees>
            </Position>
            <AltitudeMeters>1070.5999755859375</AltitudeMeters>
            <DistanceMeters>NAN</DistanceMeters>
          </Trackpoint>
          <Trackpoint>
            <Time>2021-04-01T13:59:23.000Z</Time>
            <Position>
              <LatitudeDegrees>42.40534759126603603363037109375</LatitudeDegrees>
              <LongitudeDegrees>2.68354819156229496002197265625</LongitudeDegrees>
            </Position>
            <AltitudeMeters>1070.4000244140625</AltitudeMeters>
            <DistanceMeters>NAN</DistanceMeters>
          </Trackpoint>
          <Trackpoint>
            <Time>2021-04-01T13:59:38.000Z</Time>
            <Position>
              <LatitudeDegrees>42.40523778833448886871337890625</LatitudeDegrees>
              <LongitudeDegrees>2.68341156654059886932373046875</LongitudeDegrees>
            </Position>
            <AltitudeMeters>1070.199951171875</AltitudeMeters>
            <DistanceMeters>NAN</DistanceMeters>
          </Trackpoint>
          <Trackpoint>
            <Time>2021-04-01T13:59:43.000Z</Time>
            <Position>
              <LatitudeDegrees>42.4051996506750583648681640625</LatitudeDegrees>
              <LongitudeDegrees>2.6833507977426052093505859375</LongitudeDegrees>
            </Position>
            <AltitudeMeters>1070</AltitudeMeters>
            <DistanceMeters>NAN</DistanceMeters>
          </Trackpoint>
          <Trackpoint>
            <Time>2021-04-01T13:59:44.000Z</Time>
            <Position>
              <LatitudeDegrees>42.40518598817288875579833984375</LatitudeDegrees>
              <LongitudeDegrees>2.68332674168050289154052734375</LongitudeDegrees>
            </Position>
            <AltitudeMeters>1069.800048828125</AltitudeMeters>
            <DistanceMeters>NAN</DistanceMeters>
          </Trackpoint>
          <Trackpoint>
            <Time>2021-04-01T13:59:48.000Z</Time>
            <Position>
              <LatitudeDegrees>42.40516101010143756866455078125</LatitudeDegrees>
              <LongitudeDegrees>2.68328600563108921051025390625</LongitudeDegrees>
            </Position>
            <AltitudeMeters>1069.800048828125</AltitudeMeters>
            <DistanceMeters>NAN</DistanceMeters>
          </Trackpoint>
          <Trackpoint>
            <Time>2021-04-01T13:59:59.000Z</Time>
            <Position>
              <LatitudeDegrees>42.40509529598057270050048828125</LatitudeDegrees>
              <LongitudeDegrees>2.683168910443782806396484375</LongitudeDegrees>
            </Position>
            <AltitudeMeters>1070</AltitudeMeters>
            <DistanceMeters>NAN</DistanceMeters>
          </Trackpoint>
          <Trackpoint>
            <Time>2021-04-01T14:00:00.000Z</Time>
            <Position>
              <LatitudeDegrees>42.4050816334784030914306640625</LatitudeDegrees>
              <LongitudeDegrees>2.68315357156097888946533203125</LongitudeDegrees>
            </Position>
            <AltitudeMeters>1070</AltitudeMeters>
            <DistanceMeters>NAN</DistanceMeters>
          </Trackpoint>
          <Trackpoint>
            <Time>2021-04-01T14:00:12.000Z</Time>
            <Position>
              <LatitudeDegrees>42.405008375644683837890625</LatitudeDegrees>
              <LongitudeDegrees>2.6830135099589824676513671875</LongitudeDegrees>
            </Position>
            <AltitudeMeters>1069.800048828125</AltitudeMeters>
            <DistanceMeters>NAN</DistanceMeters>
          </Trackpoint>
          <Trackpoint>
            <Time>2021-04-01T14:00:19.000Z</Time>
            <Position>
              <LatitudeDegrees>42.4049649573862552642822265625</LatitudeDegrees>
              <LongitudeDegrees>2.68292021937668323516845703125</LongitudeDegrees>
            </Position>
            <AltitudeMeters>1070.199951171875</AltitudeMeters>
            <DistanceMeters>NAN</DistanceMeters>
          </Trackpoint>
          <Trackpoint>
            <Time>2021-04-01T14:00:21.000Z</Time>
            <Position>
              <LatitudeDegrees>42.4049548991024494171142578125</LatitudeDegrees>
              <LongitudeDegrees>2.6828998513519763946533203125</LongitudeDegrees>
            </Position>
            <AltitudeMeters>1070.4000244140625</AltitudeMeters>
            <DistanceMeters>NAN</DistanceMeters>
          </Trackpoint>
          <Trackpoint>
            <Time>2021-04-01T14:00:24.000Z</Time>
            <Position>
              <LatitudeDegrees>42.4049314297735691070556640625</LatitudeDegrees>
              <LongitudeDegrees>2.68287227489054203033447265625</LongitudeDegrees>
            </Position>
            <AltitudeMeters>1070.4000244140625</AltitudeMeters>
            <DistanceMeters>NAN</DistanceMeters>
          </Trackpoint>
          <Trackpoint>
            <Time>2021-04-01T14:00:27.000Z</Time>
            <Position>
              <LatitudeDegrees>42.40490033291280269622802734375</LatitudeDegrees>
              <LongitudeDegrees>2.6828395016491413116455078125</LongitudeDegrees>
            </Position>
            <AltitudeMeters>1070.4000244140625</AltitudeMeters>
            <DistanceMeters>NAN</DistanceMeters>
          </Trackpoint>
          <Trackpoint>
            <Time>2021-04-01T14:00:28.000Z</Time>
            <Position>
              <LatitudeDegrees>42.40489429794251918792724609375</LatitudeDegrees>
              <LongitudeDegrees>2.68282818607985973358154296875</LongitudeDegrees>
            </Position>
            <AltitudeMeters>1070.4000244140625</AltitudeMeters>
            <DistanceMeters>NAN</DistanceMeters>
          </Trackpoint>
          <Trackpoint>
            <Time>2021-04-01T14:00:31.000Z</Time>
            <Position>
              <LatitudeDegrees>42.40487904287874698638916015625</LatitudeDegrees>
              <LongitudeDegrees>2.68280672840774059295654296875</LongitudeDegrees>
            </Position>
            <AltitudeMeters>1070.4000244140625</AltitudeMeters>
            <DistanceMeters>NAN</DistanceMeters>
          </Trackpoint>
          <Trackpoint>
            <Time>2021-04-01T14:00:34.000Z</Time>
            <Position>
              <LatitudeDegrees>42.404851131141185760498046875</LatitudeDegrees>
              <LongitudeDegrees>2.6827602088451385498046875</LongitudeDegrees>
            </Position>
            <AltitudeMeters>1070.4000244140625</AltitudeMeters>
            <DistanceMeters>NAN</DistanceMeters>
          </Trackpoint>
          <Trackpoint>
            <Time>2021-04-01T14:00:38.000Z</Time>
            <Position>
              <LatitudeDegrees>42.404830344021320343017578125</LatitudeDegrees>
              <LongitudeDegrees>2.6827288605272769927978515625</LongitudeDegrees>
            </Position>
            <AltitudeMeters>1070.5999755859375</AltitudeMeters>
            <DistanceMeters>NAN</DistanceMeters>
          </Trackpoint>
          <Trackpoint>
            <Time>2021-04-01T14:00:46.000Z</Time>
            <Position>
              <LatitudeDegrees>42.4047614447772502899169921875</LatitudeDegrees>
              <LongitudeDegrees>2.6826502382755279541015625</LongitudeDegrees>
            </Position>
            <AltitudeMeters>1070.800048828125</AltitudeMeters>
            <DistanceMeters>NAN</DistanceMeters>
          </Trackpoint>
          <Trackpoint>
            <Time>2021-04-01T14:00:55.000Z</Time>
            <Position>
              <LatitudeDegrees>42.40468558855354785919189453125</LatitudeDegrees>
              <LongitudeDegrees>2.68257790245115756988525390625</LongitudeDegrees>
            </Position>
            <AltitudeMeters>1070.800048828125</AltitudeMeters>
            <DistanceMeters>NAN</DistanceMeters>
          </Trackpoint>
          <Trackpoint>
            <Time>2021-04-01T14:00:59.000Z</Time>
            <Position>
              <LatitudeDegrees>42.4046648852527141571044921875</LatitudeDegrees>
              <LongitudeDegrees>2.68254362046718597412109375</LongitudeDegrees>
            </Position>
            <AltitudeMeters>1070.800048828125</AltitudeMeters>
            <DistanceMeters>NAN</DistanceMeters>
          </Trackpoint>
          <Trackpoint>
            <Time>2021-04-01T14:01:10.000Z</Time>
            <Position>
              <LatitudeDegrees>42.4045725166797637939453125</LatitudeDegrees>
              <LongitudeDegrees>2.682406492531299591064453125</LongitudeDegrees>
            </Position>
            <AltitudeMeters>1070.800048828125</AltitudeMeters>
            <DistanceMeters>NAN</DistanceMeters>
          </Trackpoint>
          <Trackpoint>
            <Time>2021-04-01T14:01:21.000Z</Time>
            <Position>
              <LatitudeDegrees>42.4045311100780963897705078125</LatitudeDegrees>
              <LongitudeDegrees>2.6822881400585174560546875</LongitudeDegrees>
            </Position>
            <AltitudeMeters>1070.5999755859375</AltitudeMeters>
            <DistanceMeters>NAN</DistanceMeters>
          </Trackpoint>
          <Trackpoint>
            <Time>2021-04-01T14:01:25.000Z</Time>
            <Position>
              <LatitudeDegrees>42.40449272096157073974609375</LatitudeDegrees>
              <LongitudeDegrees>2.6822168938815593719482421875</LongitudeDegrees>
            </Position>
            <AltitudeMeters>1070.5999755859375</AltitudeMeters>
            <DistanceMeters>NAN</DistanceMeters>
          </Trackpoint>
          <Trackpoint>
            <Time>2021-04-01T14:01:31.000Z</Time>
            <Position>
              <LatitudeDegrees>42.40448475815355777740478515625</LatitudeDegrees>
              <LongitudeDegrees>2.6821377687156200408935546875</LongitudeDegrees>
            </Position>
            <AltitudeMeters>1070.5999755859375</AltitudeMeters>
            <DistanceMeters>NAN</DistanceMeters>
          </Trackpoint>
          <Trackpoint>
            <Time>2021-04-01T14:01:39.000Z</Time>
            <Position>
              <LatitudeDegrees>42.4044707603752613067626953125</LatitudeDegrees>
              <LongitudeDegrees>2.68199837766587734222412109375</LongitudeDegrees>
            </Position>
            <AltitudeMeters>1070</AltitudeMeters>
            <DistanceMeters>NAN</DistanceMeters>
          </Trackpoint>
          <Trackpoint>
            <Time>2021-04-01T14:01:44.000Z</Time>
            <Position>
              <LatitudeDegrees>42.40447168238461017608642578125</LatitudeDegrees>
              <LongitudeDegrees>2.68192805349826812744140625</LongitudeDegrees>
            </Position>
            <AltitudeMeters>1069.800048828125</AltitudeMeters>
            <DistanceMeters>NAN</DistanceMeters>
          </Trackpoint>
          <Trackpoint>
            <Time>2021-04-01T14:01:55.000Z</Time>
            <Position>
              <LatitudeDegrees>42.40450303070247173309326171875</LatitudeDegrees>
              <LongitudeDegrees>2.681797631084918975830078125</LongitudeDegrees>
            </Position>
            <AltitudeMeters>1069.800048828125</AltitudeMeters>
            <DistanceMeters>NAN</DistanceMeters>
          </Trackpoint>
          <Trackpoint>
            <Time>2021-04-01T14:02:03.000Z</Time>
            <Position>
              <LatitudeDegrees>42.40453354083001613616943359375</LatitudeDegrees>
              <LongitudeDegrees>2.6816868223249912261962890625</LongitudeDegrees>
            </Position>
            <AltitudeMeters>1069.5999755859375</AltitudeMeters>
            <DistanceMeters>NAN</DistanceMeters>
          </Trackpoint>
          <Trackpoint>
            <Time>2021-04-01T14:02:07.000Z</Time>
            <Position>
              <LatitudeDegrees>42.4045512266457080841064453125</LatitudeDegrees>
              <LongitudeDegrees>2.68163611181080341339111328125</LongitudeDegrees>
            </Position>
            <AltitudeMeters>1069.5999755859375</AltitudeMeters>
            <DistanceMeters>NAN</DistanceMeters>
          </Trackpoint>
          <Trackpoint>
            <Time>2021-04-01T14:02:15.000Z</Time>
            <Position>
              <LatitudeDegrees>42.40461400710046291351318359375</LatitudeDegrees>
              <LongitudeDegrees>2.6815275661647319793701171875</LongitudeDegrees>
            </Position>
            <AltitudeMeters>1069.5999755859375</AltitudeMeters>
            <DistanceMeters>NAN</DistanceMeters>
          </Trackpoint>
          <Trackpoint>
            <Time>2021-04-01T14:02:26.000Z</Time>
            <Position>
              <LatitudeDegrees>42.40465457551181316375732421875</LatitudeDegrees>
              <LongitudeDegrees>2.6813813857734203338623046875</LongitudeDegrees>
            </Position>
            <AltitudeMeters>1069.800048828125</AltitudeMeters>
            <DistanceMeters>NAN</DistanceMeters>
          </Trackpoint>
          <Trackpoint>
            <Time>2021-04-01T14:02:28.000Z</Time>
            <Position>
              <LatitudeDegrees>42.40465893410146236419677734375</LatitudeDegrees>
              <LongitudeDegrees>2.6813681423664093017578125</LongitudeDegrees>
            </Position>
            <AltitudeMeters>1069.800048828125</AltitudeMeters>
            <DistanceMeters>NAN</DistanceMeters>
          </Trackpoint>
          <Trackpoint>
            <Time>2021-04-01T14:02:33.000Z</Time>
            <Position>
              <LatitudeDegrees>42.40467536263167858123779296875</LatitudeDegrees>
              <LongitudeDegrees>2.6813010871410369873046875</LongitudeDegrees>
            </Position>
            <AltitudeMeters>1070</AltitudeMeters>
            <DistanceMeters>NAN</DistanceMeters>
          </Trackpoint>
          <Trackpoint>
            <Time>2021-04-01T14:02:37.000Z</Time>
            <Position>
              <LatitudeDegrees>42.4046789668500423431396484375</LatitudeDegrees>
              <LongitudeDegrees>2.68121886067092418670654296875</LongitudeDegrees>
            </Position>
            <AltitudeMeters>1070</AltitudeMeters>
            <DistanceMeters>NAN</DistanceMeters>
          </Trackpoint>
          <Trackpoint>
            <Time>2021-04-01T14:02:39.000Z</Time>
            <Position>
              <LatitudeDegrees>42.40468181669712066650390625</LatitudeDegrees>
              <LongitudeDegrees>2.68120360560715198516845703125</LongitudeDegrees>
            </Position>
            <AltitudeMeters>1070</AltitudeMeters>
            <DistanceMeters>NAN</DistanceMeters>
          </Trackpoint>
          <Trackpoint>
            <Time>2021-04-01T14:02:47.000Z</Time>
            <Position>
              <LatitudeDegrees>42.4047031067311763763427734375</LatitudeDegrees>
              <LongitudeDegrees>2.6810967363417148590087890625</LongitudeDegrees>
            </Position>
            <AltitudeMeters>1070</AltitudeMeters>
            <DistanceMeters>NAN</DistanceMeters>
          </Trackpoint>
          <Trackpoint>
            <Time>2021-04-01T14:02:56.000Z</Time>
            <Position>
              <LatitudeDegrees>42.4047078005969524383544921875</LatitudeDegrees>
              <LongitudeDegrees>2.680978216230869293212890625</LongitudeDegrees>
            </Position>
            <AltitudeMeters>1070</AltitudeMeters>
            <DistanceMeters>NAN</DistanceMeters>
          </Trackpoint>
          <Trackpoint>
            <Time>2021-04-01T14:03:01.000Z</Time>
            <Position>
              <LatitudeDegrees>42.40471911616623401641845703125</LatitudeDegrees>
              <LongitudeDegrees>2.68090772442519664764404296875</LongitudeDegrees>
            </Position>
            <AltitudeMeters>1070.199951171875</AltitudeMeters>
            <DistanceMeters>NAN</DistanceMeters>
          </Trackpoint>
          <Trackpoint>
            <Time>2021-04-01T14:03:03.000Z</Time>
            <Position>
              <LatitudeDegrees>42.40471408702433109283447265625</LatitudeDegrees>
              <LongitudeDegrees>2.68087402917444705963134765625</LongitudeDegrees>
            </Position>
            <AltitudeMeters>1070.199951171875</AltitudeMeters>
            <DistanceMeters>NAN</DistanceMeters>
          </Trackpoint>
          <Trackpoint>
            <Time>2021-04-01T14:03:08.000Z</Time>
            <Position>
              <LatitudeDegrees>42.4046940542757511138916015625</LatitudeDegrees>
              <LongitudeDegrees>2.68079322762787342071533203125</LongitudeDegrees>
            </Position>
            <AltitudeMeters>1070.199951171875</AltitudeMeters>
            <DistanceMeters>NAN</DistanceMeters>
          </Trackpoint>
          <Trackpoint>
            <Time>2021-04-01T14:03:09.000Z</Time>
            <Position>
              <LatitudeDegrees>42.4046947248280048370361328125</LatitudeDegrees>
              <LongitudeDegrees>2.68077629618346691131591796875</LongitudeDegrees>
            </Position>
            <AltitudeMeters>1070.4000244140625</AltitudeMeters>
            <DistanceMeters>NAN</DistanceMeters>
          </Trackpoint>
          <Trackpoint>
            <Time>2021-04-01T14:03:10.000Z</Time>
            <Position>
              <LatitudeDegrees>42.4046947248280048370361328125</LatitudeDegrees>
              <LongitudeDegrees>2.68077629618346691131591796875</LongitudeDegrees>
            </Position>
            <AltitudeMeters>1070.4000244140625</AltitudeMeters>
            <DistanceMeters>NAN</DistanceMeters>
          </Trackpoint>
          <Trackpoint>
            <Time>2021-04-01T14:03:20.000Z</Time>
            <Position>
              <LatitudeDegrees>42.40470838733017444610595703125</LatitudeDegrees>
              <LongitudeDegrees>2.680617459118366241455078125</LongitudeDegrees>
            </Position>
            <AltitudeMeters>1071</AltitudeMeters>
            <DistanceMeters>NAN</DistanceMeters>
          </Trackpoint>
          <Trackpoint>
            <Time>2021-04-01T14:03:22.000Z</Time>
            <Position>
              <LatitudeDegrees>42.4047057889401912689208984375</LatitudeDegrees>
              <LongitudeDegrees>2.68057999201118946075439453125</LongitudeDegrees>
            </Position>
            <AltitudeMeters>1071.199951171875</AltitudeMeters>
            <DistanceMeters>NAN</DistanceMeters>
          </Trackpoint>
          <Trackpoint>
            <Time>2021-04-01T14:03:27.000Z</Time>
            <Position>
              <LatitudeDegrees>42.404724061489105224609375</LatitudeDegrees>
              <LongitudeDegrees>2.680507488548755645751953125</LongitudeDegrees>
            </Position>
            <AltitudeMeters>1071.199951171875</AltitudeMeters>
            <DistanceMeters>NAN</DistanceMeters>
          </Trackpoint>
          <Trackpoint>
            <Time>2021-04-01T14:03:33.000Z</Time>
            <Position>
              <LatitudeDegrees>42.404725737869739532470703125</LatitudeDegrees>
              <LongitudeDegrees>2.6804387569427490234375</LongitudeDegrees>
            </Position>
            <AltitudeMeters>1071.4000244140625</AltitudeMeters>
            <DistanceMeters>NAN</DistanceMeters>
          </Trackpoint>
          <Trackpoint>
            <Time>2021-04-01T14:03:35.000Z</Time>
            <Position>
              <LatitudeDegrees>42.40472598932683467864990234375</LatitudeDegrees>
              <LongitudeDegrees>2.68039382994174957275390625</LongitudeDegrees>
            </Position>
            <AltitudeMeters>1071.4000244140625</AltitudeMeters>
            <DistanceMeters>NAN</DistanceMeters>
          </Trackpoint>
          <Trackpoint>
            <Time>2021-04-01T14:03:45.000Z</Time>
            <Position>
              <LatitudeDegrees>42.40472875535488128662109375</LatitudeDegrees>
              <LongitudeDegrees>2.68026751466095447540283203125</LongitudeDegrees>
            </Position>
            <AltitudeMeters>1071.800048828125</AltitudeMeters>
            <DistanceMeters>NAN</DistanceMeters>
          </Trackpoint>
          <Trackpoint>
            <Time>2021-04-01T14:03:54.000Z</Time>
            <Position>
              <LatitudeDegrees>42.4047252349555492401123046875</LatitudeDegrees>
              <LongitudeDegrees>2.68013994209468364715576171875</LongitudeDegrees>
            </Position>
            <AltitudeMeters>1072</AltitudeMeters>
            <DistanceMeters>NAN</DistanceMeters>
          </Trackpoint>
          <Trackpoint>
            <Time>2021-04-01T14:03:58.000Z</Time>
            <Position>
              <LatitudeDegrees>42.404724396765232086181640625</LatitudeDegrees>
              <LongitudeDegrees>2.68006215803325176239013671875</LongitudeDegrees>
            </Position>
            <AltitudeMeters>1072</AltitudeMeters>
            <DistanceMeters>NAN</DistanceMeters>
          </Trackpoint>
          <Trackpoint>
            <Time>2021-04-01T14:04:01.000Z</Time>
            <Position>
              <LatitudeDegrees>42.40472607314586639404296875</LatitudeDegrees>
              <LongitudeDegrees>2.68001320771872997283935546875</LongitudeDegrees>
            </Position>
            <AltitudeMeters>1072</AltitudeMeters>
            <DistanceMeters>NAN</DistanceMeters>
          </Trackpoint>
          <Trackpoint>
            <Time>2021-04-01T14:04:02.000Z</Time>
            <Position>
              <LatitudeDegrees>42.4047280848026275634765625</LatitudeDegrees>
              <LongitudeDegrees>2.679998874664306640625</LongitudeDegrees>
            </Position>
            <AltitudeMeters>1072.199951171875</AltitudeMeters>
            <DistanceMeters>NAN</DistanceMeters>
          </Trackpoint>
          <Trackpoint>
            <Time>2021-04-01T14:04:07.000Z</Time>
            <Position>
              <LatitudeDegrees>42.4047510512173175811767578125</LatitudeDegrees>
              <LongitudeDegrees>2.67993140034377574920654296875</LongitudeDegrees>
            </Position>
            <AltitudeMeters>1072.4000244140625</AltitudeMeters>
            <DistanceMeters>NAN</DistanceMeters>
          </Trackpoint>
          <Trackpoint>
            <Time>2021-04-01T14:04:19.000Z</Time>
            <Position>
              <LatitudeDegrees>42.404808886349201202392578125</LatitudeDegrees>
              <LongitudeDegrees>2.67977968789637088775634765625</LongitudeDegrees>
            </Position>
            <AltitudeMeters>1072.4000244140625</AltitudeMeters>
            <DistanceMeters>NAN</DistanceMeters>
          </Trackpoint>
          <Trackpoint>
            <Time>2021-04-01T14:04:22.000Z</Time>
            <Position>
              <LatitudeDegrees>42.40482590161263942718505859375</LatitudeDegrees>
              <LongitudeDegrees>2.6797428913414478302001953125</LongitudeDegrees>
            </Position>
            <AltitudeMeters>1072.4000244140625</AltitudeMeters>
            <DistanceMeters>NAN</DistanceMeters>
          </Trackpoint>
          <Trackpoint>
            <Time>2021-04-01T14:04:23.000Z</Time>
            <Position>
              <LatitudeDegrees>42.40482942201197147369384765625</LatitudeDegrees>
              <LongitudeDegrees>2.67972922883927822113037109375</LongitudeDegrees>
            </Position>
            <AltitudeMeters>1072.4000244140625</AltitudeMeters>
            <DistanceMeters>NAN</DistanceMeters>
          </Trackpoint>
          <Trackpoint>
            <Time>2021-04-01T14:04:25.000Z</Time>
            <Position>
              <LatitudeDegrees>42.40483336150646209716796875</LatitudeDegrees>
              <LongitudeDegrees>2.67970089800655841827392578125</LongitudeDegrees>
            </Position>
            <AltitudeMeters>1072.4000244140625</AltitudeMeters>
            <DistanceMeters>NAN</DistanceMeters>
          </Trackpoint>
          <Trackpoint>
            <Time>2021-04-01T14:04:26.000Z</Time>
            <Position>
              <LatitudeDegrees>42.40483646281063556671142578125</LatitudeDegrees>
              <LongitudeDegrees>2.679685056209564208984375</LongitudeDegrees>
            </Position>
            <AltitudeMeters>1072.4000244140625</AltitudeMeters>
            <DistanceMeters>NAN</DistanceMeters>
          </Trackpoint>
          <Trackpoint>
            <Time>2021-04-01T14:04:37.000Z</Time>
            <Position>
              <LatitudeDegrees>42.40484802983701229095458984375</LatitudeDegrees>
              <LongitudeDegrees>2.67954482696950435638427734375</LongitudeDegrees>
            </Position>
            <AltitudeMeters>1072.800048828125</AltitudeMeters>
            <DistanceMeters>NAN</DistanceMeters>
          </Trackpoint>
          <Trackpoint>
            <Time>2021-04-01T14:04:38.000Z</Time>
            <Position>
              <LatitudeDegrees>42.40484769456088542938232421875</LatitudeDegrees>
              <LongitudeDegrees>2.67953175120055675506591796875</LongitudeDegrees>
            </Position>
            <AltitudeMeters>1073</AltitudeMeters>
            <DistanceMeters>NAN</DistanceMeters>
          </Trackpoint>
          <Trackpoint>
            <Time>2021-04-01T14:04:47.000Z</Time>
            <Position>
              <LatitudeDegrees>42.40482321940362453460693359375</LatitudeDegrees>
              <LongitudeDegrees>2.67936922609806060791015625</LongitudeDegrees>
            </Position>
            <AltitudeMeters>1072.199951171875</AltitudeMeters>
            <DistanceMeters>NAN</DistanceMeters>
          </Trackpoint>
          <Trackpoint>
            <Time>2021-04-01T14:04:48.000Z</Time>
            <Position>
              <LatitudeDegrees>42.40482321940362453460693359375</LatitudeDegrees>
              <LongitudeDegrees>2.67936922609806060791015625</LongitudeDegrees>
            </Position>
            <AltitudeMeters>1072.199951171875</AltitudeMeters>
            <DistanceMeters>NAN</DistanceMeters>
          </Trackpoint>
          <Trackpoint>
            <Time>2021-04-01T14:04:49.000Z</Time>
            <Position>
              <LatitudeDegrees>42.4048184417188167572021484375</LatitudeDegrees>
              <LongitudeDegrees>2.679354809224605560302734375</LongitudeDegrees>
            </Position>
            <AltitudeMeters>1072.199951171875</AltitudeMeters>
            <DistanceMeters>NAN</DistanceMeters>
          </Trackpoint>
          <Trackpoint>
            <Time>2021-04-01T14:04:54.000Z</Time>
            <Position>
              <LatitudeDegrees>42.40480310283601284027099609375</LatitudeDegrees>
              <LongitudeDegrees>2.6792704872786998748779296875</LongitudeDegrees>
            </Position>
            <AltitudeMeters>1072.4000244140625</AltitudeMeters>
            <DistanceMeters>NAN</DistanceMeters>
          </Trackpoint>
          <Trackpoint>
            <Time>2021-04-01T14:04:55.000Z</Time>
            <Position>
              <LatitudeDegrees>42.40480025298893451690673828125</LatitudeDegrees>
              <LongitudeDegrees>2.6792587526142597198486328125</LongitudeDegrees>
            </Position>
            <AltitudeMeters>1072.4000244140625</AltitudeMeters>
            <DistanceMeters>NAN</DistanceMeters>
          </Trackpoint>
          <Trackpoint>
            <Time>2021-04-01T14:04:58.000Z</Time>
            <Position>
              <LatitudeDegrees>42.40480058826506137847900390625</LatitudeDegrees>
              <LongitudeDegrees>2.67922480590641498565673828125</LongitudeDegrees>
            </Position>
            <AltitudeMeters>1072.4000244140625</AltitudeMeters>
            <DistanceMeters>NAN</DistanceMeters>
          </Trackpoint>
          <Trackpoint>
            <Time>2021-04-01T14:04:59.000Z</Time>
            <Position>
              <LatitudeDegrees>42.404802851378917694091796875</LatitudeDegrees>
              <LongitudeDegrees>2.67920854501426219940185546875</LongitudeDegrees>
            </Position>
            <AltitudeMeters>1072.4000244140625</AltitudeMeters>
            <DistanceMeters>NAN</DistanceMeters>
          </Trackpoint>
          <Trackpoint>
            <Time>2021-04-01T14:05:01.000Z</Time>
            <Position>
              <LatitudeDegrees>42.4048058688640594482421875</LatitudeDegrees>
              <LongitudeDegrees>2.6791749335825443267822265625</LongitudeDegrees>
            </Position>
            <AltitudeMeters>1072.4000244140625</AltitudeMeters>
            <DistanceMeters>NAN</DistanceMeters>
          </Trackpoint>
          <Trackpoint>
            <Time>2021-04-01T14:05:06.000Z</Time>
            <Position>
              <LatitudeDegrees>42.40479958243668079376220703125</LatitudeDegrees>
              <LongitudeDegrees>2.679120786488056182861328125</LongitudeDegrees>
            </Position>
            <AltitudeMeters>1072.199951171875</AltitudeMeters>
            <DistanceMeters>NAN</DistanceMeters>
          </Trackpoint>
          <Trackpoint>
            <Time>2021-04-01T14:05:09.000Z</Time>
            <Position>
              <LatitudeDegrees>42.40480075590312480926513671875</LatitudeDegrees>
              <LongitudeDegrees>2.67907954752445220947265625</LongitudeDegrees>
            </Position>
            <AltitudeMeters>1072.199951171875</AltitudeMeters>
            <DistanceMeters>NAN</DistanceMeters>
          </Trackpoint>
          <Trackpoint>
            <Time>2021-04-01T14:05:10.000Z</Time>
            <Position>
              <LatitudeDegrees>42.4048030190169811248779296875</LatitudeDegrees>
              <LongitudeDegrees>2.67907015979290008544921875</LongitudeDegrees>
            </Position>
            <AltitudeMeters>1072.199951171875</AltitudeMeters>
            <DistanceMeters>NAN</DistanceMeters>
          </Trackpoint>
          <Trackpoint>
            <Time>2021-04-01T14:05:12.000Z</Time>
            <Position>
              <LatitudeDegrees>42.4048020131886005401611328125</LatitudeDegrees>
              <LongitudeDegrees>2.6790445111691951751708984375</LongitudeDegrees>
            </Position>
            <AltitudeMeters>1072</AltitudeMeters>
            <DistanceMeters>NAN</DistanceMeters>
          </Trackpoint>
          <Trackpoint>
            <Time>2021-04-01T14:05:15.000Z</Time>
            <Position>
              <LatitudeDegrees>42.40480578504502773284912109375</LatitudeDegrees>
              <LongitudeDegrees>2.6789945550262928009033203125</LongitudeDegrees>
            </Position>
            <AltitudeMeters>1072</AltitudeMeters>
            <DistanceMeters>NAN</DistanceMeters>
          </Trackpoint>
          <Trackpoint>
            <Time>2021-04-01T14:05:16.000Z</Time>
            <Position>
              <LatitudeDegrees>42.4048070423305034637451171875</LatitudeDegrees>
              <LongitudeDegrees>2.67898072488605976104736328125</LongitudeDegrees>
            </Position>
            <AltitudeMeters>1072</AltitudeMeters>
            <DistanceMeters>NAN</DistanceMeters>
          </Trackpoint>
          <Trackpoint>
            <Time>2021-04-01T14:05:19.000Z</Time>
            <Position>
              <LatitudeDegrees>42.40481483750045299530029296875</LatitudeDegrees>
              <LongitudeDegrees>2.67893797717988491058349609375</LongitudeDegrees>
            </Position>
            <AltitudeMeters>1071.800048828125</AltitudeMeters>
            <DistanceMeters>NAN</DistanceMeters>
          </Trackpoint>
          <Trackpoint>
            <Time>2021-04-01T14:05:21.000Z</Time>
            <Position>
              <LatitudeDegrees>42.4048100598156452178955078125</LatitudeDegrees>
              <LongitudeDegrees>2.67891056835651397705078125</LongitudeDegrees>
            </Position>
            <AltitudeMeters>1071.800048828125</AltitudeMeters>
            <DistanceMeters>NAN</DistanceMeters>
          </Trackpoint>
          <Trackpoint>
            <Time>2021-04-01T14:05:25.000Z</Time>
            <Position>
              <LatitudeDegrees>42.40480377338826656341552734375</LatitudeDegrees>
              <LongitudeDegrees>2.67884359695017337799072265625</LongitudeDegrees>
            </Position>
            <AltitudeMeters>1071.5999755859375</AltitudeMeters>
            <DistanceMeters>NAN</DistanceMeters>
          </Trackpoint>
          <Trackpoint>
            <Time>2021-04-01T14:05:30.000Z</Time>
            <Position>
              <LatitudeDegrees>42.404796145856380462646484375</LatitudeDegrees>
              <LongitudeDegrees>2.6787464506924152374267578125</LongitudeDegrees>
            </Position>
            <AltitudeMeters>1071.4000244140625</AltitudeMeters>
            <DistanceMeters>NAN</DistanceMeters>
          </Trackpoint>
          <Trackpoint>
            <Time>2021-04-01T14:05:32.000Z</Time>
            <Position>
              <LatitudeDegrees>42.40479840897023677825927734375</LatitudeDegrees>
              <LongitudeDegrees>2.6787323690950870513916015625</LongitudeDegrees>
            </Position>
            <AltitudeMeters>1071.4000244140625</AltitudeMeters>
            <DistanceMeters>NAN</DistanceMeters>
          </Trackpoint>
          <Trackpoint>
            <Time>2021-04-01T14:05:34.000Z</Time>
            <Position>
              <LatitudeDegrees>42.40480176173150539398193359375</LatitudeDegrees>
              <LongitudeDegrees>2.67868652008473873138427734375</LongitudeDegrees>
            </Position>
            <AltitudeMeters>1071.4000244140625</AltitudeMeters>
            <DistanceMeters>NAN</DistanceMeters>
          </Trackpoint>
          <Trackpoint>
            <Time>2021-04-01T14:05:36.000Z</Time>
            <Position>
              <LatitudeDegrees>42.40480025298893451690673828125</LatitudeDegrees>
              <LongitudeDegrees>2.6786656491458415985107421875</LongitudeDegrees>
            </Position>
            <AltitudeMeters>1071.4000244140625</AltitudeMeters>
            <DistanceMeters>NAN</DistanceMeters>
          </Trackpoint>
          <Trackpoint>
            <Time>2021-04-01T14:05:43.000Z</Time>
            <Position>
              <LatitudeDegrees>42.40477946586906909942626953125</LatitudeDegrees>
              <LongitudeDegrees>2.6785422675311565399169921875</LongitudeDegrees>
            </Position>
            <AltitudeMeters>1071.800048828125</AltitudeMeters>
            <DistanceMeters>NAN</DistanceMeters>
          </Trackpoint>
          <Trackpoint>
            <Time>2021-04-01T14:05:55.000Z</Time>
            <Position>
              <LatitudeDegrees>42.40474761463701725006103515625</LatitudeDegrees>
              <LongitudeDegrees>2.678365409374237060546875</LongitudeDegrees>
            </Position>
            <AltitudeMeters>1071.4000244140625</AltitudeMeters>
            <DistanceMeters>NAN</DistanceMeters>
          </Trackpoint>
          <Trackpoint>
            <Time>2021-04-01T14:05:58.000Z</Time>
            <Position>
              <LatitudeDegrees>42.40473940037190914154052734375</LatitudeDegrees>
              <LongitudeDegrees>2.67831981182098388671875</LongitudeDegrees>
            </Position>
            <AltitudeMeters>1071.4000244140625</AltitudeMeters>
            <DistanceMeters>NAN</DistanceMeters>
          </Trackpoint>
          <Trackpoint>
            <Time>2021-04-01T14:06:00.000Z</Time>
            <Position>
              <LatitudeDegrees>42.4047339521348476409912109375</LatitudeDegrees>
              <LongitudeDegrees>2.67828695476055145263671875</LongitudeDegrees>
            </Position>
            <AltitudeMeters>1071.4000244140625</AltitudeMeters>
            <DistanceMeters>NAN</DistanceMeters>
          </Trackpoint>
          <Trackpoint>
            <Time>2021-04-01T14:06:08.000Z</Time>
            <Position>
              <LatitudeDegrees>42.40470972843468189239501953125</LatitudeDegrees>
              <LongitudeDegrees>2.67818310298025608062744140625</LongitudeDegrees>
            </Position>
            <AltitudeMeters>1071</AltitudeMeters>
            <DistanceMeters>NAN</DistanceMeters>
          </Trackpoint>
          <Trackpoint>
            <Time>2021-04-01T14:06:09.000Z</Time>
            <Position>
              <LatitudeDegrees>42.40470151416957378387451171875</LatitudeDegrees>
              <LongitudeDegrees>2.6781493239104747772216796875</LongitudeDegrees>
            </Position>
            <AltitudeMeters>1070.800048828125</AltitudeMeters>
            <DistanceMeters>NAN</DistanceMeters>
          </Trackpoint>
          <Trackpoint>
            <Time>2021-04-01T14:06:15.000Z</Time>
            <Position>
              <LatitudeDegrees>42.40467620082199573516845703125</LatitudeDegrees>
              <LongitudeDegrees>2.6780618168413639068603515625</LongitudeDegrees>
            </Position>
            <AltitudeMeters>1070.4000244140625</AltitudeMeters>
            <DistanceMeters>NAN</DistanceMeters>
          </Trackpoint>
          <Trackpoint>
            <Time>2021-04-01T14:06:17.000Z</Time>
            <Position>
              <LatitudeDegrees>42.4046655558049678802490234375</LatitudeDegrees>
              <LongitudeDegrees>2.67803323455154895782470703125</LongitudeDegrees>
            </Position>
            <AltitudeMeters>1070.199951171875</AltitudeMeters>
            <DistanceMeters>NAN</DistanceMeters>
          </Trackpoint>
          <Trackpoint>
            <Time>2021-04-01T14:06:18.000Z</Time>
            <Position>
              <LatitudeDegrees>42.40465633571147918701171875</LatitudeDegrees>
              <LongitudeDegrees>2.67802007496356964111328125</LongitudeDegrees>
            </Position>
            <AltitudeMeters>1070.199951171875</AltitudeMeters>
            <DistanceMeters>NAN</DistanceMeters>
          </Trackpoint>
          <Trackpoint>
            <Time>2021-04-01T14:06:20.000Z</Time>
            <Position>
              <LatitudeDegrees>42.4046451039612293243408203125</LatitudeDegrees>
              <LongitudeDegrees>2.67799132503569126129150390625</LongitudeDegrees>
            </Position>
            <AltitudeMeters>1070.199951171875</AltitudeMeters>
            <DistanceMeters>NAN</DistanceMeters>
          </Trackpoint>
          <Trackpoint>
            <Time>2021-04-01T14:06:23.000Z</Time>
            <Position>
              <LatitudeDegrees>42.4046370573341846466064453125</LatitudeDegrees>
              <LongitudeDegrees>2.677938602864742279052734375</LongitudeDegrees>
            </Position>
            <AltitudeMeters>1070</AltitudeMeters>
            <DistanceMeters>NAN</DistanceMeters>
          </Trackpoint>
          <Trackpoint>
            <Time>2021-04-01T14:06:27.000Z</Time>
            <Position>
              <LatitudeDegrees>42.404627837240695953369140625</LatitudeDegrees>
              <LongitudeDegrees>2.67789593897759914398193359375</LongitudeDegrees>
            </Position>
            <AltitudeMeters>1069.5999755859375</AltitudeMeters>
            <DistanceMeters>NAN</DistanceMeters>
          </Trackpoint>
          <Trackpoint>
            <Time>2021-04-01T14:06:28.000Z</Time>
            <Position>
              <LatitudeDegrees>42.40462356247007846832275390625</LatitudeDegrees>
              <LongitudeDegrees>2.6778831146657466888427734375</LongitudeDegrees>
            </Position>
            <AltitudeMeters>1069.5999755859375</AltitudeMeters>
            <DistanceMeters>NAN</DistanceMeters>
          </Trackpoint>
          <Trackpoint>
            <Time>2021-04-01T14:06:35.000Z</Time>
            <Position>
              <LatitudeDegrees>42.4046038649976253509521484375</LatitudeDegrees>
              <LongitudeDegrees>2.67777708359062671661376953125</LongitudeDegrees>
            </Position>
            <AltitudeMeters>1069</AltitudeMeters>
            <DistanceMeters>NAN</DistanceMeters>
          </Trackpoint>
          <Trackpoint>
            <Time>2021-04-01T14:06:37.000Z</Time>
            <Position>
              <LatitudeDegrees>42.40459330379962921142578125</LatitudeDegrees>
              <LongitudeDegrees>2.67773031257092952728271484375</LongitudeDegrees>
            </Position>
            <AltitudeMeters>1068.800048828125</AltitudeMeters>
            <DistanceMeters>NAN</DistanceMeters>
          </Trackpoint>
          <Trackpoint>
            <Time>2021-04-01T14:06:39.000Z</Time>
            <Position>
              <LatitudeDegrees>42.40459070540964603424072265625</LatitudeDegrees>
              <LongitudeDegrees>2.67771841026842594146728515625</LongitudeDegrees>
            </Position>
            <AltitudeMeters>1068.5999755859375</AltitudeMeters>
            <DistanceMeters>NAN</DistanceMeters>
          </Trackpoint>
          <Trackpoint>
            <Time>2021-04-01T14:06:48.000Z</Time>
            <Position>
              <LatitudeDegrees>42.40456111729145050048828125</LatitudeDegrees>
              <LongitudeDegrees>2.6775647699832916259765625</LongitudeDegrees>
            </Position>
            <AltitudeMeters>1068</AltitudeMeters>
            <DistanceMeters>NAN</DistanceMeters>
          </Trackpoint>
          <Trackpoint>
            <Time>2021-04-01T14:06:49.000Z</Time>
            <Position>
              <LatitudeDegrees>42.40456111729145050048828125</LatitudeDegrees>
              <LongitudeDegrees>2.6775647699832916259765625</LongitudeDegrees>
            </Position>
            <AltitudeMeters>1068</AltitudeMeters>
            <DistanceMeters>NAN</DistanceMeters>
          </Trackpoint>
          <Trackpoint>
            <Time>2021-04-01T14:07:01.000Z</Time>
            <Position>
              <LatitudeDegrees>42.4045126698911190032958984375</LatitudeDegrees>
              <LongitudeDegrees>2.67734290100634098052978515625</LongitudeDegrees>
            </Position>
            <AltitudeMeters>1067</AltitudeMeters>
            <DistanceMeters>NAN</DistanceMeters>
          </Trackpoint>
          <Trackpoint>
            <Time>2021-04-01T14:07:02.000Z</Time>
            <Position>
              <LatitudeDegrees>42.4045079760253429412841796875</LatitudeDegrees>
              <LongitudeDegrees>2.67733250744640827178955078125</LongitudeDegrees>
            </Position>
            <AltitudeMeters>1066.800048828125</AltitudeMeters>
            <DistanceMeters>NAN</DistanceMeters>
          </Trackpoint>
          <Trackpoint>
            <Time>2021-04-01T14:07:05.000Z</Time>
            <Position>
              <LatitudeDegrees>42.40449649281799793243408203125</LatitudeDegrees>
              <LongitudeDegrees>2.67730518244206905364990234375</LongitudeDegrees>
            </Position>
            <AltitudeMeters>1066.4000244140625</AltitudeMeters>
            <DistanceMeters>NAN</DistanceMeters>
          </Trackpoint>
          <Trackpoint>
            <Time>2021-04-01T14:07:07.000Z</Time>
            <Position>
              <LatitudeDegrees>42.40448626689612865447998046875</LatitudeDegrees>
              <LongitudeDegrees>2.67728070728480815887451171875</LongitudeDegrees>
            </Position>
            <AltitudeMeters>1066.4000244140625</AltitudeMeters>
            <DistanceMeters>NAN</DistanceMeters>
          </Trackpoint>
          <Trackpoint>
            <Time>2021-04-01T14:07:09.000Z</Time>
            <Position>
              <LatitudeDegrees>42.40447268821299076080322265625</LatitudeDegrees>
              <LongitudeDegrees>2.6772340200841426849365234375</LongitudeDegrees>
            </Position>
            <AltitudeMeters>1065.800048828125</AltitudeMeters>
            <DistanceMeters>NAN</DistanceMeters>
          </Trackpoint>
          <Trackpoint>
            <Time>2021-04-01T14:07:10.000Z</Time>
            <Position>
              <LatitudeDegrees>42.40447268821299076080322265625</LatitudeDegrees>
              <LongitudeDegrees>2.6772340200841426849365234375</LongitudeDegrees>
            </Position>
            <AltitudeMeters>1065.5999755859375</AltitudeMeters>
            <DistanceMeters>NAN</DistanceMeters>
          </Trackpoint>
          <Trackpoint>
            <Time>2021-04-01T14:07:15.000Z</Time>
            <Position>
              <LatitudeDegrees>42.40442273207008838653564453125</LatitudeDegrees>
              <LongitudeDegrees>2.6771642826497554779052734375</LongitudeDegrees>
            </Position>
            <AltitudeMeters>1065.199951171875</AltitudeMeters>
            <DistanceMeters>NAN</DistanceMeters>
          </Trackpoint>
          <Trackpoint>
            <Time>2021-04-01T14:07:23.000Z</Time>
            <Position>
              <LatitudeDegrees>42.4043775536119937896728515625</LatitudeDegrees>
              <LongitudeDegrees>2.677078284323215484619140625</LongitudeDegrees>
            </Position>
            <AltitudeMeters>1064.800048828125</AltitudeMeters>
            <DistanceMeters>NAN</DistanceMeters>
          </Trackpoint>
          <Trackpoint>
            <Time>2021-04-01T14:07:24.000Z</Time>
            <Position>
              <LatitudeDegrees>42.4043701775372028350830078125</LatitudeDegrees>
              <LongitudeDegrees>2.67706763930618762969970703125</LongitudeDegrees>
            </Position>
            <AltitudeMeters>1064.5999755859375</AltitudeMeters>
            <DistanceMeters>NAN</DistanceMeters>
          </Trackpoint>
          <Trackpoint>
            <Time>2021-04-01T14:07:30.000Z</Time>
            <Position>
              <LatitudeDegrees>42.40432600490748882293701171875</LatitudeDegrees>
              <LongitudeDegrees>2.67699723131954669952392578125</LongitudeDegrees>
            </Position>
            <AltitudeMeters>1063.800048828125</AltitudeMeters>
            <DistanceMeters>NAN</DistanceMeters>
          </Trackpoint>
          <Trackpoint>
            <Time>2021-04-01T14:07:32.000Z</Time>
            <Position>
              <LatitudeDegrees>42.40431812591850757598876953125</LatitudeDegrees>
              <LongitudeDegrees>2.676974348723888397216796875</LongitudeDegrees>
            </Position>
            <AltitudeMeters>1063.5999755859375</AltitudeMeters>
            <DistanceMeters>NAN</DistanceMeters>
          </Trackpoint>
          <Trackpoint>
            <Time>2021-04-01T14:07:34.000Z</Time>
            <Position>
              <LatitudeDegrees>42.40430890582501888275146484375</LatitudeDegrees>
              <LongitudeDegrees>2.676949203014373779296875</LongitudeDegrees>
            </Position>
            <AltitudeMeters>1063.5999755859375</AltitudeMeters>
            <DistanceMeters>NAN</DistanceMeters>
          </Trackpoint>
          <Trackpoint>
            <Time>2021-04-01T14:07:35.000Z</Time>
            <Position>
              <LatitudeDegrees>42.40430094301700592041015625</LatitudeDegrees>
              <LongitudeDegrees>2.6769383065402507781982421875</LongitudeDegrees>
            </Position>
            <AltitudeMeters>1063.5999755859375</AltitudeMeters>
            <DistanceMeters>NAN</DistanceMeters>
          </Trackpoint>
          <Trackpoint>
            <Time>2021-04-01T14:07:39.000Z</Time>
            <Position>
              <LatitudeDegrees>42.404277138411998748779296875</LatitudeDegrees>
              <LongitudeDegrees>2.67690218053758144378662109375</LongitudeDegrees>
            </Position>
            <AltitudeMeters>1064</AltitudeMeters>
            <DistanceMeters>NAN</DistanceMeters>
          </Trackpoint>
          <Trackpoint>
            <Time>2021-04-01T14:07:51.000Z</Time>
            <Position>
              <LatitudeDegrees>42.40417127497494220733642578125</LatitudeDegrees>
              <LongitudeDegrees>2.6767267473042011260986328125</LongitudeDegrees>
            </Position>
            <AltitudeMeters>1063</AltitudeMeters>
            <DistanceMeters>NAN</DistanceMeters>
          </Trackpoint>
          <Trackpoint>
            <Time>2021-04-01T14:07:55.000Z</Time>
            <Position>
              <LatitudeDegrees>42.40414805710315704345703125</LatitudeDegrees>
              <LongitudeDegrees>2.6766831614077091217041015625</LongitudeDegrees>
            </Position>
            <AltitudeMeters>1062.5999755859375</AltitudeMeters>
            <DistanceMeters>NAN</DistanceMeters>
          </Trackpoint>
          <Trackpoint>
            <Time>2021-04-01T14:07:56.000Z</Time>
            <Position>
              <LatitudeDegrees>42.40414076484739780426025390625</LatitudeDegrees>
              <LongitudeDegrees>2.67667285166680812835693359375</LongitudeDegrees>
            </Position>
            <AltitudeMeters>1062.4000244140625</AltitudeMeters>
            <DistanceMeters>NAN</DistanceMeters>
          </Trackpoint>
          <Trackpoint>
            <Time>2021-04-01T14:08:04.000Z</Time>
            <Position>
              <LatitudeDegrees>42.4040761403739452362060546875</LatitudeDegrees>
              <LongitudeDegrees>2.67656631767749786376953125</LongitudeDegrees>
            </Position>
            <AltitudeMeters>1062</AltitudeMeters>
            <DistanceMeters>NAN</DistanceMeters>
          </Trackpoint>
          <Trackpoint>
            <Time>2021-04-01T14:08:19.000Z</Time>
            <Position>
              <LatitudeDegrees>42.4039735458791255950927734375</LatitudeDegrees>
              <LongitudeDegrees>2.6763730309903621673583984375</LongitudeDegrees>
            </Position>
            <AltitudeMeters>1061.5999755859375</AltitudeMeters>
            <DistanceMeters>NAN</DistanceMeters>
          </Trackpoint>
          <Trackpoint>
            <Time>2021-04-01T14:08:24.000Z</Time>
            <Position>
              <LatitudeDegrees>42.403943203389644622802734375</LatitudeDegrees>
              <LongitudeDegrees>2.67630480229854583740234375</LongitudeDegrees>
            </Position>
            <AltitudeMeters>1061.4000244140625</AltitudeMeters>
            <DistanceMeters>NAN</DistanceMeters>
          </Trackpoint>
          <Trackpoint>
            <Time>2021-04-01T14:08:33.000Z</Time>
            <Position>
              <LatitudeDegrees>42.40387623198330402374267578125</LatitudeDegrees>
              <LongitudeDegrees>2.67618267796933650970458984375</LongitudeDegrees>
            </Position>
            <AltitudeMeters>1061.4000244140625</AltitudeMeters>
            <DistanceMeters>NAN</DistanceMeters>
          </Trackpoint>
          <Trackpoint>
            <Time>2021-04-01T14:08:34.000Z</Time>
            <Position>
              <LatitudeDegrees>42.40387623198330402374267578125</LatitudeDegrees>
              <LongitudeDegrees>2.67618267796933650970458984375</LongitudeDegrees>
            </Position>
            <AltitudeMeters>1061.199951171875</AltitudeMeters>
            <DistanceMeters>NAN</DistanceMeters>
          </Trackpoint>
          <Trackpoint>
            <Time>2021-04-01T14:08:43.000Z</Time>
            <Position>
              <LatitudeDegrees>42.40380682982504367828369140625</LatitudeDegrees>
              <LongitudeDegrees>2.6760468073189258575439453125</LongitudeDegrees>
            </Position>
            <AltitudeMeters>1060.800048828125</AltitudeMeters>
            <DistanceMeters>NAN</DistanceMeters>
          </Trackpoint>
          <Trackpoint>
            <Time>2021-04-01T14:08:45.000Z</Time>
            <Position>
              <LatitudeDegrees>42.40379241295158863067626953125</LatitudeDegrees>
              <LongitudeDegrees>2.67602761276066303253173828125</LongitudeDegrees>
            </Position>
            <AltitudeMeters>1060.800048828125</AltitudeMeters>
            <DistanceMeters>NAN</DistanceMeters>
          </Trackpoint>
          <Trackpoint>
            <Time>2021-04-01T14:08:46.000Z</Time>
            <Position>
              <LatitudeDegrees>42.403785623610019683837890625</LatitudeDegrees>
              <LongitudeDegrees>2.67601554282009601593017578125</LongitudeDegrees>
            </Position>
            <AltitudeMeters>1060.800048828125</AltitudeMeters>
            <DistanceMeters>NAN</DistanceMeters>
          </Trackpoint>
          <Trackpoint>
            <Time>2021-04-01T14:08:48.000Z</Time>
            <Position>
              <LatitudeDegrees>42.40377430804073810577392578125</LatitudeDegrees>
              <LongitudeDegrees>2.67599257640540599822998046875</LongitudeDegrees>
            </Position>
            <AltitudeMeters>1060.4000244140625</AltitudeMeters>
            <DistanceMeters>NAN</DistanceMeters>
          </Trackpoint>
          <Trackpoint>
            <Time>2021-04-01T14:08:53.000Z</Time>
            <Position>
              <LatitudeDegrees>42.40375016815960407257080078125</LatitudeDegrees>
              <LongitudeDegrees>2.6759512536227703094482421875</LongitudeDegrees>
            </Position>
            <AltitudeMeters>1060</AltitudeMeters>
            <DistanceMeters>NAN</DistanceMeters>
          </Trackpoint>
          <Trackpoint>
            <Time>2021-04-01T14:08:58.000Z</Time>
            <Position>
              <LatitudeDegrees>42.40371898747980594635009765625</LatitudeDegrees>
              <LongitudeDegrees>2.67588797025382518768310546875</LongitudeDegrees>
            </Position>
            <AltitudeMeters>1059.5999755859375</AltitudeMeters>
            <DistanceMeters>NAN</DistanceMeters>
          </Trackpoint>
          <Trackpoint>
            <Time>2021-04-01T14:09:01.000Z</Time>
            <Position>
              <LatitudeDegrees>42.40369065664708614349365234375</LatitudeDegrees>
              <LongitudeDegrees>2.6758483238518238067626953125</LongitudeDegrees>
            </Position>
            <AltitudeMeters>1059.5999755859375</AltitudeMeters>
            <DistanceMeters>NAN</DistanceMeters>
          </Trackpoint>
          <Trackpoint>
            <Time>2021-04-01T14:09:04.000Z</Time>
            <Position>
              <LatitudeDegrees>42.40366618148982524871826171875</LatitudeDegrees>
              <LongitudeDegrees>2.67580482177436351776123046875</LongitudeDegrees>
            </Position>
            <AltitudeMeters>1059.4000244140625</AltitudeMeters>
            <DistanceMeters>NAN</DistanceMeters>
          </Trackpoint>
          <Trackpoint>
            <Time>2021-04-01T14:09:08.000Z</Time>
            <Position>
              <LatitudeDegrees>42.4036364257335662841796875</LatitudeDegrees>
              <LongitudeDegrees>2.6757569611072540283203125</LongitudeDegrees>
            </Position>
            <AltitudeMeters>1058.800048828125</AltitudeMeters>
            <DistanceMeters>NAN</DistanceMeters>
          </Trackpoint>
          <Trackpoint>
            <Time>2021-04-01T14:09:11.000Z</Time>
            <Position>
              <LatitudeDegrees>42.40362091921269893646240234375</LatitudeDegrees>
              <LongitudeDegrees>2.675739191472530364990234375</LongitudeDegrees>
            </Position>
            <AltitudeMeters>1058.4000244140625</AltitudeMeters>
            <DistanceMeters>NAN</DistanceMeters>
          </Trackpoint>
          <Trackpoint>
            <Time>2021-04-01T14:09:12.000Z</Time>
            <Position>
              <LatitudeDegrees>42.40361052565276622772216796875</LatitudeDegrees>
              <LongitudeDegrees>2.67571580596268177032470703125</LongitudeDegrees>
            </Position>
            <AltitudeMeters>1058.4000244140625</AltitudeMeters>
            <DistanceMeters>NAN</DistanceMeters>
          </Trackpoint>
          <Trackpoint>
            <Time>2021-04-01T14:09:17.000Z</Time>
            <Position>
              <LatitudeDegrees>42.40358621813356876373291015625</LatitudeDegrees>
              <LongitudeDegrees>2.67564087174832820892333984375</LongitudeDegrees>
            </Position>
            <AltitudeMeters>1058.199951171875</AltitudeMeters>
            <DistanceMeters>NAN</DistanceMeters>
          </Trackpoint>
          <Trackpoint>
            <Time>2021-04-01T14:09:21.000Z</Time>
            <Position>
              <LatitudeDegrees>42.40356710739433765411376953125</LatitudeDegrees>
              <LongitudeDegrees>2.67557985149323940277099609375</LongitudeDegrees>
            </Position>
            <AltitudeMeters>1057.5999755859375</AltitudeMeters>
            <DistanceMeters>NAN</DistanceMeters>
          </Trackpoint>
          <Trackpoint>
            <Time>2021-04-01T14:09:23.000Z</Time>
            <Position>
              <LatitudeDegrees>42.40356408990919589996337890625</LatitudeDegrees>
              <LongitudeDegrees>2.6755640096962451934814453125</LongitudeDegrees>
            </Position>
            <AltitudeMeters>1057.5999755859375</AltitudeMeters>
            <DistanceMeters>NAN</DistanceMeters>
          </Trackpoint>
          <Trackpoint>
            <Time>2021-04-01T14:09:25.000Z</Time>
            <Position>
              <LatitudeDegrees>42.4035534448921680450439453125</LatitudeDegrees>
              <LongitudeDegrees>2.6755184121429920196533203125</LongitudeDegrees>
            </Position>
            <AltitudeMeters>1057.4000244140625</AltitudeMeters>
            <DistanceMeters>NAN</DistanceMeters>
          </Trackpoint>
          <Trackpoint>
            <Time>2021-04-01T14:09:28.000Z</Time>
            <Position>
              <LatitudeDegrees>42.40354414097964763641357421875</LatitudeDegrees>
              <LongitudeDegrees>2.67548714764416217803955078125</LongitudeDegrees>
            </Position>
            <AltitudeMeters>1057.199951171875</AltitudeMeters>
            <DistanceMeters>NAN</DistanceMeters>
          </Trackpoint>
          <Trackpoint>
            <Time>2021-04-01T14:09:30.000Z</Time>
            <Position>
              <LatitudeDegrees>42.40353190340101718902587890625</LatitudeDegrees>
              <LongitudeDegrees>2.67544121481478214263916015625</LongitudeDegrees>
            </Position>
            <AltitudeMeters>1057.199951171875</AltitudeMeters>
            <DistanceMeters>NAN</DistanceMeters>
          </Trackpoint>
          <Trackpoint>
            <Time>2021-04-01T14:09:36.000Z</Time>
            <Position>
              <LatitudeDegrees>42.4035118706524372100830078125</LatitudeDegrees>
              <LongitudeDegrees>2.6753534562885761260986328125</LongitudeDegrees>
            </Position>
            <AltitudeMeters>1056.800048828125</AltitudeMeters>
            <DistanceMeters>NAN</DistanceMeters>
          </Trackpoint>
          <Trackpoint>
            <Time>2021-04-01T14:09:46.000Z</Time>
            <Position>
              <LatitudeDegrees>42.40346099250018596649169921875</LatitudeDegrees>
              <LongitudeDegrees>2.67520752735435962677001953125</LongitudeDegrees>
            </Position>
            <AltitudeMeters>1056</AltitudeMeters>
            <DistanceMeters>NAN</DistanceMeters>
          </Trackpoint>
          <Trackpoint>
            <Time>2021-04-01T14:09:53.000Z</Time>
            <Position>
              <LatitudeDegrees>42.4034203402698040008544921875</LatitudeDegrees>
              <LongitudeDegrees>2.67513460479676723480224609375</LongitudeDegrees>
            </Position>
            <AltitudeMeters>1055.4000244140625</AltitudeMeters>
            <DistanceMeters>NAN</DistanceMeters>
          </Trackpoint>
          <Trackpoint>
            <Time>2021-04-01T14:09:58.000Z</Time>
            <Position>
              <LatitudeDegrees>42.4033682048320770263671875</LatitudeDegrees>
              <LongitudeDegrees>2.67506889067590236663818359375</LongitudeDegrees>
            </Position>
            <AltitudeMeters>1055.199951171875</AltitudeMeters>
            <DistanceMeters>NAN</DistanceMeters>
          </Trackpoint>
          <Trackpoint>
            <Time>2021-04-01T14:09:59.000Z</Time>
            <Position>
              <LatitudeDegrees>42.40335672162473201751708984375</LatitudeDegrees>
              <LongitudeDegrees>2.67505631782114505767822265625</LongitudeDegrees>
            </Position>
            <AltitudeMeters>1055</AltitudeMeters>
            <DistanceMeters>NAN</DistanceMeters>
          </Trackpoint>
          <Trackpoint>
            <Time>2021-04-01T14:10:00.000Z</Time>
            <Position>
              <LatitudeDegrees>42.4033485911786556243896484375</LatitudeDegrees>
              <LongitudeDegrees>2.6750463433563709259033203125</LongitudeDegrees>
            </Position>
            <AltitudeMeters>1055</AltitudeMeters>
            <DistanceMeters>NAN</DistanceMeters>
          </Trackpoint>
          <Trackpoint>
            <Time>2021-04-01T14:10:05.000Z</Time>
            <Position>
              <LatitudeDegrees>42.4033053405582904815673828125</LatitudeDegrees>
              <LongitudeDegrees>2.67499546520411968231201171875</LongitudeDegrees>
            </Position>
            <AltitudeMeters>1054.5999755859375</AltitudeMeters>
            <DistanceMeters>NAN</DistanceMeters>
          </Trackpoint>
          <Trackpoint>
            <Time>2021-04-01T14:10:08.000Z</Time>
            <Position>
              <LatitudeDegrees>42.4032872356474399566650390625</LatitudeDegrees>
              <LongitudeDegrees>2.67497467808425426483154296875</LongitudeDegrees>
            </Position>
            <AltitudeMeters>1054.4000244140625</AltitudeMeters>
            <DistanceMeters>NAN</DistanceMeters>
          </Trackpoint>
          <Trackpoint>
            <Time>2021-04-01T14:10:11.000Z</Time>
            <Position>
              <LatitudeDegrees>42.40325546823441982269287109375</LatitudeDegrees>
              <LongitudeDegrees>2.6749491132795810699462890625</LongitudeDegrees>
            </Position>
            <AltitudeMeters>1054.199951171875</AltitudeMeters>
            <DistanceMeters>NAN</DistanceMeters>
          </Trackpoint>
          <Trackpoint>
            <Time>2021-04-01T14:10:13.000Z</Time>
            <Position>
              <LatitudeDegrees>42.40322135388851165771484375</LatitudeDegrees>
              <LongitudeDegrees>2.67491533420979976654052734375</LongitudeDegrees>
            </Position>
            <AltitudeMeters>1053.800048828125</AltitudeMeters>
            <DistanceMeters>NAN</DistanceMeters>
          </Trackpoint>
          <Trackpoint>
            <Time>2021-04-01T14:10:18.000Z</Time>
            <Position>
              <LatitudeDegrees>42.40317382849752902984619140625</LatitudeDegrees>
              <LongitudeDegrees>2.6748793758451938629150390625</LongitudeDegrees>
            </Position>
            <AltitudeMeters>1053.5999755859375</AltitudeMeters>
            <DistanceMeters>NAN</DistanceMeters>
          </Trackpoint>
          <Trackpoint>
            <Time>2021-04-01T14:10:22.000Z</Time>
            <Position>
              <LatitudeDegrees>42.40313527174293994903564453125</LatitudeDegrees>
              <LongitudeDegrees>2.67485414631664752960205078125</LongitudeDegrees>
            </Position>
            <AltitudeMeters>1053.199951171875</AltitudeMeters>
            <DistanceMeters>NAN</DistanceMeters>
          </Trackpoint>
          <Trackpoint>
            <Time>2021-04-01T14:10:24.000Z</Time>
            <Position>
              <LatitudeDegrees>42.40311582572758197784423828125</LatitudeDegrees>
              <LongitudeDegrees>2.67483822070062160491943359375</LongitudeDegrees>
            </Position>
            <AltitudeMeters>1052.800048828125</AltitudeMeters>
            <DistanceMeters>NAN</DistanceMeters>
          </Trackpoint>
          <Trackpoint>
            <Time>2021-04-01T14:10:26.000Z</Time>
            <Position>
              <LatitudeDegrees>42.4030941165983676910400390625</LatitudeDegrees>
              <LongitudeDegrees>2.67482824623584747314453125</LongitudeDegrees>
            </Position>
            <AltitudeMeters>1052.4000244140625</AltitudeMeters>
            <DistanceMeters>NAN</DistanceMeters>
          </Trackpoint>
          <Trackpoint>
            <Time>2021-04-01T14:10:27.000Z</Time>
            <Position>
              <LatitudeDegrees>42.4030941165983676910400390625</LatitudeDegrees>
              <LongitudeDegrees>2.67482824623584747314453125</LongitudeDegrees>
            </Position>
            <AltitudeMeters>1052.4000244140625</AltitudeMeters>
            <DistanceMeters>NAN</DistanceMeters>
          </Trackpoint>
          <Trackpoint>
            <Time>2021-04-01T14:10:28.000Z</Time>
            <Position>
              <LatitudeDegrees>42.40307517349720001220703125</LatitudeDegrees>
              <LongitudeDegrees>2.6748128235340118408203125</LongitudeDegrees>
            </Position>
            <AltitudeMeters>1052.199951171875</AltitudeMeters>
            <DistanceMeters>NAN</DistanceMeters>
          </Trackpoint>
          <Trackpoint>
            <Time>2021-04-01T14:10:34.000Z</Time>
            <Position>
              <LatitudeDegrees>42.4030005745589733123779296875</LatitudeDegrees>
              <LongitudeDegrees>2.6747824810445308685302734375</LongitudeDegrees>
            </Position>
            <AltitudeMeters>1051.800048828125</AltitudeMeters>
            <DistanceMeters>NAN</DistanceMeters>
          </Trackpoint>
          <Trackpoint>
            <Time>2021-04-01T14:10:36.000Z</Time>
            <Position>
              <LatitudeDegrees>42.40298942662775516510009765625</LatitudeDegrees>
              <LongitudeDegrees>2.6747791282832622528076171875</LongitudeDegrees>
            </Position>
            <AltitudeMeters>1051.800048828125</AltitudeMeters>
            <DistanceMeters>NAN</DistanceMeters>
          </Trackpoint>
          <Trackpoint>
            <Time>2021-04-01T14:10:41.000Z</Time>
            <Position>
              <LatitudeDegrees>42.4029355309903621673583984375</LatitudeDegrees>
              <LongitudeDegrees>2.67473830841481685638427734375</LongitudeDegrees>
            </Position>
            <AltitudeMeters>1051.5999755859375</AltitudeMeters>
            <DistanceMeters>NAN</DistanceMeters>
          </Trackpoint>
          <Trackpoint>
            <Time>2021-04-01T14:10:44.000Z</Time>
            <Position>
              <LatitudeDegrees>42.40288398228585720062255859375</LatitudeDegrees>
              <LongitudeDegrees>2.67472766339778900146484375</LongitudeDegrees>
            </Position>
            <AltitudeMeters>1051.4000244140625</AltitudeMeters>
            <DistanceMeters>NAN</DistanceMeters>
          </Trackpoint>
          <Trackpoint>
            <Time>2021-04-01T14:10:54.000Z</Time>
            <Position>
              <LatitudeDegrees>42.402775101363658905029296875</LatitudeDegrees>
              <LongitudeDegrees>2.6746832393109798431396484375</LongitudeDegrees>
            </Position>
            <AltitudeMeters>1050.5999755859375</AltitudeMeters>
            <DistanceMeters>NAN</DistanceMeters>
          </Trackpoint>
          <Trackpoint>
            <Time>2021-04-01T14:11:01.000Z</Time>
            <Position>
              <LatitudeDegrees>42.40269958041608333587646484375</LatitudeDegrees>
              <LongitudeDegrees>2.6746352948248386383056640625</LongitudeDegrees>
            </Position>
            <AltitudeMeters>1050.4000244140625</AltitudeMeters>
            <DistanceMeters>NAN</DistanceMeters>
          </Trackpoint>
          <Trackpoint>
            <Time>2021-04-01T14:11:10.000Z</Time>
            <Position>
              <LatitudeDegrees>42.4026314355432987213134765625</LatitudeDegrees>
              <LongitudeDegrees>2.6745776273310184478759765625</LongitudeDegrees>
            </Position>
            <AltitudeMeters>1049.800048828125</AltitudeMeters>
            <DistanceMeters>NAN</DistanceMeters>
          </Trackpoint>
          <Trackpoint>
            <Time>2021-04-01T14:11:11.000Z</Time>
            <Position>
              <LatitudeDegrees>42.40263235755264759063720703125</LatitudeDegrees>
              <LongitudeDegrees>2.67457888461649417877197265625</LongitudeDegrees>
            </Position>
            <AltitudeMeters>1049.800048828125</AltitudeMeters>
            <DistanceMeters>NAN</DistanceMeters>
          </Trackpoint>
          <Trackpoint>
            <Time>2021-04-01T14:11:12.000Z</Time>
            <Position>
              <LatitudeDegrees>42.40263235755264759063720703125</LatitudeDegrees>
              <LongitudeDegrees>2.67457888461649417877197265625</LongitudeDegrees>
            </Position>
            <AltitudeMeters>1049.5999755859375</AltitudeMeters>
            <DistanceMeters>NAN</DistanceMeters>
          </Trackpoint>
          <Trackpoint>
            <Time>2021-04-01T14:11:14.000Z</Time>
            <Position>
              <LatitudeDegrees>42.4026252329349517822265625</LatitudeDegrees>
              <LongitudeDegrees>2.6745793037116527557373046875</LongitudeDegrees>
            </Position>
            <AltitudeMeters>1049.800048828125</AltitudeMeters>
            <DistanceMeters>NAN</DistanceMeters>
          </Trackpoint>
          <Trackpoint>
            <Time>2021-04-01T14:11:15.000Z</Time>
            <Position>
              <LatitudeDegrees>42.40261852741241455078125</LatitudeDegrees>
              <LongitudeDegrees>2.6745823211967945098876953125</LongitudeDegrees>
            </Position>
            <AltitudeMeters>1049.800048828125</AltitudeMeters>
            <DistanceMeters>NAN</DistanceMeters>
          </Trackpoint>
          <Trackpoint>
            <Time>2021-04-01T14:11:19.000Z</Time>
            <Position>
              <LatitudeDegrees>42.40258173085749149322509765625</LatitudeDegrees>
              <LongitudeDegrees>2.6745866797864437103271484375</LongitudeDegrees>
            </Position>
            <AltitudeMeters>1049.5999755859375</AltitudeMeters>
            <DistanceMeters>NAN</DistanceMeters>
          </Trackpoint>
          <Trackpoint>
            <Time>2021-04-01T14:11:26.000Z</Time>
            <Position>
              <LatitudeDegrees>42.40251786075532436370849609375</LatitudeDegrees>
              <LongitudeDegrees>2.67460788600146770477294921875</LongitudeDegrees>
            </Position>
            <AltitudeMeters>1048.199951171875</AltitudeMeters>
            <DistanceMeters>NAN</DistanceMeters>
          </Trackpoint>
          <Trackpoint>
            <Time>2021-04-01T14:11:29.000Z</Time>
            <Position>
              <LatitudeDegrees>42.40248668007552623748779296875</LatitudeDegrees>
              <LongitudeDegrees>2.6746222190558910369873046875</LongitudeDegrees>
            </Position>
            <AltitudeMeters>1047.199951171875</AltitudeMeters>
            <DistanceMeters>NAN</DistanceMeters>
          </Trackpoint>
          <Trackpoint>
            <Time>2021-04-01T14:11:30.000Z</Time>
            <Position>
              <LatitudeDegrees>42.40247569978237152099609375</LatitudeDegrees>
              <LongitudeDegrees>2.6746262423694133758544921875</LongitudeDegrees>
            </Position>
            <AltitudeMeters>1046.800048828125</AltitudeMeters>
            <DistanceMeters>NAN</DistanceMeters>
          </Trackpoint>
          <Trackpoint>
            <Time>2021-04-01T14:11:31.000Z</Time>
            <Position>
              <LatitudeDegrees>42.40247569978237152099609375</LatitudeDegrees>
              <LongitudeDegrees>2.6746262423694133758544921875</LongitudeDegrees>
            </Position>
            <AltitudeMeters>1046.4000244140625</AltitudeMeters>
            <DistanceMeters>NAN</DistanceMeters>
          </Trackpoint>
          <Trackpoint>
            <Time>2021-04-01T14:11:32.000Z</Time>
            <Position>
              <LatitudeDegrees>42.4024567566812038421630859375</LatitudeDegrees>
              <LongitudeDegrees>2.6746212132275104522705078125</LongitudeDegrees>
            </Position>
            <AltitudeMeters>1046.199951171875</AltitudeMeters>
            <DistanceMeters>NAN</DistanceMeters>
          </Trackpoint>
          <Trackpoint>
            <Time>2021-04-01T14:11:33.000Z</Time>
            <Position>
              <LatitudeDegrees>42.4024567566812038421630859375</LatitudeDegrees>
              <LongitudeDegrees>2.6746212132275104522705078125</LongitudeDegrees>
            </Position>
            <AltitudeMeters>1046</AltitudeMeters>
            <DistanceMeters>NAN</DistanceMeters>
          </Trackpoint>
          <Trackpoint>
            <Time>2021-04-01T14:11:37.000Z</Time>
            <Position>
              <LatitudeDegrees>42.40242339670658111572265625</LatitudeDegrees>
              <LongitudeDegrees>2.67459011636674404144287109375</LongitudeDegrees>
            </Position>
            <AltitudeMeters>1045.199951171875</AltitudeMeters>
            <DistanceMeters>NAN</DistanceMeters>
          </Trackpoint>
          <Trackpoint>
            <Time>2021-04-01T14:11:38.000Z</Time>
            <Position>
              <LatitudeDegrees>42.40241476334631443023681640625</LatitudeDegrees>
              <LongitudeDegrees>2.67455876804888248443603515625</LongitudeDegrees>
            </Position>
            <AltitudeMeters>1045.199951171875</AltitudeMeters>
            <DistanceMeters>NAN</DistanceMeters>
          </Trackpoint>
          <Trackpoint>
            <Time>2021-04-01T14:11:39.000Z</Time>
            <Position>
              <LatitudeDegrees>42.40241476334631443023681640625</LatitudeDegrees>
              <LongitudeDegrees>2.67455876804888248443603515625</LongitudeDegrees>
            </Position>
            <AltitudeMeters>1044.800048828125</AltitudeMeters>
            <DistanceMeters>NAN</DistanceMeters>
          </Trackpoint>
          <Trackpoint>
            <Time>2021-04-01T14:11:45.000Z</Time>
            <Position>
              <LatitudeDegrees>42.40240889601409435272216796875</LatitudeDegrees>
              <LongitudeDegrees>2.674454748630523681640625</LongitudeDegrees>
            </Position>
            <AltitudeMeters>1043.800048828125</AltitudeMeters>
            <DistanceMeters>NAN</DistanceMeters>
          </Trackpoint>
          <Trackpoint>
            <Time>2021-04-01T14:11:51.000Z</Time>
            <Position>
              <LatitudeDegrees>42.4024161882698535919189453125</LatitudeDegrees>
              <LongitudeDegrees>2.67439112998545169830322265625</LongitudeDegrees>
            </Position>
            <AltitudeMeters>1043.199951171875</AltitudeMeters>
            <DistanceMeters>NAN</DistanceMeters>
          </Trackpoint>
          <Trackpoint>
            <Time>2021-04-01T14:11:54.000Z</Time>
            <Position>
              <LatitudeDegrees>42.40242348052561283111572265625</LatitudeDegrees>
              <LongitudeDegrees>2.67433329485356807708740234375</LongitudeDegrees>
            </Position>
            <AltitudeMeters>1042.5999755859375</AltitudeMeters>
            <DistanceMeters>NAN</DistanceMeters>
          </Trackpoint>
          <Trackpoint>
            <Time>2021-04-01T14:11:59.000Z</Time>
            <Position>
              <LatitudeDegrees>42.40243856795132160186767578125</LatitudeDegrees>
              <LongitudeDegrees>2.674240171909332275390625</LongitudeDegrees>
            </Position>
            <AltitudeMeters>1042.199951171875</AltitudeMeters>
            <DistanceMeters>NAN</DistanceMeters>
          </Trackpoint>
          <Trackpoint>
            <Time>2021-04-01T14:12:02.000Z</Time>
            <Position>
              <LatitudeDegrees>42.4024446867406368255615234375</LatitudeDegrees>
              <LongitudeDegrees>2.6742094941437244415283203125</LongitudeDegrees>
            </Position>
            <AltitudeMeters>1041.5999755859375</AltitudeMeters>
            <DistanceMeters>NAN</DistanceMeters>
          </Trackpoint>
          <Trackpoint>
            <Time>2021-04-01T14:12:09.000Z</Time>
            <Position>
              <LatitudeDegrees>42.4024527333676815032958984375</LatitudeDegrees>
              <LongitudeDegrees>2.6741390861570835113525390625</LongitudeDegrees>
            </Position>
            <AltitudeMeters>1041</AltitudeMeters>
            <DistanceMeters>NAN</DistanceMeters>
          </Trackpoint>
          <Trackpoint>
            <Time>2021-04-01T14:12:12.000Z</Time>
            <Position>
              <LatitudeDegrees>42.402460277080535888671875</LatitudeDegrees>
              <LongitudeDegrees>2.67407898791134357452392578125</LongitudeDegrees>
            </Position>
            <AltitudeMeters>1040.4000244140625</AltitudeMeters>
            <DistanceMeters>NAN</DistanceMeters>
          </Trackpoint>
          <Trackpoint>
            <Time>2021-04-01T14:12:18.000Z</Time>
            <Position>
              <LatitudeDegrees>42.40247905254364013671875</LatitudeDegrees>
              <LongitudeDegrees>2.673993073403835296630859375</LongitudeDegrees>
            </Position>
            <AltitudeMeters>1040</AltitudeMeters>
            <DistanceMeters>NAN</DistanceMeters>
          </Trackpoint>
          <Trackpoint>
            <Time>2021-04-01T14:12:19.000Z</Time>
            <Position>
              <LatitudeDegrees>42.4024798907339572906494140625</LatitudeDegrees>
              <LongitudeDegrees>2.67397421412169933319091796875</LongitudeDegrees>
            </Position>
            <AltitudeMeters>1040</AltitudeMeters>
            <DistanceMeters>NAN</DistanceMeters>
          </Trackpoint>
          <Trackpoint>
            <Time>2021-04-01T14:12:24.000Z</Time>
            <Position>
              <LatitudeDegrees>42.40248466841876506805419921875</LatitudeDegrees>
              <LongitudeDegrees>2.67391168512403964996337890625</LongitudeDegrees>
            </Position>
            <AltitudeMeters>1039.800048828125</AltitudeMeters>
            <DistanceMeters>NAN</DistanceMeters>
          </Trackpoint>
          <Trackpoint>
            <Time>2021-04-01T14:12:26.000Z</Time>
            <Position>
              <LatitudeDegrees>42.4024815671145915985107421875</LatitudeDegrees>
              <LongitudeDegrees>2.6738825999200344085693359375</LongitudeDegrees>
            </Position>
            <AltitudeMeters>1039.5999755859375</AltitudeMeters>
            <DistanceMeters>NAN</DistanceMeters>
          </Trackpoint>
          <Trackpoint>
            <Time>2021-04-01T14:12:29.000Z</Time>
            <Position>
              <LatitudeDegrees>42.40248374640941619873046875</LatitudeDegrees>
              <LongitudeDegrees>2.6738364994525909423828125</LongitudeDegrees>
            </Position>
            <AltitudeMeters>1039.4000244140625</AltitudeMeters>
            <DistanceMeters>NAN</DistanceMeters>
          </Trackpoint>
          <Trackpoint>
            <Time>2021-04-01T14:12:36.000Z</Time>
            <Position>
              <LatitudeDegrees>42.40249606780707836151123046875</LatitudeDegrees>
              <LongitudeDegrees>2.67370951361954212188720703125</LongitudeDegrees>
            </Position>
            <AltitudeMeters>1038.800048828125</AltitudeMeters>
            <DistanceMeters>NAN</DistanceMeters>
          </Trackpoint>
          <Trackpoint>
            <Time>2021-04-01T14:12:39.000Z</Time>
            <Position>
              <LatitudeDegrees>42.40249942056834697723388671875</LatitudeDegrees>
              <LongitudeDegrees>2.67365804873406887054443359375</LongitudeDegrees>
            </Position>
            <AltitudeMeters>1038.4000244140625</AltitudeMeters>
            <DistanceMeters>NAN</DistanceMeters>
          </Trackpoint>
          <Trackpoint>
            <Time>2021-04-01T14:12:44.000Z</Time>
            <Position>
              <LatitudeDegrees>42.40248785354197025299072265625</LatitudeDegrees>
              <LongitudeDegrees>2.67358814366161823272705078125</LongitudeDegrees>
            </Position>
            <AltitudeMeters>1037.800048828125</AltitudeMeters>
            <DistanceMeters>NAN</DistanceMeters>
          </Trackpoint>
          <Trackpoint>
            <Time>2021-04-01T14:12:45.000Z</Time>
            <Position>
              <LatitudeDegrees>42.40248483605682849884033203125</LatitudeDegrees>
              <LongitudeDegrees>2.67357523553073406219482421875</LongitudeDegrees>
            </Position>
            <AltitudeMeters>1037.800048828125</AltitudeMeters>
            <DistanceMeters>NAN</DistanceMeters>
          </Trackpoint>
          <Trackpoint>
            <Time>2021-04-01T14:12:46.000Z</Time>
            <Position>
              <LatitudeDegrees>42.40248315967619419097900390625</LatitudeDegrees>
              <LongitudeDegrees>2.67356249503791332244873046875</LongitudeDegrees>
            </Position>
            <AltitudeMeters>1037.5999755859375</AltitudeMeters>
            <DistanceMeters>NAN</DistanceMeters>
          </Trackpoint>
          <Trackpoint>
            <Time>2021-04-01T14:12:48.000Z</Time>
            <Position>
              <LatitudeDegrees>42.40248383022844791412353515625</LatitudeDegrees>
              <LongitudeDegrees>2.67353969626128673553466796875</LongitudeDegrees>
            </Position>
            <AltitudeMeters>1037.199951171875</AltitudeMeters>
            <DistanceMeters>NAN</DistanceMeters>
          </Trackpoint>
          <Trackpoint>
            <Time>2021-04-01T14:12:50.000Z</Time>
            <Position>
              <LatitudeDegrees>42.40247762762010097503662109375</LatitudeDegrees>
              <LongitudeDegrees>2.673520334064960479736328125</LongitudeDegrees>
            </Position>
            <AltitudeMeters>1037</AltitudeMeters>
            <DistanceMeters>NAN</DistanceMeters>
          </Trackpoint>
          <Trackpoint>
            <Time>2021-04-01T14:12:54.000Z</Time>
            <Position>
              <LatitudeDegrees>42.40246497094631195068359375</LatitudeDegrees>
              <LongitudeDegrees>2.67347037792205810546875</LongitudeDegrees>
            </Position>
            <AltitudeMeters>1036.800048828125</AltitudeMeters>
            <DistanceMeters>NAN</DistanceMeters>
          </Trackpoint>
          <Trackpoint>
            <Time>2021-04-01T14:13:05.000Z</Time>
            <Position>
              <LatitudeDegrees>42.40243135951459407806396484375</LatitudeDegrees>
              <LongitudeDegrees>2.67334808595478534698486328125</LongitudeDegrees>
            </Position>
            <AltitudeMeters>1036.199951171875</AltitudeMeters>
            <DistanceMeters>NAN</DistanceMeters>
          </Trackpoint>
          <Trackpoint>
            <Time>2021-04-01T14:13:09.000Z</Time>
            <Position>
              <LatitudeDegrees>42.40241669118404388427734375</LatitudeDegrees>
              <LongitudeDegrees>2.67329745925962924957275390625</LongitudeDegrees>
            </Position>
            <AltitudeMeters>1035.800048828125</AltitudeMeters>
            <DistanceMeters>NAN</DistanceMeters>
          </Trackpoint>
          <Trackpoint>
            <Time>2021-04-01T14:13:13.000Z</Time>
            <Position>
              <LatitudeDegrees>42.40239950828254222869873046875</LatitudeDegrees>
              <LongitudeDegrees>2.67324381507933139801025390625</LongitudeDegrees>
            </Position>
            <AltitudeMeters>1035.4000244140625</AltitudeMeters>
            <DistanceMeters>NAN</DistanceMeters>
          </Trackpoint>
          <Trackpoint>
            <Time>2021-04-01T14:13:17.000Z</Time>
            <Position>
              <LatitudeDegrees>42.40239414386451244354248046875</LatitudeDegrees>
              <LongitudeDegrees>2.67320358194410800933837890625</LongitudeDegrees>
            </Position>
            <AltitudeMeters>1035.199951171875</AltitudeMeters>
            <DistanceMeters>NAN</DistanceMeters>
          </Trackpoint>
          <Trackpoint>
            <Time>2021-04-01T14:13:25.000Z</Time>
            <Position>
              <LatitudeDegrees>42.40238978527486324310302734375</LatitudeDegrees>
              <LongitudeDegrees>2.67304734326899051666259765625</LongitudeDegrees>
            </Position>
            <AltitudeMeters>1034.800048828125</AltitudeMeters>
            <DistanceMeters>NAN</DistanceMeters>
          </Trackpoint>
          <Trackpoint>
            <Time>2021-04-01T14:13:26.000Z</Time>
            <Position>
              <LatitudeDegrees>42.4023907072842121124267578125</LatitudeDegrees>
              <LongitudeDegrees>2.67303074710071086883544921875</LongitudeDegrees>
            </Position>
            <AltitudeMeters>1034.5999755859375</AltitudeMeters>
            <DistanceMeters>NAN</DistanceMeters>
          </Trackpoint>
          <Trackpoint>
            <Time>2021-04-01T14:13:30.000Z</Time>
            <Position>
              <LatitudeDegrees>42.40240135230123996734619140625</LatitudeDegrees>
              <LongitudeDegrees>2.67299369908869266510009765625</LongitudeDegrees>
            </Position>
            <AltitudeMeters>1034.199951171875</AltitudeMeters>
            <DistanceMeters>NAN</DistanceMeters>
          </Trackpoint>
          <Trackpoint>
            <Time>2021-04-01T14:13:32.000Z</Time>
            <Position>
              <LatitudeDegrees>42.4024135060608386993408203125</LatitudeDegrees>
              <LongitudeDegrees>2.6729612611234188079833984375</LongitudeDegrees>
            </Position>
            <AltitudeMeters>1033.800048828125</AltitudeMeters>
            <DistanceMeters>NAN</DistanceMeters>
          </Trackpoint>
          <Trackpoint>
            <Time>2021-04-01T14:13:36.000Z</Time>
            <Position>
              <LatitudeDegrees>42.4024332873523235321044921875</LatitudeDegrees>
              <LongitudeDegrees>2.67290242016315460205078125</LongitudeDegrees>
            </Position>
            <AltitudeMeters>1033.4000244140625</AltitudeMeters>
            <DistanceMeters>NAN</DistanceMeters>
          </Trackpoint>
          <Trackpoint>
            <Time>2021-04-01T14:13:37.000Z</Time>
            <Position>
              <LatitudeDegrees>42.4024342931807041168212890625</LatitudeDegrees>
              <LongitudeDegrees>2.67288632690906524658203125</LongitudeDegrees>
            </Position>
            <AltitudeMeters>1033</AltitudeMeters>
            <DistanceMeters>NAN</DistanceMeters>
          </Trackpoint>
          <Trackpoint>
            <Time>2021-04-01T14:13:49.000Z</Time>
            <Position>
              <LatitudeDegrees>42.40239967592060565948486328125</LatitudeDegrees>
              <LongitudeDegrees>2.67270318232476711273193359375</LongitudeDegrees>
            </Position>
            <AltitudeMeters>1032.199951171875</AltitudeMeters>
            <DistanceMeters>NAN</DistanceMeters>
          </Trackpoint>
          <Trackpoint>
            <Time>2021-04-01T14:13:50.000Z</Time>
            <Position>
              <LatitudeDegrees>42.4023960717022418975830078125</LatitudeDegrees>
              <LongitudeDegrees>2.67268708907067775726318359375</LongitudeDegrees>
            </Position>
            <AltitudeMeters>1031.800048828125</AltitudeMeters>
            <DistanceMeters>NAN</DistanceMeters>
          </Trackpoint>
          <Trackpoint>
            <Time>2021-04-01T14:13:58.000Z</Time>
            <Position>
              <LatitudeDegrees>42.4023632146418094635009765625</LatitudeDegrees>
              <LongitudeDegrees>2.6725827343761920928955078125</LongitudeDegrees>
            </Position>
            <AltitudeMeters>1031.199951171875</AltitudeMeters>
            <DistanceMeters>NAN</DistanceMeters>
          </Trackpoint>
          <Trackpoint>
            <Time>2021-04-01T14:14:00.000Z</Time>
            <Position>
              <LatitudeDegrees>42.4023591913282871246337890625</LatitudeDegrees>
              <LongitudeDegrees>2.67256588675081729888916015625</LongitudeDegrees>
            </Position>
            <AltitudeMeters>1031.199951171875</AltitudeMeters>
            <DistanceMeters>NAN</DistanceMeters>
          </Trackpoint>
          <Trackpoint>
            <Time>2021-04-01T14:14:02.000Z</Time>
            <Position>
              <LatitudeDegrees>42.402352988719940185546875</LatitudeDegrees>
              <LongitudeDegrees>2.6725143380463123321533203125</LongitudeDegrees>
            </Position>
            <AltitudeMeters>1031</AltitudeMeters>
            <DistanceMeters>NAN</DistanceMeters>
          </Trackpoint>
          <Trackpoint>
            <Time>2021-04-01T14:14:04.000Z</Time>
            <Position>
              <LatitudeDegrees>42.402347289025783538818359375</LatitudeDegrees>
              <LongitudeDegrees>2.67247955314815044403076171875</LongitudeDegrees>
            </Position>
            <AltitudeMeters>1030.800048828125</AltitudeMeters>
            <DistanceMeters>NAN</DistanceMeters>
          </Trackpoint>
          <Trackpoint>
            <Time>2021-04-01T14:14:12.000Z</Time>
            <Position>
              <LatitudeDegrees>42.40231602452695369720458984375</LatitudeDegrees>
              <LongitudeDegrees>2.67235332168638706207275390625</LongitudeDegrees>
            </Position>
            <AltitudeMeters>1029.800048828125</AltitudeMeters>
            <DistanceMeters>NAN</DistanceMeters>
          </Trackpoint>
          <Trackpoint>
            <Time>2021-04-01T14:14:13.000Z</Time>
            <Position>
              <LatitudeDegrees>42.402309738099575042724609375</LatitudeDegrees>
              <LongitudeDegrees>2.67233873717486858367919921875</LongitudeDegrees>
            </Position>
            <AltitudeMeters>1029.5999755859375</AltitudeMeters>
            <DistanceMeters>NAN</DistanceMeters>
          </Trackpoint>
          <Trackpoint>
            <Time>2021-04-01T14:14:22.000Z</Time>
            <Position>
              <LatitudeDegrees>42.402218542993068695068359375</LatitudeDegrees>
              <LongitudeDegrees>2.6722581870853900909423828125</LongitudeDegrees>
            </Position>
            <AltitudeMeters>1029.199951171875</AltitudeMeters>
            <DistanceMeters>NAN</DistanceMeters>
          </Trackpoint>
          <Trackpoint>
            <Time>2021-04-01T14:14:25.000Z</Time>
            <Position>
              <LatitudeDegrees>42.40220211446285247802734375</LatitudeDegrees>
              <LongitudeDegrees>2.67224016599357128143310546875</LongitudeDegrees>
            </Position>
            <AltitudeMeters>1029</AltitudeMeters>
            <DistanceMeters>NAN</DistanceMeters>
          </Trackpoint>
          <Trackpoint>
            <Time>2021-04-01T14:14:27.000Z</Time>
            <Position>
              <LatitudeDegrees>42.40218677558004856109619140625</LatitudeDegrees>
              <LongitudeDegrees>2.67222692258656024932861328125</LongitudeDegrees>
            </Position>
            <AltitudeMeters>1028.5999755859375</AltitudeMeters>
            <DistanceMeters>NAN</DistanceMeters>
          </Trackpoint>
          <Trackpoint>
            <Time>2021-04-01T14:14:32.000Z</Time>
            <Position>
              <LatitudeDegrees>42.40212122909724712371826171875</LatitudeDegrees>
              <LongitudeDegrees>2.6721938140690326690673828125</LongitudeDegrees>
            </Position>
            <AltitudeMeters>1028</AltitudeMeters>
            <DistanceMeters>NAN</DistanceMeters>
          </Trackpoint>
          <Trackpoint>
            <Time>2021-04-01T14:14:38.000Z</Time>
            <Position>
              <LatitudeDegrees>42.40206020884215831756591796875</LatitudeDegrees>
              <LongitudeDegrees>2.67215869389474391937255859375</LongitudeDegrees>
            </Position>
            <AltitudeMeters>1028</AltitudeMeters>
            <DistanceMeters>NAN</DistanceMeters>
          </Trackpoint>
          <Trackpoint>
            <Time>2021-04-01T14:14:41.000Z</Time>
            <Position>
              <LatitudeDegrees>42.40204545669257640838623046875</LatitudeDegrees>
              <LongitudeDegrees>2.67213824205100536346435546875</LongitudeDegrees>
            </Position>
            <AltitudeMeters>1027.800048828125</AltitudeMeters>
            <DistanceMeters>NAN</DistanceMeters>
          </Trackpoint>
          <Trackpoint>
            <Time>2021-04-01T14:14:43.000Z</Time>
            <Position>
              <LatitudeDegrees>42.4020222388207912445068359375</LatitudeDegrees>
              <LongitudeDegrees>2.67210052348673343658447265625</LongitudeDegrees>
            </Position>
            <AltitudeMeters>1027.5999755859375</AltitudeMeters>
            <DistanceMeters>NAN</DistanceMeters>
          </Trackpoint>
          <Trackpoint>
            <Time>2021-04-01T14:14:48.000Z</Time>
            <Position>
              <LatitudeDegrees>42.40197949111461639404296875</LatitudeDegrees>
              <LongitudeDegrees>2.672040760517120361328125</LongitudeDegrees>
            </Position>
            <AltitudeMeters>1026.4000244140625</AltitudeMeters>
            <DistanceMeters>NAN</DistanceMeters>
          </Trackpoint>
          <Trackpoint>
            <Time>2021-04-01T14:14:49.000Z</Time>
            <Position>
              <LatitudeDegrees>42.40197169594466686248779296875</LatitudeDegrees>
              <LongitudeDegrees>2.6720315404236316680908203125</LongitudeDegrees>
            </Position>
            <AltitudeMeters>1026.4000244140625</AltitudeMeters>
            <DistanceMeters>NAN</DistanceMeters>
          </Trackpoint>
          <Trackpoint>
            <Time>2021-04-01T14:14:50.000Z</Time>
            <Position>
              <LatitudeDegrees>42.40196515806019306182861328125</LatitudeDegrees>
              <LongitudeDegrees>2.67202206887304782867431640625</LongitudeDegrees>
            </Position>
            <AltitudeMeters>1026.199951171875</AltitudeMeters>
            <DistanceMeters>NAN</DistanceMeters>
          </Trackpoint>
          <Trackpoint>
            <Time>2021-04-01T14:14:51.000Z</Time>
            <Position>
              <LatitudeDegrees>42.40195610560476779937744140625</LatitudeDegrees>
              <LongitudeDegrees>2.6720094121992588043212890625</LongitudeDegrees>
            </Position>
            <AltitudeMeters>1026</AltitudeMeters>
            <DistanceMeters>NAN</DistanceMeters>
          </Trackpoint>
          <Trackpoint>
            <Time>2021-04-01T14:14:56.000Z</Time>
            <Position>
              <LatitudeDegrees>42.40192626602947711944580078125</LatitudeDegrees>
              <LongitudeDegrees>2.67194495536386966705322265625</LongitudeDegrees>
            </Position>
            <AltitudeMeters>1025.800048828125</AltitudeMeters>
            <DistanceMeters>NAN</DistanceMeters>
          </Trackpoint>
          <Trackpoint>
            <Time>2021-04-01T14:14:58.000Z</Time>
            <Position>
              <LatitudeDegrees>42.4019126035273075103759765625</LatitudeDegrees>
              <LongitudeDegrees>2.6719262637197971343994140625</LongitudeDegrees>
            </Position>
            <AltitudeMeters>1025.5999755859375</AltitudeMeters>
            <DistanceMeters>NAN</DistanceMeters>
          </Trackpoint>
          <Trackpoint>
            <Time>2021-04-01T14:15:00.000Z</Time>
            <Position>
              <LatitudeDegrees>42.40190514363348484039306640625</LatitudeDegrees>
              <LongitudeDegrees>2.67191628925502300262451171875</LongitudeDegrees>
            </Position>
            <AltitudeMeters>1025.4000244140625</AltitudeMeters>
            <DistanceMeters>NAN</DistanceMeters>
          </Trackpoint>
          <Trackpoint>
            <Time>2021-04-01T14:15:01.000Z</Time>
            <Position>
              <LatitudeDegrees>42.40189055912196636199951171875</LatitudeDegrees>
              <LongitudeDegrees>2.6719007827341556549072265625</LongitudeDegrees>
            </Position>
            <AltitudeMeters>1025.199951171875</AltitudeMeters>
            <DistanceMeters>NAN</DistanceMeters>
          </Trackpoint>
          <Trackpoint>
            <Time>2021-04-01T14:15:06.000Z</Time>
            <Position>
              <LatitudeDegrees>42.4018393456935882568359375</LatitudeDegrees>
              <LongitudeDegrees>2.6718514971435070037841796875</LongitudeDegrees>
            </Position>
            <AltitudeMeters>1025</AltitudeMeters>
            <DistanceMeters>NAN</DistanceMeters>
          </Trackpoint>
          <Trackpoint>
            <Time>2021-04-01T14:15:10.000Z</Time>
            <Position>
              <LatitudeDegrees>42.40179844200611114501953125</LatitudeDegrees>
              <LongitudeDegrees>2.67181704752147197723388671875</LongitudeDegrees>
            </Position>
            <AltitudeMeters>1024.5999755859375</AltitudeMeters>
            <DistanceMeters>NAN</DistanceMeters>
          </Trackpoint>
          <Trackpoint>
            <Time>2021-04-01T14:15:14.000Z</Time>
            <Position>
              <LatitudeDegrees>42.4017546884715557098388671875</LatitudeDegrees>
              <LongitudeDegrees>2.6717998646199703216552734375</LongitudeDegrees>
            </Position>
            <AltitudeMeters>1024.5999755859375</AltitudeMeters>
            <DistanceMeters>NAN</DistanceMeters>
          </Trackpoint>
          <Trackpoint>
            <Time>2021-04-01T14:15:15.000Z</Time>
            <Position>
              <LatitudeDegrees>42.40174253471195697784423828125</LatitudeDegrees>
              <LongitudeDegrees>2.6718005351722240447998046875</LongitudeDegrees>
            </Position>
            <AltitudeMeters>1024.4000244140625</AltitudeMeters>
            <DistanceMeters>NAN</DistanceMeters>
          </Trackpoint>
          <Trackpoint>
            <Time>2021-04-01T14:15:16.000Z</Time>
            <Position>
              <LatitudeDegrees>42.40173063240945339202880859375</LatitudeDegrees>
              <LongitudeDegrees>2.6718007028102874755859375</LongitudeDegrees>
            </Position>
            <AltitudeMeters>1024.4000244140625</AltitudeMeters>
            <DistanceMeters>NAN</DistanceMeters>
          </Trackpoint>
          <Trackpoint>
            <Time>2021-04-01T14:15:17.000Z</Time>
            <Position>
              <LatitudeDegrees>42.40171931684017181396484375</LatitudeDegrees>
              <LongitudeDegrees>2.671800367534160614013671875</LongitudeDegrees>
            </Position>
            <AltitudeMeters>1024.4000244140625</AltitudeMeters>
            <DistanceMeters>NAN</DistanceMeters>
          </Trackpoint>
          <Trackpoint>
            <Time>2021-04-01T14:15:25.000Z</Time>
            <Position>
              <LatitudeDegrees>42.4016406945884227752685546875</LatitudeDegrees>
              <LongitudeDegrees>2.67178854905068874359130859375</LongitudeDegrees>
            </Position>
            <AltitudeMeters>1024</AltitudeMeters>
            <DistanceMeters>NAN</DistanceMeters>
          </Trackpoint>
          <Trackpoint>
            <Time>2021-04-01T14:15:28.000Z</Time>
            <Position>
              <LatitudeDegrees>42.4015964381396770477294921875</LatitudeDegrees>
              <LongitudeDegrees>2.67177178524434566497802734375</LongitudeDegrees>
            </Position>
            <AltitudeMeters>1023.79998779296875</AltitudeMeters>
            <DistanceMeters>NAN</DistanceMeters>
          </Trackpoint>
          <Trackpoint>
            <Time>2021-04-01T14:15:32.000Z</Time>
            <Position>
              <LatitudeDegrees>42.4015550315380096435546875</LatitudeDegrees>
              <LongitudeDegrees>2.67177983187139034271240234375</LongitudeDegrees>
            </Position>
            <AltitudeMeters>1023.5999755859375</AltitudeMeters>
            <DistanceMeters>NAN</DistanceMeters>
          </Trackpoint>
          <Trackpoint>
            <Time>2021-04-01T14:15:34.000Z</Time>
            <Position>
              <LatitudeDegrees>42.40153717808425426483154296875</LatitudeDegrees>
              <LongitudeDegrees>2.67178955487906932830810546875</LongitudeDegrees>
            </Position>
            <AltitudeMeters>1023.4000244140625</AltitudeMeters>
            <DistanceMeters>NAN</DistanceMeters>
          </Trackpoint>
          <Trackpoint>
            <Time>2021-04-01T14:15:36.000Z</Time>
            <Position>
              <LatitudeDegrees>42.40151857025921344757080078125</LatitudeDegrees>
              <LongitudeDegrees>2.671795673668384552001953125</LongitudeDegrees>
            </Position>
            <AltitudeMeters>1023.4000244140625</AltitudeMeters>
            <DistanceMeters>NAN</DistanceMeters>
          </Trackpoint>
          <Trackpoint>
            <Time>2021-04-01T14:15:40.000Z</Time>
            <Position>
              <LatitudeDegrees>42.4015075899660587310791015625</LatitudeDegrees>
              <LongitudeDegrees>2.67180967144668102264404296875</LongitudeDegrees>
            </Position>
            <AltitudeMeters>1023.4000244140625</AltitudeMeters>
            <DistanceMeters>NAN</DistanceMeters>
          </Trackpoint>
          <Trackpoint>
            <Time>2021-04-01T14:15:41.000Z</Time>
            <Position>
              <LatitudeDegrees>42.40149258635938167572021484375</LatitudeDegrees>
              <LongitudeDegrees>2.671821154654026031494140625</LongitudeDegrees>
            </Position>
            <AltitudeMeters>1023.20001220703125</AltitudeMeters>
            <DistanceMeters>NAN</DistanceMeters>
          </Trackpoint>
          <Trackpoint>
            <Time>2021-04-01T14:15:44.000Z</Time>
            <Position>
              <LatitudeDegrees>42.40146324969828128814697265625</LatitudeDegrees>
              <LongitudeDegrees>2.671829201281070709228515625</LongitudeDegrees>
            </Position>
            <AltitudeMeters>1023</AltitudeMeters>
            <DistanceMeters>NAN</DistanceMeters>
          </Trackpoint>
          <Trackpoint>
            <Time>2021-04-01T14:15:47.000Z</Time>
            <Position>
              <LatitudeDegrees>42.40143768489360809326171875</LatitudeDegrees>
              <LongitudeDegrees>2.67184487544000148773193359375</LongitudeDegrees>
            </Position>
            <AltitudeMeters>1023.20001220703125</AltitudeMeters>
            <DistanceMeters>NAN</DistanceMeters>
          </Trackpoint>
          <Trackpoint>
            <Time>2021-04-01T14:15:48.000Z</Time>
            <Position>
              <LatitudeDegrees>42.40143743343651294708251953125</LatitudeDegrees>
              <LongitudeDegrees>2.6718451268970966339111328125</LongitudeDegrees>
            </Position>
            <AltitudeMeters>1023.20001220703125</AltitudeMeters>
            <DistanceMeters>NAN</DistanceMeters>
          </Trackpoint>
          <Trackpoint>
            <Time>2021-04-01T14:15:52.000Z</Time>
            <Position>
              <LatitudeDegrees>42.4014388583600521087646484375</LatitudeDegrees>
              <LongitudeDegrees>2.67182886600494384765625</LongitudeDegrees>
            </Position>
            <AltitudeMeters>1023.4000244140625</AltitudeMeters>
            <DistanceMeters>NAN</DistanceMeters>
          </Trackpoint>
          <Trackpoint>
            <Time>2021-04-01T14:15:54.000Z</Time>
            <Position>
              <LatitudeDegrees>42.4014334939420223236083984375</LatitudeDegrees>
              <LongitudeDegrees>2.67184085212647914886474609375</LongitudeDegrees>
            </Position>
            <AltitudeMeters>1023.4000244140625</AltitudeMeters>
            <DistanceMeters>NAN</DistanceMeters>
          </Trackpoint>
          <Trackpoint>
            <Time>2021-04-01T14:15:59.000Z</Time>
            <Position>
              <LatitudeDegrees>42.4014318175613880157470703125</LatitudeDegrees>
              <LongitudeDegrees>2.67185744829475879669189453125</LongitudeDegrees>
            </Position>
            <AltitudeMeters>1023.5999755859375</AltitudeMeters>
            <DistanceMeters>NAN</DistanceMeters>
          </Trackpoint>
          <Trackpoint>
            <Time>2021-04-01T14:16:06.000Z</Time>
            <Position>
              <LatitudeDegrees>42.401395104825496673583984375</LatitudeDegrees>
              <LongitudeDegrees>2.67186063341796398162841796875</LongitudeDegrees>
            </Position>
            <AltitudeMeters>1023.5999755859375</AltitudeMeters>
            <DistanceMeters>NAN</DistanceMeters>
          </Trackpoint>
          <Trackpoint>
            <Time>2021-04-01T14:16:10.000Z</Time>
            <Position>
              <LatitudeDegrees>42.40138160996139049530029296875</LatitudeDegrees>
              <LongitudeDegrees>2.6718354038894176483154296875</LongitudeDegrees>
            </Position>
            <AltitudeMeters>1023.4000244140625</AltitudeMeters>
            <DistanceMeters>NAN</DistanceMeters>
          </Trackpoint>
          <Trackpoint>
            <Time>2021-04-01T14:16:14.000Z</Time>
            <Position>
              <LatitudeDegrees>42.40139049477875232696533203125</LatitudeDegrees>
              <LongitudeDegrees>2.671842612326145172119140625</LongitudeDegrees>
            </Position>
            <AltitudeMeters>1023.5999755859375</AltitudeMeters>
            <DistanceMeters>NAN</DistanceMeters>
          </Trackpoint>
          <Trackpoint>
            <Time>2021-04-01T14:16:19.000Z</Time>
            <Position>
              <LatitudeDegrees>42.40139351226389408111572265625</LatitudeDegrees>
              <LongitudeDegrees>2.67183934338390827178955078125</LongitudeDegrees>
            </Position>
            <AltitudeMeters>1023.5999755859375</AltitudeMeters>
            <DistanceMeters>NAN</DistanceMeters>
          </Trackpoint>
          <Trackpoint>
            <Time>2021-04-01T14:16:22.000Z</Time>
            <Position>
              <LatitudeDegrees>42.40139351226389408111572265625</LatitudeDegrees>
              <LongitudeDegrees>2.67183934338390827178955078125</LongitudeDegrees>
            </Position>
            <AltitudeMeters>1023.5999755859375</AltitudeMeters>
            <DistanceMeters>NAN</DistanceMeters>
          </Trackpoint>
          <Trackpoint>
            <Time>2021-04-01T14:16:28.000Z</Time>
            <Position>
              <LatitudeDegrees>42.40139351226389408111572265625</LatitudeDegrees>
              <LongitudeDegrees>2.67183934338390827178955078125</LongitudeDegrees>
            </Position>
            <AltitudeMeters>1023.5999755859375</AltitudeMeters>
            <DistanceMeters>NAN</DistanceMeters>
          </Trackpoint>
          <Trackpoint>
            <Time>2021-04-01T14:16:32.000Z</Time>
            <Position>
              <LatitudeDegrees>42.40139351226389408111572265625</LatitudeDegrees>
              <LongitudeDegrees>2.67183397896587848663330078125</LongitudeDegrees>
            </Position>
            <AltitudeMeters>1023.5999755859375</AltitudeMeters>
            <DistanceMeters>NAN</DistanceMeters>
          </Trackpoint>
          <Trackpoint>
            <Time>2021-04-01T14:16:34.000Z</Time>
            <Position>
              <LatitudeDegrees>42.40139351226389408111572265625</LatitudeDegrees>
              <LongitudeDegrees>2.67183230258524417877197265625</LongitudeDegrees>
            </Position>
            <AltitudeMeters>1023.5999755859375</AltitudeMeters>
            <DistanceMeters>NAN</DistanceMeters>
          </Trackpoint>
          <Trackpoint>
            <Time>2021-04-01T14:16:52.000Z</Time>
            <Position>
              <LatitudeDegrees>42.40139988251030445098876953125</LatitudeDegrees>
              <LongitudeDegrees>2.671822495758533477783203125</LongitudeDegrees>
            </Position>
            <AltitudeMeters>1023.5999755859375</AltitudeMeters>
            <DistanceMeters>NAN</DistanceMeters>
          </Trackpoint>
          <Trackpoint>
            <Time>2021-04-01T14:17:10.000Z</Time>
            <Position>
              <LatitudeDegrees>42.401394434273242950439453125</LatitudeDegrees>
              <LongitudeDegrees>2.671812437474727630615234375</LongitudeDegrees>
            </Position>
            <AltitudeMeters>1023.5999755859375</AltitudeMeters>
            <DistanceMeters>NAN</DistanceMeters>
          </Trackpoint>
          <Trackpoint>
            <Time>2021-04-01T14:17:26.000Z</Time>
            <Position>
              <LatitudeDegrees>42.4013956077396869659423828125</LatitudeDegrees>
              <LongitudeDegrees>2.67181151546537876129150390625</LongitudeDegrees>
            </Position>
            <AltitudeMeters>1023.5999755859375</AltitudeMeters>
            <DistanceMeters>NAN</DistanceMeters>
          </Trackpoint>
          <Trackpoint>
            <Time>2021-04-01T14:17:32.000Z</Time>
            <Position>
              <LatitudeDegrees>42.40139544010162353515625</LatitudeDegrees>
              <LongitudeDegrees>2.671815454959869384765625</LongitudeDegrees>
            </Position>
            <AltitudeMeters>1023.5999755859375</AltitudeMeters>
            <DistanceMeters>NAN</DistanceMeters>
          </Trackpoint>
          <Trackpoint>
            <Time>2021-04-01T14:17:34.000Z</Time>
            <Position>
              <LatitudeDegrees>42.40139300934970378875732421875</LatitudeDegrees>
              <LongitudeDegrees>2.67181788571178913116455078125</LongitudeDegrees>
            </Position>
            <AltitudeMeters>1023.5999755859375</AltitudeMeters>
            <DistanceMeters>NAN</DistanceMeters>
          </Trackpoint>
          <Trackpoint>
            <Time>2021-04-01T14:17:37.000Z</Time>
            <Position>
              <LatitudeDegrees>42.401385046541690826416015625</LatitudeDegrees>
              <LongitudeDegrees>2.6718216575682163238525390625</LongitudeDegrees>
            </Position>
            <AltitudeMeters>1023.5999755859375</AltitudeMeters>
            <DistanceMeters>NAN</DistanceMeters>
          </Trackpoint>
          <Trackpoint>
            <Time>2021-04-01T14:17:45.000Z</Time>
            <Position>
              <LatitudeDegrees>42.40137465298175811767578125</LatitudeDegrees>
              <LongitudeDegrees>2.67183314077556133270263671875</LongitudeDegrees>
            </Position>
            <AltitudeMeters>1023.5999755859375</AltitudeMeters>
            <DistanceMeters>NAN</DistanceMeters>
          </Trackpoint>
          <Trackpoint>
            <Time>2021-04-01T14:17:50.000Z</Time>
            <Position>
              <LatitudeDegrees>42.4013677798211574554443359375</LatitudeDegrees>
              <LongitudeDegrees>2.671840600669384002685546875</LongitudeDegrees>
            </Position>
            <AltitudeMeters>1023.5999755859375</AltitudeMeters>
            <DistanceMeters>NAN</DistanceMeters>
          </Trackpoint>
          <Trackpoint>
            <Time>2021-04-01T14:17:52.000Z</Time>
            <Position>
              <LatitudeDegrees>42.4013637565076351165771484375</LatitudeDegrees>
              <LongitudeDegrees>2.671848647296428680419921875</LongitudeDegrees>
            </Position>
            <AltitudeMeters>1023.5999755859375</AltitudeMeters>
            <DistanceMeters>NAN</DistanceMeters>
          </Trackpoint>
          <Trackpoint>
            <Time>2021-04-01T14:17:53.000Z</Time>
            <Position>
              <LatitudeDegrees>42.4013600684702396392822265625</LatitudeDegrees>
              <LongitudeDegrees>2.67184973694384098052978515625</LongitudeDegrees>
            </Position>
            <AltitudeMeters>1023.5999755859375</AltitudeMeters>
            <DistanceMeters>NAN</DistanceMeters>
          </Trackpoint>
          <Trackpoint>
            <Time>2021-04-01T14:17:57.000Z</Time>
            <Position>
              <LatitudeDegrees>42.40135646425187587738037109375</LatitudeDegrees>
              <LongitudeDegrees>2.671845294535160064697265625</LongitudeDegrees>
            </Position>
            <AltitudeMeters>1023.5999755859375</AltitudeMeters>
            <DistanceMeters>NAN</DistanceMeters>
          </Trackpoint>
          <Trackpoint>
            <Time>2021-04-01T14:17:59.000Z</Time>
            <Position>
              <LatitudeDegrees>42.401358895003795623779296875</LatitudeDegrees>
              <LongitudeDegrees>2.67184085212647914886474609375</LongitudeDegrees>
            </Position>
            <AltitudeMeters>1023.5999755859375</AltitudeMeters>
            <DistanceMeters>NAN</DistanceMeters>
          </Trackpoint>
          <Trackpoint>
            <Time>2021-04-01T14:18:03.000Z</Time>
            <Position>
              <LatitudeDegrees>42.40136652253568172454833984375</LatitudeDegrees>
              <LongitudeDegrees>2.67182811163365840911865234375</LongitudeDegrees>
            </Position>
            <AltitudeMeters>1023.5999755859375</AltitudeMeters>
            <DistanceMeters>NAN</DistanceMeters>
          </Trackpoint>
          <Trackpoint>
            <Time>2021-04-01T14:18:04.000Z</Time>
            <Position>
              <LatitudeDegrees>42.40136903710663318634033203125</LatitudeDegrees>
              <LongitudeDegrees>2.6718347333371639251708984375</LongitudeDegrees>
            </Position>
            <AltitudeMeters>1023.5999755859375</AltitudeMeters>
            <DistanceMeters>NAN</DistanceMeters>
          </Trackpoint>
          <Trackpoint>
            <Time>2021-04-01T14:18:06.000Z</Time>
            <Position>
              <LatitudeDegrees>42.40137322805821895599365234375</LatitudeDegrees>
              <LongitudeDegrees>2.6718421094119548797607421875</LongitudeDegrees>
            </Position>
            <AltitudeMeters>1023.5999755859375</AltitudeMeters>
            <DistanceMeters>NAN</DistanceMeters>
          </Trackpoint>
          <Trackpoint>
            <Time>2021-04-01T14:18:08.000Z</Time>
            <Position>
              <LatitudeDegrees>42.40137540735304355621337890625</LatitudeDegrees>
              <LongitudeDegrees>2.671845965087413787841796875</LongitudeDegrees>
            </Position>
            <AltitudeMeters>1023.5999755859375</AltitudeMeters>
            <DistanceMeters>NAN</DistanceMeters>
          </Trackpoint>
          <Trackpoint>
            <Time>2021-04-01T14:18:12.000Z</Time>
            <Position>
              <LatitudeDegrees>42.40138194523751735687255859375</LatitudeDegrees>
              <LongitudeDegrees>2.67186532728374004364013671875</LongitudeDegrees>
            </Position>
            <AltitudeMeters>1023.5999755859375</AltitudeMeters>
            <DistanceMeters>NAN</DistanceMeters>
          </Trackpoint>
          <Trackpoint>
            <Time>2021-04-01T14:18:14.000Z</Time>
            <Position>
              <LatitudeDegrees>42.40138940513134002685546875</LatitudeDegrees>
              <LongitudeDegrees>2.67186214216053485870361328125</LongitudeDegrees>
            </Position>
            <AltitudeMeters>1023.5999755859375</AltitudeMeters>
            <DistanceMeters>NAN</DistanceMeters>
          </Trackpoint>
          <Trackpoint>
            <Time>2021-04-01T14:18:19.000Z</Time>
            <Position>
              <LatitudeDegrees>42.40137708373367786407470703125</LatitudeDegrees>
              <LongitudeDegrees>2.67185057513415813446044921875</LongitudeDegrees>
            </Position>
            <AltitudeMeters>1023.5999755859375</AltitudeMeters>
            <DistanceMeters>NAN</DistanceMeters>
          </Trackpoint>
          <Trackpoint>
            <Time>2021-04-01T14:18:24.000Z</Time>
            <Position>
              <LatitudeDegrees>42.4013681150972843170166015625</LatitudeDegrees>
              <LongitudeDegrees>2.67185091041028499603271484375</LongitudeDegrees>
            </Position>
            <AltitudeMeters>1023.5999755859375</AltitudeMeters>
            <DistanceMeters>NAN</DistanceMeters>
          </Trackpoint>
          <Trackpoint>
            <Time>2021-04-01T14:18:30.000Z</Time>
            <Position>
              <LatitudeDegrees>42.4013832025229930877685546875</LatitudeDegrees>
              <LongitudeDegrees>2.67183129675686359405517578125</LongitudeDegrees>
            </Position>
            <AltitudeMeters>1023.5999755859375</AltitudeMeters>
            <DistanceMeters>NAN</DistanceMeters>
          </Trackpoint>
          <Trackpoint>
            <Time>2021-04-01T14:18:32.000Z</Time>
            <Position>
              <LatitudeDegrees>42.40138613618910312652587890625</LatitudeDegrees>
              <LongitudeDegrees>2.67182509414851665496826171875</LongitudeDegrees>
            </Position>
            <AltitudeMeters>1023.5999755859375</AltitudeMeters>
            <DistanceMeters>NAN</DistanceMeters>
          </Trackpoint>
          <Trackpoint>
            <Time>2021-04-01T14:18:41.000Z</Time>
            <Position>
              <LatitudeDegrees>42.40138613618910312652587890625</LatitudeDegrees>
              <LongitudeDegrees>2.67182509414851665496826171875</LongitudeDegrees>
            </Position>
            <AltitudeMeters>1023.5999755859375</AltitudeMeters>
            <DistanceMeters>NAN</DistanceMeters>
          </Trackpoint>
          <Trackpoint>
            <Time>2021-04-01T14:18:44.000Z</Time>
            <Position>
              <LatitudeDegrees>42.40138613618910312652587890625</LatitudeDegrees>
              <LongitudeDegrees>2.67182509414851665496826171875</LongitudeDegrees>
            </Position>
            <AltitudeMeters>1023.5999755859375</AltitudeMeters>
            <DistanceMeters>NAN</DistanceMeters>
          </Trackpoint>
          <Trackpoint>
            <Time>2021-04-01T14:18:50.000Z</Time>
            <Position>
              <LatitudeDegrees>42.40140122361481189727783203125</LatitudeDegrees>
              <LongitudeDegrees>2.67182509414851665496826171875</LongitudeDegrees>
            </Position>
            <AltitudeMeters>1023.5999755859375</AltitudeMeters>
            <DistanceMeters>NAN</DistanceMeters>
          </Trackpoint>
          <Trackpoint>
            <Time>2021-04-01T14:18:52.000Z</Time>
            <Position>
              <LatitudeDegrees>42.40140206180512905120849609375</LatitudeDegrees>
              <LongitudeDegrees>2.67182509414851665496826171875</LongitudeDegrees>
            </Position>
            <AltitudeMeters>1023.5999755859375</AltitudeMeters>
            <DistanceMeters>NAN</DistanceMeters>
          </Trackpoint>
          <Trackpoint>
            <Time>2021-04-01T14:18:55.000Z</Time>
            <Position>
              <LatitudeDegrees>42.40140616893768310546875</LatitudeDegrees>
              <LongitudeDegrees>2.67182274721562862396240234375</LongitudeDegrees>
            </Position>
            <AltitudeMeters>1023.5999755859375</AltitudeMeters>
            <DistanceMeters>NAN</DistanceMeters>
          </Trackpoint>
          <Trackpoint>
            <Time>2021-04-01T14:18:56.000Z</Time>
            <Position>
              <LatitudeDegrees>42.40140675567090511322021484375</LatitudeDegrees>
              <LongitudeDegrees>2.67182140611112117767333984375</LongitudeDegrees>
            </Position>
            <AltitudeMeters>1026.199951171875</AltitudeMeters>
            <DistanceMeters>NAN</DistanceMeters>
          </Trackpoint>
          <Trackpoint>
            <Time>2021-04-01T14:18:58.000Z</Time>
            <Position>
              <LatitudeDegrees>42.40140742622315883636474609375</LatitudeDegrees>
              <LongitudeDegrees>2.67181746661663055419921875</LongitudeDegrees>
            </Position>
            <AltitudeMeters>1026.199951171875</AltitudeMeters>
            <DistanceMeters>NAN</DistanceMeters>
          </Trackpoint>
          <Trackpoint>
            <Time>2021-04-01T14:19:02.000Z</Time>
            <Position>
              <LatitudeDegrees>42.40140843205153942108154296875</LatitudeDegrees>
              <LongitudeDegrees>2.671809755265712738037109375</LongitudeDegrees>
            </Position>
            <AltitudeMeters>1026.4000244140625</AltitudeMeters>
            <DistanceMeters>NAN</DistanceMeters>
          </Trackpoint>
          <Trackpoint>
            <Time>2021-04-01T14:19:09.000Z</Time>
            <Position>
              <LatitudeDegrees>42.40141077898442745208740234375</LatitudeDegrees>
              <LongitudeDegrees>2.6718122698366641998291015625</LongitudeDegrees>
            </Position>
            <AltitudeMeters>1026.5999755859375</AltitudeMeters>
            <DistanceMeters>NAN</DistanceMeters>
          </Trackpoint>
          <Trackpoint>
            <Time>2021-04-01T14:19:10.000Z</Time>
            <Position>
              <LatitudeDegrees>42.40141128189861774444580078125</LatitudeDegrees>
              <LongitudeDegrees>2.671813778579235076904296875</LongitudeDegrees>
            </Position>
            <AltitudeMeters>1026.5999755859375</AltitudeMeters>
            <DistanceMeters>NAN</DistanceMeters>
          </Trackpoint>
          <Trackpoint>
            <Time>2021-04-01T14:19:19.000Z</Time>
            <Position>
              <LatitudeDegrees>42.401415891945362091064453125</LatitudeDegrees>
              <LongitudeDegrees>2.67181704752147197723388671875</LongitudeDegrees>
            </Position>
            <AltitudeMeters>1027.199951171875</AltitudeMeters>
            <DistanceMeters>NAN</DistanceMeters>
          </Trackpoint>
          <Trackpoint>
            <Time>2021-04-01T14:19:21.000Z</Time>
            <Position>
              <LatitudeDegrees>42.40141597576439380645751953125</LatitudeDegrees>
              <LongitudeDegrees>2.67181704752147197723388671875</LongitudeDegrees>
            </Position>
            <AltitudeMeters>1027.4000244140625</AltitudeMeters>
            <DistanceMeters>NAN</DistanceMeters>
          </Trackpoint>
          <Trackpoint>
            <Time>2021-04-01T14:19:25.000Z</Time>
            <Position>
              <LatitudeDegrees>42.40141597576439380645751953125</LatitudeDegrees>
              <LongitudeDegrees>2.67182190902531147003173828125</LongitudeDegrees>
            </Position>
            <AltitudeMeters>1027.4000244140625</AltitudeMeters>
            <DistanceMeters>NAN</DistanceMeters>
          </Trackpoint>
          <Trackpoint>
            <Time>2021-04-01T14:19:28.000Z</Time>
            <Position>
              <LatitudeDegrees>42.40141597576439380645751953125</LatitudeDegrees>
              <LongitudeDegrees>2.67182358540594577789306640625</LongitudeDegrees>
            </Position>
            <AltitudeMeters>1027.5999755859375</AltitudeMeters>
            <DistanceMeters>NAN</DistanceMeters>
          </Trackpoint>
          <Trackpoint>
            <Time>2021-04-01T14:19:40.000Z</Time>
            <Position>
              <LatitudeDegrees>42.4014053307473659515380859375</LatitudeDegrees>
              <LongitudeDegrees>2.6718927361071109771728515625</LongitudeDegrees>
            </Position>
            <AltitudeMeters>1028</AltitudeMeters>
            <DistanceMeters>NAN</DistanceMeters>
          </Trackpoint>
          <Trackpoint>
            <Time>2021-04-01T14:19:55.000Z</Time>
            <Position>
              <LatitudeDegrees>42.4013865552842617034912109375</LatitudeDegrees>
              <LongitudeDegrees>2.671894244849681854248046875</LongitudeDegrees>
            </Position>
            <AltitudeMeters>1028.199951171875</AltitudeMeters>
            <DistanceMeters>NAN</DistanceMeters>
          </Trackpoint>
          <Trackpoint>
            <Time>2021-04-01T14:19:56.000Z</Time>
            <Position>
              <LatitudeDegrees>42.4013860523700714111328125</LatitudeDegrees>
              <LongitudeDegrees>2.6718890480697154998779296875</LongitudeDegrees>
            </Position>
            <AltitudeMeters>1028.199951171875</AltitudeMeters>
            <DistanceMeters>NAN</DistanceMeters>
          </Trackpoint>
          <Trackpoint>
            <Time>2021-04-01T14:20:00.000Z</Time>
            <Position>
              <LatitudeDegrees>42.4013838730752468109130859375</LatitudeDegrees>
              <LongitudeDegrees>2.67187488265335559844970703125</LongitudeDegrees>
            </Position>
            <AltitudeMeters>1028.199951171875</AltitudeMeters>
            <DistanceMeters>NAN</DistanceMeters>
          </Trackpoint>
          <Trackpoint>
            <Time>2021-04-01T14:20:01.000Z</Time>
            <Position>
              <LatitudeDegrees>42.40138362161815166473388671875</LatitudeDegrees>
              <LongitudeDegrees>2.6718729548156261444091796875</LongitudeDegrees>
            </Position>
            <AltitudeMeters>1028.199951171875</AltitudeMeters>
            <DistanceMeters>NAN</DistanceMeters>
          </Trackpoint>
          <Trackpoint>
            <Time>2021-04-01T14:20:36.000Z</Time>
            <Position>
              <LatitudeDegrees>42.4014197476208209991455078125</LatitudeDegrees>
              <LongitudeDegrees>2.67183314077556133270263671875</LongitudeDegrees>
            </Position>
            <AltitudeMeters>1028.800048828125</AltitudeMeters>
            <DistanceMeters>NAN</DistanceMeters>
          </Trackpoint>
          <Trackpoint>
            <Time>2021-04-01T14:21:02.000Z</Time>
            <Position>
              <LatitudeDegrees>42.40149845369160175323486328125</LatitudeDegrees>
              <LongitudeDegrees>2.671835906803607940673828125</LongitudeDegrees>
            </Position>
            <AltitudeMeters>1029.199951171875</AltitudeMeters>
            <DistanceMeters>NAN</DistanceMeters>
          </Trackpoint>
          <Trackpoint>
            <Time>2021-04-01T14:21:42.000Z</Time>
            <Position>
              <LatitudeDegrees>42.40157523192465305328369140625</LatitudeDegrees>
              <LongitudeDegrees>2.67190706916153430938720703125</LongitudeDegrees>
            </Position>
            <AltitudeMeters>1029.5999755859375</AltitudeMeters>
            <DistanceMeters>NAN</DistanceMeters>
          </Trackpoint>
          <Trackpoint>
            <Time>2021-04-01T14:22:58.000Z</Time>
            <Position>
              <LatitudeDegrees>42.40155964158475399017333984375</LatitudeDegrees>
              <LongitudeDegrees>2.67190438695251941680908203125</LongitudeDegrees>
            </Position>
            <AltitudeMeters>1029.4000244140625</AltitudeMeters>
            <DistanceMeters>NAN</DistanceMeters>
          </Trackpoint>
          <Trackpoint>
            <Time>2021-04-01T14:23:02.000Z</Time>
            <Position>
              <LatitudeDegrees>42.40155913867056369781494140625</LatitudeDegrees>
              <LongitudeDegrees>2.6719041354954242706298828125</LongitudeDegrees>
            </Position>
            <AltitudeMeters>1029.4000244140625</AltitudeMeters>
            <DistanceMeters>NAN</DistanceMeters>
          </Trackpoint>
          <Trackpoint>
            <Time>2021-04-01T14:23:03.000Z</Time>
            <Position>
              <LatitudeDegrees>42.401559054851531982421875</LatitudeDegrees>
              <LongitudeDegrees>2.6719041354954242706298828125</LongitudeDegrees>
            </Position>
            <AltitudeMeters>1029.4000244140625</AltitudeMeters>
            <DistanceMeters>NAN</DistanceMeters>
          </Trackpoint>
          <Trackpoint>
            <Time>2021-04-01T14:23:05.000Z</Time>
            <Position>
              <LatitudeDegrees>42.40155880339443683624267578125</LatitudeDegrees>
              <LongitudeDegrees>2.67190405167639255523681640625</LongitudeDegrees>
            </Position>
            <AltitudeMeters>1029.4000244140625</AltitudeMeters>
            <DistanceMeters>NAN</DistanceMeters>
          </Trackpoint>
          <Trackpoint>
            <Time>2021-04-01T14:23:07.000Z</Time>
            <Position>
              <LatitudeDegrees>42.4015585519373416900634765625</LatitudeDegrees>
              <LongitudeDegrees>2.67190388403832912445068359375</LongitudeDegrees>
            </Position>
            <AltitudeMeters>1029.4000244140625</AltitudeMeters>
            <DistanceMeters>NAN</DistanceMeters>
          </Trackpoint>
          <Trackpoint>
            <Time>2021-04-01T14:23:25.000Z</Time>
            <Position>
              <LatitudeDegrees>42.40155612118542194366455078125</LatitudeDegrees>
              <LongitudeDegrees>2.671902291476726531982421875</LongitudeDegrees>
            </Position>
            <AltitudeMeters>1029.4000244140625</AltitudeMeters>
            <DistanceMeters>NAN</DistanceMeters>
          </Trackpoint>
          <Trackpoint>
            <Time>2021-04-01T14:24:04.000Z</Time>
            <Position>
              <LatitudeDegrees>42.4015496671199798583984375</LatitudeDegrees>
              <LongitudeDegrees>2.67189684323966503143310546875</LongitudeDegrees>
            </Position>
            <AltitudeMeters>1029.4000244140625</AltitudeMeters>
            <DistanceMeters>NAN</DistanceMeters>
          </Trackpoint>
          <Trackpoint>
            <Time>2021-04-01T14:24:15.000Z</Time>
            <Position>
              <LatitudeDegrees>42.40154740400612354278564453125</LatitudeDegrees>
              <LongitudeDegrees>2.67189533449709415435791015625</LongitudeDegrees>
            </Position>
            <AltitudeMeters>1029.4000244140625</AltitudeMeters>
            <DistanceMeters>NAN</DistanceMeters>
          </Trackpoint>
          <Trackpoint>
            <Time>2021-04-01T14:24:23.000Z</Time>
            <Position>
              <LatitudeDegrees>42.4015458114445209503173828125</LatitudeDegrees>
              <LongitudeDegrees>2.6718945801258087158203125</LongitudeDegrees>
            </Position>
            <AltitudeMeters>1029.4000244140625</AltitudeMeters>
            <DistanceMeters>NAN</DistanceMeters>
          </Trackpoint>
          <Trackpoint>
            <Time>2021-04-01T14:24:34.000Z</Time>
            <Position>
              <LatitudeDegrees>42.40154371596872806549072265625</LatitudeDegrees>
              <LongitudeDegrees>2.67189382575452327728271484375</LongitudeDegrees>
            </Position>
            <AltitudeMeters>1029.4000244140625</AltitudeMeters>
            <DistanceMeters>NAN</DistanceMeters>
          </Trackpoint>
          <Trackpoint>
            <Time>2021-04-01T14:25:09.000Z</Time>
            <Position>
              <LatitudeDegrees>42.40153801627457141876220703125</LatitudeDegrees>
              <LongitudeDegrees>2.67189164645969867706298828125</LongitudeDegrees>
            </Position>
            <AltitudeMeters>1029.4000244140625</AltitudeMeters>
            <DistanceMeters>NAN</DistanceMeters>
          </Trackpoint>
          <Trackpoint>
            <Time>2021-04-01T14:25:29.000Z</Time>
            <Position>
              <LatitudeDegrees>42.40153449587523937225341796875</LatitudeDegrees>
              <LongitudeDegrees>2.6718903891742229461669921875</LongitudeDegrees>
            </Position>
            <AltitudeMeters>1029.4000244140625</AltitudeMeters>
            <DistanceMeters>NAN</DistanceMeters>
          </Trackpoint>
          <Trackpoint>
            <Time>2021-04-01T14:25:55.000Z</Time>
            <Position>
              <LatitudeDegrees>42.40152888000011444091796875</LatitudeDegrees>
              <LongitudeDegrees>2.67188862897455692291259765625</LongitudeDegrees>
            </Position>
            <AltitudeMeters>1029.4000244140625</AltitudeMeters>
            <DistanceMeters>NAN</DistanceMeters>
          </Trackpoint>
          <Trackpoint>
            <Time>2021-04-01T14:26:00.000Z</Time>
            <Position>
              <LatitudeDegrees>42.40152779035270214080810546875</LatitudeDegrees>
              <LongitudeDegrees>2.671888209879398345947265625</LongitudeDegrees>
            </Position>
            <AltitudeMeters>1029.4000244140625</AltitudeMeters>
            <DistanceMeters>NAN</DistanceMeters>
          </Trackpoint>
          <Trackpoint>
            <Time>2021-04-01T14:26:04.000Z</Time>
            <Position>
              <LatitudeDegrees>42.401527203619480133056640625</LatitudeDegrees>
              <LongitudeDegrees>2.67188795842230319976806640625</LongitudeDegrees>
            </Position>
            <AltitudeMeters>1029.4000244140625</AltitudeMeters>
            <DistanceMeters>NAN</DistanceMeters>
          </Trackpoint>
          <Trackpoint>
            <Time>2021-04-01T14:26:07.000Z</Time>
            <Position>
              <LatitudeDegrees>42.4015267007052898406982421875</LatitudeDegrees>
              <LongitudeDegrees>2.671887874603271484375</LongitudeDegrees>
            </Position>
            <AltitudeMeters>1029.4000244140625</AltitudeMeters>
            <DistanceMeters>NAN</DistanceMeters>
          </Trackpoint>
          <Trackpoint>
            <Time>2021-04-01T14:26:20.000Z</Time>
            <Position>
              <LatitudeDegrees>42.401525191962718963623046875</LatitudeDegrees>
              <LongitudeDegrees>2.67188728787004947662353515625</LongitudeDegrees>
            </Position>
            <AltitudeMeters>1029.4000244140625</AltitudeMeters>
            <DistanceMeters>NAN</DistanceMeters>
          </Trackpoint>
          <Trackpoint>
            <Time>2021-04-01T14:27:05.000Z</Time>
            <Position>
              <LatitudeDegrees>42.4015196599066257476806640625</LatitudeDegrees>
              <LongitudeDegrees>2.67188712023198604583740234375</LongitudeDegrees>
            </Position>
            <AltitudeMeters>1029.4000244140625</AltitudeMeters>
            <DistanceMeters>NAN</DistanceMeters>
          </Trackpoint>
          <Trackpoint>
            <Time>2021-04-01T14:27:06.000Z</Time>
            <Position>
              <LatitudeDegrees>42.40151957608759403228759765625</LatitudeDegrees>
              <LongitudeDegrees>2.67188712023198604583740234375</LongitudeDegrees>
            </Position>
            <AltitudeMeters>1029.4000244140625</AltitudeMeters>
            <DistanceMeters>NAN</DistanceMeters>
          </Trackpoint>
          <Trackpoint>
            <Time>2021-04-01T14:27:17.000Z</Time>
            <Position>
              <LatitudeDegrees>42.4015183188021183013916015625</LatitudeDegrees>
              <LongitudeDegrees>2.67188695259392261505126953125</LongitudeDegrees>
            </Position>
            <AltitudeMeters>1029.4000244140625</AltitudeMeters>
            <DistanceMeters>NAN</DistanceMeters>
          </Trackpoint>
          <Trackpoint>
            <Time>2021-04-01T14:27:20.000Z</Time>
            <Position>
              <LatitudeDegrees>42.4015179835259914398193359375</LatitudeDegrees>
              <LongitudeDegrees>2.671886868774890899658203125</LongitudeDegrees>
            </Position>
            <AltitudeMeters>1029.4000244140625</AltitudeMeters>
            <DistanceMeters>NAN</DistanceMeters>
          </Trackpoint>
          <Trackpoint>
            <Time>2021-04-01T14:27:37.000Z</Time>
            <Position>
              <LatitudeDegrees>42.40151605568826198577880859375</LatitudeDegrees>
              <LongitudeDegrees>2.671886198222637176513671875</LongitudeDegrees>
            </Position>
            <AltitudeMeters>1029.4000244140625</AltitudeMeters>
            <DistanceMeters>NAN</DistanceMeters>
          </Trackpoint>
          <Trackpoint>
            <Time>2021-04-01T14:27:39.000Z</Time>
            <Position>
              <LatitudeDegrees>42.40151588805019855499267578125</LatitudeDegrees>
              <LongitudeDegrees>2.67188611440360546112060546875</LongitudeDegrees>
            </Position>
            <AltitudeMeters>1029.4000244140625</AltitudeMeters>
            <DistanceMeters>NAN</DistanceMeters>
          </Trackpoint>
          <Trackpoint>
            <Time>2021-04-01T14:28:10.000Z</Time>
            <Position>
              <LatitudeDegrees>42.40151169709861278533935546875</LatitudeDegrees>
              <LongitudeDegrees>2.67188393510878086090087890625</LongitudeDegrees>
            </Position>
            <AltitudeMeters>1029.4000244140625</AltitudeMeters>
            <DistanceMeters>NAN</DistanceMeters>
          </Trackpoint>
          <Trackpoint>
            <Time>2021-04-01T14:28:25.000Z</Time>
            <Position>
              <LatitudeDegrees>42.40150935016572475433349609375</LatitudeDegrees>
              <LongitudeDegrees>2.67188259400427341461181640625</LongitudeDegrees>
            </Position>
            <AltitudeMeters>1029.4000244140625</AltitudeMeters>
            <DistanceMeters>NAN</DistanceMeters>
          </Trackpoint>
          <Trackpoint>
            <Time>2021-04-01T14:28:26.000Z</Time>
            <Position>
              <LatitudeDegrees>42.40150918252766132354736328125</LatitudeDegrees>
              <LongitudeDegrees>2.67188242636620998382568359375</LongitudeDegrees>
            </Position>
            <AltitudeMeters>1029.4000244140625</AltitudeMeters>
            <DistanceMeters>NAN</DistanceMeters>
          </Trackpoint>
          <Trackpoint>
            <Time>2021-04-01T14:28:33.000Z</Time>
            <Position>
              <LatitudeDegrees>42.4015079252421855926513671875</LatitudeDegrees>
              <LongitudeDegrees>2.6718816719949245452880859375</LongitudeDegrees>
            </Position>
            <AltitudeMeters>1029.4000244140625</AltitudeMeters>
            <DistanceMeters>NAN</DistanceMeters>
          </Trackpoint>
          <Trackpoint>
            <Time>2021-04-01T14:28:35.000Z</Time>
            <Position>
              <LatitudeDegrees>42.4015075899660587310791015625</LatitudeDegrees>
              <LongitudeDegrees>2.67188142053782939910888671875</LongitudeDegrees>
            </Position>
            <AltitudeMeters>1029.4000244140625</AltitudeMeters>
            <DistanceMeters>NAN</DistanceMeters>
          </Trackpoint>
          <Trackpoint>
            <Time>2021-04-01T14:28:38.000Z</Time>
            <Position>
              <LatitudeDegrees>42.40150717087090015411376953125</LatitudeDegrees>
              <LongitudeDegrees>2.67188125289976596832275390625</LongitudeDegrees>
            </Position>
            <AltitudeMeters>1029.4000244140625</AltitudeMeters>
            <DistanceMeters>NAN</DistanceMeters>
          </Trackpoint>
          <Trackpoint>
            <Time>2021-04-01T14:28:47.000Z</Time>
            <Position>
              <LatitudeDegrees>42.40150532685220241546630859375</LatitudeDegrees>
              <LongitudeDegrees>2.67188007943332195281982421875</LongitudeDegrees>
            </Position>
            <AltitudeMeters>1029.4000244140625</AltitudeMeters>
            <DistanceMeters>NAN</DistanceMeters>
          </Trackpoint>
          <Trackpoint>
            <Time>2021-04-01T14:28:50.000Z</Time>
            <Position>
              <LatitudeDegrees>42.40150474011898040771484375</LatitudeDegrees>
              <LongitudeDegrees>2.67187974415719509124755859375</LongitudeDegrees>
            </Position>
            <AltitudeMeters>1029.4000244140625</AltitudeMeters>
            <DistanceMeters>NAN</DistanceMeters>
          </Trackpoint>
          <Trackpoint>
            <Time>2021-04-01T14:28:52.000Z</Time>
            <Position>
              <LatitudeDegrees>42.401504404842853546142578125</LatitudeDegrees>
              <LongitudeDegrees>2.67187957651913166046142578125</LongitudeDegrees>
            </Position>
            <AltitudeMeters>1029.4000244140625</AltitudeMeters>
            <DistanceMeters>NAN</DistanceMeters>
          </Trackpoint>
          <Trackpoint>
            <Time>2021-04-01T14:29:14.000Z</Time>
            <Position>
              <LatitudeDegrees>42.40149962715804576873779296875</LatitudeDegrees>
              <LongitudeDegrees>2.67187873832881450653076171875</LongitudeDegrees>
            </Position>
            <AltitudeMeters>1029.4000244140625</AltitudeMeters>
            <DistanceMeters>NAN</DistanceMeters>
          </Trackpoint>
          <Trackpoint>
            <Time>2021-04-01T14:29:25.000Z</Time>
            <Position>
              <LatitudeDegrees>42.40149669349193572998046875</LatitudeDegrees>
              <LongitudeDegrees>2.67187840305268764495849609375</LongitudeDegrees>
            </Position>
            <AltitudeMeters>1029.4000244140625</AltitudeMeters>
            <DistanceMeters>NAN</DistanceMeters>
          </Trackpoint>
          <Trackpoint>
            <Time>2021-04-01T14:29:47.000Z</Time>
            <Position>
              <LatitudeDegrees>42.40128907375037670135498046875</LatitudeDegrees>
              <LongitudeDegrees>2.6718820072710514068603515625</LongitudeDegrees>
            </Position>
            <AltitudeMeters>1029.4000244140625</AltitudeMeters>
            <DistanceMeters>NAN</DistanceMeters>
          </Trackpoint>
          <Trackpoint>
            <Time>2021-04-01T14:29:54.000Z</Time>
            <Position>
              <LatitudeDegrees>42.4011749960482120513916015625</LatitudeDegrees>
              <LongitudeDegrees>2.67189198173582553863525390625</LongitudeDegrees>
            </Position>
            <AltitudeMeters>1029.4000244140625</AltitudeMeters>
            <DistanceMeters>NAN</DistanceMeters>
          </Trackpoint>
          <Trackpoint>
            <Time>2021-04-01T14:30:01.000Z</Time>
            <Position>
              <LatitudeDegrees>42.4011203460395336151123046875</LatitudeDegrees>
              <LongitudeDegrees>2.671897597610950469970703125</LongitudeDegrees>
            </Position>
            <AltitudeMeters>1029.800048828125</AltitudeMeters>
            <DistanceMeters>NAN</DistanceMeters>
          </Trackpoint>
          <Trackpoint>
            <Time>2021-04-01T14:30:04.000Z</Time>
            <Position>
              <LatitudeDegrees>42.4011102877557277679443359375</LatitudeDegrees>
              <LongitudeDegrees>2.671897597610950469970703125</LongitudeDegrees>
            </Position>
            <AltitudeMeters>1028.4000244140625</AltitudeMeters>
            <DistanceMeters>NAN</DistanceMeters>
          </Trackpoint>
          <Trackpoint>
            <Time>2021-04-01T14:30:05.000Z</Time>
            <Position>
              <LatitudeDegrees>42.40110869519412517547607421875</LatitudeDegrees>
              <LongitudeDegrees>2.67189550213515758514404296875</LongitudeDegrees>
            </Position>
            <AltitudeMeters>1028</AltitudeMeters>
            <DistanceMeters>NAN</DistanceMeters>
          </Trackpoint>
          <Trackpoint>
            <Time>2021-04-01T14:30:08.000Z</Time>
            <Position>
              <LatitudeDegrees>42.40111053921282291412353515625</LatitudeDegrees>
              <LongitudeDegrees>2.67188410274684429168701171875</LongitudeDegrees>
            </Position>
            <AltitudeMeters>1027.5999755859375</AltitudeMeters>
            <DistanceMeters>NAN</DistanceMeters>
          </Trackpoint>
          <Trackpoint>
            <Time>2021-04-01T14:30:12.000Z</Time>
            <Position>
              <LatitudeDegrees>42.40110240876674652099609375</LatitudeDegrees>
              <LongitudeDegrees>2.67188183963298797607421875</LongitudeDegrees>
            </Position>
            <AltitudeMeters>1027</AltitudeMeters>
            <DistanceMeters>NAN</DistanceMeters>
          </Trackpoint>
          <Trackpoint>
            <Time>2021-04-01T14:30:14.000Z</Time>
            <Position>
              <LatitudeDegrees>42.40108673460781574249267578125</LatitudeDegrees>
              <LongitudeDegrees>2.67188359983265399932861328125</LongitudeDegrees>
            </Position>
            <AltitudeMeters>1026.800048828125</AltitudeMeters>
            <DistanceMeters>NAN</DistanceMeters>
          </Trackpoint>
          <Trackpoint>
            <Time>2021-04-01T14:30:16.000Z</Time>
            <Position>
              <LatitudeDegrees>42.401072569191455841064453125</LatitudeDegrees>
              <LongitudeDegrees>2.671886868774890899658203125</LongitudeDegrees>
            </Position>
            <AltitudeMeters>1026.5999755859375</AltitudeMeters>
            <DistanceMeters>NAN</DistanceMeters>
          </Trackpoint>
          <Trackpoint>
            <Time>2021-04-01T14:30:18.000Z</Time>
            <Position>
              <LatitudeDegrees>42.401061840355396270751953125</LatitudeDegrees>
              <LongitudeDegrees>2.67189323902130126953125</LongitudeDegrees>
            </Position>
            <AltitudeMeters>1026.800048828125</AltitudeMeters>
            <DistanceMeters>NAN</DistanceMeters>
          </Trackpoint>
          <Trackpoint>
            <Time>2021-04-01T14:30:22.000Z</Time>
            <Position>
              <LatitudeDegrees>42.40102973766624927520751953125</LatitudeDegrees>
              <LongitudeDegrees>2.6719026267528533935546875</LongitudeDegrees>
            </Position>
            <AltitudeMeters>1026.800048828125</AltitudeMeters>
            <DistanceMeters>NAN</DistanceMeters>
          </Trackpoint>
          <Trackpoint>
            <Time>2021-04-01T14:30:25.000Z</Time>
            <Position>
              <LatitudeDegrees>42.4009993113577365875244140625</LatitudeDegrees>
              <LongitudeDegrees>2.67190991900861263275146484375</LongitudeDegrees>
            </Position>
            <AltitudeMeters>1025.800048828125</AltitudeMeters>
            <DistanceMeters>NAN</DistanceMeters>
          </Trackpoint>
          <Trackpoint>
            <Time>2021-04-01T14:30:28.000Z</Time>
            <Position>
              <LatitudeDegrees>42.400975339114665985107421875</LatitudeDegrees>
              <LongitudeDegrees>2.6719133555889129638671875</LongitudeDegrees>
            </Position>
            <AltitudeMeters>1025</AltitudeMeters>
            <DistanceMeters>NAN</DistanceMeters>
          </Trackpoint>
          <Trackpoint>
            <Time>2021-04-01T14:30:30.000Z</Time>
            <Position>
              <LatitudeDegrees>42.40095580928027629852294921875</LatitudeDegrees>
              <LongitudeDegrees>2.6719195581972599029541015625</LongitudeDegrees>
            </Position>
            <AltitudeMeters>1024.800048828125</AltitudeMeters>
            <DistanceMeters>NAN</DistanceMeters>
          </Trackpoint>
          <Trackpoint>
            <Time>2021-04-01T14:30:34.000Z</Time>
            <Position>
              <LatitudeDegrees>42.4009235389530658721923828125</LatitudeDegrees>
              <LongitudeDegrees>2.67193204723298549652099609375</LongitudeDegrees>
            </Position>
            <AltitudeMeters>1024.4000244140625</AltitudeMeters>
            <DistanceMeters>NAN</DistanceMeters>
          </Trackpoint>
          <Trackpoint>
            <Time>2021-04-01T14:30:36.000Z</Time>
            <Position>
              <LatitudeDegrees>42.40090115927159786224365234375</LatitudeDegrees>
              <LongitudeDegrees>2.67194193787872791290283203125</LongitudeDegrees>
            </Position>
            <AltitudeMeters>1023.5999755859375</AltitudeMeters>
            <DistanceMeters>NAN</DistanceMeters>
          </Trackpoint>
          <Trackpoint>
            <Time>2021-04-01T14:30:40.000Z</Time>
            <Position>
              <LatitudeDegrees>42.400861680507659912109375</LatitudeDegrees>
              <LongitudeDegrees>2.6719584502279758453369140625</LongitudeDegrees>
            </Position>
            <AltitudeMeters>1022.20001220703125</AltitudeMeters>
            <DistanceMeters>NAN</DistanceMeters>
          </Trackpoint>
          <Trackpoint>
            <Time>2021-04-01T14:30:45.000Z</Time>
            <Position>
              <LatitudeDegrees>42.40081465803086757659912109375</LatitudeDegrees>
              <LongitudeDegrees>2.6719795726239681243896484375</LongitudeDegrees>
            </Position>
            <AltitudeMeters>1021.4000244140625</AltitudeMeters>
            <DistanceMeters>NAN</DistanceMeters>
          </Trackpoint>
          <Trackpoint>
            <Time>2021-04-01T14:30:47.000Z</Time>
            <Position>
              <LatitudeDegrees>42.40079462528228759765625</LatitudeDegrees>
              <LongitudeDegrees>2.67199289985001087188720703125</LongitudeDegrees>
            </Position>
            <AltitudeMeters>1021.20001220703125</AltitudeMeters>
            <DistanceMeters>NAN</DistanceMeters>
          </Trackpoint>
          <Trackpoint>
            <Time>2021-04-01T14:30:48.000Z</Time>
            <Position>
              <LatitudeDegrees>42.40078448317945003509521484375</LatitudeDegrees>
              <LongitudeDegrees>2.6720020361244678497314453125</LongitudeDegrees>
            </Position>
            <AltitudeMeters>1021.20001220703125</AltitudeMeters>
            <DistanceMeters>NAN</DistanceMeters>
          </Trackpoint>
          <Trackpoint>
            <Time>2021-04-01T14:30:52.000Z</Time>
            <Position>
              <LatitudeDegrees>42.400762103497982025146484375</LatitudeDegrees>
              <LongitudeDegrees>2.67201460897922515869140625</LongitudeDegrees>
            </Position>
            <AltitudeMeters>1020.20001220703125</AltitudeMeters>
            <DistanceMeters>NAN</DistanceMeters>
          </Trackpoint>
          <Trackpoint>
            <Time>2021-04-01T14:30:53.000Z</Time>
            <Position>
              <LatitudeDegrees>42.40074299275875091552734375</LatitudeDegrees>
              <LongitudeDegrees>2.67202257178723812103271484375</LongitudeDegrees>
            </Position>
            <AltitudeMeters>1020</AltitudeMeters>
            <DistanceMeters>NAN</DistanceMeters>
          </Trackpoint>
          <Trackpoint>
            <Time>2021-04-01T14:30:59.000Z</Time>
            <Position>
              <LatitudeDegrees>42.4006942100822925567626953125</LatitudeDegrees>
              <LongitudeDegrees>2.672042436897754669189453125</LongitudeDegrees>
            </Position>
            <AltitudeMeters>1019</AltitudeMeters>
            <DistanceMeters>NAN</DistanceMeters>
          </Trackpoint>
          <Trackpoint>
            <Time>2021-04-01T14:31:03.000Z</Time>
            <Position>
              <LatitudeDegrees>42.40065607242286205291748046875</LatitudeDegrees>
              <LongitudeDegrees>2.6720483042299747467041015625</LongitudeDegrees>
            </Position>
            <AltitudeMeters>1018</AltitudeMeters>
            <DistanceMeters>NAN</DistanceMeters>
          </Trackpoint>
          <Trackpoint>
            <Time>2021-04-01T14:31:04.000Z</Time>
            <Position>
              <LatitudeDegrees>42.400650121271610260009765625</LatitudeDegrees>
              <LongitudeDegrees>2.6720509864389896392822265625</LongitudeDegrees>
            </Position>
            <AltitudeMeters>1017.79998779296875</AltitudeMeters>
            <DistanceMeters>NAN</DistanceMeters>
          </Trackpoint>
          <Trackpoint>
            <Time>2021-04-01T14:31:10.000Z</Time>
            <Position>
              <LatitudeDegrees>42.4005956389009952545166015625</LatitudeDegrees>
              <LongitudeDegrees>2.67208032310009002685546875</LongitudeDegrees>
            </Position>
            <AltitudeMeters>1016.79998779296875</AltitudeMeters>
            <DistanceMeters>NAN</DistanceMeters>
          </Trackpoint>
          <Trackpoint>
            <Time>2021-04-01T14:31:12.000Z</Time>
            <Position>
              <LatitudeDegrees>42.40057845599949359893798828125</LatitudeDegrees>
              <LongitudeDegrees>2.67209214158356189727783203125</LongitudeDegrees>
            </Position>
            <AltitudeMeters>1016.4000244140625</AltitudeMeters>
            <DistanceMeters>NAN</DistanceMeters>
          </Trackpoint>
          <Trackpoint>
            <Time>2021-04-01T14:31:14.000Z</Time>
            <Position>
              <LatitudeDegrees>42.400559596717357635498046875</LatitudeDegrees>
              <LongitudeDegrees>2.67210018821060657501220703125</LongitudeDegrees>
            </Position>
            <AltitudeMeters>1015.5999755859375</AltitudeMeters>
            <DistanceMeters>NAN</DistanceMeters>
          </Trackpoint>
          <Trackpoint>
            <Time>2021-04-01T14:31:18.000Z</Time>
            <Position>
              <LatitudeDegrees>42.4005282483994960784912109375</LatitudeDegrees>
              <LongitudeDegrees>2.672114856541156768798828125</LongitudeDegrees>
            </Position>
            <AltitudeMeters>1015.20001220703125</AltitudeMeters>
            <DistanceMeters>NAN</DistanceMeters>
          </Trackpoint>
          <Trackpoint>
            <Time>2021-04-01T14:31:19.000Z</Time>
            <Position>
              <LatitudeDegrees>42.4005210399627685546875</LatitudeDegrees>
              <LongitudeDegrees>2.67211879603564739227294921875</LongitudeDegrees>
            </Position>
            <AltitudeMeters>1015.20001220703125</AltitudeMeters>
            <DistanceMeters>NAN</DistanceMeters>
          </Trackpoint>
          <Trackpoint>
            <Time>2021-04-01T14:31:22.000Z</Time>
            <Position>
              <LatitudeDegrees>42.400495223701000213623046875</LatitudeDegrees>
              <LongitudeDegrees>2.67213254235684871673583984375</LongitudeDegrees>
            </Position>
            <AltitudeMeters>1014.5999755859375</AltitudeMeters>
            <DistanceMeters>NAN</DistanceMeters>
          </Trackpoint>
          <Trackpoint>
            <Time>2021-04-01T14:31:23.000Z</Time>
            <Position>
              <LatitudeDegrees>42.40049354732036590576171875</LatitudeDegrees>
              <LongitudeDegrees>2.67213639803230762481689453125</LongitudeDegrees>
            </Position>
            <AltitudeMeters>1014.4000244140625</AltitudeMeters>
            <DistanceMeters>NAN</DistanceMeters>
          </Trackpoint>
          <Trackpoint>
            <Time>2021-04-01T14:31:25.000Z</Time>
            <Position>
              <LatitudeDegrees>42.4004833213984966278076171875</LatitudeDegrees>
              <LongitudeDegrees>2.67214394174516201019287109375</LongitudeDegrees>
            </Position>
            <AltitudeMeters>1014.20001220703125</AltitudeMeters>
            <DistanceMeters>NAN</DistanceMeters>
          </Trackpoint>
          <Trackpoint>
            <Time>2021-04-01T14:31:31.000Z</Time>
            <Position>
              <LatitudeDegrees>42.40043378435075283050537109375</LatitudeDegrees>
              <LongitudeDegrees>2.6721735298633575439453125</LongitudeDegrees>
            </Position>
            <AltitudeMeters>1013.20001220703125</AltitudeMeters>
            <DistanceMeters>NAN</DistanceMeters>
          </Trackpoint>
          <Trackpoint>
            <Time>2021-04-01T14:31:33.000Z</Time>
            <Position>
              <LatitudeDegrees>42.40041978657245635986328125</LatitudeDegrees>
              <LongitudeDegrees>2.67217914573848247528076171875</LongitudeDegrees>
            </Position>
            <AltitudeMeters>1012</AltitudeMeters>
            <DistanceMeters>NAN</DistanceMeters>
          </Trackpoint>
          <Trackpoint>
            <Time>2021-04-01T14:31:37.000Z</Time>
            <Position>
              <LatitudeDegrees>42.40040746517479419708251953125</LatitudeDegrees>
              <LongitudeDegrees>2.67218551598489284515380859375</LongitudeDegrees>
            </Position>
            <AltitudeMeters>1011.20001220703125</AltitudeMeters>
            <DistanceMeters>NAN</DistanceMeters>
          </Trackpoint>
          <Trackpoint>
            <Time>2021-04-01T14:31:38.000Z</Time>
            <Position>
              <LatitudeDegrees>42.4004018492996692657470703125</LatitudeDegrees>
              <LongitudeDegrees>2.6721881143748760223388671875</LongitudeDegrees>
            </Position>
            <AltitudeMeters>1011.20001220703125</AltitudeMeters>
            <DistanceMeters>NAN</DistanceMeters>
          </Trackpoint>
          <Trackpoint>
            <Time>2021-04-01T14:31:40.000Z</Time>
            <Position>
              <LatitudeDegrees>42.4003844149410724639892578125</LatitudeDegrees>
              <LongitudeDegrees>2.67219842411577701568603515625</LongitudeDegrees>
            </Position>
            <AltitudeMeters>1011</AltitudeMeters>
            <DistanceMeters>NAN</DistanceMeters>
          </Trackpoint>
          <Trackpoint>
            <Time>2021-04-01T14:31:42.000Z</Time>
            <Position>
              <LatitudeDegrees>42.40036924369633197784423828125</LatitudeDegrees>
              <LongitudeDegrees>2.6722057163715362548828125</LongitudeDegrees>
            </Position>
            <AltitudeMeters>1010.5999755859375</AltitudeMeters>
            <DistanceMeters>NAN</DistanceMeters>
          </Trackpoint>
          <Trackpoint>
            <Time>2021-04-01T14:31:43.000Z</Time>
            <Position>
              <LatitudeDegrees>42.40035935305058956146240234375</LatitudeDegrees>
              <LongitudeDegrees>2.672213427722454071044921875</LongitudeDegrees>
            </Position>
            <AltitudeMeters>1010.4000244140625</AltitudeMeters>
            <DistanceMeters>NAN</DistanceMeters>
          </Trackpoint>
          <Trackpoint>
            <Time>2021-04-01T14:31:45.000Z</Time>
            <Position>
              <LatitudeDegrees>42.4003431759774684906005859375</LatitudeDegrees>
              <LongitudeDegrees>2.67222390510141849517822265625</LongitudeDegrees>
            </Position>
            <AltitudeMeters>1009.79998779296875</AltitudeMeters>
            <DistanceMeters>NAN</DistanceMeters>
          </Trackpoint>
          <Trackpoint>
            <Time>2021-04-01T14:31:49.000Z</Time>
            <Position>
              <LatitudeDegrees>42.40031224675476551055908203125</LatitudeDegrees>
              <LongitudeDegrees>2.672243602573871612548828125</LongitudeDegrees>
            </Position>
            <AltitudeMeters>1009.20001220703125</AltitudeMeters>
            <DistanceMeters>NAN</DistanceMeters>
          </Trackpoint>
          <Trackpoint>
            <Time>2021-04-01T14:31:50.000Z</Time>
            <Position>
              <LatitudeDegrees>42.4003042839467525482177734375</LatitudeDegrees>
              <LongitudeDegrees>2.67225089482963085174560546875</LongitudeDegrees>
            </Position>
            <AltitudeMeters>1008.79998779296875</AltitudeMeters>
            <DistanceMeters>NAN</DistanceMeters>
          </Trackpoint>
          <Trackpoint>
            <Time>2021-04-01T14:31:53.000Z</Time>
            <Position>
              <LatitudeDegrees>42.400276623666286468505859375</LatitudeDegrees>
              <LongitudeDegrees>2.67227034084498882293701171875</LongitudeDegrees>
            </Position>
            <AltitudeMeters>1007.79998779296875</AltitudeMeters>
            <DistanceMeters>NAN</DistanceMeters>
          </Trackpoint>
          <Trackpoint>
            <Time>2021-04-01T14:31:59.000Z</Time>
            <Position>
              <LatitudeDegrees>42.40022859536111354827880859375</LatitudeDegrees>
              <LongitudeDegrees>2.67231166362762451171875</LongitudeDegrees>
            </Position>
            <AltitudeMeters>1006.4000244140625</AltitudeMeters>
            <DistanceMeters>NAN</DistanceMeters>
          </Trackpoint>
          <Trackpoint>
            <Time>2021-04-01T14:32:03.000Z</Time>
            <Position>
              <LatitudeDegrees>42.4001939781010150909423828125</LatitudeDegrees>
              <LongitudeDegrees>2.67233052290976047515869140625</LongitudeDegrees>
            </Position>
            <AltitudeMeters>1005</AltitudeMeters>
            <DistanceMeters>NAN</DistanceMeters>
          </Trackpoint>
          <Trackpoint>
            <Time>2021-04-01T14:32:04.000Z</Time>
            <Position>
              <LatitudeDegrees>42.4001845903694629669189453125</LatitudeDegrees>
              <LongitudeDegrees>2.67233689315617084503173828125</LongitudeDegrees>
            </Position>
            <AltitudeMeters>1004.4000244140625</AltitudeMeters>
            <DistanceMeters>NAN</DistanceMeters>
          </Trackpoint>
          <Trackpoint>
            <Time>2021-04-01T14:32:06.000Z</Time>
            <Position>
              <LatitudeDegrees>42.40017428062856197357177734375</LatitudeDegrees>
              <LongitudeDegrees>2.67234661616384983062744140625</LongitudeDegrees>
            </Position>
            <AltitudeMeters>1003.79998779296875</AltitudeMeters>
            <DistanceMeters>NAN</DistanceMeters>
          </Trackpoint>
          <Trackpoint>
            <Time>2021-04-01T14:32:09.000Z</Time>
            <Position>
              <LatitudeDegrees>42.40015751682221889495849609375</LatitudeDegrees>
              <LongitudeDegrees>2.6723580993711948394775390625</LongitudeDegrees>
            </Position>
            <AltitudeMeters>1003.20001220703125</AltitudeMeters>
            <DistanceMeters>NAN</DistanceMeters>
          </Trackpoint>
          <Trackpoint>
            <Time>2021-04-01T14:32:12.000Z</Time>
            <Position>
              <LatitudeDegrees>42.40012248046696186065673828125</LatitudeDegrees>
              <LongitudeDegrees>2.6723758690059185028076171875</LongitudeDegrees>
            </Position>
            <AltitudeMeters>1002.5999755859375</AltitudeMeters>
            <DistanceMeters>NAN</DistanceMeters>
          </Trackpoint>
          <Trackpoint>
            <Time>2021-04-01T14:32:17.000Z</Time>
            <Position>
              <LatitudeDegrees>42.40007319487631320953369140625</LatitudeDegrees>
              <LongitudeDegrees>2.672391794621944427490234375</LongitudeDegrees>
            </Position>
            <AltitudeMeters>1001.79998779296875</AltitudeMeters>
            <DistanceMeters>NAN</DistanceMeters>
          </Trackpoint>
          <Trackpoint>
            <Time>2021-04-01T14:32:18.000Z</Time>
            <Position>
              <LatitudeDegrees>42.4000618793070316314697265625</LatitudeDegrees>
              <LongitudeDegrees>2.672395147383213043212890625</LongitudeDegrees>
            </Position>
            <AltitudeMeters>1001.4000244140625</AltitudeMeters>
            <DistanceMeters>NAN</DistanceMeters>
          </Trackpoint>
          <Trackpoint>
            <Time>2021-04-01T14:32:22.000Z</Time>
            <Position>
              <LatitudeDegrees>42.40002416074275970458984375</LatitudeDegrees>
              <LongitudeDegrees>2.67240880988538265228271484375</LongitudeDegrees>
            </Position>
            <AltitudeMeters>1000.4000244140625</AltitudeMeters>
            <DistanceMeters>NAN</DistanceMeters>
          </Trackpoint>
          <Trackpoint>
            <Time>2021-04-01T14:32:25.000Z</Time>
            <Position>
              <LatitudeDegrees>42.39999465644359588623046875</LatitudeDegrees>
              <LongitudeDegrees>2.6724268309772014617919921875</LongitudeDegrees>
            </Position>
            <AltitudeMeters>999.20001220703125</AltitudeMeters>
            <DistanceMeters>NAN</DistanceMeters>
          </Trackpoint>
          <Trackpoint>
            <Time>2021-04-01T14:32:28.000Z</Time>
            <Position>
              <LatitudeDegrees>42.39996858872473239898681640625</LatitudeDegrees>
              <LongitudeDegrees>2.6724390685558319091796875</LongitudeDegrees>
            </Position>
            <AltitudeMeters>998</AltitudeMeters>
            <DistanceMeters>NAN</DistanceMeters>
          </Trackpoint>
          <Trackpoint>
            <Time>2021-04-01T14:32:30.000Z</Time>
            <Position>
              <LatitudeDegrees>42.39994981326162815093994140625</LatitudeDegrees>
              <LongitudeDegrees>2.67245155759155750274658203125</LongitudeDegrees>
            </Position>
            <AltitudeMeters>997.5999755859375</AltitudeMeters>
            <DistanceMeters>NAN</DistanceMeters>
          </Trackpoint>
          <Trackpoint>
            <Time>2021-04-01T14:32:32.000Z</Time>
            <Position>
              <LatitudeDegrees>42.399933300912380218505859375</LatitudeDegrees>
              <LongitudeDegrees>2.67246195115149021148681640625</LongitudeDegrees>
            </Position>
            <AltitudeMeters>997</AltitudeMeters>
            <DistanceMeters>NAN</DistanceMeters>
          </Trackpoint>
          <Trackpoint>
            <Time>2021-04-01T14:32:37.000Z</Time>
            <Position>
              <LatitudeDegrees>42.39989298395812511444091796875</LatitudeDegrees>
              <LongitudeDegrees>2.67248776741325855255126953125</LongitudeDegrees>
            </Position>
            <AltitudeMeters>996</AltitudeMeters>
            <DistanceMeters>NAN</DistanceMeters>
          </Trackpoint>
          <Trackpoint>
            <Time>2021-04-01T14:32:38.000Z</Time>
            <Position>
              <LatitudeDegrees>42.399883680045604705810546875</LatitudeDegrees>
              <LongitudeDegrees>2.67249229364097118377685546875</LongitudeDegrees>
            </Position>
            <AltitudeMeters>995.79998779296875</AltitudeMeters>
            <DistanceMeters>NAN</DistanceMeters>
          </Trackpoint>
          <Trackpoint>
            <Time>2021-04-01T14:32:42.000Z</Time>
            <Position>
              <LatitudeDegrees>42.39985543303191661834716796875</LatitudeDegrees>
              <LongitudeDegrees>2.67251391895115375518798828125</LongitudeDegrees>
            </Position>
            <AltitudeMeters>994.79998779296875</AltitudeMeters>
            <DistanceMeters>NAN</DistanceMeters>
          </Trackpoint>
          <Trackpoint>
            <Time>2021-04-01T14:32:46.000Z</Time>
            <Position>
              <LatitudeDegrees>42.39983229897916316986083984375</LatitudeDegrees>
              <LongitudeDegrees>2.67253135330975055694580078125</LongitudeDegrees>
            </Position>
            <AltitudeMeters>994</AltitudeMeters>
            <DistanceMeters>NAN</DistanceMeters>
          </Trackpoint>
          <Trackpoint>
            <Time>2021-04-01T14:32:47.000Z</Time>
            <Position>
              <LatitudeDegrees>42.3998303711414337158203125</LatitudeDegrees>
              <LongitudeDegrees>2.67253068275749683380126953125</LongitudeDegrees>
            </Position>
            <AltitudeMeters>993.79998779296875</AltitudeMeters>
            <DistanceMeters>NAN</DistanceMeters>
          </Trackpoint>
          <Trackpoint>
            <Time>2021-04-01T14:32:48.000Z</Time>
            <Position>
              <LatitudeDegrees>42.39982928149402141571044921875</LatitudeDegrees>
              <LongitudeDegrees>2.67253051511943340301513671875</LongitudeDegrees>
            </Position>
            <AltitudeMeters>993.5999755859375</AltitudeMeters>
            <DistanceMeters>NAN</DistanceMeters>
          </Trackpoint>
          <Trackpoint>
            <Time>2021-04-01T14:32:50.000Z</Time>
            <Position>
              <LatitudeDegrees>42.39982995204627513885498046875</LatitudeDegrees>
              <LongitudeDegrees>2.67253152094781398773193359375</LongitudeDegrees>
            </Position>
            <AltitudeMeters>993.4000244140625</AltitudeMeters>
            <DistanceMeters>NAN</DistanceMeters>
          </Trackpoint>
          <Trackpoint>
            <Time>2021-04-01T14:32:57.000Z</Time>
            <Position>
              <LatitudeDegrees>42.39979675970971584320068359375</LatitudeDegrees>
              <LongitudeDegrees>2.672561109066009521484375</LongitudeDegrees>
            </Position>
            <AltitudeMeters>993.20001220703125</AltitudeMeters>
            <DistanceMeters>NAN</DistanceMeters>
          </Trackpoint>
          <Trackpoint>
            <Time>2021-04-01T14:32:58.000Z</Time>
            <Position>
              <LatitudeDegrees>42.39979038946330547332763671875</LatitudeDegrees>
              <LongitudeDegrees>2.6725683175027370452880859375</LongitudeDegrees>
            </Position>
            <AltitudeMeters>993</AltitudeMeters>
            <DistanceMeters>NAN</DistanceMeters>
          </Trackpoint>
          <Trackpoint>
            <Time>2021-04-01T14:33:00.000Z</Time>
            <Position>
              <LatitudeDegrees>42.39978318102657794952392578125</LatitudeDegrees>
              <LongitudeDegrees>2.67257519066333770751953125</LongitudeDegrees>
            </Position>
            <AltitudeMeters>992.4000244140625</AltitudeMeters>
            <DistanceMeters>NAN</DistanceMeters>
          </Trackpoint>
          <Trackpoint>
            <Time>2021-04-01T14:33:03.000Z</Time>
            <Position>
              <LatitudeDegrees>42.3997567780315876007080078125</LatitudeDegrees>
              <LongitudeDegrees>2.67260603606700897216796875</LongitudeDegrees>
            </Position>
            <AltitudeMeters>991.20001220703125</AltitudeMeters>
            <DistanceMeters>NAN</DistanceMeters>
          </Trackpoint>
          <Trackpoint>
            <Time>2021-04-01T14:33:06.000Z</Time>
            <Position>
              <LatitudeDegrees>42.39973314106464385986328125</LatitudeDegrees>
              <LongitudeDegrees>2.67262456007301807403564453125</LongitudeDegrees>
            </Position>
            <AltitudeMeters>990</AltitudeMeters>
            <DistanceMeters>NAN</DistanceMeters>
          </Trackpoint>
          <Trackpoint>
            <Time>2021-04-01T14:33:10.000Z</Time>
            <Position>
              <LatitudeDegrees>42.3997054807841777801513671875</LatitudeDegrees>
              <LongitudeDegrees>2.672647945582866668701171875</LongitudeDegrees>
            </Position>
            <AltitudeMeters>988.79998779296875</AltitudeMeters>
            <DistanceMeters>NAN</DistanceMeters>
          </Trackpoint>
          <Trackpoint>
            <Time>2021-04-01T14:33:11.000Z</Time>
            <Position>
              <LatitudeDegrees>42.39969986490905284881591796875</LatitudeDegrees>
              <LongitudeDegrees>2.67265289090573787689208984375</LongitudeDegrees>
            </Position>
            <AltitudeMeters>988.5999755859375</AltitudeMeters>
            <DistanceMeters>NAN</DistanceMeters>
          </Trackpoint>
          <Trackpoint>
            <Time>2021-04-01T14:33:12.000Z</Time>
            <Position>
              <LatitudeDegrees>42.39969290792942047119140625</LatitudeDegrees>
              <LongitudeDegrees>2.67265833914279937744140625</LongitudeDegrees>
            </Position>
            <AltitudeMeters>988.4000244140625</AltitudeMeters>
            <DistanceMeters>NAN</DistanceMeters>
          </Trackpoint>
          <Trackpoint>
            <Time>2021-04-01T14:33:16.000Z</Time>
            <Position>
              <LatitudeDegrees>42.3996649123728275299072265625</LatitudeDegrees>
              <LongitudeDegrees>2.6726913638412952423095703125</LongitudeDegrees>
            </Position>
            <AltitudeMeters>987.79998779296875</AltitudeMeters>
            <DistanceMeters>NAN</DistanceMeters>
          </Trackpoint>
          <Trackpoint>
            <Time>2021-04-01T14:33:19.000Z</Time>
            <Position>
              <LatitudeDegrees>42.399650327861309051513671875</LatitudeDegrees>
              <LongitudeDegrees>2.6727098040282726287841796875</LongitudeDegrees>
            </Position>
            <AltitudeMeters>987.20001220703125</AltitudeMeters>
            <DistanceMeters>NAN</DistanceMeters>
          </Trackpoint>
          <Trackpoint>
            <Time>2021-04-01T14:33:22.000Z</Time>
            <Position>
              <LatitudeDegrees>42.399618141353130340576171875</LatitudeDegrees>
              <LongitudeDegrees>2.6727520488202571868896484375</LongitudeDegrees>
            </Position>
            <AltitudeMeters>986.5999755859375</AltitudeMeters>
            <DistanceMeters>NAN</DistanceMeters>
          </Trackpoint>
          <Trackpoint>
            <Time>2021-04-01T14:33:25.000Z</Time>
            <Position>
              <LatitudeDegrees>42.399600036442279815673828125</LatitudeDegrees>
              <LongitudeDegrees>2.67277241684496402740478515625</LongitudeDegrees>
            </Position>
            <AltitudeMeters>985.4000244140625</AltitudeMeters>
            <DistanceMeters>NAN</DistanceMeters>
          </Trackpoint>
          <Trackpoint>
            <Time>2021-04-01T14:33:27.000Z</Time>
            <Position>
              <LatitudeDegrees>42.39957698620855808258056640625</LatitudeDegrees>
              <LongitudeDegrees>2.67280259169638156890869140625</LongitudeDegrees>
            </Position>
            <AltitudeMeters>984.79998779296875</AltitudeMeters>
            <DistanceMeters>NAN</DistanceMeters>
          </Trackpoint>
          <Trackpoint>
            <Time>2021-04-01T14:33:29.000Z</Time>
            <Position>
              <LatitudeDegrees>42.3995619826018810272216796875</LatitudeDegrees>
              <LongitudeDegrees>2.6728254742920398712158203125</LongitudeDegrees>
            </Position>
            <AltitudeMeters>984.4000244140625</AltitudeMeters>
            <DistanceMeters>NAN</DistanceMeters>
          </Trackpoint>
          <Trackpoint>
            <Time>2021-04-01T14:33:34.000Z</Time>
            <Position>
              <LatitudeDegrees>42.3995304666459560394287109375</LatitudeDegrees>
              <LongitudeDegrees>2.67287836410105228424072265625</LongitudeDegrees>
            </Position>
            <AltitudeMeters>983.20001220703125</AltitudeMeters>
            <DistanceMeters>NAN</DistanceMeters>
          </Trackpoint>
          <Trackpoint>
            <Time>2021-04-01T14:33:37.000Z</Time>
            <Position>
              <LatitudeDegrees>42.39951051771640777587890625</LatitudeDegrees>
              <LongitudeDegrees>2.6729084551334381103515625</LongitudeDegrees>
            </Position>
            <AltitudeMeters>982.4000244140625</AltitudeMeters>
            <DistanceMeters>NAN</DistanceMeters>
          </Trackpoint>
          <Trackpoint>
            <Time>2021-04-01T14:33:38.000Z</Time>
            <Position>
              <LatitudeDegrees>42.3995046503841876983642578125</LatitudeDegrees>
              <LongitudeDegrees>2.672922872006893157958984375</LongitudeDegrees>
            </Position>
            <AltitudeMeters>982.4000244140625</AltitudeMeters>
            <DistanceMeters>NAN</DistanceMeters>
          </Trackpoint>
          <Trackpoint>
            <Time>2021-04-01T14:33:39.000Z</Time>
            <Position>
              <LatitudeDegrees>42.39949886687099933624267578125</LatitudeDegrees>
              <LongitudeDegrees>2.67293469049036502838134765625</LongitudeDegrees>
            </Position>
            <AltitudeMeters>982.20001220703125</AltitudeMeters>
            <DistanceMeters>NAN</DistanceMeters>
          </Trackpoint>
          <Trackpoint>
            <Time>2021-04-01T14:33:43.000Z</Time>
            <Position>
              <LatitudeDegrees>42.39946802146732807159423828125</LatitudeDegrees>
              <LongitudeDegrees>2.67298012040555477142333984375</LongitudeDegrees>
            </Position>
            <AltitudeMeters>981.5999755859375</AltitudeMeters>
            <DistanceMeters>NAN</DistanceMeters>
          </Trackpoint>
          <Trackpoint>
            <Time>2021-04-01T14:33:46.000Z</Time>
            <Position>
              <LatitudeDegrees>42.39944740198552608489990234375</LatitudeDegrees>
              <LongitudeDegrees>2.6730152405798435211181640625</LongitudeDegrees>
            </Position>
            <AltitudeMeters>981.20001220703125</AltitudeMeters>
            <DistanceMeters>NAN</DistanceMeters>
          </Trackpoint>
          <Trackpoint>
            <Time>2021-04-01T14:33:49.000Z</Time>
            <Position>
              <LatitudeDegrees>42.39942275919020175933837890625</LatitudeDegrees>
              <LongitudeDegrees>2.6730467565357685089111328125</LongitudeDegrees>
            </Position>
            <AltitudeMeters>980.5999755859375</AltitudeMeters>
            <DistanceMeters>NAN</DistanceMeters>
          </Trackpoint>
          <Trackpoint>
            <Time>2021-04-01T14:33:50.000Z</Time>
            <Position>
              <LatitudeDegrees>42.399415634572505950927734375</LatitudeDegrees>
              <LongitudeDegrees>2.6730548031628131866455078125</LongitudeDegrees>
            </Position>
            <AltitudeMeters>980.5999755859375</AltitudeMeters>
            <DistanceMeters>NAN</DistanceMeters>
          </Trackpoint>
          <Trackpoint>
            <Time>2021-04-01T14:33:55.000Z</Time>
            <Position>
              <LatitudeDegrees>42.39936542697250843048095703125</LatitudeDegrees>
              <LongitudeDegrees>2.673109285533428192138671875</LongitudeDegrees>
            </Position>
            <AltitudeMeters>980</AltitudeMeters>
            <DistanceMeters>NAN</DistanceMeters>
          </Trackpoint>
          <Trackpoint>
            <Time>2021-04-01T14:34:01.000Z</Time>
            <Position>
              <LatitudeDegrees>42.39930407144129276275634765625</LatitudeDegrees>
              <LongitudeDegrees>2.6731560565531253814697265625</LongitudeDegrees>
            </Position>
            <AltitudeMeters>979</AltitudeMeters>
            <DistanceMeters>NAN</DistanceMeters>
          </Trackpoint>
          <Trackpoint>
            <Time>2021-04-01T14:34:05.000Z</Time>
            <Position>
              <LatitudeDegrees>42.3992672748863697052001953125</LatitudeDegrees>
              <LongitudeDegrees>2.6731778495013713836669921875</LongitudeDegrees>
            </Position>
            <AltitudeMeters>978.4000244140625</AltitudeMeters>
            <DistanceMeters>NAN</DistanceMeters>
          </Trackpoint>
          <Trackpoint>
            <Time>2021-04-01T14:34:08.000Z</Time>
            <Position>
              <LatitudeDegrees>42.3992334119975566864013671875</LatitudeDegrees>
              <LongitudeDegrees>2.6731966249644756317138671875</LongitudeDegrees>
            </Position>
            <AltitudeMeters>978</AltitudeMeters>
            <DistanceMeters>NAN</DistanceMeters>
          </Trackpoint>
          <Trackpoint>
            <Time>2021-04-01T14:34:14.000Z</Time>
            <Position>
              <LatitudeDegrees>42.3991680331528186798095703125</LatitudeDegrees>
              <LongitudeDegrees>2.6732356846332550048828125</LongitudeDegrees>
            </Position>
            <AltitudeMeters>977.20001220703125</AltitudeMeters>
            <DistanceMeters>NAN</DistanceMeters>
          </Trackpoint>
          <Trackpoint>
            <Time>2021-04-01T14:34:16.000Z</Time>
            <Position>
              <LatitudeDegrees>42.39915537647902965545654296875</LatitudeDegrees>
              <LongitudeDegrees>2.67325839959084987640380859375</LongitudeDegrees>
            </Position>
            <AltitudeMeters>976.79998779296875</AltitudeMeters>
            <DistanceMeters>NAN</DistanceMeters>
          </Trackpoint>
          <Trackpoint>
            <Time>2021-04-01T14:34:21.000Z</Time>
            <Position>
              <LatitudeDegrees>42.39913023076951503753662109375</LatitudeDegrees>
              <LongitudeDegrees>2.67333048395812511444091796875</LongitudeDegrees>
            </Position>
            <AltitudeMeters>976.5999755859375</AltitudeMeters>
            <DistanceMeters>NAN</DistanceMeters>
          </Trackpoint>
          <Trackpoint>
            <Time>2021-04-01T14:34:24.000Z</Time>
            <Position>
              <LatitudeDegrees>42.3991026543080806732177734375</LatitudeDegrees>
              <LongitudeDegrees>2.673360407352447509765625</LongitudeDegrees>
            </Position>
            <AltitudeMeters>976.4000244140625</AltitudeMeters>
            <DistanceMeters>NAN</DistanceMeters>
          </Trackpoint>
          <Trackpoint>
            <Time>2021-04-01T14:34:28.000Z</Time>
            <Position>
              <LatitudeDegrees>42.3990681208670139312744140625</LatitudeDegrees>
              <LongitudeDegrees>2.67336719669401645660400390625</LongitudeDegrees>
            </Position>
            <AltitudeMeters>976</AltitudeMeters>
            <DistanceMeters>NAN</DistanceMeters>
          </Trackpoint>
          <Trackpoint>
            <Time>2021-04-01T14:34:30.000Z</Time>
            <Position>
              <LatitudeDegrees>42.39903710782527923583984375</LatitudeDegrees>
              <LongitudeDegrees>2.67336434684693813323974609375</LongitudeDegrees>
            </Position>
            <AltitudeMeters>975.79998779296875</AltitudeMeters>
            <DistanceMeters>NAN</DistanceMeters>
          </Trackpoint>
          <Trackpoint>
            <Time>2021-04-01T14:34:36.000Z</Time>
            <Position>
              <LatitudeDegrees>42.39896879531443119049072265625</LatitudeDegrees>
              <LongitudeDegrees>2.67333869822323322296142578125</LongitudeDegrees>
            </Position>
            <AltitudeMeters>975</AltitudeMeters>
            <DistanceMeters>NAN</DistanceMeters>
          </Trackpoint>
          <Trackpoint>
            <Time>2021-04-01T14:34:37.000Z</Time>
            <Position>
              <LatitudeDegrees>42.3989494331181049346923828125</LatitudeDegrees>
              <LongitudeDegrees>2.67333333380520343780517578125</LongitudeDegrees>
            </Position>
            <AltitudeMeters>974.5999755859375</AltitudeMeters>
            <DistanceMeters>NAN</DistanceMeters>
          </Trackpoint>
          <Trackpoint>
            <Time>2021-04-01T14:34:38.000Z</Time>
            <Position>
              <LatitudeDegrees>42.39893476478755474090576171875</LatitudeDegrees>
              <LongitudeDegrees>2.67332914285361766815185546875</LongitudeDegrees>
            </Position>
            <AltitudeMeters>974.4000244140625</AltitudeMeters>
            <DistanceMeters>NAN</DistanceMeters>
          </Trackpoint>
          <Trackpoint>
            <Time>2021-04-01T14:34:39.000Z</Time>
            <Position>
              <LatitudeDegrees>42.39893476478755474090576171875</LatitudeDegrees>
              <LongitudeDegrees>2.67332914285361766815185546875</LongitudeDegrees>
            </Position>
            <AltitudeMeters>974.4000244140625</AltitudeMeters>
            <DistanceMeters>NAN</DistanceMeters>
          </Trackpoint>
          <Trackpoint>
            <Time>2021-04-01T14:34:43.000Z</Time>
            <Position>
              <LatitudeDegrees>42.39888195879757404327392578125</LatitudeDegrees>
              <LongitudeDegrees>2.67332461662590503692626953125</LongitudeDegrees>
            </Position>
            <AltitudeMeters>973.79998779296875</AltitudeMeters>
            <DistanceMeters>NAN</DistanceMeters>
          </Trackpoint>
          <Trackpoint>
            <Time>2021-04-01T14:34:44.000Z</Time>
            <Position>
              <LatitudeDegrees>42.398874498903751373291015625</LatitudeDegrees>
              <LongitudeDegrees>2.6733196713030338287353515625</LongitudeDegrees>
            </Position>
            <AltitudeMeters>973.5999755859375</AltitudeMeters>
            <DistanceMeters>NAN</DistanceMeters>
          </Trackpoint>
          <Trackpoint>
            <Time>2021-04-01T14:34:45.000Z</Time>
            <Position>
              <LatitudeDegrees>42.3988693021237850189208984375</LatitudeDegrees>
              <LongitudeDegrees>2.673314474523067474365234375</LongitudeDegrees>
            </Position>
            <AltitudeMeters>973.5999755859375</AltitudeMeters>
            <DistanceMeters>NAN</DistanceMeters>
          </Trackpoint>
          <Trackpoint>
            <Time>2021-04-01T14:34:49.000Z</Time>
            <Position>
              <LatitudeDegrees>42.3988401331007480621337890625</LatitudeDegrees>
              <LongitudeDegrees>2.67328999936580657958984375</LongitudeDegrees>
            </Position>
            <AltitudeMeters>973.4000244140625</AltitudeMeters>
            <DistanceMeters>NAN</DistanceMeters>
          </Trackpoint>
          <Trackpoint>
            <Time>2021-04-01T14:34:50.000Z</Time>
            <Position>
              <LatitudeDegrees>42.39883468486368656158447265625</LatitudeDegrees>
              <LongitudeDegrees>2.673282958567142486572265625</LongitudeDegrees>
            </Position>
            <AltitudeMeters>973.20001220703125</AltitudeMeters>
            <DistanceMeters>NAN</DistanceMeters>
          </Trackpoint>
          <Trackpoint>
            <Time>2021-04-01T14:34:53.000Z</Time>
            <Position>
              <LatitudeDegrees>42.39881440065801143646240234375</LatitudeDegrees>
              <LongitudeDegrees>2.67326158471405506134033203125</LongitudeDegrees>
            </Position>
            <AltitudeMeters>972.79998779296875</AltitudeMeters>
            <DistanceMeters>NAN</DistanceMeters>
          </Trackpoint>
          <Trackpoint>
            <Time>2021-04-01T14:34:55.000Z</Time>
            <Position>
              <LatitudeDegrees>42.3988005705177783966064453125</LatitudeDegrees>
              <LongitudeDegrees>2.67325571738183498382568359375</LongitudeDegrees>
            </Position>
            <AltitudeMeters>972.4000244140625</AltitudeMeters>
            <DistanceMeters>NAN</DistanceMeters>
          </Trackpoint>
          <Trackpoint>
            <Time>2021-04-01T14:34:58.000Z</Time>
            <Position>
              <LatitudeDegrees>42.3987720720469951629638671875</LatitudeDegrees>
              <LongitudeDegrees>2.67324415035545825958251953125</LongitudeDegrees>
            </Position>
            <AltitudeMeters>972.20001220703125</AltitudeMeters>
            <DistanceMeters>NAN</DistanceMeters>
          </Trackpoint>
          <Trackpoint>
            <Time>2021-04-01T14:34:59.000Z</Time>
            <Position>
              <LatitudeDegrees>42.3987606726586818695068359375</LatitudeDegrees>
              <LongitudeDegrees>2.6732371933758258819580078125</LongitudeDegrees>
            </Position>
            <AltitudeMeters>971.79998779296875</AltitudeMeters>
            <DistanceMeters>NAN</DistanceMeters>
          </Trackpoint>
          <Trackpoint>
            <Time>2021-04-01T14:35:01.000Z</Time>
            <Position>
              <LatitudeDegrees>42.39874449558556079864501953125</LatitudeDegrees>
              <LongitudeDegrees>2.6732261292636394500732421875</LongitudeDegrees>
            </Position>
            <AltitudeMeters>971.4000244140625</AltitudeMeters>
            <DistanceMeters>NAN</DistanceMeters>
          </Trackpoint>
          <Trackpoint>
            <Time>2021-04-01T14:35:05.000Z</Time>
            <Position>
              <LatitudeDegrees>42.39870049059391021728515625</LatitudeDegrees>
              <LongitudeDegrees>2.673205845057964324951171875</LongitudeDegrees>
            </Position>
            <AltitudeMeters>970.20001220703125</AltitudeMeters>
            <DistanceMeters>NAN</DistanceMeters>
          </Trackpoint>
          <Trackpoint>
            <Time>2021-04-01T14:35:08.000Z</Time>
            <Position>
              <LatitudeDegrees>42.39866738207638263702392578125</LatitudeDegrees>
              <LongitudeDegrees>2.6732093654572963714599609375</LongitudeDegrees>
            </Position>
            <AltitudeMeters>970</AltitudeMeters>
            <DistanceMeters>NAN</DistanceMeters>
          </Trackpoint>
          <Trackpoint>
            <Time>2021-04-01T14:35:12.000Z</Time>
            <Position>
              <LatitudeDegrees>42.39862161688506603240966796875</LatitudeDegrees>
              <LongitudeDegrees>2.67319620586931705474853515625</LongitudeDegrees>
            </Position>
            <AltitudeMeters>969.20001220703125</AltitudeMeters>
            <DistanceMeters>NAN</DistanceMeters>
          </Trackpoint>
          <Trackpoint>
            <Time>2021-04-01T14:35:16.000Z</Time>
            <Position>
              <LatitudeDegrees>42.39858917891979217529296875</LatitudeDegrees>
              <LongitudeDegrees>2.67318011261522769927978515625</LongitudeDegrees>
            </Position>
            <AltitudeMeters>968.20001220703125</AltitudeMeters>
            <DistanceMeters>NAN</DistanceMeters>
          </Trackpoint>
          <Trackpoint>
            <Time>2021-04-01T14:35:17.000Z</Time>
            <Position>
              <LatitudeDegrees>42.39858138374984264373779296875</LatitudeDegrees>
              <LongitudeDegrees>2.673178017139434814453125</LongitudeDegrees>
            </Position>
            <AltitudeMeters>968.20001220703125</AltitudeMeters>
            <DistanceMeters>NAN</DistanceMeters>
          </Trackpoint>
          <Trackpoint>
            <Time>2021-04-01T14:35:23.000Z</Time>
            <Position>
              <LatitudeDegrees>42.3985142447054386138916015625</LatitudeDegrees>
              <LongitudeDegrees>2.67315362580120563507080078125</LongitudeDegrees>
            </Position>
            <AltitudeMeters>967.20001220703125</AltitudeMeters>
            <DistanceMeters>NAN</DistanceMeters>
          </Trackpoint>
          <Trackpoint>
            <Time>2021-04-01T14:35:24.000Z</Time>
            <Position>
              <LatitudeDegrees>42.398505695164203643798828125</LatitudeDegrees>
              <LongitudeDegrees>2.67314918339252471923828125</LongitudeDegrees>
            </Position>
            <AltitudeMeters>967</AltitudeMeters>
            <DistanceMeters>NAN</DistanceMeters>
          </Trackpoint>
          <Trackpoint>
            <Time>2021-04-01T14:35:27.000Z</Time>
            <Position>
              <LatitudeDegrees>42.3984746821224689483642578125</LatitudeDegrees>
              <LongitudeDegrees>2.67314289696514606475830078125</LongitudeDegrees>
            </Position>
            <AltitudeMeters>966.4000244140625</AltitudeMeters>
            <DistanceMeters>NAN</DistanceMeters>
          </Trackpoint>
          <Trackpoint>
            <Time>2021-04-01T14:35:36.000Z</Time>
            <Position>
              <LatitudeDegrees>42.3983801342546939849853515625</LatitudeDegrees>
              <LongitudeDegrees>2.67309981398284435272216796875</LongitudeDegrees>
            </Position>
            <AltitudeMeters>966</AltitudeMeters>
            <DistanceMeters>NAN</DistanceMeters>
          </Trackpoint>
          <Trackpoint>
            <Time>2021-04-01T14:35:37.000Z</Time>
            <Position>
              <LatitudeDegrees>42.39837032742798328399658203125</LatitudeDegrees>
              <LongitudeDegrees>2.67309763468801975250244140625</LongitudeDegrees>
            </Position>
            <AltitudeMeters>966</AltitudeMeters>
            <DistanceMeters>NAN</DistanceMeters>
          </Trackpoint>
          <Trackpoint>
            <Time>2021-04-01T14:35:43.000Z</Time>
            <Position>
              <LatitudeDegrees>42.3982996679842472076416015625</LatitudeDegrees>
              <LongitudeDegrees>2.67308489419519901275634765625</LongitudeDegrees>
            </Position>
            <AltitudeMeters>965.4000244140625</AltitudeMeters>
            <DistanceMeters>NAN</DistanceMeters>
          </Trackpoint>
          <Trackpoint>
            <Time>2021-04-01T14:35:49.000Z</Time>
            <Position>
              <LatitudeDegrees>42.39823102019727230072021484375</LatitudeDegrees>
              <LongitudeDegrees>2.67308020032942295074462890625</LongitudeDegrees>
            </Position>
            <AltitudeMeters>965.20001220703125</AltitudeMeters>
            <DistanceMeters>NAN</DistanceMeters>
          </Trackpoint>
          <Trackpoint>
            <Time>2021-04-01T14:35:51.000Z</Time>
            <Position>
              <LatitudeDegrees>42.398210652172565460205078125</LatitudeDegrees>
              <LongitudeDegrees>2.6730745844542980194091796875</LongitudeDegrees>
            </Position>
            <AltitudeMeters>965</AltitudeMeters>
            <DistanceMeters>NAN</DistanceMeters>
          </Trackpoint>
          <Trackpoint>
            <Time>2021-04-01T14:35:52.000Z</Time>
            <Position>
              <LatitudeDegrees>42.398210652172565460205078125</LatitudeDegrees>
              <LongitudeDegrees>2.6730745844542980194091796875</LongitudeDegrees>
            </Position>
            <AltitudeMeters>965</AltitudeMeters>
            <DistanceMeters>NAN</DistanceMeters>
          </Trackpoint>
          <Trackpoint>
            <Time>2021-04-01T14:35:55.000Z</Time>
            <Position>
              <LatitudeDegrees>42.39817352034151554107666015625</LatitudeDegrees>
              <LongitudeDegrees>2.67307919450104236602783203125</LongitudeDegrees>
            </Position>
            <AltitudeMeters>965</AltitudeMeters>
            <DistanceMeters>NAN</DistanceMeters>
          </Trackpoint>
          <Trackpoint>
            <Time>2021-04-01T14:36:02.000Z</Time>
            <Position>
              <LatitudeDegrees>42.39810495637357234954833984375</LatitudeDegrees>
              <LongitudeDegrees>2.673101909458637237548828125</LongitudeDegrees>
            </Position>
            <AltitudeMeters>965.20001220703125</AltitudeMeters>
            <DistanceMeters>NAN</DistanceMeters>
          </Trackpoint>
          <Trackpoint>
            <Time>2021-04-01T14:36:11.000Z</Time>
            <Position>
              <LatitudeDegrees>42.39803287200629711151123046875</LatitudeDegrees>
              <LongitudeDegrees>2.67316200770437717437744140625</LongitudeDegrees>
            </Position>
            <AltitudeMeters>966</AltitudeMeters>
            <DistanceMeters>NAN</DistanceMeters>
          </Trackpoint>
          <Trackpoint>
            <Time>2021-04-01T14:36:13.000Z</Time>
            <Position>
              <LatitudeDegrees>42.39801711402833461761474609375</LatitudeDegrees>
              <LongitudeDegrees>2.673168294131755828857421875</LongitudeDegrees>
            </Position>
            <AltitudeMeters>966</AltitudeMeters>
            <DistanceMeters>NAN</DistanceMeters>
          </Trackpoint>
          <Trackpoint>
            <Time>2021-04-01T14:36:15.000Z</Time>
            <Position>
              <LatitudeDegrees>42.3980026133358478546142578125</LatitudeDegrees>
              <LongitudeDegrees>2.67317868769168853759765625</LongitudeDegrees>
            </Position>
            <AltitudeMeters>966.20001220703125</AltitudeMeters>
            <DistanceMeters>NAN</DistanceMeters>
          </Trackpoint>
          <Trackpoint>
            <Time>2021-04-01T14:36:22.000Z</Time>
            <Position>
              <LatitudeDegrees>42.3979493044316768646240234375</LatitudeDegrees>
              <LongitudeDegrees>2.6732338406145572662353515625</LongitudeDegrees>
            </Position>
            <AltitudeMeters>967</AltitudeMeters>
            <DistanceMeters>NAN</DistanceMeters>
          </Trackpoint>
          <Trackpoint>
            <Time>2021-04-01T14:36:25.000Z</Time>
            <Position>
              <LatitudeDegrees>42.397926338016986846923828125</LatitudeDegrees>
              <LongitudeDegrees>2.67325907014310359954833984375</LongitudeDegrees>
            </Position>
            <AltitudeMeters>967.20001220703125</AltitudeMeters>
            <DistanceMeters>NAN</DistanceMeters>
          </Trackpoint>
          <Trackpoint>
            <Time>2021-04-01T14:36:30.000Z</Time>
            <Position>
              <LatitudeDegrees>42.39788635633885860443115234375</LatitudeDegrees>
              <LongitudeDegrees>2.67329611815512180328369140625</LongitudeDegrees>
            </Position>
            <AltitudeMeters>967.4000244140625</AltitudeMeters>
            <DistanceMeters>NAN</DistanceMeters>
          </Trackpoint>
          <Trackpoint>
            <Time>2021-04-01T14:36:31.000Z</Time>
            <Position>
              <LatitudeDegrees>42.39787562750279903411865234375</LatitudeDegrees>
              <LongitudeDegrees>2.67329804599285125732421875</LongitudeDegrees>
            </Position>
            <AltitudeMeters>967.4000244140625</AltitudeMeters>
            <DistanceMeters>NAN</DistanceMeters>
          </Trackpoint>
          <Trackpoint>
            <Time>2021-04-01T14:36:43.000Z</Time>
            <Position>
              <LatitudeDegrees>42.39776900969445705413818359375</LatitudeDegrees>
              <LongitudeDegrees>2.67333936877548694610595703125</LongitudeDegrees>
            </Position>
            <AltitudeMeters>968</AltitudeMeters>
            <DistanceMeters>NAN</DistanceMeters>
          </Trackpoint>
          <Trackpoint>
            <Time>2021-04-01T14:36:44.000Z</Time>
            <Position>
              <LatitudeDegrees>42.39775811322033405303955078125</LatitudeDegrees>
              <LongitudeDegrees>2.6733411289751529693603515625</LongitudeDegrees>
            </Position>
            <AltitudeMeters>968</AltitudeMeters>
            <DistanceMeters>NAN</DistanceMeters>
          </Trackpoint>
          <Trackpoint>
            <Time>2021-04-01T14:36:45.000Z</Time>
            <Position>
              <LatitudeDegrees>42.39775073714554309844970703125</LatitudeDegrees>
              <LongitudeDegrees>2.6733441464602947235107421875</LongitudeDegrees>
            </Position>
            <AltitudeMeters>968.20001220703125</AltitudeMeters>
            <DistanceMeters>NAN</DistanceMeters>
          </Trackpoint>
          <Trackpoint>
            <Time>2021-04-01T14:36:54.000Z</Time>
            <Position>
              <LatitudeDegrees>42.3976757191121578216552734375</LatitudeDegrees>
              <LongitudeDegrees>2.67338748089969158172607421875</LongitudeDegrees>
            </Position>
            <AltitudeMeters>969</AltitudeMeters>
            <DistanceMeters>NAN</DistanceMeters>
          </Trackpoint>
          <Trackpoint>
            <Time>2021-04-01T14:36:55.000Z</Time>
            <Position>
              <LatitudeDegrees>42.3976693488657474517822265625</LatitudeDegrees>
              <LongitudeDegrees>2.67339083366096019744873046875</LongitudeDegrees>
            </Position>
            <AltitudeMeters>969</AltitudeMeters>
            <DistanceMeters>NAN</DistanceMeters>
          </Trackpoint>
          <Trackpoint>
            <Time>2021-04-01T14:36:56.000Z</Time>
            <Position>
              <LatitudeDegrees>42.39766038022935390472412109375</LatitudeDegrees>
              <LongitudeDegrees>2.6733947731554508209228515625</LongitudeDegrees>
            </Position>
            <AltitudeMeters>969</AltitudeMeters>
            <DistanceMeters>NAN</DistanceMeters>
          </Trackpoint>
          <Trackpoint>
            <Time>2021-04-01T14:36:59.000Z</Time>
            <Position>
              <LatitudeDegrees>42.39763406105339527130126953125</LatitudeDegrees>
              <LongitudeDegrees>2.67340122722089290618896484375</LongitudeDegrees>
            </Position>
            <AltitudeMeters>969.20001220703125</AltitudeMeters>
            <DistanceMeters>NAN</DistanceMeters>
          </Trackpoint>
          <Trackpoint>
            <Time>2021-04-01T14:37:01.000Z</Time>
            <Position>
              <LatitudeDegrees>42.39761847071349620819091796875</LatitudeDegrees>
              <LongitudeDegrees>2.67340759746730327606201171875</LongitudeDegrees>
            </Position>
            <AltitudeMeters>969.4000244140625</AltitudeMeters>
            <DistanceMeters>NAN</DistanceMeters>
          </Trackpoint>
          <Trackpoint>
            <Time>2021-04-01T14:37:06.000Z</Time>
            <Position>
              <LatitudeDegrees>42.397575639188289642333984375</LatitudeDegrees>
              <LongitudeDegrees>2.6734205894172191619873046875</LongitudeDegrees>
            </Position>
            <AltitudeMeters>969.79998779296875</AltitudeMeters>
            <DistanceMeters>NAN</DistanceMeters>
          </Trackpoint>
          <Trackpoint>
            <Time>2021-04-01T14:37:12.000Z</Time>
            <Position>
              <LatitudeDegrees>42.39752358756959438323974609375</LatitudeDegrees>
              <LongitudeDegrees>2.67342838458716869354248046875</LongitudeDegrees>
            </Position>
            <AltitudeMeters>970.20001220703125</AltitudeMeters>
            <DistanceMeters>NAN</DistanceMeters>
          </Trackpoint>
          <Trackpoint>
            <Time>2021-04-01T14:37:16.000Z</Time>
            <Position>
              <LatitudeDegrees>42.39748989231884479522705078125</LatitudeDegrees>
              <LongitudeDegrees>2.67343391664326190948486328125</LongitudeDegrees>
            </Position>
            <AltitudeMeters>970.4000244140625</AltitudeMeters>
            <DistanceMeters>NAN</DistanceMeters>
          </Trackpoint>
          <Trackpoint>
            <Time>2021-04-01T14:37:19.000Z</Time>
            <Position>
              <LatitudeDegrees>42.39745787344872951507568359375</LatitudeDegrees>
              <LongitudeDegrees>2.67343106679618358612060546875</LongitudeDegrees>
            </Position>
            <AltitudeMeters>970.5999755859375</AltitudeMeters>
            <DistanceMeters>NAN</DistanceMeters>
          </Trackpoint>
          <Trackpoint>
            <Time>2021-04-01T14:37:23.000Z</Time>
            <Position>
              <LatitudeDegrees>42.39742250181734561920166015625</LatitudeDegrees>
              <LongitudeDegrees>2.67342737875878810882568359375</LongitudeDegrees>
            </Position>
            <AltitudeMeters>971</AltitudeMeters>
            <DistanceMeters>NAN</DistanceMeters>
          </Trackpoint>
          <Trackpoint>
            <Time>2021-04-01T14:37:24.000Z</Time>
            <Position>
              <LatitudeDegrees>42.39742250181734561920166015625</LatitudeDegrees>
              <LongitudeDegrees>2.67342737875878810882568359375</LongitudeDegrees>
            </Position>
            <AltitudeMeters>971</AltitudeMeters>
            <DistanceMeters>NAN</DistanceMeters>
          </Trackpoint>
          <Trackpoint>
            <Time>2021-04-01T14:37:26.000Z</Time>
            <Position>
              <LatitudeDegrees>42.3973949253559112548828125</LatitudeDegrees>
              <LongitudeDegrees>2.67342620529234409332275390625</LongitudeDegrees>
            </Position>
            <AltitudeMeters>971</AltitudeMeters>
            <DistanceMeters>NAN</DistanceMeters>
          </Trackpoint>
          <Trackpoint>
            <Time>2021-04-01T14:37:28.000Z</Time>
            <Position>
              <LatitudeDegrees>42.397377155721187591552734375</LatitudeDegrees>
              <LongitudeDegrees>2.6734229363501071929931640625</LongitudeDegrees>
            </Position>
            <AltitudeMeters>971.20001220703125</AltitudeMeters>
            <DistanceMeters>NAN</DistanceMeters>
          </Trackpoint>
          <Trackpoint>
            <Time>2021-04-01T14:37:29.000Z</Time>
            <Position>
              <LatitudeDegrees>42.39736516959965229034423828125</LatitudeDegrees>
              <LongitudeDegrees>2.67342318780720233917236328125</LongitudeDegrees>
            </Position>
            <AltitudeMeters>971.20001220703125</AltitudeMeters>
            <DistanceMeters>NAN</DistanceMeters>
          </Trackpoint>
          <Trackpoint>
            <Time>2021-04-01T14:37:32.000Z</Time>
            <Position>
              <LatitudeDegrees>42.3973300494253635406494140625</LatitudeDegrees>
              <LongitudeDegrees>2.673408687114715576171875</LongitudeDegrees>
            </Position>
            <AltitudeMeters>971.4000244140625</AltitudeMeters>
            <DistanceMeters>NAN</DistanceMeters>
          </Trackpoint>
          <Trackpoint>
            <Time>2021-04-01T14:37:37.000Z</Time>
            <Position>
              <LatitudeDegrees>42.397280596196651458740234375</LatitudeDegrees>
              <LongitudeDegrees>2.67339334823191165924072265625</LongitudeDegrees>
            </Position>
            <AltitudeMeters>971.4000244140625</AltitudeMeters>
            <DistanceMeters>NAN</DistanceMeters>
          </Trackpoint>
          <Trackpoint>
            <Time>2021-04-01T14:37:41.000Z</Time>
            <Position>
              <LatitudeDegrees>42.39724480547010898590087890625</LatitudeDegrees>
              <LongitudeDegrees>2.67338848672807216644287109375</LongitudeDegrees>
            </Position>
            <AltitudeMeters>971.5999755859375</AltitudeMeters>
            <DistanceMeters>NAN</DistanceMeters>
          </Trackpoint>
          <Trackpoint>
            <Time>2021-04-01T14:37:51.000Z</Time>
            <Position>
              <LatitudeDegrees>42.3971510119736194610595703125</LatitudeDegrees>
              <LongitudeDegrees>2.673349343240261077880859375</LongitudeDegrees>
            </Position>
            <AltitudeMeters>971.5999755859375</AltitudeMeters>
            <DistanceMeters>NAN</DistanceMeters>
          </Trackpoint>
          <Trackpoint>
            <Time>2021-04-01T14:37:52.000Z</Time>
            <Position>
              <LatitudeDegrees>42.39713902585208415985107421875</LatitudeDegrees>
              <LongitudeDegrees>2.6733421348035335540771484375</LongitudeDegrees>
            </Position>
            <AltitudeMeters>971.5999755859375</AltitudeMeters>
            <DistanceMeters>NAN</DistanceMeters>
          </Trackpoint>
          <Trackpoint>
            <Time>2021-04-01T14:37:55.000Z</Time>
            <Position>
              <LatitudeDegrees>42.39710935391485691070556640625</LatitudeDegrees>
              <LongitudeDegrees>2.67333827912807464599609375</LongitudeDegrees>
            </Position>
            <AltitudeMeters>971.5999755859375</AltitudeMeters>
            <DistanceMeters>NAN</DistanceMeters>
          </Trackpoint>
          <Trackpoint>
            <Time>2021-04-01T14:37:59.000Z</Time>
            <Position>
              <LatitudeDegrees>42.39706660620868206024169921875</LatitudeDegrees>
              <LongitudeDegrees>2.67332880757749080657958984375</LongitudeDegrees>
            </Position>
            <AltitudeMeters>971.79998779296875</AltitudeMeters>
            <DistanceMeters>NAN</DistanceMeters>
          </Trackpoint>
          <Trackpoint>
            <Time>2021-04-01T14:38:02.000Z</Time>
            <Position>
              <LatitudeDegrees>42.39703324623405933380126953125</LatitudeDegrees>
              <LongitudeDegrees>2.6733076013624668121337890625</LongitudeDegrees>
            </Position>
            <AltitudeMeters>971.79998779296875</AltitudeMeters>
            <DistanceMeters>NAN</DistanceMeters>
          </Trackpoint>
          <Trackpoint>
            <Time>2021-04-01T14:38:03.000Z</Time>
            <Position>
              <LatitudeDegrees>42.3970199190080165863037109375</LatitudeDegrees>
              <LongitudeDegrees>2.67330299131572246551513671875</LongitudeDegrees>
            </Position>
            <AltitudeMeters>971.79998779296875</AltitudeMeters>
            <DistanceMeters>NAN</DistanceMeters>
          </Trackpoint>
          <Trackpoint>
            <Time>2021-04-01T14:38:06.000Z</Time>
            <Position>
              <LatitudeDegrees>42.39699653349816799163818359375</LatitudeDegrees>
              <LongitudeDegrees>2.67330030910670757293701171875</LongitudeDegrees>
            </Position>
            <AltitudeMeters>971.79998779296875</AltitudeMeters>
            <DistanceMeters>NAN</DistanceMeters>
          </Trackpoint>
          <Trackpoint>
            <Time>2021-04-01T14:38:10.000Z</Time>
            <Position>
              <LatitudeDegrees>42.396954707801342010498046875</LatitudeDegrees>
              <LongitudeDegrees>2.6732973754405975341796875</LongitudeDegrees>
            </Position>
            <AltitudeMeters>971.79998779296875</AltitudeMeters>
            <DistanceMeters>NAN</DistanceMeters>
          </Trackpoint>
          <Trackpoint>
            <Time>2021-04-01T14:38:12.000Z</Time>
            <Position>
              <LatitudeDegrees>42.396941296756267547607421875</LatitudeDegrees>
              <LongitudeDegrees>2.6732975430786609649658203125</LongitudeDegrees>
            </Position>
            <AltitudeMeters>972</AltitudeMeters>
            <DistanceMeters>NAN</DistanceMeters>
          </Trackpoint>
          <Trackpoint>
            <Time>2021-04-01T14:38:14.000Z</Time>
            <Position>
              <LatitudeDegrees>42.3969260416924953460693359375</LatitudeDegrees>
              <LongitudeDegrees>2.67329259775578975677490234375</LongitudeDegrees>
            </Position>
            <AltitudeMeters>972</AltitudeMeters>
            <DistanceMeters>NAN</DistanceMeters>
          </Trackpoint>
          <Trackpoint>
            <Time>2021-04-01T14:38:19.000Z</Time>
            <Position>
              <LatitudeDegrees>42.3968718945980072021484375</LatitudeDegrees>
              <LongitudeDegrees>2.67328354530036449432373046875</LongitudeDegrees>
            </Position>
            <AltitudeMeters>972</AltitudeMeters>
            <DistanceMeters>NAN</DistanceMeters>
          </Trackpoint>
          <Trackpoint>
            <Time>2021-04-01T14:38:28.000Z</Time>
            <Position>
              <LatitudeDegrees>42.3967885784804821014404296875</LatitudeDegrees>
              <LongitudeDegrees>2.67326795496046543121337890625</LongitudeDegrees>
            </Position>
            <AltitudeMeters>972</AltitudeMeters>
            <DistanceMeters>NAN</DistanceMeters>
          </Trackpoint>
          <Trackpoint>
            <Time>2021-04-01T14:38:29.000Z</Time>
            <Position>
              <LatitudeDegrees>42.396776676177978515625</LatitudeDegrees>
              <LongitudeDegrees>2.67326879315078258514404296875</LongitudeDegrees>
            </Position>
            <AltitudeMeters>972</AltitudeMeters>
            <DistanceMeters>NAN</DistanceMeters>
          </Trackpoint>
          <Trackpoint>
            <Time>2021-04-01T14:38:35.000Z</Time>
            <Position>
              <LatitudeDegrees>42.39671741612255573272705078125</LatitudeDegrees>
              <LongitudeDegrees>2.6732495985925197601318359375</LongitudeDegrees>
            </Position>
            <AltitudeMeters>971.79998779296875</AltitudeMeters>
            <DistanceMeters>NAN</DistanceMeters>
          </Trackpoint>
          <Trackpoint>
            <Time>2021-04-01T14:38:40.000Z</Time>
            <Position>
              <LatitudeDegrees>42.3966708965599536895751953125</LatitudeDegrees>
              <LongitudeDegrees>2.67322638072073459625244140625</LongitudeDegrees>
            </Position>
            <AltitudeMeters>971.4000244140625</AltitudeMeters>
            <DistanceMeters>NAN</DistanceMeters>
          </Trackpoint>
          <Trackpoint>
            <Time>2021-04-01T14:38:42.000Z</Time>
            <Position>
              <LatitudeDegrees>42.39664725959300994873046875</LatitudeDegrees>
              <LongitudeDegrees>2.67322252504527568817138671875</LongitudeDegrees>
            </Position>
            <AltitudeMeters>971.5999755859375</AltitudeMeters>
            <DistanceMeters>NAN</DistanceMeters>
          </Trackpoint>
          <Trackpoint>
            <Time>2021-04-01T14:38:44.000Z</Time>
            <Position>
              <LatitudeDegrees>42.3966266401112079620361328125</LatitudeDegrees>
              <LongitudeDegrees>2.6732100360095500946044921875</LongitudeDegrees>
            </Position>
            <AltitudeMeters>971.5999755859375</AltitudeMeters>
            <DistanceMeters>NAN</DistanceMeters>
          </Trackpoint>
          <Trackpoint>
            <Time>2021-04-01T14:38:48.000Z</Time>
            <Position>
              <LatitudeDegrees>42.39658598788082599639892578125</LatitudeDegrees>
              <LongitudeDegrees>2.67316653393208980560302734375</LongitudeDegrees>
            </Position>
            <AltitudeMeters>971.5999755859375</AltitudeMeters>
            <DistanceMeters>NAN</DistanceMeters>
          </Trackpoint>
          <Trackpoint>
            <Time>2021-04-01T14:38:52.000Z</Time>
            <Position>
              <LatitudeDegrees>42.39655866287648677825927734375</LatitudeDegrees>
              <LongitudeDegrees>2.67311641015112400054931640625</LongitudeDegrees>
            </Position>
            <AltitudeMeters>971.79998779296875</AltitudeMeters>
            <DistanceMeters>NAN</DistanceMeters>
          </Trackpoint>
          <Trackpoint>
            <Time>2021-04-01T14:38:53.000Z</Time>
            <Position>
              <LatitudeDegrees>42.3965505324304103851318359375</LatitudeDegrees>
              <LongitudeDegrees>2.6731061004102230072021484375</LongitudeDegrees>
            </Position>
            <AltitudeMeters>971.79998779296875</AltitudeMeters>
            <DistanceMeters>NAN</DistanceMeters>
          </Trackpoint>
          <Trackpoint>
            <Time>2021-04-01T14:38:54.000Z</Time>
            <Position>
              <LatitudeDegrees>42.39654592238366603851318359375</LatitudeDegrees>
              <LongitudeDegrees>2.67309486865997314453125</LongitudeDegrees>
            </Position>
            <AltitudeMeters>971.79998779296875</AltitudeMeters>
            <DistanceMeters>NAN</DistanceMeters>
          </Trackpoint>
          <Trackpoint>
            <Time>2021-04-01T14:39:00.000Z</Time>
            <Position>
              <LatitudeDegrees>42.3965151607990264892578125</LatitudeDegrees>
              <LongitudeDegrees>2.67304114066064357757568359375</LongitudeDegrees>
            </Position>
            <AltitudeMeters>972.4000244140625</AltitudeMeters>
            <DistanceMeters>NAN</DistanceMeters>
          </Trackpoint>
          <Trackpoint>
            <Time>2021-04-01T14:39:04.000Z</Time>
            <Position>
              <LatitudeDegrees>42.39647735841572284698486328125</LatitudeDegrees>
              <LongitudeDegrees>2.67300627194344997406005859375</LongitudeDegrees>
            </Position>
            <AltitudeMeters>972.79998779296875</AltitudeMeters>
            <DistanceMeters>NAN</DistanceMeters>
          </Trackpoint>
          <Trackpoint>
            <Time>2021-04-01T14:39:09.000Z</Time>
            <Position>
              <LatitudeDegrees>42.396440394222736358642578125</LatitudeDegrees>
              <LongitudeDegrees>2.6729813776910305023193359375</LongitudeDegrees>
            </Position>
            <AltitudeMeters>973.20001220703125</AltitudeMeters>
            <DistanceMeters>NAN</DistanceMeters>
          </Trackpoint>
          <Trackpoint>
            <Time>2021-04-01T14:39:12.000Z</Time>
            <Position>
              <LatitudeDegrees>42.39640317857265472412109375</LatitudeDegrees>
              <LongitudeDegrees>2.6729642786085605621337890625</LongitudeDegrees>
            </Position>
            <AltitudeMeters>973.4000244140625</AltitudeMeters>
            <DistanceMeters>NAN</DistanceMeters>
          </Trackpoint>
          <Trackpoint>
            <Time>2021-04-01T14:39:16.000Z</Time>
            <Position>
              <LatitudeDegrees>42.3963684774935245513916015625</LatitudeDegrees>
              <LongitudeDegrees>2.672937624156475067138671875</LongitudeDegrees>
            </Position>
            <AltitudeMeters>973.4000244140625</AltitudeMeters>
            <DistanceMeters>NAN</DistanceMeters>
          </Trackpoint>
          <Trackpoint>
            <Time>2021-04-01T14:39:17.000Z</Time>
            <Position>
              <LatitudeDegrees>42.3963607661426067352294921875</LatitudeDegrees>
              <LongitudeDegrees>2.67293251119554042816162109375</LongitudeDegrees>
            </Position>
            <AltitudeMeters>973.4000244140625</AltitudeMeters>
            <DistanceMeters>NAN</DistanceMeters>
          </Trackpoint>
          <Trackpoint>
            <Time>2021-04-01T14:39:20.000Z</Time>
            <Position>
              <LatitudeDegrees>42.39632832817733287811279296875</LatitudeDegrees>
              <LongitudeDegrees>2.67292312346398830413818359375</LongitudeDegrees>
            </Position>
            <AltitudeMeters>973.5999755859375</AltitudeMeters>
            <DistanceMeters>NAN</DistanceMeters>
          </Trackpoint>
          <Trackpoint>
            <Time>2021-04-01T14:39:26.000Z</Time>
            <Position>
              <LatitudeDegrees>42.396275438368320465087890625</LatitudeDegrees>
              <LongitudeDegrees>2.6729129813611507415771484375</LongitudeDegrees>
            </Position>
            <AltitudeMeters>973.79998779296875</AltitudeMeters>
            <DistanceMeters>NAN</DistanceMeters>
          </Trackpoint>
          <Trackpoint>
            <Time>2021-04-01T14:39:27.000Z</Time>
            <Position>
              <LatitudeDegrees>42.396275438368320465087890625</LatitudeDegrees>
              <LongitudeDegrees>2.6729129813611507415771484375</LongitudeDegrees>
            </Position>
            <AltitudeMeters>973.79998779296875</AltitudeMeters>
            <DistanceMeters>NAN</DistanceMeters>
          </Trackpoint>
          <Trackpoint>
            <Time>2021-04-01T14:39:37.000Z</Time>
            <Position>
              <LatitudeDegrees>42.396174184978008270263671875</LatitudeDegrees>
              <LongitudeDegrees>2.672894708812236785888671875</LongitudeDegrees>
            </Position>
            <AltitudeMeters>974</AltitudeMeters>
            <DistanceMeters>NAN</DistanceMeters>
          </Trackpoint>
          <Trackpoint>
            <Time>2021-04-01T14:39:40.000Z</Time>
            <Position>
              <LatitudeDegrees>42.3961515538394451141357421875</LatitudeDegrees>
              <LongitudeDegrees>2.67290468327701091766357421875</LongitudeDegrees>
            </Position>
            <AltitudeMeters>974.4000244140625</AltitudeMeters>
            <DistanceMeters>NAN</DistanceMeters>
          </Trackpoint>
          <Trackpoint>
            <Time>2021-04-01T14:39:44.000Z</Time>
            <Position>
              <LatitudeDegrees>42.39611391909420490264892578125</LatitudeDegrees>
              <LongitudeDegrees>2.67290233634412288665771484375</LongitudeDegrees>
            </Position>
            <AltitudeMeters>974.79998779296875</AltitudeMeters>
            <DistanceMeters>NAN</DistanceMeters>
          </Trackpoint>
          <Trackpoint>
            <Time>2021-04-01T14:39:46.000Z</Time>
            <Position>
              <LatitudeDegrees>42.3960965685546398162841796875</LatitudeDegrees>
              <LongitudeDegrees>2.67289713956415653228759765625</LongitudeDegrees>
            </Position>
            <AltitudeMeters>974.79998779296875</AltitudeMeters>
            <DistanceMeters>NAN</DistanceMeters>
          </Trackpoint>
          <Trackpoint>
            <Time>2021-04-01T14:39:53.000Z</Time>
            <Position>
              <LatitudeDegrees>42.3960395716130733489990234375</LatitudeDegrees>
              <LongitudeDegrees>2.67289437353610992431640625</LongitudeDegrees>
            </Position>
            <AltitudeMeters>975.4000244140625</AltitudeMeters>
            <DistanceMeters>NAN</DistanceMeters>
          </Trackpoint>
          <Trackpoint>
            <Time>2021-04-01T14:39:54.000Z</Time>
            <Position>
              <LatitudeDegrees>42.3960321955382823944091796875</LatitudeDegrees>
              <LongitudeDegrees>2.672891356050968170166015625</LongitudeDegrees>
            </Position>
            <AltitudeMeters>975.4000244140625</AltitudeMeters>
            <DistanceMeters>NAN</DistanceMeters>
          </Trackpoint>
          <Trackpoint>
            <Time>2021-04-01T14:39:55.000Z</Time>
            <Position>
              <LatitudeDegrees>42.3960321955382823944091796875</LatitudeDegrees>
              <LongitudeDegrees>2.672891356050968170166015625</LongitudeDegrees>
            </Position>
            <AltitudeMeters>975.5999755859375</AltitudeMeters>
            <DistanceMeters>NAN</DistanceMeters>
          </Trackpoint>
          <Trackpoint>
            <Time>2021-04-01T14:39:59.000Z</Time>
            <Position>
              <LatitudeDegrees>42.3959912918508052825927734375</LatitudeDegrees>
              <LongitudeDegrees>2.67290116287767887115478515625</LongitudeDegrees>
            </Position>
            <AltitudeMeters>975.79998779296875</AltitudeMeters>
            <DistanceMeters>NAN</DistanceMeters>
          </Trackpoint>
          <Trackpoint>
            <Time>2021-04-01T14:40:00.000Z</Time>
            <Position>
              <LatitudeDegrees>42.3959840834140777587890625</LatitudeDegrees>
              <LongitudeDegrees>2.67290317453444004058837890625</LongitudeDegrees>
            </Position>
            <AltitudeMeters>976</AltitudeMeters>
            <DistanceMeters>NAN</DistanceMeters>
          </Trackpoint>
          <Trackpoint>
            <Time>2021-04-01T14:40:02.000Z</Time>
            <Position>
              <LatitudeDegrees>42.39596790634095668792724609375</LatitudeDegrees>
              <LongitudeDegrees>2.6728977262973785400390625</LongitudeDegrees>
            </Position>
            <AltitudeMeters>976.20001220703125</AltitudeMeters>
            <DistanceMeters>NAN</DistanceMeters>
          </Trackpoint>
          <Trackpoint>
            <Time>2021-04-01T14:40:03.000Z</Time>
            <Position>
              <LatitudeDegrees>42.39596086554229259490966796875</LatitudeDegrees>
              <LongitudeDegrees>2.67289294861257076263427734375</LongitudeDegrees>
            </Position>
            <AltitudeMeters>976.20001220703125</AltitudeMeters>
            <DistanceMeters>NAN</DistanceMeters>
          </Trackpoint>
          <Trackpoint>
            <Time>2021-04-01T14:40:05.000Z</Time>
            <Position>
              <LatitudeDegrees>42.3959426768124103546142578125</LatitudeDegrees>
              <LongitudeDegrees>2.67289646901190280914306640625</LongitudeDegrees>
            </Position>
            <AltitudeMeters>976.4000244140625</AltitudeMeters>
            <DistanceMeters>NAN</DistanceMeters>
          </Trackpoint>
          <Trackpoint>
            <Time>2021-04-01T14:40:06.000Z</Time>
            <Position>
              <LatitudeDegrees>42.3959349654614925384521484375</LatitudeDegrees>
              <LongitudeDegrees>2.67290082760155200958251953125</LongitudeDegrees>
            </Position>
            <AltitudeMeters>976.5999755859375</AltitudeMeters>
            <DistanceMeters>NAN</DistanceMeters>
          </Trackpoint>
          <Trackpoint>
            <Time>2021-04-01T14:40:13.000Z</Time>
            <Position>
              <LatitudeDegrees>42.3958769626915454864501953125</LatitudeDegrees>
              <LongitudeDegrees>2.67290376126766204833984375</LongitudeDegrees>
            </Position>
            <AltitudeMeters>977.4000244140625</AltitudeMeters>
            <DistanceMeters>NAN</DistanceMeters>
          </Trackpoint>
          <Trackpoint>
            <Time>2021-04-01T14:40:14.000Z</Time>
            <Position>
              <LatitudeDegrees>42.39586983807384967803955078125</LatitudeDegrees>
              <LongitudeDegrees>2.67289948649704456329345703125</LongitudeDegrees>
            </Position>
            <AltitudeMeters>977.5999755859375</AltitudeMeters>
            <DistanceMeters>NAN</DistanceMeters>
          </Trackpoint>
          <Trackpoint>
            <Time>2021-04-01T14:40:16.000Z</Time>
            <Position>
              <LatitudeDegrees>42.39584662020206451416015625</LatitudeDegrees>
              <LongitudeDegrees>2.67289898358285427093505859375</LongitudeDegrees>
            </Position>
            <AltitudeMeters>977.5999755859375</AltitudeMeters>
            <DistanceMeters>NAN</DistanceMeters>
          </Trackpoint>
          <Trackpoint>
            <Time>2021-04-01T14:40:20.000Z</Time>
            <Position>
              <LatitudeDegrees>42.395810745656490325927734375</LatitudeDegrees>
              <LongitudeDegrees>2.672889344394207000732421875</LongitudeDegrees>
            </Position>
            <AltitudeMeters>977.79998779296875</AltitudeMeters>
            <DistanceMeters>NAN</DistanceMeters>
          </Trackpoint>
          <Trackpoint>
            <Time>2021-04-01T14:40:23.000Z</Time>
            <Position>
              <LatitudeDegrees>42.39577830769121646881103515625</LatitudeDegrees>
              <LongitudeDegrees>2.67289596609771251678466796875</LongitudeDegrees>
            </Position>
            <AltitudeMeters>978</AltitudeMeters>
            <DistanceMeters>NAN</DistanceMeters>
          </Trackpoint>
          <Trackpoint>
            <Time>2021-04-01T14:40:29.000Z</Time>
            <Position>
              <LatitudeDegrees>42.39572801627218723297119140625</LatitudeDegrees>
              <LongitudeDegrees>2.67288859002292156219482421875</LongitudeDegrees>
            </Position>
            <AltitudeMeters>978.5999755859375</AltitudeMeters>
            <DistanceMeters>NAN</DistanceMeters>
          </Trackpoint>
          <Trackpoint>
            <Time>2021-04-01T14:40:32.000Z</Time>
            <Position>
              <LatitudeDegrees>42.3956992663443088531494140625</LatitudeDegrees>
              <LongitudeDegrees>2.67287828028202056884765625</LongitudeDegrees>
            </Position>
            <AltitudeMeters>978.79998779296875</AltitudeMeters>
            <DistanceMeters>NAN</DistanceMeters>
          </Trackpoint>
          <Trackpoint>
            <Time>2021-04-01T14:40:40.000Z</Time>
            <Position>
              <LatitudeDegrees>42.3956167884171009063720703125</LatitudeDegrees>
              <LongitudeDegrees>2.67286461777985095977783203125</LongitudeDegrees>
            </Position>
            <AltitudeMeters>979.4000244140625</AltitudeMeters>
            <DistanceMeters>NAN</DistanceMeters>
          </Trackpoint>
          <Trackpoint>
            <Time>2021-04-01T14:40:43.000Z</Time>
            <Position>
              <LatitudeDegrees>42.39558703266084194183349609375</LatitudeDegrees>
              <LongitudeDegrees>2.67285657115280628204345703125</LongitudeDegrees>
            </Position>
            <AltitudeMeters>979.5999755859375</AltitudeMeters>
            <DistanceMeters>NAN</DistanceMeters>
          </Trackpoint>
          <Trackpoint>
            <Time>2021-04-01T14:40:50.000Z</Time>
            <Position>
              <LatitudeDegrees>42.395529113709926605224609375</LatitudeDegrees>
              <LongitudeDegrees>2.67283813096582889556884765625</LongitudeDegrees>
            </Position>
            <AltitudeMeters>980</AltitudeMeters>
            <DistanceMeters>NAN</DistanceMeters>
          </Trackpoint>
          <Trackpoint>
            <Time>2021-04-01T14:40:58.000Z</Time>
            <Position>
              <LatitudeDegrees>42.395459711551666259765625</LatitudeDegrees>
              <LongitudeDegrees>2.6728392206132411956787109375</LongitudeDegrees>
            </Position>
            <AltitudeMeters>980.5999755859375</AltitudeMeters>
            <DistanceMeters>NAN</DistanceMeters>
          </Trackpoint>
          <Trackpoint>
            <Time>2021-04-01T14:41:00.000Z</Time>
            <Position>
              <LatitudeDegrees>42.3954360745847225189208984375</LatitudeDegrees>
              <LongitudeDegrees>2.6728387176990509033203125</LongitudeDegrees>
            </Position>
            <AltitudeMeters>980.79998779296875</AltitudeMeters>
            <DistanceMeters>NAN</DistanceMeters>
          </Trackpoint>
          <Trackpoint>
            <Time>2021-04-01T14:41:11.000Z</Time>
            <Position>
              <LatitudeDegrees>42.3953368328511714935302734375</LatitudeDegrees>
              <LongitudeDegrees>2.6728134043514728546142578125</LongitudeDegrees>
            </Position>
            <AltitudeMeters>981.5999755859375</AltitudeMeters>
            <DistanceMeters>NAN</DistanceMeters>
          </Trackpoint>
          <Trackpoint>
            <Time>2021-04-01T14:41:21.000Z</Time>
            <Position>
              <LatitudeDegrees>42.3952620662748813629150390625</LatitudeDegrees>
              <LongitudeDegrees>2.6727959699928760528564453125</LongitudeDegrees>
            </Position>
            <AltitudeMeters>982.5999755859375</AltitudeMeters>
            <DistanceMeters>NAN</DistanceMeters>
          </Trackpoint>
          <Trackpoint>
            <Time>2021-04-01T14:41:24.000Z</Time>
            <Position>
              <LatitudeDegrees>42.39523365162312984466552734375</LatitudeDegrees>
              <LongitudeDegrees>2.6727802120149135589599609375</LongitudeDegrees>
            </Position>
            <AltitudeMeters>982.5999755859375</AltitudeMeters>
            <DistanceMeters>NAN</DistanceMeters>
          </Trackpoint>
          <Trackpoint>
            <Time>2021-04-01T14:41:26.000Z</Time>
            <Position>
              <LatitudeDegrees>42.39522359333932399749755859375</LatitudeDegrees>
              <LongitudeDegrees>2.67277903854846954345703125</LongitudeDegrees>
            </Position>
            <AltitudeMeters>982.79998779296875</AltitudeMeters>
            <DistanceMeters>NAN</DistanceMeters>
          </Trackpoint>
          <Trackpoint>
            <Time>2021-04-01T14:41:29.000Z</Time>
            <Position>
              <LatitudeDegrees>42.39519576542079448699951171875</LatitudeDegrees>
              <LongitudeDegrees>2.67277107574045658111572265625</LongitudeDegrees>
            </Position>
            <AltitudeMeters>983</AltitudeMeters>
            <DistanceMeters>NAN</DistanceMeters>
          </Trackpoint>
          <Trackpoint>
            <Time>2021-04-01T14:41:30.000Z</Time>
            <Position>
              <LatitudeDegrees>42.395191155374050140380859375</LatitudeDegrees>
              <LongitudeDegrees>2.6727688126266002655029296875</LongitudeDegrees>
            </Position>
            <AltitudeMeters>983</AltitudeMeters>
            <DistanceMeters>NAN</DistanceMeters>
          </Trackpoint>
          <Trackpoint>
            <Time>2021-04-01T14:41:31.000Z</Time>
            <Position>
              <LatitudeDegrees>42.3951849527657032012939453125</LatitudeDegrees>
              <LongitudeDegrees>2.6727634482085704803466796875</LongitudeDegrees>
            </Position>
            <AltitudeMeters>983.20001220703125</AltitudeMeters>
            <DistanceMeters>NAN</DistanceMeters>
          </Trackpoint>
          <Trackpoint>
            <Time>2021-04-01T14:41:35.000Z</Time>
            <Position>
              <LatitudeDegrees>42.39514698274433612823486328125</LatitudeDegrees>
              <LongitudeDegrees>2.67275498248636722564697265625</LongitudeDegrees>
            </Position>
            <AltitudeMeters>983.5999755859375</AltitudeMeters>
            <DistanceMeters>NAN</DistanceMeters>
          </Trackpoint>
          <Trackpoint>
            <Time>2021-04-01T14:41:41.000Z</Time>
            <Position>
              <LatitudeDegrees>42.39509535022079944610595703125</LatitudeDegrees>
              <LongitudeDegrees>2.67275263555347919464111328125</LongitudeDegrees>
            </Position>
            <AltitudeMeters>984.20001220703125</AltitudeMeters>
            <DistanceMeters>NAN</DistanceMeters>
          </Trackpoint>
          <Trackpoint>
            <Time>2021-04-01T14:41:44.000Z</Time>
            <Position>
              <LatitudeDegrees>42.39507724530994892120361328125</LatitudeDegrees>
              <LongitudeDegrees>2.672749198973178863525390625</LongitudeDegrees>
            </Position>
            <AltitudeMeters>984.79998779296875</AltitudeMeters>
            <DistanceMeters>NAN</DistanceMeters>
          </Trackpoint>
          <Trackpoint>
            <Time>2021-04-01T14:41:50.000Z</Time>
            <Position>
              <LatitudeDegrees>42.39501857198774814605712890625</LatitudeDegrees>
              <LongitudeDegrees>2.67273905687034130096435546875</LongitudeDegrees>
            </Position>
            <AltitudeMeters>985.20001220703125</AltitudeMeters>
            <DistanceMeters>NAN</DistanceMeters>
          </Trackpoint>
          <Trackpoint>
            <Time>2021-04-01T14:41:52.000Z</Time>
            <Position>
              <LatitudeDegrees>42.39499996416270732879638671875</LatitudeDegrees>
              <LongitudeDegrees>2.6727393083274364471435546875</LongitudeDegrees>
            </Position>
            <AltitudeMeters>985.4000244140625</AltitudeMeters>
            <DistanceMeters>NAN</DistanceMeters>
          </Trackpoint>
          <Trackpoint>
            <Time>2021-04-01T14:41:55.000Z</Time>
            <Position>
              <LatitudeDegrees>42.39497959613800048828125</LatitudeDegrees>
              <LongitudeDegrees>2.67274341545999050140380859375</LongitudeDegrees>
            </Position>
            <AltitudeMeters>985.79998779296875</AltitudeMeters>
            <DistanceMeters>NAN</DistanceMeters>
          </Trackpoint>
          <Trackpoint>
            <Time>2021-04-01T14:42:02.000Z</Time>
            <Position>
              <LatitudeDegrees>42.394912540912628173828125</LatitudeDegrees>
              <LongitudeDegrees>2.67274375073611736297607421875</LongitudeDegrees>
            </Position>
            <AltitudeMeters>985.79998779296875</AltitudeMeters>
            <DistanceMeters>NAN</DistanceMeters>
          </Trackpoint>
          <Trackpoint>
            <Time>2021-04-01T14:42:03.000Z</Time>
            <Position>
              <LatitudeDegrees>42.39490239880979061126708984375</LatitudeDegrees>
              <LongitudeDegrees>2.67274190671741962432861328125</LongitudeDegrees>
            </Position>
            <AltitudeMeters>985.5999755859375</AltitudeMeters>
            <DistanceMeters>NAN</DistanceMeters>
          </Trackpoint>
          <Trackpoint>
            <Time>2021-04-01T14:42:08.000Z</Time>
            <Position>
              <LatitudeDegrees>42.39486224949359893798828125</LatitudeDegrees>
              <LongitudeDegrees>2.67274341545999050140380859375</LongitudeDegrees>
            </Position>
            <AltitudeMeters>985.4000244140625</AltitudeMeters>
            <DistanceMeters>NAN</DistanceMeters>
          </Trackpoint>
          <Trackpoint>
            <Time>2021-04-01T14:42:11.000Z</Time>
            <Position>
              <LatitudeDegrees>42.394835092127323150634765625</LatitudeDegrees>
              <LongitudeDegrees>2.67274777404963970184326171875</LongitudeDegrees>
            </Position>
            <AltitudeMeters>984.5999755859375</AltitudeMeters>
            <DistanceMeters>NAN</DistanceMeters>
          </Trackpoint>
          <Trackpoint>
            <Time>2021-04-01T14:42:15.000Z</Time>
            <Position>
              <LatitudeDegrees>42.3947993852198123931884765625</LatitudeDegrees>
              <LongitudeDegrees>2.67275397665798664093017578125</LongitudeDegrees>
            </Position>
            <AltitudeMeters>983.5999755859375</AltitudeMeters>
            <DistanceMeters>NAN</DistanceMeters>
          </Trackpoint>
          <Trackpoint>
            <Time>2021-04-01T14:42:16.000Z</Time>
            <Position>
              <LatitudeDegrees>42.39478941075503826141357421875</LatitudeDegrees>
              <LongitudeDegrees>2.672753892838954925537109375</LongitudeDegrees>
            </Position>
            <AltitudeMeters>983.4000244140625</AltitudeMeters>
            <DistanceMeters>NAN</DistanceMeters>
          </Trackpoint>
          <Trackpoint>
            <Time>2021-04-01T14:42:19.000Z</Time>
            <Position>
              <LatitudeDegrees>42.39475504495203495025634765625</LatitudeDegrees>
              <LongitudeDegrees>2.6727609336376190185546875</LongitudeDegrees>
            </Position>
            <AltitudeMeters>983</AltitudeMeters>
            <DistanceMeters>NAN</DistanceMeters>
          </Trackpoint>
          <Trackpoint>
            <Time>2021-04-01T14:42:22.000Z</Time>
            <Position>
              <LatitudeDegrees>42.39472487010061740875244140625</LatitudeDegrees>
              <LongitudeDegrees>2.6727716624736785888671875</LongitudeDegrees>
            </Position>
            <AltitudeMeters>982.4000244140625</AltitudeMeters>
            <DistanceMeters>NAN</DistanceMeters>
          </Trackpoint>
          <Trackpoint>
            <Time>2021-04-01T14:42:25.000Z</Time>
            <Position>
              <LatitudeDegrees>42.3946880735456943511962890625</LatitudeDegrees>
              <LongitudeDegrees>2.67277811653912067413330078125</LongitudeDegrees>
            </Position>
            <AltitudeMeters>981.79998779296875</AltitudeMeters>
            <DistanceMeters>NAN</DistanceMeters>
          </Trackpoint>
          <Trackpoint>
            <Time>2021-04-01T14:42:30.000Z</Time>
            <Position>
              <LatitudeDegrees>42.39463417790830135345458984375</LatitudeDegrees>
              <LongitudeDegrees>2.67279035411775112152099609375</LongitudeDegrees>
            </Position>
            <AltitudeMeters>981.4000244140625</AltitudeMeters>
            <DistanceMeters>NAN</DistanceMeters>
          </Trackpoint>
          <Trackpoint>
            <Time>2021-04-01T14:42:35.000Z</Time>
            <Position>
              <LatitudeDegrees>42.3945759236812591552734375</LatitudeDegrees>
              <LongitudeDegrees>2.672806195914745330810546875</LongitudeDegrees>
            </Position>
            <AltitudeMeters>980.5999755859375</AltitudeMeters>
            <DistanceMeters>NAN</DistanceMeters>
          </Trackpoint>
          <Trackpoint>
            <Time>2021-04-01T14:42:39.000Z</Time>
            <Position>
              <LatitudeDegrees>42.39453476853668689727783203125</LatitudeDegrees>
              <LongitudeDegrees>2.672817595303058624267578125</LongitudeDegrees>
            </Position>
            <AltitudeMeters>980.4000244140625</AltitudeMeters>
            <DistanceMeters>NAN</DistanceMeters>
          </Trackpoint>
          <Trackpoint>
            <Time>2021-04-01T14:42:40.000Z</Time>
            <Position>
              <LatitudeDegrees>42.3945244587957859039306640625</LatitudeDegrees>
              <LongitudeDegrees>2.67282153479754924774169921875</LongitudeDegrees>
            </Position>
            <AltitudeMeters>980.4000244140625</AltitudeMeters>
            <DistanceMeters>NAN</DistanceMeters>
          </Trackpoint>
          <Trackpoint>
            <Time>2021-04-01T14:42:42.000Z</Time>
            <Position>
              <LatitudeDegrees>42.3945026658475399017333984375</LatitudeDegrees>
              <LongitudeDegrees>2.67283092252910137176513671875</LongitudeDegrees>
            </Position>
            <AltitudeMeters>980.20001220703125</AltitudeMeters>
            <DistanceMeters>NAN</DistanceMeters>
          </Trackpoint>
          <Trackpoint>
            <Time>2021-04-01T14:42:44.000Z</Time>
            <Position>
              <LatitudeDegrees>42.394483722746372222900390625</LatitudeDegrees>
              <LongitudeDegrees>2.67284047789871692657470703125</LongitudeDegrees>
            </Position>
            <AltitudeMeters>980.20001220703125</AltitudeMeters>
            <DistanceMeters>NAN</DistanceMeters>
          </Trackpoint>
          <Trackpoint>
            <Time>2021-04-01T14:42:50.000Z</Time>
            <Position>
              <LatitudeDegrees>42.39442370831966400146484375</LatitudeDegrees>
              <LongitudeDegrees>2.6728600077331066131591796875</LongitudeDegrees>
            </Position>
            <AltitudeMeters>980.20001220703125</AltitudeMeters>
            <DistanceMeters>NAN</DistanceMeters>
          </Trackpoint>
          <Trackpoint>
            <Time>2021-04-01T14:42:55.000Z</Time>
            <Position>
              <LatitudeDegrees>42.39437081851065158843994140625</LatitudeDegrees>
              <LongitudeDegrees>2.67285489477217197418212890625</LongitudeDegrees>
            </Position>
            <AltitudeMeters>980.20001220703125</AltitudeMeters>
            <DistanceMeters>NAN</DistanceMeters>
          </Trackpoint>
          <Trackpoint>
            <Time>2021-04-01T14:42:58.000Z</Time>
            <Position>
              <LatitudeDegrees>42.3943412303924560546875</LatitudeDegrees>
              <LongitudeDegrees>2.672848440706729888916015625</LongitudeDegrees>
            </Position>
            <AltitudeMeters>980</AltitudeMeters>
            <DistanceMeters>NAN</DistanceMeters>
          </Trackpoint>
          <Trackpoint>
            <Time>2021-04-01T14:43:00.000Z</Time>
            <Position>
              <LatitudeDegrees>42.39431851543486118316650390625</LatitudeDegrees>
              <LongitudeDegrees>2.67285020090639591217041015625</LongitudeDegrees>
            </Position>
            <AltitudeMeters>980</AltitudeMeters>
            <DistanceMeters>NAN</DistanceMeters>
          </Trackpoint>
          <Trackpoint>
            <Time>2021-04-01T14:43:02.000Z</Time>
            <Position>
              <LatitudeDegrees>42.3943001590669155120849609375</LatitudeDegrees>
              <LongitudeDegrees>2.67285170964896678924560546875</LongitudeDegrees>
            </Position>
            <AltitudeMeters>980</AltitudeMeters>
            <DistanceMeters>NAN</DistanceMeters>
          </Trackpoint>
          <Trackpoint>
            <Time>2021-04-01T14:43:03.000Z</Time>
            <Position>
              <LatitudeDegrees>42.3942901007831096649169921875</LatitudeDegrees>
              <LongitudeDegrees>2.6728506200015544891357421875</LongitudeDegrees>
            </Position>
            <AltitudeMeters>980</AltitudeMeters>
            <DistanceMeters>NAN</DistanceMeters>
          </Trackpoint>
          <Trackpoint>
            <Time>2021-04-01T14:43:14.000Z</Time>
            <Position>
              <LatitudeDegrees>42.3941816389560699462890625</LatitudeDegrees>
              <LongitudeDegrees>2.67288104631006717681884765625</LongitudeDegrees>
            </Position>
            <AltitudeMeters>980.4000244140625</AltitudeMeters>
            <DistanceMeters>NAN</DistanceMeters>
          </Trackpoint>
          <Trackpoint>
            <Time>2021-04-01T14:43:24.000Z</Time>
            <Position>
              <LatitudeDegrees>42.3940865881741046905517578125</LatitudeDegrees>
              <LongitudeDegrees>2.67285975627601146697998046875</LongitudeDegrees>
            </Position>
            <AltitudeMeters>980.20001220703125</AltitudeMeters>
            <DistanceMeters>NAN</DistanceMeters>
          </Trackpoint>
          <Trackpoint>
            <Time>2021-04-01T14:43:26.000Z</Time>
            <Position>
              <LatitudeDegrees>42.3940688185393810272216796875</LatitudeDegrees>
              <LongitudeDegrees>2.67285145819187164306640625</LongitudeDegrees>
            </Position>
            <AltitudeMeters>980.20001220703125</AltitudeMeters>
            <DistanceMeters>NAN</DistanceMeters>
          </Trackpoint>
          <Trackpoint>
            <Time>2021-04-01T14:43:29.000Z</Time>
            <Position>
              <LatitudeDegrees>42.39404895342886447906494140625</LatitudeDegrees>
              <LongitudeDegrees>2.672841735184192657470703125</LongitudeDegrees>
            </Position>
            <AltitudeMeters>980.4000244140625</AltitudeMeters>
            <DistanceMeters>NAN</DistanceMeters>
          </Trackpoint>
          <Trackpoint>
            <Time>2021-04-01T14:43:39.000Z</Time>
            <Position>
              <LatitudeDegrees>42.39392817020416259765625</LatitudeDegrees>
              <LongitudeDegrees>2.67279622144997119903564453125</LongitudeDegrees>
            </Position>
            <AltitudeMeters>979.20001220703125</AltitudeMeters>
            <DistanceMeters>NAN</DistanceMeters>
          </Trackpoint>
          <Trackpoint>
            <Time>2021-04-01T14:43:40.000Z</Time>
            <Position>
              <LatitudeDegrees>42.39391718991100788116455078125</LatitudeDegrees>
              <LongitudeDegrees>2.67278842628002166748046875</LongitudeDegrees>
            </Position>
            <AltitudeMeters>979</AltitudeMeters>
            <DistanceMeters>NAN</DistanceMeters>
          </Trackpoint>
          <Trackpoint>
            <Time>2021-04-01T14:43:51.000Z</Time>
            <Position>
              <LatitudeDegrees>42.393805794417858123779296875</LatitudeDegrees>
              <LongitudeDegrees>2.67273603938519954681396484375</LongitudeDegrees>
            </Position>
            <AltitudeMeters>978.5999755859375</AltitudeMeters>
            <DistanceMeters>NAN</DistanceMeters>
          </Trackpoint>
          <Trackpoint>
            <Time>2021-04-01T14:44:04.000Z</Time>
            <Position>
              <LatitudeDegrees>42.39368140697479248046875</LatitudeDegrees>
              <LongitudeDegrees>2.67266898415982723236083984375</LongitudeDegrees>
            </Position>
            <AltitudeMeters>978.5999755859375</AltitudeMeters>
            <DistanceMeters>NAN</DistanceMeters>
          </Trackpoint>
          <Trackpoint>
            <Time>2021-04-01T14:44:05.000Z</Time>
            <Position>
              <LatitudeDegrees>42.39367277361452579498291015625</LatitudeDegrees>
              <LongitudeDegrees>2.67266596667468547821044921875</LongitudeDegrees>
            </Position>
            <AltitudeMeters>978.5999755859375</AltitudeMeters>
            <DistanceMeters>NAN</DistanceMeters>
          </Trackpoint>
          <Trackpoint>
            <Time>2021-04-01T14:44:17.000Z</Time>
            <Position>
              <LatitudeDegrees>42.393562383949756622314453125</LatitudeDegrees>
              <LongitudeDegrees>2.67262690700590610504150390625</LongitudeDegrees>
            </Position>
            <AltitudeMeters>979.4000244140625</AltitudeMeters>
            <DistanceMeters>NAN</DistanceMeters>
          </Trackpoint>
          <Trackpoint>
            <Time>2021-04-01T14:44:21.000Z</Time>
            <Position>
              <LatitudeDegrees>42.3935110867023468017578125</LatitudeDegrees>
              <LongitudeDegrees>2.67260980792343616485595703125</LongitudeDegrees>
            </Position>
            <AltitudeMeters>979.5999755859375</AltitudeMeters>
            <DistanceMeters>NAN</DistanceMeters>
          </Trackpoint>
          <Trackpoint>
            <Time>2021-04-01T14:44:24.000Z</Time>
            <Position>
              <LatitudeDegrees>42.39348099566996097564697265625</LatitudeDegrees>
              <LongitudeDegrees>2.67259673215448856353759765625</LongitudeDegrees>
            </Position>
            <AltitudeMeters>979.5999755859375</AltitudeMeters>
            <DistanceMeters>NAN</DistanceMeters>
          </Trackpoint>
          <Trackpoint>
            <Time>2021-04-01T14:44:29.000Z</Time>
            <Position>
              <LatitudeDegrees>42.39342936314642429351806640625</LatitudeDegrees>
              <LongitudeDegrees>2.6725766994059085845947265625</LongitudeDegrees>
            </Position>
            <AltitudeMeters>979.4000244140625</AltitudeMeters>
            <DistanceMeters>NAN</DistanceMeters>
          </Trackpoint>
          <Trackpoint>
            <Time>2021-04-01T14:44:38.000Z</Time>
            <Position>
              <LatitudeDegrees>42.39334269426763057708740234375</LatitudeDegrees>
              <LongitudeDegrees>2.672549374401569366455078125</LongitudeDegrees>
            </Position>
            <AltitudeMeters>979</AltitudeMeters>
            <DistanceMeters>NAN</DistanceMeters>
          </Trackpoint>
          <Trackpoint>
            <Time>2021-04-01T14:44:40.000Z</Time>
            <Position>
              <LatitudeDegrees>42.39332525990903377532958984375</LatitudeDegrees>
              <LongitudeDegrees>2.67254610545933246612548828125</LongitudeDegrees>
            </Position>
            <AltitudeMeters>979.20001220703125</AltitudeMeters>
            <DistanceMeters>NAN</DistanceMeters>
          </Trackpoint>
          <Trackpoint>
            <Time>2021-04-01T14:44:45.000Z</Time>
            <Position>
              <LatitudeDegrees>42.39328444004058837890625</LatitudeDegrees>
              <LongitudeDegrees>2.67253789119422435760498046875</LongitudeDegrees>
            </Position>
            <AltitudeMeters>979.4000244140625</AltitudeMeters>
            <DistanceMeters>NAN</DistanceMeters>
          </Trackpoint>
          <Trackpoint>
            <Time>2021-04-01T14:44:49.000Z</Time>
            <Position>
              <LatitudeDegrees>42.3932483978569507598876953125</LatitudeDegrees>
              <LongitudeDegrees>2.6725423336029052734375</LongitudeDegrees>
            </Position>
            <AltitudeMeters>979.4000244140625</AltitudeMeters>
            <DistanceMeters>NAN</DistanceMeters>
          </Trackpoint>
          <Trackpoint>
            <Time>2021-04-01T14:44:50.000Z</Time>
            <Position>
              <LatitudeDegrees>42.3932483978569507598876953125</LatitudeDegrees>
              <LongitudeDegrees>2.6725423336029052734375</LongitudeDegrees>
            </Position>
            <AltitudeMeters>979.4000244140625</AltitudeMeters>
            <DistanceMeters>NAN</DistanceMeters>
          </Trackpoint>
          <Trackpoint>
            <Time>2021-04-01T14:44:55.000Z</Time>
            <Position>
              <LatitudeDegrees>42.39320942200720310211181640625</LatitudeDegrees>
              <LongitudeDegrees>2.672554068267345428466796875</LongitudeDegrees>
            </Position>
            <AltitudeMeters>979.79998779296875</AltitudeMeters>
            <DistanceMeters>NAN</DistanceMeters>
          </Trackpoint>
          <Trackpoint>
            <Time>2021-04-01T14:44:58.000Z</Time>
            <Position>
              <LatitudeDegrees>42.39317790605127811431884765625</LatitudeDegrees>
              <LongitudeDegrees>2.672566473484039306640625</LongitudeDegrees>
            </Position>
            <AltitudeMeters>980.4000244140625</AltitudeMeters>
            <DistanceMeters>NAN</DistanceMeters>
          </Trackpoint>
          <Trackpoint>
            <Time>2021-04-01T14:45:01.000Z</Time>
            <Position>
              <LatitudeDegrees>42.39315577782690525054931640625</LatitudeDegrees>
              <LongitudeDegrees>2.6725773699581623077392578125</LongitudeDegrees>
            </Position>
            <AltitudeMeters>980.5999755859375</AltitudeMeters>
            <DistanceMeters>NAN</DistanceMeters>
          </Trackpoint>
          <Trackpoint>
            <Time>2021-04-01T14:45:07.000Z</Time>
            <Position>
              <LatitudeDegrees>42.39311210811138153076171875</LatitudeDegrees>
              <LongitudeDegrees>2.67258332110941410064697265625</LongitudeDegrees>
            </Position>
            <AltitudeMeters>981.5999755859375</AltitudeMeters>
            <DistanceMeters>NAN</DistanceMeters>
          </Trackpoint>
          <Trackpoint>
            <Time>2021-04-01T14:45:08.000Z</Time>
            <Position>
              <LatitudeDegrees>42.39310163073241710662841796875</LatitudeDegrees>
              <LongitudeDegrees>2.6725823991000652313232421875</LongitudeDegrees>
            </Position>
            <AltitudeMeters>981.5999755859375</AltitudeMeters>
            <DistanceMeters>NAN</DistanceMeters>
          </Trackpoint>
          <Trackpoint>
            <Time>2021-04-01T14:45:09.000Z</Time>
            <Position>
              <LatitudeDegrees>42.39310163073241710662841796875</LatitudeDegrees>
              <LongitudeDegrees>2.6725823991000652313232421875</LongitudeDegrees>
            </Position>
            <AltitudeMeters>981.79998779296875</AltitudeMeters>
            <DistanceMeters>NAN</DistanceMeters>
          </Trackpoint>
          <Trackpoint>
            <Time>2021-04-01T14:45:15.000Z</Time>
            <Position>
              <LatitudeDegrees>42.393045723438262939453125</LatitudeDegrees>
              <LongitudeDegrees>2.6725535653531551361083984375</LongitudeDegrees>
            </Position>
            <AltitudeMeters>982.20001220703125</AltitudeMeters>
            <DistanceMeters>NAN</DistanceMeters>
          </Trackpoint>
          <Trackpoint>
            <Time>2021-04-01T14:45:17.000Z</Time>
            <Position>
              <LatitudeDegrees>42.39302627742290496826171875</LatitudeDegrees>
              <LongitudeDegrees>2.67253370024263858795166015625</LongitudeDegrees>
            </Position>
            <AltitudeMeters>982.5999755859375</AltitudeMeters>
            <DistanceMeters>NAN</DistanceMeters>
          </Trackpoint>
          <Trackpoint>
            <Time>2021-04-01T14:45:18.000Z</Time>
            <Position>
              <LatitudeDegrees>42.3930147103965282440185546875</LatitudeDegrees>
              <LongitudeDegrees>2.67252556979656219482421875</LongitudeDegrees>
            </Position>
            <AltitudeMeters>982.5999755859375</AltitudeMeters>
            <DistanceMeters>NAN</DistanceMeters>
          </Trackpoint>
          <Trackpoint>
            <Time>2021-04-01T14:45:29.000Z</Time>
            <Position>
              <LatitudeDegrees>42.3928995430469512939453125</LatitudeDegrees>
              <LongitudeDegrees>2.67246262170374393463134765625</LongitudeDegrees>
            </Position>
            <AltitudeMeters>982.79998779296875</AltitudeMeters>
            <DistanceMeters>NAN</DistanceMeters>
          </Trackpoint>
          <Trackpoint>
            <Time>2021-04-01T14:45:31.000Z</Time>
            <Position>
              <LatitudeDegrees>42.39287800155580043792724609375</LatitudeDegrees>
              <LongitudeDegrees>2.6724492944777011871337890625</LongitudeDegrees>
            </Position>
            <AltitudeMeters>982.79998779296875</AltitudeMeters>
            <DistanceMeters>NAN</DistanceMeters>
          </Trackpoint>
          <Trackpoint>
            <Time>2021-04-01T14:45:37.000Z</Time>
            <Position>
              <LatitudeDegrees>42.392810024321079254150390625</LatitudeDegrees>
              <LongitudeDegrees>2.67242674715816974639892578125</LongitudeDegrees>
            </Position>
            <AltitudeMeters>982.79998779296875</AltitudeMeters>
            <DistanceMeters>NAN</DistanceMeters>
          </Trackpoint>
          <Trackpoint>
            <Time>2021-04-01T14:45:39.000Z</Time>
            <Position>
              <LatitudeDegrees>42.392789237201213836669921875</LatitudeDegrees>
              <LongitudeDegrees>2.6724164374172687530517578125</LongitudeDegrees>
            </Position>
            <AltitudeMeters>983</AltitudeMeters>
            <DistanceMeters>NAN</DistanceMeters>
          </Trackpoint>
          <Trackpoint>
            <Time>2021-04-01T14:45:50.000Z</Time>
            <Position>
              <LatitudeDegrees>42.392677254974842071533203125</LatitudeDegrees>
              <LongitudeDegrees>2.67238366417586803436279296875</LongitudeDegrees>
            </Position>
            <AltitudeMeters>982.5999755859375</AltitudeMeters>
            <DistanceMeters>NAN</DistanceMeters>
          </Trackpoint>
          <Trackpoint>
            <Time>2021-04-01T14:45:58.000Z</Time>
            <Position>
              <LatitudeDegrees>42.39259787835180759429931640625</LatitudeDegrees>
              <LongitudeDegrees>2.67236061394214630126953125</LongitudeDegrees>
            </Position>
            <AltitudeMeters>982.79998779296875</AltitudeMeters>
            <DistanceMeters>NAN</DistanceMeters>
          </Trackpoint>
          <Trackpoint>
            <Time>2021-04-01T14:46:03.000Z</Time>
            <Position>
              <LatitudeDegrees>42.3925476707518100738525390625</LatitudeDegrees>
              <LongitudeDegrees>2.672346197068691253662109375</LongitudeDegrees>
            </Position>
            <AltitudeMeters>982.79998779296875</AltitudeMeters>
            <DistanceMeters>NAN</DistanceMeters>
          </Trackpoint>
          <Trackpoint>
            <Time>2021-04-01T14:46:05.000Z</Time>
            <Position>
              <LatitudeDegrees>42.39252914674580097198486328125</LatitudeDegrees>
              <LongitudeDegrees>2.672334797680377960205078125</LongitudeDegrees>
            </Position>
            <AltitudeMeters>982.79998779296875</AltitudeMeters>
            <DistanceMeters>NAN</DistanceMeters>
          </Trackpoint>
          <Trackpoint>
            <Time>2021-04-01T14:46:08.000Z</Time>
            <Position>
              <LatitudeDegrees>42.3925003968179225921630859375</LatitudeDegrees>
              <LongitudeDegrees>2.67232867889106273651123046875</LongitudeDegrees>
            </Position>
            <AltitudeMeters>983</AltitudeMeters>
            <DistanceMeters>NAN</DistanceMeters>
          </Trackpoint>
          <Trackpoint>
            <Time>2021-04-01T14:46:11.000Z</Time>
            <Position>
              <LatitudeDegrees>42.39246795885264873504638671875</LatitudeDegrees>
              <LongitudeDegrees>2.67231711186468601226806640625</LongitudeDegrees>
            </Position>
            <AltitudeMeters>983</AltitudeMeters>
            <DistanceMeters>NAN</DistanceMeters>
          </Trackpoint>
          <Trackpoint>
            <Time>2021-04-01T14:46:13.000Z</Time>
            <Position>
              <LatitudeDegrees>42.39244733937084674835205078125</LatitudeDegrees>
              <LongitudeDegrees>2.67230973578989505767822265625</LongitudeDegrees>
            </Position>
            <AltitudeMeters>983</AltitudeMeters>
            <DistanceMeters>NAN</DistanceMeters>
          </Trackpoint>
          <Trackpoint>
            <Time>2021-04-01T14:46:14.000Z</Time>
            <Position>
              <LatitudeDegrees>42.3924377001821994781494140625</LatitudeDegrees>
              <LongitudeDegrees>2.67230370081961154937744140625</LongitudeDegrees>
            </Position>
            <AltitudeMeters>983</AltitudeMeters>
            <DistanceMeters>NAN</DistanceMeters>
          </Trackpoint>
          <Trackpoint>
            <Time>2021-04-01T14:46:23.000Z</Time>
            <Position>
              <LatitudeDegrees>42.392364442348480224609375</LatitudeDegrees>
              <LongitudeDegrees>2.67228391952812671661376953125</LongitudeDegrees>
            </Position>
            <AltitudeMeters>983.79998779296875</AltitudeMeters>
            <DistanceMeters>NAN</DistanceMeters>
          </Trackpoint>
          <Trackpoint>
            <Time>2021-04-01T14:46:24.000Z</Time>
            <Position>
              <LatitudeDegrees>42.39235497079789638519287109375</LatitudeDegrees>
              <LongitudeDegrees>2.6722823269665241241455078125</LongitudeDegrees>
            </Position>
            <AltitudeMeters>983.79998779296875</AltitudeMeters>
            <DistanceMeters>NAN</DistanceMeters>
          </Trackpoint>
          <Trackpoint>
            <Time>2021-04-01T14:46:28.000Z</Time>
            <Position>
              <LatitudeDegrees>42.39232177846133708953857421875</LatitudeDegrees>
              <LongitudeDegrees>2.67227235250174999237060546875</LongitudeDegrees>
            </Position>
            <AltitudeMeters>984.20001220703125</AltitudeMeters>
            <DistanceMeters>NAN</DistanceMeters>
          </Trackpoint>
          <Trackpoint>
            <Time>2021-04-01T14:46:29.000Z</Time>
            <Position>
              <LatitudeDegrees>42.392314486205577850341796875</LatitudeDegrees>
              <LongitudeDegrees>2.67226614989340305328369140625</LongitudeDegrees>
            </Position>
            <AltitudeMeters>984.20001220703125</AltitudeMeters>
            <DistanceMeters>NAN</DistanceMeters>
          </Trackpoint>
          <Trackpoint>
            <Time>2021-04-01T14:46:33.000Z</Time>
            <Position>
              <LatitudeDegrees>42.39229135215282440185546875</LatitudeDegrees>
              <LongitudeDegrees>2.67225600779056549072265625</LongitudeDegrees>
            </Position>
            <AltitudeMeters>984.5999755859375</AltitudeMeters>
            <DistanceMeters>NAN</DistanceMeters>
          </Trackpoint>
          <Trackpoint>
            <Time>2021-04-01T14:46:34.000Z</Time>
            <Position>
              <LatitudeDegrees>42.39227483980357646942138671875</LatitudeDegrees>
              <LongitudeDegrees>2.672251649200916290283203125</LongitudeDegrees>
            </Position>
            <AltitudeMeters>984.79998779296875</AltitudeMeters>
            <DistanceMeters>NAN</DistanceMeters>
          </Trackpoint>
          <Trackpoint>
            <Time>2021-04-01T14:46:39.000Z</Time>
            <Position>
              <LatitudeDegrees>42.3922325111925601959228515625</LatitudeDegrees>
              <LongitudeDegrees>2.6722487993538379669189453125</LongitudeDegrees>
            </Position>
            <AltitudeMeters>985.4000244140625</AltitudeMeters>
            <DistanceMeters>NAN</DistanceMeters>
          </Trackpoint>
          <Trackpoint>
            <Time>2021-04-01T14:46:41.000Z</Time>
            <Position>
              <LatitudeDegrees>42.392215244472026824951171875</LatitudeDegrees>
              <LongitudeDegrees>2.67225273884832859039306640625</LongitudeDegrees>
            </Position>
            <AltitudeMeters>985.5999755859375</AltitudeMeters>
            <DistanceMeters>NAN</DistanceMeters>
          </Trackpoint>
          <Trackpoint>
            <Time>2021-04-01T14:46:43.000Z</Time>
            <Position>
              <LatitudeDegrees>42.39219856448471546173095703125</LatitudeDegrees>
              <LongitudeDegrees>2.67226128838956356048583984375</LongitudeDegrees>
            </Position>
            <AltitudeMeters>985.79998779296875</AltitudeMeters>
            <DistanceMeters>NAN</DistanceMeters>
          </Trackpoint>
          <Trackpoint>
            <Time>2021-04-01T14:46:49.000Z</Time>
            <Position>
              <LatitudeDegrees>42.3921597562730312347412109375</LatitudeDegrees>
              <LongitudeDegrees>2.6722732745110988616943359375</LongitudeDegrees>
            </Position>
            <AltitudeMeters>987</AltitudeMeters>
            <DistanceMeters>NAN</DistanceMeters>
          </Trackpoint>
          <Trackpoint>
            <Time>2021-04-01T14:46:55.000Z</Time>
            <Position>
              <LatitudeDegrees>42.392107956111431121826171875</LatitudeDegrees>
              <LongitudeDegrees>2.67226581461727619171142578125</LongitudeDegrees>
            </Position>
            <AltitudeMeters>987.79998779296875</AltitudeMeters>
            <DistanceMeters>NAN</DistanceMeters>
          </Trackpoint>
          <Trackpoint>
            <Time>2021-04-01T14:46:56.000Z</Time>
            <Position>
              <LatitudeDegrees>42.39210116676986217498779296875</LatitudeDegrees>
              <LongitudeDegrees>2.67226765863597393035888671875</LongitudeDegrees>
            </Position>
            <AltitudeMeters>988</AltitudeMeters>
            <DistanceMeters>NAN</DistanceMeters>
          </Trackpoint>
          <Trackpoint>
            <Time>2021-04-01T14:46:58.000Z</Time>
            <Position>
              <LatitudeDegrees>42.392093203961849212646484375</LatitudeDegrees>
              <LongitudeDegrees>2.6722700893878936767578125</LongitudeDegrees>
            </Position>
            <AltitudeMeters>988.4000244140625</AltitudeMeters>
            <DistanceMeters>NAN</DistanceMeters>
          </Trackpoint>
          <Trackpoint>
            <Time>2021-04-01T14:47:06.000Z</Time>
            <Position>
              <LatitudeDegrees>42.39201399497687816619873046875</LatitudeDegrees>
              <LongitudeDegrees>2.67226464115083217620849609375</LongitudeDegrees>
            </Position>
            <AltitudeMeters>989</AltitudeMeters>
            <DistanceMeters>NAN</DistanceMeters>
          </Trackpoint>
          <Trackpoint>
            <Time>2021-04-01T14:47:07.000Z</Time>
            <Position>
              <LatitudeDegrees>42.3920025117695331573486328125</LatitudeDegrees>
              <LongitudeDegrees>2.672266401350498199462890625</LongitudeDegrees>
            </Position>
            <AltitudeMeters>989</AltitudeMeters>
            <DistanceMeters>NAN</DistanceMeters>
          </Trackpoint>
          <Trackpoint>
            <Time>2021-04-01T14:47:10.000Z</Time>
            <Position>
              <LatitudeDegrees>42.3919714987277984619140625</LatitudeDegrees>
              <LongitudeDegrees>2.67226497642695903778076171875</LongitudeDegrees>
            </Position>
            <AltitudeMeters>989</AltitudeMeters>
            <DistanceMeters>NAN</DistanceMeters>
          </Trackpoint>
          <Trackpoint>
            <Time>2021-04-01T14:47:14.000Z</Time>
            <Position>
              <LatitudeDegrees>42.39192531444132328033447265625</LatitudeDegrees>
              <LongitudeDegrees>2.6722561754286289215087890625</LongitudeDegrees>
            </Position>
            <AltitudeMeters>988.79998779296875</AltitudeMeters>
            <DistanceMeters>NAN</DistanceMeters>
          </Trackpoint>
          <Trackpoint>
            <Time>2021-04-01T14:47:16.000Z</Time>
            <Position>
              <LatitudeDegrees>42.3919025994837284088134765625</LatitudeDegrees>
              <LongitudeDegrees>2.67224100418388843536376953125</LongitudeDegrees>
            </Position>
            <AltitudeMeters>988.79998779296875</AltitudeMeters>
            <DistanceMeters>NAN</DistanceMeters>
          </Trackpoint>
          <Trackpoint>
            <Time>2021-04-01T14:47:22.000Z</Time>
            <Position>
              <LatitudeDegrees>42.391844093799591064453125</LatitudeDegrees>
              <LongitudeDegrees>2.67224133946001529693603515625</LongitudeDegrees>
            </Position>
            <AltitudeMeters>988.4000244140625</AltitudeMeters>
            <DistanceMeters>NAN</DistanceMeters>
          </Trackpoint>
          <Trackpoint>
            <Time>2021-04-01T14:47:26.000Z</Time>
            <Position>
              <LatitudeDegrees>42.391812913119792938232421875</LatitudeDegrees>
              <LongitudeDegrees>2.6722508110105991363525390625</LongitudeDegrees>
            </Position>
            <AltitudeMeters>988</AltitudeMeters>
            <DistanceMeters>NAN</DistanceMeters>
          </Trackpoint>
          <Trackpoint>
            <Time>2021-04-01T14:47:29.000Z</Time>
            <Position>
              <LatitudeDegrees>42.3917758651077747344970703125</LatitudeDegrees>
              <LongitudeDegrees>2.67225324176251888275146484375</LongitudeDegrees>
            </Position>
            <AltitudeMeters>987.79998779296875</AltitudeMeters>
            <DistanceMeters>NAN</DistanceMeters>
          </Trackpoint>
          <Trackpoint>
            <Time>2021-04-01T14:47:34.000Z</Time>
            <Position>
              <LatitudeDegrees>42.39173940382897853851318359375</LatitudeDegrees>
              <LongitudeDegrees>2.67226330004632472991943359375</LongitudeDegrees>
            </Position>
            <AltitudeMeters>987.20001220703125</AltitudeMeters>
            <DistanceMeters>NAN</DistanceMeters>
          </Trackpoint>
          <Trackpoint>
            <Time>2021-04-01T14:47:35.000Z</Time>
            <Position>
              <LatitudeDegrees>42.3917316086590290069580078125</LatitudeDegrees>
              <LongitudeDegrees>2.67226531170308589935302734375</LongitudeDegrees>
            </Position>
            <AltitudeMeters>987</AltitudeMeters>
            <DistanceMeters>NAN</DistanceMeters>
          </Trackpoint>
          <Trackpoint>
            <Time>2021-04-01T14:47:36.000Z</Time>
            <Position>
              <LatitudeDegrees>42.3917228914797306060791015625</LatitudeDegrees>
              <LongitudeDegrees>2.67226296477019786834716796875</LongitudeDegrees>
            </Position>
            <AltitudeMeters>986.79998779296875</AltitudeMeters>
            <DistanceMeters>NAN</DistanceMeters>
          </Trackpoint>
          <Trackpoint>
            <Time>2021-04-01T14:47:38.000Z</Time>
            <Position>
              <LatitudeDegrees>42.39170235581696033477783203125</LatitudeDegrees>
              <LongitudeDegrees>2.672261707484722137451171875</LongitudeDegrees>
            </Position>
            <AltitudeMeters>986.4000244140625</AltitudeMeters>
            <DistanceMeters>NAN</DistanceMeters>
          </Trackpoint>
          <Trackpoint>
            <Time>2021-04-01T14:47:40.000Z</Time>
            <Position>
              <LatitudeDegrees>42.39169145934283733367919921875</LatitudeDegrees>
              <LongitudeDegrees>2.67226078547537326812744140625</LongitudeDegrees>
            </Position>
            <AltitudeMeters>986</AltitudeMeters>
            <DistanceMeters>NAN</DistanceMeters>
          </Trackpoint>
          <Trackpoint>
            <Time>2021-04-01T14:47:42.000Z</Time>
            <Position>
              <LatitudeDegrees>42.3916612006723880767822265625</LatitudeDegrees>
              <LongitudeDegrees>2.67226279713213443756103515625</LongitudeDegrees>
            </Position>
            <AltitudeMeters>985.5999755859375</AltitudeMeters>
            <DistanceMeters>NAN</DistanceMeters>
          </Trackpoint>
          <Trackpoint>
            <Time>2021-04-01T14:47:45.000Z</Time>
            <Position>
              <LatitudeDegrees>42.39164091646671295166015625</LatitudeDegrees>
              <LongitudeDegrees>2.67226330004632472991943359375</LongitudeDegrees>
            </Position>
            <AltitudeMeters>985</AltitudeMeters>
            <DistanceMeters>NAN</DistanceMeters>
          </Trackpoint>
          <Trackpoint>
            <Time>2021-04-01T14:47:47.000Z</Time>
            <Position>
              <LatitudeDegrees>42.39161199890077114105224609375</LatitudeDegrees>
              <LongitudeDegrees>2.6722575165331363677978515625</LongitudeDegrees>
            </Position>
            <AltitudeMeters>984.4000244140625</AltitudeMeters>
            <DistanceMeters>NAN</DistanceMeters>
          </Trackpoint>
          <Trackpoint>
            <Time>2021-04-01T14:47:51.000Z</Time>
            <Position>
              <LatitudeDegrees>42.3915676586329936981201171875</LatitudeDegrees>
              <LongitudeDegrees>2.6722508110105991363525390625</LongitudeDegrees>
            </Position>
            <AltitudeMeters>983.79998779296875</AltitudeMeters>
            <DistanceMeters>NAN</DistanceMeters>
          </Trackpoint>
          <Trackpoint>
            <Time>2021-04-01T14:47:58.000Z</Time>
            <Position>
              <LatitudeDegrees>42.39148727618157863616943359375</LatitudeDegrees>
              <LongitudeDegrees>2.67225257121026515960693359375</LongitudeDegrees>
            </Position>
            <AltitudeMeters>982.79998779296875</AltitudeMeters>
            <DistanceMeters>NAN</DistanceMeters>
          </Trackpoint>
          <Trackpoint>
            <Time>2021-04-01T14:47:59.000Z</Time>
            <Position>
              <LatitudeDegrees>42.39147772081196308135986328125</LatitudeDegrees>
              <LongitudeDegrees>2.6722531579434871673583984375</LongitudeDegrees>
            </Position>
            <AltitudeMeters>982.5999755859375</AltitudeMeters>
            <DistanceMeters>NAN</DistanceMeters>
          </Trackpoint>
          <Trackpoint>
            <Time>2021-04-01T14:48:00.000Z</Time>
            <Position>
              <LatitudeDegrees>42.39146883599460124969482421875</LatitudeDegrees>
              <LongitudeDegrees>2.672255672514438629150390625</LongitudeDegrees>
            </Position>
            <AltitudeMeters>982.5999755859375</AltitudeMeters>
            <DistanceMeters>NAN</DistanceMeters>
          </Trackpoint>
          <Trackpoint>
            <Time>2021-04-01T14:48:06.000Z</Time>
            <Position>
              <LatitudeDegrees>42.391405217349529266357421875</LatitudeDegrees>
              <LongitudeDegrees>2.672255672514438629150390625</LongitudeDegrees>
            </Position>
            <AltitudeMeters>981.79998779296875</AltitudeMeters>
            <DistanceMeters>NAN</DistanceMeters>
          </Trackpoint>
          <Trackpoint>
            <Time>2021-04-01T14:48:07.000Z</Time>
            <Position>
              <LatitudeDegrees>42.39139541052281856536865234375</LatitudeDegrees>
              <LongitudeDegrees>2.67225642688572406768798828125</LongitudeDegrees>
            </Position>
            <AltitudeMeters>981.5999755859375</AltitudeMeters>
            <DistanceMeters>NAN</DistanceMeters>
          </Trackpoint>
          <Trackpoint>
            <Time>2021-04-01T14:48:14.000Z</Time>
            <Position>
              <LatitudeDegrees>42.39131745882332324981689453125</LatitudeDegrees>
              <LongitudeDegrees>2.6722437702119350433349609375</LongitudeDegrees>
            </Position>
            <AltitudeMeters>981</AltitudeMeters>
            <DistanceMeters>NAN</DistanceMeters>
          </Trackpoint>
          <Trackpoint>
            <Time>2021-04-01T14:48:17.000Z</Time>
            <Position>
              <LatitudeDegrees>42.39130035974085330963134765625</LatitudeDegrees>
              <LongitudeDegrees>2.67224402166903018951416015625</LongitudeDegrees>
            </Position>
            <AltitudeMeters>980.5999755859375</AltitudeMeters>
            <DistanceMeters>NAN</DistanceMeters>
          </Trackpoint>
          <Trackpoint>
            <Time>2021-04-01T14:48:18.000Z</Time>
            <Position>
              <LatitudeDegrees>42.391277812421321868896484375</LatitudeDegrees>
              <LongitudeDegrees>2.6722441054880619049072265625</LongitudeDegrees>
            </Position>
            <AltitudeMeters>980.5999755859375</AltitudeMeters>
            <DistanceMeters>NAN</DistanceMeters>
          </Trackpoint>
          <Trackpoint>
            <Time>2021-04-01T14:48:21.000Z</Time>
            <Position>
              <LatitudeDegrees>42.3912414349615573883056640625</LatitudeDegrees>
              <LongitudeDegrees>2.672241590917110443115234375</LongitudeDegrees>
            </Position>
            <AltitudeMeters>980.4000244140625</AltitudeMeters>
            <DistanceMeters>NAN</DistanceMeters>
          </Trackpoint>
          <Trackpoint>
            <Time>2021-04-01T14:48:22.000Z</Time>
            <Position>
              <LatitudeDegrees>42.39122919738292694091796875</LatitudeDegrees>
              <LongitudeDegrees>2.6722414232790470123291015625</LongitudeDegrees>
            </Position>
            <AltitudeMeters>980.4000244140625</AltitudeMeters>
            <DistanceMeters>NAN</DistanceMeters>
          </Trackpoint>
          <Trackpoint>
            <Time>2021-04-01T14:48:29.000Z</Time>
            <Position>
              <LatitudeDegrees>42.3911472223699092864990234375</LatitudeDegrees>
              <LongitudeDegrees>2.6722451113164424896240234375</LongitudeDegrees>
            </Position>
            <AltitudeMeters>980.20001220703125</AltitudeMeters>
            <DistanceMeters>NAN</DistanceMeters>
          </Trackpoint>
          <Trackpoint>
            <Time>2021-04-01T14:48:32.000Z</Time>
            <Position>
              <LatitudeDegrees>42.3911029659211635589599609375</LatitudeDegrees>
              <LongitudeDegrees>2.6722585223615169525146484375</LongitudeDegrees>
            </Position>
            <AltitudeMeters>980</AltitudeMeters>
            <DistanceMeters>NAN</DistanceMeters>
          </Trackpoint>
          <Trackpoint>
            <Time>2021-04-01T14:48:40.000Z</Time>
            <Position>
              <LatitudeDegrees>42.39102400839328765869140625</LatitudeDegrees>
              <LongitudeDegrees>2.6722712628543376922607421875</LongitudeDegrees>
            </Position>
            <AltitudeMeters>980</AltitudeMeters>
            <DistanceMeters>NAN</DistanceMeters>
          </Trackpoint>
          <Trackpoint>
            <Time>2021-04-01T14:48:43.000Z</Time>
            <Position>
              <LatitudeDegrees>42.39100045524537563323974609375</LatitudeDegrees>
              <LongitudeDegrees>2.672279141843318939208984375</LongitudeDegrees>
            </Position>
            <AltitudeMeters>980</AltitudeMeters>
            <DistanceMeters>NAN</DistanceMeters>
          </Trackpoint>
          <Trackpoint>
            <Time>2021-04-01T14:48:46.000Z</Time>
            <Position>
              <LatitudeDegrees>42.39097329787909984588623046875</LatitudeDegrees>
              <LongitudeDegrees>2.6722893677651882171630859375</LongitudeDegrees>
            </Position>
            <AltitudeMeters>980.4000244140625</AltitudeMeters>
            <DistanceMeters>NAN</DistanceMeters>
          </Trackpoint>
          <Trackpoint>
            <Time>2021-04-01T14:48:48.000Z</Time>
            <Position>
              <LatitudeDegrees>42.3909554444253444671630859375</LatitudeDegrees>
              <LongitudeDegrees>2.672289870679378509521484375</LongitudeDegrees>
            </Position>
            <AltitudeMeters>980.5999755859375</AltitudeMeters>
            <DistanceMeters>NAN</DistanceMeters>
          </Trackpoint>
          <Trackpoint>
            <Time>2021-04-01T14:48:51.000Z</Time>
            <Position>
              <LatitudeDegrees>42.3909376747906208038330078125</LatitudeDegrees>
              <LongitudeDegrees>2.67229833640158176422119140625</LongitudeDegrees>
            </Position>
            <AltitudeMeters>981</AltitudeMeters>
            <DistanceMeters>NAN</DistanceMeters>
          </Trackpoint>
          <Trackpoint>
            <Time>2021-04-01T14:48:54.000Z</Time>
            <Position>
              <LatitudeDegrees>42.39091915078461170196533203125</LatitudeDegrees>
              <LongitudeDegrees>2.67230068333446979522705078125</LongitudeDegrees>
            </Position>
            <AltitudeMeters>981.20001220703125</AltitudeMeters>
            <DistanceMeters>NAN</DistanceMeters>
          </Trackpoint>
          <Trackpoint>
            <Time>2021-04-01T14:48:56.000Z</Time>
            <Position>
              <LatitudeDegrees>42.390906997025012969970703125</LatitudeDegrees>
              <LongitudeDegrees>2.6723024435341358184814453125</LongitudeDegrees>
            </Position>
            <AltitudeMeters>981.4000244140625</AltitudeMeters>
            <DistanceMeters>NAN</DistanceMeters>
          </Trackpoint>
          <Trackpoint>
            <Time>2021-04-01T14:48:59.000Z</Time>
            <Position>
              <LatitudeDegrees>42.390887551009654998779296875</LatitudeDegrees>
              <LongitudeDegrees>2.67231057398021221160888671875</LongitudeDegrees>
            </Position>
            <AltitudeMeters>981.5999755859375</AltitudeMeters>
            <DistanceMeters>NAN</DistanceMeters>
          </Trackpoint>
          <Trackpoint>
            <Time>2021-04-01T14:49:00.000Z</Time>
            <Position>
              <LatitudeDegrees>42.39088042639195919036865234375</LatitudeDegrees>
              <LongitudeDegrees>2.67231258563697338104248046875</LongitudeDegrees>
            </Position>
            <AltitudeMeters>981.79998779296875</AltitudeMeters>
            <DistanceMeters>NAN</DistanceMeters>
          </Trackpoint>
          <Trackpoint>
            <Time>2021-04-01T14:49:03.000Z</Time>
            <Position>
              <LatitudeDegrees>42.3908608965575695037841796875</LatitudeDegrees>
              <LongitudeDegrees>2.672317028045654296875</LongitudeDegrees>
            </Position>
            <AltitudeMeters>982</AltitudeMeters>
            <DistanceMeters>NAN</DistanceMeters>
          </Trackpoint>
          <Trackpoint>
            <Time>2021-04-01T14:49:06.000Z</Time>
            <Position>
              <LatitudeDegrees>42.39084606058895587921142578125</LatitudeDegrees>
              <LongitudeDegrees>2.67232063226401805877685546875</LongitudeDegrees>
            </Position>
            <AltitudeMeters>982.4000244140625</AltitudeMeters>
            <DistanceMeters>NAN</DistanceMeters>
          </Trackpoint>
          <Trackpoint>
            <Time>2021-04-01T14:49:09.000Z</Time>
            <Position>
              <LatitudeDegrees>42.39082753658294677734375</LatitudeDegrees>
              <LongitudeDegrees>2.67233018763363361358642578125</LongitudeDegrees>
            </Position>
            <AltitudeMeters>982.79998779296875</AltitudeMeters>
            <DistanceMeters>NAN</DistanceMeters>
          </Trackpoint>
          <Trackpoint>
            <Time>2021-04-01T14:49:16.000Z</Time>
            <Position>
              <LatitudeDegrees>42.390795685350894927978515625</LatitudeDegrees>
              <LongitudeDegrees>2.67235298641026020050048828125</LongitudeDegrees>
            </Position>
            <AltitudeMeters>983.5999755859375</AltitudeMeters>
            <DistanceMeters>NAN</DistanceMeters>
          </Trackpoint>
          <Trackpoint>
            <Time>2021-04-01T14:49:18.000Z</Time>
            <Position>
              <LatitudeDegrees>42.3907871358096599578857421875</LatitudeDegrees>
              <LongitudeDegrees>2.67236438579857349395751953125</LongitudeDegrees>
            </Position>
            <AltitudeMeters>984</AltitudeMeters>
            <DistanceMeters>NAN</DistanceMeters>
          </Trackpoint>
          <Trackpoint>
            <Time>2021-04-01T14:49:24.000Z</Time>
            <Position>
              <LatitudeDegrees>42.390762828290462493896484375</LatitudeDegrees>
              <LongitudeDegrees>2.6723557524383068084716796875</LongitudeDegrees>
            </Position>
            <AltitudeMeters>984.5999755859375</AltitudeMeters>
            <DistanceMeters>NAN</DistanceMeters>
          </Trackpoint>
          <Trackpoint>
            <Time>2021-04-01T14:49:26.000Z</Time>
            <Position>
              <LatitudeDegrees>42.39075453020632266998291015625</LatitudeDegrees>
              <LongitudeDegrees>2.6723688282072544097900390625</LongitudeDegrees>
            </Position>
            <AltitudeMeters>985</AltitudeMeters>
            <DistanceMeters>NAN</DistanceMeters>
          </Trackpoint>
          <Trackpoint>
            <Time>2021-04-01T14:49:28.000Z</Time>
            <Position>
              <LatitudeDegrees>42.39074614830315113067626953125</LatitudeDegrees>
              <LongitudeDegrees>2.67238198779523372650146484375</LongitudeDegrees>
            </Position>
            <AltitudeMeters>985.20001220703125</AltitudeMeters>
            <DistanceMeters>NAN</DistanceMeters>
          </Trackpoint>
          <Trackpoint>
            <Time>2021-04-01T14:49:29.000Z</Time>
            <Position>
              <LatitudeDegrees>42.39073977805674076080322265625</LatitudeDegrees>
              <LongitudeDegrees>2.6723865978419780731201171875</LongitudeDegrees>
            </Position>
            <AltitudeMeters>985.4000244140625</AltitudeMeters>
            <DistanceMeters>NAN</DistanceMeters>
          </Trackpoint>
          <Trackpoint>
            <Time>2021-04-01T14:49:30.000Z</Time>
            <Position>
              <LatitudeDegrees>42.39073491655290126800537109375</LatitudeDegrees>
              <LongitudeDegrees>2.6723882742226123809814453125</LongitudeDegrees>
            </Position>
            <AltitudeMeters>985.4000244140625</AltitudeMeters>
            <DistanceMeters>NAN</DistanceMeters>
          </Trackpoint>
          <Trackpoint>
            <Time>2021-04-01T14:49:31.000Z</Time>
            <Position>
              <LatitudeDegrees>42.39073189906775951385498046875</LatitudeDegrees>
              <LongitudeDegrees>2.67239120788872241973876953125</LongitudeDegrees>
            </Position>
            <AltitudeMeters>985.5999755859375</AltitudeMeters>
            <DistanceMeters>NAN</DistanceMeters>
          </Trackpoint>
          <Trackpoint>
            <Time>2021-04-01T14:49:32.000Z</Time>
            <Position>
              <LatitudeDegrees>42.39072955213487148284912109375</LatitudeDegrees>
              <LongitudeDegrees>2.67239414155483245849609375</LongitudeDegrees>
            </Position>
            <AltitudeMeters>985.79998779296875</AltitudeMeters>
            <DistanceMeters>NAN</DistanceMeters>
          </Trackpoint>
          <Trackpoint>
            <Time>2021-04-01T14:49:34.000Z</Time>
            <Position>
              <LatitudeDegrees>42.39072452299296855926513671875</LatitudeDegrees>
              <LongitudeDegrees>2.6723949797451496124267578125</LongitudeDegrees>
            </Position>
            <AltitudeMeters>986</AltitudeMeters>
            <DistanceMeters>NAN</DistanceMeters>
          </Trackpoint>
          <Trackpoint>
            <Time>2021-04-01T14:49:37.000Z</Time>
            <Position>
              <LatitudeDegrees>42.39071295596659183502197265625</LatitudeDegrees>
              <LongitudeDegrees>2.67239472828805446624755859375</LongitudeDegrees>
            </Position>
            <AltitudeMeters>986.5999755859375</AltitudeMeters>
            <DistanceMeters>NAN</DistanceMeters>
          </Trackpoint>
          <Trackpoint>
            <Time>2021-04-01T14:49:41.000Z</Time>
            <Position>
              <LatitudeDegrees>42.390701472759246826171875</LatitudeDegrees>
              <LongitudeDegrees>2.6724016852676868438720703125</LongitudeDegrees>
            </Position>
            <AltitudeMeters>987.20001220703125</AltitudeMeters>
            <DistanceMeters>NAN</DistanceMeters>
          </Trackpoint>
          <Trackpoint>
            <Time>2021-04-01T14:49:44.000Z</Time>
            <Position>
              <LatitudeDegrees>42.39068982191383838653564453125</LatitudeDegrees>
              <LongitudeDegrees>2.67240545712411403656005859375</LongitudeDegrees>
            </Position>
            <AltitudeMeters>987.5999755859375</AltitudeMeters>
            <DistanceMeters>NAN</DistanceMeters>
          </Trackpoint>
          <Trackpoint>
            <Time>2021-04-01T14:49:48.000Z</Time>
            <Position>
              <LatitudeDegrees>42.3906704597175121307373046875</LatitudeDegrees>
              <LongitudeDegrees>2.67242037691175937652587890625</LongitudeDegrees>
            </Position>
            <AltitudeMeters>988.4000244140625</AltitudeMeters>
            <DistanceMeters>NAN</DistanceMeters>
          </Trackpoint>
          <Trackpoint>
            <Time>2021-04-01T14:49:53.000Z</Time>
            <Position>
              <LatitudeDegrees>42.39065126515924930572509765625</LatitudeDegrees>
              <LongitudeDegrees>2.6724546588957309722900390625</LongitudeDegrees>
            </Position>
            <AltitudeMeters>989</AltitudeMeters>
            <DistanceMeters>NAN</DistanceMeters>
          </Trackpoint>
          <Trackpoint>
            <Time>2021-04-01T14:49:55.000Z</Time>
            <Position>
              <LatitudeDegrees>42.39064154215157032012939453125</LatitudeDegrees>
              <LongitudeDegrees>2.67246077768504619598388671875</LongitudeDegrees>
            </Position>
            <AltitudeMeters>989.4000244140625</AltitudeMeters>
            <DistanceMeters>NAN</DistanceMeters>
          </Trackpoint>
          <Trackpoint>
            <Time>2021-04-01T14:50:02.000Z</Time>
            <Position>
              <LatitudeDegrees>42.3905956931412220001220703125</LatitudeDegrees>
              <LongitudeDegrees>2.672440744936466217041015625</LongitudeDegrees>
            </Position>
            <AltitudeMeters>990.20001220703125</AltitudeMeters>
            <DistanceMeters>NAN</DistanceMeters>
          </Trackpoint>
          <Trackpoint>
            <Time>2021-04-01T14:50:04.000Z</Time>
            <Position>
              <LatitudeDegrees>42.39058001898229122161865234375</LatitudeDegrees>
              <LongitudeDegrees>2.67243932001292705535888671875</LongitudeDegrees>
            </Position>
            <AltitudeMeters>990.4000244140625</AltitudeMeters>
            <DistanceMeters>NAN</DistanceMeters>
          </Trackpoint>
          <Trackpoint>
            <Time>2021-04-01T14:50:05.000Z</Time>
            <Position>
              <LatitudeDegrees>42.3905678652226924896240234375</LatitudeDegrees>
              <LongitudeDegrees>2.67243294976651668548583984375</LongitudeDegrees>
            </Position>
            <AltitudeMeters>990.4000244140625</AltitudeMeters>
            <DistanceMeters>NAN</DistanceMeters>
          </Trackpoint>
          <Trackpoint>
            <Time>2021-04-01T14:50:10.000Z</Time>
            <Position>
              <LatitudeDegrees>42.39053274504840373992919921875</LatitudeDegrees>
              <LongitudeDegrees>2.67243462614715099334716796875</LongitudeDegrees>
            </Position>
            <AltitudeMeters>991</AltitudeMeters>
            <DistanceMeters>NAN</DistanceMeters>
          </Trackpoint>
          <Trackpoint>
            <Time>2021-04-01T14:50:16.000Z</Time>
            <Position>
              <LatitudeDegrees>42.39047373645007610321044921875</LatitudeDegrees>
              <LongitudeDegrees>2.67242859117686748504638671875</LongitudeDegrees>
            </Position>
            <AltitudeMeters>991.5999755859375</AltitudeMeters>
            <DistanceMeters>NAN</DistanceMeters>
          </Trackpoint>
          <Trackpoint>
            <Time>2021-04-01T14:50:20.000Z</Time>
            <Position>
              <LatitudeDegrees>42.39043283276259899139404296875</LatitudeDegrees>
              <LongitudeDegrees>2.67241802997887134552001953125</LongitudeDegrees>
            </Position>
            <AltitudeMeters>991.5999755859375</AltitudeMeters>
            <DistanceMeters>NAN</DistanceMeters>
          </Trackpoint>
          <Trackpoint>
            <Time>2021-04-01T14:50:29.000Z</Time>
            <Position>
              <LatitudeDegrees>42.39038161933422088623046875</LatitudeDegrees>
              <LongitudeDegrees>2.672390453517436981201171875</LongitudeDegrees>
            </Position>
            <AltitudeMeters>992.20001220703125</AltitudeMeters>
            <DistanceMeters>NAN</DistanceMeters>
          </Trackpoint>
          <Trackpoint>
            <Time>2021-04-01T14:50:32.000Z</Time>
            <Position>
              <LatitudeDegrees>42.39035882055759429931640625</LatitudeDegrees>
              <LongitudeDegrees>2.67238584347069263458251953125</LongitudeDegrees>
            </Position>
            <AltitudeMeters>992</AltitudeMeters>
            <DistanceMeters>NAN</DistanceMeters>
          </Trackpoint>
          <Trackpoint>
            <Time>2021-04-01T14:50:34.000Z</Time>
            <Position>
              <LatitudeDegrees>42.39034079946577548980712890625</LatitudeDegrees>
              <LongitudeDegrees>2.672371678054332733154296875</LongitudeDegrees>
            </Position>
            <AltitudeMeters>991.79998779296875</AltitudeMeters>
            <DistanceMeters>NAN</DistanceMeters>
          </Trackpoint>
          <Trackpoint>
            <Time>2021-04-01T14:50:35.000Z</Time>
            <Position>
              <LatitudeDegrees>42.3903298191726207733154296875</LatitudeDegrees>
              <LongitudeDegrees>2.672362625598907470703125</LongitudeDegrees>
            </Position>
            <AltitudeMeters>991.5999755859375</AltitudeMeters>
            <DistanceMeters>NAN</DistanceMeters>
          </Trackpoint>
          <Trackpoint>
            <Time>2021-04-01T14:50:36.000Z</Time>
            <Position>
              <LatitudeDegrees>42.39032286219298839569091796875</LatitudeDegrees>
              <LongitudeDegrees>2.67235449515283107757568359375</LongitudeDegrees>
            </Position>
            <AltitudeMeters>991.4000244140625</AltitudeMeters>
            <DistanceMeters>NAN</DistanceMeters>
          </Trackpoint>
          <Trackpoint>
            <Time>2021-04-01T14:50:42.000Z</Time>
            <Position>
              <LatitudeDegrees>42.3902875743806362152099609375</LatitudeDegrees>
              <LongitudeDegrees>2.672317363321781158447265625</LongitudeDegrees>
            </Position>
            <AltitudeMeters>990.20001220703125</AltitudeMeters>
            <DistanceMeters>NAN</DistanceMeters>
          </Trackpoint>
          <Trackpoint>
            <Time>2021-04-01T14:50:45.000Z</Time>
            <Position>
              <LatitudeDegrees>42.39027642644941806793212890625</LatitudeDegrees>
              <LongitudeDegrees>2.6723004318773746490478515625</LongitudeDegrees>
            </Position>
            <AltitudeMeters>989.5999755859375</AltitudeMeters>
            <DistanceMeters>NAN</DistanceMeters>
          </Trackpoint>
          <Trackpoint>
            <Time>2021-04-01T14:50:46.000Z</Time>
            <Position>
              <LatitudeDegrees>42.39026972092688083648681640625</LatitudeDegrees>
              <LongitudeDegrees>2.6722967438399791717529296875</LongitudeDegrees>
            </Position>
            <AltitudeMeters>989.5999755859375</AltitudeMeters>
            <DistanceMeters>NAN</DistanceMeters>
          </Trackpoint>
          <Trackpoint>
            <Time>2021-04-01T14:50:48.000Z</Time>
            <Position>
              <LatitudeDegrees>42.390259914100170135498046875</LatitudeDegrees>
              <LongitudeDegrees>2.672289870679378509521484375</LongitudeDegrees>
            </Position>
            <AltitudeMeters>989.20001220703125</AltitudeMeters>
            <DistanceMeters>NAN</DistanceMeters>
          </Trackpoint>
          <Trackpoint>
            <Time>2021-04-01T14:50:50.000Z</Time>
            <Position>
              <LatitudeDegrees>42.39024993963539600372314453125</LatitudeDegrees>
              <LongitudeDegrees>2.67228978686034679412841796875</LongitudeDegrees>
            </Position>
            <AltitudeMeters>988.79998779296875</AltitudeMeters>
            <DistanceMeters>NAN</DistanceMeters>
          </Trackpoint>
          <Trackpoint>
            <Time>2021-04-01T14:50:53.000Z</Time>
            <Position>
              <LatitudeDegrees>42.39022781141102313995361328125</LatitudeDegrees>
              <LongitudeDegrees>2.67229758203029632568359375</LongitudeDegrees>
            </Position>
            <AltitudeMeters>988</AltitudeMeters>
            <DistanceMeters>NAN</DistanceMeters>
          </Trackpoint>
          <Trackpoint>
            <Time>2021-04-01T14:50:54.000Z</Time>
            <Position>
              <LatitudeDegrees>42.3902218602597713470458984375</LatitudeDegrees>
              <LongitudeDegrees>2.6722969114780426025390625</LongitudeDegrees>
            </Position>
            <AltitudeMeters>987.79998779296875</AltitudeMeters>
            <DistanceMeters>NAN</DistanceMeters>
          </Trackpoint>
          <Trackpoint>
            <Time>2021-04-01T14:50:56.000Z</Time>
            <Position>
              <LatitudeDegrees>42.39021523855626583099365234375</LatitudeDegrees>
              <LongitudeDegrees>2.6722927205264568328857421875</LongitudeDegrees>
            </Position>
            <AltitudeMeters>987.4000244140625</AltitudeMeters>
            <DistanceMeters>NAN</DistanceMeters>
          </Trackpoint>
          <Trackpoint>
            <Time>2021-04-01T14:50:59.000Z</Time>
            <Position>
              <LatitudeDegrees>42.39021171815693378448486328125</LatitudeDegrees>
              <LongitudeDegrees>2.67228660173714160919189453125</LongitudeDegrees>
            </Position>
            <AltitudeMeters>987</AltitudeMeters>
            <DistanceMeters>NAN</DistanceMeters>
          </Trackpoint>
          <Trackpoint>
            <Time>2021-04-01T14:51:00.000Z</Time>
            <Position>
              <LatitudeDegrees>42.39020467735826969146728515625</LatitudeDegrees>
              <LongitudeDegrees>2.6722809858620166778564453125</LongitudeDegrees>
            </Position>
            <AltitudeMeters>986.5999755859375</AltitudeMeters>
            <DistanceMeters>NAN</DistanceMeters>
          </Trackpoint>
          <Trackpoint>
            <Time>2021-04-01T14:51:01.000Z</Time>
            <Position>
              <LatitudeDegrees>42.39020015113055706024169921875</LatitudeDegrees>
              <LongitudeDegrees>2.6722754538059234619140625</LongitudeDegrees>
            </Position>
            <AltitudeMeters>986.4000244140625</AltitudeMeters>
            <DistanceMeters>NAN</DistanceMeters>
          </Trackpoint>
          <Trackpoint>
            <Time>2021-04-01T14:51:03.000Z</Time>
            <Position>
              <LatitudeDegrees>42.3901983909308910369873046875</LatitudeDegrees>
              <LongitudeDegrees>2.67227017320692539215087890625</LongitudeDegrees>
            </Position>
            <AltitudeMeters>985.79998779296875</AltitudeMeters>
            <DistanceMeters>NAN</DistanceMeters>
          </Trackpoint>
          <Trackpoint>
            <Time>2021-04-01T14:51:07.000Z</Time>
            <Position>
              <LatitudeDegrees>42.39019093103706836700439453125</LatitudeDegrees>
              <LongitudeDegrees>2.6722541637718677520751953125</LongitudeDegrees>
            </Position>
            <AltitudeMeters>985.5999755859375</AltitudeMeters>
            <DistanceMeters>NAN</DistanceMeters>
          </Trackpoint>
          <Trackpoint>
            <Time>2021-04-01T14:51:10.000Z</Time>
            <Position>
              <LatitudeDegrees>42.39018036983907222747802734375</LatitudeDegrees>
              <LongitudeDegrees>2.67223589122295379638671875</LongitudeDegrees>
            </Position>
            <AltitudeMeters>984.79998779296875</AltitudeMeters>
            <DistanceMeters>NAN</DistanceMeters>
          </Trackpoint>
          <Trackpoint>
            <Time>2021-04-01T14:51:13.000Z</Time>
            <Position>
              <LatitudeDegrees>42.39016301929950714111328125</LatitudeDegrees>
              <LongitudeDegrees>2.672222144901752471923828125</LongitudeDegrees>
            </Position>
            <AltitudeMeters>984.4000244140625</AltitudeMeters>
            <DistanceMeters>NAN</DistanceMeters>
          </Trackpoint>
          <Trackpoint>
            <Time>2021-04-01T14:51:14.000Z</Time>
            <Position>
              <LatitudeDegrees>42.39015857689082622528076171875</LatitudeDegrees>
              <LongitudeDegrees>2.67221753485500812530517578125</LongitudeDegrees>
            </Position>
            <AltitudeMeters>984.4000244140625</AltitudeMeters>
            <DistanceMeters>NAN</DistanceMeters>
          </Trackpoint>
          <Trackpoint>
            <Time>2021-04-01T14:51:17.000Z</Time>
            <Position>
              <LatitudeDegrees>42.3901457525789737701416015625</LatitudeDegrees>
              <LongitudeDegrees>2.67220814712345600128173828125</LongitudeDegrees>
            </Position>
            <AltitudeMeters>983.79998779296875</AltitudeMeters>
            <DistanceMeters>NAN</DistanceMeters>
          </Trackpoint>
          <Trackpoint>
            <Time>2021-04-01T14:51:22.000Z</Time>
            <Position>
              <LatitudeDegrees>42.39012286998331546783447265625</LatitudeDegrees>
              <LongitudeDegrees>2.67218585126101970672607421875</LongitudeDegrees>
            </Position>
            <AltitudeMeters>982.79998779296875</AltitudeMeters>
            <DistanceMeters>NAN</DistanceMeters>
          </Trackpoint>
          <Trackpoint>
            <Time>2021-04-01T14:51:24.000Z</Time>
            <Position>
              <LatitudeDegrees>42.39011599682271480560302734375</LatitudeDegrees>
              <LongitudeDegrees>2.67216690815985202789306640625</LongitudeDegrees>
            </Position>
            <AltitudeMeters>982.20001220703125</AltitudeMeters>
            <DistanceMeters>NAN</DistanceMeters>
          </Trackpoint>
          <Trackpoint>
            <Time>2021-04-01T14:51:26.000Z</Time>
            <Position>
              <LatitudeDegrees>42.39011339843273162841796875</LatitudeDegrees>
              <LongitudeDegrees>2.6721525751054286956787109375</LongitudeDegrees>
            </Position>
            <AltitudeMeters>981.4000244140625</AltitudeMeters>
            <DistanceMeters>NAN</DistanceMeters>
          </Trackpoint>
          <Trackpoint>
            <Time>2021-04-01T14:51:32.000Z</Time>
            <Position>
              <LatitudeDegrees>42.3900966346263885498046875</LatitudeDegrees>
              <LongitudeDegrees>2.6721046306192874908447265625</LongitudeDegrees>
            </Position>
            <AltitudeMeters>980.4000244140625</AltitudeMeters>
            <DistanceMeters>NAN</DistanceMeters>
          </Trackpoint>
          <Trackpoint>
            <Time>2021-04-01T14:51:35.000Z</Time>
            <Position>
              <LatitudeDegrees>42.39007718861103057861328125</LatitudeDegrees>
              <LongitudeDegrees>2.6720828376710414886474609375</LongitudeDegrees>
            </Position>
            <AltitudeMeters>979.5999755859375</AltitudeMeters>
            <DistanceMeters>NAN</DistanceMeters>
          </Trackpoint>
          <Trackpoint>
            <Time>2021-04-01T14:51:36.000Z</Time>
            <Position>
              <LatitudeDegrees>42.3900686390697956085205078125</LatitudeDegrees>
              <LongitudeDegrees>2.6720774732530117034912109375</LongitudeDegrees>
            </Position>
            <AltitudeMeters>979.5999755859375</AltitudeMeters>
            <DistanceMeters>NAN</DistanceMeters>
          </Trackpoint>
          <Trackpoint>
            <Time>2021-04-01T14:51:38.000Z</Time>
            <Position>
              <LatitudeDegrees>42.3900510370731353759765625</LatitudeDegrees>
              <LongitudeDegrees>2.67206682823598384857177734375</LongitudeDegrees>
            </Position>
            <AltitudeMeters>979.4000244140625</AltitudeMeters>
            <DistanceMeters>NAN</DistanceMeters>
          </Trackpoint>
          <Trackpoint>
            <Time>2021-04-01T14:51:41.000Z</Time>
            <Position>
              <LatitudeDegrees>42.3900206945836544036865234375</LatitudeDegrees>
              <LongitudeDegrees>2.67204972915351390838623046875</LongitudeDegrees>
            </Position>
            <AltitudeMeters>978.20001220703125</AltitudeMeters>
            <DistanceMeters>NAN</DistanceMeters>
          </Trackpoint>
          <Trackpoint>
            <Time>2021-04-01T14:51:42.000Z</Time>
            <Position>
              <LatitudeDegrees>42.3900126479566097259521484375</LatitudeDegrees>
              <LongitudeDegrees>2.67204822041094303131103515625</LongitudeDegrees>
            </Position>
            <AltitudeMeters>978</AltitudeMeters>
            <DistanceMeters>NAN</DistanceMeters>
          </Trackpoint>
          <Trackpoint>
            <Time>2021-04-01T14:51:43.000Z</Time>
            <Position>
              <LatitudeDegrees>42.39000334404408931732177734375</LatitudeDegrees>
              <LongitudeDegrees>2.67204470001161098480224609375</LongitudeDegrees>
            </Position>
            <AltitudeMeters>977.79998779296875</AltitudeMeters>
            <DistanceMeters>NAN</DistanceMeters>
          </Trackpoint>
          <Trackpoint>
            <Time>2021-04-01T14:51:45.000Z</Time>
            <Position>
              <LatitudeDegrees>42.3899908550083637237548828125</LatitudeDegrees>
              <LongitudeDegrees>2.67203497700393199920654296875</LongitudeDegrees>
            </Position>
            <AltitudeMeters>977</AltitudeMeters>
            <DistanceMeters>NAN</DistanceMeters>
          </Trackpoint>
          <Trackpoint>
            <Time>2021-04-01T14:51:49.000Z</Time>
            <Position>
              <LatitudeDegrees>42.38996394909918308258056640625</LatitudeDegrees>
              <LongitudeDegrees>2.672000192105770111083984375</LongitudeDegrees>
            </Position>
            <AltitudeMeters>976</AltitudeMeters>
            <DistanceMeters>NAN</DistanceMeters>
          </Trackpoint>
          <Trackpoint>
            <Time>2021-04-01T14:51:52.000Z</Time>
            <Position>
              <LatitudeDegrees>42.3899469338357448577880859375</LatitudeDegrees>
              <LongitudeDegrees>2.671978063881397247314453125</LongitudeDegrees>
            </Position>
            <AltitudeMeters>975.5999755859375</AltitudeMeters>
            <DistanceMeters>NAN</DistanceMeters>
          </Trackpoint>
          <Trackpoint>
            <Time>2021-04-01T14:51:55.000Z</Time>
            <Position>
              <LatitudeDegrees>42.389927990734577178955078125</LatitudeDegrees>
              <LongitudeDegrees>2.67196507193148136138916015625</LongitudeDegrees>
            </Position>
            <AltitudeMeters>974.79998779296875</AltitudeMeters>
            <DistanceMeters>NAN</DistanceMeters>
          </Trackpoint>
          <Trackpoint>
            <Time>2021-04-01T14:51:59.000Z</Time>
            <Position>
              <LatitudeDegrees>42.38991064019501209259033203125</LatitudeDegrees>
              <LongitudeDegrees>2.6719401776790618896484375</LongitudeDegrees>
            </Position>
            <AltitudeMeters>974</AltitudeMeters>
            <DistanceMeters>NAN</DistanceMeters>
          </Trackpoint>
          <Trackpoint>
            <Time>2021-04-01T14:52:01.000Z</Time>
            <Position>
              <LatitudeDegrees>42.38988532684743404388427734375</LatitudeDegrees>
              <LongitudeDegrees>2.67191243357956409454345703125</LongitudeDegrees>
            </Position>
            <AltitudeMeters>973.79998779296875</AltitudeMeters>
            <DistanceMeters>NAN</DistanceMeters>
          </Trackpoint>
          <Trackpoint>
            <Time>2021-04-01T14:52:05.000Z</Time>
            <Position>
              <LatitudeDegrees>42.38984811119735240936279296875</LatitudeDegrees>
              <LongitudeDegrees>2.6718776486814022064208984375</LongitudeDegrees>
            </Position>
            <AltitudeMeters>972.5999755859375</AltitudeMeters>
            <DistanceMeters>NAN</DistanceMeters>
          </Trackpoint>
          <Trackpoint>
            <Time>2021-04-01T14:52:07.000Z</Time>
            <Position>
              <LatitudeDegrees>42.38983402960002422332763671875</LatitudeDegrees>
              <LongitudeDegrees>2.6718612201511859893798828125</LongitudeDegrees>
            </Position>
            <AltitudeMeters>971.79998779296875</AltitudeMeters>
            <DistanceMeters>NAN</DistanceMeters>
          </Trackpoint>
          <Trackpoint>
            <Time>2021-04-01T14:52:09.000Z</Time>
            <Position>
              <LatitudeDegrees>42.38981835544109344482421875</LatitudeDegrees>
              <LongitudeDegrees>2.67185158096253871917724609375</LongitudeDegrees>
            </Position>
            <AltitudeMeters>971.5999755859375</AltitudeMeters>
            <DistanceMeters>NAN</DistanceMeters>
          </Trackpoint>
          <Trackpoint>
            <Time>2021-04-01T14:52:14.000Z</Time>
            <Position>
              <LatitudeDegrees>42.3897906951606273651123046875</LatitudeDegrees>
              <LongitudeDegrees>2.671833895146846771240234375</LongitudeDegrees>
            </Position>
            <AltitudeMeters>970.4000244140625</AltitudeMeters>
            <DistanceMeters>NAN</DistanceMeters>
          </Trackpoint>
          <Trackpoint>
            <Time>2021-04-01T14:52:15.000Z</Time>
            <Position>
              <LatitudeDegrees>42.389785833656787872314453125</LatitudeDegrees>
              <LongitudeDegrees>2.67182643525302410125732421875</LongitudeDegrees>
            </Position>
            <AltitudeMeters>970.20001220703125</AltitudeMeters>
            <DistanceMeters>NAN</DistanceMeters>
          </Trackpoint>
          <Trackpoint>
            <Time>2021-04-01T14:52:18.000Z</Time>
            <Position>
              <LatitudeDegrees>42.3897694051265716552734375</LatitudeDegrees>
              <LongitudeDegrees>2.671810090541839599609375</LongitudeDegrees>
            </Position>
            <AltitudeMeters>970</AltitudeMeters>
            <DistanceMeters>NAN</DistanceMeters>
          </Trackpoint>
          <Trackpoint>
            <Time>2021-04-01T14:52:19.000Z</Time>
            <Position>
              <LatitudeDegrees>42.3897655494511127471923828125</LatitudeDegrees>
              <LongitudeDegrees>2.6718045584857463836669921875</LongitudeDegrees>
            </Position>
            <AltitudeMeters>969.79998779296875</AltitudeMeters>
            <DistanceMeters>NAN</DistanceMeters>
          </Trackpoint>
          <Trackpoint>
            <Time>2021-04-01T14:52:21.000Z</Time>
            <Position>
              <LatitudeDegrees>42.38976538181304931640625</LatitudeDegrees>
              <LongitudeDegrees>2.67180346883833408355712890625</LongitudeDegrees>
            </Position>
            <AltitudeMeters>969.4000244140625</AltitudeMeters>
            <DistanceMeters>NAN</DistanceMeters>
          </Trackpoint>
          <Trackpoint>
            <Time>2021-04-01T14:52:23.000Z</Time>
            <Position>
              <LatitudeDegrees>42.3897668905556201934814453125</LatitudeDegrees>
              <LongitudeDegrees>2.6718035526573657989501953125</LongitudeDegrees>
            </Position>
            <AltitudeMeters>969.20001220703125</AltitudeMeters>
            <DistanceMeters>NAN</DistanceMeters>
          </Trackpoint>
          <Trackpoint>
            <Time>2021-04-01T14:52:31.000Z</Time>
            <Position>
              <LatitudeDegrees>42.3897709138691425323486328125</LatitudeDegrees>
              <LongitudeDegrees>2.6718008704483509063720703125</LongitudeDegrees>
            </Position>
            <AltitudeMeters>969.20001220703125</AltitudeMeters>
            <DistanceMeters>NAN</DistanceMeters>
          </Trackpoint>
          <Trackpoint>
            <Time>2021-04-01T14:52:36.000Z</Time>
            <Position>
              <LatitudeDegrees>42.3897705785930156707763671875</LatitudeDegrees>
              <LongitudeDegrees>2.671801708638668060302734375</LongitudeDegrees>
            </Position>
            <AltitudeMeters>969.4000244140625</AltitudeMeters>
            <DistanceMeters>NAN</DistanceMeters>
          </Trackpoint>
          <Trackpoint>
            <Time>2021-04-01T14:52:51.000Z</Time>
            <Position>
              <LatitudeDegrees>42.3897658847272396087646484375</LatitudeDegrees>
              <LongitudeDegrees>2.67180179245769977569580078125</LongitudeDegrees>
            </Position>
            <AltitudeMeters>968.20001220703125</AltitudeMeters>
            <DistanceMeters>NAN</DistanceMeters>
          </Trackpoint>
          <Trackpoint>
            <Time>2021-04-01T14:52:57.000Z</Time>
            <Position>
              <LatitudeDegrees>42.3897075466811656951904296875</LatitudeDegrees>
              <LongitudeDegrees>2.67176122404634952545166015625</LongitudeDegrees>
            </Position>
            <AltitudeMeters>967.20001220703125</AltitudeMeters>
            <DistanceMeters>NAN</DistanceMeters>
          </Trackpoint>
          <Trackpoint>
            <Time>2021-04-01T14:52:58.000Z</Time>
            <Position>
              <LatitudeDegrees>42.38969153724610805511474609375</LatitudeDegrees>
              <LongitudeDegrees>2.67175569199025630950927734375</LongitudeDegrees>
            </Position>
            <AltitudeMeters>966.79998779296875</AltitudeMeters>
            <DistanceMeters>NAN</DistanceMeters>
          </Trackpoint>
          <Trackpoint>
            <Time>2021-04-01T14:53:03.000Z</Time>
            <Position>
              <LatitudeDegrees>42.38965298049151897430419921875</LatitudeDegrees>
              <LongitudeDegrees>2.671729624271392822265625</LongitudeDegrees>
            </Position>
            <AltitudeMeters>966.4000244140625</AltitudeMeters>
            <DistanceMeters>NAN</DistanceMeters>
          </Trackpoint>
          <Trackpoint>
            <Time>2021-04-01T14:53:04.000Z</Time>
            <Position>
              <LatitudeDegrees>42.38965298049151897430419921875</LatitudeDegrees>
              <LongitudeDegrees>2.671728618443012237548828125</LongitudeDegrees>
            </Position>
            <AltitudeMeters>966.4000244140625</AltitudeMeters>
            <DistanceMeters>NAN</DistanceMeters>
          </Trackpoint>
          <Trackpoint>
            <Time>2021-04-01T14:53:11.000Z</Time>
            <Position>
              <LatitudeDegrees>42.3896535672247409820556640625</LatitudeDegrees>
              <LongitudeDegrees>2.671723254024982452392578125</LongitudeDegrees>
            </Position>
            <AltitudeMeters>966.20001220703125</AltitudeMeters>
            <DistanceMeters>NAN</DistanceMeters>
          </Trackpoint>
          <Trackpoint>
            <Time>2021-04-01T14:53:21.000Z</Time>
            <Position>
              <LatitudeDegrees>42.38963906653225421905517578125</LatitudeDegrees>
              <LongitudeDegrees>2.6716934144496917724609375</LongitudeDegrees>
            </Position>
            <AltitudeMeters>966</AltitudeMeters>
            <DistanceMeters>NAN</DistanceMeters>
          </Trackpoint>
          <Trackpoint>
            <Time>2021-04-01T14:53:22.000Z</Time>
            <Position>
              <LatitudeDegrees>42.3896327801048755645751953125</LatitudeDegrees>
              <LongitudeDegrees>2.67168427817523479461669921875</LongitudeDegrees>
            </Position>
            <AltitudeMeters>965.79998779296875</AltitudeMeters>
            <DistanceMeters>NAN</DistanceMeters>
          </Trackpoint>
          <Trackpoint>
            <Time>2021-04-01T14:53:26.000Z</Time>
            <Position>
              <LatitudeDegrees>42.3896004259586334228515625</LatitudeDegrees>
              <LongitudeDegrees>2.671645469963550567626953125</LongitudeDegrees>
            </Position>
            <AltitudeMeters>964.79998779296875</AltitudeMeters>
            <DistanceMeters>NAN</DistanceMeters>
          </Trackpoint>
          <Trackpoint>
            <Time>2021-04-01T14:53:32.000Z</Time>
            <Position>
              <LatitudeDegrees>42.3895345441997051239013671875</LatitudeDegrees>
              <LongitudeDegrees>2.671579755842685699462890625</LongitudeDegrees>
            </Position>
            <AltitudeMeters>963.5999755859375</AltitudeMeters>
            <DistanceMeters>NAN</DistanceMeters>
          </Trackpoint>
          <Trackpoint>
            <Time>2021-04-01T14:53:38.000Z</Time>
            <Position>
              <LatitudeDegrees>42.3894809000194072723388671875</LatitudeDegrees>
              <LongitudeDegrees>2.67152552492916584014892578125</LongitudeDegrees>
            </Position>
            <AltitudeMeters>962.5999755859375</AltitudeMeters>
            <DistanceMeters>NAN</DistanceMeters>
          </Trackpoint>
          <Trackpoint>
            <Time>2021-04-01T14:53:43.000Z</Time>
            <Position>
              <LatitudeDegrees>42.389435134828090667724609375</LatitudeDegrees>
              <LongitudeDegrees>2.67149199731647968292236328125</LongitudeDegrees>
            </Position>
            <AltitudeMeters>962</AltitudeMeters>
            <DistanceMeters>NAN</DistanceMeters>
          </Trackpoint>
          <Trackpoint>
            <Time>2021-04-01T14:53:45.000Z</Time>
            <Position>
              <LatitudeDegrees>42.38941962830722332000732421875</LatitudeDegrees>
              <LongitudeDegrees>2.67148143611848354339599609375</LongitudeDegrees>
            </Position>
            <AltitudeMeters>962</AltitudeMeters>
            <DistanceMeters>NAN</DistanceMeters>
          </Trackpoint>
          <Trackpoint>
            <Time>2021-04-01T14:53:46.000Z</Time>
            <Position>
              <LatitudeDegrees>42.3894059658050537109375</LatitudeDegrees>
              <LongitudeDegrees>2.67148110084235668182373046875</LongitudeDegrees>
            </Position>
            <AltitudeMeters>961.79998779296875</AltitudeMeters>
            <DistanceMeters>NAN</DistanceMeters>
          </Trackpoint>
          <Trackpoint>
            <Time>2021-04-01T14:53:47.000Z</Time>
            <Position>
              <LatitudeDegrees>42.3893933929502964019775390625</LatitudeDegrees>
              <LongitudeDegrees>2.671481184661388397216796875</LongitudeDegrees>
            </Position>
            <AltitudeMeters>961.5999755859375</AltitudeMeters>
            <DistanceMeters>NAN</DistanceMeters>
          </Trackpoint>
          <Trackpoint>
            <Time>2021-04-01T14:53:48.000Z</Time>
            <Position>
              <LatitudeDegrees>42.38938157446682453155517578125</LatitudeDegrees>
              <LongitudeDegrees>2.67148059792816638946533203125</LongitudeDegrees>
            </Position>
            <AltitudeMeters>961.5999755859375</AltitudeMeters>
            <DistanceMeters>NAN</DistanceMeters>
          </Trackpoint>
          <Trackpoint>
            <Time>2021-04-01T14:53:49.000Z</Time>
            <Position>
              <LatitudeDegrees>42.38937470130622386932373046875</LatitudeDegrees>
              <LongitudeDegrees>2.671481855213642120361328125</LongitudeDegrees>
            </Position>
            <AltitudeMeters>961.4000244140625</AltitudeMeters>
            <DistanceMeters>NAN</DistanceMeters>
          </Trackpoint>
          <Trackpoint>
            <Time>2021-04-01T14:53:51.000Z</Time>
            <Position>
              <LatitudeDegrees>42.38935969769954681396484375</LatitudeDegrees>
              <LongitudeDegrees>2.6714843697845935821533203125</LongitudeDegrees>
            </Position>
            <AltitudeMeters>961.20001220703125</AltitudeMeters>
            <DistanceMeters>NAN</DistanceMeters>
          </Trackpoint>
          <Trackpoint>
            <Time>2021-04-01T14:53:56.000Z</Time>
            <Position>
              <LatitudeDegrees>42.38929758779704570770263671875</LatitudeDegrees>
              <LongitudeDegrees>2.67147540114820003509521484375</LongitudeDegrees>
            </Position>
            <AltitudeMeters>960.5999755859375</AltitudeMeters>
            <DistanceMeters>NAN</DistanceMeters>
          </Trackpoint>
          <Trackpoint>
            <Time>2021-04-01T14:54:00.000Z</Time>
            <Position>
              <LatitudeDegrees>42.3892582766711711883544921875</LatitudeDegrees>
              <LongitudeDegrees>2.67148462124168872833251953125</LongitudeDegrees>
            </Position>
            <AltitudeMeters>960.4000244140625</AltitudeMeters>
            <DistanceMeters>NAN</DistanceMeters>
          </Trackpoint>
          <Trackpoint>
            <Time>2021-04-01T14:54:06.000Z</Time>
            <Position>
              <LatitudeDegrees>42.38918644376099109649658203125</LatitudeDegrees>
              <LongitudeDegrees>2.67150708474218845367431640625</LongitudeDegrees>
            </Position>
            <AltitudeMeters>960.79998779296875</AltitudeMeters>
            <DistanceMeters>NAN</DistanceMeters>
          </Trackpoint>
          <Trackpoint>
            <Time>2021-04-01T14:54:08.000Z</Time>
            <Position>
              <LatitudeDegrees>42.3891690932214260101318359375</LatitudeDegrees>
              <LongitudeDegrees>2.6715195737779140472412109375</LongitudeDegrees>
            </Position>
            <AltitudeMeters>961</AltitudeMeters>
            <DistanceMeters>NAN</DistanceMeters>
          </Trackpoint>
          <Trackpoint>
            <Time>2021-04-01T14:54:16.000Z</Time>
            <Position>
              <LatitudeDegrees>42.38909424282610416412353515625</LatitudeDegrees>
              <LongitudeDegrees>2.67153591848909854888916015625</LongitudeDegrees>
            </Position>
            <AltitudeMeters>961.4000244140625</AltitudeMeters>
            <DistanceMeters>NAN</DistanceMeters>
          </Trackpoint>
          <Trackpoint>
            <Time>2021-04-01T14:54:24.000Z</Time>
            <Position>
              <LatitudeDegrees>42.389024086296558380126953125</LatitudeDegrees>
              <LongitudeDegrees>2.67154597677290439605712890625</LongitudeDegrees>
            </Position>
            <AltitudeMeters>962.20001220703125</AltitudeMeters>
            <DistanceMeters>NAN</DistanceMeters>
          </Trackpoint>
          <Trackpoint>
            <Time>2021-04-01T14:54:28.000Z</Time>
            <Position>
              <LatitudeDegrees>42.388989217579364776611328125</LatitudeDegrees>
              <LongitudeDegrees>2.67153642140328884124755859375</LongitudeDegrees>
            </Position>
            <AltitudeMeters>962.4000244140625</AltitudeMeters>
            <DistanceMeters>NAN</DistanceMeters>
          </Trackpoint>
          <Trackpoint>
            <Time>2021-04-01T14:54:30.000Z</Time>
            <Position>
              <LatitudeDegrees>42.38897614181041717529296875</LatitudeDegrees>
              <LongitudeDegrees>2.67153357155621051788330078125</LongitudeDegrees>
            </Position>
            <AltitudeMeters>962.79998779296875</AltitudeMeters>
            <DistanceMeters>NAN</DistanceMeters>
          </Trackpoint>
          <Trackpoint>
            <Time>2021-04-01T14:54:32.000Z</Time>
            <Position>
              <LatitudeDegrees>42.38896080292761325836181640625</LatitudeDegrees>
              <LongitudeDegrees>2.6715373434126377105712890625</LongitudeDegrees>
            </Position>
            <AltitudeMeters>962.79998779296875</AltitudeMeters>
            <DistanceMeters>NAN</DistanceMeters>
          </Trackpoint>
          <Trackpoint>
            <Time>2021-04-01T14:54:34.000Z</Time>
            <Position>
              <LatitudeDegrees>42.38895158283412456512451171875</LatitudeDegrees>
              <LongitudeDegrees>2.67153994180262088775634765625</LongitudeDegrees>
            </Position>
            <AltitudeMeters>963</AltitudeMeters>
            <DistanceMeters>NAN</DistanceMeters>
          </Trackpoint>
          <Trackpoint>
            <Time>2021-04-01T14:54:36.000Z</Time>
            <Position>
              <LatitudeDegrees>42.388926856219768524169921875</LatitudeDegrees>
              <LongitudeDegrees>2.67153189517557621002197265625</LongitudeDegrees>
            </Position>
            <AltitudeMeters>963.20001220703125</AltitudeMeters>
            <DistanceMeters>NAN</DistanceMeters>
          </Trackpoint>
          <Trackpoint>
            <Time>2021-04-01T14:54:39.000Z</Time>
            <Position>
              <LatitudeDegrees>42.38890648819506168365478515625</LatitudeDegrees>
              <LongitudeDegrees>2.6715095154941082000732421875</LongitudeDegrees>
            </Position>
            <AltitudeMeters>963.5999755859375</AltitudeMeters>
            <DistanceMeters>NAN</DistanceMeters>
          </Trackpoint>
          <Trackpoint>
            <Time>2021-04-01T14:54:41.000Z</Time>
            <Position>
              <LatitudeDegrees>42.388889975845813751220703125</LatitudeDegrees>
              <LongitudeDegrees>2.671503983438014984130859375</LongitudeDegrees>
            </Position>
            <AltitudeMeters>963.79998779296875</AltitudeMeters>
            <DistanceMeters>NAN</DistanceMeters>
          </Trackpoint>
          <Trackpoint>
            <Time>2021-04-01T14:54:47.000Z</Time>
            <Position>
              <LatitudeDegrees>42.38884647376835346221923828125</LatitudeDegrees>
              <LongitudeDegrees>2.67150406725704669952392578125</LongitudeDegrees>
            </Position>
            <AltitudeMeters>964.20001220703125</AltitudeMeters>
            <DistanceMeters>NAN</DistanceMeters>
          </Trackpoint>
          <Trackpoint>
            <Time>2021-04-01T14:54:48.000Z</Time>
            <Position>
              <LatitudeDegrees>42.38883490674197673797607421875</LatitudeDegrees>
              <LongitudeDegrees>2.67150096595287322998046875</LongitudeDegrees>
            </Position>
            <AltitudeMeters>964.20001220703125</AltitudeMeters>
            <DistanceMeters>NAN</DistanceMeters>
          </Trackpoint>
          <Trackpoint>
            <Time>2021-04-01T14:54:50.000Z</Time>
            <Position>
              <LatitudeDegrees>42.38881931640207767486572265625</LatitudeDegrees>
              <LongitudeDegrees>2.67149652354419231414794921875</LongitudeDegrees>
            </Position>
            <AltitudeMeters>964.4000244140625</AltitudeMeters>
            <DistanceMeters>NAN</DistanceMeters>
          </Trackpoint>
          <Trackpoint>
            <Time>2021-04-01T14:54:52.000Z</Time>
            <Position>
              <LatitudeDegrees>42.38880422897636890411376953125</LatitudeDegrees>
              <LongitudeDegrees>2.67149954102933406829833984375</LongitudeDegrees>
            </Position>
            <AltitudeMeters>964.79998779296875</AltitudeMeters>
            <DistanceMeters>NAN</DistanceMeters>
          </Trackpoint>
          <Trackpoint>
            <Time>2021-04-01T14:54:59.000Z</Time>
            <Position>
              <LatitudeDegrees>42.388756535947322845458984375</LatitudeDegrees>
              <LongitudeDegrees>2.67149987630546092987060546875</LongitudeDegrees>
            </Position>
            <AltitudeMeters>965.5999755859375</AltitudeMeters>
            <DistanceMeters>NAN</DistanceMeters>
          </Trackpoint>
          <Trackpoint>
            <Time>2021-04-01T14:55:00.000Z</Time>
            <Position>
              <LatitudeDegrees>42.38874756731092929840087890625</LatitudeDegrees>
              <LongitudeDegrees>2.67149937339127063751220703125</LongitudeDegrees>
            </Position>
            <AltitudeMeters>965.79998779296875</AltitudeMeters>
            <DistanceMeters>NAN</DistanceMeters>
          </Trackpoint>
          <Trackpoint>
            <Time>2021-04-01T14:55:03.000Z</Time>
            <Position>
              <LatitudeDegrees>42.3887214995920658111572265625</LatitudeDegrees>
              <LongitudeDegrees>2.67149400897324085235595703125</LongitudeDegrees>
            </Position>
            <AltitudeMeters>966.20001220703125</AltitudeMeters>
            <DistanceMeters>NAN</DistanceMeters>
          </Trackpoint>
          <Trackpoint>
            <Time>2021-04-01T14:55:07.000Z</Time>
            <Position>
              <LatitudeDegrees>42.3886889778077602386474609375</LatitudeDegrees>
              <LongitudeDegrees>2.6714957691729068756103515625</LongitudeDegrees>
            </Position>
            <AltitudeMeters>967</AltitudeMeters>
            <DistanceMeters>NAN</DistanceMeters>
          </Trackpoint>
          <Trackpoint>
            <Time>2021-04-01T14:55:09.000Z</Time>
            <Position>
              <LatitudeDegrees>42.38867171108722686767578125</LatitudeDegrees>
              <LongitudeDegrees>2.6714920811355113983154296875</LongitudeDegrees>
            </Position>
            <AltitudeMeters>967.4000244140625</AltitudeMeters>
            <DistanceMeters>NAN</DistanceMeters>
          </Trackpoint>
          <Trackpoint>
            <Time>2021-04-01T14:55:13.000Z</Time>
            <Position>
              <LatitudeDegrees>42.3886353336274623870849609375</LatitudeDegrees>
              <LongitudeDegrees>2.671482525765895843505859375</LongitudeDegrees>
            </Position>
            <AltitudeMeters>968</AltitudeMeters>
            <DistanceMeters>NAN</DistanceMeters>
          </Trackpoint>
          <Trackpoint>
            <Time>2021-04-01T14:55:14.000Z</Time>
            <Position>
              <LatitudeDegrees>42.38862653262913227081298828125</LatitudeDegrees>
              <LongitudeDegrees>2.671480514109134674072265625</LongitudeDegrees>
            </Position>
            <AltitudeMeters>968</AltitudeMeters>
            <DistanceMeters>NAN</DistanceMeters>
          </Trackpoint>
          <Trackpoint>
            <Time>2021-04-01T14:55:16.000Z</Time>
            <Position>
              <LatitudeDegrees>42.38860373385250568389892578125</LatitudeDegrees>
              <LongitudeDegrees>2.6714736409485340118408203125</LongitudeDegrees>
            </Position>
            <AltitudeMeters>968</AltitudeMeters>
            <DistanceMeters>NAN</DistanceMeters>
          </Trackpoint>
          <Trackpoint>
            <Time>2021-04-01T14:55:22.000Z</Time>
            <Position>
              <LatitudeDegrees>42.38854698836803436279296875</LatitudeDegrees>
              <LongitudeDegrees>2.6714669354259967803955078125</LongitudeDegrees>
            </Position>
            <AltitudeMeters>968.5999755859375</AltitudeMeters>
            <DistanceMeters>NAN</DistanceMeters>
          </Trackpoint>
          <Trackpoint>
            <Time>2021-04-01T14:55:26.000Z</Time>
            <Position>
              <LatitudeDegrees>42.3885089345276355743408203125</LatitudeDegrees>
              <LongitudeDegrees>2.67145997844636440277099609375</LongitudeDegrees>
            </Position>
            <AltitudeMeters>969</AltitudeMeters>
            <DistanceMeters>NAN</DistanceMeters>
          </Trackpoint>
          <Trackpoint>
            <Time>2021-04-01T14:55:31.000Z</Time>
            <Position>
              <LatitudeDegrees>42.38845872692763805389404296875</LatitudeDegrees>
              <LongitudeDegrees>2.67145092599093914031982421875</LongitudeDegrees>
            </Position>
            <AltitudeMeters>969.20001220703125</AltitudeMeters>
            <DistanceMeters>NAN</DistanceMeters>
          </Trackpoint>
          <Trackpoint>
            <Time>2021-04-01T14:55:36.000Z</Time>
            <Position>
              <LatitudeDegrees>42.38842419348657131195068359375</LatitudeDegrees>
              <LongitudeDegrees>2.6714461483061313629150390625</LongitudeDegrees>
            </Position>
            <AltitudeMeters>969.5999755859375</AltitudeMeters>
            <DistanceMeters>NAN</DistanceMeters>
          </Trackpoint>
          <Trackpoint>
            <Time>2021-04-01T14:55:39.000Z</Time>
            <Position>
              <LatitudeDegrees>42.38839586265385150909423828125</LatitudeDegrees>
              <LongitudeDegrees>2.67145268619060516357421875</LongitudeDegrees>
            </Position>
            <AltitudeMeters>969.5999755859375</AltitudeMeters>
            <DistanceMeters>NAN</DistanceMeters>
          </Trackpoint>
          <Trackpoint>
            <Time>2021-04-01T14:55:43.000Z</Time>
            <Position>
              <LatitudeDegrees>42.388363592326641082763671875</LatitudeDegrees>
              <LongitudeDegrees>2.67145344056189060211181640625</LongitudeDegrees>
            </Position>
            <AltitudeMeters>969.79998779296875</AltitudeMeters>
            <DistanceMeters>NAN</DistanceMeters>
          </Trackpoint>
          <Trackpoint>
            <Time>2021-04-01T14:55:47.000Z</Time>
            <Position>
              <LatitudeDegrees>42.38832897506654262542724609375</LatitudeDegrees>
              <LongitudeDegrees>2.6714605651795864105224609375</LongitudeDegrees>
            </Position>
            <AltitudeMeters>970</AltitudeMeters>
            <DistanceMeters>NAN</DistanceMeters>
          </Trackpoint>
          <Trackpoint>
            <Time>2021-04-01T14:55:49.000Z</Time>
            <Position>
              <LatitudeDegrees>42.38831154070794582366943359375</LatitudeDegrees>
              <LongitudeDegrees>2.67146618105471134185791015625</LongitudeDegrees>
            </Position>
            <AltitudeMeters>970.20001220703125</AltitudeMeters>
            <DistanceMeters>NAN</DistanceMeters>
          </Trackpoint>
          <Trackpoint>
            <Time>2021-04-01T14:55:56.000Z</Time>
            <Position>
              <LatitudeDegrees>42.38826267421245574951171875</LatitudeDegrees>
              <LongitudeDegrees>2.6714598946273326873779296875</LongitudeDegrees>
            </Position>
            <AltitudeMeters>970.79998779296875</AltitudeMeters>
            <DistanceMeters>NAN</DistanceMeters>
          </Trackpoint>
          <Trackpoint>
            <Time>2021-04-01T14:55:57.000Z</Time>
            <Position>
              <LatitudeDegrees>42.388248257339000701904296875</LatitudeDegrees>
              <LongitudeDegrees>2.67145914025604724884033203125</LongitudeDegrees>
            </Position>
            <AltitudeMeters>971</AltitudeMeters>
            <DistanceMeters>NAN</DistanceMeters>
          </Trackpoint>
          <Trackpoint>
            <Time>2021-04-01T14:55:58.000Z</Time>
            <Position>
              <LatitudeDegrees>42.38824121654033660888671875</LatitudeDegrees>
              <LongitudeDegrees>2.67146341502666473388671875</LongitudeDegrees>
            </Position>
            <AltitudeMeters>971.20001220703125</AltitudeMeters>
            <DistanceMeters>NAN</DistanceMeters>
          </Trackpoint>
          <Trackpoint>
            <Time>2021-04-01T14:56:05.000Z</Time>
            <Position>
              <LatitudeDegrees>42.3881877399981021881103515625</LatitudeDegrees>
              <LongitudeDegrees>2.67146266065537929534912109375</LongitudeDegrees>
            </Position>
            <AltitudeMeters>971.79998779296875</AltitudeMeters>
            <DistanceMeters>NAN</DistanceMeters>
          </Trackpoint>
          <Trackpoint>
            <Time>2021-04-01T14:56:06.000Z</Time>
            <Position>
              <LatitudeDegrees>42.38817927427589893341064453125</LatitudeDegrees>
              <LongitudeDegrees>2.67145939171314239501953125</LongitudeDegrees>
            </Position>
            <AltitudeMeters>972.20001220703125</AltitudeMeters>
            <DistanceMeters>NAN</DistanceMeters>
          </Trackpoint>
          <Trackpoint>
            <Time>2021-04-01T14:56:07.000Z</Time>
            <Position>
              <LatitudeDegrees>42.38817013800144195556640625</LatitudeDegrees>
              <LongitudeDegrees>2.6714573800563812255859375</LongitudeDegrees>
            </Position>
            <AltitudeMeters>972.4000244140625</AltitudeMeters>
            <DistanceMeters>NAN</DistanceMeters>
          </Trackpoint>
          <Trackpoint>
            <Time>2021-04-01T14:56:08.000Z</Time>
            <Position>
              <LatitudeDegrees>42.3881619237363338470458984375</LatitudeDegrees>
              <LongitudeDegrees>2.67145645804703235626220703125</LongitudeDegrees>
            </Position>
            <AltitudeMeters>972.4000244140625</AltitudeMeters>
            <DistanceMeters>NAN</DistanceMeters>
          </Trackpoint>
          <Trackpoint>
            <Time>2021-04-01T14:56:13.000Z</Time>
            <Position>
              <LatitudeDegrees>42.388123534619808197021484375</LatitudeDegrees>
              <LongitudeDegrees>2.67144556157290935516357421875</LongitudeDegrees>
            </Position>
            <AltitudeMeters>973.20001220703125</AltitudeMeters>
            <DistanceMeters>NAN</DistanceMeters>
          </Trackpoint>
          <Trackpoint>
            <Time>2021-04-01T14:56:15.000Z</Time>
            <Position>
              <LatitudeDegrees>42.388110458850860595703125</LatitudeDegrees>
              <LongitudeDegrees>2.67144271172583103179931640625</LongitudeDegrees>
            </Position>
            <AltitudeMeters>973.4000244140625</AltitudeMeters>
            <DistanceMeters>NAN</DistanceMeters>
          </Trackpoint>
          <Trackpoint>
            <Time>2021-04-01T14:56:17.000Z</Time>
            <Position>
              <LatitudeDegrees>42.38809579052031040191650390625</LatitudeDegrees>
              <LongitudeDegrees>2.67144287936389446258544921875</LongitudeDegrees>
            </Position>
            <AltitudeMeters>973.79998779296875</AltitudeMeters>
            <DistanceMeters>NAN</DistanceMeters>
          </Trackpoint>
          <Trackpoint>
            <Time>2021-04-01T14:56:19.000Z</Time>
            <Position>
              <LatitudeDegrees>42.3880814574658870697021484375</LatitudeDegrees>
              <LongitudeDegrees>2.67144053243100643157958984375</LongitudeDegrees>
            </Position>
            <AltitudeMeters>974.20001220703125</AltitudeMeters>
            <DistanceMeters>NAN</DistanceMeters>
          </Trackpoint>
          <Trackpoint>
            <Time>2021-04-01T14:56:20.000Z</Time>
            <Position>
              <LatitudeDegrees>42.3880744166672229766845703125</LatitudeDegrees>
              <LongitudeDegrees>2.6714381016790866851806640625</LongitudeDegrees>
            </Position>
            <AltitudeMeters>974.4000244140625</AltitudeMeters>
            <DistanceMeters>NAN</DistanceMeters>
          </Trackpoint>
          <Trackpoint>
            <Time>2021-04-01T14:56:22.000Z</Time>
            <Position>
              <LatitudeDegrees>42.388057149946689605712890625</LatitudeDegrees>
              <LongitudeDegrees>2.6714354194700717926025390625</LongitudeDegrees>
            </Position>
            <AltitudeMeters>974.5999755859375</AltitudeMeters>
            <DistanceMeters>NAN</DistanceMeters>
          </Trackpoint>
          <Trackpoint>
            <Time>2021-04-01T14:56:29.000Z</Time>
            <Position>
              <LatitudeDegrees>42.3880251310765743255615234375</LatitudeDegrees>
              <LongitudeDegrees>2.67141438089311122894287109375</LongitudeDegrees>
            </Position>
            <AltitudeMeters>975.20001220703125</AltitudeMeters>
            <DistanceMeters>NAN</DistanceMeters>
          </Trackpoint>
          <Trackpoint>
            <Time>2021-04-01T14:56:30.000Z</Time>
            <Position>
              <LatitudeDegrees>42.38802270032465457916259765625</LatitudeDegrees>
              <LongitudeDegrees>2.67141052521765232086181640625</LongitudeDegrees>
            </Position>
            <AltitudeMeters>975.4000244140625</AltitudeMeters>
            <DistanceMeters>NAN</DistanceMeters>
          </Trackpoint>
          <Trackpoint>
            <Time>2021-04-01T14:56:31.000Z</Time>
            <Position>
              <LatitudeDegrees>42.38801549188792705535888671875</LatitudeDegrees>
              <LongitudeDegrees>2.671405412256717681884765625</LongitudeDegrees>
            </Position>
            <AltitudeMeters>975.5999755859375</AltitudeMeters>
            <DistanceMeters>NAN</DistanceMeters>
          </Trackpoint>
          <Trackpoint>
            <Time>2021-04-01T14:56:34.000Z</Time>
            <Position>
              <LatitudeDegrees>42.38799537532031536102294921875</LatitudeDegrees>
              <LongitudeDegrees>2.6714153029024600982666015625</LongitudeDegrees>
            </Position>
            <AltitudeMeters>976</AltitudeMeters>
            <DistanceMeters>NAN</DistanceMeters>
          </Trackpoint>
          <Trackpoint>
            <Time>2021-04-01T14:56:37.000Z</Time>
            <Position>
              <LatitudeDegrees>42.387968637049198150634765625</LatitudeDegrees>
              <LongitudeDegrees>2.671418823301792144775390625</LongitudeDegrees>
            </Position>
            <AltitudeMeters>976.5999755859375</AltitudeMeters>
            <DistanceMeters>NAN</DistanceMeters>
          </Trackpoint>
          <Trackpoint>
            <Time>2021-04-01T14:56:38.000Z</Time>
            <Position>
              <LatitudeDegrees>42.3879607580602169036865234375</LatitudeDegrees>
              <LongitudeDegrees>2.671418152749538421630859375</LongitudeDegrees>
            </Position>
            <AltitudeMeters>976.5999755859375</AltitudeMeters>
            <DistanceMeters>NAN</DistanceMeters>
          </Trackpoint>
          <Trackpoint>
            <Time>2021-04-01T14:56:40.000Z</Time>
            <Position>
              <LatitudeDegrees>42.38794994540512561798095703125</LatitudeDegrees>
              <LongitudeDegrees>2.6714176498353481292724609375</LongitudeDegrees>
            </Position>
            <AltitudeMeters>976.79998779296875</AltitudeMeters>
            <DistanceMeters>NAN</DistanceMeters>
          </Trackpoint>
          <Trackpoint>
            <Time>2021-04-01T14:56:43.000Z</Time>
            <Position>
              <LatitudeDegrees>42.3879279009997844696044921875</LatitudeDegrees>
              <LongitudeDegrees>2.67142477445304393768310546875</LongitudeDegrees>
            </Position>
            <AltitudeMeters>977.4000244140625</AltitudeMeters>
            <DistanceMeters>NAN</DistanceMeters>
          </Trackpoint>
          <Trackpoint>
            <Time>2021-04-01T14:56:45.000Z</Time>
            <Position>
              <LatitudeDegrees>42.3879161663353443145751953125</LatitudeDegrees>
              <LongitudeDegrees>2.67142494209110736846923828125</LongitudeDegrees>
            </Position>
            <AltitudeMeters>977.5999755859375</AltitudeMeters>
            <DistanceMeters>NAN</DistanceMeters>
          </Trackpoint>
          <Trackpoint>
            <Time>2021-04-01T14:56:50.000Z</Time>
            <Position>
              <LatitudeDegrees>42.38788758404552936553955078125</LatitudeDegrees>
              <LongitudeDegrees>2.67143198288977146148681640625</LongitudeDegrees>
            </Position>
            <AltitudeMeters>978.20001220703125</AltitudeMeters>
            <DistanceMeters>NAN</DistanceMeters>
          </Trackpoint>
          <Trackpoint>
            <Time>2021-04-01T14:56:52.000Z</Time>
            <Position>
              <LatitudeDegrees>42.38787182606756687164306640625</LatitudeDegrees>
              <LongitudeDegrees>2.67142745666205883026123046875</LongitudeDegrees>
            </Position>
            <AltitudeMeters>978.5999755859375</AltitudeMeters>
            <DistanceMeters>NAN</DistanceMeters>
          </Trackpoint>
          <Trackpoint>
            <Time>2021-04-01T14:56:58.000Z</Time>
            <Position>
              <LatitudeDegrees>42.38784022629261016845703125</LatitudeDegrees>
              <LongitudeDegrees>2.67141957767307758331298828125</LongitudeDegrees>
            </Position>
            <AltitudeMeters>979.5999755859375</AltitudeMeters>
            <DistanceMeters>NAN</DistanceMeters>
          </Trackpoint>
          <Trackpoint>
            <Time>2021-04-01T14:57:06.000Z</Time>
            <Position>
              <LatitudeDegrees>42.3878113925457000732421875</LatitudeDegrees>
              <LongitudeDegrees>2.6714220084249973297119140625</LongitudeDegrees>
            </Position>
            <AltitudeMeters>980.79998779296875</AltitudeMeters>
            <DistanceMeters>NAN</DistanceMeters>
          </Trackpoint>
          <Trackpoint>
            <Time>2021-04-01T14:57:07.000Z</Time>
            <Position>
              <LatitudeDegrees>42.38780912943184375762939453125</LatitudeDegrees>
              <LongitudeDegrees>2.6714263670146465301513671875</LongitudeDegrees>
            </Position>
            <AltitudeMeters>981</AltitudeMeters>
            <DistanceMeters>NAN</DistanceMeters>
          </Trackpoint>
          <Trackpoint>
            <Time>2021-04-01T14:57:13.000Z</Time>
            <Position>
              <LatitudeDegrees>42.38776780664920806884765625</LatitudeDegrees>
              <LongitudeDegrees>2.67144656740128993988037109375</LongitudeDegrees>
            </Position>
            <AltitudeMeters>981.79998779296875</AltitudeMeters>
            <DistanceMeters>NAN</DistanceMeters>
          </Trackpoint>
          <Trackpoint>
            <Time>2021-04-01T14:57:16.000Z</Time>
            <Position>
              <LatitudeDegrees>42.38774945028126239776611328125</LatitudeDegrees>
              <LongitudeDegrees>2.6714386045932769775390625</LongitudeDegrees>
            </Position>
            <AltitudeMeters>982.4000244140625</AltitudeMeters>
            <DistanceMeters>NAN</DistanceMeters>
          </Trackpoint>
          <Trackpoint>
            <Time>2021-04-01T14:57:20.000Z</Time>
            <Position>
              <LatitudeDegrees>42.387723885476589202880859375</LatitudeDegrees>
              <LongitudeDegrees>2.671413123607635498046875</LongitudeDegrees>
            </Position>
            <AltitudeMeters>983</AltitudeMeters>
            <DistanceMeters>NAN</DistanceMeters>
          </Trackpoint>
          <Trackpoint>
            <Time>2021-04-01T14:57:28.000Z</Time>
            <Position>
              <LatitudeDegrees>42.38768423907458782196044921875</LatitudeDegrees>
              <LongitudeDegrees>2.6713688671588897705078125</LongitudeDegrees>
            </Position>
            <AltitudeMeters>984</AltitudeMeters>
            <DistanceMeters>NAN</DistanceMeters>
          </Trackpoint>
          <Trackpoint>
            <Time>2021-04-01T14:57:30.000Z</Time>
            <Position>
              <LatitudeDegrees>42.3876844905316829681396484375</LatitudeDegrees>
              <LongitudeDegrees>2.6713623292744159698486328125</LongitudeDegrees>
            </Position>
            <AltitudeMeters>984</AltitudeMeters>
            <DistanceMeters>NAN</DistanceMeters>
          </Trackpoint>
          <Trackpoint>
            <Time>2021-04-01T14:57:35.000Z</Time>
            <Position>
              <LatitudeDegrees>42.38768273033201694488525390625</LatitudeDegrees>
              <LongitudeDegrees>2.67135755158960819244384765625</LongitudeDegrees>
            </Position>
            <AltitudeMeters>984</AltitudeMeters>
            <DistanceMeters>NAN</DistanceMeters>
          </Trackpoint>
          <Trackpoint>
            <Time>2021-04-01T14:57:43.000Z</Time>
            <Position>
              <LatitudeDegrees>42.38763235509395599365234375</LatitudeDegrees>
              <LongitudeDegrees>2.671313546597957611083984375</LongitudeDegrees>
            </Position>
            <AltitudeMeters>983.4000244140625</AltitudeMeters>
            <DistanceMeters>NAN</DistanceMeters>
          </Trackpoint>
          <Trackpoint>
            <Time>2021-04-01T14:57:46.000Z</Time>
            <Position>
              <LatitudeDegrees>42.387616932392120361328125</LatitudeDegrees>
              <LongitudeDegrees>2.67130139283835887908935546875</LongitudeDegrees>
            </Position>
            <AltitudeMeters>982.79998779296875</AltitudeMeters>
            <DistanceMeters>NAN</DistanceMeters>
          </Trackpoint>
          <Trackpoint>
            <Time>2021-04-01T14:57:51.000Z</Time>
            <Position>
              <LatitudeDegrees>42.3875855840742588043212890625</LatitudeDegrees>
              <LongitudeDegrees>2.6712590642273426055908203125</LongitudeDegrees>
            </Position>
            <AltitudeMeters>981.5999755859375</AltitudeMeters>
            <DistanceMeters>NAN</DistanceMeters>
          </Trackpoint>
          <Trackpoint>
            <Time>2021-04-01T14:57:52.000Z</Time>
            <Position>
              <LatitudeDegrees>42.38758005201816558837890625</LatitudeDegrees>
              <LongitudeDegrees>2.6712490059435367584228515625</LongitudeDegrees>
            </Position>
            <AltitudeMeters>981.4000244140625</AltitudeMeters>
            <DistanceMeters>NAN</DistanceMeters>
          </Trackpoint>
          <Trackpoint>
            <Time>2021-04-01T14:57:58.000Z</Time>
            <Position>
              <LatitudeDegrees>42.387548871338367462158203125</LatitudeDegrees>
              <LongitudeDegrees>2.6711752451956272125244140625</LongitudeDegrees>
            </Position>
            <AltitudeMeters>980.5999755859375</AltitudeMeters>
            <DistanceMeters>NAN</DistanceMeters>
          </Trackpoint>
          <Trackpoint>
            <Time>2021-04-01T14:58:02.000Z</Time>
            <Position>
              <LatitudeDegrees>42.38753118552267551422119140625</LatitudeDegrees>
              <LongitudeDegrees>2.67113995738327503204345703125</LongitudeDegrees>
            </Position>
            <AltitudeMeters>979.79998779296875</AltitudeMeters>
            <DistanceMeters>NAN</DistanceMeters>
          </Trackpoint>
          <Trackpoint>
            <Time>2021-04-01T14:58:04.000Z</Time>
            <Position>
              <LatitudeDegrees>42.3875272460281848907470703125</LatitudeDegrees>
              <LongitudeDegrees>2.6711301505565643310546875</LongitudeDegrees>
            </Position>
            <AltitudeMeters>979.4000244140625</AltitudeMeters>
            <DistanceMeters>NAN</DistanceMeters>
          </Trackpoint>
          <Trackpoint>
            <Time>2021-04-01T14:58:11.000Z</Time>
            <Position>
              <LatitudeDegrees>42.38751375116407871246337890625</LatitudeDegrees>
              <LongitudeDegrees>2.671043314039707183837890625</LongitudeDegrees>
            </Position>
            <AltitudeMeters>978.4000244140625</AltitudeMeters>
            <DistanceMeters>NAN</DistanceMeters>
          </Trackpoint>
          <Trackpoint>
            <Time>2021-04-01T14:58:12.000Z</Time>
            <Position>
              <LatitudeDegrees>42.3875118233263492584228515625</LatitudeDegrees>
              <LongitudeDegrees>2.67103384248912334442138671875</LongitudeDegrees>
            </Position>
            <AltitudeMeters>978.20001220703125</AltitudeMeters>
            <DistanceMeters>NAN</DistanceMeters>
          </Trackpoint>
          <Trackpoint>
            <Time>2021-04-01T14:58:17.000Z</Time>
            <Position>
              <LatitudeDegrees>42.38749464042484760284423828125</LatitudeDegrees>
              <LongitudeDegrees>2.67097122967243194580078125</LongitudeDegrees>
            </Position>
            <AltitudeMeters>977.20001220703125</AltitudeMeters>
            <DistanceMeters>NAN</DistanceMeters>
          </Trackpoint>
          <Trackpoint>
            <Time>2021-04-01T14:58:22.000Z</Time>
            <Position>
              <LatitudeDegrees>42.38747670315206050872802734375</LatitudeDegrees>
              <LongitudeDegrees>2.67090962268412113189697265625</LongitudeDegrees>
            </Position>
            <AltitudeMeters>976.20001220703125</AltitudeMeters>
            <DistanceMeters>NAN</DistanceMeters>
          </Trackpoint>
          <Trackpoint>
            <Time>2021-04-01T14:58:23.000Z</Time>
            <Position>
              <LatitudeDegrees>42.38747083581984043121337890625</LatitudeDegrees>
              <LongitudeDegrees>2.67090149223804473876953125</LongitudeDegrees>
            </Position>
            <AltitudeMeters>976</AltitudeMeters>
            <DistanceMeters>NAN</DistanceMeters>
          </Trackpoint>
          <Trackpoint>
            <Time>2021-04-01T14:58:24.000Z</Time>
            <Position>
              <LatitudeDegrees>42.38746605813503265380859375</LatitudeDegrees>
              <LongitudeDegrees>2.670895121991634368896484375</LongitudeDegrees>
            </Position>
            <AltitudeMeters>975.79998779296875</AltitudeMeters>
            <DistanceMeters>NAN</DistanceMeters>
          </Trackpoint>
          <Trackpoint>
            <Time>2021-04-01T14:58:25.000Z</Time>
            <Position>
              <LatitudeDegrees>42.38746144808828830718994140625</LatitudeDegrees>
              <LongitudeDegrees>2.6708882488310337066650390625</LongitudeDegrees>
            </Position>
            <AltitudeMeters>975.79998779296875</AltitudeMeters>
            <DistanceMeters>NAN</DistanceMeters>
          </Trackpoint>
          <Trackpoint>
            <Time>2021-04-01T14:58:26.000Z</Time>
            <Position>
              <LatitudeDegrees>42.38745507784187793731689453125</LatitudeDegrees>
              <LongitudeDegrees>2.67088045366108417510986328125</LongitudeDegrees>
            </Position>
            <AltitudeMeters>975.5999755859375</AltitudeMeters>
            <DistanceMeters>NAN</DistanceMeters>
          </Trackpoint>
          <Trackpoint>
            <Time>2021-04-01T14:58:28.000Z</Time>
            <Position>
              <LatitudeDegrees>42.3874464444816112518310546875</LatitudeDegrees>
              <LongitudeDegrees>2.6708600856363773345947265625</LongitudeDegrees>
            </Position>
            <AltitudeMeters>975.5999755859375</AltitudeMeters>
            <DistanceMeters>NAN</DistanceMeters>
          </Trackpoint>
          <Trackpoint>
            <Time>2021-04-01T14:58:29.000Z</Time>
            <Position>
              <LatitudeDegrees>42.38744116388261318206787109375</LatitudeDegrees>
              <LongitudeDegrees>2.670846171677112579345703125</LongitudeDegrees>
            </Position>
            <AltitudeMeters>975</AltitudeMeters>
            <DistanceMeters>NAN</DistanceMeters>
          </Trackpoint>
          <Trackpoint>
            <Time>2021-04-01T14:58:31.000Z</Time>
            <Position>
              <LatitudeDegrees>42.38743118941783905029296875</LatitudeDegrees>
              <LongitudeDegrees>2.67082362435758113861083984375</LongitudeDegrees>
            </Position>
            <AltitudeMeters>974.20001220703125</AltitudeMeters>
            <DistanceMeters>NAN</DistanceMeters>
          </Trackpoint>
          <Trackpoint>
            <Time>2021-04-01T14:58:33.000Z</Time>
            <Position>
              <LatitudeDegrees>42.38741953857243061065673828125</LatitudeDegrees>
              <LongitudeDegrees>2.6708020828664302825927734375</LongitudeDegrees>
            </Position>
            <AltitudeMeters>973.79998779296875</AltitudeMeters>
            <DistanceMeters>NAN</DistanceMeters>
          </Trackpoint>
          <Trackpoint>
            <Time>2021-04-01T14:58:37.000Z</Time>
            <Position>
              <LatitudeDegrees>42.38740093074738979339599609375</LatitudeDegrees>
              <LongitudeDegrees>2.67076210118830204010009765625</LongitudeDegrees>
            </Position>
            <AltitudeMeters>972.5999755859375</AltitudeMeters>
            <DistanceMeters>NAN</DistanceMeters>
          </Trackpoint>
          <Trackpoint>
            <Time>2021-04-01T14:58:40.000Z</Time>
            <Position>
              <LatitudeDegrees>42.3873884417116641998291015625</LatitudeDegrees>
              <LongitudeDegrees>2.67074734903872013092041015625</LongitudeDegrees>
            </Position>
            <AltitudeMeters>972</AltitudeMeters>
            <DistanceMeters>NAN</DistanceMeters>
          </Trackpoint>
          <Trackpoint>
            <Time>2021-04-01T14:58:42.000Z</Time>
            <Position>
              <LatitudeDegrees>42.38737729378044605255126953125</LatitudeDegrees>
              <LongitudeDegrees>2.670736871659755706787109375</LongitudeDegrees>
            </Position>
            <AltitudeMeters>971.79998779296875</AltitudeMeters>
            <DistanceMeters>NAN</DistanceMeters>
          </Trackpoint>
          <Trackpoint>
            <Time>2021-04-01T14:58:43.000Z</Time>
            <Position>
              <LatitudeDegrees>42.387374527752399444580078125</LatitudeDegrees>
              <LongitudeDegrees>2.67072957940399646759033203125</LongitudeDegrees>
            </Position>
            <AltitudeMeters>971.5999755859375</AltitudeMeters>
            <DistanceMeters>NAN</DistanceMeters>
          </Trackpoint>
          <Trackpoint>
            <Time>2021-04-01T14:58:45.000Z</Time>
            <Position>
              <LatitudeDegrees>42.38736237399280071258544921875</LatitudeDegrees>
              <LongitudeDegrees>2.6707144081592559814453125</LongitudeDegrees>
            </Position>
            <AltitudeMeters>971.20001220703125</AltitudeMeters>
            <DistanceMeters>NAN</DistanceMeters>
          </Trackpoint>
          <Trackpoint>
            <Time>2021-04-01T14:58:50.000Z</Time>
            <Position>
              <LatitudeDegrees>42.387359105050563812255859375</LatitudeDegrees>
              <LongitudeDegrees>2.67069957219064235687255859375</LongitudeDegrees>
            </Position>
            <AltitudeMeters>970.5999755859375</AltitudeMeters>
            <DistanceMeters>NAN</DistanceMeters>
          </Trackpoint>
          <Trackpoint>
            <Time>2021-04-01T14:58:51.000Z</Time>
            <Position>
              <LatitudeDegrees>42.38735315389931201934814453125</LatitudeDegrees>
              <LongitudeDegrees>2.670692615211009979248046875</LongitudeDegrees>
            </Position>
            <AltitudeMeters>970.4000244140625</AltitudeMeters>
            <DistanceMeters>NAN</DistanceMeters>
          </Trackpoint>
          <Trackpoint>
            <Time>2021-04-01T14:58:57.000Z</Time>
            <Position>
              <LatitudeDegrees>42.387326918542385101318359375</LatitudeDegrees>
              <LongitudeDegrees>2.67064257524907588958740234375</LongitudeDegrees>
            </Position>
            <AltitudeMeters>969.4000244140625</AltitudeMeters>
            <DistanceMeters>NAN</DistanceMeters>
          </Trackpoint>
          <Trackpoint>
            <Time>2021-04-01T14:58:59.000Z</Time>
            <Position>
              <LatitudeDegrees>42.3873178660869598388671875</LatitudeDegrees>
              <LongitudeDegrees>2.67062522470951080322265625</LongitudeDegrees>
            </Position>
            <AltitudeMeters>969</AltitudeMeters>
            <DistanceMeters>NAN</DistanceMeters>
          </Trackpoint>
          <Trackpoint>
            <Time>2021-04-01T14:59:02.000Z</Time>
            <Position>
              <LatitudeDegrees>42.38730571232736110687255859375</LatitudeDegrees>
              <LongitudeDegrees>2.67059530131518840789794921875</LongitudeDegrees>
            </Position>
            <AltitudeMeters>968</AltitudeMeters>
            <DistanceMeters>NAN</DistanceMeters>
          </Trackpoint>
          <Trackpoint>
            <Time>2021-04-01T14:59:07.000Z</Time>
            <Position>
              <LatitudeDegrees>42.3872928880155086517333984375</LatitudeDegrees>
              <LongitudeDegrees>2.67053344286978244781494140625</LongitudeDegrees>
            </Position>
            <AltitudeMeters>966.79998779296875</AltitudeMeters>
            <DistanceMeters>NAN</DistanceMeters>
          </Trackpoint>
          <Trackpoint>
            <Time>2021-04-01T14:59:12.000Z</Time>
            <Position>
              <LatitudeDegrees>42.38727025687694549560546875</LatitudeDegrees>
              <LongitudeDegrees>2.67047074623405933380126953125</LongitudeDegrees>
            </Position>
            <AltitudeMeters>965.5999755859375</AltitudeMeters>
            <DistanceMeters>NAN</DistanceMeters>
          </Trackpoint>
          <Trackpoint>
            <Time>2021-04-01T14:59:16.000Z</Time>
            <Position>
              <LatitudeDegrees>42.38726086914539337158203125</LatitudeDegrees>
              <LongitudeDegrees>2.67041509039700031280517578125</LongitudeDegrees>
            </Position>
            <AltitudeMeters>964.5999755859375</AltitudeMeters>
            <DistanceMeters>NAN</DistanceMeters>
          </Trackpoint>
          <Trackpoint>
            <Time>2021-04-01T14:59:21.000Z</Time>
            <Position>
              <LatitudeDegrees>42.38725240342319011688232421875</LatitudeDegrees>
              <LongitudeDegrees>2.6703504659235477447509765625</LongitudeDegrees>
            </Position>
            <AltitudeMeters>963.20001220703125</AltitudeMeters>
            <DistanceMeters>NAN</DistanceMeters>
          </Trackpoint>
          <Trackpoint>
            <Time>2021-04-01T14:59:24.000Z</Time>
            <Position>
              <LatitudeDegrees>42.3872534930706024169921875</LatitudeDegrees>
              <LongitudeDegrees>2.67031610012054443359375</LongitudeDegrees>
            </Position>
            <AltitudeMeters>962.5999755859375</AltitudeMeters>
            <DistanceMeters>NAN</DistanceMeters>
          </Trackpoint>
          <Trackpoint>
            <Time>2021-04-01T14:59:27.000Z</Time>
            <Position>
              <LatitudeDegrees>42.38725122995674610137939453125</LatitudeDegrees>
              <LongitudeDegrees>2.6702750287950038909912109375</LongitudeDegrees>
            </Position>
            <AltitudeMeters>962.20001220703125</AltitudeMeters>
            <DistanceMeters>NAN</DistanceMeters>
          </Trackpoint>
          <Trackpoint>
            <Time>2021-04-01T14:59:32.000Z</Time>
            <Position>
              <LatitudeDegrees>42.387257516384124755859375</LatitudeDegrees>
              <LongitudeDegrees>2.67020545899868011474609375</LongitudeDegrees>
            </Position>
            <AltitudeMeters>961</AltitudeMeters>
            <DistanceMeters>NAN</DistanceMeters>
          </Trackpoint>
          <Trackpoint>
            <Time>2021-04-01T14:59:35.000Z</Time>
            <Position>
              <LatitudeDegrees>42.3872580192983150482177734375</LatitudeDegrees>
              <LongitudeDegrees>2.67016899771988391876220703125</LongitudeDegrees>
            </Position>
            <AltitudeMeters>960.20001220703125</AltitudeMeters>
            <DistanceMeters>NAN</DistanceMeters>
          </Trackpoint>
          <Trackpoint>
            <Time>2021-04-01T14:59:37.000Z</Time>
            <Position>
              <LatitudeDegrees>42.38726447336375713348388671875</LatitudeDegrees>
              <LongitudeDegrees>2.670140080153942108154296875</LongitudeDegrees>
            </Position>
            <AltitudeMeters>959.79998779296875</AltitudeMeters>
            <DistanceMeters>NAN</DistanceMeters>
          </Trackpoint>
          <Trackpoint>
            <Time>2021-04-01T14:59:42.000Z</Time>
            <Position>
              <LatitudeDegrees>42.387274615466594696044921875</LatitudeDegrees>
              <LongitudeDegrees>2.670079059898853302001953125</LongitudeDegrees>
            </Position>
            <AltitudeMeters>958.79998779296875</AltitudeMeters>
            <DistanceMeters>NAN</DistanceMeters>
          </Trackpoint>
          <Trackpoint>
            <Time>2021-04-01T14:59:43.000Z</Time>
            <Position>
              <LatitudeDegrees>42.38727293908596038818359375</LatitudeDegrees>
              <LongitudeDegrees>2.67006590031087398529052734375</LongitudeDegrees>
            </Position>
            <AltitudeMeters>958.4000244140625</AltitudeMeters>
            <DistanceMeters>NAN</DistanceMeters>
          </Trackpoint>
          <Trackpoint>
            <Time>2021-04-01T14:59:44.000Z</Time>
            <Position>
              <LatitudeDegrees>42.387269921600818634033203125</LatitudeDegrees>
              <LongitudeDegrees>2.6700527407228946685791015625</LongitudeDegrees>
            </Position>
            <AltitudeMeters>958.20001220703125</AltitudeMeters>
            <DistanceMeters>NAN</DistanceMeters>
          </Trackpoint>
          <Trackpoint>
            <Time>2021-04-01T14:59:46.000Z</Time>
            <Position>
              <LatitudeDegrees>42.38726732321083545684814453125</LatitudeDegrees>
              <LongitudeDegrees>2.6700376532971858978271484375</LongitudeDegrees>
            </Position>
            <AltitudeMeters>957.5999755859375</AltitudeMeters>
            <DistanceMeters>NAN</DistanceMeters>
          </Trackpoint>
          <Trackpoint>
            <Time>2021-04-01T14:59:48.000Z</Time>
            <Position>
              <LatitudeDegrees>42.3872600309550762176513671875</LatitudeDegrees>
              <LongitudeDegrees>2.6699940674006938934326171875</LongitudeDegrees>
            </Position>
            <AltitudeMeters>957.4000244140625</AltitudeMeters>
            <DistanceMeters>NAN</DistanceMeters>
          </Trackpoint>
          <Trackpoint>
            <Time>2021-04-01T14:59:50.000Z</Time>
            <Position>
              <LatitudeDegrees>42.3872570134699344635009765625</LatitudeDegrees>
              <LongitudeDegrees>2.66997755505144596099853515625</LongitudeDegrees>
            </Position>
            <AltitudeMeters>956.5999755859375</AltitudeMeters>
            <DistanceMeters>NAN</DistanceMeters>
          </Trackpoint>
          <Trackpoint>
            <Time>2021-04-01T14:59:52.000Z</Time>
            <Position>
              <LatitudeDegrees>42.387251816689968109130859375</LatitudeDegrees>
              <LongitudeDegrees>2.66995861195027828216552734375</LongitudeDegrees>
            </Position>
            <AltitudeMeters>956.20001220703125</AltitudeMeters>
            <DistanceMeters>NAN</DistanceMeters>
          </Trackpoint>
          <Trackpoint>
            <Time>2021-04-01T14:59:56.000Z</Time>
            <Position>
              <LatitudeDegrees>42.38723815418779850006103515625</LatitudeDegrees>
              <LongitudeDegrees>2.669916115701198577880859375</LongitudeDegrees>
            </Position>
            <AltitudeMeters>955.4000244140625</AltitudeMeters>
            <DistanceMeters>NAN</DistanceMeters>
          </Trackpoint>
          <Trackpoint>
            <Time>2021-04-01T15:00:01.000Z</Time>
            <Position>
              <LatitudeDegrees>42.38721250556409358978271484375</LatitudeDegrees>
              <LongitudeDegrees>2.669860459864139556884765625</LongitudeDegrees>
            </Position>
            <AltitudeMeters>954.79998779296875</AltitudeMeters>
            <DistanceMeters>NAN</DistanceMeters>
          </Trackpoint>
          <Trackpoint>
            <Time>2021-04-01T15:00:03.000Z</Time>
            <Position>
              <LatitudeDegrees>42.387198507785797119140625</LatitudeDegrees>
              <LongitudeDegrees>2.6698351465165615081787109375</LongitudeDegrees>
            </Position>
            <AltitudeMeters>954.4000244140625</AltitudeMeters>
            <DistanceMeters>NAN</DistanceMeters>
          </Trackpoint>
          <Trackpoint>
            <Time>2021-04-01T15:00:05.000Z</Time>
            <Position>
              <LatitudeDegrees>42.3871849291026592254638671875</LatitudeDegrees>
              <LongitudeDegrees>2.66980849206447601318359375</LongitudeDegrees>
            </Position>
            <AltitudeMeters>954</AltitudeMeters>
            <DistanceMeters>NAN</DistanceMeters>
          </Trackpoint>
          <Trackpoint>
            <Time>2021-04-01T15:00:07.000Z</Time>
            <Position>
              <LatitudeDegrees>42.3871703445911407470703125</LatitudeDegrees>
              <LongitudeDegrees>2.66978225670754909515380859375</LongitudeDegrees>
            </Position>
            <AltitudeMeters>953.4000244140625</AltitudeMeters>
            <DistanceMeters>NAN</DistanceMeters>
          </Trackpoint>
          <Trackpoint>
            <Time>2021-04-01T15:00:11.000Z</Time>
            <Position>
              <LatitudeDegrees>42.38713405095040798187255859375</LatitudeDegrees>
              <LongitudeDegrees>2.6697473041713237762451171875</LongitudeDegrees>
            </Position>
            <AltitudeMeters>952.5999755859375</AltitudeMeters>
            <DistanceMeters>NAN</DistanceMeters>
          </Trackpoint>
          <Trackpoint>
            <Time>2021-04-01T15:00:12.000Z</Time>
            <Position>
              <LatitudeDegrees>42.38712809979915618896484375</LatitudeDegrees>
              <LongitudeDegrees>2.66973875463008880615234375</LongitudeDegrees>
            </Position>
            <AltitudeMeters>952.20001220703125</AltitudeMeters>
            <DistanceMeters>NAN</DistanceMeters>
          </Trackpoint>
          <Trackpoint>
            <Time>2021-04-01T15:00:16.000Z</Time>
            <Position>
              <LatitudeDegrees>42.387095578014850616455078125</LatitudeDegrees>
              <LongitudeDegrees>2.669711597263813018798828125</LongitudeDegrees>
            </Position>
            <AltitudeMeters>951</AltitudeMeters>
            <DistanceMeters>NAN</DistanceMeters>
          </Trackpoint>
          <Trackpoint>
            <Time>2021-04-01T15:00:18.000Z</Time>
            <Position>
              <LatitudeDegrees>42.38708023913204669952392578125</LatitudeDegrees>
              <LongitudeDegrees>2.6696970127522945404052734375</LongitudeDegrees>
            </Position>
            <AltitudeMeters>950.4000244140625</AltitudeMeters>
            <DistanceMeters>NAN</DistanceMeters>
          </Trackpoint>
          <Trackpoint>
            <Time>2021-04-01T15:00:20.000Z</Time>
            <Position>
              <LatitudeDegrees>42.38707118667662143707275390625</LatitudeDegrees>
              <LongitudeDegrees>2.66969315707683563232421875</LongitudeDegrees>
            </Position>
            <AltitudeMeters>949.79998779296875</AltitudeMeters>
            <DistanceMeters>NAN</DistanceMeters>
          </Trackpoint>
          <Trackpoint>
            <Time>2021-04-01T15:00:25.000Z</Time>
            <Position>
              <LatitudeDegrees>42.38699398934841156005859375</LatitudeDegrees>
              <LongitudeDegrees>2.66967446543276309967041015625</LongitudeDegrees>
            </Position>
            <AltitudeMeters>948.79998779296875</AltitudeMeters>
            <DistanceMeters>NAN</DistanceMeters>
          </Trackpoint>
          <Trackpoint>
            <Time>2021-04-01T15:00:26.000Z</Time>
            <Position>
              <LatitudeDegrees>42.38698502071201801300048828125</LatitudeDegrees>
              <LongitudeDegrees>2.6696728728711605072021484375</LongitudeDegrees>
            </Position>
            <AltitudeMeters>948.5999755859375</AltitudeMeters>
            <DistanceMeters>NAN</DistanceMeters>
          </Trackpoint>
          <Trackpoint>
            <Time>2021-04-01T15:00:30.000Z</Time>
            <Position>
              <LatitudeDegrees>42.38694612868130207061767578125</LatitudeDegrees>
              <LongitudeDegrees>2.66965921036899089813232421875</LongitudeDegrees>
            </Position>
            <AltitudeMeters>948</AltitudeMeters>
            <DistanceMeters>NAN</DistanceMeters>
          </Trackpoint>
          <Trackpoint>
            <Time>2021-04-01T15:00:33.000Z</Time>
            <Position>
              <LatitudeDegrees>42.3869130201637744903564453125</LatitudeDegrees>
              <LongitudeDegrees>2.66965694725513458251953125</LongitudeDegrees>
            </Position>
            <AltitudeMeters>947.79998779296875</AltitudeMeters>
            <DistanceMeters>NAN</DistanceMeters>
          </Trackpoint>
          <Trackpoint>
            <Time>2021-04-01T15:00:35.000Z</Time>
            <Position>
              <LatitudeDegrees>42.3868996091187000274658203125</LatitudeDegrees>
              <LongitudeDegrees>2.66965300776064395904541015625</LongitudeDegrees>
            </Position>
            <AltitudeMeters>947.5999755859375</AltitudeMeters>
            <DistanceMeters>NAN</DistanceMeters>
          </Trackpoint>
          <Trackpoint>
            <Time>2021-04-01T15:00:37.000Z</Time>
            <Position>
              <LatitudeDegrees>42.3868885450065135955810546875</LatitudeDegrees>
              <LongitudeDegrees>2.669658623635768890380859375</LongitudeDegrees>
            </Position>
            <AltitudeMeters>947.5999755859375</AltitudeMeters>
            <DistanceMeters>NAN</DistanceMeters>
          </Trackpoint>
          <Trackpoint>
            <Time>2021-04-01T15:00:46.000Z</Time>
            <Position>
              <LatitudeDegrees>42.3868278600275516510009765625</LatitudeDegrees>
              <LongitudeDegrees>2.66971671022474765777587890625</LongitudeDegrees>
            </Position>
            <AltitudeMeters>947</AltitudeMeters>
            <DistanceMeters>NAN</DistanceMeters>
          </Trackpoint>
          <Trackpoint>
            <Time>2021-04-01T15:00:47.000Z</Time>
            <Position>
              <LatitudeDegrees>42.3868107609450817108154296875</LatitudeDegrees>
              <LongitudeDegrees>2.66972173936665058135986328125</LongitudeDegrees>
            </Position>
            <AltitudeMeters>947</AltitudeMeters>
            <DistanceMeters>NAN</DistanceMeters>
          </Trackpoint>
          <Trackpoint>
            <Time>2021-04-01T15:00:49.000Z</Time>
            <Position>
              <LatitudeDegrees>42.38679257221519947052001953125</LatitudeDegrees>
              <LongitudeDegrees>2.66972601413726806640625</LongitudeDegrees>
            </Position>
            <AltitudeMeters>947</AltitudeMeters>
            <DistanceMeters>NAN</DistanceMeters>
          </Trackpoint>
          <Trackpoint>
            <Time>2021-04-01T15:00:54.000Z</Time>
            <Position>
              <LatitudeDegrees>42.386742532253265380859375</LatitudeDegrees>
              <LongitudeDegrees>2.6697137765586376190185546875</LongitudeDegrees>
            </Position>
            <AltitudeMeters>947</AltitudeMeters>
            <DistanceMeters>NAN</DistanceMeters>
          </Trackpoint>
          <Trackpoint>
            <Time>2021-04-01T15:01:04.000Z</Time>
            <Position>
              <LatitudeDegrees>42.38664773292839527130126953125</LatitudeDegrees>
              <LongitudeDegrees>2.6696576178073883056640625</LongitudeDegrees>
            </Position>
            <AltitudeMeters>947.20001220703125</AltitudeMeters>
            <DistanceMeters>NAN</DistanceMeters>
          </Trackpoint>
          <Trackpoint>
            <Time>2021-04-01T15:01:07.000Z</Time>
            <Position>
              <LatitudeDegrees>42.3866407759487628936767578125</LatitudeDegrees>
              <LongitudeDegrees>2.66964496113359928131103515625</LongitudeDegrees>
            </Position>
            <AltitudeMeters>947.20001220703125</AltitudeMeters>
            <DistanceMeters>NAN</DistanceMeters>
          </Trackpoint>
          <Trackpoint>
            <Time>2021-04-01T15:01:10.000Z</Time>
            <Position>
              <LatitudeDegrees>42.386637590825557708740234375</LatitudeDegrees>
              <LongitudeDegrees>2.66964764334261417388916015625</LongitudeDegrees>
            </Position>
            <AltitudeMeters>947.20001220703125</AltitudeMeters>
            <DistanceMeters>NAN</DistanceMeters>
          </Trackpoint>
          <Trackpoint>
            <Time>2021-04-01T15:01:12.000Z</Time>
            <Position>
              <LatitudeDegrees>42.3866256885230541229248046875</LatitudeDegrees>
              <LongitudeDegrees>2.6696406863629817962646484375</LongitudeDegrees>
            </Position>
            <AltitudeMeters>947.20001220703125</AltitudeMeters>
            <DistanceMeters>NAN</DistanceMeters>
          </Trackpoint>
          <Trackpoint>
            <Time>2021-04-01T15:01:17.000Z</Time>
            <Position>
              <LatitudeDegrees>42.38657665438950061798095703125</LatitudeDegrees>
              <LongitudeDegrees>2.66962417401373386383056640625</LongitudeDegrees>
            </Position>
            <AltitudeMeters>947.20001220703125</AltitudeMeters>
            <DistanceMeters>NAN</DistanceMeters>
          </Trackpoint>
          <Trackpoint>
            <Time>2021-04-01T15:01:27.000Z</Time>
            <Position>
              <LatitudeDegrees>42.38648931495845317840576171875</LatitudeDegrees>
              <LongitudeDegrees>2.66956181265413761138916015625</LongitudeDegrees>
            </Position>
            <AltitudeMeters>947</AltitudeMeters>
            <DistanceMeters>NAN</DistanceMeters>
          </Trackpoint>
          <Trackpoint>
            <Time>2021-04-01T15:01:28.000Z</Time>
            <Position>
              <LatitudeDegrees>42.386482022702693939208984375</LatitudeDegrees>
              <LongitudeDegrees>2.66955426894128322601318359375</LongitudeDegrees>
            </Position>
            <AltitudeMeters>947</AltitudeMeters>
            <DistanceMeters>NAN</DistanceMeters>
          </Trackpoint>
          <Trackpoint>
            <Time>2021-04-01T15:01:33.000Z</Time>
            <Position>
              <LatitudeDegrees>42.38644371740520000457763671875</LatitudeDegrees>
              <LongitudeDegrees>2.66950984485447406768798828125</LongitudeDegrees>
            </Position>
            <AltitudeMeters>946.79998779296875</AltitudeMeters>
            <DistanceMeters>NAN</DistanceMeters>
          </Trackpoint>
          <Trackpoint>
            <Time>2021-04-01T15:01:40.000Z</Time>
            <Position>
              <LatitudeDegrees>42.3863966949284076690673828125</LatitudeDegrees>
              <LongitudeDegrees>2.66943164169788360595703125</LongitudeDegrees>
            </Position>
            <AltitudeMeters>947</AltitudeMeters>
            <DistanceMeters>NAN</DistanceMeters>
          </Trackpoint>
          <Trackpoint>
            <Time>2021-04-01T15:01:46.000Z</Time>
            <Position>
              <LatitudeDegrees>42.3863651789724826812744140625</LatitudeDegrees>
              <LongitudeDegrees>2.66936684958636760711669921875</LongitudeDegrees>
            </Position>
            <AltitudeMeters>947.4000244140625</AltitudeMeters>
            <DistanceMeters>NAN</DistanceMeters>
          </Trackpoint>
          <Trackpoint>
            <Time>2021-04-01T15:01:52.000Z</Time>
            <Position>
              <LatitudeDegrees>42.38635268993675708770751953125</LatitudeDegrees>
              <LongitudeDegrees>2.66929208301007747650146484375</LongitudeDegrees>
            </Position>
            <AltitudeMeters>947.4000244140625</AltitudeMeters>
            <DistanceMeters>NAN</DistanceMeters>
          </Trackpoint>
          <Trackpoint>
            <Time>2021-04-01T15:02:04.000Z</Time>
            <Position>
              <LatitudeDegrees>42.3863453976809978485107421875</LatitudeDegrees>
              <LongitudeDegrees>2.6691347546875476837158203125</LongitudeDegrees>
            </Position>
            <AltitudeMeters>947.5999755859375</AltitudeMeters>
            <DistanceMeters>NAN</DistanceMeters>
          </Trackpoint>
          <Trackpoint>
            <Time>2021-04-01T15:02:08.000Z</Time>
            <Position>
              <LatitudeDegrees>42.3863510973751544952392578125</LatitudeDegrees>
              <LongitudeDegrees>2.669086642563343048095703125</LongitudeDegrees>
            </Position>
            <AltitudeMeters>947.79998779296875</AltitudeMeters>
            <DistanceMeters>NAN</DistanceMeters>
          </Trackpoint>
          <Trackpoint>
            <Time>2021-04-01T15:02:14.000Z</Time>
            <Position>
              <LatitudeDegrees>42.386377416551113128662109375</LatitudeDegrees>
              <LongitudeDegrees>2.669028975069522857666015625</LongitudeDegrees>
            </Position>
            <AltitudeMeters>948</AltitudeMeters>
            <DistanceMeters>NAN</DistanceMeters>
          </Trackpoint>
          <Trackpoint>
            <Time>2021-04-01T15:02:21.000Z</Time>
            <Position>
              <LatitudeDegrees>42.38641287200152873992919921875</LatitudeDegrees>
              <LongitudeDegrees>2.6689493469893932342529296875</LongitudeDegrees>
            </Position>
            <AltitudeMeters>948.4000244140625</AltitudeMeters>
            <DistanceMeters>NAN</DistanceMeters>
          </Trackpoint>
          <Trackpoint>
            <Time>2021-04-01T15:02:27.000Z</Time>
            <Position>
              <LatitudeDegrees>42.38644279539585113525390625</LatitudeDegrees>
              <LongitudeDegrees>2.66887910664081573486328125</LongitudeDegrees>
            </Position>
            <AltitudeMeters>948.79998779296875</AltitudeMeters>
            <DistanceMeters>NAN</DistanceMeters>
          </Trackpoint>
          <Trackpoint>
            <Time>2021-04-01T15:02:29.000Z</Time>
            <Position>
              <LatitudeDegrees>42.38645578734576702117919921875</LatitudeDegrees>
              <LongitudeDegrees>2.66885521821677684783935546875</LongitudeDegrees>
            </Position>
            <AltitudeMeters>948.79998779296875</AltitudeMeters>
            <DistanceMeters>NAN</DistanceMeters>
          </Trackpoint>
          <Trackpoint>
            <Time>2021-04-01T15:02:35.000Z</Time>
            <Position>
              <LatitudeDegrees>42.38649333827197551727294921875</LatitudeDegrees>
              <LongitudeDegrees>2.66879520379006862640380859375</LongitudeDegrees>
            </Position>
            <AltitudeMeters>948.79998779296875</AltitudeMeters>
            <DistanceMeters>NAN</DistanceMeters>
          </Trackpoint>
          <Trackpoint>
            <Time>2021-04-01T15:02:43.000Z</Time>
            <Position>
              <LatitudeDegrees>42.3865438811480998992919921875</LatitudeDegrees>
              <LongitudeDegrees>2.66872177831828594207763671875</LongitudeDegrees>
            </Position>
            <AltitudeMeters>948.5999755859375</AltitudeMeters>
            <DistanceMeters>NAN</DistanceMeters>
          </Trackpoint>
          <Trackpoint>
            <Time>2021-04-01T15:02:49.000Z</Time>
            <Position>
              <LatitudeDegrees>42.3865797556936740875244140625</LatitudeDegrees>
              <LongitudeDegrees>2.6686506159603595733642578125</LongitudeDegrees>
            </Position>
            <AltitudeMeters>948.20001220703125</AltitudeMeters>
            <DistanceMeters>NAN</DistanceMeters>
          </Trackpoint>
          <Trackpoint>
            <Time>2021-04-01T15:02:51.000Z</Time>
            <Position>
              <LatitudeDegrees>42.38658201880753040313720703125</LatitudeDegrees>
              <LongitudeDegrees>2.66863779164850711822509765625</LongitudeDegrees>
            </Position>
            <AltitudeMeters>948</AltitudeMeters>
            <DistanceMeters>NAN</DistanceMeters>
          </Trackpoint>
          <Trackpoint>
            <Time>2021-04-01T15:02:58.000Z</Time>
            <Position>
              <LatitudeDegrees>42.38659299910068511962890625</LatitudeDegrees>
              <LongitudeDegrees>2.668526060879230499267578125</LongitudeDegrees>
            </Position>
            <AltitudeMeters>947.5999755859375</AltitudeMeters>
            <DistanceMeters>NAN</DistanceMeters>
          </Trackpoint>
          <Trackpoint>
            <Time>2021-04-01T15:03:02.000Z</Time>
            <Position>
              <LatitudeDegrees>42.38658302463591098785400390625</LatitudeDegrees>
              <LongitudeDegrees>2.668468393385410308837890625</LongitudeDegrees>
            </Position>
            <AltitudeMeters>947.5999755859375</AltitudeMeters>
            <DistanceMeters>NAN</DistanceMeters>
          </Trackpoint>
          <Trackpoint>
            <Time>2021-04-01T15:03:12.000Z</Time>
            <Position>
              <LatitudeDegrees>42.3865105211734771728515625</LatitudeDegrees>
              <LongitudeDegrees>2.66835548914968967437744140625</LongitudeDegrees>
            </Position>
            <AltitudeMeters>947.20001220703125</AltitudeMeters>
            <DistanceMeters>NAN</DistanceMeters>
          </Trackpoint>
          <Trackpoint>
            <Time>2021-04-01T15:03:20.000Z</Time>
            <Position>
              <LatitudeDegrees>42.3864486627280712127685546875</LatitudeDegrees>
              <LongitudeDegrees>2.66827024519443511962890625</LongitudeDegrees>
            </Position>
            <AltitudeMeters>946.5999755859375</AltitudeMeters>
            <DistanceMeters>NAN</DistanceMeters>
          </Trackpoint>
          <Trackpoint>
            <Time>2021-04-01T15:03:21.000Z</Time>
            <Position>
              <LatitudeDegrees>42.38644304685294628143310546875</LatitudeDegrees>
              <LongitudeDegrees>2.66826177947223186492919921875</LongitudeDegrees>
            </Position>
            <AltitudeMeters>946.5999755859375</AltitudeMeters>
            <DistanceMeters>NAN</DistanceMeters>
          </Trackpoint>
          <Trackpoint>
            <Time>2021-04-01T15:03:22.000Z</Time>
            <Position>
              <LatitudeDegrees>42.3864375986158847808837890625</LatitudeDegrees>
              <LongitudeDegrees>2.6682499609887599945068359375</LongitudeDegrees>
            </Position>
            <AltitudeMeters>946.5999755859375</AltitudeMeters>
            <DistanceMeters>NAN</DistanceMeters>
          </Trackpoint>
          <Trackpoint>
            <Time>2021-04-01T15:03:29.000Z</Time>
            <Position>
              <LatitudeDegrees>42.3864060826599597930908203125</LatitudeDegrees>
              <LongitudeDegrees>2.66815599985420703887939453125</LongitudeDegrees>
            </Position>
            <AltitudeMeters>946.20001220703125</AltitudeMeters>
            <DistanceMeters>NAN</DistanceMeters>
          </Trackpoint>
          <Trackpoint>
            <Time>2021-04-01T15:03:34.000Z</Time>
            <Position>
              <LatitudeDegrees>42.3863913305103778839111328125</LatitudeDegrees>
              <LongitudeDegrees>2.66809263266623020172119140625</LongitudeDegrees>
            </Position>
            <AltitudeMeters>946</AltitudeMeters>
            <DistanceMeters>NAN</DistanceMeters>
          </Trackpoint>
          <Trackpoint>
            <Time>2021-04-01T15:03:41.000Z</Time>
            <Position>
              <LatitudeDegrees>42.3863735608756542205810546875</LatitudeDegrees>
              <LongitudeDegrees>2.6679874397814273834228515625</LongitudeDegrees>
            </Position>
            <AltitudeMeters>946</AltitudeMeters>
            <DistanceMeters>NAN</DistanceMeters>
          </Trackpoint>
          <Trackpoint>
            <Time>2021-04-01T15:03:43.000Z</Time>
            <Position>
              <LatitudeDegrees>42.386370040476322174072265625</LatitudeDegrees>
              <LongitudeDegrees>2.66795366071164608001708984375</LongitudeDegrees>
            </Position>
            <AltitudeMeters>946</AltitudeMeters>
            <DistanceMeters>NAN</DistanceMeters>
          </Trackpoint>
          <Trackpoint>
            <Time>2021-04-01T15:03:44.000Z</Time>
            <Position>
              <LatitudeDegrees>42.386368699371814727783203125</LatitudeDegrees>
              <LongitudeDegrees>2.6679405011236667633056640625</LongitudeDegrees>
            </Position>
            <AltitudeMeters>946</AltitudeMeters>
            <DistanceMeters>NAN</DistanceMeters>
          </Trackpoint>
          <Trackpoint>
            <Time>2021-04-01T15:03:51.000Z</Time>
            <Position>
              <LatitudeDegrees>42.386382780969142913818359375</LatitudeDegrees>
              <LongitudeDegrees>2.66784511506557464599609375</LongitudeDegrees>
            </Position>
            <AltitudeMeters>945.79998779296875</AltitudeMeters>
            <DistanceMeters>NAN</DistanceMeters>
          </Trackpoint>
          <Trackpoint>
            <Time>2021-04-01T15:03:55.000Z</Time>
            <Position>
              <LatitudeDegrees>42.38639258779585361480712890625</LatitudeDegrees>
              <LongitudeDegrees>2.6677876152098178863525390625</LongitudeDegrees>
            </Position>
            <AltitudeMeters>945.79998779296875</AltitudeMeters>
            <DistanceMeters>NAN</DistanceMeters>
          </Trackpoint>
          <Trackpoint>
            <Time>2021-04-01T15:03:57.000Z</Time>
            <Position>
              <LatitudeDegrees>42.386397533118724822998046875</LatitudeDegrees>
              <LongitudeDegrees>2.6677601225674152374267578125</LongitudeDegrees>
            </Position>
            <AltitudeMeters>945.79998779296875</AltitudeMeters>
            <DistanceMeters>NAN</DistanceMeters>
          </Trackpoint>
          <Trackpoint>
            <Time>2021-04-01T15:04:04.000Z</Time>
            <Position>
              <LatitudeDegrees>42.38640834577381610870361328125</LatitudeDegrees>
              <LongitudeDegrees>2.66765727661550045013427734375</LongitudeDegrees>
            </Position>
            <AltitudeMeters>945.79998779296875</AltitudeMeters>
            <DistanceMeters>NAN</DistanceMeters>
          </Trackpoint>
          <Trackpoint>
            <Time>2021-04-01T15:04:12.000Z</Time>
            <Position>
              <LatitudeDegrees>42.38642443902790546417236328125</LatitudeDegrees>
              <LongitudeDegrees>2.66754512675106525421142578125</LongitudeDegrees>
            </Position>
            <AltitudeMeters>946</AltitudeMeters>
            <DistanceMeters>NAN</DistanceMeters>
          </Trackpoint>
          <Trackpoint>
            <Time>2021-04-01T15:04:23.000Z</Time>
            <Position>
              <LatitudeDegrees>42.38647221587598323822021484375</LatitudeDegrees>
              <LongitudeDegrees>2.66741202212870121002197265625</LongitudeDegrees>
            </Position>
            <AltitudeMeters>947</AltitudeMeters>
            <DistanceMeters>NAN</DistanceMeters>
          </Trackpoint>
          <Trackpoint>
            <Time>2021-04-01T15:04:24.000Z</Time>
            <Position>
              <LatitudeDegrees>42.3864774964749813079833984375</LatitudeDegrees>
              <LongitudeDegrees>2.6673991978168487548828125</LongitudeDegrees>
            </Position>
            <AltitudeMeters>947</AltitudeMeters>
            <DistanceMeters>NAN</DistanceMeters>
          </Trackpoint>
          <Trackpoint>
            <Time>2021-04-01T15:04:26.000Z</Time>
            <Position>
              <LatitudeDegrees>42.38648780621588230133056640625</LatitudeDegrees>
              <LongitudeDegrees>2.6673772372305393218994140625</LongitudeDegrees>
            </Position>
            <AltitudeMeters>947</AltitudeMeters>
            <DistanceMeters>NAN</DistanceMeters>
          </Trackpoint>
          <Trackpoint>
            <Time>2021-04-01T15:04:27.000Z</Time>
            <Position>
              <LatitudeDegrees>42.3864895664155483245849609375</LatitudeDegrees>
              <LongitudeDegrees>2.6673670113086700439453125</LongitudeDegrees>
            </Position>
            <AltitudeMeters>947</AltitudeMeters>
            <DistanceMeters>NAN</DistanceMeters>
          </Trackpoint>
          <Trackpoint>
            <Time>2021-04-01T15:04:30.000Z</Time>
            <Position>
              <LatitudeDegrees>42.3864992894232273101806640625</LatitudeDegrees>
              <LongitudeDegrees>2.66733390279114246368408203125</LongitudeDegrees>
            </Position>
            <AltitudeMeters>947.4000244140625</AltitudeMeters>
            <DistanceMeters>NAN</DistanceMeters>
          </Trackpoint>
          <Trackpoint>
            <Time>2021-04-01T15:04:33.000Z</Time>
            <Position>
              <LatitudeDegrees>42.38651680760085582733154296875</LatitudeDegrees>
              <LongitudeDegrees>2.66729886643588542938232421875</LongitudeDegrees>
            </Position>
            <AltitudeMeters>947.5999755859375</AltitudeMeters>
            <DistanceMeters>NAN</DistanceMeters>
          </Trackpoint>
          <Trackpoint>
            <Time>2021-04-01T15:04:40.000Z</Time>
            <Position>
              <LatitudeDegrees>42.3865572921931743621826171875</LatitudeDegrees>
              <LongitudeDegrees>2.6672302186489105224609375</LongitudeDegrees>
            </Position>
            <AltitudeMeters>948.5999755859375</AltitudeMeters>
            <DistanceMeters>NAN</DistanceMeters>
          </Trackpoint>
          <Trackpoint>
            <Time>2021-04-01T15:04:42.000Z</Time>
            <Position>
              <LatitudeDegrees>42.3865641653537750244140625</LatitudeDegrees>
              <LongitudeDegrees>2.66720767132937908172607421875</LongitudeDegrees>
            </Position>
            <AltitudeMeters>948.79998779296875</AltitudeMeters>
            <DistanceMeters>NAN</DistanceMeters>
          </Trackpoint>
          <Trackpoint>
            <Time>2021-04-01T15:04:50.000Z</Time>
            <Position>
              <LatitudeDegrees>42.38659341819584369659423828125</LatitudeDegrees>
              <LongitudeDegrees>2.66712971962988376617431640625</LongitudeDegrees>
            </Position>
            <AltitudeMeters>949.5999755859375</AltitudeMeters>
            <DistanceMeters>NAN</DistanceMeters>
          </Trackpoint>
          <Trackpoint>
            <Time>2021-04-01T15:04:51.000Z</Time>
            <Position>
              <LatitudeDegrees>42.3865968547761440277099609375</LatitudeDegrees>
              <LongitudeDegrees>2.66712033189833164215087890625</LongitudeDegrees>
            </Position>
            <AltitudeMeters>949.79998779296875</AltitudeMeters>
            <DistanceMeters>NAN</DistanceMeters>
          </Trackpoint>
          <Trackpoint>
            <Time>2021-04-01T15:04:59.000Z</Time>
            <Position>
              <LatitudeDegrees>42.38661387003958225250244140625</LatitudeDegrees>
              <LongitudeDegrees>2.6670389436185359954833984375</LongitudeDegrees>
            </Position>
            <AltitudeMeters>950.79998779296875</AltitudeMeters>
            <DistanceMeters>NAN</DistanceMeters>
          </Trackpoint>
          <Trackpoint>
            <Time>2021-04-01T15:05:01.000Z</Time>
            <Position>
              <LatitudeDegrees>42.38661152310669422149658203125</LatitudeDegrees>
              <LongitudeDegrees>2.6670156419277191162109375</LongitudeDegrees>
            </Position>
            <AltitudeMeters>950.79998779296875</AltitudeMeters>
            <DistanceMeters>NAN</DistanceMeters>
          </Trackpoint>
          <Trackpoint>
            <Time>2021-04-01T15:05:06.000Z</Time>
            <Position>
              <LatitudeDegrees>42.38659568130970001220703125</LatitudeDegrees>
              <LongitudeDegrees>2.66698856838047504425048828125</LongitudeDegrees>
            </Position>
            <AltitudeMeters>951.4000244140625</AltitudeMeters>
            <DistanceMeters>NAN</DistanceMeters>
          </Trackpoint>
          <Trackpoint>
            <Time>2021-04-01T15:05:08.000Z</Time>
            <Position>
              <LatitudeDegrees>42.3865797556936740875244140625</LatitudeDegrees>
              <LongitudeDegrees>2.66697943210601806640625</LongitudeDegrees>
            </Position>
            <AltitudeMeters>951.5999755859375</AltitudeMeters>
            <DistanceMeters>NAN</DistanceMeters>
          </Trackpoint>
          <Trackpoint>
            <Time>2021-04-01T15:05:10.000Z</Time>
            <Position>
              <LatitudeDegrees>42.386567182838916778564453125</LatitudeDegrees>
              <LongitudeDegrees>2.66696761362254619598388671875</LongitudeDegrees>
            </Position>
            <AltitudeMeters>952</AltitudeMeters>
            <DistanceMeters>NAN</DistanceMeters>
          </Trackpoint>
          <Trackpoint>
            <Time>2021-04-01T15:05:16.000Z</Time>
            <Position>
              <LatitudeDegrees>42.386560477316379547119140625</LatitudeDegrees>
              <LongitudeDegrees>2.66689703799784183502197265625</LongitudeDegrees>
            </Position>
            <AltitudeMeters>952.4000244140625</AltitudeMeters>
            <DistanceMeters>NAN</DistanceMeters>
          </Trackpoint>
          <Trackpoint>
            <Time>2021-04-01T15:05:22.000Z</Time>
            <Position>
              <LatitudeDegrees>42.38657531328499317169189453125</LatitudeDegrees>
              <LongitudeDegrees>2.66685915179550647735595703125</LongitudeDegrees>
            </Position>
            <AltitudeMeters>953</AltitudeMeters>
            <DistanceMeters>NAN</DistanceMeters>
          </Trackpoint>
          <Trackpoint>
            <Time>2021-04-01T15:05:24.000Z</Time>
            <Position>
              <LatitudeDegrees>42.38657682202756404876708984375</LatitudeDegrees>
              <LongitudeDegrees>2.6668357662856578826904296875</LongitudeDegrees>
            </Position>
            <AltitudeMeters>953.20001220703125</AltitudeMeters>
            <DistanceMeters>NAN</DistanceMeters>
          </Trackpoint>
          <Trackpoint>
            <Time>2021-04-01T15:05:27.000Z</Time>
            <Position>
              <LatitudeDegrees>42.386570870876312255859375</LatitudeDegrees>
              <LongitudeDegrees>2.6668102853000164031982421875</LongitudeDegrees>
            </Position>
            <AltitudeMeters>953.4000244140625</AltitudeMeters>
            <DistanceMeters>NAN</DistanceMeters>
          </Trackpoint>
          <Trackpoint>
            <Time>2021-04-01T15:05:31.000Z</Time>
            <Position>
              <LatitudeDegrees>42.38656081259250640869140625</LatitudeDegrees>
              <LongitudeDegrees>2.6667747460305690765380859375</LongitudeDegrees>
            </Position>
            <AltitudeMeters>953.4000244140625</AltitudeMeters>
            <DistanceMeters>NAN</DistanceMeters>
          </Trackpoint>
          <Trackpoint>
            <Time>2021-04-01T15:05:38.000Z</Time>
            <Position>
              <LatitudeDegrees>42.3865287937223911285400390625</LatitudeDegrees>
              <LongitudeDegrees>2.66671230085194110870361328125</LongitudeDegrees>
            </Position>
            <AltitudeMeters>953.5999755859375</AltitudeMeters>
            <DistanceMeters>NAN</DistanceMeters>
          </Trackpoint>
          <Trackpoint>
            <Time>2021-04-01T15:05:44.000Z</Time>
            <Position>
              <LatitudeDegrees>42.38650272600352764129638671875</LatitudeDegrees>
              <LongitudeDegrees>2.6666319184005260467529296875</LongitudeDegrees>
            </Position>
            <AltitudeMeters>953.5999755859375</AltitudeMeters>
            <DistanceMeters>NAN</DistanceMeters>
          </Trackpoint>
          <Trackpoint>
            <Time>2021-04-01T15:05:47.000Z</Time>
            <Position>
              <LatitudeDegrees>42.38648780621588230133056640625</LatitudeDegrees>
              <LongitudeDegrees>2.66659411601722240447998046875</LongitudeDegrees>
            </Position>
            <AltitudeMeters>954</AltitudeMeters>
            <DistanceMeters>NAN</DistanceMeters>
          </Trackpoint>
          <Trackpoint>
            <Time>2021-04-01T15:05:51.000Z</Time>
            <Position>
              <LatitudeDegrees>42.386476658284664154052734375</LatitudeDegrees>
              <LongitudeDegrees>2.66656109131872653961181640625</LongitudeDegrees>
            </Position>
            <AltitudeMeters>954.20001220703125</AltitudeMeters>
            <DistanceMeters>NAN</DistanceMeters>
          </Trackpoint>
          <Trackpoint>
            <Time>2021-04-01T15:05:52.000Z</Time>
            <Position>
              <LatitudeDegrees>42.386476658284664154052734375</LatitudeDegrees>
              <LongitudeDegrees>2.66656109131872653961181640625</LongitudeDegrees>
            </Position>
            <AltitudeMeters>954.20001220703125</AltitudeMeters>
            <DistanceMeters>NAN</DistanceMeters>
          </Trackpoint>
          <Trackpoint>
            <Time>2021-04-01T15:05:55.000Z</Time>
            <Position>
              <LatitudeDegrees>42.38645444624125957489013671875</LatitudeDegrees>
              <LongitudeDegrees>2.66652856953442096710205078125</LongitudeDegrees>
            </Position>
            <AltitudeMeters>954.4000244140625</AltitudeMeters>
            <DistanceMeters>NAN</DistanceMeters>
          </Trackpoint>
          <Trackpoint>
            <Time>2021-04-01T15:05:58.000Z</Time>
            <Position>
              <LatitudeDegrees>42.38643902353942394256591796875</LatitudeDegrees>
              <LongitudeDegrees>2.666515409946441650390625</LongitudeDegrees>
            </Position>
            <AltitudeMeters>954.4000244140625</AltitudeMeters>
            <DistanceMeters>NAN</DistanceMeters>
          </Trackpoint>
          <Trackpoint>
            <Time>2021-04-01T15:05:59.000Z</Time>
            <Position>
              <LatitudeDegrees>42.3864275403320789337158203125</LatitudeDegrees>
              <LongitudeDegrees>2.66649998724460601806640625</LongitudeDegrees>
            </Position>
            <AltitudeMeters>954.4000244140625</AltitudeMeters>
            <DistanceMeters>NAN</DistanceMeters>
          </Trackpoint>
          <Trackpoint>
            <Time>2021-04-01T15:06:07.000Z</Time>
            <Position>
              <LatitudeDegrees>42.3864007182419300079345703125</LatitudeDegrees>
              <LongitudeDegrees>2.6664040982723236083984375</LongitudeDegrees>
            </Position>
            <AltitudeMeters>954.79998779296875</AltitudeMeters>
            <DistanceMeters>NAN</DistanceMeters>
          </Trackpoint>
          <Trackpoint>
            <Time>2021-04-01T15:06:13.000Z</Time>
            <Position>
              <LatitudeDegrees>42.386372052133083343505859375</LatitudeDegrees>
              <LongitudeDegrees>2.6663388870656490325927734375</LongitudeDegrees>
            </Position>
            <AltitudeMeters>955</AltitudeMeters>
            <DistanceMeters>NAN</DistanceMeters>
          </Trackpoint>
          <Trackpoint>
            <Time>2021-04-01T15:06:15.000Z</Time>
            <Position>
              <LatitudeDegrees>42.38638470880687236785888671875</LatitudeDegrees>
              <LongitudeDegrees>2.66631399281322956085205078125</LongitudeDegrees>
            </Position>
            <AltitudeMeters>955.20001220703125</AltitudeMeters>
            <DistanceMeters>NAN</DistanceMeters>
          </Trackpoint>
          <Trackpoint>
            <Time>2021-04-01T15:06:22.000Z</Time>
            <Position>
              <LatitudeDegrees>42.38638504408299922943115234375</LatitudeDegrees>
              <LongitudeDegrees>2.6662644557654857635498046875</LongitudeDegrees>
            </Position>
            <AltitudeMeters>955.5999755859375</AltitudeMeters>
            <DistanceMeters>NAN</DistanceMeters>
          </Trackpoint>
          <Trackpoint>
            <Time>2021-04-01T15:06:29.000Z</Time>
            <Position>
              <LatitudeDegrees>42.38637699745595455169677734375</LatitudeDegrees>
              <LongitudeDegrees>2.66618407331407070159912109375</LongitudeDegrees>
            </Position>
            <AltitudeMeters>956</AltitudeMeters>
            <DistanceMeters>NAN</DistanceMeters>
          </Trackpoint>
          <Trackpoint>
            <Time>2021-04-01T15:06:30.000Z</Time>
            <Position>
              <LatitudeDegrees>42.38637280650436878204345703125</LatitudeDegrees>
              <LongitudeDegrees>2.6661833189427852630615234375</LongitudeDegrees>
            </Position>
            <AltitudeMeters>956.20001220703125</AltitudeMeters>
            <DistanceMeters>NAN</DistanceMeters>
          </Trackpoint>
          <Trackpoint>
            <Time>2021-04-01T15:06:38.000Z</Time>
            <Position>
              <LatitudeDegrees>42.3863390274345874786376953125</LatitudeDegrees>
              <LongitudeDegrees>2.6661296747624874114990234375</LongitudeDegrees>
            </Position>
            <AltitudeMeters>957</AltitudeMeters>
            <DistanceMeters>NAN</DistanceMeters>
          </Trackpoint>
          <Trackpoint>
            <Time>2021-04-01T15:06:39.000Z</Time>
            <Position>
              <LatitudeDegrees>42.38633684813976287841796875</LatitudeDegrees>
              <LongitudeDegrees>2.666114084422588348388671875</LongitudeDegrees>
            </Position>
            <AltitudeMeters>957.4000244140625</AltitudeMeters>
            <DistanceMeters>NAN</DistanceMeters>
          </Trackpoint>
          <Trackpoint>
            <Time>2021-04-01T15:06:46.000Z</Time>
            <Position>
              <LatitudeDegrees>42.386301644146442413330078125</LatitudeDegrees>
              <LongitudeDegrees>2.66602112911641597747802734375</LongitudeDegrees>
            </Position>
            <AltitudeMeters>958</AltitudeMeters>
            <DistanceMeters>NAN</DistanceMeters>
          </Trackpoint>
          <Trackpoint>
            <Time>2021-04-01T15:06:50.000Z</Time>
            <Position>
              <LatitudeDegrees>42.38628680817782878875732421875</LatitudeDegrees>
              <LongitudeDegrees>2.66599439084529876708984375</LongitudeDegrees>
            </Position>
            <AltitudeMeters>958.4000244140625</AltitudeMeters>
            <DistanceMeters>NAN</DistanceMeters>
          </Trackpoint>
          <Trackpoint>
            <Time>2021-04-01T15:06:56.000Z</Time>
            <Position>
              <LatitudeDegrees>42.38624137826263904571533203125</LatitudeDegrees>
              <LongitudeDegrees>2.66592423431575298309326171875</LongitudeDegrees>
            </Position>
            <AltitudeMeters>959</AltitudeMeters>
            <DistanceMeters>NAN</DistanceMeters>
          </Trackpoint>
          <Trackpoint>
            <Time>2021-04-01T15:06:59.000Z</Time>
            <Position>
              <LatitudeDegrees>42.3862235248088836669921875</LatitudeDegrees>
              <LongitudeDegrees>2.66590646468102931976318359375</LongitudeDegrees>
            </Position>
            <AltitudeMeters>959.5999755859375</AltitudeMeters>
            <DistanceMeters>NAN</DistanceMeters>
          </Trackpoint>
          <Trackpoint>
            <Time>2021-04-01T15:07:04.000Z</Time>
            <Position>
              <LatitudeDegrees>42.38619309850037097930908203125</LatitudeDegrees>
              <LongitudeDegrees>2.665859945118427276611328125</LongitudeDegrees>
            </Position>
            <AltitudeMeters>960.20001220703125</AltitudeMeters>
            <DistanceMeters>NAN</DistanceMeters>
          </Trackpoint>
          <Trackpoint>
            <Time>2021-04-01T15:07:08.000Z</Time>
            <Position>
              <LatitudeDegrees>42.38616661168634891510009765625</LatitudeDegrees>
              <LongitudeDegrees>2.6658121682703495025634765625</LongitudeDegrees>
            </Position>
            <AltitudeMeters>960.5999755859375</AltitudeMeters>
            <DistanceMeters>NAN</DistanceMeters>
          </Trackpoint>
          <Trackpoint>
            <Time>2021-04-01T15:07:11.000Z</Time>
            <Position>
              <LatitudeDegrees>42.386154793202877044677734375</LatitudeDegrees>
              <LongitudeDegrees>2.66579129733145236968994140625</LongitudeDegrees>
            </Position>
            <AltitudeMeters>961</AltitudeMeters>
            <DistanceMeters>NAN</DistanceMeters>
          </Trackpoint>
          <Trackpoint>
            <Time>2021-04-01T15:07:12.000Z</Time>
            <Position>
              <LatitudeDegrees>42.38615403883159160614013671875</LatitudeDegrees>
              <LongitudeDegrees>2.66577310860157012939453125</LongitudeDegrees>
            </Position>
            <AltitudeMeters>961.20001220703125</AltitudeMeters>
            <DistanceMeters>NAN</DistanceMeters>
          </Trackpoint>
          <Trackpoint>
            <Time>2021-04-01T15:07:16.000Z</Time>
            <Position>
              <LatitudeDegrees>42.38616057671606540679931640625</LatitudeDegrees>
              <LongitudeDegrees>2.665736563503742218017578125</LongitudeDegrees>
            </Position>
            <AltitudeMeters>961.79998779296875</AltitudeMeters>
            <DistanceMeters>NAN</DistanceMeters>
          </Trackpoint>
          <Trackpoint>
            <Time>2021-04-01T15:07:19.000Z</Time>
            <Position>
              <LatitudeDegrees>42.38614330999553203582763671875</LatitudeDegrees>
              <LongitudeDegrees>2.66571200452744960784912109375</LongitudeDegrees>
            </Position>
            <AltitudeMeters>962</AltitudeMeters>
            <DistanceMeters>NAN</DistanceMeters>
          </Trackpoint>
          <Trackpoint>
            <Time>2021-04-01T15:07:23.000Z</Time>
            <Position>
              <LatitudeDegrees>42.38612537272274494171142578125</LatitudeDegrees>
              <LongitudeDegrees>2.66567730344831943511962890625</LongitudeDegrees>
            </Position>
            <AltitudeMeters>962.5999755859375</AltitudeMeters>
            <DistanceMeters>NAN</DistanceMeters>
          </Trackpoint>
          <Trackpoint>
            <Time>2021-04-01T15:07:24.000Z</Time>
            <Position>
              <LatitudeDegrees>42.38611690700054168701171875</LatitudeDegrees>
              <LongitudeDegrees>2.665669508278369903564453125</LongitudeDegrees>
            </Position>
            <AltitudeMeters>962.79998779296875</AltitudeMeters>
            <DistanceMeters>NAN</DistanceMeters>
          </Trackpoint>
          <Trackpoint>
            <Time>2021-04-01T15:07:26.000Z</Time>
            <Position>
              <LatitudeDegrees>42.3861080221831798553466796875</LatitudeDegrees>
              <LongitudeDegrees>2.66565919853746891021728515625</LongitudeDegrees>
            </Position>
            <AltitudeMeters>963</AltitudeMeters>
            <DistanceMeters>NAN</DistanceMeters>
          </Trackpoint>
          <Trackpoint>
            <Time>2021-04-01T15:07:29.000Z</Time>
            <Position>
              <LatitudeDegrees>42.386064939200878143310546875</LatitudeDegrees>
              <LongitudeDegrees>2.66559801064431667327880859375</LongitudeDegrees>
            </Position>
            <AltitudeMeters>963.20001220703125</AltitudeMeters>
            <DistanceMeters>NAN</DistanceMeters>
          </Trackpoint>
          <Trackpoint>
            <Time>2021-04-01T15:07:32.000Z</Time>
            <Position>
              <LatitudeDegrees>42.3860470019280910491943359375</LatitudeDegrees>
              <LongitudeDegrees>2.6655620522797107696533203125</LongitudeDegrees>
            </Position>
            <AltitudeMeters>963.5999755859375</AltitudeMeters>
            <DistanceMeters>NAN</DistanceMeters>
          </Trackpoint>
          <Trackpoint>
            <Time>2021-04-01T15:07:35.000Z</Time>
            <Position>
              <LatitudeDegrees>42.38603769801557064056396484375</LatitudeDegrees>
              <LongitudeDegrees>2.66552341170608997344970703125</LongitudeDegrees>
            </Position>
            <AltitudeMeters>963.79998779296875</AltitudeMeters>
            <DistanceMeters>NAN</DistanceMeters>
          </Trackpoint>
          <Trackpoint>
            <Time>2021-04-01T15:07:37.000Z</Time>
            <Position>
              <LatitudeDegrees>42.386028058826923370361328125</LatitudeDegrees>
              <LongitudeDegrees>2.6655050553381443023681640625</LongitudeDegrees>
            </Position>
            <AltitudeMeters>964</AltitudeMeters>
            <DistanceMeters>NAN</DistanceMeters>
          </Trackpoint>
          <Trackpoint>
            <Time>2021-04-01T15:07:38.000Z</Time>
            <Position>
              <LatitudeDegrees>42.38600266166031360626220703125</LatitudeDegrees>
              <LongitudeDegrees>2.66547529958188533782958984375</LongitudeDegrees>
            </Position>
            <AltitudeMeters>964</AltitudeMeters>
            <DistanceMeters>NAN</DistanceMeters>
          </Trackpoint>
          <Trackpoint>
            <Time>2021-04-01T15:07:44.000Z</Time>
            <Position>
              <LatitudeDegrees>42.3859621770679950714111328125</LatitudeDegrees>
              <LongitudeDegrees>2.6654245890676975250244140625</LongitudeDegrees>
            </Position>
            <AltitudeMeters>964.4000244140625</AltitudeMeters>
            <DistanceMeters>NAN</DistanceMeters>
          </Trackpoint>
          <Trackpoint>
            <Time>2021-04-01T15:07:45.000Z</Time>
            <Position>
              <LatitudeDegrees>42.3859588243067264556884765625</LatitudeDegrees>
              <LongitudeDegrees>2.66541025601327419281005859375</LongitudeDegrees>
            </Position>
            <AltitudeMeters>964.4000244140625</AltitudeMeters>
            <DistanceMeters>NAN</DistanceMeters>
          </Trackpoint>
          <Trackpoint>
            <Time>2021-04-01T15:07:49.000Z</Time>
            <Position>
              <LatitudeDegrees>42.38594599999487400054931640625</LatitudeDegrees>
              <LongitudeDegrees>2.66538712196052074432373046875</LongitudeDegrees>
            </Position>
            <AltitudeMeters>964.5999755859375</AltitudeMeters>
            <DistanceMeters>NAN</DistanceMeters>
          </Trackpoint>
          <Trackpoint>
            <Time>2021-04-01T15:07:55.000Z</Time>
            <Position>
              <LatitudeDegrees>42.385899312794208526611328125</LatitudeDegrees>
              <LongitudeDegrees>2.6653312146663665771484375</LongitudeDegrees>
            </Position>
            <AltitudeMeters>964.5999755859375</AltitudeMeters>
            <DistanceMeters>NAN</DistanceMeters>
          </Trackpoint>
          <Trackpoint>
            <Time>2021-04-01T15:07:59.000Z</Time>
            <Position>
              <LatitudeDegrees>42.38586746156215667724609375</LatitudeDegrees>
              <LongitudeDegrees>2.665256448090076446533203125</LongitudeDegrees>
            </Position>
            <AltitudeMeters>964.4000244140625</AltitudeMeters>
            <DistanceMeters>NAN</DistanceMeters>
          </Trackpoint>
          <Trackpoint>
            <Time>2021-04-01T15:08:03.000Z</Time>
            <Position>
              <LatitudeDegrees>42.3858444951474666595458984375</LatitudeDegrees>
              <LongitudeDegrees>2.6652133651077747344970703125</LongitudeDegrees>
            </Position>
            <AltitudeMeters>964</AltitudeMeters>
            <DistanceMeters>NAN</DistanceMeters>
          </Trackpoint>
          <Trackpoint>
            <Time>2021-04-01T15:08:11.000Z</Time>
            <Position>
              <LatitudeDegrees>42.38580367527902126312255859375</LatitudeDegrees>
              <LongitudeDegrees>2.66507782973349094390869140625</LongitudeDegrees>
            </Position>
            <AltitudeMeters>963.79998779296875</AltitudeMeters>
            <DistanceMeters>NAN</DistanceMeters>
          </Trackpoint>
          <Trackpoint>
            <Time>2021-04-01T15:08:17.000Z</Time>
            <Position>
              <LatitudeDegrees>42.3858032561838626861572265625</LatitudeDegrees>
              <LongitudeDegrees>2.6649934239685535430908203125</LongitudeDegrees>
            </Position>
            <AltitudeMeters>963.5999755859375</AltitudeMeters>
            <DistanceMeters>NAN</DistanceMeters>
          </Trackpoint>
          <Trackpoint>
            <Time>2021-04-01T15:08:19.000Z</Time>
            <Position>
              <LatitudeDegrees>42.38580501638352870941162109375</LatitudeDegrees>
              <LongitudeDegrees>2.66495629213750362396240234375</LongitudeDegrees>
            </Position>
            <AltitudeMeters>963.5999755859375</AltitudeMeters>
            <DistanceMeters>NAN</DistanceMeters>
          </Trackpoint>
          <Trackpoint>
            <Time>2021-04-01T15:08:24.000Z</Time>
            <Position>
              <LatitudeDegrees>42.38582580350339412689208984375</LatitudeDegrees>
              <LongitudeDegrees>2.664857469499111175537109375</LongitudeDegrees>
            </Position>
            <AltitudeMeters>963.4000244140625</AltitudeMeters>
            <DistanceMeters>NAN</DistanceMeters>
          </Trackpoint>
          <Trackpoint>
            <Time>2021-04-01T15:08:25.000Z</Time>
            <Position>
              <LatitudeDegrees>42.3858265578746795654296875</LatitudeDegrees>
              <LongitudeDegrees>2.66483928076922893524169921875</LongitudeDegrees>
            </Position>
            <AltitudeMeters>963.4000244140625</AltitudeMeters>
            <DistanceMeters>NAN</DistanceMeters>
          </Trackpoint>
          <Trackpoint>
            <Time>2021-04-01T15:08:28.000Z</Time>
            <Position>
              <LatitudeDegrees>42.38582513295114040374755859375</LatitudeDegrees>
              <LongitudeDegrees>2.66478815115988254547119140625</LongitudeDegrees>
            </Position>
            <AltitudeMeters>963.5999755859375</AltitudeMeters>
            <DistanceMeters>NAN</DistanceMeters>
          </Trackpoint>
          <Trackpoint>
            <Time>2021-04-01T15:08:37.000Z</Time>
            <Position>
              <LatitudeDegrees>42.3858372867107391357421875</LatitudeDegrees>
              <LongitudeDegrees>2.664665021002292633056640625</LongitudeDegrees>
            </Position>
            <AltitudeMeters>963.5999755859375</AltitudeMeters>
            <DistanceMeters>NAN</DistanceMeters>
          </Trackpoint>
          <Trackpoint>
            <Time>2021-04-01T15:08:47.000Z</Time>
            <Position>
              <LatitudeDegrees>42.38583401776850223541259765625</LatitudeDegrees>
              <LongitudeDegrees>2.66452194191515445709228515625</LongitudeDegrees>
            </Position>
            <AltitudeMeters>963.79998779296875</AltitudeMeters>
            <DistanceMeters>NAN</DistanceMeters>
          </Trackpoint>
          <Trackpoint>
            <Time>2021-04-01T15:08:56.000Z</Time>
            <Position>
              <LatitudeDegrees>42.38583820872008800506591796875</LatitudeDegrees>
              <LongitudeDegrees>2.66442538239061832427978515625</LongitudeDegrees>
            </Position>
            <AltitudeMeters>964</AltitudeMeters>
            <DistanceMeters>NAN</DistanceMeters>
          </Trackpoint>
          <Trackpoint>
            <Time>2021-04-01T15:08:57.000Z</Time>
            <Position>
              <LatitudeDegrees>42.38583820872008800506591796875</LatitudeDegrees>
              <LongitudeDegrees>2.66442538239061832427978515625</LongitudeDegrees>
            </Position>
            <AltitudeMeters>964.20001220703125</AltitudeMeters>
            <DistanceMeters>NAN</DistanceMeters>
          </Trackpoint>
          <Trackpoint>
            <Time>2021-04-01T15:08:58.000Z</Time>
            <Position>
              <LatitudeDegrees>42.38583351485431194305419921875</LatitudeDegrees>
              <LongitudeDegrees>2.66440224833786487579345703125</LongitudeDegrees>
            </Position>
            <AltitudeMeters>964.20001220703125</AltitudeMeters>
            <DistanceMeters>NAN</DistanceMeters>
          </Trackpoint>
          <Trackpoint>
            <Time>2021-04-01T15:09:06.000Z</Time>
            <Position>
              <LatitudeDegrees>42.38584206439554691314697265625</LatitudeDegrees>
              <LongitudeDegrees>2.6642782799899578094482421875</LongitudeDegrees>
            </Position>
            <AltitudeMeters>964.4000244140625</AltitudeMeters>
            <DistanceMeters>NAN</DistanceMeters>
          </Trackpoint>
          <Trackpoint>
            <Time>2021-04-01T15:09:07.000Z</Time>
            <Position>
              <LatitudeDegrees>42.3858458362519741058349609375</LatitudeDegrees>
              <LongitudeDegrees>2.6642636954784393310546875</LongitudeDegrees>
            </Position>
            <AltitudeMeters>964.4000244140625</AltitudeMeters>
            <DistanceMeters>NAN</DistanceMeters>
          </Trackpoint>
          <Trackpoint>
            <Time>2021-04-01T15:09:09.000Z</Time>
            <Position>
              <LatitudeDegrees>42.3858485184609889984130859375</LatitudeDegrees>
              <LongitudeDegrees>2.6642403937876224517822265625</LongitudeDegrees>
            </Position>
            <AltitudeMeters>964.4000244140625</AltitudeMeters>
            <DistanceMeters>NAN</DistanceMeters>
          </Trackpoint>
          <Trackpoint>
            <Time>2021-04-01T15:09:14.000Z</Time>
            <Position>
              <LatitudeDegrees>42.3858548887073993682861328125</LatitudeDegrees>
              <LongitudeDegrees>2.664191611111164093017578125</LongitudeDegrees>
            </Position>
            <AltitudeMeters>964.79998779296875</AltitudeMeters>
            <DistanceMeters>NAN</DistanceMeters>
          </Trackpoint>
          <Trackpoint>
            <Time>2021-04-01T15:09:15.000Z</Time>
            <Position>
              <LatitudeDegrees>42.3858525417745113372802734375</LatitudeDegrees>
              <LongitudeDegrees>2.66418213956058025360107421875</LongitudeDegrees>
            </Position>
            <AltitudeMeters>964.79998779296875</AltitudeMeters>
            <DistanceMeters>NAN</DistanceMeters>
          </Trackpoint>
          <Trackpoint>
            <Time>2021-04-01T15:09:21.000Z</Time>
            <Position>
              <LatitudeDegrees>42.38586368970572948455810546875</LatitudeDegrees>
              <LongitudeDegrees>2.664120532572269439697265625</LongitudeDegrees>
            </Position>
            <AltitudeMeters>965.20001220703125</AltitudeMeters>
            <DistanceMeters>NAN</DistanceMeters>
          </Trackpoint>
          <Trackpoint>
            <Time>2021-04-01T15:09:25.000Z</Time>
            <Position>
              <LatitudeDegrees>42.3858642764389514923095703125</LatitudeDegrees>
              <LongitudeDegrees>2.664101086556911468505859375</LongitudeDegrees>
            </Position>
            <AltitudeMeters>965.4000244140625</AltitudeMeters>
            <DistanceMeters>NAN</DistanceMeters>
          </Trackpoint>
          <Trackpoint>
            <Time>2021-04-01T15:09:27.000Z</Time>
            <Position>
              <LatitudeDegrees>42.3858669586479663848876953125</LatitudeDegrees>
              <LongitudeDegrees>2.66410737298429012298583984375</LongitudeDegrees>
            </Position>
            <AltitudeMeters>965.5999755859375</AltitudeMeters>
            <DistanceMeters>NAN</DistanceMeters>
          </Trackpoint>
          <Trackpoint>
            <Time>2021-04-01T15:09:36.000Z</Time>
            <Position>
              <LatitudeDegrees>42.38587492145597934722900390625</LatitudeDegrees>
              <LongitudeDegrees>2.66411122865974903106689453125</LongitudeDegrees>
            </Position>
            <AltitudeMeters>965.20001220703125</AltitudeMeters>
            <DistanceMeters>NAN</DistanceMeters>
          </Trackpoint>
          <Trackpoint>
            <Time>2021-04-01T15:09:42.000Z</Time>
            <Position>
              <LatitudeDegrees>42.385874502360820770263671875</LatitudeDegrees>
              <LongitudeDegrees>2.66407082788646221160888671875</LongitudeDegrees>
            </Position>
            <AltitudeMeters>965.20001220703125</AltitudeMeters>
            <DistanceMeters>NAN</DistanceMeters>
          </Trackpoint>
          <Trackpoint>
            <Time>2021-04-01T15:09:45.000Z</Time>
            <Position>
              <LatitudeDegrees>42.38586955703794956207275390625</LatitudeDegrees>
              <LongitudeDegrees>2.66401802189648151397705078125</LongitudeDegrees>
            </Position>
            <AltitudeMeters>965.20001220703125</AltitudeMeters>
            <DistanceMeters>NAN</DistanceMeters>
          </Trackpoint>
          <Trackpoint>
            <Time>2021-04-01T15:09:46.000Z</Time>
            <Position>
              <LatitudeDegrees>42.3858659528195858001708984375</LatitudeDegrees>
              <LongitudeDegrees>2.66400008462369441986083984375</LongitudeDegrees>
            </Position>
            <AltitudeMeters>965.20001220703125</AltitudeMeters>
            <DistanceMeters>NAN</DistanceMeters>
          </Trackpoint>
          <Trackpoint>
            <Time>2021-04-01T15:09:49.000Z</Time>
            <Position>
              <LatitudeDegrees>42.38586301915347576141357421875</LatitudeDegrees>
              <LongitudeDegrees>2.66393152065575122833251953125</LongitudeDegrees>
            </Position>
            <AltitudeMeters>965</AltitudeMeters>
            <DistanceMeters>NAN</DistanceMeters>
          </Trackpoint>
          <Trackpoint>
            <Time>2021-04-01T15:09:55.000Z</Time>
            <Position>
              <LatitudeDegrees>42.3858451656997203826904296875</LatitudeDegrees>
              <LongitudeDegrees>2.66384870745241641998291015625</LongitudeDegrees>
            </Position>
            <AltitudeMeters>965.20001220703125</AltitudeMeters>
            <DistanceMeters>NAN</DistanceMeters>
          </Trackpoint>
          <Trackpoint>
            <Time>2021-04-01T15:09:57.000Z</Time>
            <Position>
              <LatitudeDegrees>42.385832928121089935302734375</LatitudeDegrees>
              <LongitudeDegrees>2.66382171772420406341552734375</LongitudeDegrees>
            </Position>
            <AltitudeMeters>965.4000244140625</AltitudeMeters>
            <DistanceMeters>NAN</DistanceMeters>
          </Trackpoint>
          <Trackpoint>
            <Time>2021-04-01T15:10:02.000Z</Time>
            <Position>
              <LatitudeDegrees>42.38584206439554691314697265625</LatitudeDegrees>
              <LongitudeDegrees>2.66376958228647708892822265625</LongitudeDegrees>
            </Position>
            <AltitudeMeters>965.5999755859375</AltitudeMeters>
            <DistanceMeters>NAN</DistanceMeters>
          </Trackpoint>
          <Trackpoint>
            <Time>2021-04-01T15:10:04.000Z</Time>
            <Position>
              <LatitudeDegrees>42.38583820872008800506591796875</LatitudeDegrees>
              <LongitudeDegrees>2.66376120038330554962158203125</LongitudeDegrees>
            </Position>
            <AltitudeMeters>965.79998779296875</AltitudeMeters>
            <DistanceMeters>NAN</DistanceMeters>
          </Trackpoint>
          <Trackpoint>
            <Time>2021-04-01T15:10:06.000Z</Time>
            <Position>
              <LatitudeDegrees>42.3858371190726757049560546875</LatitudeDegrees>
              <LongitudeDegrees>2.6637565903365612030029296875</LongitudeDegrees>
            </Position>
            <AltitudeMeters>965.79998779296875</AltitudeMeters>
            <DistanceMeters>NAN</DistanceMeters>
          </Trackpoint>
          <Trackpoint>
            <Time>2021-04-01T15:10:08.000Z</Time>
            <Position>
              <LatitudeDegrees>42.38584332168102264404296875</LatitudeDegrees>
              <LongitudeDegrees>2.66372029669582843780517578125</LongitudeDegrees>
            </Position>
            <AltitudeMeters>966</AltitudeMeters>
            <DistanceMeters>NAN</DistanceMeters>
          </Trackpoint>
          <Trackpoint>
            <Time>2021-04-01T15:10:10.000Z</Time>
            <Position>
              <LatitudeDegrees>42.38584307022392749786376953125</LatitudeDegrees>
              <LongitudeDegrees>2.66369850374758243560791015625</LongitudeDegrees>
            </Position>
            <AltitudeMeters>966.20001220703125</AltitudeMeters>
            <DistanceMeters>NAN</DistanceMeters>
          </Trackpoint>
          <Trackpoint>
            <Time>2021-04-01T15:10:13.000Z</Time>
            <Position>
              <LatitudeDegrees>42.38584960810840129852294921875</LatitudeDegrees>
              <LongitudeDegrees>2.663669921457767486572265625</LongitudeDegrees>
            </Position>
            <AltitudeMeters>966.4000244140625</AltitudeMeters>
            <DistanceMeters>NAN</DistanceMeters>
          </Trackpoint>
          <Trackpoint>
            <Time>2021-04-01T15:10:15.000Z</Time>
            <Position>
              <LatitudeDegrees>42.385856397449970245361328125</LatitudeDegrees>
              <LongitudeDegrees>2.66365290619432926177978515625</LongitudeDegrees>
            </Position>
            <AltitudeMeters>966.4000244140625</AltitudeMeters>
            <DistanceMeters>NAN</DistanceMeters>
          </Trackpoint>
          <Trackpoint>
            <Time>2021-04-01T15:10:20.000Z</Time>
            <Position>
              <LatitudeDegrees>42.38583334721624851226806640625</LatitudeDegrees>
              <LongitudeDegrees>2.66360596753656864166259765625</LongitudeDegrees>
            </Position>
            <AltitudeMeters>966.5999755859375</AltitudeMeters>
            <DistanceMeters>NAN</DistanceMeters>
          </Trackpoint>
          <Trackpoint>
            <Time>2021-04-01T15:10:21.000Z</Time>
            <Position>
              <LatitudeDegrees>42.38583217374980449676513671875</LatitudeDegrees>
              <LongitudeDegrees>2.66359607689082622528076171875</LongitudeDegrees>
            </Position>
            <AltitudeMeters>966.5999755859375</AltitudeMeters>
            <DistanceMeters>NAN</DistanceMeters>
          </Trackpoint>
          <Trackpoint>
            <Time>2021-04-01T15:10:22.000Z</Time>
            <Position>
              <LatitudeDegrees>42.38582991063594818115234375</LatitudeDegrees>
              <LongitudeDegrees>2.6635862700641155242919921875</LongitudeDegrees>
            </Position>
            <AltitudeMeters>966.79998779296875</AltitudeMeters>
            <DistanceMeters>NAN</DistanceMeters>
          </Trackpoint>
          <Trackpoint>
            <Time>2021-04-01T15:10:24.000Z</Time>
            <Position>
              <LatitudeDegrees>42.3858250491321086883544921875</LatitudeDegrees>
              <LongitudeDegrees>2.66356003470718860626220703125</LongitudeDegrees>
            </Position>
            <AltitudeMeters>967.20001220703125</AltitudeMeters>
            <DistanceMeters>NAN</DistanceMeters>
          </Trackpoint>
          <Trackpoint>
            <Time>2021-04-01T15:10:28.000Z</Time>
            <Position>
              <LatitudeDegrees>42.3858170025050640106201171875</LatitudeDegrees>
              <LongitudeDegrees>2.66352784819900989532470703125</LongitudeDegrees>
            </Position>
            <AltitudeMeters>967.4000244140625</AltitudeMeters>
            <DistanceMeters>NAN</DistanceMeters>
          </Trackpoint>
          <Trackpoint>
            <Time>2021-04-01T15:10:29.000Z</Time>
            <Position>
              <LatitudeDegrees>42.385818846523761749267578125</LatitudeDegrees>
              <LongitudeDegrees>2.6635024510324001312255859375</LongitudeDegrees>
            </Position>
            <AltitudeMeters>967.5999755859375</AltitudeMeters>
            <DistanceMeters>NAN</DistanceMeters>
          </Trackpoint>
          <Trackpoint>
            <Time>2021-04-01T15:10:33.000Z</Time>
            <Position>
              <LatitudeDegrees>42.38580786623060703277587890625</LatitudeDegrees>
              <LongitudeDegrees>2.66346448101103305816650390625</LongitudeDegrees>
            </Position>
            <AltitudeMeters>968</AltitudeMeters>
            <DistanceMeters>NAN</DistanceMeters>
          </Trackpoint>
          <Trackpoint>
            <Time>2021-04-01T15:10:36.000Z</Time>
            <Position>
              <LatitudeDegrees>42.38580484874546527862548828125</LatitudeDegrees>
              <LongitudeDegrees>2.66343950293958187103271484375</LongitudeDegrees>
            </Position>
            <AltitudeMeters>968.4000244140625</AltitudeMeters>
            <DistanceMeters>NAN</DistanceMeters>
          </Trackpoint>
          <Trackpoint>
            <Time>2021-04-01T15:10:44.000Z</Time>
            <Position>
              <LatitudeDegrees>42.385816834867000579833984375</LatitudeDegrees>
              <LongitudeDegrees>2.663353420794010162353515625</LongitudeDegrees>
            </Position>
            <AltitudeMeters>969</AltitudeMeters>
            <DistanceMeters>NAN</DistanceMeters>
          </Trackpoint>
          <Trackpoint>
            <Time>2021-04-01T15:10:45.000Z</Time>
            <Position>
              <LatitudeDegrees>42.3858193494379520416259765625</LatitudeDegrees>
              <LongitudeDegrees>2.66334646381437778472900390625</LongitudeDegrees>
            </Position>
            <AltitudeMeters>969</AltitudeMeters>
            <DistanceMeters>NAN</DistanceMeters>
          </Trackpoint>
          <Trackpoint>
            <Time>2021-04-01T15:10:54.000Z</Time>
            <Position>
              <LatitudeDegrees>42.3858109675347805023193359375</LatitudeDegrees>
              <LongitudeDegrees>2.66324638389050960540771484375</LongitudeDegrees>
            </Position>
            <AltitudeMeters>970</AltitudeMeters>
            <DistanceMeters>NAN</DistanceMeters>
          </Trackpoint>
          <Trackpoint>
            <Time>2021-04-01T15:10:55.000Z</Time>
            <Position>
              <LatitudeDegrees>42.38581138662993907928466796875</LatitudeDegrees>
              <LongitudeDegrees>2.663235403597354888916015625</LongitudeDegrees>
            </Position>
            <AltitudeMeters>970.20001220703125</AltitudeMeters>
            <DistanceMeters>NAN</DistanceMeters>
          </Trackpoint>
          <Trackpoint>
            <Time>2021-04-01T15:10:58.000Z</Time>
            <Position>
              <LatitudeDegrees>42.3858123086392879486083984375</LatitudeDegrees>
              <LongitudeDegrees>2.66320548020303249359130859375</LongitudeDegrees>
            </Position>
            <AltitudeMeters>970.4000244140625</AltitudeMeters>
            <DistanceMeters>NAN</DistanceMeters>
          </Trackpoint>
          <Trackpoint>
            <Time>2021-04-01T15:11:03.000Z</Time>
            <Position>
              <LatitudeDegrees>42.3858176730573177337646484375</LatitudeDegrees>
              <LongitudeDegrees>2.66315753571689128875732421875</LongitudeDegrees>
            </Position>
            <AltitudeMeters>970.79998779296875</AltitudeMeters>
            <DistanceMeters>NAN</DistanceMeters>
          </Trackpoint>
          <Trackpoint>
            <Time>2021-04-01T15:11:05.000Z</Time>
            <Position>
              <LatitudeDegrees>42.38582052290439605712890625</LatitudeDegrees>
              <LongitudeDegrees>2.66312954016029834747314453125</LongitudeDegrees>
            </Position>
            <AltitudeMeters>971</AltitudeMeters>
            <DistanceMeters>NAN</DistanceMeters>
          </Trackpoint>
          <Trackpoint>
            <Time>2021-04-01T15:11:13.000Z</Time>
            <Position>
              <LatitudeDegrees>42.3858418129384517669677734375</LatitudeDegrees>
              <LongitudeDegrees>2.6630491577088832855224609375</LongitudeDegrees>
            </Position>
            <AltitudeMeters>971.79998779296875</AltitudeMeters>
            <DistanceMeters>NAN</DistanceMeters>
          </Trackpoint>
          <Trackpoint>
            <Time>2021-04-01T15:11:15.000Z</Time>
            <Position>
              <LatitudeDegrees>42.3858426511287689208984375</LatitudeDegrees>
              <LongitudeDegrees>2.663028873503208160400390625</LongitudeDegrees>
            </Position>
            <AltitudeMeters>972</AltitudeMeters>
            <DistanceMeters>NAN</DistanceMeters>
          </Trackpoint>
          <Trackpoint>
            <Time>2021-04-01T15:11:20.000Z</Time>
            <Position>
              <LatitudeDegrees>42.38582546822726726531982421875</LatitudeDegrees>
              <LongitudeDegrees>2.662964500486850738525390625</LongitudeDegrees>
            </Position>
            <AltitudeMeters>972.79998779296875</AltitudeMeters>
            <DistanceMeters>NAN</DistanceMeters>
          </Trackpoint>
          <Trackpoint>
            <Time>2021-04-01T15:11:21.000Z</Time>
            <Position>
              <LatitudeDegrees>42.3858211934566497802734375</LatitudeDegrees>
              <LongitudeDegrees>2.66295452602207660675048828125</LongitudeDegrees>
            </Position>
            <AltitudeMeters>972.79998779296875</AltitudeMeters>
            <DistanceMeters>NAN</DistanceMeters>
          </Trackpoint>
          <Trackpoint>
            <Time>2021-04-01T15:11:25.000Z</Time>
            <Position>
              <LatitudeDegrees>42.385806776583194732666015625</LatitudeDegrees>
              <LongitudeDegrees>2.66290943138301372528076171875</LongitudeDegrees>
            </Position>
            <AltitudeMeters>973.20001220703125</AltitudeMeters>
            <DistanceMeters>NAN</DistanceMeters>
          </Trackpoint>
          <Trackpoint>
            <Time>2021-04-01T15:11:28.000Z</Time>
            <Position>
              <LatitudeDegrees>42.38581842742860317230224609375</LatitudeDegrees>
              <LongitudeDegrees>2.66287120990455150604248046875</LongitudeDegrees>
            </Position>
            <AltitudeMeters>973.5999755859375</AltitudeMeters>
            <DistanceMeters>NAN</DistanceMeters>
          </Trackpoint>
          <Trackpoint>
            <Time>2021-04-01T15:11:35.000Z</Time>
            <Position>
              <LatitudeDegrees>42.3858414776623249053955078125</LatitudeDegrees>
              <LongitudeDegrees>2.66278420574963092803955078125</LongitudeDegrees>
            </Position>
            <AltitudeMeters>974.20001220703125</AltitudeMeters>
            <DistanceMeters>NAN</DistanceMeters>
          </Trackpoint>
          <Trackpoint>
            <Time>2021-04-01T15:11:38.000Z</Time>
            <Position>
              <LatitudeDegrees>42.3858565650880336761474609375</LatitudeDegrees>
              <LongitudeDegrees>2.6627527736127376556396484375</LongitudeDegrees>
            </Position>
            <AltitudeMeters>974.79998779296875</AltitudeMeters>
            <DistanceMeters>NAN</DistanceMeters>
          </Trackpoint>
          <Trackpoint>
            <Time>2021-04-01T15:11:41.000Z</Time>
            <Position>
              <LatitudeDegrees>42.3858555592596530914306640625</LatitudeDegrees>
              <LongitudeDegrees>2.6627187430858612060546875</LongitudeDegrees>
            </Position>
            <AltitudeMeters>975.20001220703125</AltitudeMeters>
            <DistanceMeters>NAN</DistanceMeters>
          </Trackpoint>
          <Trackpoint>
            <Time>2021-04-01T15:11:42.000Z</Time>
            <Position>
              <LatitudeDegrees>42.38585941493511199951171875</LatitudeDegrees>
              <LongitudeDegrees>2.662711031734943389892578125</LongitudeDegrees>
            </Position>
            <AltitudeMeters>975.5999755859375</AltitudeMeters>
            <DistanceMeters>NAN</DistanceMeters>
          </Trackpoint>
          <Trackpoint>
            <Time>2021-04-01T15:11:44.000Z</Time>
            <Position>
              <LatitudeDegrees>42.38586268387734889984130859375</LatitudeDegrees>
              <LongitudeDegrees>2.66268932260572910308837890625</LongitudeDegrees>
            </Position>
            <AltitudeMeters>975.79998779296875</AltitudeMeters>
            <DistanceMeters>NAN</DistanceMeters>
          </Trackpoint>
          <Trackpoint>
            <Time>2021-04-01T15:11:47.000Z</Time>
            <Position>
              <LatitudeDegrees>42.38586075603961944580078125</LatitudeDegrees>
              <LongitudeDegrees>2.66265428625047206878662109375</LongitudeDegrees>
            </Position>
            <AltitudeMeters>976.20001220703125</AltitudeMeters>
            <DistanceMeters>NAN</DistanceMeters>
          </Trackpoint>
          <Trackpoint>
            <Time>2021-04-01T15:11:51.000Z</Time>
            <Position>
              <LatitudeDegrees>42.38586268387734889984130859375</LatitudeDegrees>
              <LongitudeDegrees>2.662618160247802734375</LongitudeDegrees>
            </Position>
            <AltitudeMeters>976.79998779296875</AltitudeMeters>
            <DistanceMeters>NAN</DistanceMeters>
          </Trackpoint>
          <Trackpoint>
            <Time>2021-04-01T15:12:00.000Z</Time>
            <Position>
              <LatitudeDegrees>42.3859135620296001434326171875</LatitudeDegrees>
              <LongitudeDegrees>2.66251095570623874664306640625</LongitudeDegrees>
            </Position>
            <AltitudeMeters>977.4000244140625</AltitudeMeters>
            <DistanceMeters>NAN</DistanceMeters>
          </Trackpoint>
          <Trackpoint>
            <Time>2021-04-01T15:12:01.000Z</Time>
            <Position>
              <LatitudeDegrees>42.38591951318085193634033203125</LatitudeDegrees>
              <LongitudeDegrees>2.662500478327274322509765625</LongitudeDegrees>
            </Position>
            <AltitudeMeters>977.4000244140625</AltitudeMeters>
            <DistanceMeters>NAN</DistanceMeters>
          </Trackpoint>
          <Trackpoint>
            <Time>2021-04-01T15:12:10.000Z</Time>
            <Position>
              <LatitudeDegrees>42.3859662003815174102783203125</LatitudeDegrees>
              <LongitudeDegrees>2.66241054050624370574951171875</LongitudeDegrees>
            </Position>
            <AltitudeMeters>978.20001220703125</AltitudeMeters>
            <DistanceMeters>NAN</DistanceMeters>
          </Trackpoint>
          <Trackpoint>
            <Time>2021-04-01T15:12:12.000Z</Time>
            <Position>
              <LatitudeDegrees>42.38597550429403781890869140625</LatitudeDegrees>
              <LongitudeDegrees>2.6623923517763614654541015625</LongitudeDegrees>
            </Position>
            <AltitudeMeters>978.5999755859375</AltitudeMeters>
            <DistanceMeters>NAN</DistanceMeters>
          </Trackpoint>
          <Trackpoint>
            <Time>2021-04-01T15:12:19.000Z</Time>
            <Position>
              <LatitudeDegrees>42.38601204939186573028564453125</LatitudeDegrees>
              <LongitudeDegrees>2.66231968067586421966552734375</LongitudeDegrees>
            </Position>
            <AltitudeMeters>979.20001220703125</AltitudeMeters>
            <DistanceMeters>NAN</DistanceMeters>
          </Trackpoint>
          <Trackpoint>
            <Time>2021-04-01T15:12:20.000Z</Time>
            <Position>
              <LatitudeDegrees>42.38601774908602237701416015625</LatitudeDegrees>
              <LongitudeDegrees>2.662310712039470672607421875</LongitudeDegrees>
            </Position>
            <AltitudeMeters>979.4000244140625</AltitudeMeters>
            <DistanceMeters>NAN</DistanceMeters>
          </Trackpoint>
          <Trackpoint>
            <Time>2021-04-01T15:12:22.000Z</Time>
            <Position>
              <LatitudeDegrees>42.38602395169436931610107421875</LatitudeDegrees>
              <LongitudeDegrees>2.6623021624982357025146484375</LongitudeDegrees>
            </Position>
            <AltitudeMeters>979.5999755859375</AltitudeMeters>
            <DistanceMeters>NAN</DistanceMeters>
          </Trackpoint>
          <Trackpoint>
            <Time>2021-04-01T15:12:29.000Z</Time>
            <Position>
              <LatitudeDegrees>42.38606250844895839691162109375</LatitudeDegrees>
              <LongitudeDegrees>2.66220845282077789306640625</LongitudeDegrees>
            </Position>
            <AltitudeMeters>980.79998779296875</AltitudeMeters>
            <DistanceMeters>NAN</DistanceMeters>
          </Trackpoint>
          <Trackpoint>
            <Time>2021-04-01T15:12:33.000Z</Time>
            <Position>
              <LatitudeDegrees>42.386081703007221221923828125</LatitudeDegrees>
              <LongitudeDegrees>2.66216277144849300384521484375</LongitudeDegrees>
            </Position>
            <AltitudeMeters>981</AltitudeMeters>
            <DistanceMeters>NAN</DistanceMeters>
          </Trackpoint>
          <Trackpoint>
            <Time>2021-04-01T15:12:41.000Z</Time>
            <Position>
              <LatitudeDegrees>42.38611397333443164825439453125</LatitudeDegrees>
              <LongitudeDegrees>2.662086747586727142333984375</LongitudeDegrees>
            </Position>
            <AltitudeMeters>981.79998779296875</AltitudeMeters>
            <DistanceMeters>NAN</DistanceMeters>
          </Trackpoint>
          <Trackpoint>
            <Time>2021-04-01T15:12:43.000Z</Time>
            <Position>
              <LatitudeDegrees>42.38612302578985691070556640625</LatitudeDegrees>
              <LongitudeDegrees>2.66206621192395687103271484375</LongitudeDegrees>
            </Position>
            <AltitudeMeters>982</AltitudeMeters>
            <DistanceMeters>NAN</DistanceMeters>
          </Trackpoint>
          <Trackpoint>
            <Time>2021-04-01T15:12:52.000Z</Time>
            <Position>
              <LatitudeDegrees>42.3861871473491191864013671875</LatitudeDegrees>
              <LongitudeDegrees>2.661995552480220794677734375</LongitudeDegrees>
            </Position>
            <AltitudeMeters>982.79998779296875</AltitudeMeters>
            <DistanceMeters>NAN</DistanceMeters>
          </Trackpoint>
          <Trackpoint>
            <Time>2021-04-01T15:12:54.000Z</Time>
            <Position>
              <LatitudeDegrees>42.38619460724294185638427734375</LatitudeDegrees>
              <LongitudeDegrees>2.66198155470192432403564453125</LongitudeDegrees>
            </Position>
            <AltitudeMeters>982.79998779296875</AltitudeMeters>
            <DistanceMeters>NAN</DistanceMeters>
          </Trackpoint>
          <Trackpoint>
            <Time>2021-04-01T15:13:01.000Z</Time>
            <Position>
              <LatitudeDegrees>42.38622930832207202911376953125</LatitudeDegrees>
              <LongitudeDegrees>2.6619360409677028656005859375</LongitudeDegrees>
            </Position>
            <AltitudeMeters>983.4000244140625</AltitudeMeters>
            <DistanceMeters>NAN</DistanceMeters>
          </Trackpoint>
          <Trackpoint>
            <Time>2021-04-01T15:13:02.000Z</Time>
            <Position>
              <LatitudeDegrees>42.38623282872140407562255859375</LatitudeDegrees>
              <LongitudeDegrees>2.6619296707212924957275390625</LongitudeDegrees>
            </Position>
            <AltitudeMeters>983.4000244140625</AltitudeMeters>
            <DistanceMeters>NAN</DistanceMeters>
          </Trackpoint>
          <Trackpoint>
            <Time>2021-04-01T15:13:06.000Z</Time>
            <Position>
              <LatitudeDegrees>42.38624640740454196929931640625</LatitudeDegrees>
              <LongitudeDegrees>2.6619051955640316009521484375</LongitudeDegrees>
            </Position>
            <AltitudeMeters>984</AltitudeMeters>
            <DistanceMeters>NAN</DistanceMeters>
          </Trackpoint>
          <Trackpoint>
            <Time>2021-04-01T15:13:07.000Z</Time>
            <Position>
              <LatitudeDegrees>42.3862572200596332550048828125</LatitudeDegrees>
              <LongitudeDegrees>2.66189438290894031524658203125</LongitudeDegrees>
            </Position>
            <AltitudeMeters>984</AltitudeMeters>
            <DistanceMeters>NAN</DistanceMeters>
          </Trackpoint>
          <Trackpoint>
            <Time>2021-04-01T15:13:10.000Z</Time>
            <Position>
              <LatitudeDegrees>42.38627758808434009552001953125</LatitudeDegrees>
              <LongitudeDegrees>2.66186689026653766632080078125</LongitudeDegrees>
            </Position>
            <AltitudeMeters>984.20001220703125</AltitudeMeters>
            <DistanceMeters>NAN</DistanceMeters>
          </Trackpoint>
          <Trackpoint>
            <Time>2021-04-01T15:13:12.000Z</Time>
            <Position>
              <LatitudeDegrees>42.3862843774259090423583984375</LatitudeDegrees>
              <LongitudeDegrees>2.6618626154959201812744140625</LongitudeDegrees>
            </Position>
            <AltitudeMeters>984.4000244140625</AltitudeMeters>
            <DistanceMeters>NAN</DistanceMeters>
          </Trackpoint>
          <Trackpoint>
            <Time>2021-04-01T15:13:14.000Z</Time>
            <Position>
              <LatitudeDegrees>42.38629954867064952850341796875</LatitudeDegrees>
              <LongitudeDegrees>2.661836631596088409423828125</LongitudeDegrees>
            </Position>
            <AltitudeMeters>984.5999755859375</AltitudeMeters>
            <DistanceMeters>NAN</DistanceMeters>
          </Trackpoint>
          <Trackpoint>
            <Time>2021-04-01T15:13:15.000Z</Time>
            <Position>
              <LatitudeDegrees>42.38630323670804500579833984375</LatitudeDegrees>
              <LongitudeDegrees>2.6618280820548534393310546875</LongitudeDegrees>
            </Position>
            <AltitudeMeters>984.5999755859375</AltitudeMeters>
            <DistanceMeters>NAN</DistanceMeters>
          </Trackpoint>
          <Trackpoint>
            <Time>2021-04-01T15:13:17.000Z</Time>
            <Position>
              <LatitudeDegrees>42.38631279207766056060791015625</LatitudeDegrees>
              <LongitudeDegrees>2.6618106476962566375732421875</LongitudeDegrees>
            </Position>
            <AltitudeMeters>984.79998779296875</AltitudeMeters>
            <DistanceMeters>NAN</DistanceMeters>
          </Trackpoint>
          <Trackpoint>
            <Time>2021-04-01T15:13:21.000Z</Time>
            <Position>
              <LatitudeDegrees>42.38633391447365283966064453125</LatitudeDegrees>
              <LongitudeDegrees>2.66177351586520671844482421875</LongitudeDegrees>
            </Position>
            <AltitudeMeters>985</AltitudeMeters>
            <DistanceMeters>NAN</DistanceMeters>
          </Trackpoint>
          <Trackpoint>
            <Time>2021-04-01T15:13:22.000Z</Time>
            <Position>
              <LatitudeDegrees>42.386339865624904632568359375</LatitudeDegrees>
              <LongitudeDegrees>2.66176454722881317138671875</LongitudeDegrees>
            </Position>
            <AltitudeMeters>985</AltitudeMeters>
            <DistanceMeters>NAN</DistanceMeters>
          </Trackpoint>
          <Trackpoint>
            <Time>2021-04-01T15:13:25.000Z</Time>
            <Position>
              <LatitudeDegrees>42.3863588087260723114013671875</LatitudeDegrees>
              <LongitudeDegrees>2.66174376010894775390625</LongitudeDegrees>
            </Position>
            <AltitudeMeters>985.20001220703125</AltitudeMeters>
            <DistanceMeters>NAN</DistanceMeters>
          </Trackpoint>
          <Trackpoint>
            <Time>2021-04-01T15:13:28.000Z</Time>
            <Position>
              <LatitudeDegrees>42.3863749019801616668701171875</LatitudeDegrees>
              <LongitudeDegrees>2.6617181114852428436279296875</LongitudeDegrees>
            </Position>
            <AltitudeMeters>985.4000244140625</AltitudeMeters>
            <DistanceMeters>NAN</DistanceMeters>
          </Trackpoint>
          <Trackpoint>
            <Time>2021-04-01T15:13:34.000Z</Time>
            <Position>
              <LatitudeDegrees>42.3864010535180568695068359375</LatitudeDegrees>
              <LongitudeDegrees>2.66167025081813335418701171875</LongitudeDegrees>
            </Position>
            <AltitudeMeters>986</AltitudeMeters>
            <DistanceMeters>NAN</DistanceMeters>
          </Trackpoint>
          <Trackpoint>
            <Time>2021-04-01T15:13:35.000Z</Time>
            <Position>
              <LatitudeDegrees>42.38640725612640380859375</LatitudeDegrees>
              <LongitudeDegrees>2.66166304238140583038330078125</LongitudeDegrees>
            </Position>
            <AltitudeMeters>986</AltitudeMeters>
            <DistanceMeters>NAN</DistanceMeters>
          </Trackpoint>
          <Trackpoint>
            <Time>2021-04-01T15:13:38.000Z</Time>
            <Position>
              <LatitudeDegrees>42.38642695359885692596435546875</LatitudeDegrees>
              <LongitudeDegrees>2.66163320280611515045166015625</LongitudeDegrees>
            </Position>
            <AltitudeMeters>986.4000244140625</AltitudeMeters>
            <DistanceMeters>NAN</DistanceMeters>
          </Trackpoint>
          <Trackpoint>
            <Time>2021-04-01T15:13:48.000Z</Time>
            <Position>
              <LatitudeDegrees>42.3864751495420932769775390625</LatitudeDegrees>
              <LongitudeDegrees>2.661536224186420440673828125</LongitudeDegrees>
            </Position>
            <AltitudeMeters>987</AltitudeMeters>
            <DistanceMeters>NAN</DistanceMeters>
          </Trackpoint>
          <Trackpoint>
            <Time>2021-04-01T15:13:53.000Z</Time>
            <Position>
              <LatitudeDegrees>42.38649920560419559478759765625</LatitudeDegrees>
              <LongitudeDegrees>2.661497332155704498291015625</LongitudeDegrees>
            </Position>
            <AltitudeMeters>987</AltitudeMeters>
            <DistanceMeters>NAN</DistanceMeters>
          </Trackpoint>
          <Trackpoint>
            <Time>2021-04-01T15:13:56.000Z</Time>
            <Position>
              <LatitudeDegrees>42.38651387393474578857421875</LatitudeDegrees>
              <LongitudeDegrees>2.661469168961048126220703125</LongitudeDegrees>
            </Position>
            <AltitudeMeters>987.20001220703125</AltitudeMeters>
            <DistanceMeters>NAN</DistanceMeters>
          </Trackpoint>
          <Trackpoint>
            <Time>2021-04-01T15:13:59.000Z</Time>
            <Position>
              <LatitudeDegrees>42.386528961360454559326171875</LatitudeDegrees>
              <LongitudeDegrees>2.66144938766956329345703125</LongitudeDegrees>
            </Position>
            <AltitudeMeters>987.4000244140625</AltitudeMeters>
            <DistanceMeters>NAN</DistanceMeters>
          </Trackpoint>
          <Trackpoint>
            <Time>2021-04-01T15:14:00.000Z</Time>
            <Position>
              <LatitudeDegrees>42.38653591834008693695068359375</LatitudeDegrees>
              <LongitudeDegrees>2.66143991611897945404052734375</LongitudeDegrees>
            </Position>
            <AltitudeMeters>987.5999755859375</AltitudeMeters>
            <DistanceMeters>NAN</DistanceMeters>
          </Trackpoint>
          <Trackpoint>
            <Time>2021-04-01T15:14:03.000Z</Time>
            <Position>
              <LatitudeDegrees>42.38655008375644683837890625</LatitudeDegrees>
              <LongitudeDegrees>2.66142281703650951385498046875</LongitudeDegrees>
            </Position>
            <AltitudeMeters>987.79998779296875</AltitudeMeters>
            <DistanceMeters>NAN</DistanceMeters>
          </Trackpoint>
          <Trackpoint>
            <Time>2021-04-01T15:14:07.000Z</Time>
            <Position>
              <LatitudeDegrees>42.38656215369701385498046875</LatitudeDegrees>
              <LongitudeDegrees>2.661396749317646026611328125</LongitudeDegrees>
            </Position>
            <AltitudeMeters>988</AltitudeMeters>
            <DistanceMeters>NAN</DistanceMeters>
          </Trackpoint>
          <Trackpoint>
            <Time>2021-04-01T15:14:09.000Z</Time>
            <Position>
              <LatitudeDegrees>42.38656693138182163238525390625</LatitudeDegrees>
              <LongitudeDegrees>2.661384679377079010009765625</LongitudeDegrees>
            </Position>
            <AltitudeMeters>988.20001220703125</AltitudeMeters>
            <DistanceMeters>NAN</DistanceMeters>
          </Trackpoint>
          <Trackpoint>
            <Time>2021-04-01T15:14:11.000Z</Time>
            <Position>
              <LatitudeDegrees>42.3865780793130397796630859375</LatitudeDegrees>
              <LongitudeDegrees>2.661369927227497100830078125</LongitudeDegrees>
            </Position>
            <AltitudeMeters>988.20001220703125</AltitudeMeters>
            <DistanceMeters>NAN</DistanceMeters>
          </Trackpoint>
          <Trackpoint>
            <Time>2021-04-01T15:14:13.000Z</Time>
            <Position>
              <LatitudeDegrees>42.38658092916011810302734375</LatitudeDegrees>
              <LongitudeDegrees>2.66135710291564464569091796875</LongitudeDegrees>
            </Position>
            <AltitudeMeters>988.4000244140625</AltitudeMeters>
            <DistanceMeters>NAN</DistanceMeters>
          </Trackpoint>
          <Trackpoint>
            <Time>2021-04-01T15:14:14.000Z</Time>
            <Position>
              <LatitudeDegrees>42.38658905960619449615478515625</LatitudeDegrees>
              <LongitudeDegrees>2.6613372378051280975341796875</LongitudeDegrees>
            </Position>
            <AltitudeMeters>988.4000244140625</AltitudeMeters>
            <DistanceMeters>NAN</DistanceMeters>
          </Trackpoint>
          <Trackpoint>
            <Time>2021-04-01T15:14:15.000Z</Time>
            <Position>
              <LatitudeDegrees>42.38659291528165340423583984375</LatitudeDegrees>
              <LongitudeDegrees>2.661327011883258819580078125</LongitudeDegrees>
            </Position>
            <AltitudeMeters>988.5999755859375</AltitudeMeters>
            <DistanceMeters>NAN</DistanceMeters>
          </Trackpoint>
          <Trackpoint>
            <Time>2021-04-01T15:14:17.000Z</Time>
            <Position>
              <LatitudeDegrees>42.38660104572772979736328125</LatitudeDegrees>
              <LongitudeDegrees>2.66130681149661540985107421875</LongitudeDegrees>
            </Position>
            <AltitudeMeters>988.79998779296875</AltitudeMeters>
            <DistanceMeters>NAN</DistanceMeters>
          </Trackpoint>
          <Trackpoint>
            <Time>2021-04-01T15:14:22.000Z</Time>
            <Position>
              <LatitudeDegrees>42.3866196535527706146240234375</LatitudeDegrees>
              <LongitudeDegrees>2.661275379359722137451171875</LongitudeDegrees>
            </Position>
            <AltitudeMeters>989</AltitudeMeters>
            <DistanceMeters>NAN</DistanceMeters>
          </Trackpoint>
          <Trackpoint>
            <Time>2021-04-01T15:14:23.000Z</Time>
            <Position>
              <LatitudeDegrees>42.38662878982722759246826171875</LatitudeDegrees>
              <LongitudeDegrees>2.66125584952533245086669921875</LongitudeDegrees>
            </Position>
            <AltitudeMeters>989.20001220703125</AltitudeMeters>
            <DistanceMeters>NAN</DistanceMeters>
          </Trackpoint>
          <Trackpoint>
            <Time>2021-04-01T15:14:28.000Z</Time>
            <Position>
              <LatitudeDegrees>42.38664153032004833221435546875</LatitudeDegrees>
              <LongitudeDegrees>2.661215029656887054443359375</LongitudeDegrees>
            </Position>
            <AltitudeMeters>989.79998779296875</AltitudeMeters>
            <DistanceMeters>NAN</DistanceMeters>
          </Trackpoint>
          <Trackpoint>
            <Time>2021-04-01T15:14:32.000Z</Time>
            <Position>
              <LatitudeDegrees>42.3866593837738037109375</LatitudeDegrees>
              <LongitudeDegrees>2.66116767190396785736083984375</LongitudeDegrees>
            </Position>
            <AltitudeMeters>990.20001220703125</AltitudeMeters>
            <DistanceMeters>NAN</DistanceMeters>
          </Trackpoint>
          <Trackpoint>
            <Time>2021-04-01T15:14:36.000Z</Time>
            <Position>
              <LatitudeDegrees>42.38667237572371959686279296875</LatitudeDegrees>
              <LongitudeDegrees>2.6611280255019664764404296875</LongitudeDegrees>
            </Position>
            <AltitudeMeters>990.5999755859375</AltitudeMeters>
            <DistanceMeters>NAN</DistanceMeters>
          </Trackpoint>
          <Trackpoint>
            <Time>2021-04-01T15:14:42.000Z</Time>
            <Position>
              <LatitudeDegrees>42.3866984434425830841064453125</LatitudeDegrees>
              <LongitudeDegrees>2.66106474213302135467529296875</LongitudeDegrees>
            </Position>
            <AltitudeMeters>991.20001220703125</AltitudeMeters>
            <DistanceMeters>NAN</DistanceMeters>
          </Trackpoint>
          <Trackpoint>
            <Time>2021-04-01T15:14:44.000Z</Time>
            <Position>
              <LatitudeDegrees>42.3867036402225494384765625</LatitudeDegrees>
              <LongitudeDegrees>2.6610391773283481597900390625</LongitudeDegrees>
            </Position>
            <AltitudeMeters>991.4000244140625</AltitudeMeters>
            <DistanceMeters>NAN</DistanceMeters>
          </Trackpoint>
          <Trackpoint>
            <Time>2021-04-01T15:14:49.000Z</Time>
            <Position>
              <LatitudeDegrees>42.38672048784792423248291015625</LatitudeDegrees>
              <LongitudeDegrees>2.66099316067993640899658203125</LongitudeDegrees>
            </Position>
            <AltitudeMeters>991.79998779296875</AltitudeMeters>
            <DistanceMeters>NAN</DistanceMeters>
          </Trackpoint>
          <Trackpoint>
            <Time>2021-04-01T15:14:51.000Z</Time>
            <Position>
              <LatitudeDegrees>42.3867219127714633941650390625</LatitudeDegrees>
              <LongitudeDegrees>2.6609825156629085540771484375</LongitudeDegrees>
            </Position>
            <AltitudeMeters>992.20001220703125</AltitudeMeters>
            <DistanceMeters>NAN</DistanceMeters>
          </Trackpoint>
          <Trackpoint>
            <Time>2021-04-01T15:14:52.000Z</Time>
            <Position>
              <LatitudeDegrees>42.38672803156077861785888671875</LatitudeDegrees>
              <LongitudeDegrees>2.66096466220915317535400390625</LongitudeDegrees>
            </Position>
            <AltitudeMeters>992.20001220703125</AltitudeMeters>
            <DistanceMeters>NAN</DistanceMeters>
          </Trackpoint>
          <Trackpoint>
            <Time>2021-04-01T15:14:55.000Z</Time>
            <Position>
              <LatitudeDegrees>42.3867438733577728271484375</LatitudeDegrees>
              <LongitudeDegrees>2.660940103232860565185546875</LongitudeDegrees>
            </Position>
            <AltitudeMeters>992.5999755859375</AltitudeMeters>
            <DistanceMeters>NAN</DistanceMeters>
          </Trackpoint>
          <Trackpoint>
            <Time>2021-04-01T15:14:59.000Z</Time>
            <Position>
              <LatitudeDegrees>42.386758625507354736328125</LatitudeDegrees>
              <LongitudeDegrees>2.66090481542050838470458984375</LongitudeDegrees>
            </Position>
            <AltitudeMeters>993.20001220703125</AltitudeMeters>
            <DistanceMeters>NAN</DistanceMeters>
          </Trackpoint>
          <Trackpoint>
            <Time>2021-04-01T15:15:01.000Z</Time>
            <Position>
              <LatitudeDegrees>42.38676591776311397552490234375</LatitudeDegrees>
              <LongitudeDegrees>2.660880424082279205322265625</LongitudeDegrees>
            </Position>
            <AltitudeMeters>993.4000244140625</AltitudeMeters>
            <DistanceMeters>NAN</DistanceMeters>
          </Trackpoint>
          <Trackpoint>
            <Time>2021-04-01T15:15:09.000Z</Time>
            <Position>
              <LatitudeDegrees>42.3867795802652835845947265625</LatitudeDegrees>
              <LongitudeDegrees>2.6607873849570751190185546875</LongitudeDegrees>
            </Position>
            <AltitudeMeters>994</AltitudeMeters>
            <DistanceMeters>NAN</DistanceMeters>
          </Trackpoint>
          <Trackpoint>
            <Time>2021-04-01T15:15:13.000Z</Time>
            <Position>
              <LatitudeDegrees>42.38678284920752048492431640625</LatitudeDegrees>
              <LongitudeDegrees>2.6607427932322025299072265625</LongitudeDegrees>
            </Position>
            <AltitudeMeters>994.4000244140625</AltitudeMeters>
            <DistanceMeters>NAN</DistanceMeters>
          </Trackpoint>
          <Trackpoint>
            <Time>2021-04-01T15:15:17.000Z</Time>
            <Position>
              <LatitudeDegrees>42.38678871653974056243896484375</LatitudeDegrees>
              <LongitudeDegrees>2.66069526784121990203857421875</LongitudeDegrees>
            </Position>
            <AltitudeMeters>994.79998779296875</AltitudeMeters>
            <DistanceMeters>NAN</DistanceMeters>
          </Trackpoint>
          <Trackpoint>
            <Time>2021-04-01T15:15:26.000Z</Time>
            <Position>
              <LatitudeDegrees>42.38680489361286163330078125</LatitudeDegrees>
              <LongitudeDegrees>2.660601474344730377197265625</LongitudeDegrees>
            </Position>
            <AltitudeMeters>995</AltitudeMeters>
            <DistanceMeters>NAN</DistanceMeters>
          </Trackpoint>
          <Trackpoint>
            <Time>2021-04-01T15:15:32.000Z</Time>
            <Position>
              <LatitudeDegrees>42.38680221140384674072265625</LatitudeDegrees>
              <LongitudeDegrees>2.66053349711000919342041015625</LongitudeDegrees>
            </Position>
            <AltitudeMeters>995.5999755859375</AltitudeMeters>
            <DistanceMeters>NAN</DistanceMeters>
          </Trackpoint>
          <Trackpoint>
            <Time>2021-04-01T15:15:36.000Z</Time>
            <Position>
              <LatitudeDegrees>42.38680397160351276397705078125</LatitudeDegrees>
              <LongitudeDegrees>2.66047482378780841827392578125</LongitudeDegrees>
            </Position>
            <AltitudeMeters>996</AltitudeMeters>
            <DistanceMeters>NAN</DistanceMeters>
          </Trackpoint>
          <Trackpoint>
            <Time>2021-04-01T15:15:37.000Z</Time>
            <Position>
              <LatitudeDegrees>42.3868070729076862335205078125</LatitudeDegrees>
              <LongitudeDegrees>2.66045688651502132415771484375</LongitudeDegrees>
            </Position>
            <AltitudeMeters>996</AltitudeMeters>
            <DistanceMeters>NAN</DistanceMeters>
          </Trackpoint>
          <Trackpoint>
            <Time>2021-04-01T15:15:46.000Z</Time>
            <Position>
              <LatitudeDegrees>42.38681537099182605743408203125</LatitudeDegrees>
              <LongitudeDegrees>2.66035580076277256011962890625</LongitudeDegrees>
            </Position>
            <AltitudeMeters>996.5999755859375</AltitudeMeters>
            <DistanceMeters>NAN</DistanceMeters>
          </Trackpoint>
          <Trackpoint>
            <Time>2021-04-01T15:15:50.000Z</Time>
            <Position>
              <LatitudeDegrees>42.38681838847696781158447265625</LatitudeDegrees>
              <LongitudeDegrees>2.66030886210501194000244140625</LongitudeDegrees>
            </Position>
            <AltitudeMeters>996.79998779296875</AltitudeMeters>
            <DistanceMeters>NAN</DistanceMeters>
          </Trackpoint>
          <Trackpoint>
            <Time>2021-04-01T15:15:53.000Z</Time>
            <Position>
              <LatitudeDegrees>42.38681830465793609619140625</LatitudeDegrees>
              <LongitudeDegrees>2.66027667559683322906494140625</LongitudeDegrees>
            </Position>
            <AltitudeMeters>997.20001220703125</AltitudeMeters>
            <DistanceMeters>NAN</DistanceMeters>
          </Trackpoint>
          <Trackpoint>
            <Time>2021-04-01T15:15:56.000Z</Time>
            <Position>
              <LatitudeDegrees>42.3868161253631114959716796875</LatitudeDegrees>
              <LongitudeDegrees>2.66024432145059108734130859375</LongitudeDegrees>
            </Position>
            <AltitudeMeters>997.20001220703125</AltitudeMeters>
            <DistanceMeters>NAN</DistanceMeters>
          </Trackpoint>
          <Trackpoint>
            <Time>2021-04-01T15:15:58.000Z</Time>
            <Position>
              <LatitudeDegrees>42.3868174664676189422607421875</LatitudeDegrees>
              <LongitudeDegrees>2.660222947597503662109375</LongitudeDegrees>
            </Position>
            <AltitudeMeters>997.4000244140625</AltitudeMeters>
            <DistanceMeters>NAN</DistanceMeters>
          </Trackpoint>
          <Trackpoint>
            <Time>2021-04-01T15:16:00.000Z</Time>
            <Position>
              <LatitudeDegrees>42.386816628277301788330078125</LatitudeDegrees>
              <LongitudeDegrees>2.6602127216756343841552734375</LongitudeDegrees>
            </Position>
            <AltitudeMeters>997.5999755859375</AltitudeMeters>
            <DistanceMeters>NAN</DistanceMeters>
          </Trackpoint>
          <Trackpoint>
            <Time>2021-04-01T15:16:01.000Z</Time>
            <Position>
              <LatitudeDegrees>42.3868137784302234649658203125</LatitudeDegrees>
              <LongitudeDegrees>2.66019067727029323577880859375</LongitudeDegrees>
            </Position>
            <AltitudeMeters>997.5999755859375</AltitudeMeters>
            <DistanceMeters>NAN</DistanceMeters>
          </Trackpoint>
          <Trackpoint>
            <Time>2021-04-01T15:16:08.000Z</Time>
            <Position>
              <LatitudeDegrees>42.3868151195347309112548828125</LatitudeDegrees>
              <LongitudeDegrees>2.6601121388375759124755859375</LongitudeDegrees>
            </Position>
            <AltitudeMeters>998</AltitudeMeters>
            <DistanceMeters>NAN</DistanceMeters>
          </Trackpoint>
          <Trackpoint>
            <Time>2021-04-01T15:16:11.000Z</Time>
            <Position>
              <LatitudeDegrees>42.38680422306060791015625</LatitudeDegrees>
              <LongitudeDegrees>2.66008137725293636322021484375</LongitudeDegrees>
            </Position>
            <AltitudeMeters>998.20001220703125</AltitudeMeters>
            <DistanceMeters>NAN</DistanceMeters>
          </Trackpoint>
          <Trackpoint>
            <Time>2021-04-01T15:16:17.000Z</Time>
            <Position>
              <LatitudeDegrees>42.386795841157436370849609375</LatitudeDegrees>
              <LongitudeDegrees>2.66002186574041843414306640625</LongitudeDegrees>
            </Position>
            <AltitudeMeters>998.4000244140625</AltitudeMeters>
            <DistanceMeters>NAN</DistanceMeters>
          </Trackpoint>
          <Trackpoint>
            <Time>2021-04-01T15:16:23.000Z</Time>
            <Position>
              <LatitudeDegrees>42.38680413924157619476318359375</LatitudeDegrees>
              <LongitudeDegrees>2.65994944609701633453369140625</LongitudeDegrees>
            </Position>
            <AltitudeMeters>998.79998779296875</AltitudeMeters>
            <DistanceMeters>NAN</DistanceMeters>
          </Trackpoint>
          <Trackpoint>
            <Time>2021-04-01T15:16:26.000Z</Time>
            <Position>
              <LatitudeDegrees>42.38680548034608364105224609375</LatitudeDegrees>
              <LongitudeDegrees>2.659910134971141815185546875</LongitudeDegrees>
            </Position>
            <AltitudeMeters>999</AltitudeMeters>
            <DistanceMeters>NAN</DistanceMeters>
          </Trackpoint>
          <Trackpoint>
            <Time>2021-04-01T15:16:33.000Z</Time>
            <Position>
              <LatitudeDegrees>42.38680195994675159454345703125</LatitudeDegrees>
              <LongitudeDegrees>2.6598174311220645904541015625</LongitudeDegrees>
            </Position>
            <AltitudeMeters>999.5999755859375</AltitudeMeters>
            <DistanceMeters>NAN</DistanceMeters>
          </Trackpoint>
          <Trackpoint>
            <Time>2021-04-01T15:16:34.000Z</Time>
            <Position>
              <LatitudeDegrees>42.3868047259747982025146484375</LatitudeDegrees>
              <LongitudeDegrees>2.659805528819561004638671875</LongitudeDegrees>
            </Position>
            <AltitudeMeters>999.79998779296875</AltitudeMeters>
            <DistanceMeters>NAN</DistanceMeters>
          </Trackpoint>
          <Trackpoint>
            <Time>2021-04-01T15:16:38.000Z</Time>
            <Position>
              <LatitudeDegrees>42.38680900074541568756103515625</LatitudeDegrees>
              <LongitudeDegrees>2.65977258794009685516357421875</LongitudeDegrees>
            </Position>
            <AltitudeMeters>1000.20001220703125</AltitudeMeters>
            <DistanceMeters>NAN</DistanceMeters>
          </Trackpoint>
          <Trackpoint>
            <Time>2021-04-01T15:16:40.000Z</Time>
            <Position>
              <LatitudeDegrees>42.3868117667734622955322265625</LatitudeDegrees>
              <LongitudeDegrees>2.65974216163158416748046875</LongitudeDegrees>
            </Position>
            <AltitudeMeters>1000.4000244140625</AltitudeMeters>
            <DistanceMeters>NAN</DistanceMeters>
          </Trackpoint>
          <Trackpoint>
            <Time>2021-04-01T15:16:43.000Z</Time>
            <Position>
              <LatitudeDegrees>42.38682040013372898101806640625</LatitudeDegrees>
              <LongitudeDegrees>2.6597084663808345794677734375</LongitudeDegrees>
            </Position>
            <AltitudeMeters>1000.79998779296875</AltitudeMeters>
            <DistanceMeters>NAN</DistanceMeters>
          </Trackpoint>
          <Trackpoint>
            <Time>2021-04-01T15:16:49.000Z</Time>
            <Position>
              <LatitudeDegrees>42.386840768158435821533203125</LatitudeDegrees>
              <LongitudeDegrees>2.65964769758284091949462890625</LongitudeDegrees>
            </Position>
            <AltitudeMeters>1001.4000244140625</AltitudeMeters>
            <DistanceMeters>NAN</DistanceMeters>
          </Trackpoint>
          <Trackpoint>
            <Time>2021-04-01T15:16:53.000Z</Time>
            <Position>
              <LatitudeDegrees>42.3868600465357303619384765625</LatitudeDegrees>
              <LongitudeDegrees>2.65960679389536380767822265625</LongitudeDegrees>
            </Position>
            <AltitudeMeters>1001.79998779296875</AltitudeMeters>
            <DistanceMeters>NAN</DistanceMeters>
          </Trackpoint>
          <Trackpoint>
            <Time>2021-04-01T15:16:56.000Z</Time>
            <Position>
              <LatitudeDegrees>42.3868613876402378082275390625</LatitudeDegrees>
              <LongitudeDegrees>2.65957309864461421966552734375</LongitudeDegrees>
            </Position>
            <AltitudeMeters>1002.20001220703125</AltitudeMeters>
            <DistanceMeters>NAN</DistanceMeters>
          </Trackpoint>
          <Trackpoint>
            <Time>2021-04-01T15:16:59.000Z</Time>
            <Position>
              <LatitudeDegrees>42.38686113618314266204833984375</LatitudeDegrees>
              <LongitudeDegrees>2.6595448516309261322021484375</LongitudeDegrees>
            </Position>
            <AltitudeMeters>1002.5999755859375</AltitudeMeters>
            <DistanceMeters>NAN</DistanceMeters>
          </Trackpoint>
          <Trackpoint>
            <Time>2021-04-01T15:17:01.000Z</Time>
            <Position>
              <LatitudeDegrees>42.38686834461987018585205078125</LatitudeDegrees>
              <LongitudeDegrees>2.6595287583768367767333984375</LongitudeDegrees>
            </Position>
            <AltitudeMeters>1002.79998779296875</AltitudeMeters>
            <DistanceMeters>NAN</DistanceMeters>
          </Trackpoint>
          <Trackpoint>
            <Time>2021-04-01T15:17:04.000Z</Time>
            <Position>
              <LatitudeDegrees>42.38687370903789997100830078125</LatitudeDegrees>
              <LongitudeDegrees>2.65950118191540241241455078125</LongitudeDegrees>
            </Position>
            <AltitudeMeters>1003.4000244140625</AltitudeMeters>
            <DistanceMeters>NAN</DistanceMeters>
          </Trackpoint>
          <Trackpoint>
            <Time>2021-04-01T15:17:10.000Z</Time>
            <Position>
              <LatitudeDegrees>42.3868892155587673187255859375</LatitudeDegrees>
              <LongitudeDegrees>2.6594466157257556915283203125</LongitudeDegrees>
            </Position>
            <AltitudeMeters>1004</AltitudeMeters>
            <DistanceMeters>NAN</DistanceMeters>
          </Trackpoint>
          <Trackpoint>
            <Time>2021-04-01T15:17:12.000Z</Time>
            <Position>
              <LatitudeDegrees>42.38689533434808254241943359375</LatitudeDegrees>
              <LongitudeDegrees>2.65942490659654140472412109375</LongitudeDegrees>
            </Position>
            <AltitudeMeters>1004.20001220703125</AltitudeMeters>
            <DistanceMeters>NAN</DistanceMeters>
          </Trackpoint>
          <Trackpoint>
            <Time>2021-04-01T15:17:15.000Z</Time>
            <Position>
              <LatitudeDegrees>42.38690287806093692779541015625</LatitudeDegrees>
              <LongitudeDegrees>2.65938098542392253875732421875</LongitudeDegrees>
            </Position>
            <AltitudeMeters>1004.5999755859375</AltitudeMeters>
            <DistanceMeters>NAN</DistanceMeters>
          </Trackpoint>
          <Trackpoint>
            <Time>2021-04-01T15:17:19.000Z</Time>
            <Position>
              <LatitudeDegrees>42.3869197256863117218017578125</LatitudeDegrees>
              <LongitudeDegrees>2.65934259630739688873291015625</LongitudeDegrees>
            </Position>
            <AltitudeMeters>1005</AltitudeMeters>
            <DistanceMeters>NAN</DistanceMeters>
          </Trackpoint>
          <Trackpoint>
            <Time>2021-04-01T15:17:23.000Z</Time>
            <Position>
              <LatitudeDegrees>42.3869418539106845855712890625</LatitudeDegrees>
              <LongitudeDegrees>2.65929557383060455322265625</LongitudeDegrees>
            </Position>
            <AltitudeMeters>1005.5999755859375</AltitudeMeters>
            <DistanceMeters>NAN</DistanceMeters>
          </Trackpoint>
          <Trackpoint>
            <Time>2021-04-01T15:17:25.000Z</Time>
            <Position>
              <LatitudeDegrees>42.38694663159549236297607421875</LatitudeDegrees>
              <LongitudeDegrees>2.65928274951875209808349609375</LongitudeDegrees>
            </Position>
            <AltitudeMeters>1006</AltitudeMeters>
            <DistanceMeters>NAN</DistanceMeters>
          </Trackpoint>
          <Trackpoint>
            <Time>2021-04-01T15:17:27.000Z</Time>
            <Position>
              <LatitudeDegrees>42.38694478757679462432861328125</LatitudeDegrees>
              <LongitudeDegrees>2.659273445606231689453125</LongitudeDegrees>
            </Position>
            <AltitudeMeters>1006</AltitudeMeters>
            <DistanceMeters>NAN</DistanceMeters>
          </Trackpoint>
          <Trackpoint>
            <Time>2021-04-01T15:17:31.000Z</Time>
            <Position>
              <LatitudeDegrees>42.38696582615375518798828125</LatitudeDegrees>
              <LongitudeDegrees>2.65923430211842060089111328125</LongitudeDegrees>
            </Position>
            <AltitudeMeters>1006.5999755859375</AltitudeMeters>
            <DistanceMeters>NAN</DistanceMeters>
          </Trackpoint>
          <Trackpoint>
            <Time>2021-04-01T15:17:37.000Z</Time>
            <Position>
              <LatitudeDegrees>42.38698862493038177490234375</LatitudeDegrees>
              <LongitudeDegrees>2.659197337925434112548828125</LongitudeDegrees>
            </Position>
            <AltitudeMeters>1007.20001220703125</AltitudeMeters>
            <DistanceMeters>NAN</DistanceMeters>
          </Trackpoint>
          <Trackpoint>
            <Time>2021-04-01T15:17:42.000Z</Time>
            <Position>
              <LatitudeDegrees>42.38700664602220058441162109375</LatitudeDegrees>
              <LongitudeDegrees>2.65915878117084503173828125</LongitudeDegrees>
            </Position>
            <AltitudeMeters>1007.5999755859375</AltitudeMeters>
            <DistanceMeters>NAN</DistanceMeters>
          </Trackpoint>
          <Trackpoint>
            <Time>2021-04-01T15:17:49.000Z</Time>
            <Position>
              <LatitudeDegrees>42.38702978007495403289794921875</LatitudeDegrees>
              <LongitudeDegrees>2.65907085500657558441162109375</LongitudeDegrees>
            </Position>
            <AltitudeMeters>1008.20001220703125</AltitudeMeters>
            <DistanceMeters>NAN</DistanceMeters>
          </Trackpoint>
          <Trackpoint>
            <Time>2021-04-01T15:17:57.000Z</Time>
            <Position>
              <LatitudeDegrees>42.38704218529164791107177734375</LatitudeDegrees>
              <LongitudeDegrees>2.65899742953479290008544921875</LongitudeDegrees>
            </Position>
            <AltitudeMeters>1009.20001220703125</AltitudeMeters>
            <DistanceMeters>NAN</DistanceMeters>
          </Trackpoint>
          <Trackpoint>
            <Time>2021-04-01T15:18:06.000Z</Time>
            <Position>
              <LatitudeDegrees>42.3870630562305450439453125</LatitudeDegrees>
              <LongitudeDegrees>2.65890640206634998321533203125</LongitudeDegrees>
            </Position>
            <AltitudeMeters>1010.20001220703125</AltitudeMeters>
            <DistanceMeters>NAN</DistanceMeters>
          </Trackpoint>
          <Trackpoint>
            <Time>2021-04-01T15:18:07.000Z</Time>
            <Position>
              <LatitudeDegrees>42.3870632238686084747314453125</LatitudeDegrees>
              <LongitudeDegrees>2.65890187583863735198974609375</LongitudeDegrees>
            </Position>
            <AltitudeMeters>1010.4000244140625</AltitudeMeters>
            <DistanceMeters>NAN</DistanceMeters>
          </Trackpoint>
          <Trackpoint>
            <Time>2021-04-01T15:18:12.000Z</Time>
            <Position>
              <LatitudeDegrees>42.38707973621785640716552734375</LatitudeDegrees>
              <LongitudeDegrees>2.65885678119957447052001953125</LongitudeDegrees>
            </Position>
            <AltitudeMeters>1011.20001220703125</AltitudeMeters>
            <DistanceMeters>NAN</DistanceMeters>
          </Trackpoint>
          <Trackpoint>
            <Time>2021-04-01T15:18:14.000Z</Time>
            <Position>
              <LatitudeDegrees>42.3870903812348842620849609375</LatitudeDegrees>
              <LongitudeDegrees>2.65883532352745532989501953125</LongitudeDegrees>
            </Position>
            <AltitudeMeters>1011.4000244140625</AltitudeMeters>
            <DistanceMeters>NAN</DistanceMeters>
          </Trackpoint>
          <Trackpoint>
            <Time>2021-04-01T15:18:15.000Z</Time>
            <Position>
              <LatitudeDegrees>42.38709566183388233184814453125</LatitudeDegrees>
              <LongitudeDegrees>2.65882308594882488250732421875</LongitudeDegrees>
            </Position>
            <AltitudeMeters>1011.5999755859375</AltitudeMeters>
            <DistanceMeters>NAN</DistanceMeters>
          </Trackpoint>
          <Trackpoint>
            <Time>2021-04-01T15:18:22.000Z</Time>
            <Position>
              <LatitudeDegrees>42.38713237456977367401123046875</LatitudeDegrees>
              <LongitudeDegrees>2.6587703637778759002685546875</LongitudeDegrees>
            </Position>
            <AltitudeMeters>1012.4000244140625</AltitudeMeters>
            <DistanceMeters>NAN</DistanceMeters>
          </Trackpoint>
          <Trackpoint>
            <Time>2021-04-01T15:18:27.000Z</Time>
            <Position>
              <LatitudeDegrees>42.3871569335460662841796875</LatitudeDegrees>
              <LongitudeDegrees>2.658724598586559295654296875</LongitudeDegrees>
            </Position>
            <AltitudeMeters>1013.20001220703125</AltitudeMeters>
            <DistanceMeters>NAN</DistanceMeters>
          </Trackpoint>
          <Trackpoint>
            <Time>2021-04-01T15:18:29.000Z</Time>
            <Position>
              <LatitudeDegrees>42.38716967403888702392578125</LatitudeDegrees>
              <LongitudeDegrees>2.658704817295074462890625</LongitudeDegrees>
            </Position>
            <AltitudeMeters>1013.5999755859375</AltitudeMeters>
            <DistanceMeters>NAN</DistanceMeters>
          </Trackpoint>
          <Trackpoint>
            <Time>2021-04-01T15:18:36.000Z</Time>
            <Position>
              <LatitudeDegrees>42.387192137539386749267578125</LatitudeDegrees>
              <LongitudeDegrees>2.6586479879915714263916015625</LongitudeDegrees>
            </Position>
            <AltitudeMeters>1014.4000244140625</AltitudeMeters>
            <DistanceMeters>NAN</DistanceMeters>
          </Trackpoint>
          <Trackpoint>
            <Time>2021-04-01T15:18:37.000Z</Time>
            <Position>
              <LatitudeDegrees>42.387195490300655364990234375</LatitudeDegrees>
              <LongitudeDegrees>2.6586429588496685028076171875</LongitudeDegrees>
            </Position>
            <AltitudeMeters>1014.5999755859375</AltitudeMeters>
            <DistanceMeters>NAN</DistanceMeters>
          </Trackpoint>
          <Trackpoint>
            <Time>2021-04-01T15:18:39.000Z</Time>
            <Position>
              <LatitudeDegrees>42.387198843061923980712890625</LatitudeDegrees>
              <LongitudeDegrees>2.658634744584560394287109375</LongitudeDegrees>
            </Position>
            <AltitudeMeters>1014.79998779296875</AltitudeMeters>
            <DistanceMeters>NAN</DistanceMeters>
          </Trackpoint>
          <Trackpoint>
            <Time>2021-04-01T15:18:42.000Z</Time>
            <Position>
              <LatitudeDegrees>42.38720647059381008148193359375</LatitudeDegrees>
              <LongitudeDegrees>2.6586154662072658538818359375</LongitudeDegrees>
            </Position>
            <AltitudeMeters>1015.20001220703125</AltitudeMeters>
            <DistanceMeters>NAN</DistanceMeters>
          </Trackpoint>
          <Trackpoint>
            <Time>2021-04-01T15:18:46.000Z</Time>
            <Position>
              <LatitudeDegrees>42.3872214742004871368408203125</LatitudeDegrees>
              <LongitudeDegrees>2.65857313759624958038330078125</LongitudeDegrees>
            </Position>
            <AltitudeMeters>1015.5999755859375</AltitudeMeters>
            <DistanceMeters>NAN</DistanceMeters>
          </Trackpoint>
          <Trackpoint>
            <Time>2021-04-01T15:18:50.000Z</Time>
            <Position>
              <LatitudeDegrees>42.3872293531894683837890625</LatitudeDegrees>
              <LongitudeDegrees>2.658554278314113616943359375</LongitudeDegrees>
            </Position>
            <AltitudeMeters>1015.79998779296875</AltitudeMeters>
            <DistanceMeters>NAN</DistanceMeters>
          </Trackpoint>
          <Trackpoint>
            <Time>2021-04-01T15:18:57.000Z</Time>
            <Position>
              <LatitudeDegrees>42.38723161630332469940185546875</LatitudeDegrees>
              <LongitudeDegrees>2.6585708744823932647705078125</LongitudeDegrees>
            </Position>
            <AltitudeMeters>1016</AltitudeMeters>
            <DistanceMeters>NAN</DistanceMeters>
          </Trackpoint>
          <Trackpoint>
            <Time>2021-04-01T15:19:00.000Z</Time>
            <Position>
              <LatitudeDegrees>42.38722474314272403717041015625</LatitudeDegrees>
              <LongitudeDegrees>2.65856157056987285614013671875</LongitudeDegrees>
            </Position>
            <AltitudeMeters>1015.79998779296875</AltitudeMeters>
            <DistanceMeters>NAN</DistanceMeters>
          </Trackpoint>
          <Trackpoint>
            <Time>2021-04-01T15:19:07.000Z</Time>
            <Position>
              <LatitudeDegrees>42.38725525327026844024658203125</LatitudeDegrees>
              <LongitudeDegrees>2.65848546288907527923583984375</LongitudeDegrees>
            </Position>
            <AltitudeMeters>1016.4000244140625</AltitudeMeters>
            <DistanceMeters>NAN</DistanceMeters>
          </Trackpoint>
          <Trackpoint>
            <Time>2021-04-01T15:19:08.000Z</Time>
            <Position>
              <LatitudeDegrees>42.38725525327026844024658203125</LatitudeDegrees>
              <LongitudeDegrees>2.65848546288907527923583984375</LongitudeDegrees>
            </Position>
            <AltitudeMeters>1016.5999755859375</AltitudeMeters>
            <DistanceMeters>NAN</DistanceMeters>
          </Trackpoint>
          <Trackpoint>
            <Time>2021-04-01T15:19:09.000Z</Time>
            <Position>
              <LatitudeDegrees>42.3872710950672626495361328125</LatitudeDegrees>
              <LongitudeDegrees>2.6584726385772228240966796875</LongitudeDegrees>
            </Position>
            <AltitudeMeters>1016.5999755859375</AltitudeMeters>
            <DistanceMeters>NAN</DistanceMeters>
          </Trackpoint>
          <Trackpoint>
            <Time>2021-04-01T15:19:15.000Z</Time>
            <Position>
              <LatitudeDegrees>42.3872995935380458831787109375</LatitudeDegrees>
              <LongitudeDegrees>2.65843190252780914306640625</LongitudeDegrees>
            </Position>
            <AltitudeMeters>1017.20001220703125</AltitudeMeters>
            <DistanceMeters>NAN</DistanceMeters>
          </Trackpoint>
          <Trackpoint>
            <Time>2021-04-01T15:19:20.000Z</Time>
            <Position>
              <LatitudeDegrees>42.38731979392468929290771484375</LatitudeDegrees>
              <LongitudeDegrees>2.658387310802936553955078125</LongitudeDegrees>
            </Position>
            <AltitudeMeters>1017.5999755859375</AltitudeMeters>
            <DistanceMeters>NAN</DistanceMeters>
          </Trackpoint>
          <Trackpoint>
            <Time>2021-04-01T15:19:23.000Z</Time>
            <Position>
              <LatitudeDegrees>42.38732918165624141693115234375</LatitudeDegrees>
              <LongitudeDegrees>2.65835939906537532806396484375</LongitudeDegrees>
            </Position>
            <AltitudeMeters>1018</AltitudeMeters>
            <DistanceMeters>NAN</DistanceMeters>
          </Trackpoint>
          <Trackpoint>
            <Time>2021-04-01T15:19:33.000Z</Time>
            <Position>
              <LatitudeDegrees>42.387369163334369659423828125</LatitudeDegrees>
              <LongitudeDegrees>2.6582768373191356658935546875</LongitudeDegrees>
            </Position>
            <AltitudeMeters>1018.79998779296875</AltitudeMeters>
            <DistanceMeters>NAN</DistanceMeters>
          </Trackpoint>
          <Trackpoint>
            <Time>2021-04-01T15:19:41.000Z</Time>
            <Position>
              <LatitudeDegrees>42.38738165237009525299072265625</LatitudeDegrees>
              <LongitudeDegrees>2.65820768661797046661376953125</LongitudeDegrees>
            </Position>
            <AltitudeMeters>1019.5999755859375</AltitudeMeters>
            <DistanceMeters>NAN</DistanceMeters>
          </Trackpoint>
          <Trackpoint>
            <Time>2021-04-01T15:19:43.000Z</Time>
            <Position>
              <LatitudeDegrees>42.3873924650251865386962890625</LatitudeDegrees>
              <LongitudeDegrees>2.65819427557289600372314453125</LongitudeDegrees>
            </Position>
            <AltitudeMeters>1019.79998779296875</AltitudeMeters>
            <DistanceMeters>NAN</DistanceMeters>
          </Trackpoint>
          <Trackpoint>
            <Time>2021-04-01T15:19:50.000Z</Time>
            <Position>
              <LatitudeDegrees>42.38743613474071025848388671875</LatitudeDegrees>
              <LongitudeDegrees>2.65813593752682209014892578125</LongitudeDegrees>
            </Position>
            <AltitudeMeters>1020.5999755859375</AltitudeMeters>
            <DistanceMeters>NAN</DistanceMeters>
          </Trackpoint>
          <Trackpoint>
            <Time>2021-04-01T15:19:53.000Z</Time>
            <Position>
              <LatitudeDegrees>42.387448288500308990478515625</LatitudeDegrees>
              <LongitudeDegrees>2.6581105403602123260498046875</LongitudeDegrees>
            </Position>
            <AltitudeMeters>1021</AltitudeMeters>
            <DistanceMeters>NAN</DistanceMeters>
          </Trackpoint>
          <Trackpoint>
            <Time>2021-04-01T15:20:00.000Z</Time>
            <Position>
              <LatitudeDegrees>42.38746463321149349212646484375</LatitudeDegrees>
              <LongitudeDegrees>2.6580428145825862884521484375</LongitudeDegrees>
            </Position>
            <AltitudeMeters>1021.5999755859375</AltitudeMeters>
            <DistanceMeters>NAN</DistanceMeters>
          </Trackpoint>
          <Trackpoint>
            <Time>2021-04-01T15:20:06.000Z</Time>
            <Position>
              <LatitudeDegrees>42.387468405067920684814453125</LatitudeDegrees>
              <LongitudeDegrees>2.65797165222465991973876953125</LongitudeDegrees>
            </Position>
            <AltitudeMeters>1022</AltitudeMeters>
            <DistanceMeters>NAN</DistanceMeters>
          </Trackpoint>
          <Trackpoint>
            <Time>2021-04-01T15:20:11.000Z</Time>
            <Position>
              <LatitudeDegrees>42.3874679021537303924560546875</LatitudeDegrees>
              <LongitudeDegrees>2.65792722813785076141357421875</LongitudeDegrees>
            </Position>
            <AltitudeMeters>1022.4000244140625</AltitudeMeters>
            <DistanceMeters>NAN</DistanceMeters>
          </Trackpoint>
          <Trackpoint>
            <Time>2021-04-01T15:20:17.000Z</Time>
            <Position>
              <LatitudeDegrees>42.38745398819446563720703125</LatitudeDegrees>
              <LongitudeDegrees>2.65786771662533283233642578125</LongitudeDegrees>
            </Position>
            <AltitudeMeters>1023</AltitudeMeters>
            <DistanceMeters>NAN</DistanceMeters>
          </Trackpoint>
          <Trackpoint>
            <Time>2021-04-01T15:20:20.000Z</Time>
            <Position>
              <LatitudeDegrees>42.38745725713670253753662109375</LatitudeDegrees>
              <LongitudeDegrees>2.6578503660857677459716796875</LongitudeDegrees>
            </Position>
            <AltitudeMeters>1023</AltitudeMeters>
            <DistanceMeters>NAN</DistanceMeters>
          </Trackpoint>
          <Trackpoint>
            <Time>2021-04-01T15:20:23.000Z</Time>
            <Position>
              <LatitudeDegrees>42.3874581791460514068603515625</LatitudeDegrees>
              <LongitudeDegrees>2.65784919261932373046875</LongitudeDegrees>
            </Position>
            <AltitudeMeters>1023</AltitudeMeters>
            <DistanceMeters>NAN</DistanceMeters>
          </Trackpoint>
          <Trackpoint>
            <Time>2021-04-01T15:20:29.000Z</Time>
            <Position>
              <LatitudeDegrees>42.387461364269256591796875</LatitudeDegrees>
              <LongitudeDegrees>2.65785229392349720001220703125</LongitudeDegrees>
            </Position>
            <AltitudeMeters>1022.79998779296875</AltitudeMeters>
            <DistanceMeters>NAN</DistanceMeters>
          </Trackpoint>
          <Trackpoint>
            <Time>2021-04-01T15:20:34.000Z</Time>
            <Position>
              <LatitudeDegrees>42.387461364269256591796875</LatitudeDegrees>
              <LongitudeDegrees>2.65785229392349720001220703125</LongitudeDegrees>
            </Position>
            <AltitudeMeters>1022.5999755859375</AltitudeMeters>
            <DistanceMeters>NAN</DistanceMeters>
          </Trackpoint>
          <Trackpoint>
            <Time>2021-04-01T15:20:39.000Z</Time>
            <Position>
              <LatitudeDegrees>42.387461364269256591796875</LatitudeDegrees>
              <LongitudeDegrees>2.65785229392349720001220703125</LongitudeDegrees>
            </Position>
            <AltitudeMeters>1022.5999755859375</AltitudeMeters>
            <DistanceMeters>NAN</DistanceMeters>
          </Trackpoint>
          <Trackpoint>
            <Time>2021-04-01T15:20:41.000Z</Time>
            <Position>
              <LatitudeDegrees>42.387461364269256591796875</LatitudeDegrees>
              <LongitudeDegrees>2.657852880656719207763671875</LongitudeDegrees>
            </Position>
            <AltitudeMeters>1022.5999755859375</AltitudeMeters>
            <DistanceMeters>NAN</DistanceMeters>
          </Trackpoint>
          <Trackpoint>
            <Time>2021-04-01T15:20:49.000Z</Time>
            <Position>
              <LatitudeDegrees>42.38746195100247859954833984375</LatitudeDegrees>
              <LongitudeDegrees>2.65785313211381435394287109375</LongitudeDegrees>
            </Position>
            <AltitudeMeters>1022.5999755859375</AltitudeMeters>
            <DistanceMeters>NAN</DistanceMeters>
          </Trackpoint>
          <Trackpoint>
            <Time>2021-04-01T15:20:56.000Z</Time>
            <Position>
              <LatitudeDegrees>42.38746195100247859954833984375</LatitudeDegrees>
              <LongitudeDegrees>2.65785313211381435394287109375</LongitudeDegrees>
            </Position>
            <AltitudeMeters>1022.5999755859375</AltitudeMeters>
            <DistanceMeters>NAN</DistanceMeters>
          </Trackpoint>
          <Trackpoint>
            <Time>2021-04-01T15:21:03.000Z</Time>
            <Position>
              <LatitudeDegrees>42.3874511383473873138427734375</LatitudeDegrees>
              <LongitudeDegrees>2.6578289084136486053466796875</LongitudeDegrees>
            </Position>
            <AltitudeMeters>1022.4000244140625</AltitudeMeters>
            <DistanceMeters>NAN</DistanceMeters>
          </Trackpoint>
          <Trackpoint>
            <Time>2021-04-01T15:21:06.000Z</Time>
            <Position>
              <LatitudeDegrees>42.3874259926378726959228515625</LatitudeDegrees>
              <LongitudeDegrees>2.657784484326839447021484375</LongitudeDegrees>
            </Position>
            <AltitudeMeters>1022.4000244140625</AltitudeMeters>
            <DistanceMeters>NAN</DistanceMeters>
          </Trackpoint>
          <Trackpoint>
            <Time>2021-04-01T15:21:11.000Z</Time>
            <Position>
              <LatitudeDegrees>42.3873934708535671234130859375</LatitudeDegrees>
              <LongitudeDegrees>2.657704688608646392822265625</LongitudeDegrees>
            </Position>
            <AltitudeMeters>1022.4000244140625</AltitudeMeters>
            <DistanceMeters>NAN</DistanceMeters>
          </Trackpoint>
          <Trackpoint>
            <Time>2021-04-01T15:21:14.000Z</Time>
            <Position>
              <LatitudeDegrees>42.3873795568943023681640625</LatitudeDegrees>
              <LongitudeDegrees>2.657674849033355712890625</LongitudeDegrees>
            </Position>
            <AltitudeMeters>1022.4000244140625</AltitudeMeters>
            <DistanceMeters>NAN</DistanceMeters>
          </Trackpoint>
          <Trackpoint>
            <Time>2021-04-01T15:21:15.000Z</Time>
            <Position>
              <LatitudeDegrees>42.38737461157143115997314453125</LatitudeDegrees>
              <LongitudeDegrees>2.6576626114547252655029296875</LongitudeDegrees>
            </Position>
            <AltitudeMeters>1022.4000244140625</AltitudeMeters>
            <DistanceMeters>NAN</DistanceMeters>
          </Trackpoint>
          <Trackpoint>
            <Time>2021-04-01T15:21:17.000Z</Time>
            <Position>
              <LatitudeDegrees>42.38737075589597225189208984375</LatitudeDegrees>
              <LongitudeDegrees>2.6576508767902851104736328125</LongitudeDegrees>
            </Position>
            <AltitudeMeters>1022.4000244140625</AltitudeMeters>
            <DistanceMeters>NAN</DistanceMeters>
          </Trackpoint>
          <Trackpoint>
            <Time>2021-04-01T15:21:25.000Z</Time>
            <Position>
              <LatitudeDegrees>42.38732499070465564727783203125</LatitudeDegrees>
              <LongitudeDegrees>2.65755750238895416259765625</LongitudeDegrees>
            </Position>
            <AltitudeMeters>1022.4000244140625</AltitudeMeters>
            <DistanceMeters>NAN</DistanceMeters>
          </Trackpoint>
          <Trackpoint>
            <Time>2021-04-01T15:21:26.000Z</Time>
            <Position>
              <LatitudeDegrees>42.38731778226792812347412109375</LatitudeDegrees>
              <LongitudeDegrees>2.65754719264805316925048828125</LongitudeDegrees>
            </Position>
            <AltitudeMeters>1022.4000244140625</AltitudeMeters>
            <DistanceMeters>NAN</DistanceMeters>
          </Trackpoint>
          <Trackpoint>
            <Time>2021-04-01T15:21:29.000Z</Time>
            <Position>
              <LatitudeDegrees>42.38729749806225299835205078125</LatitudeDegrees>
              <LongitudeDegrees>2.65751785598695278167724609375</LongitudeDegrees>
            </Position>
            <AltitudeMeters>1022.4000244140625</AltitudeMeters>
            <DistanceMeters>NAN</DistanceMeters>
          </Trackpoint>
          <Trackpoint>
            <Time>2021-04-01T15:21:33.000Z</Time>
            <Position>
              <LatitudeDegrees>42.38727134652435779571533203125</LatitudeDegrees>
              <LongitudeDegrees>2.65748365782201290130615234375</LongitudeDegrees>
            </Position>
            <AltitudeMeters>1022.5999755859375</AltitudeMeters>
            <DistanceMeters>NAN</DistanceMeters>
          </Trackpoint>
          <Trackpoint>
            <Time>2021-04-01T15:21:34.000Z</Time>
            <Position>
              <LatitudeDegrees>42.3872660659253597259521484375</LatitudeDegrees>
              <LongitudeDegrees>2.657471001148223876953125</LongitudeDegrees>
            </Position>
            <AltitudeMeters>1022.79998779296875</AltitudeMeters>
            <DistanceMeters>NAN</DistanceMeters>
          </Trackpoint>
          <Trackpoint>
            <Time>2021-04-01T15:21:46.000Z</Time>
            <Position>
              <LatitudeDegrees>42.38718601875007152557373046875</LatitudeDegrees>
              <LongitudeDegrees>2.6573489606380462646484375</LongitudeDegrees>
            </Position>
            <AltitudeMeters>1022.5999755859375</AltitudeMeters>
            <DistanceMeters>NAN</DistanceMeters>
          </Trackpoint>
          <Trackpoint>
            <Time>2021-04-01T15:21:54.000Z</Time>
            <Position>
              <LatitudeDegrees>42.38714419305324554443359375</LatitudeDegrees>
              <LongitudeDegrees>2.6572626270353794097900390625</LongitudeDegrees>
            </Position>
            <AltitudeMeters>1023</AltitudeMeters>
            <DistanceMeters>NAN</DistanceMeters>
          </Trackpoint>
          <Trackpoint>
            <Time>2021-04-01T15:22:06.000Z</Time>
            <Position>
              <LatitudeDegrees>42.3870598711073398590087890625</LatitudeDegrees>
              <LongitudeDegrees>2.65715793706476688385009765625</LongitudeDegrees>
            </Position>
            <AltitudeMeters>1023</AltitudeMeters>
            <DistanceMeters>NAN</DistanceMeters>
          </Trackpoint>
          <Trackpoint>
            <Time>2021-04-01T15:22:11.000Z</Time>
            <Position>
              <LatitudeDegrees>42.3870313726365566253662109375</LatitudeDegrees>
              <LongitudeDegrees>2.6570976711809635162353515625</LongitudeDegrees>
            </Position>
            <AltitudeMeters>1023.20001220703125</AltitudeMeters>
            <DistanceMeters>NAN</DistanceMeters>
          </Trackpoint>
          <Trackpoint>
            <Time>2021-04-01T15:22:19.000Z</Time>
            <Position>
              <LatitudeDegrees>42.38698820583522319793701171875</LatitudeDegrees>
              <LongitudeDegrees>2.6570007763803005218505859375</LongitudeDegrees>
            </Position>
            <AltitudeMeters>1023.4000244140625</AltitudeMeters>
            <DistanceMeters>NAN</DistanceMeters>
          </Trackpoint>
          <Trackpoint>
            <Time>2021-04-01T15:22:26.000Z</Time>
            <Position>
              <LatitudeDegrees>42.3869612999260425567626953125</LatitudeDegrees>
              <LongitudeDegrees>2.65692458488047122955322265625</LongitudeDegrees>
            </Position>
            <AltitudeMeters>1023.4000244140625</AltitudeMeters>
            <DistanceMeters>NAN</DistanceMeters>
          </Trackpoint>
          <Trackpoint>
            <Time>2021-04-01T15:22:30.000Z</Time>
            <Position>
              <LatitudeDegrees>42.38693498075008392333984375</LatitudeDegrees>
              <LongitudeDegrees>2.65686272643506526947021484375</LongitudeDegrees>
            </Position>
            <AltitudeMeters>1023.5999755859375</AltitudeMeters>
            <DistanceMeters>NAN</DistanceMeters>
          </Trackpoint>
          <Trackpoint>
            <Time>2021-04-01T15:22:32.000Z</Time>
            <Position>
              <LatitudeDegrees>42.386923246085643768310546875</LatitudeDegrees>
              <LongitudeDegrees>2.65684260986745357513427734375</LongitudeDegrees>
            </Position>
            <AltitudeMeters>1023.5999755859375</AltitudeMeters>
            <DistanceMeters>NAN</DistanceMeters>
          </Trackpoint>
          <Trackpoint>
            <Time>2021-04-01T15:22:41.000Z</Time>
            <Position>
              <LatitudeDegrees>42.38684839569032192230224609375</LatitudeDegrees>
              <LongitudeDegrees>2.65676566399633884429931640625</LongitudeDegrees>
            </Position>
            <AltitudeMeters>1023.4000244140625</AltitudeMeters>
            <DistanceMeters>NAN</DistanceMeters>
          </Trackpoint>
          <Trackpoint>
            <Time>2021-04-01T15:22:45.000Z</Time>
            <Position>
              <LatitudeDegrees>42.38681302405893802642822265625</LatitudeDegrees>
              <LongitudeDegrees>2.6567362435162067413330078125</LongitudeDegrees>
            </Position>
            <AltitudeMeters>1023.4000244140625</AltitudeMeters>
            <DistanceMeters>NAN</DistanceMeters>
          </Trackpoint>
          <Trackpoint>
            <Time>2021-04-01T15:22:46.000Z</Time>
            <Position>
              <LatitudeDegrees>42.3868053965270519256591796875</LatitudeDegrees>
              <LongitudeDegrees>2.65672928653657436370849609375</LongitudeDegrees>
            </Position>
            <AltitudeMeters>1023.4000244140625</AltitudeMeters>
            <DistanceMeters>NAN</DistanceMeters>
          </Trackpoint>
          <Trackpoint>
            <Time>2021-04-01T15:22:56.000Z</Time>
            <Position>
              <LatitudeDegrees>42.38671696744859218597412109375</LatitudeDegrees>
              <LongitudeDegrees>2.6566507481038570404052734375</LongitudeDegrees>
            </Position>
            <AltitudeMeters>1023.20001220703125</AltitudeMeters>
            <DistanceMeters>NAN</DistanceMeters>
          </Trackpoint>
          <Trackpoint>
            <Time>2021-04-01T15:23:07.000Z</Time>
            <Position>
              <LatitudeDegrees>42.38664287142455577850341796875</LatitudeDegrees>
              <LongitudeDegrees>2.656549997627735137939453125</LongitudeDegrees>
            </Position>
            <AltitudeMeters>1022.5999755859375</AltitudeMeters>
            <DistanceMeters>NAN</DistanceMeters>
          </Trackpoint>
          <Trackpoint>
            <Time>2021-04-01T15:23:19.000Z</Time>
            <Position>
              <LatitudeDegrees>42.38654145039618015289306640625</LatitudeDegrees>
              <LongitudeDegrees>2.6564137078821659088134765625</LongitudeDegrees>
            </Position>
            <AltitudeMeters>1022.4000244140625</AltitudeMeters>
            <DistanceMeters>NAN</DistanceMeters>
          </Trackpoint>
          <Trackpoint>
            <Time>2021-04-01T15:23:21.000Z</Time>
            <Position>
              <LatitudeDegrees>42.38652284257113933563232421875</LatitudeDegrees>
              <LongitudeDegrees>2.65639250166714191436767578125</LongitudeDegrees>
            </Position>
            <AltitudeMeters>1022.4000244140625</AltitudeMeters>
            <DistanceMeters>NAN</DistanceMeters>
          </Trackpoint>
          <Trackpoint>
            <Time>2021-04-01T15:23:30.000Z</Time>
            <Position>
              <LatitudeDegrees>42.3864622414112091064453125</LatitudeDegrees>
              <LongitudeDegrees>2.65631723217666149139404296875</LongitudeDegrees>
            </Position>
            <AltitudeMeters>1022.5999755859375</AltitudeMeters>
            <DistanceMeters>NAN</DistanceMeters>
          </Trackpoint>
          <Trackpoint>
            <Time>2021-04-01T15:23:35.000Z</Time>
            <Position>
              <LatitudeDegrees>42.38641991280019283294677734375</LatitudeDegrees>
              <LongitudeDegrees>2.6562718860805034637451171875</LongitudeDegrees>
            </Position>
            <AltitudeMeters>1022.79998779296875</AltitudeMeters>
            <DistanceMeters>NAN</DistanceMeters>
          </Trackpoint>
          <Trackpoint>
            <Time>2021-04-01T15:23:40.000Z</Time>
            <Position>
              <LatitudeDegrees>42.3863728903234004974365234375</LatitudeDegrees>
              <LongitudeDegrees>2.6562202535569667816162109375</LongitudeDegrees>
            </Position>
            <AltitudeMeters>1022.5999755859375</AltitudeMeters>
            <DistanceMeters>NAN</DistanceMeters>
          </Trackpoint>
          <Trackpoint>
            <Time>2021-04-01T15:23:47.000Z</Time>
            <Position>
              <LatitudeDegrees>42.38632083870470523834228515625</LatitudeDegrees>
              <LongitudeDegrees>2.65614288859069347381591796875</LongitudeDegrees>
            </Position>
            <AltitudeMeters>1021.79998779296875</AltitudeMeters>
            <DistanceMeters>NAN</DistanceMeters>
          </Trackpoint>
          <Trackpoint>
            <Time>2021-04-01T15:23:56.000Z</Time>
            <Position>
              <LatitudeDegrees>42.38624808378517627716064453125</LatitudeDegrees>
              <LongitudeDegrees>2.65603459440171718597412109375</LongitudeDegrees>
            </Position>
            <AltitudeMeters>1021.4000244140625</AltitudeMeters>
            <DistanceMeters>NAN</DistanceMeters>
          </Trackpoint>
          <Trackpoint>
            <Time>2021-04-01T15:24:02.000Z</Time>
            <Position>
              <LatitudeDegrees>42.38620676100254058837890625</LatitudeDegrees>
              <LongitudeDegrees>2.6559570617973804473876953125</LongitudeDegrees>
            </Position>
            <AltitudeMeters>1020.79998779296875</AltitudeMeters>
            <DistanceMeters>NAN</DistanceMeters>
          </Trackpoint>
          <Trackpoint>
            <Time>2021-04-01T15:24:05.000Z</Time>
            <Position>
              <LatitudeDegrees>42.386186309158802032470703125</LatitudeDegrees>
              <LongitudeDegrees>2.65592512674629688262939453125</LongitudeDegrees>
            </Position>
            <AltitudeMeters>1020.79998779296875</AltitudeMeters>
            <DistanceMeters>NAN</DistanceMeters>
          </Trackpoint>
          <Trackpoint>
            <Time>2021-04-01T15:24:15.000Z</Time>
            <Position>
              <LatitudeDegrees>42.38610542379319667816162109375</LatitudeDegrees>
              <LongitudeDegrees>2.65582554973661899566650390625</LongitudeDegrees>
            </Position>
            <AltitudeMeters>1020.4000244140625</AltitudeMeters>
            <DistanceMeters>NAN</DistanceMeters>
          </Trackpoint>
          <Trackpoint>
            <Time>2021-04-01T15:24:18.000Z</Time>
            <Position>
              <LatitudeDegrees>42.38608983345329761505126953125</LatitudeDegrees>
              <LongitudeDegrees>2.65578833408653736114501953125</LongitudeDegrees>
            </Position>
            <AltitudeMeters>1020</AltitudeMeters>
            <DistanceMeters>NAN</DistanceMeters>
          </Trackpoint>
          <Trackpoint>
            <Time>2021-04-01T15:24:20.000Z</Time>
            <Position>
              <LatitudeDegrees>42.386068962514400482177734375</LatitudeDegrees>
              <LongitudeDegrees>2.655760757625102996826171875</LongitudeDegrees>
            </Position>
            <AltitudeMeters>1019.79998779296875</AltitudeMeters>
            <DistanceMeters>NAN</DistanceMeters>
          </Trackpoint>
          <Trackpoint>
            <Time>2021-04-01T15:24:22.000Z</Time>
            <Position>
              <LatitudeDegrees>42.38605387508869171142578125</LatitudeDegrees>
              <LongitudeDegrees>2.6557327620685100555419921875</LongitudeDegrees>
            </Position>
            <AltitudeMeters>1019.79998779296875</AltitudeMeters>
            <DistanceMeters>NAN</DistanceMeters>
          </Trackpoint>
          <Trackpoint>
            <Time>2021-04-01T15:24:27.000Z</Time>
            <Position>
              <LatitudeDegrees>42.3860148154199123382568359375</LatitudeDegrees>
              <LongitudeDegrees>2.6556730829179286956787109375</LongitudeDegrees>
            </Position>
            <AltitudeMeters>1019</AltitudeMeters>
            <DistanceMeters>NAN</DistanceMeters>
          </Trackpoint>
          <Trackpoint>
            <Time>2021-04-01T15:24:30.000Z</Time>
            <Position>
              <LatitudeDegrees>42.38598707132041454315185546875</LatitudeDegrees>
              <LongitudeDegrees>2.6556482724845409393310546875</LongitudeDegrees>
            </Position>
            <AltitudeMeters>1018.79998779296875</AltitudeMeters>
            <DistanceMeters>NAN</DistanceMeters>
          </Trackpoint>
          <Trackpoint>
            <Time>2021-04-01T15:24:39.000Z</Time>
            <Position>
              <LatitudeDegrees>42.385926805436611175537109375</LatitudeDegrees>
              <LongitudeDegrees>2.6555279083549976348876953125</LongitudeDegrees>
            </Position>
            <AltitudeMeters>1018.5999755859375</AltitudeMeters>
            <DistanceMeters>NAN</DistanceMeters>
          </Trackpoint>
          <Trackpoint>
            <Time>2021-04-01T15:24:49.000Z</Time>
            <Position>
              <LatitudeDegrees>42.38582395948469638824462890625</LatitudeDegrees>
              <LongitudeDegrees>2.65542112290859222412109375</LongitudeDegrees>
            </Position>
            <AltitudeMeters>1018.4000244140625</AltitudeMeters>
            <DistanceMeters>NAN</DistanceMeters>
          </Trackpoint>
          <Trackpoint>
            <Time>2021-04-01T15:25:01.000Z</Time>
            <Position>
              <LatitudeDegrees>42.3857187665998935699462890625</LatitudeDegrees>
              <LongitudeDegrees>2.65530645847320556640625</LongitudeDegrees>
            </Position>
            <AltitudeMeters>1018.4000244140625</AltitudeMeters>
            <DistanceMeters>NAN</DistanceMeters>
          </Trackpoint>
          <Trackpoint>
            <Time>2021-04-01T15:25:12.000Z</Time>
            <Position>
              <LatitudeDegrees>42.3856205306947231292724609375</LatitudeDegrees>
              <LongitudeDegrees>2.6552174426615238189697265625</LongitudeDegrees>
            </Position>
            <AltitudeMeters>1018.5999755859375</AltitudeMeters>
            <DistanceMeters>NAN</DistanceMeters>
          </Trackpoint>
          <Trackpoint>
            <Time>2021-04-01T15:25:14.000Z</Time>
            <Position>
              <LatitudeDegrees>42.38560058176517486572265625</LatitudeDegrees>
              <LongitudeDegrees>2.655204869806766510009765625</LongitudeDegrees>
            </Position>
            <AltitudeMeters>1018.79998779296875</AltitudeMeters>
            <DistanceMeters>NAN</DistanceMeters>
          </Trackpoint>
          <Trackpoint>
            <Time>2021-04-01T15:25:16.000Z</Time>
            <Position>
              <LatitudeDegrees>42.385575771331787109375</LatitudeDegrees>
              <LongitudeDegrees>2.65518601052463054656982421875</LongitudeDegrees>
            </Position>
            <AltitudeMeters>1018.5999755859375</AltitudeMeters>
            <DistanceMeters>NAN</DistanceMeters>
          </Trackpoint>
          <Trackpoint>
            <Time>2021-04-01T15:25:17.000Z</Time>
            <Position>
              <LatitudeDegrees>42.3855650424957275390625</LatitudeDegrees>
              <LongitudeDegrees>2.65517695806920528411865234375</LongitudeDegrees>
            </Position>
            <AltitudeMeters>1018.5999755859375</AltitudeMeters>
            <DistanceMeters>NAN</DistanceMeters>
          </Trackpoint>
          <Trackpoint>
            <Time>2021-04-01T15:25:19.000Z</Time>
            <Position>
              <LatitudeDegrees>42.38555406220257282257080078125</LatitudeDegrees>
              <LongitudeDegrees>2.655170671641826629638671875</LongitudeDegrees>
            </Position>
            <AltitudeMeters>1018.5999755859375</AltitudeMeters>
            <DistanceMeters>NAN</DistanceMeters>
          </Trackpoint>
          <Trackpoint>
            <Time>2021-04-01T15:25:21.000Z</Time>
            <Position>
              <LatitudeDegrees>42.38552707247436046600341796875</LatitudeDegrees>
              <LongitudeDegrees>2.65515466220676898956298828125</LongitudeDegrees>
            </Position>
            <AltitudeMeters>1018.4000244140625</AltitudeMeters>
            <DistanceMeters>NAN</DistanceMeters>
          </Trackpoint>
          <Trackpoint>
            <Time>2021-04-01T15:25:25.000Z</Time>
            <Position>
              <LatitudeDegrees>42.38548164255917072296142578125</LatitudeDegrees>
              <LongitudeDegrees>2.6551383174955844879150390625</LongitudeDegrees>
            </Position>
            <AltitudeMeters>1018.4000244140625</AltitudeMeters>
            <DistanceMeters>NAN</DistanceMeters>
          </Trackpoint>
          <Trackpoint>
            <Time>2021-04-01T15:25:29.000Z</Time>
            <Position>
              <LatitudeDegrees>42.3854362964630126953125</LatitudeDegrees>
              <LongitudeDegrees>2.6551272533833980560302734375</LongitudeDegrees>
            </Position>
            <AltitudeMeters>1018</AltitudeMeters>
            <DistanceMeters>NAN</DistanceMeters>
          </Trackpoint>
          <Trackpoint>
            <Time>2021-04-01T15:25:35.000Z</Time>
            <Position>
              <LatitudeDegrees>42.3853714205324649810791015625</LatitudeDegrees>
              <LongitudeDegrees>2.6550937257707118988037109375</LongitudeDegrees>
            </Position>
            <AltitudeMeters>1018</AltitudeMeters>
            <DistanceMeters>NAN</DistanceMeters>
          </Trackpoint>
          <Trackpoint>
            <Time>2021-04-01T15:25:38.000Z</Time>
            <Position>
              <LatitudeDegrees>42.3853383958339691162109375</LatitudeDegrees>
              <LongitudeDegrees>2.6550900377333164215087890625</LongitudeDegrees>
            </Position>
            <AltitudeMeters>1017.5999755859375</AltitudeMeters>
            <DistanceMeters>NAN</DistanceMeters>
          </Trackpoint>
          <Trackpoint>
            <Time>2021-04-01T15:25:40.000Z</Time>
            <Position>
              <LatitudeDegrees>42.385315261781215667724609375</LatitudeDegrees>
              <LongitudeDegrees>2.65508961863815784454345703125</LongitudeDegrees>
            </Position>
            <AltitudeMeters>1017.4000244140625</AltitudeMeters>
            <DistanceMeters>NAN</DistanceMeters>
          </Trackpoint>
          <Trackpoint>
            <Time>2021-04-01T15:25:43.000Z</Time>
            <Position>
              <LatitudeDegrees>42.3852820694446563720703125</LatitudeDegrees>
              <LongitudeDegrees>2.65509657561779022216796875</LongitudeDegrees>
            </Position>
            <AltitudeMeters>1017.4000244140625</AltitudeMeters>
            <DistanceMeters>NAN</DistanceMeters>
          </Trackpoint>
          <Trackpoint>
            <Time>2021-04-01T15:25:47.000Z</Time>
            <Position>
              <LatitudeDegrees>42.38524912856519222259521484375</LatitudeDegrees>
              <LongitudeDegrees>2.65511333942413330078125</LongitudeDegrees>
            </Position>
            <AltitudeMeters>1017.4000244140625</AltitudeMeters>
            <DistanceMeters>NAN</DistanceMeters>
          </Trackpoint>
          <Trackpoint>
            <Time>2021-04-01T15:25:48.000Z</Time>
            <Position>
              <LatitudeDegrees>42.38524208776652812957763671875</LatitudeDegrees>
              <LongitudeDegrees>2.65511535108089447021484375</LongitudeDegrees>
            </Position>
            <AltitudeMeters>1017.5999755859375</AltitudeMeters>
            <DistanceMeters>NAN</DistanceMeters>
          </Trackpoint>
          <Trackpoint>
            <Time>2021-04-01T15:25:49.000Z</Time>
            <Position>
              <LatitudeDegrees>42.38523580133914947509765625</LatitudeDegrees>
              <LongitudeDegrees>2.65512163750827312469482421875</LongitudeDegrees>
            </Position>
            <AltitudeMeters>1017.79998779296875</AltitudeMeters>
            <DistanceMeters>NAN</DistanceMeters>
          </Trackpoint>
          <Trackpoint>
            <Time>2021-04-01T15:25:52.000Z</Time>
            <Position>
              <LatitudeDegrees>42.38522197119891643524169921875</LatitudeDegrees>
              <LongitudeDegrees>2.6551359705626964569091796875</LongitudeDegrees>
            </Position>
            <AltitudeMeters>1018</AltitudeMeters>
            <DistanceMeters>NAN</DistanceMeters>
          </Trackpoint>
          <Trackpoint>
            <Time>2021-04-01T15:25:54.000Z</Time>
            <Position>
              <LatitudeDegrees>42.385197579860687255859375</LatitudeDegrees>
              <LongitudeDegrees>2.65514217317104339599609375</LongitudeDegrees>
            </Position>
            <AltitudeMeters>1018</AltitudeMeters>
            <DistanceMeters>NAN</DistanceMeters>
          </Trackpoint>
          <Trackpoint>
            <Time>2021-04-01T15:25:57.000Z</Time>
            <Position>
              <LatitudeDegrees>42.38516882993280887603759765625</LatitudeDegrees>
              <LongitudeDegrees>2.65517226420342922210693359375</LongitudeDegrees>
            </Position>
            <AltitudeMeters>1018.20001220703125</AltitudeMeters>
            <DistanceMeters>NAN</DistanceMeters>
          </Trackpoint>
          <Trackpoint>
            <Time>2021-04-01T15:26:04.000Z</Time>
            <Position>
              <LatitudeDegrees>42.3851145990192890167236328125</LatitudeDegrees>
              <LongitudeDegrees>2.65519908629357814788818359375</LongitudeDegrees>
            </Position>
            <AltitudeMeters>1018.79998779296875</AltitudeMeters>
            <DistanceMeters>NAN</DistanceMeters>
          </Trackpoint>
          <Trackpoint>
            <Time>2021-04-01T15:26:08.000Z</Time>
            <Position>
              <LatitudeDegrees>42.385063469409942626953125</LatitudeDegrees>
              <LongitudeDegrees>2.655214928090572357177734375</LongitudeDegrees>
            </Position>
            <AltitudeMeters>1019</AltitudeMeters>
            <DistanceMeters>NAN</DistanceMeters>
          </Trackpoint>
          <Trackpoint>
            <Time>2021-04-01T15:26:13.000Z</Time>
            <Position>
              <LatitudeDegrees>42.3849969170987606048583984375</LatitudeDegrees>
              <LongitudeDegrees>2.65526815317571163177490234375</LongitudeDegrees>
            </Position>
            <AltitudeMeters>1019</AltitudeMeters>
            <DistanceMeters>NAN</DistanceMeters>
          </Trackpoint>
          <Trackpoint>
            <Time>2021-04-01T15:26:17.000Z</Time>
            <Position>
              <LatitudeDegrees>42.38496431149542331695556640625</LatitudeDegrees>
              <LongitudeDegrees>2.65527821145951747894287109375</LongitudeDegrees>
            </Position>
            <AltitudeMeters>1019.20001220703125</AltitudeMeters>
            <DistanceMeters>NAN</DistanceMeters>
          </Trackpoint>
          <Trackpoint>
            <Time>2021-04-01T15:26:23.000Z</Time>
            <Position>
              <LatitudeDegrees>42.38491469062864780426025390625</LatitudeDegrees>
              <LongitudeDegrees>2.655297406017780303955078125</LongitudeDegrees>
            </Position>
            <AltitudeMeters>1019.5999755859375</AltitudeMeters>
            <DistanceMeters>NAN</DistanceMeters>
          </Trackpoint>
          <Trackpoint>
            <Time>2021-04-01T15:26:24.000Z</Time>
            <Position>
              <LatitudeDegrees>42.3849070630967617034912109375</LatitudeDegrees>
              <LongitudeDegrees>2.65530444681644439697265625</LongitudeDegrees>
            </Position>
            <AltitudeMeters>1019.5999755859375</AltitudeMeters>
            <DistanceMeters>NAN</DistanceMeters>
          </Trackpoint>
          <Trackpoint>
            <Time>2021-04-01T15:26:25.000Z</Time>
            <Position>
              <LatitudeDegrees>42.38489356823265552520751953125</LatitudeDegrees>
              <LongitudeDegrees>2.65531785786151885986328125</LongitudeDegrees>
            </Position>
            <AltitudeMeters>1019.79998779296875</AltitudeMeters>
            <DistanceMeters>NAN</DistanceMeters>
          </Trackpoint>
          <Trackpoint>
            <Time>2021-04-01T15:26:36.000Z</Time>
            <Position>
              <LatitudeDegrees>42.3847575299441814422607421875</LatitudeDegrees>
              <LongitudeDegrees>2.65534962527453899383544921875</LongitudeDegrees>
            </Position>
            <AltitudeMeters>1020.79998779296875</AltitudeMeters>
            <DistanceMeters>NAN</DistanceMeters>
          </Trackpoint>
          <Trackpoint>
            <Time>2021-04-01T15:26:42.000Z</Time>
            <Position>
              <LatitudeDegrees>42.384685613214969635009765625</LatitudeDegrees>
              <LongitudeDegrees>2.65537812374532222747802734375</LongitudeDegrees>
            </Position>
            <AltitudeMeters>1021.20001220703125</AltitudeMeters>
            <DistanceMeters>NAN</DistanceMeters>
          </Trackpoint>
          <Trackpoint>
            <Time>2021-04-01T15:26:50.000Z</Time>
            <Position>
              <LatitudeDegrees>42.3846059851348400115966796875</LatitudeDegrees>
              <LongitudeDegrees>2.65540293417870998382568359375</LongitudeDegrees>
            </Position>
            <AltitudeMeters>1021.5999755859375</AltitudeMeters>
            <DistanceMeters>NAN</DistanceMeters>
          </Trackpoint>
          <Trackpoint>
            <Time>2021-04-01T15:26:58.000Z</Time>
            <Position>
              <LatitudeDegrees>42.38452359102666378021240234375</LatitudeDegrees>
              <LongitudeDegrees>2.65543729998171329498291015625</LongitudeDegrees>
            </Position>
            <AltitudeMeters>1022</AltitudeMeters>
            <DistanceMeters>NAN</DistanceMeters>
          </Trackpoint>
          <Trackpoint>
            <Time>2021-04-01T15:27:00.000Z</Time>
            <Position>
              <LatitudeDegrees>42.38450649194419384002685546875</LatitudeDegrees>
              <LongitudeDegrees>2.6554464362561702728271484375</LongitudeDegrees>
            </Position>
            <AltitudeMeters>1022</AltitudeMeters>
            <DistanceMeters>NAN</DistanceMeters>
          </Trackpoint>
          <Trackpoint>
            <Time>2021-04-01T15:27:06.000Z</Time>
            <Position>
              <LatitudeDegrees>42.3844564519822597503662109375</LatitudeDegrees>
              <LongitudeDegrees>2.65546462498605251312255859375</LongitudeDegrees>
            </Position>
            <AltitudeMeters>1022.20001220703125</AltitudeMeters>
            <DistanceMeters>NAN</DistanceMeters>
          </Trackpoint>
          <Trackpoint>
            <Time>2021-04-01T15:27:09.000Z</Time>
            <Position>
              <LatitudeDegrees>42.384429462254047393798828125</LatitudeDegrees>
              <LongitudeDegrees>2.6554756052792072296142578125</LongitudeDegrees>
            </Position>
            <AltitudeMeters>1022.4000244140625</AltitudeMeters>
            <DistanceMeters>NAN</DistanceMeters>
          </Trackpoint>
          <Trackpoint>
            <Time>2021-04-01T15:27:16.000Z</Time>
            <Position>
              <LatitudeDegrees>42.3843585513532161712646484375</LatitudeDegrees>
              <LongitudeDegrees>2.6554890163242816925048828125</LongitudeDegrees>
            </Position>
            <AltitudeMeters>1022.79998779296875</AltitudeMeters>
            <DistanceMeters>NAN</DistanceMeters>
          </Trackpoint>
          <Trackpoint>
            <Time>2021-04-01T15:27:18.000Z</Time>
            <Position>
              <LatitudeDegrees>42.3843391053378582000732421875</LatitudeDegrees>
              <LongitudeDegrees>2.6554955542087554931640625</LongitudeDegrees>
            </Position>
            <AltitudeMeters>1023</AltitudeMeters>
            <DistanceMeters>NAN</DistanceMeters>
          </Trackpoint>
          <Trackpoint>
            <Time>2021-04-01T15:27:30.000Z</Time>
            <Position>
              <LatitudeDegrees>42.3842026479542255401611328125</LatitudeDegrees>
              <LongitudeDegrees>2.6554873399436473846435546875</LongitudeDegrees>
            </Position>
            <AltitudeMeters>1023.79998779296875</AltitudeMeters>
            <DistanceMeters>NAN</DistanceMeters>
          </Trackpoint>
          <Trackpoint>
            <Time>2021-04-01T15:27:36.000Z</Time>
            <Position>
              <LatitudeDegrees>42.38411807455122470855712890625</LatitudeDegrees>
              <LongitudeDegrees>2.65548817813396453857421875</LongitudeDegrees>
            </Position>
            <AltitudeMeters>1023.5999755859375</AltitudeMeters>
            <DistanceMeters>NAN</DistanceMeters>
          </Trackpoint>
          <Trackpoint>
            <Time>2021-04-01T15:27:41.000Z</Time>
            <Position>
              <LatitudeDegrees>42.38407398574054241180419921875</LatitudeDegrees>
              <LongitudeDegrees>2.6554821431636810302734375</LongitudeDegrees>
            </Position>
            <AltitudeMeters>1023.5999755859375</AltitudeMeters>
            <DistanceMeters>NAN</DistanceMeters>
          </Trackpoint>
          <Trackpoint>
            <Time>2021-04-01T15:27:42.000Z</Time>
            <Position>
              <LatitudeDegrees>42.384066693484783172607421875</LatitudeDegrees>
              <LongitudeDegrees>2.65548088587820529937744140625</LongitudeDegrees>
            </Position>
            <AltitudeMeters>1023.4000244140625</AltitudeMeters>
            <DistanceMeters>NAN</DistanceMeters>
          </Trackpoint>
          <Trackpoint>
            <Time>2021-04-01T15:27:51.000Z</Time>
            <Position>
              <LatitudeDegrees>42.38397650420665740966796875</LatitudeDegrees>
              <LongitudeDegrees>2.655471749603748321533203125</LongitudeDegrees>
            </Position>
            <AltitudeMeters>1022.79998779296875</AltitudeMeters>
            <DistanceMeters>NAN</DistanceMeters>
          </Trackpoint>
          <Trackpoint>
            <Time>2021-04-01T15:27:52.000Z</Time>
            <Position>
              <LatitudeDegrees>42.38396711647510528564453125</LatitudeDegrees>
              <LongitudeDegrees>2.655469067394733428955078125</LongitudeDegrees>
            </Position>
            <AltitudeMeters>1022.5999755859375</AltitudeMeters>
            <DistanceMeters>NAN</DistanceMeters>
          </Trackpoint>
          <Trackpoint>
            <Time>2021-04-01T15:27:54.000Z</Time>
            <Position>
              <LatitudeDegrees>42.383944988250732421875</LatitudeDegrees>
              <LongitudeDegrees>2.65546680428087711334228515625</LongitudeDegrees>
            </Position>
            <AltitudeMeters>1022.5999755859375</AltitudeMeters>
            <DistanceMeters>NAN</DistanceMeters>
          </Trackpoint>
          <Trackpoint>
            <Time>2021-04-01T15:27:57.000Z</Time>
            <Position>
              <LatitudeDegrees>42.3839060962200164794921875</LatitudeDegrees>
              <LongitudeDegrees>2.655453644692897796630859375</LongitudeDegrees>
            </Position>
            <AltitudeMeters>1022.4000244140625</AltitudeMeters>
            <DistanceMeters>NAN</DistanceMeters>
          </Trackpoint>
          <Trackpoint>
            <Time>2021-04-01T15:27:59.000Z</Time>
            <Position>
              <LatitudeDegrees>42.38388396799564361572265625</LatitudeDegrees>
              <LongitudeDegrees>2.6554568298161029815673828125</LongitudeDegrees>
            </Position>
            <AltitudeMeters>1022.20001220703125</AltitudeMeters>
            <DistanceMeters>NAN</DistanceMeters>
          </Trackpoint>
          <Trackpoint>
            <Time>2021-04-01T15:28:01.000Z</Time>
            <Position>
              <LatitudeDegrees>42.38386242650449275970458984375</LatitudeDegrees>
              <LongitudeDegrees>2.6554608531296253204345703125</LongitudeDegrees>
            </Position>
            <AltitudeMeters>1022</AltitudeMeters>
            <DistanceMeters>NAN</DistanceMeters>
          </Trackpoint>
          <Trackpoint>
            <Time>2021-04-01T15:28:03.000Z</Time>
            <Position>
              <LatitudeDegrees>42.3838526196777820587158203125</LatitudeDegrees>
              <LongitudeDegrees>2.655473761260509490966796875</LongitudeDegrees>
            </Position>
            <AltitudeMeters>1022</AltitudeMeters>
            <DistanceMeters>NAN</DistanceMeters>
          </Trackpoint>
          <Trackpoint>
            <Time>2021-04-01T15:28:04.000Z</Time>
            <Position>
              <LatitudeDegrees>42.38384775817394256591796875</LatitudeDegrees>
              <LongitudeDegrees>2.65548390336334705352783203125</LongitudeDegrees>
            </Position>
            <AltitudeMeters>1022</AltitudeMeters>
            <DistanceMeters>NAN</DistanceMeters>
          </Trackpoint>
          <Trackpoint>
            <Time>2021-04-01T15:28:05.000Z</Time>
            <Position>
              <LatitudeDegrees>42.3838390409946441650390625</LatitudeDegrees>
              <LongitudeDegrees>2.65548876486718654632568359375</LongitudeDegrees>
            </Position>
            <AltitudeMeters>1022</AltitudeMeters>
            <DistanceMeters>NAN</DistanceMeters>
          </Trackpoint>
          <Trackpoint>
            <Time>2021-04-01T15:28:06.000Z</Time>
            <Position>
              <LatitudeDegrees>42.38382655195891857147216796875</LatitudeDegrees>
              <LongitudeDegrees>2.655492536723613739013671875</LongitudeDegrees>
            </Position>
            <AltitudeMeters>1021.79998779296875</AltitudeMeters>
            <DistanceMeters>NAN</DistanceMeters>
          </Trackpoint>
          <Trackpoint>
            <Time>2021-04-01T15:28:11.000Z</Time>
            <Position>
              <LatitudeDegrees>42.383768968284130096435546875</LatitudeDegrees>
              <LongitudeDegrees>2.65551634132862091064453125</LongitudeDegrees>
            </Position>
            <AltitudeMeters>1021.5999755859375</AltitudeMeters>
            <DistanceMeters>NAN</DistanceMeters>
          </Trackpoint>
          <Trackpoint>
            <Time>2021-04-01T15:28:19.000Z</Time>
            <Position>
              <LatitudeDegrees>42.38368439488112926483154296875</LatitudeDegrees>
              <LongitudeDegrees>2.6555611006915569305419921875</LongitudeDegrees>
            </Position>
            <AltitudeMeters>1021</AltitudeMeters>
            <DistanceMeters>NAN</DistanceMeters>
          </Trackpoint>
          <Trackpoint>
            <Time>2021-04-01T15:28:20.000Z</Time>
            <Position>
              <LatitudeDegrees>42.38367567770183086395263671875</LatitudeDegrees>
              <LongitudeDegrees>2.6555678062140941619873046875</LongitudeDegrees>
            </Position>
            <AltitudeMeters>1021</AltitudeMeters>
            <DistanceMeters>NAN</DistanceMeters>
          </Trackpoint>
          <Trackpoint>
            <Time>2021-04-01T15:28:27.000Z</Time>
            <Position>
              <LatitudeDegrees>42.38361264578998088836669921875</LatitudeDegrees>
              <LongitudeDegrees>2.6556177623569965362548828125</LongitudeDegrees>
            </Position>
            <AltitudeMeters>1020.79998779296875</AltitudeMeters>
            <DistanceMeters>NAN</DistanceMeters>
          </Trackpoint>
          <Trackpoint>
            <Time>2021-04-01T15:28:30.000Z</Time>
            <Position>
              <LatitudeDegrees>42.3835800401866436004638671875</LatitudeDegrees>
              <LongitudeDegrees>2.655645422637462615966796875</LongitudeDegrees>
            </Position>
            <AltitudeMeters>1020.5999755859375</AltitudeMeters>
            <DistanceMeters>NAN</DistanceMeters>
          </Trackpoint>
          <Trackpoint>
            <Time>2021-04-01T15:28:40.000Z</Time>
            <Position>
              <LatitudeDegrees>42.38348725251853466033935546875</LatitudeDegrees>
              <LongitudeDegrees>2.655710466206073760986328125</LongitudeDegrees>
            </Position>
            <AltitudeMeters>1020.4000244140625</AltitudeMeters>
            <DistanceMeters>NAN</DistanceMeters>
          </Trackpoint>
          <Trackpoint>
            <Time>2021-04-01T15:28:46.000Z</Time>
            <Position>
              <LatitudeDegrees>42.38344735465943813323974609375</LatitudeDegrees>
              <LongitudeDegrees>2.65574541874229907989501953125</LongitudeDegrees>
            </Position>
            <AltitudeMeters>1020.4000244140625</AltitudeMeters>
            <DistanceMeters>NAN</DistanceMeters>
          </Trackpoint>
          <Trackpoint>
            <Time>2021-04-01T15:28:57.000Z</Time>
            <Position>
              <LatitudeDegrees>42.383321709930896759033203125</LatitudeDegrees>
              <LongitudeDegrees>2.655810378491878509521484375</LongitudeDegrees>
            </Position>
            <AltitudeMeters>1019.79998779296875</AltitudeMeters>
            <DistanceMeters>NAN</DistanceMeters>
          </Trackpoint>
          <Trackpoint>
            <Time>2021-04-01T15:28:59.000Z</Time>
            <Position>
              <LatitudeDegrees>42.3832953907549381256103515625</LatitudeDegrees>
              <LongitudeDegrees>2.65582487918436527252197265625</LongitudeDegrees>
            </Position>
            <AltitudeMeters>1019.5999755859375</AltitudeMeters>
            <DistanceMeters>NAN</DistanceMeters>
          </Trackpoint>
          <Trackpoint>
            <Time>2021-04-01T15:29:03.000Z</Time>
            <Position>
              <LatitudeDegrees>42.38325088284909725189208984375</LatitudeDegrees>
              <LongitudeDegrees>2.6558469235897064208984375</LongitudeDegrees>
            </Position>
            <AltitudeMeters>1019.5999755859375</AltitudeMeters>
            <DistanceMeters>NAN</DistanceMeters>
          </Trackpoint>
          <Trackpoint>
            <Time>2021-04-01T15:29:06.000Z</Time>
            <Position>
              <LatitudeDegrees>42.3832189477980136871337890625</LatitudeDegrees>
              <LongitudeDegrees>2.65586209483444690704345703125</LongitudeDegrees>
            </Position>
            <AltitudeMeters>1019.4000244140625</AltitudeMeters>
            <DistanceMeters>NAN</DistanceMeters>
          </Trackpoint>
          <Trackpoint>
            <Time>2021-04-01T15:29:17.000Z</Time>
            <Position>
              <LatitudeDegrees>42.3831106536090373992919921875</LatitudeDegrees>
              <LongitudeDegrees>2.65591330826282501220703125</LongitudeDegrees>
            </Position>
            <AltitudeMeters>1019.5999755859375</AltitudeMeters>
            <DistanceMeters>NAN</DistanceMeters>
          </Trackpoint>
          <Trackpoint>
            <Time>2021-04-01T15:29:28.000Z</Time>
            <Position>
              <LatitudeDegrees>42.3829953186213970184326171875</LatitudeDegrees>
              <LongitudeDegrees>2.65596988610923290252685546875</LongitudeDegrees>
            </Position>
            <AltitudeMeters>1019.5999755859375</AltitudeMeters>
            <DistanceMeters>NAN</DistanceMeters>
          </Trackpoint>
          <Trackpoint>
            <Time>2021-04-01T15:29:38.000Z</Time>
            <Position>
              <LatitudeDegrees>42.3828975856304168701171875</LatitudeDegrees>
              <LongitudeDegrees>2.65605253167450428009033203125</LongitudeDegrees>
            </Position>
            <AltitudeMeters>1019.4000244140625</AltitudeMeters>
            <DistanceMeters>NAN</DistanceMeters>
          </Trackpoint>
          <Trackpoint>
            <Time>2021-04-01T15:29:46.000Z</Time>
            <Position>
              <LatitudeDegrees>42.38281317986547946929931640625</LatitudeDegrees>
              <LongitudeDegrees>2.65610885806381702423095703125</LongitudeDegrees>
            </Position>
            <AltitudeMeters>1019.20001220703125</AltitudeMeters>
            <DistanceMeters>NAN</DistanceMeters>
          </Trackpoint>
          <Trackpoint>
            <Time>2021-04-01T15:29:47.000Z</Time>
            <Position>
              <LatitudeDegrees>42.3828015290200710296630859375</LatitudeDegrees>
              <LongitudeDegrees>2.65611313283443450927734375</LongitudeDegrees>
            </Position>
            <AltitudeMeters>1019.20001220703125</AltitudeMeters>
            <DistanceMeters>NAN</DistanceMeters>
          </Trackpoint>
          <Trackpoint>
            <Time>2021-04-01T15:29:48.000Z</Time>
            <Position>
              <LatitudeDegrees>42.38279021345078945159912109375</LatitudeDegrees>
              <LongitudeDegrees>2.656116820871829986572265625</LongitudeDegrees>
            </Position>
            <AltitudeMeters>1019.20001220703125</AltitudeMeters>
            <DistanceMeters>NAN</DistanceMeters>
          </Trackpoint>
          <Trackpoint>
            <Time>2021-04-01T15:29:49.000Z</Time>
            <Position>
              <LatitudeDegrees>42.3827794007956981658935546875</LatitudeDegrees>
              <LongitudeDegrees>2.65612210147082805633544921875</LongitudeDegrees>
            </Position>
            <AltitudeMeters>1019.20001220703125</AltitudeMeters>
            <DistanceMeters>NAN</DistanceMeters>
          </Trackpoint>
          <Trackpoint>
            <Time>2021-04-01T15:29:55.000Z</Time>
            <Position>
              <LatitudeDegrees>42.38273464143276214599609375</LatitudeDegrees>
              <LongitudeDegrees>2.6561568863689899444580078125</LongitudeDegrees>
            </Position>
            <AltitudeMeters>1019.20001220703125</AltitudeMeters>
            <DistanceMeters>NAN</DistanceMeters>
          </Trackpoint>
          <Trackpoint>
            <Time>2021-04-01T15:29:57.000Z</Time>
            <Position>
              <LatitudeDegrees>42.382714189589023590087890625</LatitudeDegrees>
              <LongitudeDegrees>2.65615881420671939849853515625</LongitudeDegrees>
            </Position>
            <AltitudeMeters>1019.20001220703125</AltitudeMeters>
            <DistanceMeters>NAN</DistanceMeters>
          </Trackpoint>
          <Trackpoint>
            <Time>2021-04-01T15:30:05.000Z</Time>
            <Position>
              <LatitudeDegrees>42.38262022845447063446044921875</LatitudeDegrees>
              <LongitudeDegrees>2.65620240010321140289306640625</LongitudeDegrees>
            </Position>
            <AltitudeMeters>1019.4000244140625</AltitudeMeters>
            <DistanceMeters>NAN</DistanceMeters>
          </Trackpoint>
          <Trackpoint>
            <Time>2021-04-01T15:30:13.000Z</Time>
            <Position>
              <LatitudeDegrees>42.3825453780591487884521484375</LatitudeDegrees>
              <LongitudeDegrees>2.6562559604644775390625</LongitudeDegrees>
            </Position>
            <AltitudeMeters>1019</AltitudeMeters>
            <DistanceMeters>NAN</DistanceMeters>
          </Trackpoint>
          <Trackpoint>
            <Time>2021-04-01T15:30:25.000Z</Time>
            <Position>
              <LatitudeDegrees>42.382429875433444976806640625</LatitudeDegrees>
              <LongitudeDegrees>2.6563484966754913330078125</LongitudeDegrees>
            </Position>
            <AltitudeMeters>1019.4000244140625</AltitudeMeters>
            <DistanceMeters>NAN</DistanceMeters>
          </Trackpoint>
          <Trackpoint>
            <Time>2021-04-01T15:30:35.000Z</Time>
            <Position>
              <LatitudeDegrees>42.3823311366140842437744140625</LatitudeDegrees>
              <LongitudeDegrees>2.656412534415721893310546875</LongitudeDegrees>
            </Position>
            <AltitudeMeters>1018.79998779296875</AltitudeMeters>
            <DistanceMeters>NAN</DistanceMeters>
          </Trackpoint>
          <Trackpoint>
            <Time>2021-04-01T15:30:40.000Z</Time>
            <Position>
              <LatitudeDegrees>42.3822828568518161773681640625</LatitudeDegrees>
              <LongitudeDegrees>2.65644170343875885009765625</LongitudeDegrees>
            </Position>
            <AltitudeMeters>1018.5999755859375</AltitudeMeters>
            <DistanceMeters>NAN</DistanceMeters>
          </Trackpoint>
          <Trackpoint>
            <Time>2021-04-01T15:30:46.000Z</Time>
            <Position>
              <LatitudeDegrees>42.38222376443445682525634765625</LatitudeDegrees>
              <LongitudeDegrees>2.6564670167863368988037109375</LongitudeDegrees>
            </Position>
            <AltitudeMeters>1018.20001220703125</AltitudeMeters>
            <DistanceMeters>NAN</DistanceMeters>
          </Trackpoint>
          <Trackpoint>
            <Time>2021-04-01T15:30:53.000Z</Time>
            <Position>
              <LatitudeDegrees>42.38216039724647998809814453125</LatitudeDegrees>
              <LongitudeDegrees>2.65649895183742046356201171875</LongitudeDegrees>
            </Position>
            <AltitudeMeters>1017.5999755859375</AltitudeMeters>
            <DistanceMeters>NAN</DistanceMeters>
          </Trackpoint>
          <Trackpoint>
            <Time>2021-04-01T15:30:56.000Z</Time>
            <Position>
              <LatitudeDegrees>42.38212653435766696929931640625</LatitudeDegrees>
              <LongitudeDegrees>2.65650515444576740264892578125</LongitudeDegrees>
            </Position>
            <AltitudeMeters>1017.20001220703125</AltitudeMeters>
            <DistanceMeters>NAN</DistanceMeters>
          </Trackpoint>
          <Trackpoint>
            <Time>2021-04-01T15:31:00.000Z</Time>
            <Position>
              <LatitudeDegrees>42.38209493458271026611328125</LatitudeDegrees>
              <LongitudeDegrees>2.65650196932256221771240234375</LongitudeDegrees>
            </Position>
            <AltitudeMeters>1016.5999755859375</AltitudeMeters>
            <DistanceMeters>NAN</DistanceMeters>
          </Trackpoint>
          <Trackpoint>
            <Time>2021-04-01T15:31:01.000Z</Time>
            <Position>
              <LatitudeDegrees>42.38209686242043972015380859375</LatitudeDegrees>
              <LongitudeDegrees>2.6564981974661350250244140625</LongitudeDegrees>
            </Position>
            <AltitudeMeters>1016.4000244140625</AltitudeMeters>
            <DistanceMeters>NAN</DistanceMeters>
          </Trackpoint>
          <Trackpoint>
            <Time>2021-04-01T15:31:02.000Z</Time>
            <Position>
              <LatitudeDegrees>42.38209686242043972015380859375</LatitudeDegrees>
              <LongitudeDegrees>2.6564981974661350250244140625</LongitudeDegrees>
            </Position>
            <AltitudeMeters>1016.4000244140625</AltitudeMeters>
            <DistanceMeters>NAN</DistanceMeters>
          </Trackpoint>
          <Trackpoint>
            <Time>2021-04-01T15:31:03.000Z</Time>
            <Position>
              <LatitudeDegrees>42.382095269858837127685546875</LatitudeDegrees>
              <LongitudeDegrees>2.65648663043975830078125</LongitudeDegrees>
            </Position>
            <AltitudeMeters>1016.4000244140625</AltitudeMeters>
            <DistanceMeters>NAN</DistanceMeters>
          </Trackpoint>
          <Trackpoint>
            <Time>2021-04-01T15:31:11.000Z</Time>
            <Position>
              <LatitudeDegrees>42.3820662684738636016845703125</LatitudeDegrees>
              <LongitudeDegrees>2.6564772427082061767578125</LongitudeDegrees>
            </Position>
            <AltitudeMeters>1016.5999755859375</AltitudeMeters>
            <DistanceMeters>NAN</DistanceMeters>
          </Trackpoint>
          <Trackpoint>
            <Time>2021-04-01T15:31:14.000Z</Time>
            <Position>
              <LatitudeDegrees>42.38207976333796977996826171875</LatitudeDegrees>
              <LongitudeDegrees>2.65647397376596927642822265625</LongitudeDegrees>
            </Position>
            <AltitudeMeters>1016.5999755859375</AltitudeMeters>
            <DistanceMeters>NAN</DistanceMeters>
          </Trackpoint>
          <Trackpoint>
            <Time>2021-04-01T15:31:17.000Z</Time>
            <Position>
              <LatitudeDegrees>42.3820746503770351409912109375</LatitudeDegrees>
              <LongitudeDegrees>2.65647833235561847686767578125</LongitudeDegrees>
            </Position>
            <AltitudeMeters>1016.5999755859375</AltitudeMeters>
            <DistanceMeters>NAN</DistanceMeters>
          </Trackpoint>
          <Trackpoint>
            <Time>2021-04-01T15:31:26.000Z</Time>
            <Position>
              <LatitudeDegrees>42.38206836394965648651123046875</LatitudeDegrees>
              <LongitudeDegrees>2.6564686931669712066650390625</LongitudeDegrees>
            </Position>
            <AltitudeMeters>1016.5999755859375</AltitudeMeters>
            <DistanceMeters>NAN</DistanceMeters>
          </Trackpoint>
          <Trackpoint>
            <Time>2021-04-01T15:31:28.000Z</Time>
            <Position>
              <LatitudeDegrees>42.38206836394965648651123046875</LatitudeDegrees>
              <LongitudeDegrees>2.6564686931669712066650390625</LongitudeDegrees>
            </Position>
            <AltitudeMeters>1016.5999755859375</AltitudeMeters>
            <DistanceMeters>NAN</DistanceMeters>
          </Trackpoint>
          <Trackpoint>
            <Time>2021-04-01T15:31:30.000Z</Time>
            <Position>
              <LatitudeDegrees>42.38206836394965648651123046875</LatitudeDegrees>
              <LongitudeDegrees>2.6564686931669712066650390625</LongitudeDegrees>
            </Position>
            <AltitudeMeters>1016.79998779296875</AltitudeMeters>
            <DistanceMeters>NAN</DistanceMeters>
          </Trackpoint>
          <Trackpoint>
            <Time>2021-04-01T15:31:51.000Z</Time>
            <Position>
              <LatitudeDegrees>42.38205713219940662384033203125</LatitudeDegrees>
              <LongitudeDegrees>2.6564696989953517913818359375</LongitudeDegrees>
            </Position>
            <AltitudeMeters>1017</AltitudeMeters>
            <DistanceMeters>NAN</DistanceMeters>
          </Trackpoint>
          <Trackpoint>
            <Time>2021-04-01T15:31:58.000Z</Time>
            <Position>
              <LatitudeDegrees>42.38206140697002410888671875</LatitudeDegrees>
              <LongitudeDegrees>2.65646575950086116790771484375</LongitudeDegrees>
            </Position>
            <AltitudeMeters>1016.79998779296875</AltitudeMeters>
            <DistanceMeters>NAN</DistanceMeters>
          </Trackpoint>
          <Trackpoint>
            <Time>2021-04-01T15:32:03.000Z</Time>
            <Position>
              <LatitudeDegrees>42.382026202976703643798828125</LatitudeDegrees>
              <LongitudeDegrees>2.65645184554159641265869140625</LongitudeDegrees>
            </Position>
            <AltitudeMeters>1016.4000244140625</AltitudeMeters>
            <DistanceMeters>NAN</DistanceMeters>
          </Trackpoint>
          <Trackpoint>
            <Time>2021-04-01T15:32:08.000Z</Time>
            <Position>
              <LatitudeDegrees>42.38203282468020915985107421875</LatitudeDegrees>
              <LongitudeDegrees>2.65644329600036144256591796875</LongitudeDegrees>
            </Position>
            <AltitudeMeters>1016.20001220703125</AltitudeMeters>
            <DistanceMeters>NAN</DistanceMeters>
          </Trackpoint>
          <Trackpoint>
            <Time>2021-04-01T15:32:15.000Z</Time>
            <Position>
              <LatitudeDegrees>42.38205679692327976226806640625</LatitudeDegrees>
              <LongitudeDegrees>2.65642049722373485565185546875</LongitudeDegrees>
            </Position>
            <AltitudeMeters>1016.5999755859375</AltitudeMeters>
            <DistanceMeters>NAN</DistanceMeters>
          </Trackpoint>
          <Trackpoint>
            <Time>2021-04-01T15:32:22.000Z</Time>
            <Position>
              <LatitudeDegrees>42.3820578865706920623779296875</LatitudeDegrees>
              <LongitudeDegrees>2.6564150489866733551025390625</LongitudeDegrees>
            </Position>
            <AltitudeMeters>1016.5999755859375</AltitudeMeters>
            <DistanceMeters>NAN</DistanceMeters>
          </Trackpoint>
          <Trackpoint>
            <Time>2021-04-01T15:32:24.000Z</Time>
            <Position>
              <LatitudeDegrees>42.3820578865706920623779296875</LatitudeDegrees>
              <LongitudeDegrees>2.6564150489866733551025390625</LongitudeDegrees>
            </Position>
            <AltitudeMeters>1016.5999755859375</AltitudeMeters>
            <DistanceMeters>NAN</DistanceMeters>
          </Trackpoint>
          <Trackpoint>
            <Time>2021-04-01T15:32:29.000Z</Time>
            <Position>
              <LatitudeDegrees>42.3820572160184383392333984375</LatitudeDegrees>
              <LongitudeDegrees>2.6564150489866733551025390625</LongitudeDegrees>
            </Position>
            <AltitudeMeters>1016.5999755859375</AltitudeMeters>
            <DistanceMeters>NAN</DistanceMeters>
          </Trackpoint>
          <Trackpoint>
            <Time>2021-04-01T15:32:31.000Z</Time>
            <Position>
              <LatitudeDegrees>42.38205679692327976226806640625</LatitudeDegrees>
              <LongitudeDegrees>2.6564173959195613861083984375</LongitudeDegrees>
            </Position>
            <AltitudeMeters>1016.5999755859375</AltitudeMeters>
            <DistanceMeters>NAN</DistanceMeters>
          </Trackpoint>
          <Trackpoint>
            <Time>2021-04-01T15:32:32.000Z</Time>
            <Position>
              <LatitudeDegrees>42.38205679692327976226806640625</LatitudeDegrees>
              <LongitudeDegrees>2.6564173959195613861083984375</LongitudeDegrees>
            </Position>
            <AltitudeMeters>1016.5999755859375</AltitudeMeters>
            <DistanceMeters>NAN</DistanceMeters>
          </Trackpoint>
          <Trackpoint>
            <Time>2021-04-01T15:32:47.000Z</Time>
            <Position>
              <LatitudeDegrees>42.382042296230792999267578125</LatitudeDegrees>
              <LongitudeDegrees>2.65643407590687274932861328125</LongitudeDegrees>
            </Position>
            <AltitudeMeters>1016.5999755859375</AltitudeMeters>
            <DistanceMeters>NAN</DistanceMeters>
          </Trackpoint>
          <Trackpoint>
            <Time>2021-04-01T15:32:58.000Z</Time>
            <Position>
              <LatitudeDegrees>42.38201044499874114990234375</LatitudeDegrees>
              <LongitudeDegrees>2.65644161961972713470458984375</LongitudeDegrees>
            </Position>
            <AltitudeMeters>1016.5999755859375</AltitudeMeters>
            <DistanceMeters>NAN</DistanceMeters>
          </Trackpoint>
          <Trackpoint>
            <Time>2021-04-01T15:33:04.000Z</Time>
            <Position>
              <LatitudeDegrees>42.3819878138601779937744140625</LatitudeDegrees>
              <LongitudeDegrees>2.6564276218414306640625</LongitudeDegrees>
            </Position>
            <AltitudeMeters>1016.5999755859375</AltitudeMeters>
            <DistanceMeters>NAN</DistanceMeters>
          </Trackpoint>
          <Trackpoint>
            <Time>2021-04-01T15:33:14.000Z</Time>
            <Position>
              <LatitudeDegrees>42.3819588124752044677734375</LatitudeDegrees>
              <LongitudeDegrees>2.6564365066587924957275390625</LongitudeDegrees>
            </Position>
            <AltitudeMeters>1016.5999755859375</AltitudeMeters>
            <DistanceMeters>NAN</DistanceMeters>
          </Trackpoint>
          <Trackpoint>
            <Time>2021-04-01T15:33:20.000Z</Time>
            <Position>
              <LatitudeDegrees>42.38188446499407291412353515625</LatitudeDegrees>
              <LongitudeDegrees>2.6564720459282398223876953125</LongitudeDegrees>
            </Position>
            <AltitudeMeters>1016.5999755859375</AltitudeMeters>
            <DistanceMeters>NAN</DistanceMeters>
          </Trackpoint>
          <Trackpoint>
            <Time>2021-04-01T15:33:23.000Z</Time>
            <Position>
              <LatitudeDegrees>42.3818600736558437347412109375</LatitudeDegrees>
              <LongitudeDegrees>2.65648059546947479248046875</LongitudeDegrees>
            </Position>
            <AltitudeMeters>1016.5999755859375</AltitudeMeters>
            <DistanceMeters>NAN</DistanceMeters>
          </Trackpoint>
          <Trackpoint>
            <Time>2021-04-01T15:33:32.000Z</Time>
            <Position>
              <LatitudeDegrees>42.38175831735134124755859375</LatitudeDegrees>
              <LongitudeDegrees>2.65651219524443149566650390625</LongitudeDegrees>
            </Position>
            <AltitudeMeters>1016</AltitudeMeters>
            <DistanceMeters>NAN</DistanceMeters>
          </Trackpoint>
          <Trackpoint>
            <Time>2021-04-01T15:33:34.000Z</Time>
            <Position>
              <LatitudeDegrees>42.38173794932663440704345703125</LatitudeDegrees>
              <LongitudeDegrees>2.65651672147214412689208984375</LongitudeDegrees>
            </Position>
            <AltitudeMeters>1016</AltitudeMeters>
            <DistanceMeters>NAN</DistanceMeters>
          </Trackpoint>
          <Trackpoint>
            <Time>2021-04-01T15:33:38.000Z</Time>
            <Position>
              <LatitudeDegrees>42.38170458935201168060302734375</LatitudeDegrees>
              <LongitudeDegrees>2.65652409754693508148193359375</LongitudeDegrees>
            </Position>
            <AltitudeMeters>1015.79998779296875</AltitudeMeters>
            <DistanceMeters>NAN</DistanceMeters>
          </Trackpoint>
          <Trackpoint>
            <Time>2021-04-01T15:33:39.000Z</Time>
            <Position>
              <LatitudeDegrees>42.3816825449466705322265625</LatitudeDegrees>
              <LongitudeDegrees>2.656529210507869720458984375</LongitudeDegrees>
            </Position>
            <AltitudeMeters>1015.5999755859375</AltitudeMeters>
            <DistanceMeters>NAN</DistanceMeters>
          </Trackpoint>
          <Trackpoint>
            <Time>2021-04-01T15:33:41.000Z</Time>
            <Position>
              <LatitudeDegrees>42.3816659487783908843994140625</LatitudeDegrees>
              <LongitudeDegrees>2.656537927687168121337890625</LongitudeDegrees>
            </Position>
            <AltitudeMeters>1015.5999755859375</AltitudeMeters>
            <DistanceMeters>NAN</DistanceMeters>
          </Trackpoint>
          <Trackpoint>
            <Time>2021-04-01T15:33:44.000Z</Time>
            <Position>
              <LatitudeDegrees>42.38164021633565425872802734375</LatitudeDegrees>
              <LongitudeDegrees>2.65655125491321086883544921875</LongitudeDegrees>
            </Position>
            <AltitudeMeters>1015.4000244140625</AltitudeMeters>
            <DistanceMeters>NAN</DistanceMeters>
          </Trackpoint>
          <Trackpoint>
            <Time>2021-04-01T15:33:46.000Z</Time>
            <Position>
              <LatitudeDegrees>42.3816235363483428955078125</LatitudeDegrees>
              <LongitudeDegrees>2.65655913390219211578369140625</LongitudeDegrees>
            </Position>
            <AltitudeMeters>1015.4000244140625</AltitudeMeters>
            <DistanceMeters>NAN</DistanceMeters>
          </Trackpoint>
          <Trackpoint>
            <Time>2021-04-01T15:33:49.000Z</Time>
            <Position>
              <LatitudeDegrees>42.38158799707889556884765625</LatitudeDegrees>
              <LongitudeDegrees>2.65657740645110607147216796875</LongitudeDegrees>
            </Position>
            <AltitudeMeters>1015.5999755859375</AltitudeMeters>
            <DistanceMeters>NAN</DistanceMeters>
          </Trackpoint>
          <Trackpoint>
            <Time>2021-04-01T15:33:56.000Z</Time>
            <Position>
              <LatitudeDegrees>42.3815120570361614227294921875</LatitudeDegrees>
              <LongitudeDegrees>2.65661193989217281341552734375</LongitudeDegrees>
            </Position>
            <AltitudeMeters>1015.4000244140625</AltitudeMeters>
            <DistanceMeters>NAN</DistanceMeters>
          </Trackpoint>
          <Trackpoint>
            <Time>2021-04-01T15:33:58.000Z</Time>
            <Position>
              <LatitudeDegrees>42.38149504177272319793701171875</LatitudeDegrees>
              <LongitudeDegrees>2.6566215790808200836181640625</LongitudeDegrees>
            </Position>
            <AltitudeMeters>1015.4000244140625</AltitudeMeters>
            <DistanceMeters>NAN</DistanceMeters>
          </Trackpoint>
          <Trackpoint>
            <Time>2021-04-01T15:34:01.000Z</Time>
            <Position>
              <LatitudeDegrees>42.38146436400711536407470703125</LatitudeDegrees>
              <LongitudeDegrees>2.65664228238165378570556640625</LongitudeDegrees>
            </Position>
            <AltitudeMeters>1015.5999755859375</AltitudeMeters>
            <DistanceMeters>NAN</DistanceMeters>
          </Trackpoint>
          <Trackpoint>
            <Time>2021-04-01T15:34:09.000Z</Time>
            <Position>
              <LatitudeDegrees>42.38139328546822071075439453125</LatitudeDegrees>
              <LongitudeDegrees>2.65670699067413806915283203125</LongitudeDegrees>
            </Position>
            <AltitudeMeters>1015.4000244140625</AltitudeMeters>
            <DistanceMeters>NAN</DistanceMeters>
          </Trackpoint>
          <Trackpoint>
            <Time>2021-04-01T15:34:11.000Z</Time>
            <Position>
              <LatitudeDegrees>42.38137333653867244720458984375</LatitudeDegrees>
              <LongitudeDegrees>2.65672509558498859405517578125</LongitudeDegrees>
            </Position>
            <AltitudeMeters>1015.5999755859375</AltitudeMeters>
            <DistanceMeters>NAN</DistanceMeters>
          </Trackpoint>
          <Trackpoint>
            <Time>2021-04-01T15:34:18.000Z</Time>
            <Position>
              <LatitudeDegrees>42.38130158744752407073974609375</LatitudeDegrees>
              <LongitudeDegrees>2.65678158961236476898193359375</LongitudeDegrees>
            </Position>
            <AltitudeMeters>1015.5999755859375</AltitudeMeters>
            <DistanceMeters>NAN</DistanceMeters>
          </Trackpoint>
          <Trackpoint>
            <Time>2021-04-01T15:34:21.000Z</Time>
            <Position>
              <LatitudeDegrees>42.381275855004787445068359375</LatitudeDegrees>
              <LongitudeDegrees>2.65680857934057712554931640625</LongitudeDegrees>
            </Position>
            <AltitudeMeters>1015.4000244140625</AltitudeMeters>
            <DistanceMeters>NAN</DistanceMeters>
          </Trackpoint>
          <Trackpoint>
            <Time>2021-04-01T15:34:26.000Z</Time>
            <Position>
              <LatitudeDegrees>42.3812310956418514251708984375</LatitudeDegrees>
              <LongitudeDegrees>2.65684830956161022186279296875</LongitudeDegrees>
            </Position>
            <AltitudeMeters>1015.4000244140625</AltitudeMeters>
            <DistanceMeters>NAN</DistanceMeters>
          </Trackpoint>
          <Trackpoint>
            <Time>2021-04-01T15:34:30.000Z</Time>
            <Position>
              <LatitudeDegrees>42.38120083697140216827392578125</LatitudeDegrees>
              <LongitudeDegrees>2.6568750478327274322509765625</LongitudeDegrees>
            </Position>
            <AltitudeMeters>1015.20001220703125</AltitudeMeters>
            <DistanceMeters>NAN</DistanceMeters>
          </Trackpoint>
          <Trackpoint>
            <Time>2021-04-01T15:34:39.000Z</Time>
            <Position>
              <LatitudeDegrees>42.3810936324298381805419921875</LatitudeDegrees>
              <LongitudeDegrees>2.6569649018347263336181640625</LongitudeDegrees>
            </Position>
            <AltitudeMeters>1014.5999755859375</AltitudeMeters>
            <DistanceMeters>NAN</DistanceMeters>
          </Trackpoint>
          <Trackpoint>
            <Time>2021-04-01T15:34:43.000Z</Time>
            <Position>
              <LatitudeDegrees>42.381045520305633544921875</LatitudeDegrees>
              <LongitudeDegrees>2.6569937355816364288330078125</LongitudeDegrees>
            </Position>
            <AltitudeMeters>1014</AltitudeMeters>
            <DistanceMeters>NAN</DistanceMeters>
          </Trackpoint>
          <Trackpoint>
            <Time>2021-04-01T15:34:48.000Z</Time>
            <Position>
              <LatitudeDegrees>42.38099816255271434783935546875</LatitudeDegrees>
              <LongitudeDegrees>2.6570440270006656646728515625</LongitudeDegrees>
            </Position>
            <AltitudeMeters>1013.20001220703125</AltitudeMeters>
            <DistanceMeters>NAN</DistanceMeters>
          </Trackpoint>
          <Trackpoint>
            <Time>2021-04-01T15:34:53.000Z</Time>
            <Position>
              <LatitudeDegrees>42.38094653002917766571044921875</LatitudeDegrees>
              <LongitudeDegrees>2.65708811581134796142578125</LongitudeDegrees>
            </Position>
            <AltitudeMeters>1012.79998779296875</AltitudeMeters>
            <DistanceMeters>NAN</DistanceMeters>
          </Trackpoint>
          <Trackpoint>
            <Time>2021-04-01T15:34:56.000Z</Time>
            <Position>
              <LatitudeDegrees>42.380919121205806732177734375</LatitudeDegrees>
              <LongitudeDegrees>2.65711317770183086395263671875</LongitudeDegrees>
            </Position>
            <AltitudeMeters>1012.20001220703125</AltitudeMeters>
            <DistanceMeters>NAN</DistanceMeters>
          </Trackpoint>
          <Trackpoint>
            <Time>2021-04-01T15:35:01.000Z</Time>
            <Position>
              <LatitudeDegrees>42.38085701130330562591552734375</LatitudeDegrees>
              <LongitudeDegrees>2.6571493037045001983642578125</LongitudeDegrees>
            </Position>
            <AltitudeMeters>1011.79998779296875</AltitudeMeters>
            <DistanceMeters>NAN</DistanceMeters>
          </Trackpoint>
          <Trackpoint>
            <Time>2021-04-01T15:35:06.000Z</Time>
            <Position>
              <LatitudeDegrees>42.3808002658188343048095703125</LatitudeDegrees>
              <LongitudeDegrees>2.6571741141378879547119140625</LongitudeDegrees>
            </Position>
            <AltitudeMeters>1011.4000244140625</AltitudeMeters>
            <DistanceMeters>NAN</DistanceMeters>
          </Trackpoint>
          <Trackpoint>
            <Time>2021-04-01T15:35:08.000Z</Time>
            <Position>
              <LatitudeDegrees>42.3807751201093196868896484375</LatitudeDegrees>
              <LongitudeDegrees>2.6571865193545818328857421875</LongitudeDegrees>
            </Position>
            <AltitudeMeters>1011</AltitudeMeters>
            <DistanceMeters>NAN</DistanceMeters>
          </Trackpoint>
          <Trackpoint>
            <Time>2021-04-01T15:35:19.000Z</Time>
            <Position>
              <LatitudeDegrees>42.3806369863450527191162109375</LatitudeDegrees>
              <LongitudeDegrees>2.65724611468613147735595703125</LongitudeDegrees>
            </Position>
            <AltitudeMeters>1010.4000244140625</AltitudeMeters>
            <DistanceMeters>NAN</DistanceMeters>
          </Trackpoint>
          <Trackpoint>
            <Time>2021-04-01T15:35:23.000Z</Time>
            <Position>
              <LatitudeDegrees>42.3805809952318668365478515625</LatitudeDegrees>
              <LongitudeDegrees>2.657272517681121826171875</LongitudeDegrees>
            </Position>
            <AltitudeMeters>1010</AltitudeMeters>
            <DistanceMeters>NAN</DistanceMeters>
          </Trackpoint>
          <Trackpoint>
            <Time>2021-04-01T15:35:27.000Z</Time>
            <Position>
              <LatitudeDegrees>42.380524165928363800048828125</LatitudeDegrees>
              <LongitudeDegrees>2.65729707665741443634033203125</LongitudeDegrees>
            </Position>
            <AltitudeMeters>1009.5999755859375</AltitudeMeters>
            <DistanceMeters>NAN</DistanceMeters>
          </Trackpoint>
          <Trackpoint>
            <Time>2021-04-01T15:35:30.000Z</Time>
            <Position>
              <LatitudeDegrees>42.38049256615340709686279296875</LatitudeDegrees>
              <LongitudeDegrees>2.65731099061667919158935546875</LongitudeDegrees>
            </Position>
            <AltitudeMeters>1009.5999755859375</AltitudeMeters>
            <DistanceMeters>NAN</DistanceMeters>
          </Trackpoint>
          <Trackpoint>
            <Time>2021-04-01T15:35:31.000Z</Time>
            <Position>
              <LatitudeDegrees>42.38048301078379154205322265625</LatitudeDegrees>
              <LongitudeDegrees>2.6573145948350429534912109375</LongitudeDegrees>
            </Position>
            <AltitudeMeters>1009.4000244140625</AltitudeMeters>
            <DistanceMeters>NAN</DistanceMeters>
          </Trackpoint>
          <Trackpoint>
            <Time>2021-04-01T15:35:40.000Z</Time>
            <Position>
              <LatitudeDegrees>42.3803831823170185089111328125</LatitudeDegrees>
              <LongitudeDegrees>2.6573524810373783111572265625</LongitudeDegrees>
            </Position>
            <AltitudeMeters>1009</AltitudeMeters>
            <DistanceMeters>NAN</DistanceMeters>
          </Trackpoint>
          <Trackpoint>
            <Time>2021-04-01T15:35:41.000Z</Time>
            <Position>
              <LatitudeDegrees>42.3803664185106754302978515625</LatitudeDegrees>
              <LongitudeDegrees>2.65735440887510776519775390625</LongitudeDegrees>
            </Position>
            <AltitudeMeters>1009</AltitudeMeters>
            <DistanceMeters>NAN</DistanceMeters>
          </Trackpoint>
          <Trackpoint>
            <Time>2021-04-01T15:35:43.000Z</Time>
            <Position>
              <LatitudeDegrees>42.38034454174339771270751953125</LatitudeDegrees>
              <LongitudeDegrees>2.65735910274088382720947265625</LongitudeDegrees>
            </Position>
            <AltitudeMeters>1008.79998779296875</AltitudeMeters>
            <DistanceMeters>NAN</DistanceMeters>
          </Trackpoint>
          <Trackpoint>
            <Time>2021-04-01T15:35:50.000Z</Time>
            <Position>
              <LatitudeDegrees>42.38026189617812633514404296875</LatitudeDegrees>
              <LongitudeDegrees>2.65740335918962955474853515625</LongitudeDegrees>
            </Position>
            <AltitudeMeters>1008.5999755859375</AltitudeMeters>
            <DistanceMeters>NAN</DistanceMeters>
          </Trackpoint>
          <Trackpoint>
            <Time>2021-04-01T15:35:53.000Z</Time>
            <Position>
              <LatitudeDegrees>42.38024177961051464080810546875</LatitudeDegrees>
              <LongitudeDegrees>2.65741257928311824798583984375</LongitudeDegrees>
            </Position>
            <AltitudeMeters>1008.79998779296875</AltitudeMeters>
            <DistanceMeters>NAN</DistanceMeters>
          </Trackpoint>
          <Trackpoint>
            <Time>2021-04-01T15:35:58.000Z</Time>
            <Position>
              <LatitudeDegrees>42.380165755748748779296875</LatitudeDegrees>
              <LongitudeDegrees>2.6574155129492282867431640625</LongitudeDegrees>
            </Position>
            <AltitudeMeters>1009.20001220703125</AltitudeMeters>
            <DistanceMeters>NAN</DistanceMeters>
          </Trackpoint>
          <Trackpoint>
            <Time>2021-04-01T15:35:59.000Z</Time>
            <Position>
              <LatitudeDegrees>42.38015242852270603179931640625</LatitudeDegrees>
              <LongitudeDegrees>2.65741308219730854034423828125</LongitudeDegrees>
            </Position>
            <AltitudeMeters>1009.20001220703125</AltitudeMeters>
            <DistanceMeters>NAN</DistanceMeters>
          </Trackpoint>
          <Trackpoint>
            <Time>2021-04-01T15:36:10.000Z</Time>
            <Position>
              <LatitudeDegrees>42.38001622259616851806640625</LatitudeDegrees>
              <LongitudeDegrees>2.65743537805974483489990234375</LongitudeDegrees>
            </Position>
            <AltitudeMeters>1009.20001220703125</AltitudeMeters>
            <DistanceMeters>NAN</DistanceMeters>
          </Trackpoint>
          <Trackpoint>
            <Time>2021-04-01T15:36:14.000Z</Time>
            <Position>
              <LatitudeDegrees>42.3799417912960052490234375</LatitudeDegrees>
              <LongitudeDegrees>2.65742884017527103424072265625</LongitudeDegrees>
            </Position>
            <AltitudeMeters>1009.20001220703125</AltitudeMeters>
            <DistanceMeters>NAN</DistanceMeters>
          </Trackpoint>
          <Trackpoint>
            <Time>2021-04-01T15:36:18.000Z</Time>
            <Position>
              <LatitudeDegrees>42.37988211214542388916015625</LatitudeDegrees>
              <LongitudeDegrees>2.65742414630949497222900390625</LongitudeDegrees>
            </Position>
            <AltitudeMeters>1009</AltitudeMeters>
            <DistanceMeters>NAN</DistanceMeters>
          </Trackpoint>
          <Trackpoint>
            <Time>2021-04-01T15:36:19.000Z</Time>
            <Position>
              <LatitudeDegrees>42.3798681981861591339111328125</LatitudeDegrees>
              <LongitudeDegrees>2.65742397867143154144287109375</LongitudeDegrees>
            </Position>
            <AltitudeMeters>1009.20001220703125</AltitudeMeters>
            <DistanceMeters>NAN</DistanceMeters>
          </Trackpoint>
          <Trackpoint>
            <Time>2021-04-01T15:36:24.000Z</Time>
            <Position>
              <LatitudeDegrees>42.37981597892940044403076171875</LatitudeDegrees>
              <LongitudeDegrees>2.65742984600365161895751953125</LongitudeDegrees>
            </Position>
            <AltitudeMeters>1009.20001220703125</AltitudeMeters>
            <DistanceMeters>NAN</DistanceMeters>
          </Trackpoint>
          <Trackpoint>
            <Time>2021-04-01T15:36:28.000Z</Time>
            <Position>
              <LatitudeDegrees>42.3797629214823246002197265625</LatitudeDegrees>
              <LongitudeDegrees>2.657430432736873626708984375</LongitudeDegrees>
            </Position>
            <AltitudeMeters>1009.20001220703125</AltitudeMeters>
            <DistanceMeters>NAN</DistanceMeters>
          </Trackpoint>
          <Trackpoint>
            <Time>2021-04-01T15:36:30.000Z</Time>
            <Position>
              <LatitudeDegrees>42.37974372692406177520751953125</LatitudeDegrees>
              <LongitudeDegrees>2.65743034891784191131591796875</LongitudeDegrees>
            </Position>
            <AltitudeMeters>1009</AltitudeMeters>
            <DistanceMeters>NAN</DistanceMeters>
          </Trackpoint>
          <Trackpoint>
            <Time>2021-04-01T15:36:33.000Z</Time>
            <Position>
              <LatitudeDegrees>42.3797082714736461639404296875</LatitudeDegrees>
              <LongitudeDegrees>2.65743655152618885040283203125</LongitudeDegrees>
            </Position>
            <AltitudeMeters>1009</AltitudeMeters>
            <DistanceMeters>NAN</DistanceMeters>
          </Trackpoint>
          <Trackpoint>
            <Time>2021-04-01T15:36:38.000Z</Time>
            <Position>
              <LatitudeDegrees>42.37967155873775482177734375</LatitudeDegrees>
              <LongitudeDegrees>2.6574074663221836090087890625</LongitudeDegrees>
            </Position>
            <AltitudeMeters>1008.5999755859375</AltitudeMeters>
            <DistanceMeters>NAN</DistanceMeters>
          </Trackpoint>
          <Trackpoint>
            <Time>2021-04-01T15:36:44.000Z</Time>
            <Position>
              <LatitudeDegrees>42.3796013183891773223876953125</LatitudeDegrees>
              <LongitudeDegrees>2.65742347575724124908447265625</LongitudeDegrees>
            </Position>
            <AltitudeMeters>1008</AltitudeMeters>
            <DistanceMeters>NAN</DistanceMeters>
          </Trackpoint>
          <Trackpoint>
            <Time>2021-04-01T15:36:45.000Z</Time>
            <Position>
              <LatitudeDegrees>42.3796013183891773223876953125</LatitudeDegrees>
              <LongitudeDegrees>2.65742347575724124908447265625</LongitudeDegrees>
            </Position>
            <AltitudeMeters>1008</AltitudeMeters>
            <DistanceMeters>NAN</DistanceMeters>
          </Trackpoint>
          <Trackpoint>
            <Time>2021-04-01T15:36:49.000Z</Time>
            <Position>
              <LatitudeDegrees>42.37953451462090015411376953125</LatitudeDegrees>
              <LongitudeDegrees>2.657444514334201812744140625</LongitudeDegrees>
            </Position>
            <AltitudeMeters>1007.79998779296875</AltitudeMeters>
            <DistanceMeters>NAN</DistanceMeters>
          </Trackpoint>
          <Trackpoint>
            <Time>2021-04-01T15:36:51.000Z</Time>
            <Position>
              <LatitudeDegrees>42.37951523624360561370849609375</LatitudeDegrees>
              <LongitudeDegrees>2.65745482407510280609130859375</LongitudeDegrees>
            </Position>
            <AltitudeMeters>1007.4000244140625</AltitudeMeters>
            <DistanceMeters>NAN</DistanceMeters>
          </Trackpoint>
          <Trackpoint>
            <Time>2021-04-01T15:36:53.000Z</Time>
            <Position>
              <LatitudeDegrees>42.37948673777282238006591796875</LatitudeDegrees>
              <LongitudeDegrees>2.65746722929179668426513671875</LongitudeDegrees>
            </Position>
            <AltitudeMeters>1007.20001220703125</AltitudeMeters>
            <DistanceMeters>NAN</DistanceMeters>
          </Trackpoint>
          <Trackpoint>
            <Time>2021-04-01T15:36:55.000Z</Time>
            <Position>
              <LatitudeDegrees>42.3794651962816715240478515625</LatitudeDegrees>
              <LongitudeDegrees>2.65748013742268085479736328125</LongitudeDegrees>
            </Position>
            <AltitudeMeters>1007</AltitudeMeters>
            <DistanceMeters>NAN</DistanceMeters>
          </Trackpoint>
          <Trackpoint>
            <Time>2021-04-01T15:37:00.000Z</Time>
            <Position>
              <LatitudeDegrees>42.3794028349220752716064453125</LatitudeDegrees>
              <LongitudeDegrees>2.65752665698528289794921875</LongitudeDegrees>
            </Position>
            <AltitudeMeters>1006.4000244140625</AltitudeMeters>
            <DistanceMeters>NAN</DistanceMeters>
          </Trackpoint>
          <Trackpoint>
            <Time>2021-04-01T15:37:07.000Z</Time>
            <Position>
              <LatitudeDegrees>42.37932287156581878662109375</LatitudeDegrees>
              <LongitudeDegrees>2.65758323483169078826904296875</LongitudeDegrees>
            </Position>
            <AltitudeMeters>1005.79998779296875</AltitudeMeters>
            <DistanceMeters>NAN</DistanceMeters>
          </Trackpoint>
          <Trackpoint>
            <Time>2021-04-01T15:37:09.000Z</Time>
            <Position>
              <LatitudeDegrees>42.37929060123860836029052734375</LatitudeDegrees>
              <LongitudeDegrees>2.6576059497892856597900390625</LongitudeDegrees>
            </Position>
            <AltitudeMeters>1005.4000244140625</AltitudeMeters>
            <DistanceMeters>NAN</DistanceMeters>
          </Trackpoint>
          <Trackpoint>
            <Time>2021-04-01T15:37:12.000Z</Time>
            <Position>
              <LatitudeDegrees>42.37925506196916103363037109375</LatitudeDegrees>
              <LongitudeDegrees>2.65762413851916790008544921875</LongitudeDegrees>
            </Position>
            <AltitudeMeters>1004.79998779296875</AltitudeMeters>
            <DistanceMeters>NAN</DistanceMeters>
          </Trackpoint>
          <Trackpoint>
            <Time>2021-04-01T15:37:17.000Z</Time>
            <Position>
              <LatitudeDegrees>42.37919672392308712005615234375</LatitudeDegrees>
              <LongitudeDegrees>2.657653056085109710693359375</LongitudeDegrees>
            </Position>
            <AltitudeMeters>1004.20001220703125</AltitudeMeters>
            <DistanceMeters>NAN</DistanceMeters>
          </Trackpoint>
          <Trackpoint>
            <Time>2021-04-01T15:37:23.000Z</Time>
            <Position>
              <LatitudeDegrees>42.3791295848786830902099609375</LatitudeDegrees>
              <LongitudeDegrees>2.65769555233418941497802734375</LongitudeDegrees>
            </Position>
            <AltitudeMeters>1003.79998779296875</AltitudeMeters>
            <DistanceMeters>NAN</DistanceMeters>
          </Trackpoint>
          <Trackpoint>
            <Time>2021-04-01T15:37:29.000Z</Time>
            <Position>
              <LatitudeDegrees>42.37906948663294315338134765625</LatitudeDegrees>
              <LongitudeDegrees>2.6577387191355228424072265625</LongitudeDegrees>
            </Position>
            <AltitudeMeters>1002.79998779296875</AltitudeMeters>
            <DistanceMeters>NAN</DistanceMeters>
          </Trackpoint>
          <Trackpoint>
            <Time>2021-04-01T15:37:32.000Z</Time>
            <Position>
              <LatitudeDegrees>42.379034198820590972900390625</LatitudeDegrees>
              <LongitudeDegrees>2.6577538065612316131591796875</LongitudeDegrees>
            </Position>
            <AltitudeMeters>1002.20001220703125</AltitudeMeters>
            <DistanceMeters>NAN</DistanceMeters>
          </Trackpoint>
          <Trackpoint>
            <Time>2021-04-01T15:37:39.000Z</Time>
            <Position>
              <LatitudeDegrees>42.3789438419044017791748046875</LatitudeDegrees>
              <LongitudeDegrees>2.65779554843902587890625</LongitudeDegrees>
            </Position>
            <AltitudeMeters>1001.5999755859375</AltitudeMeters>
            <DistanceMeters>NAN</DistanceMeters>
          </Trackpoint>
          <Trackpoint>
            <Time>2021-04-01T15:37:44.000Z</Time>
            <Position>
              <LatitudeDegrees>42.378881312906742095947265625</LatitudeDegrees>
              <LongitudeDegrees>2.65783318318426609039306640625</LongitudeDegrees>
            </Position>
            <AltitudeMeters>1000.79998779296875</AltitudeMeters>
            <DistanceMeters>NAN</DistanceMeters>
          </Trackpoint>
          <Trackpoint>
            <Time>2021-04-01T15:37:45.000Z</Time>
            <Position>
              <LatitudeDegrees>42.37887117080390453338623046875</LatitudeDegrees>
              <LongitudeDegrees>2.65783846378326416015625</LongitudeDegrees>
            </Position>
            <AltitudeMeters>1000.79998779296875</AltitudeMeters>
            <DistanceMeters>NAN</DistanceMeters>
          </Trackpoint>
          <Trackpoint>
            <Time>2021-04-01T15:37:47.000Z</Time>
            <Position>
              <LatitudeDegrees>42.37885273061692714691162109375</LatitudeDegrees>
              <LongitudeDegrees>2.65784718096256256103515625</LongitudeDegrees>
            </Position>
            <AltitudeMeters>1000.79998779296875</AltitudeMeters>
            <DistanceMeters>NAN</DistanceMeters>
          </Trackpoint>
          <Trackpoint>
            <Time>2021-04-01T15:37:49.000Z</Time>
            <Position>
              <LatitudeDegrees>42.37883043475449085235595703125</LatitudeDegrees>
              <LongitudeDegrees>2.65785430558025836944580078125</LongitudeDegrees>
            </Position>
            <AltitudeMeters>1000.5999755859375</AltitudeMeters>
            <DistanceMeters>NAN</DistanceMeters>
          </Trackpoint>
          <Trackpoint>
            <Time>2021-04-01T15:38:03.000Z</Time>
            <Position>
              <LatitudeDegrees>42.3786685802042484283447265625</LatitudeDegrees>
              <LongitudeDegrees>2.65788531862199306488037109375</LongitudeDegrees>
            </Position>
            <AltitudeMeters>999.79998779296875</AltitudeMeters>
            <DistanceMeters>NAN</DistanceMeters>
          </Trackpoint>
          <Trackpoint>
            <Time>2021-04-01T15:38:06.000Z</Time>
            <Position>
              <LatitudeDegrees>42.37862206064164638519287109375</LatitudeDegrees>
              <LongitudeDegrees>2.65789411962032318115234375</LongitudeDegrees>
            </Position>
            <AltitudeMeters>999.5999755859375</AltitudeMeters>
            <DistanceMeters>NAN</DistanceMeters>
          </Trackpoint>
          <Trackpoint>
            <Time>2021-04-01T15:38:14.000Z</Time>
            <Position>
              <LatitudeDegrees>42.3785237409174442291259765625</LatitudeDegrees>
              <LongitudeDegrees>2.65789973549544811248779296875</LongitudeDegrees>
            </Position>
            <AltitudeMeters>999.20001220703125</AltitudeMeters>
            <DistanceMeters>NAN</DistanceMeters>
          </Trackpoint>
          <Trackpoint>
            <Time>2021-04-01T15:38:17.000Z</Time>
            <Position>
              <LatitudeDegrees>42.3784825019538402557373046875</LatitudeDegrees>
              <LongitudeDegrees>2.65789537690579891204833984375</LongitudeDegrees>
            </Position>
            <AltitudeMeters>998.5999755859375</AltitudeMeters>
            <DistanceMeters>NAN</DistanceMeters>
          </Trackpoint>
          <Trackpoint>
            <Time>2021-04-01T15:38:20.000Z</Time>
            <Position>
              <LatitudeDegrees>42.37844117917120456695556640625</LatitudeDegrees>
              <LongitudeDegrees>2.657905519008636474609375</LongitudeDegrees>
            </Position>
            <AltitudeMeters>998.20001220703125</AltitudeMeters>
            <DistanceMeters>NAN</DistanceMeters>
          </Trackpoint>
          <Trackpoint>
            <Time>2021-04-01T15:38:23.000Z</Time>
            <Position>
              <LatitudeDegrees>42.37840614281594753265380859375</LatitudeDegrees>
              <LongitudeDegrees>2.6579110510647296905517578125</LongitudeDegrees>
            </Position>
            <AltitudeMeters>998.20001220703125</AltitudeMeters>
            <DistanceMeters>NAN</DistanceMeters>
          </Trackpoint>
          <Trackpoint>
            <Time>2021-04-01T15:38:26.000Z</Time>
            <Position>
              <LatitudeDegrees>42.37837596796452999114990234375</LatitudeDegrees>
              <LongitudeDegrees>2.65791532583534717559814453125</LongitudeDegrees>
            </Position>
            <AltitudeMeters>997.79998779296875</AltitudeMeters>
            <DistanceMeters>NAN</DistanceMeters>
          </Trackpoint>
          <Trackpoint>
            <Time>2021-04-01T15:38:29.000Z</Time>
            <Position>
              <LatitudeDegrees>42.378348223865032196044921875</LatitudeDegrees>
              <LongitudeDegrees>2.6579207740724086761474609375</LongitudeDegrees>
            </Position>
            <AltitudeMeters>997.5999755859375</AltitudeMeters>
            <DistanceMeters>NAN</DistanceMeters>
          </Trackpoint>
          <Trackpoint>
            <Time>2021-04-01T15:38:35.000Z</Time>
            <Position>
              <LatitudeDegrees>42.3782702721655368804931640625</LatitudeDegrees>
              <LongitudeDegrees>2.65792672522366046905517578125</LongitudeDegrees>
            </Position>
            <AltitudeMeters>997.4000244140625</AltitudeMeters>
            <DistanceMeters>NAN</DistanceMeters>
          </Trackpoint>
          <Trackpoint>
            <Time>2021-04-01T15:38:42.000Z</Time>
            <Position>
              <LatitudeDegrees>42.37817195244133472442626953125</LatitudeDegrees>
              <LongitudeDegrees>2.65794298611581325531005859375</LongitudeDegrees>
            </Position>
            <AltitudeMeters>996.79998779296875</AltitudeMeters>
            <DistanceMeters>NAN</DistanceMeters>
          </Trackpoint>
          <Trackpoint>
            <Time>2021-04-01T15:38:43.000Z</Time>
            <Position>
              <LatitudeDegrees>42.37816055305302143096923828125</LatitudeDegrees>
              <LongitudeDegrees>2.65794432722032070159912109375</LongitudeDegrees>
            </Position>
            <AltitudeMeters>996.4000244140625</AltitudeMeters>
            <DistanceMeters>NAN</DistanceMeters>
          </Trackpoint>
          <Trackpoint>
            <Time>2021-04-01T15:38:45.000Z</Time>
            <Position>
              <LatitudeDegrees>42.37814881838858127593994140625</LatitudeDegrees>
              <LongitudeDegrees>2.6579435728490352630615234375</LongitudeDegrees>
            </Position>
            <AltitudeMeters>996.20001220703125</AltitudeMeters>
            <DistanceMeters>NAN</DistanceMeters>
          </Trackpoint>
          <Trackpoint>
            <Time>2021-04-01T15:38:48.000Z</Time>
            <Position>
              <LatitudeDegrees>42.37809383310377597808837890625</LatitudeDegrees>
              <LongitudeDegrees>2.657953798770904541015625</LongitudeDegrees>
            </Position>
            <AltitudeMeters>996</AltitudeMeters>
            <DistanceMeters>NAN</DistanceMeters>
          </Trackpoint>
          <Trackpoint>
            <Time>2021-04-01T15:38:52.000Z</Time>
            <Position>
              <LatitudeDegrees>42.37804287113249301910400390625</LatitudeDegrees>
              <LongitudeDegrees>2.65795958228409290313720703125</LongitudeDegrees>
            </Position>
            <AltitudeMeters>996.20001220703125</AltitudeMeters>
            <DistanceMeters>NAN</DistanceMeters>
          </Trackpoint>
          <Trackpoint>
            <Time>2021-04-01T15:38:54.000Z</Time>
            <Position>
              <LatitudeDegrees>42.37801889888942241668701171875</LatitudeDegrees>
              <LongitudeDegrees>2.65795648097991943359375</LongitudeDegrees>
            </Position>
            <AltitudeMeters>996</AltitudeMeters>
            <DistanceMeters>NAN</DistanceMeters>
          </Trackpoint>
          <Trackpoint>
            <Time>2021-04-01T15:39:04.000Z</Time>
            <Position>
              <LatitudeDegrees>42.37789736129343509674072265625</LatitudeDegrees>
              <LongitudeDegrees>2.657954134047031402587890625</LongitudeDegrees>
            </Position>
            <AltitudeMeters>996</AltitudeMeters>
            <DistanceMeters>NAN</DistanceMeters>
          </Trackpoint>
          <Trackpoint>
            <Time>2021-04-01T15:39:11.000Z</Time>
            <Position>
              <LatitudeDegrees>42.37783684395253658294677734375</LatitudeDegrees>
              <LongitudeDegrees>2.657960169017314910888671875</LongitudeDegrees>
            </Position>
            <AltitudeMeters>996</AltitudeMeters>
            <DistanceMeters>NAN</DistanceMeters>
          </Trackpoint>
          <Trackpoint>
            <Time>2021-04-01T15:39:15.000Z</Time>
            <Position>
              <LatitudeDegrees>42.3777804337441921234130859375</LatitudeDegrees>
              <LongitudeDegrees>2.6579576544463634490966796875</LongitudeDegrees>
            </Position>
            <AltitudeMeters>995.79998779296875</AltitudeMeters>
            <DistanceMeters>NAN</DistanceMeters>
          </Trackpoint>
          <Trackpoint>
            <Time>2021-04-01T15:39:17.000Z</Time>
            <Position>
              <LatitudeDegrees>42.37775905989110469818115234375</LatitudeDegrees>
              <LongitudeDegrees>2.65795321203768253326416015625</LongitudeDegrees>
            </Position>
            <AltitudeMeters>995.79998779296875</AltitudeMeters>
            <DistanceMeters>NAN</DistanceMeters>
          </Trackpoint>
          <Trackpoint>
            <Time>2021-04-01T15:39:28.000Z</Time>
            <Position>
              <LatitudeDegrees>42.37762411125004291534423828125</LatitudeDegrees>
              <LongitudeDegrees>2.65791767276823520660400390625</LongitudeDegrees>
            </Position>
            <AltitudeMeters>996</AltitudeMeters>
            <DistanceMeters>NAN</DistanceMeters>
          </Trackpoint>
          <Trackpoint>
            <Time>2021-04-01T15:39:37.000Z</Time>
            <Position>
              <LatitudeDegrees>42.377520091831684112548828125</LatitudeDegrees>
              <LongitudeDegrees>2.65786436386406421661376953125</LongitudeDegrees>
            </Position>
            <AltitudeMeters>996.20001220703125</AltitudeMeters>
            <DistanceMeters>NAN</DistanceMeters>
          </Trackpoint>
          <Trackpoint>
            <Time>2021-04-01T15:39:39.000Z</Time>
            <Position>
              <LatitudeDegrees>42.37749804742634296417236328125</LatitudeDegrees>
              <LongitudeDegrees>2.65785254538059234619140625</LongitudeDegrees>
            </Position>
            <AltitudeMeters>996.20001220703125</AltitudeMeters>
            <DistanceMeters>NAN</DistanceMeters>
          </Trackpoint>
          <Trackpoint>
            <Time>2021-04-01T15:39:41.000Z</Time>
            <Position>
              <LatitudeDegrees>42.3774723149836063385009765625</LatitudeDegrees>
              <LongitudeDegrees>2.6578376255929470062255859375</LongitudeDegrees>
            </Position>
            <AltitudeMeters>996.20001220703125</AltitudeMeters>
            <DistanceMeters>NAN</DistanceMeters>
          </Trackpoint>
          <Trackpoint>
            <Time>2021-04-01T15:39:44.000Z</Time>
            <Position>
              <LatitudeDegrees>42.377438284456729888916015625</LatitudeDegrees>
              <LongitudeDegrees>2.65782664529979228973388671875</LongitudeDegrees>
            </Position>
            <AltitudeMeters>996.20001220703125</AltitudeMeters>
            <DistanceMeters>NAN</DistanceMeters>
          </Trackpoint>
          <Trackpoint>
            <Time>2021-04-01T15:39:53.000Z</Time>
            <Position>
              <LatitudeDegrees>42.37733543850481510162353515625</LatitudeDegrees>
              <LongitudeDegrees>2.6577735878527164459228515625</LongitudeDegrees>
            </Position>
            <AltitudeMeters>996</AltitudeMeters>
            <DistanceMeters>NAN</DistanceMeters>
          </Trackpoint>
          <Trackpoint>
            <Time>2021-04-01T15:40:01.000Z</Time>
            <Position>
              <LatitudeDegrees>42.37723820842802524566650390625</LatitudeDegrees>
              <LongitudeDegrees>2.65771717764437198638916015625</LongitudeDegrees>
            </Position>
            <AltitudeMeters>995.4000244140625</AltitudeMeters>
            <DistanceMeters>NAN</DistanceMeters>
          </Trackpoint>
          <Trackpoint>
            <Time>2021-04-01T15:40:10.000Z</Time>
            <Position>
              <LatitudeDegrees>42.37714734859764575958251953125</LatitudeDegrees>
              <LongitudeDegrees>2.65762950293719768524169921875</LongitudeDegrees>
            </Position>
            <AltitudeMeters>994.5999755859375</AltitudeMeters>
            <DistanceMeters>NAN</DistanceMeters>
          </Trackpoint>
          <Trackpoint>
            <Time>2021-04-01T15:40:13.000Z</Time>
            <Position>
              <LatitudeDegrees>42.3771105520427227020263671875</LatitudeDegrees>
              <LongitudeDegrees>2.657611481845378875732421875</LongitudeDegrees>
            </Position>
            <AltitudeMeters>994.4000244140625</AltitudeMeters>
            <DistanceMeters>NAN</DistanceMeters>
          </Trackpoint>
          <Trackpoint>
            <Time>2021-04-01T15:40:20.000Z</Time>
            <Position>
              <LatitudeDegrees>42.3770438320934772491455078125</LatitudeDegrees>
              <LongitudeDegrees>2.65756077133119106292724609375</LongitudeDegrees>
            </Position>
            <AltitudeMeters>993.79998779296875</AltitudeMeters>
            <DistanceMeters>NAN</DistanceMeters>
          </Trackpoint>
          <Trackpoint>
            <Time>2021-04-01T15:40:29.000Z</Time>
            <Position>
              <LatitudeDegrees>42.3769368790090084075927734375</LatitudeDegrees>
              <LongitudeDegrees>2.65747577883303165435791015625</LongitudeDegrees>
            </Position>
            <AltitudeMeters>993.79998779296875</AltitudeMeters>
            <DistanceMeters>NAN</DistanceMeters>
          </Trackpoint>
          <Trackpoint>
            <Time>2021-04-01T15:40:39.000Z</Time>
            <Position>
              <LatitudeDegrees>42.37683118321001529693603515625</LatitudeDegrees>
              <LongitudeDegrees>2.657399587333202362060546875</LongitudeDegrees>
            </Position>
            <AltitudeMeters>994.20001220703125</AltitudeMeters>
            <DistanceMeters>NAN</DistanceMeters>
          </Trackpoint>
          <Trackpoint>
            <Time>2021-04-01T15:40:40.000Z</Time>
            <Position>
              <LatitudeDegrees>42.37681609578430652618408203125</LatitudeDegrees>
              <LongitudeDegrees>2.65739413909614086151123046875</LongitudeDegrees>
            </Position>
            <AltitudeMeters>994.20001220703125</AltitudeMeters>
            <DistanceMeters>NAN</DistanceMeters>
          </Trackpoint>
          <Trackpoint>
            <Time>2021-04-01T15:40:45.000Z</Time>
            <Position>
              <LatitudeDegrees>42.37676027230918407440185546875</LatitudeDegrees>
              <LongitudeDegrees>2.65734300948679447174072265625</LongitudeDegrees>
            </Position>
            <AltitudeMeters>994.4000244140625</AltitudeMeters>
            <DistanceMeters>NAN</DistanceMeters>
          </Trackpoint>
          <Trackpoint>
            <Time>2021-04-01T15:40:49.000Z</Time>
            <Position>
              <LatitudeDegrees>42.3767430894076824188232421875</LatitudeDegrees>
              <LongitudeDegrees>2.65730805695056915283203125</LongitudeDegrees>
            </Position>
            <AltitudeMeters>994.79998779296875</AltitudeMeters>
            <DistanceMeters>NAN</DistanceMeters>
          </Trackpoint>
          <Trackpoint>
            <Time>2021-04-01T15:40:52.000Z</Time>
            <Position>
              <LatitudeDegrees>42.37672573886811733245849609375</LatitudeDegrees>
              <LongitudeDegrees>2.65727721154689788818359375</LongitudeDegrees>
            </Position>
            <AltitudeMeters>995</AltitudeMeters>
            <DistanceMeters>NAN</DistanceMeters>
          </Trackpoint>
          <Trackpoint>
            <Time>2021-04-01T15:40:59.000Z</Time>
            <Position>
              <LatitudeDegrees>42.37665164284408092498779296875</LatitudeDegrees>
              <LongitudeDegrees>2.65722583048045635223388671875</LongitudeDegrees>
            </Position>
            <AltitudeMeters>995.4000244140625</AltitudeMeters>
            <DistanceMeters>NAN</DistanceMeters>
          </Trackpoint>
          <Trackpoint>
            <Time>2021-04-01T15:41:01.000Z</Time>
            <Position>
              <LatitudeDegrees>42.37661509774625301361083984375</LatitudeDegrees>
              <LongitudeDegrees>2.6572073064744472503662109375</LongitudeDegrees>
            </Position>
            <AltitudeMeters>995.5999755859375</AltitudeMeters>
            <DistanceMeters>NAN</DistanceMeters>
          </Trackpoint>
          <Trackpoint>
            <Time>2021-04-01T15:41:03.000Z</Time>
            <Position>
              <LatitudeDegrees>42.376590706408023834228515625</LatitudeDegrees>
              <LongitudeDegrees>2.657194398343563079833984375</LongitudeDegrees>
            </Position>
            <AltitudeMeters>995.5999755859375</AltitudeMeters>
            <DistanceMeters>NAN</DistanceMeters>
          </Trackpoint>
          <Trackpoint>
            <Time>2021-04-01T15:41:07.000Z</Time>
            <Position>
              <LatitudeDegrees>42.3765355534851551055908203125</LatitudeDegrees>
              <LongitudeDegrees>2.6571771316230297088623046875</LongitudeDegrees>
            </Position>
            <AltitudeMeters>995.5999755859375</AltitudeMeters>
            <DistanceMeters>NAN</DistanceMeters>
          </Trackpoint>
          <Trackpoint>
            <Time>2021-04-01T15:41:08.000Z</Time>
            <Position>
              <LatitudeDegrees>42.37652373500168323516845703125</LatitudeDegrees>
              <LongitudeDegrees>2.65717319212853908538818359375</LongitudeDegrees>
            </Position>
            <AltitudeMeters>995.5999755859375</AltitudeMeters>
            <DistanceMeters>NAN</DistanceMeters>
          </Trackpoint>
          <Trackpoint>
            <Time>2021-04-01T15:41:12.000Z</Time>
            <Position>
              <LatitudeDegrees>42.37647227011620998382568359375</LatitudeDegrees>
              <LongitudeDegrees>2.65715114772319793701171875</LongitudeDegrees>
            </Position>
            <AltitudeMeters>995.5999755859375</AltitudeMeters>
            <DistanceMeters>NAN</DistanceMeters>
          </Trackpoint>
          <Trackpoint>
            <Time>2021-04-01T15:41:24.000Z</Time>
            <Position>
              <LatitudeDegrees>42.37633564509451389312744140625</LatitudeDegrees>
              <LongitudeDegrees>2.6571657322347164154052734375</LongitudeDegrees>
            </Position>
            <AltitudeMeters>995.5999755859375</AltitudeMeters>
            <DistanceMeters>NAN</DistanceMeters>
          </Trackpoint>
          <Trackpoint>
            <Time>2021-04-01T15:41:32.000Z</Time>
            <Position>
              <LatitudeDegrees>42.37626171670854091644287109375</LatitudeDegrees>
              <LongitudeDegrees>2.65717721544206142425537109375</LongitudeDegrees>
            </Position>
            <AltitudeMeters>995.5999755859375</AltitudeMeters>
            <DistanceMeters>NAN</DistanceMeters>
          </Trackpoint>
          <Trackpoint>
            <Time>2021-04-01T15:41:39.000Z</Time>
            <Position>
              <LatitudeDegrees>42.37619340419769287109375</LatitudeDegrees>
              <LongitudeDegrees>2.6571638882160186767578125</LongitudeDegrees>
            </Position>
            <AltitudeMeters>995.4000244140625</AltitudeMeters>
            <DistanceMeters>NAN</DistanceMeters>
          </Trackpoint>
          <Trackpoint>
            <Time>2021-04-01T15:41:45.000Z</Time>
            <Position>
              <LatitudeDegrees>42.376094497740268707275390625</LatitudeDegrees>
              <LongitudeDegrees>2.65715491957962512969970703125</LongitudeDegrees>
            </Position>
            <AltitudeMeters>995.20001220703125</AltitudeMeters>
            <DistanceMeters>NAN</DistanceMeters>
          </Trackpoint>
          <Trackpoint>
            <Time>2021-04-01T15:41:46.000Z</Time>
            <Position>
              <LatitudeDegrees>42.37607765011489391326904296875</LatitudeDegrees>
              <LongitudeDegrees>2.65714938752353191375732421875</LongitudeDegrees>
            </Position>
            <AltitudeMeters>995</AltitudeMeters>
            <DistanceMeters>NAN</DistanceMeters>
          </Trackpoint>
          <Trackpoint>
            <Time>2021-04-01T15:41:51.000Z</Time>
            <Position>
              <LatitudeDegrees>42.37600657157599925994873046875</LatitudeDegrees>
              <LongitudeDegrees>2.65711032785475254058837890625</LongitudeDegrees>
            </Position>
            <AltitudeMeters>994.79998779296875</AltitudeMeters>
            <DistanceMeters>NAN</DistanceMeters>
          </Trackpoint>
          <Trackpoint>
            <Time>2021-04-01T15:41:53.000Z</Time>
            <Position>
              <LatitudeDegrees>42.37597723491489887237548828125</LatitudeDegrees>
              <LongitudeDegrees>2.657104544341564178466796875</LongitudeDegrees>
            </Position>
            <AltitudeMeters>995.20001220703125</AltitudeMeters>
            <DistanceMeters>NAN</DistanceMeters>
          </Trackpoint>
          <Trackpoint>
            <Time>2021-04-01T15:42:00.000Z</Time>
            <Position>
              <LatitudeDegrees>42.3758770711719989776611328125</LatitudeDegrees>
              <LongitudeDegrees>2.65707227401435375213623046875</LongitudeDegrees>
            </Position>
            <AltitudeMeters>994.79998779296875</AltitudeMeters>
            <DistanceMeters>NAN</DistanceMeters>
          </Trackpoint>
          <Trackpoint>
            <Time>2021-04-01T15:42:07.000Z</Time>
            <Position>
              <LatitudeDegrees>42.37580372951924800872802734375</LatitudeDegrees>
              <LongitudeDegrees>2.65701393596827983856201171875</LongitudeDegrees>
            </Position>
            <AltitudeMeters>994.4000244140625</AltitudeMeters>
            <DistanceMeters>NAN</DistanceMeters>
          </Trackpoint>
          <Trackpoint>
            <Time>2021-04-01T15:42:08.000Z</Time>
            <Position>
              <LatitudeDegrees>42.37579316832125186920166015625</LatitudeDegrees>
              <LongitudeDegrees>2.65700169838964939117431640625</LongitudeDegrees>
            </Position>
            <AltitudeMeters>994.4000244140625</AltitudeMeters>
            <DistanceMeters>NAN</DistanceMeters>
          </Trackpoint>
          <Trackpoint>
            <Time>2021-04-01T15:42:10.000Z</Time>
            <Position>
              <LatitudeDegrees>42.3757617361843585968017578125</LatitudeDegrees>
              <LongitudeDegrees>2.656992562115192413330078125</LongitudeDegrees>
            </Position>
            <AltitudeMeters>994.4000244140625</AltitudeMeters>
            <DistanceMeters>NAN</DistanceMeters>
          </Trackpoint>
          <Trackpoint>
            <Time>2021-04-01T15:42:15.000Z</Time>
            <Position>
              <LatitudeDegrees>42.37569116055965423583984375</LatitudeDegrees>
              <LongitudeDegrees>2.65696180053055286407470703125</LongitudeDegrees>
            </Position>
            <AltitudeMeters>994.20001220703125</AltitudeMeters>
            <DistanceMeters>NAN</DistanceMeters>
          </Trackpoint>
          <Trackpoint>
            <Time>2021-04-01T15:42:24.000Z</Time>
            <Position>
              <LatitudeDegrees>42.37559602595865726470947265625</LatitudeDegrees>
              <LongitudeDegrees>2.65691251493990421295166015625</LongitudeDegrees>
            </Position>
            <AltitudeMeters>994</AltitudeMeters>
            <DistanceMeters>NAN</DistanceMeters>
          </Trackpoint>
          <Trackpoint>
            <Time>2021-04-01T15:42:25.000Z</Time>
            <Position>
              <LatitudeDegrees>42.37558680586516857147216796875</LatitudeDegrees>
              <LongitudeDegrees>2.65690748579800128936767578125</LongitudeDegrees>
            </Position>
            <AltitudeMeters>994</AltitudeMeters>
            <DistanceMeters>NAN</DistanceMeters>
          </Trackpoint>
          <Trackpoint>
            <Time>2021-04-01T15:42:31.000Z</Time>
            <Position>
              <LatitudeDegrees>42.3755250312387943267822265625</LatitudeDegrees>
              <LongitudeDegrees>2.65687429346144199371337890625</LongitudeDegrees>
            </Position>
            <AltitudeMeters>993.5999755859375</AltitudeMeters>
            <DistanceMeters>NAN</DistanceMeters>
          </Trackpoint>
          <Trackpoint>
            <Time>2021-04-01T15:42:33.000Z</Time>
            <Position>
              <LatitudeDegrees>42.37550516612827777862548828125</LatitudeDegrees>
              <LongitudeDegrees>2.65686809085309505462646484375</LongitudeDegrees>
            </Position>
            <AltitudeMeters>993.5999755859375</AltitudeMeters>
            <DistanceMeters>NAN</DistanceMeters>
          </Trackpoint>
          <Trackpoint>
            <Time>2021-04-01T15:42:37.000Z</Time>
            <Position>
              <LatitudeDegrees>42.375458814203739166259765625</LatitudeDegrees>
              <LongitudeDegrees>2.65684805810451507568359375</LongitudeDegrees>
            </Position>
            <AltitudeMeters>993.4000244140625</AltitudeMeters>
            <DistanceMeters>NAN</DistanceMeters>
          </Trackpoint>
          <Trackpoint>
            <Time>2021-04-01T15:42:42.000Z</Time>
            <Position>
              <LatitudeDegrees>42.37540089525282382965087890625</LatitudeDegrees>
              <LongitudeDegrees>2.65682668425142765045166015625</LongitudeDegrees>
            </Position>
            <AltitudeMeters>993.20001220703125</AltitudeMeters>
            <DistanceMeters>NAN</DistanceMeters>
          </Trackpoint>
          <Trackpoint>
            <Time>2021-04-01T15:42:44.000Z</Time>
            <Position>
              <LatitudeDegrees>42.37537197768688201904296875</LatitudeDegrees>
              <LongitudeDegrees>2.65681930817663669586181640625</LongitudeDegrees>
            </Position>
            <AltitudeMeters>993.20001220703125</AltitudeMeters>
            <DistanceMeters>NAN</DistanceMeters>
          </Trackpoint>
          <Trackpoint>
            <Time>2021-04-01T15:42:46.000Z</Time>
            <Position>
              <LatitudeDegrees>42.37534808926284313201904296875</LatitudeDegrees>
              <LongitudeDegrees>2.65681595541536808013916015625</LongitudeDegrees>
            </Position>
            <AltitudeMeters>993.20001220703125</AltitudeMeters>
            <DistanceMeters>NAN</DistanceMeters>
          </Trackpoint>
          <Trackpoint>
            <Time>2021-04-01T15:42:53.000Z</Time>
            <Position>
              <LatitudeDegrees>42.37526468932628631591796875</LatitudeDegrees>
              <LongitudeDegrees>2.656800448894500732421875</LongitudeDegrees>
            </Position>
            <AltitudeMeters>992.5999755859375</AltitudeMeters>
            <DistanceMeters>NAN</DistanceMeters>
          </Trackpoint>
          <Trackpoint>
            <Time>2021-04-01T15:42:55.000Z</Time>
            <Position>
              <LatitudeDegrees>42.37525689415633678436279296875</LatitudeDegrees>
              <LongitudeDegrees>2.656795084476470947265625</LongitudeDegrees>
            </Position>
            <AltitudeMeters>992.5999755859375</AltitudeMeters>
            <DistanceMeters>NAN</DistanceMeters>
          </Trackpoint>
          <Trackpoint>
            <Time>2021-04-01T15:42:56.000Z</Time>
            <Position>
              <LatitudeDegrees>42.3752547986805438995361328125</LatitudeDegrees>
              <LongitudeDegrees>2.65680019743740558624267578125</LongitudeDegrees>
            </Position>
            <AltitudeMeters>992.5999755859375</AltitudeMeters>
            <DistanceMeters>NAN</DistanceMeters>
          </Trackpoint>
          <Trackpoint>
            <Time>2021-04-01T15:42:57.000Z</Time>
            <Position>
              <LatitudeDegrees>42.3752497695386409759521484375</LatitudeDegrees>
              <LongitudeDegrees>2.65680321492254734039306640625</LongitudeDegrees>
            </Position>
            <AltitudeMeters>992.5999755859375</AltitudeMeters>
            <DistanceMeters>NAN</DistanceMeters>
          </Trackpoint>
          <Trackpoint>
            <Time>2021-04-01T15:42:59.000Z</Time>
            <Position>
              <LatitudeDegrees>42.37523308955132961273193359375</LatitudeDegrees>
              <LongitudeDegrees>2.656805478036403656005859375</LongitudeDegrees>
            </Position>
            <AltitudeMeters>992.5999755859375</AltitudeMeters>
            <DistanceMeters>NAN</DistanceMeters>
          </Trackpoint>
          <Trackpoint>
            <Time>2021-04-01T15:43:02.000Z</Time>
            <Position>
              <LatitudeDegrees>42.3752050101757049560546875</LatitudeDegrees>
              <LongitudeDegrees>2.65680153854191303253173828125</LongitudeDegrees>
            </Position>
            <AltitudeMeters>992.4000244140625</AltitudeMeters>
            <DistanceMeters>NAN</DistanceMeters>
          </Trackpoint>
          <Trackpoint>
            <Time>2021-04-01T15:43:05.000Z</Time>
            <Position>
              <LatitudeDegrees>42.3751567304134368896484375</LatitudeDegrees>
              <LongitudeDegrees>2.656803466379642486572265625</LongitudeDegrees>
            </Position>
            <AltitudeMeters>992.20001220703125</AltitudeMeters>
            <DistanceMeters>NAN</DistanceMeters>
          </Trackpoint>
          <Trackpoint>
            <Time>2021-04-01T15:43:11.000Z</Time>
            <Position>
              <LatitudeDegrees>42.37508707679808139801025390625</LatitudeDegrees>
              <LongitudeDegrees>2.656808160245418548583984375</LongitudeDegrees>
            </Position>
            <AltitudeMeters>992</AltitudeMeters>
            <DistanceMeters>NAN</DistanceMeters>
          </Trackpoint>
          <Trackpoint>
            <Time>2021-04-01T15:43:14.000Z</Time>
            <Position>
              <LatitudeDegrees>42.375047765672206878662109375</LatitudeDegrees>
              <LongitudeDegrees>2.656811513006687164306640625</LongitudeDegrees>
            </Position>
            <AltitudeMeters>991.5999755859375</AltitudeMeters>
            <DistanceMeters>NAN</DistanceMeters>
          </Trackpoint>
          <Trackpoint>
            <Time>2021-04-01T15:43:16.000Z</Time>
            <Position>
              <LatitudeDegrees>42.37502991221845149993896484375</LatitudeDegrees>
              <LongitudeDegrees>2.65682165510952472686767578125</LongitudeDegrees>
            </Position>
            <AltitudeMeters>991.20001220703125</AltitudeMeters>
            <DistanceMeters>NAN</DistanceMeters>
          </Trackpoint>
          <Trackpoint>
            <Time>2021-04-01T15:43:18.000Z</Time>
            <Position>
              <LatitudeDegrees>42.3750063590705394744873046875</LatitudeDegrees>
              <LongitudeDegrees>2.656827270984649658203125</LongitudeDegrees>
            </Position>
            <AltitudeMeters>991</AltitudeMeters>
            <DistanceMeters>NAN</DistanceMeters>
          </Trackpoint>
          <Trackpoint>
            <Time>2021-04-01T15:43:20.000Z</Time>
            <Position>
              <LatitudeDegrees>42.37499470822513103485107421875</LatitudeDegrees>
              <LongitudeDegrees>2.65683188103139400482177734375</LongitudeDegrees>
            </Position>
            <AltitudeMeters>990.79998779296875</AltitudeMeters>
            <DistanceMeters>NAN</DistanceMeters>
          </Trackpoint>
          <Trackpoint>
            <Time>2021-04-01T15:43:23.000Z</Time>
            <Position>
              <LatitudeDegrees>42.37494877539575099945068359375</LatitudeDegrees>
              <LongitudeDegrees>2.6568465493619441986083984375</LongitudeDegrees>
            </Position>
            <AltitudeMeters>990.79998779296875</AltitudeMeters>
            <DistanceMeters>NAN</DistanceMeters>
          </Trackpoint>
          <Trackpoint>
            <Time>2021-04-01T15:43:26.000Z</Time>
            <Position>
              <LatitudeDegrees>42.3749121464788913726806640625</LatitudeDegrees>
              <LongitudeDegrees>2.6568527519702911376953125</LongitudeDegrees>
            </Position>
            <AltitudeMeters>990.5999755859375</AltitudeMeters>
            <DistanceMeters>NAN</DistanceMeters>
          </Trackpoint>
          <Trackpoint>
            <Time>2021-04-01T15:43:28.000Z</Time>
            <Position>
              <LatitudeDegrees>42.37489764578640460968017578125</LatitudeDegrees>
              <LongitudeDegrees>2.656856440007686614990234375</LongitudeDegrees>
            </Position>
            <AltitudeMeters>990.5999755859375</AltitudeMeters>
            <DistanceMeters>NAN</DistanceMeters>
          </Trackpoint>
          <Trackpoint>
            <Time>2021-04-01T15:43:32.000Z</Time>
            <Position>
              <LatitudeDegrees>42.37484131939709186553955078125</LatitudeDegrees>
              <LongitudeDegrees>2.65685535036027431488037109375</LongitudeDegrees>
            </Position>
            <AltitudeMeters>990.20001220703125</AltitudeMeters>
            <DistanceMeters>NAN</DistanceMeters>
          </Trackpoint>
          <Trackpoint>
            <Time>2021-04-01T15:43:39.000Z</Time>
            <Position>
              <LatitudeDegrees>42.37473897635936737060546875</LatitudeDegrees>
              <LongitudeDegrees>2.6568599604070186614990234375</LongitudeDegrees>
            </Position>
            <AltitudeMeters>989.5999755859375</AltitudeMeters>
            <DistanceMeters>NAN</DistanceMeters>
          </Trackpoint>
          <Trackpoint>
            <Time>2021-04-01T15:43:40.000Z</Time>
            <Position>
              <LatitudeDegrees>42.374725900590419769287109375</LatitudeDegrees>
              <LongitudeDegrees>2.65686021186411380767822265625</LongitudeDegrees>
            </Position>
            <AltitudeMeters>989.4000244140625</AltitudeMeters>
            <DistanceMeters>NAN</DistanceMeters>
          </Trackpoint>
          <Trackpoint>
            <Time>2021-04-01T15:43:42.000Z</Time>
            <Position>
              <LatitudeDegrees>42.374705113470554351806640625</LatitudeDegrees>
              <LongitudeDegrees>2.65686172060668468475341796875</LongitudeDegrees>
            </Position>
            <AltitudeMeters>989</AltitudeMeters>
            <DistanceMeters>NAN</DistanceMeters>
          </Trackpoint>
          <Trackpoint>
            <Time>2021-04-01T15:43:48.000Z</Time>
            <Position>
              <LatitudeDegrees>42.37462590448558330535888671875</LatitudeDegrees>
              <LongitudeDegrees>2.6568606309592723846435546875</LongitudeDegrees>
            </Position>
            <AltitudeMeters>988.4000244140625</AltitudeMeters>
            <DistanceMeters>NAN</DistanceMeters>
          </Trackpoint>
          <Trackpoint>
            <Time>2021-04-01T15:43:56.000Z</Time>
            <Position>
              <LatitudeDegrees>42.37453219480812549591064453125</LatitudeDegrees>
              <LongitudeDegrees>2.65681545250117778778076171875</LongitudeDegrees>
            </Position>
            <AltitudeMeters>988.20001220703125</AltitudeMeters>
            <DistanceMeters>NAN</DistanceMeters>
          </Trackpoint>
          <Trackpoint>
            <Time>2021-04-01T15:43:59.000Z</Time>
            <Position>
              <LatitudeDegrees>42.37449648790061473846435546875</LatitudeDegrees>
              <LongitudeDegrees>2.65679969452321529388427734375</LongitudeDegrees>
            </Position>
            <AltitudeMeters>988.20001220703125</AltitudeMeters>
            <DistanceMeters>NAN</DistanceMeters>
          </Trackpoint>
          <Trackpoint>
            <Time>2021-04-01T15:44:01.000Z</Time>
            <Position>
              <LatitudeDegrees>42.374467737972736358642578125</LatitudeDegrees>
              <LongitudeDegrees>2.6567848585546016693115234375</LongitudeDegrees>
            </Position>
            <AltitudeMeters>988</AltitudeMeters>
            <DistanceMeters>NAN</DistanceMeters>
          </Trackpoint>
          <Trackpoint>
            <Time>2021-04-01T15:44:06.000Z</Time>
            <Position>
              <LatitudeDegrees>42.37441250123083591461181640625</LatitudeDegrees>
              <LongitudeDegrees>2.65673750080168247222900390625</LongitudeDegrees>
            </Position>
            <AltitudeMeters>987.5999755859375</AltitudeMeters>
            <DistanceMeters>NAN</DistanceMeters>
          </Trackpoint>
          <Trackpoint>
            <Time>2021-04-01T15:44:08.000Z</Time>
            <Position>
              <LatitudeDegrees>42.374396659433841705322265625</LatitudeDegrees>
              <LongitudeDegrees>2.65671889297664165496826171875</LongitudeDegrees>
            </Position>
            <AltitudeMeters>987.5999755859375</AltitudeMeters>
            <DistanceMeters>NAN</DistanceMeters>
          </Trackpoint>
          <Trackpoint>
            <Time>2021-04-01T15:44:13.000Z</Time>
            <Position>
              <LatitudeDegrees>42.37434997223317623138427734375</LatitudeDegrees>
              <LongitudeDegrees>2.65665938146412372589111328125</LongitudeDegrees>
            </Position>
            <AltitudeMeters>987.4000244140625</AltitudeMeters>
            <DistanceMeters>NAN</DistanceMeters>
          </Trackpoint>
          <Trackpoint>
            <Time>2021-04-01T15:44:17.000Z</Time>
            <Position>
              <LatitudeDegrees>42.37432952038943767547607421875</LatitudeDegrees>
              <LongitudeDegrees>2.656598947942256927490234375</LongitudeDegrees>
            </Position>
            <AltitudeMeters>987.4000244140625</AltitudeMeters>
            <DistanceMeters>NAN</DistanceMeters>
          </Trackpoint>
          <Trackpoint>
            <Time>2021-04-01T15:44:21.000Z</Time>
            <Position>
              <LatitudeDegrees>42.374304793775081634521484375</LatitudeDegrees>
              <LongitudeDegrees>2.6565308868885040283203125</LongitudeDegrees>
            </Position>
            <AltitudeMeters>987</AltitudeMeters>
            <DistanceMeters>NAN</DistanceMeters>
          </Trackpoint>
          <Trackpoint>
            <Time>2021-04-01T15:44:23.000Z</Time>
            <Position>
              <LatitudeDegrees>42.374298088252544403076171875</LatitudeDegrees>
              <LongitudeDegrees>2.65650205314159393310546875</LongitudeDegrees>
            </Position>
            <AltitudeMeters>986.79998779296875</AltitudeMeters>
            <DistanceMeters>NAN</DistanceMeters>
          </Trackpoint>
          <Trackpoint>
            <Time>2021-04-01T15:44:27.000Z</Time>
            <Position>
              <LatitudeDegrees>42.3742801509797573089599609375</LatitudeDegrees>
              <LongitudeDegrees>2.6564495824277400970458984375</LongitudeDegrees>
            </Position>
            <AltitudeMeters>986.79998779296875</AltitudeMeters>
            <DistanceMeters>NAN</DistanceMeters>
          </Trackpoint>
          <Trackpoint>
            <Time>2021-04-01T15:44:28.000Z</Time>
            <Position>
              <LatitudeDegrees>42.37427897751331329345703125</LatitudeDegrees>
              <LongitudeDegrees>2.6564301364123821258544921875</LongitudeDegrees>
            </Position>
            <AltitudeMeters>986.5999755859375</AltitudeMeters>
            <DistanceMeters>NAN</DistanceMeters>
          </Trackpoint>
          <Trackpoint>
            <Time>2021-04-01T15:44:30.000Z</Time>
            <Position>
              <LatitudeDegrees>42.3742778040468692779541015625</LatitudeDegrees>
              <LongitudeDegrees>2.65639166347682476043701171875</LongitudeDegrees>
            </Position>
            <AltitudeMeters>986.5999755859375</AltitudeMeters>
            <DistanceMeters>NAN</DistanceMeters>
          </Trackpoint>
          <Trackpoint>
            <Time>2021-04-01T15:44:32.000Z</Time>
            <Position>
              <LatitudeDegrees>42.3742794804275035858154296875</LatitudeDegrees>
              <LongitudeDegrees>2.65635042451322078704833984375</LongitudeDegrees>
            </Position>
            <AltitudeMeters>986.4000244140625</AltitudeMeters>
            <DistanceMeters>NAN</DistanceMeters>
          </Trackpoint>
          <Trackpoint>
            <Time>2021-04-01T15:44:34.000Z</Time>
            <Position>
              <LatitudeDegrees>42.37427822314202785491943359375</LatitudeDegrees>
              <LongitudeDegrees>2.65631052665412425994873046875</LongitudeDegrees>
            </Position>
            <AltitudeMeters>986.20001220703125</AltitudeMeters>
            <DistanceMeters>NAN</DistanceMeters>
          </Trackpoint>
          <Trackpoint>
            <Time>2021-04-01T15:44:37.000Z</Time>
            <Position>
              <LatitudeDegrees>42.3742744512856006622314453125</LatitudeDegrees>
              <LongitudeDegrees>2.6562497578561305999755859375</LongitudeDegrees>
            </Position>
            <AltitudeMeters>985.79998779296875</AltitudeMeters>
            <DistanceMeters>NAN</DistanceMeters>
          </Trackpoint>
          <Trackpoint>
            <Time>2021-04-01T15:44:38.000Z</Time>
            <Position>
              <LatitudeDegrees>42.37427093088626861572265625</LatitudeDegrees>
              <LongitudeDegrees>2.65623190440237522125244140625</LongitudeDegrees>
            </Position>
            <AltitudeMeters>985.5999755859375</AltitudeMeters>
            <DistanceMeters>NAN</DistanceMeters>
          </Trackpoint>
          <Trackpoint>
            <Time>2021-04-01T15:44:41.000Z</Time>
            <Position>
              <LatitudeDegrees>42.3742627166211605072021484375</LatitudeDegrees>
              <LongitudeDegrees>2.656180858612060546875</LongitudeDegrees>
            </Position>
            <AltitudeMeters>985.5999755859375</AltitudeMeters>
            <DistanceMeters>NAN</DistanceMeters>
          </Trackpoint>
          <Trackpoint>
            <Time>2021-04-01T15:44:44.000Z</Time>
            <Position>
              <LatitudeDegrees>42.37426078878343105316162109375</LatitudeDegrees>
              <LongitudeDegrees>2.6561300642788410186767578125</LongitudeDegrees>
            </Position>
            <AltitudeMeters>985.20001220703125</AltitudeMeters>
            <DistanceMeters>NAN</DistanceMeters>
          </Trackpoint>
          <Trackpoint>
            <Time>2021-04-01T15:44:46.000Z</Time>
            <Position>
              <LatitudeDegrees>42.37426296807825565338134765625</LatitudeDegrees>
              <LongitudeDegrees>2.65609703958034515380859375</LongitudeDegrees>
            </Position>
            <AltitudeMeters>985</AltitudeMeters>
            <DistanceMeters>NAN</DistanceMeters>
          </Trackpoint>
          <Trackpoint>
            <Time>2021-04-01T15:44:47.000Z</Time>
            <Position>
              <LatitudeDegrees>42.37426296807825565338134765625</LatitudeDegrees>
              <LongitudeDegrees>2.65609703958034515380859375</LongitudeDegrees>
            </Position>
            <AltitudeMeters>984.79998779296875</AltitudeMeters>
            <DistanceMeters>NAN</DistanceMeters>
          </Trackpoint>
          <Trackpoint>
            <Time>2021-04-01T15:44:49.000Z</Time>
            <Position>
              <LatitudeDegrees>42.37426833249628543853759765625</LatitudeDegrees>
              <LongitudeDegrees>2.6560449041426181793212890625</LongitudeDegrees>
            </Position>
            <AltitudeMeters>984.79998779296875</AltitudeMeters>
            <DistanceMeters>NAN</DistanceMeters>
          </Trackpoint>
          <Trackpoint>
            <Time>2021-04-01T15:44:58.000Z</Time>
            <Position>
              <LatitudeDegrees>42.37428434193134307861328125</LatitudeDegrees>
              <LongitudeDegrees>2.6558812893927097320556640625</LongitudeDegrees>
            </Position>
            <AltitudeMeters>984</AltitudeMeters>
            <DistanceMeters>NAN</DistanceMeters>
          </Trackpoint>
          <Trackpoint>
            <Time>2021-04-01T15:45:00.000Z</Time>
            <Position>
              <LatitudeDegrees>42.3742851801216602325439453125</LatitudeDegrees>
              <LongitudeDegrees>2.6558361947536468505859375</LongitudeDegrees>
            </Position>
            <AltitudeMeters>983.79998779296875</AltitudeMeters>
            <DistanceMeters>NAN</DistanceMeters>
          </Trackpoint>
          <Trackpoint>
            <Time>2021-04-01T15:45:06.000Z</Time>
            <Position>
              <LatitudeDegrees>42.3742824979126453399658203125</LatitudeDegrees>
              <LongitudeDegrees>2.65573184005916118621826171875</LongitudeDegrees>
            </Position>
            <AltitudeMeters>982.79998779296875</AltitudeMeters>
            <DistanceMeters>NAN</DistanceMeters>
          </Trackpoint>
          <Trackpoint>
            <Time>2021-04-01T15:45:07.000Z</Time>
            <Position>
              <LatitudeDegrees>42.37427973188459873199462890625</LatitudeDegrees>
              <LongitudeDegrees>2.65571876429021358489990234375</LongitudeDegrees>
            </Position>
            <AltitudeMeters>982.79998779296875</AltitudeMeters>
            <DistanceMeters>NAN</DistanceMeters>
          </Trackpoint>
          <Trackpoint>
            <Time>2021-04-01T15:45:08.000Z</Time>
            <Position>
              <LatitudeDegrees>42.3742754571139812469482421875</LatitudeDegrees>
              <LongitudeDegrees>2.65569965355098247528076171875</LongitudeDegrees>
            </Position>
            <AltitudeMeters>982.5999755859375</AltitudeMeters>
            <DistanceMeters>NAN</DistanceMeters>
          </Trackpoint>
          <Trackpoint>
            <Time>2021-04-01T15:45:12.000Z</Time>
            <Position>
              <LatitudeDegrees>42.3742670752108097076416015625</LatitudeDegrees>
              <LongitudeDegrees>2.655636705458164215087890625</LongitudeDegrees>
            </Position>
            <AltitudeMeters>982</AltitudeMeters>
            <DistanceMeters>NAN</DistanceMeters>
          </Trackpoint>
          <Trackpoint>
            <Time>2021-04-01T15:45:14.000Z</Time>
            <Position>
              <LatitudeDegrees>42.3742596991360187530517578125</LatitudeDegrees>
              <LongitudeDegrees>2.65559814870357513427734375</LongitudeDegrees>
            </Position>
            <AltitudeMeters>981.79998779296875</AltitudeMeters>
            <DistanceMeters>NAN</DistanceMeters>
          </Trackpoint>
          <Trackpoint>
            <Time>2021-04-01T15:45:15.000Z</Time>
            <Position>
              <LatitudeDegrees>42.3742553405463695526123046875</LatitudeDegrees>
              <LongitudeDegrees>2.65558230690658092498779296875</LongitudeDegrees>
            </Position>
            <AltitudeMeters>981.5999755859375</AltitudeMeters>
            <DistanceMeters>NAN</DistanceMeters>
          </Trackpoint>
          <Trackpoint>
            <Time>2021-04-01T15:45:20.000Z</Time>
            <Position>
              <LatitudeDegrees>42.37423111684620380401611328125</LatitudeDegrees>
              <LongitudeDegrees>2.655504606664180755615234375</LongitudeDegrees>
            </Position>
            <AltitudeMeters>980.5999755859375</AltitudeMeters>
            <DistanceMeters>NAN</DistanceMeters>
          </Trackpoint>
          <Trackpoint>
            <Time>2021-04-01T15:45:22.000Z</Time>
            <Position>
              <LatitudeDegrees>42.37422642298042774200439453125</LatitudeDegrees>
              <LongitudeDegrees>2.65548759140074253082275390625</LongitudeDegrees>
            </Position>
            <AltitudeMeters>980.4000244140625</AltitudeMeters>
            <DistanceMeters>NAN</DistanceMeters>
          </Trackpoint>
          <Trackpoint>
            <Time>2021-04-01T15:45:27.000Z</Time>
            <Position>
              <LatitudeDegrees>42.3742154426872730255126953125</LatitudeDegrees>
              <LongitudeDegrees>2.6554199494421482086181640625</LongitudeDegrees>
            </Position>
            <AltitudeMeters>979.4000244140625</AltitudeMeters>
            <DistanceMeters>NAN</DistanceMeters>
          </Trackpoint>
          <Trackpoint>
            <Time>2021-04-01T15:45:34.000Z</Time>
            <Position>
              <LatitudeDegrees>42.37420798279345035552978515625</LatitudeDegrees>
              <LongitudeDegrees>2.6552836596965789794921875</LongitudeDegrees>
            </Position>
            <AltitudeMeters>979</AltitudeMeters>
            <DistanceMeters>NAN</DistanceMeters>
          </Trackpoint>
          <Trackpoint>
            <Time>2021-04-01T15:45:38.000Z</Time>
            <Position>
              <LatitudeDegrees>42.3742006905376911163330078125</LatitudeDegrees>
              <LongitudeDegrees>2.6551892794668674468994140625</LongitudeDegrees>
            </Position>
            <AltitudeMeters>978.4000244140625</AltitudeMeters>
            <DistanceMeters>NAN</DistanceMeters>
          </Trackpoint>
          <Trackpoint>
            <Time>2021-04-01T15:45:44.000Z</Time>
            <Position>
              <LatitudeDegrees>42.37422189675271511077880859375</LatitudeDegrees>
              <LongitudeDegrees>2.65508157201111316680908203125</LongitudeDegrees>
            </Position>
            <AltitudeMeters>977.4000244140625</AltitudeMeters>
            <DistanceMeters>NAN</DistanceMeters>
          </Trackpoint>
          <Trackpoint>
            <Time>2021-04-01T15:45:45.000Z</Time>
            <Position>
              <LatitudeDegrees>42.37422659061849117279052734375</LatitudeDegrees>
              <LongitudeDegrees>2.6550608687102794647216796875</LongitudeDegrees>
            </Position>
            <AltitudeMeters>977.4000244140625</AltitudeMeters>
            <DistanceMeters>NAN</DistanceMeters>
          </Trackpoint>
          <Trackpoint>
            <Time>2021-04-01T15:45:53.000Z</Time>
            <Position>
              <LatitudeDegrees>42.37422390840947628021240234375</LatitudeDegrees>
              <LongitudeDegrees>2.65492801554501056671142578125</LongitudeDegrees>
            </Position>
            <AltitudeMeters>976.5999755859375</AltitudeMeters>
            <DistanceMeters>NAN</DistanceMeters>
          </Trackpoint>
          <Trackpoint>
            <Time>2021-04-01T15:45:56.000Z</Time>
            <Position>
              <LatitudeDegrees>42.37422575242817401885986328125</LatitudeDegrees>
              <LongitudeDegrees>2.65488468110561370849609375</LongitudeDegrees>
            </Position>
            <AltitudeMeters>976.20001220703125</AltitudeMeters>
            <DistanceMeters>NAN</DistanceMeters>
          </Trackpoint>
          <Trackpoint>
            <Time>2021-04-01T15:45:59.000Z</Time>
            <Position>
              <LatitudeDegrees>42.37422675825655460357666015625</LatitudeDegrees>
              <LongitudeDegrees>2.6548308692872524261474609375</LongitudeDegrees>
            </Position>
            <AltitudeMeters>975.4000244140625</AltitudeMeters>
            <DistanceMeters>NAN</DistanceMeters>
          </Trackpoint>
          <Trackpoint>
            <Time>2021-04-01T15:46:01.000Z</Time>
            <Position>
              <LatitudeDegrees>42.3742231540381908416748046875</LatitudeDegrees>
              <LongitudeDegrees>2.65479977242648601531982421875</LongitudeDegrees>
            </Position>
            <AltitudeMeters>975.20001220703125</AltitudeMeters>
            <DistanceMeters>NAN</DistanceMeters>
          </Trackpoint>
          <Trackpoint>
            <Time>2021-04-01T15:46:04.000Z</Time>
            <Position>
              <LatitudeDegrees>42.37421770580112934112548828125</LatitudeDegrees>
              <LongitudeDegrees>2.6547510735690593719482421875</LongitudeDegrees>
            </Position>
            <AltitudeMeters>975</AltitudeMeters>
            <DistanceMeters>NAN</DistanceMeters>
          </Trackpoint>
          <Trackpoint>
            <Time>2021-04-01T15:46:05.000Z</Time>
            <Position>
              <LatitudeDegrees>42.37421317957341670989990234375</LatitudeDegrees>
              <LongitudeDegrees>2.654735483229160308837890625</LongitudeDegrees>
            </Position>
            <AltitudeMeters>974.79998779296875</AltitudeMeters>
            <DistanceMeters>NAN</DistanceMeters>
          </Trackpoint>
          <Trackpoint>
            <Time>2021-04-01T15:46:07.000Z</Time>
            <Position>
              <LatitudeDegrees>42.37421049736440181732177734375</LatitudeDegrees>
              <LongitudeDegrees>2.6546967588365077972412109375</LongitudeDegrees>
            </Position>
            <AltitudeMeters>974.79998779296875</AltitudeMeters>
            <DistanceMeters>NAN</DistanceMeters>
          </Trackpoint>
          <Trackpoint>
            <Time>2021-04-01T15:46:10.000Z</Time>
            <Position>
              <LatitudeDegrees>42.37420119345188140869140625</LatitudeDegrees>
              <LongitudeDegrees>2.654648981988430023193359375</LongitudeDegrees>
            </Position>
            <AltitudeMeters>974.5999755859375</AltitudeMeters>
            <DistanceMeters>NAN</DistanceMeters>
          </Trackpoint>
          <Trackpoint>
            <Time>2021-04-01T15:46:15.000Z</Time>
            <Position>
              <LatitudeDegrees>42.37420077435672283172607421875</LatitudeDegrees>
              <LongitudeDegrees>2.654554434120655059814453125</LongitudeDegrees>
            </Position>
            <AltitudeMeters>974</AltitudeMeters>
            <DistanceMeters>NAN</DistanceMeters>
          </Trackpoint>
          <Trackpoint>
            <Time>2021-04-01T15:46:20.000Z</Time>
            <Position>
              <LatitudeDegrees>42.37421267665922641754150390625</LatitudeDegrees>
              <LongitudeDegrees>2.6544660888612270355224609375</LongitudeDegrees>
            </Position>
            <AltitudeMeters>973</AltitudeMeters>
            <DistanceMeters>NAN</DistanceMeters>
          </Trackpoint>
          <Trackpoint>
            <Time>2021-04-01T15:46:21.000Z</Time>
            <Position>
              <LatitudeDegrees>42.37421267665922641754150390625</LatitudeDegrees>
              <LongitudeDegrees>2.6544660888612270355224609375</LongitudeDegrees>
            </Position>
            <AltitudeMeters>972.5999755859375</AltitudeMeters>
            <DistanceMeters>NAN</DistanceMeters>
          </Trackpoint>
          <Trackpoint>
            <Time>2021-04-01T15:46:22.000Z</Time>
            <Position>
              <LatitudeDegrees>42.3742134310305118560791015625</LatitudeDegrees>
              <LongitudeDegrees>2.65442560426890850067138671875</LongitudeDegrees>
            </Position>
            <AltitudeMeters>972.4000244140625</AltitudeMeters>
            <DistanceMeters>NAN</DistanceMeters>
          </Trackpoint>
          <Trackpoint>
            <Time>2021-04-01T15:46:25.000Z</Time>
            <Position>
              <LatitudeDegrees>42.3742090724408626556396484375</LatitudeDegrees>
              <LongitudeDegrees>2.6543671824038028717041015625</LongitudeDegrees>
            </Position>
            <AltitudeMeters>971.79998779296875</AltitudeMeters>
            <DistanceMeters>NAN</DistanceMeters>
          </Trackpoint>
          <Trackpoint>
            <Time>2021-04-01T15:46:30.000Z</Time>
            <Position>
              <LatitudeDegrees>42.374197505414485931396484375</LatitudeDegrees>
              <LongitudeDegrees>2.65429233200848102569580078125</LongitudeDegrees>
            </Position>
            <AltitudeMeters>971.4000244140625</AltitudeMeters>
            <DistanceMeters>NAN</DistanceMeters>
          </Trackpoint>
          <Trackpoint>
            <Time>2021-04-01T15:46:33.000Z</Time>
            <Position>
              <LatitudeDegrees>42.37419574521481990814208984375</LatitudeDegrees>
              <LongitudeDegrees>2.654233239591121673583984375</LongitudeDegrees>
            </Position>
            <AltitudeMeters>970.5999755859375</AltitudeMeters>
            <DistanceMeters>NAN</DistanceMeters>
          </Trackpoint>
          <Trackpoint>
            <Time>2021-04-01T15:46:34.000Z</Time>
            <Position>
              <LatitudeDegrees>42.37419574521481990814208984375</LatitudeDegrees>
              <LongitudeDegrees>2.6542107760906219482421875</LongitudeDegrees>
            </Position>
            <AltitudeMeters>970.4000244140625</AltitudeMeters>
            <DistanceMeters>NAN</DistanceMeters>
          </Trackpoint>
          <Trackpoint>
            <Time>2021-04-01T15:46:39.000Z</Time>
            <Position>
              <LatitudeDegrees>42.37419105134904384613037109375</LatitudeDegrees>
              <LongitudeDegrees>2.6541153900325298309326171875</LongitudeDegrees>
            </Position>
            <AltitudeMeters>969.79998779296875</AltitudeMeters>
            <DistanceMeters>NAN</DistanceMeters>
          </Trackpoint>
          <Trackpoint>
            <Time>2021-04-01T15:46:40.000Z</Time>
            <Position>
              <LatitudeDegrees>42.37419088371098041534423828125</LatitudeDegrees>
              <LongitudeDegrees>2.65410524792969226837158203125</LongitudeDegrees>
            </Position>
            <AltitudeMeters>969.79998779296875</AltitudeMeters>
            <DistanceMeters>NAN</DistanceMeters>
          </Trackpoint>
          <Trackpoint>
            <Time>2021-04-01T15:46:43.000Z</Time>
            <Position>
              <LatitudeDegrees>42.37417613156139850616455078125</LatitudeDegrees>
              <LongitudeDegrees>2.6540604047477245330810546875</LongitudeDegrees>
            </Position>
            <AltitudeMeters>969.5999755859375</AltitudeMeters>
            <DistanceMeters>NAN</DistanceMeters>
          </Trackpoint>
          <Trackpoint>
            <Time>2021-04-01T15:46:50.000Z</Time>
            <Position>
              <LatitudeDegrees>42.37413539551198482513427734375</LatitudeDegrees>
              <LongitudeDegrees>2.6539645157754421234130859375</LongitudeDegrees>
            </Position>
            <AltitudeMeters>968.5999755859375</AltitudeMeters>
            <DistanceMeters>NAN</DistanceMeters>
          </Trackpoint>
          <Trackpoint>
            <Time>2021-04-01T15:46:51.000Z</Time>
            <Position>
              <LatitudeDegrees>42.3741232417523860931396484375</LatitudeDegrees>
              <LongitudeDegrees>2.6539480872452259063720703125</LongitudeDegrees>
            </Position>
            <AltitudeMeters>968.4000244140625</AltitudeMeters>
            <DistanceMeters>NAN</DistanceMeters>
          </Trackpoint>
          <Trackpoint>
            <Time>2021-04-01T15:46:53.000Z</Time>
            <Position>
              <LatitudeDegrees>42.3741053044795989990234375</LatitudeDegrees>
              <LongitudeDegrees>2.6539185829460620880126953125</LongitudeDegrees>
            </Position>
            <AltitudeMeters>968.20001220703125</AltitudeMeters>
            <DistanceMeters>NAN</DistanceMeters>
          </Trackpoint>
          <Trackpoint>
            <Time>2021-04-01T15:46:58.000Z</Time>
            <Position>
              <LatitudeDegrees>42.37404788844287395477294921875</LatitudeDegrees>
              <LongitudeDegrees>2.65387080609798431396484375</LongitudeDegrees>
            </Position>
            <AltitudeMeters>967.4000244140625</AltitudeMeters>
            <DistanceMeters>NAN</DistanceMeters>
          </Trackpoint>
          <Trackpoint>
            <Time>2021-04-01T15:47:04.000Z</Time>
            <Position>
              <LatitudeDegrees>42.373974882066249847412109375</LatitudeDegrees>
              <LongitudeDegrees>2.65381691046059131622314453125</LongitudeDegrees>
            </Position>
            <AltitudeMeters>966.4000244140625</AltitudeMeters>
            <DistanceMeters>NAN</DistanceMeters>
          </Trackpoint>
          <Trackpoint>
            <Time>2021-04-01T15:47:07.000Z</Time>
            <Position>
              <LatitudeDegrees>42.373947389423847198486328125</LatitudeDegrees>
              <LongitudeDegrees>2.6537945307791233062744140625</LongitudeDegrees>
            </Position>
            <AltitudeMeters>966.20001220703125</AltitudeMeters>
            <DistanceMeters>NAN</DistanceMeters>
          </Trackpoint>
          <Trackpoint>
            <Time>2021-04-01T15:47:12.000Z</Time>
            <Position>
              <LatitudeDegrees>42.37387237139046192169189453125</LatitudeDegrees>
              <LongitudeDegrees>2.6537556387484073638916015625</LongitudeDegrees>
            </Position>
            <AltitudeMeters>965.4000244140625</AltitudeMeters>
            <DistanceMeters>NAN</DistanceMeters>
          </Trackpoint>
          <Trackpoint>
            <Time>2021-04-01T15:47:15.000Z</Time>
            <Position>
              <LatitudeDegrees>42.37383398227393627166748046875</LatitudeDegrees>
              <LongitudeDegrees>2.65373359434306621551513671875</LongitudeDegrees>
            </Position>
            <AltitudeMeters>964.79998779296875</AltitudeMeters>
            <DistanceMeters>NAN</DistanceMeters>
          </Trackpoint>
          <Trackpoint>
            <Time>2021-04-01T15:47:19.000Z</Time>
            <Position>
              <LatitudeDegrees>42.3737829364836215972900390625</LatitudeDegrees>
              <LongitudeDegrees>2.65371255576610565185546875</LongitudeDegrees>
            </Position>
            <AltitudeMeters>964.20001220703125</AltitudeMeters>
            <DistanceMeters>NAN</DistanceMeters>
          </Trackpoint>
          <Trackpoint>
            <Time>2021-04-01T15:47:24.000Z</Time>
            <Position>
              <LatitudeDegrees>42.37373541109263896942138671875</LatitudeDegrees>
              <LongitudeDegrees>2.65366754494607448577880859375</LongitudeDegrees>
            </Position>
            <AltitudeMeters>963.20001220703125</AltitudeMeters>
            <DistanceMeters>NAN</DistanceMeters>
          </Trackpoint>
          <Trackpoint>
            <Time>2021-04-01T15:47:30.000Z</Time>
            <Position>
              <LatitudeDegrees>42.37366165034472942352294921875</LatitudeDegrees>
              <LongitudeDegrees>2.65363368205726146697998046875</LongitudeDegrees>
            </Position>
            <AltitudeMeters>962.20001220703125</AltitudeMeters>
            <DistanceMeters>NAN</DistanceMeters>
          </Trackpoint>
          <Trackpoint>
            <Time>2021-04-01T15:47:31.000Z</Time>
            <Position>
              <LatitudeDegrees>42.3736498318612575531005859375</LatitudeDegrees>
              <LongitudeDegrees>2.65362144447863101959228515625</LongitudeDegrees>
            </Position>
            <AltitudeMeters>962.20001220703125</AltitudeMeters>
            <DistanceMeters>NAN</DistanceMeters>
          </Trackpoint>
          <Trackpoint>
            <Time>2021-04-01T15:47:33.000Z</Time>
            <Position>
              <LatitudeDegrees>42.3736230097711086273193359375</LatitudeDegrees>
              <LongitudeDegrees>2.65360937453806400299072265625</LongitudeDegrees>
            </Position>
            <AltitudeMeters>962</AltitudeMeters>
            <DistanceMeters>NAN</DistanceMeters>
          </Trackpoint>
          <Trackpoint>
            <Time>2021-04-01T15:47:38.000Z</Time>
            <Position>
              <LatitudeDegrees>42.373563833534717559814453125</LatitudeDegrees>
              <LongitudeDegrees>2.65359009616076946258544921875</LongitudeDegrees>
            </Position>
            <AltitudeMeters>961.20001220703125</AltitudeMeters>
            <DistanceMeters>NAN</DistanceMeters>
          </Trackpoint>
          <Trackpoint>
            <Time>2021-04-01T15:47:40.000Z</Time>
            <Position>
              <LatitudeDegrees>42.37354581244289875030517578125</LatitudeDegrees>
              <LongitudeDegrees>2.65357911586761474609375</LongitudeDegrees>
            </Position>
            <AltitudeMeters>961</AltitudeMeters>
            <DistanceMeters>NAN</DistanceMeters>
          </Trackpoint>
          <Trackpoint>
            <Time>2021-04-01T15:47:44.000Z</Time>
            <Position>
              <LatitudeDegrees>42.373486720025539398193359375</LatitudeDegrees>
              <LongitudeDegrees>2.653564028441905975341796875</LongitudeDegrees>
            </Position>
            <AltitudeMeters>960.4000244140625</AltitudeMeters>
            <DistanceMeters>NAN</DistanceMeters>
          </Trackpoint>
          <Trackpoint>
            <Time>2021-04-01T15:47:46.000Z</Time>
            <Position>
              <LatitudeDegrees>42.37345612607896327972412109375</LatitudeDegrees>
              <LongitudeDegrees>2.65356997959315776824951171875</LongitudeDegrees>
            </Position>
            <AltitudeMeters>960.20001220703125</AltitudeMeters>
            <DistanceMeters>NAN</DistanceMeters>
          </Trackpoint>
          <Trackpoint>
            <Time>2021-04-01T15:47:47.000Z</Time>
            <Position>
              <LatitudeDegrees>42.3734429664909839630126953125</LatitudeDegrees>
              <LongitudeDegrees>2.6535648666322231292724609375</LongitudeDegrees>
            </Position>
            <AltitudeMeters>960</AltitudeMeters>
            <DistanceMeters>NAN</DistanceMeters>
          </Trackpoint>
          <Trackpoint>
            <Time>2021-04-01T15:47:51.000Z</Time>
            <Position>
              <LatitudeDegrees>42.37339627929031848907470703125</LatitudeDegrees>
              <LongitudeDegrees>2.65354550443589687347412109375</LongitudeDegrees>
            </Position>
            <AltitudeMeters>959.5999755859375</AltitudeMeters>
            <DistanceMeters>NAN</DistanceMeters>
          </Trackpoint>
          <Trackpoint>
            <Time>2021-04-01T15:47:52.000Z</Time>
            <Position>
              <LatitudeDegrees>42.3733812756836414337158203125</LatitudeDegrees>
              <LongitudeDegrees>2.6535455882549285888671875</LongitudeDegrees>
            </Position>
            <AltitudeMeters>959.5999755859375</AltitudeMeters>
            <DistanceMeters>NAN</DistanceMeters>
          </Trackpoint>
          <Trackpoint>
            <Time>2021-04-01T15:47:59.000Z</Time>
            <Position>
              <LatitudeDegrees>42.373292930424213409423828125</LatitudeDegrees>
              <LongitudeDegrees>2.65353645198047161102294921875</LongitudeDegrees>
            </Position>
            <AltitudeMeters>959</AltitudeMeters>
            <DistanceMeters>NAN</DistanceMeters>
          </Trackpoint>
          <Trackpoint>
            <Time>2021-04-01T15:48:07.000Z</Time>
            <Position>
              <LatitudeDegrees>42.3732210136950016021728515625</LatitudeDegrees>
              <LongitudeDegrees>2.653495967388153076171875</LongitudeDegrees>
            </Position>
            <AltitudeMeters>958.4000244140625</AltitudeMeters>
            <DistanceMeters>NAN</DistanceMeters>
          </Trackpoint>
          <Trackpoint>
            <Time>2021-04-01T15:48:15.000Z</Time>
            <Position>
              <LatitudeDegrees>42.3731799423694610595703125</LatitudeDegrees>
              <LongitudeDegrees>2.6535393856465816497802734375</LongitudeDegrees>
            </Position>
            <AltitudeMeters>958.20001220703125</AltitudeMeters>
            <DistanceMeters>NAN</DistanceMeters>
          </Trackpoint>
          <Trackpoint>
            <Time>2021-04-01T15:48:16.000Z</Time>
            <Position>
              <LatitudeDegrees>42.37319075502455234527587890625</LatitudeDegrees>
              <LongitudeDegrees>2.65352890826761722564697265625</LongitudeDegrees>
            </Position>
            <AltitudeMeters>958.20001220703125</AltitudeMeters>
            <DistanceMeters>NAN</DistanceMeters>
          </Trackpoint>
          <Trackpoint>
            <Time>2021-04-01T15:48:19.000Z</Time>
            <Position>
              <LatitudeDegrees>42.37320684827864170074462890625</LatitudeDegrees>
              <LongitudeDegrees>2.65349973924458026885986328125</LongitudeDegrees>
            </Position>
            <AltitudeMeters>957.79998779296875</AltitudeMeters>
            <DistanceMeters>NAN</DistanceMeters>
          </Trackpoint>
          <Trackpoint>
            <Time>2021-04-01T15:48:20.000Z</Time>
            <Position>
              <LatitudeDegrees>42.37320466898381710052490234375</LatitudeDegrees>
              <LongitudeDegrees>2.653495632112026214599609375</LongitudeDegrees>
            </Position>
            <AltitudeMeters>957.79998779296875</AltitudeMeters>
            <DistanceMeters>NAN</DistanceMeters>
          </Trackpoint>
          <Trackpoint>
            <Time>2021-04-01T15:48:25.000Z</Time>
            <Position>
              <LatitudeDegrees>42.3731844685971736907958984375</LatitudeDegrees>
              <LongitudeDegrees>2.6535142399370670318603515625</LongitudeDegrees>
            </Position>
            <AltitudeMeters>957.4000244140625</AltitudeMeters>
            <DistanceMeters>NAN</DistanceMeters>
          </Trackpoint>
          <Trackpoint>
            <Time>2021-04-01T15:48:27.000Z</Time>
            <Position>
              <LatitudeDegrees>42.37317063845694065093994140625</LatitudeDegrees>
              <LongitudeDegrees>2.65351683832705020904541015625</LongitudeDegrees>
            </Position>
            <AltitudeMeters>956.79998779296875</AltitudeMeters>
            <DistanceMeters>NAN</DistanceMeters>
          </Trackpoint>
          <Trackpoint>
            <Time>2021-04-01T15:48:31.000Z</Time>
            <Position>
              <LatitudeDegrees>42.37313501536846160888671875</LatitudeDegrees>
              <LongitudeDegrees>2.6535249687731266021728515625</LongitudeDegrees>
            </Position>
            <AltitudeMeters>955.79998779296875</AltitudeMeters>
            <DistanceMeters>NAN</DistanceMeters>
          </Trackpoint>
          <Trackpoint>
            <Time>2021-04-01T15:48:33.000Z</Time>
            <Position>
              <LatitudeDegrees>42.373120598495006561279296875</LatitudeDegrees>
              <LongitudeDegrees>2.65352890826761722564697265625</LongitudeDegrees>
            </Position>
            <AltitudeMeters>955.5999755859375</AltitudeMeters>
            <DistanceMeters>NAN</DistanceMeters>
          </Trackpoint>
          <Trackpoint>
            <Time>2021-04-01T15:48:36.000Z</Time>
            <Position>
              <LatitudeDegrees>42.37311095930635929107666015625</LatitudeDegrees>
              <LongitudeDegrees>2.65355028212070465087890625</LongitudeDegrees>
            </Position>
            <AltitudeMeters>955.5999755859375</AltitudeMeters>
            <DistanceMeters>NAN</DistanceMeters>
          </Trackpoint>
          <Trackpoint>
            <Time>2021-04-01T15:48:37.000Z</Time>
            <Position>
              <LatitudeDegrees>42.3731040023267269134521484375</LatitudeDegrees>
              <LongitudeDegrees>2.6535511203110218048095703125</LongitudeDegrees>
            </Position>
            <AltitudeMeters>955.5999755859375</AltitudeMeters>
            <DistanceMeters>NAN</DistanceMeters>
          </Trackpoint>
          <Trackpoint>
            <Time>2021-04-01T15:48:38.000Z</Time>
            <Position>
              <LatitudeDegrees>42.37309168092906475067138671875</LatitudeDegrees>
              <LongitudeDegrees>2.65355254523456096649169921875</LongitudeDegrees>
            </Position>
            <AltitudeMeters>955.5999755859375</AltitudeMeters>
            <DistanceMeters>NAN</DistanceMeters>
          </Trackpoint>
          <Trackpoint>
            <Time>2021-04-01T15:48:43.000Z</Time>
            <Position>
              <LatitudeDegrees>42.3730860650539398193359375</LatitudeDegrees>
              <LongitudeDegrees>2.65356377698481082916259765625</LongitudeDegrees>
            </Position>
            <AltitudeMeters>955.79998779296875</AltitudeMeters>
            <DistanceMeters>NAN</DistanceMeters>
          </Trackpoint>
          <Trackpoint>
            <Time>2021-04-01T15:48:44.000Z</Time>
            <Position>
              <LatitudeDegrees>42.37308581359684467315673828125</LatitudeDegrees>
              <LongitudeDegrees>2.65355656854808330535888671875</LongitudeDegrees>
            </Position>
            <AltitudeMeters>955.79998779296875</AltitudeMeters>
            <DistanceMeters>NAN</DistanceMeters>
          </Trackpoint>
          <Trackpoint>
            <Time>2021-04-01T15:48:52.000Z</Time>
            <Position>
              <LatitudeDegrees>42.3730339296162128448486328125</LatitudeDegrees>
              <LongitudeDegrees>2.65359587967395782470703125</LongitudeDegrees>
            </Position>
            <AltitudeMeters>956.20001220703125</AltitudeMeters>
            <DistanceMeters>NAN</DistanceMeters>
          </Trackpoint>
          <Trackpoint>
            <Time>2021-04-01T15:49:01.000Z</Time>
            <Position>
              <LatitudeDegrees>42.37294248305261135101318359375</LatitudeDegrees>
              <LongitudeDegrees>2.65357308089733123779296875</LongitudeDegrees>
            </Position>
            <AltitudeMeters>956.20001220703125</AltitudeMeters>
            <DistanceMeters>NAN</DistanceMeters>
          </Trackpoint>
          <Trackpoint>
            <Time>2021-04-01T15:49:06.000Z</Time>
            <Position>
              <LatitudeDegrees>42.37288833595812320709228515625</LatitudeDegrees>
              <LongitudeDegrees>2.65354156494140625</LongitudeDegrees>
            </Position>
            <AltitudeMeters>956</AltitudeMeters>
            <DistanceMeters>NAN</DistanceMeters>
          </Trackpoint>
          <Trackpoint>
            <Time>2021-04-01T15:49:11.000Z</Time>
            <Position>
              <LatitudeDegrees>42.3728166706860065460205078125</LatitudeDegrees>
              <LongitudeDegrees>2.6535390503704547882080078125</LongitudeDegrees>
            </Position>
            <AltitudeMeters>955.79998779296875</AltitudeMeters>
            <DistanceMeters>NAN</DistanceMeters>
          </Trackpoint>
          <Trackpoint>
            <Time>2021-04-01T15:49:17.000Z</Time>
            <Position>
              <LatitudeDegrees>42.37275816500186920166015625</LatitudeDegrees>
              <LongitudeDegrees>2.65351348556578159332275390625</LongitudeDegrees>
            </Position>
            <AltitudeMeters>955.5999755859375</AltitudeMeters>
            <DistanceMeters>NAN</DistanceMeters>
          </Trackpoint>
          <Trackpoint>
            <Time>2021-04-01T15:49:19.000Z</Time>
            <Position>
              <LatitudeDegrees>42.37275741063058376312255859375</LatitudeDegrees>
              <LongitudeDegrees>2.65350962989032268524169921875</LongitudeDegrees>
            </Position>
            <AltitudeMeters>955.79998779296875</AltitudeMeters>
            <DistanceMeters>NAN</DistanceMeters>
          </Trackpoint>
          <Trackpoint>
            <Time>2021-04-01T15:49:21.000Z</Time>
            <Position>
              <LatitudeDegrees>42.3727590031921863555908203125</LatitudeDegrees>
              <LongitudeDegrees>2.65350778587162494659423828125</LongitudeDegrees>
            </Position>
            <AltitudeMeters>955.5999755859375</AltitudeMeters>
            <DistanceMeters>NAN</DistanceMeters>
          </Trackpoint>
          <Trackpoint>
            <Time>2021-04-01T15:49:28.000Z</Time>
            <Position>
              <LatitudeDegrees>42.3727707378566265106201171875</LatitudeDegrees>
              <LongitudeDegrees>2.65348364599049091339111328125</LongitudeDegrees>
            </Position>
            <AltitudeMeters>955.5999755859375</AltitudeMeters>
            <DistanceMeters>NAN</DistanceMeters>
          </Trackpoint>
          <Trackpoint>
            <Time>2021-04-01T15:49:30.000Z</Time>
            <Position>
              <LatitudeDegrees>42.37276621162891387939453125</LatitudeDegrees>
              <LongitudeDegrees>2.65346939675509929656982421875</LongitudeDegrees>
            </Position>
            <AltitudeMeters>955.4000244140625</AltitudeMeters>
            <DistanceMeters>NAN</DistanceMeters>
          </Trackpoint>
          <Trackpoint>
            <Time>2021-04-01T15:49:32.000Z</Time>
            <Position>
              <LatitudeDegrees>42.372764535248279571533203125</LatitudeDegrees>
              <LongitudeDegrees>2.653463445603847503662109375</LongitudeDegrees>
            </Position>
            <AltitudeMeters>955.4000244140625</AltitudeMeters>
            <DistanceMeters>NAN</DistanceMeters>
          </Trackpoint>
          <Trackpoint>
            <Time>2021-04-01T15:49:42.000Z</Time>
            <Position>
              <LatitudeDegrees>42.3727683909237384796142578125</LatitudeDegrees>
              <LongitudeDegrees>2.653463445603847503662109375</LongitudeDegrees>
            </Position>
            <AltitudeMeters>955.4000244140625</AltitudeMeters>
            <DistanceMeters>NAN</DistanceMeters>
          </Trackpoint>
          <Trackpoint>
            <Time>2021-04-01T15:49:57.000Z</Time>
            <Position>
              <LatitudeDegrees>42.37276528961956501007080078125</LatitudeDegrees>
              <LongitudeDegrees>2.65343226492404937744140625</LongitudeDegrees>
            </Position>
            <AltitudeMeters>955.79998779296875</AltitudeMeters>
            <DistanceMeters>NAN</DistanceMeters>
          </Trackpoint>
          <Trackpoint>
            <Time>2021-04-01T15:50:11.000Z</Time>
            <Position>
              <LatitudeDegrees>42.37275506369769573211669921875</LatitudeDegrees>
              <LongitudeDegrees>2.65341348946094512939453125</LongitudeDegrees>
            </Position>
            <AltitudeMeters>956.4000244140625</AltitudeMeters>
            <DistanceMeters>NAN</DistanceMeters>
          </Trackpoint>
          <Trackpoint>
            <Time>2021-04-01T15:50:16.000Z</Time>
            <Position>
              <LatitudeDegrees>42.37270644865930080413818359375</LatitudeDegrees>
              <LongitudeDegrees>2.65341340564191341400146484375</LongitudeDegrees>
            </Position>
            <AltitudeMeters>956</AltitudeMeters>
            <DistanceMeters>NAN</DistanceMeters>
          </Trackpoint>
          <Trackpoint>
            <Time>2021-04-01T15:50:19.000Z</Time>
            <Position>
              <LatitudeDegrees>42.372672669589519500732421875</LatitudeDegrees>
              <LongitudeDegrees>2.6534113101661205291748046875</LongitudeDegrees>
            </Position>
            <AltitudeMeters>955.79998779296875</AltitudeMeters>
            <DistanceMeters>NAN</DistanceMeters>
          </Trackpoint>
          <Trackpoint>
            <Time>2021-04-01T15:50:21.000Z</Time>
            <Position>
              <LatitudeDegrees>42.372649870812892913818359375</LatitudeDegrees>
              <LongitudeDegrees>2.6534113101661205291748046875</LongitudeDegrees>
            </Position>
            <AltitudeMeters>955.79998779296875</AltitudeMeters>
            <DistanceMeters>NAN</DistanceMeters>
          </Trackpoint>
          <Trackpoint>
            <Time>2021-04-01T15:50:22.000Z</Time>
            <Position>
              <LatitudeDegrees>42.372628748416900634765625</LatitudeDegrees>
              <LongitudeDegrees>2.65341281890869140625</LongitudeDegrees>
            </Position>
            <AltitudeMeters>955.79998779296875</AltitudeMeters>
            <DistanceMeters>NAN</DistanceMeters>
          </Trackpoint>
          <Trackpoint>
            <Time>2021-04-01T15:50:26.000Z</Time>
            <Position>
              <LatitudeDegrees>42.372595556080341339111328125</LatitudeDegrees>
              <LongitudeDegrees>2.65342799015343189239501953125</LongitudeDegrees>
            </Position>
            <AltitudeMeters>956</AltitudeMeters>
            <DistanceMeters>NAN</DistanceMeters>
          </Trackpoint>
          <Trackpoint>
            <Time>2021-04-01T15:50:28.000Z</Time>
            <Position>
              <LatitudeDegrees>42.37257979810237884521484375</LatitudeDegrees>
              <LongitudeDegrees>2.65342631377279758453369140625</LongitudeDegrees>
            </Position>
            <AltitudeMeters>955.79998779296875</AltitudeMeters>
            <DistanceMeters>NAN</DistanceMeters>
          </Trackpoint>
          <Trackpoint>
            <Time>2021-04-01T15:50:34.000Z</Time>
            <Position>
              <LatitudeDegrees>42.37254803068935871124267578125</LatitudeDegrees>
              <LongitudeDegrees>2.65345213003456592559814453125</LongitudeDegrees>
            </Position>
            <AltitudeMeters>956.20001220703125</AltitudeMeters>
            <DistanceMeters>NAN</DistanceMeters>
          </Trackpoint>
          <Trackpoint>
            <Time>2021-04-01T15:50:35.000Z</Time>
            <Position>
              <LatitudeDegrees>42.37254090607166290283203125</LatitudeDegrees>
              <LongitudeDegrees>2.653455398976802825927734375</LongitudeDegrees>
            </Position>
            <AltitudeMeters>956.4000244140625</AltitudeMeters>
            <DistanceMeters>NAN</DistanceMeters>
          </Trackpoint>
          <Trackpoint>
            <Time>2021-04-01T15:50:37.000Z</Time>
            <Position>
              <LatitudeDegrees>42.3725281655788421630859375</LatitudeDegrees>
              <LongitudeDegrees>2.6534813828766345977783203125</LongitudeDegrees>
            </Position>
            <AltitudeMeters>956.79998779296875</AltitudeMeters>
            <DistanceMeters>NAN</DistanceMeters>
          </Trackpoint>
          <Trackpoint>
            <Time>2021-04-01T15:50:40.000Z</Time>
            <Position>
              <LatitudeDegrees>42.37250813283026218414306640625</LatitudeDegrees>
              <LongitudeDegrees>2.65348515473306179046630859375</LongitudeDegrees>
            </Position>
            <AltitudeMeters>957.20001220703125</AltitudeMeters>
            <DistanceMeters>NAN</DistanceMeters>
          </Trackpoint>
          <Trackpoint>
            <Time>2021-04-01T15:50:41.000Z</Time>
            <Position>
              <LatitudeDegrees>42.3725015111267566680908203125</LatitudeDegrees>
              <LongitudeDegrees>2.6534810476005077362060546875</LongitudeDegrees>
            </Position>
            <AltitudeMeters>957.20001220703125</AltitudeMeters>
            <DistanceMeters>NAN</DistanceMeters>
          </Trackpoint>
          <Trackpoint>
            <Time>2021-04-01T15:50:43.000Z</Time>
            <Position>
              <LatitudeDegrees>42.3724844120442867279052734375</LatitudeDegrees>
              <LongitudeDegrees>2.65346235595643520355224609375</LongitudeDegrees>
            </Position>
            <AltitudeMeters>957.20001220703125</AltitudeMeters>
            <DistanceMeters>NAN</DistanceMeters>
          </Trackpoint>
          <Trackpoint>
            <Time>2021-04-01T15:50:44.000Z</Time>
            <Position>
              <LatitudeDegrees>42.37247577868402004241943359375</LatitudeDegrees>
              <LongitudeDegrees>2.653454728424549102783203125</LongitudeDegrees>
            </Position>
            <AltitudeMeters>956.79998779296875</AltitudeMeters>
            <DistanceMeters>NAN</DistanceMeters>
          </Trackpoint>
          <Trackpoint>
            <Time>2021-04-01T15:50:45.000Z</Time>
            <Position>
              <LatitudeDegrees>42.37245532684028148651123046875</LatitudeDegrees>
              <LongitudeDegrees>2.65344659797847270965576171875</LongitudeDegrees>
            </Position>
            <AltitudeMeters>956.5999755859375</AltitudeMeters>
            <DistanceMeters>NAN</DistanceMeters>
          </Trackpoint>
          <Trackpoint>
            <Time>2021-04-01T15:50:46.000Z</Time>
            <Position>
              <LatitudeDegrees>42.372437976300716400146484375</LatitudeDegrees>
              <LongitudeDegrees>2.653455398976802825927734375</LongitudeDegrees>
            </Position>
            <AltitudeMeters>956.4000244140625</AltitudeMeters>
            <DistanceMeters>NAN</DistanceMeters>
          </Trackpoint>
          <Trackpoint>
            <Time>2021-04-01T15:50:47.000Z</Time>
            <Position>
              <LatitudeDegrees>42.37242867238819599151611328125</LatitudeDegrees>
              <LongitudeDegrees>2.6534629426896572113037109375</LongitudeDegrees>
            </Position>
            <AltitudeMeters>956.20001220703125</AltitudeMeters>
            <DistanceMeters>NAN</DistanceMeters>
          </Trackpoint>
          <Trackpoint>
            <Time>2021-04-01T15:50:52.000Z</Time>
            <Position>
              <LatitudeDegrees>42.37239363603293895721435546875</LatitudeDegrees>
              <LongitudeDegrees>2.653479874134063720703125</LongitudeDegrees>
            </Position>
            <AltitudeMeters>956</AltitudeMeters>
            <DistanceMeters>NAN</DistanceMeters>
          </Trackpoint>
          <Trackpoint>
            <Time>2021-04-01T15:50:54.000Z</Time>
            <Position>
              <LatitudeDegrees>42.37237486056983470916748046875</LatitudeDegrees>
              <LongitudeDegrees>2.65348582528531551361083984375</LongitudeDegrees>
            </Position>
            <AltitudeMeters>955.79998779296875</AltitudeMeters>
            <DistanceMeters>NAN</DistanceMeters>
          </Trackpoint>
          <Trackpoint>
            <Time>2021-04-01T15:51:01.000Z</Time>
            <Position>
              <LatitudeDegrees>42.37231769599020481109619140625</LatitudeDegrees>
              <LongitudeDegrees>2.65349102206528186798095703125</LongitudeDegrees>
            </Position>
            <AltitudeMeters>954.79998779296875</AltitudeMeters>
            <DistanceMeters>NAN</DistanceMeters>
          </Trackpoint>
          <Trackpoint>
            <Time>2021-04-01T15:51:02.000Z</Time>
            <Position>
              <LatitudeDegrees>42.3723117448389530181884765625</LatitudeDegrees>
              <LongitudeDegrees>2.65348398126661777496337890625</LongitudeDegrees>
            </Position>
            <AltitudeMeters>954.5999755859375</AltitudeMeters>
            <DistanceMeters>NAN</DistanceMeters>
          </Trackpoint>
          <Trackpoint>
            <Time>2021-04-01T15:51:05.000Z</Time>
            <Position>
              <LatitudeDegrees>42.3722785525023937225341796875</LatitudeDegrees>
              <LongitudeDegrees>2.653464116156101226806640625</LongitudeDegrees>
            </Position>
            <AltitudeMeters>954.20001220703125</AltitudeMeters>
            <DistanceMeters>NAN</DistanceMeters>
          </Trackpoint>
          <Trackpoint>
            <Time>2021-04-01T15:51:09.000Z</Time>
            <Position>
              <LatitudeDegrees>42.3722410015761852264404296875</LatitudeDegrees>
              <LongitudeDegrees>2.65346554107964038848876953125</LongitudeDegrees>
            </Position>
            <AltitudeMeters>954</AltitudeMeters>
            <DistanceMeters>NAN</DistanceMeters>
          </Trackpoint>
          <Trackpoint>
            <Time>2021-04-01T15:51:12.000Z</Time>
            <Position>
              <LatitudeDegrees>42.37220873124897480010986328125</LatitudeDegrees>
              <LongitudeDegrees>2.65345481224358081817626953125</LongitudeDegrees>
            </Position>
            <AltitudeMeters>954.4000244140625</AltitudeMeters>
            <DistanceMeters>NAN</DistanceMeters>
          </Trackpoint>
          <Trackpoint>
            <Time>2021-04-01T15:51:14.000Z</Time>
            <Position>
              <LatitudeDegrees>42.37219867296516895294189453125</LatitudeDegrees>
              <LongitudeDegrees>2.65345229767262935638427734375</LongitudeDegrees>
            </Position>
            <AltitudeMeters>954.5999755859375</AltitudeMeters>
            <DistanceMeters>NAN</DistanceMeters>
          </Trackpoint>
          <Trackpoint>
            <Time>2021-04-01T15:51:16.000Z</Time>
            <Position>
              <LatitudeDegrees>42.37218081951141357421875</LatitudeDegrees>
              <LongitudeDegrees>2.65344039537012577056884765625</LongitudeDegrees>
            </Position>
            <AltitudeMeters>954.5999755859375</AltitudeMeters>
            <DistanceMeters>NAN</DistanceMeters>
          </Trackpoint>
          <Trackpoint>
            <Time>2021-04-01T15:51:19.000Z</Time>
            <Position>
              <LatitudeDegrees>42.37214787863194942474365234375</LatitudeDegrees>
              <LongitudeDegrees>2.65341759659349918365478515625</LongitudeDegrees>
            </Position>
            <AltitudeMeters>954.5999755859375</AltitudeMeters>
            <DistanceMeters>NAN</DistanceMeters>
          </Trackpoint>
          <Trackpoint>
            <Time>2021-04-01T15:51:22.000Z</Time>
            <Position>
              <LatitudeDegrees>42.37213379703462123870849609375</LatitudeDegrees>
              <LongitudeDegrees>2.653393037617206573486328125</LongitudeDegrees>
            </Position>
            <AltitudeMeters>954.5999755859375</AltitudeMeters>
            <DistanceMeters>NAN</DistanceMeters>
          </Trackpoint>
          <Trackpoint>
            <Time>2021-04-01T15:51:23.000Z</Time>
            <Position>
              <LatitudeDegrees>42.3721290193498134613037109375</LatitudeDegrees>
              <LongitudeDegrees>2.6533851586282253265380859375</LongitudeDegrees>
            </Position>
            <AltitudeMeters>954.5999755859375</AltitudeMeters>
            <DistanceMeters>NAN</DistanceMeters>
          </Trackpoint>
          <Trackpoint>
            <Time>2021-04-01T15:51:27.000Z</Time>
            <Position>
              <LatitudeDegrees>42.3721082322299480438232421875</LatitudeDegrees>
              <LongitudeDegrees>2.65333897434175014495849609375</LongitudeDegrees>
            </Position>
            <AltitudeMeters>954.4000244140625</AltitudeMeters>
            <DistanceMeters>NAN</DistanceMeters>
          </Trackpoint>
          <Trackpoint>
            <Time>2021-04-01T15:51:28.000Z</Time>
            <Position>
              <LatitudeDegrees>42.3721045441925525665283203125</LatitudeDegrees>
              <LongitudeDegrees>2.6533187739551067352294921875</LongitudeDegrees>
            </Position>
            <AltitudeMeters>954.4000244140625</AltitudeMeters>
            <DistanceMeters>NAN</DistanceMeters>
          </Trackpoint>
          <Trackpoint>
            <Time>2021-04-01T15:51:30.000Z</Time>
            <Position>
              <LatitudeDegrees>42.37210395745933055877685546875</LatitudeDegrees>
              <LongitudeDegrees>2.653294466435909271240234375</LongitudeDegrees>
            </Position>
            <AltitudeMeters>954.4000244140625</AltitudeMeters>
            <DistanceMeters>NAN</DistanceMeters>
          </Trackpoint>
          <Trackpoint>
            <Time>2021-04-01T15:51:34.000Z</Time>
            <Position>
              <LatitudeDegrees>42.3720897920429706573486328125</LatitudeDegrees>
              <LongitudeDegrees>2.653248868882656097412109375</LongitudeDegrees>
            </Position>
            <AltitudeMeters>954</AltitudeMeters>
            <DistanceMeters>NAN</DistanceMeters>
          </Trackpoint>
          <Trackpoint>
            <Time>2021-04-01T15:51:37.000Z</Time>
            <Position>
              <LatitudeDegrees>42.37206523306667804718017578125</LatitudeDegrees>
              <LongitudeDegrees>2.65321810729801654815673828125</LongitudeDegrees>
            </Position>
            <AltitudeMeters>953.79998779296875</AltitudeMeters>
            <DistanceMeters>NAN</DistanceMeters>
          </Trackpoint>
          <Trackpoint>
            <Time>2021-04-01T15:51:43.000Z</Time>
            <Position>
              <LatitudeDegrees>42.372041679918766021728515625</LatitudeDegrees>
              <LongitudeDegrees>2.653149627149105072021484375</LongitudeDegrees>
            </Position>
            <AltitudeMeters>953.79998779296875</AltitudeMeters>
            <DistanceMeters>NAN</DistanceMeters>
          </Trackpoint>
          <Trackpoint>
            <Time>2021-04-01T15:51:44.000Z</Time>
            <Position>
              <LatitudeDegrees>42.37203572876751422882080078125</LatitudeDegrees>
              <LongitudeDegrees>2.6531380601227283477783203125</LongitudeDegrees>
            </Position>
            <AltitudeMeters>953.79998779296875</AltitudeMeters>
            <DistanceMeters>NAN</DistanceMeters>
          </Trackpoint>
          <Trackpoint>
            <Time>2021-04-01T15:51:46.000Z</Time>
            <Position>
              <LatitudeDegrees>42.37202147953212261199951171875</LatitudeDegrees>
              <LongitudeDegrees>2.6531192846596240997314453125</LongitudeDegrees>
            </Position>
            <AltitudeMeters>953.5999755859375</AltitudeMeters>
            <DistanceMeters>NAN</DistanceMeters>
          </Trackpoint>
          <Trackpoint>
            <Time>2021-04-01T15:51:53.000Z</Time>
            <Position>
              <LatitudeDegrees>42.3719654045999050140380859375</LatitudeDegrees>
              <LongitudeDegrees>2.65306404791772365570068359375</LongitudeDegrees>
            </Position>
            <AltitudeMeters>953.5999755859375</AltitudeMeters>
            <DistanceMeters>NAN</DistanceMeters>
          </Trackpoint>
          <Trackpoint>
            <Time>2021-04-01T15:51:55.000Z</Time>
            <Position>
              <LatitudeDegrees>42.37194134853780269622802734375</LatitudeDegrees>
              <LongitudeDegrees>2.6530431769788265228271484375</LongitudeDegrees>
            </Position>
            <AltitudeMeters>953.4000244140625</AltitudeMeters>
            <DistanceMeters>NAN</DistanceMeters>
          </Trackpoint>
          <Trackpoint>
            <Time>2021-04-01T15:51:58.000Z</Time>
            <Position>
              <LatitudeDegrees>42.37191754393279552459716796875</LatitudeDegrees>
              <LongitudeDegrees>2.653006128966808319091796875</LongitudeDegrees>
            </Position>
            <AltitudeMeters>953.4000244140625</AltitudeMeters>
            <DistanceMeters>NAN</DistanceMeters>
          </Trackpoint>
          <Trackpoint>
            <Time>2021-04-01T15:52:00.000Z</Time>
            <Position>
              <LatitudeDegrees>42.37188535742461681365966796875</LatitudeDegrees>
              <LongitudeDegrees>2.65296899713575839996337890625</LongitudeDegrees>
            </Position>
            <AltitudeMeters>953.20001220703125</AltitudeMeters>
            <DistanceMeters>NAN</DistanceMeters>
          </Trackpoint>
          <Trackpoint>
            <Time>2021-04-01T15:52:02.000Z</Time>
            <Position>
              <LatitudeDegrees>42.37186775542795658111572265625</LatitudeDegrees>
              <LongitudeDegrees>2.65294988639652729034423828125</LongitudeDegrees>
            </Position>
            <AltitudeMeters>953.20001220703125</AltitudeMeters>
            <DistanceMeters>NAN</DistanceMeters>
          </Trackpoint>
          <Trackpoint>
            <Time>2021-04-01T15:52:07.000Z</Time>
            <Position>
              <LatitudeDegrees>42.37183221615850925445556640625</LatitudeDegrees>
              <LongitudeDegrees>2.6528916321694850921630859375</LongitudeDegrees>
            </Position>
            <AltitudeMeters>953</AltitudeMeters>
            <DistanceMeters>NAN</DistanceMeters>
          </Trackpoint>
          <Trackpoint>
            <Time>2021-04-01T15:52:09.000Z</Time>
            <Position>
              <LatitudeDegrees>42.37182148732244968414306640625</LatitudeDegrees>
              <LongitudeDegrees>2.6528765447437763214111328125</LongitudeDegrees>
            </Position>
            <AltitudeMeters>953</AltitudeMeters>
            <DistanceMeters>NAN</DistanceMeters>
          </Trackpoint>
          <Trackpoint>
            <Time>2021-04-01T15:52:10.000Z</Time>
            <Position>
              <LatitudeDegrees>42.3718178831040859222412109375</LatitudeDegrees>
              <LongitudeDegrees>2.65287034213542938232421875</LongitudeDegrees>
            </Position>
            <AltitudeMeters>953</AltitudeMeters>
            <DistanceMeters>NAN</DistanceMeters>
          </Trackpoint>
          <Trackpoint>
            <Time>2021-04-01T15:52:14.000Z</Time>
            <Position>
              <LatitudeDegrees>42.37178645096719264984130859375</LatitudeDegrees>
              <LongitudeDegrees>2.652841508388519287109375</LongitudeDegrees>
            </Position>
            <AltitudeMeters>953</AltitudeMeters>
            <DistanceMeters>NAN</DistanceMeters>
          </Trackpoint>
          <Trackpoint>
            <Time>2021-04-01T15:52:19.000Z</Time>
            <Position>
              <LatitudeDegrees>42.3717568628489971160888671875</LatitudeDegrees>
              <LongitudeDegrees>2.65282072126865386962890625</LongitudeDegrees>
            </Position>
            <AltitudeMeters>953</AltitudeMeters>
            <DistanceMeters>NAN</DistanceMeters>
          </Trackpoint>
          <Trackpoint>
            <Time>2021-04-01T15:52:20.000Z</Time>
            <Position>
              <LatitudeDegrees>42.37174085341393947601318359375</LatitudeDegrees>
              <LongitudeDegrees>2.6528064720332622528076171875</LongitudeDegrees>
            </Position>
            <AltitudeMeters>953</AltitudeMeters>
            <DistanceMeters>NAN</DistanceMeters>
          </Trackpoint>
          <Trackpoint>
            <Time>2021-04-01T15:52:21.000Z</Time>
            <Position>
              <LatitudeDegrees>42.37173020839691162109375</LatitudeDegrees>
              <LongitudeDegrees>2.65279716812074184417724609375</LongitudeDegrees>
            </Position>
            <AltitudeMeters>953</AltitudeMeters>
            <DistanceMeters>NAN</DistanceMeters>
          </Trackpoint>
          <Trackpoint>
            <Time>2021-04-01T15:52:22.000Z</Time>
            <Position>
              <LatitudeDegrees>42.3717181384563446044921875</LatitudeDegrees>
              <LongitudeDegrees>2.6527903787791728973388671875</LongitudeDegrees>
            </Position>
            <AltitudeMeters>953</AltitudeMeters>
            <DistanceMeters>NAN</DistanceMeters>
          </Trackpoint>
          <Trackpoint>
            <Time>2021-04-01T15:52:23.000Z</Time>
            <Position>
              <LatitudeDegrees>42.37170715816318988800048828125</LatitudeDegrees>
              <LongitudeDegrees>2.65279029496014118194580078125</LongitudeDegrees>
            </Position>
            <AltitudeMeters>953</AltitudeMeters>
            <DistanceMeters>NAN</DistanceMeters>
          </Trackpoint>
          <Trackpoint>
            <Time>2021-04-01T15:52:25.000Z</Time>
            <Position>
              <LatitudeDegrees>42.37169190309941768646240234375</LatitudeDegrees>
              <LongitudeDegrees>2.6527853496372699737548828125</LongitudeDegrees>
            </Position>
            <AltitudeMeters>952.79998779296875</AltitudeMeters>
            <DistanceMeters>NAN</DistanceMeters>
          </Trackpoint>
          <Trackpoint>
            <Time>2021-04-01T15:52:28.000Z</Time>
            <Position>
              <LatitudeDegrees>42.37167899496853351593017578125</LatitudeDegrees>
              <LongitudeDegrees>2.65277168713510036468505859375</LongitudeDegrees>
            </Position>
            <AltitudeMeters>952.5999755859375</AltitudeMeters>
            <DistanceMeters>NAN</DistanceMeters>
          </Trackpoint>
          <Trackpoint>
            <Time>2021-04-01T15:52:29.000Z</Time>
            <Position>
              <LatitudeDegrees>42.3716660030186176300048828125</LatitudeDegrees>
              <LongitudeDegrees>2.65276866964995861053466796875</LongitudeDegrees>
            </Position>
            <AltitudeMeters>952.4000244140625</AltitudeMeters>
            <DistanceMeters>NAN</DistanceMeters>
          </Trackpoint>
          <Trackpoint>
            <Time>2021-04-01T15:52:33.000Z</Time>
            <Position>
              <LatitudeDegrees>42.37166910432279109954833984375</LatitudeDegrees>
              <LongitudeDegrees>2.6527194678783416748046875</LongitudeDegrees>
            </Position>
            <AltitudeMeters>951.79998779296875</AltitudeMeters>
            <DistanceMeters>NAN</DistanceMeters>
          </Trackpoint>
          <Trackpoint>
            <Time>2021-04-01T15:52:38.000Z</Time>
            <Position>
              <LatitudeDegrees>42.371668517589569091796875</LatitudeDegrees>
              <LongitudeDegrees>2.6526790671050548553466796875</LongitudeDegrees>
            </Position>
            <AltitudeMeters>951.79998779296875</AltitudeMeters>
            <DistanceMeters>NAN</DistanceMeters>
          </Trackpoint>
          <Trackpoint>
            <Time>2021-04-01T15:52:40.000Z</Time>
            <Position>
              <LatitudeDegrees>42.37165904603898525238037109375</LatitudeDegrees>
              <LongitudeDegrees>2.6526683382689952850341796875</LongitudeDegrees>
            </Position>
            <AltitudeMeters>951.79998779296875</AltitudeMeters>
            <DistanceMeters>NAN</DistanceMeters>
          </Trackpoint>
          <Trackpoint>
            <Time>2021-04-01T15:52:41.000Z</Time>
            <Position>
              <LatitudeDegrees>42.37165535800158977508544921875</LatitudeDegrees>
              <LongitudeDegrees>2.6526592858135700225830078125</LongitudeDegrees>
            </Position>
            <AltitudeMeters>951.79998779296875</AltitudeMeters>
            <DistanceMeters>NAN</DistanceMeters>
          </Trackpoint>
          <Trackpoint>
            <Time>2021-04-01T15:52:43.000Z</Time>
            <Position>
              <LatitudeDegrees>42.37165770493447780609130859375</LatitudeDegrees>
              <LongitudeDegrees>2.65264696441590785980224609375</LongitudeDegrees>
            </Position>
            <AltitudeMeters>951.79998779296875</AltitudeMeters>
            <DistanceMeters>NAN</DistanceMeters>
          </Trackpoint>
          <Trackpoint>
            <Time>2021-04-01T15:52:46.000Z</Time>
            <Position>
              <LatitudeDegrees>42.37163624726235866546630859375</LatitudeDegrees>
              <LongitudeDegrees>2.652656100690364837646484375</LongitudeDegrees>
            </Position>
            <AltitudeMeters>951.5999755859375</AltitudeMeters>
            <DistanceMeters>NAN</DistanceMeters>
          </Trackpoint>
          <Trackpoint>
            <Time>2021-04-01T15:52:48.000Z</Time>
            <Position>
              <LatitudeDegrees>42.3716207407414913177490234375</LatitudeDegrees>
              <LongitudeDegrees>2.6526586152613162994384765625</LongitudeDegrees>
            </Position>
            <AltitudeMeters>951.5999755859375</AltitudeMeters>
            <DistanceMeters>NAN</DistanceMeters>
          </Trackpoint>
          <Trackpoint>
            <Time>2021-04-01T15:52:50.000Z</Time>
            <Position>
              <LatitudeDegrees>42.3716193996369838714599609375</LatitudeDegrees>
              <LongitudeDegrees>2.6526690088212490081787109375</LongitudeDegrees>
            </Position>
            <AltitudeMeters>951.4000244140625</AltitudeMeters>
            <DistanceMeters>NAN</DistanceMeters>
          </Trackpoint>
          <Trackpoint>
            <Time>2021-04-01T15:52:54.000Z</Time>
            <Position>
              <LatitudeDegrees>42.371604479849338531494140625</LatitudeDegrees>
              <LongitudeDegrees>2.6526612974703311920166015625</LongitudeDegrees>
            </Position>
            <AltitudeMeters>950.79998779296875</AltitudeMeters>
            <DistanceMeters>NAN</DistanceMeters>
          </Trackpoint>
          <Trackpoint>
            <Time>2021-04-01T15:52:58.000Z</Time>
            <Position>
              <LatitudeDegrees>42.37157137133181095123291015625</LatitudeDegrees>
              <LongitudeDegrees>2.652704715728759765625</LongitudeDegrees>
            </Position>
            <AltitudeMeters>950.4000244140625</AltitudeMeters>
            <DistanceMeters>NAN</DistanceMeters>
          </Trackpoint>
          <Trackpoint>
            <Time>2021-04-01T15:53:00.000Z</Time>
            <Position>
              <LatitudeDegrees>42.371549494564533233642578125</LatitudeDegrees>
              <LongitudeDegrees>2.65273430384695529937744140625</LongitudeDegrees>
            </Position>
            <AltitudeMeters>950</AltitudeMeters>
            <DistanceMeters>NAN</DistanceMeters>
          </Trackpoint>
          <Trackpoint>
            <Time>2021-04-01T15:53:01.000Z</Time>
            <Position>
              <LatitudeDegrees>42.3715335689485073089599609375</LatitudeDegrees>
              <LongitudeDegrees>2.65273757278919219970703125</LongitudeDegrees>
            </Position>
            <AltitudeMeters>949.5999755859375</AltitudeMeters>
            <DistanceMeters>NAN</DistanceMeters>
          </Trackpoint>
          <Trackpoint>
            <Time>2021-04-01T15:53:02.000Z</Time>
            <Position>
              <LatitudeDegrees>42.3715238459408283233642578125</LatitudeDegrees>
              <LongitudeDegrees>2.65273933298885822296142578125</LongitudeDegrees>
            </Position>
            <AltitudeMeters>949.5999755859375</AltitudeMeters>
            <DistanceMeters>NAN</DistanceMeters>
          </Trackpoint>
          <Trackpoint>
            <Time>2021-04-01T15:53:03.000Z</Time>
            <Position>
              <LatitudeDegrees>42.37151638604700565338134765625</LatitudeDegrees>
              <LongitudeDegrees>2.6527380757033824920654296875</LongitudeDegrees>
            </Position>
            <AltitudeMeters>949.20001220703125</AltitudeMeters>
            <DistanceMeters>NAN</DistanceMeters>
          </Trackpoint>
          <Trackpoint>
            <Time>2021-04-01T15:53:04.000Z</Time>
            <Position>
              <LatitudeDegrees>42.371511943638324737548828125</LatitudeDegrees>
              <LongitudeDegrees>2.65273489058017730712890625</LongitudeDegrees>
            </Position>
            <AltitudeMeters>949</AltitudeMeters>
            <DistanceMeters>NAN</DistanceMeters>
          </Trackpoint>
          <Trackpoint>
            <Time>2021-04-01T15:53:07.000Z</Time>
            <Position>
              <LatitudeDegrees>42.371487803757190704345703125</LatitudeDegrees>
              <LongitudeDegrees>2.65273899771273136138916015625</LongitudeDegrees>
            </Position>
            <AltitudeMeters>948.20001220703125</AltitudeMeters>
            <DistanceMeters>NAN</DistanceMeters>
          </Trackpoint>
          <Trackpoint>
            <Time>2021-04-01T15:53:08.000Z</Time>
            <Position>
              <LatitudeDegrees>42.37148009240627288818359375</LatitudeDegrees>
              <LongitudeDegrees>2.65273891389369964599609375</LongitudeDegrees>
            </Position>
            <AltitudeMeters>947.79998779296875</AltitudeMeters>
            <DistanceMeters>NAN</DistanceMeters>
          </Trackpoint>
          <Trackpoint>
            <Time>2021-04-01T15:53:09.000Z</Time>
            <Position>
              <LatitudeDegrees>42.371472381055355072021484375</LatitudeDegrees>
              <LongitudeDegrees>2.65273581258952617645263671875</LongitudeDegrees>
            </Position>
            <AltitudeMeters>947.79998779296875</AltitudeMeters>
            <DistanceMeters>NAN</DistanceMeters>
          </Trackpoint>
          <Trackpoint>
            <Time>2021-04-01T15:53:11.000Z</Time>
            <Position>
              <LatitudeDegrees>42.371456287801265716552734375</LatitudeDegrees>
              <LongitudeDegrees>2.65274033881723880767822265625</LongitudeDegrees>
            </Position>
            <AltitudeMeters>947.4000244140625</AltitudeMeters>
            <DistanceMeters>NAN</DistanceMeters>
          </Trackpoint>
          <Trackpoint>
            <Time>2021-04-01T15:53:13.000Z</Time>
            <Position>
              <LatitudeDegrees>42.37144765444099903106689453125</LatitudeDegrees>
              <LongitudeDegrees>2.65274452976882457733154296875</LongitudeDegrees>
            </Position>
            <AltitudeMeters>947.20001220703125</AltitudeMeters>
            <DistanceMeters>NAN</DistanceMeters>
          </Trackpoint>
          <Trackpoint>
            <Time>2021-04-01T15:53:14.000Z</Time>
            <Position>
              <LatitudeDegrees>42.3714417032897472381591796875</LatitudeDegrees>
              <LongitudeDegrees>2.65274955891072750091552734375</LongitudeDegrees>
            </Position>
            <AltitudeMeters>947</AltitudeMeters>
            <DistanceMeters>NAN</DistanceMeters>
          </Trackpoint>
          <Trackpoint>
            <Time>2021-04-01T15:53:15.000Z</Time>
            <Position>
              <LatitudeDegrees>42.371433489024639129638671875</LatitudeDegrees>
              <LongitudeDegrees>2.65275408513844013214111328125</LongitudeDegrees>
            </Position>
            <AltitudeMeters>946.79998779296875</AltitudeMeters>
            <DistanceMeters>NAN</DistanceMeters>
          </Trackpoint>
          <Trackpoint>
            <Time>2021-04-01T15:53:16.000Z</Time>
            <Position>
              <LatitudeDegrees>42.37141949124634265899658203125</LatitudeDegrees>
              <LongitudeDegrees>2.65275576151907444000244140625</LongitudeDegrees>
            </Position>
            <AltitudeMeters>946.5999755859375</AltitudeMeters>
            <DistanceMeters>NAN</DistanceMeters>
          </Trackpoint>
          <Trackpoint>
            <Time>2021-04-01T15:53:18.000Z</Time>
            <Position>
              <LatitudeDegrees>42.37140591256320476531982421875</LatitudeDegrees>
              <LongitudeDegrees>2.652761377394199371337890625</LongitudeDegrees>
            </Position>
            <AltitudeMeters>945.5999755859375</AltitudeMeters>
            <DistanceMeters>NAN</DistanceMeters>
          </Trackpoint>
          <Trackpoint>
            <Time>2021-04-01T15:53:20.000Z</Time>
            <Position>
              <LatitudeDegrees>42.37139250151813030242919921875</LatitudeDegrees>
              <LongitudeDegrees>2.65276305377483367919921875</LongitudeDegrees>
            </Position>
            <AltitudeMeters>945.20001220703125</AltitudeMeters>
            <DistanceMeters>NAN</DistanceMeters>
          </Trackpoint>
          <Trackpoint>
            <Time>2021-04-01T15:53:22.000Z</Time>
            <Position>
              <LatitudeDegrees>42.37137624062597751617431640625</LatitudeDegrees>
              <LongitudeDegrees>2.6527722738683223724365234375</LongitudeDegrees>
            </Position>
            <AltitudeMeters>944.79998779296875</AltitudeMeters>
            <DistanceMeters>NAN</DistanceMeters>
          </Trackpoint>
          <Trackpoint>
            <Time>2021-04-01T15:53:23.000Z</Time>
            <Position>
              <LatitudeDegrees>42.3713666014373302459716796875</LatitudeDegrees>
              <LongitudeDegrees>2.65277219004929065704345703125</LongitudeDegrees>
            </Position>
            <AltitudeMeters>944.5999755859375</AltitudeMeters>
            <DistanceMeters>NAN</DistanceMeters>
          </Trackpoint>
          <Trackpoint>
            <Time>2021-04-01T15:53:24.000Z</Time>
            <Position>
              <LatitudeDegrees>42.37135897390544414520263671875</LatitudeDegrees>
              <LongitudeDegrees>2.6527648977935314178466796875</LongitudeDegrees>
            </Position>
            <AltitudeMeters>944.5999755859375</AltitudeMeters>
            <DistanceMeters>NAN</DistanceMeters>
          </Trackpoint>
          <Trackpoint>
            <Time>2021-04-01T15:53:27.000Z</Time>
            <Position>
              <LatitudeDegrees>42.37134489230811595916748046875</LatitudeDegrees>
              <LongitudeDegrees>2.6527400873601436614990234375</LongitudeDegrees>
            </Position>
            <AltitudeMeters>943.5999755859375</AltitudeMeters>
            <DistanceMeters>NAN</DistanceMeters>
          </Trackpoint>
          <Trackpoint>
            <Time>2021-04-01T15:53:28.000Z</Time>
            <Position>
              <LatitudeDegrees>42.37133064307272434234619140625</LatitudeDegrees>
              <LongitudeDegrees>2.6527340523898601531982421875</LongitudeDegrees>
            </Position>
            <AltitudeMeters>943.20001220703125</AltitudeMeters>
            <DistanceMeters>NAN</DistanceMeters>
          </Trackpoint>
          <Trackpoint>
            <Time>2021-04-01T15:53:32.000Z</Time>
            <Position>
              <LatitudeDegrees>42.37126375548541545867919921875</LatitudeDegrees>
              <LongitudeDegrees>2.652704715728759765625</LongitudeDegrees>
            </Position>
            <AltitudeMeters>942.4000244140625</AltitudeMeters>
            <DistanceMeters>NAN</DistanceMeters>
          </Trackpoint>
          <Trackpoint>
            <Time>2021-04-01T15:53:36.000Z</Time>
            <Position>
              <LatitudeDegrees>42.37120524980127811431884765625</LatitudeDegrees>
              <LongitudeDegrees>2.65266406349837779998779296875</LongitudeDegrees>
            </Position>
            <AltitudeMeters>941.20001220703125</AltitudeMeters>
            <DistanceMeters>NAN</DistanceMeters>
          </Trackpoint>
          <Trackpoint>
            <Time>2021-04-01T15:53:43.000Z</Time>
            <Position>
              <LatitudeDegrees>42.37115613184869289398193359375</LatitudeDegrees>
              <LongitudeDegrees>2.65261779539287090301513671875</LongitudeDegrees>
            </Position>
            <AltitudeMeters>940.20001220703125</AltitudeMeters>
            <DistanceMeters>NAN</DistanceMeters>
          </Trackpoint>
          <Trackpoint>
            <Time>2021-04-01T15:53:49.000Z</Time>
            <Position>
              <LatitudeDegrees>42.3711054213345050811767578125</LatitudeDegrees>
              <LongitudeDegrees>2.6526230759918689727783203125</LongitudeDegrees>
            </Position>
            <AltitudeMeters>939</AltitudeMeters>
            <DistanceMeters>NAN</DistanceMeters>
          </Trackpoint>
          <Trackpoint>
            <Time>2021-04-01T15:53:50.000Z</Time>
            <Position>
              <LatitudeDegrees>42.37110416404902935028076171875</LatitudeDegrees>
              <LongitudeDegrees>2.6526274345815181732177734375</LongitudeDegrees>
            </Position>
            <AltitudeMeters>938.79998779296875</AltitudeMeters>
            <DistanceMeters>NAN</DistanceMeters>
          </Trackpoint>
          <Trackpoint>
            <Time>2021-04-01T15:53:55.000Z</Time>
            <Position>
              <LatitudeDegrees>42.3710708878934383392333984375</LatitudeDegrees>
              <LongitudeDegrees>2.65262366272509098052978515625</LongitudeDegrees>
            </Position>
            <AltitudeMeters>938</AltitudeMeters>
            <DistanceMeters>NAN</DistanceMeters>
          </Trackpoint>
          <Trackpoint>
            <Time>2021-04-01T15:53:56.000Z</Time>
            <Position>
              <LatitudeDegrees>42.3710628412663936614990234375</LatitudeDegrees>
              <LongitudeDegrees>2.65261930413544178009033203125</LongitudeDegrees>
            </Position>
            <AltitudeMeters>937.5999755859375</AltitudeMeters>
            <DistanceMeters>NAN</DistanceMeters>
          </Trackpoint>
          <Trackpoint>
            <Time>2021-04-01T15:54:01.000Z</Time>
            <Position>
              <LatitudeDegrees>42.37101648934185504913330078125</LatitudeDegrees>
              <LongitudeDegrees>2.65259801410138607025146484375</LongitudeDegrees>
            </Position>
            <AltitudeMeters>936.79998779296875</AltitudeMeters>
            <DistanceMeters>NAN</DistanceMeters>
          </Trackpoint>
          <Trackpoint>
            <Time>2021-04-01T15:54:02.000Z</Time>
            <Position>
              <LatitudeDegrees>42.37100400030612945556640625</LatitudeDegrees>
              <LongitudeDegrees>2.65259583480656147003173828125</LongitudeDegrees>
            </Position>
            <AltitudeMeters>936.5999755859375</AltitudeMeters>
            <DistanceMeters>NAN</DistanceMeters>
          </Trackpoint>
          <Trackpoint>
            <Time>2021-04-01T15:54:03.000Z</Time>
            <Position>
              <LatitudeDegrees>42.37099586986005306243896484375</LatitudeDegrees>
              <LongitudeDegrees>2.65259684063494205474853515625</LongitudeDegrees>
            </Position>
            <AltitudeMeters>936.4000244140625</AltitudeMeters>
            <DistanceMeters>NAN</DistanceMeters>
          </Trackpoint>
          <Trackpoint>
            <Time>2021-04-01T15:54:09.000Z</Time>
            <Position>
              <LatitudeDegrees>42.3709501884877681732177734375</LatitudeDegrees>
              <LongitudeDegrees>2.65258326195180416107177734375</LongitudeDegrees>
            </Position>
            <AltitudeMeters>935.5999755859375</AltitudeMeters>
            <DistanceMeters>NAN</DistanceMeters>
          </Trackpoint>
          <Trackpoint>
            <Time>2021-04-01T15:54:10.000Z</Time>
            <Position>
              <LatitudeDegrees>42.37094373442232608795166015625</LatitudeDegrees>
              <LongitudeDegrees>2.6525835134088993072509765625</LongitudeDegrees>
            </Position>
            <AltitudeMeters>935.4000244140625</AltitudeMeters>
            <DistanceMeters>NAN</DistanceMeters>
          </Trackpoint>
          <Trackpoint>
            <Time>2021-04-01T15:54:12.000Z</Time>
            <Position>
              <LatitudeDegrees>42.37091724760830402374267578125</LatitudeDegrees>
              <LongitudeDegrees>2.6525895483791828155517578125</LongitudeDegrees>
            </Position>
            <AltitudeMeters>935.20001220703125</AltitudeMeters>
            <DistanceMeters>NAN</DistanceMeters>
          </Trackpoint>
          <Trackpoint>
            <Time>2021-04-01T15:54:13.000Z</Time>
            <Position>
              <LatitudeDegrees>42.370902411639690399169921875</LatitudeDegrees>
              <LongitudeDegrees>2.65259214676916599273681640625</LongitudeDegrees>
            </Position>
            <AltitudeMeters>935.20001220703125</AltitudeMeters>
            <DistanceMeters>NAN</DistanceMeters>
          </Trackpoint>
          <Trackpoint>
            <Time>2021-04-01T15:54:16.000Z</Time>
            <Position>
              <LatitudeDegrees>42.37087952904403209686279296875</LatitudeDegrees>
              <LongitudeDegrees>2.65259164385497570037841796875</LongitudeDegrees>
            </Position>
            <AltitudeMeters>934.5999755859375</AltitudeMeters>
            <DistanceMeters>NAN</DistanceMeters>
          </Trackpoint>
          <Trackpoint>
            <Time>2021-04-01T15:54:18.000Z</Time>
            <Position>
              <LatitudeDegrees>42.37084432505071163177490234375</LatitudeDegrees>
              <LongitudeDegrees>2.65260279178619384765625</LongitudeDegrees>
            </Position>
            <AltitudeMeters>934.5999755859375</AltitudeMeters>
            <DistanceMeters>NAN</DistanceMeters>
          </Trackpoint>
          <Trackpoint>
            <Time>2021-04-01T15:54:20.000Z</Time>
            <Position>
              <LatitudeDegrees>42.3708221130073070526123046875</LatitudeDegrees>
              <LongitudeDegrees>2.652597762644290924072265625</LongitudeDegrees>
            </Position>
            <AltitudeMeters>934.5999755859375</AltitudeMeters>
            <DistanceMeters>NAN</DistanceMeters>
          </Trackpoint>
          <Trackpoint>
            <Time>2021-04-01T15:54:21.000Z</Time>
            <Position>
              <LatitudeDegrees>42.37081096507608890533447265625</LatitudeDegrees>
              <LongitudeDegrees>2.6525934040546417236328125</LongitudeDegrees>
            </Position>
            <AltitudeMeters>934.4000244140625</AltitudeMeters>
            <DistanceMeters>NAN</DistanceMeters>
          </Trackpoint>
          <Trackpoint>
            <Time>2021-04-01T15:54:22.000Z</Time>
            <Position>
              <LatitudeDegrees>42.37079688347876071929931640625</LatitudeDegrees>
              <LongitudeDegrees>2.6525872014462947845458984375</LongitudeDegrees>
            </Position>
            <AltitudeMeters>934</AltitudeMeters>
            <DistanceMeters>NAN</DistanceMeters>
          </Trackpoint>
          <Trackpoint>
            <Time>2021-04-01T15:54:26.000Z</Time>
            <Position>
              <LatitudeDegrees>42.3707570694386959075927734375</LatitudeDegrees>
              <LongitudeDegrees>2.65254914760589599609375</LongitudeDegrees>
            </Position>
            <AltitudeMeters>933.4000244140625</AltitudeMeters>
            <DistanceMeters>NAN</DistanceMeters>
          </Trackpoint>
          <Trackpoint>
            <Time>2021-04-01T15:54:29.000Z</Time>
            <Position>
              <LatitudeDegrees>42.37072949297726154327392578125</LatitudeDegrees>
              <LongitudeDegrees>2.65252609737217426300048828125</LongitudeDegrees>
            </Position>
            <AltitudeMeters>933</AltitudeMeters>
            <DistanceMeters>NAN</DistanceMeters>
          </Trackpoint>
          <Trackpoint>
            <Time>2021-04-01T15:54:32.000Z</Time>
            <Position>
              <LatitudeDegrees>42.37069915048778057098388671875</LatitudeDegrees>
              <LongitudeDegrees>2.6525110937654972076416015625</LongitudeDegrees>
            </Position>
            <AltitudeMeters>932.5999755859375</AltitudeMeters>
            <DistanceMeters>NAN</DistanceMeters>
          </Trackpoint>
          <Trackpoint>
            <Time>2021-04-01T15:54:34.000Z</Time>
            <Position>
              <LatitudeDegrees>42.37068205140531063079833984375</LatitudeDegrees>
              <LongitudeDegrees>2.65250648371875286102294921875</LongitudeDegrees>
            </Position>
            <AltitudeMeters>932.4000244140625</AltitudeMeters>
            <DistanceMeters>NAN</DistanceMeters>
          </Trackpoint>
          <Trackpoint>
            <Time>2021-04-01T15:54:35.000Z</Time>
            <Position>
              <LatitudeDegrees>42.3706786148250102996826171875</LatitudeDegrees>
              <LongitudeDegrees>2.65251251868903636932373046875</LongitudeDegrees>
            </Position>
            <AltitudeMeters>932.4000244140625</AltitudeMeters>
            <DistanceMeters>NAN</DistanceMeters>
          </Trackpoint>
          <Trackpoint>
            <Time>2021-04-01T15:54:36.000Z</Time>
            <Position>
              <LatitudeDegrees>42.37067098729312419891357421875</LatitudeDegrees>
              <LongitudeDegrees>2.65251151286065578460693359375</LongitudeDegrees>
            </Position>
            <AltitudeMeters>932.20001220703125</AltitudeMeters>
            <DistanceMeters>NAN</DistanceMeters>
          </Trackpoint>
          <Trackpoint>
            <Time>2021-04-01T15:54:37.000Z</Time>
            <Position>
              <LatitudeDegrees>42.37066629342734813690185546875</LatitudeDegrees>
              <LongitudeDegrees>2.6525127701461315155029296875</LongitudeDegrees>
            </Position>
            <AltitudeMeters>932</AltitudeMeters>
            <DistanceMeters>NAN</DistanceMeters>
          </Trackpoint>
          <Trackpoint>
            <Time>2021-04-01T15:54:39.000Z</Time>
            <Position>
              <LatitudeDegrees>42.37064651213586330413818359375</LatitudeDegrees>
              <LongitudeDegrees>2.65249617397785186767578125</LongitudeDegrees>
            </Position>
            <AltitudeMeters>932</AltitudeMeters>
            <DistanceMeters>NAN</DistanceMeters>
          </Trackpoint>
          <Trackpoint>
            <Time>2021-04-01T15:54:40.000Z</Time>
            <Position>
              <LatitudeDegrees>42.370634190738201141357421875</LatitudeDegrees>
              <LongitudeDegrees>2.6524896360933780670166015625</LongitudeDegrees>
            </Position>
            <AltitudeMeters>932</AltitudeMeters>
            <DistanceMeters>NAN</DistanceMeters>
          </Trackpoint>
          <Trackpoint>
            <Time>2021-04-01T15:54:45.000Z</Time>
            <Position>
              <LatitudeDegrees>42.3705823905766010284423828125</LatitudeDegrees>
              <LongitudeDegrees>2.6524789072573184967041015625</LongitudeDegrees>
            </Position>
            <AltitudeMeters>931.4000244140625</AltitudeMeters>
            <DistanceMeters>NAN</DistanceMeters>
          </Trackpoint>
          <Trackpoint>
            <Time>2021-04-01T15:54:47.000Z</Time>
            <Position>
              <LatitudeDegrees>42.370567135512828826904296875</LatitudeDegrees>
              <LongitudeDegrees>2.65248519368469715118408203125</LongitudeDegrees>
            </Position>
            <AltitudeMeters>931</AltitudeMeters>
            <DistanceMeters>NAN</DistanceMeters>
          </Trackpoint>
          <Trackpoint>
            <Time>2021-04-01T15:54:51.000Z</Time>
            <Position>
              <LatitudeDegrees>42.3705431632697582244873046875</LatitudeDegrees>
              <LongitudeDegrees>2.65248536132276058197021484375</LongitudeDegrees>
            </Position>
            <AltitudeMeters>930.4000244140625</AltitudeMeters>
            <DistanceMeters>NAN</DistanceMeters>
          </Trackpoint>
          <Trackpoint>
            <Time>2021-04-01T15:54:52.000Z</Time>
            <Position>
              <LatitudeDegrees>42.37053754739463329315185546875</LatitudeDegrees>
              <LongitudeDegrees>2.6524832658469676971435546875</LongitudeDegrees>
            </Position>
            <AltitudeMeters>930.4000244140625</AltitudeMeters>
            <DistanceMeters>NAN</DistanceMeters>
          </Trackpoint>
          <Trackpoint>
            <Time>2021-04-01T15:54:53.000Z</Time>
            <Position>
              <LatitudeDegrees>42.3705220408737659454345703125</LatitudeDegrees>
              <LongitudeDegrees>2.65248049981892108917236328125</LongitudeDegrees>
            </Position>
            <AltitudeMeters>930.20001220703125</AltitudeMeters>
            <DistanceMeters>NAN</DistanceMeters>
          </Trackpoint>
          <Trackpoint>
            <Time>2021-04-01T15:54:55.000Z</Time>
            <Position>
              <LatitudeDegrees>42.3704922012984752655029296875</LatitudeDegrees>
              <LongitudeDegrees>2.65249022282660007476806640625</LongitudeDegrees>
            </Position>
            <AltitudeMeters>930</AltitudeMeters>
            <DistanceMeters>NAN</DistanceMeters>
          </Trackpoint>
          <Trackpoint>
            <Time>2021-04-01T15:54:57.000Z</Time>
            <Position>
              <LatitudeDegrees>42.37046563066542148590087890625</LatitudeDegrees>
              <LongitudeDegrees>2.6524768956005573272705078125</LongitudeDegrees>
            </Position>
            <AltitudeMeters>929.5999755859375</AltitudeMeters>
            <DistanceMeters>NAN</DistanceMeters>
          </Trackpoint>
          <Trackpoint>
            <Time>2021-04-01T15:55:00.000Z</Time>
            <Position>
              <LatitudeDegrees>42.37042355351150035858154296875</LatitudeDegrees>
              <LongitudeDegrees>2.652473710477352142333984375</LongitudeDegrees>
            </Position>
            <AltitudeMeters>929.20001220703125</AltitudeMeters>
            <DistanceMeters>NAN</DistanceMeters>
          </Trackpoint>
          <Trackpoint>
            <Time>2021-04-01T15:55:01.000Z</Time>
            <Position>
              <LatitudeDegrees>42.37041634507477283477783203125</LatitudeDegrees>
              <LongitudeDegrees>2.65247932635247707366943359375</LongitudeDegrees>
            </Position>
            <AltitudeMeters>929</AltitudeMeters>
            <DistanceMeters>NAN</DistanceMeters>
          </Trackpoint>
          <Trackpoint>
            <Time>2021-04-01T15:55:02.000Z</Time>
            <Position>
              <LatitudeDegrees>42.370408214628696441650390625</LatitudeDegrees>
              <LongitudeDegrees>2.65248200856149196624755859375</LongitudeDegrees>
            </Position>
            <AltitudeMeters>929</AltitudeMeters>
            <DistanceMeters>NAN</DistanceMeters>
          </Trackpoint>
          <Trackpoint>
            <Time>2021-04-01T15:55:06.000Z</Time>
            <Position>
              <LatitudeDegrees>42.37039002589881420135498046875</LatitudeDegrees>
              <LongitudeDegrees>2.65249122865498065948486328125</LongitudeDegrees>
            </Position>
            <AltitudeMeters>928.4000244140625</AltitudeMeters>
            <DistanceMeters>NAN</DistanceMeters>
          </Trackpoint>
          <Trackpoint>
            <Time>2021-04-01T15:55:07.000Z</Time>
            <Position>
              <LatitudeDegrees>42.37038767896592617034912109375</LatitudeDegrees>
              <LongitudeDegrees>2.65249215066432952880859375</LongitudeDegrees>
            </Position>
            <AltitudeMeters>928.20001220703125</AltitudeMeters>
            <DistanceMeters>NAN</DistanceMeters>
          </Trackpoint>
          <Trackpoint>
            <Time>2021-04-01T15:55:08.000Z</Time>
            <Position>
              <LatitudeDegrees>42.37038952298462390899658203125</LatitudeDegrees>
              <LongitudeDegrees>2.652493156492710113525390625</LongitudeDegrees>
            </Position>
            <AltitudeMeters>928</AltitudeMeters>
            <DistanceMeters>NAN</DistanceMeters>
          </Trackpoint>
          <Trackpoint>
            <Time>2021-04-01T15:55:09.000Z</Time>
            <Position>
              <LatitudeDegrees>42.37038851715624332427978515625</LatitudeDegrees>
              <LongitudeDegrees>2.65249290503561496734619140625</LongitudeDegrees>
            </Position>
            <AltitudeMeters>928</AltitudeMeters>
            <DistanceMeters>NAN</DistanceMeters>
          </Trackpoint>
          <Trackpoint>
            <Time>2021-04-01T15:55:11.000Z</Time>
            <Position>
              <LatitudeDegrees>42.3703842423856258392333984375</LatitudeDegrees>
              <LongitudeDegrees>2.6524893008172512054443359375</LongitudeDegrees>
            </Position>
            <AltitudeMeters>927.79998779296875</AltitudeMeters>
            <DistanceMeters>NAN</DistanceMeters>
          </Trackpoint>
          <Trackpoint>
            <Time>2021-04-01T15:55:14.000Z</Time>
            <Position>
              <LatitudeDegrees>42.3703743517398834228515625</LatitudeDegrees>
              <LongitudeDegrees>2.6524866186082363128662109375</LongitudeDegrees>
            </Position>
            <AltitudeMeters>927.79998779296875</AltitudeMeters>
            <DistanceMeters>NAN</DistanceMeters>
          </Trackpoint>
          <Trackpoint>
            <Time>2021-04-01T15:55:20.000Z</Time>
            <Position>
              <LatitudeDegrees>42.3703721724450588226318359375</LatitudeDegrees>
              <LongitudeDegrees>2.65247614122927188873291015625</LongitudeDegrees>
            </Position>
            <AltitudeMeters>927.79998779296875</AltitudeMeters>
            <DistanceMeters>NAN</DistanceMeters>
          </Trackpoint>
          <Trackpoint>
            <Time>2021-04-01T15:55:23.000Z</Time>
            <Position>
              <LatitudeDegrees>42.3703721724450588226318359375</LatitudeDegrees>
              <LongitudeDegrees>2.65247614122927188873291015625</LongitudeDegrees>
            </Position>
            <AltitudeMeters>928</AltitudeMeters>
            <DistanceMeters>NAN</DistanceMeters>
          </Trackpoint>
          <Trackpoint>
            <Time>2021-04-01T15:55:27.000Z</Time>
            <Position>
              <LatitudeDegrees>42.37037309445440769195556640625</LatitudeDegrees>
              <LongitudeDegrees>2.65247614122927188873291015625</LongitudeDegrees>
            </Position>
            <AltitudeMeters>928</AltitudeMeters>
            <DistanceMeters>NAN</DistanceMeters>
          </Trackpoint>
          <Trackpoint>
            <Time>2021-04-01T15:55:35.000Z</Time>
            <Position>
              <LatitudeDegrees>42.3703765310347080230712890625</LatitudeDegrees>
              <LongitudeDegrees>2.65246524475514888763427734375</LongitudeDegrees>
            </Position>
            <AltitudeMeters>928</AltitudeMeters>
            <DistanceMeters>NAN</DistanceMeters>
          </Trackpoint>
          <Trackpoint>
            <Time>2021-04-01T15:55:43.000Z</Time>
            <Position>
              <LatitudeDegrees>42.3703580908477306365966796875</LatitudeDegrees>
              <LongitudeDegrees>2.65247203409671783447265625</LongitudeDegrees>
            </Position>
            <AltitudeMeters>926.5999755859375</AltitudeMeters>
            <DistanceMeters>NAN</DistanceMeters>
          </Trackpoint>
          <Trackpoint>
            <Time>2021-04-01T15:55:47.000Z</Time>
            <Position>
              <LatitudeDegrees>42.37032012082636356353759765625</LatitudeDegrees>
              <LongitudeDegrees>2.65251134522259235382080078125</LongitudeDegrees>
            </Position>
            <AltitudeMeters>926</AltitudeMeters>
            <DistanceMeters>NAN</DistanceMeters>
          </Trackpoint>
          <Trackpoint>
            <Time>2021-04-01T15:55:50.000Z</Time>
            <Position>
              <LatitudeDegrees>42.3702923767268657684326171875</LatitudeDegrees>
              <LongitudeDegrees>2.65252509154379367828369140625</LongitudeDegrees>
            </Position>
            <AltitudeMeters>925.4000244140625</AltitudeMeters>
            <DistanceMeters>NAN</DistanceMeters>
          </Trackpoint>
          <Trackpoint>
            <Time>2021-04-01T15:55:55.000Z</Time>
            <Position>
              <LatitudeDegrees>42.37024552188813686370849609375</LatitudeDegrees>
              <LongitudeDegrees>2.6525476388633251190185546875</LongitudeDegrees>
            </Position>
            <AltitudeMeters>924.4000244140625</AltitudeMeters>
            <DistanceMeters>NAN</DistanceMeters>
          </Trackpoint>
          <Trackpoint>
            <Time>2021-04-01T15:55:56.000Z</Time>
            <Position>
              <LatitudeDegrees>42.37023554742336273193359375</LatitudeDegrees>
              <LongitudeDegrees>2.6525499857962131500244140625</LongitudeDegrees>
            </Position>
            <AltitudeMeters>924.20001220703125</AltitudeMeters>
            <DistanceMeters>NAN</DistanceMeters>
          </Trackpoint>
          <Trackpoint>
            <Time>2021-04-01T15:55:59.000Z</Time>
            <Position>
              <LatitudeDegrees>42.3702058754861354827880859375</LatitudeDegrees>
              <LongitudeDegrees>2.65254839323461055755615234375</LongitudeDegrees>
            </Position>
            <AltitudeMeters>923.5999755859375</AltitudeMeters>
            <DistanceMeters>NAN</DistanceMeters>
          </Trackpoint>
          <Trackpoint>
            <Time>2021-04-01T15:56:01.000Z</Time>
            <Position>
              <LatitudeDegrees>42.3701944760978221893310546875</LatitudeDegrees>
              <LongitudeDegrees>2.6525640673935413360595703125</LongitudeDegrees>
            </Position>
            <AltitudeMeters>923.4000244140625</AltitudeMeters>
            <DistanceMeters>NAN</DistanceMeters>
          </Trackpoint>
          <Trackpoint>
            <Time>2021-04-01T15:56:03.000Z</Time>
            <Position>
              <LatitudeDegrees>42.37018483690917491912841796875</LatitudeDegrees>
              <LongitudeDegrees>2.65256783924996852874755859375</LongitudeDegrees>
            </Position>
            <AltitudeMeters>923.20001220703125</AltitudeMeters>
            <DistanceMeters>NAN</DistanceMeters>
          </Trackpoint>
          <Trackpoint>
            <Time>2021-04-01T15:56:05.000Z</Time>
            <Position>
              <LatitudeDegrees>42.3701731860637664794921875</LatitudeDegrees>
              <LongitudeDegrees>2.65256700105965137481689453125</LongitudeDegrees>
            </Position>
            <AltitudeMeters>922.79998779296875</AltitudeMeters>
            <DistanceMeters>NAN</DistanceMeters>
          </Trackpoint>
          <Trackpoint>
            <Time>2021-04-01T15:56:06.000Z</Time>
            <Position>
              <LatitudeDegrees>42.3701646365225315093994140625</LatitudeDegrees>
              <LongitudeDegrees>2.6525652408599853515625</LongitudeDegrees>
            </Position>
            <AltitudeMeters>922.5999755859375</AltitudeMeters>
            <DistanceMeters>NAN</DistanceMeters>
          </Trackpoint>
          <Trackpoint>
            <Time>2021-04-01T15:56:09.000Z</Time>
            <Position>
              <LatitudeDegrees>42.37014108337461948394775390625</LatitudeDegrees>
              <LongitudeDegrees>2.65257035382091999053955078125</LongitudeDegrees>
            </Position>
            <AltitudeMeters>922.20001220703125</AltitudeMeters>
            <DistanceMeters>NAN</DistanceMeters>
          </Trackpoint>
          <Trackpoint>
            <Time>2021-04-01T15:56:10.000Z</Time>
            <Position>
              <LatitudeDegrees>42.37013370729982852935791015625</LatitudeDegrees>
              <LongitudeDegrees>2.6525714434683322906494140625</LongitudeDegrees>
            </Position>
            <AltitudeMeters>922</AltitudeMeters>
            <DistanceMeters>NAN</DistanceMeters>
          </Trackpoint>
          <Trackpoint>
            <Time>2021-04-01T15:56:13.000Z</Time>
            <Position>
              <LatitudeDegrees>42.37011618912220001220703125</LatitudeDegrees>
              <LongitudeDegrees>2.65257739461958408355712890625</LongitudeDegrees>
            </Position>
            <AltitudeMeters>921.5999755859375</AltitudeMeters>
            <DistanceMeters>NAN</DistanceMeters>
          </Trackpoint>
          <Trackpoint>
            <Time>2021-04-01T15:56:15.000Z</Time>
            <Position>
              <LatitudeDegrees>42.37010504119098186492919921875</LatitudeDegrees>
              <LongitudeDegrees>2.652594745159149169921875</LongitudeDegrees>
            </Position>
            <AltitudeMeters>921</AltitudeMeters>
            <DistanceMeters>NAN</DistanceMeters>
          </Trackpoint>
          <Trackpoint>
            <Time>2021-04-01T15:56:17.000Z</Time>
            <Position>
              <LatitudeDegrees>42.37010118551552295684814453125</LatitudeDegrees>
              <LongitudeDegrees>2.65260656364262104034423828125</LongitudeDegrees>
            </Position>
            <AltitudeMeters>920.79998779296875</AltitudeMeters>
            <DistanceMeters>NAN</DistanceMeters>
          </Trackpoint>
          <Trackpoint>
            <Time>2021-04-01T15:56:19.000Z</Time>
            <Position>
              <LatitudeDegrees>42.3701007664203643798828125</LatitudeDegrees>
              <LongitudeDegrees>2.652628608047962188720703125</LongitudeDegrees>
            </Position>
            <AltitudeMeters>920.79998779296875</AltitudeMeters>
            <DistanceMeters>NAN</DistanceMeters>
          </Trackpoint>
          <Trackpoint>
            <Time>2021-04-01T15:56:23.000Z</Time>
            <Position>
              <LatitudeDegrees>42.37008911557495594024658203125</LatitudeDegrees>
              <LongitudeDegrees>2.6526524126529693603515625</LongitudeDegrees>
            </Position>
            <AltitudeMeters>920</AltitudeMeters>
            <DistanceMeters>NAN</DistanceMeters>
          </Trackpoint>
          <Trackpoint>
            <Time>2021-04-01T15:56:24.000Z</Time>
            <Position>
              <LatitudeDegrees>42.3700841702520847320556640625</LatitudeDegrees>
              <LongitudeDegrees>2.65265643596649169921875</LongitudeDegrees>
            </Position>
            <AltitudeMeters>920</AltitudeMeters>
            <DistanceMeters>NAN</DistanceMeters>
          </Trackpoint>
          <Trackpoint>
            <Time>2021-04-01T15:56:30.000Z</Time>
            <Position>
              <LatitudeDegrees>42.3700476251542568206787109375</LatitudeDegrees>
              <LongitudeDegrees>2.65262735076248645782470703125</LongitudeDegrees>
            </Position>
            <AltitudeMeters>919</AltitudeMeters>
            <DistanceMeters>NAN</DistanceMeters>
          </Trackpoint>
          <Trackpoint>
            <Time>2021-04-01T15:56:38.000Z</Time>
            <Position>
              <LatitudeDegrees>42.37001233734190464019775390625</LatitudeDegrees>
              <LongitudeDegrees>2.65264193527400493621826171875</LongitudeDegrees>
            </Position>
            <AltitudeMeters>918.4000244140625</AltitudeMeters>
            <DistanceMeters>NAN</DistanceMeters>
          </Trackpoint>
          <Trackpoint>
            <Time>2021-04-01T15:56:39.000Z</Time>
            <Position>
              <LatitudeDegrees>42.37000579945743083953857421875</LatitudeDegrees>
              <LongitudeDegrees>2.652640007436275482177734375</LongitudeDegrees>
            </Position>
            <AltitudeMeters>918.4000244140625</AltitudeMeters>
            <DistanceMeters>NAN</DistanceMeters>
          </Trackpoint>
          <Trackpoint>
            <Time>2021-04-01T15:56:44.000Z</Time>
            <Position>
              <LatitudeDegrees>42.36997269093990325927734375</LatitudeDegrees>
              <LongitudeDegrees>2.652602456510066986083984375</LongitudeDegrees>
            </Position>
            <AltitudeMeters>918.20001220703125</AltitudeMeters>
            <DistanceMeters>NAN</DistanceMeters>
          </Trackpoint>
          <Trackpoint>
            <Time>2021-04-01T15:56:47.000Z</Time>
            <Position>
              <LatitudeDegrees>42.36995282582938671112060546875</LatitudeDegrees>
              <LongitudeDegrees>2.65259030275046825408935546875</LongitudeDegrees>
            </Position>
            <AltitudeMeters>918.20001220703125</AltitudeMeters>
            <DistanceMeters>NAN</DistanceMeters>
          </Trackpoint>
          <Trackpoint>
            <Time>2021-04-01T15:56:48.000Z</Time>
            <Position>
              <LatitudeDegrees>42.36995282582938671112060546875</LatitudeDegrees>
              <LongitudeDegrees>2.65259030275046825408935546875</LongitudeDegrees>
            </Position>
            <AltitudeMeters>918</AltitudeMeters>
            <DistanceMeters>NAN</DistanceMeters>
          </Trackpoint>
          <Trackpoint>
            <Time>2021-04-01T15:56:49.000Z</Time>
            <Position>
              <LatitudeDegrees>42.369946539402008056640625</LatitudeDegrees>
              <LongitudeDegrees>2.65258393250405788421630859375</LongitudeDegrees>
            </Position>
            <AltitudeMeters>918</AltitudeMeters>
            <DistanceMeters>NAN</DistanceMeters>
          </Trackpoint>
          <Trackpoint>
            <Time>2021-04-01T15:56:55.000Z</Time>
            <Position>
              <LatitudeDegrees>42.369920052587985992431640625</LatitudeDegrees>
              <LongitudeDegrees>2.6525271870195865631103515625</LongitudeDegrees>
            </Position>
            <AltitudeMeters>917</AltitudeMeters>
            <DistanceMeters>NAN</DistanceMeters>
          </Trackpoint>
          <Trackpoint>
            <Time>2021-04-01T15:57:00.000Z</Time>
            <Position>
              <LatitudeDegrees>42.369901947677135467529296875</LatitudeDegrees>
              <LongitudeDegrees>2.6524809189140796661376953125</LongitudeDegrees>
            </Position>
            <AltitudeMeters>915.79998779296875</AltitudeMeters>
            <DistanceMeters>NAN</DistanceMeters>
          </Trackpoint>
          <Trackpoint>
            <Time>2021-04-01T15:57:02.000Z</Time>
            <Position>
              <LatitudeDegrees>42.3698927275836467742919921875</LatitudeDegrees>
              <LongitudeDegrees>2.652471363544464111328125</LongitudeDegrees>
            </Position>
            <AltitudeMeters>915.4000244140625</AltitudeMeters>
            <DistanceMeters>NAN</DistanceMeters>
          </Trackpoint>
          <Trackpoint>
            <Time>2021-04-01T15:57:05.000Z</Time>
            <Position>
              <LatitudeDegrees>42.36987738870084285736083984375</LatitudeDegrees>
              <LongitudeDegrees>2.652462981641292572021484375</LongitudeDegrees>
            </Position>
            <AltitudeMeters>914.79998779296875</AltitudeMeters>
            <DistanceMeters>NAN</DistanceMeters>
          </Trackpoint>
          <Trackpoint>
            <Time>2021-04-01T15:57:09.000Z</Time>
            <Position>
              <LatitudeDegrees>42.3698622174561023712158203125</LatitudeDegrees>
              <LongitudeDegrees>2.65244613401591777801513671875</LongitudeDegrees>
            </Position>
            <AltitudeMeters>914.4000244140625</AltitudeMeters>
            <DistanceMeters>NAN</DistanceMeters>
          </Trackpoint>
          <Trackpoint>
            <Time>2021-04-01T15:57:11.000Z</Time>
            <Position>
              <LatitudeDegrees>42.36985425464808940887451171875</LatitudeDegrees>
              <LongitudeDegrees>2.65244026668369770050048828125</LongitudeDegrees>
            </Position>
            <AltitudeMeters>914</AltitudeMeters>
            <DistanceMeters>NAN</DistanceMeters>
          </Trackpoint>
          <Trackpoint>
            <Time>2021-04-01T15:57:13.000Z</Time>
            <Position>
              <LatitudeDegrees>42.3698454536497592926025390625</LatitudeDegrees>
              <LongitudeDegrees>2.65243045985698699951171875</LongitudeDegrees>
            </Position>
            <AltitudeMeters>913.5999755859375</AltitudeMeters>
            <DistanceMeters>NAN</DistanceMeters>
          </Trackpoint>
          <Trackpoint>
            <Time>2021-04-01T15:57:18.000Z</Time>
            <Position>
              <LatitudeDegrees>42.3698233254253864288330078125</LatitudeDegrees>
              <LongitudeDegrees>2.65241059474647045135498046875</LongitudeDegrees>
            </Position>
            <AltitudeMeters>912.4000244140625</AltitudeMeters>
            <DistanceMeters>NAN</DistanceMeters>
          </Trackpoint>
          <Trackpoint>
            <Time>2021-04-01T15:57:24.000Z</Time>
            <Position>
              <LatitudeDegrees>42.36980848945677280426025390625</LatitudeDegrees>
              <LongitudeDegrees>2.65238645486533641815185546875</LongitudeDegrees>
            </Position>
            <AltitudeMeters>911.79998779296875</AltitudeMeters>
            <DistanceMeters>NAN</DistanceMeters>
          </Trackpoint>
          <Trackpoint>
            <Time>2021-04-01T15:57:27.000Z</Time>
            <Position>
              <LatitudeDegrees>42.3697938211262226104736328125</LatitudeDegrees>
              <LongitudeDegrees>2.65239165164530277252197265625</LongitudeDegrees>
            </Position>
            <AltitudeMeters>911.4000244140625</AltitudeMeters>
            <DistanceMeters>NAN</DistanceMeters>
          </Trackpoint>
          <Trackpoint>
            <Time>2021-04-01T15:57:28.000Z</Time>
            <Position>
              <LatitudeDegrees>42.3697938211262226104736328125</LatitudeDegrees>
              <LongitudeDegrees>2.65239165164530277252197265625</LongitudeDegrees>
            </Position>
            <AltitudeMeters>911.4000244140625</AltitudeMeters>
            <DistanceMeters>NAN</DistanceMeters>
          </Trackpoint>
          <Trackpoint>
            <Time>2021-04-01T15:57:30.000Z</Time>
            <Position>
              <LatitudeDegrees>42.36978116445243358612060546875</LatitudeDegrees>
              <LongitudeDegrees>2.65240539796650409698486328125</LongitudeDegrees>
            </Position>
            <AltitudeMeters>911.20001220703125</AltitudeMeters>
            <DistanceMeters>NAN</DistanceMeters>
          </Trackpoint>
          <Trackpoint>
            <Time>2021-04-01T15:57:33.000Z</Time>
            <Position>
              <LatitudeDegrees>42.36976347863674163818359375</LatitudeDegrees>
              <LongitudeDegrees>2.65241662971675395965576171875</LongitudeDegrees>
            </Position>
            <AltitudeMeters>910.20001220703125</AltitudeMeters>
            <DistanceMeters>NAN</DistanceMeters>
          </Trackpoint>
          <Trackpoint>
            <Time>2021-04-01T15:57:37.000Z</Time>
            <Position>
              <LatitudeDegrees>42.36975987441837787628173828125</LatitudeDegrees>
              <LongitudeDegrees>2.65241964720189571380615234375</LongitudeDegrees>
            </Position>
            <AltitudeMeters>909.20001220703125</AltitudeMeters>
            <DistanceMeters>NAN</DistanceMeters>
          </Trackpoint>
          <Trackpoint>
            <Time>2021-04-01T15:57:40.000Z</Time>
            <Position>
              <LatitudeDegrees>42.36975283361971378326416015625</LatitudeDegrees>
              <LongitudeDegrees>2.6524272747337818145751953125</LongitudeDegrees>
            </Position>
            <AltitudeMeters>908.4000244140625</AltitudeMeters>
            <DistanceMeters>NAN</DistanceMeters>
          </Trackpoint>
          <Trackpoint>
            <Time>2021-04-01T15:57:42.000Z</Time>
            <Position>
              <LatitudeDegrees>42.36974562518298625946044921875</LatitudeDegrees>
              <LongitudeDegrees>2.65243624337017536163330078125</LongitudeDegrees>
            </Position>
            <AltitudeMeters>907.79998779296875</AltitudeMeters>
            <DistanceMeters>NAN</DistanceMeters>
          </Trackpoint>
          <Trackpoint>
            <Time>2021-04-01T15:57:43.000Z</Time>
            <Position>
              <LatitudeDegrees>42.36973959021270275115966796875</LatitudeDegrees>
              <LongitudeDegrees>2.65244747512042522430419921875</LongitudeDegrees>
            </Position>
            <AltitudeMeters>907.5999755859375</AltitudeMeters>
            <DistanceMeters>NAN</DistanceMeters>
          </Trackpoint>
          <Trackpoint>
            <Time>2021-04-01T15:57:47.000Z</Time>
            <Position>
              <LatitudeDegrees>42.36972366459667682647705078125</LatitudeDegrees>
              <LongitudeDegrees>2.6524819247424602508544921875</LongitudeDegrees>
            </Position>
            <AltitudeMeters>906.79998779296875</AltitudeMeters>
            <DistanceMeters>NAN</DistanceMeters>
          </Trackpoint>
          <Trackpoint>
            <Time>2021-04-01T15:57:49.000Z</Time>
            <Position>
              <LatitudeDegrees>42.36972115002572536468505859375</LatitudeDegrees>
              <LongitudeDegrees>2.6524869538843631744384765625</LongitudeDegrees>
            </Position>
            <AltitudeMeters>906.5999755859375</AltitudeMeters>
            <DistanceMeters>NAN</DistanceMeters>
          </Trackpoint>
          <Trackpoint>
            <Time>2021-04-01T15:57:52.000Z</Time>
            <Position>
              <LatitudeDegrees>42.36971595324575901031494140625</LatitudeDegrees>
              <LongitudeDegrees>2.65250162221491336822509765625</LongitudeDegrees>
            </Position>
            <AltitudeMeters>906.20001220703125</AltitudeMeters>
            <DistanceMeters>NAN</DistanceMeters>
          </Trackpoint>
          <Trackpoint>
            <Time>2021-04-01T15:57:55.000Z</Time>
            <Position>
              <LatitudeDegrees>42.36970958299934864044189453125</LatitudeDegrees>
              <LongitudeDegrees>2.652518637478351593017578125</LongitudeDegrees>
            </Position>
            <AltitudeMeters>905.79998779296875</AltitudeMeters>
            <DistanceMeters>NAN</DistanceMeters>
          </Trackpoint>
          <Trackpoint>
            <Time>2021-04-01T15:57:58.000Z</Time>
            <Position>
              <LatitudeDegrees>42.3696992732584476470947265625</LatitudeDegrees>
              <LongitudeDegrees>2.65253079123795032501220703125</LongitudeDegrees>
            </Position>
            <AltitudeMeters>904.79998779296875</AltitudeMeters>
            <DistanceMeters>NAN</DistanceMeters>
          </Trackpoint>
          <Trackpoint>
            <Time>2021-04-01T15:57:59.000Z</Time>
            <Position>
              <LatitudeDegrees>42.369696088135242462158203125</LatitudeDegrees>
              <LongitudeDegrees>2.6525365747511386871337890625</LongitudeDegrees>
            </Position>
            <AltitudeMeters>904.79998779296875</AltitudeMeters>
            <DistanceMeters>NAN</DistanceMeters>
          </Trackpoint>
          <Trackpoint>
            <Time>2021-04-01T15:58:04.000Z</Time>
            <Position>
              <LatitudeDegrees>42.369663901627063751220703125</LatitudeDegrees>
              <LongitudeDegrees>2.65250162221491336822509765625</LongitudeDegrees>
            </Position>
            <AltitudeMeters>903.5999755859375</AltitudeMeters>
            <DistanceMeters>NAN</DistanceMeters>
          </Trackpoint>
          <Trackpoint>
            <Time>2021-04-01T15:58:05.000Z</Time>
            <Position>
              <LatitudeDegrees>42.369661219418048858642578125</LatitudeDegrees>
              <LongitudeDegrees>2.65248703770339488983154296875</LongitudeDegrees>
            </Position>
            <AltitudeMeters>903.5999755859375</AltitudeMeters>
            <DistanceMeters>NAN</DistanceMeters>
          </Trackpoint>
          <Trackpoint>
            <Time>2021-04-01T15:58:09.000Z</Time>
            <Position>
              <LatitudeDegrees>42.36966549418866634368896484375</LatitudeDegrees>
              <LongitudeDegrees>2.65245191752910614013671875</LongitudeDegrees>
            </Position>
            <AltitudeMeters>902.79998779296875</AltitudeMeters>
            <DistanceMeters>NAN</DistanceMeters>
          </Trackpoint>
          <Trackpoint>
            <Time>2021-04-01T15:58:10.000Z</Time>
            <Position>
              <LatitudeDegrees>42.36966197378933429718017578125</LatitudeDegrees>
              <LongitudeDegrees>2.6524457149207592010498046875</LongitudeDegrees>
            </Position>
            <AltitudeMeters>902.4000244140625</AltitudeMeters>
            <DistanceMeters>NAN</DistanceMeters>
          </Trackpoint>
          <Trackpoint>
            <Time>2021-04-01T15:58:14.000Z</Time>
            <Position>
              <LatitudeDegrees>42.36966582946479320526123046875</LatitudeDegrees>
              <LongitudeDegrees>2.6524209044873714447021484375</LongitudeDegrees>
            </Position>
            <AltitudeMeters>901.5999755859375</AltitudeMeters>
            <DistanceMeters>NAN</DistanceMeters>
          </Trackpoint>
          <Trackpoint>
            <Time>2021-04-01T15:58:17.000Z</Time>
            <Position>
              <LatitudeDegrees>42.36965996213257312774658203125</LatitudeDegrees>
              <LongitudeDegrees>2.652420736849308013916015625</LongitudeDegrees>
            </Position>
            <AltitudeMeters>901.4000244140625</AltitudeMeters>
            <DistanceMeters>NAN</DistanceMeters>
          </Trackpoint>
          <Trackpoint>
            <Time>2021-04-01T15:58:21.000Z</Time>
            <Position>
              <LatitudeDegrees>42.3696466349065303802490234375</LatitudeDegrees>
              <LongitudeDegrees>2.65240020118653774261474609375</LongitudeDegrees>
            </Position>
            <AltitudeMeters>901.20001220703125</AltitudeMeters>
            <DistanceMeters>NAN</DistanceMeters>
          </Trackpoint>
          <Trackpoint>
            <Time>2021-04-01T15:58:26.000Z</Time>
            <Position>
              <LatitudeDegrees>42.36962760798633098602294921875</LatitudeDegrees>
              <LongitudeDegrees>2.65235829167068004608154296875</LongitudeDegrees>
            </Position>
            <AltitudeMeters>900.20001220703125</AltitudeMeters>
            <DistanceMeters>NAN</DistanceMeters>
          </Trackpoint>
          <Trackpoint>
            <Time>2021-04-01T15:58:27.000Z</Time>
            <Position>
              <LatitudeDegrees>42.36962526105344295501708984375</LatitudeDegrees>
              <LongitudeDegrees>2.6523535139858722686767578125</LongitudeDegrees>
            </Position>
            <AltitudeMeters>900</AltitudeMeters>
            <DistanceMeters>NAN</DistanceMeters>
          </Trackpoint>
          <Trackpoint>
            <Time>2021-04-01T15:58:33.000Z</Time>
            <Position>
              <LatitudeDegrees>42.36960464157164096832275390625</LatitudeDegrees>
              <LongitudeDegrees>2.65232627280056476593017578125</LongitudeDegrees>
            </Position>
            <AltitudeMeters>899</AltitudeMeters>
            <DistanceMeters>NAN</DistanceMeters>
          </Trackpoint>
          <Trackpoint>
            <Time>2021-04-01T15:58:34.000Z</Time>
            <Position>
              <LatitudeDegrees>42.36960598267614841461181640625</LatitudeDegrees>
              <LongitudeDegrees>2.6523159630596637725830078125</LongitudeDegrees>
            </Position>
            <AltitudeMeters>899</AltitudeMeters>
            <DistanceMeters>NAN</DistanceMeters>
          </Trackpoint>
          <Trackpoint>
            <Time>2021-04-01T15:58:39.000Z</Time>
            <Position>
              <LatitudeDegrees>42.36958201043307781219482421875</LatitudeDegrees>
              <LongitudeDegrees>2.65227816067636013031005859375</LongitudeDegrees>
            </Position>
            <AltitudeMeters>898.20001220703125</AltitudeMeters>
            <DistanceMeters>NAN</DistanceMeters>
          </Trackpoint>
          <Trackpoint>
            <Time>2021-04-01T15:58:41.000Z</Time>
            <Position>
              <LatitudeDegrees>42.36957798711955547332763671875</LatitudeDegrees>
              <LongitudeDegrees>2.65226709656417369842529296875</LongitudeDegrees>
            </Position>
            <AltitudeMeters>898</AltitudeMeters>
            <DistanceMeters>NAN</DistanceMeters>
          </Trackpoint>
          <Trackpoint>
            <Time>2021-04-01T15:58:43.000Z</Time>
            <Position>
              <LatitudeDegrees>42.3695768974721431732177734375</LatitudeDegrees>
              <LongitudeDegrees>2.6522586308419704437255859375</LongitudeDegrees>
            </Position>
            <AltitudeMeters>897.5999755859375</AltitudeMeters>
            <DistanceMeters>NAN</DistanceMeters>
          </Trackpoint>
          <Trackpoint>
            <Time>2021-04-01T15:58:44.000Z</Time>
            <Position>
              <LatitudeDegrees>42.36957631073892116546630859375</LatitudeDegrees>
              <LongitudeDegrees>2.65225452370941638946533203125</LongitudeDegrees>
            </Position>
            <AltitudeMeters>897.5999755859375</AltitudeMeters>
            <DistanceMeters>NAN</DistanceMeters>
          </Trackpoint>
          <Trackpoint>
            <Time>2021-04-01T15:58:51.000Z</Time>
            <Position>
              <LatitudeDegrees>42.36955787055194377899169921875</LatitudeDegrees>
              <LongitudeDegrees>2.65225075185298919677734375</LongitudeDegrees>
            </Position>
            <AltitudeMeters>896.79998779296875</AltitudeMeters>
            <DistanceMeters>NAN</DistanceMeters>
          </Trackpoint>
          <Trackpoint>
            <Time>2021-04-01T15:58:53.000Z</Time>
            <Position>
              <LatitudeDegrees>42.369550578296184539794921875</LatitudeDegrees>
              <LongitudeDegrees>2.65224161557853221893310546875</LongitudeDegrees>
            </Position>
            <AltitudeMeters>896.5999755859375</AltitudeMeters>
            <DistanceMeters>NAN</DistanceMeters>
          </Trackpoint>
          <Trackpoint>
            <Time>2021-04-01T15:59:00.000Z</Time>
            <Position>
              <LatitudeDegrees>42.36954546533524990081787109375</LatitudeDegrees>
              <LongitudeDegrees>2.65221445821225643157958984375</LongitudeDegrees>
            </Position>
            <AltitudeMeters>895.79998779296875</AltitudeMeters>
            <DistanceMeters>NAN</DistanceMeters>
          </Trackpoint>
          <Trackpoint>
            <Time>2021-04-01T15:59:02.000Z</Time>
            <Position>
              <LatitudeDegrees>42.3695487342774868011474609375</LatitudeDegrees>
              <LongitudeDegrees>2.6521992869675159454345703125</LongitudeDegrees>
            </Position>
            <AltitudeMeters>895.5999755859375</AltitudeMeters>
            <DistanceMeters>NAN</DistanceMeters>
          </Trackpoint>
          <Trackpoint>
            <Time>2021-04-01T15:59:09.000Z</Time>
            <Position>
              <LatitudeDegrees>42.3695450462400913238525390625</LatitudeDegrees>
              <LongitudeDegrees>2.6521828584372997283935546875</LongitudeDegrees>
            </Position>
            <AltitudeMeters>894.79998779296875</AltitudeMeters>
            <DistanceMeters>NAN</DistanceMeters>
          </Trackpoint>
          <Trackpoint>
            <Time>2021-04-01T15:59:16.000Z</Time>
            <Position>
              <LatitudeDegrees>42.3695286177098751068115234375</LatitudeDegrees>
              <LongitudeDegrees>2.65218227170407772064208984375</LongitudeDegrees>
            </Position>
            <AltitudeMeters>893.79998779296875</AltitudeMeters>
            <DistanceMeters>NAN</DistanceMeters>
          </Trackpoint>
          <Trackpoint>
            <Time>2021-04-01T15:59:24.000Z</Time>
            <Position>
              <LatitudeDegrees>42.36948662437498569488525390625</LatitudeDegrees>
              <LongitudeDegrees>2.652159892022609710693359375</LongitudeDegrees>
            </Position>
            <AltitudeMeters>892.5999755859375</AltitudeMeters>
            <DistanceMeters>NAN</DistanceMeters>
          </Trackpoint>
          <Trackpoint>
            <Time>2021-04-01T15:59:29.000Z</Time>
            <Position>
              <LatitudeDegrees>42.3694649152457714080810546875</LatitudeDegrees>
              <LongitudeDegrees>2.65214438550174236297607421875</LongitudeDegrees>
            </Position>
            <AltitudeMeters>891.4000244140625</AltitudeMeters>
            <DistanceMeters>NAN</DistanceMeters>
          </Trackpoint>
          <Trackpoint>
            <Time>2021-04-01T15:59:31.000Z</Time>
            <Position>
              <LatitudeDegrees>42.369447983801364898681640625</LatitudeDegrees>
              <LongitudeDegrees>2.65213332138955593109130859375</LongitudeDegrees>
            </Position>
            <AltitudeMeters>891.20001220703125</AltitudeMeters>
            <DistanceMeters>NAN</DistanceMeters>
          </Trackpoint>
          <Trackpoint>
            <Time>2021-04-01T15:59:36.000Z</Time>
            <Position>
              <LatitudeDegrees>42.36942225135862827301025390625</LatitudeDegrees>
              <LongitudeDegrees>2.6521261967718601226806640625</LongitudeDegrees>
            </Position>
            <AltitudeMeters>890.4000244140625</AltitudeMeters>
            <DistanceMeters>NAN</DistanceMeters>
          </Trackpoint>
          <Trackpoint>
            <Time>2021-04-01T15:59:37.000Z</Time>
            <Position>
              <LatitudeDegrees>42.36942007206380367279052734375</LatitudeDegrees>
              <LongitudeDegrees>2.65212426893413066864013671875</LongitudeDegrees>
            </Position>
            <AltitudeMeters>890.4000244140625</AltitudeMeters>
            <DistanceMeters>NAN</DistanceMeters>
          </Trackpoint>
          <Trackpoint>
            <Time>2021-04-01T15:59:44.000Z</Time>
            <Position>
              <LatitudeDegrees>42.3693797551095485687255859375</LatitudeDegrees>
              <LongitudeDegrees>2.652106247842311859130859375</LongitudeDegrees>
            </Position>
            <AltitudeMeters>889.20001220703125</AltitudeMeters>
            <DistanceMeters>NAN</DistanceMeters>
          </Trackpoint>
          <Trackpoint>
            <Time>2021-04-01T15:59:45.000Z</Time>
            <Position>
              <LatitudeDegrees>42.36937053501605987548828125</LatitudeDegrees>
              <LongitudeDegrees>2.65210432000458240509033203125</LongitudeDegrees>
            </Position>
            <AltitudeMeters>889.20001220703125</AltitudeMeters>
            <DistanceMeters>NAN</DistanceMeters>
          </Trackpoint>
          <Trackpoint>
            <Time>2021-04-01T15:59:46.000Z</Time>
            <Position>
              <LatitudeDegrees>42.3693613149225711822509765625</LatitudeDegrees>
              <LongitudeDegrees>2.6521010510623455047607421875</LongitudeDegrees>
            </Position>
            <AltitudeMeters>889</AltitudeMeters>
            <DistanceMeters>NAN</DistanceMeters>
          </Trackpoint>
          <Trackpoint>
            <Time>2021-04-01T15:59:53.000Z</Time>
            <Position>
              <LatitudeDegrees>42.3693341575562953948974609375</LatitudeDegrees>
              <LongitudeDegrees>2.65205151401460170745849609375</LongitudeDegrees>
            </Position>
            <AltitudeMeters>888.20001220703125</AltitudeMeters>
            <DistanceMeters>NAN</DistanceMeters>
          </Trackpoint>
          <Trackpoint>
            <Time>2021-04-01T15:59:57.000Z</Time>
            <Position>
              <LatitudeDegrees>42.3693321458995342254638671875</LatitudeDegrees>
              <LongitudeDegrees>2.65201161615550518035888671875</LongitudeDegrees>
            </Position>
            <AltitudeMeters>887.5999755859375</AltitudeMeters>
            <DistanceMeters>NAN</DistanceMeters>
          </Trackpoint>
          <Trackpoint>
            <Time>2021-04-01T15:59:59.000Z</Time>
            <Position>
              <LatitudeDegrees>42.369334660470485687255859375</LatitudeDegrees>
              <LongitudeDegrees>2.65199736692011356353759765625</LongitudeDegrees>
            </Position>
            <AltitudeMeters>887.4000244140625</AltitudeMeters>
            <DistanceMeters>NAN</DistanceMeters>
          </Trackpoint>
          <Trackpoint>
            <Time>2021-04-01T16:00:01.000Z</Time>
            <Position>
              <LatitudeDegrees>42.369317896664142608642578125</LatitudeDegrees>
              <LongitudeDegrees>2.6519756577908992767333984375</LongitudeDegrees>
            </Position>
            <AltitudeMeters>887.4000244140625</AltitudeMeters>
            <DistanceMeters>NAN</DistanceMeters>
          </Trackpoint>
          <Trackpoint>
            <Time>2021-04-01T16:00:05.000Z</Time>
            <Position>
              <LatitudeDegrees>42.36931211315095424652099609375</LatitudeDegrees>
              <LongitudeDegrees>2.65196015127003192901611328125</LongitudeDegrees>
            </Position>
            <AltitudeMeters>887.20001220703125</AltitudeMeters>
            <DistanceMeters>NAN</DistanceMeters>
          </Trackpoint>
          <Trackpoint>
            <Time>2021-04-01T16:00:06.000Z</Time>
            <Position>
              <LatitudeDegrees>42.36930750310420989990234375</LatitudeDegrees>
              <LongitudeDegrees>2.65195009298622608184814453125</LongitudeDegrees>
            </Position>
            <AltitudeMeters>887</AltitudeMeters>
            <DistanceMeters>NAN</DistanceMeters>
          </Trackpoint>
          <Trackpoint>
            <Time>2021-04-01T16:00:08.000Z</Time>
            <Position>
              <LatitudeDegrees>42.3693041503429412841796875</LatitudeDegrees>
              <LongitudeDegrees>2.6519243605434894561767578125</LongitudeDegrees>
            </Position>
            <AltitudeMeters>887</AltitudeMeters>
            <DistanceMeters>NAN</DistanceMeters>
          </Trackpoint>
          <Trackpoint>
            <Time>2021-04-01T16:00:13.000Z</Time>
            <Position>
              <LatitudeDegrees>42.3693073354661464691162109375</LatitudeDegrees>
              <LongitudeDegrees>2.6518665254116058349609375</LongitudeDegrees>
            </Position>
            <AltitudeMeters>886</AltitudeMeters>
            <DistanceMeters>NAN</DistanceMeters>
          </Trackpoint>
          <Trackpoint>
            <Time>2021-04-01T16:00:18.000Z</Time>
            <Position>
              <LatitudeDegrees>42.36929534934461116790771484375</LatitudeDegrees>
              <LongitudeDegrees>2.65184129588305950164794921875</LongitudeDegrees>
            </Position>
            <AltitudeMeters>885</AltitudeMeters>
            <DistanceMeters>NAN</DistanceMeters>
          </Trackpoint>
          <Trackpoint>
            <Time>2021-04-01T16:00:19.000Z</Time>
            <Position>
              <LatitudeDegrees>42.36929140985012054443359375</LatitudeDegrees>
              <LongitudeDegrees>2.651835344731807708740234375</LongitudeDegrees>
            </Position>
            <AltitudeMeters>885</AltitudeMeters>
            <DistanceMeters>NAN</DistanceMeters>
          </Trackpoint>
          <Trackpoint>
            <Time>2021-04-01T16:00:24.000Z</Time>
            <Position>
              <LatitudeDegrees>42.36926433630287647247314453125</LatitudeDegrees>
              <LongitudeDegrees>2.6518023200333118438720703125</LongitudeDegrees>
            </Position>
            <AltitudeMeters>884</AltitudeMeters>
            <DistanceMeters>NAN</DistanceMeters>
          </Trackpoint>
          <Trackpoint>
            <Time>2021-04-01T16:00:26.000Z</Time>
            <Position>
              <LatitudeDegrees>42.369253523647785186767578125</LatitudeDegrees>
              <LongitudeDegrees>2.6517889089882373809814453125</LongitudeDegrees>
            </Position>
            <AltitudeMeters>883.5999755859375</AltitudeMeters>
            <DistanceMeters>NAN</DistanceMeters>
          </Trackpoint>
          <Trackpoint>
            <Time>2021-04-01T16:00:33.000Z</Time>
            <Position>
              <LatitudeDegrees>42.3692191578447818756103515625</LatitudeDegrees>
              <LongitudeDegrees>2.6517630927264690399169921875</LongitudeDegrees>
            </Position>
            <AltitudeMeters>883</AltitudeMeters>
            <DistanceMeters>NAN</DistanceMeters>
          </Trackpoint>
          <Trackpoint>
            <Time>2021-04-01T16:00:35.000Z</Time>
            <Position>
              <LatitudeDegrees>42.36921362578868865966796875</LatitudeDegrees>
              <LongitudeDegrees>2.6517496816813945770263671875</LongitudeDegrees>
            </Position>
            <AltitudeMeters>882.5999755859375</AltitudeMeters>
            <DistanceMeters>NAN</DistanceMeters>
          </Trackpoint>
          <Trackpoint>
            <Time>2021-04-01T16:00:42.000Z</Time>
            <Position>
              <LatitudeDegrees>42.369200550019741058349609375</LatitudeDegrees>
              <LongitudeDegrees>2.65168271027505397796630859375</LongitudeDegrees>
            </Position>
            <AltitudeMeters>881.5999755859375</AltitudeMeters>
            <DistanceMeters>NAN</DistanceMeters>
          </Trackpoint>
          <Trackpoint>
            <Time>2021-04-01T16:00:49.000Z</Time>
            <Position>
              <LatitudeDegrees>42.36918185837566852569580078125</LatitudeDegrees>
              <LongitudeDegrees>2.6516236178576946258544921875</LongitudeDegrees>
            </Position>
            <AltitudeMeters>880.79998779296875</AltitudeMeters>
            <DistanceMeters>NAN</DistanceMeters>
          </Trackpoint>
          <Trackpoint>
            <Time>2021-04-01T16:00:52.000Z</Time>
            <Position>
              <LatitudeDegrees>42.36918873153626918792724609375</LatitudeDegrees>
              <LongitudeDegrees>2.65159788541495800018310546875</LongitudeDegrees>
            </Position>
            <AltitudeMeters>880.4000244140625</AltitudeMeters>
            <DistanceMeters>NAN</DistanceMeters>
          </Trackpoint>
          <Trackpoint>
            <Time>2021-04-01T16:00:59.000Z</Time>
            <Position>
              <LatitudeDegrees>42.36919191665947437286376953125</LatitudeDegrees>
              <LongitudeDegrees>2.65155547298491001129150390625</LongitudeDegrees>
            </Position>
            <AltitudeMeters>879.4000244140625</AltitudeMeters>
            <DistanceMeters>NAN</DistanceMeters>
          </Trackpoint>
          <Trackpoint>
            <Time>2021-04-01T16:01:08.000Z</Time>
            <Position>
              <LatitudeDegrees>42.36918102018535137176513671875</LatitudeDegrees>
              <LongitudeDegrees>2.65150870196521282196044921875</LongitudeDegrees>
            </Position>
            <AltitudeMeters>878.4000244140625</AltitudeMeters>
            <DistanceMeters>NAN</DistanceMeters>
          </Trackpoint>
          <Trackpoint>
            <Time>2021-04-01T16:01:10.000Z</Time>
            <Position>
              <LatitudeDegrees>42.36917532049119472503662109375</LatitudeDegrees>
              <LongitudeDegrees>2.65150451101362705230712890625</LongitudeDegrees>
            </Position>
            <AltitudeMeters>878</AltitudeMeters>
            <DistanceMeters>NAN</DistanceMeters>
          </Trackpoint>
          <Trackpoint>
            <Time>2021-04-01T16:01:14.000Z</Time>
            <Position>
              <LatitudeDegrees>42.36914657056331634521484375</LatitudeDegrees>
              <LongitudeDegrees>2.651496715843677520751953125</LongitudeDegrees>
            </Position>
            <AltitudeMeters>877.20001220703125</AltitudeMeters>
            <DistanceMeters>NAN</DistanceMeters>
          </Trackpoint>
          <Trackpoint>
            <Time>2021-04-01T16:01:15.000Z</Time>
            <Position>
              <LatitudeDegrees>42.36914657056331634521484375</LatitudeDegrees>
              <LongitudeDegrees>2.651496715843677520751953125</LongitudeDegrees>
            </Position>
            <AltitudeMeters>877</AltitudeMeters>
            <DistanceMeters>NAN</DistanceMeters>
          </Trackpoint>
          <Trackpoint>
            <Time>2021-04-01T16:01:16.000Z</Time>
            <Position>
              <LatitudeDegrees>42.36913022585213184356689453125</LatitudeDegrees>
              <LongitudeDegrees>2.65150132589042186737060546875</LongitudeDegrees>
            </Position>
            <AltitudeMeters>876.79998779296875</AltitudeMeters>
            <DistanceMeters>NAN</DistanceMeters>
          </Trackpoint>
          <Trackpoint>
            <Time>2021-04-01T16:01:19.000Z</Time>
            <Position>
              <LatitudeDegrees>42.3691175691783428192138671875</LatitudeDegrees>
              <LongitudeDegrees>2.65148607082664966583251953125</LongitudeDegrees>
            </Position>
            <AltitudeMeters>876</AltitudeMeters>
            <DistanceMeters>NAN</DistanceMeters>
          </Trackpoint>
          <Trackpoint>
            <Time>2021-04-01T16:01:22.000Z</Time>
            <Position>
              <LatitudeDegrees>42.369120083749294281005859375</LatitudeDegrees>
              <LongitudeDegrees>2.6514603383839130401611328125</LongitudeDegrees>
            </Position>
            <AltitudeMeters>875.5999755859375</AltitudeMeters>
            <DistanceMeters>NAN</DistanceMeters>
          </Trackpoint>
          <Trackpoint>
            <Time>2021-04-01T16:01:24.000Z</Time>
            <Position>
              <LatitudeDegrees>42.36912335269153118133544921875</LatitudeDegrees>
              <LongitudeDegrees>2.6514563150703907012939453125</LongitudeDegrees>
            </Position>
            <AltitudeMeters>875.20001220703125</AltitudeMeters>
            <DistanceMeters>NAN</DistanceMeters>
          </Trackpoint>
          <Trackpoint>
            <Time>2021-04-01T16:01:26.000Z</Time>
            <Position>
              <LatitudeDegrees>42.3691225983202457427978515625</LatitudeDegrees>
              <LongitudeDegrees>2.65143913216888904571533203125</LongitudeDegrees>
            </Position>
            <AltitudeMeters>875</AltitudeMeters>
            <DistanceMeters>NAN</DistanceMeters>
          </Trackpoint>
          <Trackpoint>
            <Time>2021-04-01T16:01:27.000Z</Time>
            <Position>
              <LatitudeDegrees>42.36912117339670658111572265625</LatitudeDegrees>
              <LongitudeDegrees>2.65142974443733692169189453125</LongitudeDegrees>
            </Position>
            <AltitudeMeters>875</AltitudeMeters>
            <DistanceMeters>NAN</DistanceMeters>
          </Trackpoint>
          <Trackpoint>
            <Time>2021-04-01T16:01:34.000Z</Time>
            <Position>
              <LatitudeDegrees>42.3691212572157382965087890625</LatitudeDegrees>
              <LongitudeDegrees>2.65138381160795688629150390625</LongitudeDegrees>
            </Position>
            <AltitudeMeters>874</AltitudeMeters>
            <DistanceMeters>NAN</DistanceMeters>
          </Trackpoint>
          <Trackpoint>
            <Time>2021-04-01T16:01:35.000Z</Time>
            <Position>
              <LatitudeDegrees>42.369120754301548004150390625</LatitudeDegrees>
              <LongitudeDegrees>2.65137777663767337799072265625</LongitudeDegrees>
            </Position>
            <AltitudeMeters>873.5999755859375</AltitudeMeters>
            <DistanceMeters>NAN</DistanceMeters>
          </Trackpoint>
          <Trackpoint>
            <Time>2021-04-01T16:01:40.000Z</Time>
            <Position>
              <LatitudeDegrees>42.369110025465488433837890625</LatitudeDegrees>
              <LongitudeDegrees>2.6513426564633846282958984375</LongitudeDegrees>
            </Position>
            <AltitudeMeters>872.79998779296875</AltitudeMeters>
            <DistanceMeters>NAN</DistanceMeters>
          </Trackpoint>
          <Trackpoint>
            <Time>2021-04-01T16:01:42.000Z</Time>
            <Position>
              <LatitudeDegrees>42.3691058345139026641845703125</LatitudeDegrees>
              <LongitudeDegrees>2.65132949687540531158447265625</LongitudeDegrees>
            </Position>
            <AltitudeMeters>872.4000244140625</AltitudeMeters>
            <DistanceMeters>NAN</DistanceMeters>
          </Trackpoint>
          <Trackpoint>
            <Time>2021-04-01T16:01:44.000Z</Time>
            <Position>
              <LatitudeDegrees>42.36910499632358551025390625</LatitudeDegrees>
              <LongitudeDegrees>2.651328742504119873046875</LongitudeDegrees>
            </Position>
            <AltitudeMeters>871.79998779296875</AltitudeMeters>
            <DistanceMeters>NAN</DistanceMeters>
          </Trackpoint>
          <Trackpoint>
            <Time>2021-04-01T16:01:49.000Z</Time>
            <Position>
              <LatitudeDegrees>42.36911228857934474945068359375</LatitudeDegrees>
              <LongitudeDegrees>2.65130870975553989410400390625</LongitudeDegrees>
            </Position>
            <AltitudeMeters>871</AltitudeMeters>
            <DistanceMeters>NAN</DistanceMeters>
          </Trackpoint>
          <Trackpoint>
            <Time>2021-04-01T16:01:51.000Z</Time>
            <Position>
              <LatitudeDegrees>42.3691101931035518646240234375</LatitudeDegrees>
              <LongitudeDegrees>2.65129898674786090850830078125</LongitudeDegrees>
            </Position>
            <AltitudeMeters>870.5999755859375</AltitudeMeters>
            <DistanceMeters>NAN</DistanceMeters>
          </Trackpoint>
          <Trackpoint>
            <Time>2021-04-01T16:01:58.000Z</Time>
            <Position>
              <LatitudeDegrees>42.3690927587449550628662109375</LatitudeDegrees>
              <LongitudeDegrees>2.65126143582165241241455078125</LongitudeDegrees>
            </Position>
            <AltitudeMeters>869.5999755859375</AltitudeMeters>
            <DistanceMeters>NAN</DistanceMeters>
          </Trackpoint>
          <Trackpoint>
            <Time>2021-04-01T16:01:59.000Z</Time>
            <Position>
              <LatitudeDegrees>42.3690904118120670318603515625</LatitudeDegrees>
              <LongitudeDegrees>2.6512571610510349273681640625</LongitudeDegrees>
            </Position>
            <AltitudeMeters>869.5999755859375</AltitudeMeters>
            <DistanceMeters>NAN</DistanceMeters>
          </Trackpoint>
          <Trackpoint>
            <Time>2021-04-01T16:02:06.000Z</Time>
            <Position>
              <LatitudeDegrees>42.36907708458602428436279296875</LatitudeDegrees>
              <LongitudeDegrees>2.65124768950045108795166015625</LongitudeDegrees>
            </Position>
            <AltitudeMeters>868.4000244140625</AltitudeMeters>
            <DistanceMeters>NAN</DistanceMeters>
          </Trackpoint>
          <Trackpoint>
            <Time>2021-04-01T16:02:12.000Z</Time>
            <Position>
              <LatitudeDegrees>42.36905110068619251251220703125</LatitudeDegrees>
              <LongitudeDegrees>2.65124198980629444122314453125</LongitudeDegrees>
            </Position>
            <AltitudeMeters>868</AltitudeMeters>
            <DistanceMeters>NAN</DistanceMeters>
          </Trackpoint>
          <Trackpoint>
            <Time>2021-04-01T16:02:18.000Z</Time>
            <Position>
              <LatitudeDegrees>42.36904020421206951141357421875</LatitudeDegrees>
              <LongitudeDegrees>2.6512434147298336029052734375</LongitudeDegrees>
            </Position>
            <AltitudeMeters>867.79998779296875</AltitudeMeters>
            <DistanceMeters>NAN</DistanceMeters>
          </Trackpoint>
          <Trackpoint>
            <Time>2021-04-01T16:02:21.000Z</Time>
            <Position>
              <LatitudeDegrees>42.36902763135731220245361328125</LatitudeDegrees>
              <LongitudeDegrees>2.6512363739311695098876953125</LongitudeDegrees>
            </Position>
            <AltitudeMeters>867.4000244140625</AltitudeMeters>
            <DistanceMeters>NAN</DistanceMeters>
          </Trackpoint>
          <Trackpoint>
            <Time>2021-04-01T16:02:26.000Z</Time>
            <Position>
              <LatitudeDegrees>42.369010448455810546875</LatitudeDegrees>
              <LongitudeDegrees>2.6512477733194828033447265625</LongitudeDegrees>
            </Position>
            <AltitudeMeters>866.20001220703125</AltitudeMeters>
            <DistanceMeters>NAN</DistanceMeters>
          </Trackpoint>
          <Trackpoint>
            <Time>2021-04-01T16:02:28.000Z</Time>
            <Position>
              <LatitudeDegrees>42.36899879761040210723876953125</LatitudeDegrees>
              <LongitudeDegrees>2.65123913995921611785888671875</LongitudeDegrees>
            </Position>
            <AltitudeMeters>865.5999755859375</AltitudeMeters>
            <DistanceMeters>NAN</DistanceMeters>
          </Trackpoint>
          <Trackpoint>
            <Time>2021-04-01T16:02:31.000Z</Time>
            <Position>
              <LatitudeDegrees>42.3689844645559787750244140625</LatitudeDegrees>
              <LongitudeDegrees>2.65123880468308925628662109375</LongitudeDegrees>
            </Position>
            <AltitudeMeters>865</AltitudeMeters>
            <DistanceMeters>NAN</DistanceMeters>
          </Trackpoint>
          <Trackpoint>
            <Time>2021-04-01T16:02:34.000Z</Time>
            <Position>
              <LatitudeDegrees>42.36895923502743244171142578125</LatitudeDegrees>
              <LongitudeDegrees>2.651232518255710601806640625</LongitudeDegrees>
            </Position>
            <AltitudeMeters>864.5999755859375</AltitudeMeters>
            <DistanceMeters>NAN</DistanceMeters>
          </Trackpoint>
          <Trackpoint>
            <Time>2021-04-01T16:02:39.000Z</Time>
            <Position>
              <LatitudeDegrees>42.36891925334930419921875</LatitudeDegrees>
              <LongitudeDegrees>2.65120091848075389862060546875</LongitudeDegrees>
            </Position>
            <AltitudeMeters>863.79998779296875</AltitudeMeters>
            <DistanceMeters>NAN</DistanceMeters>
          </Trackpoint>
          <Trackpoint>
            <Time>2021-04-01T16:02:40.000Z</Time>
            <Position>
              <LatitudeDegrees>42.36891464330255985260009765625</LatitudeDegrees>
              <LongitudeDegrees>2.6511984877288341522216796875</LongitudeDegrees>
            </Position>
            <AltitudeMeters>863.4000244140625</AltitudeMeters>
            <DistanceMeters>NAN</DistanceMeters>
          </Trackpoint>
          <Trackpoint>
            <Time>2021-04-01T16:02:47.000Z</Time>
            <Position>
              <LatitudeDegrees>42.36888195388019084930419921875</LatitudeDegrees>
              <LongitudeDegrees>2.6511280797421932220458984375</LongitudeDegrees>
            </Position>
            <AltitudeMeters>862.79998779296875</AltitudeMeters>
            <DistanceMeters>NAN</DistanceMeters>
          </Trackpoint>
          <Trackpoint>
            <Time>2021-04-01T16:02:48.000Z</Time>
            <Position>
              <LatitudeDegrees>42.36887994222342967987060546875</LatitudeDegrees>
              <LongitudeDegrees>2.65111542306840419769287109375</LongitudeDegrees>
            </Position>
            <AltitudeMeters>862.79998779296875</AltitudeMeters>
            <DistanceMeters>NAN</DistanceMeters>
          </Trackpoint>
          <Trackpoint>
            <Time>2021-04-01T16:02:54.000Z</Time>
            <Position>
              <LatitudeDegrees>42.368853203952312469482421875</LatitudeDegrees>
              <LongitudeDegrees>2.6510202884674072265625</LongitudeDegrees>
            </Position>
            <AltitudeMeters>862.4000244140625</AltitudeMeters>
            <DistanceMeters>NAN</DistanceMeters>
          </Trackpoint>
          <Trackpoint>
            <Time>2021-04-01T16:02:55.000Z</Time>
            <Position>
              <LatitudeDegrees>42.36885379068553447723388671875</LatitudeDegrees>
              <LongitudeDegrees>2.6510060392320156097412109375</LongitudeDegrees>
            </Position>
            <AltitudeMeters>862.4000244140625</AltitudeMeters>
            <DistanceMeters>NAN</DistanceMeters>
          </Trackpoint>
          <Trackpoint>
            <Time>2021-04-01T16:03:01.000Z</Time>
            <Position>
              <LatitudeDegrees>42.36882713623344898223876953125</LatitudeDegrees>
              <LongitudeDegrees>2.65095247887074947357177734375</LongitudeDegrees>
            </Position>
            <AltitudeMeters>861.79998779296875</AltitudeMeters>
            <DistanceMeters>NAN</DistanceMeters>
          </Trackpoint>
          <Trackpoint>
            <Time>2021-04-01T16:03:02.000Z</Time>
            <Position>
              <LatitudeDegrees>42.36882462166249752044677734375</LatitudeDegrees>
              <LongitudeDegrees>2.65094853937625885009765625</LongitudeDegrees>
            </Position>
            <AltitudeMeters>861.5999755859375</AltitudeMeters>
            <DistanceMeters>NAN</DistanceMeters>
          </Trackpoint>
          <Trackpoint>
            <Time>2021-04-01T16:03:05.000Z</Time>
            <Position>
              <LatitudeDegrees>42.368812970817089080810546875</LatitudeDegrees>
              <LongitudeDegrees>2.65093588270246982574462890625</LongitudeDegrees>
            </Position>
            <AltitudeMeters>861.4000244140625</AltitudeMeters>
            <DistanceMeters>NAN</DistanceMeters>
          </Trackpoint>
          <Trackpoint>
            <Time>2021-04-01T16:03:08.000Z</Time>
            <Position>
              <LatitudeDegrees>42.36880031414330005645751953125</LatitudeDegrees>
              <LongitudeDegrees>2.65094644390046596527099609375</LongitudeDegrees>
            </Position>
            <AltitudeMeters>861.20001220703125</AltitudeMeters>
            <DistanceMeters>NAN</DistanceMeters>
          </Trackpoint>
          <Trackpoint>
            <Time>2021-04-01T16:03:09.000Z</Time>
            <Position>
              <LatitudeDegrees>42.36879796721041202545166015625</LatitudeDegrees>
              <LongitudeDegrees>2.65095029957592487335205078125</LongitudeDegrees>
            </Position>
            <AltitudeMeters>861</AltitudeMeters>
            <DistanceMeters>NAN</DistanceMeters>
          </Trackpoint>
          <Trackpoint>
            <Time>2021-04-01T16:03:12.000Z</Time>
            <Position>
              <LatitudeDegrees>42.36878355033695697784423828125</LatitudeDegrees>
              <LongitudeDegrees>2.6509487070143222808837890625</LongitudeDegrees>
            </Position>
            <AltitudeMeters>860.5999755859375</AltitudeMeters>
            <DistanceMeters>NAN</DistanceMeters>
          </Trackpoint>
          <Trackpoint>
            <Time>2021-04-01T16:03:13.000Z</Time>
            <Position>
              <LatitudeDegrees>42.3687744140625</LatitudeDegrees>
              <LongitudeDegrees>2.650948204100131988525390625</LongitudeDegrees>
            </Position>
            <AltitudeMeters>860.5999755859375</AltitudeMeters>
            <DistanceMeters>NAN</DistanceMeters>
          </Trackpoint>
          <Trackpoint>
            <Time>2021-04-01T16:03:17.000Z</Time>
            <Position>
              <LatitudeDegrees>42.3687380366027355194091796875</LatitudeDegrees>
              <LongitudeDegrees>2.6509222202003002166748046875</LongitudeDegrees>
            </Position>
            <AltitudeMeters>859.5999755859375</AltitudeMeters>
            <DistanceMeters>NAN</DistanceMeters>
          </Trackpoint>
          <Trackpoint>
            <Time>2021-04-01T16:03:18.000Z</Time>
            <Position>
              <LatitudeDegrees>42.36872814595699310302734375</LatitudeDegrees>
              <LongitudeDegrees>2.6509116590023040771484375</LongitudeDegrees>
            </Position>
            <AltitudeMeters>859.4000244140625</AltitudeMeters>
            <DistanceMeters>NAN</DistanceMeters>
          </Trackpoint>
          <Trackpoint>
            <Time>2021-04-01T16:03:25.000Z</Time>
            <Position>
              <LatitudeDegrees>42.36867726780474185943603515625</LatitudeDegrees>
              <LongitudeDegrees>2.65083722770214080810546875</LongitudeDegrees>
            </Position>
            <AltitudeMeters>858.79998779296875</AltitudeMeters>
            <DistanceMeters>NAN</DistanceMeters>
          </Trackpoint>
          <Trackpoint>
            <Time>2021-04-01T16:03:30.000Z</Time>
            <Position>
              <LatitudeDegrees>42.36863736994564533233642578125</LatitudeDegrees>
              <LongitudeDegrees>2.6508085615932941436767578125</LongitudeDegrees>
            </Position>
            <AltitudeMeters>858.4000244140625</AltitudeMeters>
            <DistanceMeters>NAN</DistanceMeters>
          </Trackpoint>
          <Trackpoint>
            <Time>2021-04-01T16:03:32.000Z</Time>
            <Position>
              <LatitudeDegrees>42.3686170019209384918212890625</LatitudeDegrees>
              <LongitudeDegrees>2.65078450553119182586669921875</LongitudeDegrees>
            </Position>
            <AltitudeMeters>858.20001220703125</AltitudeMeters>
            <DistanceMeters>NAN</DistanceMeters>
          </Trackpoint>
          <Trackpoint>
            <Time>2021-04-01T16:03:34.000Z</Time>
            <Position>
              <LatitudeDegrees>42.36860610544681549072265625</LatitudeDegrees>
              <LongitudeDegrees>2.6507539115846157073974609375</LongitudeDegrees>
            </Position>
            <AltitudeMeters>858</AltitudeMeters>
            <DistanceMeters>NAN</DistanceMeters>
          </Trackpoint>
          <Trackpoint>
            <Time>2021-04-01T16:03:39.000Z</Time>
            <Position>
              <LatitudeDegrees>42.36861004494130611419677734375</LatitudeDegrees>
              <LongitudeDegrees>2.65069599263370037078857421875</LongitudeDegrees>
            </Position>
            <AltitudeMeters>857.4000244140625</AltitudeMeters>
            <DistanceMeters>NAN</DistanceMeters>
          </Trackpoint>
          <Trackpoint>
            <Time>2021-04-01T16:03:42.000Z</Time>
            <Position>
              <LatitudeDegrees>42.36861255951225757598876953125</LatitudeDegrees>
              <LongitudeDegrees>2.650684677064418792724609375</LongitudeDegrees>
            </Position>
            <AltitudeMeters>856.79998779296875</AltitudeMeters>
            <DistanceMeters>NAN</DistanceMeters>
          </Trackpoint>
          <Trackpoint>
            <Time>2021-04-01T16:03:43.000Z</Time>
            <Position>
              <LatitudeDegrees>42.368614487349987030029296875</LatitudeDegrees>
              <LongitudeDegrees>2.650680653750896453857421875</LongitudeDegrees>
            </Position>
            <AltitudeMeters>856.79998779296875</AltitudeMeters>
            <DistanceMeters>NAN</DistanceMeters>
          </Trackpoint>
          <Trackpoint>
            <Time>2021-04-01T16:03:47.000Z</Time>
            <Position>
              <LatitudeDegrees>42.36860652454197406768798828125</LatitudeDegrees>
              <LongitudeDegrees>2.65068828128278255462646484375</LongitudeDegrees>
            </Position>
            <AltitudeMeters>856.20001220703125</AltitudeMeters>
            <DistanceMeters>NAN</DistanceMeters>
          </Trackpoint>
          <Trackpoint>
            <Time>2021-04-01T16:03:51.000Z</Time>
            <Position>
              <LatitudeDegrees>42.36859629862010478973388671875</LatitudeDegrees>
              <LongitudeDegrees>2.6506999321281909942626953125</LongitudeDegrees>
            </Position>
            <AltitudeMeters>855.5999755859375</AltitudeMeters>
            <DistanceMeters>NAN</DistanceMeters>
          </Trackpoint>
          <Trackpoint>
            <Time>2021-04-01T16:03:53.000Z</Time>
            <Position>
              <LatitudeDegrees>42.3685853183269500732421875</LatitudeDegrees>
              <LongitudeDegrees>2.65069347806274890899658203125</LongitudeDegrees>
            </Position>
            <AltitudeMeters>855.20001220703125</AltitudeMeters>
            <DistanceMeters>NAN</DistanceMeters>
          </Trackpoint>
          <Trackpoint>
            <Time>2021-04-01T16:03:57.000Z</Time>
            <Position>
              <LatitudeDegrees>42.36856645904481410980224609375</LatitudeDegrees>
              <LongitudeDegrees>2.65067319385707378387451171875</LongitudeDegrees>
            </Position>
            <AltitudeMeters>854.4000244140625</AltitudeMeters>
            <DistanceMeters>NAN</DistanceMeters>
          </Trackpoint>
          <Trackpoint>
            <Time>2021-04-01T16:03:58.000Z</Time>
            <Position>
              <LatitudeDegrees>42.36856645904481410980224609375</LatitudeDegrees>
              <LongitudeDegrees>2.65067319385707378387451171875</LongitudeDegrees>
            </Position>
            <AltitudeMeters>853.79998779296875</AltitudeMeters>
            <DistanceMeters>NAN</DistanceMeters>
          </Trackpoint>
          <Trackpoint>
            <Time>2021-04-01T16:04:01.000Z</Time>
            <Position>
              <LatitudeDegrees>42.36853863112628459930419921875</LatitudeDegrees>
              <LongitudeDegrees>2.65066212974488735198974609375</LongitudeDegrees>
            </Position>
            <AltitudeMeters>853.20001220703125</AltitudeMeters>
            <DistanceMeters>NAN</DistanceMeters>
          </Trackpoint>
          <Trackpoint>
            <Time>2021-04-01T16:04:04.000Z</Time>
            <Position>
              <LatitudeDegrees>42.36849923618137836456298828125</LatitudeDegrees>
              <LongitudeDegrees>2.65066011808812618255615234375</LongitudeDegrees>
            </Position>
            <AltitudeMeters>852.79998779296875</AltitudeMeters>
            <DistanceMeters>NAN</DistanceMeters>
          </Trackpoint>
          <Trackpoint>
            <Time>2021-04-01T16:04:09.000Z</Time>
            <Position>
              <LatitudeDegrees>42.36845028586685657501220703125</LatitudeDegrees>
              <LongitudeDegrees>2.65063664875924587249755859375</LongitudeDegrees>
            </Position>
            <AltitudeMeters>852.4000244140625</AltitudeMeters>
            <DistanceMeters>NAN</DistanceMeters>
          </Trackpoint>
          <Trackpoint>
            <Time>2021-04-01T16:04:17.000Z</Time>
            <Position>
              <LatitudeDegrees>42.36838859505951404571533203125</LatitudeDegrees>
              <LongitudeDegrees>2.65060077421367168426513671875</LongitudeDegrees>
            </Position>
            <AltitudeMeters>851.79998779296875</AltitudeMeters>
            <DistanceMeters>NAN</DistanceMeters>
          </Trackpoint>
          <Trackpoint>
            <Time>2021-04-01T16:04:22.000Z</Time>
            <Position>
              <LatitudeDegrees>42.36838256008923053741455078125</LatitudeDegrees>
              <LongitudeDegrees>2.65053941868245601654052734375</LongitudeDegrees>
            </Position>
            <AltitudeMeters>851.4000244140625</AltitudeMeters>
            <DistanceMeters>NAN</DistanceMeters>
          </Trackpoint>
          <Trackpoint>
            <Time>2021-04-01T16:04:24.000Z</Time>
            <Position>
              <LatitudeDegrees>42.368388511240482330322265625</LatitudeDegrees>
              <LongitudeDegrees>2.6505146920680999755859375</LongitudeDegrees>
            </Position>
            <AltitudeMeters>851.20001220703125</AltitudeMeters>
            <DistanceMeters>NAN</DistanceMeters>
          </Trackpoint>
          <Trackpoint>
            <Time>2021-04-01T16:04:26.000Z</Time>
            <Position>
              <LatitudeDegrees>42.3683826439082622528076171875</LatitudeDegrees>
              <LongitudeDegrees>2.65048812143504619598388671875</LongitudeDegrees>
            </Position>
            <AltitudeMeters>851</AltitudeMeters>
            <DistanceMeters>NAN</DistanceMeters>
          </Trackpoint>
          <Trackpoint>
            <Time>2021-04-01T16:04:30.000Z</Time>
            <Position>
              <LatitudeDegrees>42.3683833144605159759521484375</LatitudeDegrees>
              <LongitudeDegrees>2.65044428408145904541015625</LongitudeDegrees>
            </Position>
            <AltitudeMeters>850.79998779296875</AltitudeMeters>
            <DistanceMeters>NAN</DistanceMeters>
          </Trackpoint>
          <Trackpoint>
            <Time>2021-04-01T16:04:31.000Z</Time>
            <Position>
              <LatitudeDegrees>42.36838339827954769134521484375</LatitudeDegrees>
              <LongitudeDegrees>2.6504095830023288726806640625</LongitudeDegrees>
            </Position>
            <AltitudeMeters>850.79998779296875</AltitudeMeters>
            <DistanceMeters>NAN</DistanceMeters>
          </Trackpoint>
          <Trackpoint>
            <Time>2021-04-01T16:04:32.000Z</Time>
            <Position>
              <LatitudeDegrees>42.36838574521243572235107421875</LatitudeDegrees>
              <LongitudeDegrees>2.6503924839198589324951171875</LongitudeDegrees>
            </Position>
            <AltitudeMeters>850.5999755859375</AltitudeMeters>
            <DistanceMeters>NAN</DistanceMeters>
          </Trackpoint>
          <Trackpoint>
            <Time>2021-04-01T16:04:35.000Z</Time>
            <Position>
              <LatitudeDegrees>42.36838155426084995269775390625</LatitudeDegrees>
              <LongitudeDegrees>2.65035183168947696685791015625</LongitudeDegrees>
            </Position>
            <AltitudeMeters>850.5999755859375</AltitudeMeters>
            <DistanceMeters>NAN</DistanceMeters>
          </Trackpoint>
          <Trackpoint>
            <Time>2021-04-01T16:04:40.000Z</Time>
            <Position>
              <LatitudeDegrees>42.36837551929056644439697265625</LatitudeDegrees>
              <LongitudeDegrees>2.65030405484139919281005859375</LongitudeDegrees>
            </Position>
            <AltitudeMeters>850.4000244140625</AltitudeMeters>
            <DistanceMeters>NAN</DistanceMeters>
          </Trackpoint>
          <Trackpoint>
            <Time>2021-04-01T16:04:42.000Z</Time>
            <Position>
              <LatitudeDegrees>42.368382476270198822021484375</LatitudeDegrees>
              <LongitudeDegrees>2.6503136940300464630126953125</LongitudeDegrees>
            </Position>
            <AltitudeMeters>850.4000244140625</AltitudeMeters>
            <DistanceMeters>NAN</DistanceMeters>
          </Trackpoint>
          <Trackpoint>
            <Time>2021-04-01T16:04:45.000Z</Time>
            <Position>
              <LatitudeDegrees>42.368383817374706268310546875</LatitudeDegrees>
              <LongitudeDegrees>2.65031419694423675537109375</LongitudeDegrees>
            </Position>
            <AltitudeMeters>850.4000244140625</AltitudeMeters>
            <DistanceMeters>NAN</DistanceMeters>
          </Trackpoint>
          <Trackpoint>
            <Time>2021-04-01T16:04:48.000Z</Time>
            <Position>
              <LatitudeDegrees>42.36838188953697681427001953125</LatitudeDegrees>
              <LongitudeDegrees>2.6503146998584270477294921875</LongitudeDegrees>
            </Position>
            <AltitudeMeters>850.20001220703125</AltitudeMeters>
            <DistanceMeters>NAN</DistanceMeters>
          </Trackpoint>
          <Trackpoint>
            <Time>2021-04-01T16:04:49.000Z</Time>
            <Position>
              <LatitudeDegrees>42.3683766089379787445068359375</LatitudeDegrees>
              <LongitudeDegrees>2.650307826697826385498046875</LongitudeDegrees>
            </Position>
            <AltitudeMeters>850.20001220703125</AltitudeMeters>
            <DistanceMeters>NAN</DistanceMeters>
          </Trackpoint>
          <Trackpoint>
            <Time>2021-04-01T16:04:51.000Z</Time>
            <Position>
              <LatitudeDegrees>42.3683712445199489593505859375</LatitudeDegrees>
              <LongitudeDegrees>2.650297097861766815185546875</LongitudeDegrees>
            </Position>
            <AltitudeMeters>850.20001220703125</AltitudeMeters>
            <DistanceMeters>NAN</DistanceMeters>
          </Trackpoint>
          <Trackpoint>
            <Time>2021-04-01T16:04:55.000Z</Time>
            <Position>
              <LatitudeDegrees>42.368360348045825958251953125</LatitudeDegrees>
              <LongitudeDegrees>2.65027555637061595916748046875</LongitudeDegrees>
            </Position>
            <AltitudeMeters>850</AltitudeMeters>
            <DistanceMeters>NAN</DistanceMeters>
          </Trackpoint>
          <Trackpoint>
            <Time>2021-04-01T16:04:58.000Z</Time>
            <Position>
              <LatitudeDegrees>42.36835657618939876556396484375</LatitudeDegrees>
              <LongitudeDegrees>2.650271616876125335693359375</LongitudeDegrees>
            </Position>
            <AltitudeMeters>849.79998779296875</AltitudeMeters>
            <DistanceMeters>NAN</DistanceMeters>
          </Trackpoint>
          <Trackpoint>
            <Time>2021-04-01T16:05:04.000Z</Time>
            <Position>
              <LatitudeDegrees>42.368353307247161865234375</LatitudeDegrees>
              <LongitudeDegrees>2.6502687670290470123291015625</LongitudeDegrees>
            </Position>
            <AltitudeMeters>849.5999755859375</AltitudeMeters>
            <DistanceMeters>NAN</DistanceMeters>
          </Trackpoint>
          <Trackpoint>
            <Time>2021-04-01T16:05:08.000Z</Time>
            <Position>
              <LatitudeDegrees>42.3683092184364795684814453125</LatitudeDegrees>
              <LongitudeDegrees>2.65023532323539257049560546875</LongitudeDegrees>
            </Position>
            <AltitudeMeters>849.4000244140625</AltitudeMeters>
            <DistanceMeters>NAN</DistanceMeters>
          </Trackpoint>
          <Trackpoint>
            <Time>2021-04-01T16:05:13.000Z</Time>
            <Position>
              <LatitudeDegrees>42.36824928782880306243896484375</LatitudeDegrees>
              <LongitudeDegrees>2.6501970179378986358642578125</LongitudeDegrees>
            </Position>
            <AltitudeMeters>848.5999755859375</AltitudeMeters>
            <DistanceMeters>NAN</DistanceMeters>
          </Trackpoint>
          <Trackpoint>
            <Time>2021-04-01T16:05:16.000Z</Time>
            <Position>
              <LatitudeDegrees>42.36822313629090785980224609375</LatitudeDegrees>
              <LongitudeDegrees>2.65017480589449405670166015625</LongitudeDegrees>
            </Position>
            <AltitudeMeters>848.20001220703125</AltitudeMeters>
            <DistanceMeters>NAN</DistanceMeters>
          </Trackpoint>
          <Trackpoint>
            <Time>2021-04-01T16:05:21.000Z</Time>
            <Position>
              <LatitudeDegrees>42.36817921511828899383544921875</LatitudeDegrees>
              <LongitudeDegrees>2.6501494087278842926025390625</LongitudeDegrees>
            </Position>
            <AltitudeMeters>847.5999755859375</AltitudeMeters>
            <DistanceMeters>NAN</DistanceMeters>
          </Trackpoint>
          <Trackpoint>
            <Time>2021-04-01T16:05:25.000Z</Time>
            <Position>
              <LatitudeDegrees>42.36813395284116268157958984375</LatitudeDegrees>
              <LongitudeDegrees>2.65013742260634899139404296875</LongitudeDegrees>
            </Position>
            <AltitudeMeters>846.79998779296875</AltitudeMeters>
            <DistanceMeters>NAN</DistanceMeters>
          </Trackpoint>
          <Trackpoint>
            <Time>2021-04-01T16:05:27.000Z</Time>
            <Position>
              <LatitudeDegrees>42.36811551265418529510498046875</LatitudeDegrees>
              <LongitudeDegrees>2.65013021416962146759033203125</LongitudeDegrees>
            </Position>
            <AltitudeMeters>846.5999755859375</AltitudeMeters>
            <DistanceMeters>NAN</DistanceMeters>
          </Trackpoint>
          <Trackpoint>
            <Time>2021-04-01T16:05:33.000Z</Time>
            <Position>
              <LatitudeDegrees>42.368055917322635650634765625</LatitudeDegrees>
              <LongitudeDegrees>2.6501245982944965362548828125</LongitudeDegrees>
            </Position>
            <AltitudeMeters>845.4000244140625</AltitudeMeters>
            <DistanceMeters>NAN</DistanceMeters>
          </Trackpoint>
          <Trackpoint>
            <Time>2021-04-01T16:05:36.000Z</Time>
            <Position>
              <LatitudeDegrees>42.36802599392831325531005859375</LatitudeDegrees>
              <LongitudeDegrees>2.65012149699032306671142578125</LongitudeDegrees>
            </Position>
            <AltitudeMeters>845</AltitudeMeters>
            <DistanceMeters>NAN</DistanceMeters>
          </Trackpoint>
          <Trackpoint>
            <Time>2021-04-01T16:05:44.000Z</Time>
            <Position>
              <LatitudeDegrees>42.36798173747956752777099609375</LatitudeDegrees>
              <LongitudeDegrees>2.6501520909368991851806640625</LongitudeDegrees>
            </Position>
            <AltitudeMeters>844.79998779296875</AltitudeMeters>
            <DistanceMeters>NAN</DistanceMeters>
          </Trackpoint>
          <Trackpoint>
            <Time>2021-04-01T16:05:47.000Z</Time>
            <Position>
              <LatitudeDegrees>42.36798249185085296630859375</LatitudeDegrees>
              <LongitudeDegrees>2.650136165320873260498046875</LongitudeDegrees>
            </Position>
            <AltitudeMeters>844.5999755859375</AltitudeMeters>
            <DistanceMeters>NAN</DistanceMeters>
          </Trackpoint>
          <Trackpoint>
            <Time>2021-04-01T16:05:50.000Z</Time>
            <Position>
              <LatitudeDegrees>42.36800420098006725311279296875</LatitudeDegrees>
              <LongitudeDegrees>2.65014681033790111541748046875</LongitudeDegrees>
            </Position>
            <AltitudeMeters>844.5999755859375</AltitudeMeters>
            <DistanceMeters>NAN</DistanceMeters>
          </Trackpoint>
          <Trackpoint>
            <Time>2021-04-01T16:05:59.000Z</Time>
            <Position>
              <LatitudeDegrees>42.36798156984150409698486328125</LatitudeDegrees>
              <LongitudeDegrees>2.6501594670116901397705078125</LongitudeDegrees>
            </Position>
            <AltitudeMeters>844.5999755859375</AltitudeMeters>
            <DistanceMeters>NAN</DistanceMeters>
          </Trackpoint>
          <Trackpoint>
            <Time>2021-04-01T16:06:00.000Z</Time>
            <Position>
              <LatitudeDegrees>42.36798156984150409698486328125</LatitudeDegrees>
              <LongitudeDegrees>2.6501594670116901397705078125</LongitudeDegrees>
            </Position>
            <AltitudeMeters>844.5999755859375</AltitudeMeters>
            <DistanceMeters>NAN</DistanceMeters>
          </Trackpoint>
          <Trackpoint>
            <Time>2021-04-01T16:06:01.000Z</Time>
            <Position>
              <LatitudeDegrees>42.36798156984150409698486328125</LatitudeDegrees>
              <LongitudeDegrees>2.6501594670116901397705078125</LongitudeDegrees>
            </Position>
            <AltitudeMeters>844.5999755859375</AltitudeMeters>
            <DistanceMeters>NAN</DistanceMeters>
          </Trackpoint>
          <Trackpoint>
            <Time>2021-04-01T16:06:14.000Z</Time>
            <Position>
              <LatitudeDegrees>42.36802297644317150115966796875</LatitudeDegrees>
              <LongitudeDegrees>2.6501242630183696746826171875</LongitudeDegrees>
            </Position>
            <AltitudeMeters>845.4000244140625</AltitudeMeters>
            <DistanceMeters>NAN</DistanceMeters>
          </Trackpoint>
          <Trackpoint>
            <Time>2021-04-01T16:06:23.000Z</Time>
            <Position>
              <LatitudeDegrees>42.36805600114166736602783203125</LatitudeDegrees>
              <LongitudeDegrees>2.65008620917797088623046875</LongitudeDegrees>
            </Position>
            <AltitudeMeters>845.5999755859375</AltitudeMeters>
            <DistanceMeters>NAN</DistanceMeters>
          </Trackpoint>
          <Trackpoint>
            <Time>2021-04-01T16:06:28.000Z</Time>
            <Position>
              <LatitudeDegrees>42.36804745160043239593505859375</LatitudeDegrees>
              <LongitudeDegrees>2.65008511953055858612060546875</LongitudeDegrees>
            </Position>
            <AltitudeMeters>845.5999755859375</AltitudeMeters>
            <DistanceMeters>NAN</DistanceMeters>
          </Trackpoint>
          <Trackpoint>
            <Time>2021-04-01T16:06:36.000Z</Time>
            <Position>
              <LatitudeDegrees>42.36804745160043239593505859375</LatitudeDegrees>
              <LongitudeDegrees>2.65008511953055858612060546875</LongitudeDegrees>
            </Position>
            <AltitudeMeters>845.4000244140625</AltitudeMeters>
            <DistanceMeters>NAN</DistanceMeters>
          </Trackpoint>
          <Trackpoint>
            <Time>2021-04-01T16:06:41.000Z</Time>
            <Position>
              <LatitudeDegrees>42.3680580966174602508544921875</LatitudeDegrees>
              <LongitudeDegrees>2.65008511953055858612060546875</LongitudeDegrees>
            </Position>
            <AltitudeMeters>845.5999755859375</AltitudeMeters>
            <DistanceMeters>NAN</DistanceMeters>
          </Trackpoint>
          <Trackpoint>
            <Time>2021-04-01T16:07:11.000Z</Time>
            <Position>
              <LatitudeDegrees>42.3680198751389980316162109375</LatitudeDegrees>
              <LongitudeDegrees>2.6501111872494220733642578125</LongitudeDegrees>
            </Position>
            <AltitudeMeters>845.20001220703125</AltitudeMeters>
            <DistanceMeters>NAN</DistanceMeters>
          </Trackpoint>
          <Trackpoint>
            <Time>2021-04-01T16:07:18.000Z</Time>
            <Position>
              <LatitudeDegrees>42.3679249919950962066650390625</LatitudeDegrees>
              <LongitudeDegrees>2.6501933299005031585693359375</LongitudeDegrees>
            </Position>
            <AltitudeMeters>845</AltitudeMeters>
            <DistanceMeters>NAN</DistanceMeters>
          </Trackpoint>
          <Trackpoint>
            <Time>2021-04-01T16:07:19.000Z</Time>
            <Position>
              <LatitudeDegrees>42.36791484989225864410400390625</LatitudeDegrees>
              <LongitudeDegrees>2.65020280145108699798583984375</LongitudeDegrees>
            </Position>
            <AltitudeMeters>845</AltitudeMeters>
            <DistanceMeters>NAN</DistanceMeters>
          </Trackpoint>
          <Trackpoint>
            <Time>2021-04-01T16:07:29.000Z</Time>
            <Position>
              <LatitudeDegrees>42.36780856736004352569580078125</LatitudeDegrees>
              <LongitudeDegrees>2.65020414255559444427490234375</LongitudeDegrees>
            </Position>
            <AltitudeMeters>844.5999755859375</AltitudeMeters>
            <DistanceMeters>NAN</DistanceMeters>
          </Trackpoint>
          <Trackpoint>
            <Time>2021-04-01T16:07:35.000Z</Time>
            <Position>
              <LatitudeDegrees>42.3677151091396808624267578125</LatitudeDegrees>
              <LongitudeDegrees>2.65015318058431148529052734375</LongitudeDegrees>
            </Position>
            <AltitudeMeters>844.4000244140625</AltitudeMeters>
            <DistanceMeters>NAN</DistanceMeters>
          </Trackpoint>
          <Trackpoint>
            <Time>2021-04-01T16:07:38.000Z</Time>
            <Position>
              <LatitudeDegrees>42.36767864786088466644287109375</LatitudeDegrees>
              <LongitudeDegrees>2.65017095021903514862060546875</LongitudeDegrees>
            </Position>
            <AltitudeMeters>844.20001220703125</AltitudeMeters>
            <DistanceMeters>NAN</DistanceMeters>
          </Trackpoint>
          <Trackpoint>
            <Time>2021-04-01T16:07:41.000Z</Time>
            <Position>
              <LatitudeDegrees>42.36765467561781406402587890625</LatitudeDegrees>
              <LongitudeDegrees>2.65018721111118793487548828125</LongitudeDegrees>
            </Position>
            <AltitudeMeters>844</AltitudeMeters>
            <DistanceMeters>NAN</DistanceMeters>
          </Trackpoint>
          <Trackpoint>
            <Time>2021-04-01T16:07:45.000Z</Time>
            <Position>
              <LatitudeDegrees>42.36763573251664638519287109375</LatitudeDegrees>
              <LongitudeDegrees>2.65018067322671413421630859375</LongitudeDegrees>
            </Position>
            <AltitudeMeters>843.5999755859375</AltitudeMeters>
            <DistanceMeters>NAN</DistanceMeters>
          </Trackpoint>
          <Trackpoint>
            <Time>2021-04-01T16:07:49.000Z</Time>
            <Position>
              <LatitudeDegrees>42.3676021210849285125732421875</LatitudeDegrees>
              <LongitudeDegrees>2.65016742981970310211181640625</LongitudeDegrees>
            </Position>
            <AltitudeMeters>843.20001220703125</AltitudeMeters>
            <DistanceMeters>NAN</DistanceMeters>
          </Trackpoint>
          <Trackpoint>
            <Time>2021-04-01T16:07:53.000Z</Time>
            <Position>
              <LatitudeDegrees>42.367554008960723876953125</LatitudeDegrees>
              <LongitudeDegrees>2.6501606404781341552734375</LongitudeDegrees>
            </Position>
            <AltitudeMeters>842</AltitudeMeters>
            <DistanceMeters>NAN</DistanceMeters>
          </Trackpoint>
          <Trackpoint>
            <Time>2021-04-01T16:07:56.000Z</Time>
            <Position>
              <LatitudeDegrees>42.36753682605922222137451171875</LatitudeDegrees>
              <LongitudeDegrees>2.65019760467112064361572265625</LongitudeDegrees>
            </Position>
            <AltitudeMeters>841.20001220703125</AltitudeMeters>
            <DistanceMeters>NAN</DistanceMeters>
          </Trackpoint>
          <Trackpoint>
            <Time>2021-04-01T16:07:57.000Z</Time>
            <Position>
              <LatitudeDegrees>42.3675290308892726898193359375</LatitudeDegrees>
              <LongitudeDegrees>2.65019307844340801239013671875</LongitudeDegrees>
            </Position>
            <AltitudeMeters>841</AltitudeMeters>
            <DistanceMeters>NAN</DistanceMeters>
          </Trackpoint>
          <Trackpoint>
            <Time>2021-04-01T16:07:58.000Z</Time>
            <Position>
              <LatitudeDegrees>42.3675196431577205657958984375</LatitudeDegrees>
              <LongitudeDegrees>2.6501896418631076812744140625</LongitudeDegrees>
            </Position>
            <AltitudeMeters>841</AltitudeMeters>
            <DistanceMeters>NAN</DistanceMeters>
          </Trackpoint>
          <Trackpoint>
            <Time>2021-04-01T16:07:59.000Z</Time>
            <Position>
              <LatitudeDegrees>42.36751654185354709625244140625</LatitudeDegrees>
              <LongitudeDegrees>2.65018117614090442657470703125</LongitudeDegrees>
            </Position>
            <AltitudeMeters>841</AltitudeMeters>
            <DistanceMeters>NAN</DistanceMeters>
          </Trackpoint>
          <Trackpoint>
            <Time>2021-04-01T16:08:02.000Z</Time>
            <Position>
              <LatitudeDegrees>42.3674874566495418548583984375</LatitudeDegrees>
              <LongitudeDegrees>2.65016290359199047088623046875</LongitudeDegrees>
            </Position>
            <AltitudeMeters>840.5999755859375</AltitudeMeters>
            <DistanceMeters>NAN</DistanceMeters>
          </Trackpoint>
          <Trackpoint>
            <Time>2021-04-01T16:08:06.000Z</Time>
            <Position>
              <LatitudeDegrees>42.36745267175137996673583984375</LatitudeDegrees>
              <LongitudeDegrees>2.650154270231723785400390625</LongitudeDegrees>
            </Position>
            <AltitudeMeters>840.4000244140625</AltitudeMeters>
            <DistanceMeters>NAN</DistanceMeters>
          </Trackpoint>
          <Trackpoint>
            <Time>2021-04-01T16:08:08.000Z</Time>
            <Position>
              <LatitudeDegrees>42.36742920242249965667724609375</LatitudeDegrees>
              <LongitudeDegrees>2.65012619085609912872314453125</LongitudeDegrees>
            </Position>
            <AltitudeMeters>840.4000244140625</AltitudeMeters>
            <DistanceMeters>NAN</DistanceMeters>
          </Trackpoint>
          <Trackpoint>
            <Time>2021-04-01T16:08:12.000Z</Time>
            <Position>
              <LatitudeDegrees>42.36739248968660831451416015625</LatitudeDegrees>
              <LongitudeDegrees>2.6501014642417430877685546875</LongitudeDegrees>
            </Position>
            <AltitudeMeters>840.4000244140625</AltitudeMeters>
            <DistanceMeters>NAN</DistanceMeters>
          </Trackpoint>
          <Trackpoint>
            <Time>2021-04-01T16:08:15.000Z</Time>
            <Position>
              <LatitudeDegrees>42.3673717863857746124267578125</LatitudeDegrees>
              <LongitudeDegrees>2.65010942704975605010986328125</LongitudeDegrees>
            </Position>
            <AltitudeMeters>840.4000244140625</AltitudeMeters>
            <DistanceMeters>NAN</DistanceMeters>
          </Trackpoint>
          <Trackpoint>
            <Time>2021-04-01T16:08:18.000Z</Time>
            <Position>
              <LatitudeDegrees>42.36735778860747814178466796875</LatitudeDegrees>
              <LongitudeDegrees>2.65011160634458065032958984375</LongitudeDegrees>
            </Position>
            <AltitudeMeters>840.20001220703125</AltitudeMeters>
            <DistanceMeters>NAN</DistanceMeters>
          </Trackpoint>
          <Trackpoint>
            <Time>2021-04-01T16:08:21.000Z</Time>
            <Position>
              <LatitudeDegrees>42.36734907142817974090576171875</LatitudeDegrees>
              <LongitudeDegrees>2.6501190662384033203125</LongitudeDegrees>
            </Position>
            <AltitudeMeters>840.20001220703125</AltitudeMeters>
            <DistanceMeters>NAN</DistanceMeters>
          </Trackpoint>
          <Trackpoint>
            <Time>2021-04-01T16:08:22.000Z</Time>
            <Position>
              <LatitudeDegrees>42.367341779172420501708984375</LatitudeDegrees>
              <LongitudeDegrees>2.65012619085609912872314453125</LongitudeDegrees>
            </Position>
            <AltitudeMeters>840.20001220703125</AltitudeMeters>
            <DistanceMeters>NAN</DistanceMeters>
          </Trackpoint>
          <Trackpoint>
            <Time>2021-04-01T16:08:23.000Z</Time>
            <Position>
              <LatitudeDegrees>42.36733431927859783172607421875</LatitudeDegrees>
              <LongitudeDegrees>2.65013557858765125274658203125</LongitudeDegrees>
            </Position>
            <AltitudeMeters>840.20001220703125</AltitudeMeters>
            <DistanceMeters>NAN</DistanceMeters>
          </Trackpoint>
          <Trackpoint>
            <Time>2021-04-01T16:08:26.000Z</Time>
            <Position>
              <LatitudeDegrees>42.36731956712901592254638671875</LatitudeDegrees>
              <LongitudeDegrees>2.6501403562724590301513671875</LongitudeDegrees>
            </Position>
            <AltitudeMeters>840.20001220703125</AltitudeMeters>
            <DistanceMeters>NAN</DistanceMeters>
          </Trackpoint>
          <Trackpoint>
            <Time>2021-04-01T16:08:27.000Z</Time>
            <Position>
              <LatitudeDegrees>42.3673193156719207763671875</LatitudeDegrees>
              <LongitudeDegrees>2.65014194883406162261962890625</LongitudeDegrees>
            </Position>
            <AltitudeMeters>840.20001220703125</AltitudeMeters>
            <DistanceMeters>NAN</DistanceMeters>
          </Trackpoint>
          <Trackpoint>
            <Time>2021-04-01T16:08:33.000Z</Time>
            <Position>
              <LatitudeDegrees>42.3673080839216709136962890625</LatitudeDegrees>
              <LongitudeDegrees>2.65020866878330707550048828125</LongitudeDegrees>
            </Position>
            <AltitudeMeters>840</AltitudeMeters>
            <DistanceMeters>NAN</DistanceMeters>
          </Trackpoint>
          <Trackpoint>
            <Time>2021-04-01T16:08:34.000Z</Time>
            <Position>
              <LatitudeDegrees>42.36730062402784824371337890625</LatitudeDegrees>
              <LongitudeDegrees>2.6502157934010028839111328125</LongitudeDegrees>
            </Position>
            <AltitudeMeters>840</AltitudeMeters>
            <DistanceMeters>NAN</DistanceMeters>
          </Trackpoint>
          <Trackpoint>
            <Time>2021-04-01T16:08:41.000Z</Time>
            <Position>
              <LatitudeDegrees>42.3672678507864475250244140625</LatitudeDegrees>
              <LongitudeDegrees>2.6502543501555919647216796875</LongitudeDegrees>
            </Position>
            <AltitudeMeters>839.79998779296875</AltitudeMeters>
            <DistanceMeters>NAN</DistanceMeters>
          </Trackpoint>
          <Trackpoint>
            <Time>2021-04-01T16:08:42.000Z</Time>
            <Position>
              <LatitudeDegrees>42.3672631569206714630126953125</LatitudeDegrees>
              <LongitudeDegrees>2.65024839900434017181396484375</LongitudeDegrees>
            </Position>
            <AltitudeMeters>839.79998779296875</AltitudeMeters>
            <DistanceMeters>NAN</DistanceMeters>
          </Trackpoint>
          <Trackpoint>
            <Time>2021-04-01T16:08:49.000Z</Time>
            <Position>
              <LatitudeDegrees>42.36720993183553218841552734375</LatitudeDegrees>
              <LongitudeDegrees>2.65019073151051998138427734375</LongitudeDegrees>
            </Position>
            <AltitudeMeters>839.4000244140625</AltitudeMeters>
            <DistanceMeters>NAN</DistanceMeters>
          </Trackpoint>
          <Trackpoint>
            <Time>2021-04-01T16:08:57.000Z</Time>
            <Position>
              <LatitudeDegrees>42.36715058796107769012451171875</LatitudeDegrees>
              <LongitudeDegrees>2.650126777589321136474609375</LongitudeDegrees>
            </Position>
            <AltitudeMeters>838.79998779296875</AltitudeMeters>
            <DistanceMeters>NAN</DistanceMeters>
          </Trackpoint>
          <Trackpoint>
            <Time>2021-04-01T16:08:59.000Z</Time>
            <Position>
              <LatitudeDegrees>42.3671374283730983734130859375</LatitudeDegrees>
              <LongitudeDegrees>2.65011378563940525054931640625</LongitudeDegrees>
            </Position>
            <AltitudeMeters>838.79998779296875</AltitudeMeters>
            <DistanceMeters>NAN</DistanceMeters>
          </Trackpoint>
          <Trackpoint>
            <Time>2021-04-01T16:09:04.000Z</Time>
            <Position>
              <LatitudeDegrees>42.367098033428192138671875</LatitudeDegrees>
              <LongitudeDegrees>2.65008176676928997039794921875</LongitudeDegrees>
            </Position>
            <AltitudeMeters>838.5999755859375</AltitudeMeters>
            <DistanceMeters>NAN</DistanceMeters>
          </Trackpoint>
          <Trackpoint>
            <Time>2021-04-01T16:09:12.000Z</Time>
            <Position>
              <LatitudeDegrees>42.36706257797777652740478515625</LatitudeDegrees>
              <LongitudeDegrees>2.65004522167146205902099609375</LongitudeDegrees>
            </Position>
            <AltitudeMeters>838.20001220703125</AltitudeMeters>
            <DistanceMeters>NAN</DistanceMeters>
          </Trackpoint>
          <Trackpoint>
            <Time>2021-04-01T16:09:15.000Z</Time>
            <Position>
              <LatitudeDegrees>42.36705486662685871124267578125</LatitudeDegrees>
              <LongitudeDegrees>2.6500320620834827423095703125</LongitudeDegrees>
            </Position>
            <AltitudeMeters>838</AltitudeMeters>
            <DistanceMeters>NAN</DistanceMeters>
          </Trackpoint>
          <Trackpoint>
            <Time>2021-04-01T16:09:18.000Z</Time>
            <Position>
              <LatitudeDegrees>42.36706383526325225830078125</LatitudeDegrees>
              <LongitudeDegrees>2.6500075869262218475341796875</LongitudeDegrees>
            </Position>
            <AltitudeMeters>838</AltitudeMeters>
            <DistanceMeters>NAN</DistanceMeters>
          </Trackpoint>
          <Trackpoint>
            <Time>2021-04-01T16:09:21.000Z</Time>
            <Position>
              <LatitudeDegrees>42.36706995405256748199462890625</LatitudeDegrees>
              <LongitudeDegrees>2.65000398270785808563232421875</LongitudeDegrees>
            </Position>
            <AltitudeMeters>837.79998779296875</AltitudeMeters>
            <DistanceMeters>NAN</DistanceMeters>
          </Trackpoint>
          <Trackpoint>
            <Time>2021-04-01T16:44:00.000Z</Time>
            <Position>
              <LatitudeDegrees>42.36726097762584686279296875</LatitudeDegrees>
              <LongitudeDegrees>2.64949285425245761871337890625</LongitudeDegrees>
            </Position>
            <AltitudeMeters>833.4000244140625</AltitudeMeters>
            <DistanceMeters>NAN</DistanceMeters>
          </Trackpoint>
          <Trackpoint>
            <Time>2021-04-01T16:44:03.000Z</Time>
            <Position>
              <LatitudeDegrees>42.3672497458755970001220703125</LatitudeDegrees>
              <LongitudeDegrees>2.64952587895095348358154296875</LongitudeDegrees>
            </Position>
            <AltitudeMeters>833.4000244140625</AltitudeMeters>
            <DistanceMeters>NAN</DistanceMeters>
          </Trackpoint>
          <Trackpoint>
            <Time>2021-04-01T16:44:06.000Z</Time>
            <Position>
              <LatitudeDegrees>42.3672192357480525970458984375</LatitudeDegrees>
              <LongitudeDegrees>2.64953945763409137725830078125</LongitudeDegrees>
            </Position>
            <AltitudeMeters>833.4000244140625</AltitudeMeters>
            <DistanceMeters>NAN</DistanceMeters>
          </Trackpoint>
          <Trackpoint>
            <Time>2021-04-01T16:44:09.000Z</Time>
            <Position>
              <LatitudeDegrees>42.3672031424939632415771484375</LatitudeDegrees>
              <LongitudeDegrees>2.6495234481990337371826171875</LongitudeDegrees>
            </Position>
            <AltitudeMeters>833.4000244140625</AltitudeMeters>
            <DistanceMeters>NAN</DistanceMeters>
          </Trackpoint>
          <Trackpoint>
            <Time>2021-04-01T16:44:10.000Z</Time>
            <Position>
              <LatitudeDegrees>42.36719450913369655609130859375</LatitudeDegrees>
              <LongitudeDegrees>2.64952051453292369842529296875</LongitudeDegrees>
            </Position>
            <AltitudeMeters>833.4000244140625</AltitudeMeters>
            <DistanceMeters>NAN</DistanceMeters>
          </Trackpoint>
          <Trackpoint>
            <Time>2021-04-01T16:44:16.000Z</Time>
            <Position>
              <LatitudeDegrees>42.36713767983019351959228515625</LatitudeDegrees>
              <LongitudeDegrees>2.6494915969669818878173828125</LongitudeDegrees>
            </Position>
            <AltitudeMeters>833.20001220703125</AltitudeMeters>
            <DistanceMeters>NAN</DistanceMeters>
          </Trackpoint>
          <Trackpoint>
            <Time>2021-04-01T16:44:23.000Z</Time>
            <Position>
              <LatitudeDegrees>42.36710566096007823944091796875</LatitudeDegrees>
              <LongitudeDegrees>2.6494701392948627471923828125</LongitudeDegrees>
            </Position>
            <AltitudeMeters>833</AltitudeMeters>
            <DistanceMeters>NAN</DistanceMeters>
          </Trackpoint>
          <Trackpoint>
            <Time>2021-04-01T16:44:26.000Z</Time>
            <Position>
              <LatitudeDegrees>42.36707917414605617523193359375</LatitudeDegrees>
              <LongitudeDegrees>2.64948598109185695648193359375</LongitudeDegrees>
            </Position>
            <AltitudeMeters>833.20001220703125</AltitudeMeters>
            <DistanceMeters>NAN</DistanceMeters>
          </Trackpoint>
          <Trackpoint>
            <Time>2021-04-01T16:44:30.000Z</Time>
            <Position>
              <LatitudeDegrees>42.36705939285457134246826171875</LatitudeDegrees>
              <LongitudeDegrees>2.64950995333492755889892578125</LongitudeDegrees>
            </Position>
            <AltitudeMeters>833.4000244140625</AltitudeMeters>
            <DistanceMeters>NAN</DistanceMeters>
          </Trackpoint>
          <Trackpoint>
            <Time>2021-04-01T16:44:38.000Z</Time>
            <Position>
              <LatitudeDegrees>42.36700289882719516754150390625</LatitudeDegrees>
              <LongitudeDegrees>2.6495620049536228179931640625</LongitudeDegrees>
            </Position>
            <AltitudeMeters>834</AltitudeMeters>
            <DistanceMeters>NAN</DistanceMeters>
          </Trackpoint>
          <Trackpoint>
            <Time>2021-04-01T16:44:41.000Z</Time>
            <Position>
              <LatitudeDegrees>42.36698563210666179656982421875</LatitudeDegrees>
              <LongitudeDegrees>2.64957013539969921112060546875</LongitudeDegrees>
            </Position>
            <AltitudeMeters>834</AltitudeMeters>
            <DistanceMeters>NAN</DistanceMeters>
          </Trackpoint>
          <Trackpoint>
            <Time>2021-04-01T16:44:47.000Z</Time>
            <Position>
              <LatitudeDegrees>42.366954870522022247314453125</LatitudeDegrees>
              <LongitudeDegrees>2.6496255397796630859375</LongitudeDegrees>
            </Position>
            <AltitudeMeters>834.20001220703125</AltitudeMeters>
            <DistanceMeters>NAN</DistanceMeters>
          </Trackpoint>
          <Trackpoint>
            <Time>2021-04-01T16:44:53.000Z</Time>
            <Position>
              <LatitudeDegrees>42.3668950237333774566650390625</LatitudeDegrees>
              <LongitudeDegrees>2.64965236186981201171875</LongitudeDegrees>
            </Position>
            <AltitudeMeters>834.4000244140625</AltitudeMeters>
            <DistanceMeters>NAN</DistanceMeters>
          </Trackpoint>
          <Trackpoint>
            <Time>2021-04-01T16:44:58.000Z</Time>
            <Position>
              <LatitudeDegrees>42.366857640445232391357421875</LatitudeDegrees>
              <LongitudeDegrees>2.64966065995395183563232421875</LongitudeDegrees>
            </Position>
            <AltitudeMeters>834.4000244140625</AltitudeMeters>
            <DistanceMeters>NAN</DistanceMeters>
          </Trackpoint>
          <Trackpoint>
            <Time>2021-04-01T16:44:59.000Z</Time>
            <Position>
              <LatitudeDegrees>42.3668480850756168365478515625</LatitudeDegrees>
              <LongitudeDegrees>2.649670131504535675048828125</LongitudeDegrees>
            </Position>
            <AltitudeMeters>834.4000244140625</AltitudeMeters>
            <DistanceMeters>NAN</DistanceMeters>
          </Trackpoint>
          <Trackpoint>
            <Time>2021-04-01T16:45:04.000Z</Time>
            <Position>
              <LatitudeDegrees>42.366799972951412200927734375</LatitudeDegrees>
              <LongitudeDegrees>2.6496746577322483062744140625</LongitudeDegrees>
            </Position>
            <AltitudeMeters>834.79998779296875</AltitudeMeters>
            <DistanceMeters>NAN</DistanceMeters>
          </Trackpoint>
          <Trackpoint>
            <Time>2021-04-01T16:45:08.000Z</Time>
            <Position>
              <LatitudeDegrees>42.366765104234218597412109375</LatitudeDegrees>
              <LongitudeDegrees>2.6496719755232334136962890625</LongitudeDegrees>
            </Position>
            <AltitudeMeters>835.20001220703125</AltitudeMeters>
            <DistanceMeters>NAN</DistanceMeters>
          </Trackpoint>
          <Trackpoint>
            <Time>2021-04-01T16:45:10.000Z</Time>
            <Position>
              <LatitudeDegrees>42.366755716502666473388671875</LatitudeDegrees>
              <LongitudeDegrees>2.6496649347245693206787109375</LongitudeDegrees>
            </Position>
            <AltitudeMeters>835.20001220703125</AltitudeMeters>
            <DistanceMeters>NAN</DistanceMeters>
          </Trackpoint>
          <Trackpoint>
            <Time>2021-04-01T16:45:12.000Z</Time>
            <Position>
              <LatitudeDegrees>42.366742976009845733642578125</LatitudeDegrees>
              <LongitudeDegrees>2.64966334216296672821044921875</LongitudeDegrees>
            </Position>
            <AltitudeMeters>835.20001220703125</AltitudeMeters>
            <DistanceMeters>NAN</DistanceMeters>
          </Trackpoint>
          <Trackpoint>
            <Time>2021-04-01T16:45:16.000Z</Time>
            <Position>
              <LatitudeDegrees>42.36672076396644115447998046875</LatitudeDegrees>
              <LongitudeDegrees>2.64965613372623920440673828125</LongitudeDegrees>
            </Position>
            <AltitudeMeters>835.20001220703125</AltitudeMeters>
            <DistanceMeters>NAN</DistanceMeters>
          </Trackpoint>
          <Trackpoint>
            <Time>2021-04-01T16:45:17.000Z</Time>
            <Position>
              <LatitudeDegrees>42.36671657301485538482666015625</LatitudeDegrees>
              <LongitudeDegrees>2.649660743772983551025390625</LongitudeDegrees>
            </Position>
            <AltitudeMeters>835.4000244140625</AltitudeMeters>
            <DistanceMeters>NAN</DistanceMeters>
          </Trackpoint>
          <Trackpoint>
            <Time>2021-04-01T16:45:18.000Z</Time>
            <Position>
              <LatitudeDegrees>42.36670953221619129180908203125</LatitudeDegrees>
              <LongitudeDegrees>2.64966770075261592864990234375</LongitudeDegrees>
            </Position>
            <AltitudeMeters>835.4000244140625</AltitudeMeters>
            <DistanceMeters>NAN</DistanceMeters>
          </Trackpoint>
          <Trackpoint>
            <Time>2021-04-01T16:45:22.000Z</Time>
            <Position>
              <LatitudeDegrees>42.3666871525347232818603515625</LatitudeDegrees>
              <LongitudeDegrees>2.64970240183174610137939453125</LongitudeDegrees>
            </Position>
            <AltitudeMeters>835.79998779296875</AltitudeMeters>
            <DistanceMeters>NAN</DistanceMeters>
          </Trackpoint>
          <Trackpoint>
            <Time>2021-04-01T16:45:24.000Z</Time>
            <Position>
              <LatitudeDegrees>42.36667097546160221099853515625</LatitudeDegrees>
              <LongitudeDegrees>2.649721764028072357177734375</LongitudeDegrees>
            </Position>
            <AltitudeMeters>835.79998779296875</AltitudeMeters>
            <DistanceMeters>NAN</DistanceMeters>
          </Trackpoint>
          <Trackpoint>
            <Time>2021-04-01T16:45:28.000Z</Time>
            <Position>
              <LatitudeDegrees>42.36663644202053546905517578125</LatitudeDegrees>
              <LongitudeDegrees>2.64974699355661869049072265625</LongitudeDegrees>
            </Position>
            <AltitudeMeters>836</AltitudeMeters>
            <DistanceMeters>NAN</DistanceMeters>
          </Trackpoint>
          <Trackpoint>
            <Time>2021-04-01T16:45:33.000Z</Time>
            <Position>
              <LatitudeDegrees>42.366595454514026641845703125</LatitudeDegrees>
              <LongitudeDegrees>2.64977507293224334716796875</LongitudeDegrees>
            </Position>
            <AltitudeMeters>836</AltitudeMeters>
            <DistanceMeters>NAN</DistanceMeters>
          </Trackpoint>
          <Trackpoint>
            <Time>2021-04-01T16:45:35.000Z</Time>
            <Position>
              <LatitudeDegrees>42.366576679050922393798828125</LatitudeDegrees>
              <LongitudeDegrees>2.64978353865444660186767578125</LongitudeDegrees>
            </Position>
            <AltitudeMeters>835.79998779296875</AltitudeMeters>
            <DistanceMeters>NAN</DistanceMeters>
          </Trackpoint>
          <Trackpoint>
            <Time>2021-04-01T16:45:38.000Z</Time>
            <Position>
              <LatitudeDegrees>42.3665503598749637603759765625</LatitudeDegrees>
              <LongitudeDegrees>2.64979125000536441802978515625</LongitudeDegrees>
            </Position>
            <AltitudeMeters>835.4000244140625</AltitudeMeters>
            <DistanceMeters>NAN</DistanceMeters>
          </Trackpoint>
          <Trackpoint>
            <Time>2021-04-01T16:45:40.000Z</Time>
            <Position>
              <LatitudeDegrees>42.36653451807796955108642578125</LatitudeDegrees>
              <LongitudeDegrees>2.64980013482272624969482421875</LongitudeDegrees>
            </Position>
            <AltitudeMeters>835.4000244140625</AltitudeMeters>
            <DistanceMeters>NAN</DistanceMeters>
          </Trackpoint>
          <Trackpoint>
            <Time>2021-04-01T16:45:42.000Z</Time>
            <Position>
              <LatitudeDegrees>42.36651289276778697967529296875</LatitudeDegrees>
              <LongitudeDegrees>2.649809606373310089111328125</LongitudeDegrees>
            </Position>
            <AltitudeMeters>835.4000244140625</AltitudeMeters>
            <DistanceMeters>NAN</DistanceMeters>
          </Trackpoint>
          <Trackpoint>
            <Time>2021-04-01T16:45:44.000Z</Time>
            <Position>
              <LatitudeDegrees>42.3664950393140316009521484375</LatitudeDegrees>
              <LongitudeDegrees>2.64982142485678195953369140625</LongitudeDegrees>
            </Position>
            <AltitudeMeters>835.4000244140625</AltitudeMeters>
            <DistanceMeters>NAN</DistanceMeters>
          </Trackpoint>
          <Trackpoint>
            <Time>2021-04-01T16:45:54.000Z</Time>
            <Position>
              <LatitudeDegrees>42.3664073646068572998046875</LatitudeDegrees>
              <LongitudeDegrees>2.64988143928349018096923828125</LongitudeDegrees>
            </Position>
            <AltitudeMeters>835.20001220703125</AltitudeMeters>
            <DistanceMeters>NAN</DistanceMeters>
          </Trackpoint>
          <Trackpoint>
            <Time>2021-04-01T16:46:01.000Z</Time>
            <Position>
              <LatitudeDegrees>42.36635883338749408721923828125</LatitudeDegrees>
              <LongitudeDegrees>2.64991815201938152313232421875</LongitudeDegrees>
            </Position>
            <AltitudeMeters>835.4000244140625</AltitudeMeters>
            <DistanceMeters>NAN</DistanceMeters>
          </Trackpoint>
          <Trackpoint>
            <Time>2021-04-01T16:46:12.000Z</Time>
            <Position>
              <LatitudeDegrees>42.366260848939418792724609375</LatitudeDegrees>
              <LongitudeDegrees>2.6500126160681247711181640625</LongitudeDegrees>
            </Position>
            <AltitudeMeters>835.5999755859375</AltitudeMeters>
            <DistanceMeters>NAN</DistanceMeters>
          </Trackpoint>
          <Trackpoint>
            <Time>2021-04-01T16:46:20.000Z</Time>
            <Position>
              <LatitudeDegrees>42.3661865852773189544677734375</LatitudeDegrees>
              <LongitudeDegrees>2.65005762688815593719482421875</LongitudeDegrees>
            </Position>
            <AltitudeMeters>836</AltitudeMeters>
            <DistanceMeters>NAN</DistanceMeters>
          </Trackpoint>
          <Trackpoint>
            <Time>2021-04-01T16:46:32.000Z</Time>
            <Position>
              <LatitudeDegrees>42.36604870297014713287353515625</LatitudeDegrees>
              <LongitudeDegrees>2.65008218586444854736328125</LongitudeDegrees>
            </Position>
            <AltitudeMeters>835.79998779296875</AltitudeMeters>
            <DistanceMeters>NAN</DistanceMeters>
          </Trackpoint>
          <Trackpoint>
            <Time>2021-04-01T16:46:34.000Z</Time>
            <Position>
              <LatitudeDegrees>42.366022132337093353271484375</LatitudeDegrees>
              <LongitudeDegrees>2.6500761508941650390625</LongitudeDegrees>
            </Position>
            <AltitudeMeters>835.5999755859375</AltitudeMeters>
            <DistanceMeters>NAN</DistanceMeters>
          </Trackpoint>
          <Trackpoint>
            <Time>2021-04-01T16:46:37.000Z</Time>
            <Position>
              <LatitudeDegrees>42.36598868854343891143798828125</LatitudeDegrees>
              <LongitudeDegrees>2.6500622369349002838134765625</LongitudeDegrees>
            </Position>
            <AltitudeMeters>835.5999755859375</AltitudeMeters>
            <DistanceMeters>NAN</DistanceMeters>
          </Trackpoint>
          <Trackpoint>
            <Time>2021-04-01T16:46:40.000Z</Time>
            <Position>
              <LatitudeDegrees>42.36595817841589450836181640625</LatitudeDegrees>
              <LongitudeDegrees>2.6500575430691242218017578125</LongitudeDegrees>
            </Position>
            <AltitudeMeters>835.4000244140625</AltitudeMeters>
            <DistanceMeters>NAN</DistanceMeters>
          </Trackpoint>
          <Trackpoint>
            <Time>2021-04-01T16:46:41.000Z</Time>
            <Position>
              <LatitudeDegrees>42.36594728194177150726318359375</LatitudeDegrees>
              <LongitudeDegrees>2.6500528492033481597900390625</LongitudeDegrees>
            </Position>
            <AltitudeMeters>835.20001220703125</AltitudeMeters>
            <DistanceMeters>NAN</DistanceMeters>
          </Trackpoint>
          <Trackpoint>
            <Time>2021-04-01T16:46:45.000Z</Time>
            <Position>
              <LatitudeDegrees>42.36590369604527950286865234375</LatitudeDegrees>
              <LongitudeDegrees>2.6500441320240497589111328125</LongitudeDegrees>
            </Position>
            <AltitudeMeters>835.20001220703125</AltitudeMeters>
            <DistanceMeters>NAN</DistanceMeters>
          </Trackpoint>
          <Trackpoint>
            <Time>2021-04-01T16:46:52.000Z</Time>
            <Position>
              <LatitudeDegrees>42.36582725308835506439208984375</LatitudeDegrees>
              <LongitudeDegrees>2.65001404099166393280029296875</LongitudeDegrees>
            </Position>
            <AltitudeMeters>835</AltitudeMeters>
            <DistanceMeters>NAN</DistanceMeters>
          </Trackpoint>
          <Trackpoint>
            <Time>2021-04-01T16:46:57.000Z</Time>
            <Position>
              <LatitudeDegrees>42.36577293835580348968505859375</LatitudeDegrees>
              <LongitudeDegrees>2.64998671598732471466064453125</LongitudeDegrees>
            </Position>
            <AltitudeMeters>834.79998779296875</AltitudeMeters>
            <DistanceMeters>NAN</DistanceMeters>
          </Trackpoint>
          <Trackpoint>
            <Time>2021-04-01T16:47:02.000Z</Time>
            <Position>
              <LatitudeDegrees>42.36572482623159885406494140625</LatitudeDegrees>
              <LongitudeDegrees>2.649953775107860565185546875</LongitudeDegrees>
            </Position>
            <AltitudeMeters>834.5999755859375</AltitudeMeters>
            <DistanceMeters>NAN</DistanceMeters>
          </Trackpoint>
          <Trackpoint>
            <Time>2021-04-01T16:47:04.000Z</Time>
            <Position>
              <LatitudeDegrees>42.36570051871240139007568359375</LatitudeDegrees>
              <LongitudeDegrees>2.64994530938565731048583984375</LongitudeDegrees>
            </Position>
            <AltitudeMeters>834.79998779296875</AltitudeMeters>
            <DistanceMeters>NAN</DistanceMeters>
          </Trackpoint>
          <Trackpoint>
            <Time>2021-04-01T16:47:07.000Z</Time>
            <Position>
              <LatitudeDegrees>42.3656692542135715484619140625</LatitudeDegrees>
              <LongitudeDegrees>2.649919576942920684814453125</LongitudeDegrees>
            </Position>
            <AltitudeMeters>834.5999755859375</AltitudeMeters>
            <DistanceMeters>NAN</DistanceMeters>
          </Trackpoint>
          <Trackpoint>
            <Time>2021-04-01T16:47:10.000Z</Time>
            <Position>
              <LatitudeDegrees>42.365640588104724884033203125</LatitudeDegrees>
              <LongitudeDegrees>2.6498945988714694976806640625</LongitudeDegrees>
            </Position>
            <AltitudeMeters>834.4000244140625</AltitudeMeters>
            <DistanceMeters>NAN</DistanceMeters>
          </Trackpoint>
          <Trackpoint>
            <Time>2021-04-01T16:47:12.000Z</Time>
            <Position>
              <LatitudeDegrees>42.36562005244195461273193359375</LatitudeDegrees>
              <LongitudeDegrees>2.6498828642070293426513671875</LongitudeDegrees>
            </Position>
            <AltitudeMeters>834.20001220703125</AltitudeMeters>
            <DistanceMeters>NAN</DistanceMeters>
          </Trackpoint>
          <Trackpoint>
            <Time>2021-04-01T16:47:19.000Z</Time>
            <Position>
              <LatitudeDegrees>42.3655552603304386138916015625</LatitudeDegrees>
              <LongitudeDegrees>2.64981740154325962066650390625</LongitudeDegrees>
            </Position>
            <AltitudeMeters>834</AltitudeMeters>
            <DistanceMeters>NAN</DistanceMeters>
          </Trackpoint>
          <Trackpoint>
            <Time>2021-04-01T16:47:21.000Z</Time>
            <Position>
              <LatitudeDegrees>42.36553992144763469696044921875</LatitudeDegrees>
              <LongitudeDegrees>2.6497940160334110260009765625</LongitudeDegrees>
            </Position>
            <AltitudeMeters>833.79998779296875</AltitudeMeters>
            <DistanceMeters>NAN</DistanceMeters>
          </Trackpoint>
          <Trackpoint>
            <Time>2021-04-01T16:47:24.000Z</Time>
            <Position>
              <LatitudeDegrees>42.3655110038816928863525390625</LatitudeDegrees>
              <LongitudeDegrees>2.64977104961872100830078125</LongitudeDegrees>
            </Position>
            <AltitudeMeters>833.79998779296875</AltitudeMeters>
            <DistanceMeters>NAN</DistanceMeters>
          </Trackpoint>
          <Trackpoint>
            <Time>2021-04-01T16:47:27.000Z</Time>
            <Position>
              <LatitudeDegrees>42.365480996668338775634765625</LatitudeDegrees>
              <LongitudeDegrees>2.64974364079535007476806640625</LongitudeDegrees>
            </Position>
            <AltitudeMeters>833.5999755859375</AltitudeMeters>
            <DistanceMeters>NAN</DistanceMeters>
          </Trackpoint>
          <Trackpoint>
            <Time>2021-04-01T16:47:29.000Z</Time>
            <Position>
              <LatitudeDegrees>42.365464232861995697021484375</LatitudeDegrees>
              <LongitudeDegrees>2.6497242785990238189697265625</LongitudeDegrees>
            </Position>
            <AltitudeMeters>833.4000244140625</AltitudeMeters>
            <DistanceMeters>NAN</DistanceMeters>
          </Trackpoint>
          <Trackpoint>
            <Time>2021-04-01T16:47:37.000Z</Time>
            <Position>
              <LatitudeDegrees>42.3653986863791942596435546875</LatitudeDegrees>
              <LongitudeDegrees>2.64963769353926181793212890625</LongitudeDegrees>
            </Position>
            <AltitudeMeters>833.20001220703125</AltitudeMeters>
            <DistanceMeters>NAN</DistanceMeters>
          </Trackpoint>
          <Trackpoint>
            <Time>2021-04-01T16:47:43.000Z</Time>
            <Position>
              <LatitudeDegrees>42.3653544299304485321044921875</LatitudeDegrees>
              <LongitudeDegrees>2.6495660282671451568603515625</LongitudeDegrees>
            </Position>
            <AltitudeMeters>833</AltitudeMeters>
            <DistanceMeters>NAN</DistanceMeters>
          </Trackpoint>
          <Trackpoint>
            <Time>2021-04-01T16:47:50.000Z</Time>
            <Position>
              <LatitudeDegrees>42.36530187539756298065185546875</LatitudeDegrees>
              <LongitudeDegrees>2.6494855619966983795166015625</LongitudeDegrees>
            </Position>
            <AltitudeMeters>832.79998779296875</AltitudeMeters>
            <DistanceMeters>NAN</DistanceMeters>
          </Trackpoint>
          <Trackpoint>
            <Time>2021-04-01T16:48:01.000Z</Time>
            <Position>
              <LatitudeDegrees>42.365249656140804290771484375</LatitudeDegrees>
              <LongitudeDegrees>2.64934181235730648040771484375</LongitudeDegrees>
            </Position>
            <AltitudeMeters>832.5999755859375</AltitudeMeters>
            <DistanceMeters>NAN</DistanceMeters>
          </Trackpoint>
          <Trackpoint>
            <Time>2021-04-01T16:48:03.000Z</Time>
            <Position>
              <LatitudeDegrees>42.3652468062937259674072265625</LatitudeDegrees>
              <LongitudeDegrees>2.6493169181048870086669921875</LongitudeDegrees>
            </Position>
            <AltitudeMeters>832.5999755859375</AltitudeMeters>
            <DistanceMeters>NAN</DistanceMeters>
          </Trackpoint>
          <Trackpoint>
            <Time>2021-04-01T16:48:06.000Z</Time>
            <Position>
              <LatitudeDegrees>42.36523314379155635833740234375</LatitudeDegrees>
              <LongitudeDegrees>2.64928079210221767425537109375</LongitudeDegrees>
            </Position>
            <AltitudeMeters>832.4000244140625</AltitudeMeters>
            <DistanceMeters>NAN</DistanceMeters>
          </Trackpoint>
          <Trackpoint>
            <Time>2021-04-01T16:48:09.000Z</Time>
            <Position>
              <LatitudeDegrees>42.3652206547558307647705078125</LatitudeDegrees>
              <LongitudeDegrees>2.6492384634912014007568359375</LongitudeDegrees>
            </Position>
            <AltitudeMeters>832.4000244140625</AltitudeMeters>
            <DistanceMeters>NAN</DistanceMeters>
          </Trackpoint>
          <Trackpoint>
            <Time>2021-04-01T16:48:12.000Z</Time>
            <Position>
              <LatitudeDegrees>42.36520816572010517120361328125</LatitudeDegrees>
              <LongitudeDegrees>2.64918758533895015716552734375</LongitudeDegrees>
            </Position>
            <AltitudeMeters>832.20001220703125</AltitudeMeters>
            <DistanceMeters>NAN</DistanceMeters>
          </Trackpoint>
          <Trackpoint>
            <Time>2021-04-01T16:48:17.000Z</Time>
            <Position>
              <LatitudeDegrees>42.36518452875316143035888671875</LatitudeDegrees>
              <LongitudeDegrees>2.649116925895214080810546875</LongitudeDegrees>
            </Position>
            <AltitudeMeters>832.20001220703125</AltitudeMeters>
            <DistanceMeters>NAN</DistanceMeters>
          </Trackpoint>
          <Trackpoint>
            <Time>2021-04-01T16:48:24.000Z</Time>
            <Position>
              <LatitudeDegrees>42.3651574552059173583984375</LatitudeDegrees>
              <LongitudeDegrees>2.64901592396199703216552734375</LongitudeDegrees>
            </Position>
            <AltitudeMeters>832</AltitudeMeters>
            <DistanceMeters>NAN</DistanceMeters>
          </Trackpoint>
          <Trackpoint>
            <Time>2021-04-01T16:48:30.000Z</Time>
            <Position>
              <LatitudeDegrees>42.365133650600910186767578125</LatitudeDegrees>
              <LongitudeDegrees>2.64893428422510623931884765625</LongitudeDegrees>
            </Position>
            <AltitudeMeters>832</AltitudeMeters>
            <DistanceMeters>NAN</DistanceMeters>
          </Trackpoint>
          <Trackpoint>
            <Time>2021-04-01T16:48:33.000Z</Time>
            <Position>
              <LatitudeDegrees>42.36512149684131145477294921875</LatitudeDegrees>
              <LongitudeDegrees>2.64889874495565891265869140625</LongitudeDegrees>
            </Position>
            <AltitudeMeters>832</AltitudeMeters>
            <DistanceMeters>NAN</DistanceMeters>
          </Trackpoint>
          <Trackpoint>
            <Time>2021-04-01T16:48:35.000Z</Time>
            <Position>
              <LatitudeDegrees>42.36510976217687129974365234375</LatitudeDegrees>
              <LongitudeDegrees>2.648876868188381195068359375</LongitudeDegrees>
            </Position>
            <AltitudeMeters>831.79998779296875</AltitudeMeters>
            <DistanceMeters>NAN</DistanceMeters>
          </Trackpoint>
          <Trackpoint>
            <Time>2021-04-01T16:48:41.000Z</Time>
            <Position>
              <LatitudeDegrees>42.36507489345967769622802734375</LatitudeDegrees>
              <LongitudeDegrees>2.6488036103546619415283203125</LongitudeDegrees>
            </Position>
            <AltitudeMeters>831.79998779296875</AltitudeMeters>
            <DistanceMeters>NAN</DistanceMeters>
          </Trackpoint>
          <Trackpoint>
            <Time>2021-04-01T16:48:46.000Z</Time>
            <Position>
              <LatitudeDegrees>42.36504119820892810821533203125</LatitudeDegrees>
              <LongitudeDegrees>2.648740075528621673583984375</LongitudeDegrees>
            </Position>
            <AltitudeMeters>831.79998779296875</AltitudeMeters>
            <DistanceMeters>NAN</DistanceMeters>
          </Trackpoint>
          <Trackpoint>
            <Time>2021-04-01T16:48:47.000Z</Time>
            <Position>
              <LatitudeDegrees>42.36503315158188343048095703125</LatitudeDegrees>
              <LongitudeDegrees>2.64872993342578411102294921875</LongitudeDegrees>
            </Position>
            <AltitudeMeters>831.79998779296875</AltitudeMeters>
            <DistanceMeters>NAN</DistanceMeters>
          </Trackpoint>
          <Trackpoint>
            <Time>2021-04-01T16:48:49.000Z</Time>
            <Position>
              <LatitudeDegrees>42.36501806415617465972900390625</LatitudeDegrees>
              <LongitudeDegrees>2.648712582886219024658203125</LongitudeDegrees>
            </Position>
            <AltitudeMeters>831.79998779296875</AltitudeMeters>
            <DistanceMeters>NAN</DistanceMeters>
          </Trackpoint>
          <Trackpoint>
            <Time>2021-04-01T16:48:56.000Z</Time>
            <Position>
              <LatitudeDegrees>42.36495469696819782257080078125</LatitudeDegrees>
              <LongitudeDegrees>2.64864988625049591064453125</LongitudeDegrees>
            </Position>
            <AltitudeMeters>832</AltitudeMeters>
            <DistanceMeters>NAN</DistanceMeters>
          </Trackpoint>
          <Trackpoint>
            <Time>2021-04-01T16:48:58.000Z</Time>
            <Position>
              <LatitudeDegrees>42.364941202104091644287109375</LatitudeDegrees>
              <LongitudeDegrees>2.64863739721477031707763671875</LongitudeDegrees>
            </Position>
            <AltitudeMeters>831.79998779296875</AltitudeMeters>
            <DistanceMeters>NAN</DistanceMeters>
          </Trackpoint>
          <Trackpoint>
            <Time>2021-04-01T16:49:07.000Z</Time>
            <Position>
              <LatitudeDegrees>42.36485528759658336639404296875</LatitudeDegrees>
              <LongitudeDegrees>2.64856196008622646331787109375</LongitudeDegrees>
            </Position>
            <AltitudeMeters>832</AltitudeMeters>
            <DistanceMeters>NAN</DistanceMeters>
          </Trackpoint>
          <Trackpoint>
            <Time>2021-04-01T16:49:10.000Z</Time>
            <Position>
              <LatitudeDegrees>42.3648307286202907562255859375</LatitudeDegrees>
              <LongitudeDegrees>2.648538909852504730224609375</LongitudeDegrees>
            </Position>
            <AltitudeMeters>831.79998779296875</AltitudeMeters>
            <DistanceMeters>NAN</DistanceMeters>
          </Trackpoint>
          <Trackpoint>
            <Time>2021-04-01T16:49:11.000Z</Time>
            <Position>
              <LatitudeDegrees>42.364823855459690093994140625</LatitudeDegrees>
              <LongitudeDegrees>2.648532874882221221923828125</LongitudeDegrees>
            </Position>
            <AltitudeMeters>831.79998779296875</AltitudeMeters>
            <DistanceMeters>NAN</DistanceMeters>
          </Trackpoint>
          <Trackpoint>
            <Time>2021-04-01T16:49:20.000Z</Time>
            <Position>
              <LatitudeDegrees>42.3647448979318141937255859375</LatitudeDegrees>
              <LongitudeDegrees>2.6484894566237926483154296875</LongitudeDegrees>
            </Position>
            <AltitudeMeters>831.79998779296875</AltitudeMeters>
            <DistanceMeters>NAN</DistanceMeters>
          </Trackpoint>
          <Trackpoint>
            <Time>2021-04-01T16:49:22.000Z</Time>
            <Position>
              <LatitudeDegrees>42.36473358236253261566162109375</LatitudeDegrees>
              <LongitudeDegrees>2.64846892096102237701416015625</LongitudeDegrees>
            </Position>
            <AltitudeMeters>832</AltitudeMeters>
            <DistanceMeters>NAN</DistanceMeters>
          </Trackpoint>
          <Trackpoint>
            <Time>2021-04-01T16:49:31.000Z</Time>
            <Position>
              <LatitudeDegrees>42.364710867404937744140625</LatitudeDegrees>
              <LongitudeDegrees>2.64834671281278133392333984375</LongitudeDegrees>
            </Position>
            <AltitudeMeters>832.20001220703125</AltitudeMeters>
            <DistanceMeters>NAN</DistanceMeters>
          </Trackpoint>
          <Trackpoint>
            <Time>2021-04-01T16:49:35.000Z</Time>
            <Position>
              <LatitudeDegrees>42.36470156349241733551025390625</LatitudeDegrees>
              <LongitudeDegrees>2.6483013667166233062744140625</LongitudeDegrees>
            </Position>
            <AltitudeMeters>832.20001220703125</AltitudeMeters>
            <DistanceMeters>NAN</DistanceMeters>
          </Trackpoint>
          <Trackpoint>
            <Time>2021-04-01T16:49:39.000Z</Time>
            <Position>
              <LatitudeDegrees>42.364705167710781097412109375</LatitudeDegrees>
              <LongitudeDegrees>2.6482520811259746551513671875</LongitudeDegrees>
            </Position>
            <AltitudeMeters>832.20001220703125</AltitudeMeters>
            <DistanceMeters>NAN</DistanceMeters>
          </Trackpoint>
          <Trackpoint>
            <Time>2021-04-01T16:49:44.000Z</Time>
            <Position>
              <LatitudeDegrees>42.3647019825875759124755859375</LatitudeDegrees>
              <LongitudeDegrees>2.64818812720477581024169921875</LongitudeDegrees>
            </Position>
            <AltitudeMeters>832.4000244140625</AltitudeMeters>
            <DistanceMeters>NAN</DistanceMeters>
          </Trackpoint>
          <Trackpoint>
            <Time>2021-04-01T16:49:45.000Z</Time>
            <Position>
              <LatitudeDegrees>42.36470022238790988922119140625</LatitudeDegrees>
              <LongitudeDegrees>2.648171447217464447021484375</LongitudeDegrees>
            </Position>
            <AltitudeMeters>832.4000244140625</AltitudeMeters>
            <DistanceMeters>NAN</DistanceMeters>
          </Trackpoint>
          <Trackpoint>
            <Time>2021-04-01T16:49:46.000Z</Time>
            <Position>
              <LatitudeDegrees>42.36469368450343608856201171875</LatitudeDegrees>
              <LongitudeDegrees>2.64815560542047023773193359375</LongitudeDegrees>
            </Position>
            <AltitudeMeters>832.4000244140625</AltitudeMeters>
            <DistanceMeters>NAN</DistanceMeters>
          </Trackpoint>
          <Trackpoint>
            <Time>2021-04-01T16:49:55.000Z</Time>
            <Position>
              <LatitudeDegrees>42.36467574723064899444580078125</LatitudeDegrees>
              <LongitudeDegrees>2.64803071506321430206298828125</LongitudeDegrees>
            </Position>
            <AltitudeMeters>832.20001220703125</AltitudeMeters>
            <DistanceMeters>NAN</DistanceMeters>
          </Trackpoint>
          <Trackpoint>
            <Time>2021-04-01T16:49:58.000Z</Time>
            <Position>
              <LatitudeDegrees>42.36466786824166774749755859375</LatitudeDegrees>
              <LongitudeDegrees>2.6479852013289928436279296875</LongitudeDegrees>
            </Position>
            <AltitudeMeters>832</AltitudeMeters>
            <DistanceMeters>NAN</DistanceMeters>
          </Trackpoint>
          <Trackpoint>
            <Time>2021-04-01T16:50:00.000Z</Time>
            <Position>
              <LatitudeDegrees>42.36464984714984893798828125</LatitudeDegrees>
              <LongitudeDegrees>2.647954523563385009765625</LongitudeDegrees>
            </Position>
            <AltitudeMeters>832</AltitudeMeters>
            <DistanceMeters>NAN</DistanceMeters>
          </Trackpoint>
          <Trackpoint>
            <Time>2021-04-01T16:50:03.000Z</Time>
            <Position>
              <LatitudeDegrees>42.36464356072247028350830078125</LatitudeDegrees>
              <LongitudeDegrees>2.64793197624385356903076171875</LongitudeDegrees>
            </Position>
            <AltitudeMeters>831.79998779296875</AltitudeMeters>
            <DistanceMeters>NAN</DistanceMeters>
          </Trackpoint>
          <Trackpoint>
            <Time>2021-04-01T16:50:04.000Z</Time>
            <Position>
              <LatitudeDegrees>42.364641129970550537109375</LatitudeDegrees>
              <LongitudeDegrees>2.64792292378842830657958984375</LongitudeDegrees>
            </Position>
            <AltitudeMeters>831.79998779296875</AltitudeMeters>
            <DistanceMeters>NAN</DistanceMeters>
          </Trackpoint>
          <Trackpoint>
            <Time>2021-04-01T16:50:06.000Z</Time>
            <Position>
              <LatitudeDegrees>42.364638112485408782958984375</LatitudeDegrees>
              <LongitudeDegrees>2.6478993706405162811279296875</LongitudeDegrees>
            </Position>
            <AltitudeMeters>831.79998779296875</AltitudeMeters>
            <DistanceMeters>NAN</DistanceMeters>
          </Trackpoint>
          <Trackpoint>
            <Time>2021-04-01T16:50:08.000Z</Time>
            <Position>
              <LatitudeDegrees>42.364633083343505859375</LatitudeDegrees>
              <LongitudeDegrees>2.64788101427257061004638671875</LongitudeDegrees>
            </Position>
            <AltitudeMeters>831.79998779296875</AltitudeMeters>
            <DistanceMeters>NAN</DistanceMeters>
          </Trackpoint>
          <Trackpoint>
            <Time>2021-04-01T16:50:11.000Z</Time>
            <Position>
              <LatitudeDegrees>42.36463970504701137542724609375</LatitudeDegrees>
              <LongitudeDegrees>2.64787447638809680938720703125</LongitudeDegrees>
            </Position>
            <AltitudeMeters>831.5999755859375</AltitudeMeters>
            <DistanceMeters>NAN</DistanceMeters>
          </Trackpoint>
          <Trackpoint>
            <Time>2021-04-01T16:50:13.000Z</Time>
            <Position>
              <LatitudeDegrees>42.364653535187244415283203125</LatitudeDegrees>
              <LongitudeDegrees>2.6478727161884307861328125</LongitudeDegrees>
            </Position>
            <AltitudeMeters>831.5999755859375</AltitudeMeters>
            <DistanceMeters>NAN</DistanceMeters>
          </Trackpoint>
          <Trackpoint>
            <Time>2021-04-01T16:50:21.000Z</Time>
            <Position>
              <LatitudeDegrees>42.36470215022563934326171875</LatitudeDegrees>
              <LongitudeDegrees>2.6478795893490314483642578125</LongitudeDegrees>
            </Position>
            <AltitudeMeters>831.5999755859375</AltitudeMeters>
            <DistanceMeters>NAN</DistanceMeters>
          </Trackpoint>
          <Trackpoint>
            <Time>2021-04-01T16:50:27.000Z</Time>
            <Position>
              <LatitudeDegrees>42.36469888128340244293212890625</LatitudeDegrees>
              <LongitudeDegrees>2.64788369648158550262451171875</LongitudeDegrees>
            </Position>
            <AltitudeMeters>831.5999755859375</AltitudeMeters>
            <DistanceMeters>NAN</DistanceMeters>
          </Trackpoint>
          <Trackpoint>
            <Time>2021-04-01T16:50:31.000Z</Time>
            <Position>
              <LatitudeDegrees>42.36469586379826068878173828125</LatitudeDegrees>
              <LongitudeDegrees>2.64786844141781330108642578125</LongitudeDegrees>
            </Position>
            <AltitudeMeters>831.5999755859375</AltitudeMeters>
            <DistanceMeters>NAN</DistanceMeters>
          </Trackpoint>
          <Trackpoint>
            <Time>2021-04-01T16:50:32.000Z</Time>
            <Position>
              <LatitudeDegrees>42.36469586379826068878173828125</LatitudeDegrees>
              <LongitudeDegrees>2.64786844141781330108642578125</LongitudeDegrees>
            </Position>
            <AltitudeMeters>831.5999755859375</AltitudeMeters>
            <DistanceMeters>NAN</DistanceMeters>
          </Trackpoint>
          <Trackpoint>
            <Time>2021-04-01T16:50:42.000Z</Time>
            <Position>
              <LatitudeDegrees>42.3646500147879123687744140625</LatitudeDegrees>
              <LongitudeDegrees>2.64784656465053558349609375</LongitudeDegrees>
            </Position>
            <AltitudeMeters>831.5999755859375</AltitudeMeters>
            <DistanceMeters>NAN</DistanceMeters>
          </Trackpoint>
          <Trackpoint>
            <Time>2021-04-01T16:50:50.000Z</Time>
            <Position>
              <LatitudeDegrees>42.364542894065380096435546875</LatitudeDegrees>
              <LongitudeDegrees>2.64779836870729923248291015625</LongitudeDegrees>
            </Position>
            <AltitudeMeters>831.5999755859375</AltitudeMeters>
            <DistanceMeters>NAN</DistanceMeters>
          </Trackpoint>
          <Trackpoint>
            <Time>2021-04-01T16:50:52.000Z</Time>
            <Position>
              <LatitudeDegrees>42.36452269367873668670654296875</LatitudeDegrees>
              <LongitudeDegrees>2.64779048971831798553466796875</LongitudeDegrees>
            </Position>
            <AltitudeMeters>831.5999755859375</AltitudeMeters>
            <DistanceMeters>NAN</DistanceMeters>
          </Trackpoint>
          <Trackpoint>
            <Time>2021-04-01T16:50:56.000Z</Time>
            <Position>
              <LatitudeDegrees>42.36451171338558197021484375</LatitudeDegrees>
              <LongitudeDegrees>2.6477833651006221771240234375</LongitudeDegrees>
            </Position>
            <AltitudeMeters>831.5999755859375</AltitudeMeters>
            <DistanceMeters>NAN</DistanceMeters>
          </Trackpoint>
          <Trackpoint>
            <Time>2021-04-01T16:50:58.000Z</Time>
            <Position>
              <LatitudeDegrees>42.3645110428333282470703125</LatitudeDegrees>
              <LongitudeDegrees>2.64778110198676586151123046875</LongitudeDegrees>
            </Position>
            <AltitudeMeters>831.5999755859375</AltitudeMeters>
            <DistanceMeters>NAN</DistanceMeters>
          </Trackpoint>
          <Trackpoint>
            <Time>2021-04-01T16:51:00.000Z</Time>
            <Position>
              <LatitudeDegrees>42.36450945027172565460205078125</LatitudeDegrees>
              <LongitudeDegrees>2.6477769948542118072509765625</LongitudeDegrees>
            </Position>
            <AltitudeMeters>831.79998779296875</AltitudeMeters>
            <DistanceMeters>NAN</DistanceMeters>
          </Trackpoint>
          <Trackpoint>
            <Time>2021-04-01T16:51:02.000Z</Time>
            <Position>
              <LatitudeDegrees>42.3645078577101230621337890625</LatitudeDegrees>
              <LongitudeDegrees>2.64777707867324352264404296875</LongitudeDegrees>
            </Position>
            <AltitudeMeters>831.79998779296875</AltitudeMeters>
            <DistanceMeters>NAN</DistanceMeters>
          </Trackpoint>
          <Trackpoint>
            <Time>2021-04-01T16:51:04.000Z</Time>
            <Position>
              <LatitudeDegrees>42.3645055107772350311279296875</LatitudeDegrees>
              <LongitudeDegrees>2.64777741394937038421630859375</LongitudeDegrees>
            </Position>
            <AltitudeMeters>831.79998779296875</AltitudeMeters>
            <DistanceMeters>NAN</DistanceMeters>
          </Trackpoint>
          <Trackpoint>
            <Time>2021-04-01T16:51:05.000Z</Time>
            <Position>
              <LatitudeDegrees>42.36450056545436382293701171875</LatitudeDegrees>
              <LongitudeDegrees>2.647777833044528961181640625</LongitudeDegrees>
            </Position>
            <AltitudeMeters>831.79998779296875</AltitudeMeters>
            <DistanceMeters>NAN</DistanceMeters>
          </Trackpoint>
          <Trackpoint>
            <Time>2021-04-01T16:51:10.000Z</Time>
            <Position>
              <LatitudeDegrees>42.36445915885269641876220703125</LatitudeDegrees>
              <LongitudeDegrees>2.64775930903851985931396484375</LongitudeDegrees>
            </Position>
            <AltitudeMeters>831.79998779296875</AltitudeMeters>
            <DistanceMeters>NAN</DistanceMeters>
          </Trackpoint>
          <Trackpoint>
            <Time>2021-04-01T16:51:11.000Z</Time>
            <Position>
              <LatitudeDegrees>42.36445312388241291046142578125</LatitudeDegrees>
              <LongitudeDegrees>2.6477520167827606201171875</LongitudeDegrees>
            </Position>
            <AltitudeMeters>831.79998779296875</AltitudeMeters>
            <DistanceMeters>NAN</DistanceMeters>
          </Trackpoint>
          <Trackpoint>
            <Time>2021-04-01T16:51:18.000Z</Time>
            <Position>
              <LatitudeDegrees>42.364399395883083343505859375</LatitudeDegrees>
              <LongitudeDegrees>2.6476894877851009368896484375</LongitudeDegrees>
            </Position>
            <AltitudeMeters>831.79998779296875</AltitudeMeters>
            <DistanceMeters>NAN</DistanceMeters>
          </Trackpoint>
          <Trackpoint>
            <Time>2021-04-01T16:51:20.000Z</Time>
            <Position>
              <LatitudeDegrees>42.36439009197056293487548828125</LatitudeDegrees>
              <LongitudeDegrees>2.64765906147658824920654296875</LongitudeDegrees>
            </Position>
            <AltitudeMeters>831.79998779296875</AltitudeMeters>
            <DistanceMeters>NAN</DistanceMeters>
          </Trackpoint>
          <Trackpoint>
            <Time>2021-04-01T16:51:22.000Z</Time>
            <Position>
              <LatitudeDegrees>42.364377938210964202880859375</LatitudeDegrees>
              <LongitudeDegrees>2.64763064682483673095703125</LongitudeDegrees>
            </Position>
            <AltitudeMeters>831.79998779296875</AltitudeMeters>
            <DistanceMeters>NAN</DistanceMeters>
          </Trackpoint>
          <Trackpoint>
            <Time>2021-04-01T16:51:26.000Z</Time>
            <Position>
              <LatitudeDegrees>42.36434801481664180755615234375</LatitudeDegrees>
              <LongitudeDegrees>2.647598125040531158447265625</LongitudeDegrees>
            </Position>
            <AltitudeMeters>832</AltitudeMeters>
            <DistanceMeters>NAN</DistanceMeters>
          </Trackpoint>
          <Trackpoint>
            <Time>2021-04-01T16:51:32.000Z</Time>
            <Position>
              <LatitudeDegrees>42.36430644057691097259521484375</LatitudeDegrees>
              <LongitudeDegrees>2.6475481688976287841796875</LongitudeDegrees>
            </Position>
            <AltitudeMeters>832.20001220703125</AltitudeMeters>
            <DistanceMeters>NAN</DistanceMeters>
          </Trackpoint>
          <Trackpoint>
            <Time>2021-04-01T16:51:33.000Z</Time>
            <Position>
              <LatitudeDegrees>42.3643053509294986724853515625</LatitudeDegrees>
              <LongitudeDegrees>2.64754255302250385284423828125</LongitudeDegrees>
            </Position>
            <AltitudeMeters>832.20001220703125</AltitudeMeters>
            <DistanceMeters>NAN</DistanceMeters>
          </Trackpoint>
          <Trackpoint>
            <Time>2021-04-01T16:51:34.000Z</Time>
            <Position>
              <LatitudeDegrees>42.36430677585303783416748046875</LatitudeDegrees>
              <LongitudeDegrees>2.6475382782518863677978515625</LongitudeDegrees>
            </Position>
            <AltitudeMeters>832.20001220703125</AltitudeMeters>
            <DistanceMeters>NAN</DistanceMeters>
          </Trackpoint>
          <Trackpoint>
            <Time>2021-04-01T16:51:35.000Z</Time>
            <Position>
              <LatitudeDegrees>42.36431063152849674224853515625</LatitudeDegrees>
              <LongitudeDegrees>2.6475379429757595062255859375</LongitudeDegrees>
            </Position>
            <AltitudeMeters>832.20001220703125</AltitudeMeters>
            <DistanceMeters>NAN</DistanceMeters>
          </Trackpoint>
          <Trackpoint>
            <Time>2021-04-01T16:51:41.000Z</Time>
            <Position>
              <LatitudeDegrees>42.36429822631180286407470703125</LatitudeDegrees>
              <LongitudeDegrees>2.647502906620502471923828125</LongitudeDegrees>
            </Position>
            <AltitudeMeters>832.4000244140625</AltitudeMeters>
            <DistanceMeters>NAN</DistanceMeters>
          </Trackpoint>
          <Trackpoint>
            <Time>2021-04-01T16:51:43.000Z</Time>
            <Position>
              <LatitudeDegrees>42.3642976395785808563232421875</LatitudeDegrees>
              <LongitudeDegrees>2.64748270623385906219482421875</LongitudeDegrees>
            </Position>
            <AltitudeMeters>832.5999755859375</AltitudeMeters>
            <DistanceMeters>NAN</DistanceMeters>
          </Trackpoint>
          <Trackpoint>
            <Time>2021-04-01T16:51:44.000Z</Time>
            <Position>
              <LatitudeDegrees>42.364298142492771148681640625</LatitudeDegrees>
              <LongitudeDegrees>2.64746326021850109100341796875</LongitudeDegrees>
            </Position>
            <AltitudeMeters>832.5999755859375</AltitudeMeters>
            <DistanceMeters>NAN</DistanceMeters>
          </Trackpoint>
          <Trackpoint>
            <Time>2021-04-01T16:51:45.000Z</Time>
            <Position>
              <LatitudeDegrees>42.3642999865114688873291015625</LatitudeDegrees>
              <LongitudeDegrees>2.64744582585990428924560546875</LongitudeDegrees>
            </Position>
            <AltitudeMeters>832.5999755859375</AltitudeMeters>
            <DistanceMeters>NAN</DistanceMeters>
          </Trackpoint>
          <Trackpoint>
            <Time>2021-04-01T16:51:52.000Z</Time>
            <Position>
              <LatitudeDegrees>42.3643117211759090423583984375</LatitudeDegrees>
              <LongitudeDegrees>2.647316493093967437744140625</LongitudeDegrees>
            </Position>
            <AltitudeMeters>832.5999755859375</AltitudeMeters>
            <DistanceMeters>NAN</DistanceMeters>
          </Trackpoint>
          <Trackpoint>
            <Time>2021-04-01T16:51:58.000Z</Time>
            <Position>
              <LatitudeDegrees>42.36432261765003204345703125</LatitudeDegrees>
              <LongitudeDegrees>2.64723795466125011444091796875</LongitudeDegrees>
            </Position>
            <AltitudeMeters>832.5999755859375</AltitudeMeters>
            <DistanceMeters>NAN</DistanceMeters>
          </Trackpoint>
          <Trackpoint>
            <Time>2021-04-01T16:52:01.000Z</Time>
            <Position>
              <LatitudeDegrees>42.364335022866725921630859375</LatitudeDegrees>
              <LongitudeDegrees>2.64719344675540924072265625</LongitudeDegrees>
            </Position>
            <AltitudeMeters>832.79998779296875</AltitudeMeters>
            <DistanceMeters>NAN</DistanceMeters>
          </Trackpoint>
          <Trackpoint>
            <Time>2021-04-01T16:52:04.000Z</Time>
            <Position>
              <LatitudeDegrees>42.36433376558125019073486328125</LatitudeDegrees>
              <LongitudeDegrees>2.64718472957611083984375</LongitudeDegrees>
            </Position>
            <AltitudeMeters>832.5999755859375</AltitudeMeters>
            <DistanceMeters>NAN</DistanceMeters>
          </Trackpoint>
          <Trackpoint>
            <Time>2021-04-01T16:52:07.000Z</Time>
            <Position>
              <LatitudeDegrees>42.3643378727138042449951171875</LatitudeDegrees>
              <LongitudeDegrees>2.6471755094826221466064453125</LongitudeDegrees>
            </Position>
            <AltitudeMeters>832.79998779296875</AltitudeMeters>
            <DistanceMeters>NAN</DistanceMeters>
          </Trackpoint>
          <Trackpoint>
            <Time>2021-04-01T16:52:15.000Z</Time>
            <Position>
              <LatitudeDegrees>42.3643392138183116912841796875</LatitudeDegrees>
              <LongitudeDegrees>2.64717207290232181549072265625</LongitudeDegrees>
            </Position>
            <AltitudeMeters>832.79998779296875</AltitudeMeters>
            <DistanceMeters>NAN</DistanceMeters>
          </Trackpoint>
          <Trackpoint>
            <Time>2021-04-01T16:52:19.000Z</Time>
            <Position>
              <LatitudeDegrees>42.3643392138183116912841796875</LatitudeDegrees>
              <LongitudeDegrees>2.64717207290232181549072265625</LongitudeDegrees>
            </Position>
            <AltitudeMeters>832.79998779296875</AltitudeMeters>
            <DistanceMeters>NAN</DistanceMeters>
          </Trackpoint>
          <Trackpoint>
            <Time>2021-04-01T16:52:49.000Z</Time>
            <Position>
              <LatitudeDegrees>42.3644066043198108673095703125</LatitudeDegrees>
              <LongitudeDegrees>2.64723493717610836029052734375</LongitudeDegrees>
            </Position>
            <AltitudeMeters>832.4000244140625</AltitudeMeters>
            <DistanceMeters>NAN</DistanceMeters>
          </Trackpoint>
          <Trackpoint>
            <Time>2021-04-01T16:52:57.000Z</Time>
            <Position>
              <LatitudeDegrees>42.36442244611680507659912109375</LatitudeDegrees>
              <LongitudeDegrees>2.64736955054104328155517578125</LongitudeDegrees>
            </Position>
            <AltitudeMeters>832.20001220703125</AltitudeMeters>
            <DistanceMeters>NAN</DistanceMeters>
          </Trackpoint>
          <Trackpoint>
            <Time>2021-04-01T16:53:04.000Z</Time>
            <Position>
              <LatitudeDegrees>42.364444322884082794189453125</LatitudeDegrees>
              <LongitudeDegrees>2.64748706482350826263427734375</LongitudeDegrees>
            </Position>
            <AltitudeMeters>832</AltitudeMeters>
            <DistanceMeters>NAN</DistanceMeters>
          </Trackpoint>
          <Trackpoint>
            <Time>2021-04-01T16:53:06.000Z</Time>
            <Position>
              <LatitudeDegrees>42.364453375339508056640625</LatitudeDegrees>
              <LongitudeDegrees>2.64751656912267208099365234375</LongitudeDegrees>
            </Position>
            <AltitudeMeters>832</AltitudeMeters>
            <DistanceMeters>NAN</DistanceMeters>
          </Trackpoint>
          <Trackpoint>
            <Time>2021-04-01T16:53:08.000Z</Time>
            <Position>
              <LatitudeDegrees>42.364458404481410980224609375</LatitudeDegrees>
              <LongitudeDegrees>2.6475428044795989990234375</LongitudeDegrees>
            </Position>
            <AltitudeMeters>832</AltitudeMeters>
            <DistanceMeters>NAN</DistanceMeters>
          </Trackpoint>
          <Trackpoint>
            <Time>2021-04-01T16:53:12.000Z</Time>
            <Position>
              <LatitudeDegrees>42.3644659481942653656005859375</LatitudeDegrees>
              <LongitudeDegrees>2.6475642621517181396484375</LongitudeDegrees>
            </Position>
            <AltitudeMeters>832</AltitudeMeters>
            <DistanceMeters>NAN</DistanceMeters>
          </Trackpoint>
          <Trackpoint>
            <Time>2021-04-01T16:53:15.000Z</Time>
            <Position>
              <LatitudeDegrees>42.36445681191980838775634765625</LatitudeDegrees>
              <LongitudeDegrees>2.6475696265697479248046875</LongitudeDegrees>
            </Position>
            <AltitudeMeters>832</AltitudeMeters>
            <DistanceMeters>NAN</DistanceMeters>
          </Trackpoint>
          <Trackpoint>
            <Time>2021-04-01T16:53:30.000Z</Time>
            <Position>
              <LatitudeDegrees>42.364473827183246612548828125</LatitudeDegrees>
              <LongitudeDegrees>2.64763508923351764678955078125</LongitudeDegrees>
            </Position>
            <AltitudeMeters>831.79998779296875</AltitudeMeters>
            <DistanceMeters>NAN</DistanceMeters>
          </Trackpoint>
          <Trackpoint>
            <Time>2021-04-01T16:53:39.000Z</Time>
            <Position>
              <LatitudeDegrees>42.36455135978758335113525390625</LatitudeDegrees>
              <LongitudeDegrees>2.6477144658565521240234375</LongitudeDegrees>
            </Position>
            <AltitudeMeters>831.79998779296875</AltitudeMeters>
            <DistanceMeters>NAN</DistanceMeters>
          </Trackpoint>
          <Trackpoint>
            <Time>2021-04-01T16:53:45.000Z</Time>
            <Position>
              <LatitudeDegrees>42.3646037466824054718017578125</LatitudeDegrees>
              <LongitudeDegrees>2.647753693163394927978515625</LongitudeDegrees>
            </Position>
            <AltitudeMeters>832</AltitudeMeters>
            <DistanceMeters>NAN</DistanceMeters>
          </Trackpoint>
          <Trackpoint>
            <Time>2021-04-01T16:53:47.000Z</Time>
            <Position>
              <LatitudeDegrees>42.36462092958390712738037109375</LatitudeDegrees>
              <LongitudeDegrees>2.64776919968426227569580078125</LongitudeDegrees>
            </Position>
            <AltitudeMeters>832.20001220703125</AltitudeMeters>
            <DistanceMeters>NAN</DistanceMeters>
          </Trackpoint>
          <Trackpoint>
            <Time>2021-04-01T16:53:49.000Z</Time>
            <Position>
              <LatitudeDegrees>42.3646423034369945526123046875</LatitudeDegrees>
              <LongitudeDegrees>2.64778831042349338531494140625</LongitudeDegrees>
            </Position>
            <AltitudeMeters>832</AltitudeMeters>
            <DistanceMeters>NAN</DistanceMeters>
          </Trackpoint>
          <Trackpoint>
            <Time>2021-04-01T16:53:53.000Z</Time>
            <Position>
              <LatitudeDegrees>42.3646801896393299102783203125</LatitudeDegrees>
              <LongitudeDegrees>2.6478044874966144561767578125</LongitudeDegrees>
            </Position>
            <AltitudeMeters>832</AltitudeMeters>
            <DistanceMeters>NAN</DistanceMeters>
          </Trackpoint>
          <Trackpoint>
            <Time>2021-04-01T16:53:55.000Z</Time>
            <Position>
              <LatitudeDegrees>42.3646899126470088958740234375</LatitudeDegrees>
              <LongitudeDegrees>2.64781546778976917266845703125</LongitudeDegrees>
            </Position>
            <AltitudeMeters>832</AltitudeMeters>
            <DistanceMeters>NAN</DistanceMeters>
          </Trackpoint>
          <Trackpoint>
            <Time>2021-04-01T16:53:59.000Z</Time>
            <Position>
              <LatitudeDegrees>42.36469670198857784271240234375</LatitudeDegrees>
              <LongitudeDegrees>2.64786274172365665435791015625</LongitudeDegrees>
            </Position>
            <AltitudeMeters>832</AltitudeMeters>
            <DistanceMeters>NAN</DistanceMeters>
          </Trackpoint>
          <Trackpoint>
            <Time>2021-04-01T16:54:04.000Z</Time>
            <Position>
              <LatitudeDegrees>42.36470961011946201324462890625</LatitudeDegrees>
              <LongitudeDegrees>2.64793097041547298431396484375</LongitudeDegrees>
            </Position>
            <AltitudeMeters>832.20001220703125</AltitudeMeters>
            <DistanceMeters>NAN</DistanceMeters>
          </Trackpoint>
          <Trackpoint>
            <Time>2021-04-01T16:54:05.000Z</Time>
            <Position>
              <LatitudeDegrees>42.36471598036587238311767578125</LatitudeDegrees>
              <LongitudeDegrees>2.64794806949794292449951171875</LongitudeDegrees>
            </Position>
            <AltitudeMeters>832.20001220703125</AltitudeMeters>
            <DistanceMeters>NAN</DistanceMeters>
          </Trackpoint>
          <Trackpoint>
            <Time>2021-04-01T16:54:07.000Z</Time>
            <Position>
              <LatitudeDegrees>42.36471690237522125244140625</LatitudeDegrees>
              <LongitudeDegrees>2.6479907333850860595703125</LongitudeDegrees>
            </Position>
            <AltitudeMeters>832.20001220703125</AltitudeMeters>
            <DistanceMeters>NAN</DistanceMeters>
          </Trackpoint>
          <Trackpoint>
            <Time>2021-04-01T16:54:10.000Z</Time>
            <Position>
              <LatitudeDegrees>42.3647298105061054229736328125</LatitudeDegrees>
              <LongitudeDegrees>2.64803155325353145599365234375</LongitudeDegrees>
            </Position>
            <AltitudeMeters>832.4000244140625</AltitudeMeters>
            <DistanceMeters>NAN</DistanceMeters>
          </Trackpoint>
          <Trackpoint>
            <Time>2021-04-01T16:54:16.000Z</Time>
            <Position>
              <LatitudeDegrees>42.36474908888339996337890625</LatitudeDegrees>
              <LongitudeDegrees>2.64811436645686626434326171875</LongitudeDegrees>
            </Position>
            <AltitudeMeters>832.5999755859375</AltitudeMeters>
            <DistanceMeters>NAN</DistanceMeters>
          </Trackpoint>
          <Trackpoint>
            <Time>2021-04-01T16:54:21.000Z</Time>
            <Position>
              <LatitudeDegrees>42.36475386656820774078369140625</LatitudeDegrees>
              <LongitudeDegrees>2.64818376861512660980224609375</LongitudeDegrees>
            </Position>
            <AltitudeMeters>832.5999755859375</AltitudeMeters>
            <DistanceMeters>NAN</DistanceMeters>
          </Trackpoint>
          <Trackpoint>
            <Time>2021-04-01T16:54:25.000Z</Time>
            <Position>
              <LatitudeDegrees>42.36475638113915920257568359375</LatitudeDegrees>
              <LongitudeDegrees>2.64824646525084972381591796875</LongitudeDegrees>
            </Position>
            <AltitudeMeters>832.79998779296875</AltitudeMeters>
            <DistanceMeters>NAN</DistanceMeters>
          </Trackpoint>
          <Trackpoint>
            <Time>2021-04-01T16:54:30.000Z</Time>
            <Position>
              <LatitudeDegrees>42.364767529070377349853515625</LatitudeDegrees>
              <LongitudeDegrees>2.648320309817790985107421875</LongitudeDegrees>
            </Position>
            <AltitudeMeters>832.79998779296875</AltitudeMeters>
            <DistanceMeters>NAN</DistanceMeters>
          </Trackpoint>
          <Trackpoint>
            <Time>2021-04-01T16:54:32.000Z</Time>
            <Position>
              <LatitudeDegrees>42.36477297730743885040283203125</LatitudeDegrees>
              <LongitudeDegrees>2.6483526639640331268310546875</LongitudeDegrees>
            </Position>
            <AltitudeMeters>832.79998779296875</AltitudeMeters>
            <DistanceMeters>NAN</DistanceMeters>
          </Trackpoint>
          <Trackpoint>
            <Time>2021-04-01T16:54:33.000Z</Time>
            <Position>
              <LatitudeDegrees>42.3647747375071048736572265625</LatitudeDegrees>
              <LongitudeDegrees>2.64837034977972507476806640625</LongitudeDegrees>
            </Position>
            <AltitudeMeters>832.5999755859375</AltitudeMeters>
            <DistanceMeters>NAN</DistanceMeters>
          </Trackpoint>
          <Trackpoint>
            <Time>2021-04-01T16:54:39.000Z</Time>
            <Position>
              <LatitudeDegrees>42.364768199622631072998046875</LatitudeDegrees>
              <LongitudeDegrees>2.6484574377536773681640625</LongitudeDegrees>
            </Position>
            <AltitudeMeters>832.79998779296875</AltitudeMeters>
            <DistanceMeters>NAN</DistanceMeters>
          </Trackpoint>
          <Trackpoint>
            <Time>2021-04-01T16:54:41.000Z</Time>
            <Position>
              <LatitudeDegrees>42.36473961733281612396240234375</LatitudeDegrees>
              <LongitudeDegrees>2.648464478552341461181640625</LongitudeDegrees>
            </Position>
            <AltitudeMeters>832.79998779296875</AltitudeMeters>
            <DistanceMeters>NAN</DistanceMeters>
          </Trackpoint>
          <Trackpoint>
            <Time>2021-04-01T16:54:46.000Z</Time>
            <Position>
              <LatitudeDegrees>42.36466317437589168548583984375</LatitudeDegrees>
              <LongitudeDegrees>2.648460455238819122314453125</LongitudeDegrees>
            </Position>
            <AltitudeMeters>832.79998779296875</AltitudeMeters>
            <DistanceMeters>NAN</DistanceMeters>
          </Trackpoint>
          <Trackpoint>
            <Time>2021-04-01T16:54:52.000Z</Time>
            <Position>
              <LatitudeDegrees>42.3645792715251445770263671875</LatitudeDegrees>
              <LongitudeDegrees>2.64845618046820163726806640625</LongitudeDegrees>
            </Position>
            <AltitudeMeters>832.79998779296875</AltitudeMeters>
            <DistanceMeters>NAN</DistanceMeters>
          </Trackpoint>
          <Trackpoint>
            <Time>2021-04-01T16:54:57.000Z</Time>
            <Position>
              <LatitudeDegrees>42.36452369950711727142333984375</LatitudeDegrees>
              <LongitudeDegrees>2.64844226650893688201904296875</LongitudeDegrees>
            </Position>
            <AltitudeMeters>833.20001220703125</AltitudeMeters>
            <DistanceMeters>NAN</DistanceMeters>
          </Trackpoint>
          <Trackpoint>
            <Time>2021-04-01T16:55:01.000Z</Time>
            <Position>
              <LatitudeDegrees>42.36448145471513271331787109375</LatitudeDegrees>
              <LongitudeDegrees>2.64844142831861972808837890625</LongitudeDegrees>
            </Position>
            <AltitudeMeters>833.4000244140625</AltitudeMeters>
            <DistanceMeters>NAN</DistanceMeters>
          </Trackpoint>
          <Trackpoint>
            <Time>2021-04-01T16:55:11.000Z</Time>
            <Position>
              <LatitudeDegrees>42.36437282525002956390380859375</LatitudeDegrees>
              <LongitudeDegrees>2.648448385298252105712890625</LongitudeDegrees>
            </Position>
            <AltitudeMeters>834</AltitudeMeters>
            <DistanceMeters>NAN</DistanceMeters>
          </Trackpoint>
          <Trackpoint>
            <Time>2021-04-01T16:55:13.000Z</Time>
            <Position>
              <LatitudeDegrees>42.364353798329830169677734375</LatitudeDegrees>
              <LongitudeDegrees>2.64845668338239192962646484375</LongitudeDegrees>
            </Position>
            <AltitudeMeters>834.4000244140625</AltitudeMeters>
            <DistanceMeters>NAN</DistanceMeters>
          </Trackpoint>
          <Trackpoint>
            <Time>2021-04-01T16:55:15.000Z</Time>
            <Position>
              <LatitudeDegrees>42.36433711834251880645751953125</LatitudeDegrees>
              <LongitudeDegrees>2.64847344718873500823974609375</LongitudeDegrees>
            </Position>
            <AltitudeMeters>834.5999755859375</AltitudeMeters>
            <DistanceMeters>NAN</DistanceMeters>
          </Trackpoint>
          <Trackpoint>
            <Time>2021-04-01T16:55:17.000Z</Time>
            <Position>
              <LatitudeDegrees>42.36432270146906375885009765625</LatitudeDegrees>
              <LongitudeDegrees>2.6484896242618560791015625</LongitudeDegrees>
            </Position>
            <AltitudeMeters>834.79998779296875</AltitudeMeters>
            <DistanceMeters>NAN</DistanceMeters>
          </Trackpoint>
          <Trackpoint>
            <Time>2021-04-01T16:55:19.000Z</Time>
            <Position>
              <LatitudeDegrees>42.364310882985591888427734375</LatitudeDegrees>
              <LongitudeDegrees>2.64850630424916744232177734375</LongitudeDegrees>
            </Position>
            <AltitudeMeters>835</AltitudeMeters>
            <DistanceMeters>NAN</DistanceMeters>
          </Trackpoint>
          <Trackpoint>
            <Time>2021-04-01T16:55:21.000Z</Time>
            <Position>
              <LatitudeDegrees>42.36429772339761257171630859375</LatitudeDegrees>
              <LongitudeDegrees>2.64852440916001796722412109375</LongitudeDegrees>
            </Position>
            <AltitudeMeters>835</AltitudeMeters>
            <DistanceMeters>NAN</DistanceMeters>
          </Trackpoint>
          <Trackpoint>
            <Time>2021-04-01T16:55:24.000Z</Time>
            <Position>
              <LatitudeDegrees>42.36428045667707920074462890625</LatitudeDegrees>
              <LongitudeDegrees>2.64855123125016689300537109375</LongitudeDegrees>
            </Position>
            <AltitudeMeters>835.4000244140625</AltitudeMeters>
            <DistanceMeters>NAN</DistanceMeters>
          </Trackpoint>
          <Trackpoint>
            <Time>2021-04-01T16:55:26.000Z</Time>
            <Position>
              <LatitudeDegrees>42.3642681352794170379638671875</LatitudeDegrees>
              <LongitudeDegrees>2.64857352711260318756103515625</LongitudeDegrees>
            </Position>
            <AltitudeMeters>835.4000244140625</AltitudeMeters>
            <DistanceMeters>NAN</DistanceMeters>
          </Trackpoint>
          <Trackpoint>
            <Time>2021-04-01T16:55:27.000Z</Time>
            <Position>
              <LatitudeDegrees>42.36426419578492641448974609375</LatitudeDegrees>
              <LongitudeDegrees>2.64858492650091648101806640625</LongitudeDegrees>
            </Position>
            <AltitudeMeters>835.4000244140625</AltitudeMeters>
            <DistanceMeters>NAN</DistanceMeters>
          </Trackpoint>
          <Trackpoint>
            <Time>2021-04-01T16:55:28.000Z</Time>
            <Position>
              <LatitudeDegrees>42.3642580769956111907958984375</LatitudeDegrees>
              <LongitudeDegrees>2.64859867282211780548095703125</LongitudeDegrees>
            </Position>
            <AltitudeMeters>835.5999755859375</AltitudeMeters>
            <DistanceMeters>NAN</DistanceMeters>
          </Trackpoint>
          <Trackpoint>
            <Time>2021-04-01T16:55:32.000Z</Time>
            <Position>
              <LatitudeDegrees>42.364235781133174896240234375</LatitudeDegrees>
              <LongitudeDegrees>2.64863647520542144775390625</LongitudeDegrees>
            </Position>
            <AltitudeMeters>835.79998779296875</AltitudeMeters>
            <DistanceMeters>NAN</DistanceMeters>
          </Trackpoint>
          <Trackpoint>
            <Time>2021-04-01T16:55:34.000Z</Time>
            <Position>
              <LatitudeDegrees>42.36421876586973667144775390625</LatitudeDegrees>
              <LongitudeDegrees>2.648648880422115325927734375</LongitudeDegrees>
            </Position>
            <AltitudeMeters>836</AltitudeMeters>
            <DistanceMeters>NAN</DistanceMeters>
          </Trackpoint>
          <Trackpoint>
            <Time>2021-04-01T16:55:39.000Z</Time>
            <Position>
              <LatitudeDegrees>42.3641809634864330291748046875</LatitudeDegrees>
              <LongitudeDegrees>2.64869255013763904571533203125</LongitudeDegrees>
            </Position>
            <AltitudeMeters>836.5999755859375</AltitudeMeters>
            <DistanceMeters>NAN</DistanceMeters>
          </Trackpoint>
          <Trackpoint>
            <Time>2021-04-01T16:55:40.000Z</Time>
            <Position>
              <LatitudeDegrees>42.36417065374553203582763671875</LatitudeDegrees>
              <LongitudeDegrees>2.6486993394792079925537109375</LongitudeDegrees>
            </Position>
            <AltitudeMeters>836.5999755859375</AltitudeMeters>
            <DistanceMeters>NAN</DistanceMeters>
          </Trackpoint>
          <Trackpoint>
            <Time>2021-04-01T16:55:41.000Z</Time>
            <Position>
              <LatitudeDegrees>42.36416160129010677337646484375</LatitudeDegrees>
              <LongitudeDegrees>2.64870378188788890838623046875</LongitudeDegrees>
            </Position>
            <AltitudeMeters>836.79998779296875</AltitudeMeters>
            <DistanceMeters>NAN</DistanceMeters>
          </Trackpoint>
          <Trackpoint>
            <Time>2021-04-01T16:55:42.000Z</Time>
            <Position>
              <LatitudeDegrees>42.3641517944633960723876953125</LatitudeDegrees>
              <LongitudeDegrees>2.64870763756334781646728515625</LongitudeDegrees>
            </Position>
            <AltitudeMeters>836.79998779296875</AltitudeMeters>
            <DistanceMeters>NAN</DistanceMeters>
          </Trackpoint>
          <Trackpoint>
            <Time>2021-04-01T16:55:48.000Z</Time>
            <Position>
              <LatitudeDegrees>42.364088930189609527587890625</LatitudeDegrees>
              <LongitudeDegrees>2.64872205443680286407470703125</LongitudeDegrees>
            </Position>
            <AltitudeMeters>837</AltitudeMeters>
            <DistanceMeters>NAN</DistanceMeters>
          </Trackpoint>
          <Trackpoint>
            <Time>2021-04-01T16:55:50.000Z</Time>
            <Position>
              <LatitudeDegrees>42.36407007090747356414794921875</LatitudeDegrees>
              <LongitudeDegrees>2.64872138388454914093017578125</LongitudeDegrees>
            </Position>
            <AltitudeMeters>837.4000244140625</AltitudeMeters>
            <DistanceMeters>NAN</DistanceMeters>
          </Trackpoint>
          <Trackpoint>
            <Time>2021-04-01T16:55:52.000Z</Time>
            <Position>
              <LatitudeDegrees>42.36405481584370136260986328125</LatitudeDegrees>
              <LongitudeDegrees>2.648713588714599609375</LongitudeDegrees>
            </Position>
            <AltitudeMeters>837.5999755859375</AltitudeMeters>
            <DistanceMeters>NAN</DistanceMeters>
          </Trackpoint>
          <Trackpoint>
            <Time>2021-04-01T16:55:53.000Z</Time>
            <Position>
              <LatitudeDegrees>42.36404878087341785430908203125</LatitudeDegrees>
              <LongitudeDegrees>2.64870579354465007781982421875</LongitudeDegrees>
            </Position>
            <AltitudeMeters>837.5999755859375</AltitudeMeters>
            <DistanceMeters>NAN</DistanceMeters>
          </Trackpoint>
          <Trackpoint>
            <Time>2021-04-01T16:55:57.000Z</Time>
            <Position>
              <LatitudeDegrees>42.3640512116253376007080078125</LatitudeDegrees>
              <LongitudeDegrees>2.648665644228458404541015625</LongitudeDegrees>
            </Position>
            <AltitudeMeters>838</AltitudeMeters>
            <DistanceMeters>NAN</DistanceMeters>
          </Trackpoint>
          <Trackpoint>
            <Time>2021-04-01T16:56:00.000Z</Time>
            <Position>
              <LatitudeDegrees>42.36405850388109683990478515625</LatitudeDegrees>
              <LongitudeDegrees>2.6486453600227832794189453125</LongitudeDegrees>
            </Position>
            <AltitudeMeters>838.4000244140625</AltitudeMeters>
            <DistanceMeters>NAN</DistanceMeters>
          </Trackpoint>
          <Trackpoint>
            <Time>2021-04-01T16:56:02.000Z</Time>
            <Position>
              <LatitudeDegrees>42.36406403593719005584716796875</LatitudeDegrees>
              <LongitudeDegrees>2.64864611439406871795654296875</LongitudeDegrees>
            </Position>
            <AltitudeMeters>838.5999755859375</AltitudeMeters>
            <DistanceMeters>NAN</DistanceMeters>
          </Trackpoint>
          <Trackpoint>
            <Time>2021-04-01T16:56:04.000Z</Time>
            <Position>
              <LatitudeDegrees>42.364058084785938262939453125</LatitudeDegrees>
              <LongitudeDegrees>2.64865281991660594940185546875</LongitudeDegrees>
            </Position>
            <AltitudeMeters>838.5999755859375</AltitudeMeters>
            <DistanceMeters>NAN</DistanceMeters>
          </Trackpoint>
          <Trackpoint>
            <Time>2021-04-01T16:56:08.000Z</Time>
            <Position>
              <LatitudeDegrees>42.364058084785938262939453125</LatitudeDegrees>
              <LongitudeDegrees>2.64865281991660594940185546875</LongitudeDegrees>
            </Position>
            <AltitudeMeters>838.5999755859375</AltitudeMeters>
            <DistanceMeters>NAN</DistanceMeters>
          </Trackpoint>
          <Trackpoint>
            <Time>2021-04-01T16:56:17.000Z</Time>
            <Position>
              <LatitudeDegrees>42.364032603800296783447265625</LatitudeDegrees>
              <LongitudeDegrees>2.64867042191326618194580078125</LongitudeDegrees>
            </Position>
            <AltitudeMeters>838.4000244140625</AltitudeMeters>
            <DistanceMeters>NAN</DistanceMeters>
          </Trackpoint>
          <Trackpoint>
            <Time>2021-04-01T16:56:20.000Z</Time>
            <Position>
              <LatitudeDegrees>42.3639985732734203338623046875</LatitudeDegrees>
              <LongitudeDegrees>2.64868299476802349090576171875</LongitudeDegrees>
            </Position>
            <AltitudeMeters>838.5999755859375</AltitudeMeters>
            <DistanceMeters>NAN</DistanceMeters>
          </Trackpoint>
          <Trackpoint>
            <Time>2021-04-01T16:56:22.000Z</Time>
            <Position>
              <LatitudeDegrees>42.363986670970916748046875</LatitudeDegrees>
              <LongitudeDegrees>2.6486916281282901763916015625</LongitudeDegrees>
            </Position>
            <AltitudeMeters>838.5999755859375</AltitudeMeters>
            <DistanceMeters>NAN</DistanceMeters>
          </Trackpoint>
          <Trackpoint>
            <Time>2021-04-01T16:56:23.000Z</Time>
            <Position>
              <LatitudeDegrees>42.3639834858477115631103515625</LatitudeDegrees>
              <LongitudeDegrees>2.648694477975368499755859375</LongitudeDegrees>
            </Position>
            <AltitudeMeters>838.5999755859375</AltitudeMeters>
            <DistanceMeters>NAN</DistanceMeters>
          </Trackpoint>
          <Trackpoint>
            <Time>2021-04-01T16:56:26.000Z</Time>
            <Position>
              <LatitudeDegrees>42.36398239620029926300048828125</LatitudeDegrees>
              <LongitudeDegrees>2.64869288541376590728759765625</LongitudeDegrees>
            </Position>
            <AltitudeMeters>838.79998779296875</AltitudeMeters>
            <DistanceMeters>NAN</DistanceMeters>
          </Trackpoint>
          <Trackpoint>
            <Time>2021-04-01T16:56:27.000Z</Time>
            <Position>
              <LatitudeDegrees>42.3639834858477115631103515625</LatitudeDegrees>
              <LongitudeDegrees>2.6486907899379730224609375</LongitudeDegrees>
            </Position>
            <AltitudeMeters>838.79998779296875</AltitudeMeters>
            <DistanceMeters>NAN</DistanceMeters>
          </Trackpoint>
          <Trackpoint>
            <Time>2021-04-01T16:56:37.000Z</Time>
            <Position>
              <LatitudeDegrees>42.363940738141536712646484375</LatitudeDegrees>
              <LongitudeDegrees>2.6486586034297943115234375</LongitudeDegrees>
            </Position>
            <AltitudeMeters>838.79998779296875</AltitudeMeters>
            <DistanceMeters>NAN</DistanceMeters>
          </Trackpoint>
          <Trackpoint>
            <Time>2021-04-01T16:56:42.000Z</Time>
            <Position>
              <LatitudeDegrees>42.36389991827309131622314453125</LatitudeDegrees>
              <LongitudeDegrees>2.648632116615772247314453125</LongitudeDegrees>
            </Position>
            <AltitudeMeters>839.4000244140625</AltitudeMeters>
            <DistanceMeters>NAN</DistanceMeters>
          </Trackpoint>
          <Trackpoint>
            <Time>2021-04-01T16:56:45.000Z</Time>
            <Position>
              <LatitudeDegrees>42.36388139426708221435546875</LatitudeDegrees>
              <LongitudeDegrees>2.64859087765216827392578125</LongitudeDegrees>
            </Position>
            <AltitudeMeters>839.79998779296875</AltitudeMeters>
            <DistanceMeters>NAN</DistanceMeters>
          </Trackpoint>
          <Trackpoint>
            <Time>2021-04-01T16:56:47.000Z</Time>
            <Position>
              <LatitudeDegrees>42.36386261880397796630859375</LatitudeDegrees>
              <LongitudeDegrees>2.64856941998004913330078125</LongitudeDegrees>
            </Position>
            <AltitudeMeters>839.79998779296875</AltitudeMeters>
            <DistanceMeters>NAN</DistanceMeters>
          </Trackpoint>
          <Trackpoint>
            <Time>2021-04-01T16:56:50.000Z</Time>
            <Position>
              <LatitudeDegrees>42.36384107731282711029052734375</LatitudeDegrees>
              <LongitudeDegrees>2.64853513799607753753662109375</LongitudeDegrees>
            </Position>
            <AltitudeMeters>839.79998779296875</AltitudeMeters>
            <DistanceMeters>NAN</DistanceMeters>
          </Trackpoint>
          <Trackpoint>
            <Time>2021-04-01T16:56:51.000Z</Time>
            <Position>
              <LatitudeDegrees>42.3638356290757656097412109375</LatitudeDegrees>
              <LongitudeDegrees>2.64852139167487621307373046875</LongitudeDegrees>
            </Position>
            <AltitudeMeters>839.79998779296875</AltitudeMeters>
            <DistanceMeters>NAN</DistanceMeters>
          </Trackpoint>
          <Trackpoint>
            <Time>2021-04-01T16:56:53.000Z</Time>
            <Position>
              <LatitudeDegrees>42.36382129602134227752685546875</LatitudeDegrees>
              <LongitudeDegrees>2.64849423430860042572021484375</LongitudeDegrees>
            </Position>
            <AltitudeMeters>839.79998779296875</AltitudeMeters>
            <DistanceMeters>NAN</DistanceMeters>
          </Trackpoint>
          <Trackpoint>
            <Time>2021-04-01T16:56:58.000Z</Time>
            <Position>
              <LatitudeDegrees>42.3637870140373706817626953125</LatitudeDegrees>
              <LongitudeDegrees>2.64844394288957118988037109375</LongitudeDegrees>
            </Position>
            <AltitudeMeters>840</AltitudeMeters>
            <DistanceMeters>NAN</DistanceMeters>
          </Trackpoint>
          <Trackpoint>
            <Time>2021-04-01T16:57:00.000Z</Time>
            <Position>
              <LatitudeDegrees>42.36377234570682048797607421875</LatitudeDegrees>
              <LongitudeDegrees>2.64842634089291095733642578125</LongitudeDegrees>
            </Position>
            <AltitudeMeters>840.20001220703125</AltitudeMeters>
            <DistanceMeters>NAN</DistanceMeters>
          </Trackpoint>
          <Trackpoint>
            <Time>2021-04-01T16:57:02.000Z</Time>
            <Position>
              <LatitudeDegrees>42.3637575097382068634033203125</LatitudeDegrees>
              <LongitudeDegrees>2.6484056375920772552490234375</LongitudeDegrees>
            </Position>
            <AltitudeMeters>840.20001220703125</AltitudeMeters>
            <DistanceMeters>NAN</DistanceMeters>
          </Trackpoint>
          <Trackpoint>
            <Time>2021-04-01T16:57:06.000Z</Time>
            <Position>
              <LatitudeDegrees>42.3637263290584087371826171875</LatitudeDegrees>
              <LongitudeDegrees>2.6483769714832305908203125</LongitudeDegrees>
            </Position>
            <AltitudeMeters>840.5999755859375</AltitudeMeters>
            <DistanceMeters>NAN</DistanceMeters>
          </Trackpoint>
          <Trackpoint>
            <Time>2021-04-01T16:57:10.000Z</Time>
            <Position>
              <LatitudeDegrees>42.363690622150897979736328125</LatitudeDegrees>
              <LongitudeDegrees>2.6483439467847347259521484375</LongitudeDegrees>
            </Position>
            <AltitudeMeters>840.5999755859375</AltitudeMeters>
            <DistanceMeters>NAN</DistanceMeters>
          </Trackpoint>
          <Trackpoint>
            <Time>2021-04-01T16:57:12.000Z</Time>
            <Position>
              <LatitudeDegrees>42.3636787198483943939208984375</LatitudeDegrees>
              <LongitudeDegrees>2.64832408167421817779541015625</LongitudeDegrees>
            </Position>
            <AltitudeMeters>840.5999755859375</AltitudeMeters>
            <DistanceMeters>NAN</DistanceMeters>
          </Trackpoint>
          <Trackpoint>
            <Time>2021-04-01T16:57:13.000Z</Time>
            <Position>
              <LatitudeDegrees>42.36367461271584033966064453125</LatitudeDegrees>
              <LongitudeDegrees>2.64831184409558773040771484375</LongitudeDegrees>
            </Position>
            <AltitudeMeters>840.79998779296875</AltitudeMeters>
            <DistanceMeters>NAN</DistanceMeters>
          </Trackpoint>
          <Trackpoint>
            <Time>2021-04-01T16:57:18.000Z</Time>
            <Position>
              <LatitudeDegrees>42.36363865435123443603515625</LatitudeDegrees>
              <LongitudeDegrees>2.64826364815235137939453125</LongitudeDegrees>
            </Position>
            <AltitudeMeters>841</AltitudeMeters>
            <DistanceMeters>NAN</DistanceMeters>
          </Trackpoint>
          <Trackpoint>
            <Time>2021-04-01T16:57:19.000Z</Time>
            <Position>
              <LatitudeDegrees>42.36363069154322147369384765625</LatitudeDegrees>
              <LongitudeDegrees>2.64825157821178436279296875</LongitudeDegrees>
            </Position>
            <AltitudeMeters>841.20001220703125</AltitudeMeters>
            <DistanceMeters>NAN</DistanceMeters>
          </Trackpoint>
          <Trackpoint>
            <Time>2021-04-01T16:57:21.000Z</Time>
            <Position>
              <LatitudeDegrees>42.363616861402988433837890625</LatitudeDegrees>
              <LongitudeDegrees>2.64823171310126781463623046875</LongitudeDegrees>
            </Position>
            <AltitudeMeters>841.20001220703125</AltitudeMeters>
            <DistanceMeters>NAN</DistanceMeters>
          </Trackpoint>
          <Trackpoint>
            <Time>2021-04-01T16:57:27.000Z</Time>
            <Position>
              <LatitudeDegrees>42.3635710962116718292236328125</LatitudeDegrees>
              <LongitudeDegrees>2.64818075112998485565185546875</LongitudeDegrees>
            </Position>
            <AltitudeMeters>841.79998779296875</AltitudeMeters>
            <DistanceMeters>NAN</DistanceMeters>
          </Trackpoint>
          <Trackpoint>
            <Time>2021-04-01T16:57:30.000Z</Time>
            <Position>
              <LatitudeDegrees>42.36356162466108798980712890625</LatitudeDegrees>
              <LongitudeDegrees>2.64814102090895175933837890625</LongitudeDegrees>
            </Position>
            <AltitudeMeters>842.20001220703125</AltitudeMeters>
            <DistanceMeters>NAN</DistanceMeters>
          </Trackpoint>
          <Trackpoint>
            <Time>2021-04-01T16:57:31.000Z</Time>
            <Position>
              <LatitudeDegrees>42.3635583557188510894775390625</LatitudeDegrees>
              <LongitudeDegrees>2.64812844805419445037841796875</LongitudeDegrees>
            </Position>
            <AltitudeMeters>842.4000244140625</AltitudeMeters>
            <DistanceMeters>NAN</DistanceMeters>
          </Trackpoint>
          <Trackpoint>
            <Time>2021-04-01T16:57:32.000Z</Time>
            <Position>
              <LatitudeDegrees>42.36355416476726531982421875</LatitudeDegrees>
              <LongitudeDegrees>2.64811813831329345703125</LongitudeDegrees>
            </Position>
            <AltitudeMeters>842.4000244140625</AltitudeMeters>
            <DistanceMeters>NAN</DistanceMeters>
          </Trackpoint>
          <Trackpoint>
            <Time>2021-04-01T16:57:37.000Z</Time>
            <Position>
              <LatitudeDegrees>42.363553158938884735107421875</LatitudeDegrees>
              <LongitudeDegrees>2.648043371737003326416015625</LongitudeDegrees>
            </Position>
            <AltitudeMeters>842.4000244140625</AltitudeMeters>
            <DistanceMeters>NAN</DistanceMeters>
          </Trackpoint>
          <Trackpoint>
            <Time>2021-04-01T16:57:38.000Z</Time>
            <Position>
              <LatitudeDegrees>42.363556511700153350830078125</LatitudeDegrees>
              <LongitudeDegrees>2.64803289435803890228271484375</LongitudeDegrees>
            </Position>
            <AltitudeMeters>842.5999755859375</AltitudeMeters>
            <DistanceMeters>NAN</DistanceMeters>
          </Trackpoint>
          <Trackpoint>
            <Time>2021-04-01T16:57:39.000Z</Time>
            <Position>
              <LatitudeDegrees>42.36355709843337535858154296875</LatitudeDegrees>
              <LongitudeDegrees>2.648016549646854400634765625</LongitudeDegrees>
            </Position>
            <AltitudeMeters>842.79998779296875</AltitudeMeters>
            <DistanceMeters>NAN</DistanceMeters>
          </Trackpoint>
          <Trackpoint>
            <Time>2021-04-01T16:57:41.000Z</Time>
            <Position>
              <LatitudeDegrees>42.36354821361601352691650390625</LatitudeDegrees>
              <LongitudeDegrees>2.64799274504184722900390625</LongitudeDegrees>
            </Position>
            <AltitudeMeters>843</AltitudeMeters>
            <DistanceMeters>NAN</DistanceMeters>
          </Trackpoint>
          <Trackpoint>
            <Time>2021-04-01T16:57:44.000Z</Time>
            <Position>
              <LatitudeDegrees>42.3635399155318737030029296875</LatitudeDegrees>
              <LongitudeDegrees>2.64794044196605682373046875</LongitudeDegrees>
            </Position>
            <AltitudeMeters>843.4000244140625</AltitudeMeters>
            <DistanceMeters>NAN</DistanceMeters>
          </Trackpoint>
          <Trackpoint>
            <Time>2021-04-01T16:57:51.000Z</Time>
            <Position>
              <LatitudeDegrees>42.36353404819965362548828125</LatitudeDegrees>
              <LongitudeDegrees>2.64786978252232074737548828125</LongitudeDegrees>
            </Position>
            <AltitudeMeters>843.5999755859375</AltitudeMeters>
            <DistanceMeters>NAN</DistanceMeters>
          </Trackpoint>
          <Trackpoint>
            <Time>2021-04-01T16:57:56.000Z</Time>
            <Position>
              <LatitudeDegrees>42.3635288514196872711181640625</LatitudeDegrees>
              <LongitudeDegrees>2.647813372313976287841796875</LongitudeDegrees>
            </Position>
            <AltitudeMeters>844</AltitudeMeters>
            <DistanceMeters>NAN</DistanceMeters>
          </Trackpoint>
          <Trackpoint>
            <Time>2021-04-01T16:57:58.000Z</Time>
            <Position>
              <LatitudeDegrees>42.3635266721248626708984375</LatitudeDegrees>
              <LongitudeDegrees>2.64779292047023773193359375</LongitudeDegrees>
            </Position>
            <AltitudeMeters>844.20001220703125</AltitudeMeters>
            <DistanceMeters>NAN</DistanceMeters>
          </Trackpoint>
          <Trackpoint>
            <Time>2021-04-01T16:58:03.000Z</Time>
            <Position>
              <LatitudeDegrees>42.36351468600332736968994140625</LatitudeDegrees>
              <LongitudeDegrees>2.64773014001548290252685546875</LongitudeDegrees>
            </Position>
            <AltitudeMeters>844.4000244140625</AltitudeMeters>
            <DistanceMeters>NAN</DistanceMeters>
          </Trackpoint>
          <Trackpoint>
            <Time>2021-04-01T16:58:05.000Z</Time>
            <Position>
              <LatitudeDegrees>42.363514602184295654296875</LatitudeDegrees>
              <LongitudeDegrees>2.64770767651498317718505859375</LongitudeDegrees>
            </Position>
            <AltitudeMeters>844.5999755859375</AltitudeMeters>
            <DistanceMeters>NAN</DistanceMeters>
          </Trackpoint>
          <Trackpoint>
            <Time>2021-04-01T16:58:06.000Z</Time>
            <Position>
              <LatitudeDegrees>42.363514266908168792724609375</LatitudeDegrees>
              <LongitudeDegrees>2.647696696221828460693359375</LongitudeDegrees>
            </Position>
            <AltitudeMeters>844.79998779296875</AltitudeMeters>
            <DistanceMeters>NAN</DistanceMeters>
          </Trackpoint>
          <Trackpoint>
            <Time>2021-04-01T16:58:10.000Z</Time>
            <Position>
              <LatitudeDegrees>42.36350395716726779937744140625</LatitudeDegrees>
              <LongitudeDegrees>2.64764380641281604766845703125</LongitudeDegrees>
            </Position>
            <AltitudeMeters>845</AltitudeMeters>
            <DistanceMeters>NAN</DistanceMeters>
          </Trackpoint>
          <Trackpoint>
            <Time>2021-04-01T16:58:13.000Z</Time>
            <Position>
              <LatitudeDegrees>42.3634963296353816986083984375</LatitudeDegrees>
              <LongitudeDegrees>2.64760809950530529022216796875</LongitudeDegrees>
            </Position>
            <AltitudeMeters>845</AltitudeMeters>
            <DistanceMeters>NAN</DistanceMeters>
          </Trackpoint>
          <Trackpoint>
            <Time>2021-04-01T16:58:14.000Z</Time>
            <Position>
              <LatitudeDegrees>42.36349775455892086029052734375</LatitudeDegrees>
              <LongitudeDegrees>2.64759334735572338104248046875</LongitudeDegrees>
            </Position>
            <AltitudeMeters>845.20001220703125</AltitudeMeters>
            <DistanceMeters>NAN</DistanceMeters>
          </Trackpoint>
          <Trackpoint>
            <Time>2021-04-01T16:58:15.000Z</Time>
            <Position>
              <LatitudeDegrees>42.36350261606276035308837890625</LatitudeDegrees>
              <LongitudeDegrees>2.64758102595806121826171875</LongitudeDegrees>
            </Position>
            <AltitudeMeters>845.4000244140625</AltitudeMeters>
            <DistanceMeters>NAN</DistanceMeters>
          </Trackpoint>
          <Trackpoint>
            <Time>2021-04-01T16:58:22.000Z</Time>
            <Position>
              <LatitudeDegrees>42.3634802363812923431396484375</LatitudeDegrees>
              <LongitudeDegrees>2.64746359549462795257568359375</LongitudeDegrees>
            </Position>
            <AltitudeMeters>846</AltitudeMeters>
            <DistanceMeters>NAN</DistanceMeters>
          </Trackpoint>
          <Trackpoint>
            <Time>2021-04-01T16:58:26.000Z</Time>
            <Position>
              <LatitudeDegrees>42.36346472986042499542236328125</LatitudeDegrees>
              <LongitudeDegrees>2.6474024914205074310302734375</LongitudeDegrees>
            </Position>
            <AltitudeMeters>846.20001220703125</AltitudeMeters>
            <DistanceMeters>NAN</DistanceMeters>
          </Trackpoint>
          <Trackpoint>
            <Time>2021-04-01T16:58:30.000Z</Time>
            <Position>
              <LatitudeDegrees>42.36344511620700359344482421875</LatitudeDegrees>
              <LongitudeDegrees>2.64733501709997653961181640625</LongitudeDegrees>
            </Position>
            <AltitudeMeters>846.4000244140625</AltitudeMeters>
            <DistanceMeters>NAN</DistanceMeters>
          </Trackpoint>
          <Trackpoint>
            <Time>2021-04-01T16:58:34.000Z</Time>
            <Position>
              <LatitudeDegrees>42.363429777324199676513671875</LatitudeDegrees>
              <LongitudeDegrees>2.64729201793670654296875</LongitudeDegrees>
            </Position>
            <AltitudeMeters>847</AltitudeMeters>
            <DistanceMeters>NAN</DistanceMeters>
          </Trackpoint>
          <Trackpoint>
            <Time>2021-04-01T16:58:36.000Z</Time>
            <Position>
              <LatitudeDegrees>42.3634262569248676300048828125</LatitudeDegrees>
              <LongitudeDegrees>2.64726410619914531707763671875</LongitudeDegrees>
            </Position>
            <AltitudeMeters>847.20001220703125</AltitudeMeters>
            <DistanceMeters>NAN</DistanceMeters>
          </Trackpoint>
          <Trackpoint>
            <Time>2021-04-01T16:58:37.000Z</Time>
            <Position>
              <LatitudeDegrees>42.36342198215425014495849609375</LatitudeDegrees>
              <LongitudeDegrees>2.647248767316341400146484375</LongitudeDegrees>
            </Position>
            <AltitudeMeters>847.4000244140625</AltitudeMeters>
            <DistanceMeters>NAN</DistanceMeters>
          </Trackpoint>
          <Trackpoint>
            <Time>2021-04-01T16:58:42.000Z</Time>
            <Position>
              <LatitudeDegrees>42.3633954115211963653564453125</LatitudeDegrees>
              <LongitudeDegrees>2.64718531630933284759521484375</LongitudeDegrees>
            </Position>
            <AltitudeMeters>847.79998779296875</AltitudeMeters>
            <DistanceMeters>NAN</DistanceMeters>
          </Trackpoint>
          <Trackpoint>
            <Time>2021-04-01T16:58:45.000Z</Time>
            <Position>
              <LatitudeDegrees>42.363376803696155548095703125</LatitudeDegrees>
              <LongitudeDegrees>2.6471538841724395751953125</LongitudeDegrees>
            </Position>
            <AltitudeMeters>847.79998779296875</AltitudeMeters>
            <DistanceMeters>NAN</DistanceMeters>
          </Trackpoint>
          <Trackpoint>
            <Time>2021-04-01T16:58:46.000Z</Time>
            <Position>
              <LatitudeDegrees>42.36337303183972835540771484375</LatitudeDegrees>
              <LongitudeDegrees>2.64713636599481105804443359375</LongitudeDegrees>
            </Position>
            <AltitudeMeters>847.79998779296875</AltitudeMeters>
            <DistanceMeters>NAN</DistanceMeters>
          </Trackpoint>
          <Trackpoint>
            <Time>2021-04-01T16:58:52.000Z</Time>
            <Position>
              <LatitudeDegrees>42.363343276083469390869140625</LatitudeDegrees>
              <LongitudeDegrees>2.6470814645290374755859375</LongitudeDegrees>
            </Position>
            <AltitudeMeters>847.79998779296875</AltitudeMeters>
            <DistanceMeters>NAN</DistanceMeters>
          </Trackpoint>
          <Trackpoint>
            <Time>2021-04-01T16:58:55.000Z</Time>
            <Position>
              <LatitudeDegrees>42.36332659609615802764892578125</LatitudeDegrees>
              <LongitudeDegrees>2.64707014895975589752197265625</LongitudeDegrees>
            </Position>
            <AltitudeMeters>847.5999755859375</AltitudeMeters>
            <DistanceMeters>NAN</DistanceMeters>
          </Trackpoint>
          <Trackpoint>
            <Time>2021-04-01T16:58:58.000Z</Time>
            <Position>
              <LatitudeDegrees>42.36330077983438968658447265625</LatitudeDegrees>
              <LongitudeDegrees>2.64705120585858821868896484375</LongitudeDegrees>
            </Position>
            <AltitudeMeters>847.5999755859375</AltitudeMeters>
            <DistanceMeters>NAN</DistanceMeters>
          </Trackpoint>
          <Trackpoint>
            <Time>2021-04-01T16:59:03.000Z</Time>
            <Position>
              <LatitudeDegrees>42.36326540820300579071044921875</LatitudeDegrees>
              <LongitudeDegrees>2.6470276527106761932373046875</LongitudeDegrees>
            </Position>
            <AltitudeMeters>847.4000244140625</AltitudeMeters>
            <DistanceMeters>NAN</DistanceMeters>
          </Trackpoint>
          <Trackpoint>
            <Time>2021-04-01T16:59:06.000Z</Time>
            <Position>
              <LatitudeDegrees>42.36326037906110286712646484375</LatitudeDegrees>
              <LongitudeDegrees>2.64702857472002506256103515625</LongitudeDegrees>
            </Position>
            <AltitudeMeters>847.20001220703125</AltitudeMeters>
            <DistanceMeters>NAN</DistanceMeters>
          </Trackpoint>
          <Trackpoint>
            <Time>2021-04-01T16:59:07.000Z</Time>
            <Position>
              <LatitudeDegrees>42.36325920559465885162353515625</LatitudeDegrees>
              <LongitudeDegrees>2.647031508386135101318359375</LongitudeDegrees>
            </Position>
            <AltitudeMeters>847.20001220703125</AltitudeMeters>
            <DistanceMeters>NAN</DistanceMeters>
          </Trackpoint>
          <Trackpoint>
            <Time>2021-04-01T16:59:18.000Z</Time>
            <Position>
              <LatitudeDegrees>42.3632438667118549346923828125</LatitudeDegrees>
              <LongitudeDegrees>2.64703117311000823974609375</LongitudeDegrees>
            </Position>
            <AltitudeMeters>847</AltitudeMeters>
            <DistanceMeters>NAN</DistanceMeters>
          </Trackpoint>
          <Trackpoint>
            <Time>2021-04-01T16:59:22.000Z</Time>
            <Position>
              <LatitudeDegrees>42.36323389224708080291748046875</LatitudeDegrees>
              <LongitudeDegrees>2.64702170155942440032958984375</LongitudeDegrees>
            </Position>
            <AltitudeMeters>847</AltitudeMeters>
            <DistanceMeters>NAN</DistanceMeters>
          </Trackpoint>
          <Trackpoint>
            <Time>2021-04-01T16:59:27.000Z</Time>
            <Position>
              <LatitudeDegrees>42.36323229968547821044921875</LatitudeDegrees>
              <LongitudeDegrees>2.64702119864523410797119140625</LongitudeDegrees>
            </Position>
            <AltitudeMeters>846.79998779296875</AltitudeMeters>
            <DistanceMeters>NAN</DistanceMeters>
          </Trackpoint>
          <Trackpoint>
            <Time>2021-04-01T16:59:31.000Z</Time>
            <Position>
              <LatitudeDegrees>42.3631954193115234375</LatitudeDegrees>
              <LongitudeDegrees>2.646985240280628204345703125</LongitudeDegrees>
            </Position>
            <AltitudeMeters>846.5999755859375</AltitudeMeters>
            <DistanceMeters>NAN</DistanceMeters>
          </Trackpoint>
          <Trackpoint>
            <Time>2021-04-01T16:59:33.000Z</Time>
            <Position>
              <LatitudeDegrees>42.36317731440067291259765625</LatitudeDegrees>
              <LongitudeDegrees>2.64696302823722362518310546875</LongitudeDegrees>
            </Position>
            <AltitudeMeters>846.4000244140625</AltitudeMeters>
            <DistanceMeters>NAN</DistanceMeters>
          </Trackpoint>
          <Trackpoint>
            <Time>2021-04-01T16:59:34.000Z</Time>
            <Position>
              <LatitudeDegrees>42.36316784285008907318115234375</LatitudeDegrees>
              <LongitudeDegrees>2.6469559036195278167724609375</LongitudeDegrees>
            </Position>
            <AltitudeMeters>846.4000244140625</AltitudeMeters>
            <DistanceMeters>NAN</DistanceMeters>
          </Trackpoint>
          <Trackpoint>
            <Time>2021-04-01T16:59:36.000Z</Time>
            <Position>
              <LatitudeDegrees>42.36314772628247737884521484375</LatitudeDegrees>
              <LongitudeDegrees>2.64693972654640674591064453125</LongitudeDegrees>
            </Position>
            <AltitudeMeters>846.4000244140625</AltitudeMeters>
            <DistanceMeters>NAN</DistanceMeters>
          </Trackpoint>
          <Trackpoint>
            <Time>2021-04-01T16:59:38.000Z</Time>
            <Position>
              <LatitudeDegrees>42.363128028810024261474609375</LatitudeDegrees>
              <LongitudeDegrees>2.6469203643500804901123046875</LongitudeDegrees>
            </Position>
            <AltitudeMeters>846.4000244140625</AltitudeMeters>
            <DistanceMeters>NAN</DistanceMeters>
          </Trackpoint>
          <Trackpoint>
            <Time>2021-04-01T16:59:41.000Z</Time>
            <Position>
              <LatitudeDegrees>42.36310833133757114410400390625</LatitudeDegrees>
              <LongitudeDegrees>2.646892033517360687255859375</LongitudeDegrees>
            </Position>
            <AltitudeMeters>846.4000244140625</AltitudeMeters>
            <DistanceMeters>NAN</DistanceMeters>
          </Trackpoint>
          <Trackpoint>
            <Time>2021-04-01T16:59:43.000Z</Time>
            <Position>
              <LatitudeDegrees>42.36309592612087726593017578125</LatitudeDegrees>
              <LongitudeDegrees>2.64687116257846355438232421875</LongitudeDegrees>
            </Position>
            <AltitudeMeters>846.20001220703125</AltitudeMeters>
            <DistanceMeters>NAN</DistanceMeters>
          </Trackpoint>
          <Trackpoint>
            <Time>2021-04-01T16:59:46.000Z</Time>
            <Position>
              <LatitudeDegrees>42.36307413317263126373291015625</LatitudeDegrees>
              <LongitudeDegrees>2.64684517867863178253173828125</LongitudeDegrees>
            </Position>
            <AltitudeMeters>846.4000244140625</AltitudeMeters>
            <DistanceMeters>NAN</DistanceMeters>
          </Trackpoint>
          <Trackpoint>
            <Time>2021-04-01T16:59:51.000Z</Time>
            <Position>
              <LatitudeDegrees>42.363030798733234405517578125</LatitudeDegrees>
              <LongitudeDegrees>2.64679220505058765411376953125</LongitudeDegrees>
            </Position>
            <AltitudeMeters>846.4000244140625</AltitudeMeters>
            <DistanceMeters>NAN</DistanceMeters>
          </Trackpoint>
          <Trackpoint>
            <Time>2021-04-01T17:00:01.000Z</Time>
            <Position>
              <LatitudeDegrees>42.36295066773891448974609375</LatitudeDegrees>
              <LongitudeDegrees>2.646668739616870880126953125</LongitudeDegrees>
            </Position>
            <AltitudeMeters>847</AltitudeMeters>
            <DistanceMeters>NAN</DistanceMeters>
          </Trackpoint>
          <Trackpoint>
            <Time>2021-04-01T17:00:05.000Z</Time>
            <Position>
              <LatitudeDegrees>42.36292828805744647979736328125</LatitudeDegrees>
              <LongitudeDegrees>2.6466068811714649200439453125</LongitudeDegrees>
            </Position>
            <AltitudeMeters>847.20001220703125</AltitudeMeters>
            <DistanceMeters>NAN</DistanceMeters>
          </Trackpoint>
          <Trackpoint>
            <Time>2021-04-01T17:00:07.000Z</Time>
            <Position>
              <LatitudeDegrees>42.36291068606078624725341796875</LatitudeDegrees>
              <LongitudeDegrees>2.64657326973974704742431640625</LongitudeDegrees>
            </Position>
            <AltitudeMeters>847.20001220703125</AltitudeMeters>
            <DistanceMeters>NAN</DistanceMeters>
          </Trackpoint>
          <Trackpoint>
            <Time>2021-04-01T17:00:09.000Z</Time>
            <Position>
              <LatitudeDegrees>42.3628908209502696990966796875</LatitudeDegrees>
              <LongitudeDegrees>2.6465317793190479278564453125</LongitudeDegrees>
            </Position>
            <AltitudeMeters>847.4000244140625</AltitudeMeters>
            <DistanceMeters>NAN</DistanceMeters>
          </Trackpoint>
          <Trackpoint>
            <Time>2021-04-01T17:00:11.000Z</Time>
            <Position>
              <LatitudeDegrees>42.36288000829517841339111328125</LatitudeDegrees>
              <LongitudeDegrees>2.64650554396212100982666015625</LongitudeDegrees>
            </Position>
            <AltitudeMeters>847.4000244140625</AltitudeMeters>
            <DistanceMeters>NAN</DistanceMeters>
          </Trackpoint>
          <Trackpoint>
            <Time>2021-04-01T17:00:14.000Z</Time>
            <Position>
              <LatitudeDegrees>42.36287229694426059722900390625</LatitudeDegrees>
              <LongitudeDegrees>2.64650805853307247161865234375</LongitudeDegrees>
            </Position>
            <AltitudeMeters>847.5999755859375</AltitudeMeters>
            <DistanceMeters>NAN</DistanceMeters>
          </Trackpoint>
          <Trackpoint>
            <Time>2021-04-01T17:00:15.000Z</Time>
            <Position>
              <LatitudeDegrees>42.3628653399646282196044921875</LatitudeDegrees>
              <LongitudeDegrees>2.646501101553440093994140625</LongitudeDegrees>
            </Position>
            <AltitudeMeters>847.5999755859375</AltitudeMeters>
            <DistanceMeters>NAN</DistanceMeters>
          </Trackpoint>
          <Trackpoint>
            <Time>2021-04-01T17:00:18.000Z</Time>
            <Position>
              <LatitudeDegrees>42.362853102385997772216796875</LatitudeDegrees>
              <LongitudeDegrees>2.646480314433574676513671875</LongitudeDegrees>
            </Position>
            <AltitudeMeters>848</AltitudeMeters>
            <DistanceMeters>NAN</DistanceMeters>
          </Trackpoint>
          <Trackpoint>
            <Time>2021-04-01T17:00:21.000Z</Time>
            <Position>
              <LatitudeDegrees>42.36282527446746826171875</LatitudeDegrees>
              <LongitudeDegrees>2.64646950177848339080810546875</LongitudeDegrees>
            </Position>
            <AltitudeMeters>848.4000244140625</AltitudeMeters>
            <DistanceMeters>NAN</DistanceMeters>
          </Trackpoint>
          <Trackpoint>
            <Time>2021-04-01T17:00:22.000Z</Time>
            <Position>
              <LatitudeDegrees>42.36281764693558216094970703125</LatitudeDegrees>
              <LongitudeDegrees>2.64646614901721477508544921875</LongitudeDegrees>
            </Position>
            <AltitudeMeters>848.4000244140625</AltitudeMeters>
            <DistanceMeters>NAN</DistanceMeters>
          </Trackpoint>
          <Trackpoint>
            <Time>2021-04-01T17:00:24.000Z</Time>
            <Position>
              <LatitudeDegrees>42.36280255950987339019775390625</LatitudeDegrees>
              <LongitudeDegrees>2.646464891731739044189453125</LongitudeDegrees>
            </Position>
            <AltitudeMeters>848.5999755859375</AltitudeMeters>
            <DistanceMeters>NAN</DistanceMeters>
          </Trackpoint>
          <Trackpoint>
            <Time>2021-04-01T17:00:26.000Z</Time>
            <Position>
              <LatitudeDegrees>42.3627845384180545806884765625</LatitudeDegrees>
              <LongitudeDegrees>2.64647419564425945281982421875</LongitudeDegrees>
            </Position>
            <AltitudeMeters>848.79998779296875</AltitudeMeters>
            <DistanceMeters>NAN</DistanceMeters>
          </Trackpoint>
          <Trackpoint>
            <Time>2021-04-01T17:00:29.000Z</Time>
            <Position>
              <LatitudeDegrees>42.36275796778500080108642578125</LatitudeDegrees>
              <LongitudeDegrees>2.6464908756315708160400390625</LongitudeDegrees>
            </Position>
            <AltitudeMeters>848.79998779296875</AltitudeMeters>
            <DistanceMeters>NAN</DistanceMeters>
          </Trackpoint>
          <Trackpoint>
            <Time>2021-04-01T17:00:30.000Z</Time>
            <Position>
              <LatitudeDegrees>42.3627513460814952850341796875</LatitudeDegrees>
              <LongitudeDegrees>2.64649875462055206298828125</LongitudeDegrees>
            </Position>
            <AltitudeMeters>849</AltitudeMeters>
            <DistanceMeters>NAN</DistanceMeters>
          </Trackpoint>
          <Trackpoint>
            <Time>2021-04-01T17:00:33.000Z</Time>
            <Position>
              <LatitudeDegrees>42.3627298884093761444091796875</LatitudeDegrees>
              <LongitudeDegrees>2.64652532525360584259033203125</LongitudeDegrees>
            </Position>
            <AltitudeMeters>849.20001220703125</AltitudeMeters>
            <DistanceMeters>NAN</DistanceMeters>
          </Trackpoint>
          <Trackpoint>
            <Time>2021-04-01T17:00:34.000Z</Time>
            <Position>
              <LatitudeDegrees>42.36272075213491916656494140625</LatitudeDegrees>
              <LongitudeDegrees>2.6465347968041896820068359375</LongitudeDegrees>
            </Position>
            <AltitudeMeters>849.4000244140625</AltitudeMeters>
            <DistanceMeters>NAN</DistanceMeters>
          </Trackpoint>
          <Trackpoint>
            <Time>2021-04-01T17:00:39.000Z</Time>
            <Position>
              <LatitudeDegrees>42.36269443295896053314208984375</LatitudeDegrees>
              <LongitudeDegrees>2.6465800590813159942626953125</LongitudeDegrees>
            </Position>
            <AltitudeMeters>849.5999755859375</AltitudeMeters>
            <DistanceMeters>NAN</DistanceMeters>
          </Trackpoint>
          <Trackpoint>
            <Time>2021-04-01T17:00:43.000Z</Time>
            <Position>
              <LatitudeDegrees>42.36268571577966213226318359375</LatitudeDegrees>
              <LongitudeDegrees>2.64658785425126552581787109375</LongitudeDegrees>
            </Position>
            <AltitudeMeters>849.5999755859375</AltitudeMeters>
            <DistanceMeters>NAN</DistanceMeters>
          </Trackpoint>
          <Trackpoint>
            <Time>2021-04-01T17:00:45.000Z</Time>
            <Position>
              <LatitudeDegrees>42.36267884261906147003173828125</LatitudeDegrees>
              <LongitudeDegrees>2.64658634550869464874267578125</LongitudeDegrees>
            </Position>
            <AltitudeMeters>849.5999755859375</AltitudeMeters>
            <DistanceMeters>NAN</DistanceMeters>
          </Trackpoint>
          <Trackpoint>
            <Time>2021-04-01T17:00:46.000Z</Time>
            <Position>
              <LatitudeDegrees>42.362680770456790924072265625</LatitudeDegrees>
              <LongitudeDegrees>2.64658919535577297210693359375</LongitudeDegrees>
            </Position>
            <AltitudeMeters>849.5999755859375</AltitudeMeters>
            <DistanceMeters>NAN</DistanceMeters>
          </Trackpoint>
          <Trackpoint>
            <Time>2021-04-01T17:00:52.000Z</Time>
            <Position>
              <LatitudeDegrees>42.3626923374831676483154296875</LatitudeDegrees>
              <LongitudeDegrees>2.64661719091236591339111328125</LongitudeDegrees>
            </Position>
            <AltitudeMeters>849.5999755859375</AltitudeMeters>
            <DistanceMeters>NAN</DistanceMeters>
          </Trackpoint>
          <Trackpoint>
            <Time>2021-04-01T17:00:53.000Z</Time>
            <Position>
              <LatitudeDegrees>42.3626936785876750946044921875</LatitudeDegrees>
              <LongitudeDegrees>2.64661534689366817474365234375</LongitudeDegrees>
            </Position>
            <AltitudeMeters>849.79998779296875</AltitudeMeters>
            <DistanceMeters>NAN</DistanceMeters>
          </Trackpoint>
          <Trackpoint>
            <Time>2021-04-01T17:01:01.000Z</Time>
            <Position>
              <LatitudeDegrees>42.3626946844160556793212890625</LatitudeDegrees>
              <LongitudeDegrees>2.64662222005426883697509765625</LongitudeDegrees>
            </Position>
            <AltitudeMeters>849.5999755859375</AltitudeMeters>
            <DistanceMeters>NAN</DistanceMeters>
          </Trackpoint>
          <Trackpoint>
            <Time>2021-04-01T17:01:04.000Z</Time>
            <Position>
              <LatitudeDegrees>42.3626946844160556793212890625</LatitudeDegrees>
              <LongitudeDegrees>2.64662222005426883697509765625</LongitudeDegrees>
            </Position>
            <AltitudeMeters>849.5999755859375</AltitudeMeters>
            <DistanceMeters>NAN</DistanceMeters>
          </Trackpoint>
          <Trackpoint>
            <Time>2021-04-01T17:01:06.000Z</Time>
            <Position>
              <LatitudeDegrees>42.3626946844160556793212890625</LatitudeDegrees>
              <LongitudeDegrees>2.64662222005426883697509765625</LongitudeDegrees>
            </Position>
            <AltitudeMeters>849.5999755859375</AltitudeMeters>
            <DistanceMeters>NAN</DistanceMeters>
          </Trackpoint>
          <Trackpoint>
            <Time>2021-04-01T17:01:18.000Z</Time>
            <Position>
              <LatitudeDegrees>42.3626925051212310791015625</LatitudeDegrees>
              <LongitudeDegrees>2.64662222005426883697509765625</LongitudeDegrees>
            </Position>
            <AltitudeMeters>849.5999755859375</AltitudeMeters>
            <DistanceMeters>NAN</DistanceMeters>
          </Trackpoint>
          <Trackpoint>
            <Time>2021-04-01T17:01:36.000Z</Time>
            <Position>
              <LatitudeDegrees>42.362673394381999969482421875</LatitudeDegrees>
              <LongitudeDegrees>2.6466860063374042510986328125</LongitudeDegrees>
            </Position>
            <AltitudeMeters>850</AltitudeMeters>
            <DistanceMeters>NAN</DistanceMeters>
          </Trackpoint>
          <Trackpoint>
            <Time>2021-04-01T17:01:43.000Z</Time>
            <Position>
              <LatitudeDegrees>42.36260491423308849334716796875</LatitudeDegrees>
              <LongitudeDegrees>2.64676454477012157440185546875</LongitudeDegrees>
            </Position>
            <AltitudeMeters>850</AltitudeMeters>
            <DistanceMeters>NAN</DistanceMeters>
          </Trackpoint>
          <Trackpoint>
            <Time>2021-04-01T17:01:45.000Z</Time>
            <Position>
              <LatitudeDegrees>42.36258856952190399169921875</LatitudeDegrees>
              <LongitudeDegrees>2.646787427365779876708984375</LongitudeDegrees>
            </Position>
            <AltitudeMeters>850</AltitudeMeters>
            <DistanceMeters>NAN</DistanceMeters>
          </Trackpoint>
          <Trackpoint>
            <Time>2021-04-01T17:01:50.000Z</Time>
            <Position>
              <LatitudeDegrees>42.3625417985022068023681640625</LatitudeDegrees>
              <LongitudeDegrees>2.64684668742120265960693359375</LongitudeDegrees>
            </Position>
            <AltitudeMeters>849.79998779296875</AltitudeMeters>
            <DistanceMeters>NAN</DistanceMeters>
          </Trackpoint>
          <Trackpoint>
            <Time>2021-04-01T17:01:52.000Z</Time>
            <Position>
              <LatitudeDegrees>42.362523190677165985107421875</LatitudeDegrees>
              <LongitudeDegrees>2.6468616910278797149658203125</LongitudeDegrees>
            </Position>
            <AltitudeMeters>849.5999755859375</AltitudeMeters>
            <DistanceMeters>NAN</DistanceMeters>
          </Trackpoint>
          <Trackpoint>
            <Time>2021-04-01T17:01:57.000Z</Time>
            <Position>
              <LatitudeDegrees>42.36247013323009014129638671875</LatitudeDegrees>
              <LongitudeDegrees>2.6469263993203639984130859375</LongitudeDegrees>
            </Position>
            <AltitudeMeters>849.5999755859375</AltitudeMeters>
            <DistanceMeters>NAN</DistanceMeters>
          </Trackpoint>
          <Trackpoint>
            <Time>2021-04-01T17:02:01.000Z</Time>
            <Position>
              <LatitudeDegrees>42.36243308521807193756103515625</LatitudeDegrees>
              <LongitudeDegrees>2.64696814119815826416015625</LongitudeDegrees>
            </Position>
            <AltitudeMeters>849.4000244140625</AltitudeMeters>
            <DistanceMeters>NAN</DistanceMeters>
          </Trackpoint>
          <Trackpoint>
            <Time>2021-04-01T17:02:11.000Z</Time>
            <Position>
              <LatitudeDegrees>42.362342812120914459228515625</LatitudeDegrees>
              <LongitudeDegrees>2.64704835601150989532470703125</LongitudeDegrees>
            </Position>
            <AltitudeMeters>849</AltitudeMeters>
            <DistanceMeters>NAN</DistanceMeters>
          </Trackpoint>
          <Trackpoint>
            <Time>2021-04-01T17:02:12.000Z</Time>
            <Position>
              <LatitudeDegrees>42.36234138719737529754638671875</LatitudeDegrees>
              <LongitudeDegrees>2.6470621861517429351806640625</LongitudeDegrees>
            </Position>
            <AltitudeMeters>849</AltitudeMeters>
            <DistanceMeters>NAN</DistanceMeters>
          </Trackpoint>
          <Trackpoint>
            <Time>2021-04-01T17:02:17.000Z</Time>
            <Position>
              <LatitudeDegrees>42.36233384348452091217041015625</LatitudeDegrees>
              <LongitudeDegrees>2.64709328301250934600830078125</LongitudeDegrees>
            </Position>
            <AltitudeMeters>848.5999755859375</AltitudeMeters>
            <DistanceMeters>NAN</DistanceMeters>
          </Trackpoint>
          <Trackpoint>
            <Time>2021-04-01T17:02:18.000Z</Time>
            <Position>
              <LatitudeDegrees>42.3623392917215824127197265625</LatitudeDegrees>
              <LongitudeDegrees>2.64709931798279285430908203125</LongitudeDegrees>
            </Position>
            <AltitudeMeters>848.5999755859375</AltitudeMeters>
            <DistanceMeters>NAN</DistanceMeters>
          </Trackpoint>
          <Trackpoint>
            <Time>2021-04-01T17:02:19.000Z</Time>
            <Position>
              <LatitudeDegrees>42.3623413033783435821533203125</LatitudeDegrees>
              <LongitudeDegrees>2.647105269134044647216796875</LongitudeDegrees>
            </Position>
            <AltitudeMeters>848.5999755859375</AltitudeMeters>
            <DistanceMeters>NAN</DistanceMeters>
          </Trackpoint>
          <Trackpoint>
            <Time>2021-04-01T17:02:21.000Z</Time>
            <Position>
              <LatitudeDegrees>42.36235521733760833740234375</LatitudeDegrees>
              <LongitudeDegrees>2.64713787473738193511962890625</LongitudeDegrees>
            </Position>
            <AltitudeMeters>848.5999755859375</AltitudeMeters>
            <DistanceMeters>NAN</DistanceMeters>
          </Trackpoint>
          <Trackpoint>
            <Time>2021-04-01T17:02:24.000Z</Time>
            <Position>
              <LatitudeDegrees>42.36238203942775726318359375</LatitudeDegrees>
              <LongitudeDegrees>2.64717207290232181549072265625</LongitudeDegrees>
            </Position>
            <AltitudeMeters>848.79998779296875</AltitudeMeters>
            <DistanceMeters>NAN</DistanceMeters>
          </Trackpoint>
          <Trackpoint>
            <Time>2021-04-01T17:02:32.000Z</Time>
            <Position>
              <LatitudeDegrees>42.36244817264378070831298828125</LatitudeDegrees>
              <LongitudeDegrees>2.64720878563821315765380859375</LongitudeDegrees>
            </Position>
            <AltitudeMeters>849.20001220703125</AltitudeMeters>
            <DistanceMeters>NAN</DistanceMeters>
          </Trackpoint>
          <Trackpoint>
            <Time>2021-04-01T17:02:40.000Z</Time>
            <Position>
              <LatitudeDegrees>42.362520508468151092529296875</LatitudeDegrees>
              <LongitudeDegrees>2.647212557494640350341796875</LongitudeDegrees>
            </Position>
            <AltitudeMeters>849.20001220703125</AltitudeMeters>
            <DistanceMeters>NAN</DistanceMeters>
          </Trackpoint>
          <Trackpoint>
            <Time>2021-04-01T17:02:47.000Z</Time>
            <Position>
              <LatitudeDegrees>42.3625783436000347137451171875</LatitudeDegrees>
              <LongitudeDegrees>2.64716218225657939910888671875</LongitudeDegrees>
            </Position>
            <AltitudeMeters>849.4000244140625</AltitudeMeters>
            <DistanceMeters>NAN</DistanceMeters>
          </Trackpoint>
          <Trackpoint>
            <Time>2021-04-01T17:02:48.000Z</Time>
            <Position>
              <LatitudeDegrees>42.3625853843986988067626953125</LatitudeDegrees>
              <LongitudeDegrees>2.64715413562953472137451171875</LongitudeDegrees>
            </Position>
            <AltitudeMeters>849.4000244140625</AltitudeMeters>
            <DistanceMeters>NAN</DistanceMeters>
          </Trackpoint>
          <Trackpoint>
            <Time>2021-04-01T17:02:53.000Z</Time>
            <Position>
              <LatitudeDegrees>42.3626282997429370880126953125</LatitudeDegrees>
              <LongitudeDegrees>2.64714382588863372802734375</LongitudeDegrees>
            </Position>
            <AltitudeMeters>849.4000244140625</AltitudeMeters>
            <DistanceMeters>NAN</DistanceMeters>
          </Trackpoint>
          <Trackpoint>
            <Time>2021-04-01T17:02:54.000Z</Time>
            <Position>
              <LatitudeDegrees>42.36263793893158435821533203125</LatitudeDegrees>
              <LongitudeDegrees>2.64714525081217288970947265625</LongitudeDegrees>
            </Position>
            <AltitudeMeters>849.4000244140625</AltitudeMeters>
            <DistanceMeters>NAN</DistanceMeters>
          </Trackpoint>
          <Trackpoint>
            <Time>2021-04-01T17:02:56.000Z</Time>
            <Position>
              <LatitudeDegrees>42.36265964806079864501953125</LatitudeDegrees>
              <LongitudeDegrees>2.6471527107059955596923828125</LongitudeDegrees>
            </Position>
            <AltitudeMeters>849.4000244140625</AltitudeMeters>
            <DistanceMeters>NAN</DistanceMeters>
          </Trackpoint>
          <Trackpoint>
            <Time>2021-04-01T17:03:03.000Z</Time>
            <Position>
              <LatitudeDegrees>42.36273298971354961395263671875</LatitudeDegrees>
              <LongitudeDegrees>2.64721683226525783538818359375</LongitudeDegrees>
            </Position>
            <AltitudeMeters>849.4000244140625</AltitudeMeters>
            <DistanceMeters>NAN</DistanceMeters>
          </Trackpoint>
          <Trackpoint>
            <Time>2021-04-01T17:03:11.000Z</Time>
            <Position>
              <LatitudeDegrees>42.36280180513858795166015625</LatitudeDegrees>
              <LongitudeDegrees>2.6472724042832851409912109375</LongitudeDegrees>
            </Position>
            <AltitudeMeters>849.4000244140625</AltitudeMeters>
            <DistanceMeters>NAN</DistanceMeters>
          </Trackpoint>
          <Trackpoint>
            <Time>2021-04-01T17:03:15.000Z</Time>
            <Position>
              <LatitudeDegrees>42.36282862722873687744140625</LatitudeDegrees>
              <LongitudeDegrees>2.64729813672602176666259765625</LongitudeDegrees>
            </Position>
            <AltitudeMeters>849.4000244140625</AltitudeMeters>
            <DistanceMeters>NAN</DistanceMeters>
          </Trackpoint>
          <Trackpoint>
            <Time>2021-04-01T17:03:19.000Z</Time>
            <Position>
              <LatitudeDegrees>42.36286257393658161163330078125</LatitudeDegrees>
              <LongitudeDegrees>2.6473290659487247467041015625</LongitudeDegrees>
            </Position>
            <AltitudeMeters>849.4000244140625</AltitudeMeters>
            <DistanceMeters>NAN</DistanceMeters>
          </Trackpoint>
          <Trackpoint>
            <Time>2021-04-01T17:03:20.000Z</Time>
            <Position>
              <LatitudeDegrees>42.36286617815494537353515625</LatitudeDegrees>
              <LongitudeDegrees>2.647330574691295623779296875</LongitudeDegrees>
            </Position>
            <AltitudeMeters>849.4000244140625</AltitudeMeters>
            <DistanceMeters>NAN</DistanceMeters>
          </Trackpoint>
          <Trackpoint>
            <Time>2021-04-01T17:03:25.000Z</Time>
            <Position>
              <LatitudeDegrees>42.3628629930317401885986328125</LatitudeDegrees>
              <LongitudeDegrees>2.6473575644195079803466796875</LongitudeDegrees>
            </Position>
            <AltitudeMeters>849.5999755859375</AltitudeMeters>
            <DistanceMeters>NAN</DistanceMeters>
          </Trackpoint>
          <Trackpoint>
            <Time>2021-04-01T17:03:33.000Z</Time>
            <Position>
              <LatitudeDegrees>42.36287548206746578216552734375</LatitudeDegrees>
              <LongitudeDegrees>2.6474309898912906646728515625</LongitudeDegrees>
            </Position>
            <AltitudeMeters>849.5999755859375</AltitudeMeters>
            <DistanceMeters>NAN</DistanceMeters>
          </Trackpoint>
          <Trackpoint>
            <Time>2021-04-01T17:03:41.000Z</Time>
            <Position>
              <LatitudeDegrees>42.3628861270844936370849609375</LatitudeDegrees>
              <LongitudeDegrees>2.64736318029463291168212890625</LongitudeDegrees>
            </Position>
            <AltitudeMeters>849.5999755859375</AltitudeMeters>
            <DistanceMeters>NAN</DistanceMeters>
          </Trackpoint>
          <Trackpoint>
            <Time>2021-04-01T17:03:47.000Z</Time>
            <Position>
              <LatitudeDegrees>42.36291554756462574005126953125</LatitudeDegrees>
              <LongitudeDegrees>2.64733669348061084747314453125</LongitudeDegrees>
            </Position>
            <AltitudeMeters>849.5999755859375</AltitudeMeters>
            <DistanceMeters>NAN</DistanceMeters>
          </Trackpoint>
          <Trackpoint>
            <Time>2021-04-01T17:03:48.000Z</Time>
            <Position>
              <LatitudeDegrees>42.36291554756462574005126953125</LatitudeDegrees>
              <LongitudeDegrees>2.64733669348061084747314453125</LongitudeDegrees>
            </Position>
            <AltitudeMeters>849.5999755859375</AltitudeMeters>
            <DistanceMeters>NAN</DistanceMeters>
          </Trackpoint>
          <Trackpoint>
            <Time>2021-04-01T17:03:51.000Z</Time>
            <Position>
              <LatitudeDegrees>42.36291554756462574005126953125</LatitudeDegrees>
              <LongitudeDegrees>2.64733669348061084747314453125</LongitudeDegrees>
            </Position>
            <AltitudeMeters>849.5999755859375</AltitudeMeters>
            <DistanceMeters>NAN</DistanceMeters>
          </Trackpoint>
          <Trackpoint>
            <Time>2021-04-01T17:03:52.000Z</Time>
            <Position>
              <LatitudeDegrees>42.36291554756462574005126953125</LatitudeDegrees>
              <LongitudeDegrees>2.64733669348061084747314453125</LongitudeDegrees>
            </Position>
            <AltitudeMeters>849.5999755859375</AltitudeMeters>
            <DistanceMeters>NAN</DistanceMeters>
          </Trackpoint>
          <Trackpoint>
            <Time>2021-04-01T17:04:03.000Z</Time>
            <Position>
              <LatitudeDegrees>42.36291554756462574005126953125</LatitudeDegrees>
              <LongitudeDegrees>2.64734758995473384857177734375</LongitudeDegrees>
            </Position>
            <AltitudeMeters>849.4000244140625</AltitudeMeters>
            <DistanceMeters>NAN</DistanceMeters>
          </Trackpoint>
          <Trackpoint>
            <Time>2021-04-01T17:04:07.000Z</Time>
            <Position>
              <LatitudeDegrees>42.36293113790452480316162109375</LatitudeDegrees>
              <LongitudeDegrees>2.6472935266792774200439453125</LongitudeDegrees>
            </Position>
            <AltitudeMeters>849.4000244140625</AltitudeMeters>
            <DistanceMeters>NAN</DistanceMeters>
          </Trackpoint>
          <Trackpoint>
            <Time>2021-04-01T17:04:11.000Z</Time>
            <Position>
              <LatitudeDegrees>42.3629706166684627532958984375</LatitudeDegrees>
              <LongitudeDegrees>2.64724583365023136138916015625</LongitudeDegrees>
            </Position>
            <AltitudeMeters>849.4000244140625</AltitudeMeters>
            <DistanceMeters>NAN</DistanceMeters>
          </Trackpoint>
          <Trackpoint>
            <Time>2021-04-01T17:04:13.000Z</Time>
            <Position>
              <LatitudeDegrees>42.3629810102283954620361328125</LatitudeDegrees>
              <LongitudeDegrees>2.647210545837879180908203125</LongitudeDegrees>
            </Position>
            <AltitudeMeters>849.4000244140625</AltitudeMeters>
            <DistanceMeters>NAN</DistanceMeters>
          </Trackpoint>
          <Trackpoint>
            <Time>2021-04-01T17:04:21.000Z</Time>
            <Position>
              <LatitudeDegrees>42.36300355754792690277099609375</LatitudeDegrees>
              <LongitudeDegrees>2.6471094600856304168701171875</LongitudeDegrees>
            </Position>
            <AltitudeMeters>849.4000244140625</AltitudeMeters>
            <DistanceMeters>NAN</DistanceMeters>
          </Trackpoint>
          <Trackpoint>
            <Time>2021-04-01T17:04:22.000Z</Time>
            <Position>
              <LatitudeDegrees>42.36300489865243434906005859375</LatitudeDegrees>
              <LongitudeDegrees>2.64709889888763427734375</LongitudeDegrees>
            </Position>
            <AltitudeMeters>849.4000244140625</AltitudeMeters>
            <DistanceMeters>NAN</DistanceMeters>
          </Trackpoint>
          <Trackpoint>
            <Time>2021-04-01T17:04:28.000Z</Time>
            <Position>
              <LatitudeDegrees>42.36302115954458713531494140625</LatitudeDegrees>
              <LongitudeDegrees>2.64702052809298038482666015625</LongitudeDegrees>
            </Position>
            <AltitudeMeters>849.20001220703125</AltitudeMeters>
            <DistanceMeters>NAN</DistanceMeters>
          </Trackpoint>
          <Trackpoint>
            <Time>2021-04-01T17:04:30.000Z</Time>
            <Position>
              <LatitudeDegrees>42.36302183009684085845947265625</LatitudeDegrees>
              <LongitudeDegrees>2.6469956338405609130859375</LongitudeDegrees>
            </Position>
            <AltitudeMeters>849.20001220703125</AltitudeMeters>
            <DistanceMeters>NAN</DistanceMeters>
          </Trackpoint>
          <Trackpoint>
            <Time>2021-04-01T17:04:32.000Z</Time>
            <Position>
              <LatitudeDegrees>42.3630182258784770965576171875</LatitudeDegrees>
              <LongitudeDegrees>2.64697023667395114898681640625</LongitudeDegrees>
            </Position>
            <AltitudeMeters>849.20001220703125</AltitudeMeters>
            <DistanceMeters>NAN</DistanceMeters>
          </Trackpoint>
          <Trackpoint>
            <Time>2021-04-01T17:04:35.000Z</Time>
            <Position>
              <LatitudeDegrees>42.36300825141370296478271484375</LatitudeDegrees>
              <LongitudeDegrees>2.64693352393805980682373046875</LongitudeDegrees>
            </Position>
            <AltitudeMeters>849.20001220703125</AltitudeMeters>
            <DistanceMeters>NAN</DistanceMeters>
          </Trackpoint>
          <Trackpoint>
            <Time>2021-04-01T17:04:39.000Z</Time>
            <Position>
              <LatitudeDegrees>42.362987883388996124267578125</LatitudeDegrees>
              <LongitudeDegrees>2.6468911953270435333251953125</LongitudeDegrees>
            </Position>
            <AltitudeMeters>849</AltitudeMeters>
            <DistanceMeters>NAN</DistanceMeters>
          </Trackpoint>
          <Trackpoint>
            <Time>2021-04-01T17:04:40.000Z</Time>
            <Position>
              <LatitudeDegrees>42.36298142932355403900146484375</LatitudeDegrees>
              <LongitudeDegrees>2.64688272960484027862548828125</LongitudeDegrees>
            </Position>
            <AltitudeMeters>849</AltitudeMeters>
            <DistanceMeters>NAN</DistanceMeters>
          </Trackpoint>
          <Trackpoint>
            <Time>2021-04-01T17:04:41.000Z</Time>
            <Position>
              <LatitudeDegrees>42.362971790134906768798828125</LatitudeDegrees>
              <LongitudeDegrees>2.64687082730233669281005859375</LongitudeDegrees>
            </Position>
            <AltitudeMeters>849</AltitudeMeters>
            <DistanceMeters>NAN</DistanceMeters>
          </Trackpoint>
          <Trackpoint>
            <Time>2021-04-01T17:04:43.000Z</Time>
            <Position>
              <LatitudeDegrees>42.36295628361403942108154296875</LatitudeDegrees>
              <LongitudeDegrees>2.64685020782053470611572265625</LongitudeDegrees>
            </Position>
            <AltitudeMeters>849</AltitudeMeters>
            <DistanceMeters>NAN</DistanceMeters>
          </Trackpoint>
          <Trackpoint>
            <Time>2021-04-01T17:04:53.000Z</Time>
            <Position>
              <LatitudeDegrees>42.36290465109050273895263671875</LatitudeDegrees>
              <LongitudeDegrees>2.64674191363155841827392578125</LongitudeDegrees>
            </Position>
            <AltitudeMeters>849.4000244140625</AltitudeMeters>
            <DistanceMeters>NAN</DistanceMeters>
          </Trackpoint>
          <Trackpoint>
            <Time>2021-04-01T17:04:56.000Z</Time>
            <Position>
              <LatitudeDegrees>42.3628883063793182373046875</LatitudeDegrees>
              <LongitudeDegrees>2.64670260250568389892578125</LongitudeDegrees>
            </Position>
            <AltitudeMeters>849.5999755859375</AltitudeMeters>
            <DistanceMeters>NAN</DistanceMeters>
          </Trackpoint>
          <Trackpoint>
            <Time>2021-04-01T17:04:58.000Z</Time>
            <Position>
              <LatitudeDegrees>42.36287699081003665924072265625</LatitudeDegrees>
              <LongitudeDegrees>2.64668072573840618133544921875</LongitudeDegrees>
            </Position>
            <AltitudeMeters>849.5999755859375</AltitudeMeters>
            <DistanceMeters>NAN</DistanceMeters>
          </Trackpoint>
          <Trackpoint>
            <Time>2021-04-01T17:05:02.000Z</Time>
            <Position>
              <LatitudeDegrees>42.36285544931888580322265625</LatitudeDegrees>
              <LongitudeDegrees>2.646645940840244293212890625</LongitudeDegrees>
            </Position>
            <AltitudeMeters>849.79998779296875</AltitudeMeters>
            <DistanceMeters>NAN</DistanceMeters>
          </Trackpoint>
          <Trackpoint>
            <Time>2021-04-01T17:05:03.000Z</Time>
            <Position>
              <LatitudeDegrees>42.36284715123474597930908203125</LatitudeDegrees>
              <LongitudeDegrees>2.64663915149867534637451171875</LongitudeDegrees>
            </Position>
            <AltitudeMeters>849.79998779296875</AltitudeMeters>
            <DistanceMeters>NAN</DistanceMeters>
          </Trackpoint>
          <Trackpoint>
            <Time>2021-04-01T17:05:05.000Z</Time>
            <Position>
              <LatitudeDegrees>42.362824939191341400146484375</LatitudeDegrees>
              <LongitudeDegrees>2.6466296799480915069580078125</LongitudeDegrees>
            </Position>
            <AltitudeMeters>849.79998779296875</AltitudeMeters>
            <DistanceMeters>NAN</DistanceMeters>
          </Trackpoint>
          <Trackpoint>
            <Time>2021-04-01T17:05:12.000Z</Time>
            <Position>
              <LatitudeDegrees>42.3627567104995250701904296875</LatitudeDegrees>
              <LongitudeDegrees>2.64663127250969409942626953125</LongitudeDegrees>
            </Position>
            <AltitudeMeters>850</AltitudeMeters>
            <DistanceMeters>NAN</DistanceMeters>
          </Trackpoint>
          <Trackpoint>
            <Time>2021-04-01T17:05:20.000Z</Time>
            <Position>
              <LatitudeDegrees>42.362682111561298370361328125</LatitudeDegrees>
              <LongitudeDegrees>2.6466595195233821868896484375</LongitudeDegrees>
            </Position>
            <AltitudeMeters>850.20001220703125</AltitudeMeters>
            <DistanceMeters>NAN</DistanceMeters>
          </Trackpoint>
          <Trackpoint>
            <Time>2021-04-01T17:05:25.000Z</Time>
            <Position>
              <LatitudeDegrees>42.3626648448407649993896484375</LatitudeDegrees>
              <LongitudeDegrees>2.6466766186058521270751953125</LongitudeDegrees>
            </Position>
            <AltitudeMeters>850</AltitudeMeters>
            <DistanceMeters>NAN</DistanceMeters>
          </Trackpoint>
          <Trackpoint>
            <Time>2021-04-01T17:05:26.000Z</Time>
            <Position>
              <LatitudeDegrees>42.36266492865979671478271484375</LatitudeDegrees>
              <LongitudeDegrees>2.64667938463389873504638671875</LongitudeDegrees>
            </Position>
            <AltitudeMeters>850</AltitudeMeters>
            <DistanceMeters>NAN</DistanceMeters>
          </Trackpoint>
          <Trackpoint>
            <Time>2021-04-01T17:05:27.000Z</Time>
            <Position>
              <LatitudeDegrees>42.3626651801168918609619140625</LatitudeDegrees>
              <LongitudeDegrees>2.6466803066432476043701171875</LongitudeDegrees>
            </Position>
            <AltitudeMeters>849.79998779296875</AltitudeMeters>
            <DistanceMeters>NAN</DistanceMeters>
          </Trackpoint>
          <Trackpoint>
            <Time>2021-04-01T17:05:28.000Z</Time>
            <Position>
              <LatitudeDegrees>42.36266895197331905364990234375</LatitudeDegrees>
              <LongitudeDegrees>2.6466789655387401580810546875</LongitudeDegrees>
            </Position>
            <AltitudeMeters>849.79998779296875</AltitudeMeters>
            <DistanceMeters>NAN</DistanceMeters>
          </Trackpoint>
          <Trackpoint>
            <Time>2021-04-01T17:05:32.000Z</Time>
            <Position>
              <LatitudeDegrees>42.3626702092587947845458984375</LatitudeDegrees>
              <LongitudeDegrees>2.6466776244342327117919921875</LongitudeDegrees>
            </Position>
            <AltitudeMeters>849.79998779296875</AltitudeMeters>
            <DistanceMeters>NAN</DistanceMeters>
          </Trackpoint>
          <Trackpoint>
            <Time>2021-04-01T17:05:39.000Z</Time>
            <Position>
              <LatitudeDegrees>42.3626433871686458587646484375</LatitudeDegrees>
              <LongitudeDegrees>2.646678127348423004150390625</LongitudeDegrees>
            </Position>
            <AltitudeMeters>850</AltitudeMeters>
            <DistanceMeters>NAN</DistanceMeters>
          </Trackpoint>
          <Trackpoint>
            <Time>2021-04-01T17:05:45.000Z</Time>
            <Position>
              <LatitudeDegrees>42.36258815042674541473388671875</LatitudeDegrees>
              <LongitudeDegrees>2.6467265747487545013427734375</LongitudeDegrees>
            </Position>
            <AltitudeMeters>850</AltitudeMeters>
            <DistanceMeters>NAN</DistanceMeters>
          </Trackpoint>
          <Trackpoint>
            <Time>2021-04-01T17:05:52.000Z</Time>
            <Position>
              <LatitudeDegrees>42.3625277169048786163330078125</LatitudeDegrees>
              <LongitudeDegrees>2.64679782092571258544921875</LongitudeDegrees>
            </Position>
            <AltitudeMeters>849.4000244140625</AltitudeMeters>
            <DistanceMeters>NAN</DistanceMeters>
          </Trackpoint>
          <Trackpoint>
            <Time>2021-04-01T17:05:58.000Z</Time>
            <Position>
              <LatitudeDegrees>42.36247549764811992645263671875</LatitudeDegrees>
              <LongitudeDegrees>2.6468626968562602996826171875</LongitudeDegrees>
            </Position>
            <AltitudeMeters>849.5999755859375</AltitudeMeters>
            <DistanceMeters>NAN</DistanceMeters>
          </Trackpoint>
          <Trackpoint>
            <Time>2021-04-01T17:06:00.000Z</Time>
            <Position>
              <LatitudeDegrees>42.36246091313660144805908203125</LatitudeDegrees>
              <LongitudeDegrees>2.6468834839761257171630859375</LongitudeDegrees>
            </Position>
            <AltitudeMeters>849.5999755859375</AltitudeMeters>
            <DistanceMeters>NAN</DistanceMeters>
          </Trackpoint>
          <Trackpoint>
            <Time>2021-04-01T17:06:04.000Z</Time>
            <Position>
              <LatitudeDegrees>42.362418584525585174560546875</LatitudeDegrees>
              <LongitudeDegrees>2.64692514203488826751708984375</LongitudeDegrees>
            </Position>
            <AltitudeMeters>849.79998779296875</AltitudeMeters>
            <DistanceMeters>NAN</DistanceMeters>
          </Trackpoint>
          <Trackpoint>
            <Time>2021-04-01T17:06:14.000Z</Time>
            <Position>
              <LatitudeDegrees>42.36230769194662570953369140625</LatitudeDegrees>
              <LongitudeDegrees>2.64699873514473438262939453125</LongitudeDegrees>
            </Position>
            <AltitudeMeters>849.5999755859375</AltitudeMeters>
            <DistanceMeters>NAN</DistanceMeters>
          </Trackpoint>
          <Trackpoint>
            <Time>2021-04-01T17:06:19.000Z</Time>
            <Position>
              <LatitudeDegrees>42.36226511187851428985595703125</LatitudeDegrees>
              <LongitudeDegrees>2.64700510539114475250244140625</LongitudeDegrees>
            </Position>
            <AltitudeMeters>849.79998779296875</AltitudeMeters>
            <DistanceMeters>NAN</DistanceMeters>
          </Trackpoint>
          <Trackpoint>
            <Time>2021-04-02T07:17:58.000Z</Time>
            <Position>
              <LatitudeDegrees>42.36271035857498645782470703125</LatitudeDegrees>
              <LongitudeDegrees>2.6465247385203838348388671875</LongitudeDegrees>
            </Position>
            <AltitudeMeters>839</AltitudeMeters>
            <DistanceMeters>NAN</DistanceMeters>
          </Trackpoint>
          <Trackpoint>
            <Time>2021-04-02T07:18:05.000Z</Time>
            <Position>
              <LatitudeDegrees>42.362710945308208465576171875</LatitudeDegrees>
              <LongitudeDegrees>2.64652515761554241180419921875</LongitudeDegrees>
            </Position>
            <AltitudeMeters>839</AltitudeMeters>
            <DistanceMeters>NAN</DistanceMeters>
          </Trackpoint>
          <Trackpoint>
            <Time>2021-04-02T07:18:21.000Z</Time>
            <Position>
              <LatitudeDegrees>42.36274254508316516876220703125</LatitudeDegrees>
              <LongitudeDegrees>2.6464187912642955780029296875</LongitudeDegrees>
            </Position>
            <AltitudeMeters>839.4000244140625</AltitudeMeters>
            <DistanceMeters>NAN</DistanceMeters>
          </Trackpoint>
          <Trackpoint>
            <Time>2021-04-02T07:18:24.000Z</Time>
            <Position>
              <LatitudeDegrees>42.362754531204700469970703125</LatitudeDegrees>
              <LongitudeDegrees>2.6463572680950164794921875</LongitudeDegrees>
            </Position>
            <AltitudeMeters>839.4000244140625</AltitudeMeters>
            <DistanceMeters>NAN</DistanceMeters>
          </Trackpoint>
          <Trackpoint>
            <Time>2021-04-02T07:18:29.000Z</Time>
            <Position>
              <LatitudeDegrees>42.3627399466931819915771484375</LatitudeDegrees>
              <LongitudeDegrees>2.6462923921644687652587890625</LongitudeDegrees>
            </Position>
            <AltitudeMeters>839.5999755859375</AltitudeMeters>
            <DistanceMeters>NAN</DistanceMeters>
          </Trackpoint>
          <Trackpoint>
            <Time>2021-04-02T07:18:37.000Z</Time>
            <Position>
              <LatitudeDegrees>42.36269929446280002593994140625</LatitudeDegrees>
              <LongitudeDegrees>2.64621620066463947296142578125</LongitudeDegrees>
            </Position>
            <AltitudeMeters>839.79998779296875</AltitudeMeters>
            <DistanceMeters>NAN</DistanceMeters>
          </Trackpoint>
          <Trackpoint>
            <Time>2021-04-02T07:18:38.000Z</Time>
            <Position>
              <LatitudeDegrees>42.362699210643768310546875</LatitudeDegrees>
              <LongitudeDegrees>2.64620228670537471771240234375</LongitudeDegrees>
            </Position>
            <AltitudeMeters>839.79998779296875</AltitudeMeters>
            <DistanceMeters>NAN</DistanceMeters>
          </Trackpoint>
          <Trackpoint>
            <Time>2021-04-02T07:18:41.000Z</Time>
            <Position>
              <LatitudeDegrees>42.3626866377890110015869140625</LatitudeDegrees>
              <LongitudeDegrees>2.64618233777582645416259765625</LongitudeDegrees>
            </Position>
            <AltitudeMeters>839.79998779296875</AltitudeMeters>
            <DistanceMeters>NAN</DistanceMeters>
          </Trackpoint>
          <Trackpoint>
            <Time>2021-04-02T07:18:44.000Z</Time>
            <Position>
              <LatitudeDegrees>42.36266626976430416107177734375</LatitudeDegrees>
              <LongitudeDegrees>2.64613623730838298797607421875</LongitudeDegrees>
            </Position>
            <AltitudeMeters>839.5999755859375</AltitudeMeters>
            <DistanceMeters>NAN</DistanceMeters>
          </Trackpoint>
          <Trackpoint>
            <Time>2021-04-02T07:18:48.000Z</Time>
            <Position>
              <LatitudeDegrees>42.3626594804227352142333984375</LatitudeDegrees>
              <LongitudeDegrees>2.64607991091907024383544921875</LongitudeDegrees>
            </Position>
            <AltitudeMeters>839.5999755859375</AltitudeMeters>
            <DistanceMeters>NAN</DistanceMeters>
          </Trackpoint>
          <Trackpoint>
            <Time>2021-04-02T07:18:51.000Z</Time>
            <Position>
              <LatitudeDegrees>42.3626487515866756439208984375</LatitudeDegrees>
              <LongitudeDegrees>2.64605216681957244873046875</LongitudeDegrees>
            </Position>
            <AltitudeMeters>839.79998779296875</AltitudeMeters>
            <DistanceMeters>NAN</DistanceMeters>
          </Trackpoint>
          <Trackpoint>
            <Time>2021-04-02T07:18:54.000Z</Time>
            <Position>
              <LatitudeDegrees>42.362639866769313812255859375</LatitudeDegrees>
              <LongitudeDegrees>2.64600648544728755950927734375</LongitudeDegrees>
            </Position>
            <AltitudeMeters>839.79998779296875</AltitudeMeters>
            <DistanceMeters>NAN</DistanceMeters>
          </Trackpoint>
          <Trackpoint>
            <Time>2021-04-02T07:18:57.000Z</Time>
            <Position>
              <LatitudeDegrees>42.36266006715595722198486328125</LatitudeDegrees>
              <LongitudeDegrees>2.64595351181924343109130859375</LongitudeDegrees>
            </Position>
            <AltitudeMeters>839.5999755859375</AltitudeMeters>
            <DistanceMeters>NAN</DistanceMeters>
          </Trackpoint>
          <Trackpoint>
            <Time>2021-04-02T07:19:00.000Z</Time>
            <Position>
              <LatitudeDegrees>42.3626842908561229705810546875</LatitudeDegrees>
              <LongitudeDegrees>2.64590707607567310333251953125</LongitudeDegrees>
            </Position>
            <AltitudeMeters>839.79998779296875</AltitudeMeters>
            <DistanceMeters>NAN</DistanceMeters>
          </Trackpoint>
          <Trackpoint>
            <Time>2021-04-02T07:19:08.000Z</Time>
            <Position>
              <LatitudeDegrees>42.36268554814159870147705078125</LatitudeDegrees>
              <LongitudeDegrees>2.64580079354345798492431640625</LongitudeDegrees>
            </Position>
            <AltitudeMeters>839.79998779296875</AltitudeMeters>
            <DistanceMeters>NAN</DistanceMeters>
          </Trackpoint>
          <Trackpoint>
            <Time>2021-04-02T07:19:10.000Z</Time>
            <Position>
              <LatitudeDegrees>42.36268353648483753204345703125</LatitudeDegrees>
              <LongitudeDegrees>2.64577078633010387420654296875</LongitudeDegrees>
            </Position>
            <AltitudeMeters>839.5999755859375</AltitudeMeters>
            <DistanceMeters>NAN</DistanceMeters>
          </Trackpoint>
          <Trackpoint>
            <Time>2021-04-02T07:19:15.000Z</Time>
            <Position>
              <LatitudeDegrees>42.36266375519335269927978515625</LatitudeDegrees>
              <LongitudeDegrees>2.6457197405397891998291015625</LongitudeDegrees>
            </Position>
            <AltitudeMeters>839.4000244140625</AltitudeMeters>
            <DistanceMeters>NAN</DistanceMeters>
          </Trackpoint>
          <Trackpoint>
            <Time>2021-04-02T07:19:20.000Z</Time>
            <Position>
              <LatitudeDegrees>42.36265428364276885986328125</LatitudeDegrees>
              <LongitudeDegrees>2.64564438723027706146240234375</LongitudeDegrees>
            </Position>
            <AltitudeMeters>839</AltitudeMeters>
            <DistanceMeters>NAN</DistanceMeters>
          </Trackpoint>
          <Trackpoint>
            <Time>2021-04-02T07:19:22.000Z</Time>
            <Position>
              <LatitudeDegrees>42.36265470273792743682861328125</LatitudeDegrees>
              <LongitudeDegrees>2.6456225104629993438720703125</LongitudeDegrees>
            </Position>
            <AltitudeMeters>838.79998779296875</AltitudeMeters>
            <DistanceMeters>NAN</DistanceMeters>
          </Trackpoint>
          <Trackpoint>
            <Time>2021-04-02T07:19:26.000Z</Time>
            <Position>
              <LatitudeDegrees>42.36264263279736042022705078125</LatitudeDegrees>
              <LongitudeDegrees>2.64557582326233386993408203125</LongitudeDegrees>
            </Position>
            <AltitudeMeters>838.5999755859375</AltitudeMeters>
            <DistanceMeters>NAN</DistanceMeters>
          </Trackpoint>
          <Trackpoint>
            <Time>2021-04-02T07:19:32.000Z</Time>
            <Position>
              <LatitudeDegrees>42.36262955702841281890869140625</LatitudeDegrees>
              <LongitudeDegrees>2.6455239392817020416259765625</LongitudeDegrees>
            </Position>
            <AltitudeMeters>838.4000244140625</AltitudeMeters>
            <DistanceMeters>NAN</DistanceMeters>
          </Trackpoint>
          <Trackpoint>
            <Time>2021-04-02T07:19:35.000Z</Time>
            <Position>
              <LatitudeDegrees>42.36262134276330471038818359375</LatitudeDegrees>
              <LongitudeDegrees>2.64548085629940032958984375</LongitudeDegrees>
            </Position>
            <AltitudeMeters>838</AltitudeMeters>
            <DistanceMeters>NAN</DistanceMeters>
          </Trackpoint>
          <Trackpoint>
            <Time>2021-04-02T07:19:39.000Z</Time>
            <Position>
              <LatitudeDegrees>42.36259669996798038482666015625</LatitudeDegrees>
              <LongitudeDegrees>2.64544053934514522552490234375</LongitudeDegrees>
            </Position>
            <AltitudeMeters>837.20001220703125</AltitudeMeters>
            <DistanceMeters>NAN</DistanceMeters>
          </Trackpoint>
          <Trackpoint>
            <Time>2021-04-02T07:19:41.000Z</Time>
            <Position>
              <LatitudeDegrees>42.36258429475128650665283203125</LatitudeDegrees>
              <LongitudeDegrees>2.6454233564436435699462890625</LongitudeDegrees>
            </Position>
            <AltitudeMeters>837</AltitudeMeters>
            <DistanceMeters>NAN</DistanceMeters>
          </Trackpoint>
          <Trackpoint>
            <Time>2021-04-02T07:19:47.000Z</Time>
            <Position>
              <LatitudeDegrees>42.36256149597465991973876953125</LatitudeDegrees>
              <LongitudeDegrees>2.6453707180917263031005859375</LongitudeDegrees>
            </Position>
            <AltitudeMeters>836.4000244140625</AltitudeMeters>
            <DistanceMeters>NAN</DistanceMeters>
          </Trackpoint>
          <Trackpoint>
            <Time>2021-04-02T07:19:50.000Z</Time>
            <Position>
              <LatitudeDegrees>42.36255210824310779571533203125</LatitudeDegrees>
              <LongitudeDegrees>2.6453459076583385467529296875</LongitudeDegrees>
            </Position>
            <AltitudeMeters>836.20001220703125</AltitudeMeters>
            <DistanceMeters>NAN</DistanceMeters>
          </Trackpoint>
          <Trackpoint>
            <Time>2021-04-02T07:19:52.000Z</Time>
            <Position>
              <LatitudeDegrees>42.36253635026514530181884765625</LatitudeDegrees>
              <LongitudeDegrees>2.64532788656651973724365234375</LongitudeDegrees>
            </Position>
            <AltitudeMeters>835.79998779296875</AltitudeMeters>
            <DistanceMeters>NAN</DistanceMeters>
          </Trackpoint>
          <Trackpoint>
            <Time>2021-04-02T07:19:58.000Z</Time>
            <Position>
              <LatitudeDegrees>42.3625022359192371368408203125</LatitudeDegrees>
              <LongitudeDegrees>2.64526502229273319244384765625</LongitudeDegrees>
            </Position>
            <AltitudeMeters>835.4000244140625</AltitudeMeters>
            <DistanceMeters>NAN</DistanceMeters>
          </Trackpoint>
          <Trackpoint>
            <Time>2021-04-02T07:20:02.000Z</Time>
            <Position>
              <LatitudeDegrees>42.3624653555452823638916015625</LatitudeDegrees>
              <LongitudeDegrees>2.6452258788049221038818359375</LongitudeDegrees>
            </Position>
            <AltitudeMeters>835</AltitudeMeters>
            <DistanceMeters>NAN</DistanceMeters>
          </Trackpoint>
          <Trackpoint>
            <Time>2021-04-02T07:20:04.000Z</Time>
            <Position>
              <LatitudeDegrees>42.3624509386718273162841796875</LatitudeDegrees>
              <LongitudeDegrees>2.64521389268338680267333984375</LongitudeDegrees>
            </Position>
            <AltitudeMeters>835</AltitudeMeters>
            <DistanceMeters>NAN</DistanceMeters>
          </Trackpoint>
          <Trackpoint>
            <Time>2021-04-02T07:20:05.000Z</Time>
            <Position>
              <LatitudeDegrees>42.36244247294962406158447265625</LatitudeDegrees>
              <LongitudeDegrees>2.64520450495183467864990234375</LongitudeDegrees>
            </Position>
            <AltitudeMeters>834.79998779296875</AltitudeMeters>
            <DistanceMeters>NAN</DistanceMeters>
          </Trackpoint>
          <Trackpoint>
            <Time>2021-04-02T07:20:08.000Z</Time>
            <Position>
              <LatitudeDegrees>42.3624189198017120361328125</LatitudeDegrees>
              <LongitudeDegrees>2.64518640004098415374755859375</LongitudeDegrees>
            </Position>
            <AltitudeMeters>834.5999755859375</AltitudeMeters>
            <DistanceMeters>NAN</DistanceMeters>
          </Trackpoint>
          <Trackpoint>
            <Time>2021-04-02T07:20:10.000Z</Time>
            <Position>
              <LatitudeDegrees>42.36240358091890811920166015625</LatitudeDegrees>
              <LongitudeDegrees>2.64518137089908123016357421875</LongitudeDegrees>
            </Position>
            <AltitudeMeters>834.4000244140625</AltitudeMeters>
            <DistanceMeters>NAN</DistanceMeters>
          </Trackpoint>
          <Trackpoint>
            <Time>2021-04-02T07:20:18.000Z</Time>
            <Position>
              <LatitudeDegrees>42.36233149655163288116455078125</LatitudeDegrees>
              <LongitudeDegrees>2.64513225294649600982666015625</LongitudeDegrees>
            </Position>
            <AltitudeMeters>833.79998779296875</AltitudeMeters>
            <DistanceMeters>NAN</DistanceMeters>
          </Trackpoint>
          <Trackpoint>
            <Time>2021-04-02T07:20:20.000Z</Time>
            <Position>
              <LatitudeDegrees>42.36230199225246906280517578125</LatitudeDegrees>
              <LongitudeDegrees>2.64512068592011928558349609375</LongitudeDegrees>
            </Position>
            <AltitudeMeters>833.4000244140625</AltitudeMeters>
            <DistanceMeters>NAN</DistanceMeters>
          </Trackpoint>
          <Trackpoint>
            <Time>2021-04-02T07:20:29.000Z</Time>
            <Position>
              <LatitudeDegrees>42.3621941171586513519287109375</LatitudeDegrees>
              <LongitudeDegrees>2.64506109058856964111328125</LongitudeDegrees>
            </Position>
            <AltitudeMeters>833</AltitudeMeters>
            <DistanceMeters>NAN</DistanceMeters>
          </Trackpoint>
          <Trackpoint>
            <Time>2021-04-02T07:20:34.000Z</Time>
            <Position>
              <LatitudeDegrees>42.3621602542698383331298828125</LatitudeDegrees>
              <LongitudeDegrees>2.645030915737152099609375</LongitudeDegrees>
            </Position>
            <AltitudeMeters>832.5999755859375</AltitudeMeters>
            <DistanceMeters>NAN</DistanceMeters>
          </Trackpoint>
          <Trackpoint>
            <Time>2021-04-02T07:20:38.000Z</Time>
            <Position>
              <LatitudeDegrees>42.362134270370006561279296875</LatitudeDegrees>
              <LongitudeDegrees>2.64500618912279605865478515625</LongitudeDegrees>
            </Position>
            <AltitudeMeters>832.4000244140625</AltitudeMeters>
            <DistanceMeters>NAN</DistanceMeters>
          </Trackpoint>
          <Trackpoint>
            <Time>2021-04-02T07:20:39.000Z</Time>
            <Position>
              <LatitudeDegrees>42.362134270370006561279296875</LatitudeDegrees>
              <LongitudeDegrees>2.64500618912279605865478515625</LongitudeDegrees>
            </Position>
            <AltitudeMeters>832.4000244140625</AltitudeMeters>
            <DistanceMeters>NAN</DistanceMeters>
          </Trackpoint>
          <Trackpoint>
            <Time>2021-04-02T07:20:46.000Z</Time>
            <Position>
              <LatitudeDegrees>42.36207718960940837860107421875</LatitudeDegrees>
              <LongitudeDegrees>2.6449402235448360443115234375</LongitudeDegrees>
            </Position>
            <AltitudeMeters>832</AltitudeMeters>
            <DistanceMeters>NAN</DistanceMeters>
          </Trackpoint>
          <Trackpoint>
            <Time>2021-04-02T07:20:51.000Z</Time>
            <Position>
              <LatitudeDegrees>42.36205212771892547607421875</LatitudeDegrees>
              <LongitudeDegrees>2.6448721624910831451416015625</LongitudeDegrees>
            </Position>
            <AltitudeMeters>831.79998779296875</AltitudeMeters>
            <DistanceMeters>NAN</DistanceMeters>
          </Trackpoint>
          <Trackpoint>
            <Time>2021-04-02T07:20:53.000Z</Time>
            <Position>
              <LatitudeDegrees>42.362043075263500213623046875</LatitudeDegrees>
              <LongitudeDegrees>2.64484056271612644195556640625</LongitudeDegrees>
            </Position>
            <AltitudeMeters>831.79998779296875</AltitudeMeters>
            <DistanceMeters>NAN</DistanceMeters>
          </Trackpoint>
          <Trackpoint>
            <Time>2021-04-02T07:20:58.000Z</Time>
            <Position>
              <LatitudeDegrees>42.3620321787893772125244140625</LatitudeDegrees>
              <LongitudeDegrees>2.64475624077022075653076171875</LongitudeDegrees>
            </Position>
            <AltitudeMeters>831.5999755859375</AltitudeMeters>
            <DistanceMeters>NAN</DistanceMeters>
          </Trackpoint>
          <Trackpoint>
            <Time>2021-04-02T07:21:08.000Z</Time>
            <Position>
              <LatitudeDegrees>42.36202253960072994232177734375</LatitudeDegrees>
              <LongitudeDegrees>2.644594050943851470947265625</LongitudeDegrees>
            </Position>
            <AltitudeMeters>831.4000244140625</AltitudeMeters>
            <DistanceMeters>NAN</DistanceMeters>
          </Trackpoint>
          <Trackpoint>
            <Time>2021-04-02T07:21:13.000Z</Time>
            <Position>
              <LatitudeDegrees>42.362045757472515106201171875</LatitudeDegrees>
              <LongitudeDegrees>2.64452188275754451751708984375</LongitudeDegrees>
            </Position>
            <AltitudeMeters>831.4000244140625</AltitudeMeters>
            <DistanceMeters>NAN</DistanceMeters>
          </Trackpoint>
          <Trackpoint>
            <Time>2021-04-02T07:21:16.000Z</Time>
            <Position>
              <LatitudeDegrees>42.3620737530291080474853515625</LatitudeDegrees>
              <LongitudeDegrees>2.644493468105792999267578125</LongitudeDegrees>
            </Position>
            <AltitudeMeters>831.4000244140625</AltitudeMeters>
            <DistanceMeters>NAN</DistanceMeters>
          </Trackpoint>
          <Trackpoint>
            <Time>2021-04-02T07:21:18.000Z</Time>
            <Position>
              <LatitudeDegrees>42.3620988987386226654052734375</LatitudeDegrees>
              <LongitudeDegrees>2.64446740038692951202392578125</LongitudeDegrees>
            </Position>
            <AltitudeMeters>831.4000244140625</AltitudeMeters>
            <DistanceMeters>NAN</DistanceMeters>
          </Trackpoint>
          <Trackpoint>
            <Time>2021-04-02T07:21:24.000Z</Time>
            <Position>
              <LatitudeDegrees>42.36217509023845195770263671875</LatitudeDegrees>
              <LongitudeDegrees>2.64443077147006988525390625</LongitudeDegrees>
            </Position>
            <AltitudeMeters>831.4000244140625</AltitudeMeters>
            <DistanceMeters>NAN</DistanceMeters>
          </Trackpoint>
          <Trackpoint>
            <Time>2021-04-02T07:21:25.000Z</Time>
            <Position>
              <LatitudeDegrees>42.3621783591806888580322265625</LatitudeDegrees>
              <LongitudeDegrees>2.64442817308008670806884765625</LongitudeDegrees>
            </Position>
            <AltitudeMeters>831.5999755859375</AltitudeMeters>
            <DistanceMeters>NAN</DistanceMeters>
          </Trackpoint>
          <Trackpoint>
            <Time>2021-04-02T07:21:31.000Z</Time>
            <Position>
              <LatitudeDegrees>42.362247593700885772705078125</LatitudeDegrees>
              <LongitudeDegrees>2.64437855221331119537353515625</LongitudeDegrees>
            </Position>
            <AltitudeMeters>832</AltitudeMeters>
            <DistanceMeters>NAN</DistanceMeters>
          </Trackpoint>
          <Trackpoint>
            <Time>2021-04-02T07:21:32.000Z</Time>
            <Position>
              <LatitudeDegrees>42.362247593700885772705078125</LatitudeDegrees>
              <LongitudeDegrees>2.64437855221331119537353515625</LongitudeDegrees>
            </Position>
            <AltitudeMeters>832</AltitudeMeters>
            <DistanceMeters>NAN</DistanceMeters>
          </Trackpoint>
          <Trackpoint>
            <Time>2021-04-02T07:21:41.000Z</Time>
            <Position>
              <LatitudeDegrees>42.36232437193393707275390625</LatitudeDegrees>
              <LongitudeDegrees>2.64428165741264820098876953125</LongitudeDegrees>
            </Position>
            <AltitudeMeters>832.5999755859375</AltitudeMeters>
            <DistanceMeters>NAN</DistanceMeters>
          </Trackpoint>
          <Trackpoint>
            <Time>2021-04-02T07:21:43.000Z</Time>
            <Position>
              <LatitudeDegrees>42.3623379506170749664306640625</LatitudeDegrees>
              <LongitudeDegrees>2.64426003210246562957763671875</LongitudeDegrees>
            </Position>
            <AltitudeMeters>832.79998779296875</AltitudeMeters>
            <DistanceMeters>NAN</DistanceMeters>
          </Trackpoint>
          <Trackpoint>
            <Time>2021-04-02T07:21:49.000Z</Time>
            <Position>
              <LatitudeDegrees>42.36237131059169769287109375</LatitudeDegrees>
              <LongitudeDegrees>2.64419565908610820770263671875</LongitudeDegrees>
            </Position>
            <AltitudeMeters>833</AltitudeMeters>
            <DistanceMeters>NAN</DistanceMeters>
          </Trackpoint>
          <Trackpoint>
            <Time>2021-04-02T07:21:56.000Z</Time>
            <Position>
              <LatitudeDegrees>42.36239452846348285675048828125</LatitudeDegrees>
              <LongitudeDegrees>2.64408920891582965850830078125</LongitudeDegrees>
            </Position>
            <AltitudeMeters>833.4000244140625</AltitudeMeters>
            <DistanceMeters>NAN</DistanceMeters>
          </Trackpoint>
          <Trackpoint>
            <Time>2021-04-02T07:21:59.000Z</Time>
            <Position>
              <LatitudeDegrees>42.362406514585018157958984375</LatitudeDegrees>
              <LongitudeDegrees>2.64404721558094024658203125</LongitudeDegrees>
            </Position>
            <AltitudeMeters>833.5999755859375</AltitudeMeters>
            <DistanceMeters>NAN</DistanceMeters>
          </Trackpoint>
          <Trackpoint>
            <Time>2021-04-02T07:22:01.000Z</Time>
            <Position>
              <LatitudeDegrees>42.3624076880514621734619140625</LatitudeDegrees>
              <LongitudeDegrees>2.64401678927242755889892578125</LongitudeDegrees>
            </Position>
            <AltitudeMeters>833.79998779296875</AltitudeMeters>
            <DistanceMeters>NAN</DistanceMeters>
          </Trackpoint>
          <Trackpoint>
            <Time>2021-04-02T07:22:10.000Z</Time>
            <Position>
              <LatitudeDegrees>42.36243207938969135284423828125</LatitudeDegrees>
              <LongitudeDegrees>2.6438797451555728912353515625</LongitudeDegrees>
            </Position>
            <AltitudeMeters>834</AltitudeMeters>
            <DistanceMeters>NAN</DistanceMeters>
          </Trackpoint>
          <Trackpoint>
            <Time>2021-04-02T07:22:14.000Z</Time>
            <Position>
              <LatitudeDegrees>42.36243627034127712249755859375</LatitudeDegrees>
              <LongitudeDegrees>2.6438237540423870086669921875</LongitudeDegrees>
            </Position>
            <AltitudeMeters>834.20001220703125</AltitudeMeters>
            <DistanceMeters>NAN</DistanceMeters>
          </Trackpoint>
          <Trackpoint>
            <Time>2021-04-02T07:22:22.000Z</Time>
            <Position>
              <LatitudeDegrees>42.36248354427516460418701171875</LatitudeDegrees>
              <LongitudeDegrees>2.6437292061746120452880859375</LongitudeDegrees>
            </Position>
            <AltitudeMeters>834</AltitudeMeters>
            <DistanceMeters>NAN</DistanceMeters>
          </Trackpoint>
          <Trackpoint>
            <Time>2021-04-02T07:22:29.000Z</Time>
            <Position>
              <LatitudeDegrees>42.36250885762274265289306640625</LatitudeDegrees>
              <LongitudeDegrees>2.6436214148998260498046875</LongitudeDegrees>
            </Position>
            <AltitudeMeters>834</AltitudeMeters>
            <DistanceMeters>NAN</DistanceMeters>
          </Trackpoint>
          <Trackpoint>
            <Time>2021-04-02T07:22:32.000Z</Time>
            <Position>
              <LatitudeDegrees>42.362521849572658538818359375</LatitudeDegrees>
              <LongitudeDegrees>2.6435756497085094451904296875</LongitudeDegrees>
            </Position>
            <AltitudeMeters>834</AltitudeMeters>
            <DistanceMeters>NAN</DistanceMeters>
          </Trackpoint>
          <Trackpoint>
            <Time>2021-04-02T07:22:33.000Z</Time>
            <Position>
              <LatitudeDegrees>42.36252461560070514678955078125</LatitudeDegrees>
              <LongitudeDegrees>2.64355796389281749725341796875</LongitudeDegrees>
            </Position>
            <AltitudeMeters>834</AltitudeMeters>
            <DistanceMeters>NAN</DistanceMeters>
          </Trackpoint>
          <Trackpoint>
            <Time>2021-04-02T07:22:37.000Z</Time>
            <Position>
              <LatitudeDegrees>42.3625384457409381866455078125</LatitudeDegrees>
              <LongitudeDegrees>2.64349979348480701446533203125</LongitudeDegrees>
            </Position>
            <AltitudeMeters>833.79998779296875</AltitudeMeters>
            <DistanceMeters>NAN</DistanceMeters>
          </Trackpoint>
          <Trackpoint>
            <Time>2021-04-02T07:22:43.000Z</Time>
            <Position>
              <LatitudeDegrees>42.36255713738501071929931640625</LatitudeDegrees>
              <LongitudeDegrees>2.64341698028147220611572265625</LongitudeDegrees>
            </Position>
            <AltitudeMeters>833.5999755859375</AltitudeMeters>
            <DistanceMeters>NAN</DistanceMeters>
          </Trackpoint>
          <Trackpoint>
            <Time>2021-04-02T07:22:49.000Z</Time>
            <Position>
              <LatitudeDegrees>42.36258010379970073699951171875</LatitudeDegrees>
              <LongitudeDegrees>2.6433335803449153900146484375</LongitudeDegrees>
            </Position>
            <AltitudeMeters>833.5999755859375</AltitudeMeters>
            <DistanceMeters>NAN</DistanceMeters>
          </Trackpoint>
          <Trackpoint>
            <Time>2021-04-02T07:22:55.000Z</Time>
            <Position>
              <LatitudeDegrees>42.362618409097194671630859375</LatitudeDegrees>
              <LongitudeDegrees>2.6432598195970058441162109375</LongitudeDegrees>
            </Position>
            <AltitudeMeters>833.79998779296875</AltitudeMeters>
            <DistanceMeters>NAN</DistanceMeters>
          </Trackpoint>
          <Trackpoint>
            <Time>2021-04-02T07:22:57.000Z</Time>
            <Position>
              <LatitudeDegrees>42.36262209713459014892578125</LatitudeDegrees>
              <LongitudeDegrees>2.643234170973300933837890625</LongitudeDegrees>
            </Position>
            <AltitudeMeters>833.79998779296875</AltitudeMeters>
            <DistanceMeters>NAN</DistanceMeters>
          </Trackpoint>
          <Trackpoint>
            <Time>2021-04-02T07:23:03.000Z</Time>
            <Position>
              <LatitudeDegrees>42.36268035136163234710693359375</LatitudeDegrees>
              <LongitudeDegrees>2.64314188621938228607177734375</LongitudeDegrees>
            </Position>
            <AltitudeMeters>833.5999755859375</AltitudeMeters>
            <DistanceMeters>NAN</DistanceMeters>
          </Trackpoint>
          <Trackpoint>
            <Time>2021-04-02T07:23:04.000Z</Time>
            <Position>
              <LatitudeDegrees>42.3626886494457721710205078125</LatitudeDegrees>
              <LongitudeDegrees>2.6431243680417537689208984375</LongitudeDegrees>
            </Position>
            <AltitudeMeters>833.79998779296875</AltitudeMeters>
            <DistanceMeters>NAN</DistanceMeters>
          </Trackpoint>
          <Trackpoint>
            <Time>2021-04-02T07:23:05.000Z</Time>
            <Position>
              <LatitudeDegrees>42.3626920022070407867431640625</LatitudeDegrees>
              <LongitudeDegrees>2.64311037026345729827880859375</LongitudeDegrees>
            </Position>
            <AltitudeMeters>833.79998779296875</AltitudeMeters>
            <DistanceMeters>NAN</DistanceMeters>
          </Trackpoint>
          <Trackpoint>
            <Time>2021-04-02T07:23:06.000Z</Time>
            <Position>
              <LatitudeDegrees>42.36269476823508739471435546875</LatitudeDegrees>
              <LongitudeDegrees>2.643092684447765350341796875</LongitudeDegrees>
            </Position>
            <AltitudeMeters>833.79998779296875</AltitudeMeters>
            <DistanceMeters>NAN</DistanceMeters>
          </Trackpoint>
          <Trackpoint>
            <Time>2021-04-02T07:23:13.000Z</Time>
            <Position>
              <LatitudeDegrees>42.36270599998533725738525390625</LatitudeDegrees>
              <LongitudeDegrees>2.642989419400691986083984375</LongitudeDegrees>
            </Position>
            <AltitudeMeters>833.5999755859375</AltitudeMeters>
            <DistanceMeters>NAN</DistanceMeters>
          </Trackpoint>
          <Trackpoint>
            <Time>2021-04-02T07:23:15.000Z</Time>
            <Position>
              <LatitudeDegrees>42.36270390450954437255859375</LatitudeDegrees>
              <LongitudeDegrees>2.64295714907348155975341796875</LongitudeDegrees>
            </Position>
            <AltitudeMeters>833.5999755859375</AltitudeMeters>
            <DistanceMeters>NAN</DistanceMeters>
          </Trackpoint>
          <Trackpoint>
            <Time>2021-04-02T07:23:23.000Z</Time>
            <Position>
              <LatitudeDegrees>42.36273474991321563720703125</LatitudeDegrees>
              <LongitudeDegrees>2.64284281991422176361083984375</LongitudeDegrees>
            </Position>
            <AltitudeMeters>833.4000244140625</AltitudeMeters>
            <DistanceMeters>NAN</DistanceMeters>
          </Trackpoint>
          <Trackpoint>
            <Time>2021-04-02T07:23:30.000Z</Time>
            <Position>
              <LatitudeDegrees>42.36275218427181243896484375</LatitudeDegrees>
              <LongitudeDegrees>2.64273905195295810699462890625</LongitudeDegrees>
            </Position>
            <AltitudeMeters>833.20001220703125</AltitudeMeters>
            <DistanceMeters>NAN</DistanceMeters>
          </Trackpoint>
          <Trackpoint>
            <Time>2021-04-02T07:23:39.000Z</Time>
            <Position>
              <LatitudeDegrees>42.36278294585645198822021484375</LatitudeDegrees>
              <LongitudeDegrees>2.6426150836050510406494140625</LongitudeDegrees>
            </Position>
            <AltitudeMeters>832.79998779296875</AltitudeMeters>
            <DistanceMeters>NAN</DistanceMeters>
          </Trackpoint>
          <Trackpoint>
            <Time>2021-04-02T07:23:42.000Z</Time>
            <Position>
              <LatitudeDegrees>42.36278395168483257293701171875</LatitudeDegrees>
              <LongitudeDegrees>2.642570994794368743896484375</LongitudeDegrees>
            </Position>
            <AltitudeMeters>832.79998779296875</AltitudeMeters>
            <DistanceMeters>NAN</DistanceMeters>
          </Trackpoint>
          <Trackpoint>
            <Time>2021-04-02T07:23:44.000Z</Time>
            <Position>
              <LatitudeDegrees>42.36278311349451541900634765625</LatitudeDegrees>
              <LongitudeDegrees>2.642541490495204925537109375</LongitudeDegrees>
            </Position>
            <AltitudeMeters>832.79998779296875</AltitudeMeters>
            <DistanceMeters>NAN</DistanceMeters>
          </Trackpoint>
          <Trackpoint>
            <Time>2021-04-02T07:23:48.000Z</Time>
            <Position>
              <LatitudeDegrees>42.36276291310787200927734375</LatitudeDegrees>
              <LongitudeDegrees>2.64249019324779510498046875</LongitudeDegrees>
            </Position>
            <AltitudeMeters>832.4000244140625</AltitudeMeters>
            <DistanceMeters>NAN</DistanceMeters>
          </Trackpoint>
          <Trackpoint>
            <Time>2021-04-02T07:23:56.000Z</Time>
            <Position>
              <LatitudeDegrees>42.36270532943308353424072265625</LatitudeDegrees>
              <LongitudeDegrees>2.6424306817352771759033203125</LongitudeDegrees>
            </Position>
            <AltitudeMeters>832.4000244140625</AltitudeMeters>
            <DistanceMeters>NAN</DistanceMeters>
          </Trackpoint>
          <Trackpoint>
            <Time>2021-04-02T07:24:06.000Z</Time>
            <Position>
              <LatitudeDegrees>42.3625840432941913604736328125</LatitudeDegrees>
              <LongitudeDegrees>2.64244903810322284698486328125</LongitudeDegrees>
            </Position>
            <AltitudeMeters>832.4000244140625</AltitudeMeters>
            <DistanceMeters>NAN</DistanceMeters>
          </Trackpoint>
          <Trackpoint>
            <Time>2021-04-02T07:24:15.000Z</Time>
            <Position>
              <LatitudeDegrees>42.36249360255897045135498046875</LatitudeDegrees>
              <LongitudeDegrees>2.64248943887650966644287109375</LongitudeDegrees>
            </Position>
            <AltitudeMeters>832.4000244140625</AltitudeMeters>
            <DistanceMeters>NAN</DistanceMeters>
          </Trackpoint>
          <Trackpoint>
            <Time>2021-04-02T07:24:22.000Z</Time>
            <Position>
              <LatitudeDegrees>42.3624700494110584259033203125</LatitudeDegrees>
              <LongitudeDegrees>2.64250184409320354461669921875</LongitudeDegrees>
            </Position>
            <AltitudeMeters>832</AltitudeMeters>
            <DistanceMeters>NAN</DistanceMeters>
          </Trackpoint>
          <Trackpoint>
            <Time>2021-04-02T07:24:23.000Z</Time>
            <Position>
              <LatitudeDegrees>42.36247264780104160308837890625</LatitudeDegrees>
              <LongitudeDegrees>2.64249932952225208282470703125</LongitudeDegrees>
            </Position>
            <AltitudeMeters>832</AltitudeMeters>
            <DistanceMeters>NAN</DistanceMeters>
          </Trackpoint>
          <Trackpoint>
            <Time>2021-04-02T07:24:25.000Z</Time>
            <Position>
              <LatitudeDegrees>42.36248605884611606597900390625</LatitudeDegrees>
              <LongitudeDegrees>2.64250226318836212158203125</LongitudeDegrees>
            </Position>
            <AltitudeMeters>831.79998779296875</AltitudeMeters>
            <DistanceMeters>NAN</DistanceMeters>
          </Trackpoint>
          <Trackpoint>
            <Time>2021-04-02T07:24:26.000Z</Time>
            <Position>
              <LatitudeDegrees>42.36248924396932125091552734375</LatitudeDegrees>
              <LongitudeDegrees>2.64250838197767734527587890625</LongitudeDegrees>
            </Position>
            <AltitudeMeters>831.79998779296875</AltitudeMeters>
            <DistanceMeters>NAN</DistanceMeters>
          </Trackpoint>
          <Trackpoint>
            <Time>2021-04-02T07:24:29.000Z</Time>
            <Position>
              <LatitudeDegrees>42.362478934228420257568359375</LatitudeDegrees>
              <LongitudeDegrees>2.64250620268285274505615234375</LongitudeDegrees>
            </Position>
            <AltitudeMeters>831.5999755859375</AltitudeMeters>
            <DistanceMeters>NAN</DistanceMeters>
          </Trackpoint>
          <Trackpoint>
            <Time>2021-04-02T07:24:35.000Z</Time>
            <Position>
              <LatitudeDegrees>42.3624328337609767913818359375</LatitudeDegrees>
              <LongitudeDegrees>2.64246295206248760223388671875</LongitudeDegrees>
            </Position>
            <AltitudeMeters>831.5999755859375</AltitudeMeters>
            <DistanceMeters>NAN</DistanceMeters>
          </Trackpoint>
          <Trackpoint>
            <Time>2021-04-02T07:24:43.000Z</Time>
            <Position>
              <LatitudeDegrees>42.36233518458902835845947265625</LatitudeDegrees>
              <LongitudeDegrees>2.642383575439453125</LongitudeDegrees>
            </Position>
            <AltitudeMeters>831.4000244140625</AltitudeMeters>
            <DistanceMeters>NAN</DistanceMeters>
          </Trackpoint>
          <Trackpoint>
            <Time>2021-04-02T07:24:45.000Z</Time>
            <Position>
              <LatitudeDegrees>42.3623278923332691192626953125</LatitudeDegrees>
              <LongitudeDegrees>2.64236924238502979278564453125</LongitudeDegrees>
            </Position>
            <AltitudeMeters>831.4000244140625</AltitudeMeters>
            <DistanceMeters>NAN</DistanceMeters>
          </Trackpoint>
          <Trackpoint>
            <Time>2021-04-02T07:24:50.000Z</Time>
            <Position>
              <LatitudeDegrees>42.36232261173427104949951171875</LatitudeDegrees>
              <LongitudeDegrees>2.64230822212994098663330078125</LongitudeDegrees>
            </Position>
            <AltitudeMeters>831.5999755859375</AltitudeMeters>
            <DistanceMeters>NAN</DistanceMeters>
          </Trackpoint>
          <Trackpoint>
            <Time>2021-04-02T07:24:58.000Z</Time>
            <Position>
              <LatitudeDegrees>42.36232881434261798858642578125</LatitudeDegrees>
              <LongitudeDegrees>2.6421976648271083831787109375</LongitudeDegrees>
            </Position>
            <AltitudeMeters>831.5999755859375</AltitudeMeters>
            <DistanceMeters>NAN</DistanceMeters>
          </Trackpoint>
          <Trackpoint>
            <Time>2021-04-02T07:25:05.000Z</Time>
            <Position>
              <LatitudeDegrees>42.362334094941616058349609375</LatitudeDegrees>
              <LongitudeDegrees>2.64209565706551074981689453125</LongitudeDegrees>
            </Position>
            <AltitudeMeters>832</AltitudeMeters>
            <DistanceMeters>NAN</DistanceMeters>
          </Trackpoint>
          <Trackpoint>
            <Time>2021-04-02T07:25:08.000Z</Time>
            <Position>
              <LatitudeDegrees>42.36233484931290149688720703125</LatitudeDegrees>
              <LongitudeDegrees>2.642045281827449798583984375</LongitudeDegrees>
            </Position>
            <AltitudeMeters>832</AltitudeMeters>
            <DistanceMeters>NAN</DistanceMeters>
          </Trackpoint>
          <Trackpoint>
            <Time>2021-04-02T07:25:14.000Z</Time>
            <Position>
              <LatitudeDegrees>42.36231909133493900299072265625</LatitudeDegrees>
              <LongitudeDegrees>2.64193573035299777984619140625</LongitudeDegrees>
            </Position>
            <AltitudeMeters>832.20001220703125</AltitudeMeters>
            <DistanceMeters>NAN</DistanceMeters>
          </Trackpoint>
          <Trackpoint>
            <Time>2021-04-02T07:25:19.000Z</Time>
            <Position>
              <LatitudeDegrees>42.3622973822057247161865234375</LatitudeDegrees>
              <LongitudeDegrees>2.64187454245984554290771484375</LongitudeDegrees>
            </Position>
            <AltitudeMeters>832.5999755859375</AltitudeMeters>
            <DistanceMeters>NAN</DistanceMeters>
          </Trackpoint>
          <Trackpoint>
            <Time>2021-04-02T07:25:20.000Z</Time>
            <Position>
              <LatitudeDegrees>42.362301237881183624267578125</LatitudeDegrees>
              <LongitudeDegrees>2.6418593712151050567626953125</LongitudeDegrees>
            </Position>
            <AltitudeMeters>832.5999755859375</AltitudeMeters>
            <DistanceMeters>NAN</DistanceMeters>
          </Trackpoint>
          <Trackpoint>
            <Time>2021-04-02T07:25:26.000Z</Time>
            <Position>
              <LatitudeDegrees>42.36225639469921588897705078125</LatitudeDegrees>
              <LongitudeDegrees>2.641781084239482879638671875</LongitudeDegrees>
            </Position>
            <AltitudeMeters>832.5999755859375</AltitudeMeters>
            <DistanceMeters>NAN</DistanceMeters>
          </Trackpoint>
          <Trackpoint>
            <Time>2021-04-02T07:25:29.000Z</Time>
            <Position>
              <LatitudeDegrees>42.3622410558164119720458984375</LatitudeDegrees>
              <LongitudeDegrees>2.64174093492329120635986328125</LongitudeDegrees>
            </Position>
            <AltitudeMeters>832.5999755859375</AltitudeMeters>
            <DistanceMeters>NAN</DistanceMeters>
          </Trackpoint>
          <Trackpoint>
            <Time>2021-04-02T07:25:34.000Z</Time>
            <Position>
              <LatitudeDegrees>42.36221582628786563873291015625</LatitudeDegrees>
              <LongitudeDegrees>2.64167052693665027618408203125</LongitudeDegrees>
            </Position>
            <AltitudeMeters>832.79998779296875</AltitudeMeters>
            <DistanceMeters>NAN</DistanceMeters>
          </Trackpoint>
          <Trackpoint>
            <Time>2021-04-02T07:25:35.000Z</Time>
            <Position>
              <LatitudeDegrees>42.36221414990723133087158203125</LatitudeDegrees>
              <LongitudeDegrees>2.64165334403514862060546875</LongitudeDegrees>
            </Position>
            <AltitudeMeters>832.79998779296875</AltitudeMeters>
            <DistanceMeters>NAN</DistanceMeters>
          </Trackpoint>
          <Trackpoint>
            <Time>2021-04-02T07:25:42.000Z</Time>
            <Position>
              <LatitudeDegrees>42.3621962964534759521484375</LatitudeDegrees>
              <LongitudeDegrees>2.64153943397104740142822265625</LongitudeDegrees>
            </Position>
            <AltitudeMeters>833</AltitudeMeters>
            <DistanceMeters>NAN</DistanceMeters>
          </Trackpoint>
          <Trackpoint>
            <Time>2021-04-02T07:25:43.000Z</Time>
            <Position>
              <LatitudeDegrees>42.36219403333961963653564453125</LatitudeDegrees>
              <LongitudeDegrees>2.64152250252664089202880859375</LongitudeDegrees>
            </Position>
            <AltitudeMeters>833.20001220703125</AltitudeMeters>
            <DistanceMeters>NAN</DistanceMeters>
          </Trackpoint>
          <Trackpoint>
            <Time>2021-04-02T07:25:49.000Z</Time>
            <Position>
              <LatitudeDegrees>42.3621882498264312744140625</LatitudeDegrees>
              <LongitudeDegrees>2.641430385410785675048828125</LongitudeDegrees>
            </Position>
            <AltitudeMeters>833.4000244140625</AltitudeMeters>
            <DistanceMeters>NAN</DistanceMeters>
          </Trackpoint>
          <Trackpoint>
            <Time>2021-04-02T07:25:51.000Z</Time>
            <Position>
              <LatitudeDegrees>42.36218883655965328216552734375</LatitudeDegrees>
              <LongitudeDegrees>2.64142594300210475921630859375</LongitudeDegrees>
            </Position>
            <AltitudeMeters>833.4000244140625</AltitudeMeters>
            <DistanceMeters>NAN</DistanceMeters>
          </Trackpoint>
          <Trackpoint>
            <Time>2021-04-02T07:25:52.000Z</Time>
            <Position>
              <LatitudeDegrees>42.3621900938451290130615234375</LatitudeDegrees>
              <LongitudeDegrees>2.64142476953566074371337890625</LongitudeDegrees>
            </Position>
            <AltitudeMeters>833.4000244140625</AltitudeMeters>
            <DistanceMeters>NAN</DistanceMeters>
          </Trackpoint>
          <Trackpoint>
            <Time>2021-04-02T07:25:55.000Z</Time>
            <Position>
              <LatitudeDegrees>42.362194955348968505859375</LatitudeDegrees>
              <LongitudeDegrees>2.64143080450594425201416015625</LongitudeDegrees>
            </Position>
            <AltitudeMeters>833.4000244140625</AltitudeMeters>
            <DistanceMeters>NAN</DistanceMeters>
          </Trackpoint>
          <Trackpoint>
            <Time>2021-04-02T07:26:09.000Z</Time>
            <Position>
              <LatitudeDegrees>42.36220828257501125335693359375</LatitudeDegrees>
              <LongitudeDegrees>2.64142678119242191314697265625</LongitudeDegrees>
            </Position>
            <AltitudeMeters>833.5999755859375</AltitudeMeters>
            <DistanceMeters>NAN</DistanceMeters>
          </Trackpoint>
          <Trackpoint>
            <Time>2021-04-02T07:26:20.000Z</Time>
            <Position>
              <LatitudeDegrees>42.36218078993260860443115234375</LatitudeDegrees>
              <LongitudeDegrees>2.64143533073365688323974609375</LongitudeDegrees>
            </Position>
            <AltitudeMeters>833.4000244140625</AltitudeMeters>
            <DistanceMeters>NAN</DistanceMeters>
          </Trackpoint>
          <Trackpoint>
            <Time>2021-04-02T07:26:23.000Z</Time>
            <Position>
              <LatitudeDegrees>42.3621729947626590728759765625</LatitudeDegrees>
              <LongitudeDegrees>2.64143533073365688323974609375</LongitudeDegrees>
            </Position>
            <AltitudeMeters>833.5999755859375</AltitudeMeters>
            <DistanceMeters>NAN</DistanceMeters>
          </Trackpoint>
          <Trackpoint>
            <Time>2021-04-02T07:26:25.000Z</Time>
            <Position>
              <LatitudeDegrees>42.36216486431658267974853515625</LatitudeDegrees>
              <LongitudeDegrees>2.64143533073365688323974609375</LongitudeDegrees>
            </Position>
            <AltitudeMeters>833.5999755859375</AltitudeMeters>
            <DistanceMeters>NAN</DistanceMeters>
          </Trackpoint>
          <Trackpoint>
            <Time>2021-04-02T07:26:30.000Z</Time>
            <Position>
              <LatitudeDegrees>42.36216218210756778717041015625</LatitudeDegrees>
              <LongitudeDegrees>2.64143533073365688323974609375</LongitudeDegrees>
            </Position>
            <AltitudeMeters>833.79998779296875</AltitudeMeters>
            <DistanceMeters>NAN</DistanceMeters>
          </Trackpoint>
          <Trackpoint>
            <Time>2021-04-02T07:26:33.000Z</Time>
            <Position>
              <LatitudeDegrees>42.36216050572693347930908203125</LatitudeDegrees>
              <LongitudeDegrees>2.6414332352578639984130859375</LongitudeDegrees>
            </Position>
            <AltitudeMeters>833.79998779296875</AltitudeMeters>
            <DistanceMeters>NAN</DistanceMeters>
          </Trackpoint>
          <Trackpoint>
            <Time>2021-04-02T07:26:35.000Z</Time>
            <Position>
              <LatitudeDegrees>42.36215933226048946380615234375</LatitudeDegrees>
              <LongitudeDegrees>2.64142946340143680572509765625</LongitudeDegrees>
            </Position>
            <AltitudeMeters>833.79998779296875</AltitudeMeters>
            <DistanceMeters>NAN</DistanceMeters>
          </Trackpoint>
          <Trackpoint>
            <Time>2021-04-02T07:26:39.000Z</Time>
            <Position>
              <LatitudeDegrees>42.3621552251279354095458984375</LatitudeDegrees>
              <LongitudeDegrees>2.64141990803182125091552734375</LongitudeDegrees>
            </Position>
            <AltitudeMeters>833.79998779296875</AltitudeMeters>
            <DistanceMeters>NAN</DistanceMeters>
          </Trackpoint>
          <Trackpoint>
            <Time>2021-04-02T07:27:06.000Z</Time>
            <Position>
              <LatitudeDegrees>42.36218498088419437408447265625</LatitudeDegrees>
              <LongitudeDegrees>2.64142334461212158203125</LongitudeDegrees>
            </Position>
            <AltitudeMeters>833.79998779296875</AltitudeMeters>
            <DistanceMeters>NAN</DistanceMeters>
          </Trackpoint>
          <Trackpoint>
            <Time>2021-04-02T07:27:18.000Z</Time>
            <Position>
              <LatitudeDegrees>42.362188585102558135986328125</LatitudeDegrees>
              <LongitudeDegrees>2.64142334461212158203125</LongitudeDegrees>
            </Position>
            <AltitudeMeters>833.79998779296875</AltitudeMeters>
            <DistanceMeters>NAN</DistanceMeters>
          </Trackpoint>
          <Trackpoint>
            <Time>2021-04-02T07:27:30.000Z</Time>
            <Position>
              <LatitudeDegrees>42.36218892037868499755859375</LatitudeDegrees>
              <LongitudeDegrees>2.64141504652798175811767578125</LongitudeDegrees>
            </Position>
            <AltitudeMeters>833.79998779296875</AltitudeMeters>
            <DistanceMeters>NAN</DistanceMeters>
          </Trackpoint>
          <Trackpoint>
            <Time>2021-04-02T07:27:38.000Z</Time>
            <Position>
              <LatitudeDegrees>42.362187243998050689697265625</LatitudeDegrees>
              <LongitudeDegrees>2.641511522233486175537109375</LongitudeDegrees>
            </Position>
            <AltitudeMeters>833.20001220703125</AltitudeMeters>
            <DistanceMeters>NAN</DistanceMeters>
          </Trackpoint>
          <Trackpoint>
            <Time>2021-04-02T07:27:44.000Z</Time>
            <Position>
              <LatitudeDegrees>42.3621721565723419189453125</LatitudeDegrees>
              <LongitudeDegrees>2.6415421999990940093994140625</LongitudeDegrees>
            </Position>
            <AltitudeMeters>833.20001220703125</AltitudeMeters>
            <DistanceMeters>NAN</DistanceMeters>
          </Trackpoint>
          <Trackpoint>
            <Time>2021-04-02T07:27:51.000Z</Time>
            <Position>
              <LatitudeDegrees>42.3621766828000545501708984375</LatitudeDegrees>
              <LongitudeDegrees>2.64148771762847900390625</LongitudeDegrees>
            </Position>
            <AltitudeMeters>833.20001220703125</AltitudeMeters>
            <DistanceMeters>NAN</DistanceMeters>
          </Trackpoint>
          <Trackpoint>
            <Time>2021-04-02T07:28:00.000Z</Time>
            <Position>
              <LatitudeDegrees>42.3621743358671665191650390625</LatitudeDegrees>
              <LongitudeDegrees>2.641371376812458038330078125</LongitudeDegrees>
            </Position>
            <AltitudeMeters>834</AltitudeMeters>
            <DistanceMeters>NAN</DistanceMeters>
          </Trackpoint>
          <Trackpoint>
            <Time>2021-04-02T07:28:04.000Z</Time>
            <Position>
              <LatitudeDegrees>42.36216084100306034088134765625</LatitudeDegrees>
              <LongitudeDegrees>2.641329802572727203369140625</LongitudeDegrees>
            </Position>
            <AltitudeMeters>834</AltitudeMeters>
            <DistanceMeters>NAN</DistanceMeters>
          </Trackpoint>
          <Trackpoint>
            <Time>2021-04-02T07:28:10.000Z</Time>
            <Position>
              <LatitudeDegrees>42.3621330969035625457763671875</LatitudeDegrees>
              <LongitudeDegrees>2.64126433990895748138427734375</LongitudeDegrees>
            </Position>
            <AltitudeMeters>834</AltitudeMeters>
            <DistanceMeters>NAN</DistanceMeters>
          </Trackpoint>
          <Trackpoint>
            <Time>2021-04-02T07:28:14.000Z</Time>
            <Position>
              <LatitudeDegrees>42.3621227033436298370361328125</LatitudeDegrees>
              <LongitudeDegrees>2.64123232103884220123291015625</LongitudeDegrees>
            </Position>
            <AltitudeMeters>834</AltitudeMeters>
            <DistanceMeters>NAN</DistanceMeters>
          </Trackpoint>
          <Trackpoint>
            <Time>2021-04-02T07:28:16.000Z</Time>
            <Position>
              <LatitudeDegrees>42.3621024191379547119140625</LatitudeDegrees>
              <LongitudeDegrees>2.64121077954769134521484375</LongitudeDegrees>
            </Position>
            <AltitudeMeters>834.20001220703125</AltitudeMeters>
            <DistanceMeters>NAN</DistanceMeters>
          </Trackpoint>
          <Trackpoint>
            <Time>2021-04-02T07:28:20.000Z</Time>
            <Position>
              <LatitudeDegrees>42.36208875663578510284423828125</LatitudeDegrees>
              <LongitudeDegrees>2.641169540584087371826171875</LongitudeDegrees>
            </Position>
            <AltitudeMeters>834.5999755859375</AltitudeMeters>
            <DistanceMeters>NAN</DistanceMeters>
          </Trackpoint>
          <Trackpoint>
            <Time>2021-04-02T07:28:23.000Z</Time>
            <Position>
              <LatitudeDegrees>42.36207249574363231658935546875</LatitudeDegrees>
              <LongitudeDegrees>2.64112335629761219024658203125</LongitudeDegrees>
            </Position>
            <AltitudeMeters>834.79998779296875</AltitudeMeters>
            <DistanceMeters>NAN</DistanceMeters>
          </Trackpoint>
          <Trackpoint>
            <Time>2021-04-02T07:28:24.000Z</Time>
            <Position>
              <LatitudeDegrees>42.3620690591633319854736328125</LatitudeDegrees>
              <LongitudeDegrees>2.64110944233834743499755859375</LongitudeDegrees>
            </Position>
            <AltitudeMeters>835</AltitudeMeters>
            <DistanceMeters>NAN</DistanceMeters>
          </Trackpoint>
          <Trackpoint>
            <Time>2021-04-02T07:28:26.000Z</Time>
            <Position>
              <LatitudeDegrees>42.36206143163144588470458984375</LatitudeDegrees>
              <LongitudeDegrees>2.6410832069814205169677734375</LongitudeDegrees>
            </Position>
            <AltitudeMeters>835.20001220703125</AltitudeMeters>
            <DistanceMeters>NAN</DistanceMeters>
          </Trackpoint>
          <Trackpoint>
            <Time>2021-04-02T07:28:30.000Z</Time>
            <Position>
              <LatitudeDegrees>42.362059839069843292236328125</LatitudeDegrees>
              <LongitudeDegrees>2.64100651256740093231201171875</LongitudeDegrees>
            </Position>
            <AltitudeMeters>835</AltitudeMeters>
            <DistanceMeters>NAN</DistanceMeters>
          </Trackpoint>
          <Trackpoint>
            <Time>2021-04-02T07:28:34.000Z</Time>
            <Position>
              <LatitudeDegrees>42.36206956207752227783203125</LatitudeDegrees>
              <LongitudeDegrees>2.64094063080847263336181640625</LongitudeDegrees>
            </Position>
            <AltitudeMeters>835</AltitudeMeters>
            <DistanceMeters>NAN</DistanceMeters>
          </Trackpoint>
          <Trackpoint>
            <Time>2021-04-02T07:28:36.000Z</Time>
            <Position>
              <LatitudeDegrees>42.36206260509788990020751953125</LatitudeDegrees>
              <LongitudeDegrees>2.64090693555772304534912109375</LongitudeDegrees>
            </Position>
            <AltitudeMeters>835.4000244140625</AltitudeMeters>
            <DistanceMeters>NAN</DistanceMeters>
          </Trackpoint>
          <Trackpoint>
            <Time>2021-04-02T07:28:37.000Z</Time>
            <Position>
              <LatitudeDegrees>42.3620653711259365081787109375</LatitudeDegrees>
              <LongitudeDegrees>2.64088966883718967437744140625</LongitudeDegrees>
            </Position>
            <AltitudeMeters>835.4000244140625</AltitudeMeters>
            <DistanceMeters>NAN</DistanceMeters>
          </Trackpoint>
          <Trackpoint>
            <Time>2021-04-02T07:28:45.000Z</Time>
            <Position>
              <LatitudeDegrees>42.3620972223579883575439453125</LatitudeDegrees>
              <LongitudeDegrees>2.64075002633035182952880859375</LongitudeDegrees>
            </Position>
            <AltitudeMeters>835.4000244140625</AltitudeMeters>
            <DistanceMeters>NAN</DistanceMeters>
          </Trackpoint>
          <Trackpoint>
            <Time>2021-04-02T07:28:54.000Z</Time>
            <Position>
              <LatitudeDegrees>42.36211423762142658233642578125</LatitudeDegrees>
              <LongitudeDegrees>2.6406248845160007476806640625</LongitudeDegrees>
            </Position>
            <AltitudeMeters>835.79998779296875</AltitudeMeters>
            <DistanceMeters>NAN</DistanceMeters>
          </Trackpoint>
          <Trackpoint>
            <Time>2021-04-02T07:28:58.000Z</Time>
            <Position>
              <LatitudeDegrees>42.362101078033447265625</LatitudeDegrees>
              <LongitudeDegrees>2.64058406464755535125732421875</LongitudeDegrees>
            </Position>
            <AltitudeMeters>836</AltitudeMeters>
            <DistanceMeters>NAN</DistanceMeters>
          </Trackpoint>
          <Trackpoint>
            <Time>2021-04-02T07:29:06.000Z</Time>
            <Position>
              <LatitudeDegrees>42.36205455847084522247314453125</LatitudeDegrees>
              <LongitudeDegrees>2.6404572464525699615478515625</LongitudeDegrees>
            </Position>
            <AltitudeMeters>836</AltitudeMeters>
            <DistanceMeters>NAN</DistanceMeters>
          </Trackpoint>
          <Trackpoint>
            <Time>2021-04-02T07:29:15.000Z</Time>
            <Position>
              <LatitudeDegrees>42.3620085418224334716796875</LatitudeDegrees>
              <LongitudeDegrees>2.64033277519047260284423828125</LongitudeDegrees>
            </Position>
            <AltitudeMeters>836.20001220703125</AltitudeMeters>
            <DistanceMeters>NAN</DistanceMeters>
          </Trackpoint>
          <Trackpoint>
            <Time>2021-04-02T07:29:24.000Z</Time>
            <Position>
              <LatitudeDegrees>42.36198415048420429229736328125</LatitudeDegrees>
              <LongitudeDegrees>2.6402098126709461212158203125</LongitudeDegrees>
            </Position>
            <AltitudeMeters>836.5999755859375</AltitudeMeters>
            <DistanceMeters>NAN</DistanceMeters>
          </Trackpoint>
          <Trackpoint>
            <Time>2021-04-02T07:29:27.000Z</Time>
            <Position>
              <LatitudeDegrees>42.36197409220039844512939453125</LatitudeDegrees>
              <LongitudeDegrees>2.64017008244991302490234375</LongitudeDegrees>
            </Position>
            <AltitudeMeters>836.5999755859375</AltitudeMeters>
            <DistanceMeters>NAN</DistanceMeters>
          </Trackpoint>
          <Trackpoint>
            <Time>2021-04-02T07:29:33.000Z</Time>
            <Position>
              <LatitudeDegrees>42.36192866228520870208740234375</LatitudeDegrees>
              <LongitudeDegrees>2.64010612852871417999267578125</LongitudeDegrees>
            </Position>
            <AltitudeMeters>836.79998779296875</AltitudeMeters>
            <DistanceMeters>NAN</DistanceMeters>
          </Trackpoint>
          <Trackpoint>
            <Time>2021-04-02T07:29:34.000Z</Time>
            <Position>
              <LatitudeDegrees>42.36191793344914913177490234375</LatitudeDegrees>
              <LongitudeDegrees>2.64009539969265460968017578125</LongitudeDegrees>
            </Position>
            <AltitudeMeters>836.79998779296875</AltitudeMeters>
            <DistanceMeters>NAN</DistanceMeters>
          </Trackpoint>
          <Trackpoint>
            <Time>2021-04-02T07:29:39.000Z</Time>
            <Position>
              <LatitudeDegrees>42.3618699051439762115478515625</LatitudeDegrees>
              <LongitudeDegrees>2.6400616206228733062744140625</LongitudeDegrees>
            </Position>
            <AltitudeMeters>837</AltitudeMeters>
            <DistanceMeters>NAN</DistanceMeters>
          </Trackpoint>
          <Trackpoint>
            <Time>2021-04-02T07:29:42.000Z</Time>
            <Position>
              <LatitudeDegrees>42.3618360422551631927490234375</LatitudeDegrees>
              <LongitudeDegrees>2.64004711993038654327392578125</LongitudeDegrees>
            </Position>
            <AltitudeMeters>837</AltitudeMeters>
            <DistanceMeters>NAN</DistanceMeters>
          </Trackpoint>
          <Trackpoint>
            <Time>2021-04-02T07:29:47.000Z</Time>
            <Position>
              <LatitudeDegrees>42.36179321072995662689208984375</LatitudeDegrees>
              <LongitudeDegrees>2.64003706164658069610595703125</LongitudeDegrees>
            </Position>
            <AltitudeMeters>837</AltitudeMeters>
            <DistanceMeters>NAN</DistanceMeters>
          </Trackpoint>
          <Trackpoint>
            <Time>2021-04-02T07:29:53.000Z</Time>
            <Position>
              <LatitudeDegrees>42.36173671670258045196533203125</LatitudeDegrees>
              <LongitudeDegrees>2.64000806026160717010498046875</LongitudeDegrees>
            </Position>
            <AltitudeMeters>836.5999755859375</AltitudeMeters>
            <DistanceMeters>NAN</DistanceMeters>
          </Trackpoint>
          <Trackpoint>
            <Time>2021-04-02T07:30:02.000Z</Time>
            <Position>
              <LatitudeDegrees>42.361668236553668975830078125</LatitudeDegrees>
              <LongitudeDegrees>2.63991217128932476043701171875</LongitudeDegrees>
            </Position>
            <AltitudeMeters>836.4000244140625</AltitudeMeters>
            <DistanceMeters>NAN</DistanceMeters>
          </Trackpoint>
          <Trackpoint>
            <Time>2021-04-02T07:30:09.000Z</Time>
            <Position>
              <LatitudeDegrees>42.361647449433803558349609375</LatitudeDegrees>
              <LongitudeDegrees>2.6397994346916675567626953125</LongitudeDegrees>
            </Position>
            <AltitudeMeters>836</AltitudeMeters>
            <DistanceMeters>NAN</DistanceMeters>
          </Trackpoint>
          <Trackpoint>
            <Time>2021-04-02T07:30:11.000Z</Time>
            <Position>
              <LatitudeDegrees>42.36164183355867862701416015625</LatitudeDegrees>
              <LongitudeDegrees>2.6397695951163768768310546875</LongitudeDegrees>
            </Position>
            <AltitudeMeters>836</AltitudeMeters>
            <DistanceMeters>NAN</DistanceMeters>
          </Trackpoint>
          <Trackpoint>
            <Time>2021-04-02T07:30:14.000Z</Time>
            <Position>
              <LatitudeDegrees>42.36165038309991359710693359375</LatitudeDegrees>
              <LongitudeDegrees>2.6397243328392505645751953125</LongitudeDegrees>
            </Position>
            <AltitudeMeters>835.79998779296875</AltitudeMeters>
            <DistanceMeters>NAN</DistanceMeters>
          </Trackpoint>
          <Trackpoint>
            <Time>2021-04-02T07:30:17.000Z</Time>
            <Position>
              <LatitudeDegrees>42.36164451576769351959228515625</LatitudeDegrees>
              <LongitudeDegrees>2.6396908052265644073486328125</LongitudeDegrees>
            </Position>
            <AltitudeMeters>835.4000244140625</AltitudeMeters>
            <DistanceMeters>NAN</DistanceMeters>
          </Trackpoint>
          <Trackpoint>
            <Time>2021-04-02T07:30:22.000Z</Time>
            <Position>
              <LatitudeDegrees>42.3616241477429866790771484375</LatitudeDegrees>
              <LongitudeDegrees>2.63961528427898883819580078125</LongitudeDegrees>
            </Position>
            <AltitudeMeters>835.4000244140625</AltitudeMeters>
            <DistanceMeters>NAN</DistanceMeters>
          </Trackpoint>
          <Trackpoint>
            <Time>2021-04-02T07:30:23.000Z</Time>
            <Position>
              <LatitudeDegrees>42.3616264946758747100830078125</LatitudeDegrees>
              <LongitudeDegrees>2.6396012865006923675537109375</LongitudeDegrees>
            </Position>
            <AltitudeMeters>835.4000244140625</AltitudeMeters>
            <DistanceMeters>NAN</DistanceMeters>
          </Trackpoint>
          <Trackpoint>
            <Time>2021-04-02T07:30:25.000Z</Time>
            <Position>
              <LatitudeDegrees>42.3616194538772106170654296875</LatitudeDegrees>
              <LongitudeDegrees>2.63957639224827289581298828125</LongitudeDegrees>
            </Position>
            <AltitudeMeters>835.4000244140625</AltitudeMeters>
            <DistanceMeters>NAN</DistanceMeters>
          </Trackpoint>
          <Trackpoint>
            <Time>2021-04-02T07:30:28.000Z</Time>
            <Position>
              <LatitudeDegrees>42.3616137541830539703369140625</LatitudeDegrees>
              <LongitudeDegrees>2.63953297398984432220458984375</LongitudeDegrees>
            </Position>
            <AltitudeMeters>835.4000244140625</AltitudeMeters>
            <DistanceMeters>NAN</DistanceMeters>
          </Trackpoint>
          <Trackpoint>
            <Time>2021-04-02T07:30:32.000Z</Time>
            <Position>
              <LatitudeDegrees>42.36161266453564167022705078125</LatitudeDegrees>
              <LongitudeDegrees>2.63946373946964740753173828125</LongitudeDegrees>
            </Position>
            <AltitudeMeters>835</AltitudeMeters>
            <DistanceMeters>NAN</DistanceMeters>
          </Trackpoint>
          <Trackpoint>
            <Time>2021-04-02T07:30:37.000Z</Time>
            <Position>
              <LatitudeDegrees>42.3616204597055912017822265625</LatitudeDegrees>
              <LongitudeDegrees>2.63938008807599544525146484375</LongitudeDegrees>
            </Position>
            <AltitudeMeters>834.79998779296875</AltitudeMeters>
            <DistanceMeters>NAN</DistanceMeters>
          </Trackpoint>
          <Trackpoint>
            <Time>2021-04-02T07:30:38.000Z</Time>
            <Position>
              <LatitudeDegrees>42.361623309552669525146484375</LatitudeDegrees>
              <LongitudeDegrees>2.63936516828835010528564453125</LongitudeDegrees>
            </Position>
            <AltitudeMeters>834.5999755859375</AltitudeMeters>
            <DistanceMeters>NAN</DistanceMeters>
          </Trackpoint>
          <Trackpoint>
            <Time>2021-04-02T07:30:45.000Z</Time>
            <Position>
              <LatitudeDegrees>42.36165910027921199798583984375</LatitudeDegrees>
              <LongitudeDegrees>2.6392753981053829193115234375</LongitudeDegrees>
            </Position>
            <AltitudeMeters>834.20001220703125</AltitudeMeters>
            <DistanceMeters>NAN</DistanceMeters>
          </Trackpoint>
          <Trackpoint>
            <Time>2021-04-02T07:30:57.000Z</Time>
            <Position>
              <LatitudeDegrees>42.3617606051266193389892578125</LatitudeDegrees>
              <LongitudeDegrees>2.6391047425568103790283203125</LongitudeDegrees>
            </Position>
            <AltitudeMeters>834</AltitudeMeters>
            <DistanceMeters>NAN</DistanceMeters>
          </Trackpoint>
          <Trackpoint>
            <Time>2021-04-02T07:31:07.000Z</Time>
            <Position>
              <LatitudeDegrees>42.3618259839713573455810546875</LatitudeDegrees>
              <LongitudeDegrees>2.63895797543227672576904296875</LongitudeDegrees>
            </Position>
            <AltitudeMeters>833.5999755859375</AltitudeMeters>
            <DistanceMeters>NAN</DistanceMeters>
          </Trackpoint>
          <Trackpoint>
            <Time>2021-04-02T07:31:09.000Z</Time>
            <Position>
              <LatitudeDegrees>42.3618341982364654541015625</LatitudeDegrees>
              <LongitudeDegrees>2.63893090188503265380859375</LongitudeDegrees>
            </Position>
            <AltitudeMeters>833.5999755859375</AltitudeMeters>
            <DistanceMeters>NAN</DistanceMeters>
          </Trackpoint>
          <Trackpoint>
            <Time>2021-04-02T07:31:14.000Z</Time>
            <Position>
              <LatitudeDegrees>42.36185171641409397125244140625</LatitudeDegrees>
              <LongitudeDegrees>2.638857476413249969482421875</LongitudeDegrees>
            </Position>
            <AltitudeMeters>833.4000244140625</AltitudeMeters>
            <DistanceMeters>NAN</DistanceMeters>
          </Trackpoint>
          <Trackpoint>
            <Time>2021-04-02T07:31:19.000Z</Time>
            <Position>
              <LatitudeDegrees>42.361877448856830596923828125</LatitudeDegrees>
              <LongitudeDegrees>2.6387961208820343017578125</LongitudeDegrees>
            </Position>
            <AltitudeMeters>833</AltitudeMeters>
            <DistanceMeters>NAN</DistanceMeters>
          </Trackpoint>
          <Trackpoint>
            <Time>2021-04-02T07:31:26.000Z</Time>
            <Position>
              <LatitudeDegrees>42.361917011439800262451171875</LatitudeDegrees>
              <LongitudeDegrees>2.6386796124279499053955078125</LongitudeDegrees>
            </Position>
            <AltitudeMeters>832.4000244140625</AltitudeMeters>
            <DistanceMeters>NAN</DistanceMeters>
          </Trackpoint>
          <Trackpoint>
            <Time>2021-04-02T07:31:31.000Z</Time>
            <Position>
              <LatitudeDegrees>42.36192933283746242523193359375</LatitudeDegrees>
              <LongitudeDegrees>2.638609707355499267578125</LongitudeDegrees>
            </Position>
            <AltitudeMeters>832</AltitudeMeters>
            <DistanceMeters>NAN</DistanceMeters>
          </Trackpoint>
          <Trackpoint>
            <Time>2021-04-02T07:31:32.000Z</Time>
            <Position>
              <LatitudeDegrees>42.361929751932621002197265625</LatitudeDegrees>
              <LongitudeDegrees>2.63859822414815425872802734375</LongitudeDegrees>
            </Position>
            <AltitudeMeters>831.79998779296875</AltitudeMeters>
            <DistanceMeters>NAN</DistanceMeters>
          </Trackpoint>
          <Trackpoint>
            <Time>2021-04-02T07:31:34.000Z</Time>
            <Position>
              <LatitudeDegrees>42.36192933283746242523193359375</LatitudeDegrees>
              <LongitudeDegrees>2.63857626356184482574462890625</LongitudeDegrees>
            </Position>
            <AltitudeMeters>831.79998779296875</AltitudeMeters>
            <DistanceMeters>NAN</DistanceMeters>
          </Trackpoint>
          <Trackpoint>
            <Time>2021-04-02T07:31:42.000Z</Time>
            <Position>
              <LatitudeDegrees>42.36186646856367588043212890625</LatitudeDegrees>
              <LongitudeDegrees>2.6384687237441539764404296875</LongitudeDegrees>
            </Position>
            <AltitudeMeters>831.20001220703125</AltitudeMeters>
            <DistanceMeters>NAN</DistanceMeters>
          </Trackpoint>
          <Trackpoint>
            <Time>2021-04-02T07:31:45.000Z</Time>
            <Position>
              <LatitudeDegrees>42.36185154877603054046630859375</LatitudeDegrees>
              <LongitudeDegrees>2.63844919390976428985595703125</LongitudeDegrees>
            </Position>
            <AltitudeMeters>830.79998779296875</AltitudeMeters>
            <DistanceMeters>NAN</DistanceMeters>
          </Trackpoint>
          <Trackpoint>
            <Time>2021-04-02T07:31:52.000Z</Time>
            <Position>
              <LatitudeDegrees>42.36180695705115795135498046875</LatitudeDegrees>
              <LongitudeDegrees>2.638376690447330474853515625</LongitudeDegrees>
            </Position>
            <AltitudeMeters>830.20001220703125</AltitudeMeters>
            <DistanceMeters>NAN</DistanceMeters>
          </Trackpoint>
          <Trackpoint>
            <Time>2021-04-02T07:31:59.000Z</Time>
            <Position>
              <LatitudeDegrees>42.3617756925523281097412109375</LatitudeDegrees>
              <LongitudeDegrees>2.63828205876052379608154296875</LongitudeDegrees>
            </Position>
            <AltitudeMeters>829.79998779296875</AltitudeMeters>
            <DistanceMeters>NAN</DistanceMeters>
          </Trackpoint>
          <Trackpoint>
            <Time>2021-04-02T07:32:00.000Z</Time>
            <Position>
              <LatitudeDegrees>42.3617671430110931396484375</LatitudeDegrees>
              <LongitudeDegrees>2.63826931826770305633544921875</LongitudeDegrees>
            </Position>
            <AltitudeMeters>829.79998779296875</AltitudeMeters>
            <DistanceMeters>NAN</DistanceMeters>
          </Trackpoint>
          <Trackpoint>
            <Time>2021-04-02T07:32:01.000Z</Time>
            <Position>
              <LatitudeDegrees>42.3617642931640148162841796875</LatitudeDegrees>
              <LongitudeDegrees>2.638257332146167755126953125</LongitudeDegrees>
            </Position>
            <AltitudeMeters>829.5999755859375</AltitudeMeters>
            <DistanceMeters>NAN</DistanceMeters>
          </Trackpoint>
          <Trackpoint>
            <Time>2021-04-02T07:32:07.000Z</Time>
            <Position>
              <LatitudeDegrees>42.361752055585384368896484375</LatitudeDegrees>
              <LongitudeDegrees>2.6381592638790607452392578125</LongitudeDegrees>
            </Position>
            <AltitudeMeters>829</AltitudeMeters>
            <DistanceMeters>NAN</DistanceMeters>
          </Trackpoint>
          <Trackpoint>
            <Time>2021-04-02T07:32:12.000Z</Time>
            <Position>
              <LatitudeDegrees>42.361752726137638092041015625</LatitudeDegrees>
              <LongitudeDegrees>2.6380821503698825836181640625</LongitudeDegrees>
            </Position>
            <AltitudeMeters>828.79998779296875</AltitudeMeters>
            <DistanceMeters>NAN</DistanceMeters>
          </Trackpoint>
          <Trackpoint>
            <Time>2021-04-02T07:32:15.000Z</Time>
            <Position>
              <LatitudeDegrees>42.36175750382244586944580078125</LatitudeDegrees>
              <LongitudeDegrees>2.638034708797931671142578125</LongitudeDegrees>
            </Position>
            <AltitudeMeters>828.79998779296875</AltitudeMeters>
            <DistanceMeters>NAN</DistanceMeters>
          </Trackpoint>
          <Trackpoint>
            <Time>2021-04-02T07:32:16.000Z</Time>
            <Position>
              <LatitudeDegrees>42.36175700090825557708740234375</LatitudeDegrees>
              <LongitudeDegrees>2.63802004046738147735595703125</LongitudeDegrees>
            </Position>
            <AltitudeMeters>828.5999755859375</AltitudeMeters>
            <DistanceMeters>NAN</DistanceMeters>
          </Trackpoint>
          <Trackpoint>
            <Time>2021-04-02T07:32:25.000Z</Time>
            <Position>
              <LatitudeDegrees>42.3617676459252834320068359375</LatitudeDegrees>
              <LongitudeDegrees>2.6378793083131313323974609375</LongitudeDegrees>
            </Position>
            <AltitudeMeters>828</AltitudeMeters>
            <DistanceMeters>NAN</DistanceMeters>
          </Trackpoint>
          <Trackpoint>
            <Time>2021-04-02T07:32:27.000Z</Time>
            <Position>
              <LatitudeDegrees>42.36177921295166015625</LatitudeDegrees>
              <LongitudeDegrees>2.63785055838525295257568359375</LongitudeDegrees>
            </Position>
            <AltitudeMeters>828</AltitudeMeters>
            <DistanceMeters>NAN</DistanceMeters>
          </Trackpoint>
          <Trackpoint>
            <Time>2021-04-02T07:32:30.000Z</Time>
            <Position>
              <LatitudeDegrees>42.36180997453629970550537109375</LatitudeDegrees>
              <LongitudeDegrees>2.63782574795186519622802734375</LongitudeDegrees>
            </Position>
            <AltitudeMeters>827.5999755859375</AltitudeMeters>
            <DistanceMeters>NAN</DistanceMeters>
          </Trackpoint>
          <Trackpoint>
            <Time>2021-04-02T07:32:31.000Z</Time>
            <Position>
              <LatitudeDegrees>42.3618216253817081451416015625</LatitudeDegrees>
              <LongitudeDegrees>2.63781770132482051849365234375</LongitudeDegrees>
            </Position>
            <AltitudeMeters>827.5999755859375</AltitudeMeters>
            <DistanceMeters>NAN</DistanceMeters>
          </Trackpoint>
          <Trackpoint>
            <Time>2021-04-02T07:32:35.000Z</Time>
            <Position>
              <LatitudeDegrees>42.36186680383980274200439453125</LatitudeDegrees>
              <LongitudeDegrees>2.6377800665795803070068359375</LongitudeDegrees>
            </Position>
            <AltitudeMeters>827.4000244140625</AltitudeMeters>
            <DistanceMeters>NAN</DistanceMeters>
          </Trackpoint>
          <Trackpoint>
            <Time>2021-04-02T07:32:39.000Z</Time>
            <Position>
              <LatitudeDegrees>42.361906953155994415283203125</LatitudeDegrees>
              <LongitudeDegrees>2.63774997554719448089599609375</LongitudeDegrees>
            </Position>
            <AltitudeMeters>827.4000244140625</AltitudeMeters>
            <DistanceMeters>NAN</DistanceMeters>
          </Trackpoint>
          <Trackpoint>
            <Time>2021-04-02T07:32:43.000Z</Time>
            <Position>
              <LatitudeDegrees>42.3619602620601654052734375</LatitudeDegrees>
              <LongitudeDegrees>2.63773237355053424835205078125</LongitudeDegrees>
            </Position>
            <AltitudeMeters>827</AltitudeMeters>
            <DistanceMeters>NAN</DistanceMeters>
          </Trackpoint>
          <Trackpoint>
            <Time>2021-04-02T07:32:46.000Z</Time>
            <Position>
              <LatitudeDegrees>42.36199270002543926239013671875</LatitudeDegrees>
              <LongitudeDegrees>2.6377193816006183624267578125</LongitudeDegrees>
            </Position>
            <AltitudeMeters>826.79998779296875</AltitudeMeters>
            <DistanceMeters>NAN</DistanceMeters>
          </Trackpoint>
          <Trackpoint>
            <Time>2021-04-02T07:32:49.000Z</Time>
            <Position>
              <LatitudeDegrees>42.36205975525081157684326171875</LatitudeDegrees>
              <LongitudeDegrees>2.63772013597190380096435546875</LongitudeDegrees>
            </Position>
            <AltitudeMeters>826.5999755859375</AltitudeMeters>
            <DistanceMeters>NAN</DistanceMeters>
          </Trackpoint>
          <Trackpoint>
            <Time>2021-04-02T07:32:55.000Z</Time>
            <Position>
              <LatitudeDegrees>42.362130247056484222412109375</LatitudeDegrees>
              <LongitudeDegrees>2.63770018704235553741455078125</LongitudeDegrees>
            </Position>
            <AltitudeMeters>826.20001220703125</AltitudeMeters>
            <DistanceMeters>NAN</DistanceMeters>
          </Trackpoint>
          <Trackpoint>
            <Time>2021-04-02T07:32:58.000Z</Time>
            <Position>
              <LatitudeDegrees>42.36215430311858654022216796875</LatitudeDegrees>
              <LongitudeDegrees>2.63769281096756458282470703125</LongitudeDegrees>
            </Position>
            <AltitudeMeters>826</AltitudeMeters>
            <DistanceMeters>NAN</DistanceMeters>
          </Trackpoint>
          <Trackpoint>
            <Time>2021-04-02T07:33:03.000Z</Time>
            <Position>
              <LatitudeDegrees>42.36220107413828372955322265625</LatitudeDegrees>
              <LongitudeDegrees>2.6376778073608875274658203125</LongitudeDegrees>
            </Position>
            <AltitudeMeters>825.5999755859375</AltitudeMeters>
            <DistanceMeters>NAN</DistanceMeters>
          </Trackpoint>
          <Trackpoint>
            <Time>2021-04-02T07:33:05.000Z</Time>
            <Position>
              <LatitudeDegrees>42.36222186125814914703369140625</LatitudeDegrees>
              <LongitudeDegrees>2.6376734487712383270263671875</LongitudeDegrees>
            </Position>
            <AltitudeMeters>825.5999755859375</AltitudeMeters>
            <DistanceMeters>NAN</DistanceMeters>
          </Trackpoint>
          <Trackpoint>
            <Time>2021-04-02T07:33:11.000Z</Time>
            <Position>
              <LatitudeDegrees>42.3622900061309337615966796875</LatitudeDegrees>
              <LongitudeDegrees>2.63767571188509464263916015625</LongitudeDegrees>
            </Position>
            <AltitudeMeters>825.20001220703125</AltitudeMeters>
            <DistanceMeters>NAN</DistanceMeters>
          </Trackpoint>
          <Trackpoint>
            <Time>2021-04-02T07:33:18.000Z</Time>
            <Position>
              <LatitudeDegrees>42.36237323842942714691162109375</LatitudeDegrees>
              <LongitudeDegrees>2.63767822645604610443115234375</LongitudeDegrees>
            </Position>
            <AltitudeMeters>824.4000244140625</AltitudeMeters>
            <DistanceMeters>NAN</DistanceMeters>
          </Trackpoint>
          <Trackpoint>
            <Time>2021-04-02T07:33:22.000Z</Time>
            <Position>
              <LatitudeDegrees>42.36241766251623630523681640625</LatitudeDegrees>
              <LongitudeDegrees>2.6376768015325069427490234375</LongitudeDegrees>
            </Position>
            <AltitudeMeters>824.20001220703125</AltitudeMeters>
            <DistanceMeters>NAN</DistanceMeters>
          </Trackpoint>
          <Trackpoint>
            <Time>2021-04-02T07:33:32.000Z</Time>
            <Position>
              <LatitudeDegrees>42.36250282265245914459228515625</LatitudeDegrees>
              <LongitudeDegrees>2.6376161165535449981689453125</LongitudeDegrees>
            </Position>
            <AltitudeMeters>823.20001220703125</AltitudeMeters>
            <DistanceMeters>NAN</DistanceMeters>
          </Trackpoint>
          <Trackpoint>
            <Time>2021-04-02T07:33:34.000Z</Time>
            <Position>
              <LatitudeDegrees>42.362517826259136199951171875</LatitudeDegrees>
              <LongitudeDegrees>2.63759256340563297271728515625</LongitudeDegrees>
            </Position>
            <AltitudeMeters>823</AltitudeMeters>
            <DistanceMeters>NAN</DistanceMeters>
          </Trackpoint>
          <Trackpoint>
            <Time>2021-04-02T07:33:35.000Z</Time>
            <Position>
              <LatitudeDegrees>42.36252344213426113128662109375</LatitudeDegrees>
              <LongitudeDegrees>2.6375735364854335784912109375</LongitudeDegrees>
            </Position>
            <AltitudeMeters>822.79998779296875</AltitudeMeters>
            <DistanceMeters>NAN</DistanceMeters>
          </Trackpoint>
          <Trackpoint>
            <Time>2021-04-02T07:33:40.000Z</Time>
            <Position>
              <LatitudeDegrees>42.36252562142908573150634765625</LatitudeDegrees>
              <LongitudeDegrees>2.63749717734754085540771484375</LongitudeDegrees>
            </Position>
            <AltitudeMeters>822.79998779296875</AltitudeMeters>
            <DistanceMeters>NAN</DistanceMeters>
          </Trackpoint>
          <Trackpoint>
            <Time>2021-04-02T07:33:46.000Z</Time>
            <Position>
              <LatitudeDegrees>42.36255747266113758087158203125</LatitudeDegrees>
              <LongitudeDegrees>2.637408412992954254150390625</LongitudeDegrees>
            </Position>
            <AltitudeMeters>822.20001220703125</AltitudeMeters>
            <DistanceMeters>NAN</DistanceMeters>
          </Trackpoint>
          <Trackpoint>
            <Time>2021-04-02T07:33:52.000Z</Time>
            <Position>
              <LatitudeDegrees>42.3625806905329227447509765625</LatitudeDegrees>
              <LongitudeDegrees>2.63732157647609710693359375</LongitudeDegrees>
            </Position>
            <AltitudeMeters>821.5999755859375</AltitudeMeters>
            <DistanceMeters>NAN</DistanceMeters>
          </Trackpoint>
          <Trackpoint>
            <Time>2021-04-02T07:33:59.000Z</Time>
            <Position>
              <LatitudeDegrees>42.3625810258090496063232421875</LatitudeDegrees>
              <LongitudeDegrees>2.63720666058361530303955078125</LongitudeDegrees>
            </Position>
            <AltitudeMeters>821.20001220703125</AltitudeMeters>
            <DistanceMeters>NAN</DistanceMeters>
          </Trackpoint>
          <Trackpoint>
            <Time>2021-04-02T07:34:04.000Z</Time>
            <Position>
              <LatitudeDegrees>42.3625798523426055908203125</LatitudeDegrees>
              <LongitudeDegrees>2.6371313072741031646728515625</LongitudeDegrees>
            </Position>
            <AltitudeMeters>820.79998779296875</AltitudeMeters>
            <DistanceMeters>NAN</DistanceMeters>
          </Trackpoint>
          <Trackpoint>
            <Time>2021-04-02T07:34:06.000Z</Time>
            <Position>
              <LatitudeDegrees>42.3625753261148929595947265625</LatitudeDegrees>
              <LongitudeDegrees>2.63710021041333675384521484375</LongitudeDegrees>
            </Position>
            <AltitudeMeters>820.5999755859375</AltitudeMeters>
            <DistanceMeters>NAN</DistanceMeters>
          </Trackpoint>
          <Trackpoint>
            <Time>2021-04-02T07:34:09.000Z</Time>
            <Position>
              <LatitudeDegrees>42.36256820149719715118408203125</LatitudeDegrees>
              <LongitudeDegrees>2.63704807497560977935791015625</LongitudeDegrees>
            </Position>
            <AltitudeMeters>820.4000244140625</AltitudeMeters>
            <DistanceMeters>NAN</DistanceMeters>
          </Trackpoint>
          <Trackpoint>
            <Time>2021-04-02T07:34:14.000Z</Time>
            <Position>
              <LatitudeDegrees>42.36255512572824954986572265625</LatitudeDegrees>
              <LongitudeDegrees>2.63697213493287563323974609375</LongitudeDegrees>
            </Position>
            <AltitudeMeters>820</AltitudeMeters>
            <DistanceMeters>NAN</DistanceMeters>
          </Trackpoint>
          <Trackpoint>
            <Time>2021-04-02T07:34:15.000Z</Time>
            <Position>
              <LatitudeDegrees>42.36255127005279064178466796875</LatitudeDegrees>
              <LongitudeDegrees>2.6369589753448963165283203125</LongitudeDegrees>
            </Position>
            <AltitudeMeters>820</AltitudeMeters>
            <DistanceMeters>NAN</DistanceMeters>
          </Trackpoint>
          <Trackpoint>
            <Time>2021-04-02T07:34:18.000Z</Time>
            <Position>
              <LatitudeDegrees>42.362554706633090972900390625</LatitudeDegrees>
              <LongitudeDegrees>2.6369212567806243896484375</LongitudeDegrees>
            </Position>
            <AltitudeMeters>820</AltitudeMeters>
            <DistanceMeters>NAN</DistanceMeters>
          </Trackpoint>
          <Trackpoint>
            <Time>2021-04-02T07:34:21.000Z</Time>
            <Position>
              <LatitudeDegrees>42.36255931667983531951904296875</LatitudeDegrees>
              <LongitudeDegrees>2.63687188737094402313232421875</LongitudeDegrees>
            </Position>
            <AltitudeMeters>820</AltitudeMeters>
            <DistanceMeters>NAN</DistanceMeters>
          </Trackpoint>
          <Trackpoint>
            <Time>2021-04-02T07:34:31.000Z</Time>
            <Position>
              <LatitudeDegrees>42.362558729946613311767578125</LatitudeDegrees>
              <LongitudeDegrees>2.636705003678798675537109375</LongitudeDegrees>
            </Position>
            <AltitudeMeters>819.79998779296875</AltitudeMeters>
            <DistanceMeters>NAN</DistanceMeters>
          </Trackpoint>
          <Trackpoint>
            <Time>2021-04-02T07:34:40.000Z</Time>
            <Position>
              <LatitudeDegrees>42.36257708631455898284912109375</LatitudeDegrees>
              <LongitudeDegrees>2.6365750841796398162841796875</LongitudeDegrees>
            </Position>
            <AltitudeMeters>820.5999755859375</AltitudeMeters>
            <DistanceMeters>NAN</DistanceMeters>
          </Trackpoint>
          <Trackpoint>
            <Time>2021-04-02T07:34:42.000Z</Time>
            <Position>
              <LatitudeDegrees>42.3625798523426055908203125</LatitudeDegrees>
              <LongitudeDegrees>2.63655002228915691375732421875</LongitudeDegrees>
            </Position>
            <AltitudeMeters>820.79998779296875</AltitudeMeters>
            <DistanceMeters>NAN</DistanceMeters>
          </Trackpoint>
          <Trackpoint>
            <Time>2021-04-02T07:34:45.000Z</Time>
            <Position>
              <LatitudeDegrees>42.36261866055428981781005859375</LatitudeDegrees>
              <LongitudeDegrees>2.63653309084475040435791015625</LongitudeDegrees>
            </Position>
            <AltitudeMeters>821.20001220703125</AltitudeMeters>
            <DistanceMeters>NAN</DistanceMeters>
          </Trackpoint>
          <Trackpoint>
            <Time>2021-04-02T07:34:48.000Z</Time>
            <Position>
              <LatitudeDegrees>42.36261966638267040252685546875</LatitudeDegrees>
              <LongitudeDegrees>2.63649973087012767791748046875</LongitudeDegrees>
            </Position>
            <AltitudeMeters>821.5999755859375</AltitudeMeters>
            <DistanceMeters>NAN</DistanceMeters>
          </Trackpoint>
          <Trackpoint>
            <Time>2021-04-02T07:34:51.000Z</Time>
            <Position>
              <LatitudeDegrees>42.36263257451355457305908203125</LatitudeDegrees>
              <LongitudeDegrees>2.6364620961248874664306640625</LongitudeDegrees>
            </Position>
            <AltitudeMeters>822.20001220703125</AltitudeMeters>
            <DistanceMeters>NAN</DistanceMeters>
          </Trackpoint>
          <Trackpoint>
            <Time>2021-04-02T07:34:54.000Z</Time>
            <Position>
              <LatitudeDegrees>42.3626410402357578277587890625</LatitudeDegrees>
              <LongitudeDegrees>2.63642144389450550079345703125</LongitudeDegrees>
            </Position>
            <AltitudeMeters>822.5999755859375</AltitudeMeters>
            <DistanceMeters>NAN</DistanceMeters>
          </Trackpoint>
          <Trackpoint>
            <Time>2021-04-02T07:34:58.000Z</Time>
            <Position>
              <LatitudeDegrees>42.36265134997665882110595703125</LatitudeDegrees>
              <LongitudeDegrees>2.6363740861415863037109375</LongitudeDegrees>
            </Position>
            <AltitudeMeters>823.20001220703125</AltitudeMeters>
            <DistanceMeters>NAN</DistanceMeters>
          </Trackpoint>
          <Trackpoint>
            <Time>2021-04-02T07:34:59.000Z</Time>
            <Position>
              <LatitudeDegrees>42.3626547865569591522216796875</LatitudeDegrees>
              <LongitudeDegrees>2.636362016201019287109375</LongitudeDegrees>
            </Position>
            <AltitudeMeters>823.4000244140625</AltitudeMeters>
            <DistanceMeters>NAN</DistanceMeters>
          </Trackpoint>
          <Trackpoint>
            <Time>2021-04-02T07:35:05.000Z</Time>
            <Position>
              <LatitudeDegrees>42.362668700516223907470703125</LatitudeDegrees>
              <LongitudeDegrees>2.6362828910350799560546875</LongitudeDegrees>
            </Position>
            <AltitudeMeters>824.4000244140625</AltitudeMeters>
            <DistanceMeters>NAN</DistanceMeters>
          </Trackpoint>
          <Trackpoint>
            <Time>2021-04-02T07:35:08.000Z</Time>
            <Position>
              <LatitudeDegrees>42.36267381347715854644775390625</LatitudeDegrees>
              <LongitudeDegrees>2.63624458573758602142333984375</LongitudeDegrees>
            </Position>
            <AltitudeMeters>824.5999755859375</AltitudeMeters>
            <DistanceMeters>NAN</DistanceMeters>
          </Trackpoint>
          <Trackpoint>
            <Time>2021-04-02T07:35:09.000Z</Time>
            <Position>
              <LatitudeDegrees>42.36267716623842716217041015625</LatitudeDegrees>
              <LongitudeDegrees>2.63623318634927272796630859375</LongitudeDegrees>
            </Position>
            <AltitudeMeters>824.5999755859375</AltitudeMeters>
            <DistanceMeters>NAN</DistanceMeters>
          </Trackpoint>
          <Trackpoint>
            <Time>2021-04-02T07:35:13.000Z</Time>
            <Position>
              <LatitudeDegrees>42.3626893199980258941650390625</LatitudeDegrees>
              <LongitudeDegrees>2.63620200566947460174560546875</LongitudeDegrees>
            </Position>
            <AltitudeMeters>825.20001220703125</AltitudeMeters>
            <DistanceMeters>NAN</DistanceMeters>
          </Trackpoint>
          <Trackpoint>
            <Time>2021-04-02T07:35:14.000Z</Time>
            <Position>
              <LatitudeDegrees>42.36269275657832622528076171875</LatitudeDegrees>
              <LongitudeDegrees>2.63619177974760532379150390625</LongitudeDegrees>
            </Position>
            <AltitudeMeters>825.5999755859375</AltitudeMeters>
            <DistanceMeters>NAN</DistanceMeters>
          </Trackpoint>
          <Trackpoint>
            <Time>2021-04-02T07:35:15.000Z</Time>
            <Position>
              <LatitudeDegrees>42.3626930080354213714599609375</LatitudeDegrees>
              <LongitudeDegrees>2.636179290711879730224609375</LongitudeDegrees>
            </Position>
            <AltitudeMeters>825.79998779296875</AltitudeMeters>
            <DistanceMeters>NAN</DistanceMeters>
          </Trackpoint>
          <Trackpoint>
            <Time>2021-04-02T07:35:20.000Z</Time>
            <Position>
              <LatitudeDegrees>42.36270398832857608795166015625</LatitudeDegrees>
              <LongitudeDegrees>2.63611500151455402374267578125</LongitudeDegrees>
            </Position>
            <AltitudeMeters>826.5999755859375</AltitudeMeters>
            <DistanceMeters>NAN</DistanceMeters>
          </Trackpoint>
          <Trackpoint>
            <Time>2021-04-02T07:35:22.000Z</Time>
            <Position>
              <LatitudeDegrees>42.36271253786981105804443359375</LatitudeDegrees>
              <LongitudeDegrees>2.636093460023403167724609375</LongitudeDegrees>
            </Position>
            <AltitudeMeters>826.79998779296875</AltitudeMeters>
            <DistanceMeters>NAN</DistanceMeters>
          </Trackpoint>
          <Trackpoint>
            <Time>2021-04-02T07:35:27.000Z</Time>
            <Position>
              <LatitudeDegrees>42.3627194948494434356689453125</LatitudeDegrees>
              <LongitudeDegrees>2.63603788800537586212158203125</LongitudeDegrees>
            </Position>
            <AltitudeMeters>827.5999755859375</AltitudeMeters>
            <DistanceMeters>NAN</DistanceMeters>
          </Trackpoint>
          <Trackpoint>
            <Time>2021-04-02T07:35:28.000Z</Time>
            <Position>
              <LatitudeDegrees>42.362722344696521759033203125</LatitudeDegrees>
              <LongitudeDegrees>2.63602715916931629180908203125</LongitudeDegrees>
            </Position>
            <AltitudeMeters>827.79998779296875</AltitudeMeters>
            <DistanceMeters>NAN</DistanceMeters>
          </Trackpoint>
          <Trackpoint>
            <Time>2021-04-02T07:35:29.000Z</Time>
            <Position>
              <LatitudeDegrees>42.3627265356481075286865234375</LatitudeDegrees>
              <LongitudeDegrees>2.636018358170986175537109375</LongitudeDegrees>
            </Position>
            <AltitudeMeters>828</AltitudeMeters>
            <DistanceMeters>NAN</DistanceMeters>
          </Trackpoint>
          <Trackpoint>
            <Time>2021-04-02T07:35:35.000Z</Time>
            <Position>
              <LatitudeDegrees>42.3627262003719806671142578125</LatitudeDegrees>
              <LongitudeDegrees>2.6359601877629756927490234375</LongitudeDegrees>
            </Position>
            <AltitudeMeters>828.79998779296875</AltitudeMeters>
            <DistanceMeters>NAN</DistanceMeters>
          </Trackpoint>
          <Trackpoint>
            <Time>2021-04-02T07:35:43.000Z</Time>
            <Position>
              <LatitudeDegrees>42.3627074249088764190673828125</LatitudeDegrees>
              <LongitudeDegrees>2.63587628491222858428955078125</LongitudeDegrees>
            </Position>
            <AltitudeMeters>829.79998779296875</AltitudeMeters>
            <DistanceMeters>NAN</DistanceMeters>
          </Trackpoint>
          <Trackpoint>
            <Time>2021-04-02T07:35:45.000Z</Time>
            <Position>
              <LatitudeDegrees>42.3626970313489437103271484375</LatitudeDegrees>
              <LongitudeDegrees>2.63585465960204601287841796875</LongitudeDegrees>
            </Position>
            <AltitudeMeters>830.20001220703125</AltitudeMeters>
            <DistanceMeters>NAN</DistanceMeters>
          </Trackpoint>
          <Trackpoint>
            <Time>2021-04-02T07:35:53.000Z</Time>
            <Position>
              <LatitudeDegrees>42.362677752971649169921875</LatitudeDegrees>
              <LongitudeDegrees>2.6357606984674930572509765625</LongitudeDegrees>
            </Position>
            <AltitudeMeters>831</AltitudeMeters>
            <DistanceMeters>NAN</DistanceMeters>
          </Trackpoint>
          <Trackpoint>
            <Time>2021-04-02T07:35:54.000Z</Time>
            <Position>
              <LatitudeDegrees>42.36267414875328540802001953125</LatitudeDegrees>
              <LongitudeDegrees>2.635750472545623779296875</LongitudeDegrees>
            </Position>
            <AltitudeMeters>831</AltitudeMeters>
            <DistanceMeters>NAN</DistanceMeters>
          </Trackpoint>
          <Trackpoint>
            <Time>2021-04-02T07:36:03.000Z</Time>
            <Position>
              <LatitudeDegrees>42.362652607262134552001953125</LatitudeDegrees>
              <LongitudeDegrees>2.635639496147632598876953125</LongitudeDegrees>
            </Position>
            <AltitudeMeters>831.20001220703125</AltitudeMeters>
            <DistanceMeters>NAN</DistanceMeters>
          </Trackpoint>
          <Trackpoint>
            <Time>2021-04-02T07:36:05.000Z</Time>
            <Position>
              <LatitudeDegrees>42.36265336163341999053955078125</LatitudeDegrees>
              <LongitudeDegrees>2.63563052751123905181884765625</LongitudeDegrees>
            </Position>
            <AltitudeMeters>831.20001220703125</AltitudeMeters>
            <DistanceMeters>NAN</DistanceMeters>
          </Trackpoint>
          <Trackpoint>
            <Time>2021-04-02T07:36:08.000Z</Time>
            <Position>
              <LatitudeDegrees>42.3626343347132205963134765625</LatitudeDegrees>
              <LongitudeDegrees>2.6355977542698383331298828125</LongitudeDegrees>
            </Position>
            <AltitudeMeters>831</AltitudeMeters>
            <DistanceMeters>NAN</DistanceMeters>
          </Trackpoint>
          <Trackpoint>
            <Time>2021-04-02T07:36:11.000Z</Time>
            <Position>
              <LatitudeDegrees>42.36262067221105098724365234375</LatitudeDegrees>
              <LongitudeDegrees>2.635544948279857635498046875</LongitudeDegrees>
            </Position>
            <AltitudeMeters>830.79998779296875</AltitudeMeters>
            <DistanceMeters>NAN</DistanceMeters>
          </Trackpoint>
          <Trackpoint>
            <Time>2021-04-02T07:36:18.000Z</Time>
            <Position>
              <LatitudeDegrees>42.3625726439058780670166015625</LatitudeDegrees>
              <LongitudeDegrees>2.63544629327952861785888671875</LongitudeDegrees>
            </Position>
            <AltitudeMeters>830.4000244140625</AltitudeMeters>
            <DistanceMeters>NAN</DistanceMeters>
          </Trackpoint>
          <Trackpoint>
            <Time>2021-04-02T07:36:20.000Z</Time>
            <Position>
              <LatitudeDegrees>42.36255663447082042694091796875</LatitudeDegrees>
              <LongitudeDegrees>2.635421566665172576904296875</LongitudeDegrees>
            </Position>
            <AltitudeMeters>830.20001220703125</AltitudeMeters>
            <DistanceMeters>NAN</DistanceMeters>
          </Trackpoint>
          <Trackpoint>
            <Time>2021-04-02T07:36:21.000Z</Time>
            <Position>
              <LatitudeDegrees>42.36254565417766571044921875</LatitudeDegrees>
              <LongitudeDegrees>2.63541125692427158355712890625</LongitudeDegrees>
            </Position>
            <AltitudeMeters>830.20001220703125</AltitudeMeters>
            <DistanceMeters>NAN</DistanceMeters>
          </Trackpoint>
          <Trackpoint>
            <Time>2021-04-02T07:36:24.000Z</Time>
            <Position>
              <LatitudeDegrees>42.36251472495496273040771484375</LatitudeDegrees>
              <LongitudeDegrees>2.63538359664380550384521484375</LongitudeDegrees>
            </Position>
            <AltitudeMeters>830</AltitudeMeters>
            <DistanceMeters>NAN</DistanceMeters>
          </Trackpoint>
          <Trackpoint>
            <Time>2021-04-02T07:36:31.000Z</Time>
            <Position>
              <LatitudeDegrees>42.3624559678137302398681640625</LatitudeDegrees>
              <LongitudeDegrees>2.635330371558666229248046875</LongitudeDegrees>
            </Position>
            <AltitudeMeters>829.79998779296875</AltitudeMeters>
            <DistanceMeters>NAN</DistanceMeters>
          </Trackpoint>
          <Trackpoint>
            <Time>2021-04-02T07:36:32.000Z</Time>
            <Position>
              <LatitudeDegrees>42.3624465800821781158447265625</LatitudeDegrees>
              <LongitudeDegrees>2.6353251747786998748779296875</LongitudeDegrees>
            </Position>
            <AltitudeMeters>829.79998779296875</AltitudeMeters>
            <DistanceMeters>NAN</DistanceMeters>
          </Trackpoint>
          <Trackpoint>
            <Time>2021-04-02T07:36:34.000Z</Time>
            <Position>
              <LatitudeDegrees>42.3624308221042156219482421875</LatitudeDegrees>
              <LongitudeDegrees>2.635314948856830596923828125</LongitudeDegrees>
            </Position>
            <AltitudeMeters>829.79998779296875</AltitudeMeters>
            <DistanceMeters>NAN</DistanceMeters>
          </Trackpoint>
          <Trackpoint>
            <Time>2021-04-02T07:36:37.000Z</Time>
            <Position>
              <LatitudeDegrees>42.3624013178050518035888671875</LatitudeDegrees>
              <LongitudeDegrees>2.6352993585169315338134765625</LongitudeDegrees>
            </Position>
            <AltitudeMeters>829.5999755859375</AltitudeMeters>
            <DistanceMeters>NAN</DistanceMeters>
          </Trackpoint>
          <Trackpoint>
            <Time>2021-04-02T07:36:40.000Z</Time>
            <Position>
              <LatitudeDegrees>42.36237508244812488555908203125</LatitudeDegrees>
              <LongitudeDegrees>2.63526658527553081512451171875</LongitudeDegrees>
            </Position>
            <AltitudeMeters>829.4000244140625</AltitudeMeters>
            <DistanceMeters>NAN</DistanceMeters>
          </Trackpoint>
          <Trackpoint>
            <Time>2021-04-02T07:36:50.000Z</Time>
            <Position>
              <LatitudeDegrees>42.3622648604214191436767578125</LatitudeDegrees>
              <LongitudeDegrees>2.63524110428988933563232421875</LongitudeDegrees>
            </Position>
            <AltitudeMeters>829.4000244140625</AltitudeMeters>
            <DistanceMeters>NAN</DistanceMeters>
          </Trackpoint>
          <Trackpoint>
            <Time>2021-04-02T07:36:53.000Z</Time>
            <Position>
              <LatitudeDegrees>42.362234853208065032958984375</LatitudeDegrees>
              <LongitudeDegrees>2.6352467201650142669677734375</LongitudeDegrees>
            </Position>
            <AltitudeMeters>829.20001220703125</AltitudeMeters>
            <DistanceMeters>NAN</DistanceMeters>
          </Trackpoint>
          <Trackpoint>
            <Time>2021-04-02T07:37:00.000Z</Time>
            <Position>
              <LatitudeDegrees>42.36214843578636646270751953125</LatitudeDegrees>
              <LongitudeDegrees>2.635262310504913330078125</LongitudeDegrees>
            </Position>
            <AltitudeMeters>829</AltitudeMeters>
            <DistanceMeters>NAN</DistanceMeters>
          </Trackpoint>
          <Trackpoint>
            <Time>2021-04-02T07:37:01.000Z</Time>
            <Position>
              <LatitudeDegrees>42.362137623131275177001953125</LatitudeDegrees>
              <LongitudeDegrees>2.63526826165616512298583984375</LongitudeDegrees>
            </Position>
            <AltitudeMeters>829</AltitudeMeters>
            <DistanceMeters>NAN</DistanceMeters>
          </Trackpoint>
          <Trackpoint>
            <Time>2021-04-02T07:37:05.000Z</Time>
            <Position>
              <LatitudeDegrees>42.36209579743444919586181640625</LatitudeDegrees>
              <LongitudeDegrees>2.6353010348975658416748046875</LongitudeDegrees>
            </Position>
            <AltitudeMeters>828.79998779296875</AltitudeMeters>
            <DistanceMeters>NAN</DistanceMeters>
          </Trackpoint>
          <Trackpoint>
            <Time>2021-04-02T07:37:06.000Z</Time>
            <Position>
              <LatitudeDegrees>42.3620834760367870330810546875</LatitudeDegrees>
              <LongitudeDegrees>2.63530857861042022705078125</LongitudeDegrees>
            </Position>
            <AltitudeMeters>828.5999755859375</AltitudeMeters>
            <DistanceMeters>NAN</DistanceMeters>
          </Trackpoint>
          <Trackpoint>
            <Time>2021-04-02T07:37:11.000Z</Time>
            <Position>
              <LatitudeDegrees>42.36202673055231571197509765625</LatitudeDegrees>
              <LongitudeDegrees>2.63535208068788051605224609375</LongitudeDegrees>
            </Position>
            <AltitudeMeters>828.20001220703125</AltitudeMeters>
            <DistanceMeters>NAN</DistanceMeters>
          </Trackpoint>
          <Trackpoint>
            <Time>2021-04-02T07:37:14.000Z</Time>
            <Position>
              <LatitudeDegrees>42.36199923790991306304931640625</LatitudeDegrees>
              <LongitudeDegrees>2.6353744603693485260009765625</LongitudeDegrees>
            </Position>
            <AltitudeMeters>828</AltitudeMeters>
            <DistanceMeters>NAN</DistanceMeters>
          </Trackpoint>
          <Trackpoint>
            <Time>2021-04-02T07:37:17.000Z</Time>
            <Position>
              <LatitudeDegrees>42.36196361482143402099609375</LatitudeDegrees>
              <LongitudeDegrees>2.63539063744246959686279296875</LongitudeDegrees>
            </Position>
            <AltitudeMeters>827.79998779296875</AltitudeMeters>
            <DistanceMeters>NAN</DistanceMeters>
          </Trackpoint>
          <Trackpoint>
            <Time>2021-04-02T07:37:18.000Z</Time>
            <Position>
              <LatitudeDegrees>42.36195464618504047393798828125</LatitudeDegrees>
              <LongitudeDegrees>2.63539901934564113616943359375</LongitudeDegrees>
            </Position>
            <AltitudeMeters>827.79998779296875</AltitudeMeters>
            <DistanceMeters>NAN</DistanceMeters>
          </Trackpoint>
          <Trackpoint>
            <Time>2021-04-02T07:37:31.000Z</Time>
            <Position>
              <LatitudeDegrees>42.3618256486952304840087890625</LatitudeDegrees>
              <LongitudeDegrees>2.6354740373790264129638671875</LongitudeDegrees>
            </Position>
            <AltitudeMeters>827</AltitudeMeters>
            <DistanceMeters>NAN</DistanceMeters>
          </Trackpoint>
          <Trackpoint>
            <Time>2021-04-02T07:37:37.000Z</Time>
            <Position>
              <LatitudeDegrees>42.36175716854631900787353515625</LatitudeDegrees>
              <LongitudeDegrees>2.635483257472515106201171875</LongitudeDegrees>
            </Position>
            <AltitudeMeters>826.79998779296875</AltitudeMeters>
            <DistanceMeters>NAN</DistanceMeters>
          </Trackpoint>
          <Trackpoint>
            <Time>2021-04-02T07:37:39.000Z</Time>
            <Position>
              <LatitudeDegrees>42.36173621378839015960693359375</LatitudeDegrees>
              <LongitudeDegrees>2.63548485003411769866943359375</LongitudeDegrees>
            </Position>
            <AltitudeMeters>826.79998779296875</AltitudeMeters>
            <DistanceMeters>NAN</DistanceMeters>
          </Trackpoint>
          <Trackpoint>
            <Time>2021-04-02T07:37:43.000Z</Time>
            <Position>
              <LatitudeDegrees>42.36168189905583858489990234375</LatitudeDegrees>
              <LongitudeDegrees>2.63549691997468471527099609375</LongitudeDegrees>
            </Position>
            <AltitudeMeters>826.4000244140625</AltitudeMeters>
            <DistanceMeters>NAN</DistanceMeters>
          </Trackpoint>
          <Trackpoint>
            <Time>2021-04-02T07:37:46.000Z</Time>
            <Position>
              <LatitudeDegrees>42.36164418049156665802001953125</LatitudeDegrees>
              <LongitudeDegrees>2.63549943454563617706298828125</LongitudeDegrees>
            </Position>
            <AltitudeMeters>826.20001220703125</AltitudeMeters>
            <DistanceMeters>NAN</DistanceMeters>
          </Trackpoint>
          <Trackpoint>
            <Time>2021-04-02T07:37:47.000Z</Time>
            <Position>
              <LatitudeDegrees>42.36163378693163394927978515625</LatitudeDegrees>
              <LongitudeDegrees>2.63550630770623683929443359375</LongitudeDegrees>
            </Position>
            <AltitudeMeters>826.20001220703125</AltitudeMeters>
            <DistanceMeters>NAN</DistanceMeters>
          </Trackpoint>
          <Trackpoint>
            <Time>2021-04-02T07:37:49.000Z</Time>
            <Position>
              <LatitudeDegrees>42.36161291599273681640625</LatitudeDegrees>
              <LongitudeDegrees>2.635519467294216156005859375</LongitudeDegrees>
            </Position>
            <AltitudeMeters>826</AltitudeMeters>
            <DistanceMeters>NAN</DistanceMeters>
          </Trackpoint>
          <Trackpoint>
            <Time>2021-04-02T07:37:51.000Z</Time>
            <Position>
              <LatitudeDegrees>42.36158768646419048309326171875</LatitudeDegrees>
              <LongitudeDegrees>2.6355223171412944793701171875</LongitudeDegrees>
            </Position>
            <AltitudeMeters>825.79998779296875</AltitudeMeters>
            <DistanceMeters>NAN</DistanceMeters>
          </Trackpoint>
          <Trackpoint>
            <Time>2021-04-02T07:37:52.000Z</Time>
            <Position>
              <LatitudeDegrees>42.36157863400876522064208984375</LatitudeDegrees>
              <LongitudeDegrees>2.63552491553127765655517578125</LongitudeDegrees>
            </Position>
            <AltitudeMeters>825.79998779296875</AltitudeMeters>
            <DistanceMeters>NAN</DistanceMeters>
          </Trackpoint>
          <Trackpoint>
            <Time>2021-04-02T07:37:54.000Z</Time>
            <Position>
              <LatitudeDegrees>42.36155952326953411102294921875</LatitudeDegrees>
              <LongitudeDegrees>2.6355353929102420806884765625</LongitudeDegrees>
            </Position>
            <AltitudeMeters>825.5999755859375</AltitudeMeters>
            <DistanceMeters>NAN</DistanceMeters>
          </Trackpoint>
          <Trackpoint>
            <Time>2021-04-02T07:38:00.000Z</Time>
            <Position>
              <LatitudeDegrees>42.36147436313331127166748046875</LatitudeDegrees>
              <LongitudeDegrees>2.6356027834117412567138671875</LongitudeDegrees>
            </Position>
            <AltitudeMeters>825.4000244140625</AltitudeMeters>
            <DistanceMeters>NAN</DistanceMeters>
          </Trackpoint>
          <Trackpoint>
            <Time>2021-04-02T07:38:07.000Z</Time>
            <Position>
              <LatitudeDegrees>42.3614130914211273193359375</LatitudeDegrees>
              <LongitudeDegrees>2.63566707260906696319580078125</LongitudeDegrees>
            </Position>
            <AltitudeMeters>825</AltitudeMeters>
            <DistanceMeters>NAN</DistanceMeters>
          </Trackpoint>
          <Trackpoint>
            <Time>2021-04-02T07:38:09.000Z</Time>
            <Position>
              <LatitudeDegrees>42.36139691434800624847412109375</LatitudeDegrees>
              <LongitudeDegrees>2.63568668626248836517333984375</LongitudeDegrees>
            </Position>
            <AltitudeMeters>824.79998779296875</AltitudeMeters>
            <DistanceMeters>NAN</DistanceMeters>
          </Trackpoint>
          <Trackpoint>
            <Time>2021-04-02T07:38:11.000Z</Time>
            <Position>
              <LatitudeDegrees>42.36138082109391689300537109375</LatitudeDegrees>
              <LongitudeDegrees>2.63571434654295444488525390625</LongitudeDegrees>
            </Position>
            <AltitudeMeters>824.79998779296875</AltitudeMeters>
            <DistanceMeters>NAN</DistanceMeters>
          </Trackpoint>
          <Trackpoint>
            <Time>2021-04-02T07:38:21.000Z</Time>
            <Position>
              <LatitudeDegrees>42.3612935654819011688232421875</LatitudeDegrees>
              <LongitudeDegrees>2.635829262435436248779296875</LongitudeDegrees>
            </Position>
            <AltitudeMeters>824.4000244140625</AltitudeMeters>
            <DistanceMeters>NAN</DistanceMeters>
          </Trackpoint>
          <Trackpoint>
            <Time>2021-04-02T07:38:24.000Z</Time>
            <Position>
              <LatitudeDegrees>42.36126347444951534271240234375</LatitudeDegrees>
              <LongitudeDegrees>2.63584946282207965850830078125</LongitudeDegrees>
            </Position>
            <AltitudeMeters>824</AltitudeMeters>
            <DistanceMeters>NAN</DistanceMeters>
          </Trackpoint>
          <Trackpoint>
            <Time>2021-04-02T07:38:27.000Z</Time>
            <Position>
              <LatitudeDegrees>42.36123933456838130950927734375</LatitudeDegrees>
              <LongitudeDegrees>2.63587653636932373046875</LongitudeDegrees>
            </Position>
            <AltitudeMeters>824</AltitudeMeters>
            <DistanceMeters>NAN</DistanceMeters>
          </Trackpoint>
          <Trackpoint>
            <Time>2021-04-02T07:38:28.000Z</Time>
            <Position>
              <LatitudeDegrees>42.36122625879943370819091796875</LatitudeDegrees>
              <LongitudeDegrees>2.63588382862508296966552734375</LongitudeDegrees>
            </Position>
            <AltitudeMeters>823.79998779296875</AltitudeMeters>
            <DistanceMeters>NAN</DistanceMeters>
          </Trackpoint>
          <Trackpoint>
            <Time>2021-04-02T07:38:35.000Z</Time>
            <Position>
              <LatitudeDegrees>42.3611577786505222320556640625</LatitudeDegrees>
              <LongitudeDegrees>2.63593143783509731292724609375</LongitudeDegrees>
            </Position>
            <AltitudeMeters>823.79998779296875</AltitudeMeters>
            <DistanceMeters>NAN</DistanceMeters>
          </Trackpoint>
          <Trackpoint>
            <Time>2021-04-02T07:38:40.000Z</Time>
            <Position>
              <LatitudeDegrees>42.361086197197437286376953125</LatitudeDegrees>
              <LongitudeDegrees>2.63592104427516460418701171875</LongitudeDegrees>
            </Position>
            <AltitudeMeters>823.79998779296875</AltitudeMeters>
            <DistanceMeters>NAN</DistanceMeters>
          </Trackpoint>
          <Trackpoint>
            <Time>2021-04-02T07:38:44.000Z</Time>
            <Position>
              <LatitudeDegrees>42.361058704555034637451171875</LatitudeDegrees>
              <LongitudeDegrees>2.63590394519269466400146484375</LongitudeDegrees>
            </Position>
            <AltitudeMeters>823.5999755859375</AltitudeMeters>
            <DistanceMeters>NAN</DistanceMeters>
          </Trackpoint>
          <Trackpoint>
            <Time>2021-04-02T07:38:54.000Z</Time>
            <Position>
              <LatitudeDegrees>42.36096449196338653564453125</LatitudeDegrees>
              <LongitudeDegrees>2.635884918272495269775390625</LongitudeDegrees>
            </Position>
            <AltitudeMeters>824.20001220703125</AltitudeMeters>
            <DistanceMeters>NAN</DistanceMeters>
          </Trackpoint>
          <Trackpoint>
            <Time>2021-04-02T07:38:59.000Z</Time>
            <Position>
              <LatitudeDegrees>42.3609237559139728546142578125</LatitudeDegrees>
              <LongitudeDegrees>2.635883577167987823486328125</LongitudeDegrees>
            </Position>
            <AltitudeMeters>824.79998779296875</AltitudeMeters>
            <DistanceMeters>NAN</DistanceMeters>
          </Trackpoint>
          <Trackpoint>
            <Time>2021-04-02T07:39:02.000Z</Time>
            <Position>
              <LatitudeDegrees>42.36089098267257213592529296875</LatitudeDegrees>
              <LongitudeDegrees>2.63588952831923961639404296875</LongitudeDegrees>
            </Position>
            <AltitudeMeters>825.20001220703125</AltitudeMeters>
            <DistanceMeters>NAN</DistanceMeters>
          </Trackpoint>
          <Trackpoint>
            <Time>2021-04-02T07:39:04.000Z</Time>
            <Position>
              <LatitudeDegrees>42.36087388359010219573974609375</LatitudeDegrees>
              <LongitudeDegrees>2.63589464128017425537109375</LongitudeDegrees>
            </Position>
            <AltitudeMeters>825.4000244140625</AltitudeMeters>
            <DistanceMeters>NAN</DistanceMeters>
          </Trackpoint>
          <Trackpoint>
            <Time>2021-04-02T07:39:09.000Z</Time>
            <Position>
              <LatitudeDegrees>42.3608245141804218292236328125</LatitudeDegrees>
              <LongitudeDegrees>2.63590394519269466400146484375</LongitudeDegrees>
            </Position>
            <AltitudeMeters>825.79998779296875</AltitudeMeters>
            <DistanceMeters>NAN</DistanceMeters>
          </Trackpoint>
          <Trackpoint>
            <Time>2021-04-02T07:39:12.000Z</Time>
            <Position>
              <LatitudeDegrees>42.36079744063317775726318359375</LatitudeDegrees>
              <LongitudeDegrees>2.6359078846871852874755859375</LongitudeDegrees>
            </Position>
            <AltitudeMeters>826.20001220703125</AltitudeMeters>
            <DistanceMeters>NAN</DistanceMeters>
          </Trackpoint>
          <Trackpoint>
            <Time>2021-04-02T07:39:17.000Z</Time>
            <Position>
              <LatitudeDegrees>42.3607520945370197296142578125</LatitudeDegrees>
              <LongitudeDegrees>2.63592456467449665069580078125</LongitudeDegrees>
            </Position>
            <AltitudeMeters>826.79998779296875</AltitudeMeters>
            <DistanceMeters>NAN</DistanceMeters>
          </Trackpoint>
          <Trackpoint>
            <Time>2021-04-02T07:39:18.000Z</Time>
            <Position>
              <LatitudeDegrees>42.36073960550129413604736328125</LatitudeDegrees>
              <LongitudeDegrees>2.63592707924544811248779296875</LongitudeDegrees>
            </Position>
            <AltitudeMeters>826.79998779296875</AltitudeMeters>
            <DistanceMeters>NAN</DistanceMeters>
          </Trackpoint>
          <Trackpoint>
            <Time>2021-04-02T07:39:24.000Z</Time>
            <Position>
              <LatitudeDegrees>42.36068478785455226898193359375</LatitudeDegrees>
              <LongitudeDegrees>2.63595163822174072265625</LongitudeDegrees>
            </Position>
            <AltitudeMeters>827.5999755859375</AltitudeMeters>
            <DistanceMeters>NAN</DistanceMeters>
          </Trackpoint>
          <Trackpoint>
            <Time>2021-04-02T07:39:28.000Z</Time>
            <Position>
              <LatitudeDegrees>42.3606451414525508880615234375</LatitudeDegrees>
              <LongitudeDegrees>2.635966725647449493408203125</LongitudeDegrees>
            </Position>
            <AltitudeMeters>828</AltitudeMeters>
            <DistanceMeters>NAN</DistanceMeters>
          </Trackpoint>
          <Trackpoint>
            <Time>2021-04-02T07:39:29.000Z</Time>
            <Position>
              <LatitudeDegrees>42.36063592135906219482421875</LatitudeDegrees>
              <LongitudeDegrees>2.63596680946648120880126953125</LongitudeDegrees>
            </Position>
            <AltitudeMeters>828</AltitudeMeters>
            <DistanceMeters>NAN</DistanceMeters>
          </Trackpoint>
          <Trackpoint>
            <Time>2021-04-02T07:39:35.000Z</Time>
            <Position>
              <LatitudeDegrees>42.3605869710445404052734375</LatitudeDegrees>
              <LongitudeDegrees>2.6359786279499530792236328125</LongitudeDegrees>
            </Position>
            <AltitudeMeters>828.4000244140625</AltitudeMeters>
            <DistanceMeters>NAN</DistanceMeters>
          </Trackpoint>
          <Trackpoint>
            <Time>2021-04-02T07:39:39.000Z</Time>
            <Position>
              <LatitudeDegrees>42.36055319197475910186767578125</LatitudeDegrees>
              <LongitudeDegrees>2.6359803043305873870849609375</LongitudeDegrees>
            </Position>
            <AltitudeMeters>828.5999755859375</AltitudeMeters>
            <DistanceMeters>NAN</DistanceMeters>
          </Trackpoint>
          <Trackpoint>
            <Time>2021-04-02T07:39:40.000Z</Time>
            <Position>
              <LatitudeDegrees>42.36054514534771442413330078125</LatitudeDegrees>
              <LongitudeDegrees>2.63597301207482814788818359375</LongitudeDegrees>
            </Position>
            <AltitudeMeters>828.5999755859375</AltitudeMeters>
            <DistanceMeters>NAN</DistanceMeters>
          </Trackpoint>
          <Trackpoint>
            <Time>2021-04-02T07:39:46.000Z</Time>
            <Position>
              <LatitudeDegrees>42.360502816736698150634765625</LatitudeDegrees>
              <LongitudeDegrees>2.63598156161606311798095703125</LongitudeDegrees>
            </Position>
            <AltitudeMeters>829</AltitudeMeters>
            <DistanceMeters>NAN</DistanceMeters>
          </Trackpoint>
          <Trackpoint>
            <Time>2021-04-02T07:39:53.000Z</Time>
            <Position>
              <LatitudeDegrees>42.36042846925556659698486328125</LatitudeDegrees>
              <LongitudeDegrees>2.6359266601502895355224609375</LongitudeDegrees>
            </Position>
            <AltitudeMeters>829.79998779296875</AltitudeMeters>
            <DistanceMeters>NAN</DistanceMeters>
          </Trackpoint>
          <Trackpoint>
            <Time>2021-04-02T07:39:57.000Z</Time>
            <Position>
              <LatitudeDegrees>42.36038840375840663909912109375</LatitudeDegrees>
              <LongitudeDegrees>2.63589187525212764739990234375</LongitudeDegrees>
            </Position>
            <AltitudeMeters>830</AltitudeMeters>
            <DistanceMeters>NAN</DistanceMeters>
          </Trackpoint>
          <Trackpoint>
            <Time>2021-04-02T07:40:03.000Z</Time>
            <Position>
              <LatitudeDegrees>42.3603323288261890411376953125</LatitudeDegrees>
              <LongitudeDegrees>2.63586538843810558319091796875</LongitudeDegrees>
            </Position>
            <AltitudeMeters>830.79998779296875</AltitudeMeters>
            <DistanceMeters>NAN</DistanceMeters>
          </Trackpoint>
          <Trackpoint>
            <Time>2021-04-02T07:40:06.000Z</Time>
            <Position>
              <LatitudeDegrees>42.360312379896640777587890625</LatitudeDegrees>
              <LongitudeDegrees>2.63587796129286289215087890625</LongitudeDegrees>
            </Position>
            <AltitudeMeters>831.20001220703125</AltitudeMeters>
            <DistanceMeters>NAN</DistanceMeters>
          </Trackpoint>
          <Trackpoint>
            <Time>2021-04-02T07:40:09.000Z</Time>
            <Position>
              <LatitudeDegrees>42.360284216701984405517578125</LatitudeDegrees>
              <LongitudeDegrees>2.63588257133960723876953125</LongitudeDegrees>
            </Position>
            <AltitudeMeters>831.5999755859375</AltitudeMeters>
            <DistanceMeters>NAN</DistanceMeters>
          </Trackpoint>
          <Trackpoint>
            <Time>2021-04-02T07:40:14.000Z</Time>
            <Position>
              <LatitudeDegrees>42.36023233272135257720947265625</LatitudeDegrees>
              <LongitudeDegrees>2.635899670422077178955078125</LongitudeDegrees>
            </Position>
            <AltitudeMeters>831.79998779296875</AltitudeMeters>
            <DistanceMeters>NAN</DistanceMeters>
          </Trackpoint>
          <Trackpoint>
            <Time>2021-04-02T07:40:18.000Z</Time>
            <Position>
              <LatitudeDegrees>42.360202409327030181884765625</LatitudeDegrees>
              <LongitudeDegrees>2.63592959381639957427978515625</LongitudeDegrees>
            </Position>
            <AltitudeMeters>832.20001220703125</AltitudeMeters>
            <DistanceMeters>NAN</DistanceMeters>
          </Trackpoint>
          <Trackpoint>
            <Time>2021-04-02T07:40:19.000Z</Time>
            <Position>
              <LatitudeDegrees>42.36019394360482692718505859375</LatitudeDegrees>
              <LongitudeDegrees>2.6359373889863491058349609375</LongitudeDegrees>
            </Position>
            <AltitudeMeters>832.20001220703125</AltitudeMeters>
            <DistanceMeters>NAN</DistanceMeters>
          </Trackpoint>
          <Trackpoint>
            <Time>2021-04-02T07:40:26.000Z</Time>
            <Position>
              <LatitudeDegrees>42.36014516092836856842041015625</LatitudeDegrees>
              <LongitudeDegrees>2.6359917037189006805419921875</LongitudeDegrees>
            </Position>
            <AltitudeMeters>832.5999755859375</AltitudeMeters>
            <DistanceMeters>NAN</DistanceMeters>
          </Trackpoint>
          <Trackpoint>
            <Time>2021-04-02T07:40:29.000Z</Time>
            <Position>
              <LatitudeDegrees>42.36012655310332775115966796875</LatitudeDegrees>
              <LongitudeDegrees>2.63601643033325672149658203125</LongitudeDegrees>
            </Position>
            <AltitudeMeters>832.79998779296875</AltitudeMeters>
            <DistanceMeters>NAN</DistanceMeters>
          </Trackpoint>
          <Trackpoint>
            <Time>2021-04-02T07:40:37.000Z</Time>
            <Position>
              <LatitudeDegrees>42.3600748367607593536376953125</LatitudeDegrees>
              <LongitudeDegrees>2.63608373701572418212890625</LongitudeDegrees>
            </Position>
            <AltitudeMeters>833.20001220703125</AltitudeMeters>
            <DistanceMeters>NAN</DistanceMeters>
          </Trackpoint>
          <Trackpoint>
            <Time>2021-04-02T07:40:40.000Z</Time>
            <Position>
              <LatitudeDegrees>42.36005388200283050537109375</LatitudeDegrees>
              <LongitudeDegrees>2.63611684553325176239013671875</LongitudeDegrees>
            </Position>
            <AltitudeMeters>833.20001220703125</AltitudeMeters>
            <DistanceMeters>NAN</DistanceMeters>
          </Trackpoint>
          <Trackpoint>
            <Time>2021-04-02T07:40:48.000Z</Time>
            <Position>
              <LatitudeDegrees>42.35999344848096370697021484375</LatitudeDegrees>
              <LongitudeDegrees>2.6361804641783237457275390625</LongitudeDegrees>
            </Position>
            <AltitudeMeters>832.79998779296875</AltitudeMeters>
            <DistanceMeters>NAN</DistanceMeters>
          </Trackpoint>
          <Trackpoint>
            <Time>2021-04-02T07:40:52.000Z</Time>
            <Position>
              <LatitudeDegrees>42.3599566519260406494140625</LatitudeDegrees>
              <LongitudeDegrees>2.6361985690891742706298828125</LongitudeDegrees>
            </Position>
            <AltitudeMeters>832.5999755859375</AltitudeMeters>
            <DistanceMeters>NAN</DistanceMeters>
          </Trackpoint>
          <Trackpoint>
            <Time>2021-04-02T07:40:54.000Z</Time>
            <Position>
              <LatitudeDegrees>42.35993209294974803924560546875</LatitudeDegrees>
              <LongitudeDegrees>2.636208795011043548583984375</LongitudeDegrees>
            </Position>
            <AltitudeMeters>832.5999755859375</AltitudeMeters>
            <DistanceMeters>NAN</DistanceMeters>
          </Trackpoint>
          <Trackpoint>
            <Time>2021-04-02T07:40:56.000Z</Time>
            <Position>
              <LatitudeDegrees>42.35991440713405609130859375</LatitudeDegrees>
              <LongitudeDegrees>2.63620485551655292510986328125</LongitudeDegrees>
            </Position>
            <AltitudeMeters>832.4000244140625</AltitudeMeters>
            <DistanceMeters>NAN</DistanceMeters>
          </Trackpoint>
          <Trackpoint>
            <Time>2021-04-02T07:41:06.000Z</Time>
            <Position>
              <LatitudeDegrees>42.35980569384992122650146484375</LatitudeDegrees>
              <LongitudeDegrees>2.63615481555461883544921875</LongitudeDegrees>
            </Position>
            <AltitudeMeters>832.20001220703125</AltitudeMeters>
            <DistanceMeters>NAN</DistanceMeters>
          </Trackpoint>
          <Trackpoint>
            <Time>2021-04-02T07:41:10.000Z</Time>
            <Position>
              <LatitudeDegrees>42.359778620302677154541015625</LatitudeDegrees>
              <LongitudeDegrees>2.63613394461572170257568359375</LongitudeDegrees>
            </Position>
            <AltitudeMeters>832.20001220703125</AltitudeMeters>
            <DistanceMeters>NAN</DistanceMeters>
          </Trackpoint>
          <Trackpoint>
            <Time>2021-04-02T07:41:16.000Z</Time>
            <Position>
              <LatitudeDegrees>42.35972170718014240264892578125</LatitudeDegrees>
              <LongitudeDegrees>2.6360832341015338897705078125</LongitudeDegrees>
            </Position>
            <AltitudeMeters>831.79998779296875</AltitudeMeters>
            <DistanceMeters>NAN</DistanceMeters>
          </Trackpoint>
          <Trackpoint>
            <Time>2021-04-02T07:41:26.000Z</Time>
            <Position>
              <LatitudeDegrees>42.35963679850101470947265625</LatitudeDegrees>
              <LongitudeDegrees>2.63599698431789875030517578125</LongitudeDegrees>
            </Position>
            <AltitudeMeters>831.79998779296875</AltitudeMeters>
            <DistanceMeters>NAN</DistanceMeters>
          </Trackpoint>
          <Trackpoint>
            <Time>2021-04-02T07:41:30.000Z</Time>
            <Position>
              <LatitudeDegrees>42.359605617821216583251953125</LatitudeDegrees>
              <LongitudeDegrees>2.63595507480204105377197265625</LongitudeDegrees>
            </Position>
            <AltitudeMeters>831.5999755859375</AltitudeMeters>
            <DistanceMeters>NAN</DistanceMeters>
          </Trackpoint>
          <Trackpoint>
            <Time>2021-04-02T07:41:32.000Z</Time>
            <Position>
              <LatitudeDegrees>42.35958759672939777374267578125</LatitudeDegrees>
              <LongitudeDegrees>2.635936550796031951904296875</LongitudeDegrees>
            </Position>
            <AltitudeMeters>831.5999755859375</AltitudeMeters>
            <DistanceMeters>NAN</DistanceMeters>
          </Trackpoint>
          <Trackpoint>
            <Time>2021-04-02T07:41:33.000Z</Time>
            <Position>
              <LatitudeDegrees>42.359575442969799041748046875</LatitudeDegrees>
              <LongitudeDegrees>2.635931856930255889892578125</LongitudeDegrees>
            </Position>
            <AltitudeMeters>831.5999755859375</AltitudeMeters>
            <DistanceMeters>NAN</DistanceMeters>
          </Trackpoint>
          <Trackpoint>
            <Time>2021-04-02T07:41:34.000Z</Time>
            <Position>
              <LatitudeDegrees>42.359564714133739471435546875</LatitudeDegrees>
              <LongitudeDegrees>2.63592909090220928192138671875</LongitudeDegrees>
            </Position>
            <AltitudeMeters>831.5999755859375</AltitudeMeters>
            <DistanceMeters>NAN</DistanceMeters>
          </Trackpoint>
          <Trackpoint>
            <Time>2021-04-02T07:41:43.000Z</Time>
            <Position>
              <LatitudeDegrees>42.35944611020386219024658203125</LatitudeDegrees>
              <LongitudeDegrees>2.635905705392360687255859375</LongitudeDegrees>
            </Position>
            <AltitudeMeters>831.5999755859375</AltitudeMeters>
            <DistanceMeters>NAN</DistanceMeters>
          </Trackpoint>
          <Trackpoint>
            <Time>2021-04-02T07:41:44.000Z</Time>
            <Position>
              <LatitudeDegrees>42.3594336211681365966796875</LatitudeDegrees>
              <LongitudeDegrees>2.6359062083065509796142578125</LongitudeDegrees>
            </Position>
            <AltitudeMeters>831.4000244140625</AltitudeMeters>
            <DistanceMeters>NAN</DistanceMeters>
          </Trackpoint>
          <Trackpoint>
            <Time>2021-04-02T07:41:45.000Z</Time>
            <Position>
              <LatitudeDegrees>42.35942448489367961883544921875</LatitudeDegrees>
              <LongitudeDegrees>2.635908387601375579833984375</LongitudeDegrees>
            </Position>
            <AltitudeMeters>831.20001220703125</AltitudeMeters>
            <DistanceMeters>NAN</DistanceMeters>
          </Trackpoint>
          <Trackpoint>
            <Time>2021-04-02T07:41:52.000Z</Time>
            <Position>
              <LatitudeDegrees>42.3593343794345855712890625</LatitudeDegrees>
              <LongitudeDegrees>2.63591266237199306488037109375</LongitudeDegrees>
            </Position>
            <AltitudeMeters>830.79998779296875</AltitudeMeters>
            <DistanceMeters>NAN</DistanceMeters>
          </Trackpoint>
          <Trackpoint>
            <Time>2021-04-02T07:41:54.000Z</Time>
            <Position>
              <LatitudeDegrees>42.3593110777437686920166015625</LatitudeDegrees>
              <LongitudeDegrees>2.63591182418167591094970703125</LongitudeDegrees>
            </Position>
            <AltitudeMeters>830.79998779296875</AltitudeMeters>
            <DistanceMeters>NAN</DistanceMeters>
          </Trackpoint>
          <Trackpoint>
            <Time>2021-04-02T07:42:02.000Z</Time>
            <Position>
              <LatitudeDegrees>42.35923505388200283050537109375</LatitudeDegrees>
              <LongitudeDegrees>2.6358456909656524658203125</LongitudeDegrees>
            </Position>
            <AltitudeMeters>830.5999755859375</AltitudeMeters>
            <DistanceMeters>NAN</DistanceMeters>
          </Trackpoint>
          <Trackpoint>
            <Time>2021-04-02T07:42:10.000Z</Time>
            <Position>
              <LatitudeDegrees>42.35918275080621242523193359375</LatitudeDegrees>
              <LongitudeDegrees>2.63577251695096492767333984375</LongitudeDegrees>
            </Position>
            <AltitudeMeters>830.4000244140625</AltitudeMeters>
            <DistanceMeters>NAN</DistanceMeters>
          </Trackpoint>
          <Trackpoint>
            <Time>2021-04-02T07:42:20.000Z</Time>
            <Position>
              <LatitudeDegrees>42.35917990095913410186767578125</LatitudeDegrees>
              <LongitudeDegrees>2.6356711797416210174560546875</LongitudeDegrees>
            </Position>
            <AltitudeMeters>830.4000244140625</AltitudeMeters>
            <DistanceMeters>NAN</DistanceMeters>
          </Trackpoint>
          <Trackpoint>
            <Time>2021-04-02T07:42:21.000Z</Time>
            <Position>
              <LatitudeDegrees>42.359178476035594940185546875</LatitudeDegrees>
              <LongitudeDegrees>2.63566187582910060882568359375</LongitudeDegrees>
            </Position>
            <AltitudeMeters>830.4000244140625</AltitudeMeters>
            <DistanceMeters>NAN</DistanceMeters>
          </Trackpoint>
          <Trackpoint>
            <Time>2021-04-02T07:42:24.000Z</Time>
            <Position>
              <LatitudeDegrees>42.3591803200542926788330078125</LatitudeDegrees>
              <LongitudeDegrees>2.63563807122409343719482421875</LongitudeDegrees>
            </Position>
            <AltitudeMeters>830.4000244140625</AltitudeMeters>
            <DistanceMeters>NAN</DistanceMeters>
          </Trackpoint>
          <Trackpoint>
            <Time>2021-04-02T07:42:27.000Z</Time>
            <Position>
              <LatitudeDegrees>42.359168417751789093017578125</LatitudeDegrees>
              <LongitudeDegrees>2.6356349699199199676513671875</LongitudeDegrees>
            </Position>
            <AltitudeMeters>830.4000244140625</AltitudeMeters>
            <DistanceMeters>NAN</DistanceMeters>
          </Trackpoint>
          <Trackpoint>
            <Time>2021-04-02T07:42:32.000Z</Time>
            <Position>
              <LatitudeDegrees>42.35913681797683238983154296875</LatitudeDegrees>
              <LongitudeDegrees>2.63562918640673160552978515625</LongitudeDegrees>
            </Position>
            <AltitudeMeters>830.4000244140625</AltitudeMeters>
            <DistanceMeters>NAN</DistanceMeters>
          </Trackpoint>
          <Trackpoint>
            <Time>2021-04-02T07:42:40.000Z</Time>
            <Position>
              <LatitudeDegrees>42.3590696789324283599853515625</LatitudeDegrees>
              <LongitudeDegrees>2.63559817336499691009521484375</LongitudeDegrees>
            </Position>
            <AltitudeMeters>830.4000244140625</AltitudeMeters>
            <DistanceMeters>NAN</DistanceMeters>
          </Trackpoint>
          <Trackpoint>
            <Time>2021-04-02T07:42:45.000Z</Time>
            <Position>
              <LatitudeDegrees>42.3590219020843505859375</LatitudeDegrees>
              <LongitudeDegrees>2.6355900429189205169677734375</LongitudeDegrees>
            </Position>
            <AltitudeMeters>830.20001220703125</AltitudeMeters>
            <DistanceMeters>NAN</DistanceMeters>
          </Trackpoint>
          <Trackpoint>
            <Time>2021-04-02T07:42:49.000Z</Time>
            <Position>
              <LatitudeDegrees>42.35899248160421848297119140625</LatitudeDegrees>
              <LongitudeDegrees>2.63559423387050628662109375</LongitudeDegrees>
            </Position>
            <AltitudeMeters>830</AltitudeMeters>
            <DistanceMeters>NAN</DistanceMeters>
          </Trackpoint>
          <Trackpoint>
            <Time>2021-04-02T07:42:50.000Z</Time>
            <Position>
              <LatitudeDegrees>42.35899038612842559814453125</LatitudeDegrees>
              <LongitudeDegrees>2.63559498824179172515869140625</LongitudeDegrees>
            </Position>
            <AltitudeMeters>830.20001220703125</AltitudeMeters>
            <DistanceMeters>NAN</DistanceMeters>
          </Trackpoint>
          <Trackpoint>
            <Time>2021-04-02T07:42:59.000Z</Time>
            <Position>
              <LatitudeDegrees>42.3589181341230869293212890625</LatitudeDegrees>
              <LongitudeDegrees>2.6355640590190887451171875</LongitudeDegrees>
            </Position>
            <AltitudeMeters>830.20001220703125</AltitudeMeters>
            <DistanceMeters>NAN</DistanceMeters>
          </Trackpoint>
          <Trackpoint>
            <Time>2021-04-02T07:43:00.000Z</Time>
            <Position>
              <LatitudeDegrees>42.358913607895374298095703125</LatitudeDegrees>
              <LongitudeDegrees>2.635557353496551513671875</LongitudeDegrees>
            </Position>
            <AltitudeMeters>830.20001220703125</AltitudeMeters>
            <DistanceMeters>NAN</DistanceMeters>
          </Trackpoint>
          <Trackpoint>
            <Time>2021-04-02T07:43:08.000Z</Time>
            <Position>
              <LatitudeDegrees>42.358854599297046661376953125</LatitudeDegrees>
              <LongitudeDegrees>2.63544939458370208740234375</LongitudeDegrees>
            </Position>
            <AltitudeMeters>829.79998779296875</AltitudeMeters>
            <DistanceMeters>NAN</DistanceMeters>
          </Trackpoint>
          <Trackpoint>
            <Time>2021-04-02T07:43:09.000Z</Time>
            <Position>
              <LatitudeDegrees>42.3588473908603191375732421875</LatitudeDegrees>
              <LongitudeDegrees>2.6354301162064075469970703125</LongitudeDegrees>
            </Position>
            <AltitudeMeters>829.5999755859375</AltitudeMeters>
            <DistanceMeters>NAN</DistanceMeters>
          </Trackpoint>
          <Trackpoint>
            <Time>2021-04-02T07:43:12.000Z</Time>
            <Position>
              <LatitudeDegrees>42.35884420573711395263671875</LatitudeDegrees>
              <LongitudeDegrees>2.6354076527059078216552734375</LongitudeDegrees>
            </Position>
            <AltitudeMeters>829.4000244140625</AltitudeMeters>
            <DistanceMeters>NAN</DistanceMeters>
          </Trackpoint>
          <Trackpoint>
            <Time>2021-04-02T07:43:14.000Z</Time>
            <Position>
              <LatitudeDegrees>42.3588413558900356292724609375</LatitudeDegrees>
              <LongitudeDegrees>2.63539583422243595123291015625</LongitudeDegrees>
            </Position>
            <AltitudeMeters>829.5999755859375</AltitudeMeters>
            <DistanceMeters>NAN</DistanceMeters>
          </Trackpoint>
          <Trackpoint>
            <Time>2021-04-02T07:43:16.000Z</Time>
            <Position>
              <LatitudeDegrees>42.35883657820522785186767578125</LatitudeDegrees>
              <LongitudeDegrees>2.635371945798397064208984375</LongitudeDegrees>
            </Position>
            <AltitudeMeters>829.5999755859375</AltitudeMeters>
            <DistanceMeters>NAN</DistanceMeters>
          </Trackpoint>
          <Trackpoint>
            <Time>2021-04-02T07:43:19.000Z</Time>
            <Position>
              <LatitudeDegrees>42.35883624292910099029541015625</LatitudeDegrees>
              <LongitudeDegrees>2.63533330522477626800537109375</LongitudeDegrees>
            </Position>
            <AltitudeMeters>829.5999755859375</AltitudeMeters>
            <DistanceMeters>NAN</DistanceMeters>
          </Trackpoint>
          <Trackpoint>
            <Time>2021-04-02T07:43:22.000Z</Time>
            <Position>
              <LatitudeDegrees>42.35882149077951908111572265625</LatitudeDegrees>
              <LongitudeDegrees>2.63527697883546352386474609375</LongitudeDegrees>
            </Position>
            <AltitudeMeters>829.5999755859375</AltitudeMeters>
            <DistanceMeters>NAN</DistanceMeters>
          </Trackpoint>
          <Trackpoint>
            <Time>2021-04-02T07:43:24.000Z</Time>
            <Position>
              <LatitudeDegrees>42.3588229157030582427978515625</LatitudeDegrees>
              <LongitudeDegrees>2.63523657806217670440673828125</LongitudeDegrees>
            </Position>
            <AltitudeMeters>829.5999755859375</AltitudeMeters>
            <DistanceMeters>NAN</DistanceMeters>
          </Trackpoint>
          <Trackpoint>
            <Time>2021-04-02T07:43:28.000Z</Time>
            <Position>
              <LatitudeDegrees>42.35881478525698184967041015625</LatitudeDegrees>
              <LongitudeDegrees>2.6351672597229480743408203125</LongitudeDegrees>
            </Position>
            <AltitudeMeters>829.5999755859375</AltitudeMeters>
            <DistanceMeters>NAN</DistanceMeters>
          </Trackpoint>
          <Trackpoint>
            <Time>2021-04-02T07:43:36.000Z</Time>
            <Position>
              <LatitudeDegrees>42.3588380031287670135498046875</LatitudeDegrees>
              <LongitudeDegrees>2.63504563830792903900146484375</LongitudeDegrees>
            </Position>
            <AltitudeMeters>829.4000244140625</AltitudeMeters>
            <DistanceMeters>NAN</DistanceMeters>
          </Trackpoint>
          <Trackpoint>
            <Time>2021-04-02T07:43:39.000Z</Time>
            <Position>
              <LatitudeDegrees>42.3588524200022220611572265625</LatitudeDegrees>
              <LongitudeDegrees>2.63500724919140338897705078125</LongitudeDegrees>
            </Position>
            <AltitudeMeters>829.20001220703125</AltitudeMeters>
            <DistanceMeters>NAN</DistanceMeters>
          </Trackpoint>
          <Trackpoint>
            <Time>2021-04-02T07:43:40.000Z</Time>
            <Position>
              <LatitudeDegrees>42.35885619185864925384521484375</LatitudeDegrees>
              <LongitudeDegrees>2.634994424879550933837890625</LongitudeDegrees>
            </Position>
            <AltitudeMeters>829</AltitudeMeters>
            <DistanceMeters>NAN</DistanceMeters>
          </Trackpoint>
          <Trackpoint>
            <Time>2021-04-02T07:43:42.000Z</Time>
            <Position>
              <LatitudeDegrees>42.35886633396148681640625</LatitudeDegrees>
              <LongitudeDegrees>2.63496751897037029266357421875</LongitudeDegrees>
            </Position>
            <AltitudeMeters>828.79998779296875</AltitudeMeters>
            <DistanceMeters>NAN</DistanceMeters>
          </Trackpoint>
          <Trackpoint>
            <Time>2021-04-02T07:43:43.000Z</Time>
            <Position>
              <LatitudeDegrees>42.3588730394840240478515625</LatitudeDegrees>
              <LongitudeDegrees>2.63495611958205699920654296875</LongitudeDegrees>
            </Position>
            <AltitudeMeters>828.79998779296875</AltitudeMeters>
            <DistanceMeters>NAN</DistanceMeters>
          </Trackpoint>
          <Trackpoint>
            <Time>2021-04-02T07:43:48.000Z</Time>
            <Position>
              <LatitudeDegrees>42.3589079082012176513671875</LatitudeDegrees>
              <LongitudeDegrees>2.63489107601344585418701171875</LongitudeDegrees>
            </Position>
            <AltitudeMeters>828.79998779296875</AltitudeMeters>
            <DistanceMeters>NAN</DistanceMeters>
          </Trackpoint>
          <Trackpoint>
            <Time>2021-04-02T07:43:51.000Z</Time>
            <Position>
              <LatitudeDegrees>42.35890598036348819732666015625</LatitudeDegrees>
              <LongitudeDegrees>2.63484187424182891845703125</LongitudeDegrees>
            </Position>
            <AltitudeMeters>828.79998779296875</AltitudeMeters>
            <DistanceMeters>NAN</DistanceMeters>
          </Trackpoint>
          <Trackpoint>
            <Time>2021-04-02T07:43:53.000Z</Time>
            <Position>
              <LatitudeDegrees>42.35890430398285388946533203125</LatitudeDegrees>
              <LongitudeDegrees>2.63481362722814083099365234375</LongitudeDegrees>
            </Position>
            <AltitudeMeters>828.79998779296875</AltitudeMeters>
            <DistanceMeters>NAN</DistanceMeters>
          </Trackpoint>
          <Trackpoint>
            <Time>2021-04-02T07:43:56.000Z</Time>
            <Position>
              <LatitudeDegrees>42.3589067347347736358642578125</LatitudeDegrees>
              <LongitudeDegrees>2.634770460426807403564453125</LongitudeDegrees>
            </Position>
            <AltitudeMeters>828.5999755859375</AltitudeMeters>
            <DistanceMeters>NAN</DistanceMeters>
          </Trackpoint>
          <Trackpoint>
            <Time>2021-04-02T07:44:01.000Z</Time>
            <Position>
              <LatitudeDegrees>42.358874715864658355712890625</LatitudeDegrees>
              <LongitudeDegrees>2.63467750512063503265380859375</LongitudeDegrees>
            </Position>
            <AltitudeMeters>828.4000244140625</AltitudeMeters>
            <DistanceMeters>NAN</DistanceMeters>
          </Trackpoint>
          <Trackpoint>
            <Time>2021-04-02T07:44:03.000Z</Time>
            <Position>
              <LatitudeDegrees>42.35887044109404087066650390625</LatitudeDegrees>
              <LongitudeDegrees>2.63464632444083690643310546875</LongitudeDegrees>
            </Position>
            <AltitudeMeters>828.4000244140625</AltitudeMeters>
            <DistanceMeters>NAN</DistanceMeters>
          </Trackpoint>
          <Trackpoint>
            <Time>2021-04-02T07:44:10.000Z</Time>
            <Position>
              <LatitudeDegrees>42.3588691838085651397705078125</LatitudeDegrees>
              <LongitudeDegrees>2.6345449872314929962158203125</LongitudeDegrees>
            </Position>
            <AltitudeMeters>828.20001220703125</AltitudeMeters>
            <DistanceMeters>NAN</DistanceMeters>
          </Trackpoint>
          <Trackpoint>
            <Time>2021-04-02T07:44:11.000Z</Time>
            <Position>
              <LatitudeDegrees>42.3588691838085651397705078125</LatitudeDegrees>
              <LongitudeDegrees>2.63453166000545024871826171875</LongitudeDegrees>
            </Position>
            <AltitudeMeters>828.20001220703125</AltitudeMeters>
            <DistanceMeters>NAN</DistanceMeters>
          </Trackpoint>
          <Trackpoint>
            <Time>2021-04-02T07:44:22.000Z</Time>
            <Position>
              <LatitudeDegrees>42.35887773334980010986328125</LatitudeDegrees>
              <LongitudeDegrees>2.63437642715871334075927734375</LongitudeDegrees>
            </Position>
            <AltitudeMeters>828.20001220703125</AltitudeMeters>
            <DistanceMeters>NAN</DistanceMeters>
          </Trackpoint>
          <Trackpoint>
            <Time>2021-04-02T07:44:23.000Z</Time>
            <Position>
              <LatitudeDegrees>42.3588923178613185882568359375</LatitudeDegrees>
              <LongitudeDegrees>2.6343696378171443939208984375</LongitudeDegrees>
            </Position>
            <AltitudeMeters>828.20001220703125</AltitudeMeters>
            <DistanceMeters>NAN</DistanceMeters>
          </Trackpoint>
          <Trackpoint>
            <Time>2021-04-02T07:44:28.000Z</Time>
            <Position>
              <LatitudeDegrees>42.3589462973177433013916015625</LatitudeDegrees>
              <LongitudeDegrees>2.6343193463981151580810546875</LongitudeDegrees>
            </Position>
            <AltitudeMeters>828</AltitudeMeters>
            <DistanceMeters>NAN</DistanceMeters>
          </Trackpoint>
          <Trackpoint>
            <Time>2021-04-02T07:44:30.000Z</Time>
            <Position>
              <LatitudeDegrees>42.3589588701725006103515625</LatitudeDegrees>
              <LongitudeDegrees>2.6342952065169811248779296875</LongitudeDegrees>
            </Position>
            <AltitudeMeters>827.5999755859375</AltitudeMeters>
            <DistanceMeters>NAN</DistanceMeters>
          </Trackpoint>
          <Trackpoint>
            <Time>2021-04-02T07:44:32.000Z</Time>
            <Position>
              <LatitudeDegrees>42.3589774779975414276123046875</LatitudeDegrees>
              <LongitudeDegrees>2.6342727430164813995361328125</LongitudeDegrees>
            </Position>
            <AltitudeMeters>827.5999755859375</AltitudeMeters>
            <DistanceMeters>NAN</DistanceMeters>
          </Trackpoint>
          <Trackpoint>
            <Time>2021-04-02T07:44:41.000Z</Time>
            <Position>
              <LatitudeDegrees>42.359053753316402435302734375</LatitudeDegrees>
              <LongitudeDegrees>2.634181044995784759521484375</LongitudeDegrees>
            </Position>
            <AltitudeMeters>827.5999755859375</AltitudeMeters>
            <DistanceMeters>NAN</DistanceMeters>
          </Trackpoint>
          <Trackpoint>
            <Time>2021-04-02T07:44:44.000Z</Time>
            <Position>
              <LatitudeDegrees>42.35907026566565036773681640625</LatitudeDegrees>
              <LongitudeDegrees>2.63415330089628696441650390625</LongitudeDegrees>
            </Position>
            <AltitudeMeters>827.5999755859375</AltitudeMeters>
            <DistanceMeters>NAN</DistanceMeters>
          </Trackpoint>
          <Trackpoint>
            <Time>2021-04-02T07:44:49.000Z</Time>
            <Position>
              <LatitudeDegrees>42.35911183990538120269775390625</LatitudeDegrees>
              <LongitudeDegrees>2.634111978113651275634765625</LongitudeDegrees>
            </Position>
            <AltitudeMeters>827.79998779296875</AltitudeMeters>
            <DistanceMeters>NAN</DistanceMeters>
          </Trackpoint>
          <Trackpoint>
            <Time>2021-04-02T07:45:00.000Z</Time>
            <Position>
              <LatitudeDegrees>42.35915006138384342193603515625</LatitudeDegrees>
              <LongitudeDegrees>2.63398298062384128570556640625</LongitudeDegrees>
            </Position>
            <AltitudeMeters>828</AltitudeMeters>
            <DistanceMeters>NAN</DistanceMeters>
          </Trackpoint>
          <Trackpoint>
            <Time>2021-04-02T07:45:10.000Z</Time>
            <Position>
              <LatitudeDegrees>42.3591692559421062469482421875</LatitudeDegrees>
              <LongitudeDegrees>2.63385775499045848846435546875</LongitudeDegrees>
            </Position>
            <AltitudeMeters>828.5999755859375</AltitudeMeters>
            <DistanceMeters>NAN</DistanceMeters>
          </Trackpoint>
          <Trackpoint>
            <Time>2021-04-02T07:45:12.000Z</Time>
            <Position>
              <LatitudeDegrees>42.35917369835078716278076171875</LatitudeDegrees>
              <LongitudeDegrees>2.633833028376102447509765625</LongitudeDegrees>
            </Position>
            <AltitudeMeters>828.79998779296875</AltitudeMeters>
            <DistanceMeters>NAN</DistanceMeters>
          </Trackpoint>
          <Trackpoint>
            <Time>2021-04-02T07:45:14.000Z</Time>
            <Position>
              <LatitudeDegrees>42.35917411744594573974609375</LatitudeDegrees>
              <LongitudeDegrees>2.63381064869463443756103515625</LongitudeDegrees>
            </Position>
            <AltitudeMeters>829</AltitudeMeters>
            <DistanceMeters>NAN</DistanceMeters>
          </Trackpoint>
          <Trackpoint>
            <Time>2021-04-02T07:45:20.000Z</Time>
            <Position>
              <LatitudeDegrees>42.35917923040688037872314453125</LatitudeDegrees>
              <LongitudeDegrees>2.633739821612834930419921875</LongitudeDegrees>
            </Position>
            <AltitudeMeters>829.79998779296875</AltitudeMeters>
            <DistanceMeters>NAN</DistanceMeters>
          </Trackpoint>
          <Trackpoint>
            <Time>2021-04-02T07:45:22.000Z</Time>
            <Position>
              <LatitudeDegrees>42.3591766320168972015380859375</LatitudeDegrees>
              <LongitudeDegrees>2.63371727429330348968505859375</LongitudeDegrees>
            </Position>
            <AltitudeMeters>830</AltitudeMeters>
            <DistanceMeters>NAN</DistanceMeters>
          </Trackpoint>
          <Trackpoint>
            <Time>2021-04-02T07:45:24.000Z</Time>
            <Position>
              <LatitudeDegrees>42.3591739498078823089599609375</LatitudeDegrees>
              <LongitudeDegrees>2.6336945593357086181640625</LongitudeDegrees>
            </Position>
            <AltitudeMeters>830.4000244140625</AltitudeMeters>
            <DistanceMeters>NAN</DistanceMeters>
          </Trackpoint>
          <Trackpoint>
            <Time>2021-04-02T07:45:26.000Z</Time>
            <Position>
              <LatitudeDegrees>42.3591716028749942779541015625</LatitudeDegrees>
              <LongitudeDegrees>2.633674107491970062255859375</LongitudeDegrees>
            </Position>
            <AltitudeMeters>830.4000244140625</AltitudeMeters>
            <DistanceMeters>NAN</DistanceMeters>
          </Trackpoint>
          <Trackpoint>
            <Time>2021-04-02T07:45:32.000Z</Time>
            <Position>
              <LatitudeDegrees>42.359150312840938568115234375</LatitudeDegrees>
              <LongitudeDegrees>2.63361451216042041778564453125</LongitudeDegrees>
            </Position>
            <AltitudeMeters>831</AltitudeMeters>
            <DistanceMeters>NAN</DistanceMeters>
          </Trackpoint>
          <Trackpoint>
            <Time>2021-04-02T07:45:33.000Z</Time>
            <Position>
              <LatitudeDegrees>42.35914469696581363677978515625</LatitudeDegrees>
              <LongitudeDegrees>2.6336062140762805938720703125</LongitudeDegrees>
            </Position>
            <AltitudeMeters>831</AltitudeMeters>
            <DistanceMeters>NAN</DistanceMeters>
          </Trackpoint>
          <Trackpoint>
            <Time>2021-04-02T07:45:35.000Z</Time>
            <Position>
              <LatitudeDegrees>42.35914486460387706756591796875</LatitudeDegrees>
              <LongitudeDegrees>2.6335847564041614532470703125</LongitudeDegrees>
            </Position>
            <AltitudeMeters>831.20001220703125</AltitudeMeters>
            <DistanceMeters>NAN</DistanceMeters>
          </Trackpoint>
          <Trackpoint>
            <Time>2021-04-02T07:45:40.000Z</Time>
            <Position>
              <LatitudeDegrees>42.3591585271060466766357421875</LatitudeDegrees>
              <LongitudeDegrees>2.6335364766418933868408203125</LongitudeDegrees>
            </Position>
            <AltitudeMeters>831.5999755859375</AltitudeMeters>
            <DistanceMeters>NAN</DistanceMeters>
          </Trackpoint>
          <Trackpoint>
            <Time>2021-04-02T07:45:43.000Z</Time>
            <Position>
              <LatitudeDegrees>42.35916263423860073089599609375</LatitudeDegrees>
              <LongitudeDegrees>2.63349808752536773681640625</LongitudeDegrees>
            </Position>
            <AltitudeMeters>831.79998779296875</AltitudeMeters>
            <DistanceMeters>NAN</DistanceMeters>
          </Trackpoint>
          <Trackpoint>
            <Time>2021-04-02T07:45:46.000Z</Time>
            <Position>
              <LatitudeDegrees>42.35916347242891788482666015625</LatitudeDegrees>
              <LongitudeDegrees>2.633460871875286102294921875</LongitudeDegrees>
            </Position>
            <AltitudeMeters>832</AltitudeMeters>
            <DistanceMeters>NAN</DistanceMeters>
          </Trackpoint>
          <Trackpoint>
            <Time>2021-04-02T07:45:50.000Z</Time>
            <Position>
              <LatitudeDegrees>42.35915827564895153045654296875</LatitudeDegrees>
              <LongitudeDegrees>2.633412592113018035888671875</LongitudeDegrees>
            </Position>
            <AltitudeMeters>832.20001220703125</AltitudeMeters>
            <DistanceMeters>NAN</DistanceMeters>
          </Trackpoint>
          <Trackpoint>
            <Time>2021-04-02T07:45:51.000Z</Time>
            <Position>
              <LatitudeDegrees>42.35915827564895153045654296875</LatitudeDegrees>
              <LongitudeDegrees>2.633412592113018035888671875</LongitudeDegrees>
            </Position>
            <AltitudeMeters>832.20001220703125</AltitudeMeters>
            <DistanceMeters>NAN</DistanceMeters>
          </Trackpoint>
          <Trackpoint>
            <Time>2021-04-02T07:45:59.000Z</Time>
            <Position>
              <LatitudeDegrees>42.35917755402624607086181640625</LatitudeDegrees>
              <LongitudeDegrees>2.63330572284758090972900390625</LongitudeDegrees>
            </Position>
            <AltitudeMeters>832.5999755859375</AltitudeMeters>
            <DistanceMeters>NAN</DistanceMeters>
          </Trackpoint>
          <Trackpoint>
            <Time>2021-04-02T07:46:05.000Z</Time>
            <Position>
              <LatitudeDegrees>42.35919398255646228790283203125</LatitudeDegrees>
              <LongitudeDegrees>2.63324034400284290313720703125</LongitudeDegrees>
            </Position>
            <AltitudeMeters>832.5999755859375</AltitudeMeters>
            <DistanceMeters>NAN</DistanceMeters>
          </Trackpoint>
          <Trackpoint>
            <Time>2021-04-02T07:46:06.000Z</Time>
            <Position>
              <LatitudeDegrees>42.359201610088348388671875</LatitudeDegrees>
              <LongitudeDegrees>2.63322609476745128631591796875</LongitudeDegrees>
            </Position>
            <AltitudeMeters>832.79998779296875</AltitudeMeters>
            <DistanceMeters>NAN</DistanceMeters>
          </Trackpoint>
          <Trackpoint>
            <Time>2021-04-02T07:46:09.000Z</Time>
            <Position>
              <LatitudeDegrees>42.35921694897115230560302734375</LatitudeDegrees>
              <LongitudeDegrees>2.633189298212528228759765625</LongitudeDegrees>
            </Position>
            <AltitudeMeters>833</AltitudeMeters>
            <DistanceMeters>NAN</DistanceMeters>
          </Trackpoint>
          <Trackpoint>
            <Time>2021-04-02T07:46:11.000Z</Time>
            <Position>
              <LatitudeDegrees>42.35921971499919891357421875</LatitudeDegrees>
              <LongitudeDegrees>2.63316222466528415679931640625</LongitudeDegrees>
            </Position>
            <AltitudeMeters>833.4000244140625</AltitudeMeters>
            <DistanceMeters>NAN</DistanceMeters>
          </Trackpoint>
          <Trackpoint>
            <Time>2021-04-02T07:46:12.000Z</Time>
            <Position>
              <LatitudeDegrees>42.3592259176075458526611328125</LatitudeDegrees>
              <LongitudeDegrees>2.6331554353237152099609375</LongitudeDegrees>
            </Position>
            <AltitudeMeters>833.4000244140625</AltitudeMeters>
            <DistanceMeters>NAN</DistanceMeters>
          </Trackpoint>
          <Trackpoint>
            <Time>2021-04-02T07:46:14.000Z</Time>
            <Position>
              <LatitudeDegrees>42.3592282645404338836669921875</LatitudeDegrees>
              <LongitudeDegrees>2.63313406147062778472900390625</LongitudeDegrees>
            </Position>
            <AltitudeMeters>833.5999755859375</AltitudeMeters>
            <DistanceMeters>NAN</DistanceMeters>
          </Trackpoint>
          <Trackpoint>
            <Time>2021-04-02T07:46:17.000Z</Time>
            <Position>
              <LatitudeDegrees>42.3592182062566280364990234375</LatitudeDegrees>
              <LongitudeDegrees>2.6330922357738018035888671875</LongitudeDegrees>
            </Position>
            <AltitudeMeters>833.5999755859375</AltitudeMeters>
            <DistanceMeters>NAN</DistanceMeters>
          </Trackpoint>
          <Trackpoint>
            <Time>2021-04-02T07:46:23.000Z</Time>
            <Position>
              <LatitudeDegrees>42.3592378199100494384765625</LatitudeDegrees>
              <LongitudeDegrees>2.63302895240485668182373046875</LongitudeDegrees>
            </Position>
            <AltitudeMeters>833.79998779296875</AltitudeMeters>
            <DistanceMeters>NAN</DistanceMeters>
          </Trackpoint>
          <Trackpoint>
            <Time>2021-04-02T07:46:24.000Z</Time>
            <Position>
              <LatitudeDegrees>42.3592378199100494384765625</LatitudeDegrees>
              <LongitudeDegrees>2.63302895240485668182373046875</LongitudeDegrees>
            </Position>
            <AltitudeMeters>833.79998779296875</AltitudeMeters>
            <DistanceMeters>NAN</DistanceMeters>
          </Trackpoint>
          <Trackpoint>
            <Time>2021-04-02T07:46:29.000Z</Time>
            <Position>
              <LatitudeDegrees>42.35926807858049869537353515625</LatitudeDegrees>
              <LongitudeDegrees>2.6329748891294002532958984375</LongitudeDegrees>
            </Position>
            <AltitudeMeters>834.20001220703125</AltitudeMeters>
            <DistanceMeters>NAN</DistanceMeters>
          </Trackpoint>
          <Trackpoint>
            <Time>2021-04-02T07:46:30.000Z</Time>
            <Position>
              <LatitudeDegrees>42.359266988933086395263671875</LatitudeDegrees>
              <LongitudeDegrees>2.6329618133604526519775390625</LongitudeDegrees>
            </Position>
            <AltitudeMeters>834.20001220703125</AltitudeMeters>
            <DistanceMeters>NAN</DistanceMeters>
          </Trackpoint>
          <Trackpoint>
            <Time>2021-04-02T07:46:34.000Z</Time>
            <Position>
              <LatitudeDegrees>42.35927528701722621917724609375</LatitudeDegrees>
              <LongitudeDegrees>2.632912695407867431640625</LongitudeDegrees>
            </Position>
            <AltitudeMeters>834.4000244140625</AltitudeMeters>
            <DistanceMeters>NAN</DistanceMeters>
          </Trackpoint>
          <Trackpoint>
            <Time>2021-04-02T07:46:35.000Z</Time>
            <Position>
              <LatitudeDegrees>42.359284423291683197021484375</LatitudeDegrees>
              <LongitudeDegrees>2.63289702124893665313720703125</LongitudeDegrees>
            </Position>
            <AltitudeMeters>834.4000244140625</AltitudeMeters>
            <DistanceMeters>NAN</DistanceMeters>
          </Trackpoint>
          <Trackpoint>
            <Time>2021-04-02T07:46:42.000Z</Time>
            <Position>
              <LatitudeDegrees>42.359304539859294891357421875</LatitudeDegrees>
              <LongitudeDegrees>2.63281420804560184478759765625</LongitudeDegrees>
            </Position>
            <AltitudeMeters>834.79998779296875</AltitudeMeters>
            <DistanceMeters>NAN</DistanceMeters>
          </Trackpoint>
          <Trackpoint>
            <Time>2021-04-02T07:46:45.000Z</Time>
            <Position>
              <LatitudeDegrees>42.3593182861804962158203125</LatitudeDegrees>
              <LongitudeDegrees>2.6327753998339176177978515625</LongitudeDegrees>
            </Position>
            <AltitudeMeters>835</AltitudeMeters>
            <DistanceMeters>NAN</DistanceMeters>
          </Trackpoint>
          <Trackpoint>
            <Time>2021-04-02T07:46:49.000Z</Time>
            <Position>
              <LatitudeDegrees>42.3593318648636341094970703125</LatitudeDegrees>
              <LongitudeDegrees>2.6327311433851718902587890625</LongitudeDegrees>
            </Position>
            <AltitudeMeters>835.20001220703125</AltitudeMeters>
            <DistanceMeters>NAN</DistanceMeters>
          </Trackpoint>
          <Trackpoint>
            <Time>2021-04-02T07:46:50.000Z</Time>
            <Position>
              <LatitudeDegrees>42.35933681018650531768798828125</LatitudeDegrees>
              <LongitudeDegrees>2.63272158801555633544921875</LongitudeDegrees>
            </Position>
            <AltitudeMeters>835.20001220703125</AltitudeMeters>
            <DistanceMeters>NAN</DistanceMeters>
          </Trackpoint>
          <Trackpoint>
            <Time>2021-04-02T07:46:51.000Z</Time>
            <Position>
              <LatitudeDegrees>42.3593425936996936798095703125</LatitudeDegrees>
              <LongitudeDegrees>2.63271362520754337310791015625</LongitudeDegrees>
            </Position>
            <AltitudeMeters>835.4000244140625</AltitudeMeters>
            <DistanceMeters>NAN</DistanceMeters>
          </Trackpoint>
          <Trackpoint>
            <Time>2021-04-02T07:46:52.000Z</Time>
            <Position>
              <LatitudeDegrees>42.359346114099025726318359375</LatitudeDegrees>
              <LongitudeDegrees>2.63270457275211811065673828125</LongitudeDegrees>
            </Position>
            <AltitudeMeters>835.4000244140625</AltitudeMeters>
            <DistanceMeters>NAN</DistanceMeters>
          </Trackpoint>
          <Trackpoint>
            <Time>2021-04-02T07:46:55.000Z</Time>
            <Position>
              <LatitudeDegrees>42.35936765559017658233642578125</LatitudeDegrees>
              <LongitudeDegrees>2.6326848752796649932861328125</LongitudeDegrees>
            </Position>
            <AltitudeMeters>835.79998779296875</AltitudeMeters>
            <DistanceMeters>NAN</DistanceMeters>
          </Trackpoint>
          <Trackpoint>
            <Time>2021-04-02T07:46:57.000Z</Time>
            <Position>
              <LatitudeDegrees>42.35937871970236301422119140625</LatitudeDegrees>
              <LongitudeDegrees>2.6326771639287471771240234375</LongitudeDegrees>
            </Position>
            <AltitudeMeters>835.79998779296875</AltitudeMeters>
            <DistanceMeters>NAN</DistanceMeters>
          </Trackpoint>
          <Trackpoint>
            <Time>2021-04-02T07:46:58.000Z</Time>
            <Position>
              <LatitudeDegrees>42.35939204692840576171875</LatitudeDegrees>
              <LongitudeDegrees>2.6326726377010345458984375</LongitudeDegrees>
            </Position>
            <AltitudeMeters>835.79998779296875</AltitudeMeters>
            <DistanceMeters>NAN</DistanceMeters>
          </Trackpoint>
          <Trackpoint>
            <Time>2021-04-02T07:47:02.000Z</Time>
            <Position>
              <LatitudeDegrees>42.35942431725561618804931640625</LatitudeDegrees>
              <LongitudeDegrees>2.6326406188309192657470703125</LongitudeDegrees>
            </Position>
            <AltitudeMeters>835.79998779296875</AltitudeMeters>
            <DistanceMeters>NAN</DistanceMeters>
          </Trackpoint>
          <Trackpoint>
            <Time>2021-04-02T07:47:04.000Z</Time>
            <Position>
              <LatitudeDegrees>42.35943655483424663543701171875</LatitudeDegrees>
              <LongitudeDegrees>2.632622011005878448486328125</LongitudeDegrees>
            </Position>
            <AltitudeMeters>835.79998779296875</AltitudeMeters>
            <DistanceMeters>NAN</DistanceMeters>
          </Trackpoint>
          <Trackpoint>
            <Time>2021-04-02T07:47:13.000Z</Time>
            <Position>
              <LatitudeDegrees>42.35948617570102214813232421875</LatitudeDegrees>
              <LongitudeDegrees>2.632548250257968902587890625</LongitudeDegrees>
            </Position>
            <AltitudeMeters>836.20001220703125</AltitudeMeters>
            <DistanceMeters>NAN</DistanceMeters>
          </Trackpoint>
          <Trackpoint>
            <Time>2021-04-02T07:47:19.000Z</Time>
            <Position>
              <LatitudeDegrees>42.35952121205627918243408203125</LatitudeDegrees>
              <LongitudeDegrees>2.6324806921184062957763671875</LongitudeDegrees>
            </Position>
            <AltitudeMeters>836.20001220703125</AltitudeMeters>
            <DistanceMeters>NAN</DistanceMeters>
          </Trackpoint>
          <Trackpoint>
            <Time>2021-04-02T07:47:23.000Z</Time>
            <Position>
              <LatitudeDegrees>42.35954761505126953125</LatitudeDegrees>
              <LongitudeDegrees>2.6324431411921977996826171875</LongitudeDegrees>
            </Position>
            <AltitudeMeters>836.4000244140625</AltitudeMeters>
            <DistanceMeters>NAN</DistanceMeters>
          </Trackpoint>
          <Trackpoint>
            <Time>2021-04-02T07:47:30.000Z</Time>
            <Position>
              <LatitudeDegrees>42.35958583652973175048828125</LatitudeDegrees>
              <LongitudeDegrees>2.63237281702458858489990234375</LongitudeDegrees>
            </Position>
            <AltitudeMeters>837</AltitudeMeters>
            <DistanceMeters>NAN</DistanceMeters>
          </Trackpoint>
          <Trackpoint>
            <Time>2021-04-02T07:47:32.000Z</Time>
            <Position>
              <LatitudeDegrees>42.35960788093507289886474609375</LatitudeDegrees>
              <LongitudeDegrees>2.63235907070338726043701171875</LongitudeDegrees>
            </Position>
            <AltitudeMeters>837</AltitudeMeters>
            <DistanceMeters>NAN</DistanceMeters>
          </Trackpoint>
          <Trackpoint>
            <Time>2021-04-02T07:47:36.000Z</Time>
            <Position>
              <LatitudeDegrees>42.3596336133778095245361328125</LatitudeDegrees>
              <LongitudeDegrees>2.6323301531374454498291015625</LongitudeDegrees>
            </Position>
            <AltitudeMeters>837.20001220703125</AltitudeMeters>
            <DistanceMeters>NAN</DistanceMeters>
          </Trackpoint>
          <Trackpoint>
            <Time>2021-04-02T07:47:41.000Z</Time>
            <Position>
              <LatitudeDegrees>42.35965280793607234954833984375</LatitudeDegrees>
              <LongitudeDegrees>2.6322788558900356292724609375</LongitudeDegrees>
            </Position>
            <AltitudeMeters>837.4000244140625</AltitudeMeters>
            <DistanceMeters>NAN</DistanceMeters>
          </Trackpoint>
          <Trackpoint>
            <Time>2021-04-02T07:47:42.000Z</Time>
            <Position>
              <LatitudeDegrees>42.35965750180184841156005859375</LatitudeDegrees>
              <LongitudeDegrees>2.63227122835814952850341796875</LongitudeDegrees>
            </Position>
            <AltitudeMeters>837.4000244140625</AltitudeMeters>
            <DistanceMeters>NAN</DistanceMeters>
          </Trackpoint>
          <Trackpoint>
            <Time>2021-04-02T07:47:44.000Z</Time>
            <Position>
              <LatitudeDegrees>42.35966739244759082794189453125</LatitudeDegrees>
              <LongitudeDegrees>2.632251195609569549560546875</LongitudeDegrees>
            </Position>
            <AltitudeMeters>837.5999755859375</AltitudeMeters>
            <DistanceMeters>NAN</DistanceMeters>
          </Trackpoint>
          <Trackpoint>
            <Time>2021-04-02T07:47:46.000Z</Time>
            <Position>
              <LatitudeDegrees>42.359682060778141021728515625</LatitudeDegrees>
              <LongitudeDegrees>2.63223032467067241668701171875</LongitudeDegrees>
            </Position>
            <AltitudeMeters>837.79998779296875</AltitudeMeters>
            <DistanceMeters>NAN</DistanceMeters>
          </Trackpoint>
          <Trackpoint>
            <Time>2021-04-02T07:47:49.000Z</Time>
            <Position>
              <LatitudeDegrees>42.35969169996678829193115234375</LatitudeDegrees>
              <LongitudeDegrees>2.63220392167568206787109375</LongitudeDegrees>
            </Position>
            <AltitudeMeters>837.79998779296875</AltitudeMeters>
            <DistanceMeters>NAN</DistanceMeters>
          </Trackpoint>
          <Trackpoint>
            <Time>2021-04-02T07:47:52.000Z</Time>
            <Position>
              <LatitudeDegrees>42.35968650318682193756103515625</LatitudeDegrees>
              <LongitudeDegrees>2.63216477818787097930908203125</LongitudeDegrees>
            </Position>
            <AltitudeMeters>838</AltitudeMeters>
            <DistanceMeters>NAN</DistanceMeters>
          </Trackpoint>
          <Trackpoint>
            <Time>2021-04-02T07:47:58.000Z</Time>
            <Position>
              <LatitudeDegrees>42.35969773493707180023193359375</LatitudeDegrees>
              <LongitudeDegrees>2.6320937834680080413818359375</LongitudeDegrees>
            </Position>
            <AltitudeMeters>838.4000244140625</AltitudeMeters>
            <DistanceMeters>NAN</DistanceMeters>
          </Trackpoint>
          <Trackpoint>
            <Time>2021-04-02T07:47:59.000Z</Time>
            <Position>
              <LatitudeDegrees>42.35970494337379932403564453125</LatitudeDegrees>
              <LongitudeDegrees>2.63208397664129734039306640625</LongitudeDegrees>
            </Position>
            <AltitudeMeters>838.5999755859375</AltitudeMeters>
            <DistanceMeters>NAN</DistanceMeters>
          </Trackpoint>
          <Trackpoint>
            <Time>2021-04-02T07:48:01.000Z</Time>
            <Position>
              <LatitudeDegrees>42.35971299000084400177001953125</LatitudeDegrees>
              <LongitudeDegrees>2.6320659555494785308837890625</LongitudeDegrees>
            </Position>
            <AltitudeMeters>838.79998779296875</AltitudeMeters>
            <DistanceMeters>NAN</DistanceMeters>
          </Trackpoint>
          <Trackpoint>
            <Time>2021-04-02T07:48:08.000Z</Time>
            <Position>
              <LatitudeDegrees>42.359702847898006439208984375</LatitudeDegrees>
              <LongitudeDegrees>2.63198255561292171478271484375</LongitudeDegrees>
            </Position>
            <AltitudeMeters>839.20001220703125</AltitudeMeters>
            <DistanceMeters>NAN</DistanceMeters>
          </Trackpoint>
          <Trackpoint>
            <Time>2021-04-02T07:48:14.000Z</Time>
            <Position>
              <LatitudeDegrees>42.35971860587596893310546875</LatitudeDegrees>
              <LongitudeDegrees>2.63193058781325817108154296875</LongitudeDegrees>
            </Position>
            <AltitudeMeters>839.79998779296875</AltitudeMeters>
            <DistanceMeters>NAN</DistanceMeters>
          </Trackpoint>
          <Trackpoint>
            <Time>2021-04-02T07:48:16.000Z</Time>
            <Position>
              <LatitudeDegrees>42.35972505994141101837158203125</LatitudeDegrees>
              <LongitudeDegrees>2.63189974240958690643310546875</LongitudeDegrees>
            </Position>
            <AltitudeMeters>840</AltitudeMeters>
            <DistanceMeters>NAN</DistanceMeters>
          </Trackpoint>
          <Trackpoint>
            <Time>2021-04-02T07:48:18.000Z</Time>
            <Position>
              <LatitudeDegrees>42.35972874797880649566650390625</LatitudeDegrees>
              <LongitudeDegrees>2.63187292031943798065185546875</LongitudeDegrees>
            </Position>
            <AltitudeMeters>840</AltitudeMeters>
            <DistanceMeters>NAN</DistanceMeters>
          </Trackpoint>
          <Trackpoint>
            <Time>2021-04-02T07:48:19.000Z</Time>
            <Position>
              <LatitudeDegrees>42.3597278259694576263427734375</LatitudeDegrees>
              <LongitudeDegrees>2.63185749761760234832763671875</LongitudeDegrees>
            </Position>
            <AltitudeMeters>840.20001220703125</AltitudeMeters>
            <DistanceMeters>NAN</DistanceMeters>
          </Trackpoint>
          <Trackpoint>
            <Time>2021-04-02T07:48:22.000Z</Time>
            <Position>
              <LatitudeDegrees>42.35974567942321300506591796875</LatitudeDegrees>
              <LongitudeDegrees>2.63182296417653560638427734375</LongitudeDegrees>
            </Position>
            <AltitudeMeters>840.5999755859375</AltitudeMeters>
            <DistanceMeters>NAN</DistanceMeters>
          </Trackpoint>
          <Trackpoint>
            <Time>2021-04-02T07:48:26.000Z</Time>
            <Position>
              <LatitudeDegrees>42.35978742130100727081298828125</LatitudeDegrees>
              <LongitudeDegrees>2.631771080195903778076171875</LongitudeDegrees>
            </Position>
            <AltitudeMeters>840.79998779296875</AltitudeMeters>
            <DistanceMeters>NAN</DistanceMeters>
          </Trackpoint>
          <Trackpoint>
            <Time>2021-04-02T07:48:29.000Z</Time>
            <Position>
              <LatitudeDegrees>42.359810136258602142333984375</LatitudeDegrees>
              <LongitudeDegrees>2.63174484483897686004638671875</LongitudeDegrees>
            </Position>
            <AltitudeMeters>841</AltitudeMeters>
            <DistanceMeters>NAN</DistanceMeters>
          </Trackpoint>
          <Trackpoint>
            <Time>2021-04-02T07:48:36.000Z</Time>
            <Position>
              <LatitudeDegrees>42.359863780438899993896484375</LatitudeDegrees>
              <LongitudeDegrees>2.63166840188205242156982421875</LongitudeDegrees>
            </Position>
            <AltitudeMeters>841.5999755859375</AltitudeMeters>
            <DistanceMeters>NAN</DistanceMeters>
          </Trackpoint>
          <Trackpoint>
            <Time>2021-04-02T07:48:39.000Z</Time>
            <Position>
              <LatitudeDegrees>42.35988029278814792633056640625</LatitudeDegrees>
              <LongitudeDegrees>2.6316334493458271026611328125</LongitudeDegrees>
            </Position>
            <AltitudeMeters>841.79998779296875</AltitudeMeters>
            <DistanceMeters>NAN</DistanceMeters>
          </Trackpoint>
          <Trackpoint>
            <Time>2021-04-02T07:48:43.000Z</Time>
            <Position>
              <LatitudeDegrees>42.35991038382053375244140625</LatitudeDegrees>
              <LongitudeDegrees>2.631603777408599853515625</LongitudeDegrees>
            </Position>
            <AltitudeMeters>842</AltitudeMeters>
            <DistanceMeters>NAN</DistanceMeters>
          </Trackpoint>
          <Trackpoint>
            <Time>2021-04-02T07:48:45.000Z</Time>
            <Position>
              <LatitudeDegrees>42.35993058420717716217041015625</LatitudeDegrees>
              <LongitudeDegrees>2.6315982453525066375732421875</LongitudeDegrees>
            </Position>
            <AltitudeMeters>842.20001220703125</AltitudeMeters>
            <DistanceMeters>NAN</DistanceMeters>
          </Trackpoint>
          <Trackpoint>
            <Time>2021-04-02T07:48:47.000Z</Time>
            <Position>
              <LatitudeDegrees>42.3599417321383953094482421875</LatitudeDegrees>
              <LongitudeDegrees>2.6315710879862308502197265625</LongitudeDegrees>
            </Position>
            <AltitudeMeters>842.20001220703125</AltitudeMeters>
            <DistanceMeters>NAN</DistanceMeters>
          </Trackpoint>
          <Trackpoint>
            <Time>2021-04-02T07:48:49.000Z</Time>
            <Position>
              <LatitudeDegrees>42.35995740629732608795166015625</LatitudeDegrees>
              <LongitudeDegrees>2.6315446011722087860107421875</LongitudeDegrees>
            </Position>
            <AltitudeMeters>842.4000244140625</AltitudeMeters>
            <DistanceMeters>NAN</DistanceMeters>
          </Trackpoint>
          <Trackpoint>
            <Time>2021-04-02T07:48:56.000Z</Time>
            <Position>
              <LatitudeDegrees>42.35999931581318378448486328125</LatitudeDegrees>
              <LongitudeDegrees>2.631483413279056549072265625</LongitudeDegrees>
            </Position>
            <AltitudeMeters>842.79998779296875</AltitudeMeters>
            <DistanceMeters>NAN</DistanceMeters>
          </Trackpoint>
          <Trackpoint>
            <Time>2021-04-02T07:48:58.000Z</Time>
            <Position>
              <LatitudeDegrees>42.36001239158213138580322265625</LatitudeDegrees>
              <LongitudeDegrees>2.63146690092980861663818359375</LongitudeDegrees>
            </Position>
            <AltitudeMeters>843</AltitudeMeters>
            <DistanceMeters>NAN</DistanceMeters>
          </Trackpoint>
          <Trackpoint>
            <Time>2021-04-02T07:49:02.000Z</Time>
            <Position>
              <LatitudeDegrees>42.3600225336849689483642578125</LatitudeDegrees>
              <LongitudeDegrees>2.63141845352947711944580078125</LongitudeDegrees>
            </Position>
            <AltitudeMeters>843</AltitudeMeters>
            <DistanceMeters>NAN</DistanceMeters>
          </Trackpoint>
          <Trackpoint>
            <Time>2021-04-02T07:49:09.000Z</Time>
            <Position>
              <LatitudeDegrees>42.36002781428396701812744140625</LatitudeDegrees>
              <LongitudeDegrees>2.6313395798206329345703125</LongitudeDegrees>
            </Position>
            <AltitudeMeters>843.5999755859375</AltitudeMeters>
            <DistanceMeters>NAN</DistanceMeters>
          </Trackpoint>
          <Trackpoint>
            <Time>2021-04-02T07:49:15.000Z</Time>
            <Position>
              <LatitudeDegrees>42.3600612580776214599609375</LatitudeDegrees>
              <LongitudeDegrees>2.631300352513790130615234375</LongitudeDegrees>
            </Position>
            <AltitudeMeters>844</AltitudeMeters>
            <DistanceMeters>NAN</DistanceMeters>
          </Trackpoint>
          <Trackpoint>
            <Time>2021-04-02T07:49:17.000Z</Time>
            <Position>
              <LatitudeDegrees>42.36007089726626873016357421875</LatitudeDegrees>
              <LongitudeDegrees>2.6312832534313201904296875</LongitudeDegrees>
            </Position>
            <AltitudeMeters>844.20001220703125</AltitudeMeters>
            <DistanceMeters>NAN</DistanceMeters>
          </Trackpoint>
          <Trackpoint>
            <Time>2021-04-02T07:49:23.000Z</Time>
            <Position>
              <LatitudeDegrees>42.36010693944990634918212890625</LatitudeDegrees>
              <LongitudeDegrees>2.63121628202497959136962890625</LongitudeDegrees>
            </Position>
            <AltitudeMeters>844.79998779296875</AltitudeMeters>
            <DistanceMeters>NAN</DistanceMeters>
          </Trackpoint>
          <Trackpoint>
            <Time>2021-04-02T07:49:24.000Z</Time>
            <Position>
              <LatitudeDegrees>42.36011029221117496490478515625</LatitudeDegrees>
              <LongitudeDegrees>2.6312049664556980133056640625</LongitudeDegrees>
            </Position>
            <AltitudeMeters>844.79998779296875</AltitudeMeters>
            <DistanceMeters>NAN</DistanceMeters>
          </Trackpoint>
          <Trackpoint>
            <Time>2021-04-02T07:49:26.000Z</Time>
            <Position>
              <LatitudeDegrees>42.36012219451367855072021484375</LatitudeDegrees>
              <LongitudeDegrees>2.631178982555866241455078125</LongitudeDegrees>
            </Position>
            <AltitudeMeters>845</AltitudeMeters>
            <DistanceMeters>NAN</DistanceMeters>
          </Trackpoint>
          <Trackpoint>
            <Time>2021-04-02T07:49:27.000Z</Time>
            <Position>
              <LatitudeDegrees>42.3601288162171840667724609375</LatitudeDegrees>
              <LongitudeDegrees>2.63116783462464809417724609375</LongitudeDegrees>
            </Position>
            <AltitudeMeters>845</AltitudeMeters>
            <DistanceMeters>NAN</DistanceMeters>
          </Trackpoint>
          <Trackpoint>
            <Time>2021-04-02T07:49:29.000Z</Time>
            <Position>
              <LatitudeDegrees>42.36013493500649929046630859375</LatitudeDegrees>
              <LongitudeDegrees>2.631142437458038330078125</LongitudeDegrees>
            </Position>
            <AltitudeMeters>845</AltitudeMeters>
            <DistanceMeters>NAN</DistanceMeters>
          </Trackpoint>
          <Trackpoint>
            <Time>2021-04-02T07:49:33.000Z</Time>
            <Position>
              <LatitudeDegrees>42.36014566384255886077880859375</LatitudeDegrees>
              <LongitudeDegrees>2.63109239749610424041748046875</LongitudeDegrees>
            </Position>
            <AltitudeMeters>845.20001220703125</AltitudeMeters>
            <DistanceMeters>NAN</DistanceMeters>
          </Trackpoint>
          <Trackpoint>
            <Time>2021-04-02T07:49:35.000Z</Time>
            <Position>
              <LatitudeDegrees>42.36014985479414463043212890625</LatitudeDegrees>
              <LongitudeDegrees>2.63106741942465305328369140625</LongitudeDegrees>
            </Position>
            <AltitudeMeters>845.4000244140625</AltitudeMeters>
            <DistanceMeters>NAN</DistanceMeters>
          </Trackpoint>
          <Trackpoint>
            <Time>2021-04-02T07:49:36.000Z</Time>
            <Position>
              <LatitudeDegrees>42.360155470669269561767578125</LatitudeDegrees>
              <LongitudeDegrees>2.63105870224535465240478515625</LongitudeDegrees>
            </Position>
            <AltitudeMeters>845.4000244140625</AltitudeMeters>
            <DistanceMeters>NAN</DistanceMeters>
          </Trackpoint>
          <Trackpoint>
            <Time>2021-04-02T07:49:40.000Z</Time>
            <Position>
              <LatitudeDegrees>42.36016829498112201690673828125</LatitudeDegrees>
              <LongitudeDegrees>2.6310165412724018096923828125</LongitudeDegrees>
            </Position>
            <AltitudeMeters>845.79998779296875</AltitudeMeters>
            <DistanceMeters>NAN</DistanceMeters>
          </Trackpoint>
          <Trackpoint>
            <Time>2021-04-02T07:49:44.000Z</Time>
            <Position>
              <LatitudeDegrees>42.3601819574832916259765625</LatitudeDegrees>
              <LongitudeDegrees>2.6309685967862606048583984375</LongitudeDegrees>
            </Position>
            <AltitudeMeters>846</AltitudeMeters>
            <DistanceMeters>NAN</DistanceMeters>
          </Trackpoint>
          <Trackpoint>
            <Time>2021-04-02T07:49:46.000Z</Time>
            <Position>
              <LatitudeDegrees>42.3601807840168476104736328125</LatitudeDegrees>
              <LongitudeDegrees>2.63094521127641201019287109375</LongitudeDegrees>
            </Position>
            <AltitudeMeters>846.4000244140625</AltitudeMeters>
            <DistanceMeters>NAN</DistanceMeters>
          </Trackpoint>
          <Trackpoint>
            <Time>2021-04-02T07:49:47.000Z</Time>
            <Position>
              <LatitudeDegrees>42.36018170602619647979736328125</LatitudeDegrees>
              <LongitudeDegrees>2.63093431480228900909423828125</LongitudeDegrees>
            </Position>
            <AltitudeMeters>846.4000244140625</AltitudeMeters>
            <DistanceMeters>NAN</DistanceMeters>
          </Trackpoint>
          <Trackpoint>
            <Time>2021-04-02T07:49:53.000Z</Time>
            <Position>
              <LatitudeDegrees>42.3601864837110042572021484375</LatitudeDegrees>
              <LongitudeDegrees>2.6308728754520416259765625</LongitudeDegrees>
            </Position>
            <AltitudeMeters>846.4000244140625</AltitudeMeters>
            <DistanceMeters>NAN</DistanceMeters>
          </Trackpoint>
          <Trackpoint>
            <Time>2021-04-02T07:50:00.000Z</Time>
            <Position>
              <LatitudeDegrees>42.36015907488763332366943359375</LatitudeDegrees>
              <LongitudeDegrees>2.6308388449251651763916015625</LongitudeDegrees>
            </Position>
            <AltitudeMeters>847</AltitudeMeters>
            <DistanceMeters>NAN</DistanceMeters>
          </Trackpoint>
          <Trackpoint>
            <Time>2021-04-02T07:50:01.000Z</Time>
            <Position>
              <LatitudeDegrees>42.3601529560983180999755859375</LatitudeDegrees>
              <LongitudeDegrees>2.63083624653518199920654296875</LongitudeDegrees>
            </Position>
            <AltitudeMeters>847</AltitudeMeters>
            <DistanceMeters>NAN</DistanceMeters>
          </Trackpoint>
          <Trackpoint>
            <Time>2021-04-02T07:50:03.000Z</Time>
            <Position>
              <LatitudeDegrees>42.3601439036428928375244140625</LatitudeDegrees>
              <LongitudeDegrees>2.63083063066005706787109375</LongitudeDegrees>
            </Position>
            <AltitudeMeters>847.20001220703125</AltitudeMeters>
            <DistanceMeters>NAN</DistanceMeters>
          </Trackpoint>
          <Trackpoint>
            <Time>2021-04-02T07:50:05.000Z</Time>
            <Position>
              <LatitudeDegrees>42.36013644374907016754150390625</LatitudeDegrees>
              <LongitudeDegrees>2.63082903809845447540283203125</LongitudeDegrees>
            </Position>
            <AltitudeMeters>847.4000244140625</AltitudeMeters>
            <DistanceMeters>NAN</DistanceMeters>
          </Trackpoint>
          <Trackpoint>
            <Time>2021-04-02T07:50:07.000Z</Time>
            <Position>
              <LatitudeDegrees>42.36011565662920475006103515625</LatitudeDegrees>
              <LongitudeDegrees>2.63082685880362987518310546875</LongitudeDegrees>
            </Position>
            <AltitudeMeters>847.4000244140625</AltitudeMeters>
            <DistanceMeters>NAN</DistanceMeters>
          </Trackpoint>
          <Trackpoint>
            <Time>2021-04-02T07:50:10.000Z</Time>
            <Position>
              <LatitudeDegrees>42.3601003177464008331298828125</LatitudeDegrees>
              <LongitudeDegrees>2.630832307040691375732421875</LongitudeDegrees>
            </Position>
            <AltitudeMeters>847.79998779296875</AltitudeMeters>
            <DistanceMeters>NAN</DistanceMeters>
          </Trackpoint>
          <Trackpoint>
            <Time>2021-04-02T07:50:14.000Z</Time>
            <Position>
              <LatitudeDegrees>42.360084056854248046875</LatitudeDegrees>
              <LongitudeDegrees>2.63083205558359622955322265625</LongitudeDegrees>
            </Position>
            <AltitudeMeters>848.20001220703125</AltitudeMeters>
            <DistanceMeters>NAN</DistanceMeters>
          </Trackpoint>
          <Trackpoint>
            <Time>2021-04-02T07:50:15.000Z</Time>
            <Position>
              <LatitudeDegrees>42.36008363775908946990966796875</LatitudeDegrees>
              <LongitudeDegrees>2.63083373196423053741455078125</LongitudeDegrees>
            </Position>
            <AltitudeMeters>848.4000244140625</AltitudeMeters>
            <DistanceMeters>NAN</DistanceMeters>
          </Trackpoint>
          <Trackpoint>
            <Time>2021-04-02T07:50:20.000Z</Time>
            <Position>
              <LatitudeDegrees>42.36005882732570171356201171875</LatitudeDegrees>
              <LongitudeDegrees>2.6308406889438629150390625</LongitudeDegrees>
            </Position>
            <AltitudeMeters>848.79998779296875</AltitudeMeters>
            <DistanceMeters>NAN</DistanceMeters>
          </Trackpoint>
          <Trackpoint>
            <Time>2021-04-02T07:50:21.000Z</Time>
            <Position>
              <LatitudeDegrees>42.36005648039281368255615234375</LatitudeDegrees>
              <LongitudeDegrees>2.63084538280963897705078125</LongitudeDegrees>
            </Position>
            <AltitudeMeters>848.79998779296875</AltitudeMeters>
            <DistanceMeters>NAN</DistanceMeters>
          </Trackpoint>
          <Trackpoint>
            <Time>2021-04-02T07:50:22.000Z</Time>
            <Position>
              <LatitudeDegrees>42.36005379818379878997802734375</LatitudeDegrees>
              <LongitudeDegrees>2.6308485679328441619873046875</LongitudeDegrees>
            </Position>
            <AltitudeMeters>848.79998779296875</AltitudeMeters>
            <DistanceMeters>NAN</DistanceMeters>
          </Trackpoint>
          <Trackpoint>
            <Time>2021-04-02T07:50:27.000Z</Time>
            <Position>
              <LatitudeDegrees>42.36002429388463497161865234375</LatitudeDegrees>
              <LongitudeDegrees>2.6308542676270008087158203125</LongitudeDegrees>
            </Position>
            <AltitudeMeters>849</AltitudeMeters>
            <DistanceMeters>NAN</DistanceMeters>
          </Trackpoint>
          <Trackpoint>
            <Time>2021-04-02T07:50:32.000Z</Time>
            <Position>
              <LatitudeDegrees>42.35998154617846012115478515625</LatitudeDegrees>
              <LongitudeDegrees>2.63085703365504741668701171875</LongitudeDegrees>
            </Position>
            <AltitudeMeters>849.4000244140625</AltitudeMeters>
            <DistanceMeters>NAN</DistanceMeters>
          </Trackpoint>
          <Trackpoint>
            <Time>2021-04-02T07:50:34.000Z</Time>
            <Position>
              <LatitudeDegrees>42.35996847040951251983642578125</LatitudeDegrees>
              <LongitudeDegrees>2.63086172752082347869873046875</LongitudeDegrees>
            </Position>
            <AltitudeMeters>849.5999755859375</AltitudeMeters>
            <DistanceMeters>NAN</DistanceMeters>
          </Trackpoint>
          <Trackpoint>
            <Time>2021-04-02T07:50:38.000Z</Time>
            <Position>
              <LatitudeDegrees>42.35994567163288593292236328125</LatitudeDegrees>
              <LongitudeDegrees>2.630871199071407318115234375</LongitudeDegrees>
            </Position>
            <AltitudeMeters>850</AltitudeMeters>
            <DistanceMeters>NAN</DistanceMeters>
          </Trackpoint>
          <Trackpoint>
            <Time>2021-04-02T07:50:42.000Z</Time>
            <Position>
              <LatitudeDegrees>42.3599092103540897369384765625</LatitudeDegrees>
              <LongitudeDegrees>2.63088419102132320404052734375</LongitudeDegrees>
            </Position>
            <AltitudeMeters>850.4000244140625</AltitudeMeters>
            <DistanceMeters>NAN</DistanceMeters>
          </Trackpoint>
          <Trackpoint>
            <Time>2021-04-02T07:50:51.000Z</Time>
            <Position>
              <LatitudeDegrees>42.35981357283890247344970703125</LatitudeDegrees>
              <LongitudeDegrees>2.6308660022914409637451171875</LongitudeDegrees>
            </Position>
            <AltitudeMeters>851.4000244140625</AltitudeMeters>
            <DistanceMeters>NAN</DistanceMeters>
          </Trackpoint>
          <Trackpoint>
            <Time>2021-04-02T07:50:53.000Z</Time>
            <Position>
              <LatitudeDegrees>42.3597985692322254180908203125</LatitudeDegrees>
              <LongitudeDegrees>2.63085166923701763153076171875</LongitudeDegrees>
            </Position>
            <AltitudeMeters>851.5999755859375</AltitudeMeters>
            <DistanceMeters>NAN</DistanceMeters>
          </Trackpoint>
          <Trackpoint>
            <Time>2021-04-02T07:50:59.000Z</Time>
            <Position>
              <LatitudeDegrees>42.3597264848649501800537109375</LatitudeDegrees>
              <LongitudeDegrees>2.63077941723167896270751953125</LongitudeDegrees>
            </Position>
            <AltitudeMeters>852</AltitudeMeters>
            <DistanceMeters>NAN</DistanceMeters>
          </Trackpoint>
          <Trackpoint>
            <Time>2021-04-02T07:51:05.000Z</Time>
            <Position>
              <LatitudeDegrees>42.35970653593540191650390625</LatitudeDegrees>
              <LongitudeDegrees>2.63072334229946136474609375</LongitudeDegrees>
            </Position>
            <AltitudeMeters>852.4000244140625</AltitudeMeters>
            <DistanceMeters>NAN</DistanceMeters>
          </Trackpoint>
          <Trackpoint>
            <Time>2021-04-02T07:51:06.000Z</Time>
            <Position>
              <LatitudeDegrees>42.3597045242786407470703125</LatitudeDegrees>
              <LongitudeDegrees>2.63071035034954547882080078125</LongitudeDegrees>
            </Position>
            <AltitudeMeters>852.5999755859375</AltitudeMeters>
            <DistanceMeters>NAN</DistanceMeters>
          </Trackpoint>
          <Trackpoint>
            <Time>2021-04-02T07:51:11.000Z</Time>
            <Position>
              <LatitudeDegrees>42.359697483479976654052734375</LatitudeDegrees>
              <LongitudeDegrees>2.6306577958166599273681640625</LongitudeDegrees>
            </Position>
            <AltitudeMeters>852.79998779296875</AltitudeMeters>
            <DistanceMeters>NAN</DistanceMeters>
          </Trackpoint>
          <Trackpoint>
            <Time>2021-04-02T07:51:12.000Z</Time>
            <Position>
              <LatitudeDegrees>42.3596916161477565765380859375</LatitudeDegrees>
              <LongitudeDegrees>2.63064899481832981109619140625</LongitudeDegrees>
            </Position>
            <AltitudeMeters>853</AltitudeMeters>
            <DistanceMeters>NAN</DistanceMeters>
          </Trackpoint>
          <Trackpoint>
            <Time>2021-04-02T07:51:13.000Z</Time>
            <Position>
              <LatitudeDegrees>42.35968641936779022216796875</LatitudeDegrees>
              <LongitudeDegrees>2.6306390203535556793212890625</LongitudeDegrees>
            </Position>
            <AltitudeMeters>853</AltitudeMeters>
            <DistanceMeters>NAN</DistanceMeters>
          </Trackpoint>
          <Trackpoint>
            <Time>2021-04-02T07:51:17.000Z</Time>
            <Position>
              <LatitudeDegrees>42.3596601001918315887451171875</LatitudeDegrees>
              <LongitudeDegrees>2.6305863820016384124755859375</LongitudeDegrees>
            </Position>
            <AltitudeMeters>853.4000244140625</AltitudeMeters>
            <DistanceMeters>NAN</DistanceMeters>
          </Trackpoint>
          <Trackpoint>
            <Time>2021-04-02T07:51:18.000Z</Time>
            <Position>
              <LatitudeDegrees>42.35966118983924388885498046875</LatitudeDegrees>
              <LongitudeDegrees>2.63057691045105457305908203125</LongitudeDegrees>
            </Position>
            <AltitudeMeters>853.4000244140625</AltitudeMeters>
            <DistanceMeters>NAN</DistanceMeters>
          </Trackpoint>
          <Trackpoint>
            <Time>2021-04-02T07:51:20.000Z</Time>
            <Position>
              <LatitudeDegrees>42.3596520535647869110107421875</LatitudeDegrees>
              <LongitudeDegrees>2.63054841198027133941650390625</LongitudeDegrees>
            </Position>
            <AltitudeMeters>853.5999755859375</AltitudeMeters>
            <DistanceMeters>NAN</DistanceMeters>
          </Trackpoint>
          <Trackpoint>
            <Time>2021-04-02T07:51:25.000Z</Time>
            <Position>
              <LatitudeDegrees>42.3596245609223842620849609375</LatitudeDegrees>
              <LongitudeDegrees>2.6304824464023113250732421875</LongitudeDegrees>
            </Position>
            <AltitudeMeters>853.79998779296875</AltitudeMeters>
            <DistanceMeters>NAN</DistanceMeters>
          </Trackpoint>
          <Trackpoint>
            <Time>2021-04-02T07:51:29.000Z</Time>
            <Position>
              <LatitudeDegrees>42.35960754565894603729248046875</LatitudeDegrees>
              <LongitudeDegrees>2.63045067898929119110107421875</LongitudeDegrees>
            </Position>
            <AltitudeMeters>853.79998779296875</AltitudeMeters>
            <DistanceMeters>NAN</DistanceMeters>
          </Trackpoint>
          <Trackpoint>
            <Time>2021-04-02T07:51:33.000Z</Time>
            <Position>
              <LatitudeDegrees>42.359592877328395843505859375</LatitudeDegrees>
              <LongitudeDegrees>2.630411200225353240966796875</LongitudeDegrees>
            </Position>
            <AltitudeMeters>854.20001220703125</AltitudeMeters>
            <DistanceMeters>NAN</DistanceMeters>
          </Trackpoint>
          <Trackpoint>
            <Time>2021-04-02T07:51:35.000Z</Time>
            <Position>
              <LatitudeDegrees>42.35958843491971492767333984375</LatitudeDegrees>
              <LongitudeDegrees>2.6303927600383758544921875</LongitudeDegrees>
            </Position>
            <AltitudeMeters>854.20001220703125</AltitudeMeters>
            <DistanceMeters>NAN</DistanceMeters>
          </Trackpoint>
          <Trackpoint>
            <Time>2021-04-02T07:51:37.000Z</Time>
            <Position>
              <LatitudeDegrees>42.3595756106078624725341796875</LatitudeDegrees>
              <LongitudeDegrees>2.63036526739597320556640625</LongitudeDegrees>
            </Position>
            <AltitudeMeters>854.4000244140625</AltitudeMeters>
            <DistanceMeters>NAN</DistanceMeters>
          </Trackpoint>
          <Trackpoint>
            <Time>2021-04-02T07:51:42.000Z</Time>
            <Position>
              <LatitudeDegrees>42.3595461063086986541748046875</LatitudeDegrees>
              <LongitudeDegrees>2.63029552996158599853515625</LongitudeDegrees>
            </Position>
            <AltitudeMeters>854.5999755859375</AltitudeMeters>
            <DistanceMeters>NAN</DistanceMeters>
          </Trackpoint>
          <Trackpoint>
            <Time>2021-04-02T07:51:43.000Z</Time>
            <Position>
              <LatitudeDegrees>42.35953831113874912261962890625</LatitudeDegrees>
              <LongitudeDegrees>2.63028270564973354339599609375</LongitudeDegrees>
            </Position>
            <AltitudeMeters>854.5999755859375</AltitudeMeters>
            <DistanceMeters>NAN</DistanceMeters>
          </Trackpoint>
          <Trackpoint>
            <Time>2021-04-02T07:51:46.000Z</Time>
            <Position>
              <LatitudeDegrees>42.35954719595611095428466796875</LatitudeDegrees>
              <LongitudeDegrees>2.6302655227482318878173828125</LongitudeDegrees>
            </Position>
            <AltitudeMeters>855</AltitudeMeters>
            <DistanceMeters>NAN</DistanceMeters>
          </Trackpoint>
          <Trackpoint>
            <Time>2021-04-02T07:51:48.000Z</Time>
            <Position>
              <LatitudeDegrees>42.35954233445227146148681640625</LatitudeDegrees>
              <LongitudeDegrees>2.6302527822554111480712890625</LongitudeDegrees>
            </Position>
            <AltitudeMeters>855</AltitudeMeters>
            <DistanceMeters>NAN</DistanceMeters>
          </Trackpoint>
          <Trackpoint>
            <Time>2021-04-02T07:51:49.000Z</Time>
            <Position>
              <LatitudeDegrees>42.35954065807163715362548828125</LatitudeDegrees>
              <LongitudeDegrees>2.6302474178373813629150390625</LongitudeDegrees>
            </Position>
            <AltitudeMeters>855.20001220703125</AltitudeMeters>
            <DistanceMeters>NAN</DistanceMeters>
          </Trackpoint>
          <Trackpoint>
            <Time>2021-04-02T07:51:51.000Z</Time>
            <Position>
              <LatitudeDegrees>42.3595451004803180694580078125</LatitudeDegrees>
              <LongitudeDegrees>2.63023576699197292327880859375</LongitudeDegrees>
            </Position>
            <AltitudeMeters>855.20001220703125</AltitudeMeters>
            <DistanceMeters>NAN</DistanceMeters>
          </Trackpoint>
          <Trackpoint>
            <Time>2021-04-02T07:51:52.000Z</Time>
            <Position>
              <LatitudeDegrees>42.359551303088665008544921875</LatitudeDegrees>
              <LongitudeDegrees>2.63022922910749912261962890625</LongitudeDegrees>
            </Position>
            <AltitudeMeters>855.20001220703125</AltitudeMeters>
            <DistanceMeters>NAN</DistanceMeters>
          </Trackpoint>
          <Trackpoint>
            <Time>2021-04-02T07:51:55.000Z</Time>
            <Position>
              <LatitudeDegrees>42.35955708660185337066650390625</LatitudeDegrees>
              <LongitudeDegrees>2.63020525686442852020263671875</LongitudeDegrees>
            </Position>
            <AltitudeMeters>855.4000244140625</AltitudeMeters>
            <DistanceMeters>NAN</DistanceMeters>
          </Trackpoint>
          <Trackpoint>
            <Time>2021-04-02T07:52:00.000Z</Time>
            <Position>
              <LatitudeDegrees>42.35953898169100284576416015625</LatitudeDegrees>
              <LongitudeDegrees>2.63013836927711963653564453125</LongitudeDegrees>
            </Position>
            <AltitudeMeters>855.79998779296875</AltitudeMeters>
            <DistanceMeters>NAN</DistanceMeters>
          </Trackpoint>
          <Trackpoint>
            <Time>2021-04-02T07:52:01.000Z</Time>
            <Position>
              <LatitudeDegrees>42.3595350421965122222900390625</LatitudeDegrees>
              <LongitudeDegrees>2.6301190070807933807373046875</LongitudeDegrees>
            </Position>
            <AltitudeMeters>855.79998779296875</AltitudeMeters>
            <DistanceMeters>NAN</DistanceMeters>
          </Trackpoint>
          <Trackpoint>
            <Time>2021-04-02T07:52:07.000Z</Time>
            <Position>
              <LatitudeDegrees>42.35952439717948436737060546875</LatitudeDegrees>
              <LongitudeDegrees>2.63002722524106502532958984375</LongitudeDegrees>
            </Position>
            <AltitudeMeters>856.20001220703125</AltitudeMeters>
            <DistanceMeters>NAN</DistanceMeters>
          </Trackpoint>
          <Trackpoint>
            <Time>2021-04-02T07:52:14.000Z</Time>
            <Position>
              <LatitudeDegrees>42.3594941385090351104736328125</LatitudeDegrees>
              <LongitudeDegrees>2.62995564378798007965087890625</LongitudeDegrees>
            </Position>
            <AltitudeMeters>856.5999755859375</AltitudeMeters>
            <DistanceMeters>NAN</DistanceMeters>
          </Trackpoint>
          <Trackpoint>
            <Time>2021-04-02T07:52:15.000Z</Time>
            <Position>
              <LatitudeDegrees>42.3594847507774829864501953125</LatitudeDegrees>
              <LongitudeDegrees>2.62994390912353992462158203125</LongitudeDegrees>
            </Position>
            <AltitudeMeters>856.5999755859375</AltitudeMeters>
            <DistanceMeters>NAN</DistanceMeters>
          </Trackpoint>
          <Trackpoint>
            <Time>2021-04-02T07:52:19.000Z</Time>
            <Position>
              <LatitudeDegrees>42.3594411648809909820556640625</LatitudeDegrees>
              <LongitudeDegrees>2.62990283779799938201904296875</LongitudeDegrees>
            </Position>
            <AltitudeMeters>856.79998779296875</AltitudeMeters>
            <DistanceMeters>NAN</DistanceMeters>
          </Trackpoint>
          <Trackpoint>
            <Time>2021-04-02T07:52:21.000Z</Time>
            <Position>
              <LatitudeDegrees>42.359424568712711334228515625</LatitudeDegrees>
              <LongitudeDegrees>2.62987819500267505645751953125</LongitudeDegrees>
            </Position>
            <AltitudeMeters>857</AltitudeMeters>
            <DistanceMeters>NAN</DistanceMeters>
          </Trackpoint>
          <Trackpoint>
            <Time>2021-04-02T07:52:26.000Z</Time>
            <Position>
              <LatitudeDegrees>42.35939548350870609283447265625</LatitudeDegrees>
              <LongitudeDegrees>2.6298430748283863067626953125</LongitudeDegrees>
            </Position>
            <AltitudeMeters>857.4000244140625</AltitudeMeters>
            <DistanceMeters>NAN</DistanceMeters>
          </Trackpoint>
          <Trackpoint>
            <Time>2021-04-02T07:52:28.000Z</Time>
            <Position>
              <LatitudeDegrees>42.3593925498425960540771484375</LatitudeDegrees>
              <LongitudeDegrees>2.629825137555599212646484375</LongitudeDegrees>
            </Position>
            <AltitudeMeters>857.5999755859375</AltitudeMeters>
            <DistanceMeters>NAN</DistanceMeters>
          </Trackpoint>
          <Trackpoint>
            <Time>2021-04-02T07:52:32.000Z</Time>
            <Position>
              <LatitudeDegrees>42.35939263366162776947021484375</LatitudeDegrees>
              <LongitudeDegrees>2.6297377981245517730712890625</LongitudeDegrees>
            </Position>
            <AltitudeMeters>857.79998779296875</AltitudeMeters>
            <DistanceMeters>NAN</DistanceMeters>
          </Trackpoint>
          <Trackpoint>
            <Time>2021-04-02T07:52:35.000Z</Time>
            <Position>
              <LatitudeDegrees>42.3594041168689727783203125</LatitudeDegrees>
              <LongitudeDegrees>2.6296754367649555206298828125</LongitudeDegrees>
            </Position>
            <AltitudeMeters>857.79998779296875</AltitudeMeters>
            <DistanceMeters>NAN</DistanceMeters>
          </Trackpoint>
          <Trackpoint>
            <Time>2021-04-02T07:52:36.000Z</Time>
            <Position>
              <LatitudeDegrees>42.3594019375741481781005859375</LatitudeDegrees>
              <LongitudeDegrees>2.6296543143689632415771484375</LongitudeDegrees>
            </Position>
            <AltitudeMeters>858</AltitudeMeters>
            <DistanceMeters>NAN</DistanceMeters>
          </Trackpoint>
          <Trackpoint>
            <Time>2021-04-02T07:52:37.000Z</Time>
            <Position>
              <LatitudeDegrees>42.359399758279323577880859375</LatitudeDegrees>
              <LongitudeDegrees>2.629638724029064178466796875</LongitudeDegrees>
            </Position>
            <AltitudeMeters>858</AltitudeMeters>
            <DistanceMeters>NAN</DistanceMeters>
          </Trackpoint>
          <Trackpoint>
            <Time>2021-04-02T07:52:41.000Z</Time>
            <Position>
              <LatitudeDegrees>42.35941819846630096435546875</LatitudeDegrees>
              <LongitudeDegrees>2.629597149789333343505859375</LongitudeDegrees>
            </Position>
            <AltitudeMeters>858.4000244140625</AltitudeMeters>
            <DistanceMeters>NAN</DistanceMeters>
          </Trackpoint>
          <Trackpoint>
            <Time>2021-04-02T07:52:44.000Z</Time>
            <Position>
              <LatitudeDegrees>42.359445355832576751708984375</LatitudeDegrees>
              <LongitudeDegrees>2.6295587606728076934814453125</LongitudeDegrees>
            </Position>
            <AltitudeMeters>858.4000244140625</AltitudeMeters>
            <DistanceMeters>NAN</DistanceMeters>
          </Trackpoint>
          <Trackpoint>
            <Time>2021-04-02T07:52:47.000Z</Time>
            <Position>
              <LatitudeDegrees>42.3594658076763153076171875</LatitudeDegrees>
              <LongitudeDegrees>2.62952481396496295928955078125</LongitudeDegrees>
            </Position>
            <AltitudeMeters>858.5999755859375</AltitudeMeters>
            <DistanceMeters>NAN</DistanceMeters>
          </Trackpoint>
          <Trackpoint>
            <Time>2021-04-02T07:52:51.000Z</Time>
            <Position>
              <LatitudeDegrees>42.359490282833576202392578125</LatitudeDegrees>
              <LongitudeDegrees>2.62947636656463146209716796875</LongitudeDegrees>
            </Position>
            <AltitudeMeters>859</AltitudeMeters>
            <DistanceMeters>NAN</DistanceMeters>
          </Trackpoint>
          <Trackpoint>
            <Time>2021-04-02T07:52:52.000Z</Time>
            <Position>
              <LatitudeDegrees>42.35949472524225711822509765625</LatitudeDegrees>
              <LongitudeDegrees>2.62946681119501590728759765625</LongitudeDegrees>
            </Position>
            <AltitudeMeters>859</AltitudeMeters>
            <DistanceMeters>NAN</DistanceMeters>
          </Trackpoint>
          <Trackpoint>
            <Time>2021-04-02T07:52:53.000Z</Time>
            <Position>
              <LatitudeDegrees>42.3595018498599529266357421875</LatitudeDegrees>
              <LongitudeDegrees>2.62945490889251232147216796875</LongitudeDegrees>
            </Position>
            <AltitudeMeters>859</AltitudeMeters>
            <DistanceMeters>NAN</DistanceMeters>
          </Trackpoint>
          <Trackpoint>
            <Time>2021-04-02T07:52:57.000Z</Time>
            <Position>
              <LatitudeDegrees>42.359535880386829376220703125</LatitudeDegrees>
              <LongitudeDegrees>2.62941534630954265594482421875</LongitudeDegrees>
            </Position>
            <AltitudeMeters>859.4000244140625</AltitudeMeters>
            <DistanceMeters>NAN</DistanceMeters>
          </Trackpoint>
          <Trackpoint>
            <Time>2021-04-02T07:52:59.000Z</Time>
            <Position>
              <LatitudeDegrees>42.3595548234879970550537109375</LatitudeDegrees>
              <LongitudeDegrees>2.629395313560962677001953125</LongitudeDegrees>
            </Position>
            <AltitudeMeters>859.5999755859375</AltitudeMeters>
            <DistanceMeters>NAN</DistanceMeters>
          </Trackpoint>
          <Trackpoint>
            <Time>2021-04-02T07:53:05.000Z</Time>
            <Position>
              <LatitudeDegrees>42.35958692617714405059814453125</LatitudeDegrees>
              <LongitudeDegrees>2.6293394900858402252197265625</LongitudeDegrees>
            </Position>
            <AltitudeMeters>860</AltitudeMeters>
            <DistanceMeters>NAN</DistanceMeters>
          </Trackpoint>
          <Trackpoint>
            <Time>2021-04-02T07:53:06.000Z</Time>
            <Position>
              <LatitudeDegrees>42.3595950566232204437255859375</LatitudeDegrees>
              <LongitudeDegrees>2.6293260790407657623291015625</LongitudeDegrees>
            </Position>
            <AltitudeMeters>860</AltitudeMeters>
            <DistanceMeters>NAN</DistanceMeters>
          </Trackpoint>
          <Trackpoint>
            <Time>2021-04-02T07:53:07.000Z</Time>
            <Position>
              <LatitudeDegrees>42.35960167832672595977783203125</LatitudeDegrees>
              <LongitudeDegrees>2.6293163560330867767333984375</LongitudeDegrees>
            </Position>
            <AltitudeMeters>860.20001220703125</AltitudeMeters>
            <DistanceMeters>NAN</DistanceMeters>
          </Trackpoint>
          <Trackpoint>
            <Time>2021-04-02T07:53:09.000Z</Time>
            <Position>
              <LatitudeDegrees>42.35960863530635833740234375</LatitudeDegrees>
              <LongitudeDegrees>2.62929439544677734375</LongitudeDegrees>
            </Position>
            <AltitudeMeters>860.20001220703125</AltitudeMeters>
            <DistanceMeters>NAN</DistanceMeters>
          </Trackpoint>
          <Trackpoint>
            <Time>2021-04-02T07:53:10.000Z</Time>
            <Position>
              <LatitudeDegrees>42.35961358062922954559326171875</LatitudeDegrees>
              <LongitudeDegrees>2.62928576208651065826416015625</LongitudeDegrees>
            </Position>
            <AltitudeMeters>860.4000244140625</AltitudeMeters>
            <DistanceMeters>NAN</DistanceMeters>
          </Trackpoint>
          <Trackpoint>
            <Time>2021-04-02T07:53:14.000Z</Time>
            <Position>
              <LatitudeDegrees>42.35965062864124774932861328125</LatitudeDegrees>
              <LongitudeDegrees>2.6292482949793338775634765625</LongitudeDegrees>
            </Position>
            <AltitudeMeters>860.5999755859375</AltitudeMeters>
            <DistanceMeters>NAN</DistanceMeters>
          </Trackpoint>
          <Trackpoint>
            <Time>2021-04-02T07:53:17.000Z</Time>
            <Position>
              <LatitudeDegrees>42.35967644490301609039306640625</LatitudeDegrees>
              <LongitudeDegrees>2.6292177848517894744873046875</LongitudeDegrees>
            </Position>
            <AltitudeMeters>860.79998779296875</AltitudeMeters>
            <DistanceMeters>NAN</DistanceMeters>
          </Trackpoint>
          <Trackpoint>
            <Time>2021-04-02T07:53:20.000Z</Time>
            <Position>
              <LatitudeDegrees>42.35971055924892425537109375</LatitudeDegrees>
              <LongitudeDegrees>2.62919758446514606475830078125</LongitudeDegrees>
            </Position>
            <AltitudeMeters>861</AltitudeMeters>
            <DistanceMeters>NAN</DistanceMeters>
          </Trackpoint>
          <Trackpoint>
            <Time>2021-04-02T07:53:21.000Z</Time>
            <Position>
              <LatitudeDegrees>42.35971919260919094085693359375</LatitudeDegrees>
              <LongitudeDegrees>2.62918903492391109466552734375</LongitudeDegrees>
            </Position>
            <AltitudeMeters>861.20001220703125</AltitudeMeters>
            <DistanceMeters>NAN</DistanceMeters>
          </Trackpoint>
          <Trackpoint>
            <Time>2021-04-02T07:53:26.000Z</Time>
            <Position>
              <LatitudeDegrees>42.35976227559149265289306640625</LatitudeDegrees>
              <LongitudeDegrees>2.62914829887449741363525390625</LongitudeDegrees>
            </Position>
            <AltitudeMeters>861.4000244140625</AltitudeMeters>
            <DistanceMeters>NAN</DistanceMeters>
          </Trackpoint>
          <Trackpoint>
            <Time>2021-04-02T07:53:28.000Z</Time>
            <Position>
              <LatitudeDegrees>42.35977183096110820770263671875</LatitudeDegrees>
              <LongitudeDegrees>2.62912608683109283447265625</LongitudeDegrees>
            </Position>
            <AltitudeMeters>861.5999755859375</AltitudeMeters>
            <DistanceMeters>NAN</DistanceMeters>
          </Trackpoint>
          <Trackpoint>
            <Time>2021-04-02T07:53:30.000Z</Time>
            <Position>
              <LatitudeDegrees>42.3597767762839794158935546875</LatitudeDegrees>
              <LongitudeDegrees>2.62910253368318080902099609375</LongitudeDegrees>
            </Position>
            <AltitudeMeters>861.79998779296875</AltitudeMeters>
            <DistanceMeters>NAN</DistanceMeters>
          </Trackpoint>
          <Trackpoint>
            <Time>2021-04-02T07:53:31.000Z</Time>
            <Position>
              <LatitudeDegrees>42.35977769829332828521728515625</LatitudeDegrees>
              <LongitudeDegrees>2.62909130193293094635009765625</LongitudeDegrees>
            </Position>
            <AltitudeMeters>861.79998779296875</AltitudeMeters>
            <DistanceMeters>NAN</DistanceMeters>
          </Trackpoint>
          <Trackpoint>
            <Time>2021-04-02T07:53:34.000Z</Time>
            <Position>
              <LatitudeDegrees>42.35979144461452960968017578125</LatitudeDegrees>
              <LongitudeDegrees>2.629063390195369720458984375</LongitudeDegrees>
            </Position>
            <AltitudeMeters>862</AltitudeMeters>
            <DistanceMeters>NAN</DistanceMeters>
          </Trackpoint>
          <Trackpoint>
            <Time>2021-04-02T07:53:36.000Z</Time>
            <Position>
              <LatitudeDegrees>42.35980267636477947235107421875</LatitudeDegrees>
              <LongitudeDegrees>2.62902843765914440155029296875</LongitudeDegrees>
            </Position>
            <AltitudeMeters>862</AltitudeMeters>
            <DistanceMeters>NAN</DistanceMeters>
          </Trackpoint>
          <Trackpoint>
            <Time>2021-04-02T07:53:37.000Z</Time>
            <Position>
              <LatitudeDegrees>42.359807789325714111328125</LatitudeDegrees>
              <LongitudeDegrees>2.62901100330054759979248046875</LongitudeDegrees>
            </Position>
            <AltitudeMeters>862.20001220703125</AltitudeMeters>
            <DistanceMeters>NAN</DistanceMeters>
          </Trackpoint>
          <Trackpoint>
            <Time>2021-04-02T07:53:39.000Z</Time>
            <Position>
              <LatitudeDegrees>42.35981860198080539703369140625</LatitudeDegrees>
              <LongitudeDegrees>2.62897764332592487335205078125</LongitudeDegrees>
            </Position>
            <AltitudeMeters>862.20001220703125</AltitudeMeters>
            <DistanceMeters>NAN</DistanceMeters>
          </Trackpoint>
          <Trackpoint>
            <Time>2021-04-02T07:53:43.000Z</Time>
            <Position>
              <LatitudeDegrees>42.359838970005512237548828125</LatitudeDegrees>
              <LongitudeDegrees>2.6289363205432891845703125</LongitudeDegrees>
            </Position>
            <AltitudeMeters>862.5999755859375</AltitudeMeters>
            <DistanceMeters>NAN</DistanceMeters>
          </Trackpoint>
          <Trackpoint>
            <Time>2021-04-02T07:53:47.000Z</Time>
            <Position>
              <LatitudeDegrees>42.35986587591469287872314453125</LatitudeDegrees>
              <LongitudeDegrees>2.62890706770122051239013671875</LongitudeDegrees>
            </Position>
            <AltitudeMeters>863</AltitudeMeters>
            <DistanceMeters>NAN</DistanceMeters>
          </Trackpoint>
          <Trackpoint>
            <Time>2021-04-02T07:53:50.000Z</Time>
            <Position>
              <LatitudeDegrees>42.35988046042621135711669921875</LatitudeDegrees>
              <LongitudeDegrees>2.62887454591691493988037109375</LongitudeDegrees>
            </Position>
            <AltitudeMeters>863.20001220703125</AltitudeMeters>
            <DistanceMeters>NAN</DistanceMeters>
          </Trackpoint>
          <Trackpoint>
            <Time>2021-04-02T07:53:52.000Z</Time>
            <Position>
              <LatitudeDegrees>42.3598944582045078277587890625</LatitudeDegrees>
              <LongitudeDegrees>2.62885518372058868408203125</LongitudeDegrees>
            </Position>
            <AltitudeMeters>863.20001220703125</AltitudeMeters>
            <DistanceMeters>NAN</DistanceMeters>
          </Trackpoint>
          <Trackpoint>
            <Time>2021-04-02T07:53:54.000Z</Time>
            <Position>
              <LatitudeDegrees>42.35990636050701141357421875</LatitudeDegrees>
              <LongitudeDegrees>2.62883397750556468963623046875</LongitudeDegrees>
            </Position>
            <AltitudeMeters>863.4000244140625</AltitudeMeters>
            <DistanceMeters>NAN</DistanceMeters>
          </Trackpoint>
          <Trackpoint>
            <Time>2021-04-02T07:54:00.000Z</Time>
            <Position>
              <LatitudeDegrees>42.359910719096660614013671875</LatitudeDegrees>
              <LongitudeDegrees>2.6287202350795269012451171875</LongitudeDegrees>
            </Position>
            <AltitudeMeters>863.79998779296875</AltitudeMeters>
            <DistanceMeters>NAN</DistanceMeters>
          </Trackpoint>
          <Trackpoint>
            <Time>2021-04-02T07:54:01.000Z</Time>
            <Position>
              <LatitudeDegrees>42.3599132336676120758056640625</LatitudeDegrees>
              <LongitudeDegrees>2.6287064887583255767822265625</LongitudeDegrees>
            </Position>
            <AltitudeMeters>863.79998779296875</AltitudeMeters>
            <DistanceMeters>NAN</DistanceMeters>
          </Trackpoint>
          <Trackpoint>
            <Time>2021-04-02T07:54:03.000Z</Time>
            <Position>
              <LatitudeDegrees>42.359921447932720184326171875</LatitudeDegrees>
              <LongitudeDegrees>2.62868092395365238189697265625</LongitudeDegrees>
            </Position>
            <AltitudeMeters>864</AltitudeMeters>
            <DistanceMeters>NAN</DistanceMeters>
          </Trackpoint>
          <Trackpoint>
            <Time>2021-04-02T07:54:07.000Z</Time>
            <Position>
              <LatitudeDegrees>42.35993091948330402374267578125</LatitudeDegrees>
              <LongitudeDegrees>2.62862694449722766876220703125</LongitudeDegrees>
            </Position>
            <AltitudeMeters>864.20001220703125</AltitudeMeters>
            <DistanceMeters>NAN</DistanceMeters>
          </Trackpoint>
          <Trackpoint>
            <Time>2021-04-02T07:54:10.000Z</Time>
            <Position>
              <LatitudeDegrees>42.3599340207874774932861328125</LatitudeDegrees>
              <LongitudeDegrees>2.6285854540765285491943359375</LongitudeDegrees>
            </Position>
            <AltitudeMeters>864.4000244140625</AltitudeMeters>
            <DistanceMeters>NAN</DistanceMeters>
          </Trackpoint>
          <Trackpoint>
            <Time>2021-04-02T07:54:13.000Z</Time>
            <Position>
              <LatitudeDegrees>42.35994483344256877899169921875</LatitudeDegrees>
              <LongitudeDegrees>2.62855251319706439971923828125</LongitudeDegrees>
            </Position>
            <AltitudeMeters>864.4000244140625</AltitudeMeters>
            <DistanceMeters>NAN</DistanceMeters>
          </Trackpoint>
          <Trackpoint>
            <Time>2021-04-02T07:54:16.000Z</Time>
            <Position>
              <LatitudeDegrees>42.35994013957679271697998046875</LatitudeDegrees>
              <LongitudeDegrees>2.628516890108585357666015625</LongitudeDegrees>
            </Position>
            <AltitudeMeters>864.79998779296875</AltitudeMeters>
            <DistanceMeters>NAN</DistanceMeters>
          </Trackpoint>
          <Trackpoint>
            <Time>2021-04-02T07:54:17.000Z</Time>
            <Position>
              <LatitudeDegrees>42.3599450848996639251708984375</LatitudeDegrees>
              <LongitudeDegrees>2.62850523926317691802978515625</LongitudeDegrees>
            </Position>
            <AltitudeMeters>864.79998779296875</AltitudeMeters>
            <DistanceMeters>NAN</DistanceMeters>
          </Trackpoint>
          <Trackpoint>
            <Time>2021-04-02T07:54:22.000Z</Time>
            <Position>
              <LatitudeDegrees>42.35990460030734539031982421875</LatitudeDegrees>
              <LongitudeDegrees>2.62844874523580074310302734375</LongitudeDegrees>
            </Position>
            <AltitudeMeters>865.20001220703125</AltitudeMeters>
            <DistanceMeters>NAN</DistanceMeters>
          </Trackpoint>
          <Trackpoint>
            <Time>2021-04-02T07:54:25.000Z</Time>
            <Position>
              <LatitudeDegrees>42.35990325920283794403076171875</LatitudeDegrees>
              <LongitudeDegrees>2.62842259369790554046630859375</LongitudeDegrees>
            </Position>
            <AltitudeMeters>865.20001220703125</AltitudeMeters>
            <DistanceMeters>NAN</DistanceMeters>
          </Trackpoint>
          <Trackpoint>
            <Time>2021-04-02T07:54:26.000Z</Time>
            <Position>
              <LatitudeDegrees>42.35990703105926513671875</LatitudeDegrees>
              <LongitudeDegrees>2.6284141279757022857666015625</LongitudeDegrees>
            </Position>
            <AltitudeMeters>865.20001220703125</AltitudeMeters>
            <DistanceMeters>NAN</DistanceMeters>
          </Trackpoint>
          <Trackpoint>
            <Time>2021-04-02T07:54:28.000Z</Time>
            <Position>
              <LatitudeDegrees>42.3599021695554256439208984375</LatitudeDegrees>
              <LongitudeDegrees>2.628393508493900299072265625</LongitudeDegrees>
            </Position>
            <AltitudeMeters>865.4000244140625</AltitudeMeters>
            <DistanceMeters>NAN</DistanceMeters>
          </Trackpoint>
          <Trackpoint>
            <Time>2021-04-02T07:54:32.000Z</Time>
            <Position>
              <LatitudeDegrees>42.3598895967006683349609375</LatitudeDegrees>
              <LongitudeDegrees>2.62835687957704067230224609375</LongitudeDegrees>
            </Position>
            <AltitudeMeters>865.5999755859375</AltitudeMeters>
            <DistanceMeters>NAN</DistanceMeters>
          </Trackpoint>
          <Trackpoint>
            <Time>2021-04-02T07:54:33.000Z</Time>
            <Position>
              <LatitudeDegrees>42.35988783650100231170654296875</LatitudeDegrees>
              <LongitudeDegrees>2.628348581492900848388671875</LongitudeDegrees>
            </Position>
            <AltitudeMeters>865.79998779296875</AltitudeMeters>
            <DistanceMeters>NAN</DistanceMeters>
          </Trackpoint>
          <Trackpoint>
            <Time>2021-04-02T07:54:42.000Z</Time>
            <Position>
              <LatitudeDegrees>42.35987073741853237152099609375</LatitudeDegrees>
              <LongitudeDegrees>2.6282552070915699005126953125</LongitudeDegrees>
            </Position>
            <AltitudeMeters>866.4000244140625</AltitudeMeters>
            <DistanceMeters>NAN</DistanceMeters>
          </Trackpoint>
          <Trackpoint>
            <Time>2021-04-02T07:54:43.000Z</Time>
            <Position>
              <LatitudeDegrees>42.3598679713904857635498046875</LatitudeDegrees>
              <LongitudeDegrees>2.62824405916035175323486328125</LongitudeDegrees>
            </Position>
            <AltitudeMeters>866.5999755859375</AltitudeMeters>
            <DistanceMeters>NAN</DistanceMeters>
          </Trackpoint>
          <Trackpoint>
            <Time>2021-04-02T07:54:51.000Z</Time>
            <Position>
              <LatitudeDegrees>42.35984659753739833831787109375</LatitudeDegrees>
              <LongitudeDegrees>2.62814498506486415863037109375</LongitudeDegrees>
            </Position>
            <AltitudeMeters>867.20001220703125</AltitudeMeters>
            <DistanceMeters>NAN</DistanceMeters>
          </Trackpoint>
          <Trackpoint>
            <Time>2021-04-02T07:54:53.000Z</Time>
            <Position>
              <LatitudeDegrees>42.3598434962332248687744140625</LatitudeDegrees>
              <LongitudeDegrees>2.628122270107269287109375</LongitudeDegrees>
            </Position>
            <AltitudeMeters>867.4000244140625</AltitudeMeters>
            <DistanceMeters>NAN</DistanceMeters>
          </Trackpoint>
          <Trackpoint>
            <Time>2021-04-02T07:54:55.000Z</Time>
            <Position>
              <LatitudeDegrees>42.35983251594007015228271484375</LatitudeDegrees>
              <LongitudeDegrees>2.62810944579541683197021484375</LongitudeDegrees>
            </Position>
            <AltitudeMeters>867.5999755859375</AltitudeMeters>
            <DistanceMeters>NAN</DistanceMeters>
          </Trackpoint>
          <Trackpoint>
            <Time>2021-04-02T07:54:57.000Z</Time>
            <Position>
              <LatitudeDegrees>42.35982312820851802825927734375</LatitudeDegrees>
              <LongitudeDegrees>2.628091759979724884033203125</LongitudeDegrees>
            </Position>
            <AltitudeMeters>867.5999755859375</AltitudeMeters>
            <DistanceMeters>NAN</DistanceMeters>
          </Trackpoint>
          <Trackpoint>
            <Time>2021-04-02T07:55:00.000Z</Time>
            <Position>
              <LatitudeDegrees>42.35981591977179050445556640625</LatitudeDegrees>
              <LongitudeDegrees>2.628062926232814788818359375</LongitudeDegrees>
            </Position>
            <AltitudeMeters>867.79998779296875</AltitudeMeters>
            <DistanceMeters>NAN</DistanceMeters>
          </Trackpoint>
          <Trackpoint>
            <Time>2021-04-02T07:55:01.000Z</Time>
            <Position>
              <LatitudeDegrees>42.35981172882020473480224609375</LatitudeDegrees>
              <LongitudeDegrees>2.628055550158023834228515625</LongitudeDegrees>
            </Position>
            <AltitudeMeters>867.79998779296875</AltitudeMeters>
            <DistanceMeters>NAN</DistanceMeters>
          </Trackpoint>
          <Trackpoint>
            <Time>2021-04-02T07:55:04.000Z</Time>
            <Position>
              <LatitudeDegrees>42.3597918637096881866455078125</LatitudeDegrees>
              <LongitudeDegrees>2.62802512384951114654541015625</LongitudeDegrees>
            </Position>
            <AltitudeMeters>868</AltitudeMeters>
            <DistanceMeters>NAN</DistanceMeters>
          </Trackpoint>
          <Trackpoint>
            <Time>2021-04-02T07:55:07.000Z</Time>
            <Position>
              <LatitudeDegrees>42.35978038050234317779541015625</LatitudeDegrees>
              <LongitudeDegrees>2.62799880467355251312255859375</LongitudeDegrees>
            </Position>
            <AltitudeMeters>868.4000244140625</AltitudeMeters>
            <DistanceMeters>NAN</DistanceMeters>
          </Trackpoint>
          <Trackpoint>
            <Time>2021-04-02T07:55:09.000Z</Time>
            <Position>
              <LatitudeDegrees>42.35976931639015674591064453125</LatitudeDegrees>
              <LongitudeDegrees>2.62797952629625797271728515625</LongitudeDegrees>
            </Position>
            <AltitudeMeters>868.5999755859375</AltitudeMeters>
            <DistanceMeters>NAN</DistanceMeters>
          </Trackpoint>
          <Trackpoint>
            <Time>2021-04-02T07:55:12.000Z</Time>
            <Position>
              <LatitudeDegrees>42.3597496189177036285400390625</LatitudeDegrees>
              <LongitudeDegrees>2.627945579588413238525390625</LongitudeDegrees>
            </Position>
            <AltitudeMeters>868.79998779296875</AltitudeMeters>
            <DistanceMeters>NAN</DistanceMeters>
          </Trackpoint>
          <Trackpoint>
            <Time>2021-04-02T07:55:14.000Z</Time>
            <Position>
              <LatitudeDegrees>42.35973729752004146575927734375</LatitudeDegrees>
              <LongitudeDegrees>2.62791766785085201263427734375</LongitudeDegrees>
            </Position>
            <AltitudeMeters>869</AltitudeMeters>
            <DistanceMeters>NAN</DistanceMeters>
          </Trackpoint>
          <Trackpoint>
            <Time>2021-04-02T07:55:15.000Z</Time>
            <Position>
              <LatitudeDegrees>42.35973595641553401947021484375</LatitudeDegrees>
              <LongitudeDegrees>2.62790442444384098052978515625</LongitudeDegrees>
            </Position>
            <AltitudeMeters>869.20001220703125</AltitudeMeters>
            <DistanceMeters>NAN</DistanceMeters>
          </Trackpoint>
          <Trackpoint>
            <Time>2021-04-02T07:55:19.000Z</Time>
            <Position>
              <LatitudeDegrees>42.359721623361110687255859375</LatitudeDegrees>
              <LongitudeDegrees>2.62784960679709911346435546875</LongitudeDegrees>
            </Position>
            <AltitudeMeters>869.5999755859375</AltitudeMeters>
            <DistanceMeters>NAN</DistanceMeters>
          </Trackpoint>
          <Trackpoint>
            <Time>2021-04-02T07:55:20.000Z</Time>
            <Position>
              <LatitudeDegrees>42.359716594219207763671875</LatitudeDegrees>
              <LongitudeDegrees>2.6278351061046123504638671875</LongitudeDegrees>
            </Position>
            <AltitudeMeters>869.79998779296875</AltitudeMeters>
            <DistanceMeters>NAN</DistanceMeters>
          </Trackpoint>
          <Trackpoint>
            <Time>2021-04-02T07:55:22.000Z</Time>
            <Position>
              <LatitudeDegrees>42.35971114598214626312255859375</LatitudeDegrees>
              <LongitudeDegrees>2.6278119720518589019775390625</LongitudeDegrees>
            </Position>
            <AltitudeMeters>869.79998779296875</AltitudeMeters>
            <DistanceMeters>NAN</DistanceMeters>
          </Trackpoint>
          <Trackpoint>
            <Time>2021-04-02T07:55:23.000Z</Time>
            <Position>
              <LatitudeDegrees>42.3597093857824802398681640625</LatitudeDegrees>
              <LongitudeDegrees>2.62779780663549900054931640625</LongitudeDegrees>
            </Position>
            <AltitudeMeters>869.79998779296875</AltitudeMeters>
            <DistanceMeters>NAN</DistanceMeters>
          </Trackpoint>
          <Trackpoint>
            <Time>2021-04-02T07:55:24.000Z</Time>
            <Position>
              <LatitudeDegrees>42.359707541763782501220703125</LatitudeDegrees>
              <LongitudeDegrees>2.62778204865753650665283203125</LongitudeDegrees>
            </Position>
            <AltitudeMeters>869.79998779296875</AltitudeMeters>
            <DistanceMeters>NAN</DistanceMeters>
          </Trackpoint>
          <Trackpoint>
            <Time>2021-04-02T07:55:26.000Z</Time>
            <Position>
              <LatitudeDegrees>42.3597033508121967315673828125</LatitudeDegrees>
              <LongitudeDegrees>2.6277559809386730194091796875</LongitudeDegrees>
            </Position>
            <AltitudeMeters>870</AltitudeMeters>
            <DistanceMeters>NAN</DistanceMeters>
          </Trackpoint>
          <Trackpoint>
            <Time>2021-04-02T07:55:29.000Z</Time>
            <Position>
              <LatitudeDegrees>42.3596899397671222686767578125</LatitudeDegrees>
              <LongitudeDegrees>2.627720274031162261962890625</LongitudeDegrees>
            </Position>
            <AltitudeMeters>870.4000244140625</AltitudeMeters>
            <DistanceMeters>NAN</DistanceMeters>
          </Trackpoint>
          <Trackpoint>
            <Time>2021-04-02T07:55:32.000Z</Time>
            <Position>
              <LatitudeDegrees>42.35967594198882579803466796875</LatitudeDegrees>
              <LongitudeDegrees>2.62767928652465343475341796875</LongitudeDegrees>
            </Position>
            <AltitudeMeters>870.79998779296875</AltitudeMeters>
            <DistanceMeters>NAN</DistanceMeters>
          </Trackpoint>
          <Trackpoint>
            <Time>2021-04-02T07:55:38.000Z</Time>
            <Position>
              <LatitudeDegrees>42.35963788814842700958251953125</LatitudeDegrees>
              <LongitudeDegrees>2.62758272700011730194091796875</LongitudeDegrees>
            </Position>
            <AltitudeMeters>871.20001220703125</AltitudeMeters>
            <DistanceMeters>NAN</DistanceMeters>
          </Trackpoint>
          <Trackpoint>
            <Time>2021-04-02T07:55:43.000Z</Time>
            <Position>
              <LatitudeDegrees>42.359602935612201690673828125</LatitudeDegrees>
              <LongitudeDegrees>2.62752573005855083465576171875</LongitudeDegrees>
            </Position>
            <AltitudeMeters>871.79998779296875</AltitudeMeters>
            <DistanceMeters>NAN</DistanceMeters>
          </Trackpoint>
          <Trackpoint>
            <Time>2021-04-02T07:55:48.000Z</Time>
            <Position>
              <LatitudeDegrees>42.35958717763423919677734375</LatitudeDegrees>
              <LongitudeDegrees>2.6274974830448627471923828125</LongitudeDegrees>
            </Position>
            <AltitudeMeters>872.20001220703125</AltitudeMeters>
            <DistanceMeters>NAN</DistanceMeters>
          </Trackpoint>
          <Trackpoint>
            <Time>2021-04-02T07:55:53.000Z</Time>
            <Position>
              <LatitudeDegrees>42.3595554940402507781982421875</LatitudeDegrees>
              <LongitudeDegrees>2.6274584233760833740234375</LongitudeDegrees>
            </Position>
            <AltitudeMeters>872.5999755859375</AltitudeMeters>
            <DistanceMeters>NAN</DistanceMeters>
          </Trackpoint>
          <Trackpoint>
            <Time>2021-04-02T07:55:54.000Z</Time>
            <Position>
              <LatitudeDegrees>42.359550632536411285400390625</LatitudeDegrees>
              <LongitudeDegrees>2.627452053129673004150390625</LongitudeDegrees>
            </Position>
            <AltitudeMeters>872.79998779296875</AltitudeMeters>
            <DistanceMeters>NAN</DistanceMeters>
          </Trackpoint>
          <Trackpoint>
            <Time>2021-04-02T07:55:55.000Z</Time>
            <Position>
              <LatitudeDegrees>42.35954426229000091552734375</LatitudeDegrees>
              <LongitudeDegrees>2.62744492851197719573974609375</LongitudeDegrees>
            </Position>
            <AltitudeMeters>873</AltitudeMeters>
            <DistanceMeters>NAN</DistanceMeters>
          </Trackpoint>
          <Trackpoint>
            <Time>2021-04-02T07:55:59.000Z</Time>
            <Position>
              <LatitudeDegrees>42.3595196194946765899658203125</LatitudeDegrees>
              <LongitudeDegrees>2.627404443919658660888671875</LongitudeDegrees>
            </Position>
            <AltitudeMeters>873.20001220703125</AltitudeMeters>
            <DistanceMeters>NAN</DistanceMeters>
          </Trackpoint>
          <Trackpoint>
            <Time>2021-04-02T07:56:05.000Z</Time>
            <Position>
              <LatitudeDegrees>42.35948366113007068634033203125</LatitudeDegrees>
              <LongitudeDegrees>2.627358175814151763916015625</LongitudeDegrees>
            </Position>
            <AltitudeMeters>873.79998779296875</AltitudeMeters>
            <DistanceMeters>NAN</DistanceMeters>
          </Trackpoint>
          <Trackpoint>
            <Time>2021-04-02T07:56:07.000Z</Time>
            <Position>
              <LatitudeDegrees>42.3594696633517742156982421875</LatitudeDegrees>
              <LongitudeDegrees>2.627349793910980224609375</LongitudeDegrees>
            </Position>
            <AltitudeMeters>874</AltitudeMeters>
            <DistanceMeters>NAN</DistanceMeters>
          </Trackpoint>
          <Trackpoint>
            <Time>2021-04-02T07:56:13.000Z</Time>
            <Position>
              <LatitudeDegrees>42.359439991414546966552734375</LatitudeDegrees>
              <LongitudeDegrees>2.62730461545288562774658203125</LongitudeDegrees>
            </Position>
            <AltitudeMeters>874.5999755859375</AltitudeMeters>
            <DistanceMeters>NAN</DistanceMeters>
          </Trackpoint>
          <Trackpoint>
            <Time>2021-04-02T07:56:14.000Z</Time>
            <Position>
              <LatitudeDegrees>42.35943538136780261993408203125</LatitudeDegrees>
              <LongitudeDegrees>2.627296485006809234619140625</LongitudeDegrees>
            </Position>
            <AltitudeMeters>874.79998779296875</AltitudeMeters>
            <DistanceMeters>NAN</DistanceMeters>
          </Trackpoint>
          <Trackpoint>
            <Time>2021-04-02T07:56:16.000Z</Time>
            <Position>
              <LatitudeDegrees>42.35942398197948932647705078125</LatitudeDegrees>
              <LongitudeDegrees>2.6272813975811004638671875</LongitudeDegrees>
            </Position>
            <AltitudeMeters>875</AltitudeMeters>
            <DistanceMeters>NAN</DistanceMeters>
          </Trackpoint>
          <Trackpoint>
            <Time>2021-04-02T07:56:19.000Z</Time>
            <Position>
              <LatitudeDegrees>42.35940118320286273956298828125</LatitudeDegrees>
              <LongitudeDegrees>2.6272668130695819854736328125</LongitudeDegrees>
            </Position>
            <AltitudeMeters>875.20001220703125</AltitudeMeters>
            <DistanceMeters>NAN</DistanceMeters>
          </Trackpoint>
          <Trackpoint>
            <Time>2021-04-02T07:56:22.000Z</Time>
            <Position>
              <LatitudeDegrees>42.35938123427331447601318359375</LatitudeDegrees>
              <LongitudeDegrees>2.627244852483272552490234375</LongitudeDegrees>
            </Position>
            <AltitudeMeters>875.79998779296875</AltitudeMeters>
            <DistanceMeters>NAN</DistanceMeters>
          </Trackpoint>
          <Trackpoint>
            <Time>2021-04-02T07:56:24.000Z</Time>
            <Position>
              <LatitudeDegrees>42.35936589539051055908203125</LatitudeDegrees>
              <LongitudeDegrees>2.627228759229183197021484375</LongitudeDegrees>
            </Position>
            <AltitudeMeters>876</AltitudeMeters>
            <DistanceMeters>NAN</DistanceMeters>
          </Trackpoint>
          <Trackpoint>
            <Time>2021-04-02T07:56:28.000Z</Time>
            <Position>
              <LatitudeDegrees>42.35934301279485225677490234375</LatitudeDegrees>
              <LongitudeDegrees>2.62719581834971904754638671875</LongitudeDegrees>
            </Position>
            <AltitudeMeters>876.20001220703125</AltitudeMeters>
            <DistanceMeters>NAN</DistanceMeters>
          </Trackpoint>
          <Trackpoint>
            <Time>2021-04-02T07:56:29.000Z</Time>
            <Position>
              <LatitudeDegrees>42.359337396919727325439453125</LatitudeDegrees>
              <LongitudeDegrees>2.627190537750720977783203125</LongitudeDegrees>
            </Position>
            <AltitudeMeters>876.20001220703125</AltitudeMeters>
            <DistanceMeters>NAN</DistanceMeters>
          </Trackpoint>
          <Trackpoint>
            <Time>2021-04-02T07:56:37.000Z</Time>
            <Position>
              <LatitudeDegrees>42.35929992981255054473876953125</LatitudeDegrees>
              <LongitudeDegrees>2.627129852771759033203125</LongitudeDegrees>
            </Position>
            <AltitudeMeters>876.79998779296875</AltitudeMeters>
            <DistanceMeters>NAN</DistanceMeters>
          </Trackpoint>
          <Trackpoint>
            <Time>2021-04-02T07:56:42.000Z</Time>
            <Position>
              <LatitudeDegrees>42.35926489345729351043701171875</LatitudeDegrees>
              <LongitudeDegrees>2.6270723529160022735595703125</LongitudeDegrees>
            </Position>
            <AltitudeMeters>877.20001220703125</AltitudeMeters>
            <DistanceMeters>NAN</DistanceMeters>
          </Trackpoint>
          <Trackpoint>
            <Time>2021-04-02T07:56:43.000Z</Time>
            <Position>
              <LatitudeDegrees>42.35925860702991485595703125</LatitudeDegrees>
              <LongitudeDegrees>2.62705986388027667999267578125</LongitudeDegrees>
            </Position>
            <AltitudeMeters>877.4000244140625</AltitudeMeters>
            <DistanceMeters>NAN</DistanceMeters>
          </Trackpoint>
          <Trackpoint>
            <Time>2021-04-02T07:56:45.000Z</Time>
            <Position>
              <LatitudeDegrees>42.35925056040287017822265625</LatitudeDegrees>
              <LongitudeDegrees>2.627038322389125823974609375</LongitudeDegrees>
            </Position>
            <AltitudeMeters>877.5999755859375</AltitudeMeters>
            <DistanceMeters>NAN</DistanceMeters>
          </Trackpoint>
          <Trackpoint>
            <Time>2021-04-02T07:56:50.000Z</Time>
            <Position>
              <LatitudeDegrees>42.35922398976981639862060546875</LatitudeDegrees>
              <LongitudeDegrees>2.6269808225333690643310546875</LongitudeDegrees>
            </Position>
            <AltitudeMeters>878.20001220703125</AltitudeMeters>
            <DistanceMeters>NAN</DistanceMeters>
          </Trackpoint>
          <Trackpoint>
            <Time>2021-04-02T07:56:51.000Z</Time>
            <Position>
              <LatitudeDegrees>42.3592185415327548980712890625</LatitudeDegrees>
              <LongitudeDegrees>2.6269710995256900787353515625</LongitudeDegrees>
            </Position>
            <AltitudeMeters>878.20001220703125</AltitudeMeters>
            <DistanceMeters>NAN</DistanceMeters>
          </Trackpoint>
          <Trackpoint>
            <Time>2021-04-02T07:56:54.000Z</Time>
            <Position>
              <LatitudeDegrees>42.35921166837215423583984375</LatitudeDegrees>
              <LongitudeDegrees>2.62693782337009906768798828125</LongitudeDegrees>
            </Position>
            <AltitudeMeters>878.5999755859375</AltitudeMeters>
            <DistanceMeters>NAN</DistanceMeters>
          </Trackpoint>
          <Trackpoint>
            <Time>2021-04-02T07:56:57.000Z</Time>
            <Position>
              <LatitudeDegrees>42.35921191982924938201904296875</LatitudeDegrees>
              <LongitudeDegrees>2.62690731324255466461181640625</LongitudeDegrees>
            </Position>
            <AltitudeMeters>878.79998779296875</AltitudeMeters>
            <DistanceMeters>NAN</DistanceMeters>
          </Trackpoint>
          <Trackpoint>
            <Time>2021-04-02T07:56:59.000Z</Time>
            <Position>
              <LatitudeDegrees>42.3592017777264118194580078125</LatitudeDegrees>
              <LongitudeDegrees>2.62688635848462581634521484375</LongitudeDegrees>
            </Position>
            <AltitudeMeters>879.20001220703125</AltitudeMeters>
            <DistanceMeters>NAN</DistanceMeters>
          </Trackpoint>
          <Trackpoint>
            <Time>2021-04-02T07:57:00.000Z</Time>
            <Position>
              <LatitudeDegrees>42.3591949045658111572265625</LatitudeDegrees>
              <LongitudeDegrees>2.62687437236309051513671875</LongitudeDegrees>
            </Position>
            <AltitudeMeters>879.20001220703125</AltitudeMeters>
            <DistanceMeters>NAN</DistanceMeters>
          </Trackpoint>
          <Trackpoint>
            <Time>2021-04-02T07:57:01.000Z</Time>
            <Position>
              <LatitudeDegrees>42.35918392427265644073486328125</LatitudeDegrees>
              <LongitudeDegrees>2.6268658228218555450439453125</LongitudeDegrees>
            </Position>
            <AltitudeMeters>879.4000244140625</AltitudeMeters>
            <DistanceMeters>NAN</DistanceMeters>
          </Trackpoint>
          <Trackpoint>
            <Time>2021-04-02T07:57:04.000Z</Time>
            <Position>
              <LatitudeDegrees>42.35916364006698131561279296875</LatitudeDegrees>
              <LongitudeDegrees>2.62683824636042118072509765625</LongitudeDegrees>
            </Position>
            <AltitudeMeters>879.5999755859375</AltitudeMeters>
            <DistanceMeters>NAN</DistanceMeters>
          </Trackpoint>
          <Trackpoint>
            <Time>2021-04-02T07:57:06.000Z</Time>
            <Position>
              <LatitudeDegrees>42.35915358178317546844482421875</LatitudeDegrees>
              <LongitudeDegrees>2.62681159190833568572998046875</LongitudeDegrees>
            </Position>
            <AltitudeMeters>880</AltitudeMeters>
            <DistanceMeters>NAN</DistanceMeters>
          </Trackpoint>
          <Trackpoint>
            <Time>2021-04-02T07:57:09.000Z</Time>
            <Position>
              <LatitudeDegrees>42.35913229174911975860595703125</LatitudeDegrees>
              <LongitudeDegrees>2.62677320279181003570556640625</LongitudeDegrees>
            </Position>
            <AltitudeMeters>880</AltitudeMeters>
            <DistanceMeters>NAN</DistanceMeters>
          </Trackpoint>
          <Trackpoint>
            <Time>2021-04-02T07:57:14.000Z</Time>
            <Position>
              <LatitudeDegrees>42.359101362526416778564453125</LatitudeDegrees>
              <LongitudeDegrees>2.6267370767891407012939453125</LongitudeDegrees>
            </Position>
            <AltitudeMeters>880.4000244140625</AltitudeMeters>
            <DistanceMeters>NAN</DistanceMeters>
          </Trackpoint>
          <Trackpoint>
            <Time>2021-04-02T07:57:16.000Z</Time>
            <Position>
              <LatitudeDegrees>42.35908753238618373870849609375</LatitudeDegrees>
              <LongitudeDegrees>2.62672492302954196929931640625</LongitudeDegrees>
            </Position>
            <AltitudeMeters>880.5999755859375</AltitudeMeters>
            <DistanceMeters>NAN</DistanceMeters>
          </Trackpoint>
          <Trackpoint>
            <Time>2021-04-02T07:57:17.000Z</Time>
            <Position>
              <LatitudeDegrees>42.35908024013042449951171875</LatitudeDegrees>
              <LongitudeDegrees>2.626714445650577545166015625</LongitudeDegrees>
            </Position>
            <AltitudeMeters>880.5999755859375</AltitudeMeters>
            <DistanceMeters>NAN</DistanceMeters>
          </Trackpoint>
          <Trackpoint>
            <Time>2021-04-02T07:57:19.000Z</Time>
            <Position>
              <LatitudeDegrees>42.359061799943447113037109375</LatitudeDegrees>
              <LongitudeDegrees>2.62669424526393413543701171875</LongitudeDegrees>
            </Position>
            <AltitudeMeters>880.79998779296875</AltitudeMeters>
            <DistanceMeters>NAN</DistanceMeters>
          </Trackpoint>
          <Trackpoint>
            <Time>2021-04-02T07:57:23.000Z</Time>
            <Position>
              <LatitudeDegrees>42.3590354807674884796142578125</LatitudeDegrees>
              <LongitudeDegrees>2.62665417976677417755126953125</LongitudeDegrees>
            </Position>
            <AltitudeMeters>881.20001220703125</AltitudeMeters>
            <DistanceMeters>NAN</DistanceMeters>
          </Trackpoint>
          <Trackpoint>
            <Time>2021-04-02T07:57:25.000Z</Time>
            <Position>
              <LatitudeDegrees>42.35902382992208003997802734375</LatitudeDegrees>
              <LongitudeDegrees>2.6266381703317165374755859375</LongitudeDegrees>
            </Position>
            <AltitudeMeters>881.4000244140625</AltitudeMeters>
            <DistanceMeters>NAN</DistanceMeters>
          </Trackpoint>
          <Trackpoint>
            <Time>2021-04-02T07:57:32.000Z</Time>
            <Position>
              <LatitudeDegrees>42.35896700061857700347900390625</LatitudeDegrees>
              <LongitudeDegrees>2.626600451767444610595703125</LongitudeDegrees>
            </Position>
            <AltitudeMeters>882</AltitudeMeters>
            <DistanceMeters>NAN</DistanceMeters>
          </Trackpoint>
          <Trackpoint>
            <Time>2021-04-02T07:57:35.000Z</Time>
            <Position>
              <LatitudeDegrees>42.3589530028402805328369140625</LatitudeDegrees>
              <LongitudeDegrees>2.6265838555991649627685546875</LongitudeDegrees>
            </Position>
            <AltitudeMeters>882.20001220703125</AltitudeMeters>
            <DistanceMeters>NAN</DistanceMeters>
          </Trackpoint>
          <Trackpoint>
            <Time>2021-04-02T07:57:37.000Z</Time>
            <Position>
              <LatitudeDegrees>42.35893431119620800018310546875</LatitudeDegrees>
              <LongitudeDegrees>2.626574970781803131103515625</LongitudeDegrees>
            </Position>
            <AltitudeMeters>882.4000244140625</AltitudeMeters>
            <DistanceMeters>NAN</DistanceMeters>
          </Trackpoint>
          <Trackpoint>
            <Time>2021-04-02T07:57:39.000Z</Time>
            <Position>
              <LatitudeDegrees>42.35892240889370441436767578125</LatitudeDegrees>
              <LongitudeDegrees>2.62656323611736297607421875</LongitudeDegrees>
            </Position>
            <AltitudeMeters>882.79998779296875</AltitudeMeters>
            <DistanceMeters>NAN</DistanceMeters>
          </Trackpoint>
          <Trackpoint>
            <Time>2021-04-02T07:57:47.000Z</Time>
            <Position>
              <LatitudeDegrees>42.35885619185864925384521484375</LatitudeDegrees>
              <LongitudeDegrees>2.6265369169414043426513671875</LongitudeDegrees>
            </Position>
            <AltitudeMeters>883.5999755859375</AltitudeMeters>
            <DistanceMeters>NAN</DistanceMeters>
          </Trackpoint>
          <Trackpoint>
            <Time>2021-04-02T07:57:53.000Z</Time>
            <Position>
              <LatitudeDegrees>42.35881478525698184967041015625</LatitudeDegrees>
              <LongitudeDegrees>2.62653415091335773468017578125</LongitudeDegrees>
            </Position>
            <AltitudeMeters>884</AltitudeMeters>
            <DistanceMeters>NAN</DistanceMeters>
          </Trackpoint>
          <Trackpoint>
            <Time>2021-04-02T07:57:57.000Z</Time>
            <Position>
              <LatitudeDegrees>42.35879265703260898590087890625</LatitudeDegrees>
              <LongitudeDegrees>2.626526020467281341552734375</LongitudeDegrees>
            </Position>
            <AltitudeMeters>884.4000244140625</AltitudeMeters>
            <DistanceMeters>NAN</DistanceMeters>
          </Trackpoint>
          <Trackpoint>
            <Time>2021-04-02T07:57:58.000Z</Time>
            <Position>
              <LatitudeDegrees>42.3587877117097377777099609375</LatitudeDegrees>
              <LongitudeDegrees>2.626518644392490386962890625</LongitudeDegrees>
            </Position>
            <AltitudeMeters>884.5999755859375</AltitudeMeters>
            <DistanceMeters>NAN</DistanceMeters>
          </Trackpoint>
          <Trackpoint>
            <Time>2021-04-02T07:58:04.000Z</Time>
            <Position>
              <LatitudeDegrees>42.358732558786869049072265625</LatitudeDegrees>
              <LongitudeDegrees>2.62651906348764896392822265625</LongitudeDegrees>
            </Position>
            <AltitudeMeters>885</AltitudeMeters>
            <DistanceMeters>NAN</DistanceMeters>
          </Trackpoint>
          <Trackpoint>
            <Time>2021-04-02T07:58:05.000Z</Time>
            <Position>
              <LatitudeDegrees>42.3587223328649997711181640625</LatitudeDegrees>
              <LongitudeDegrees>2.62650850228965282440185546875</LongitudeDegrees>
            </Position>
            <AltitudeMeters>885</AltitudeMeters>
            <DistanceMeters>NAN</DistanceMeters>
          </Trackpoint>
          <Trackpoint>
            <Time>2021-04-02T07:58:09.000Z</Time>
            <Position>
              <LatitudeDegrees>42.35869023017585277557373046875</LatitudeDegrees>
              <LongitudeDegrees>2.62647564522922039031982421875</LongitudeDegrees>
            </Position>
            <AltitudeMeters>885.4000244140625</AltitudeMeters>
            <DistanceMeters>NAN</DistanceMeters>
          </Trackpoint>
          <Trackpoint>
            <Time>2021-04-02T07:58:11.000Z</Time>
            <Position>
              <LatitudeDegrees>42.35867765732109546661376953125</LatitudeDegrees>
              <LongitudeDegrees>2.6264624856412410736083984375</LongitudeDegrees>
            </Position>
            <AltitudeMeters>885.79998779296875</AltitudeMeters>
            <DistanceMeters>NAN</DistanceMeters>
          </Trackpoint>
          <Trackpoint>
            <Time>2021-04-02T07:58:12.000Z</Time>
            <Position>
              <LatitudeDegrees>42.3586663417518138885498046875</LatitudeDegrees>
              <LongitudeDegrees>2.6264638267457485198974609375</LongitudeDegrees>
            </Position>
            <AltitudeMeters>885.79998779296875</AltitudeMeters>
            <DistanceMeters>NAN</DistanceMeters>
          </Trackpoint>
          <Trackpoint>
            <Time>2021-04-02T07:58:14.000Z</Time>
            <Position>
              <LatitudeDegrees>42.3586458899080753326416015625</LatitudeDegrees>
              <LongitudeDegrees>2.6264748908579349517822265625</LongitudeDegrees>
            </Position>
            <AltitudeMeters>886</AltitudeMeters>
            <DistanceMeters>NAN</DistanceMeters>
          </Trackpoint>
          <Trackpoint>
            <Time>2021-04-02T07:58:24.000Z</Time>
            <Position>
              <LatitudeDegrees>42.35855645500123500823974609375</LatitudeDegrees>
              <LongitudeDegrees>2.62648285366594791412353515625</LongitudeDegrees>
            </Position>
            <AltitudeMeters>886.5999755859375</AltitudeMeters>
            <DistanceMeters>NAN</DistanceMeters>
          </Trackpoint>
          <Trackpoint>
            <Time>2021-04-02T07:58:26.000Z</Time>
            <Position>
              <LatitudeDegrees>42.35852745361626148223876953125</LatitudeDegrees>
              <LongitudeDegrees>2.62647866271436214447021484375</LongitudeDegrees>
            </Position>
            <AltitudeMeters>886.79998779296875</AltitudeMeters>
            <DistanceMeters>NAN</DistanceMeters>
          </Trackpoint>
          <Trackpoint>
            <Time>2021-04-02T07:58:31.000Z</Time>
            <Position>
              <LatitudeDegrees>42.35847196541726589202880859375</LatitudeDegrees>
              <LongitudeDegrees>2.626479752361774444580078125</LongitudeDegrees>
            </Position>
            <AltitudeMeters>887.20001220703125</AltitudeMeters>
            <DistanceMeters>NAN</DistanceMeters>
          </Trackpoint>
          <Trackpoint>
            <Time>2021-04-02T07:58:38.000Z</Time>
            <Position>
              <LatitudeDegrees>42.358411364257335662841796875</LatitudeDegrees>
              <LongitudeDegrees>2.6264504157006740570068359375</LongitudeDegrees>
            </Position>
            <AltitudeMeters>887.79998779296875</AltitudeMeters>
            <DistanceMeters>NAN</DistanceMeters>
          </Trackpoint>
          <Trackpoint>
            <Time>2021-04-02T07:58:45.000Z</Time>
            <Position>
              <LatitudeDegrees>42.3583461530506610870361328125</LatitudeDegrees>
              <LongitudeDegrees>2.6264338195323944091796875</LongitudeDegrees>
            </Position>
            <AltitudeMeters>888.4000244140625</AltitudeMeters>
            <DistanceMeters>NAN</DistanceMeters>
          </Trackpoint>
          <Trackpoint>
            <Time>2021-04-02T07:58:46.000Z</Time>
            <Position>
              <LatitudeDegrees>42.3583377711474895477294921875</LatitudeDegrees>
              <LongitudeDegrees>2.62643046677112579345703125</LongitudeDegrees>
            </Position>
            <AltitudeMeters>888.4000244140625</AltitudeMeters>
            <DistanceMeters>NAN</DistanceMeters>
          </Trackpoint>
          <Trackpoint>
            <Time>2021-04-02T07:58:50.000Z</Time>
            <Position>
              <LatitudeDegrees>42.3582935146987438201904296875</LatitudeDegrees>
              <LongitudeDegrees>2.62641060166060924530029296875</LongitudeDegrees>
            </Position>
            <AltitudeMeters>889</AltitudeMeters>
            <DistanceMeters>NAN</DistanceMeters>
          </Trackpoint>
          <Trackpoint>
            <Time>2021-04-02T07:58:53.000Z</Time>
            <Position>
              <LatitudeDegrees>42.35826015472412109375</LatitudeDegrees>
              <LongitudeDegrees>2.6263890601694583892822265625</LongitudeDegrees>
            </Position>
            <AltitudeMeters>889.20001220703125</AltitudeMeters>
            <DistanceMeters>NAN</DistanceMeters>
          </Trackpoint>
          <Trackpoint>
            <Time>2021-04-02T07:58:57.000Z</Time>
            <Position>
              <LatitudeDegrees>42.358223609626293182373046875</LatitudeDegrees>
              <LongitudeDegrees>2.626359052956104278564453125</LongitudeDegrees>
            </Position>
            <AltitudeMeters>889.5999755859375</AltitudeMeters>
            <DistanceMeters>NAN</DistanceMeters>
          </Trackpoint>
          <Trackpoint>
            <Time>2021-04-02T07:59:02.000Z</Time>
            <Position>
              <LatitudeDegrees>42.35818932764232158660888671875</LatitudeDegrees>
              <LongitudeDegrees>2.62634304352104663848876953125</LongitudeDegrees>
            </Position>
            <AltitudeMeters>890</AltitudeMeters>
            <DistanceMeters>NAN</DistanceMeters>
          </Trackpoint>
          <Trackpoint>
            <Time>2021-04-02T07:59:11.000Z</Time>
            <Position>
              <LatitudeDegrees>42.35811171121895313262939453125</LatitudeDegrees>
              <LongitudeDegrees>2.6263015531003475189208984375</LongitudeDegrees>
            </Position>
            <AltitudeMeters>890.79998779296875</AltitudeMeters>
            <DistanceMeters>NAN</DistanceMeters>
          </Trackpoint>
          <Trackpoint>
            <Time>2021-04-02T07:59:12.000Z</Time>
            <Position>
              <LatitudeDegrees>42.3581020720303058624267578125</LatitudeDegrees>
              <LongitudeDegrees>2.62629962526261806488037109375</LongitudeDegrees>
            </Position>
            <AltitudeMeters>891</AltitudeMeters>
            <DistanceMeters>NAN</DistanceMeters>
          </Trackpoint>
          <Trackpoint>
            <Time>2021-04-02T07:59:22.000Z</Time>
            <Position>
              <LatitudeDegrees>42.35800542868673801422119140625</LatitudeDegrees>
              <LongitudeDegrees>2.6262395270168781280517578125</LongitudeDegrees>
            </Position>
            <AltitudeMeters>891</AltitudeMeters>
            <DistanceMeters>NAN</DistanceMeters>
          </Trackpoint>
          <Trackpoint>
            <Time>2021-04-02T07:59:33.000Z</Time>
            <Position>
              <LatitudeDegrees>42.35790551640093326568603515625</LatitudeDegrees>
              <LongitudeDegrees>2.62618462555110454559326171875</LongitudeDegrees>
            </Position>
            <AltitudeMeters>891</AltitudeMeters>
            <DistanceMeters>NAN</DistanceMeters>
          </Trackpoint>
          <Trackpoint>
            <Time>2021-04-02T07:59:37.000Z</Time>
            <Position>
              <LatitudeDegrees>42.3578660376369953155517578125</LatitudeDegrees>
              <LongitudeDegrees>2.6261885650455951690673828125</LongitudeDegrees>
            </Position>
            <AltitudeMeters>891</AltitudeMeters>
            <DistanceMeters>NAN</DistanceMeters>
          </Trackpoint>
          <Trackpoint>
            <Time>2021-04-02T07:59:41.000Z</Time>
            <Position>
              <LatitudeDegrees>42.35783033072948455810546875</LatitudeDegrees>
              <LongitudeDegrees>2.626166604459285736083984375</LongitudeDegrees>
            </Position>
            <AltitudeMeters>890.79998779296875</AltitudeMeters>
            <DistanceMeters>NAN</DistanceMeters>
          </Trackpoint>
          <Trackpoint>
            <Time>2021-04-02T07:59:44.000Z</Time>
            <Position>
              <LatitudeDegrees>42.3578154109418392181396484375</LatitudeDegrees>
              <LongitudeDegrees>2.62614439241588115692138671875</LongitudeDegrees>
            </Position>
            <AltitudeMeters>890.5999755859375</AltitudeMeters>
            <DistanceMeters>NAN</DistanceMeters>
          </Trackpoint>
          <Trackpoint>
            <Time>2021-04-02T07:59:46.000Z</Time>
            <Position>
              <LatitudeDegrees>42.35780753195285797119140625</LatitudeDegrees>
              <LongitudeDegrees>2.6261386089026927947998046875</LongitudeDegrees>
            </Position>
            <AltitudeMeters>890.5999755859375</AltitudeMeters>
            <DistanceMeters>NAN</DistanceMeters>
          </Trackpoint>
          <Trackpoint>
            <Time>2021-04-02T07:59:47.000Z</Time>
            <Position>
              <LatitudeDegrees>42.35780526883900165557861328125</LatitudeDegrees>
              <LongitudeDegrees>2.62613953091204166412353515625</LongitudeDegrees>
            </Position>
            <AltitudeMeters>890.5999755859375</AltitudeMeters>
            <DistanceMeters>NAN</DistanceMeters>
          </Trackpoint>
          <Trackpoint>
            <Time>2021-04-02T07:59:49.000Z</Time>
            <Position>
              <LatitudeDegrees>42.35779487527906894683837890625</LatitudeDegrees>
              <LongitudeDegrees>2.62613634578883647918701171875</LongitudeDegrees>
            </Position>
            <AltitudeMeters>890.4000244140625</AltitudeMeters>
            <DistanceMeters>NAN</DistanceMeters>
          </Trackpoint>
          <Trackpoint>
            <Time>2021-04-02T07:59:51.000Z</Time>
            <Position>
              <LatitudeDegrees>42.35778397880494594573974609375</LatitudeDegrees>
              <LongitudeDegrees>2.62613735161721706390380859375</LongitudeDegrees>
            </Position>
            <AltitudeMeters>890.4000244140625</AltitudeMeters>
            <DistanceMeters>NAN</DistanceMeters>
          </Trackpoint>
          <Trackpoint>
            <Time>2021-04-02T07:59:54.000Z</Time>
            <Position>
              <LatitudeDegrees>42.35776872374117374420166015625</LatitudeDegrees>
              <LongitudeDegrees>2.6261483319103717803955078125</LongitudeDegrees>
            </Position>
            <AltitudeMeters>890.20001220703125</AltitudeMeters>
            <DistanceMeters>NAN</DistanceMeters>
          </Trackpoint>
          <Trackpoint>
            <Time>2021-04-02T07:59:55.000Z</Time>
            <Position>
              <LatitudeDegrees>42.35776017419993877410888671875</LatitudeDegrees>
              <LongitudeDegrees>2.62615285813808441162109375</LongitudeDegrees>
            </Position>
            <AltitudeMeters>890.20001220703125</AltitudeMeters>
            <DistanceMeters>NAN</DistanceMeters>
          </Trackpoint>
          <Trackpoint>
            <Time>2021-04-02T07:59:56.000Z</Time>
            <Position>
              <LatitudeDegrees>42.3577480204403400421142578125</LatitudeDegrees>
              <LongitudeDegrees>2.6261557079851627349853515625</LongitudeDegrees>
            </Position>
            <AltitudeMeters>890.20001220703125</AltitudeMeters>
            <DistanceMeters>NAN</DistanceMeters>
          </Trackpoint>
          <Trackpoint>
            <Time>2021-04-02T08:00:02.000Z</Time>
            <Position>
              <LatitudeDegrees>42.35765623860061168670654296875</LatitudeDegrees>
              <LongitudeDegrees>2.626196444034576416015625</LongitudeDegrees>
            </Position>
            <AltitudeMeters>890</AltitudeMeters>
            <DistanceMeters>NAN</DistanceMeters>
          </Trackpoint>
          <Trackpoint>
            <Time>2021-04-02T08:00:04.000Z</Time>
            <Position>
              <LatitudeDegrees>42.35763176344335079193115234375</LatitudeDegrees>
              <LongitudeDegrees>2.6262086816132068634033203125</LongitudeDegrees>
            </Position>
            <AltitudeMeters>890</AltitudeMeters>
            <DistanceMeters>NAN</DistanceMeters>
          </Trackpoint>
          <Trackpoint>
            <Time>2021-04-02T08:00:09.000Z</Time>
            <Position>
              <LatitudeDegrees>42.35757350921630859375</LatitudeDegrees>
              <LongitudeDegrees>2.62623131275177001953125</LongitudeDegrees>
            </Position>
            <AltitudeMeters>889.4000244140625</AltitudeMeters>
            <DistanceMeters>NAN</DistanceMeters>
          </Trackpoint>
          <Trackpoint>
            <Time>2021-04-02T08:00:15.000Z</Time>
            <Position>
              <LatitudeDegrees>42.35750217922031879425048828125</LatitudeDegrees>
              <LongitudeDegrees>2.62626291252672672271728515625</LongitudeDegrees>
            </Position>
            <AltitudeMeters>889.20001220703125</AltitudeMeters>
            <DistanceMeters>NAN</DistanceMeters>
          </Trackpoint>
          <Trackpoint>
            <Time>2021-04-02T08:00:17.000Z</Time>
            <Position>
              <LatitudeDegrees>42.35748206265270709991455078125</LatitudeDegrees>
              <LongitudeDegrees>2.6262817718088626861572265625</LongitudeDegrees>
            </Position>
            <AltitudeMeters>889</AltitudeMeters>
            <DistanceMeters>NAN</DistanceMeters>
          </Trackpoint>
          <Trackpoint>
            <Time>2021-04-02T08:00:18.000Z</Time>
            <Position>
              <LatitudeDegrees>42.35746957361698150634765625</LatitudeDegrees>
              <LongitudeDegrees>2.6262928359210491180419921875</LongitudeDegrees>
            </Position>
            <AltitudeMeters>889</AltitudeMeters>
            <DistanceMeters>NAN</DistanceMeters>
          </Trackpoint>
          <Trackpoint>
            <Time>2021-04-02T08:00:21.000Z</Time>
            <Position>
              <LatitudeDegrees>42.3574419133365154266357421875</LatitudeDegrees>
              <LongitudeDegrees>2.62632317841053009033203125</LongitudeDegrees>
            </Position>
            <AltitudeMeters>888.79998779296875</AltitudeMeters>
            <DistanceMeters>NAN</DistanceMeters>
          </Trackpoint>
          <Trackpoint>
            <Time>2021-04-02T08:00:23.000Z</Time>
            <Position>
              <LatitudeDegrees>42.3574110679328441619873046875</LatitudeDegrees>
              <LongitudeDegrees>2.62633918784558773040771484375</LongitudeDegrees>
            </Position>
            <AltitudeMeters>888.5999755859375</AltitudeMeters>
            <DistanceMeters>NAN</DistanceMeters>
          </Trackpoint>
          <Trackpoint>
            <Time>2021-04-02T08:00:25.000Z</Time>
            <Position>
              <LatitudeDegrees>42.35739187337458133697509765625</LatitudeDegrees>
              <LongitudeDegrees>2.626369111239910125732421875</LongitudeDegrees>
            </Position>
            <AltitudeMeters>888.5999755859375</AltitudeMeters>
            <DistanceMeters>NAN</DistanceMeters>
          </Trackpoint>
          <Trackpoint>
            <Time>2021-04-02T08:00:27.000Z</Time>
            <Position>
              <LatitudeDegrees>42.35737343318760395050048828125</LatitudeDegrees>
              <LongitudeDegrees>2.62638059444725513458251953125</LongitudeDegrees>
            </Position>
            <AltitudeMeters>888.5999755859375</AltitudeMeters>
            <DistanceMeters>NAN</DistanceMeters>
          </Trackpoint>
          <Trackpoint>
            <Time>2021-04-02T08:00:29.000Z</Time>
            <Position>
              <LatitudeDegrees>42.35735314898192882537841796875</LatitudeDegrees>
              <LongitudeDegrees>2.6263890601694583892822265625</LongitudeDegrees>
            </Position>
            <AltitudeMeters>888.4000244140625</AltitudeMeters>
            <DistanceMeters>NAN</DistanceMeters>
          </Trackpoint>
          <Trackpoint>
            <Time>2021-04-02T08:00:31.000Z</Time>
            <Position>
              <LatitudeDegrees>42.3573252372443675994873046875</LatitudeDegrees>
              <LongitudeDegrees>2.62640305794775485992431640625</LongitudeDegrees>
            </Position>
            <AltitudeMeters>888.20001220703125</AltitudeMeters>
            <DistanceMeters>NAN</DistanceMeters>
          </Trackpoint>
          <Trackpoint>
            <Time>2021-04-02T08:00:33.000Z</Time>
            <Position>
              <LatitudeDegrees>42.35730520449578762054443359375</LatitudeDegrees>
              <LongitudeDegrees>2.6264279522001743316650390625</LongitudeDegrees>
            </Position>
            <AltitudeMeters>888</AltitudeMeters>
            <DistanceMeters>NAN</DistanceMeters>
          </Trackpoint>
          <Trackpoint>
            <Time>2021-04-02T08:00:38.000Z</Time>
            <Position>
              <LatitudeDegrees>42.357260696589946746826171875</LatitudeDegrees>
              <LongitudeDegrees>2.626471705734729766845703125</LongitudeDegrees>
            </Position>
            <AltitudeMeters>887.79998779296875</AltitudeMeters>
            <DistanceMeters>NAN</DistanceMeters>
          </Trackpoint>
          <Trackpoint>
            <Time>2021-04-02T08:00:44.000Z</Time>
            <Position>
              <LatitudeDegrees>42.3572102375328540802001953125</LatitudeDegrees>
              <LongitudeDegrees>2.62653079815208911895751953125</LongitudeDegrees>
            </Position>
            <AltitudeMeters>887.5999755859375</AltitudeMeters>
            <DistanceMeters>NAN</DistanceMeters>
          </Trackpoint>
          <Trackpoint>
            <Time>2021-04-02T08:00:48.000Z</Time>
            <Position>
              <LatitudeDegrees>42.35717679373919963836669921875</LatitudeDegrees>
              <LongitudeDegrees>2.62656114064157009124755859375</LongitudeDegrees>
            </Position>
            <AltitudeMeters>887.4000244140625</AltitudeMeters>
            <DistanceMeters>NAN</DistanceMeters>
          </Trackpoint>
          <Trackpoint>
            <Time>2021-04-02T08:00:53.000Z</Time>
            <Position>
              <LatitudeDegrees>42.35713957808911800384521484375</LatitudeDegrees>
              <LongitudeDegrees>2.62660606764256954193115234375</LongitudeDegrees>
            </Position>
            <AltitudeMeters>887.5999755859375</AltitudeMeters>
            <DistanceMeters>NAN</DistanceMeters>
          </Trackpoint>
          <Trackpoint>
            <Time>2021-04-02T08:01:01.000Z</Time>
            <Position>
              <LatitudeDegrees>42.35707235522568225860595703125</LatitudeDegrees>
              <LongitudeDegrees>2.626672871410846710205078125</LongitudeDegrees>
            </Position>
            <AltitudeMeters>887.5999755859375</AltitudeMeters>
            <DistanceMeters>NAN</DistanceMeters>
          </Trackpoint>
          <Trackpoint>
            <Time>2021-04-02T08:01:08.000Z</Time>
            <Position>
              <LatitudeDegrees>42.357011921703815460205078125</LatitudeDegrees>
              <LongitudeDegrees>2.62670950032770633697509765625</LongitudeDegrees>
            </Position>
            <AltitudeMeters>887.5999755859375</AltitudeMeters>
            <DistanceMeters>NAN</DistanceMeters>
          </Trackpoint>
          <Trackpoint>
            <Time>2021-04-02T08:01:17.000Z</Time>
            <Position>
              <LatitudeDegrees>42.356932796537876129150390625</LatitudeDegrees>
              <LongitudeDegrees>2.6267664134502410888671875</LongitudeDegrees>
            </Position>
            <AltitudeMeters>887.5999755859375</AltitudeMeters>
            <DistanceMeters>NAN</DistanceMeters>
          </Trackpoint>
          <Trackpoint>
            <Time>2021-04-02T08:01:23.000Z</Time>
            <Position>
              <LatitudeDegrees>42.35688175074756145477294921875</LatitudeDegrees>
              <LongitudeDegrees>2.62681343592703342437744140625</LongitudeDegrees>
            </Position>
            <AltitudeMeters>887.79998779296875</AltitudeMeters>
            <DistanceMeters>NAN</DistanceMeters>
          </Trackpoint>
          <Trackpoint>
            <Time>2021-04-02T08:01:26.000Z</Time>
            <Position>
              <LatitudeDegrees>42.35684202052652835845947265625</LatitudeDegrees>
              <LongitudeDegrees>2.62683103792369365692138671875</LongitudeDegrees>
            </Position>
            <AltitudeMeters>888</AltitudeMeters>
            <DistanceMeters>NAN</DistanceMeters>
          </Trackpoint>
          <Trackpoint>
            <Time>2021-04-02T08:01:27.000Z</Time>
            <Position>
              <LatitudeDegrees>42.356838919222354888916015625</LatitudeDegrees>
              <LongitudeDegrees>2.62683388777077198028564453125</LongitudeDegrees>
            </Position>
            <AltitudeMeters>888</AltitudeMeters>
            <DistanceMeters>NAN</DistanceMeters>
          </Trackpoint>
          <Trackpoint>
            <Time>2021-04-02T08:01:29.000Z</Time>
            <Position>
              <LatitudeDegrees>42.3568290285766124725341796875</LatitudeDegrees>
              <LongitudeDegrees>2.6268386654555797576904296875</LongitudeDegrees>
            </Position>
            <AltitudeMeters>888</AltitudeMeters>
            <DistanceMeters>NAN</DistanceMeters>
          </Trackpoint>
          <Trackpoint>
            <Time>2021-04-02T08:01:32.000Z</Time>
            <Position>
              <LatitudeDegrees>42.35680631361901760101318359375</LatitudeDegrees>
              <LongitudeDegrees>2.62684310786426067352294921875</LongitudeDegrees>
            </Position>
            <AltitudeMeters>888</AltitudeMeters>
            <DistanceMeters>NAN</DistanceMeters>
          </Trackpoint>
          <Trackpoint>
            <Time>2021-04-02T08:01:35.000Z</Time>
            <Position>
              <LatitudeDegrees>42.3567800782620906829833984375</LatitudeDegrees>
              <LongitudeDegrees>2.62685383670032024383544921875</LongitudeDegrees>
            </Position>
            <AltitudeMeters>888</AltitudeMeters>
            <DistanceMeters>NAN</DistanceMeters>
          </Trackpoint>
          <Trackpoint>
            <Time>2021-04-02T08:01:37.000Z</Time>
            <Position>
              <LatitudeDegrees>42.3567592911422252655029296875</LatitudeDegrees>
              <LongitudeDegrees>2.62686490081250667572021484375</LongitudeDegrees>
            </Position>
            <AltitudeMeters>888</AltitudeMeters>
            <DistanceMeters>NAN</DistanceMeters>
          </Trackpoint>
          <Trackpoint>
            <Time>2021-04-02T08:01:38.000Z</Time>
            <Position>
              <LatitudeDegrees>42.356747724115848541259765625</LatitudeDegrees>
              <LongitudeDegrees>2.6268710196018218994140625</LongitudeDegrees>
            </Position>
            <AltitudeMeters>888</AltitudeMeters>
            <DistanceMeters>NAN</DistanceMeters>
          </Trackpoint>
          <Trackpoint>
            <Time>2021-04-02T08:01:43.000Z</Time>
            <Position>
              <LatitudeDegrees>42.3566754721105098724365234375</LatitudeDegrees>
              <LongitudeDegrees>2.62689792551100254058837890625</LongitudeDegrees>
            </Position>
            <AltitudeMeters>888.4000244140625</AltitudeMeters>
            <DistanceMeters>NAN</DistanceMeters>
          </Trackpoint>
          <Trackpoint>
            <Time>2021-04-02T08:01:50.000Z</Time>
            <Position>
              <LatitudeDegrees>42.35659274272620677947998046875</LatitudeDegrees>
              <LongitudeDegrees>2.626912593841552734375</LongitudeDegrees>
            </Position>
            <AltitudeMeters>888.5999755859375</AltitudeMeters>
            <DistanceMeters>NAN</DistanceMeters>
          </Trackpoint>
          <Trackpoint>
            <Time>2021-04-02T08:01:54.000Z</Time>
            <Position>
              <LatitudeDegrees>42.35654580406844615936279296875</LatitudeDegrees>
              <LongitudeDegrees>2.6269043795764446258544921875</LongitudeDegrees>
            </Position>
            <AltitudeMeters>888.5999755859375</AltitudeMeters>
            <DistanceMeters>NAN</DistanceMeters>
          </Trackpoint>
          <Trackpoint>
            <Time>2021-04-02T08:02:01.000Z</Time>
            <Position>
              <LatitudeDegrees>42.3564679361879825592041015625</LatitudeDegrees>
              <LongitudeDegrees>2.62689541094005107879638671875</LongitudeDegrees>
            </Position>
            <AltitudeMeters>888.79998779296875</AltitudeMeters>
            <DistanceMeters>NAN</DistanceMeters>
          </Trackpoint>
          <Trackpoint>
            <Time>2021-04-02T08:02:02.000Z</Time>
            <Position>
              <LatitudeDegrees>42.35645829699933528900146484375</LatitudeDegrees>
              <LongitudeDegrees>2.62689440511167049407958984375</LongitudeDegrees>
            </Position>
            <AltitudeMeters>888.79998779296875</AltitudeMeters>
            <DistanceMeters>NAN</DistanceMeters>
          </Trackpoint>
          <Trackpoint>
            <Time>2021-04-02T08:02:05.000Z</Time>
            <Position>
              <LatitudeDegrees>42.35642217099666595458984375</LatitudeDegrees>
              <LongitudeDegrees>2.62688376009464263916015625</LongitudeDegrees>
            </Position>
            <AltitudeMeters>888.79998779296875</AltitudeMeters>
            <DistanceMeters>NAN</DistanceMeters>
          </Trackpoint>
          <Trackpoint>
            <Time>2021-04-02T08:02:06.000Z</Time>
            <Position>
              <LatitudeDegrees>42.35641286708414554595947265625</LatitudeDegrees>
              <LongitudeDegrees>2.62687973678112030029296875</LongitudeDegrees>
            </Position>
            <AltitudeMeters>888.79998779296875</AltitudeMeters>
            <DistanceMeters>NAN</DistanceMeters>
          </Trackpoint>
          <Trackpoint>
            <Time>2021-04-02T08:02:07.000Z</Time>
            <Position>
              <LatitudeDegrees>42.3564005456864833831787109375</LatitudeDegrees>
              <LongitudeDegrees>2.626878060400485992431640625</LongitudeDegrees>
            </Position>
            <AltitudeMeters>889</AltitudeMeters>
            <DistanceMeters>NAN</DistanceMeters>
          </Trackpoint>
          <Trackpoint>
            <Time>2021-04-02T08:02:18.000Z</Time>
            <Position>
              <LatitudeDegrees>42.3562711291015148162841796875</LatitudeDegrees>
              <LongitudeDegrees>2.62686154805123805999755859375</LongitudeDegrees>
            </Position>
            <AltitudeMeters>888.79998779296875</AltitudeMeters>
            <DistanceMeters>NAN</DistanceMeters>
          </Trackpoint>
          <Trackpoint>
            <Time>2021-04-02T08:02:25.000Z</Time>
            <Position>
              <LatitudeDegrees>42.3561879806220531463623046875</LatitudeDegrees>
              <LongitudeDegrees>2.626860626041889190673828125</LongitudeDegrees>
            </Position>
            <AltitudeMeters>888.79998779296875</AltitudeMeters>
            <DistanceMeters>NAN</DistanceMeters>
          </Trackpoint>
          <Trackpoint>
            <Time>2021-04-02T08:02:27.000Z</Time>
            <Position>
              <LatitudeDegrees>42.3561705462634563446044921875</LatitudeDegrees>
              <LongitudeDegrees>2.62685903348028659820556640625</LongitudeDegrees>
            </Position>
            <AltitudeMeters>888.79998779296875</AltitudeMeters>
            <DistanceMeters>NAN</DistanceMeters>
          </Trackpoint>
          <Trackpoint>
            <Time>2021-04-02T08:02:30.000Z</Time>
            <Position>
              <LatitudeDegrees>42.3561541177332401275634765625</LatitudeDegrees>
              <LongitudeDegrees>2.62687210924923419952392578125</LongitudeDegrees>
            </Position>
            <AltitudeMeters>888.5999755859375</AltitudeMeters>
            <DistanceMeters>NAN</DistanceMeters>
          </Trackpoint>
          <Trackpoint>
            <Time>2021-04-02T08:02:33.000Z</Time>
            <Position>
              <LatitudeDegrees>42.35615286044776439666748046875</LatitudeDegrees>
              <LongitudeDegrees>2.6268804073333740234375</LongitudeDegrees>
            </Position>
            <AltitudeMeters>888.4000244140625</AltitudeMeters>
            <DistanceMeters>NAN</DistanceMeters>
          </Trackpoint>
          <Trackpoint>
            <Time>2021-04-02T08:02:40.000Z</Time>
            <Position>
              <LatitudeDegrees>42.35618253238499164581298828125</LatitudeDegrees>
              <LongitudeDegrees>2.62684444896876811981201171875</LongitudeDegrees>
            </Position>
            <AltitudeMeters>888.4000244140625</AltitudeMeters>
            <DistanceMeters>NAN</DistanceMeters>
          </Trackpoint>
          <Trackpoint>
            <Time>2021-04-02T08:02:44.000Z</Time>
            <Position>
              <LatitudeDegrees>42.3561608232557773590087890625</LatitudeDegrees>
              <LongitudeDegrees>2.62684579007327556610107421875</LongitudeDegrees>
            </Position>
            <AltitudeMeters>888.5999755859375</AltitudeMeters>
            <DistanceMeters>NAN</DistanceMeters>
          </Trackpoint>
          <Trackpoint>
            <Time>2021-04-02T08:02:47.000Z</Time>
            <Position>
              <LatitudeDegrees>42.35612000338733196258544921875</LatitudeDegrees>
              <LongitudeDegrees>2.6268396712839603424072265625</LongitudeDegrees>
            </Position>
            <AltitudeMeters>888.79998779296875</AltitudeMeters>
            <DistanceMeters>NAN</DistanceMeters>
          </Trackpoint>
          <Trackpoint>
            <Time>2021-04-02T08:02:51.000Z</Time>
            <Position>
              <LatitudeDegrees>42.35607775859534740447998046875</LatitudeDegrees>
              <LongitudeDegrees>2.62683472596108913421630859375</LongitudeDegrees>
            </Position>
            <AltitudeMeters>888.79998779296875</AltitudeMeters>
            <DistanceMeters>NAN</DistanceMeters>
          </Trackpoint>
          <Trackpoint>
            <Time>2021-04-02T08:02:55.000Z</Time>
            <Position>
              <LatitudeDegrees>42.35602696426212787628173828125</LatitudeDegrees>
              <LongitudeDegrees>2.626824416220188140869140625</LongitudeDegrees>
            </Position>
            <AltitudeMeters>888.79998779296875</AltitudeMeters>
            <DistanceMeters>NAN</DistanceMeters>
          </Trackpoint>
          <Trackpoint>
            <Time>2021-04-02T08:03:00.000Z</Time>
            <Position>
              <LatitudeDegrees>42.35597868449985980987548828125</LatitudeDegrees>
              <LongitudeDegrees>2.62683221139013767242431640625</LongitudeDegrees>
            </Position>
            <AltitudeMeters>888.79998779296875</AltitudeMeters>
            <DistanceMeters>NAN</DistanceMeters>
          </Trackpoint>
          <Trackpoint>
            <Time>2021-04-02T08:03:06.000Z</Time>
            <Position>
              <LatitudeDegrees>42.35591121017932891845703125</LatitudeDegrees>
              <LongitudeDegrees>2.62683439068496227264404296875</LongitudeDegrees>
            </Position>
            <AltitudeMeters>888.79998779296875</AltitudeMeters>
            <DistanceMeters>NAN</DistanceMeters>
          </Trackpoint>
          <Trackpoint>
            <Time>2021-04-02T08:03:08.000Z</Time>
            <Position>
              <LatitudeDegrees>42.35588346607983112335205078125</LatitudeDegrees>
              <LongitudeDegrees>2.6268329657614231109619140625</LongitudeDegrees>
            </Position>
            <AltitudeMeters>888.79998779296875</AltitudeMeters>
            <DistanceMeters>NAN</DistanceMeters>
          </Trackpoint>
          <Trackpoint>
            <Time>2021-04-02T08:03:15.000Z</Time>
            <Position>
              <LatitudeDegrees>42.35580082051455974578857421875</LatitudeDegrees>
              <LongitudeDegrees>2.6268400065600872039794921875</LongitudeDegrees>
            </Position>
            <AltitudeMeters>889</AltitudeMeters>
            <DistanceMeters>NAN</DistanceMeters>
          </Trackpoint>
          <Trackpoint>
            <Time>2021-04-02T08:03:16.000Z</Time>
            <Position>
              <LatitudeDegrees>42.355787493288516998291015625</LatitudeDegrees>
              <LongitudeDegrees>2.62683791108429431915283203125</LongitudeDegrees>
            </Position>
            <AltitudeMeters>889</AltitudeMeters>
            <DistanceMeters>NAN</DistanceMeters>
          </Trackpoint>
          <Trackpoint>
            <Time>2021-04-02T08:03:18.000Z</Time>
            <Position>
              <LatitudeDegrees>42.35576368868350982666015625</LatitudeDegrees>
              <LongitudeDegrees>2.62683539651334285736083984375</LongitudeDegrees>
            </Position>
            <AltitudeMeters>889</AltitudeMeters>
            <DistanceMeters>NAN</DistanceMeters>
          </Trackpoint>
          <Trackpoint>
            <Time>2021-04-02T08:03:21.000Z</Time>
            <Position>
              <LatitudeDegrees>42.355714738368988037109375</LatitudeDegrees>
              <LongitudeDegrees>2.626840174198150634765625</LongitudeDegrees>
            </Position>
            <AltitudeMeters>889</AltitudeMeters>
            <DistanceMeters>NAN</DistanceMeters>
          </Trackpoint>
          <Trackpoint>
            <Time>2021-04-02T08:03:30.000Z</Time>
            <Position>
              <LatitudeDegrees>42.35560853965580463409423828125</LatitudeDegrees>
              <LongitudeDegrees>2.62686037458479404449462890625</LongitudeDegrees>
            </Position>
            <AltitudeMeters>889</AltitudeMeters>
            <DistanceMeters>NAN</DistanceMeters>
          </Trackpoint>
          <Trackpoint>
            <Time>2021-04-02T08:03:33.000Z</Time>
            <Position>
              <LatitudeDegrees>42.35557735897600650787353515625</LatitudeDegrees>
              <LongitudeDegrees>2.62686674483120441436767578125</LongitudeDegrees>
            </Position>
            <AltitudeMeters>889</AltitudeMeters>
            <DistanceMeters>NAN</DistanceMeters>
          </Trackpoint>
          <Trackpoint>
            <Time>2021-04-02T08:03:38.000Z</Time>
            <Position>
              <LatitudeDegrees>42.35552203841507434844970703125</LatitudeDegrees>
              <LongitudeDegrees>2.62687169015407562255859375</LongitudeDegrees>
            </Position>
            <AltitudeMeters>889.4000244140625</AltitudeMeters>
            <DistanceMeters>NAN</DistanceMeters>
          </Trackpoint>
          <Trackpoint>
            <Time>2021-04-02T08:03:40.000Z</Time>
            <Position>
              <LatitudeDegrees>42.35549873672425746917724609375</LatitudeDegrees>
              <LongitudeDegrees>2.62686875648796558380126953125</LongitudeDegrees>
            </Position>
            <AltitudeMeters>889.4000244140625</AltitudeMeters>
            <DistanceMeters>NAN</DistanceMeters>
          </Trackpoint>
          <Trackpoint>
            <Time>2021-04-02T08:03:42.000Z</Time>
            <Position>
              <LatitudeDegrees>42.35546864569187164306640625</LatitudeDegrees>
              <LongitudeDegrees>2.62686557136476039886474609375</LongitudeDegrees>
            </Position>
            <AltitudeMeters>889.4000244140625</AltitudeMeters>
            <DistanceMeters>NAN</DistanceMeters>
          </Trackpoint>
          <Trackpoint>
            <Time>2021-04-02T08:03:44.000Z</Time>
            <Position>
              <LatitudeDegrees>42.3554433323442935943603515625</LatitudeDegrees>
              <LongitudeDegrees>2.62686121277511119842529296875</LongitudeDegrees>
            </Position>
            <AltitudeMeters>889.4000244140625</AltitudeMeters>
            <DistanceMeters>NAN</DistanceMeters>
          </Trackpoint>
          <Trackpoint>
            <Time>2021-04-02T08:03:45.000Z</Time>
            <Position>
              <LatitudeDegrees>42.3554285801947116851806640625</LatitudeDegrees>
              <LongitudeDegrees>2.62685936875641345977783203125</LongitudeDegrees>
            </Position>
            <AltitudeMeters>889.4000244140625</AltitudeMeters>
            <DistanceMeters>NAN</DistanceMeters>
          </Trackpoint>
          <Trackpoint>
            <Time>2021-04-02T08:03:46.000Z</Time>
            <Position>
              <LatitudeDegrees>42.3554175160825252532958984375</LatitudeDegrees>
              <LongitudeDegrees>2.6268614642322063446044921875</LongitudeDegrees>
            </Position>
            <AltitudeMeters>889.4000244140625</AltitudeMeters>
            <DistanceMeters>NAN</DistanceMeters>
          </Trackpoint>
          <Trackpoint>
            <Time>2021-04-02T08:03:51.000Z</Time>
            <Position>
              <LatitudeDegrees>42.355371415615081787109375</LatitudeDegrees>
              <LongitudeDegrees>2.6268897950649261474609375</LongitudeDegrees>
            </Position>
            <AltitudeMeters>889.4000244140625</AltitudeMeters>
            <DistanceMeters>NAN</DistanceMeters>
          </Trackpoint>
          <Trackpoint>
            <Time>2021-04-02T08:03:52.000Z</Time>
            <Position>
              <LatitudeDegrees>42.35536227934062480926513671875</LatitudeDegrees>
              <LongitudeDegrees>2.62689608149230480194091796875</LongitudeDegrees>
            </Position>
            <AltitudeMeters>889.4000244140625</AltitudeMeters>
            <DistanceMeters>NAN</DistanceMeters>
          </Trackpoint>
          <Trackpoint>
            <Time>2021-04-02T08:03:53.000Z</Time>
            <Position>
              <LatitudeDegrees>42.35535456798970699310302734375</LatitudeDegrees>
              <LongitudeDegrees>2.6269023679196834564208984375</LongitudeDegrees>
            </Position>
            <AltitudeMeters>889.4000244140625</AltitudeMeters>
            <DistanceMeters>NAN</DistanceMeters>
          </Trackpoint>
          <Trackpoint>
            <Time>2021-04-02T08:03:55.000Z</Time>
            <Position>
              <LatitudeDegrees>42.35533964820206165313720703125</LatitudeDegrees>
              <LongitudeDegrees>2.626914270222187042236328125</LongitudeDegrees>
            </Position>
            <AltitudeMeters>889.4000244140625</AltitudeMeters>
            <DistanceMeters>NAN</DistanceMeters>
          </Trackpoint>
          <Trackpoint>
            <Time>2021-04-02T08:03:57.000Z</Time>
            <Position>
              <LatitudeDegrees>42.355317436158657073974609375</LatitudeDegrees>
              <LongitudeDegrees>2.6269288547337055206298828125</LongitudeDegrees>
            </Position>
            <AltitudeMeters>889.4000244140625</AltitudeMeters>
            <DistanceMeters>NAN</DistanceMeters>
          </Trackpoint>
          <Trackpoint>
            <Time>2021-04-02T08:03:58.000Z</Time>
            <Position>
              <LatitudeDegrees>42.35530897043645381927490234375</LatitudeDegrees>
              <LongitudeDegrees>2.6269379071891307830810546875</LongitudeDegrees>
            </Position>
            <AltitudeMeters>889.5999755859375</AltitudeMeters>
            <DistanceMeters>NAN</DistanceMeters>
          </Trackpoint>
          <Trackpoint>
            <Time>2021-04-02T08:04:00.000Z</Time>
            <Position>
              <LatitudeDegrees>42.3553001694381237030029296875</LatitudeDegrees>
              <LongitudeDegrees>2.6269466243684291839599609375</LongitudeDegrees>
            </Position>
            <AltitudeMeters>889.4000244140625</AltitudeMeters>
            <DistanceMeters>NAN</DistanceMeters>
          </Trackpoint>
          <Trackpoint>
            <Time>2021-04-02T08:04:02.000Z</Time>
            <Position>
              <LatitudeDegrees>42.35527125187218189239501953125</LatitudeDegrees>
              <LongitudeDegrees>2.62697939760982990264892578125</LongitudeDegrees>
            </Position>
            <AltitudeMeters>889.5999755859375</AltitudeMeters>
            <DistanceMeters>NAN</DistanceMeters>
          </Trackpoint>
          <Trackpoint>
            <Time>2021-04-02T08:04:07.000Z</Time>
            <Position>
              <LatitudeDegrees>42.3552109859883785247802734375</LatitudeDegrees>
              <LongitudeDegrees>2.6270254142582416534423828125</LongitudeDegrees>
            </Position>
            <AltitudeMeters>889.5999755859375</AltitudeMeters>
            <DistanceMeters>NAN</DistanceMeters>
          </Trackpoint>
          <Trackpoint>
            <Time>2021-04-02T08:04:13.000Z</Time>
            <Position>
              <LatitudeDegrees>42.3551563359797000885009765625</LatitudeDegrees>
              <LongitudeDegrees>2.62709297239780426025390625</LongitudeDegrees>
            </Position>
            <AltitudeMeters>889.79998779296875</AltitudeMeters>
            <DistanceMeters>NAN</DistanceMeters>
          </Trackpoint>
          <Trackpoint>
            <Time>2021-04-02T08:04:17.000Z</Time>
            <Position>
              <LatitudeDegrees>42.3551218025386333465576171875</LatitudeDegrees>
              <LongitudeDegrees>2.6271491311490535736083984375</LongitudeDegrees>
            </Position>
            <AltitudeMeters>889.5999755859375</AltitudeMeters>
            <DistanceMeters>NAN</DistanceMeters>
          </Trackpoint>
          <Trackpoint>
            <Time>2021-04-02T08:04:24.000Z</Time>
            <Position>
              <LatitudeDegrees>42.35504477284848690032958984375</LatitudeDegrees>
              <LongitudeDegrees>2.6272228918969631195068359375</LongitudeDegrees>
            </Position>
            <AltitudeMeters>889.4000244140625</AltitudeMeters>
            <DistanceMeters>NAN</DistanceMeters>
          </Trackpoint>
          <Trackpoint>
            <Time>2021-04-02T08:04:27.000Z</Time>
            <Position>
              <LatitudeDegrees>42.3550188727676868438720703125</LatitudeDegrees>
              <LongitudeDegrees>2.62724728323519229888916015625</LongitudeDegrees>
            </Position>
            <AltitudeMeters>889.4000244140625</AltitudeMeters>
            <DistanceMeters>NAN</DistanceMeters>
          </Trackpoint>
          <Trackpoint>
            <Time>2021-04-02T08:04:36.000Z</Time>
            <Position>
              <LatitudeDegrees>42.35491468571126461029052734375</LatitudeDegrees>
              <LongitudeDegrees>2.62730360962450504302978515625</LongitudeDegrees>
            </Position>
            <AltitudeMeters>889.4000244140625</AltitudeMeters>
            <DistanceMeters>NAN</DistanceMeters>
          </Trackpoint>
          <Trackpoint>
            <Time>2021-04-02T08:04:46.000Z</Time>
            <Position>
              <LatitudeDegrees>42.35478728078305721282958984375</LatitudeDegrees>
              <LongitudeDegrees>2.6273690722882747650146484375</LongitudeDegrees>
            </Position>
            <AltitudeMeters>889.4000244140625</AltitudeMeters>
            <DistanceMeters>NAN</DistanceMeters>
          </Trackpoint>
          <Trackpoint>
            <Time>2021-04-02T08:04:59.000Z</Time>
            <Position>
              <LatitudeDegrees>42.3546405136585235595703125</LatitudeDegrees>
              <LongitudeDegrees>2.6273938827216625213623046875</LongitudeDegrees>
            </Position>
            <AltitudeMeters>889.5999755859375</AltitudeMeters>
            <DistanceMeters>NAN</DistanceMeters>
          </Trackpoint>
          <Trackpoint>
            <Time>2021-04-02T08:05:02.000Z</Time>
            <Position>
              <LatitudeDegrees>42.35459156334400177001953125</LatitudeDegrees>
              <LongitudeDegrees>2.6273747719824314117431640625</LongitudeDegrees>
            </Position>
            <AltitudeMeters>889.79998779296875</AltitudeMeters>
            <DistanceMeters>NAN</DistanceMeters>
          </Trackpoint>
          <Trackpoint>
            <Time>2021-04-02T08:05:03.000Z</Time>
            <Position>
              <LatitudeDegrees>42.35456901602447032928466796875</LatitudeDegrees>
              <LongitudeDegrees>2.627366222441196441650390625</LongitudeDegrees>
            </Position>
            <AltitudeMeters>889.79998779296875</AltitudeMeters>
            <DistanceMeters>NAN</DistanceMeters>
          </Trackpoint>
          <Trackpoint>
            <Time>2021-04-02T08:05:04.000Z</Time>
            <Position>
              <LatitudeDegrees>42.35455937683582305908203125</LatitudeDegrees>
              <LongitudeDegrees>2.62735893018543720245361328125</LongitudeDegrees>
            </Position>
            <AltitudeMeters>890</AltitudeMeters>
            <DistanceMeters>NAN</DistanceMeters>
          </Trackpoint>
          <Trackpoint>
            <Time>2021-04-02T08:05:07.000Z</Time>
            <Position>
              <LatitudeDegrees>42.3545278608798980712890625</LatitudeDegrees>
              <LongitudeDegrees>2.6273331977427005767822265625</LongitudeDegrees>
            </Position>
            <AltitudeMeters>890</AltitudeMeters>
            <DistanceMeters>NAN</DistanceMeters>
          </Trackpoint>
          <Trackpoint>
            <Time>2021-04-02T08:05:14.000Z</Time>
            <Position>
              <LatitudeDegrees>42.35447580926120281219482421875</LatitudeDegrees>
              <LongitudeDegrees>2.62724325992166996002197265625</LongitudeDegrees>
            </Position>
            <AltitudeMeters>890</AltitudeMeters>
            <DistanceMeters>NAN</DistanceMeters>
          </Trackpoint>
          <Trackpoint>
            <Time>2021-04-02T08:05:19.000Z</Time>
            <Position>
              <LatitudeDegrees>42.3544670082628726959228515625</LatitudeDegrees>
              <LongitudeDegrees>2.62717084027826786041259765625</LongitudeDegrees>
            </Position>
            <AltitudeMeters>890</AltitudeMeters>
            <DistanceMeters>NAN</DistanceMeters>
          </Trackpoint>
          <Trackpoint>
            <Time>2021-04-02T08:05:25.000Z</Time>
            <Position>
              <LatitudeDegrees>42.35446793027222156524658203125</LatitudeDegrees>
              <LongitudeDegrees>2.6270713470876216888427734375</LongitudeDegrees>
            </Position>
            <AltitudeMeters>890.20001220703125</AltitudeMeters>
            <DistanceMeters>NAN</DistanceMeters>
          </Trackpoint>
          <Trackpoint>
            <Time>2021-04-02T08:05:33.000Z</Time>
            <Position>
              <LatitudeDegrees>42.35450279898941516876220703125</LatitudeDegrees>
              <LongitudeDegrees>2.62694469653069972991943359375</LongitudeDegrees>
            </Position>
            <AltitudeMeters>890.20001220703125</AltitudeMeters>
            <DistanceMeters>NAN</DistanceMeters>
          </Trackpoint>
          <Trackpoint>
            <Time>2021-04-02T08:05:37.000Z</Time>
            <Position>
              <LatitudeDegrees>42.3545286990702152252197265625</LatitudeDegrees>
              <LongitudeDegrees>2.62688753195106983184814453125</LongitudeDegrees>
            </Position>
            <AltitudeMeters>890.20001220703125</AltitudeMeters>
            <DistanceMeters>NAN</DistanceMeters>
          </Trackpoint>
          <Trackpoint>
            <Time>2021-04-02T08:05:40.000Z</Time>
            <Position>
              <LatitudeDegrees>42.3545439541339874267578125</LatitudeDegrees>
              <LongitudeDegrees>2.62684478424489498138427734375</LongitudeDegrees>
            </Position>
            <AltitudeMeters>890.4000244140625</AltitudeMeters>
            <DistanceMeters>NAN</DistanceMeters>
          </Trackpoint>
          <Trackpoint>
            <Time>2021-04-02T08:05:44.000Z</Time>
            <Position>
              <LatitudeDegrees>42.35456264577805995941162109375</LatitudeDegrees>
              <LongitudeDegrees>2.6267910562455654144287109375</LongitudeDegrees>
            </Position>
            <AltitudeMeters>890.5999755859375</AltitudeMeters>
            <DistanceMeters>NAN</DistanceMeters>
          </Trackpoint>
          <Trackpoint>
            <Time>2021-04-02T08:05:45.000Z</Time>
            <Position>
              <LatitudeDegrees>42.3545712791383266448974609375</LatitudeDegrees>
              <LongitudeDegrees>2.62677756138145923614501953125</LongitudeDegrees>
            </Position>
            <AltitudeMeters>890.5999755859375</AltitudeMeters>
            <DistanceMeters>NAN</DistanceMeters>
          </Trackpoint>
          <Trackpoint>
            <Time>2021-04-02T08:05:51.000Z</Time>
            <Position>
              <LatitudeDegrees>42.354608662426471710205078125</LatitudeDegrees>
              <LongitudeDegrees>2.62669055722653865814208984375</LongitudeDegrees>
            </Position>
            <AltitudeMeters>890.79998779296875</AltitudeMeters>
            <DistanceMeters>NAN</DistanceMeters>
          </Trackpoint>
          <Trackpoint>
            <Time>2021-04-02T08:05:53.000Z</Time>
            <Position>
              <LatitudeDegrees>42.3546212352812290191650390625</LatitudeDegrees>
              <LongitudeDegrees>2.6266623102128505706787109375</LongitudeDegrees>
            </Position>
            <AltitudeMeters>890.79998779296875</AltitudeMeters>
            <DistanceMeters>NAN</DistanceMeters>
          </Trackpoint>
          <Trackpoint>
            <Time>2021-04-02T08:06:02.000Z</Time>
            <Position>
              <LatitudeDegrees>42.3546678386628627777099609375</LatitudeDegrees>
              <LongitudeDegrees>2.62652166187763214111328125</LongitudeDegrees>
            </Position>
            <AltitudeMeters>890.5999755859375</AltitudeMeters>
            <DistanceMeters>NAN</DistanceMeters>
          </Trackpoint>
          <Trackpoint>
            <Time>2021-04-02T08:06:07.000Z</Time>
            <Position>
              <LatitudeDegrees>42.354683764278888702392578125</LatitudeDegrees>
              <LongitudeDegrees>2.62645318172872066497802734375</LongitudeDegrees>
            </Position>
            <AltitudeMeters>890.5999755859375</AltitudeMeters>
            <DistanceMeters>NAN</DistanceMeters>
          </Trackpoint>
          <Trackpoint>
            <Time>2021-04-02T08:06:09.000Z</Time>
            <Position>
              <LatitudeDegrees>42.35468351282179355621337890625</LatitudeDegrees>
              <LongitudeDegrees>2.62641982175409793853759765625</LongitudeDegrees>
            </Position>
            <AltitudeMeters>890.4000244140625</AltitudeMeters>
            <DistanceMeters>NAN</DistanceMeters>
          </Trackpoint>
          <Trackpoint>
            <Time>2021-04-02T08:06:13.000Z</Time>
            <Position>
              <LatitudeDegrees>42.3546745441854000091552734375</LatitudeDegrees>
              <LongitudeDegrees>2.626357376575469970703125</LongitudeDegrees>
            </Position>
            <AltitudeMeters>890.4000244140625</AltitudeMeters>
            <DistanceMeters>NAN</DistanceMeters>
          </Trackpoint>
          <Trackpoint>
            <Time>2021-04-02T08:06:18.000Z</Time>
            <Position>
              <LatitudeDegrees>42.35465803183615207672119140625</LatitudeDegrees>
              <LongitudeDegrees>2.62628822587430477142333984375</LongitudeDegrees>
            </Position>
            <AltitudeMeters>890.4000244140625</AltitudeMeters>
            <DistanceMeters>NAN</DistanceMeters>
          </Trackpoint>
          <Trackpoint>
            <Time>2021-04-02T08:06:19.000Z</Time>
            <Position>
              <LatitudeDegrees>42.35465015284717082977294921875</LatitudeDegrees>
              <LongitudeDegrees>2.62627179734408855438232421875</LongitudeDegrees>
            </Position>
            <AltitudeMeters>890.4000244140625</AltitudeMeters>
            <DistanceMeters>NAN</DistanceMeters>
          </Trackpoint>
          <Trackpoint>
            <Time>2021-04-02T08:06:28.000Z</Time>
            <Position>
              <LatitudeDegrees>42.3545940779149532318115234375</LatitudeDegrees>
              <LongitudeDegrees>2.6261615753173828125</LongitudeDegrees>
            </Position>
            <AltitudeMeters>889.79998779296875</AltitudeMeters>
            <DistanceMeters>NAN</DistanceMeters>
          </Trackpoint>
          <Trackpoint>
            <Time>2021-04-02T08:06:31.000Z</Time>
            <Position>
              <LatitudeDegrees>42.3545850254595279693603515625</LatitudeDegrees>
              <LongitudeDegrees>2.62611606158316135406494140625</LongitudeDegrees>
            </Position>
            <AltitudeMeters>889.79998779296875</AltitudeMeters>
            <DistanceMeters>NAN</DistanceMeters>
          </Trackpoint>
          <Trackpoint>
            <Time>2021-04-02T08:06:36.000Z</Time>
            <Position>
              <LatitudeDegrees>42.3545769788324832916259765625</LatitudeDegrees>
              <LongitudeDegrees>2.6260366849601268768310546875</LongitudeDegrees>
            </Position>
            <AltitudeMeters>889.5999755859375</AltitudeMeters>
            <DistanceMeters>NAN</DistanceMeters>
          </Trackpoint>
          <Trackpoint>
            <Time>2021-04-02T08:06:38.000Z</Time>
            <Position>
              <LatitudeDegrees>42.35457488335669040679931640625</LatitudeDegrees>
              <LongitudeDegrees>2.6260018162429332733154296875</LongitudeDegrees>
            </Position>
            <AltitudeMeters>889.5999755859375</AltitudeMeters>
            <DistanceMeters>NAN</DistanceMeters>
          </Trackpoint>
          <Trackpoint>
            <Time>2021-04-02T08:06:42.000Z</Time>
            <Position>
              <LatitudeDegrees>42.35458879731595516204833984375</LatitudeDegrees>
              <LongitudeDegrees>2.62593568302690982818603515625</LongitudeDegrees>
            </Position>
            <AltitudeMeters>889.4000244140625</AltitudeMeters>
            <DistanceMeters>NAN</DistanceMeters>
          </Trackpoint>
          <Trackpoint>
            <Time>2021-04-02T08:06:46.000Z</Time>
            <Position>
              <LatitudeDegrees>42.35461360774934291839599609375</LatitudeDegrees>
              <LongitudeDegrees>2.62588203884661197662353515625</LongitudeDegrees>
            </Position>
            <AltitudeMeters>889.4000244140625</AltitudeMeters>
            <DistanceMeters>NAN</DistanceMeters>
          </Trackpoint>
          <Trackpoint>
            <Time>2021-04-02T08:06:48.000Z</Time>
            <Position>
              <LatitudeDegrees>42.3546286113560199737548828125</LatitudeDegrees>
              <LongitudeDegrees>2.6258573122322559356689453125</LongitudeDegrees>
            </Position>
            <AltitudeMeters>889.4000244140625</AltitudeMeters>
            <DistanceMeters>NAN</DistanceMeters>
          </Trackpoint>
          <Trackpoint>
            <Time>2021-04-02T08:06:50.000Z</Time>
            <Position>
              <LatitudeDegrees>42.354642190039157867431640625</LatitudeDegrees>
              <LongitudeDegrees>2.62582755647599697113037109375</LongitudeDegrees>
            </Position>
            <AltitudeMeters>889.20001220703125</AltitudeMeters>
            <DistanceMeters>NAN</DistanceMeters>
          </Trackpoint>
          <Trackpoint>
            <Time>2021-04-02T08:06:51.000Z</Time>
            <Position>
              <LatitudeDegrees>42.35464696772396564483642578125</LatitudeDegrees>
              <LongitudeDegrees>2.62581498362123966217041015625</LongitudeDegrees>
            </Position>
            <AltitudeMeters>889.20001220703125</AltitudeMeters>
            <DistanceMeters>NAN</DistanceMeters>
          </Trackpoint>
          <Trackpoint>
            <Time>2021-04-02T08:06:53.000Z</Time>
            <Position>
              <LatitudeDegrees>42.35466171987354755401611328125</LatitudeDegrees>
              <LongitudeDegrees>2.62579000554978847503662109375</LongitudeDegrees>
            </Position>
            <AltitudeMeters>889.20001220703125</AltitudeMeters>
            <DistanceMeters>NAN</DistanceMeters>
          </Trackpoint>
          <Trackpoint>
            <Time>2021-04-02T08:07:00.000Z</Time>
            <Position>
              <LatitudeDegrees>42.354707233607769012451171875</LatitudeDegrees>
              <LongitudeDegrees>2.6256987266242504119873046875</LongitudeDegrees>
            </Position>
            <AltitudeMeters>888.79998779296875</AltitudeMeters>
            <DistanceMeters>NAN</DistanceMeters>
          </Trackpoint>
          <Trackpoint>
            <Time>2021-04-02T08:07:02.000Z</Time>
            <Position>
              <LatitudeDegrees>42.35472357831895351409912109375</LatitudeDegrees>
              <LongitudeDegrees>2.6256712339818477630615234375</LongitudeDegrees>
            </Position>
            <AltitudeMeters>888.79998779296875</AltitudeMeters>
            <DistanceMeters>NAN</DistanceMeters>
          </Trackpoint>
          <Trackpoint>
            <Time>2021-04-02T08:07:07.000Z</Time>
            <Position>
              <LatitudeDegrees>42.35478057526051998138427734375</LatitudeDegrees>
              <LongitudeDegrees>2.625608704984188079833984375</LongitudeDegrees>
            </Position>
            <AltitudeMeters>888.5999755859375</AltitudeMeters>
            <DistanceMeters>NAN</DistanceMeters>
          </Trackpoint>
          <Trackpoint>
            <Time>2021-04-02T08:07:09.000Z</Time>
            <Position>
              <LatitudeDegrees>42.35479943454265594482421875</LatitudeDegrees>
              <LongitudeDegrees>2.6255889236927032470703125</LongitudeDegrees>
            </Position>
            <AltitudeMeters>888.4000244140625</AltitudeMeters>
            <DistanceMeters>NAN</DistanceMeters>
          </Trackpoint>
          <Trackpoint>
            <Time>2021-04-02T08:07:16.000Z</Time>
            <Position>
              <LatitudeDegrees>42.35486858524382114410400390625</LatitudeDegrees>
              <LongitudeDegrees>2.62552463449537754058837890625</LongitudeDegrees>
            </Position>
            <AltitudeMeters>888.20001220703125</AltitudeMeters>
            <DistanceMeters>NAN</DistanceMeters>
          </Trackpoint>
          <Trackpoint>
            <Time>2021-04-02T08:07:19.000Z</Time>
            <Position>
              <LatitudeDegrees>42.35490110702812671661376953125</LatitudeDegrees>
              <LongitudeDegrees>2.6254972256720066070556640625</LongitudeDegrees>
            </Position>
            <AltitudeMeters>888.20001220703125</AltitudeMeters>
            <DistanceMeters>NAN</DistanceMeters>
          </Trackpoint>
          <Trackpoint>
            <Time>2021-04-02T08:07:21.000Z</Time>
            <Position>
              <LatitudeDegrees>42.3549167811870574951171875</LatitudeDegrees>
              <LongitudeDegrees>2.6254774443805217742919921875</LongitudeDegrees>
            </Position>
            <AltitudeMeters>888</AltitudeMeters>
            <DistanceMeters>NAN</DistanceMeters>
          </Trackpoint>
          <Trackpoint>
            <Time>2021-04-02T08:07:23.000Z</Time>
            <Position>
              <LatitudeDegrees>42.3549303598701953887939453125</LatitudeDegrees>
              <LongitudeDegrees>2.62545238249003887176513671875</LongitudeDegrees>
            </Position>
            <AltitudeMeters>888</AltitudeMeters>
            <DistanceMeters>NAN</DistanceMeters>
          </Trackpoint>
          <Trackpoint>
            <Time>2021-04-02T08:07:25.000Z</Time>
            <Position>
              <LatitudeDegrees>42.35494402237236499786376953125</LatitudeDegrees>
              <LongitudeDegrees>2.625423632562160491943359375</LongitudeDegrees>
            </Position>
            <AltitudeMeters>888</AltitudeMeters>
            <DistanceMeters>NAN</DistanceMeters>
          </Trackpoint>
          <Trackpoint>
            <Time>2021-04-02T08:07:27.000Z</Time>
            <Position>
              <LatitudeDegrees>42.35496011562645435333251953125</LatitudeDegrees>
              <LongitudeDegrees>2.6253912784159183502197265625</LongitudeDegrees>
            </Position>
            <AltitudeMeters>887.79998779296875</AltitudeMeters>
            <DistanceMeters>NAN</DistanceMeters>
          </Trackpoint>
          <Trackpoint>
            <Time>2021-04-02T08:07:31.000Z</Time>
            <Position>
              <LatitudeDegrees>42.354990541934967041015625</LatitudeDegrees>
              <LongitudeDegrees>2.625339813530445098876953125</LongitudeDegrees>
            </Position>
            <AltitudeMeters>887.5999755859375</AltitudeMeters>
            <DistanceMeters>NAN</DistanceMeters>
          </Trackpoint>
          <Trackpoint>
            <Time>2021-04-02T08:07:35.000Z</Time>
            <Position>
              <LatitudeDegrees>42.355035133659839630126953125</LatitudeDegrees>
              <LongitudeDegrees>2.62530871666967868804931640625</LongitudeDegrees>
            </Position>
            <AltitudeMeters>887.4000244140625</AltitudeMeters>
            <DistanceMeters>NAN</DistanceMeters>
          </Trackpoint>
          <Trackpoint>
            <Time>2021-04-02T08:07:37.000Z</Time>
            <Position>
              <LatitudeDegrees>42.3550520651042461395263671875</LatitudeDegrees>
              <LongitudeDegrees>2.62528575025498867034912109375</LongitudeDegrees>
            </Position>
            <AltitudeMeters>887.20001220703125</AltitudeMeters>
            <DistanceMeters>NAN</DistanceMeters>
          </Trackpoint>
          <Trackpoint>
            <Time>2021-04-02T08:07:43.000Z</Time>
            <Position>
              <LatitudeDegrees>42.355091460049152374267578125</LatitudeDegrees>
              <LongitudeDegrees>2.6252162642776966094970703125</LongitudeDegrees>
            </Position>
            <AltitudeMeters>887</AltitudeMeters>
            <DistanceMeters>NAN</DistanceMeters>
          </Trackpoint>
          <Trackpoint>
            <Time>2021-04-02T08:07:47.000Z</Time>
            <Position>
              <LatitudeDegrees>42.35512054525315761566162109375</LatitudeDegrees>
              <LongitudeDegrees>2.625176869332790374755859375</LongitudeDegrees>
            </Position>
            <AltitudeMeters>886.79998779296875</AltitudeMeters>
            <DistanceMeters>NAN</DistanceMeters>
          </Trackpoint>
          <Trackpoint>
            <Time>2021-04-02T08:07:51.000Z</Time>
            <Position>
              <LatitudeDegrees>42.35514569096267223358154296875</LatitudeDegrees>
              <LongitudeDegrees>2.6251381449401378631591796875</LongitudeDegrees>
            </Position>
            <AltitudeMeters>886.5999755859375</AltitudeMeters>
            <DistanceMeters>NAN</DistanceMeters>
          </Trackpoint>
          <Trackpoint>
            <Time>2021-04-02T08:07:57.000Z</Time>
            <Position>
              <LatitudeDegrees>42.35520134679973125457763671875</LatitudeDegrees>
              <LongitudeDegrees>2.625086009502410888671875</LongitudeDegrees>
            </Position>
            <AltitudeMeters>886.20001220703125</AltitudeMeters>
            <DistanceMeters>NAN</DistanceMeters>
          </Trackpoint>
          <Trackpoint>
            <Time>2021-04-02T08:08:07.000Z</Time>
            <Position>
              <LatitudeDegrees>42.35528818331658840179443359375</LatitudeDegrees>
              <LongitudeDegrees>2.62499489821493625640869140625</LongitudeDegrees>
            </Position>
            <AltitudeMeters>885.79998779296875</AltitudeMeters>
            <DistanceMeters>NAN</DistanceMeters>
          </Trackpoint>
          <Trackpoint>
            <Time>2021-04-02T08:08:09.000Z</Time>
            <Position>
              <LatitudeDegrees>42.3553088866174221038818359375</LatitudeDegrees>
              <LongitudeDegrees>2.624982409179210662841796875</LongitudeDegrees>
            </Position>
            <AltitudeMeters>885.5999755859375</AltitudeMeters>
            <DistanceMeters>NAN</DistanceMeters>
          </Trackpoint>
          <Trackpoint>
            <Time>2021-04-02T08:08:15.000Z</Time>
            <Position>
              <LatitudeDegrees>42.35535020940005779266357421875</LatitudeDegrees>
              <LongitudeDegrees>2.62492977082729339599609375</LongitudeDegrees>
            </Position>
            <AltitudeMeters>885.20001220703125</AltitudeMeters>
            <DistanceMeters>NAN</DistanceMeters>
          </Trackpoint>
          <Trackpoint>
            <Time>2021-04-02T08:08:23.000Z</Time>
            <Position>
              <LatitudeDegrees>42.3554282449185848236083984375</LatitudeDegrees>
              <LongitudeDegrees>2.62483195401728153228759765625</LongitudeDegrees>
            </Position>
            <AltitudeMeters>884.79998779296875</AltitudeMeters>
            <DistanceMeters>NAN</DistanceMeters>
          </Trackpoint>
          <Trackpoint>
            <Time>2021-04-02T08:08:25.000Z</Time>
            <Position>
              <LatitudeDegrees>42.35544442199170589447021484375</LatitudeDegrees>
              <LongitudeDegrees>2.6248048804700374603271484375</LongitudeDegrees>
            </Position>
            <AltitudeMeters>884.5999755859375</AltitudeMeters>
            <DistanceMeters>NAN</DistanceMeters>
          </Trackpoint>
          <Trackpoint>
            <Time>2021-04-02T08:08:28.000Z</Time>
            <Position>
              <LatitudeDegrees>42.3554698191583156585693359375</LatitudeDegrees>
              <LongitudeDegrees>2.62477286159992218017578125</LongitudeDegrees>
            </Position>
            <AltitudeMeters>884.20001220703125</AltitudeMeters>
            <DistanceMeters>NAN</DistanceMeters>
          </Trackpoint>
          <Trackpoint>
            <Time>2021-04-02T08:08:30.000Z</Time>
            <Position>
              <LatitudeDegrees>42.3554872535169124603271484375</LatitudeDegrees>
              <LongitudeDegrees>2.62474494986236095428466796875</LongitudeDegrees>
            </Position>
            <AltitudeMeters>884</AltitudeMeters>
            <DistanceMeters>NAN</DistanceMeters>
          </Trackpoint>
          <Trackpoint>
            <Time>2021-04-02T08:08:31.000Z</Time>
            <Position>
              <LatitudeDegrees>42.35550108365714550018310546875</LatitudeDegrees>
              <LongitudeDegrees>2.62473271228373050689697265625</LongitudeDegrees>
            </Position>
            <AltitudeMeters>884</AltitudeMeters>
            <DistanceMeters>NAN</DistanceMeters>
          </Trackpoint>
          <Trackpoint>
            <Time>2021-04-02T08:08:37.000Z</Time>
            <Position>
              <LatitudeDegrees>42.3555680550634860992431640625</LatitudeDegrees>
              <LongitudeDegrees>2.6246633939445018768310546875</LongitudeDegrees>
            </Position>
            <AltitudeMeters>883.5999755859375</AltitudeMeters>
            <DistanceMeters>NAN</DistanceMeters>
          </Trackpoint>
          <Trackpoint>
            <Time>2021-04-02T08:08:39.000Z</Time>
            <Position>
              <LatitudeDegrees>42.35558071173727512359619140625</LatitudeDegrees>
              <LongitudeDegrees>2.62463338673114776611328125</LongitudeDegrees>
            </Position>
            <AltitudeMeters>883.4000244140625</AltitudeMeters>
            <DistanceMeters>NAN</DistanceMeters>
          </Trackpoint>
          <Trackpoint>
            <Time>2021-04-02T08:08:47.000Z</Time>
            <Position>
              <LatitudeDegrees>42.3556382954120635986328125</LatitudeDegrees>
              <LongitudeDegrees>2.62453540228307247161865234375</LongitudeDegrees>
            </Position>
            <AltitudeMeters>882.5999755859375</AltitudeMeters>
            <DistanceMeters>NAN</DistanceMeters>
          </Trackpoint>
          <Trackpoint>
            <Time>2021-04-02T08:08:48.000Z</Time>
            <Position>
              <LatitudeDegrees>42.35564542002975940704345703125</LatitudeDegrees>
              <LongitudeDegrees>2.62452115304768085479736328125</LongitudeDegrees>
            </Position>
            <AltitudeMeters>882.4000244140625</AltitudeMeters>
            <DistanceMeters>NAN</DistanceMeters>
          </Trackpoint>
          <Trackpoint>
            <Time>2021-04-02T08:08:51.000Z</Time>
            <Position>
              <LatitudeDegrees>42.35567039810121059417724609375</LatitudeDegrees>
              <LongitudeDegrees>2.6244833506643772125244140625</LongitudeDegrees>
            </Position>
            <AltitudeMeters>882.20001220703125</AltitudeMeters>
            <DistanceMeters>NAN</DistanceMeters>
          </Trackpoint>
          <Trackpoint>
            <Time>2021-04-02T08:08:53.000Z</Time>
            <Position>
              <LatitudeDegrees>42.3556864075362682342529296875</LatitudeDegrees>
              <LongitudeDegrees>2.62446080334484577178955078125</LongitudeDegrees>
            </Position>
            <AltitudeMeters>882</AltitudeMeters>
            <DistanceMeters>NAN</DistanceMeters>
          </Trackpoint>
          <Trackpoint>
            <Time>2021-04-02T08:08:58.000Z</Time>
            <Position>
              <LatitudeDegrees>42.35572823323309421539306640625</LatitudeDegrees>
              <LongitudeDegrees>2.62440548278391361236572265625</LongitudeDegrees>
            </Position>
            <AltitudeMeters>881.5999755859375</AltitudeMeters>
            <DistanceMeters>NAN</DistanceMeters>
          </Trackpoint>
          <Trackpoint>
            <Time>2021-04-02T08:08:59.000Z</Time>
            <Position>
              <LatitudeDegrees>42.3557316698133945465087890625</LatitudeDegrees>
              <LongitudeDegrees>2.6243945024907588958740234375</LongitudeDegrees>
            </Position>
            <AltitudeMeters>881.4000244140625</AltitudeMeters>
            <DistanceMeters>NAN</DistanceMeters>
          </Trackpoint>
          <Trackpoint>
            <Time>2021-04-02T08:09:00.000Z</Time>
            <Position>
              <LatitudeDegrees>42.35573686659336090087890625</LatitudeDegrees>
              <LongitudeDegrees>2.62438754551112651824951171875</LongitudeDegrees>
            </Position>
            <AltitudeMeters>881.4000244140625</AltitudeMeters>
            <DistanceMeters>NAN</DistanceMeters>
          </Trackpoint>
          <Trackpoint>
            <Time>2021-04-02T08:09:02.000Z</Time>
            <Position>
              <LatitudeDegrees>42.3557480983436107635498046875</LatitudeDegrees>
              <LongitudeDegrees>2.62436793185770511627197265625</LongitudeDegrees>
            </Position>
            <AltitudeMeters>881.20001220703125</AltitudeMeters>
            <DistanceMeters>NAN</DistanceMeters>
          </Trackpoint>
          <Trackpoint>
            <Time>2021-04-02T08:09:09.000Z</Time>
            <Position>
              <LatitudeDegrees>42.35578087158501148223876953125</LatitudeDegrees>
              <LongitudeDegrees>2.62428528629243373870849609375</LongitudeDegrees>
            </Position>
            <AltitudeMeters>880.4000244140625</AltitudeMeters>
            <DistanceMeters>NAN</DistanceMeters>
          </Trackpoint>
          <Trackpoint>
            <Time>2021-04-02T08:09:10.000Z</Time>
            <Position>
              <LatitudeDegrees>42.35578640364110469818115234375</LatitudeDegrees>
              <LongitudeDegrees>2.62427288107573986053466796875</LongitudeDegrees>
            </Position>
            <AltitudeMeters>880.4000244140625</AltitudeMeters>
            <DistanceMeters>NAN</DistanceMeters>
          </Trackpoint>
          <Trackpoint>
            <Time>2021-04-02T08:09:17.000Z</Time>
            <Position>
              <LatitudeDegrees>42.35583669506013393402099609375</LatitudeDegrees>
              <LongitudeDegrees>2.62419207952916622161865234375</LongitudeDegrees>
            </Position>
            <AltitudeMeters>879.5999755859375</AltitudeMeters>
            <DistanceMeters>NAN</DistanceMeters>
          </Trackpoint>
          <Trackpoint>
            <Time>2021-04-02T08:09:22.000Z</Time>
            <Position>
              <LatitudeDegrees>42.35587290488183498382568359375</LatitudeDegrees>
              <LongitudeDegrees>2.62412804178893566131591796875</LongitudeDegrees>
            </Position>
            <AltitudeMeters>879.20001220703125</AltitudeMeters>
            <DistanceMeters>NAN</DistanceMeters>
          </Trackpoint>
          <Trackpoint>
            <Time>2021-04-02T08:09:25.000Z</Time>
            <Position>
              <LatitudeDegrees>42.355893440544605255126953125</LatitudeDegrees>
              <LongitudeDegrees>2.62408797629177570343017578125</LongitudeDegrees>
            </Position>
            <AltitudeMeters>878.79998779296875</AltitudeMeters>
            <DistanceMeters>NAN</DistanceMeters>
          </Trackpoint>
          <Trackpoint>
            <Time>2021-04-02T08:09:31.000Z</Time>
            <Position>
              <LatitudeDegrees>42.355930991470813751220703125</LatitudeDegrees>
              <LongitudeDegrees>2.62402427382767200469970703125</LongitudeDegrees>
            </Position>
            <AltitudeMeters>878.20001220703125</AltitudeMeters>
            <DistanceMeters>NAN</DistanceMeters>
          </Trackpoint>
          <Trackpoint>
            <Time>2021-04-02T08:09:32.000Z</Time>
            <Position>
              <LatitudeDegrees>42.35593803226947784423828125</LatitudeDegrees>
              <LongitudeDegrees>2.62398856692016124725341796875</LongitudeDegrees>
            </Position>
            <AltitudeMeters>878.20001220703125</AltitudeMeters>
            <DistanceMeters>NAN</DistanceMeters>
          </Trackpoint>
          <Trackpoint>
            <Time>2021-04-02T08:09:34.000Z</Time>
            <Position>
              <LatitudeDegrees>42.355945073068141937255859375</LatitudeDegrees>
              <LongitudeDegrees>2.62395772151648998260498046875</LongitudeDegrees>
            </Position>
            <AltitudeMeters>878</AltitudeMeters>
            <DistanceMeters>NAN</DistanceMeters>
          </Trackpoint>
          <Trackpoint>
            <Time>2021-04-02T08:09:36.000Z</Time>
            <Position>
              <LatitudeDegrees>42.35594817437231540679931640625</LatitudeDegrees>
              <LongitudeDegrees>2.62392385862767696380615234375</LongitudeDegrees>
            </Position>
            <AltitudeMeters>877.79998779296875</AltitudeMeters>
            <DistanceMeters>NAN</DistanceMeters>
          </Trackpoint>
          <Trackpoint>
            <Time>2021-04-02T08:09:39.000Z</Time>
            <Position>
              <LatitudeDegrees>42.35596141777932643890380859375</LatitudeDegrees>
              <LongitudeDegrees>2.62387809343636035919189453125</LongitudeDegrees>
            </Position>
            <AltitudeMeters>877.79998779296875</AltitudeMeters>
            <DistanceMeters>NAN</DistanceMeters>
          </Trackpoint>
          <Trackpoint>
            <Time>2021-04-02T08:09:41.000Z</Time>
            <Position>
              <LatitudeDegrees>42.35596896149218082427978515625</LatitudeDegrees>
              <LongitudeDegrees>2.62384749948978424072265625</LongitudeDegrees>
            </Position>
            <AltitudeMeters>877.5999755859375</AltitudeMeters>
            <DistanceMeters>NAN</DistanceMeters>
          </Trackpoint>
          <Trackpoint>
            <Time>2021-04-02T08:09:43.000Z</Time>
            <Position>
              <LatitudeDegrees>42.35597197897732257843017578125</LatitudeDegrees>
              <LongitudeDegrees>2.6238171570003032684326171875</LongitudeDegrees>
            </Position>
            <AltitudeMeters>877.5999755859375</AltitudeMeters>
            <DistanceMeters>NAN</DistanceMeters>
          </Trackpoint>
          <Trackpoint>
            <Time>2021-04-02T08:09:46.000Z</Time>
            <Position>
              <LatitudeDegrees>42.3559898324310779571533203125</LatitudeDegrees>
              <LongitudeDegrees>2.6237757503986358642578125</LongitudeDegrees>
            </Position>
            <AltitudeMeters>877.20001220703125</AltitudeMeters>
            <DistanceMeters>NAN</DistanceMeters>
          </Trackpoint>
          <Trackpoint>
            <Time>2021-04-02T08:09:48.000Z</Time>
            <Position>
              <LatitudeDegrees>42.355992011725902557373046875</LatitudeDegrees>
              <LongitudeDegrees>2.623741216957569122314453125</LongitudeDegrees>
            </Position>
            <AltitudeMeters>877</AltitudeMeters>
            <DistanceMeters>NAN</DistanceMeters>
          </Trackpoint>
          <Trackpoint>
            <Time>2021-04-02T08:09:53.000Z</Time>
            <Position>
              <LatitudeDegrees>42.35600642859935760498046875</LatitudeDegrees>
              <LongitudeDegrees>2.6236389577388763427734375</LongitudeDegrees>
            </Position>
            <AltitudeMeters>877</AltitudeMeters>
            <DistanceMeters>NAN</DistanceMeters>
          </Trackpoint>
          <Trackpoint>
            <Time>2021-04-02T08:10:01.000Z</Time>
            <Position>
              <LatitudeDegrees>42.3560223542153835296630859375</LatitudeDegrees>
              <LongitudeDegrees>2.62349604628980159759521484375</LongitudeDegrees>
            </Position>
            <AltitudeMeters>876.4000244140625</AltitudeMeters>
            <DistanceMeters>NAN</DistanceMeters>
          </Trackpoint>
          <Trackpoint>
            <Time>2021-04-02T08:10:03.000Z</Time>
            <Position>
              <LatitudeDegrees>42.3560273833572864532470703125</LatitudeDegrees>
              <LongitudeDegrees>2.6234654523432254791259765625</LongitudeDegrees>
            </Position>
            <AltitudeMeters>876.20001220703125</AltitudeMeters>
            <DistanceMeters>NAN</DistanceMeters>
          </Trackpoint>
          <Trackpoint>
            <Time>2021-04-02T08:10:09.000Z</Time>
            <Position>
              <LatitudeDegrees>42.35603501088917255401611328125</LatitudeDegrees>
              <LongitudeDegrees>2.623390518128871917724609375</LongitudeDegrees>
            </Position>
            <AltitudeMeters>875.79998779296875</AltitudeMeters>
            <DistanceMeters>NAN</DistanceMeters>
          </Trackpoint>
          <Trackpoint>
            <Time>2021-04-02T08:10:16.000Z</Time>
            <Position>
              <LatitudeDegrees>42.3560391180217266082763671875</LatitudeDegrees>
              <LongitudeDegrees>2.62329119257628917694091796875</LongitudeDegrees>
            </Position>
            <AltitudeMeters>875.20001220703125</AltitudeMeters>
            <DistanceMeters>NAN</DistanceMeters>
          </Trackpoint>
          <Trackpoint>
            <Time>2021-04-02T08:10:17.000Z</Time>
            <Position>
              <LatitudeDegrees>42.35603853128850460052490234375</LatitudeDegrees>
              <LongitudeDegrees>2.623276524245738983154296875</LongitudeDegrees>
            </Position>
            <AltitudeMeters>875.20001220703125</AltitudeMeters>
            <DistanceMeters>NAN</DistanceMeters>
          </Trackpoint>
          <Trackpoint>
            <Time>2021-04-02T08:10:18.000Z</Time>
            <Position>
              <LatitudeDegrees>42.3560414649546146392822265625</LatitudeDegrees>
              <LongitudeDegrees>2.6232634484767913818359375</LongitudeDegrees>
            </Position>
            <AltitudeMeters>875</AltitudeMeters>
            <DistanceMeters>NAN</DistanceMeters>
          </Trackpoint>
          <Trackpoint>
            <Time>2021-04-02T08:10:20.000Z</Time>
            <Position>
              <LatitudeDegrees>42.35603970475494861602783203125</LatitudeDegrees>
              <LongitudeDegrees>2.6232421584427356719970703125</LongitudeDegrees>
            </Position>
            <AltitudeMeters>874.79998779296875</AltitudeMeters>
            <DistanceMeters>NAN</DistanceMeters>
          </Trackpoint>
          <Trackpoint>
            <Time>2021-04-02T08:10:23.000Z</Time>
            <Position>
              <LatitudeDegrees>42.35603769309818744659423828125</LatitudeDegrees>
              <LongitudeDegrees>2.6232146658003330230712890625</LongitudeDegrees>
            </Position>
            <AltitudeMeters>874.79998779296875</AltitudeMeters>
            <DistanceMeters>NAN</DistanceMeters>
          </Trackpoint>
          <Trackpoint>
            <Time>2021-04-02T08:10:25.000Z</Time>
            <Position>
              <LatitudeDegrees>42.356041967868804931640625</LatitudeDegrees>
              <LongitudeDegrees>2.62319706380367279052734375</LongitudeDegrees>
            </Position>
            <AltitudeMeters>874.5999755859375</AltitudeMeters>
            <DistanceMeters>NAN</DistanceMeters>
          </Trackpoint>
          <Trackpoint>
            <Time>2021-04-02T08:10:26.000Z</Time>
            <Position>
              <LatitudeDegrees>42.35604573972523212432861328125</LatitudeDegrees>
              <LongitudeDegrees>2.62317837215960025787353515625</LongitudeDegrees>
            </Position>
            <AltitudeMeters>874.4000244140625</AltitudeMeters>
            <DistanceMeters>NAN</DistanceMeters>
          </Trackpoint>
          <Trackpoint>
            <Time>2021-04-02T08:10:30.000Z</Time>
            <Position>
              <LatitudeDegrees>42.356025874614715576171875</LatitudeDegrees>
              <LongitudeDegrees>2.6231315173208713531494140625</LongitudeDegrees>
            </Position>
            <AltitudeMeters>874.4000244140625</AltitudeMeters>
            <DistanceMeters>NAN</DistanceMeters>
          </Trackpoint>
          <Trackpoint>
            <Time>2021-04-02T08:10:32.000Z</Time>
            <Position>
              <LatitudeDegrees>42.35602042637765407562255859375</LatitudeDegrees>
              <LongitudeDegrees>2.623111903667449951171875</LongitudeDegrees>
            </Position>
            <AltitudeMeters>874.4000244140625</AltitudeMeters>
            <DistanceMeters>NAN</DistanceMeters>
          </Trackpoint>
          <Trackpoint>
            <Time>2021-04-02T08:10:35.000Z</Time>
            <Position>
              <LatitudeDegrees>42.35601573251187801361083984375</LatitudeDegrees>
              <LongitudeDegrees>2.62307904660701751708984375</LongitudeDegrees>
            </Position>
            <AltitudeMeters>874.20001220703125</AltitudeMeters>
            <DistanceMeters>NAN</DistanceMeters>
          </Trackpoint>
          <Trackpoint>
            <Time>2021-04-02T08:10:37.000Z</Time>
            <Position>
              <LatitudeDegrees>42.356006763875484466552734375</LatitudeDegrees>
              <LongitudeDegrees>2.6230488717555999755859375</LongitudeDegrees>
            </Position>
            <AltitudeMeters>874.20001220703125</AltitudeMeters>
            <DistanceMeters>NAN</DistanceMeters>
          </Trackpoint>
          <Trackpoint>
            <Time>2021-04-02T08:10:39.000Z</Time>
            <Position>
              <LatitudeDegrees>42.35601271502673625946044921875</LatitudeDegrees>
              <LongitudeDegrees>2.6230312697589397430419921875</LongitudeDegrees>
            </Position>
            <AltitudeMeters>874.20001220703125</AltitudeMeters>
            <DistanceMeters>NAN</DistanceMeters>
          </Trackpoint>
          <Trackpoint>
            <Time>2021-04-02T08:10:42.000Z</Time>
            <Position>
              <LatitudeDegrees>42.3560206778347492218017578125</LatitudeDegrees>
              <LongitudeDegrees>2.62299397028982639312744140625</LongitudeDegrees>
            </Position>
            <AltitudeMeters>874</AltitudeMeters>
            <DistanceMeters>NAN</DistanceMeters>
          </Trackpoint>
          <Trackpoint>
            <Time>2021-04-02T08:10:47.000Z</Time>
            <Position>
              <LatitudeDegrees>42.3560200072824954986572265625</LatitudeDegrees>
              <LongitudeDegrees>2.6229316927492618560791015625</LongitudeDegrees>
            </Position>
            <AltitudeMeters>873.5999755859375</AltitudeMeters>
            <DistanceMeters>NAN</DistanceMeters>
          </Trackpoint>
          <Trackpoint>
            <Time>2021-04-02T08:10:48.000Z</Time>
            <Position>
              <LatitudeDegrees>42.356020845472812652587890625</LatitudeDegrees>
              <LongitudeDegrees>2.6229229755699634552001953125</LongitudeDegrees>
            </Position>
            <AltitudeMeters>873.5999755859375</AltitudeMeters>
            <DistanceMeters>NAN</DistanceMeters>
          </Trackpoint>
          <Trackpoint>
            <Time>2021-04-02T08:10:53.000Z</Time>
            <Position>
              <LatitudeDegrees>42.35602377913892269134521484375</LatitudeDegrees>
              <LongitudeDegrees>2.62285784818232059478759765625</LongitudeDegrees>
            </Position>
            <AltitudeMeters>873.20001220703125</AltitudeMeters>
            <DistanceMeters>NAN</DistanceMeters>
          </Trackpoint>
          <Trackpoint>
            <Time>2021-04-02T08:10:56.000Z</Time>
            <Position>
              <LatitudeDegrees>42.356035597622394561767578125</LatitudeDegrees>
              <LongitudeDegrees>2.62281945906579494476318359375</LongitudeDegrees>
            </Position>
            <AltitudeMeters>872.79998779296875</AltitudeMeters>
            <DistanceMeters>NAN</DistanceMeters>
          </Trackpoint>
          <Trackpoint>
            <Time>2021-04-02T08:10:59.000Z</Time>
            <Position>
              <LatitudeDegrees>42.35603601671755313873291015625</LatitudeDegrees>
              <LongitudeDegrees>2.62277838774025440216064453125</LongitudeDegrees>
            </Position>
            <AltitudeMeters>872.79998779296875</AltitudeMeters>
            <DistanceMeters>NAN</DistanceMeters>
          </Trackpoint>
          <Trackpoint>
            <Time>2021-04-02T08:11:01.000Z</Time>
            <Position>
              <LatitudeDegrees>42.3560324124991893768310546875</LatitudeDegrees>
              <LongitudeDegrees>2.62275441549718379974365234375</LongitudeDegrees>
            </Position>
            <AltitudeMeters>872.79998779296875</AltitudeMeters>
            <DistanceMeters>NAN</DistanceMeters>
          </Trackpoint>
          <Trackpoint>
            <Time>2021-04-02T08:11:02.000Z</Time>
            <Position>
              <LatitudeDegrees>42.35603459179401397705078125</LatitudeDegrees>
              <LongitudeDegrees>2.6227439381182193756103515625</LongitudeDegrees>
            </Position>
            <AltitudeMeters>872.5999755859375</AltitudeMeters>
            <DistanceMeters>NAN</DistanceMeters>
          </Trackpoint>
          <Trackpoint>
            <Time>2021-04-02T08:11:05.000Z</Time>
            <Position>
              <LatitudeDegrees>42.35603903420269489288330078125</LatitudeDegrees>
              <LongitudeDegrees>2.62269171886146068572998046875</LongitudeDegrees>
            </Position>
            <AltitudeMeters>872.5999755859375</AltitudeMeters>
            <DistanceMeters>NAN</DistanceMeters>
          </Trackpoint>
          <Trackpoint>
            <Time>2021-04-02T08:11:07.000Z</Time>
            <Position>
              <LatitudeDegrees>42.356046997010707855224609375</LatitudeDegrees>
              <LongitudeDegrees>2.6226540841162204742431640625</LongitudeDegrees>
            </Position>
            <AltitudeMeters>872.5999755859375</AltitudeMeters>
            <DistanceMeters>NAN</DistanceMeters>
          </Trackpoint>
          <Trackpoint>
            <Time>2021-04-02T08:11:08.000Z</Time>
            <Position>
              <LatitudeDegrees>42.3560448177158832550048828125</LatitudeDegrees>
              <LongitudeDegrees>2.6226331293582916259765625</LongitudeDegrees>
            </Position>
            <AltitudeMeters>872.5999755859375</AltitudeMeters>
            <DistanceMeters>NAN</DistanceMeters>
          </Trackpoint>
          <Trackpoint>
            <Time>2021-04-02T08:11:10.000Z</Time>
            <Position>
              <LatitudeDegrees>42.3560387827455997467041015625</LatitudeDegrees>
              <LongitudeDegrees>2.6225880347192287445068359375</LongitudeDegrees>
            </Position>
            <AltitudeMeters>872.4000244140625</AltitudeMeters>
            <DistanceMeters>NAN</DistanceMeters>
          </Trackpoint>
          <Trackpoint>
            <Time>2021-04-02T08:11:13.000Z</Time>
            <Position>
              <LatitudeDegrees>42.35603719018399715423583984375</LatitudeDegrees>
              <LongitudeDegrees>2.62252626009285449981689453125</LongitudeDegrees>
            </Position>
            <AltitudeMeters>872</AltitudeMeters>
            <DistanceMeters>NAN</DistanceMeters>
          </Trackpoint>
          <Trackpoint>
            <Time>2021-04-02T08:11:16.000Z</Time>
            <Position>
              <LatitudeDegrees>42.3560391180217266082763671875</LatitudeDegrees>
              <LongitudeDegrees>2.62247630394995212554931640625</LongitudeDegrees>
            </Position>
            <AltitudeMeters>872</AltitudeMeters>
            <DistanceMeters>NAN</DistanceMeters>
          </Trackpoint>
          <Trackpoint>
            <Time>2021-04-02T08:11:18.000Z</Time>
            <Position>
              <LatitudeDegrees>42.3560431413352489471435546875</LatitudeDegrees>
              <LongitudeDegrees>2.62244780547916889190673828125</LongitudeDegrees>
            </Position>
            <AltitudeMeters>871.79998779296875</AltitudeMeters>
            <DistanceMeters>NAN</DistanceMeters>
          </Trackpoint>
          <Trackpoint>
            <Time>2021-04-02T08:11:26.000Z</Time>
            <Position>
              <LatitudeDegrees>42.35607080161571502685546875</LatitudeDegrees>
              <LongitudeDegrees>2.6223429478704929351806640625</LongitudeDegrees>
            </Position>
            <AltitudeMeters>871.4000244140625</AltitudeMeters>
            <DistanceMeters>NAN</DistanceMeters>
          </Trackpoint>
          <Trackpoint>
            <Time>2021-04-02T08:11:28.000Z</Time>
            <Position>
              <LatitudeDegrees>42.3560820333659648895263671875</LatitudeDegrees>
              <LongitudeDegrees>2.62231704778969287872314453125</LongitudeDegrees>
            </Position>
            <AltitudeMeters>871.4000244140625</AltitudeMeters>
            <DistanceMeters>NAN</DistanceMeters>
          </Trackpoint>
          <Trackpoint>
            <Time>2021-04-02T08:11:30.000Z</Time>
            <Position>
              <LatitudeDegrees>42.35608060844242572784423828125</LatitudeDegrees>
              <LongitudeDegrees>2.622286789119243621826171875</LongitudeDegrees>
            </Position>
            <AltitudeMeters>871</AltitudeMeters>
            <DistanceMeters>NAN</DistanceMeters>
          </Trackpoint>
          <Trackpoint>
            <Time>2021-04-02T08:11:33.000Z</Time>
            <Position>
              <LatitudeDegrees>42.35607859678566455841064453125</LatitudeDegrees>
              <LongitudeDegrees>2.62228335253894329071044921875</LongitudeDegrees>
            </Position>
            <AltitudeMeters>870.79998779296875</AltitudeMeters>
            <DistanceMeters>NAN</DistanceMeters>
          </Trackpoint>
          <Trackpoint>
            <Time>2021-04-02T08:11:34.000Z</Time>
            <Position>
              <LatitudeDegrees>42.356074489653110504150390625</LatitudeDegrees>
              <LongitudeDegrees>2.62228653766214847564697265625</LongitudeDegrees>
            </Position>
            <AltitudeMeters>870.79998779296875</AltitudeMeters>
            <DistanceMeters>NAN</DistanceMeters>
          </Trackpoint>
          <Trackpoint>
            <Time>2021-04-02T08:11:42.000Z</Time>
            <Position>
              <LatitudeDegrees>42.3560186661779880523681640625</LatitudeDegrees>
              <LongitudeDegrees>2.62230120599269866943359375</LongitudeDegrees>
            </Position>
            <AltitudeMeters>871</AltitudeMeters>
            <DistanceMeters>NAN</DistanceMeters>
          </Trackpoint>
          <Trackpoint>
            <Time>2021-04-02T08:11:45.000Z</Time>
            <Position>
              <LatitudeDegrees>42.356024868786334991455078125</LatitudeDegrees>
              <LongitudeDegrees>2.62230196036398410797119140625</LongitudeDegrees>
            </Position>
            <AltitudeMeters>870.5999755859375</AltitudeMeters>
            <DistanceMeters>NAN</DistanceMeters>
          </Trackpoint>
          <Trackpoint>
            <Time>2021-04-02T08:11:57.000Z</Time>
            <Position>
              <LatitudeDegrees>42.356024868786334991455078125</LatitudeDegrees>
              <LongitudeDegrees>2.62230196036398410797119140625</LongitudeDegrees>
            </Position>
            <AltitudeMeters>870.5999755859375</AltitudeMeters>
            <DistanceMeters>NAN</DistanceMeters>
          </Trackpoint>
          <Trackpoint>
            <Time>2021-04-02T08:12:01.000Z</Time>
            <Position>
              <LatitudeDegrees>42.356024868786334991455078125</LatitudeDegrees>
              <LongitudeDegrees>2.62230296619236469268798828125</LongitudeDegrees>
            </Position>
            <AltitudeMeters>870.5999755859375</AltitudeMeters>
            <DistanceMeters>NAN</DistanceMeters>
          </Trackpoint>
          <Trackpoint>
            <Time>2021-04-02T08:12:08.000Z</Time>
            <Position>
              <LatitudeDegrees>42.3560196720063686370849609375</LatitudeDegrees>
              <LongitudeDegrees>2.62230464257299900054931640625</LongitudeDegrees>
            </Position>
            <AltitudeMeters>870.79998779296875</AltitudeMeters>
            <DistanceMeters>NAN</DistanceMeters>
          </Trackpoint>
          <Trackpoint>
            <Time>2021-04-02T08:12:13.000Z</Time>
            <Position>
              <LatitudeDegrees>42.3560133017599582672119140625</LatitudeDegrees>
              <LongitudeDegrees>2.6223178021609783172607421875</LongitudeDegrees>
            </Position>
            <AltitudeMeters>870.5999755859375</AltitudeMeters>
            <DistanceMeters>NAN</DistanceMeters>
          </Trackpoint>
          <Trackpoint>
            <Time>2021-04-02T08:12:16.000Z</Time>
            <Position>
              <LatitudeDegrees>42.35601313412189483642578125</LatitudeDegrees>
              <LongitudeDegrees>2.62232408858835697174072265625</LongitudeDegrees>
            </Position>
            <AltitudeMeters>870.5999755859375</AltitudeMeters>
            <DistanceMeters>NAN</DistanceMeters>
          </Trackpoint>
          <Trackpoint>
            <Time>2021-04-02T08:12:24.000Z</Time>
            <Position>
              <LatitudeDegrees>42.35601313412189483642578125</LatitudeDegrees>
              <LongitudeDegrees>2.6223409362137317657470703125</LongitudeDegrees>
            </Position>
            <AltitudeMeters>870.5999755859375</AltitudeMeters>
            <DistanceMeters>NAN</DistanceMeters>
          </Trackpoint>
          <Trackpoint>
            <Time>2021-04-02T08:12:30.000Z</Time>
            <Position>
              <LatitudeDegrees>42.3560218513011932373046875</LatitudeDegrees>
              <LongitudeDegrees>2.6223459653556346893310546875</LongitudeDegrees>
            </Position>
            <AltitudeMeters>870.5999755859375</AltitudeMeters>
            <DistanceMeters>NAN</DistanceMeters>
          </Trackpoint>
          <Trackpoint>
            <Time>2021-04-02T08:13:06.000Z</Time>
            <Position>
              <LatitudeDegrees>42.35608530230820178985595703125</LatitudeDegrees>
              <LongitudeDegrees>2.6223030500113964080810546875</LongitudeDegrees>
            </Position>
            <AltitudeMeters>870.5999755859375</AltitudeMeters>
            <DistanceMeters>NAN</DistanceMeters>
          </Trackpoint>
          <Trackpoint>
            <Time>2021-04-02T08:13:11.000Z</Time>
            <Position>
              <LatitudeDegrees>42.35605093650519847869873046875</LatitudeDegrees>
              <LongitudeDegrees>2.62217438779771327972412109375</LongitudeDegrees>
            </Position>
            <AltitudeMeters>870.5999755859375</AltitudeMeters>
            <DistanceMeters>NAN</DistanceMeters>
          </Trackpoint>
          <Trackpoint>
            <Time>2021-04-02T08:13:18.000Z</Time>
            <Position>
              <LatitudeDegrees>42.356000058352947235107421875</LatitudeDegrees>
              <LongitudeDegrees>2.6220257766544818878173828125</LongitudeDegrees>
            </Position>
            <AltitudeMeters>870.5999755859375</AltitudeMeters>
            <DistanceMeters>NAN</DistanceMeters>
          </Trackpoint>
          <Trackpoint>
            <Time>2021-04-02T08:13:21.000Z</Time>
            <Position>
              <LatitudeDegrees>42.35598421655595302581787109375</LatitudeDegrees>
              <LongitudeDegrees>2.62198965065181255340576171875</LongitudeDegrees>
            </Position>
            <AltitudeMeters>870.5999755859375</AltitudeMeters>
            <DistanceMeters>NAN</DistanceMeters>
          </Trackpoint>
          <Trackpoint>
            <Time>2021-04-02T08:13:22.000Z</Time>
            <Position>
              <LatitudeDegrees>42.355979271233081817626953125</LatitudeDegrees>
              <LongitudeDegrees>2.6219815202057361602783203125</LongitudeDegrees>
            </Position>
            <AltitudeMeters>870.5999755859375</AltitudeMeters>
            <DistanceMeters>NAN</DistanceMeters>
          </Trackpoint>
          <Trackpoint>
            <Time>2021-04-02T08:13:26.000Z</Time>
            <Position>
              <LatitudeDegrees>42.3559586517512798309326171875</LatitudeDegrees>
              <LongitudeDegrees>2.62193164788186550140380859375</LongitudeDegrees>
            </Position>
            <AltitudeMeters>870.4000244140625</AltitudeMeters>
            <DistanceMeters>NAN</DistanceMeters>
          </Trackpoint>
          <Trackpoint>
            <Time>2021-04-02T08:13:37.000Z</Time>
            <Position>
              <LatitudeDegrees>42.355876006186008453369140625</LatitudeDegrees>
              <LongitudeDegrees>2.6217987947165966033935546875</LongitudeDegrees>
            </Position>
            <AltitudeMeters>870.20001220703125</AltitudeMeters>
            <DistanceMeters>NAN</DistanceMeters>
          </Trackpoint>
          <Trackpoint>
            <Time>2021-04-02T08:13:42.000Z</Time>
            <Position>
              <LatitudeDegrees>42.35585077665746212005615234375</LatitudeDegrees>
              <LongitudeDegrees>2.62172679416835308074951171875</LongitudeDegrees>
            </Position>
            <AltitudeMeters>870</AltitudeMeters>
            <DistanceMeters>NAN</DistanceMeters>
          </Trackpoint>
          <Trackpoint>
            <Time>2021-04-02T08:13:46.000Z</Time>
            <Position>
              <LatitudeDegrees>42.35583116300404071807861328125</LatitudeDegrees>
              <LongitudeDegrees>2.6216687075793743133544921875</LongitudeDegrees>
            </Position>
            <AltitudeMeters>870</AltitudeMeters>
            <DistanceMeters>NAN</DistanceMeters>
          </Trackpoint>
          <Trackpoint>
            <Time>2021-04-02T08:13:57.000Z</Time>
            <Position>
              <LatitudeDegrees>42.3558034189045429229736328125</LatitudeDegrees>
              <LongitudeDegrees>2.62148858048021793365478515625</LongitudeDegrees>
            </Position>
            <AltitudeMeters>870</AltitudeMeters>
            <DistanceMeters>NAN</DistanceMeters>
          </Trackpoint>
          <Trackpoint>
            <Time>2021-04-02T08:14:00.000Z</Time>
            <Position>
              <LatitudeDegrees>42.3557930253446102142333984375</LatitudeDegrees>
              <LongitudeDegrees>2.62143007479608058929443359375</LongitudeDegrees>
            </Position>
            <AltitudeMeters>870</AltitudeMeters>
            <DistanceMeters>NAN</DistanceMeters>
          </Trackpoint>
          <Trackpoint>
            <Time>2021-04-02T08:14:05.000Z</Time>
            <Position>
              <LatitudeDegrees>42.3557598330080509185791015625</LatitudeDegrees>
              <LongitudeDegrees>2.62133955024182796478271484375</LongitudeDegrees>
            </Position>
            <AltitudeMeters>869.5999755859375</AltitudeMeters>
            <DistanceMeters>NAN</DistanceMeters>
          </Trackpoint>
          <Trackpoint>
            <Time>2021-04-02T08:14:12.000Z</Time>
            <Position>
              <LatitudeDegrees>42.35573686659336090087890625</LatitudeDegrees>
              <LongitudeDegrees>2.621216587722301483154296875</LongitudeDegrees>
            </Position>
            <AltitudeMeters>869.5999755859375</AltitudeMeters>
            <DistanceMeters>NAN</DistanceMeters>
          </Trackpoint>
          <Trackpoint>
            <Time>2021-04-02T08:14:15.000Z</Time>
            <Position>
              <LatitudeDegrees>42.35571406781673431396484375</LatitudeDegrees>
              <LongitudeDegrees>2.62118138372898101806640625</LongitudeDegrees>
            </Position>
            <AltitudeMeters>869.5999755859375</AltitudeMeters>
            <DistanceMeters>NAN</DistanceMeters>
          </Trackpoint>
          <Trackpoint>
            <Time>2021-04-02T08:14:26.000Z</Time>
            <Position>
              <LatitudeDegrees>42.35561884939670562744140625</LatitudeDegrees>
              <LongitudeDegrees>2.6210742630064487457275390625</LongitudeDegrees>
            </Position>
            <AltitudeMeters>869.5999755859375</AltitudeMeters>
            <DistanceMeters>NAN</DistanceMeters>
          </Trackpoint>
          <Trackpoint>
            <Time>2021-04-02T08:14:36.000Z</Time>
            <Position>
              <LatitudeDegrees>42.3555310070514678955078125</LatitudeDegrees>
              <LongitudeDegrees>2.62098130770027637481689453125</LongitudeDegrees>
            </Position>
            <AltitudeMeters>869.20001220703125</AltitudeMeters>
            <DistanceMeters>NAN</DistanceMeters>
          </Trackpoint>
          <Trackpoint>
            <Time>2021-04-02T08:14:44.000Z</Time>
            <Position>
              <LatitudeDegrees>42.3554419912397861480712890625</LatitudeDegrees>
              <LongitudeDegrees>2.6209072954952716827392578125</LongitudeDegrees>
            </Position>
            <AltitudeMeters>869.20001220703125</AltitudeMeters>
            <DistanceMeters>NAN</DistanceMeters>
          </Trackpoint>
          <Trackpoint>
            <Time>2021-04-02T08:14:46.000Z</Time>
            <Position>
              <LatitudeDegrees>42.35541240312159061431884765625</LatitudeDegrees>
              <LongitudeDegrees>2.620896399021148681640625</LongitudeDegrees>
            </Position>
            <AltitudeMeters>869</AltitudeMeters>
            <DistanceMeters>NAN</DistanceMeters>
          </Trackpoint>
          <Trackpoint>
            <Time>2021-04-02T08:14:53.000Z</Time>
            <Position>
              <LatitudeDegrees>42.35535842366516590118408203125</LatitudeDegrees>
              <LongitudeDegrees>2.620857842266559600830078125</LongitudeDegrees>
            </Position>
            <AltitudeMeters>869</AltitudeMeters>
            <DistanceMeters>NAN</DistanceMeters>
          </Trackpoint>
          <Trackpoint>
            <Time>2021-04-02T08:15:00.000Z</Time>
            <Position>
              <LatitudeDegrees>42.355292625725269317626953125</LatitudeDegrees>
              <LongitudeDegrees>2.62076790444552898406982421875</LongitudeDegrees>
            </Position>
            <AltitudeMeters>868.5999755859375</AltitudeMeters>
            <DistanceMeters>NAN</DistanceMeters>
          </Trackpoint>
          <Trackpoint>
            <Time>2021-04-02T08:15:04.000Z</Time>
            <Position>
              <LatitudeDegrees>42.3552508838474750518798828125</LatitudeDegrees>
              <LongitudeDegrees>2.6206917129456996917724609375</LongitudeDegrees>
            </Position>
            <AltitudeMeters>868.4000244140625</AltitudeMeters>
            <DistanceMeters>NAN</DistanceMeters>
          </Trackpoint>
          <Trackpoint>
            <Time>2021-04-02T08:15:06.000Z</Time>
            <Position>
              <LatitudeDegrees>42.3552431724965572357177734375</LatitudeDegrees>
              <LongitudeDegrees>2.62066648341715335845947265625</LongitudeDegrees>
            </Position>
            <AltitudeMeters>868.20001220703125</AltitudeMeters>
            <DistanceMeters>NAN</DistanceMeters>
          </Trackpoint>
          <Trackpoint>
            <Time>2021-04-02T08:15:08.000Z</Time>
            <Position>
              <LatitudeDegrees>42.35523085109889507293701171875</LatitudeDegrees>
              <LongitudeDegrees>2.620639242231845855712890625</LongitudeDegrees>
            </Position>
            <AltitudeMeters>868</AltitudeMeters>
            <DistanceMeters>NAN</DistanceMeters>
          </Trackpoint>
          <Trackpoint>
            <Time>2021-04-02T08:15:09.000Z</Time>
            <Position>
              <LatitudeDegrees>42.35522934235632419586181640625</LatitudeDegrees>
              <LongitudeDegrees>2.6206236518919467926025390625</LongitudeDegrees>
            </Position>
            <AltitudeMeters>868</AltitudeMeters>
            <DistanceMeters>NAN</DistanceMeters>
          </Trackpoint>
          <Trackpoint>
            <Time>2021-04-02T08:15:11.000Z</Time>
            <Position>
              <LatitudeDegrees>42.355227582156658172607421875</LatitudeDegrees>
              <LongitudeDegrees>2.62059976346790790557861328125</LongitudeDegrees>
            </Position>
            <AltitudeMeters>868</AltitudeMeters>
            <DistanceMeters>NAN</DistanceMeters>
          </Trackpoint>
          <Trackpoint>
            <Time>2021-04-02T08:15:13.000Z</Time>
            <Position>
              <LatitudeDegrees>42.35522079281508922576904296875</LatitudeDegrees>
              <LongitudeDegrees>2.62057042680680751800537109375</LongitudeDegrees>
            </Position>
            <AltitudeMeters>867.79998779296875</AltitudeMeters>
            <DistanceMeters>NAN</DistanceMeters>
          </Trackpoint>
          <Trackpoint>
            <Time>2021-04-02T08:15:22.000Z</Time>
            <Position>
              <LatitudeDegrees>42.3551804758608341217041015625</LatitudeDegrees>
              <LongitudeDegrees>2.6204322092235088348388671875</LongitudeDegrees>
            </Position>
            <AltitudeMeters>867.4000244140625</AltitudeMeters>
            <DistanceMeters>NAN</DistanceMeters>
          </Trackpoint>
          <Trackpoint>
            <Time>2021-04-02T08:15:23.000Z</Time>
            <Position>
              <LatitudeDegrees>42.35517469234764575958251953125</LatitudeDegrees>
              <LongitudeDegrees>2.62041737325489521026611328125</LongitudeDegrees>
            </Position>
            <AltitudeMeters>867.4000244140625</AltitudeMeters>
            <DistanceMeters>NAN</DistanceMeters>
          </Trackpoint>
          <Trackpoint>
            <Time>2021-04-02T08:15:27.000Z</Time>
            <Position>
              <LatitudeDegrees>42.3551241494715213775634765625</LatitudeDegrees>
              <LongitudeDegrees>2.6203846000134944915771484375</LongitudeDegrees>
            </Position>
            <AltitudeMeters>867.4000244140625</AltitudeMeters>
            <DistanceMeters>NAN</DistanceMeters>
          </Trackpoint>
          <Trackpoint>
            <Time>2021-04-02T08:15:28.000Z</Time>
            <Position>
              <LatitudeDegrees>42.3551177792251110076904296875</LatitudeDegrees>
              <LongitudeDegrees>2.6203715242445468902587890625</LongitudeDegrees>
            </Position>
            <AltitudeMeters>867.4000244140625</AltitudeMeters>
            <DistanceMeters>NAN</DistanceMeters>
          </Trackpoint>
          <Trackpoint>
            <Time>2021-04-02T08:15:29.000Z</Time>
            <Position>
              <LatitudeDegrees>42.3551097325980663299560546875</LatitudeDegrees>
              <LongitudeDegrees>2.62035501189529895782470703125</LongitudeDegrees>
            </Position>
            <AltitudeMeters>867.4000244140625</AltitudeMeters>
            <DistanceMeters>NAN</DistanceMeters>
          </Trackpoint>
          <Trackpoint>
            <Time>2021-04-02T08:15:32.000Z</Time>
            <Position>
              <LatitudeDegrees>42.355078719556331634521484375</LatitudeDegrees>
              <LongitudeDegrees>2.6203371584415435791015625</LongitudeDegrees>
            </Position>
            <AltitudeMeters>867.20001220703125</AltitudeMeters>
            <DistanceMeters>NAN</DistanceMeters>
          </Trackpoint>
          <Trackpoint>
            <Time>2021-04-02T08:15:40.000Z</Time>
            <Position>
              <LatitudeDegrees>42.35497687943279743194580078125</LatitudeDegrees>
              <LongitudeDegrees>2.620338834822177886962890625</LongitudeDegrees>
            </Position>
            <AltitudeMeters>866.79998779296875</AltitudeMeters>
            <DistanceMeters>NAN</DistanceMeters>
          </Trackpoint>
          <Trackpoint>
            <Time>2021-04-02T08:15:43.000Z</Time>
            <Position>
              <LatitudeDegrees>42.35494318418204784393310546875</LatitudeDegrees>
              <LongitudeDegrees>2.62034864164888858795166015625</LongitudeDegrees>
            </Position>
            <AltitudeMeters>866.4000244140625</AltitudeMeters>
            <DistanceMeters>NAN</DistanceMeters>
          </Trackpoint>
          <Trackpoint>
            <Time>2021-04-02T08:15:46.000Z</Time>
            <Position>
              <LatitudeDegrees>42.35490999184548854827880859375</LatitudeDegrees>
              <LongitudeDegrees>2.6203644834458827972412109375</LongitudeDegrees>
            </Position>
            <AltitudeMeters>866.20001220703125</AltitudeMeters>
            <DistanceMeters>NAN</DistanceMeters>
          </Trackpoint>
          <Trackpoint>
            <Time>2021-04-02T08:15:54.000Z</Time>
            <Position>
              <LatitudeDegrees>42.3548170365393161773681640625</LatitudeDegrees>
              <LongitudeDegrees>2.620371021330356597900390625</LongitudeDegrees>
            </Position>
            <AltitudeMeters>866</AltitudeMeters>
            <DistanceMeters>NAN</DistanceMeters>
          </Trackpoint>
          <Trackpoint>
            <Time>2021-04-02T08:15:56.000Z</Time>
            <Position>
              <LatitudeDegrees>42.35479163937270641326904296875</LatitudeDegrees>
              <LongitudeDegrees>2.62037160806357860565185546875</LongitudeDegrees>
            </Position>
            <AltitudeMeters>865.79998779296875</AltitudeMeters>
            <DistanceMeters>NAN</DistanceMeters>
          </Trackpoint>
          <Trackpoint>
            <Time>2021-04-02T08:16:04.000Z</Time>
            <Position>
              <LatitudeDegrees>42.35471754334867000579833984375</LatitudeDegrees>
              <LongitudeDegrees>2.62035450898110866546630859375</LongitudeDegrees>
            </Position>
            <AltitudeMeters>865.20001220703125</AltitudeMeters>
            <DistanceMeters>NAN</DistanceMeters>
          </Trackpoint>
          <Trackpoint>
            <Time>2021-04-02T08:16:11.000Z</Time>
            <Position>
              <LatitudeDegrees>42.35466071404516696929931640625</LatitudeDegrees>
              <LongitudeDegrees>2.62029566802084445953369140625</LongitudeDegrees>
            </Position>
            <AltitudeMeters>864.79998779296875</AltitudeMeters>
            <DistanceMeters>NAN</DistanceMeters>
          </Trackpoint>
          <Trackpoint>
            <Time>2021-04-02T08:16:12.000Z</Time>
            <Position>
              <LatitudeDegrees>42.354652918875217437744140625</LatitudeDegrees>
              <LongitudeDegrees>2.62028560973703861236572265625</LongitudeDegrees>
            </Position>
            <AltitudeMeters>864.79998779296875</AltitudeMeters>
            <DistanceMeters>NAN</DistanceMeters>
          </Trackpoint>
          <Trackpoint>
            <Time>2021-04-02T08:16:21.000Z</Time>
            <Position>
              <LatitudeDegrees>42.3545649088919162750244140625</LatitudeDegrees>
              <LongitudeDegrees>2.62019156478345394134521484375</LongitudeDegrees>
            </Position>
            <AltitudeMeters>864.20001220703125</AltitudeMeters>
            <DistanceMeters>NAN</DistanceMeters>
          </Trackpoint>
          <Trackpoint>
            <Time>2021-04-02T08:16:30.000Z</Time>
            <Position>
              <LatitudeDegrees>42.35446407459676265716552734375</LatitudeDegrees>
              <LongitudeDegrees>2.6201237551867961883544921875</LongitudeDegrees>
            </Position>
            <AltitudeMeters>863.79998779296875</AltitudeMeters>
            <DistanceMeters>NAN</DistanceMeters>
          </Trackpoint>
          <Trackpoint>
            <Time>2021-04-02T08:16:31.000Z</Time>
            <Position>
              <LatitudeDegrees>42.354451082646846771240234375</LatitudeDegrees>
              <LongitudeDegrees>2.62012249790132045745849609375</LongitudeDegrees>
            </Position>
            <AltitudeMeters>863.79998779296875</AltitudeMeters>
            <DistanceMeters>NAN</DistanceMeters>
          </Trackpoint>
          <Trackpoint>
            <Time>2021-04-02T08:16:33.000Z</Time>
            <Position>
              <LatitudeDegrees>42.35443239100277423858642578125</LatitudeDegrees>
              <LongitudeDegrees>2.62012031860649585723876953125</LongitudeDegrees>
            </Position>
            <AltitudeMeters>863.5999755859375</AltitudeMeters>
            <DistanceMeters>NAN</DistanceMeters>
          </Trackpoint>
          <Trackpoint>
            <Time>2021-04-02T08:16:37.000Z</Time>
            <Position>
              <LatitudeDegrees>42.3543972708284854888916015625</LatitudeDegrees>
              <LongitudeDegrees>2.62010690756142139434814453125</LongitudeDegrees>
            </Position>
            <AltitudeMeters>863.4000244140625</AltitudeMeters>
            <DistanceMeters>NAN</DistanceMeters>
          </Trackpoint>
          <Trackpoint>
            <Time>2021-04-02T08:16:39.000Z</Time>
            <Position>
              <LatitudeDegrees>42.35437070019543170928955078125</LatitudeDegrees>
              <LongitudeDegrees>2.6201064884662628173828125</LongitudeDegrees>
            </Position>
            <AltitudeMeters>863.20001220703125</AltitudeMeters>
            <DistanceMeters>NAN</DistanceMeters>
          </Trackpoint>
          <Trackpoint>
            <Time>2021-04-02T08:16:44.000Z</Time>
            <Position>
              <LatitudeDegrees>42.3543154634535312652587890625</LatitudeDegrees>
              <LongitudeDegrees>2.62008947320282459259033203125</LongitudeDegrees>
            </Position>
            <AltitudeMeters>863</AltitudeMeters>
            <DistanceMeters>NAN</DistanceMeters>
          </Trackpoint>
          <Trackpoint>
            <Time>2021-04-02T08:16:45.000Z</Time>
            <Position>
              <LatitudeDegrees>42.35429786145687103271484375</LatitudeDegrees>
              <LongitudeDegrees>2.62008142657577991485595703125</LongitudeDegrees>
            </Position>
            <AltitudeMeters>862.79998779296875</AltitudeMeters>
            <DistanceMeters>NAN</DistanceMeters>
          </Trackpoint>
          <Trackpoint>
            <Time>2021-04-02T08:16:46.000Z</Time>
            <Position>
              <LatitudeDegrees>42.3542936705052852630615234375</LatitudeDegrees>
              <LongitudeDegrees>2.62007421813905239105224609375</LongitudeDegrees>
            </Position>
            <AltitudeMeters>862.5999755859375</AltitudeMeters>
            <DistanceMeters>NAN</DistanceMeters>
          </Trackpoint>
          <Trackpoint>
            <Time>2021-04-02T08:16:47.000Z</Time>
            <Position>
              <LatitudeDegrees>42.354286797344684600830078125</LatitudeDegrees>
              <LongitudeDegrees>2.62006868608295917510986328125</LongitudeDegrees>
            </Position>
            <AltitudeMeters>862.5999755859375</AltitudeMeters>
            <DistanceMeters>NAN</DistanceMeters>
          </Trackpoint>
          <Trackpoint>
            <Time>2021-04-02T08:16:56.000Z</Time>
            <Position>
              <LatitudeDegrees>42.35419937409460544586181640625</LatitudeDegrees>
              <LongitudeDegrees>2.62000984512269496917724609375</LongitudeDegrees>
            </Position>
            <AltitudeMeters>862</AltitudeMeters>
            <DistanceMeters>NAN</DistanceMeters>
          </Trackpoint>
          <Trackpoint>
            <Time>2021-04-02T08:17:03.000Z</Time>
            <Position>
              <LatitudeDegrees>42.35412460751831531524658203125</LatitudeDegrees>
              <LongitudeDegrees>2.6199862919747829437255859375</LongitudeDegrees>
            </Position>
            <AltitudeMeters>861.5999755859375</AltitudeMeters>
            <DistanceMeters>NAN</DistanceMeters>
          </Trackpoint>
          <Trackpoint>
            <Time>2021-04-02T08:17:04.000Z</Time>
            <Position>
              <LatitudeDegrees>42.35411186702549457550048828125</LatitudeDegrees>
              <LongitudeDegrees>2.61998235248029232025146484375</LongitudeDegrees>
            </Position>
            <AltitudeMeters>861.5999755859375</AltitudeMeters>
            <DistanceMeters>NAN</DistanceMeters>
          </Trackpoint>
          <Trackpoint>
            <Time>2021-04-02T08:17:06.000Z</Time>
            <Position>
              <LatitudeDegrees>42.3540911637246608734130859375</LatitudeDegrees>
              <LongitudeDegrees>2.61998520232737064361572265625</LongitudeDegrees>
            </Position>
            <AltitudeMeters>861.5999755859375</AltitudeMeters>
            <DistanceMeters>NAN</DistanceMeters>
          </Trackpoint>
          <Trackpoint>
            <Time>2021-04-02T08:17:10.000Z</Time>
            <Position>
              <LatitudeDegrees>42.3540381900966167449951171875</LatitudeDegrees>
              <LongitudeDegrees>2.61998821981251239776611328125</LongitudeDegrees>
            </Position>
            <AltitudeMeters>861.4000244140625</AltitudeMeters>
            <DistanceMeters>NAN</DistanceMeters>
          </Trackpoint>
          <Trackpoint>
            <Time>2021-04-02T08:17:17.000Z</Time>
            <Position>
              <LatitudeDegrees>42.35395344905555248260498046875</LatitudeDegrees>
              <LongitudeDegrees>2.6200033910572528839111328125</LongitudeDegrees>
            </Position>
            <AltitudeMeters>861</AltitudeMeters>
            <DistanceMeters>NAN</DistanceMeters>
          </Trackpoint>
          <Trackpoint>
            <Time>2021-04-02T08:17:19.000Z</Time>
            <Position>
              <LatitudeDegrees>42.353938110172748565673828125</LatitudeDegrees>
              <LongitudeDegrees>2.62000858783721923828125</LongitudeDegrees>
            </Position>
            <AltitudeMeters>861</AltitudeMeters>
            <DistanceMeters>NAN</DistanceMeters>
          </Trackpoint>
          <Trackpoint>
            <Time>2021-04-02T08:17:24.000Z</Time>
            <Position>
              <LatitudeDegrees>42.35388739965856075286865234375</LatitudeDegrees>
              <LongitudeDegrees>2.62004404328763484954833984375</LongitudeDegrees>
            </Position>
            <AltitudeMeters>860.79998779296875</AltitudeMeters>
            <DistanceMeters>NAN</DistanceMeters>
          </Trackpoint>
          <Trackpoint>
            <Time>2021-04-02T08:17:27.000Z</Time>
            <Position>
              <LatitudeDegrees>42.35386845655739307403564453125</LatitudeDegrees>
              <LongitudeDegrees>2.62007203884422779083251953125</LongitudeDegrees>
            </Position>
            <AltitudeMeters>860.5999755859375</AltitudeMeters>
            <DistanceMeters>NAN</DistanceMeters>
          </Trackpoint>
          <Trackpoint>
            <Time>2021-04-02T08:17:31.000Z</Time>
            <Position>
              <LatitudeDegrees>42.3538427241146564483642578125</LatitudeDegrees>
              <LongitudeDegrees>2.62010305188596248626708984375</LongitudeDegrees>
            </Position>
            <AltitudeMeters>860.4000244140625</AltitudeMeters>
            <DistanceMeters>NAN</DistanceMeters>
          </Trackpoint>
          <Trackpoint>
            <Time>2021-04-02T08:17:32.000Z</Time>
            <Position>
              <LatitudeDegrees>42.35382378101348876953125</LatitudeDegrees>
              <LongitudeDegrees>2.62013004161417484283447265625</LongitudeDegrees>
            </Position>
            <AltitudeMeters>860.4000244140625</AltitudeMeters>
            <DistanceMeters>NAN</DistanceMeters>
          </Trackpoint>
          <Trackpoint>
            <Time>2021-04-02T08:17:36.000Z</Time>
            <Position>
              <LatitudeDegrees>42.35378229059278964996337890625</LatitudeDegrees>
              <LongitudeDegrees>2.62018385343253612518310546875</LongitudeDegrees>
            </Position>
            <AltitudeMeters>860.4000244140625</AltitudeMeters>
            <DistanceMeters>NAN</DistanceMeters>
          </Trackpoint>
          <Trackpoint>
            <Time>2021-04-02T08:17:41.000Z</Time>
            <Position>
              <LatitudeDegrees>42.35373954288661479949951171875</LatitudeDegrees>
              <LongitudeDegrees>2.62023196555674076080322265625</LongitudeDegrees>
            </Position>
            <AltitudeMeters>860.5999755859375</AltitudeMeters>
            <DistanceMeters>NAN</DistanceMeters>
          </Trackpoint>
          <Trackpoint>
            <Time>2021-04-02T08:17:43.000Z</Time>
            <Position>
              <LatitudeDegrees>42.35373191535472869873046875</LatitudeDegrees>
              <LongitudeDegrees>2.62025711126625537872314453125</LongitudeDegrees>
            </Position>
            <AltitudeMeters>860.20001220703125</AltitudeMeters>
            <DistanceMeters>NAN</DistanceMeters>
          </Trackpoint>
          <Trackpoint>
            <Time>2021-04-02T08:17:44.000Z</Time>
            <Position>
              <LatitudeDegrees>42.35372386872768402099609375</LatitudeDegrees>
              <LongitudeDegrees>2.62026566080749034881591796875</LongitudeDegrees>
            </Position>
            <AltitudeMeters>860.20001220703125</AltitudeMeters>
            <DistanceMeters>NAN</DistanceMeters>
          </Trackpoint>
          <Trackpoint>
            <Time>2021-04-02T08:17:47.000Z</Time>
            <Position>
              <LatitudeDegrees>42.35370316542685031890869140625</LatitudeDegrees>
              <LongitudeDegrees>2.62028778903186321258544921875</LongitudeDegrees>
            </Position>
            <AltitudeMeters>860.20001220703125</AltitudeMeters>
            <DistanceMeters>NAN</DistanceMeters>
          </Trackpoint>
          <Trackpoint>
            <Time>2021-04-02T08:17:49.000Z</Time>
            <Position>
              <LatitudeDegrees>42.35368556343019008636474609375</LatitudeDegrees>
              <LongitudeDegrees>2.6203021220862865447998046875</LongitudeDegrees>
            </Position>
            <AltitudeMeters>860.20001220703125</AltitudeMeters>
            <DistanceMeters>NAN</DistanceMeters>
          </Trackpoint>
          <Trackpoint>
            <Time>2021-04-02T08:17:50.000Z</Time>
            <Position>
              <LatitudeDegrees>42.35367516987025737762451171875</LatitudeDegrees>
              <LongitudeDegrees>2.620312683284282684326171875</LongitudeDegrees>
            </Position>
            <AltitudeMeters>860.20001220703125</AltitudeMeters>
            <DistanceMeters>NAN</DistanceMeters>
          </Trackpoint>
          <Trackpoint>
            <Time>2021-04-02T08:17:54.000Z</Time>
            <Position>
              <LatitudeDegrees>42.3536281473934650421142578125</LatitudeDegrees>
              <LongitudeDegrees>2.62033036909997463226318359375</LongitudeDegrees>
            </Position>
            <AltitudeMeters>860</AltitudeMeters>
            <DistanceMeters>NAN</DistanceMeters>
          </Trackpoint>
          <Trackpoint>
            <Time>2021-04-02T08:17:59.000Z</Time>
            <Position>
              <LatitudeDegrees>42.35355799086391925811767578125</LatitudeDegrees>
              <LongitudeDegrees>2.62031964026391506195068359375</LongitudeDegrees>
            </Position>
            <AltitudeMeters>859.5999755859375</AltitudeMeters>
            <DistanceMeters>NAN</DistanceMeters>
          </Trackpoint>
          <Trackpoint>
            <Time>2021-04-02T08:18:02.000Z</Time>
            <Position>
              <LatitudeDegrees>42.35351842828094959259033203125</LatitudeDegrees>
              <LongitudeDegrees>2.62031947262585163116455078125</LongitudeDegrees>
            </Position>
            <AltitudeMeters>859.5999755859375</AltitudeMeters>
            <DistanceMeters>NAN</DistanceMeters>
          </Trackpoint>
          <Trackpoint>
            <Time>2021-04-02T08:18:06.000Z</Time>
            <Position>
              <LatitudeDegrees>42.35347819514572620391845703125</LatitudeDegrees>
              <LongitudeDegrees>2.62028711847960948944091796875</LongitudeDegrees>
            </Position>
            <AltitudeMeters>859.4000244140625</AltitudeMeters>
            <DistanceMeters>NAN</DistanceMeters>
          </Trackpoint>
          <Trackpoint>
            <Time>2021-04-02T08:18:09.000Z</Time>
            <Position>
              <LatitudeDegrees>42.35344818793237209320068359375</LatitudeDegrees>
              <LongitudeDegrees>2.6202531717717647552490234375</LongitudeDegrees>
            </Position>
            <AltitudeMeters>859.20001220703125</AltitudeMeters>
            <DistanceMeters>NAN</DistanceMeters>
          </Trackpoint>
          <Trackpoint>
            <Time>2021-04-02T08:18:16.000Z</Time>
            <Position>
              <LatitudeDegrees>42.353398986160755157470703125</LatitudeDegrees>
              <LongitudeDegrees>2.6201804168522357940673828125</LongitudeDegrees>
            </Position>
            <AltitudeMeters>858.79998779296875</AltitudeMeters>
            <DistanceMeters>NAN</DistanceMeters>
          </Trackpoint>
          <Trackpoint>
            <Time>2021-04-02T08:18:17.000Z</Time>
            <Position>
              <LatitudeDegrees>42.3533934541046619415283203125</LatitudeDegrees>
              <LongitudeDegrees>2.62016641907393932342529296875</LongitudeDegrees>
            </Position>
            <AltitudeMeters>858.79998779296875</AltitudeMeters>
            <DistanceMeters>NAN</DistanceMeters>
          </Trackpoint>
          <Trackpoint>
            <Time>2021-04-02T08:18:24.000Z</Time>
            <Position>
              <LatitudeDegrees>42.3533629439771175384521484375</LatitudeDegrees>
              <LongitudeDegrees>2.6200697757303714752197265625</LongitudeDegrees>
            </Position>
            <AltitudeMeters>859</AltitudeMeters>
            <DistanceMeters>NAN</DistanceMeters>
          </Trackpoint>
          <Trackpoint>
            <Time>2021-04-02T08:18:32.000Z</Time>
            <Position>
              <LatitudeDegrees>42.353337965905666351318359375</LatitudeDegrees>
              <LongitudeDegrees>2.61995452456176280975341796875</LongitudeDegrees>
            </Position>
            <AltitudeMeters>858.4000244140625</AltitudeMeters>
            <DistanceMeters>NAN</DistanceMeters>
          </Trackpoint>
          <Trackpoint>
            <Time>2021-04-02T08:18:35.000Z</Time>
            <Position>
              <LatitudeDegrees>42.3533176816999912261962890625</LatitudeDegrees>
              <LongitudeDegrees>2.61990658007562160491943359375</LongitudeDegrees>
            </Position>
            <AltitudeMeters>858.4000244140625</AltitudeMeters>
            <DistanceMeters>NAN</DistanceMeters>
          </Trackpoint>
          <Trackpoint>
            <Time>2021-04-02T08:18:42.000Z</Time>
            <Position>
              <LatitudeDegrees>42.353285662829875946044921875</LatitudeDegrees>
              <LongitudeDegrees>2.61981102637946605682373046875</LongitudeDegrees>
            </Position>
            <AltitudeMeters>858.20001220703125</AltitudeMeters>
            <DistanceMeters>NAN</DistanceMeters>
          </Trackpoint>
          <Trackpoint>
            <Time>2021-04-02T08:18:43.000Z</Time>
            <Position>
              <LatitudeDegrees>42.353280298411846160888671875</LatitudeDegrees>
              <LongitudeDegrees>2.6197953522205352783203125</LongitudeDegrees>
            </Position>
            <AltitudeMeters>858.20001220703125</AltitudeMeters>
            <DistanceMeters>NAN</DistanceMeters>
          </Trackpoint>
          <Trackpoint>
            <Time>2021-04-02T08:18:48.000Z</Time>
            <Position>
              <LatitudeDegrees>42.35326680354773998260498046875</LatitudeDegrees>
              <LongitudeDegrees>2.6197197474539279937744140625</LongitudeDegrees>
            </Position>
            <AltitudeMeters>858.20001220703125</AltitudeMeters>
            <DistanceMeters>NAN</DistanceMeters>
          </Trackpoint>
          <Trackpoint>
            <Time>2021-04-02T08:18:51.000Z</Time>
            <Position>
              <LatitudeDegrees>42.35325925983488559722900390625</LatitudeDegrees>
              <LongitudeDegrees>2.61966551654040813446044921875</LongitudeDegrees>
            </Position>
            <AltitudeMeters>858</AltitudeMeters>
            <DistanceMeters>NAN</DistanceMeters>
          </Trackpoint>
          <Trackpoint>
            <Time>2021-04-02T08:18:58.000Z</Time>
            <Position>
              <LatitudeDegrees>42.35322497785091400146484375</LatitudeDegrees>
              <LongitudeDegrees>2.61955588124692440032958984375</LongitudeDegrees>
            </Position>
            <AltitudeMeters>857.79998779296875</AltitudeMeters>
            <DistanceMeters>NAN</DistanceMeters>
          </Trackpoint>
          <Trackpoint>
            <Time>2021-04-02T08:19:01.000Z</Time>
            <Position>
              <LatitudeDegrees>42.35320913605391979217529296875</LatitudeDegrees>
              <LongitudeDegrees>2.619507014751434326171875</LongitudeDegrees>
            </Position>
            <AltitudeMeters>857.79998779296875</AltitudeMeters>
            <DistanceMeters>NAN</DistanceMeters>
          </Trackpoint>
          <Trackpoint>
            <Time>2021-04-02T08:19:03.000Z</Time>
            <Position>
              <LatitudeDegrees>42.353199161589145660400390625</LatitudeDegrees>
              <LongitudeDegrees>2.619476504623889923095703125</LongitudeDegrees>
            </Position>
            <AltitudeMeters>857.4000244140625</AltitudeMeters>
            <DistanceMeters>NAN</DistanceMeters>
          </Trackpoint>
          <Trackpoint>
            <Time>2021-04-02T08:19:10.000Z</Time>
            <Position>
              <LatitudeDegrees>42.35315750353038311004638671875</LatitudeDegrees>
              <LongitudeDegrees>2.6193553023040294647216796875</LongitudeDegrees>
            </Position>
            <AltitudeMeters>857.4000244140625</AltitudeMeters>
            <DistanceMeters>NAN</DistanceMeters>
          </Trackpoint>
          <Trackpoint>
            <Time>2021-04-02T08:19:11.000Z</Time>
            <Position>
              <LatitudeDegrees>42.35315012745559215545654296875</LatitudeDegrees>
              <LongitudeDegrees>2.6193455792963504791259765625</LongitudeDegrees>
            </Position>
            <AltitudeMeters>857.5999755859375</AltitudeMeters>
            <DistanceMeters>NAN</DistanceMeters>
          </Trackpoint>
          <Trackpoint>
            <Time>2021-04-02T08:19:20.000Z</Time>
            <Position>
              <LatitudeDegrees>42.35305205918848514556884765625</LatitudeDegrees>
              <LongitudeDegrees>2.61926352046430110931396484375</LongitudeDegrees>
            </Position>
            <AltitudeMeters>856.79998779296875</AltitudeMeters>
            <DistanceMeters>NAN</DistanceMeters>
          </Trackpoint>
          <Trackpoint>
            <Time>2021-04-02T08:19:28.000Z</Time>
            <Position>
              <LatitudeDegrees>42.35297997482120990753173828125</LatitudeDegrees>
              <LongitudeDegrees>2.61925228871405124664306640625</LongitudeDegrees>
            </Position>
            <AltitudeMeters>856.4000244140625</AltitudeMeters>
            <DistanceMeters>NAN</DistanceMeters>
          </Trackpoint>
          <Trackpoint>
            <Time>2021-04-02T08:19:33.000Z</Time>
            <Position>
              <LatitudeDegrees>42.35292934812605381011962890625</LatitudeDegrees>
              <LongitudeDegrees>2.61924424208700656890869140625</LongitudeDegrees>
            </Position>
            <AltitudeMeters>856.20001220703125</AltitudeMeters>
            <DistanceMeters>NAN</DistanceMeters>
          </Trackpoint>
          <Trackpoint>
            <Time>2021-04-02T08:19:35.000Z</Time>
            <Position>
              <LatitudeDegrees>42.35290445387363433837890625</LatitudeDegrees>
              <LongitudeDegrees>2.61924273334443569183349609375</LongitudeDegrees>
            </Position>
            <AltitudeMeters>856</AltitudeMeters>
            <DistanceMeters>NAN</DistanceMeters>
          </Trackpoint>
          <Trackpoint>
            <Time>2021-04-02T08:19:44.000Z</Time>
            <Position>
              <LatitudeDegrees>42.3527990095317363739013671875</LatitudeDegrees>
              <LongitudeDegrees>2.61922798119485378265380859375</LongitudeDegrees>
            </Position>
            <AltitudeMeters>855.79998779296875</AltitudeMeters>
            <DistanceMeters>NAN</DistanceMeters>
          </Trackpoint>
          <Trackpoint>
            <Time>2021-04-02T08:19:45.000Z</Time>
            <Position>
              <LatitudeDegrees>42.35279020853340625762939453125</LatitudeDegrees>
              <LongitudeDegrees>2.61922311969101428985595703125</LongitudeDegrees>
            </Position>
            <AltitudeMeters>855.79998779296875</AltitudeMeters>
            <DistanceMeters>NAN</DistanceMeters>
          </Trackpoint>
          <Trackpoint>
            <Time>2021-04-02T08:19:52.000Z</Time>
            <Position>
              <LatitudeDegrees>42.3527066409587860107421875</LatitudeDegrees>
              <LongitudeDegrees>2.61917752213776111602783203125</LongitudeDegrees>
            </Position>
            <AltitudeMeters>855.4000244140625</AltitudeMeters>
            <DistanceMeters>NAN</DistanceMeters>
          </Trackpoint>
          <Trackpoint>
            <Time>2021-04-02T08:19:53.000Z</Time>
            <Position>
              <LatitudeDegrees>42.352696247398853302001953125</LatitudeDegrees>
              <LongitudeDegrees>2.6191678829491138458251953125</LongitudeDegrees>
            </Position>
            <AltitudeMeters>855.4000244140625</AltitudeMeters>
            <DistanceMeters>NAN</DistanceMeters>
          </Trackpoint>
          <Trackpoint>
            <Time>2021-04-02T08:19:54.000Z</Time>
            <Position>
              <LatitudeDegrees>42.35269029624760150909423828125</LatitudeDegrees>
              <LongitudeDegrees>2.6191595010459423065185546875</LongitudeDegrees>
            </Position>
            <AltitudeMeters>855.20001220703125</AltitudeMeters>
            <DistanceMeters>NAN</DistanceMeters>
          </Trackpoint>
          <Trackpoint>
            <Time>2021-04-02T08:19:56.000Z</Time>
            <Position>
              <LatitudeDegrees>42.35268141143023967742919921875</LatitudeDegrees>
              <LongitudeDegrees>2.6191464252769947052001953125</LongitudeDegrees>
            </Position>
            <AltitudeMeters>855.20001220703125</AltitudeMeters>
            <DistanceMeters>NAN</DistanceMeters>
          </Trackpoint>
          <Trackpoint>
            <Time>2021-04-02T08:20:05.000Z</Time>
            <Position>
              <LatitudeDegrees>42.35258267261087894439697265625</LatitudeDegrees>
              <LongitudeDegrees>2.61907006613910198211669921875</LongitudeDegrees>
            </Position>
            <AltitudeMeters>854.4000244140625</AltitudeMeters>
            <DistanceMeters>NAN</DistanceMeters>
          </Trackpoint>
          <Trackpoint>
            <Time>2021-04-02T08:20:06.000Z</Time>
            <Position>
              <LatitudeDegrees>42.35257160849869251251220703125</LatitudeDegrees>
              <LongitudeDegrees>2.6190595887601375579833984375</LongitudeDegrees>
            </Position>
            <AltitudeMeters>854.20001220703125</AltitudeMeters>
            <DistanceMeters>NAN</DistanceMeters>
          </Trackpoint>
          <Trackpoint>
            <Time>2021-04-02T08:20:07.000Z</Time>
            <Position>
              <LatitudeDegrees>42.3525586165487766265869140625</LatitudeDegrees>
              <LongitudeDegrees>2.61904827319085597991943359375</LongitudeDegrees>
            </Position>
            <AltitudeMeters>854</AltitudeMeters>
            <DistanceMeters>NAN</DistanceMeters>
          </Trackpoint>
          <Trackpoint>
            <Time>2021-04-02T08:20:15.000Z</Time>
            <Position>
              <LatitudeDegrees>42.35248963348567485809326171875</LatitudeDegrees>
              <LongitudeDegrees>2.61895523406565189361572265625</LongitudeDegrees>
            </Position>
            <AltitudeMeters>853.20001220703125</AltitudeMeters>
            <DistanceMeters>NAN</DistanceMeters>
          </Trackpoint>
          <Trackpoint>
            <Time>2021-04-02T08:20:16.000Z</Time>
            <Position>
              <LatitudeDegrees>42.352483682334423065185546875</LatitudeDegrees>
              <LongitudeDegrees>2.61893897317349910736083984375</LongitudeDegrees>
            </Position>
            <AltitudeMeters>853.20001220703125</AltitudeMeters>
            <DistanceMeters>NAN</DistanceMeters>
          </Trackpoint>
          <Trackpoint>
            <Time>2021-04-02T08:20:24.000Z</Time>
            <Position>
              <LatitudeDegrees>42.352466247975826263427734375</LatitudeDegrees>
              <LongitudeDegrees>2.6188024319708347320556640625</LongitudeDegrees>
            </Position>
            <AltitudeMeters>852.5999755859375</AltitudeMeters>
            <DistanceMeters>NAN</DistanceMeters>
          </Trackpoint>
          <Trackpoint>
            <Time>2021-04-02T08:20:28.000Z</Time>
            <Position>
              <LatitudeDegrees>42.35249181278049945831298828125</LatitudeDegrees>
              <LongitudeDegrees>2.6187300123274326324462890625</LongitudeDegrees>
            </Position>
            <AltitudeMeters>852.20001220703125</AltitudeMeters>
            <DistanceMeters>NAN</DistanceMeters>
          </Trackpoint>
          <Trackpoint>
            <Time>2021-04-02T08:20:33.000Z</Time>
            <Position>
              <LatitudeDegrees>42.35253070481121540069580078125</LatitudeDegrees>
              <LongitudeDegrees>2.61865935288369655609130859375</LongitudeDegrees>
            </Position>
            <AltitudeMeters>851.4000244140625</AltitudeMeters>
            <DistanceMeters>NAN</DistanceMeters>
          </Trackpoint>
          <Trackpoint>
            <Time>2021-04-02T08:20:37.000Z</Time>
            <Position>
              <LatitudeDegrees>42.3525572754442691802978515625</LatitudeDegrees>
              <LongitudeDegrees>2.61860084719955921173095703125</LongitudeDegrees>
            </Position>
            <AltitudeMeters>851.20001220703125</AltitudeMeters>
            <DistanceMeters>NAN</DistanceMeters>
          </Trackpoint>
          <Trackpoint>
            <Time>2021-04-02T08:20:43.000Z</Time>
            <Position>
              <LatitudeDegrees>42.352605052292346954345703125</LatitudeDegrees>
              <LongitudeDegrees>2.61851166374981403350830078125</LongitudeDegrees>
            </Position>
            <AltitudeMeters>850.20001220703125</AltitudeMeters>
            <DistanceMeters>NAN</DistanceMeters>
          </Trackpoint>
          <Trackpoint>
            <Time>2021-04-02T08:20:44.000Z</Time>
            <Position>
              <LatitudeDegrees>42.35261016525328159332275390625</LatitudeDegrees>
              <LongitudeDegrees>2.61849976144731044769287109375</LongitudeDegrees>
            </Position>
            <AltitudeMeters>850.20001220703125</AltitudeMeters>
            <DistanceMeters>NAN</DistanceMeters>
          </Trackpoint>
          <Trackpoint>
            <Time>2021-04-02T08:20:45.000Z</Time>
            <Position>
              <LatitudeDegrees>42.3526193015277385711669921875</LatitudeDegrees>
              <LongitudeDegrees>2.61849037371575832366943359375</LongitudeDegrees>
            </Position>
            <AltitudeMeters>850</AltitudeMeters>
            <DistanceMeters>NAN</DistanceMeters>
          </Trackpoint>
          <Trackpoint>
            <Time>2021-04-02T08:20:48.000Z</Time>
            <Position>
              <LatitudeDegrees>42.3526489734649658203125</LatitudeDegrees>
              <LongitudeDegrees>2.618453241884708404541015625</LongitudeDegrees>
            </Position>
            <AltitudeMeters>849.79998779296875</AltitudeMeters>
            <DistanceMeters>NAN</DistanceMeters>
          </Trackpoint>
          <Trackpoint>
            <Time>2021-04-02T08:20:50.000Z</Time>
            <Position>
              <LatitudeDegrees>42.35266481526196002960205078125</LatitudeDegrees>
              <LongitudeDegrees>2.6184359751641750335693359375</LongitudeDegrees>
            </Position>
            <AltitudeMeters>849.79998779296875</AltitudeMeters>
            <DistanceMeters>NAN</DistanceMeters>
          </Trackpoint>
          <Trackpoint>
            <Time>2021-04-02T08:20:51.000Z</Time>
            <Position>
              <LatitudeDegrees>42.3526744544506072998046875</LatitudeDegrees>
              <LongitudeDegrees>2.61842650361359119415283203125</LongitudeDegrees>
            </Position>
            <AltitudeMeters>849.79998779296875</AltitudeMeters>
            <DistanceMeters>NAN</DistanceMeters>
          </Trackpoint>
          <Trackpoint>
            <Time>2021-04-02T08:20:57.000Z</Time>
            <Position>
              <LatitudeDegrees>42.35272700898349285125732421875</LatitudeDegrees>
              <LongitudeDegrees>2.618353664875030517578125</LongitudeDegrees>
            </Position>
            <AltitudeMeters>849.20001220703125</AltitudeMeters>
            <DistanceMeters>NAN</DistanceMeters>
          </Trackpoint>
          <Trackpoint>
            <Time>2021-04-02T08:20:58.000Z</Time>
            <Position>
              <LatitudeDegrees>42.352736480534076690673828125</LatitudeDegrees>
              <LongitudeDegrees>2.61834134347736835479736328125</LongitudeDegrees>
            </Position>
            <AltitudeMeters>849</AltitudeMeters>
            <DistanceMeters>NAN</DistanceMeters>
          </Trackpoint>
          <Trackpoint>
            <Time>2021-04-02T08:21:05.000Z</Time>
            <Position>
              <LatitudeDegrees>42.3527897894382476806640625</LatitudeDegrees>
              <LongitudeDegrees>2.6182633079588413238525390625</LongitudeDegrees>
            </Position>
            <AltitudeMeters>848.5999755859375</AltitudeMeters>
            <DistanceMeters>NAN</DistanceMeters>
          </Trackpoint>
          <Trackpoint>
            <Time>2021-04-02T08:21:06.000Z</Time>
            <Position>
              <LatitudeDegrees>42.3527990095317363739013671875</LatitudeDegrees>
              <LongitudeDegrees>2.6182515732944011688232421875</LongitudeDegrees>
            </Position>
            <AltitudeMeters>848.4000244140625</AltitudeMeters>
            <DistanceMeters>NAN</DistanceMeters>
          </Trackpoint>
          <Trackpoint>
            <Time>2021-04-02T08:21:09.000Z</Time>
            <Position>
              <LatitudeDegrees>42.35282340086996555328369140625</LatitudeDegrees>
              <LongitudeDegrees>2.61820874176919460296630859375</LongitudeDegrees>
            </Position>
            <AltitudeMeters>848</AltitudeMeters>
            <DistanceMeters>NAN</DistanceMeters>
          </Trackpoint>
          <Trackpoint>
            <Time>2021-04-02T08:21:15.000Z</Time>
            <Position>
              <LatitudeDegrees>42.352880649268627166748046875</LatitudeDegrees>
              <LongitudeDegrees>2.61813305318355560302734375</LongitudeDegrees>
            </Position>
            <AltitudeMeters>847.4000244140625</AltitudeMeters>
            <DistanceMeters>NAN</DistanceMeters>
          </Trackpoint>
          <Trackpoint>
            <Time>2021-04-02T08:21:19.000Z</Time>
            <Position>
              <LatitudeDegrees>42.35292063094675540924072265625</LatitudeDegrees>
              <LongitudeDegrees>2.618088461458683013916015625</LongitudeDegrees>
            </Position>
            <AltitudeMeters>847</AltitudeMeters>
            <DistanceMeters>NAN</DistanceMeters>
          </Trackpoint>
          <Trackpoint>
            <Time>2021-04-02T08:21:28.000Z</Time>
            <Position>
              <LatitudeDegrees>42.35300931148231029510498046875</LatitudeDegrees>
              <LongitudeDegrees>2.61800053529441356658935546875</LongitudeDegrees>
            </Position>
            <AltitudeMeters>846.20001220703125</AltitudeMeters>
            <DistanceMeters>NAN</DistanceMeters>
          </Trackpoint>
          <Trackpoint>
            <Time>2021-04-02T08:21:30.000Z</Time>
            <Position>
              <LatitudeDegrees>42.3530286736786365509033203125</LatitudeDegrees>
              <LongitudeDegrees>2.6179840229451656341552734375</LongitudeDegrees>
            </Position>
            <AltitudeMeters>845.79998779296875</AltitudeMeters>
            <DistanceMeters>NAN</DistanceMeters>
          </Trackpoint>
          <Trackpoint>
            <Time>2021-04-02T08:21:33.000Z</Time>
            <Position>
              <LatitudeDegrees>42.35305423848330974578857421875</LatitudeDegrees>
              <LongitudeDegrees>2.6179572008550167083740234375</LongitudeDegrees>
            </Position>
            <AltitudeMeters>845.4000244140625</AltitudeMeters>
            <DistanceMeters>NAN</DistanceMeters>
          </Trackpoint>
          <Trackpoint>
            <Time>2021-04-02T08:21:34.000Z</Time>
            <Position>
              <LatitudeDegrees>42.35306203365325927734375</LatitudeDegrees>
              <LongitudeDegrees>2.617944292724132537841796875</LongitudeDegrees>
            </Position>
            <AltitudeMeters>845.20001220703125</AltitudeMeters>
            <DistanceMeters>NAN</DistanceMeters>
          </Trackpoint>
          <Trackpoint>
            <Time>2021-04-02T08:21:35.000Z</Time>
            <Position>
              <LatitudeDegrees>42.3530722595751285552978515625</LatitudeDegrees>
              <LongitudeDegrees>2.6179338991641998291015625</LongitudeDegrees>
            </Position>
            <AltitudeMeters>845.20001220703125</AltitudeMeters>
            <DistanceMeters>NAN</DistanceMeters>
          </Trackpoint>
          <Trackpoint>
            <Time>2021-04-02T08:21:36.000Z</Time>
            <Position>
              <LatitudeDegrees>42.35308458097279071807861328125</LatitudeDegrees>
              <LongitudeDegrees>2.61792643927037715911865234375</LongitudeDegrees>
            </Position>
            <AltitudeMeters>845.20001220703125</AltitudeMeters>
            <DistanceMeters>NAN</DistanceMeters>
          </Trackpoint>
          <Trackpoint>
            <Time>2021-04-02T08:21:37.000Z</Time>
            <Position>
              <LatitudeDegrees>42.353096902370452880859375</LatitudeDegrees>
              <LongitudeDegrees>2.61791579425334930419921875</LongitudeDegrees>
            </Position>
            <AltitudeMeters>845.20001220703125</AltitudeMeters>
            <DistanceMeters>NAN</DistanceMeters>
          </Trackpoint>
          <Trackpoint>
            <Time>2021-04-02T08:21:42.000Z</Time>
            <Position>
              <LatitudeDegrees>42.3531473614275455474853515625</LatitudeDegrees>
              <LongitudeDegrees>2.6178552769124507904052734375</LongitudeDegrees>
            </Position>
            <AltitudeMeters>844.5999755859375</AltitudeMeters>
            <DistanceMeters>NAN</DistanceMeters>
          </Trackpoint>
          <Trackpoint>
            <Time>2021-04-02T08:21:47.000Z</Time>
            <Position>
              <LatitudeDegrees>42.353191114962100982666015625</LatitudeDegrees>
              <LongitudeDegrees>2.61780054308474063873291015625</LongitudeDegrees>
            </Position>
            <AltitudeMeters>844.4000244140625</AltitudeMeters>
            <DistanceMeters>NAN</DistanceMeters>
          </Trackpoint>
          <Trackpoint>
            <Time>2021-04-02T08:21:53.000Z</Time>
            <Position>
              <LatitudeDegrees>42.3532412387430667877197265625</LatitudeDegrees>
              <LongitudeDegrees>2.61772133409976959228515625</LongitudeDegrees>
            </Position>
            <AltitudeMeters>844</AltitudeMeters>
            <DistanceMeters>NAN</DistanceMeters>
          </Trackpoint>
          <Trackpoint>
            <Time>2021-04-02T08:21:54.000Z</Time>
            <Position>
              <LatitudeDegrees>42.35324886627495288848876953125</LatitudeDegrees>
              <LongitudeDegrees>2.61770599521696567535400390625</LongitudeDegrees>
            </Position>
            <AltitudeMeters>844</AltitudeMeters>
            <DistanceMeters>NAN</DistanceMeters>
          </Trackpoint>
          <Trackpoint>
            <Time>2021-04-02T08:21:59.000Z</Time>
            <Position>
              <LatitudeDegrees>42.35327585600316524505615234375</LatitudeDegrees>
              <LongitudeDegrees>2.61765587143599987030029296875</LongitudeDegrees>
            </Position>
            <AltitudeMeters>843.5999755859375</AltitudeMeters>
            <DistanceMeters>NAN</DistanceMeters>
          </Trackpoint>
          <Trackpoint>
            <Time>2021-04-02T08:22:00.000Z</Time>
            <Position>
              <LatitudeDegrees>42.35329278744757175445556640625</LatitudeDegrees>
              <LongitudeDegrees>2.6176272891461849212646484375</LongitudeDegrees>
            </Position>
            <AltitudeMeters>843.20001220703125</AltitudeMeters>
            <DistanceMeters>NAN</DistanceMeters>
          </Trackpoint>
          <Trackpoint>
            <Time>2021-04-02T08:22:07.000Z</Time>
            <Position>
              <LatitudeDegrees>42.3533438332378864288330078125</LatitudeDegrees>
              <LongitudeDegrees>2.61751505546271800994873046875</LongitudeDegrees>
            </Position>
            <AltitudeMeters>842.4000244140625</AltitudeMeters>
            <DistanceMeters>NAN</DistanceMeters>
          </Trackpoint>
          <Trackpoint>
            <Time>2021-04-02T08:22:11.000Z</Time>
            <Position>
              <LatitudeDegrees>42.353366129100322723388671875</LatitudeDegrees>
              <LongitudeDegrees>2.61746359057724475860595703125</LongitudeDegrees>
            </Position>
            <AltitudeMeters>842.20001220703125</AltitudeMeters>
            <DistanceMeters>NAN</DistanceMeters>
          </Trackpoint>
          <Trackpoint>
            <Time>2021-04-02T08:22:18.000Z</Time>
            <Position>
              <LatitudeDegrees>42.353368811309337615966796875</LatitudeDegrees>
              <LongitudeDegrees>2.617370970547199249267578125</LongitudeDegrees>
            </Position>
            <AltitudeMeters>841.4000244140625</AltitudeMeters>
            <DistanceMeters>NAN</DistanceMeters>
          </Trackpoint>
          <Trackpoint>
            <Time>2021-04-02T08:22:20.000Z</Time>
            <Position>
              <LatitudeDegrees>42.35337275080382823944091796875</LatitudeDegrees>
              <LongitudeDegrees>2.6173604093492031097412109375</LongitudeDegrees>
            </Position>
            <AltitudeMeters>841.4000244140625</AltitudeMeters>
            <DistanceMeters>NAN</DistanceMeters>
          </Trackpoint>
          <Trackpoint>
            <Time>2021-04-02T08:22:24.000Z</Time>
            <Position>
              <LatitudeDegrees>42.3533696494996547698974609375</LatitudeDegrees>
              <LongitudeDegrees>2.61735730804502964019775390625</LongitudeDegrees>
            </Position>
            <AltitudeMeters>841.20001220703125</AltitudeMeters>
            <DistanceMeters>NAN</DistanceMeters>
          </Trackpoint>
          <Trackpoint>
            <Time>2021-04-02T08:22:26.000Z</Time>
            <Position>
              <LatitudeDegrees>42.35336872749030590057373046875</LatitudeDegrees>
              <LongitudeDegrees>2.61735948733985424041748046875</LongitudeDegrees>
            </Position>
            <AltitudeMeters>841.20001220703125</AltitudeMeters>
            <DistanceMeters>NAN</DistanceMeters>
          </Trackpoint>
          <Trackpoint>
            <Time>2021-04-02T08:22:28.000Z</Time>
            <Position>
              <LatitudeDegrees>42.3533646203577518463134765625</LatitudeDegrees>
              <LongitudeDegrees>2.617366947233676910400390625</LongitudeDegrees>
            </Position>
            <AltitudeMeters>841.20001220703125</AltitudeMeters>
            <DistanceMeters>NAN</DistanceMeters>
          </Trackpoint>
          <Trackpoint>
            <Time>2021-04-02T08:22:32.000Z</Time>
            <Position>
              <LatitudeDegrees>42.3533800430595874786376953125</LatitudeDegrees>
              <LongitudeDegrees>2.61736216954886913299560546875</LongitudeDegrees>
            </Position>
            <AltitudeMeters>841</AltitudeMeters>
            <DistanceMeters>NAN</DistanceMeters>
          </Trackpoint>
          <Trackpoint>
            <Time>2021-04-02T08:22:35.000Z</Time>
            <Position>
              <LatitudeDegrees>42.3533968068659305572509765625</LatitudeDegrees>
              <LongitudeDegrees>2.6173577271401882171630859375</LongitudeDegrees>
            </Position>
            <AltitudeMeters>840.5999755859375</AltitudeMeters>
            <DistanceMeters>NAN</DistanceMeters>
          </Trackpoint>
          <Trackpoint>
            <Time>2021-04-02T08:22:42.000Z</Time>
            <Position>
              <LatitudeDegrees>42.35340108163654804229736328125</LatitudeDegrees>
              <LongitudeDegrees>2.6173423044383525848388671875</LongitudeDegrees>
            </Position>
            <AltitudeMeters>841</AltitudeMeters>
            <DistanceMeters>NAN</DistanceMeters>
          </Trackpoint>
          <Trackpoint>
            <Time>2021-04-02T08:22:47.000Z</Time>
            <Position>
              <LatitudeDegrees>42.35340057872235774993896484375</LatitudeDegrees>
              <LongitudeDegrees>2.61731766164302825927734375</LongitudeDegrees>
            </Position>
            <AltitudeMeters>841.20001220703125</AltitudeMeters>
            <DistanceMeters>NAN</DistanceMeters>
          </Trackpoint>
          <Trackpoint>
            <Time>2021-04-02T08:22:49.000Z</Time>
            <Position>
              <LatitudeDegrees>42.35340041108429431915283203125</LatitudeDegrees>
              <LongitudeDegrees>2.61731229722499847412109375</LongitudeDegrees>
            </Position>
            <AltitudeMeters>841.4000244140625</AltitudeMeters>
            <DistanceMeters>NAN</DistanceMeters>
          </Trackpoint>
          <Trackpoint>
            <Time>2021-04-02T08:22:56.000Z</Time>
            <Position>
              <LatitudeDegrees>42.3534075357019901275634765625</LatitudeDegrees>
              <LongitudeDegrees>2.6173107884824275970458984375</LongitudeDegrees>
            </Position>
            <AltitudeMeters>841.20001220703125</AltitudeMeters>
            <DistanceMeters>NAN</DistanceMeters>
          </Trackpoint>
          <Trackpoint>
            <Time>2021-04-02T08:23:00.000Z</Time>
            <Position>
              <LatitudeDegrees>42.3534075357019901275634765625</LatitudeDegrees>
              <LongitudeDegrees>2.6173107884824275970458984375</LongitudeDegrees>
            </Position>
            <AltitudeMeters>841.20001220703125</AltitudeMeters>
            <DistanceMeters>NAN</DistanceMeters>
          </Trackpoint>
          <Trackpoint>
            <Time>2021-04-02T08:23:18.000Z</Time>
            <Position>
              <LatitudeDegrees>42.35340946353971958160400390625</LatitudeDegrees>
              <LongitudeDegrees>2.61727147735655307769775390625</LongitudeDegrees>
            </Position>
            <AltitudeMeters>841</AltitudeMeters>
            <DistanceMeters>NAN</DistanceMeters>
          </Trackpoint>
          <Trackpoint>
            <Time>2021-04-02T08:23:24.000Z</Time>
            <Position>
              <LatitudeDegrees>42.3534088768064975738525390625</LatitudeDegrees>
              <LongitudeDegrees>2.61726133525371551513671875</LongitudeDegrees>
            </Position>
            <AltitudeMeters>841</AltitudeMeters>
            <DistanceMeters>NAN</DistanceMeters>
          </Trackpoint>
          <Trackpoint>
            <Time>2021-04-02T08:23:28.000Z</Time>
            <Position>
              <LatitudeDegrees>42.35338951461017131805419921875</LatitudeDegrees>
              <LongitudeDegrees>2.61729176156222820281982421875</LongitudeDegrees>
            </Position>
            <AltitudeMeters>841</AltitudeMeters>
            <DistanceMeters>NAN</DistanceMeters>
          </Trackpoint>
          <Trackpoint>
            <Time>2021-04-02T08:23:30.000Z</Time>
            <Position>
              <LatitudeDegrees>42.35336185432970523834228515625</LatitudeDegrees>
              <LongitudeDegrees>2.6173104532063007354736328125</LongitudeDegrees>
            </Position>
            <AltitudeMeters>841</AltitudeMeters>
            <DistanceMeters>NAN</DistanceMeters>
          </Trackpoint>
          <Trackpoint>
            <Time>2021-04-02T08:23:32.000Z</Time>
            <Position>
              <LatitudeDegrees>42.35334207303822040557861328125</LatitudeDegrees>
              <LongitudeDegrees>2.61731766164302825927734375</LongitudeDegrees>
            </Position>
            <AltitudeMeters>840.79998779296875</AltitudeMeters>
            <DistanceMeters>NAN</DistanceMeters>
          </Trackpoint>
          <Trackpoint>
            <Time>2021-04-02T08:23:34.000Z</Time>
            <Position>
              <LatitudeDegrees>42.35332815907895565032958984375</LatitudeDegrees>
              <LongitudeDegrees>2.617324031889438629150390625</LongitudeDegrees>
            </Position>
            <AltitudeMeters>840.4000244140625</AltitudeMeters>
            <DistanceMeters>NAN</DistanceMeters>
          </Trackpoint>
          <Trackpoint>
            <Time>2021-04-02T08:23:35.000Z</Time>
            <Position>
              <LatitudeDegrees>42.353321872651576995849609375</LatitudeDegrees>
              <LongitudeDegrees>2.61732445098459720611572265625</LongitudeDegrees>
            </Position>
            <AltitudeMeters>840.4000244140625</AltitudeMeters>
            <DistanceMeters>NAN</DistanceMeters>
          </Trackpoint>
          <Trackpoint>
            <Time>2021-04-02T08:23:37.000Z</Time>
            <Position>
              <LatitudeDegrees>42.35331751406192779541015625</LatitudeDegrees>
              <LongitudeDegrees>2.6173215173184871673583984375</LongitudeDegrees>
            </Position>
            <AltitudeMeters>840.4000244140625</AltitudeMeters>
            <DistanceMeters>NAN</DistanceMeters>
          </Trackpoint>
          <Trackpoint>
            <Time>2021-04-02T08:23:39.000Z</Time>
            <Position>
              <LatitudeDegrees>42.3533220402896404266357421875</LatitudeDegrees>
              <LongitudeDegrees>2.6173231936991214752197265625</LongitudeDegrees>
            </Position>
            <AltitudeMeters>840.20001220703125</AltitudeMeters>
            <DistanceMeters>NAN</DistanceMeters>
          </Trackpoint>
          <Trackpoint>
            <Time>2021-04-02T08:23:40.000Z</Time>
            <Position>
              <LatitudeDegrees>42.35332212410867214202880859375</LatitudeDegrees>
              <LongitudeDegrees>2.61732428334653377532958984375</LongitudeDegrees>
            </Position>
            <AltitudeMeters>840.20001220703125</AltitudeMeters>
            <DistanceMeters>NAN</DistanceMeters>
          </Trackpoint>
          <Trackpoint>
            <Time>2021-04-02T08:23:50.000Z</Time>
            <Position>
              <LatitudeDegrees>42.3533270694315433502197265625</LatitudeDegrees>
              <LongitudeDegrees>2.61730886064469814300537109375</LongitudeDegrees>
            </Position>
            <AltitudeMeters>839.79998779296875</AltitudeMeters>
            <DistanceMeters>NAN</DistanceMeters>
          </Trackpoint>
          <Trackpoint>
            <Time>2021-04-02T08:23:54.000Z</Time>
            <Position>
              <LatitudeDegrees>42.3533270694315433502197265625</LatitudeDegrees>
              <LongitudeDegrees>2.61730886064469814300537109375</LongitudeDegrees>
            </Position>
            <AltitudeMeters>839.5999755859375</AltitudeMeters>
            <DistanceMeters>NAN</DistanceMeters>
          </Trackpoint>
          <Trackpoint>
            <Time>2021-04-02T08:23:57.000Z</Time>
            <Position>
              <LatitudeDegrees>42.3533270694315433502197265625</LatitudeDegrees>
              <LongitudeDegrees>2.61731958948075771331787109375</LongitudeDegrees>
            </Position>
            <AltitudeMeters>839.5999755859375</AltitudeMeters>
            <DistanceMeters>NAN</DistanceMeters>
          </Trackpoint>
          <Trackpoint>
            <Time>2021-04-02T08:24:00.000Z</Time>
            <Position>
              <LatitudeDegrees>42.353329248726367950439453125</LatitudeDegrees>
              <LongitudeDegrees>2.617321349680423736572265625</LongitudeDegrees>
            </Position>
            <AltitudeMeters>839.5999755859375</AltitudeMeters>
            <DistanceMeters>NAN</DistanceMeters>
          </Trackpoint>
          <Trackpoint>
            <Time>2021-04-02T08:24:06.000Z</Time>
            <Position>
              <LatitudeDegrees>42.35333989374339580535888671875</LatitudeDegrees>
              <LongitudeDegrees>2.617321014404296875</LongitudeDegrees>
            </Position>
            <AltitudeMeters>839.5999755859375</AltitudeMeters>
            <DistanceMeters>NAN</DistanceMeters>
          </Trackpoint>
          <Trackpoint>
            <Time>2021-04-02T08:24:20.000Z</Time>
            <Position>
              <LatitudeDegrees>42.35333955846726894378662109375</LatitudeDegrees>
              <LongitudeDegrees>2.61731506325304508209228515625</LongitudeDegrees>
            </Position>
            <AltitudeMeters>839.4000244140625</AltitudeMeters>
            <DistanceMeters>NAN</DistanceMeters>
          </Trackpoint>
          <Trackpoint>
            <Time>2021-04-02T08:24:23.000Z</Time>
            <Position>
              <LatitudeDegrees>42.35333897173404693603515625</LatitudeDegrees>
              <LongitudeDegrees>2.61731422506272792816162109375</LongitudeDegrees>
            </Position>
            <AltitudeMeters>839.4000244140625</AltitudeMeters>
            <DistanceMeters>NAN</DistanceMeters>
          </Trackpoint>
          <Trackpoint>
            <Time>2021-04-02T08:24:24.000Z</Time>
            <Position>
              <LatitudeDegrees>42.35333888791501522064208984375</LatitudeDegrees>
              <LongitudeDegrees>2.61731422506272792816162109375</LongitudeDegrees>
            </Position>
            <AltitudeMeters>839.4000244140625</AltitudeMeters>
            <DistanceMeters>NAN</DistanceMeters>
          </Trackpoint>
          <Trackpoint>
            <Time>2021-04-02T08:24:35.000Z</Time>
            <Position>
              <LatitudeDegrees>42.353338301181793212890625</LatitudeDegrees>
              <LongitudeDegrees>2.61731372214853763580322265625</LongitudeDegrees>
            </Position>
            <AltitudeMeters>839.20001220703125</AltitudeMeters>
            <DistanceMeters>NAN</DistanceMeters>
          </Trackpoint>
          <Trackpoint>
            <Time>2021-04-02T08:24:45.000Z</Time>
            <Position>
              <LatitudeDegrees>42.35334022901952266693115234375</LatitudeDegrees>
              <LongitudeDegrees>2.61731120757758617401123046875</LongitudeDegrees>
            </Position>
            <AltitudeMeters>839.20001220703125</AltitudeMeters>
            <DistanceMeters>NAN</DistanceMeters>
          </Trackpoint>
          <Trackpoint>
            <Time>2021-04-02T08:24:46.000Z</Time>
            <Position>
              <LatitudeDegrees>42.353342659771442413330078125</LatitudeDegrees>
              <LongitudeDegrees>2.617309279739856719970703125</LongitudeDegrees>
            </Position>
            <AltitudeMeters>839.4000244140625</AltitudeMeters>
            <DistanceMeters>NAN</DistanceMeters>
          </Trackpoint>
          <Trackpoint>
            <Time>2021-04-02T08:24:57.000Z</Time>
            <Position>
              <LatitudeDegrees>42.353349365293979644775390625</LatitudeDegrees>
              <LongitudeDegrees>2.61729813180863857269287109375</LongitudeDegrees>
            </Position>
            <AltitudeMeters>839.4000244140625</AltitudeMeters>
            <DistanceMeters>NAN</DistanceMeters>
          </Trackpoint>
          <Trackpoint>
            <Time>2021-04-02T08:25:15.000Z</Time>
            <Position>
              <LatitudeDegrees>42.3533686436712741851806640625</LatitudeDegrees>
              <LongitudeDegrees>2.61728488840162754058837890625</LongitudeDegrees>
            </Position>
            <AltitudeMeters>839.20001220703125</AltitudeMeters>
            <DistanceMeters>NAN</DistanceMeters>
          </Trackpoint>
          <Trackpoint>
            <Time>2021-04-02T08:25:16.000Z</Time>
            <Position>
              <LatitudeDegrees>42.35336872749030590057373046875</LatitudeDegrees>
              <LongitudeDegrees>2.6172849722206592559814453125</LongitudeDegrees>
            </Position>
            <AltitudeMeters>839.20001220703125</AltitudeMeters>
            <DistanceMeters>NAN</DistanceMeters>
          </Trackpoint>
          <Trackpoint>
            <Time>2021-04-02T08:25:25.000Z</Time>
            <Position>
              <LatitudeDegrees>42.35336872749030590057373046875</LatitudeDegrees>
              <LongitudeDegrees>2.61728874407708644866943359375</LongitudeDegrees>
            </Position>
            <AltitudeMeters>839.20001220703125</AltitudeMeters>
            <DistanceMeters>NAN</DistanceMeters>
          </Trackpoint>
          <Trackpoint>
            <Time>2021-04-02T08:25:28.000Z</Time>
            <Position>
              <LatitudeDegrees>42.35336520709097385406494140625</LatitudeDegrees>
              <LongitudeDegrees>2.61729259975254535675048828125</LongitudeDegrees>
            </Position>
            <AltitudeMeters>839</AltitudeMeters>
            <DistanceMeters>NAN</DistanceMeters>
          </Trackpoint>
          <Trackpoint>
            <Time>2021-04-02T08:25:31.000Z</Time>
            <Position>
              <LatitudeDegrees>42.35336319543421268463134765625</LatitudeDegrees>
              <LongitudeDegrees>2.6173010654747486114501953125</LongitudeDegrees>
            </Position>
            <AltitudeMeters>839</AltitudeMeters>
            <DistanceMeters>NAN</DistanceMeters>
          </Trackpoint>
          <Trackpoint>
            <Time>2021-04-02T08:25:50.000Z</Time>
            <Position>
              <LatitudeDegrees>42.35336118377745151519775390625</LatitudeDegrees>
              <LongitudeDegrees>2.61731623671948909759521484375</LongitudeDegrees>
            </Position>
            <AltitudeMeters>839</AltitudeMeters>
            <DistanceMeters>NAN</DistanceMeters>
          </Trackpoint>
          <Trackpoint>
            <Time>2021-04-02T08:25:54.000Z</Time>
            <Position>
              <LatitudeDegrees>42.3533619381487369537353515625</LatitudeDegrees>
              <LongitudeDegrees>2.61731632053852081298828125</LongitudeDegrees>
            </Position>
            <AltitudeMeters>838.79998779296875</AltitudeMeters>
            <DistanceMeters>NAN</DistanceMeters>
          </Trackpoint>
          <Trackpoint>
            <Time>2021-04-02T08:26:13.000Z</Time>
            <Position>
              <LatitudeDegrees>42.3533639498054981231689453125</LatitudeDegrees>
              <LongitudeDegrees>2.61731095612049102783203125</LongitudeDegrees>
            </Position>
            <AltitudeMeters>838.79998779296875</AltitudeMeters>
            <DistanceMeters>NAN</DistanceMeters>
          </Trackpoint>
          <Trackpoint>
            <Time>2021-04-02T08:26:27.000Z</Time>
            <Position>
              <LatitudeDegrees>42.3533664643764495849609375</LatitudeDegrees>
              <LongitudeDegrees>2.6172799430787563323974609375</LongitudeDegrees>
            </Position>
            <AltitudeMeters>838.5999755859375</AltitudeMeters>
            <DistanceMeters>NAN</DistanceMeters>
          </Trackpoint>
          <Trackpoint>
            <Time>2021-04-02T08:26:30.000Z</Time>
            <Position>
              <LatitudeDegrees>42.3533673025667667388916015625</LatitudeDegrees>
              <LongitudeDegrees>2.6172786019742488861083984375</LongitudeDegrees>
            </Position>
            <AltitudeMeters>838.5999755859375</AltitudeMeters>
            <DistanceMeters>NAN</DistanceMeters>
          </Trackpoint>
          <Trackpoint>
            <Time>2021-04-02T08:27:02.000Z</Time>
            <Position>
              <LatitudeDegrees>42.353370822966098785400390625</LatitudeDegrees>
              <LongitudeDegrees>2.61729997582733631134033203125</LongitudeDegrees>
            </Position>
            <AltitudeMeters>838.79998779296875</AltitudeMeters>
            <DistanceMeters>NAN</DistanceMeters>
          </Trackpoint>
          <Trackpoint>
            <Time>2021-04-02T08:27:14.000Z</Time>
            <Position>
              <LatitudeDegrees>42.353370822966098785400390625</LatitudeDegrees>
              <LongitudeDegrees>2.61730064637959003448486328125</LongitudeDegrees>
            </Position>
            <AltitudeMeters>838.79998779296875</AltitudeMeters>
            <DistanceMeters>NAN</DistanceMeters>
          </Trackpoint>
          <Trackpoint>
            <Time>2021-04-02T08:27:38.000Z</Time>
            <Position>
              <LatitudeDegrees>42.35337023623287677764892578125</LatitudeDegrees>
              <LongitudeDegrees>2.6173020713031291961669921875</LongitudeDegrees>
            </Position>
            <AltitudeMeters>838.79998779296875</AltitudeMeters>
            <DistanceMeters>NAN</DistanceMeters>
          </Trackpoint>
          <Trackpoint>
            <Time>2021-04-02T08:27:51.000Z</Time>
            <Position>
              <LatitudeDegrees>42.35336990095674991607666015625</LatitudeDegrees>
              <LongitudeDegrees>2.61730265803635120391845703125</LongitudeDegrees>
            </Position>
            <AltitudeMeters>838.79998779296875</AltitudeMeters>
            <DistanceMeters>NAN</DistanceMeters>
          </Trackpoint>
          <Trackpoint>
            <Time>2021-04-02T08:27:59.000Z</Time>
            <Position>
              <LatitudeDegrees>42.35337006859481334686279296875</LatitudeDegrees>
              <LongitudeDegrees>2.61730290949344635009765625</LongitudeDegrees>
            </Position>
            <AltitudeMeters>838.79998779296875</AltitudeMeters>
            <DistanceMeters>NAN</DistanceMeters>
          </Trackpoint>
          <Trackpoint>
            <Time>2021-04-02T08:28:13.000Z</Time>
            <Position>
              <LatitudeDegrees>42.35337040387094020843505859375</LatitudeDegrees>
              <LongitudeDegrees>2.6173027418553829193115234375</LongitudeDegrees>
            </Position>
            <AltitudeMeters>838.79998779296875</AltitudeMeters>
            <DistanceMeters>NAN</DistanceMeters>
          </Trackpoint>
          <Trackpoint>
            <Time>2021-04-02T08:28:14.000Z</Time>
            <Position>
              <LatitudeDegrees>42.353370487689971923828125</LatitudeDegrees>
              <LongitudeDegrees>2.61730265803635120391845703125</LongitudeDegrees>
            </Position>
            <AltitudeMeters>838.79998779296875</AltitudeMeters>
            <DistanceMeters>NAN</DistanceMeters>
          </Trackpoint>
          <Trackpoint>
            <Time>2021-04-02T08:28:17.000Z</Time>
            <Position>
              <LatitudeDegrees>42.353370487689971923828125</LatitudeDegrees>
              <LongitudeDegrees>2.61730265803635120391845703125</LongitudeDegrees>
            </Position>
            <AltitudeMeters>838.79998779296875</AltitudeMeters>
            <DistanceMeters>NAN</DistanceMeters>
          </Trackpoint>
          <Trackpoint>
            <Time>2021-04-02T08:28:19.000Z</Time>
            <Position>
              <LatitudeDegrees>42.35337057150900363922119140625</LatitudeDegrees>
              <LongitudeDegrees>2.61730265803635120391845703125</LongitudeDegrees>
            </Position>
            <AltitudeMeters>838.79998779296875</AltitudeMeters>
            <DistanceMeters>NAN</DistanceMeters>
          </Trackpoint>
          <Trackpoint>
            <Time>2021-04-02T08:28:27.000Z</Time>
            <Position>
              <LatitudeDegrees>42.35337057150900363922119140625</LatitudeDegrees>
              <LongitudeDegrees>2.617302574217319488525390625</LongitudeDegrees>
            </Position>
            <AltitudeMeters>838.79998779296875</AltitudeMeters>
            <DistanceMeters>NAN</DistanceMeters>
          </Trackpoint>
          <Trackpoint>
            <Time>2021-04-02T08:28:41.000Z</Time>
            <Position>
              <LatitudeDegrees>42.35337073914706707000732421875</LatitudeDegrees>
              <LongitudeDegrees>2.61730249039828777313232421875</LongitudeDegrees>
            </Position>
            <AltitudeMeters>838.79998779296875</AltitudeMeters>
            <DistanceMeters>NAN</DistanceMeters>
          </Trackpoint>
          <Trackpoint>
            <Time>2021-04-02T08:29:07.000Z</Time>
            <Position>
              <LatitudeDegrees>42.35337073914706707000732421875</LatitudeDegrees>
              <LongitudeDegrees>2.6173034124076366424560546875</LongitudeDegrees>
            </Position>
            <AltitudeMeters>838.79998779296875</AltitudeMeters>
            <DistanceMeters>NAN</DistanceMeters>
          </Trackpoint>
          <Trackpoint>
            <Time>2021-04-02T08:29:13.000Z</Time>
            <Position>
              <LatitudeDegrees>42.353370487689971923828125</LatitudeDegrees>
              <LongitudeDegrees>2.61730383150279521942138671875</LongitudeDegrees>
            </Position>
            <AltitudeMeters>838.79998779296875</AltitudeMeters>
            <DistanceMeters>NAN</DistanceMeters>
          </Trackpoint>
          <Trackpoint>
            <Time>2021-04-02T08:29:50.000Z</Time>
            <Position>
              <LatitudeDegrees>42.3533691465854644775390625</LatitudeDegrees>
              <LongitudeDegrees>2.61730567552149295806884765625</LongitudeDegrees>
            </Position>
            <AltitudeMeters>838.79998779296875</AltitudeMeters>
            <DistanceMeters>NAN</DistanceMeters>
          </Trackpoint>
          <Trackpoint>
            <Time>2021-04-02T08:29:53.000Z</Time>
            <Position>
              <LatitudeDegrees>42.35336906276643276214599609375</LatitudeDegrees>
              <LongitudeDegrees>2.61730567552149295806884765625</LongitudeDegrees>
            </Position>
            <AltitudeMeters>838.79998779296875</AltitudeMeters>
            <DistanceMeters>NAN</DistanceMeters>
          </Trackpoint>
          <Trackpoint>
            <Time>2021-04-02T08:29:56.000Z</Time>
            <Position>
              <LatitudeDegrees>42.35336906276643276214599609375</LatitudeDegrees>
              <LongitudeDegrees>2.61730559170246124267578125</LongitudeDegrees>
            </Position>
            <AltitudeMeters>838.79998779296875</AltitudeMeters>
            <DistanceMeters>NAN</DistanceMeters>
          </Trackpoint>
          <Trackpoint>
            <Time>2021-04-02T08:30:06.000Z</Time>
            <Position>
              <LatitudeDegrees>42.35336889512836933135986328125</LatitudeDegrees>
              <LongitudeDegrees>2.6173054240643978118896484375</LongitudeDegrees>
            </Position>
            <AltitudeMeters>838.79998779296875</AltitudeMeters>
            <DistanceMeters>NAN</DistanceMeters>
          </Trackpoint>
          <Trackpoint>
            <Time>2021-04-02T08:30:19.000Z</Time>
            <Position>
              <LatitudeDegrees>42.353368811309337615966796875</LatitudeDegrees>
              <LongitudeDegrees>2.617305256426334381103515625</LongitudeDegrees>
            </Position>
            <AltitudeMeters>838.79998779296875</AltitudeMeters>
            <DistanceMeters>NAN</DistanceMeters>
          </Trackpoint>
          <Trackpoint>
            <Time>2021-04-02T08:30:31.000Z</Time>
            <Position>
              <LatitudeDegrees>42.3533686436712741851806640625</LatitudeDegrees>
              <LongitudeDegrees>2.6173050887882709503173828125</LongitudeDegrees>
            </Position>
            <AltitudeMeters>838.79998779296875</AltitudeMeters>
            <DistanceMeters>NAN</DistanceMeters>
          </Trackpoint>
          <Trackpoint>
            <Time>2021-04-02T08:30:38.000Z</Time>
            <Position>
              <LatitudeDegrees>42.3533686436712741851806640625</LatitudeDegrees>
              <LongitudeDegrees>2.6173050887882709503173828125</LongitudeDegrees>
            </Position>
            <AltitudeMeters>838.79998779296875</AltitudeMeters>
            <DistanceMeters>NAN</DistanceMeters>
          </Trackpoint>
          <Trackpoint>
            <Time>2021-04-02T08:30:56.000Z</Time>
            <Position>
              <LatitudeDegrees>42.353368811309337615966796875</LatitudeDegrees>
              <LongitudeDegrees>2.61730550788342952728271484375</LongitudeDegrees>
            </Position>
            <AltitudeMeters>838.79998779296875</AltitudeMeters>
            <DistanceMeters>NAN</DistanceMeters>
          </Trackpoint>
          <Trackpoint>
            <Time>2021-04-02T08:31:00.000Z</Time>
            <Position>
              <LatitudeDegrees>42.35336889512836933135986328125</LatitudeDegrees>
              <LongitudeDegrees>2.61730559170246124267578125</LongitudeDegrees>
            </Position>
            <AltitudeMeters>838.79998779296875</AltitudeMeters>
            <DistanceMeters>NAN</DistanceMeters>
          </Trackpoint>
          <Trackpoint>
            <Time>2021-04-02T08:31:05.000Z</Time>
            <Position>
              <LatitudeDegrees>42.35336906276643276214599609375</LatitudeDegrees>
              <LongitudeDegrees>2.61730567552149295806884765625</LongitudeDegrees>
            </Position>
            <AltitudeMeters>838.79998779296875</AltitudeMeters>
            <DistanceMeters>NAN</DistanceMeters>
          </Trackpoint>
          <Trackpoint>
            <Time>2021-04-02T08:31:25.000Z</Time>
            <Position>
              <LatitudeDegrees>42.3533503711223602294921875</LatitudeDegrees>
              <LongitudeDegrees>2.61724180541932582855224609375</LongitudeDegrees>
            </Position>
            <AltitudeMeters>838.79998779296875</AltitudeMeters>
            <DistanceMeters>NAN</DistanceMeters>
          </Trackpoint>
          <Trackpoint>
            <Time>2021-04-02T08:31:27.000Z</Time>
            <Position>
              <LatitudeDegrees>42.353343665599822998046875</LatitudeDegrees>
              <LongitudeDegrees>2.6172051765024662017822265625</LongitudeDegrees>
            </Position>
            <AltitudeMeters>838.79998779296875</AltitudeMeters>
            <DistanceMeters>NAN</DistanceMeters>
          </Trackpoint>
          <Trackpoint>
            <Time>2021-04-02T08:31:29.000Z</Time>
            <Position>
              <LatitudeDegrees>42.35333704389631748199462890625</LatitudeDegrees>
              <LongitudeDegrees>2.617169804871082305908203125</LongitudeDegrees>
            </Position>
            <AltitudeMeters>838.79998779296875</AltitudeMeters>
            <DistanceMeters>NAN</DistanceMeters>
          </Trackpoint>
          <Trackpoint>
            <Time>2021-04-02T08:31:32.000Z</Time>
            <Position>
              <LatitudeDegrees>42.35332698561251163482666015625</LatitudeDegrees>
              <LongitudeDegrees>2.61711515486240386962890625</LongitudeDegrees>
            </Position>
            <AltitudeMeters>838.79998779296875</AltitudeMeters>
            <DistanceMeters>NAN</DistanceMeters>
          </Trackpoint>
          <Trackpoint>
            <Time>2021-04-02T08:31:33.000Z</Time>
            <Position>
              <LatitudeDegrees>42.35332497395575046539306640625</LatitudeDegrees>
              <LongitudeDegrees>2.617098726332187652587890625</LongitudeDegrees>
            </Position>
            <AltitudeMeters>838.79998779296875</AltitudeMeters>
            <DistanceMeters>NAN</DistanceMeters>
          </Trackpoint>
          <Trackpoint>
            <Time>2021-04-02T08:31:36.000Z</Time>
            <Position>
              <LatitudeDegrees>42.353321872651576995849609375</LatitudeDegrees>
              <LongitudeDegrees>2.61705203913152217864990234375</LongitudeDegrees>
            </Position>
            <AltitudeMeters>838.4000244140625</AltitudeMeters>
            <DistanceMeters>NAN</DistanceMeters>
          </Trackpoint>
          <Trackpoint>
            <Time>2021-04-02T08:31:39.000Z</Time>
            <Position>
              <LatitudeDegrees>42.353317849338054656982421875</LatitudeDegrees>
              <LongitudeDegrees>2.6170087046921253204345703125</LongitudeDegrees>
            </Position>
            <AltitudeMeters>838</AltitudeMeters>
            <DistanceMeters>NAN</DistanceMeters>
          </Trackpoint>
          <Trackpoint>
            <Time>2021-04-02T08:31:41.000Z</Time>
            <Position>
              <LatitudeDegrees>42.353309132158756256103515625</LatitudeDegrees>
              <LongitudeDegrees>2.61698196642100811004638671875</LongitudeDegrees>
            </Position>
            <AltitudeMeters>837.79998779296875</AltitudeMeters>
            <DistanceMeters>NAN</DistanceMeters>
          </Trackpoint>
          <Trackpoint>
            <Time>2021-04-02T08:31:46.000Z</Time>
            <Position>
              <LatitudeDegrees>42.35330150462687015533447265625</LatitudeDegrees>
              <LongitudeDegrees>2.61691357009112834930419921875</LongitudeDegrees>
            </Position>
            <AltitudeMeters>837.5999755859375</AltitudeMeters>
            <DistanceMeters>NAN</DistanceMeters>
          </Trackpoint>
          <Trackpoint>
            <Time>2021-04-02T08:31:48.000Z</Time>
            <Position>
              <LatitudeDegrees>42.35329739749431610107421875</LatitudeDegrees>
              <LongitudeDegrees>2.6168896816670894622802734375</LongitudeDegrees>
            </Position>
            <AltitudeMeters>837.4000244140625</AltitudeMeters>
            <DistanceMeters>NAN</DistanceMeters>
          </Trackpoint>
          <Trackpoint>
            <Time>2021-04-02T08:31:50.000Z</Time>
            <Position>
              <LatitudeDegrees>42.3532938770949840545654296875</LatitudeDegrees>
              <LongitudeDegrees>2.6168709062039852142333984375</LongitudeDegrees>
            </Position>
            <AltitudeMeters>837.20001220703125</AltitudeMeters>
            <DistanceMeters>NAN</DistanceMeters>
          </Trackpoint>
          <Trackpoint>
            <Time>2021-04-02T08:31:51.000Z</Time>
            <Position>
              <LatitudeDegrees>42.35329144634306430816650390625</LatitudeDegrees>
              <LongitudeDegrees>2.61686763726174831390380859375</LongitudeDegrees>
            </Position>
            <AltitudeMeters>837.20001220703125</AltitudeMeters>
            <DistanceMeters>NAN</DistanceMeters>
          </Trackpoint>
          <Trackpoint>
            <Time>2021-04-02T08:31:53.000Z</Time>
            <Position>
              <LatitudeDegrees>42.35328725539147853851318359375</LatitudeDegrees>
              <LongitudeDegrees>2.6168511249125003814697265625</LongitudeDegrees>
            </Position>
            <AltitudeMeters>837.4000244140625</AltitudeMeters>
            <DistanceMeters>NAN</DistanceMeters>
          </Trackpoint>
          <Trackpoint>
            <Time>2021-04-02T08:31:55.000Z</Time>
            <Position>
              <LatitudeDegrees>42.35328440554440021514892578125</LatitudeDegrees>
              <LongitudeDegrees>2.61682220734655857086181640625</LongitudeDegrees>
            </Position>
            <AltitudeMeters>837.20001220703125</AltitudeMeters>
            <DistanceMeters>NAN</DistanceMeters>
          </Trackpoint>
          <Trackpoint>
            <Time>2021-04-02T08:32:00.000Z</Time>
            <Position>
              <LatitudeDegrees>42.35327602364122867584228515625</LatitudeDegrees>
              <LongitudeDegrees>2.61675163172185420989990234375</LongitudeDegrees>
            </Position>
            <AltitudeMeters>836.79998779296875</AltitudeMeters>
            <DistanceMeters>NAN</DistanceMeters>
          </Trackpoint>
          <Trackpoint>
            <Time>2021-04-02T08:32:01.000Z</Time>
            <Position>
              <LatitudeDegrees>42.35327661037445068359375</LatitudeDegrees>
              <LongitudeDegrees>2.61673704721033573150634765625</LongitudeDegrees>
            </Position>
            <AltitudeMeters>836.79998779296875</AltitudeMeters>
            <DistanceMeters>NAN</DistanceMeters>
          </Trackpoint>
          <Trackpoint>
            <Time>2021-04-02T08:32:03.000Z</Time>
            <Position>
              <LatitudeDegrees>42.35328323207795619964599609375</LatitudeDegrees>
              <LongitudeDegrees>2.616706453263759613037109375</LongitudeDegrees>
            </Position>
            <AltitudeMeters>836.5999755859375</AltitudeMeters>
            <DistanceMeters>NAN</DistanceMeters>
          </Trackpoint>
          <Trackpoint>
            <Time>2021-04-02T08:32:07.000Z</Time>
            <Position>
              <LatitudeDegrees>42.353291027247905731201171875</LatitudeDegrees>
              <LongitudeDegrees>2.61664350517094135284423828125</LongitudeDegrees>
            </Position>
            <AltitudeMeters>836.4000244140625</AltitudeMeters>
            <DistanceMeters>NAN</DistanceMeters>
          </Trackpoint>
          <Trackpoint>
            <Time>2021-04-02T08:32:08.000Z</Time>
            <Position>
              <LatitudeDegrees>42.353290356695652008056640625</LatitudeDegrees>
              <LongitudeDegrees>2.6166264899075031280517578125</LongitudeDegrees>
            </Position>
            <AltitudeMeters>836.4000244140625</AltitudeMeters>
            <DistanceMeters>NAN</DistanceMeters>
          </Trackpoint>
          <Trackpoint>
            <Time>2021-04-02T08:32:19.000Z</Time>
            <Position>
              <LatitudeDegrees>42.35326160676777362823486328125</LatitudeDegrees>
              <LongitudeDegrees>2.61645667254924774169921875</LongitudeDegrees>
            </Position>
            <AltitudeMeters>835.79998779296875</AltitudeMeters>
            <DistanceMeters>NAN</DistanceMeters>
          </Trackpoint>
          <Trackpoint>
            <Time>2021-04-02T08:32:29.000Z</Time>
            <Position>
              <LatitudeDegrees>42.35321961343288421630859375</LatitudeDegrees>
              <LongitudeDegrees>2.61631912551820278167724609375</LongitudeDegrees>
            </Position>
            <AltitudeMeters>836</AltitudeMeters>
            <DistanceMeters>NAN</DistanceMeters>
          </Trackpoint>
          <Trackpoint>
            <Time>2021-04-02T08:32:32.000Z</Time>
            <Position>
              <LatitudeDegrees>42.35320444218814373016357421875</LatitudeDegrees>
              <LongitudeDegrees>2.61627436615526676177978515625</LongitudeDegrees>
            </Position>
            <AltitudeMeters>836</AltitudeMeters>
            <DistanceMeters>NAN</DistanceMeters>
          </Trackpoint>
          <Trackpoint>
            <Time>2021-04-02T08:32:35.000Z</Time>
            <Position>
              <LatitudeDegrees>42.3532030172646045684814453125</LatitudeDegrees>
              <LongitudeDegrees>2.61622876860201358795166015625</LongitudeDegrees>
            </Position>
            <AltitudeMeters>836.20001220703125</AltitudeMeters>
            <DistanceMeters>NAN</DistanceMeters>
          </Trackpoint>
          <Trackpoint>
            <Time>2021-04-02T08:32:38.000Z</Time>
            <Position>
              <LatitudeDegrees>42.3531969822943210601806640625</LatitudeDegrees>
              <LongitudeDegrees>2.6161718554794788360595703125</LongitudeDegrees>
            </Position>
            <AltitudeMeters>836.20001220703125</AltitudeMeters>
            <DistanceMeters>NAN</DistanceMeters>
          </Trackpoint>
          <Trackpoint>
            <Time>2021-04-02T08:32:41.000Z</Time>
            <Position>
              <LatitudeDegrees>42.353189773857593536376953125</LatitudeDegrees>
              <LongitudeDegrees>2.6161205582320690155029296875</LongitudeDegrees>
            </Position>
            <AltitudeMeters>836.20001220703125</AltitudeMeters>
            <DistanceMeters>NAN</DistanceMeters>
          </Trackpoint>
          <Trackpoint>
            <Time>2021-04-02T08:32:49.000Z</Time>
            <Position>
              <LatitudeDegrees>42.35317946411669254302978515625</LatitudeDegrees>
              <LongitudeDegrees>2.61599306948482990264892578125</LongitudeDegrees>
            </Position>
            <AltitudeMeters>836.79998779296875</AltitudeMeters>
            <DistanceMeters>NAN</DistanceMeters>
          </Trackpoint>
          <Trackpoint>
            <Time>2021-04-02T08:32:55.000Z</Time>
            <Position>
              <LatitudeDegrees>42.3531745187938213348388671875</LatitudeDegrees>
              <LongitudeDegrees>2.61590455658733844757080078125</LongitudeDegrees>
            </Position>
            <AltitudeMeters>837.20001220703125</AltitudeMeters>
            <DistanceMeters>NAN</DistanceMeters>
          </Trackpoint>
          <Trackpoint>
            <Time>2021-04-02T08:32:56.000Z</Time>
            <Position>
              <LatitudeDegrees>42.353172004222869873046875</LatitudeDegrees>
              <LongitudeDegrees>2.61589064262807369232177734375</LongitudeDegrees>
            </Position>
            <AltitudeMeters>837.20001220703125</AltitudeMeters>
            <DistanceMeters>NAN</DistanceMeters>
          </Trackpoint>
          <Trackpoint>
            <Time>2021-04-02T08:32:58.000Z</Time>
            <Position>
              <LatitudeDegrees>42.3531694896519184112548828125</LatitudeDegrees>
              <LongitudeDegrees>2.61587555520236492156982421875</LongitudeDegrees>
            </Position>
            <AltitudeMeters>837.4000244140625</AltitudeMeters>
            <DistanceMeters>NAN</DistanceMeters>
          </Trackpoint>
          <Trackpoint>
            <Time>2021-04-02T08:32:59.000Z</Time>
            <Position>
              <LatitudeDegrees>42.35316353850066661834716796875</LatitudeDegrees>
              <LongitudeDegrees>2.61584915220737457275390625</LongitudeDegrees>
            </Position>
            <AltitudeMeters>837.4000244140625</AltitudeMeters>
            <DistanceMeters>NAN</DistanceMeters>
          </Trackpoint>
          <Trackpoint>
            <Time>2021-04-02T08:33:01.000Z</Time>
            <Position>
              <LatitudeDegrees>42.353157587349414825439453125</LatitudeDegrees>
              <LongitudeDegrees>2.61582056991755962371826171875</LongitudeDegrees>
            </Position>
            <AltitudeMeters>837.5999755859375</AltitudeMeters>
            <DistanceMeters>NAN</DistanceMeters>
          </Trackpoint>
          <Trackpoint>
            <Time>2021-04-02T08:33:03.000Z</Time>
            <Position>
              <LatitudeDegrees>42.35315859317779541015625</LatitudeDegrees>
              <LongitudeDegrees>2.615793161094188690185546875</LongitudeDegrees>
            </Position>
            <AltitudeMeters>837.79998779296875</AltitudeMeters>
            <DistanceMeters>NAN</DistanceMeters>
          </Trackpoint>
          <Trackpoint>
            <Time>2021-04-02T08:33:04.000Z</Time>
            <Position>
              <LatitudeDegrees>42.35315884463489055633544921875</LatitudeDegrees>
              <LongitudeDegrees>2.615779750049114227294921875</LongitudeDegrees>
            </Position>
            <AltitudeMeters>837.79998779296875</AltitudeMeters>
            <DistanceMeters>NAN</DistanceMeters>
          </Trackpoint>
          <Trackpoint>
            <Time>2021-04-02T08:33:05.000Z</Time>
            <Position>
              <LatitudeDegrees>42.35315817408263683319091796875</LatitudeDegrees>
              <LongitudeDegrees>2.615765668451786041259765625</LongitudeDegrees>
            </Position>
            <AltitudeMeters>837.79998779296875</AltitudeMeters>
            <DistanceMeters>NAN</DistanceMeters>
          </Trackpoint>
          <Trackpoint>
            <Time>2021-04-02T08:33:06.000Z</Time>
            <Position>
              <LatitudeDegrees>42.35315381549298763275146484375</LatitudeDegrees>
              <LongitudeDegrees>2.61574848555028438568115234375</LongitudeDegrees>
            </Position>
            <AltitudeMeters>837.79998779296875</AltitudeMeters>
            <DistanceMeters>NAN</DistanceMeters>
          </Trackpoint>
          <Trackpoint>
            <Time>2021-04-02T08:33:13.000Z</Time>
            <Position>
              <LatitudeDegrees>42.35314048826694488525390625</LatitudeDegrees>
              <LongitudeDegrees>2.615642957389354705810546875</LongitudeDegrees>
            </Position>
            <AltitudeMeters>838.5999755859375</AltitudeMeters>
            <DistanceMeters>NAN</DistanceMeters>
          </Trackpoint>
          <Trackpoint>
            <Time>2021-04-02T08:33:14.000Z</Time>
            <Position>
              <LatitudeDegrees>42.35313839279115200042724609375</LatitudeDegrees>
              <LongitudeDegrees>2.61562711559236049652099609375</LongitudeDegrees>
            </Position>
            <AltitudeMeters>838.5999755859375</AltitudeMeters>
            <DistanceMeters>NAN</DistanceMeters>
          </Trackpoint>
          <Trackpoint>
            <Time>2021-04-02T08:33:19.000Z</Time>
            <Position>
              <LatitudeDegrees>42.3531463555991649627685546875</LatitudeDegrees>
              <LongitudeDegrees>2.6155636645853519439697265625</LongitudeDegrees>
            </Position>
            <AltitudeMeters>838.79998779296875</AltitudeMeters>
            <DistanceMeters>NAN</DistanceMeters>
          </Trackpoint>
          <Trackpoint>
            <Time>2021-04-02T08:33:21.000Z</Time>
            <Position>
              <LatitudeDegrees>42.353146858513355255126953125</LatitudeDegrees>
              <LongitudeDegrees>2.6155371777713298797607421875</LongitudeDegrees>
            </Position>
            <AltitudeMeters>839</AltitudeMeters>
            <DistanceMeters>NAN</DistanceMeters>
          </Trackpoint>
          <Trackpoint>
            <Time>2021-04-02T08:33:22.000Z</Time>
            <Position>
              <LatitudeDegrees>42.35314853489398956298828125</LatitudeDegrees>
              <LongitudeDegrees>2.6155261136591434478759765625</LongitudeDegrees>
            </Position>
            <AltitudeMeters>839</AltitudeMeters>
            <DistanceMeters>NAN</DistanceMeters>
          </Trackpoint>
          <Trackpoint>
            <Time>2021-04-02T08:33:23.000Z</Time>
            <Position>
              <LatitudeDegrees>42.35315381549298763275146484375</LatitudeDegrees>
              <LongitudeDegrees>2.61551446281373500823974609375</LongitudeDegrees>
            </Position>
            <AltitudeMeters>839.20001220703125</AltitudeMeters>
            <DistanceMeters>NAN</DistanceMeters>
          </Trackpoint>
          <Trackpoint>
            <Time>2021-04-02T08:33:26.000Z</Time>
            <Position>
              <LatitudeDegrees>42.3531634546816349029541015625</LatitudeDegrees>
              <LongitudeDegrees>2.61547096073627471923828125</LongitudeDegrees>
            </Position>
            <AltitudeMeters>839.5999755859375</AltitudeMeters>
            <DistanceMeters>NAN</DistanceMeters>
          </Trackpoint>
          <Trackpoint>
            <Time>2021-04-02T08:33:29.000Z</Time>
            <Position>
              <LatitudeDegrees>42.3531631194055080413818359375</LatitudeDegrees>
              <LongitudeDegrees>2.61544321663677692413330078125</LongitudeDegrees>
            </Position>
            <AltitudeMeters>840</AltitudeMeters>
            <DistanceMeters>NAN</DistanceMeters>
          </Trackpoint>
          <Trackpoint>
            <Time>2021-04-02T08:33:35.000Z</Time>
            <Position>
              <LatitudeDegrees>42.35314853489398956298828125</LatitudeDegrees>
              <LongitudeDegrees>2.61541555635631084442138671875</LongitudeDegrees>
            </Position>
            <AltitudeMeters>840.4000244140625</AltitudeMeters>
            <DistanceMeters>NAN</DistanceMeters>
          </Trackpoint>
          <Trackpoint>
            <Time>2021-04-02T08:33:36.000Z</Time>
            <Position>
              <LatitudeDegrees>42.3531507141888141632080078125</LatitudeDegrees>
              <LongitudeDegrees>2.61541488580405712127685546875</LongitudeDegrees>
            </Position>
            <AltitudeMeters>840.4000244140625</AltitudeMeters>
            <DistanceMeters>NAN</DistanceMeters>
          </Trackpoint>
          <Trackpoint>
            <Time>2021-04-02T08:33:37.000Z</Time>
            <Position>
              <LatitudeDegrees>42.3531520552933216094970703125</LatitudeDegrees>
              <LongitudeDegrees>2.6154161430895328521728515625</LongitudeDegrees>
            </Position>
            <AltitudeMeters>840.5999755859375</AltitudeMeters>
            <DistanceMeters>NAN</DistanceMeters>
          </Trackpoint>
          <Trackpoint>
            <Time>2021-04-02T08:33:43.000Z</Time>
            <Position>
              <LatitudeDegrees>42.3531611077487468719482421875</LatitudeDegrees>
              <LongitudeDegrees>2.6154184900224208831787109375</LongitudeDegrees>
            </Position>
            <AltitudeMeters>840</AltitudeMeters>
            <DistanceMeters>NAN</DistanceMeters>
          </Trackpoint>
          <Trackpoint>
            <Time>2021-04-02T08:33:52.000Z</Time>
            <Position>
              <LatitudeDegrees>42.3531611077487468719482421875</LatitudeDegrees>
              <LongitudeDegrees>2.6154184900224208831787109375</LongitudeDegrees>
            </Position>
            <AltitudeMeters>840.20001220703125</AltitudeMeters>
            <DistanceMeters>NAN</DistanceMeters>
          </Trackpoint>
          <Trackpoint>
            <Time>2021-04-02T08:33:57.000Z</Time>
            <Position>
              <LatitudeDegrees>42.35314442776143550872802734375</LatitudeDegrees>
              <LongitudeDegrees>2.61540390551090240478515625</LongitudeDegrees>
            </Position>
            <AltitudeMeters>840.20001220703125</AltitudeMeters>
            <DistanceMeters>NAN</DistanceMeters>
          </Trackpoint>
          <Trackpoint>
            <Time>2021-04-02T08:33:59.000Z</Time>
            <Position>
              <LatitudeDegrees>42.35311777330935001373291015625</LatitudeDegrees>
              <LongitudeDegrees>2.61538806371390819549560546875</LongitudeDegrees>
            </Position>
            <AltitudeMeters>840.20001220703125</AltitudeMeters>
            <DistanceMeters>NAN</DistanceMeters>
          </Trackpoint>
          <Trackpoint>
            <Time>2021-04-02T08:34:08.000Z</Time>
            <Position>
              <LatitudeDegrees>42.35300059430301189422607421875</LatitudeDegrees>
              <LongitudeDegrees>2.6153044961392879486083984375</LongitudeDegrees>
            </Position>
            <AltitudeMeters>839.79998779296875</AltitudeMeters>
            <DistanceMeters>NAN</DistanceMeters>
          </Trackpoint>
          <Trackpoint>
            <Time>2021-04-02T08:34:14.000Z</Time>
            <Position>
              <LatitudeDegrees>42.3529498837888240814208984375</LatitudeDegrees>
              <LongitudeDegrees>2.61527256108820438385009765625</LongitudeDegrees>
            </Position>
            <AltitudeMeters>839.5999755859375</AltitudeMeters>
            <DistanceMeters>NAN</DistanceMeters>
          </Trackpoint>
          <Trackpoint>
            <Time>2021-04-02T08:34:18.000Z</Time>
            <Position>
              <LatitudeDegrees>42.352914176881313323974609375</LatitudeDegrees>
              <LongitudeDegrees>2.61524691246449947357177734375</LongitudeDegrees>
            </Position>
            <AltitudeMeters>839.4000244140625</AltitudeMeters>
            <DistanceMeters>NAN</DistanceMeters>
          </Trackpoint>
          <Trackpoint>
            <Time>2021-04-02T08:34:24.000Z</Time>
            <Position>
              <LatitudeDegrees>42.35286262817680835723876953125</LatitudeDegrees>
              <LongitudeDegrees>2.6151982136070728302001953125</LongitudeDegrees>
            </Position>
            <AltitudeMeters>839</AltitudeMeters>
            <DistanceMeters>NAN</DistanceMeters>
          </Trackpoint>
          <Trackpoint>
            <Time>2021-04-02T08:34:30.000Z</Time>
            <Position>
              <LatitudeDegrees>42.35281686298549175262451171875</LatitudeDegrees>
              <LongitudeDegrees>2.6151485927402973175048828125</LongitudeDegrees>
            </Position>
            <AltitudeMeters>838.4000244140625</AltitudeMeters>
            <DistanceMeters>NAN</DistanceMeters>
          </Trackpoint>
          <Trackpoint>
            <Time>2021-04-02T08:34:34.000Z</Time>
            <Position>
              <LatitudeDegrees>42.35278082080185413360595703125</LatitudeDegrees>
              <LongitudeDegrees>2.61510559357702732086181640625</LongitudeDegrees>
            </Position>
            <AltitudeMeters>837.4000244140625</AltitudeMeters>
            <DistanceMeters>NAN</DistanceMeters>
          </Trackpoint>
          <Trackpoint>
            <Time>2021-04-02T08:34:39.000Z</Time>
            <Position>
              <LatitudeDegrees>42.35273606143891811370849609375</LatitudeDegrees>
              <LongitudeDegrees>2.61504926718771457672119140625</LongitudeDegrees>
            </Position>
            <AltitudeMeters>836.79998779296875</AltitudeMeters>
            <DistanceMeters>NAN</DistanceMeters>
          </Trackpoint>
          <Trackpoint>
            <Time>2021-04-02T08:34:40.000Z</Time>
            <Position>
              <LatitudeDegrees>42.352723069489002227783203125</LatitudeDegrees>
              <LongitudeDegrees>2.6150349341332912445068359375</LongitudeDegrees>
            </Position>
            <AltitudeMeters>836.79998779296875</AltitudeMeters>
            <DistanceMeters>NAN</DistanceMeters>
          </Trackpoint>
          <Trackpoint>
            <Time>2021-04-02T08:34:43.000Z</Time>
            <Position>
              <LatitudeDegrees>42.3527012765407562255859375</LatitudeDegrees>
              <LongitudeDegrees>2.6149980537593364715576171875</LongitudeDegrees>
            </Position>
            <AltitudeMeters>836.4000244140625</AltitudeMeters>
            <DistanceMeters>NAN</DistanceMeters>
          </Trackpoint>
          <Trackpoint>
            <Time>2021-04-02T08:34:44.000Z</Time>
            <Position>
              <LatitudeDegrees>42.3527034558355808258056640625</LatitudeDegrees>
              <LongitudeDegrees>2.61498539708554744720458984375</LongitudeDegrees>
            </Position>
            <AltitudeMeters>836.4000244140625</AltitudeMeters>
            <DistanceMeters>NAN</DistanceMeters>
          </Trackpoint>
          <Trackpoint>
            <Time>2021-04-02T08:34:45.000Z</Time>
            <Position>
              <LatitudeDegrees>42.35270136035978794097900390625</LatitudeDegrees>
              <LongitudeDegrees>2.6149781048297882080078125</LongitudeDegrees>
            </Position>
            <AltitudeMeters>836</AltitudeMeters>
            <DistanceMeters>NAN</DistanceMeters>
          </Trackpoint>
          <Trackpoint>
            <Time>2021-04-02T08:34:47.000Z</Time>
            <Position>
              <LatitudeDegrees>42.35267990268766880035400390625</LatitudeDegrees>
              <LongitudeDegrees>2.61496134102344512939453125</LongitudeDegrees>
            </Position>
            <AltitudeMeters>835.79998779296875</AltitudeMeters>
            <DistanceMeters>NAN</DistanceMeters>
          </Trackpoint>
          <Trackpoint>
            <Time>2021-04-02T08:34:51.000Z</Time>
            <Position>
              <LatitudeDegrees>42.35265408642590045928955078125</LatitudeDegrees>
              <LongitudeDegrees>2.6149325072765350341796875</LongitudeDegrees>
            </Position>
            <AltitudeMeters>835.4000244140625</AltitudeMeters>
            <DistanceMeters>NAN</DistanceMeters>
          </Trackpoint>
          <Trackpoint>
            <Time>2021-04-02T08:34:53.000Z</Time>
            <Position>
              <LatitudeDegrees>42.35264159739017486572265625</LatitudeDegrees>
              <LongitudeDegrees>2.6149152405560016632080078125</LongitudeDegrees>
            </Position>
            <AltitudeMeters>835</AltitudeMeters>
            <DistanceMeters>NAN</DistanceMeters>
          </Trackpoint>
          <Trackpoint>
            <Time>2021-04-02T08:34:58.000Z</Time>
            <Position>
              <LatitudeDegrees>42.352600358426570892333984375</LatitudeDegrees>
              <LongitudeDegrees>2.61489084921777248382568359375</LongitudeDegrees>
            </Position>
            <AltitudeMeters>834.5999755859375</AltitudeMeters>
            <DistanceMeters>NAN</DistanceMeters>
          </Trackpoint>
          <Trackpoint>
            <Time>2021-04-02T08:35:00.000Z</Time>
            <Position>
              <LatitudeDegrees>42.35258527100086212158203125</LatitudeDegrees>
              <LongitudeDegrees>2.61487157084047794342041015625</LongitudeDegrees>
            </Position>
            <AltitudeMeters>834.4000244140625</AltitudeMeters>
            <DistanceMeters>NAN</DistanceMeters>
          </Trackpoint>
          <Trackpoint>
            <Time>2021-04-02T08:35:01.000Z</Time>
            <Position>
              <LatitudeDegrees>42.352580241858959197998046875</LatitudeDegrees>
              <LongitudeDegrees>2.61486469767987728118896484375</LongitudeDegrees>
            </Position>
            <AltitudeMeters>834.4000244140625</AltitudeMeters>
            <DistanceMeters>NAN</DistanceMeters>
          </Trackpoint>
          <Trackpoint>
            <Time>2021-04-02T08:35:10.000Z</Time>
            <Position>
              <LatitudeDegrees>42.3525435291230678558349609375</LatitudeDegrees>
              <LongitudeDegrees>2.6147439144551753997802734375</LongitudeDegrees>
            </Position>
            <AltitudeMeters>834</AltitudeMeters>
            <DistanceMeters>NAN</DistanceMeters>
          </Trackpoint>
          <Trackpoint>
            <Time>2021-04-02T08:35:11.000Z</Time>
            <Position>
              <LatitudeDegrees>42.3525378294289112091064453125</LatitudeDegrees>
              <LongitudeDegrees>2.6147261448204517364501953125</LongitudeDegrees>
            </Position>
            <AltitudeMeters>834</AltitudeMeters>
            <DistanceMeters>NAN</DistanceMeters>
          </Trackpoint>
          <Trackpoint>
            <Time>2021-04-02T08:35:15.000Z</Time>
            <Position>
              <LatitudeDegrees>42.3525039665400981903076171875</LatitudeDegrees>
              <LongitudeDegrees>2.614650540053844451904296875</LongitudeDegrees>
            </Position>
            <AltitudeMeters>834</AltitudeMeters>
            <DistanceMeters>NAN</DistanceMeters>
          </Trackpoint>
          <Trackpoint>
            <Time>2021-04-02T08:35:18.000Z</Time>
            <Position>
              <LatitudeDegrees>42.35248200595378875732421875</LatitudeDegrees>
              <LongitudeDegrees>2.61459748260676860809326171875</LongitudeDegrees>
            </Position>
            <AltitudeMeters>834.20001220703125</AltitudeMeters>
            <DistanceMeters>NAN</DistanceMeters>
          </Trackpoint>
          <Trackpoint>
            <Time>2021-04-02T08:35:19.000Z</Time>
            <Position>
              <LatitudeDegrees>42.35247856937348842620849609375</LatitudeDegrees>
              <LongitudeDegrees>2.61458490975201129913330078125</LongitudeDegrees>
            </Position>
            <AltitudeMeters>834</AltitudeMeters>
            <DistanceMeters>NAN</DistanceMeters>
          </Trackpoint>
          <Trackpoint>
            <Time>2021-04-02T08:35:20.000Z</Time>
            <Position>
              <LatitudeDegrees>42.3524761386215686798095703125</LatitudeDegrees>
              <LongitudeDegrees>2.61457870714366436004638671875</LongitudeDegrees>
            </Position>
            <AltitudeMeters>834</AltitudeMeters>
            <DistanceMeters>NAN</DistanceMeters>
          </Trackpoint>
          <Trackpoint>
            <Time>2021-04-02T08:35:21.000Z</Time>
            <Position>
              <LatitudeDegrees>42.35247169621288776397705078125</LatitudeDegrees>
              <LongitudeDegrees>2.6145705766975879669189453125</LongitudeDegrees>
            </Position>
            <AltitudeMeters>833.79998779296875</AltitudeMeters>
            <DistanceMeters>NAN</DistanceMeters>
          </Trackpoint>
          <Trackpoint>
            <Time>2021-04-02T08:35:22.000Z</Time>
            <Position>
              <LatitudeDegrees>42.352468259632587432861328125</LatitudeDegrees>
              <LongitudeDegrees>2.61455825529992580413818359375</LongitudeDegrees>
            </Position>
            <AltitudeMeters>833.79998779296875</AltitudeMeters>
            <DistanceMeters>NAN</DistanceMeters>
          </Trackpoint>
          <Trackpoint>
            <Time>2021-04-02T08:35:26.000Z</Time>
            <Position>
              <LatitudeDegrees>42.35243381001055240631103515625</LatitudeDegrees>
              <LongitudeDegrees>2.6145115680992603302001953125</LongitudeDegrees>
            </Position>
            <AltitudeMeters>833.79998779296875</AltitudeMeters>
            <DistanceMeters>NAN</DistanceMeters>
          </Trackpoint>
          <Trackpoint>
            <Time>2021-04-02T08:35:31.000Z</Time>
            <Position>
              <LatitudeDegrees>42.3523960076272487640380859375</LatitudeDegrees>
              <LongitudeDegrees>2.6144723407924175262451171875</LongitudeDegrees>
            </Position>
            <AltitudeMeters>833.79998779296875</AltitudeMeters>
            <DistanceMeters>NAN</DistanceMeters>
          </Trackpoint>
          <Trackpoint>
            <Time>2021-04-02T08:35:35.000Z</Time>
            <Position>
              <LatitudeDegrees>42.35236055217683315277099609375</LatitudeDegrees>
              <LongitudeDegrees>2.61444292031228542327880859375</LongitudeDegrees>
            </Position>
            <AltitudeMeters>833.5999755859375</AltitudeMeters>
            <DistanceMeters>NAN</DistanceMeters>
          </Trackpoint>
          <Trackpoint>
            <Time>2021-04-02T08:35:36.000Z</Time>
            <Position>
              <LatitudeDegrees>42.35234680585563182830810546875</LatitudeDegrees>
              <LongitudeDegrees>2.61444124393165111541748046875</LongitudeDegrees>
            </Position>
            <AltitudeMeters>833.5999755859375</AltitudeMeters>
            <DistanceMeters>NAN</DistanceMeters>
          </Trackpoint>
          <Trackpoint>
            <Time>2021-04-02T08:35:39.000Z</Time>
            <Position>
              <LatitudeDegrees>42.35231780447065830230712890625</LatitudeDegrees>
              <LongitudeDegrees>2.61442716233432292938232421875</LongitudeDegrees>
            </Position>
            <AltitudeMeters>833.5999755859375</AltitudeMeters>
            <DistanceMeters>NAN</DistanceMeters>
          </Trackpoint>
          <Trackpoint>
            <Time>2021-04-02T08:35:42.000Z</Time>
            <Position>
              <LatitudeDegrees>42.35228486359119415283203125</LatitudeDegrees>
              <LongitudeDegrees>2.6144163496792316436767578125</LongitudeDegrees>
            </Position>
            <AltitudeMeters>833.5999755859375</AltitudeMeters>
            <DistanceMeters>NAN</DistanceMeters>
          </Trackpoint>
          <Trackpoint>
            <Time>2021-04-02T08:35:47.000Z</Time>
            <Position>
              <LatitudeDegrees>42.352236248552799224853515625</LatitudeDegrees>
              <LongitudeDegrees>2.61438726447522640228271484375</LongitudeDegrees>
            </Position>
            <AltitudeMeters>833.5999755859375</AltitudeMeters>
            <DistanceMeters>NAN</DistanceMeters>
          </Trackpoint>
          <Trackpoint>
            <Time>2021-04-02T08:35:49.000Z</Time>
            <Position>
              <LatitudeDegrees>42.35221118666231632232666015625</LatitudeDegrees>
              <LongitudeDegrees>2.61437385343015193939208984375</LongitudeDegrees>
            </Position>
            <AltitudeMeters>833.5999755859375</AltitudeMeters>
            <DistanceMeters>NAN</DistanceMeters>
          </Trackpoint>
          <Trackpoint>
            <Time>2021-04-02T08:35:55.000Z</Time>
            <Position>
              <LatitudeDegrees>42.3521465621888637542724609375</LatitudeDegrees>
              <LongitudeDegrees>2.61433261446654796600341796875</LongitudeDegrees>
            </Position>
            <AltitudeMeters>833.4000244140625</AltitudeMeters>
            <DistanceMeters>NAN</DistanceMeters>
          </Trackpoint>
          <Trackpoint>
            <Time>2021-04-02T08:35:57.000Z</Time>
            <Position>
              <LatitudeDegrees>42.35212233848869800567626953125</LatitudeDegrees>
              <LongitudeDegrees>2.61432020924985408782958984375</LongitudeDegrees>
            </Position>
            <AltitudeMeters>833.4000244140625</AltitudeMeters>
            <DistanceMeters>NAN</DistanceMeters>
          </Trackpoint>
          <Trackpoint>
            <Time>2021-04-02T08:36:02.000Z</Time>
            <Position>
              <LatitudeDegrees>42.35207967460155487060546875</LatitudeDegrees>
              <LongitudeDegrees>2.61427612043917179107666015625</LongitudeDegrees>
            </Position>
            <AltitudeMeters>833.4000244140625</AltitudeMeters>
            <DistanceMeters>NAN</DistanceMeters>
          </Trackpoint>
          <Trackpoint>
            <Time>2021-04-02T08:36:13.000Z</Time>
            <Position>
              <LatitudeDegrees>42.35197816975414752960205078125</LatitudeDegrees>
              <LongitudeDegrees>2.614197246730327606201171875</LongitudeDegrees>
            </Position>
            <AltitudeMeters>833.20001220703125</AltitudeMeters>
            <DistanceMeters>NAN</DistanceMeters>
          </Trackpoint>
          <Trackpoint>
            <Time>2021-04-02T08:36:17.000Z</Time>
            <Position>
              <LatitudeDegrees>42.35193776898086071014404296875</LatitudeDegrees>
              <LongitudeDegrees>2.6141645573079586029052734375</LongitudeDegrees>
            </Position>
            <AltitudeMeters>833</AltitudeMeters>
            <DistanceMeters>NAN</DistanceMeters>
          </Trackpoint>
          <Trackpoint>
            <Time>2021-04-02T08:36:18.000Z</Time>
            <Position>
              <LatitudeDegrees>42.35192737542092800140380859375</LatitudeDegrees>
              <LongitudeDegrees>2.61415592394769191741943359375</LongitudeDegrees>
            </Position>
            <AltitudeMeters>832.79998779296875</AltitudeMeters>
            <DistanceMeters>NAN</DistanceMeters>
          </Trackpoint>
          <Trackpoint>
            <Time>2021-04-02T08:36:21.000Z</Time>
            <Position>
              <LatitudeDegrees>42.351907007396221160888671875</LatitudeDegrees>
              <LongitudeDegrees>2.61411988176405429840087890625</LongitudeDegrees>
            </Position>
            <AltitudeMeters>832.79998779296875</AltitudeMeters>
            <DistanceMeters>NAN</DistanceMeters>
          </Trackpoint>
          <Trackpoint>
            <Time>2021-04-02T08:36:29.000Z</Time>
            <Position>
              <LatitudeDegrees>42.35183668322861194610595703125</LatitudeDegrees>
              <LongitudeDegrees>2.6140505634248256683349609375</LongitudeDegrees>
            </Position>
            <AltitudeMeters>832.20001220703125</AltitudeMeters>
            <DistanceMeters>NAN</DistanceMeters>
          </Trackpoint>
          <Trackpoint>
            <Time>2021-04-02T08:36:30.000Z</Time>
            <Position>
              <LatitudeDegrees>42.35182595439255237579345703125</LatitudeDegrees>
              <LongitudeDegrees>2.61404930613934993743896484375</LongitudeDegrees>
            </Position>
            <AltitudeMeters>832.20001220703125</AltitudeMeters>
            <DistanceMeters>NAN</DistanceMeters>
          </Trackpoint>
          <Trackpoint>
            <Time>2021-04-02T08:36:35.000Z</Time>
            <Position>
              <LatitudeDegrees>42.351760827004909515380859375</LatitudeDegrees>
              <LongitudeDegrees>2.61404310353100299835205078125</LongitudeDegrees>
            </Position>
            <AltitudeMeters>831.79998779296875</AltitudeMeters>
            <DistanceMeters>NAN</DistanceMeters>
          </Trackpoint>
          <Trackpoint>
            <Time>2021-04-02T08:36:36.000Z</Time>
            <Position>
              <LatitudeDegrees>42.35175051726400852203369140625</LatitudeDegrees>
              <LongitudeDegrees>2.6140358112752437591552734375</LongitudeDegrees>
            </Position>
            <AltitudeMeters>831.79998779296875</AltitudeMeters>
            <DistanceMeters>NAN</DistanceMeters>
          </Trackpoint>
          <Trackpoint>
            <Time>2021-04-02T08:36:40.000Z</Time>
            <Position>
              <LatitudeDegrees>42.35170818865299224853515625</LatitudeDegrees>
              <LongitudeDegrees>2.61400513350963592529296875</LongitudeDegrees>
            </Position>
            <AltitudeMeters>831.79998779296875</AltitudeMeters>
            <DistanceMeters>NAN</DistanceMeters>
          </Trackpoint>
          <Trackpoint>
            <Time>2021-04-02T08:36:43.000Z</Time>
            <Position>
              <LatitudeDegrees>42.351685725152492523193359375</LatitudeDegrees>
              <LongitudeDegrees>2.61398711241781711578369140625</LongitudeDegrees>
            </Position>
            <AltitudeMeters>831.5999755859375</AltitudeMeters>
            <DistanceMeters>NAN</DistanceMeters>
          </Trackpoint>
          <Trackpoint>
            <Time>2021-04-02T08:36:46.000Z</Time>
            <Position>
              <LatitudeDegrees>42.35167172737419605255126953125</LatitudeDegrees>
              <LongitudeDegrees>2.61397805996239185333251953125</LongitudeDegrees>
            </Position>
            <AltitudeMeters>831.5999755859375</AltitudeMeters>
            <DistanceMeters>NAN</DistanceMeters>
          </Trackpoint>
          <Trackpoint>
            <Time>2021-04-02T08:36:50.000Z</Time>
            <Position>
              <LatitudeDegrees>42.35166393220424652099609375</LatitudeDegrees>
              <LongitudeDegrees>2.61397956870496273040771484375</LongitudeDegrees>
            </Position>
            <AltitudeMeters>831.5999755859375</AltitudeMeters>
            <DistanceMeters>NAN</DistanceMeters>
          </Trackpoint>
          <Trackpoint>
            <Time>2021-04-02T08:36:52.000Z</Time>
            <Position>
              <LatitudeDegrees>42.351654879748821258544921875</LatitudeDegrees>
              <LongitudeDegrees>2.61398225091397762298583984375</LongitudeDegrees>
            </Position>
            <AltitudeMeters>831.5999755859375</AltitudeMeters>
            <DistanceMeters>NAN</DistanceMeters>
          </Trackpoint>
          <Trackpoint>
            <Time>2021-04-02T08:36:54.000Z</Time>
            <Position>
              <LatitudeDegrees>42.35164624638855457305908203125</LatitudeDegrees>
              <LongitudeDegrees>2.61397470720112323760986328125</LongitudeDegrees>
            </Position>
            <AltitudeMeters>831.20001220703125</AltitudeMeters>
            <DistanceMeters>NAN</DistanceMeters>
          </Trackpoint>
          <Trackpoint>
            <Time>2021-04-02T08:36:58.000Z</Time>
            <Position>
              <LatitudeDegrees>42.3516174964606761932373046875</LatitudeDegrees>
              <LongitudeDegrees>2.6139348931610584259033203125</LongitudeDegrees>
            </Position>
            <AltitudeMeters>831</AltitudeMeters>
            <DistanceMeters>NAN</DistanceMeters>
          </Trackpoint>
          <Trackpoint>
            <Time>2021-04-02T08:37:03.000Z</Time>
            <Position>
              <LatitudeDegrees>42.35157466493546962738037109375</LatitudeDegrees>
              <LongitudeDegrees>2.6138386689126491546630859375</LongitudeDegrees>
            </Position>
            <AltitudeMeters>831</AltitudeMeters>
            <DistanceMeters>NAN</DistanceMeters>
          </Trackpoint>
          <Trackpoint>
            <Time>2021-04-02T08:37:07.000Z</Time>
            <Position>
              <LatitudeDegrees>42.35154365189373493194580078125</LatitudeDegrees>
              <LongitudeDegrees>2.61378586292266845703125</LongitudeDegrees>
            </Position>
            <AltitudeMeters>831</AltitudeMeters>
            <DistanceMeters>NAN</DistanceMeters>
          </Trackpoint>
          <Trackpoint>
            <Time>2021-04-02T08:37:08.000Z</Time>
            <Position>
              <LatitudeDegrees>42.35153912566602230072021484375</LatitudeDegrees>
              <LongitudeDegrees>2.6137692667543888092041015625</LongitudeDegrees>
            </Position>
            <AltitudeMeters>831</AltitudeMeters>
            <DistanceMeters>NAN</DistanceMeters>
          </Trackpoint>
          <Trackpoint>
            <Time>2021-04-02T08:37:11.000Z</Time>
            <Position>
              <LatitudeDegrees>42.35154189169406890869140625</LatitudeDegrees>
              <LongitudeDegrees>2.61374252848327159881591796875</LongitudeDegrees>
            </Position>
            <AltitudeMeters>830.79998779296875</AltitudeMeters>
            <DistanceMeters>NAN</DistanceMeters>
          </Trackpoint>
          <Trackpoint>
            <Time>2021-04-02T08:37:16.000Z</Time>
            <Position>
              <LatitudeDegrees>42.35153711400926113128662109375</LatitudeDegrees>
              <LongitudeDegrees>2.613649070262908935546875</LongitudeDegrees>
            </Position>
            <AltitudeMeters>830.79998779296875</AltitudeMeters>
            <DistanceMeters>NAN</DistanceMeters>
          </Trackpoint>
          <Trackpoint>
            <Time>2021-04-02T08:37:19.000Z</Time>
            <Position>
              <LatitudeDegrees>42.35154633410274982452392578125</LatitudeDegrees>
              <LongitudeDegrees>2.6136022992432117462158203125</LongitudeDegrees>
            </Position>
            <AltitudeMeters>830.79998779296875</AltitudeMeters>
            <DistanceMeters>NAN</DistanceMeters>
          </Trackpoint>
          <Trackpoint>
            <Time>2021-04-02T08:37:23.000Z</Time>
            <Position>
              <LatitudeDegrees>42.351557314395904541015625</LatitudeDegrees>
              <LongitudeDegrees>2.6135322265326976776123046875</LongitudeDegrees>
            </Position>
            <AltitudeMeters>830.79998779296875</AltitudeMeters>
            <DistanceMeters>NAN</DistanceMeters>
          </Trackpoint>
          <Trackpoint>
            <Time>2021-04-02T08:37:28.000Z</Time>
            <Position>
              <LatitudeDegrees>42.35157365910708904266357421875</LatitudeDegrees>
              <LongitudeDegrees>2.61345251463353633880615234375</LongitudeDegrees>
            </Position>
            <AltitudeMeters>830.79998779296875</AltitudeMeters>
            <DistanceMeters>NAN</DistanceMeters>
          </Trackpoint>
          <Trackpoint>
            <Time>2021-04-02T08:37:31.000Z</Time>
            <Position>
              <LatitudeDegrees>42.351581789553165435791015625</LatitudeDegrees>
              <LongitudeDegrees>2.61341244913637638092041015625</LongitudeDegrees>
            </Position>
            <AltitudeMeters>830.79998779296875</AltitudeMeters>
            <DistanceMeters>NAN</DistanceMeters>
          </Trackpoint>
          <Trackpoint>
            <Time>2021-04-02T08:37:34.000Z</Time>
            <Position>
              <LatitudeDegrees>42.35159561969339847564697265625</LatitudeDegrees>
              <LongitudeDegrees>2.613367773592472076416015625</LongitudeDegrees>
            </Position>
            <AltitudeMeters>830.20001220703125</AltitudeMeters>
            <DistanceMeters>NAN</DistanceMeters>
          </Trackpoint>
          <Trackpoint>
            <Time>2021-04-02T08:37:43.000Z</Time>
            <Position>
              <LatitudeDegrees>42.35164959914982318878173828125</LatitudeDegrees>
              <LongitudeDegrees>2.6132402010262012481689453125</LongitudeDegrees>
            </Position>
            <AltitudeMeters>830.20001220703125</AltitudeMeters>
            <DistanceMeters>NAN</DistanceMeters>
          </Trackpoint>
          <Trackpoint>
            <Time>2021-04-02T08:37:45.000Z</Time>
            <Position>
              <LatitudeDegrees>42.35166535712778568267822265625</LatitudeDegrees>
              <LongitudeDegrees>2.61321363039314746856689453125</LongitudeDegrees>
            </Position>
            <AltitudeMeters>830</AltitudeMeters>
            <DistanceMeters>NAN</DistanceMeters>
          </Trackpoint>
          <Trackpoint>
            <Time>2021-04-02T08:37:47.000Z</Time>
            <Position>
              <LatitudeDegrees>42.3516825400292873382568359375</LatitudeDegrees>
              <LongitudeDegrees>2.613190077245235443115234375</LongitudeDegrees>
            </Position>
            <AltitudeMeters>829.79998779296875</AltitudeMeters>
            <DistanceMeters>NAN</DistanceMeters>
          </Trackpoint>
          <Trackpoint>
            <Time>2021-04-02T08:37:52.000Z</Time>
            <Position>
              <LatitudeDegrees>42.3517224378883838653564453125</LatitudeDegrees>
              <LongitudeDegrees>2.61312000453472137451171875</LongitudeDegrees>
            </Position>
            <AltitudeMeters>829.5999755859375</AltitudeMeters>
            <DistanceMeters>NAN</DistanceMeters>
          </Trackpoint>
          <Trackpoint>
            <Time>2021-04-02T08:37:54.000Z</Time>
            <Position>
              <LatitudeDegrees>42.351729981601238250732421875</LatitudeDegrees>
              <LongitudeDegrees>2.613096199929714202880859375</LongitudeDegrees>
            </Position>
            <AltitudeMeters>829.4000244140625</AltitudeMeters>
            <DistanceMeters>NAN</DistanceMeters>
          </Trackpoint>
          <Trackpoint>
            <Time>2021-04-02T08:37:57.000Z</Time>
            <Position>
              <LatitudeDegrees>42.35175110399723052978515625</LatitudeDegrees>
              <LongitudeDegrees>2.61305940337479114532470703125</LongitudeDegrees>
            </Position>
            <AltitudeMeters>828.79998779296875</AltitudeMeters>
            <DistanceMeters>NAN</DistanceMeters>
          </Trackpoint>
          <Trackpoint>
            <Time>2021-04-02T08:38:04.000Z</Time>
            <Position>
              <LatitudeDegrees>42.351781614124774932861328125</LatitudeDegrees>
              <LongitudeDegrees>2.61295144446194171905517578125</LongitudeDegrees>
            </Position>
            <AltitudeMeters>828.4000244140625</AltitudeMeters>
            <DistanceMeters>NAN</DistanceMeters>
          </Trackpoint>
          <Trackpoint>
            <Time>2021-04-02T08:38:11.000Z</Time>
            <Position>
              <LatitudeDegrees>42.351754792034626007080078125</LatitudeDegrees>
              <LongitudeDegrees>2.61285656131803989410400390625</LongitudeDegrees>
            </Position>
            <AltitudeMeters>828.20001220703125</AltitudeMeters>
            <DistanceMeters>NAN</DistanceMeters>
          </Trackpoint>
          <Trackpoint>
            <Time>2021-04-02T08:38:16.000Z</Time>
            <Position>
              <LatitudeDegrees>42.3517164029181003570556640625</LatitudeDegrees>
              <LongitudeDegrees>2.61279269121587276458740234375</LongitudeDegrees>
            </Position>
            <AltitudeMeters>827.79998779296875</AltitudeMeters>
            <DistanceMeters>NAN</DistanceMeters>
          </Trackpoint>
          <Trackpoint>
            <Time>2021-04-02T08:38:21.000Z</Time>
            <Position>
              <LatitudeDegrees>42.3516801930963993072509765625</LatitudeDegrees>
              <LongitudeDegrees>2.6127322576940059661865234375</LongitudeDegrees>
            </Position>
            <AltitudeMeters>827.5999755859375</AltitudeMeters>
            <DistanceMeters>NAN</DistanceMeters>
          </Trackpoint>
          <Trackpoint>
            <Time>2021-04-02T08:38:22.000Z</Time>
            <Position>
              <LatitudeDegrees>42.35167239792644977569580078125</LatitudeDegrees>
              <LongitudeDegrees>2.6127191819250583648681640625</LongitudeDegrees>
            </Position>
            <AltitudeMeters>827.5999755859375</AltitudeMeters>
            <DistanceMeters>NAN</DistanceMeters>
          </Trackpoint>
          <Trackpoint>
            <Time>2021-04-02T08:38:32.000Z</Time>
            <Position>
              <LatitudeDegrees>42.351628057658672332763671875</LatitudeDegrees>
              <LongitudeDegrees>2.6125681400299072265625</LongitudeDegrees>
            </Position>
            <AltitudeMeters>827.20001220703125</AltitudeMeters>
            <DistanceMeters>NAN</DistanceMeters>
          </Trackpoint>
          <Trackpoint>
            <Time>2021-04-02T08:38:38.000Z</Time>
            <Position>
              <LatitudeDegrees>42.3516265489161014556884765625</LatitudeDegrees>
              <LongitudeDegrees>2.61246428824961185455322265625</LongitudeDegrees>
            </Position>
            <AltitudeMeters>826.79998779296875</AltitudeMeters>
            <DistanceMeters>NAN</DistanceMeters>
          </Trackpoint>
          <Trackpoint>
            <Time>2021-04-02T08:38:42.000Z</Time>
            <Position>
              <LatitudeDegrees>42.35163015313446521759033203125</LatitudeDegrees>
              <LongitudeDegrees>2.61239622719585895538330078125</LongitudeDegrees>
            </Position>
            <AltitudeMeters>826.5999755859375</AltitudeMeters>
            <DistanceMeters>NAN</DistanceMeters>
          </Trackpoint>
          <Trackpoint>
            <Time>2021-04-02T08:38:52.000Z</Time>
            <Position>
              <LatitudeDegrees>42.35159344039857387542724609375</LatitudeDegrees>
              <LongitudeDegrees>2.61223294772207736968994140625</LongitudeDegrees>
            </Position>
            <AltitudeMeters>826.5999755859375</AltitudeMeters>
            <DistanceMeters>NAN</DistanceMeters>
          </Trackpoint>
          <Trackpoint>
            <Time>2021-04-02T08:38:59.000Z</Time>
            <Position>
              <LatitudeDegrees>42.351562343537807464599609375</LatitudeDegrees>
              <LongitudeDegrees>2.612136304378509521484375</LongitudeDegrees>
            </Position>
            <AltitudeMeters>826</AltitudeMeters>
            <DistanceMeters>NAN</DistanceMeters>
          </Trackpoint>
          <Trackpoint>
            <Time>2021-04-02T08:39:00.000Z</Time>
            <Position>
              <LatitudeDegrees>42.35155974514782428741455078125</LatitudeDegrees>
              <LongitudeDegrees>2.6121247373521327972412109375</LongitudeDegrees>
            </Position>
            <AltitudeMeters>826</AltitudeMeters>
            <DistanceMeters>NAN</DistanceMeters>
          </Trackpoint>
          <Trackpoint>
            <Time>2021-04-02T08:39:04.000Z</Time>
            <Position>
              <LatitudeDegrees>42.35153786838054656982421875</LatitudeDegrees>
              <LongitudeDegrees>2.61208592914044857025146484375</LongitudeDegrees>
            </Position>
            <AltitudeMeters>825.79998779296875</AltitudeMeters>
            <DistanceMeters>NAN</DistanceMeters>
          </Trackpoint>
          <Trackpoint>
            <Time>2021-04-02T08:39:05.000Z</Time>
            <Position>
              <LatitudeDegrees>42.35152982175350189208984375</LatitudeDegrees>
              <LongitudeDegrees>2.61207805015146732330322265625</LongitudeDegrees>
            </Position>
            <AltitudeMeters>825.79998779296875</AltitudeMeters>
            <DistanceMeters>NAN</DistanceMeters>
          </Trackpoint>
          <Trackpoint>
            <Time>2021-04-02T08:39:12.000Z</Time>
            <Position>
              <LatitudeDegrees>42.3514532111585140228271484375</LatitudeDegrees>
              <LongitudeDegrees>2.612007558345794677734375</LongitudeDegrees>
            </Position>
            <AltitudeMeters>825.4000244140625</AltitudeMeters>
            <DistanceMeters>NAN</DistanceMeters>
          </Trackpoint>
          <Trackpoint>
            <Time>2021-04-02T08:39:17.000Z</Time>
            <Position>
              <LatitudeDegrees>42.3514015786349773406982421875</LatitudeDegrees>
              <LongitudeDegrees>2.6119684986770153045654296875</LongitudeDegrees>
            </Position>
            <AltitudeMeters>824.4000244140625</AltitudeMeters>
            <DistanceMeters>NAN</DistanceMeters>
          </Trackpoint>
          <Trackpoint>
            <Time>2021-04-02T08:39:19.000Z</Time>
            <Position>
              <LatitudeDegrees>42.35137970186769962310791015625</LatitudeDegrees>
              <LongitudeDegrees>2.61195366270840167999267578125</LongitudeDegrees>
            </Position>
            <AltitudeMeters>824</AltitudeMeters>
            <DistanceMeters>NAN</DistanceMeters>
          </Trackpoint>
          <Trackpoint>
            <Time>2021-04-02T08:39:23.000Z</Time>
            <Position>
              <LatitudeDegrees>42.35132957808673381805419921875</LatitudeDegrees>
              <LongitudeDegrees>2.61193689890205860137939453125</LongitudeDegrees>
            </Position>
            <AltitudeMeters>823.5999755859375</AltitudeMeters>
            <DistanceMeters>NAN</DistanceMeters>
          </Trackpoint>
          <Trackpoint>
            <Time>2021-04-02T08:39:25.000Z</Time>
            <Position>
              <LatitudeDegrees>42.3513056896626949310302734375</LatitudeDegrees>
              <LongitudeDegrees>2.61192415840923786163330078125</LongitudeDegrees>
            </Position>
            <AltitudeMeters>823.4000244140625</AltitudeMeters>
            <DistanceMeters>NAN</DistanceMeters>
          </Trackpoint>
          <Trackpoint>
            <Time>2021-04-02T08:39:28.000Z</Time>
            <Position>
              <LatitudeDegrees>42.3512751795351505279541015625</LatitudeDegrees>
              <LongitudeDegrees>2.611916363239288330078125</LongitudeDegrees>
            </Position>
            <AltitudeMeters>823.20001220703125</AltitudeMeters>
            <DistanceMeters>NAN</DistanceMeters>
          </Trackpoint>
          <Trackpoint>
            <Time>2021-04-02T08:39:31.000Z</Time>
            <Position>
              <LatitudeDegrees>42.351240478456020355224609375</LatitudeDegrees>
              <LongitudeDegrees>2.61189063079655170440673828125</LongitudeDegrees>
            </Position>
            <AltitudeMeters>822.5999755859375</AltitudeMeters>
            <DistanceMeters>NAN</DistanceMeters>
          </Trackpoint>
          <Trackpoint>
            <Time>2021-04-02T08:39:37.000Z</Time>
            <Position>
              <LatitudeDegrees>42.35116747207939624786376953125</LatitudeDegrees>
              <LongitudeDegrees>2.611873447895050048828125</LongitudeDegrees>
            </Position>
            <AltitudeMeters>822.4000244140625</AltitudeMeters>
            <DistanceMeters>NAN</DistanceMeters>
          </Trackpoint>
          <Trackpoint>
            <Time>2021-04-02T08:39:42.000Z</Time>
            <Position>
              <LatitudeDegrees>42.3511082120239734649658203125</LatitudeDegrees>
              <LongitudeDegrees>2.61187613010406494140625</LongitudeDegrees>
            </Position>
            <AltitudeMeters>821.79998779296875</AltitudeMeters>
            <DistanceMeters>NAN</DistanceMeters>
          </Trackpoint>
          <Trackpoint>
            <Time>2021-04-02T08:39:45.000Z</Time>
            <Position>
              <LatitudeDegrees>42.35106470994651317596435546875</LatitudeDegrees>
              <LongitudeDegrees>2.61187755502760410308837890625</LongitudeDegrees>
            </Position>
            <AltitudeMeters>821.79998779296875</AltitudeMeters>
            <DistanceMeters>NAN</DistanceMeters>
          </Trackpoint>
          <Trackpoint>
            <Time>2021-04-02T08:39:52.000Z</Time>
            <Position>
              <LatitudeDegrees>42.35097954981029033660888671875</LatitudeDegrees>
              <LongitudeDegrees>2.61183463968336582183837890625</LongitudeDegrees>
            </Position>
            <AltitudeMeters>821.4000244140625</AltitudeMeters>
            <DistanceMeters>NAN</DistanceMeters>
          </Trackpoint>
          <Trackpoint>
            <Time>2021-04-02T08:39:53.000Z</Time>
            <Position>
              <LatitudeDegrees>42.35096991062164306640625</LatitudeDegrees>
              <LongitudeDegrees>2.61182860471308231353759765625</LongitudeDegrees>
            </Position>
            <AltitudeMeters>821.4000244140625</AltitudeMeters>
            <DistanceMeters>NAN</DistanceMeters>
          </Trackpoint>
          <Trackpoint>
            <Time>2021-04-02T08:40:01.000Z</Time>
            <Position>
              <LatitudeDegrees>42.35090159811079502105712890625</LatitudeDegrees>
              <LongitudeDegrees>2.61173640377819538116455078125</LongitudeDegrees>
            </Position>
            <AltitudeMeters>820.79998779296875</AltitudeMeters>
            <DistanceMeters>NAN</DistanceMeters>
          </Trackpoint>
          <Trackpoint>
            <Time>2021-04-02T08:40:02.000Z</Time>
            <Position>
              <LatitudeDegrees>42.3508916236460208892822265625</LatitudeDegrees>
              <LongitudeDegrees>2.61172064580023288726806640625</LongitudeDegrees>
            </Position>
            <AltitudeMeters>820.79998779296875</AltitudeMeters>
            <DistanceMeters>NAN</DistanceMeters>
          </Trackpoint>
          <Trackpoint>
            <Time>2021-04-02T08:40:04.000Z</Time>
            <Position>
              <LatitudeDegrees>42.350873015820980072021484375</LatitudeDegrees>
              <LongitudeDegrees>2.61169399134814739227294921875</LongitudeDegrees>
            </Position>
            <AltitudeMeters>820.79998779296875</AltitudeMeters>
            <DistanceMeters>NAN</DistanceMeters>
          </Trackpoint>
          <Trackpoint>
            <Time>2021-04-02T08:40:09.000Z</Time>
            <Position>
              <LatitudeDegrees>42.3508396558463573455810546875</LatitudeDegrees>
              <LongitudeDegrees>2.61162006296217441558837890625</LongitudeDegrees>
            </Position>
            <AltitudeMeters>820.20001220703125</AltitudeMeters>
            <DistanceMeters>NAN</DistanceMeters>
          </Trackpoint>
          <Trackpoint>
            <Time>2021-04-02T08:40:11.000Z</Time>
            <Position>
              <LatitudeDegrees>42.35083110630512237548828125</LatitudeDegrees>
              <LongitudeDegrees>2.61160514317452907562255859375</LongitudeDegrees>
            </Position>
            <AltitudeMeters>820</AltitudeMeters>
            <DistanceMeters>NAN</DistanceMeters>
          </Trackpoint>
          <Trackpoint>
            <Time>2021-04-02T08:40:14.000Z</Time>
            <Position>
              <LatitudeDegrees>42.35080101527273654937744140625</LatitudeDegrees>
              <LongitudeDegrees>2.6115448772907257080078125</LongitudeDegrees>
            </Position>
            <AltitudeMeters>820</AltitudeMeters>
            <DistanceMeters>NAN</DistanceMeters>
          </Trackpoint>
          <Trackpoint>
            <Time>2021-04-02T08:40:15.000Z</Time>
            <Position>
              <LatitudeDegrees>42.35079615376889705657958984375</LatitudeDegrees>
              <LongitudeDegrees>2.611530125141143798828125</LongitudeDegrees>
            </Position>
            <AltitudeMeters>819.79998779296875</AltitudeMeters>
            <DistanceMeters>NAN</DistanceMeters>
          </Trackpoint>
          <Trackpoint>
            <Time>2021-04-02T08:40:17.000Z</Time>
            <Position>
              <LatitudeDegrees>42.35078374855220317840576171875</LatitudeDegrees>
              <LongitudeDegrees>2.611499615013599395751953125</LongitudeDegrees>
            </Position>
            <AltitudeMeters>819.79998779296875</AltitudeMeters>
            <DistanceMeters>NAN</DistanceMeters>
          </Trackpoint>
          <Trackpoint>
            <Time>2021-04-02T08:40:24.000Z</Time>
            <Position>
              <LatitudeDegrees>42.35074284486472606658935546875</LatitudeDegrees>
              <LongitudeDegrees>2.6113981939852237701416015625</LongitudeDegrees>
            </Position>
            <AltitudeMeters>819.5999755859375</AltitudeMeters>
            <DistanceMeters>NAN</DistanceMeters>
          </Trackpoint>
          <Trackpoint>
            <Time>2021-04-02T08:40:26.000Z</Time>
            <Position>
              <LatitudeDegrees>42.350738234817981719970703125</LatitudeDegrees>
              <LongitudeDegrees>2.61137212626636028289794921875</LongitudeDegrees>
            </Position>
            <AltitudeMeters>819.4000244140625</AltitudeMeters>
            <DistanceMeters>NAN</DistanceMeters>
          </Trackpoint>
          <Trackpoint>
            <Time>2021-04-02T08:40:27.000Z</Time>
            <Position>
              <LatitudeDegrees>42.350734211504459381103515625</LatitudeDegrees>
              <LongitudeDegrees>2.61135905049741268157958984375</LongitudeDegrees>
            </Position>
            <AltitudeMeters>819.4000244140625</AltitudeMeters>
            <DistanceMeters>NAN</DistanceMeters>
          </Trackpoint>
          <Trackpoint>
            <Time>2021-04-02T08:40:29.000Z</Time>
            <Position>
              <LatitudeDegrees>42.3507296852767467498779296875</LatitudeDegrees>
              <LongitudeDegrees>2.6113344915211200714111328125</LongitudeDegrees>
            </Position>
            <AltitudeMeters>819.20001220703125</AltitudeMeters>
            <DistanceMeters>NAN</DistanceMeters>
          </Trackpoint>
          <Trackpoint>
            <Time>2021-04-02T08:40:30.000Z</Time>
            <Position>
              <LatitudeDegrees>42.35072960145771503448486328125</LatitudeDegrees>
              <LongitudeDegrees>2.61132367886602878570556640625</LongitudeDegrees>
            </Position>
            <AltitudeMeters>819.20001220703125</AltitudeMeters>
            <DistanceMeters>NAN</DistanceMeters>
          </Trackpoint>
          <Trackpoint>
            <Time>2021-04-02T08:40:32.000Z</Time>
            <Position>
              <LatitudeDegrees>42.350728176534175872802734375</LatitudeDegrees>
              <LongitudeDegrees>2.6113012991845607757568359375</LongitudeDegrees>
            </Position>
            <AltitudeMeters>819</AltitudeMeters>
            <DistanceMeters>NAN</DistanceMeters>
          </Trackpoint>
          <Trackpoint>
            <Time>2021-04-02T08:40:35.000Z</Time>
            <Position>
              <LatitudeDegrees>42.3507253266870975494384765625</LatitudeDegrees>
              <LongitudeDegrees>2.61126802302896976470947265625</LongitudeDegrees>
            </Position>
            <AltitudeMeters>819</AltitudeMeters>
            <DistanceMeters>NAN</DistanceMeters>
          </Trackpoint>
          <Trackpoint>
            <Time>2021-04-02T08:40:38.000Z</Time>
            <Position>
              <LatitudeDegrees>42.350724153220653533935546875</LatitudeDegrees>
              <LongitudeDegrees>2.6112372614443302154541015625</LongitudeDegrees>
            </Position>
            <AltitudeMeters>818.79998779296875</AltitudeMeters>
            <DistanceMeters>NAN</DistanceMeters>
          </Trackpoint>
          <Trackpoint>
            <Time>2021-04-02T08:40:44.000Z</Time>
            <Position>
              <LatitudeDegrees>42.35071820206940174102783203125</LatitudeDegrees>
              <LongitudeDegrees>2.61117699556052684783935546875</LongitudeDegrees>
            </Position>
            <AltitudeMeters>818.79998779296875</AltitudeMeters>
            <DistanceMeters>NAN</DistanceMeters>
          </Trackpoint>
          <Trackpoint>
            <Time>2021-04-02T08:40:45.000Z</Time>
            <Position>
              <LatitudeDegrees>42.3507166095077991485595703125</LatitudeDegrees>
              <LongitudeDegrees>2.6111733913421630859375</LongitudeDegrees>
            </Position>
            <AltitudeMeters>818.79998779296875</AltitudeMeters>
            <DistanceMeters>NAN</DistanceMeters>
          </Trackpoint>
          <Trackpoint>
            <Time>2021-04-02T08:40:48.000Z</Time>
            <Position>
              <LatitudeDegrees>42.35071937553584575653076171875</LatitudeDegrees>
              <LongitudeDegrees>2.61117347516119480133056640625</LongitudeDegrees>
            </Position>
            <AltitudeMeters>819</AltitudeMeters>
            <DistanceMeters>NAN</DistanceMeters>
          </Trackpoint>
          <Trackpoint>
            <Time>2021-04-02T08:40:52.000Z</Time>
            <Position>
              <LatitudeDegrees>42.35072373412549495697021484375</LatitudeDegrees>
              <LongitudeDegrees>2.61117129586637020111083984375</LongitudeDegrees>
            </Position>
            <AltitudeMeters>819</AltitudeMeters>
            <DistanceMeters>NAN</DistanceMeters>
          </Trackpoint>
          <Trackpoint>
            <Time>2021-04-02T08:40:53.000Z</Time>
            <Position>
              <LatitudeDegrees>42.35072457231581211090087890625</LatitudeDegrees>
              <LongitudeDegrees>2.6111685298383235931396484375</LongitudeDegrees>
            </Position>
            <AltitudeMeters>818.79998779296875</AltitudeMeters>
            <DistanceMeters>NAN</DistanceMeters>
          </Trackpoint>
          <Trackpoint>
            <Time>2021-04-02T08:40:59.000Z</Time>
            <Position>
              <LatitudeDegrees>42.3507273383438587188720703125</LatitudeDegrees>
              <LongitudeDegrees>2.6111693680286407470703125</LongitudeDegrees>
            </Position>
            <AltitudeMeters>818.5999755859375</AltitudeMeters>
            <DistanceMeters>NAN</DistanceMeters>
          </Trackpoint>
          <Trackpoint>
            <Time>2021-04-02T08:41:07.000Z</Time>
            <Position>
              <LatitudeDegrees>42.35072423703968524932861328125</LatitudeDegrees>
              <LongitudeDegrees>2.6111712120473384857177734375</LongitudeDegrees>
            </Position>
            <AltitudeMeters>818.20001220703125</AltitudeMeters>
            <DistanceMeters>NAN</DistanceMeters>
          </Trackpoint>
          <Trackpoint>
            <Time>2021-04-02T08:41:10.000Z</Time>
            <Position>
              <LatitudeDegrees>42.35072423703968524932861328125</LatitudeDegrees>
              <LongitudeDegrees>2.6111720502376556396484375</LongitudeDegrees>
            </Position>
            <AltitudeMeters>818</AltitudeMeters>
            <DistanceMeters>NAN</DistanceMeters>
          </Trackpoint>
          <Trackpoint>
            <Time>2021-04-02T08:41:15.000Z</Time>
            <Position>
              <LatitudeDegrees>42.35072423703968524932861328125</LatitudeDegrees>
              <LongitudeDegrees>2.611182443797588348388671875</LongitudeDegrees>
            </Position>
            <AltitudeMeters>817.79998779296875</AltitudeMeters>
            <DistanceMeters>NAN</DistanceMeters>
          </Trackpoint>
          <Trackpoint>
            <Time>2021-04-02T08:41:18.000Z</Time>
            <Position>
              <LatitudeDegrees>42.35072457231581211090087890625</LatitudeDegrees>
              <LongitudeDegrees>2.611185796558856964111328125</LongitudeDegrees>
            </Position>
            <AltitudeMeters>817.5999755859375</AltitudeMeters>
            <DistanceMeters>NAN</DistanceMeters>
          </Trackpoint>
          <Trackpoint>
            <Time>2021-04-02T08:41:27.000Z</Time>
            <Position>
              <LatitudeDegrees>42.35078148543834686279296875</LatitudeDegrees>
              <LongitudeDegrees>2.61113039217889308929443359375</LongitudeDegrees>
            </Position>
            <AltitudeMeters>817.20001220703125</AltitudeMeters>
            <DistanceMeters>NAN</DistanceMeters>
          </Trackpoint>
          <Trackpoint>
            <Time>2021-04-02T08:41:28.000Z</Time>
            <Position>
              <LatitudeDegrees>42.35079531557857990264892578125</LatitudeDegrees>
              <LongitudeDegrees>2.6111168973147869110107421875</LongitudeDegrees>
            </Position>
            <AltitudeMeters>817</AltitudeMeters>
            <DistanceMeters>NAN</DistanceMeters>
          </Trackpoint>
          <Trackpoint>
            <Time>2021-04-02T08:41:37.000Z</Time>
            <Position>
              <LatitudeDegrees>42.3508936353027820587158203125</LatitudeDegrees>
              <LongitudeDegrees>2.6110042445361614227294921875</LongitudeDegrees>
            </Position>
            <AltitudeMeters>816.20001220703125</AltitudeMeters>
            <DistanceMeters>NAN</DistanceMeters>
          </Trackpoint>
          <Trackpoint>
            <Time>2021-04-02T08:41:38.000Z</Time>
            <Position>
              <LatitudeDegrees>42.350897826254367828369140625</LatitudeDegrees>
              <LongitudeDegrees>2.61099343188107013702392578125</LongitudeDegrees>
            </Position>
            <AltitudeMeters>816</AltitudeMeters>
            <DistanceMeters>NAN</DistanceMeters>
          </Trackpoint>
          <Trackpoint>
            <Time>2021-04-02T08:41:41.000Z</Time>
            <Position>
              <LatitudeDegrees>42.35092154704034328460693359375</LatitudeDegrees>
              <LongitudeDegrees>2.6109583117067813873291015625</LongitudeDegrees>
            </Position>
            <AltitudeMeters>815.79998779296875</AltitudeMeters>
            <DistanceMeters>NAN</DistanceMeters>
          </Trackpoint>
          <Trackpoint>
            <Time>2021-04-02T08:41:50.000Z</Time>
            <Position>
              <LatitudeDegrees>42.3509918712079524993896484375</LatitudeDegrees>
              <LongitudeDegrees>2.61084423400461673736572265625</LongitudeDegrees>
            </Position>
            <AltitudeMeters>815</AltitudeMeters>
            <DistanceMeters>NAN</DistanceMeters>
          </Trackpoint>
          <Trackpoint>
            <Time>2021-04-02T08:41:59.000Z</Time>
            <Position>
              <LatitudeDegrees>42.35106118954718112945556640625</LatitudeDegrees>
              <LongitudeDegrees>2.61074180714786052703857421875</LongitudeDegrees>
            </Position>
            <AltitudeMeters>814.20001220703125</AltitudeMeters>
            <DistanceMeters>NAN</DistanceMeters>
          </Trackpoint>
          <Trackpoint>
            <Time>2021-04-02T08:42:01.000Z</Time>
            <Position>
              <LatitudeDegrees>42.35107694752514362335205078125</LatitudeDegrees>
              <LongitudeDegrees>2.61072085238993167877197265625</LongitudeDegrees>
            </Position>
            <AltitudeMeters>814</AltitudeMeters>
            <DistanceMeters>NAN</DistanceMeters>
          </Trackpoint>
          <Trackpoint>
            <Time>2021-04-02T08:42:07.000Z</Time>
            <Position>
              <LatitudeDegrees>42.35112908296287059783935546875</LatitudeDegrees>
              <LongitudeDegrees>2.61065237224102020263671875</LongitudeDegrees>
            </Position>
            <AltitudeMeters>813.4000244140625</AltitudeMeters>
            <DistanceMeters>NAN</DistanceMeters>
          </Trackpoint>
          <Trackpoint>
            <Time>2021-04-02T08:42:12.000Z</Time>
            <Position>
              <LatitudeDegrees>42.351180799305438995361328125</LatitudeDegrees>
              <LongitudeDegrees>2.61062513105571269989013671875</LongitudeDegrees>
            </Position>
            <AltitudeMeters>813</AltitudeMeters>
            <DistanceMeters>NAN</DistanceMeters>
          </Trackpoint>
          <Trackpoint>
            <Time>2021-04-02T08:42:15.000Z</Time>
            <Position>
              <LatitudeDegrees>42.3512153327465057373046875</LatitudeDegrees>
              <LongitudeDegrees>2.61061456985771656036376953125</LongitudeDegrees>
            </Position>
            <AltitudeMeters>812.79998779296875</AltitudeMeters>
            <DistanceMeters>NAN</DistanceMeters>
          </Trackpoint>
          <Trackpoint>
            <Time>2021-04-02T08:42:17.000Z</Time>
            <Position>
              <LatitudeDegrees>42.351239137351512908935546875</LatitudeDegrees>
              <LongitudeDegrees>2.6106166653335094451904296875</LongitudeDegrees>
            </Position>
            <AltitudeMeters>812.79998779296875</AltitudeMeters>
            <DistanceMeters>NAN</DistanceMeters>
          </Trackpoint>
          <Trackpoint>
            <Time>2021-04-02T08:42:18.000Z</Time>
            <Position>
              <LatitudeDegrees>42.35124894417822360992431640625</LatitudeDegrees>
              <LongitudeDegrees>2.610617168247699737548828125</LongitudeDegrees>
            </Position>
            <AltitudeMeters>812.79998779296875</AltitudeMeters>
            <DistanceMeters>NAN</DistanceMeters>
          </Trackpoint>
          <Trackpoint>
            <Time>2021-04-02T08:42:21.000Z</Time>
            <Position>
              <LatitudeDegrees>42.351289093494415283203125</LatitudeDegrees>
              <LongitudeDegrees>2.61060350574553012847900390625</LongitudeDegrees>
            </Position>
            <AltitudeMeters>812.4000244140625</AltitudeMeters>
            <DistanceMeters>NAN</DistanceMeters>
          </Trackpoint>
          <Trackpoint>
            <Time>2021-04-02T08:42:22.000Z</Time>
            <Position>
              <LatitudeDegrees>42.351301498711109161376953125</LatitudeDegrees>
              <LongitudeDegrees>2.6106012426316738128662109375</LongitudeDegrees>
            </Position>
            <AltitudeMeters>812.4000244140625</AltitudeMeters>
            <DistanceMeters>NAN</DistanceMeters>
          </Trackpoint>
          <Trackpoint>
            <Time>2021-04-02T08:42:25.000Z</Time>
            <Position>
              <LatitudeDegrees>42.35133728943765163421630859375</LatitudeDegrees>
              <LongitudeDegrees>2.6106009073555469512939453125</LongitudeDegrees>
            </Position>
            <AltitudeMeters>812.20001220703125</AltitudeMeters>
            <DistanceMeters>NAN</DistanceMeters>
          </Trackpoint>
          <Trackpoint>
            <Time>2021-04-02T08:42:26.000Z</Time>
            <Position>
              <LatitudeDegrees>42.35134474933147430419921875</LatitudeDegrees>
              <LongitudeDegrees>2.61059763841331005096435546875</LongitudeDegrees>
            </Position>
            <AltitudeMeters>812.20001220703125</AltitudeMeters>
            <DistanceMeters>NAN</DistanceMeters>
          </Trackpoint>
          <Trackpoint>
            <Time>2021-04-02T08:42:28.000Z</Time>
            <Position>
              <LatitudeDegrees>42.351371906697750091552734375</LatitudeDegrees>
              <LongitudeDegrees>2.6106002368032932281494140625</LongitudeDegrees>
            </Position>
            <AltitudeMeters>811.5999755859375</AltitudeMeters>
            <DistanceMeters>NAN</DistanceMeters>
          </Trackpoint>
          <Trackpoint>
            <Time>2021-04-02T08:42:29.000Z</Time>
            <Position>
              <LatitudeDegrees>42.35138473100960254669189453125</LatitudeDegrees>
              <LongitudeDegrees>2.61060082353651523590087890625</LongitudeDegrees>
            </Position>
            <AltitudeMeters>811.4000244140625</AltitudeMeters>
            <DistanceMeters>NAN</DistanceMeters>
          </Trackpoint>
          <Trackpoint>
            <Time>2021-04-02T08:42:32.000Z</Time>
            <Position>
              <LatitudeDegrees>42.3514176718890666961669921875</LatitudeDegrees>
              <LongitudeDegrees>2.61060141026973724365234375</LongitudeDegrees>
            </Position>
            <AltitudeMeters>811</AltitudeMeters>
            <DistanceMeters>NAN</DistanceMeters>
          </Trackpoint>
          <Trackpoint>
            <Time>2021-04-02T08:42:33.000Z</Time>
            <Position>
              <LatitudeDegrees>42.3514284007251262664794921875</LatitudeDegrees>
              <LongitudeDegrees>2.61059763841331005096435546875</LongitudeDegrees>
            </Position>
            <AltitudeMeters>810.79998779296875</AltitudeMeters>
            <DistanceMeters>NAN</DistanceMeters>
          </Trackpoint>
          <Trackpoint>
            <Time>2021-04-02T08:42:38.000Z</Time>
            <Position>
              <LatitudeDegrees>42.35149017535150051116943359375</LatitudeDegrees>
              <LongitudeDegrees>2.61056654155254364013671875</LongitudeDegrees>
            </Position>
            <AltitudeMeters>810.5999755859375</AltitudeMeters>
            <DistanceMeters>NAN</DistanceMeters>
          </Trackpoint>
          <Trackpoint>
            <Time>2021-04-02T08:42:44.000Z</Time>
            <Position>
              <LatitudeDegrees>42.35153728164732456207275390625</LatitudeDegrees>
              <LongitudeDegrees>2.61050275526940822601318359375</LongitudeDegrees>
            </Position>
            <AltitudeMeters>810.20001220703125</AltitudeMeters>
            <DistanceMeters>NAN</DistanceMeters>
          </Trackpoint>
          <Trackpoint>
            <Time>2021-04-02T08:42:46.000Z</Time>
            <Position>
              <LatitudeDegrees>42.35154432244598865509033203125</LatitudeDegrees>
              <LongitudeDegrees>2.61047727428376674652099609375</LongitudeDegrees>
            </Position>
            <AltitudeMeters>810</AltitudeMeters>
            <DistanceMeters>NAN</DistanceMeters>
          </Trackpoint>
          <Trackpoint>
            <Time>2021-04-02T08:42:51.000Z</Time>
            <Position>
              <LatitudeDegrees>42.35156225971877574920654296875</LatitudeDegrees>
              <LongitudeDegrees>2.610396556556224822998046875</LongitudeDegrees>
            </Position>
            <AltitudeMeters>809.79998779296875</AltitudeMeters>
            <DistanceMeters>NAN</DistanceMeters>
          </Trackpoint>
          <Trackpoint>
            <Time>2021-04-02T08:42:54.000Z</Time>
            <Position>
              <LatitudeDegrees>42.35157768242061138153076171875</LatitudeDegrees>
              <LongitudeDegrees>2.6103464327752590179443359375</LongitudeDegrees>
            </Position>
            <AltitudeMeters>809.5999755859375</AltitudeMeters>
            <DistanceMeters>NAN</DistanceMeters>
          </Trackpoint>
          <Trackpoint>
            <Time>2021-04-02T08:42:56.000Z</Time>
            <Position>
              <LatitudeDegrees>42.35159142874181270599365234375</LatitudeDegrees>
              <LongitudeDegrees>2.6103196106851100921630859375</LongitudeDegrees>
            </Position>
            <AltitudeMeters>809.5999755859375</AltitudeMeters>
            <DistanceMeters>NAN</DistanceMeters>
          </Trackpoint>
          <Trackpoint>
            <Time>2021-04-02T08:43:00.000Z</Time>
            <Position>
              <LatitudeDegrees>42.351617328822612762451171875</LatitudeDegrees>
              <LongitudeDegrees>2.61026420630514621734619140625</LongitudeDegrees>
            </Position>
            <AltitudeMeters>809.20001220703125</AltitudeMeters>
            <DistanceMeters>NAN</DistanceMeters>
          </Trackpoint>
          <Trackpoint>
            <Time>2021-04-02T08:43:02.000Z</Time>
            <Position>
              <LatitudeDegrees>42.35163400880992412567138671875</LatitudeDegrees>
              <LongitudeDegrees>2.61024123989045619964599609375</LongitudeDegrees>
            </Position>
            <AltitudeMeters>808.79998779296875</AltitudeMeters>
            <DistanceMeters>NAN</DistanceMeters>
          </Trackpoint>
          <Trackpoint>
            <Time>2021-04-02T08:43:04.000Z</Time>
            <Position>
              <LatitudeDegrees>42.3516530357301235198974609375</LatitudeDegrees>
              <LongitudeDegrees>2.610219530761241912841796875</LongitudeDegrees>
            </Position>
            <AltitudeMeters>808.5999755859375</AltitudeMeters>
            <DistanceMeters>NAN</DistanceMeters>
          </Trackpoint>
          <Trackpoint>
            <Time>2021-04-02T08:43:06.000Z</Time>
            <Position>
              <LatitudeDegrees>42.35167223028838634490966796875</LatitudeDegrees>
              <LongitudeDegrees>2.61019413359463214874267578125</LongitudeDegrees>
            </Position>
            <AltitudeMeters>808.4000244140625</AltitudeMeters>
            <DistanceMeters>NAN</DistanceMeters>
          </Trackpoint>
          <Trackpoint>
            <Time>2021-04-02T08:43:10.000Z</Time>
            <Position>
              <LatitudeDegrees>42.35171816311776638031005859375</LatitudeDegrees>
              <LongitudeDegrees>2.6101425848901271820068359375</LongitudeDegrees>
            </Position>
            <AltitudeMeters>808.20001220703125</AltitudeMeters>
            <DistanceMeters>NAN</DistanceMeters>
          </Trackpoint>
          <Trackpoint>
            <Time>2021-04-02T08:43:13.000Z</Time>
            <Position>
              <LatitudeDegrees>42.35175646841526031494140625</LatitudeDegrees>
              <LongitudeDegrees>2.61013193987309932708740234375</LongitudeDegrees>
            </Position>
            <AltitudeMeters>807.79998779296875</AltitudeMeters>
            <DistanceMeters>NAN</DistanceMeters>
          </Trackpoint>
          <Trackpoint>
            <Time>2021-04-02T08:43:19.000Z</Time>
            <Position>
              <LatitudeDegrees>42.3518364317715167999267578125</LatitudeDegrees>
              <LongitudeDegrees>2.61012305505573749542236328125</LongitudeDegrees>
            </Position>
            <AltitudeMeters>807.4000244140625</AltitudeMeters>
            <DistanceMeters>NAN</DistanceMeters>
          </Trackpoint>
          <Trackpoint>
            <Time>2021-04-02T08:43:23.000Z</Time>
            <Position>
              <LatitudeDegrees>42.35187540762126445770263671875</LatitudeDegrees>
              <LongitudeDegrees>2.6101261563599109649658203125</LongitudeDegrees>
            </Position>
            <AltitudeMeters>806.79998779296875</AltitudeMeters>
            <DistanceMeters>NAN</DistanceMeters>
          </Trackpoint>
          <Trackpoint>
            <Time>2021-04-02T08:43:25.000Z</Time>
            <Position>
              <LatitudeDegrees>42.351896949112415313720703125</LatitudeDegrees>
              <LongitudeDegrees>2.61012858711183071136474609375</LongitudeDegrees>
            </Position>
            <AltitudeMeters>806.4000244140625</AltitudeMeters>
            <DistanceMeters>NAN</DistanceMeters>
          </Trackpoint>
          <Trackpoint>
            <Time>2021-04-02T08:43:27.000Z</Time>
            <Position>
              <LatitudeDegrees>42.35191932879388332366943359375</LatitudeDegrees>
              <LongitudeDegrees>2.610127665102481842041015625</LongitudeDegrees>
            </Position>
            <AltitudeMeters>806</AltitudeMeters>
            <DistanceMeters>NAN</DistanceMeters>
          </Trackpoint>
          <Trackpoint>
            <Time>2021-04-02T08:43:30.000Z</Time>
            <Position>
              <LatitudeDegrees>42.35195168294012546539306640625</LatitudeDegrees>
              <LongitudeDegrees>2.61010922491550445556640625</LongitudeDegrees>
            </Position>
            <AltitudeMeters>805.4000244140625</AltitudeMeters>
            <DistanceMeters>NAN</DistanceMeters>
          </Trackpoint>
          <Trackpoint>
            <Time>2021-04-02T08:43:33.000Z</Time>
            <Position>
              <LatitudeDegrees>42.3519775830209255218505859375</LatitudeDegrees>
              <LongitudeDegrees>2.6100911200046539306640625</LongitudeDegrees>
            </Position>
            <AltitudeMeters>805.20001220703125</AltitudeMeters>
            <DistanceMeters>NAN</DistanceMeters>
          </Trackpoint>
          <Trackpoint>
            <Time>2021-04-02T08:43:36.000Z</Time>
            <Position>
              <LatitudeDegrees>42.352004908025264739990234375</LatitudeDegrees>
              <LongitudeDegrees>2.6100624538958072662353515625</LongitudeDegrees>
            </Position>
            <AltitudeMeters>804.79998779296875</AltitudeMeters>
            <DistanceMeters>NAN</DistanceMeters>
          </Trackpoint>
          <Trackpoint>
            <Time>2021-04-02T08:43:40.000Z</Time>
            <Position>
              <LatitudeDegrees>42.3520226776599884033203125</LatitudeDegrees>
              <LongitudeDegrees>2.6100269146263599395751953125</LongitudeDegrees>
            </Position>
            <AltitudeMeters>804.4000244140625</AltitudeMeters>
            <DistanceMeters>NAN</DistanceMeters>
          </Trackpoint>
          <Trackpoint>
            <Time>2021-04-02T08:43:41.000Z</Time>
            <Position>
              <LatitudeDegrees>42.35202427022159099578857421875</LatitudeDegrees>
              <LongitudeDegrees>2.610011659562587738037109375</LongitudeDegrees>
            </Position>
            <AltitudeMeters>804.20001220703125</AltitudeMeters>
            <DistanceMeters>NAN</DistanceMeters>
          </Trackpoint>
          <Trackpoint>
            <Time>2021-04-02T08:43:46.000Z</Time>
            <Position>
              <LatitudeDegrees>42.3520248569548130035400390625</LatitudeDegrees>
              <LongitudeDegrees>2.6099169440567493438720703125</LongitudeDegrees>
            </Position>
            <AltitudeMeters>803.4000244140625</AltitudeMeters>
            <DistanceMeters>NAN</DistanceMeters>
          </Trackpoint>
          <Trackpoint>
            <Time>2021-04-02T08:43:47.000Z</Time>
            <Position>
              <LatitudeDegrees>42.3520342446863651275634765625</LatitudeDegrees>
              <LongitudeDegrees>2.60990395210683345794677734375</LongitudeDegrees>
            </Position>
            <AltitudeMeters>803.20001220703125</AltitudeMeters>
            <DistanceMeters>NAN</DistanceMeters>
          </Trackpoint>
          <Trackpoint>
            <Time>2021-04-02T08:43:53.000Z</Time>
            <Position>
              <LatitudeDegrees>42.35206048004329204559326171875</LatitudeDegrees>
              <LongitudeDegrees>2.60979632847011089324951171875</LongitudeDegrees>
            </Position>
            <AltitudeMeters>802.5999755859375</AltitudeMeters>
            <DistanceMeters>NAN</DistanceMeters>
          </Trackpoint>
          <Trackpoint>
            <Time>2021-04-02T08:43:56.000Z</Time>
            <Position>
              <LatitudeDegrees>42.35206651501357555389404296875</LatitudeDegrees>
              <LongitudeDegrees>2.60975257493555545806884765625</LongitudeDegrees>
            </Position>
            <AltitudeMeters>802.5999755859375</AltitudeMeters>
            <DistanceMeters>NAN</DistanceMeters>
          </Trackpoint>
          <Trackpoint>
            <Time>2021-04-02T08:43:59.000Z</Time>
            <Position>
              <LatitudeDegrees>42.35207204706966876983642578125</LatitudeDegrees>
              <LongitudeDegrees>2.6097077317535877227783203125</LongitudeDegrees>
            </Position>
            <AltitudeMeters>802.4000244140625</AltitudeMeters>
            <DistanceMeters>NAN</DistanceMeters>
          </Trackpoint>
          <Trackpoint>
            <Time>2021-04-02T08:44:00.000Z</Time>
            <Position>
              <LatitudeDegrees>42.35207187943160533905029296875</LatitudeDegrees>
              <LongitudeDegrees>2.60969339869916439056396484375</LongitudeDegrees>
            </Position>
            <AltitudeMeters>802.20001220703125</AltitudeMeters>
            <DistanceMeters>NAN</DistanceMeters>
          </Trackpoint>
          <Trackpoint>
            <Time>2021-04-02T08:44:03.000Z</Time>
            <Position>
              <LatitudeDegrees>42.3520694486796855926513671875</LatitudeDegrees>
              <LongitudeDegrees>2.60965727269649505615234375</LongitudeDegrees>
            </Position>
            <AltitudeMeters>801.79998779296875</AltitudeMeters>
            <DistanceMeters>NAN</DistanceMeters>
          </Trackpoint>
          <Trackpoint>
            <Time>2021-04-02T08:44:10.000Z</Time>
            <Position>
              <LatitudeDegrees>42.35208076424896717071533203125</LatitudeDegrees>
              <LongitudeDegrees>2.6095384173095226287841796875</LongitudeDegrees>
            </Position>
            <AltitudeMeters>801</AltitudeMeters>
            <DistanceMeters>NAN</DistanceMeters>
          </Trackpoint>
          <Trackpoint>
            <Time>2021-04-02T08:44:13.000Z</Time>
            <Position>
              <LatitudeDegrees>42.3520885594189167022705078125</LatitudeDegrees>
              <LongitudeDegrees>2.609486617147922515869140625</LongitudeDegrees>
            </Position>
            <AltitudeMeters>801</AltitudeMeters>
            <DistanceMeters>NAN</DistanceMeters>
          </Trackpoint>
          <Trackpoint>
            <Time>2021-04-02T08:44:22.000Z</Time>
            <Position>
              <LatitudeDegrees>42.352107502520084381103515625</LatitudeDegrees>
              <LongitudeDegrees>2.6093607209622859954833984375</LongitudeDegrees>
            </Position>
            <AltitudeMeters>800</AltitudeMeters>
            <DistanceMeters>NAN</DistanceMeters>
          </Trackpoint>
          <Trackpoint>
            <Time>2021-04-02T08:44:24.000Z</Time>
            <Position>
              <LatitudeDegrees>42.3521126993000507354736328125</LatitudeDegrees>
              <LongitudeDegrees>2.60932845063507556915283203125</LongitudeDegrees>
            </Position>
            <AltitudeMeters>800</AltitudeMeters>
            <DistanceMeters>NAN</DistanceMeters>
          </Trackpoint>
          <Trackpoint>
            <Time>2021-04-02T08:44:32.000Z</Time>
            <Position>
              <LatitudeDegrees>42.35209216363728046417236328125</LatitudeDegrees>
              <LongitudeDegrees>2.6092006266117095947265625</LongitudeDegrees>
            </Position>
            <AltitudeMeters>799.20001220703125</AltitudeMeters>
            <DistanceMeters>NAN</DistanceMeters>
          </Trackpoint>
          <Trackpoint>
            <Time>2021-04-02T08:44:33.000Z</Time>
            <Position>
              <LatitudeDegrees>42.35208763740956783294677734375</LatitudeDegrees>
              <LongitudeDegrees>2.609180845320224761962890625</LongitudeDegrees>
            </Position>
            <AltitudeMeters>799</AltitudeMeters>
            <DistanceMeters>NAN</DistanceMeters>
          </Trackpoint>
          <Trackpoint>
            <Time>2021-04-02T08:44:34.000Z</Time>
            <Position>
              <LatitudeDegrees>42.35208503901958465576171875</LatitudeDegrees>
              <LongitudeDegrees>2.60916768573224544525146484375</LongitudeDegrees>
            </Position>
            <AltitudeMeters>799</AltitudeMeters>
            <DistanceMeters>NAN</DistanceMeters>
          </Trackpoint>
          <Trackpoint>
            <Time>2021-04-02T08:44:43.000Z</Time>
            <Position>
              <LatitudeDegrees>42.35204556025564670562744140625</LatitudeDegrees>
              <LongitudeDegrees>2.60904212482273578643798828125</LongitudeDegrees>
            </Position>
            <AltitudeMeters>797.79998779296875</AltitudeMeters>
            <DistanceMeters>NAN</DistanceMeters>
          </Trackpoint>
          <Trackpoint>
            <Time>2021-04-02T08:44:46.000Z</Time>
            <Position>
              <LatitudeDegrees>42.3520342446863651275634765625</LatitudeDegrees>
              <LongitudeDegrees>2.608995102345943450927734375</LongitudeDegrees>
            </Position>
            <AltitudeMeters>797.4000244140625</AltitudeMeters>
            <DistanceMeters>NAN</DistanceMeters>
          </Trackpoint>
          <Trackpoint>
            <Time>2021-04-02T08:44:47.000Z</Time>
            <Position>
              <LatitudeDegrees>42.3520298860967159271240234375</LatitudeDegrees>
              <LongitudeDegrees>2.6089781709015369415283203125</LongitudeDegrees>
            </Position>
            <AltitudeMeters>797.4000244140625</AltitudeMeters>
            <DistanceMeters>NAN</DistanceMeters>
          </Trackpoint>
          <Trackpoint>
            <Time>2021-04-02T08:44:51.000Z</Time>
            <Position>
              <LatitudeDegrees>42.3520023934543132781982421875</LatitudeDegrees>
              <LongitudeDegrees>2.60892243124544620513916015625</LongitudeDegrees>
            </Position>
            <AltitudeMeters>796.79998779296875</AltitudeMeters>
            <DistanceMeters>NAN</DistanceMeters>
          </Trackpoint>
          <Trackpoint>
            <Time>2021-04-02T08:44:53.000Z</Time>
            <Position>
              <LatitudeDegrees>42.35199074260890483856201171875</LatitudeDegrees>
              <LongitudeDegrees>2.60888823308050632476806640625</LongitudeDegrees>
            </Position>
            <AltitudeMeters>796.5999755859375</AltitudeMeters>
            <DistanceMeters>NAN</DistanceMeters>
          </Trackpoint>
          <Trackpoint>
            <Time>2021-04-02T08:45:01.000Z</Time>
            <Position>
              <LatitudeDegrees>42.351948581635951995849609375</LatitudeDegrees>
              <LongitudeDegrees>2.6087538711726665496826171875</LongitudeDegrees>
            </Position>
            <AltitudeMeters>796</AltitudeMeters>
            <DistanceMeters>NAN</DistanceMeters>
          </Trackpoint>
          <Trackpoint>
            <Time>2021-04-02T08:45:03.000Z</Time>
            <Position>
              <LatitudeDegrees>42.3519363440573215484619140625</LatitudeDegrees>
              <LongitudeDegrees>2.60872562415897846221923828125</LongitudeDegrees>
            </Position>
            <AltitudeMeters>795.79998779296875</AltitudeMeters>
            <DistanceMeters>NAN</DistanceMeters>
          </Trackpoint>
          <Trackpoint>
            <Time>2021-04-02T08:45:05.000Z</Time>
            <Position>
              <LatitudeDegrees>42.3519279621541500091552734375</LatitudeDegrees>
              <LongitudeDegrees>2.608699388802051544189453125</LongitudeDegrees>
            </Position>
            <AltitudeMeters>795.5999755859375</AltitudeMeters>
            <DistanceMeters>NAN</DistanceMeters>
          </Trackpoint>
          <Trackpoint>
            <Time>2021-04-02T08:45:07.000Z</Time>
            <Position>
              <LatitudeDegrees>42.3519199155271053314208984375</LatitudeDegrees>
              <LongitudeDegrees>2.6086727343499660491943359375</LongitudeDegrees>
            </Position>
            <AltitudeMeters>795.20001220703125</AltitudeMeters>
            <DistanceMeters>NAN</DistanceMeters>
          </Trackpoint>
          <Trackpoint>
            <Time>2021-04-02T08:45:09.000Z</Time>
            <Position>
              <LatitudeDegrees>42.3519075103104114532470703125</LatitudeDegrees>
              <LongitudeDegrees>2.60864431969821453094482421875</LongitudeDegrees>
            </Position>
            <AltitudeMeters>794.5999755859375</AltitudeMeters>
            <DistanceMeters>NAN</DistanceMeters>
          </Trackpoint>
          <Trackpoint>
            <Time>2021-04-02T08:45:12.000Z</Time>
            <Position>
              <LatitudeDegrees>42.351892925798892974853515625</LatitudeDegrees>
              <LongitudeDegrees>2.60860023088753223419189453125</LongitudeDegrees>
            </Position>
            <AltitudeMeters>793.79998779296875</AltitudeMeters>
            <DistanceMeters>NAN</DistanceMeters>
          </Trackpoint>
          <Trackpoint>
            <Time>2021-04-02T08:45:15.000Z</Time>
            <Position>
              <LatitudeDegrees>42.3518800176680088043212890625</LatitudeDegrees>
              <LongitudeDegrees>2.608554549515247344970703125</LongitudeDegrees>
            </Position>
            <AltitudeMeters>793.4000244140625</AltitudeMeters>
            <DistanceMeters>NAN</DistanceMeters>
          </Trackpoint>
          <Trackpoint>
            <Time>2021-04-02T08:45:20.000Z</Time>
            <Position>
              <LatitudeDegrees>42.3518619127571582794189453125</LatitudeDegrees>
              <LongitudeDegrees>2.60847483761608600616455078125</LongitudeDegrees>
            </Position>
            <AltitudeMeters>792.4000244140625</AltitudeMeters>
            <DistanceMeters>NAN</DistanceMeters>
          </Trackpoint>
          <Trackpoint>
            <Time>2021-04-02T08:45:26.000Z</Time>
            <Position>
              <LatitudeDegrees>42.35183584503829479217529296875</LatitudeDegrees>
              <LongitudeDegrees>2.6083703152835369110107421875</LongitudeDegrees>
            </Position>
            <AltitudeMeters>791.20001220703125</AltitudeMeters>
            <DistanceMeters>NAN</DistanceMeters>
          </Trackpoint>
          <Trackpoint>
            <Time>2021-04-02T08:45:29.000Z</Time>
            <Position>
              <LatitudeDegrees>42.3518176563084125518798828125</LatitudeDegrees>
              <LongitudeDegrees>2.6083243824541568756103515625</LongitudeDegrees>
            </Position>
            <AltitudeMeters>790.79998779296875</AltitudeMeters>
            <DistanceMeters>NAN</DistanceMeters>
          </Trackpoint>
          <Trackpoint>
            <Time>2021-04-02T08:45:35.000Z</Time>
            <Position>
              <LatitudeDegrees>42.3518018983304500579833984375</LatitudeDegrees>
              <LongitudeDegrees>2.608236707746982574462890625</LongitudeDegrees>
            </Position>
            <AltitudeMeters>790.20001220703125</AltitudeMeters>
            <DistanceMeters>NAN</DistanceMeters>
          </Trackpoint>
          <Trackpoint>
            <Time>2021-04-02T08:45:39.000Z</Time>
            <Position>
              <LatitudeDegrees>42.351806424558162689208984375</LatitudeDegrees>
              <LongitudeDegrees>2.60817191563546657562255859375</LongitudeDegrees>
            </Position>
            <AltitudeMeters>789.5999755859375</AltitudeMeters>
            <DistanceMeters>NAN</DistanceMeters>
          </Trackpoint>
          <Trackpoint>
            <Time>2021-04-02T08:45:40.000Z</Time>
            <Position>
              <LatitudeDegrees>42.351807095110416412353515625</LatitudeDegrees>
              <LongitudeDegrees>2.6081540621817111968994140625</LongitudeDegrees>
            </Position>
            <AltitudeMeters>789.4000244140625</AltitudeMeters>
            <DistanceMeters>NAN</DistanceMeters>
          </Trackpoint>
          <Trackpoint>
            <Time>2021-04-02T08:45:46.000Z</Time>
            <Position>
              <LatitudeDegrees>42.351807765662670135498046875</LatitudeDegrees>
              <LongitudeDegrees>2.60805658064782619476318359375</LongitudeDegrees>
            </Position>
            <AltitudeMeters>789</AltitudeMeters>
            <DistanceMeters>NAN</DistanceMeters>
          </Trackpoint>
          <Trackpoint>
            <Time>2021-04-02T08:45:51.000Z</Time>
            <Position>
              <LatitudeDegrees>42.35182176344096660614013671875</LatitudeDegrees>
              <LongitudeDegrees>2.60798600502312183380126953125</LongitudeDegrees>
            </Position>
            <AltitudeMeters>788.5999755859375</AltitudeMeters>
            <DistanceMeters>NAN</DistanceMeters>
          </Trackpoint>
          <Trackpoint>
            <Time>2021-04-02T08:45:58.000Z</Time>
            <Position>
              <LatitudeDegrees>42.351866774260997772216796875</LatitudeDegrees>
              <LongitudeDegrees>2.607882320880889892578125</LongitudeDegrees>
            </Position>
            <AltitudeMeters>788</AltitudeMeters>
            <DistanceMeters>NAN</DistanceMeters>
          </Trackpoint>
          <Trackpoint>
            <Time>2021-04-02T08:46:01.000Z</Time>
            <Position>
              <LatitudeDegrees>42.35188563354313373565673828125</LatitudeDegrees>
              <LongitudeDegrees>2.6078449375927448272705078125</LongitudeDegrees>
            </Position>
            <AltitudeMeters>787.79998779296875</AltitudeMeters>
            <DistanceMeters>NAN</DistanceMeters>
          </Trackpoint>
          <Trackpoint>
            <Time>2021-04-02T08:46:04.000Z</Time>
            <Position>
              <LatitudeDegrees>42.35190524719655513763427734375</LatitudeDegrees>
              <LongitudeDegrees>2.60780864395201206207275390625</LongitudeDegrees>
            </Position>
            <AltitudeMeters>787.5999755859375</AltitudeMeters>
            <DistanceMeters>NAN</DistanceMeters>
          </Trackpoint>
          <Trackpoint>
            <Time>2021-04-02T08:46:13.000Z</Time>
            <Position>
              <LatitudeDegrees>42.3519638366997241973876953125</LatitudeDegrees>
              <LongitudeDegrees>2.60768425650894641876220703125</LongitudeDegrees>
            </Position>
            <AltitudeMeters>787.4000244140625</AltitudeMeters>
            <DistanceMeters>NAN</DistanceMeters>
          </Trackpoint>
          <Trackpoint>
            <Time>2021-04-02T08:46:17.000Z</Time>
            <Position>
              <LatitudeDegrees>42.35199023969471454620361328125</LatitudeDegrees>
              <LongitudeDegrees>2.60763061232864856719970703125</LongitudeDegrees>
            </Position>
            <AltitudeMeters>787</AltitudeMeters>
            <DistanceMeters>NAN</DistanceMeters>
          </Trackpoint>
          <Trackpoint>
            <Time>2021-04-02T08:46:22.000Z</Time>
            <Position>
              <LatitudeDegrees>42.3520255275070667266845703125</LatitudeDegrees>
              <LongitudeDegrees>2.60756942443549633026123046875</LongitudeDegrees>
            </Position>
            <AltitudeMeters>786.79998779296875</AltitudeMeters>
            <DistanceMeters>NAN</DistanceMeters>
          </Trackpoint>
          <Trackpoint>
            <Time>2021-04-02T08:46:24.000Z</Time>
            <Position>
              <LatitudeDegrees>42.35203566960990428924560546875</LatitudeDegrees>
              <LongitudeDegrees>2.607548050582408905029296875</LongitudeDegrees>
            </Position>
            <AltitudeMeters>786.79998779296875</AltitudeMeters>
            <DistanceMeters>NAN</DistanceMeters>
          </Trackpoint>
          <Trackpoint>
            <Time>2021-04-02T08:46:30.000Z</Time>
            <Position>
              <LatitudeDegrees>42.35206785611808300018310546875</LatitudeDegrees>
              <LongitudeDegrees>2.60748359374701976776123046875</LongitudeDegrees>
            </Position>
            <AltitudeMeters>786.4000244140625</AltitudeMeters>
            <DistanceMeters>NAN</DistanceMeters>
          </Trackpoint>
          <Trackpoint>
            <Time>2021-04-02T08:46:31.000Z</Time>
            <Position>
              <LatitudeDegrees>42.3520768247544765472412109375</LatitudeDegrees>
              <LongitudeDegrees>2.60746900923550128936767578125</LongitudeDegrees>
            </Position>
            <AltitudeMeters>786.4000244140625</AltitudeMeters>
            <DistanceMeters>NAN</DistanceMeters>
          </Trackpoint>
          <Trackpoint>
            <Time>2021-04-02T08:46:32.000Z</Time>
            <Position>
              <LatitudeDegrees>42.35208562575280666351318359375</LatitudeDegrees>
              <LongitudeDegrees>2.6074536703526973724365234375</LongitudeDegrees>
            </Position>
            <AltitudeMeters>786.4000244140625</AltitudeMeters>
            <DistanceMeters>NAN</DistanceMeters>
          </Trackpoint>
          <Trackpoint>
            <Time>2021-04-02T08:46:33.000Z</Time>
            <Position>
              <LatitudeDegrees>42.3520950973033905029296875</LatitudeDegrees>
              <LongitudeDegrees>2.60744168423116207122802734375</LongitudeDegrees>
            </Position>
            <AltitudeMeters>786.4000244140625</AltitudeMeters>
            <DistanceMeters>NAN</DistanceMeters>
          </Trackpoint>
          <Trackpoint>
            <Time>2021-04-02T08:46:34.000Z</Time>
            <Position>
              <LatitudeDegrees>42.35210289247334003448486328125</LatitudeDegrees>
              <LongitudeDegrees>2.6074291951954364776611328125</LongitudeDegrees>
            </Position>
            <AltitudeMeters>786.4000244140625</AltitudeMeters>
            <DistanceMeters>NAN</DistanceMeters>
          </Trackpoint>
          <Trackpoint>
            <Time>2021-04-02T08:46:38.000Z</Time>
            <Position>
              <LatitudeDegrees>42.35212971456348896026611328125</LatitudeDegrees>
              <LongitudeDegrees>2.60738066397607326507568359375</LongitudeDegrees>
            </Position>
            <AltitudeMeters>786.4000244140625</AltitudeMeters>
            <DistanceMeters>NAN</DistanceMeters>
          </Trackpoint>
          <Trackpoint>
            <Time>2021-04-02T08:46:39.000Z</Time>
            <Position>
              <LatitudeDegrees>42.35214010812342166900634765625</LatitudeDegrees>
              <LongitudeDegrees>2.6073713600635528564453125</LongitudeDegrees>
            </Position>
            <AltitudeMeters>786.20001220703125</AltitudeMeters>
            <DistanceMeters>NAN</DistanceMeters>
          </Trackpoint>
          <Trackpoint>
            <Time>2021-04-02T08:46:40.000Z</Time>
            <Position>
              <LatitudeDegrees>42.35214815475046634674072265625</LatitudeDegrees>
              <LongitudeDegrees>2.6073594577610492706298828125</LongitudeDegrees>
            </Position>
            <AltitudeMeters>786</AltitudeMeters>
            <DistanceMeters>NAN</DistanceMeters>
          </Trackpoint>
          <Trackpoint>
            <Time>2021-04-02T08:46:44.000Z</Time>
            <Position>
              <LatitudeDegrees>42.35217757523059844970703125</LatitudeDegrees>
              <LongitudeDegrees>2.60729692876338958740234375</LongitudeDegrees>
            </Position>
            <AltitudeMeters>785.79998779296875</AltitudeMeters>
            <DistanceMeters>NAN</DistanceMeters>
          </Trackpoint>
          <Trackpoint>
            <Time>2021-04-02T08:46:46.000Z</Time>
            <Position>
              <LatitudeDegrees>42.35217221081256866455078125</LatitudeDegrees>
              <LongitudeDegrees>2.6072699390351772308349609375</LongitudeDegrees>
            </Position>
            <AltitudeMeters>785.79998779296875</AltitudeMeters>
            <DistanceMeters>NAN</DistanceMeters>
          </Trackpoint>
          <Trackpoint>
            <Time>2021-04-02T08:46:52.000Z</Time>
            <Position>
              <LatitudeDegrees>42.3521541059017181396484375</LatitudeDegrees>
              <LongitudeDegrees>2.6071948371827602386474609375</LongitudeDegrees>
            </Position>
            <AltitudeMeters>785.5999755859375</AltitudeMeters>
            <DistanceMeters>NAN</DistanceMeters>
          </Trackpoint>
          <Trackpoint>
            <Time>2021-04-02T08:46:57.000Z</Time>
            <Position>
              <LatitudeDegrees>42.35212602652609348297119140625</LatitudeDegrees>
              <LongitudeDegrees>2.607118897140026092529296875</LongitudeDegrees>
            </Position>
            <AltitudeMeters>785.4000244140625</AltitudeMeters>
            <DistanceMeters>NAN</DistanceMeters>
          </Trackpoint>
          <Trackpoint>
            <Time>2021-04-02T08:47:04.000Z</Time>
            <Position>
              <LatitudeDegrees>42.352102808654308319091796875</LatitudeDegrees>
              <LongitudeDegrees>2.60701772756874561309814453125</LongitudeDegrees>
            </Position>
            <AltitudeMeters>785</AltitudeMeters>
            <DistanceMeters>NAN</DistanceMeters>
          </Trackpoint>
          <Trackpoint>
            <Time>2021-04-02T08:47:05.000Z</Time>
            <Position>
              <LatitudeDegrees>42.35210021026432514190673828125</LatitudeDegrees>
              <LongitudeDegrees>2.6070057414472103118896484375</LongitudeDegrees>
            </Position>
            <AltitudeMeters>785</AltitudeMeters>
            <DistanceMeters>NAN</DistanceMeters>
          </Trackpoint>
          <Trackpoint>
            <Time>2021-04-02T08:47:12.000Z</Time>
            <Position>
              <LatitudeDegrees>42.3520895652472972869873046875</LatitudeDegrees>
              <LongitudeDegrees>2.60689535178244113922119140625</LongitudeDegrees>
            </Position>
            <AltitudeMeters>784.20001220703125</AltitudeMeters>
            <DistanceMeters>NAN</DistanceMeters>
          </Trackpoint>
          <Trackpoint>
            <Time>2021-04-02T08:47:14.000Z</Time>
            <Position>
              <LatitudeDegrees>42.35208059661090373992919921875</LatitudeDegrees>
              <LongitudeDegrees>2.6068645901978015899658203125</LongitudeDegrees>
            </Position>
            <AltitudeMeters>783.79998779296875</AltitudeMeters>
            <DistanceMeters>NAN</DistanceMeters>
          </Trackpoint>
          <Trackpoint>
            <Time>2021-04-02T08:47:21.000Z</Time>
            <Position>
              <LatitudeDegrees>42.35203801654279232025146484375</LatitudeDegrees>
              <LongitudeDegrees>2.60676073841750621795654296875</LongitudeDegrees>
            </Position>
            <AltitudeMeters>783.20001220703125</AltitudeMeters>
            <DistanceMeters>NAN</DistanceMeters>
          </Trackpoint>
          <Trackpoint>
            <Time>2021-04-02T08:47:24.000Z</Time>
            <Position>
              <LatitudeDegrees>42.3520235158503055572509765625</LatitudeDegrees>
              <LongitudeDegrees>2.60673089884221553802490234375</LongitudeDegrees>
            </Position>
            <AltitudeMeters>782.5999755859375</AltitudeMeters>
            <DistanceMeters>NAN</DistanceMeters>
          </Trackpoint>
          <Trackpoint>
            <Time>2021-04-02T08:47:29.000Z</Time>
            <Position>
              <LatitudeDegrees>42.351989485323429107666015625</LatitudeDegrees>
              <LongitudeDegrees>2.6066664420068264007568359375</LongitudeDegrees>
            </Position>
            <AltitudeMeters>781.5999755859375</AltitudeMeters>
            <DistanceMeters>NAN</DistanceMeters>
          </Trackpoint>
          <Trackpoint>
            <Time>2021-04-02T08:47:30.000Z</Time>
            <Position>
              <LatitudeDegrees>42.351981103420257568359375</LatitudeDegrees>
              <LongitudeDegrees>2.60665428824722766876220703125</LongitudeDegrees>
            </Position>
            <AltitudeMeters>781.5999755859375</AltitudeMeters>
            <DistanceMeters>NAN</DistanceMeters>
          </Trackpoint>
          <Trackpoint>
            <Time>2021-04-02T08:47:36.000Z</Time>
            <Position>
              <LatitudeDegrees>42.35193508677184581756591796875</LatitudeDegrees>
              <LongitudeDegrees>2.60657952167093753814697265625</LongitudeDegrees>
            </Position>
            <AltitudeMeters>781.20001220703125</AltitudeMeters>
            <DistanceMeters>NAN</DistanceMeters>
          </Trackpoint>
          <Trackpoint>
            <Time>2021-04-02T08:47:38.000Z</Time>
            <Position>
              <LatitudeDegrees>42.3519182391464710235595703125</LatitudeDegrees>
              <LongitudeDegrees>2.60655906982719898223876953125</LongitudeDegrees>
            </Position>
            <AltitudeMeters>781</AltitudeMeters>
            <DistanceMeters>NAN</DistanceMeters>
          </Trackpoint>
          <Trackpoint>
            <Time>2021-04-02T08:47:42.000Z</Time>
            <Position>
              <LatitudeDegrees>42.35189585946500301361083984375</LatitudeDegrees>
              <LongitudeDegrees>2.60650693438947200775146484375</LongitudeDegrees>
            </Position>
            <AltitudeMeters>780.79998779296875</AltitudeMeters>
            <DistanceMeters>NAN</DistanceMeters>
          </Trackpoint>
          <Trackpoint>
            <Time>2021-04-02T08:47:44.000Z</Time>
            <Position>
              <LatitudeDegrees>42.3518883995711803436279296875</LatitudeDegrees>
              <LongitudeDegrees>2.60648245923221111297607421875</LongitudeDegrees>
            </Position>
            <AltitudeMeters>780.4000244140625</AltitudeMeters>
            <DistanceMeters>NAN</DistanceMeters>
          </Trackpoint>
          <Trackpoint>
            <Time>2021-04-02T08:47:46.000Z</Time>
            <Position>
              <LatitudeDegrees>42.351879514753818511962890625</LatitudeDegrees>
              <LongitudeDegrees>2.60646133683621883392333984375</LongitudeDegrees>
            </Position>
            <AltitudeMeters>780</AltitudeMeters>
            <DistanceMeters>NAN</DistanceMeters>
          </Trackpoint>
          <Trackpoint>
            <Time>2021-04-02T08:47:50.000Z</Time>
            <Position>
              <LatitudeDegrees>42.35186601988971233367919921875</LatitudeDegrees>
              <LongitudeDegrees>2.606391012668609619140625</LongitudeDegrees>
            </Position>
            <AltitudeMeters>779</AltitudeMeters>
            <DistanceMeters>NAN</DistanceMeters>
          </Trackpoint>
          <Trackpoint>
            <Time>2021-04-02T08:47:55.000Z</Time>
            <Position>
              <LatitudeDegrees>42.351860739290714263916015625</LatitudeDegrees>
              <LongitudeDegrees>2.60630853474140167236328125</LongitudeDegrees>
            </Position>
            <AltitudeMeters>778.4000244140625</AltitudeMeters>
            <DistanceMeters>NAN</DistanceMeters>
          </Trackpoint>
          <Trackpoint>
            <Time>2021-04-02T08:47:58.000Z</Time>
            <Position>
              <LatitudeDegrees>42.3518599011003971099853515625</LatitudeDegrees>
              <LongitudeDegrees>2.606261931359767913818359375</LongitudeDegrees>
            </Position>
            <AltitudeMeters>778</AltitudeMeters>
            <DistanceMeters>NAN</DistanceMeters>
          </Trackpoint>
          <Trackpoint>
            <Time>2021-04-02T08:48:02.000Z</Time>
            <Position>
              <LatitudeDegrees>42.351862750947475433349609375</LatitudeDegrees>
              <LongitudeDegrees>2.606194876134395599365234375</LongitudeDegrees>
            </Position>
            <AltitudeMeters>777</AltitudeMeters>
            <DistanceMeters>NAN</DistanceMeters>
          </Trackpoint>
          <Trackpoint>
            <Time>2021-04-02T08:48:05.000Z</Time>
            <Position>
              <LatitudeDegrees>42.35185042954981327056884765625</LatitudeDegrees>
              <LongitudeDegrees>2.606147266924381256103515625</LongitudeDegrees>
            </Position>
            <AltitudeMeters>776.5999755859375</AltitudeMeters>
            <DistanceMeters>NAN</DistanceMeters>
          </Trackpoint>
          <Trackpoint>
            <Time>2021-04-02T08:48:08.000Z</Time>
            <Position>
              <LatitudeDegrees>42.3518210090696811676025390625</LatitudeDegrees>
              <LongitudeDegrees>2.60611147619783878326416015625</LongitudeDegrees>
            </Position>
            <AltitudeMeters>776.4000244140625</AltitudeMeters>
            <DistanceMeters>NAN</DistanceMeters>
          </Trackpoint>
          <Trackpoint>
            <Time>2021-04-02T08:48:10.000Z</Time>
            <Position>
              <LatitudeDegrees>42.35179544426500797271728515625</LatitudeDegrees>
              <LongitudeDegrees>2.60609102435410022735595703125</LongitudeDegrees>
            </Position>
            <AltitudeMeters>776</AltitudeMeters>
            <DistanceMeters>NAN</DistanceMeters>
          </Trackpoint>
          <Trackpoint>
            <Time>2021-04-02T08:48:11.000Z</Time>
            <Position>
              <LatitudeDegrees>42.3517837934195995330810546875</LatitudeDegrees>
              <LongitudeDegrees>2.60608381591737270355224609375</LongitudeDegrees>
            </Position>
            <AltitudeMeters>775.5999755859375</AltitudeMeters>
            <DistanceMeters>NAN</DistanceMeters>
          </Trackpoint>
          <Trackpoint>
            <Time>2021-04-02T08:48:13.000Z</Time>
            <Position>
              <LatitudeDegrees>42.3517677001655101776123046875</LatitudeDegrees>
              <LongitudeDegrees>2.60607107542455196380615234375</LongitudeDegrees>
            </Position>
            <AltitudeMeters>775.4000244140625</AltitudeMeters>
            <DistanceMeters>NAN</DistanceMeters>
          </Trackpoint>
          <Trackpoint>
            <Time>2021-04-02T08:48:17.000Z</Time>
            <Position>
              <LatitudeDegrees>42.351735346019268035888671875</LatitudeDegrees>
              <LongitudeDegrees>2.60603117756545543670654296875</LongitudeDegrees>
            </Position>
            <AltitudeMeters>774.79998779296875</AltitudeMeters>
            <DistanceMeters>NAN</DistanceMeters>
          </Trackpoint>
          <Trackpoint>
            <Time>2021-04-02T08:48:18.000Z</Time>
            <Position>
              <LatitudeDegrees>42.35172721557319164276123046875</LatitudeDegrees>
              <LongitudeDegrees>2.60602011345326900482177734375</LongitudeDegrees>
            </Position>
            <AltitudeMeters>774.79998779296875</AltitudeMeters>
            <DistanceMeters>NAN</DistanceMeters>
          </Trackpoint>
          <Trackpoint>
            <Time>2021-04-02T08:48:20.000Z</Time>
            <Position>
              <LatitudeDegrees>42.35171581618487834930419921875</LatitudeDegrees>
              <LongitudeDegrees>2.60599412955343723297119140625</LongitudeDegrees>
            </Position>
            <AltitudeMeters>774.5999755859375</AltitudeMeters>
            <DistanceMeters>NAN</DistanceMeters>
          </Trackpoint>
          <Trackpoint>
            <Time>2021-04-02T08:48:21.000Z</Time>
            <Position>
              <LatitudeDegrees>42.35170626081526279449462890625</LatitudeDegrees>
              <LongitudeDegrees>2.60598256252706050872802734375</LongitudeDegrees>
            </Position>
            <AltitudeMeters>774.4000244140625</AltitudeMeters>
            <DistanceMeters>NAN</DistanceMeters>
          </Trackpoint>
          <Trackpoint>
            <Time>2021-04-02T08:48:24.000Z</Time>
            <Position>
              <LatitudeDegrees>42.351676337420940399169921875</LatitudeDegrees>
              <LongitudeDegrees>2.60594383813440799713134765625</LongitudeDegrees>
            </Position>
            <AltitudeMeters>773.79998779296875</AltitudeMeters>
            <DistanceMeters>NAN</DistanceMeters>
          </Trackpoint>
          <Trackpoint>
            <Time>2021-04-02T08:48:30.000Z</Time>
            <Position>
              <LatitudeDegrees>42.3516413010656833648681640625</LatitudeDegrees>
              <LongitudeDegrees>2.6058721728622913360595703125</LongitudeDegrees>
            </Position>
            <AltitudeMeters>772.79998779296875</AltitudeMeters>
            <DistanceMeters>NAN</DistanceMeters>
          </Trackpoint>
          <Trackpoint>
            <Time>2021-04-02T08:48:31.000Z</Time>
            <Position>
              <LatitudeDegrees>42.3516369424760341644287109375</LatitudeDegrees>
              <LongitudeDegrees>2.60586253367364406585693359375</LongitudeDegrees>
            </Position>
            <AltitudeMeters>772.79998779296875</AltitudeMeters>
            <DistanceMeters>NAN</DistanceMeters>
          </Trackpoint>
          <Trackpoint>
            <Time>2021-04-02T08:48:38.000Z</Time>
            <Position>
              <LatitudeDegrees>42.3515722341835498809814453125</LatitudeDegrees>
              <LongitudeDegrees>2.6057942211627960205078125</LongitudeDegrees>
            </Position>
            <AltitudeMeters>771.79998779296875</AltitudeMeters>
            <DistanceMeters>NAN</DistanceMeters>
          </Trackpoint>
          <Trackpoint>
            <Time>2021-04-02T08:48:39.000Z</Time>
            <Position>
              <LatitudeDegrees>42.35156209208071231842041015625</LatitudeDegrees>
              <LongitudeDegrees>2.60578818619251251220703125</LongitudeDegrees>
            </Position>
            <AltitudeMeters>771.5999755859375</AltitudeMeters>
            <DistanceMeters>NAN</DistanceMeters>
          </Trackpoint>
          <Trackpoint>
            <Time>2021-04-02T08:48:45.000Z</Time>
            <Position>
              <LatitudeDegrees>42.35149453394114971160888671875</LatitudeDegrees>
              <LongitudeDegrees>2.6057779602706432342529296875</LongitudeDegrees>
            </Position>
            <AltitudeMeters>770.5999755859375</AltitudeMeters>
            <DistanceMeters>NAN</DistanceMeters>
          </Trackpoint>
          <Trackpoint>
            <Time>2021-04-02T08:48:46.000Z</Time>
            <Position>
              <LatitudeDegrees>42.35148330219089984893798828125</LatitudeDegrees>
              <LongitudeDegrees>2.6057736016809940338134765625</LongitudeDegrees>
            </Position>
            <AltitudeMeters>770.20001220703125</AltitudeMeters>
            <DistanceMeters>NAN</DistanceMeters>
          </Trackpoint>
          <Trackpoint>
            <Time>2021-04-02T08:48:49.000Z</Time>
            <Position>
              <LatitudeDegrees>42.3514548875391483306884765625</LatitudeDegrees>
              <LongitudeDegrees>2.605787180364131927490234375</LongitudeDegrees>
            </Position>
            <AltitudeMeters>769.5999755859375</AltitudeMeters>
            <DistanceMeters>NAN</DistanceMeters>
          </Trackpoint>
          <Trackpoint>
            <Time>2021-04-02T08:48:55.000Z</Time>
            <Position>
              <LatitudeDegrees>42.35139437019824981689453125</LatitudeDegrees>
              <LongitudeDegrees>2.60580788366496562957763671875</LongitudeDegrees>
            </Position>
            <AltitudeMeters>768.79998779296875</AltitudeMeters>
            <DistanceMeters>NAN</DistanceMeters>
          </Trackpoint>
          <Trackpoint>
            <Time>2021-04-02T08:48:57.000Z</Time>
            <Position>
              <LatitudeDegrees>42.35136712901294231414794921875</LatitudeDegrees>
              <LongitudeDegrees>2.6058205403387546539306640625</LongitudeDegrees>
            </Position>
            <AltitudeMeters>768.5999755859375</AltitudeMeters>
            <DistanceMeters>NAN</DistanceMeters>
          </Trackpoint>
          <Trackpoint>
            <Time>2021-04-02T08:48:59.000Z</Time>
            <Position>
              <LatitudeDegrees>42.3513422347605228424072265625</LatitudeDegrees>
              <LongitudeDegrees>2.60582816787064075469970703125</LongitudeDegrees>
            </Position>
            <AltitudeMeters>768.20001220703125</AltitudeMeters>
            <DistanceMeters>NAN</DistanceMeters>
          </Trackpoint>
          <Trackpoint>
            <Time>2021-04-02T08:49:02.000Z</Time>
            <Position>
              <LatitudeDegrees>42.35129588283598423004150390625</LatitudeDegrees>
              <LongitudeDegrees>2.60584526695311069488525390625</LongitudeDegrees>
            </Position>
            <AltitudeMeters>767.79998779296875</AltitudeMeters>
            <DistanceMeters>NAN</DistanceMeters>
          </Trackpoint>
          <Trackpoint>
            <Time>2021-04-02T08:49:04.000Z</Time>
            <Position>
              <LatitudeDegrees>42.35127056948840618133544921875</LatitudeDegrees>
              <LongitudeDegrees>2.60585029609501361846923828125</LongitudeDegrees>
            </Position>
            <AltitudeMeters>767.4000244140625</AltitudeMeters>
            <DistanceMeters>NAN</DistanceMeters>
          </Trackpoint>
          <Trackpoint>
            <Time>2021-04-02T08:49:05.000Z</Time>
            <Position>
              <LatitudeDegrees>42.35125682316720485687255859375</LatitudeDegrees>
              <LongitudeDegrees>2.605858929455280303955078125</LongitudeDegrees>
            </Position>
            <AltitudeMeters>767.20001220703125</AltitudeMeters>
            <DistanceMeters>NAN</DistanceMeters>
          </Trackpoint>
          <Trackpoint>
            <Time>2021-04-02T08:49:07.000Z</Time>
            <Position>
              <LatitudeDegrees>42.3512327671051025390625</LatitudeDegrees>
              <LongitudeDegrees>2.60586974211037158966064453125</LongitudeDegrees>
            </Position>
            <AltitudeMeters>767</AltitudeMeters>
            <DistanceMeters>NAN</DistanceMeters>
          </Trackpoint>
          <Trackpoint>
            <Time>2021-04-02T08:49:09.000Z</Time>
            <Position>
              <LatitudeDegrees>42.35120669938623905181884765625</LatitudeDegrees>
              <LongitudeDegrees>2.6058792136609554290771484375</LongitudeDegrees>
            </Position>
            <AltitudeMeters>766.79998779296875</AltitudeMeters>
            <DistanceMeters>NAN</DistanceMeters>
          </Trackpoint>
          <Trackpoint>
            <Time>2021-04-02T08:49:11.000Z</Time>
            <Position>
              <LatitudeDegrees>42.3511836491525173187255859375</LatitudeDegrees>
              <LongitudeDegrees>2.6058872602880001068115234375</LongitudeDegrees>
            </Position>
            <AltitudeMeters>766.20001220703125</AltitudeMeters>
            <DistanceMeters>NAN</DistanceMeters>
          </Trackpoint>
          <Trackpoint>
            <Time>2021-04-02T08:49:17.000Z</Time>
            <Position>
              <LatitudeDegrees>42.35111801885068416595458984375</LatitudeDegrees>
              <LongitudeDegrees>2.60590486228466033935546875</LongitudeDegrees>
            </Position>
            <AltitudeMeters>765.4000244140625</AltitudeMeters>
            <DistanceMeters>NAN</DistanceMeters>
          </Trackpoint>
          <Trackpoint>
            <Time>2021-04-02T08:49:18.000Z</Time>
            <Position>
              <LatitudeDegrees>42.35111131332814693450927734375</LatitudeDegrees>
              <LongitudeDegrees>2.60591064579784870147705078125</LongitudeDegrees>
            </Position>
            <AltitudeMeters>765</AltitudeMeters>
            <DistanceMeters>NAN</DistanceMeters>
          </Trackpoint>
          <Trackpoint>
            <Time>2021-04-02T08:49:22.000Z</Time>
            <Position>
              <LatitudeDegrees>42.35106806270778179168701171875</LatitudeDegrees>
              <LongitudeDegrees>2.60592355392873287200927734375</LongitudeDegrees>
            </Position>
            <AltitudeMeters>763.79998779296875</AltitudeMeters>
            <DistanceMeters>NAN</DistanceMeters>
          </Trackpoint>
          <Trackpoint>
            <Time>2021-04-02T08:49:25.000Z</Time>
            <Position>
              <LatitudeDegrees>42.35103252343833446502685546875</LatitudeDegrees>
              <LongitudeDegrees>2.60594048537313938140869140625</LongitudeDegrees>
            </Position>
            <AltitudeMeters>763.5999755859375</AltitudeMeters>
            <DistanceMeters>NAN</DistanceMeters>
          </Trackpoint>
          <Trackpoint>
            <Time>2021-04-02T08:49:33.000Z</Time>
            <Position>
              <LatitudeDegrees>42.3509429208934307098388671875</LatitudeDegrees>
              <LongitudeDegrees>2.6059238053858280181884765625</LongitudeDegrees>
            </Position>
            <AltitudeMeters>763</AltitudeMeters>
            <DistanceMeters>NAN</DistanceMeters>
          </Trackpoint>
          <Trackpoint>
            <Time>2021-04-02T08:49:34.000Z</Time>
            <Position>
              <LatitudeDegrees>42.35093571245670318603515625</LatitudeDegrees>
              <LongitudeDegrees>2.60590846650302410125732421875</LongitudeDegrees>
            </Position>
            <AltitudeMeters>762.79998779296875</AltitudeMeters>
            <DistanceMeters>NAN</DistanceMeters>
          </Trackpoint>
          <Trackpoint>
            <Time>2021-04-02T08:49:41.000Z</Time>
            <Position>
              <LatitudeDegrees>42.3509023524820804595947265625</LatitudeDegrees>
              <LongitudeDegrees>2.60580000467598438262939453125</LongitudeDegrees>
            </Position>
            <AltitudeMeters>761.5999755859375</AltitudeMeters>
            <DistanceMeters>NAN</DistanceMeters>
          </Trackpoint>
          <Trackpoint>
            <Time>2021-04-02T08:49:44.000Z</Time>
            <Position>
              <LatitudeDegrees>42.3509060405194759368896484375</LatitudeDegrees>
              <LongitudeDegrees>2.60574334301054477691650390625</LongitudeDegrees>
            </Position>
            <AltitudeMeters>761.20001220703125</AltitudeMeters>
            <DistanceMeters>NAN</DistanceMeters>
          </Trackpoint>
          <Trackpoint>
            <Time>2021-04-02T08:49:49.000Z</Time>
            <Position>
              <LatitudeDegrees>42.35090486705303192138671875</LatitudeDegrees>
              <LongitudeDegrees>2.60564795695245265960693359375</LongitudeDegrees>
            </Position>
            <AltitudeMeters>760.5999755859375</AltitudeMeters>
            <DistanceMeters>NAN</DistanceMeters>
          </Trackpoint>
          <Trackpoint>
            <Time>2021-04-02T08:49:54.000Z</Time>
            <Position>
              <LatitudeDegrees>42.3509033583104610443115234375</LatitudeDegrees>
              <LongitudeDegrees>2.60554854758083820343017578125</LongitudeDegrees>
            </Position>
            <AltitudeMeters>759.79998779296875</AltitudeMeters>
            <DistanceMeters>NAN</DistanceMeters>
          </Trackpoint>
          <Trackpoint>
            <Time>2021-04-02T08:49:57.000Z</Time>
            <Position>
              <LatitudeDegrees>42.3509041965007781982421875</LatitudeDegrees>
              <LongitudeDegrees>2.6055023632943630218505859375</LongitudeDegrees>
            </Position>
            <AltitudeMeters>759.5999755859375</AltitudeMeters>
            <DistanceMeters>NAN</DistanceMeters>
          </Trackpoint>
          <Trackpoint>
            <Time>2021-04-02T08:50:04.000Z</Time>
            <Position>
              <LatitudeDegrees>42.35089606605470180511474609375</LatitudeDegrees>
              <LongitudeDegrees>2.6053893752396106719970703125</LongitudeDegrees>
            </Position>
            <AltitudeMeters>758.4000244140625</AltitudeMeters>
            <DistanceMeters>NAN</DistanceMeters>
          </Trackpoint>
          <Trackpoint>
            <Time>2021-04-02T08:50:11.000Z</Time>
            <Position>
              <LatitudeDegrees>42.350876033306121826171875</LatitudeDegrees>
              <LongitudeDegrees>2.6052653230726718902587890625</LongitudeDegrees>
            </Position>
            <AltitudeMeters>757.4000244140625</AltitudeMeters>
            <DistanceMeters>NAN</DistanceMeters>
          </Trackpoint>
          <Trackpoint>
            <Time>2021-04-02T08:50:12.000Z</Time>
            <Position>
              <LatitudeDegrees>42.35087276436388492584228515625</LatitudeDegrees>
              <LongitudeDegrees>2.6052495650947093963623046875</LongitudeDegrees>
            </Position>
            <AltitudeMeters>757.4000244140625</AltitudeMeters>
            <DistanceMeters>NAN</DistanceMeters>
          </Trackpoint>
          <Trackpoint>
            <Time>2021-04-02T08:50:20.000Z</Time>
            <Position>
              <LatitudeDegrees>42.3508604429662227630615234375</LatitudeDegrees>
              <LongitudeDegrees>2.6051224954426288604736328125</LongitudeDegrees>
            </Position>
            <AltitudeMeters>756.20001220703125</AltitudeMeters>
            <DistanceMeters>NAN</DistanceMeters>
          </Trackpoint>
          <Trackpoint>
            <Time>2021-04-02T08:50:23.000Z</Time>
            <Position>
              <LatitudeDegrees>42.350862286984920501708984375</LatitudeDegrees>
              <LongitudeDegrees>2.6050711981952190399169921875</LongitudeDegrees>
            </Position>
            <AltitudeMeters>756</AltitudeMeters>
            <DistanceMeters>NAN</DistanceMeters>
          </Trackpoint>
          <Trackpoint>
            <Time>2021-04-02T08:50:27.000Z</Time>
            <Position>
              <LatitudeDegrees>42.35086865723133087158203125</LatitudeDegrees>
              <LongitudeDegrees>2.60499752126634120941162109375</LongitudeDegrees>
            </Position>
            <AltitudeMeters>755.79998779296875</AltitudeMeters>
            <DistanceMeters>NAN</DistanceMeters>
          </Trackpoint>
          <Trackpoint>
            <Time>2021-04-02T08:50:31.000Z</Time>
            <Position>
              <LatitudeDegrees>42.35086471773684024810791015625</LatitudeDegrees>
              <LongitudeDegrees>2.60494320653378963470458984375</LongitudeDegrees>
            </Position>
            <AltitudeMeters>755.20001220703125</AltitudeMeters>
            <DistanceMeters>NAN</DistanceMeters>
          </Trackpoint>
          <Trackpoint>
            <Time>2021-04-02T08:50:33.000Z</Time>
            <Position>
              <LatitudeDegrees>42.35086823813617229461669921875</LatitudeDegrees>
              <LongitudeDegrees>2.6049119420349597930908203125</LongitudeDegrees>
            </Position>
            <AltitudeMeters>755</AltitudeMeters>
            <DistanceMeters>NAN</DistanceMeters>
          </Trackpoint>
          <Trackpoint>
            <Time>2021-04-02T08:50:39.000Z</Time>
            <Position>
              <LatitudeDegrees>42.3508768714964389801025390625</LatitudeDegrees>
              <LongitudeDegrees>2.60482259094715118408203125</LongitudeDegrees>
            </Position>
            <AltitudeMeters>754.20001220703125</AltitudeMeters>
            <DistanceMeters>NAN</DistanceMeters>
          </Trackpoint>
          <Trackpoint>
            <Time>2021-04-02T08:50:41.000Z</Time>
            <Position>
              <LatitudeDegrees>42.35088617540895938873291015625</LatitudeDegrees>
              <LongitudeDegrees>2.60479685850441455841064453125</LongitudeDegrees>
            </Position>
            <AltitudeMeters>753.79998779296875</AltitudeMeters>
            <DistanceMeters>NAN</DistanceMeters>
          </Trackpoint>
          <Trackpoint>
            <Time>2021-04-02T08:50:43.000Z</Time>
            <Position>
              <LatitudeDegrees>42.35088969580829143524169921875</LatitudeDegrees>
              <LongitudeDegrees>2.6047654263675212860107421875</LongitudeDegrees>
            </Position>
            <AltitudeMeters>753.4000244140625</AltitudeMeters>
            <DistanceMeters>NAN</DistanceMeters>
          </Trackpoint>
          <Trackpoint>
            <Time>2021-04-02T08:50:45.000Z</Time>
            <Position>
              <LatitudeDegrees>42.3508936353027820587158203125</LatitudeDegrees>
              <LongitudeDegrees>2.6047295518219470977783203125</LongitudeDegrees>
            </Position>
            <AltitudeMeters>753.20001220703125</AltitudeMeters>
            <DistanceMeters>NAN</DistanceMeters>
          </Trackpoint>
          <Trackpoint>
            <Time>2021-04-02T08:50:52.000Z</Time>
            <Position>
              <LatitudeDegrees>42.35090478323400020599365234375</LatitudeDegrees>
              <LongitudeDegrees>2.6046168990433216094970703125</LongitudeDegrees>
            </Position>
            <AltitudeMeters>752.4000244140625</AltitudeMeters>
            <DistanceMeters>NAN</DistanceMeters>
          </Trackpoint>
          <Trackpoint>
            <Time>2021-04-02T08:50:53.000Z</Time>
            <Position>
              <LatitudeDegrees>42.3509080521762371063232421875</LatitudeDegrees>
              <LongitudeDegrees>2.6046001352369785308837890625</LongitudeDegrees>
            </Position>
            <AltitudeMeters>752.20001220703125</AltitudeMeters>
            <DistanceMeters>NAN</DistanceMeters>
          </Trackpoint>
          <Trackpoint>
            <Time>2021-04-02T08:50:54.000Z</Time>
            <Position>
              <LatitudeDegrees>42.35090930946171283721923828125</LatitudeDegrees>
              <LongitudeDegrees>2.6045877300202846527099609375</LongitudeDegrees>
            </Position>
            <AltitudeMeters>752</AltitudeMeters>
            <DistanceMeters>NAN</DistanceMeters>
          </Trackpoint>
          <Trackpoint>
            <Time>2021-04-02T08:51:01.000Z</Time>
            <Position>
              <LatitudeDegrees>42.35092640854418277740478515625</LatitudeDegrees>
              <LongitudeDegrees>2.604472227394580841064453125</LongitudeDegrees>
            </Position>
            <AltitudeMeters>751.20001220703125</AltitudeMeters>
            <DistanceMeters>NAN</DistanceMeters>
          </Trackpoint>
          <Trackpoint>
            <Time>2021-04-02T08:51:02.000Z</Time>
            <Position>
              <LatitudeDegrees>42.3509268276393413543701171875</LatitudeDegrees>
              <LongitudeDegrees>2.60445504449307918548583984375</LongitudeDegrees>
            </Position>
            <AltitudeMeters>751</AltitudeMeters>
            <DistanceMeters>NAN</DistanceMeters>
          </Trackpoint>
          <Trackpoint>
            <Time>2021-04-02T08:51:05.000Z</Time>
            <Position>
              <LatitudeDegrees>42.3509301804006099700927734375</LatitudeDegrees>
              <LongitudeDegrees>2.60440777055919170379638671875</LongitudeDegrees>
            </Position>
            <AltitudeMeters>750.79998779296875</AltitudeMeters>
            <DistanceMeters>NAN</DistanceMeters>
          </Trackpoint>
          <Trackpoint>
            <Time>2021-04-02T08:51:11.000Z</Time>
            <Position>
              <LatitudeDegrees>42.35092372633516788482666015625</LatitudeDegrees>
              <LongitudeDegrees>2.6043248735368251800537109375</LongitudeDegrees>
            </Position>
            <AltitudeMeters>749.79998779296875</AltitudeMeters>
            <DistanceMeters>NAN</DistanceMeters>
          </Trackpoint>
          <Trackpoint>
            <Time>2021-04-02T08:51:15.000Z</Time>
            <Position>
              <LatitudeDegrees>42.35092221759259700775146484375</LatitudeDegrees>
              <LongitudeDegrees>2.60425270535051822662353515625</LongitudeDegrees>
            </Position>
            <AltitudeMeters>749.5999755859375</AltitudeMeters>
            <DistanceMeters>NAN</DistanceMeters>
          </Trackpoint>
          <Trackpoint>
            <Time>2021-04-02T08:51:20.000Z</Time>
            <Position>
              <LatitudeDegrees>42.35091567970812320709228515625</LatitudeDegrees>
              <LongitudeDegrees>2.6041741669178009033203125</LongitudeDegrees>
            </Position>
            <AltitudeMeters>748.79998779296875</AltitudeMeters>
            <DistanceMeters>NAN</DistanceMeters>
          </Trackpoint>
          <Trackpoint>
            <Time>2021-04-02T08:51:26.000Z</Time>
            <Position>
              <LatitudeDegrees>42.35090863890945911407470703125</LatitudeDegrees>
              <LongitudeDegrees>2.60408540256321430206298828125</LongitudeDegrees>
            </Position>
            <AltitudeMeters>748</AltitudeMeters>
            <DistanceMeters>NAN</DistanceMeters>
          </Trackpoint>
          <Trackpoint>
            <Time>2021-04-02T08:51:29.000Z</Time>
            <Position>
              <LatitudeDegrees>42.35089874826371669769287109375</LatitudeDegrees>
              <LongitudeDegrees>2.60403410531580448150634765625</LongitudeDegrees>
            </Position>
            <AltitudeMeters>747.79998779296875</AltitudeMeters>
            <DistanceMeters>NAN</DistanceMeters>
          </Trackpoint>
          <Trackpoint>
            <Time>2021-04-02T08:51:37.000Z</Time>
            <Position>
              <LatitudeDegrees>42.3508839122951030731201171875</LatitudeDegrees>
              <LongitudeDegrees>2.60391105897724628448486328125</LongitudeDegrees>
            </Position>
            <AltitudeMeters>746.79998779296875</AltitudeMeters>
            <DistanceMeters>NAN</DistanceMeters>
          </Trackpoint>
          <Trackpoint>
            <Time>2021-04-02T08:51:38.000Z</Time>
            <Position>
              <LatitudeDegrees>42.35088282264769077301025390625</LatitudeDegrees>
              <LongitudeDegrees>2.60389597155153751373291015625</LongitudeDegrees>
            </Position>
            <AltitudeMeters>746.4000244140625</AltitudeMeters>
            <DistanceMeters>NAN</DistanceMeters>
          </Trackpoint>
          <Trackpoint>
            <Time>2021-04-02T08:51:45.000Z</Time>
            <Position>
              <LatitudeDegrees>42.35088475048542022705078125</LatitudeDegrees>
              <LongitudeDegrees>2.60378080420196056365966796875</LongitudeDegrees>
            </Position>
            <AltitudeMeters>745.4000244140625</AltitudeMeters>
            <DistanceMeters>NAN</DistanceMeters>
          </Trackpoint>
          <Trackpoint>
            <Time>2021-04-02T08:51:50.000Z</Time>
            <Position>
              <LatitudeDegrees>42.35088600777089595794677734375</LatitudeDegrees>
              <LongitudeDegrees>2.60368692688643932342529296875</LongitudeDegrees>
            </Position>
            <AltitudeMeters>744.4000244140625</AltitudeMeters>
            <DistanceMeters>NAN</DistanceMeters>
          </Trackpoint>
          <Trackpoint>
            <Time>2021-04-02T08:51:51.000Z</Time>
            <Position>
              <LatitudeDegrees>42.35088340938091278076171875</LatitudeDegrees>
              <LongitudeDegrees>2.60366848669946193695068359375</LongitudeDegrees>
            </Position>
            <AltitudeMeters>744.20001220703125</AltitudeMeters>
            <DistanceMeters>NAN</DistanceMeters>
          </Trackpoint>
          <Trackpoint>
            <Time>2021-04-02T08:51:55.000Z</Time>
            <Position>
              <LatitudeDegrees>42.35088215209543704986572265625</LatitudeDegrees>
              <LongitudeDegrees>2.60360361076891422271728515625</LongitudeDegrees>
            </Position>
            <AltitudeMeters>744</AltitudeMeters>
            <DistanceMeters>NAN</DistanceMeters>
          </Trackpoint>
          <Trackpoint>
            <Time>2021-04-02T08:51:57.000Z</Time>
            <Position>
              <LatitudeDegrees>42.35087879933416843414306640625</LatitudeDegrees>
              <LongitudeDegrees>2.60357268154621124267578125</LongitudeDegrees>
            </Position>
            <AltitudeMeters>743.4000244140625</AltitudeMeters>
            <DistanceMeters>NAN</DistanceMeters>
          </Trackpoint>
          <Trackpoint>
            <Time>2021-04-02T08:51:58.000Z</Time>
            <Position>
              <LatitudeDegrees>42.3508778773248195648193359375</LatitudeDegrees>
              <LongitudeDegrees>2.60355482809245586395263671875</LongitudeDegrees>
            </Position>
            <AltitudeMeters>743.20001220703125</AltitudeMeters>
            <DistanceMeters>NAN</DistanceMeters>
          </Trackpoint>
          <Trackpoint>
            <Time>2021-04-02T08:51:59.000Z</Time>
            <Position>
              <LatitudeDegrees>42.35087896697223186492919921875</LatitudeDegrees>
              <LongitudeDegrees>2.6035406626760959625244140625</LongitudeDegrees>
            </Position>
            <AltitudeMeters>743</AltitudeMeters>
            <DistanceMeters>NAN</DistanceMeters>
          </Trackpoint>
          <Trackpoint>
            <Time>2021-04-02T08:52:06.000Z</Time>
            <Position>
              <LatitudeDegrees>42.3508735187351703643798828125</LatitudeDegrees>
              <LongitudeDegrees>2.603428177535533905029296875</LongitudeDegrees>
            </Position>
            <AltitudeMeters>742</AltitudeMeters>
            <DistanceMeters>NAN</DistanceMeters>
          </Trackpoint>
          <Trackpoint>
            <Time>2021-04-02T08:52:08.000Z</Time>
            <Position>
              <LatitudeDegrees>42.350868321955204010009765625</LatitudeDegrees>
              <LongitudeDegrees>2.6033944822847843170166015625</LongitudeDegrees>
            </Position>
            <AltitudeMeters>741.79998779296875</AltitudeMeters>
            <DistanceMeters>NAN</DistanceMeters>
          </Trackpoint>
          <Trackpoint>
            <Time>2021-04-02T08:52:14.000Z</Time>
            <Position>
              <LatitudeDegrees>42.35087041743099689483642578125</LatitudeDegrees>
              <LongitudeDegrees>2.6032804884016513824462890625</LongitudeDegrees>
            </Position>
            <AltitudeMeters>741</AltitudeMeters>
            <DistanceMeters>NAN</DistanceMeters>
          </Trackpoint>
          <Trackpoint>
            <Time>2021-04-02T08:52:18.000Z</Time>
            <Position>
              <LatitudeDegrees>42.35088064335286617279052734375</LatitudeDegrees>
              <LongitudeDegrees>2.60320312343537807464599609375</LongitudeDegrees>
            </Position>
            <AltitudeMeters>740.5999755859375</AltitudeMeters>
            <DistanceMeters>NAN</DistanceMeters>
          </Trackpoint>
          <Trackpoint>
            <Time>2021-04-02T08:52:28.000Z</Time>
            <Position>
              <LatitudeDegrees>42.35091199167072772979736328125</LatitudeDegrees>
              <LongitudeDegrees>2.60304587893187999725341796875</LongitudeDegrees>
            </Position>
            <AltitudeMeters>739.79998779296875</AltitudeMeters>
            <DistanceMeters>NAN</DistanceMeters>
          </Trackpoint>
          <Trackpoint>
            <Time>2021-04-02T08:52:33.000Z</Time>
            <Position>
              <LatitudeDegrees>42.3509264923632144927978515625</LatitudeDegrees>
              <LongitudeDegrees>2.6029770635068416595458984375</LongitudeDegrees>
            </Position>
            <AltitudeMeters>738.5999755859375</AltitudeMeters>
            <DistanceMeters>NAN</DistanceMeters>
          </Trackpoint>
          <Trackpoint>
            <Time>2021-04-02T08:52:37.000Z</Time>
            <Position>
              <LatitudeDegrees>42.3509445972740650177001953125</LatitudeDegrees>
              <LongitudeDegrees>2.6029126904904842376708984375</LongitudeDegrees>
            </Position>
            <AltitudeMeters>737.79998779296875</AltitudeMeters>
            <DistanceMeters>NAN</DistanceMeters>
          </Trackpoint>
          <Trackpoint>
            <Time>2021-04-02T08:52:39.000Z</Time>
            <Position>
              <LatitudeDegrees>42.35095675103366374969482421875</LatitudeDegrees>
              <LongitudeDegrees>2.602877318859100341796875</LongitudeDegrees>
            </Position>
            <AltitudeMeters>737.5999755859375</AltitudeMeters>
            <DistanceMeters>NAN</DistanceMeters>
          </Trackpoint>
          <Trackpoint>
            <Time>2021-04-02T08:52:45.000Z</Time>
            <Position>
              <LatitudeDegrees>42.3510029353201389312744140625</LatitudeDegrees>
              <LongitudeDegrees>2.60277179069817066192626953125</LongitudeDegrees>
            </Position>
            <AltitudeMeters>736.79998779296875</AltitudeMeters>
            <DistanceMeters>NAN</DistanceMeters>
          </Trackpoint>
          <Trackpoint>
            <Time>2021-04-02T08:52:47.000Z</Time>
            <Position>
              <LatitudeDegrees>42.35101559199392795562744140625</LatitudeDegrees>
              <LongitudeDegrees>2.60273876599967479705810546875</LongitudeDegrees>
            </Position>
            <AltitudeMeters>736.5999755859375</AltitudeMeters>
            <DistanceMeters>NAN</DistanceMeters>
          </Trackpoint>
          <Trackpoint>
            <Time>2021-04-02T08:52:48.000Z</Time>
            <Position>
              <LatitudeDegrees>42.35102464444935321807861328125</LatitudeDegrees>
              <LongitudeDegrees>2.60272108018398284912109375</LongitudeDegrees>
            </Position>
            <AltitudeMeters>736.4000244140625</AltitudeMeters>
            <DistanceMeters>NAN</DistanceMeters>
          </Trackpoint>
          <Trackpoint>
            <Time>2021-04-02T08:52:54.000Z</Time>
            <Position>
              <LatitudeDegrees>42.3510528914630413055419921875</LatitudeDegrees>
              <LongitudeDegrees>2.60262058116495609283447265625</LongitudeDegrees>
            </Position>
            <AltitudeMeters>735.4000244140625</AltitudeMeters>
            <DistanceMeters>NAN</DistanceMeters>
          </Trackpoint>
          <Trackpoint>
            <Time>2021-04-02T08:52:55.000Z</Time>
            <Position>
              <LatitudeDegrees>42.3510542325675487518310546875</LatitudeDegrees>
              <LongitudeDegrees>2.60260934941470623016357421875</LongitudeDegrees>
            </Position>
            <AltitudeMeters>735.4000244140625</AltitudeMeters>
            <DistanceMeters>NAN</DistanceMeters>
          </Trackpoint>
          <Trackpoint>
            <Time>2021-04-02T08:52:59.000Z</Time>
            <Position>
              <LatitudeDegrees>42.3510552383959293365478515625</LatitudeDegrees>
              <LongitudeDegrees>2.60255252011120319366455078125</LongitudeDegrees>
            </Position>
            <AltitudeMeters>735.20001220703125</AltitudeMeters>
            <DistanceMeters>NAN</DistanceMeters>
          </Trackpoint>
          <Trackpoint>
            <Time>2021-04-02T08:53:01.000Z</Time>
            <Position>
              <LatitudeDegrees>42.35104459337890148162841796875</LatitudeDegrees>
              <LongitudeDegrees>2.60253131389617919921875</LongitudeDegrees>
            </Position>
            <AltitudeMeters>735</AltitudeMeters>
            <DistanceMeters>NAN</DistanceMeters>
          </Trackpoint>
          <Trackpoint>
            <Time>2021-04-02T08:53:03.000Z</Time>
            <Position>
              <LatitudeDegrees>42.35102497972548007965087890625</LatitudeDegrees>
              <LongitudeDegrees>2.60251631028950214385986328125</LongitudeDegrees>
            </Position>
            <AltitudeMeters>734.79998779296875</AltitudeMeters>
            <DistanceMeters>NAN</DistanceMeters>
          </Trackpoint>
          <Trackpoint>
            <Time>2021-04-02T08:53:07.000Z</Time>
            <Position>
              <LatitudeDegrees>42.35098524950444698333740234375</LatitudeDegrees>
              <LongitudeDegrees>2.6024741493165493011474609375</LongitudeDegrees>
            </Position>
            <AltitudeMeters>734.20001220703125</AltitudeMeters>
            <DistanceMeters>NAN</DistanceMeters>
          </Trackpoint>
          <Trackpoint>
            <Time>2021-04-02T08:53:09.000Z</Time>
            <Position>
              <LatitudeDegrees>42.3509673960506916046142578125</LatitudeDegrees>
              <LongitudeDegrees>2.6024500094354152679443359375</LongitudeDegrees>
            </Position>
            <AltitudeMeters>733.79998779296875</AltitudeMeters>
            <DistanceMeters>NAN</DistanceMeters>
          </Trackpoint>
          <Trackpoint>
            <Time>2021-04-02T08:53:12.000Z</Time>
            <Position>
              <LatitudeDegrees>42.350940741598606109619140625</LatitudeDegrees>
              <LongitudeDegrees>2.6024119555950164794921875</LongitudeDegrees>
            </Position>
            <AltitudeMeters>733.4000244140625</AltitudeMeters>
            <DistanceMeters>NAN</DistanceMeters>
          </Trackpoint>
          <Trackpoint>
            <Time>2021-04-02T08:53:15.000Z</Time>
            <Position>
              <LatitudeDegrees>42.350908555090427398681640625</LatitudeDegrees>
              <LongitudeDegrees>2.6023832894861698150634765625</LongitudeDegrees>
            </Position>
            <AltitudeMeters>733.20001220703125</AltitudeMeters>
            <DistanceMeters>NAN</DistanceMeters>
          </Trackpoint>
          <Trackpoint>
            <Time>2021-04-02T08:53:16.000Z</Time>
            <Position>
              <LatitudeDegrees>42.35089682042598724365234375</LatitudeDegrees>
              <LongitudeDegrees>2.602373398840427398681640625</LongitudeDegrees>
            </Position>
            <AltitudeMeters>733.20001220703125</AltitudeMeters>
            <DistanceMeters>NAN</DistanceMeters>
          </Trackpoint>
          <Trackpoint>
            <Time>2021-04-02T08:53:18.000Z</Time>
            <Position>
              <LatitudeDegrees>42.3508731834590435028076171875</LatitudeDegrees>
              <LongitudeDegrees>2.60234666056931018829345703125</LongitudeDegrees>
            </Position>
            <AltitudeMeters>733</AltitudeMeters>
            <DistanceMeters>NAN</DistanceMeters>
          </Trackpoint>
          <Trackpoint>
            <Time>2021-04-02T08:53:20.000Z</Time>
            <Position>
              <LatitudeDegrees>42.35085348598659038543701171875</LatitudeDegrees>
              <LongitudeDegrees>2.6023283042013645172119140625</LongitudeDegrees>
            </Position>
            <AltitudeMeters>732.79998779296875</AltitudeMeters>
            <DistanceMeters>NAN</DistanceMeters>
          </Trackpoint>
          <Trackpoint>
            <Time>2021-04-02T08:53:27.000Z</Time>
            <Position>
              <LatitudeDegrees>42.35078475438058376312255859375</LatitudeDegrees>
              <LongitudeDegrees>2.6022699661552906036376953125</LongitudeDegrees>
            </Position>
            <AltitudeMeters>732.20001220703125</AltitudeMeters>
            <DistanceMeters>NAN</DistanceMeters>
          </Trackpoint>
          <Trackpoint>
            <Time>2021-04-02T08:53:28.000Z</Time>
            <Position>
              <LatitudeDegrees>42.35077503137290477752685546875</LatitudeDegrees>
              <LongitudeDegrees>2.602261416614055633544921875</LongitudeDegrees>
            </Position>
            <AltitudeMeters>732</AltitudeMeters>
            <DistanceMeters>NAN</DistanceMeters>
          </Trackpoint>
          <Trackpoint>
            <Time>2021-04-02T08:53:34.000Z</Time>
            <Position>
              <LatitudeDegrees>42.3507192917168140411376953125</LatitudeDegrees>
              <LongitudeDegrees>2.60219763033092021942138671875</LongitudeDegrees>
            </Position>
            <AltitudeMeters>731.20001220703125</AltitudeMeters>
            <DistanceMeters>NAN</DistanceMeters>
          </Trackpoint>
          <Trackpoint>
            <Time>2021-04-02T08:53:35.000Z</Time>
            <Position>
              <LatitudeDegrees>42.3507065512239933013916015625</LatitudeDegrees>
              <LongitudeDegrees>2.6021871529519557952880859375</LongitudeDegrees>
            </Position>
            <AltitudeMeters>731</AltitudeMeters>
            <DistanceMeters>NAN</DistanceMeters>
          </Trackpoint>
          <Trackpoint>
            <Time>2021-04-02T08:53:37.000Z</Time>
            <Position>
              <LatitudeDegrees>42.35068199224770069122314453125</LatitudeDegrees>
              <LongitudeDegrees>2.6021626777946949005126953125</LongitudeDegrees>
            </Position>
            <AltitudeMeters>731</AltitudeMeters>
            <DistanceMeters>NAN</DistanceMeters>
          </Trackpoint>
          <Trackpoint>
            <Time>2021-04-02T08:53:42.000Z</Time>
            <Position>
              <LatitudeDegrees>42.35063991509377956390380859375</LatitudeDegrees>
              <LongitudeDegrees>2.6020766794681549072265625</LongitudeDegrees>
            </Position>
            <AltitudeMeters>730.20001220703125</AltitudeMeters>
            <DistanceMeters>NAN</DistanceMeters>
          </Trackpoint>
          <Trackpoint>
            <Time>2021-04-02T08:53:45.000Z</Time>
            <Position>
              <LatitudeDegrees>42.3506254144012928009033203125</LatitudeDegrees>
              <LongitudeDegrees>2.6020168326795101165771484375</LongitudeDegrees>
            </Position>
            <AltitudeMeters>729.79998779296875</AltitudeMeters>
            <DistanceMeters>NAN</DistanceMeters>
          </Trackpoint>
          <Trackpoint>
            <Time>2021-04-02T08:53:50.000Z</Time>
            <Position>
              <LatitudeDegrees>42.35059297643601894378662109375</LatitudeDegrees>
              <LongitudeDegrees>2.60196310468018054962158203125</LongitudeDegrees>
            </Position>
            <AltitudeMeters>729.4000244140625</AltitudeMeters>
            <DistanceMeters>NAN</DistanceMeters>
          </Trackpoint>
          <Trackpoint>
            <Time>2021-04-02T08:53:53.000Z</Time>
            <Position>
              <LatitudeDegrees>42.35056296922266483306884765625</LatitudeDegrees>
              <LongitudeDegrees>2.6019524596631526947021484375</LongitudeDegrees>
            </Position>
            <AltitudeMeters>728.79998779296875</AltitudeMeters>
            <DistanceMeters>NAN</DistanceMeters>
          </Trackpoint>
          <Trackpoint>
            <Time>2021-04-02T08:53:58.000Z</Time>
            <Position>
              <LatitudeDegrees>42.35051636584103107452392578125</LatitudeDegrees>
              <LongitudeDegrees>2.60196830146014690399169921875</LongitudeDegrees>
            </Position>
            <AltitudeMeters>727.5999755859375</AltitudeMeters>
            <DistanceMeters>NAN</DistanceMeters>
          </Trackpoint>
          <Trackpoint>
            <Time>2021-04-02T08:53:59.000Z</Time>
            <Position>
              <LatitudeDegrees>42.3505151085555553436279296875</LatitudeDegrees>
              <LongitudeDegrees>2.60196830146014690399169921875</LongitudeDegrees>
            </Position>
            <AltitudeMeters>727.5999755859375</AltitudeMeters>
            <DistanceMeters>NAN</DistanceMeters>
          </Trackpoint>
          <Trackpoint>
            <Time>2021-04-02T08:54:03.000Z</Time>
            <Position>
              <LatitudeDegrees>42.3505208082497119903564453125</LatitudeDegrees>
              <LongitudeDegrees>2.601950280368328094482421875</LongitudeDegrees>
            </Position>
            <AltitudeMeters>727.4000244140625</AltitudeMeters>
            <DistanceMeters>NAN</DistanceMeters>
          </Trackpoint>
          <Trackpoint>
            <Time>2021-04-02T08:54:04.000Z</Time>
            <Position>
              <LatitudeDegrees>42.35052474774420261383056640625</LatitudeDegrees>
              <LongitudeDegrees>2.60193779133260250091552734375</LongitudeDegrees>
            </Position>
            <AltitudeMeters>727.4000244140625</AltitudeMeters>
            <DistanceMeters>NAN</DistanceMeters>
          </Trackpoint>
          <Trackpoint>
            <Time>2021-04-02T08:54:11.000Z</Time>
            <Position>
              <LatitudeDegrees>42.35050857067108154296875</LatitudeDegrees>
              <LongitudeDegrees>2.6018719933927059173583984375</LongitudeDegrees>
            </Position>
            <AltitudeMeters>728.20001220703125</AltitudeMeters>
            <DistanceMeters>NAN</DistanceMeters>
          </Trackpoint>
          <Trackpoint>
            <Time>2021-04-02T08:54:17.000Z</Time>
            <Position>
              <LatitudeDegrees>42.35043422318994998931884765625</LatitudeDegrees>
              <LongitudeDegrees>2.60185296647250652313232421875</LongitudeDegrees>
            </Position>
            <AltitudeMeters>728.4000244140625</AltitudeMeters>
            <DistanceMeters>NAN</DistanceMeters>
          </Trackpoint>
          <Trackpoint>
            <Time>2021-04-02T08:54:18.000Z</Time>
            <Position>
              <LatitudeDegrees>42.35043422318994998931884765625</LatitudeDegrees>
              <LongitudeDegrees>2.60185296647250652313232421875</LongitudeDegrees>
            </Position>
            <AltitudeMeters>728.4000244140625</AltitudeMeters>
            <DistanceMeters>NAN</DistanceMeters>
          </Trackpoint>
          <Trackpoint>
            <Time>2021-04-02T08:54:25.000Z</Time>
            <Position>
              <LatitudeDegrees>42.3503887094557285308837890625</LatitudeDegrees>
              <LongitudeDegrees>2.601731009781360626220703125</LongitudeDegrees>
            </Position>
            <AltitudeMeters>728.20001220703125</AltitudeMeters>
            <DistanceMeters>NAN</DistanceMeters>
          </Trackpoint>
          <Trackpoint>
            <Time>2021-04-02T08:54:29.000Z</Time>
            <Position>
              <LatitudeDegrees>42.35036599449813365936279296875</LatitudeDegrees>
              <LongitudeDegrees>2.6016775332391262054443359375</LongitudeDegrees>
            </Position>
            <AltitudeMeters>728.4000244140625</AltitudeMeters>
            <DistanceMeters>NAN</DistanceMeters>
          </Trackpoint>
          <Trackpoint>
            <Time>2021-04-02T08:54:31.000Z</Time>
            <Position>
              <LatitudeDegrees>42.35035291872918605804443359375</LatitudeDegrees>
              <LongitudeDegrees>2.6016476936638355255126953125</LongitudeDegrees>
            </Position>
            <AltitudeMeters>728.4000244140625</AltitudeMeters>
            <DistanceMeters>NAN</DistanceMeters>
          </Trackpoint>
          <Trackpoint>
            <Time>2021-04-02T08:54:39.000Z</Time>
            <Position>
              <LatitudeDegrees>42.350309751927852630615234375</LatitudeDegrees>
              <LongitudeDegrees>2.6015393994748592376708984375</LongitudeDegrees>
            </Position>
            <AltitudeMeters>727.79998779296875</AltitudeMeters>
            <DistanceMeters>NAN</DistanceMeters>
          </Trackpoint>
          <Trackpoint>
            <Time>2021-04-02T08:54:47.000Z</Time>
            <Position>
              <LatitudeDegrees>42.35029399394989013671875</LatitudeDegrees>
              <LongitudeDegrees>2.60141040198504924774169921875</LongitudeDegrees>
            </Position>
            <AltitudeMeters>727</AltitudeMeters>
            <DistanceMeters>NAN</DistanceMeters>
          </Trackpoint>
          <Trackpoint>
            <Time>2021-04-02T08:54:51.000Z</Time>
            <Position>
              <LatitudeDegrees>42.35028150491416454315185546875</LatitudeDegrees>
              <LongitudeDegrees>2.60135223157703876495361328125</LongitudeDegrees>
            </Position>
            <AltitudeMeters>726.5999755859375</AltitudeMeters>
            <DistanceMeters>NAN</DistanceMeters>
          </Trackpoint>
          <Trackpoint>
            <Time>2021-04-02T08:54:54.000Z</Time>
            <Position>
              <LatitudeDegrees>42.3502792418003082275390625</LatitudeDegrees>
              <LongitudeDegrees>2.60132440365850925445556640625</LongitudeDegrees>
            </Position>
            <AltitudeMeters>726.20001220703125</AltitudeMeters>
            <DistanceMeters>NAN</DistanceMeters>
          </Trackpoint>
          <Trackpoint>
            <Time>2021-04-02T08:55:00.000Z</Time>
            <Position>
              <LatitudeDegrees>42.35026524402201175689697265625</LatitudeDegrees>
              <LongitudeDegrees>2.60121460072696208953857421875</LongitudeDegrees>
            </Position>
            <AltitudeMeters>725.4000244140625</AltitudeMeters>
            <DistanceMeters>NAN</DistanceMeters>
          </Trackpoint>
          <Trackpoint>
            <Time>2021-04-02T08:55:05.000Z</Time>
            <Position>
              <LatitudeDegrees>42.35024982132017612457275390625</LatitudeDegrees>
              <LongitudeDegrees>2.6011394150555133819580078125</LongitudeDegrees>
            </Position>
            <AltitudeMeters>724.79998779296875</AltitudeMeters>
            <DistanceMeters>NAN</DistanceMeters>
          </Trackpoint>
          <Trackpoint>
            <Time>2021-04-02T08:55:09.000Z</Time>
            <Position>
              <LatitudeDegrees>42.350243367254734039306640625</LatitudeDegrees>
              <LongitudeDegrees>2.60108518414199352264404296875</LongitudeDegrees>
            </Position>
            <AltitudeMeters>724.4000244140625</AltitudeMeters>
            <DistanceMeters>NAN</DistanceMeters>
          </Trackpoint>
          <Trackpoint>
            <Time>2021-04-02T08:55:12.000Z</Time>
            <Position>
              <LatitudeDegrees>42.35023205168545246124267578125</LatitudeDegrees>
              <LongitudeDegrees>2.60103807784616947174072265625</LongitudeDegrees>
            </Position>
            <AltitudeMeters>724.20001220703125</AltitudeMeters>
            <DistanceMeters>NAN</DistanceMeters>
          </Trackpoint>
          <Trackpoint>
            <Time>2021-04-02T08:55:17.000Z</Time>
            <Position>
              <LatitudeDegrees>42.35023221932351589202880859375</LatitudeDegrees>
              <LongitudeDegrees>2.6009543426334857940673828125</LongitudeDegrees>
            </Position>
            <AltitudeMeters>723.4000244140625</AltitudeMeters>
            <DistanceMeters>NAN</DistanceMeters>
          </Trackpoint>
          <Trackpoint>
            <Time>2021-04-02T08:55:19.000Z</Time>
            <Position>
              <LatitudeDegrees>42.350227274000644683837890625</LatitudeDegrees>
              <LongitudeDegrees>2.6009273529052734375</LongitudeDegrees>
            </Position>
            <AltitudeMeters>723.4000244140625</AltitudeMeters>
            <DistanceMeters>NAN</DistanceMeters>
          </Trackpoint>
          <Trackpoint>
            <Time>2021-04-02T08:55:20.000Z</Time>
            <Position>
              <LatitudeDegrees>42.35022735781967639923095703125</LatitudeDegrees>
              <LongitudeDegrees>2.60091000236570835113525390625</LongitudeDegrees>
            </Position>
            <AltitudeMeters>723.20001220703125</AltitudeMeters>
            <DistanceMeters>NAN</DistanceMeters>
          </Trackpoint>
          <Trackpoint>
            <Time>2021-04-02T08:55:21.000Z</Time>
            <Position>
              <LatitudeDegrees>42.350229956209659576416015625</LatitudeDegrees>
              <LongitudeDegrees>2.600894160568714141845703125</LongitudeDegrees>
            </Position>
            <AltitudeMeters>723</AltitudeMeters>
            <DistanceMeters>NAN</DistanceMeters>
          </Trackpoint>
          <Trackpoint>
            <Time>2021-04-02T08:55:25.000Z</Time>
            <Position>
              <LatitudeDegrees>42.350240685045719146728515625</LatitudeDegrees>
              <LongitudeDegrees>2.6008312962949275970458984375</LongitudeDegrees>
            </Position>
            <AltitudeMeters>722.5999755859375</AltitudeMeters>
            <DistanceMeters>NAN</DistanceMeters>
          </Trackpoint>
          <Trackpoint>
            <Time>2021-04-02T08:55:30.000Z</Time>
            <Position>
              <LatitudeDegrees>42.3502458818256855010986328125</LatitudeDegrees>
              <LongitudeDegrees>2.6007478125393390655517578125</LongitudeDegrees>
            </Position>
            <AltitudeMeters>722.20001220703125</AltitudeMeters>
            <DistanceMeters>NAN</DistanceMeters>
          </Trackpoint>
          <Trackpoint>
            <Time>2021-04-02T08:55:31.000Z</Time>
            <Position>
              <LatitudeDegrees>42.350248731672763824462890625</LatitudeDegrees>
              <LongitudeDegrees>2.60072979144752025604248046875</LongitudeDegrees>
            </Position>
            <AltitudeMeters>722</AltitudeMeters>
            <DistanceMeters>NAN</DistanceMeters>
          </Trackpoint>
          <Trackpoint>
            <Time>2021-04-02T08:55:35.000Z</Time>
            <Position>
              <LatitudeDegrees>42.35023875720798969268798828125</LatitudeDegrees>
              <LongitudeDegrees>2.6006525941193103790283203125</LongitudeDegrees>
            </Position>
            <AltitudeMeters>721.4000244140625</AltitudeMeters>
            <DistanceMeters>NAN</DistanceMeters>
          </Trackpoint>
          <Trackpoint>
            <Time>2021-04-02T08:55:39.000Z</Time>
            <Position>
              <LatitudeDegrees>42.3502230830490589141845703125</LatitudeDegrees>
              <LongitudeDegrees>2.6005687750875949859619140625</LongitudeDegrees>
            </Position>
            <AltitudeMeters>721</AltitudeMeters>
            <DistanceMeters>NAN</DistanceMeters>
          </Trackpoint>
          <Trackpoint>
            <Time>2021-04-02T08:55:43.000Z</Time>
            <Position>
              <LatitudeDegrees>42.35024596564471721649169921875</LatitudeDegrees>
              <LongitudeDegrees>2.6005268655717372894287109375</LongitudeDegrees>
            </Position>
            <AltitudeMeters>721</AltitudeMeters>
            <DistanceMeters>NAN</DistanceMeters>
          </Trackpoint>
          <Trackpoint>
            <Time>2021-04-02T08:55:44.000Z</Time>
            <Position>
              <LatitudeDegrees>42.350238673388957977294921875</LatitudeDegrees>
              <LongitudeDegrees>2.60053365491330623626708984375</LongitudeDegrees>
            </Position>
            <AltitudeMeters>721</AltitudeMeters>
            <DistanceMeters>NAN</DistanceMeters>
          </Trackpoint>
          <Trackpoint>
            <Time>2021-04-02T08:55:46.000Z</Time>
            <Position>
              <LatitudeDegrees>42.350232638418674468994140625</LatitudeDegrees>
              <LongitudeDegrees>2.60055460967123508453369140625</LongitudeDegrees>
            </Position>
            <AltitudeMeters>721.20001220703125</AltitudeMeters>
            <DistanceMeters>NAN</DistanceMeters>
          </Trackpoint>
          <Trackpoint>
            <Time>2021-04-02T08:55:48.000Z</Time>
            <Position>
              <LatitudeDegrees>42.350228615105152130126953125</LatitudeDegrees>
              <LongitudeDegrees>2.600558884441852569580078125</LongitudeDegrees>
            </Position>
            <AltitudeMeters>721.4000244140625</AltitudeMeters>
            <DistanceMeters>NAN</DistanceMeters>
          </Trackpoint>
          <Trackpoint>
            <Time>2021-04-02T08:55:49.000Z</Time>
            <Position>
              <LatitudeDegrees>42.350228615105152130126953125</LatitudeDegrees>
              <LongitudeDegrees>2.6005593873560428619384765625</LongitudeDegrees>
            </Position>
            <AltitudeMeters>721.4000244140625</AltitudeMeters>
            <DistanceMeters>NAN</DistanceMeters>
          </Trackpoint>
          <Trackpoint>
            <Time>2021-04-02T08:55:51.000Z</Time>
            <Position>
              <LatitudeDegrees>42.3502282798290252685546875</LatitudeDegrees>
              <LongitudeDegrees>2.6005399413406848907470703125</LongitudeDegrees>
            </Position>
            <AltitudeMeters>721.5999755859375</AltitudeMeters>
            <DistanceMeters>NAN</DistanceMeters>
          </Trackpoint>
          <Trackpoint>
            <Time>2021-04-02T08:55:56.000Z</Time>
            <Position>
              <LatitudeDegrees>42.35024043358862400054931640625</LatitudeDegrees>
              <LongitudeDegrees>2.60052359662950038909912109375</LongitudeDegrees>
            </Position>
            <AltitudeMeters>721.79998779296875</AltitudeMeters>
            <DistanceMeters>NAN</DistanceMeters>
          </Trackpoint>
          <Trackpoint>
            <Time>2021-04-02T08:56:15.000Z</Time>
            <Position>
              <LatitudeDegrees>42.350244708359241485595703125</LatitudeDegrees>
              <LongitudeDegrees>2.600548155605792999267578125</LongitudeDegrees>
            </Position>
            <AltitudeMeters>721.79998779296875</AltitudeMeters>
            <DistanceMeters>NAN</DistanceMeters>
          </Trackpoint>
          <Trackpoint>
            <Time>2021-04-02T08:56:17.000Z</Time>
            <Position>
              <LatitudeDegrees>42.35024504363536834716796875</LatitudeDegrees>
              <LongitudeDegrees>2.600548155605792999267578125</LongitudeDegrees>
            </Position>
            <AltitudeMeters>721.79998779296875</AltitudeMeters>
            <DistanceMeters>NAN</DistanceMeters>
          </Trackpoint>
          <Trackpoint>
            <Time>2021-04-02T08:56:19.000Z</Time>
            <Position>
              <LatitudeDegrees>42.3502455465495586395263671875</LatitudeDegrees>
              <LongitudeDegrees>2.600553520023822784423828125</LongitudeDegrees>
            </Position>
            <AltitudeMeters>722</AltitudeMeters>
            <DistanceMeters>NAN</DistanceMeters>
          </Trackpoint>
          <Trackpoint>
            <Time>2021-04-02T08:56:21.000Z</Time>
            <Position>
              <LatitudeDegrees>42.35024646855890750885009765625</LatitudeDegrees>
              <LongitudeDegrees>2.60056701488792896270751953125</LongitudeDegrees>
            </Position>
            <AltitudeMeters>722.20001220703125</AltitudeMeters>
            <DistanceMeters>NAN</DistanceMeters>
          </Trackpoint>
          <Trackpoint>
            <Time>2021-04-02T08:56:22.000Z</Time>
            <Position>
              <LatitudeDegrees>42.35024680383503437042236328125</LatitudeDegrees>
              <LongitudeDegrees>2.60056785307824611663818359375</LongitudeDegrees>
            </Position>
            <AltitudeMeters>722.20001220703125</AltitudeMeters>
            <DistanceMeters>NAN</DistanceMeters>
          </Trackpoint>
          <Trackpoint>
            <Time>2021-04-02T08:56:25.000Z</Time>
            <Position>
              <LatitudeDegrees>42.35024780966341495513916015625</LatitudeDegrees>
              <LongitudeDegrees>2.60056793689727783203125</LongitudeDegrees>
            </Position>
            <AltitudeMeters>722.20001220703125</AltitudeMeters>
            <DistanceMeters>NAN</DistanceMeters>
          </Trackpoint>
          <Trackpoint>
            <Time>2021-04-02T08:56:27.000Z</Time>
            <Position>
              <LatitudeDegrees>42.3502485640347003936767578125</LatitudeDegrees>
              <LongitudeDegrees>2.60056793689727783203125</LongitudeDegrees>
            </Position>
            <AltitudeMeters>722.4000244140625</AltitudeMeters>
            <DistanceMeters>NAN</DistanceMeters>
          </Trackpoint>
          <Trackpoint>
            <Time>2021-04-02T08:56:29.000Z</Time>
            <Position>
              <LatitudeDegrees>42.35025166533887386322021484375</LatitudeDegrees>
              <LongitudeDegrees>2.60056793689727783203125</LongitudeDegrees>
            </Position>
            <AltitudeMeters>722.5999755859375</AltitudeMeters>
            <DistanceMeters>NAN</DistanceMeters>
          </Trackpoint>
          <Trackpoint>
            <Time>2021-04-02T08:56:33.000Z</Time>
            <Position>
              <LatitudeDegrees>42.3502556048333644866943359375</LatitudeDegrees>
              <LongitudeDegrees>2.60056793689727783203125</LongitudeDegrees>
            </Position>
            <AltitudeMeters>723</AltitudeMeters>
            <DistanceMeters>NAN</DistanceMeters>
          </Trackpoint>
          <Trackpoint>
            <Time>2021-04-02T08:56:35.000Z</Time>
            <Position>
              <LatitudeDegrees>42.3502556048333644866943359375</LatitudeDegrees>
              <LongitudeDegrees>2.60056793689727783203125</LongitudeDegrees>
            </Position>
            <AltitudeMeters>723.20001220703125</AltitudeMeters>
            <DistanceMeters>NAN</DistanceMeters>
          </Trackpoint>
          <Trackpoint>
            <Time>2021-04-02T08:56:39.000Z</Time>
            <Position>
              <LatitudeDegrees>42.3502556048333644866943359375</LatitudeDegrees>
              <LongitudeDegrees>2.6005543582141399383544921875</LongitudeDegrees>
            </Position>
            <AltitudeMeters>723.4000244140625</AltitudeMeters>
            <DistanceMeters>NAN</DistanceMeters>
          </Trackpoint>
          <Trackpoint>
            <Time>2021-04-02T08:56:46.000Z</Time>
            <Position>
              <LatitudeDegrees>42.350226603448390960693359375</LatitudeDegrees>
              <LongitudeDegrees>2.6004869677126407623291015625</LongitudeDegrees>
            </Position>
            <AltitudeMeters>724</AltitudeMeters>
            <DistanceMeters>NAN</DistanceMeters>
          </Trackpoint>
          <Trackpoint>
            <Time>2021-04-02T08:56:47.000Z</Time>
            <Position>
              <LatitudeDegrees>42.35021880827844142913818359375</LatitudeDegrees>
              <LongitudeDegrees>2.6004678569734096527099609375</LongitudeDegrees>
            </Position>
            <AltitudeMeters>724.20001220703125</AltitudeMeters>
            <DistanceMeters>NAN</DistanceMeters>
          </Trackpoint>
          <Trackpoint>
            <Time>2021-04-02T08:56:53.000Z</Time>
            <Position>
              <LatitudeDegrees>42.35019139945507049560546875</LatitudeDegrees>
              <LongitudeDegrees>2.60032050311565399169921875</LongitudeDegrees>
            </Position>
            <AltitudeMeters>724.79998779296875</AltitudeMeters>
            <DistanceMeters>NAN</DistanceMeters>
          </Trackpoint>
          <Trackpoint>
            <Time>2021-04-02T08:56:57.000Z</Time>
            <Position>
              <LatitudeDegrees>42.3501791618764400482177734375</LatitudeDegrees>
              <LongitudeDegrees>2.600264847278594970703125</LongitudeDegrees>
            </Position>
            <AltitudeMeters>725.20001220703125</AltitudeMeters>
            <DistanceMeters>NAN</DistanceMeters>
          </Trackpoint>
          <Trackpoint>
            <Time>2021-04-02T08:56:58.000Z</Time>
            <Position>
              <LatitudeDegrees>42.35017664730548858642578125</LatitudeDegrees>
              <LongitudeDegrees>2.60025252588093280792236328125</LongitudeDegrees>
            </Position>
            <AltitudeMeters>725.20001220703125</AltitudeMeters>
            <DistanceMeters>NAN</DistanceMeters>
          </Trackpoint>
          <Trackpoint>
            <Time>2021-04-02T08:56:59.000Z</Time>
            <Position>
              <LatitudeDegrees>42.35017220489680767059326171875</LatitudeDegrees>
              <LongitudeDegrees>2.6002385281026363372802734375</LongitudeDegrees>
            </Position>
            <AltitudeMeters>725.4000244140625</AltitudeMeters>
            <DistanceMeters>NAN</DistanceMeters>
          </Trackpoint>
          <Trackpoint>
            <Time>2021-04-02T08:57:01.000Z</Time>
            <Position>
              <LatitudeDegrees>42.3501665890216827392578125</LatitudeDegrees>
              <LongitudeDegrees>2.60021229274570941925048828125</LongitudeDegrees>
            </Position>
            <AltitudeMeters>725.5999755859375</AltitudeMeters>
            <DistanceMeters>NAN</DistanceMeters>
          </Trackpoint>
          <Trackpoint>
            <Time>2021-04-02T08:57:05.000Z</Time>
            <Position>
              <LatitudeDegrees>42.35016533173620700836181640625</LatitudeDegrees>
              <LongitudeDegrees>2.60015144012868404388427734375</LongitudeDegrees>
            </Position>
            <AltitudeMeters>725.79998779296875</AltitudeMeters>
            <DistanceMeters>NAN</DistanceMeters>
          </Trackpoint>
          <Trackpoint>
            <Time>2021-04-02T08:57:09.000Z</Time>
            <Position>
              <LatitudeDegrees>42.35016700811684131622314453125</LatitudeDegrees>
              <LongitudeDegrees>2.600098550319671630859375</LongitudeDegrees>
            </Position>
            <AltitudeMeters>726</AltitudeMeters>
            <DistanceMeters>NAN</DistanceMeters>
          </Trackpoint>
          <Trackpoint>
            <Time>2021-04-02T08:57:10.000Z</Time>
            <Position>
              <LatitudeDegrees>42.35016281716525554656982421875</LatitudeDegrees>
              <LongitudeDegrees>2.600088156759738922119140625</LongitudeDegrees>
            </Position>
            <AltitudeMeters>726</AltitudeMeters>
            <DistanceMeters>NAN</DistanceMeters>
          </Trackpoint>
          <Trackpoint>
            <Time>2021-04-02T08:57:13.000Z</Time>
            <Position>
              <LatitudeDegrees>42.35014990903437137603759765625</LatitudeDegrees>
              <LongitudeDegrees>2.6000440679490566253662109375</LongitudeDegrees>
            </Position>
            <AltitudeMeters>726</AltitudeMeters>
            <DistanceMeters>NAN</DistanceMeters>
          </Trackpoint>
          <Trackpoint>
            <Time>2021-04-02T08:57:19.000Z</Time>
            <Position>
              <LatitudeDegrees>42.35015175305306911468505859375</LatitudeDegrees>
              <LongitudeDegrees>2.59998782537877559661865234375</LongitudeDegrees>
            </Position>
            <AltitudeMeters>725.79998779296875</AltitudeMeters>
            <DistanceMeters>NAN</DistanceMeters>
          </Trackpoint>
          <Trackpoint>
            <Time>2021-04-02T08:57:24.000Z</Time>
            <Position>
              <LatitudeDegrees>42.35013683326542377471923828125</LatitudeDegrees>
              <LongitudeDegrees>2.59994071908295154571533203125</LongitudeDegrees>
            </Position>
            <AltitudeMeters>724.79998779296875</AltitudeMeters>
            <DistanceMeters>NAN</DistanceMeters>
          </Trackpoint>
          <Trackpoint>
            <Time>2021-04-02T08:57:25.000Z</Time>
            <Position>
              <LatitudeDegrees>42.35013280995190143585205078125</LatitudeDegrees>
              <LongitudeDegrees>2.5999294035136699676513671875</LongitudeDegrees>
            </Position>
            <AltitudeMeters>724.5999755859375</AltitudeMeters>
            <DistanceMeters>NAN</DistanceMeters>
          </Trackpoint>
          <Trackpoint>
            <Time>2021-04-02T08:57:28.000Z</Time>
            <Position>
              <LatitudeDegrees>42.35012694261968135833740234375</LatitudeDegrees>
              <LongitudeDegrees>2.599892355501651763916015625</LongitudeDegrees>
            </Position>
            <AltitudeMeters>724.20001220703125</AltitudeMeters>
            <DistanceMeters>NAN</DistanceMeters>
          </Trackpoint>
          <Trackpoint>
            <Time>2021-04-02T08:57:35.000Z</Time>
            <Position>
              <LatitudeDegrees>42.35012694261968135833740234375</LatitudeDegrees>
              <LongitudeDegrees>2.5998204387724399566650390625</LongitudeDegrees>
            </Position>
            <AltitudeMeters>724.20001220703125</AltitudeMeters>
            <DistanceMeters>NAN</DistanceMeters>
          </Trackpoint>
          <Trackpoint>
            <Time>2021-04-02T08:57:39.000Z</Time>
            <Position>
              <LatitudeDegrees>42.3501241765916347503662109375</LatitudeDegrees>
              <LongitudeDegrees>2.59978079237043857574462890625</LongitudeDegrees>
            </Position>
            <AltitudeMeters>724.5999755859375</AltitudeMeters>
            <DistanceMeters>NAN</DistanceMeters>
          </Trackpoint>
          <Trackpoint>
            <Time>2021-04-02T08:57:47.000Z</Time>
            <Position>
              <LatitudeDegrees>42.3501168005168437957763671875</LatitudeDegrees>
              <LongitudeDegrees>2.59971507824957370758056640625</LongitudeDegrees>
            </Position>
            <AltitudeMeters>725.20001220703125</AltitudeMeters>
            <DistanceMeters>NAN</DistanceMeters>
          </Trackpoint>
          <Trackpoint>
            <Time>2021-04-02T08:57:48.000Z</Time>
            <Position>
              <LatitudeDegrees>42.35011671669781208038330078125</LatitudeDegrees>
              <LongitudeDegrees>2.599709965288639068603515625</LongitudeDegrees>
            </Position>
            <AltitudeMeters>725.4000244140625</AltitudeMeters>
            <DistanceMeters>NAN</DistanceMeters>
          </Trackpoint>
          <Trackpoint>
            <Time>2021-04-02T08:57:51.000Z</Time>
            <Position>
              <LatitudeDegrees>42.35011889599263668060302734375</LatitudeDegrees>
              <LongitudeDegrees>2.5996900163590908050537109375</LongitudeDegrees>
            </Position>
            <AltitudeMeters>725.5999755859375</AltitudeMeters>
            <DistanceMeters>NAN</DistanceMeters>
          </Trackpoint>
          <Trackpoint>
            <Time>2021-04-02T08:57:53.000Z</Time>
            <Position>
              <LatitudeDegrees>42.350127361714839935302734375</LatitudeDegrees>
              <LongitudeDegrees>2.599668391048908233642578125</LongitudeDegrees>
            </Position>
            <AltitudeMeters>725.79998779296875</AltitudeMeters>
            <DistanceMeters>NAN</DistanceMeters>
          </Trackpoint>
          <Trackpoint>
            <Time>2021-04-02T08:57:55.000Z</Time>
            <Position>
              <LatitudeDegrees>42.35013549216091632843017578125</LatitudeDegrees>
              <LongitudeDegrees>2.59965263307094573974609375</LongitudeDegrees>
            </Position>
            <AltitudeMeters>726</AltitudeMeters>
            <DistanceMeters>NAN</DistanceMeters>
          </Trackpoint>
          <Trackpoint>
            <Time>2021-04-02T08:57:57.000Z</Time>
            <Position>
              <LatitudeDegrees>42.3501459695398807525634765625</LatitudeDegrees>
              <LongitudeDegrees>2.59963897056877613067626953125</LongitudeDegrees>
            </Position>
            <AltitudeMeters>726.20001220703125</AltitudeMeters>
            <DistanceMeters>NAN</DistanceMeters>
          </Trackpoint>
          <Trackpoint>
            <Time>2021-04-02T08:57:59.000Z</Time>
            <Position>
              <LatitudeDegrees>42.35015275888144969940185546875</LatitudeDegrees>
              <LongitudeDegrees>2.59962270967662334442138671875</LongitudeDegrees>
            </Position>
            <AltitudeMeters>726.4000244140625</AltitudeMeters>
            <DistanceMeters>NAN</DistanceMeters>
          </Trackpoint>
          <Trackpoint>
            <Time>2021-04-02T08:58:03.000Z</Time>
            <Position>
              <LatitudeDegrees>42.35015644691884517669677734375</LatitudeDegrees>
              <LongitudeDegrees>2.599599994719028472900390625</LongitudeDegrees>
            </Position>
            <AltitudeMeters>727.20001220703125</AltitudeMeters>
            <DistanceMeters>NAN</DistanceMeters>
          </Trackpoint>
          <Trackpoint>
            <Time>2021-04-02T08:58:07.000Z</Time>
            <Position>
              <LatitudeDegrees>42.3501773178577423095703125</LatitudeDegrees>
              <LongitudeDegrees>2.5995787046849727630615234375</LongitudeDegrees>
            </Position>
            <AltitudeMeters>727.4000244140625</AltitudeMeters>
            <DistanceMeters>NAN</DistanceMeters>
          </Trackpoint>
          <Trackpoint>
            <Time>2021-04-02T08:58:10.000Z</Time>
            <Position>
              <LatitudeDegrees>42.35019139945507049560546875</LatitudeDegrees>
              <LongitudeDegrees>2.59957057423889636993408203125</LongitudeDegrees>
            </Position>
            <AltitudeMeters>727.5999755859375</AltitudeMeters>
            <DistanceMeters>NAN</DistanceMeters>
          </Trackpoint>
          <Trackpoint>
            <Time>2021-04-02T08:58:17.000Z</Time>
            <Position>
              <LatitudeDegrees>42.3502173833549022674560546875</LatitudeDegrees>
              <LongitudeDegrees>2.5995565764605998992919921875</LongitudeDegrees>
            </Position>
            <AltitudeMeters>728</AltitudeMeters>
            <DistanceMeters>NAN</DistanceMeters>
          </Trackpoint>
          <Trackpoint>
            <Time>2021-04-02T08:58:19.000Z</Time>
            <Position>
              <LatitudeDegrees>42.350221574306488037109375</LatitudeDegrees>
              <LongitudeDegrees>2.59955129586160182952880859375</LongitudeDegrees>
            </Position>
            <AltitudeMeters>728.5999755859375</AltitudeMeters>
            <DistanceMeters>NAN</DistanceMeters>
          </Trackpoint>
          <Trackpoint>
            <Time>2021-04-02T08:58:22.000Z</Time>
            <Position>
              <LatitudeDegrees>42.3502338118851184844970703125</LatitudeDegrees>
              <LongitudeDegrees>2.59955029003322124481201171875</LongitudeDegrees>
            </Position>
            <AltitudeMeters>729</AltitudeMeters>
            <DistanceMeters>NAN</DistanceMeters>
          </Trackpoint>
          <Trackpoint>
            <Time>2021-04-02T08:58:25.000Z</Time>
            <Position>
              <LatitudeDegrees>42.35023758374154567718505859375</LatitudeDegrees>
              <LongitudeDegrees>2.5995554029941558837890625</LongitudeDegrees>
            </Position>
            <AltitudeMeters>729.20001220703125</AltitudeMeters>
            <DistanceMeters>NAN</DistanceMeters>
          </Trackpoint>
          <Trackpoint>
            <Time>2021-04-02T08:58:30.000Z</Time>
            <Position>
              <LatitudeDegrees>42.35023775137960910797119140625</LatitudeDegrees>
              <LongitudeDegrees>2.5995505414903163909912109375</LongitudeDegrees>
            </Position>
            <AltitudeMeters>729.20001220703125</AltitudeMeters>
            <DistanceMeters>NAN</DistanceMeters>
          </Trackpoint>
          <Trackpoint>
            <Time>2021-04-02T08:58:35.000Z</Time>
            <Position>
              <LatitudeDegrees>42.35024378634989261627197265625</LatitudeDegrees>
              <LongitudeDegrees>2.59955196641385555267333984375</LongitudeDegrees>
            </Position>
            <AltitudeMeters>729.20001220703125</AltitudeMeters>
            <DistanceMeters>NAN</DistanceMeters>
          </Trackpoint>
          <Trackpoint>
            <Time>2021-04-02T08:58:44.000Z</Time>
            <Position>
              <LatitudeDegrees>42.35024378634989261627197265625</LatitudeDegrees>
              <LongitudeDegrees>2.59955196641385555267333984375</LongitudeDegrees>
            </Position>
            <AltitudeMeters>729.20001220703125</AltitudeMeters>
            <DistanceMeters>NAN</DistanceMeters>
          </Trackpoint>
          <Trackpoint>
            <Time>2021-04-02T08:58:50.000Z</Time>
            <Position>
              <LatitudeDegrees>42.350247390568256378173828125</LatitudeDegrees>
              <LongitudeDegrees>2.5995552353560924530029296875</LongitudeDegrees>
            </Position>
            <AltitudeMeters>729.5999755859375</AltitudeMeters>
            <DistanceMeters>NAN</DistanceMeters>
          </Trackpoint>
          <Trackpoint>
            <Time>2021-04-02T08:58:55.000Z</Time>
            <Position>
              <LatitudeDegrees>42.350249402225017547607421875</LatitudeDegrees>
              <LongitudeDegrees>2.59955339133739471435546875</LongitudeDegrees>
            </Position>
            <AltitudeMeters>730</AltitudeMeters>
            <DistanceMeters>NAN</DistanceMeters>
          </Trackpoint>
          <Trackpoint>
            <Time>2021-04-02T08:59:01.000Z</Time>
            <Position>
              <LatitudeDegrees>42.35025116242468357086181640625</LatitudeDegrees>
              <LongitudeDegrees>2.59955213405191898345947265625</LongitudeDegrees>
            </Position>
            <AltitudeMeters>730.5999755859375</AltitudeMeters>
            <DistanceMeters>NAN</DistanceMeters>
          </Trackpoint>
          <Trackpoint>
            <Time>2021-04-02T08:59:11.000Z</Time>
            <Position>
              <LatitudeDegrees>42.3502643220126628875732421875</LatitudeDegrees>
              <LongitudeDegrees>2.5993751920759677886962890625</LongitudeDegrees>
            </Position>
            <AltitudeMeters>730.79998779296875</AltitudeMeters>
            <DistanceMeters>NAN</DistanceMeters>
          </Trackpoint>
          <Trackpoint>
            <Time>2021-04-02T08:59:17.000Z</Time>
            <Position>
              <LatitudeDegrees>42.3502696864306926727294921875</LatitudeDegrees>
              <LongitudeDegrees>2.59923286736011505126953125</LongitudeDegrees>
            </Position>
            <AltitudeMeters>730.79998779296875</AltitudeMeters>
            <DistanceMeters>NAN</DistanceMeters>
          </Trackpoint>
          <Trackpoint>
            <Time>2021-04-02T08:59:20.000Z</Time>
            <Position>
              <LatitudeDegrees>42.3502763919532299041748046875</LatitudeDegrees>
              <LongitudeDegrees>2.59919255040585994720458984375</LongitudeDegrees>
            </Position>
            <AltitudeMeters>730.79998779296875</AltitudeMeters>
            <DistanceMeters>NAN</DistanceMeters>
          </Trackpoint>
          <Trackpoint>
            <Time>2021-04-02T08:59:25.000Z</Time>
            <Position>
              <LatitudeDegrees>42.3502830974757671356201171875</LatitudeDegrees>
              <LongitudeDegrees>2.599142007529735565185546875</LongitudeDegrees>
            </Position>
            <AltitudeMeters>731.20001220703125</AltitudeMeters>
            <DistanceMeters>NAN</DistanceMeters>
          </Trackpoint>
          <Trackpoint>
            <Time>2021-04-02T08:59:27.000Z</Time>
            <Position>
              <LatitudeDegrees>42.35027991235256195068359375</LatitudeDegrees>
              <LongitudeDegrees>2.59912750683724880218505859375</LongitudeDegrees>
            </Position>
            <AltitudeMeters>731.20001220703125</AltitudeMeters>
            <DistanceMeters>NAN</DistanceMeters>
          </Trackpoint>
          <Trackpoint>
            <Time>2021-04-02T08:59:28.000Z</Time>
            <Position>
              <LatitudeDegrees>42.35027546994388103485107421875</LatitudeDegrees>
              <LongitudeDegrees>2.5991182029247283935546875</LongitudeDegrees>
            </Position>
            <AltitudeMeters>731.20001220703125</AltitudeMeters>
            <DistanceMeters>NAN</DistanceMeters>
          </Trackpoint>
          <Trackpoint>
            <Time>2021-04-02T08:59:30.000Z</Time>
            <Position>
              <LatitudeDegrees>42.3502653278410434722900390625</LatitudeDegrees>
              <LongitudeDegrees>2.59910219348967075347900390625</LongitudeDegrees>
            </Position>
            <AltitudeMeters>731.4000244140625</AltitudeMeters>
            <DistanceMeters>NAN</DistanceMeters>
          </Trackpoint>
          <Trackpoint>
            <Time>2021-04-02T08:59:33.000Z</Time>
            <Position>
              <LatitudeDegrees>42.3502458818256855010986328125</LatitudeDegrees>
              <LongitudeDegrees>2.59907755069434642791748046875</LongitudeDegrees>
            </Position>
            <AltitudeMeters>731.5999755859375</AltitudeMeters>
            <DistanceMeters>NAN</DistanceMeters>
          </Trackpoint>
          <Trackpoint>
            <Time>2021-04-02T08:59:35.000Z</Time>
            <Position>
              <LatitudeDegrees>42.3502314649522304534912109375</LatitudeDegrees>
              <LongitudeDegrees>2.5990596972405910491943359375</LongitudeDegrees>
            </Position>
            <AltitudeMeters>731.5999755859375</AltitudeMeters>
            <DistanceMeters>NAN</DistanceMeters>
          </Trackpoint>
          <Trackpoint>
            <Time>2021-04-02T08:59:37.000Z</Time>
            <Position>
              <LatitudeDegrees>42.35022199340164661407470703125</LatitudeDegrees>
              <LongitudeDegrees>2.5990429334342479705810546875</LongitudeDegrees>
            </Position>
            <AltitudeMeters>731.5999755859375</AltitudeMeters>
            <DistanceMeters>NAN</DistanceMeters>
          </Trackpoint>
          <Trackpoint>
            <Time>2021-04-02T08:59:44.000Z</Time>
            <Position>
              <LatitudeDegrees>42.3501905612647533416748046875</LatitudeDegrees>
              <LongitudeDegrees>2.5989634729921817779541015625</LongitudeDegrees>
            </Position>
            <AltitudeMeters>731</AltitudeMeters>
            <DistanceMeters>NAN</DistanceMeters>
          </Trackpoint>
          <Trackpoint>
            <Time>2021-04-02T08:59:47.000Z</Time>
            <Position>
              <LatitudeDegrees>42.3501826822757720947265625</LatitudeDegrees>
              <LongitudeDegrees>2.59894964285194873809814453125</LongitudeDegrees>
            </Position>
            <AltitudeMeters>731</AltitudeMeters>
            <DistanceMeters>NAN</DistanceMeters>
          </Trackpoint>
          <Trackpoint>
            <Time>2021-04-02T08:59:48.000Z</Time>
            <Position>
              <LatitudeDegrees>42.35018293373286724090576171875</LatitudeDegrees>
              <LongitudeDegrees>2.59894930757582187652587890625</LongitudeDegrees>
            </Position>
            <AltitudeMeters>731</AltitudeMeters>
            <DistanceMeters>NAN</DistanceMeters>
          </Trackpoint>
          <Trackpoint>
            <Time>2021-04-02T08:59:49.000Z</Time>
            <Position>
              <LatitudeDegrees>42.35018092207610607147216796875</LatitudeDegrees>
              <LongitudeDegrees>2.59894377551972866058349609375</LongitudeDegrees>
            </Position>
            <AltitudeMeters>731</AltitudeMeters>
            <DistanceMeters>NAN</DistanceMeters>
          </Trackpoint>
          <Trackpoint>
            <Time>2021-04-02T08:59:54.000Z</Time>
            <Position>
              <LatitudeDegrees>42.35014982521533966064453125</LatitudeDegrees>
              <LongitudeDegrees>2.59889080189168453216552734375</LongitudeDegrees>
            </Position>
            <AltitudeMeters>730.4000244140625</AltitudeMeters>
            <DistanceMeters>NAN</DistanceMeters>
          </Trackpoint>
          <Trackpoint>
            <Time>2021-04-02T08:59:59.000Z</Time>
            <Position>
              <LatitudeDegrees>42.35012308694422245025634765625</LatitudeDegrees>
              <LongitudeDegrees>2.5988320447504520416259765625</LongitudeDegrees>
            </Position>
            <AltitudeMeters>730.20001220703125</AltitudeMeters>
            <DistanceMeters>NAN</DistanceMeters>
          </Trackpoint>
          <Trackpoint>
            <Time>2021-04-02T09:00:04.000Z</Time>
            <Position>
              <LatitudeDegrees>42.35009014606475830078125</LatitudeDegrees>
              <LongitudeDegrees>2.59878099896013736724853515625</LongitudeDegrees>
            </Position>
            <AltitudeMeters>730</AltitudeMeters>
            <DistanceMeters>NAN</DistanceMeters>
          </Trackpoint>
          <Trackpoint>
            <Time>2021-04-02T09:00:14.000Z</Time>
            <Position>
              <LatitudeDegrees>42.35002753324806690216064453125</LatitudeDegrees>
              <LongitudeDegrees>2.59866147302091121673583984375</LongitudeDegrees>
            </Position>
            <AltitudeMeters>729.79998779296875</AltitudeMeters>
            <DistanceMeters>NAN</DistanceMeters>
          </Trackpoint>
          <Trackpoint>
            <Time>2021-04-02T09:00:19.000Z</Time>
            <Position>
              <LatitudeDegrees>42.3499850369989871978759765625</LatitudeDegrees>
              <LongitudeDegrees>2.5986090861260890960693359375</LongitudeDegrees>
            </Position>
            <AltitudeMeters>729.5999755859375</AltitudeMeters>
            <DistanceMeters>NAN</DistanceMeters>
          </Trackpoint>
          <Trackpoint>
            <Time>2021-04-02T09:00:26.000Z</Time>
            <Position>
              <LatitudeDegrees>42.3499305546283721923828125</LatitudeDegrees>
              <LongitudeDegrees>2.5985343195497989654541015625</LongitudeDegrees>
            </Position>
            <AltitudeMeters>728.5999755859375</AltitudeMeters>
            <DistanceMeters>NAN</DistanceMeters>
          </Trackpoint>
          <Trackpoint>
            <Time>2021-04-02T09:00:30.000Z</Time>
            <Position>
              <LatitudeDegrees>42.34989711083471775054931640625</LatitudeDegrees>
              <LongitudeDegrees>2.598484866321086883544921875</LongitudeDegrees>
            </Position>
            <AltitudeMeters>728.4000244140625</AltitudeMeters>
            <DistanceMeters>NAN</DistanceMeters>
          </Trackpoint>
          <Trackpoint>
            <Time>2021-04-02T09:00:34.000Z</Time>
            <Position>
              <LatitudeDegrees>42.34986693598330020904541015625</LatitudeDegrees>
              <LongitudeDegrees>2.5984484888613224029541015625</LongitudeDegrees>
            </Position>
            <AltitudeMeters>728.20001220703125</AltitudeMeters>
            <DistanceMeters>NAN</DistanceMeters>
          </Trackpoint>
          <Trackpoint>
            <Time>2021-04-02T09:00:35.000Z</Time>
            <Position>
              <LatitudeDegrees>42.3498629964888095855712890625</LatitudeDegrees>
              <LongitudeDegrees>2.59843700565397739410400390625</LongitudeDegrees>
            </Position>
            <AltitudeMeters>728</AltitudeMeters>
            <DistanceMeters>NAN</DistanceMeters>
          </Trackpoint>
          <Trackpoint>
            <Time>2021-04-02T09:00:46.000Z</Time>
            <Position>
              <LatitudeDegrees>42.3497815243899822235107421875</LatitudeDegrees>
              <LongitudeDegrees>2.598285712301731109619140625</LongitudeDegrees>
            </Position>
            <AltitudeMeters>727.4000244140625</AltitudeMeters>
            <DistanceMeters>NAN</DistanceMeters>
          </Trackpoint>
          <Trackpoint>
            <Time>2021-04-02T09:00:56.000Z</Time>
            <Position>
              <LatitudeDegrees>42.34971237368881702423095703125</LatitudeDegrees>
              <LongitudeDegrees>2.5981470756232738494873046875</LongitudeDegrees>
            </Position>
            <AltitudeMeters>727.20001220703125</AltitudeMeters>
            <DistanceMeters>NAN</DistanceMeters>
          </Trackpoint>
          <Trackpoint>
            <Time>2021-04-02T09:01:07.000Z</Time>
            <Position>
              <LatitudeDegrees>42.34965973533689975738525390625</LatitudeDegrees>
              <LongitudeDegrees>2.59799025021493434906005859375</LongitudeDegrees>
            </Position>
            <AltitudeMeters>726.5999755859375</AltitudeMeters>
            <DistanceMeters>NAN</DistanceMeters>
          </Trackpoint>
          <Trackpoint>
            <Time>2021-04-02T09:01:12.000Z</Time>
            <Position>
              <LatitudeDegrees>42.34965420328080654144287109375</LatitudeDegrees>
              <LongitudeDegrees>2.5979058444499969482421875</LongitudeDegrees>
            </Position>
            <AltitudeMeters>726.20001220703125</AltitudeMeters>
            <DistanceMeters>NAN</DistanceMeters>
          </Trackpoint>
          <Trackpoint>
            <Time>2021-04-02T09:01:18.000Z</Time>
            <Position>
              <LatitudeDegrees>42.349644564092159271240234375</LatitudeDegrees>
              <LongitudeDegrees>2.59780165739357471466064453125</LongitudeDegrees>
            </Position>
            <AltitudeMeters>725.79998779296875</AltitudeMeters>
            <DistanceMeters>NAN</DistanceMeters>
          </Trackpoint>
          <Trackpoint>
            <Time>2021-04-02T09:01:21.000Z</Time>
            <Position>
              <LatitudeDegrees>42.34965520910918712615966796875</LatitudeDegrees>
              <LongitudeDegrees>2.5977558083832263946533203125</LongitudeDegrees>
            </Position>
            <AltitudeMeters>725.20001220703125</AltitudeMeters>
            <DistanceMeters>NAN</DistanceMeters>
          </Trackpoint>
          <Trackpoint>
            <Time>2021-04-02T09:01:22.000Z</Time>
            <Position>
              <LatitudeDegrees>42.34966007061302661895751953125</LatitudeDegrees>
              <LongitudeDegrees>2.59774097241461277008056640625</LongitudeDegrees>
            </Position>
            <AltitudeMeters>725.20001220703125</AltitudeMeters>
            <DistanceMeters>NAN</DistanceMeters>
          </Trackpoint>
          <Trackpoint>
            <Time>2021-04-02T09:01:29.000Z</Time>
            <Position>
              <LatitudeDegrees>42.34968253411352634429931640625</LatitudeDegrees>
              <LongitudeDegrees>2.597650028765201568603515625</LongitudeDegrees>
            </Position>
            <AltitudeMeters>724.5999755859375</AltitudeMeters>
            <DistanceMeters>NAN</DistanceMeters>
          </Trackpoint>
          <Trackpoint>
            <Time>2021-04-02T09:01:36.000Z</Time>
            <Position>
              <LatitudeDegrees>42.349708937108516693115234375</LatitudeDegrees>
              <LongitudeDegrees>2.5975516252219676971435546875</LongitudeDegrees>
            </Position>
            <AltitudeMeters>724</AltitudeMeters>
            <DistanceMeters>NAN</DistanceMeters>
          </Trackpoint>
          <Trackpoint>
            <Time>2021-04-02T09:01:38.000Z</Time>
            <Position>
              <LatitudeDegrees>42.349722683429718017578125</LatitudeDegrees>
              <LongitudeDegrees>2.597523964941501617431640625</LongitudeDegrees>
            </Position>
            <AltitudeMeters>723.79998779296875</AltitudeMeters>
            <DistanceMeters>NAN</DistanceMeters>
          </Trackpoint>
          <Trackpoint>
            <Time>2021-04-02T09:01:46.000Z</Time>
            <Position>
              <LatitudeDegrees>42.3497443087399005889892578125</LatitudeDegrees>
              <LongitudeDegrees>2.5973890163004398345947265625</LongitudeDegrees>
            </Position>
            <AltitudeMeters>723</AltitudeMeters>
            <DistanceMeters>NAN</DistanceMeters>
          </Trackpoint>
          <Trackpoint>
            <Time>2021-04-02T09:01:53.000Z</Time>
            <Position>
              <LatitudeDegrees>42.34975143335759639739990234375</LatitudeDegrees>
              <LongitudeDegrees>2.5972823984920978546142578125</LongitudeDegrees>
            </Position>
            <AltitudeMeters>722.20001220703125</AltitudeMeters>
            <DistanceMeters>NAN</DistanceMeters>
          </Trackpoint>
          <Trackpoint>
            <Time>2021-04-02T09:01:55.000Z</Time>
            <Position>
              <LatitudeDegrees>42.34975017607212066650390625</LatitudeDegrees>
              <LongitudeDegrees>2.59724375791847705841064453125</LongitudeDegrees>
            </Position>
            <AltitudeMeters>722</AltitudeMeters>
            <DistanceMeters>NAN</DistanceMeters>
          </Trackpoint>
          <Trackpoint>
            <Time>2021-04-02T09:01:57.000Z</Time>
            <Position>
              <LatitudeDegrees>42.34974942170083522796630859375</LatitudeDegrees>
              <LongitudeDegrees>2.59721023030579090118408203125</LongitudeDegrees>
            </Position>
            <AltitudeMeters>721.79998779296875</AltitudeMeters>
            <DistanceMeters>NAN</DistanceMeters>
          </Trackpoint>
          <Trackpoint>
            <Time>2021-04-02T09:02:04.000Z</Time>
            <Position>
              <LatitudeDegrees>42.34974212944507598876953125</LatitudeDegrees>
              <LongitudeDegrees>2.5971234776079654693603515625</LongitudeDegrees>
            </Position>
            <AltitudeMeters>721.20001220703125</AltitudeMeters>
            <DistanceMeters>NAN</DistanceMeters>
          </Trackpoint>
          <Trackpoint>
            <Time>2021-04-02T09:02:11.000Z</Time>
            <Position>
              <LatitudeDegrees>42.34971396625041961669921875</LatitudeDegrees>
              <LongitudeDegrees>2.5970560871064662933349609375</LongitudeDegrees>
            </Position>
            <AltitudeMeters>720.5999755859375</AltitudeMeters>
            <DistanceMeters>NAN</DistanceMeters>
          </Trackpoint>
          <Trackpoint>
            <Time>2021-04-02T09:02:12.000Z</Time>
            <Position>
              <LatitudeDegrees>42.3497084341943264007568359375</LatitudeDegrees>
              <LongitudeDegrees>2.59705197997391223907470703125</LongitudeDegrees>
            </Position>
            <AltitudeMeters>720.5999755859375</AltitudeMeters>
            <DistanceMeters>NAN</DistanceMeters>
          </Trackpoint>
          <Trackpoint>
            <Time>2021-04-02T09:02:14.000Z</Time>
            <Position>
              <LatitudeDegrees>42.34970013611018657684326171875</LatitudeDegrees>
              <LongitudeDegrees>2.5970473699271678924560546875</LongitudeDegrees>
            </Position>
            <AltitudeMeters>720.5999755859375</AltitudeMeters>
            <DistanceMeters>NAN</DistanceMeters>
          </Trackpoint>
          <Trackpoint>
            <Time>2021-04-02T09:02:16.000Z</Time>
            <Position>
              <LatitudeDegrees>42.3496980406343936920166015625</LatitudeDegrees>
              <LongitudeDegrees>2.597044520080089569091796875</LongitudeDegrees>
            </Position>
            <AltitudeMeters>720.5999755859375</AltitudeMeters>
            <DistanceMeters>NAN</DistanceMeters>
          </Trackpoint>
          <Trackpoint>
            <Time>2021-04-02T09:02:21.000Z</Time>
            <Position>
              <LatitudeDegrees>42.3497047461569309234619140625</LatitudeDegrees>
              <LongitudeDegrees>2.5970383174717426300048828125</LongitudeDegrees>
            </Position>
            <AltitudeMeters>720.5999755859375</AltitudeMeters>
            <DistanceMeters>NAN</DistanceMeters>
          </Trackpoint>
          <Trackpoint>
            <Time>2021-04-02T09:02:23.000Z</Time>
            <Position>
              <LatitudeDegrees>42.349704243242740631103515625</LatitudeDegrees>
              <LongitudeDegrees>2.59703622199594974517822265625</LongitudeDegrees>
            </Position>
            <AltitudeMeters>720.5999755859375</AltitudeMeters>
            <DistanceMeters>NAN</DistanceMeters>
          </Trackpoint>
          <Trackpoint>
            <Time>2021-04-02T09:02:26.000Z</Time>
            <Position>
              <LatitudeDegrees>42.349704243242740631103515625</LatitudeDegrees>
              <LongitudeDegrees>2.59703622199594974517822265625</LongitudeDegrees>
            </Position>
            <AltitudeMeters>720.5999755859375</AltitudeMeters>
            <DistanceMeters>NAN</DistanceMeters>
          </Trackpoint>
          <Trackpoint>
            <Time>2021-04-02T09:02:32.000Z</Time>
            <Position>
              <LatitudeDegrees>42.349704243242740631103515625</LatitudeDegrees>
              <LongitudeDegrees>2.59703622199594974517822265625</LongitudeDegrees>
            </Position>
            <AltitudeMeters>720.79998779296875</AltitudeMeters>
            <DistanceMeters>NAN</DistanceMeters>
          </Trackpoint>
          <Trackpoint>
            <Time>2021-04-02T09:02:42.000Z</Time>
            <Position>
              <LatitudeDegrees>42.3497007228434085845947265625</LatitudeDegrees>
              <LongitudeDegrees>2.5970570929348468780517578125</LongitudeDegrees>
            </Position>
            <AltitudeMeters>720.5999755859375</AltitudeMeters>
            <DistanceMeters>NAN</DistanceMeters>
          </Trackpoint>
          <Trackpoint>
            <Time>2021-04-02T09:03:00.000Z</Time>
            <Position>
              <LatitudeDegrees>42.349684126675128936767578125</LatitudeDegrees>
              <LongitudeDegrees>2.59706354700028896331787109375</LongitudeDegrees>
            </Position>
            <AltitudeMeters>720.4000244140625</AltitudeMeters>
            <DistanceMeters>NAN</DistanceMeters>
          </Trackpoint>
          <Trackpoint>
            <Time>2021-04-02T09:03:11.000Z</Time>
            <Position>
              <LatitudeDegrees>42.34964800067245960235595703125</LatitudeDegrees>
              <LongitudeDegrees>2.59705365635454654693603515625</LongitudeDegrees>
            </Position>
            <AltitudeMeters>720.5999755859375</AltitudeMeters>
            <DistanceMeters>NAN</DistanceMeters>
          </Trackpoint>
          <Trackpoint>
            <Time>2021-04-02T09:03:19.000Z</Time>
            <Position>
              <LatitudeDegrees>42.3496474139392375946044921875</LatitudeDegrees>
              <LongitudeDegrees>2.59703974239528179168701171875</LongitudeDegrees>
            </Position>
            <AltitudeMeters>720.5999755859375</AltitudeMeters>
            <DistanceMeters>NAN</DistanceMeters>
          </Trackpoint>
          <Trackpoint>
            <Time>2021-04-02T09:03:38.000Z</Time>
            <Position>
              <LatitudeDegrees>42.34965688548982143402099609375</LatitudeDegrees>
              <LongitudeDegrees>2.5970443524420261383056640625</LongitudeDegrees>
            </Position>
            <AltitudeMeters>720.79998779296875</AltitudeMeters>
            <DistanceMeters>NAN</DistanceMeters>
          </Trackpoint>
          <Trackpoint>
            <Time>2021-04-02T09:34:11.000Z</Time>
            <Position>
              <LatitudeDegrees>42.35015879385173320770263671875</LatitudeDegrees>
              <LongitudeDegrees>2.59692348539829254150390625</LongitudeDegrees>
            </Position>
            <AltitudeMeters>712.20001220703125</AltitudeMeters>
            <DistanceMeters>NAN</DistanceMeters>
          </Trackpoint>
          <Trackpoint>
            <Time>2021-04-02T09:34:14.000Z</Time>
            <Position>
              <LatitudeDegrees>42.35033833421766757965087890625</LatitudeDegrees>
              <LongitudeDegrees>2.59676515124738216400146484375</LongitudeDegrees>
            </Position>
            <AltitudeMeters>712.20001220703125</AltitudeMeters>
            <DistanceMeters>NAN</DistanceMeters>
          </Trackpoint>
          <Trackpoint>
            <Time>2021-04-02T09:34:17.000Z</Time>
            <Position>
              <LatitudeDegrees>42.350140102207660675048828125</LatitudeDegrees>
              <LongitudeDegrees>2.59684813208878040313720703125</LongitudeDegrees>
            </Position>
            <AltitudeMeters>712.4000244140625</AltitudeMeters>
            <DistanceMeters>NAN</DistanceMeters>
          </Trackpoint>
          <Trackpoint>
            <Time>2021-04-02T09:34:20.000Z</Time>
            <Position>
              <LatitudeDegrees>42.35006374306976795196533203125</LatitudeDegrees>
              <LongitudeDegrees>2.59686288423836231231689453125</LongitudeDegrees>
            </Position>
            <AltitudeMeters>712.4000244140625</AltitudeMeters>
            <DistanceMeters>NAN</DistanceMeters>
          </Trackpoint>
          <Trackpoint>
            <Time>2021-04-02T09:34:21.000Z</Time>
            <Position>
              <LatitudeDegrees>42.35006592236459255218505859375</LatitudeDegrees>
              <LongitudeDegrees>2.596849389374256134033203125</LongitudeDegrees>
            </Position>
            <AltitudeMeters>712.4000244140625</AltitudeMeters>
            <DistanceMeters>NAN</DistanceMeters>
          </Trackpoint>
          <Trackpoint>
            <Time>2021-04-02T09:34:24.000Z</Time>
            <Position>
              <LatitudeDegrees>42.3499870486557483673095703125</LatitudeDegrees>
              <LongitudeDegrees>2.5968720205128192901611328125</LongitudeDegrees>
            </Position>
            <AltitudeMeters>712.20001220703125</AltitudeMeters>
            <DistanceMeters>NAN</DistanceMeters>
          </Trackpoint>
          <Trackpoint>
            <Time>2021-04-02T09:34:28.000Z</Time>
            <Position>
              <LatitudeDegrees>42.34996215440332889556884765625</LatitudeDegrees>
              <LongitudeDegrees>2.596878893673419952392578125</LongitudeDegrees>
            </Position>
            <AltitudeMeters>712</AltitudeMeters>
            <DistanceMeters>NAN</DistanceMeters>
          </Trackpoint>
          <Trackpoint>
            <Time>2021-04-02T09:34:31.000Z</Time>
            <Position>
              <LatitudeDegrees>42.34991990961134433746337890625</LatitudeDegrees>
              <LongitudeDegrees>2.59690077044069766998291015625</LongitudeDegrees>
            </Position>
            <AltitudeMeters>711.79998779296875</AltitudeMeters>
            <DistanceMeters>NAN</DistanceMeters>
          </Trackpoint>
          <Trackpoint>
            <Time>2021-04-02T09:34:42.000Z</Time>
            <Position>
              <LatitudeDegrees>42.34977020882070064544677734375</LatitudeDegrees>
              <LongitudeDegrees>2.5969739444553852081298828125</LongitudeDegrees>
            </Position>
            <AltitudeMeters>711.5999755859375</AltitudeMeters>
            <DistanceMeters>NAN</DistanceMeters>
          </Trackpoint>
          <Trackpoint>
            <Time>2021-04-02T09:34:47.000Z</Time>
            <Position>
              <LatitudeDegrees>42.34975285828113555908203125</LatitudeDegrees>
              <LongitudeDegrees>2.59697486646473407745361328125</LongitudeDegrees>
            </Position>
            <AltitudeMeters>711.5999755859375</AltitudeMeters>
            <DistanceMeters>NAN</DistanceMeters>
          </Trackpoint>
          <Trackpoint>
            <Time>2021-04-02T09:34:50.000Z</Time>
            <Position>
              <LatitudeDegrees>42.349754869937896728515625</LatitudeDegrees>
              <LongitudeDegrees>2.596981823444366455078125</LongitudeDegrees>
            </Position>
            <AltitudeMeters>711.5999755859375</AltitudeMeters>
            <DistanceMeters>NAN</DistanceMeters>
          </Trackpoint>
          <Trackpoint>
            <Time>2021-04-02T09:34:52.000Z</Time>
            <Position>
              <LatitudeDegrees>42.34972494654357433319091796875</LatitudeDegrees>
              <LongitudeDegrees>2.59701476432383060455322265625</LongitudeDegrees>
            </Position>
            <AltitudeMeters>711.5999755859375</AltitudeMeters>
            <DistanceMeters>NAN</DistanceMeters>
          </Trackpoint>
          <Trackpoint>
            <Time>2021-04-02T09:34:57.000Z</Time>
            <Position>
              <LatitudeDegrees>42.34972561709582805633544921875</LatitudeDegrees>
              <LongitudeDegrees>2.59703236632049083709716796875</LongitudeDegrees>
            </Position>
            <AltitudeMeters>711.5999755859375</AltitudeMeters>
            <DistanceMeters>NAN</DistanceMeters>
          </Trackpoint>
          <Trackpoint>
            <Time>2021-04-02T09:35:03.000Z</Time>
            <Position>
              <LatitudeDegrees>42.349727712571620941162109375</LatitudeDegrees>
              <LongitudeDegrees>2.59703571908175945281982421875</LongitudeDegrees>
            </Position>
            <AltitudeMeters>711.5999755859375</AltitudeMeters>
            <DistanceMeters>NAN</DistanceMeters>
          </Trackpoint>
          <Trackpoint>
            <Time>2021-04-02T09:35:05.000Z</Time>
            <Position>
              <LatitudeDegrees>42.3497302271425724029541015625</LatitudeDegrees>
              <LongitudeDegrees>2.597042508423328399658203125</LongitudeDegrees>
            </Position>
            <AltitudeMeters>711.5999755859375</AltitudeMeters>
            <DistanceMeters>NAN</DistanceMeters>
          </Trackpoint>
          <Trackpoint>
            <Time>2021-04-02T09:35:10.000Z</Time>
            <Position>
              <LatitudeDegrees>42.34972025267779827117919921875</LatitudeDegrees>
              <LongitudeDegrees>2.597035132348537445068359375</LongitudeDegrees>
            </Position>
            <AltitudeMeters>711.5999755859375</AltitudeMeters>
            <DistanceMeters>NAN</DistanceMeters>
          </Trackpoint>
          <Trackpoint>
            <Time>2021-04-02T09:35:16.000Z</Time>
            <Position>
              <LatitudeDegrees>42.34974070452153682708740234375</LatitudeDegrees>
              <LongitudeDegrees>2.597023062407970428466796875</LongitudeDegrees>
            </Position>
            <AltitudeMeters>711.5999755859375</AltitudeMeters>
            <DistanceMeters>NAN</DistanceMeters>
          </Trackpoint>
          <Trackpoint>
            <Time>2021-04-02T09:35:22.000Z</Time>
            <Position>
              <LatitudeDegrees>42.34975093044340610504150390625</LatitudeDegrees>
              <LongitudeDegrees>2.5970024429261684417724609375</LongitudeDegrees>
            </Position>
            <AltitudeMeters>711.5999755859375</AltitudeMeters>
            <DistanceMeters>NAN</DistanceMeters>
          </Trackpoint>
          <Trackpoint>
            <Time>2021-04-02T09:35:29.000Z</Time>
            <Position>
              <LatitudeDegrees>42.34974741004407405853271484375</LatitudeDegrees>
              <LongitudeDegrees>2.59698375128209590911865234375</LongitudeDegrees>
            </Position>
            <AltitudeMeters>711.5999755859375</AltitudeMeters>
            <DistanceMeters>NAN</DistanceMeters>
          </Trackpoint>
          <Trackpoint>
            <Time>2021-04-02T09:35:32.000Z</Time>
            <Position>
              <LatitudeDegrees>42.349692173302173614501953125</LatitudeDegrees>
              <LongitudeDegrees>2.59700336493551731109619140625</LongitudeDegrees>
            </Position>
            <AltitudeMeters>711.5999755859375</AltitudeMeters>
            <DistanceMeters>NAN</DistanceMeters>
          </Trackpoint>
          <Trackpoint>
            <Time>2021-04-02T09:35:36.000Z</Time>
            <Position>
              <LatitudeDegrees>42.34965906478464603424072265625</LatitudeDegrees>
              <LongitudeDegrees>2.596996240317821502685546875</LongitudeDegrees>
            </Position>
            <AltitudeMeters>711.5999755859375</AltitudeMeters>
            <DistanceMeters>NAN</DistanceMeters>
          </Trackpoint>
          <Trackpoint>
            <Time>2021-04-02T09:35:40.000Z</Time>
            <Position>
              <LatitudeDegrees>42.34963039867579936981201171875</LatitudeDegrees>
              <LongitudeDegrees>2.597024403512477874755859375</LongitudeDegrees>
            </Position>
            <AltitudeMeters>711.5999755859375</AltitudeMeters>
            <DistanceMeters>NAN</DistanceMeters>
          </Trackpoint>
          <Trackpoint>
            <Time>2021-04-02T09:35:42.000Z</Time>
            <Position>
              <LatitudeDegrees>42.3496194183826446533203125</LatitudeDegrees>
              <LongitudeDegrees>2.59704359807074069976806640625</LongitudeDegrees>
            </Position>
            <AltitudeMeters>711.5999755859375</AltitudeMeters>
            <DistanceMeters>NAN</DistanceMeters>
          </Trackpoint>
          <Trackpoint>
            <Time>2021-04-02T09:35:44.000Z</Time>
            <Position>
              <LatitudeDegrees>42.349623106420040130615234375</LatitudeDegrees>
              <LongitudeDegrees>2.59703303687274456024169921875</LongitudeDegrees>
            </Position>
            <AltitudeMeters>711.5999755859375</AltitudeMeters>
            <DistanceMeters>NAN</DistanceMeters>
          </Trackpoint>
          <Trackpoint>
            <Time>2021-04-02T09:35:46.000Z</Time>
            <Position>
              <LatitudeDegrees>42.349629811942577362060546875</LatitudeDegrees>
              <LongitudeDegrees>2.59702675044536590576171875</LongitudeDegrees>
            </Position>
            <AltitudeMeters>711.5999755859375</AltitudeMeters>
            <DistanceMeters>NAN</DistanceMeters>
          </Trackpoint>
          <Trackpoint>
            <Time>2021-04-02T09:35:52.000Z</Time>
            <Position>
              <LatitudeDegrees>42.34969024546444416046142578125</LatitudeDegrees>
              <LongitudeDegrees>2.59696246124804019927978515625</LongitudeDegrees>
            </Position>
            <AltitudeMeters>711</AltitudeMeters>
            <DistanceMeters>NAN</DistanceMeters>
          </Trackpoint>
          <Trackpoint>
            <Time>2021-04-02T09:35:53.000Z</Time>
            <Position>
              <LatitudeDegrees>42.34969577752053737640380859375</LatitudeDegrees>
              <LongitudeDegrees>2.5969625450670719146728515625</LongitudeDegrees>
            </Position>
            <AltitudeMeters>710.79998779296875</AltitudeMeters>
            <DistanceMeters>NAN</DistanceMeters>
          </Trackpoint>
          <Trackpoint>
            <Time>2021-04-02T09:35:54.000Z</Time>
            <Position>
              <LatitudeDegrees>42.3496990464627742767333984375</LatitudeDegrees>
              <LongitudeDegrees>2.59696329943835735321044921875</LongitudeDegrees>
            </Position>
            <AltitudeMeters>710.5999755859375</AltitudeMeters>
            <DistanceMeters>NAN</DistanceMeters>
          </Trackpoint>
          <Trackpoint>
            <Time>2021-04-02T09:35:57.000Z</Time>
            <Position>
              <LatitudeDegrees>42.349704913794994354248046875</LatitudeDegrees>
              <LongitudeDegrees>2.59696112014353275299072265625</LongitudeDegrees>
            </Position>
            <AltitudeMeters>710.4000244140625</AltitudeMeters>
            <DistanceMeters>NAN</DistanceMeters>
          </Trackpoint>
          <Trackpoint>
            <Time>2021-04-02T09:36:03.000Z</Time>
            <Position>
              <LatitudeDegrees>42.34969510696828365325927734375</LatitudeDegrees>
              <LongitudeDegrees>2.59696514345705509185791015625</LongitudeDegrees>
            </Position>
            <AltitudeMeters>710.4000244140625</AltitudeMeters>
            <DistanceMeters>NAN</DistanceMeters>
          </Trackpoint>
          <Trackpoint>
            <Time>2021-04-02T09:36:10.000Z</Time>
            <Position>
              <LatitudeDegrees>42.3496340028941631317138671875</LatitudeDegrees>
              <LongitudeDegrees>2.59701074101030826568603515625</LongitudeDegrees>
            </Position>
            <AltitudeMeters>710.79998779296875</AltitudeMeters>
            <DistanceMeters>NAN</DistanceMeters>
          </Trackpoint>
          <Trackpoint>
            <Time>2021-04-02T09:36:12.000Z</Time>
            <Position>
              <LatitudeDegrees>42.34962805174291133880615234375</LatitudeDegrees>
              <LongitudeDegrees>2.5970292650163173675537109375</LongitudeDegrees>
            </Position>
            <AltitudeMeters>711.4000244140625</AltitudeMeters>
            <DistanceMeters>NAN</DistanceMeters>
          </Trackpoint>
          <Trackpoint>
            <Time>2021-04-02T09:36:16.000Z</Time>
            <Position>
              <LatitudeDegrees>42.34962679445743560791015625</LatitudeDegrees>
              <LongitudeDegrees>2.5970537401735782623291015625</LongitudeDegrees>
            </Position>
            <AltitudeMeters>711.5999755859375</AltitudeMeters>
            <DistanceMeters>NAN</DistanceMeters>
          </Trackpoint>
          <Trackpoint>
            <Time>2021-04-02T09:36:17.000Z</Time>
            <Position>
              <LatitudeDegrees>42.3496303148567676544189453125</LatitudeDegrees>
              <LongitudeDegrees>2.5970554165542125701904296875</LongitudeDegrees>
            </Position>
            <AltitudeMeters>711.5999755859375</AltitudeMeters>
            <DistanceMeters>NAN</DistanceMeters>
          </Trackpoint>
          <Trackpoint>
            <Time>2021-04-02T09:36:18.000Z</Time>
            <Position>
              <LatitudeDegrees>42.349635846912860870361328125</LatitudeDegrees>
              <LongitudeDegrees>2.59705223143100738525390625</LongitudeDegrees>
            </Position>
            <AltitudeMeters>711.4000244140625</AltitudeMeters>
            <DistanceMeters>NAN</DistanceMeters>
          </Trackpoint>
          <Trackpoint>
            <Time>2021-04-02T09:36:23.000Z</Time>
            <Position>
              <LatitudeDegrees>42.34969443641602993011474609375</LatitudeDegrees>
              <LongitudeDegrees>2.59700889699161052703857421875</LongitudeDegrees>
            </Position>
            <AltitudeMeters>711.4000244140625</AltitudeMeters>
            <DistanceMeters>NAN</DistanceMeters>
          </Trackpoint>
          <Trackpoint>
            <Time>2021-04-02T09:36:24.000Z</Time>
            <Position>
              <LatitudeDegrees>42.34969929791986942291259765625</LatitudeDegrees>
              <LongitudeDegrees>2.59700705297291278839111328125</LongitudeDegrees>
            </Position>
            <AltitudeMeters>711.4000244140625</AltitudeMeters>
            <DistanceMeters>NAN</DistanceMeters>
          </Trackpoint>
          <Trackpoint>
            <Time>2021-04-02T09:36:32.000Z</Time>
            <Position>
              <LatitudeDegrees>42.34972394071519374847412109375</LatitudeDegrees>
              <LongitudeDegrees>2.59698593057692050933837890625</LongitudeDegrees>
            </Position>
            <AltitudeMeters>711.4000244140625</AltitudeMeters>
            <DistanceMeters>NAN</DistanceMeters>
          </Trackpoint>
          <Trackpoint>
            <Time>2021-04-02T09:36:41.000Z</Time>
            <Position>
              <LatitudeDegrees>42.34971455298364162445068359375</LatitudeDegrees>
              <LongitudeDegrees>2.59698383510112762451171875</LongitudeDegrees>
            </Position>
            <AltitudeMeters>711.4000244140625</AltitudeMeters>
            <DistanceMeters>NAN</DistanceMeters>
          </Trackpoint>
          <Trackpoint>
            <Time>2021-04-02T09:36:43.000Z</Time>
            <Position>
              <LatitudeDegrees>42.34970767982304096221923828125</LatitudeDegrees>
              <LongitudeDegrees>2.59699322283267974853515625</LongitudeDegrees>
            </Position>
            <AltitudeMeters>711.4000244140625</AltitudeMeters>
            <DistanceMeters>NAN</DistanceMeters>
          </Trackpoint>
          <Trackpoint>
            <Time>2021-04-02T09:36:45.000Z</Time>
            <Position>
              <LatitudeDegrees>42.34971170313656330108642578125</LatitudeDegrees>
              <LongitudeDegrees>2.59701057337224483489990234375</LongitudeDegrees>
            </Position>
            <AltitudeMeters>711.4000244140625</AltitudeMeters>
            <DistanceMeters>NAN</DistanceMeters>
          </Trackpoint>
          <Trackpoint>
            <Time>2021-04-02T09:36:51.000Z</Time>
            <Position>
              <LatitudeDegrees>42.34968069009482860565185546875</LatitudeDegrees>
              <LongitudeDegrees>2.59704208932816982269287109375</LongitudeDegrees>
            </Position>
            <AltitudeMeters>711.20001220703125</AltitudeMeters>
            <DistanceMeters>NAN</DistanceMeters>
          </Trackpoint>
          <Trackpoint>
            <Time>2021-04-02T09:37:00.000Z</Time>
            <Position>
              <LatitudeDegrees>42.34965956769883632659912109375</LatitudeDegrees>
              <LongitudeDegrees>2.5971164368093013763427734375</LongitudeDegrees>
            </Position>
            <AltitudeMeters>711.20001220703125</AltitudeMeters>
            <DistanceMeters>NAN</DistanceMeters>
          </Trackpoint>
          <Trackpoint>
            <Time>2021-04-02T09:37:02.000Z</Time>
            <Position>
              <LatitudeDegrees>42.34964699484407901763916015625</LatitudeDegrees>
              <LongitudeDegrees>2.597139067947864532470703125</LongitudeDegrees>
            </Position>
            <AltitudeMeters>711.20001220703125</AltitudeMeters>
            <DistanceMeters>NAN</DistanceMeters>
          </Trackpoint>
          <Trackpoint>
            <Time>2021-04-02T09:37:08.000Z</Time>
            <Position>
              <LatitudeDegrees>42.34962218441069126129150390625</LatitudeDegrees>
              <LongitudeDegrees>2.59719162248075008392333984375</LongitudeDegrees>
            </Position>
            <AltitudeMeters>711.20001220703125</AltitudeMeters>
            <DistanceMeters>NAN</DistanceMeters>
          </Trackpoint>
          <Trackpoint>
            <Time>2021-04-02T09:37:14.000Z</Time>
            <Position>
              <LatitudeDegrees>42.34956736676394939422607421875</LatitudeDegrees>
              <LongitudeDegrees>2.59725716896355152130126953125</LongitudeDegrees>
            </Position>
            <AltitudeMeters>711.20001220703125</AltitudeMeters>
            <DistanceMeters>NAN</DistanceMeters>
          </Trackpoint>
          <Trackpoint>
            <Time>2021-04-02T09:37:15.000Z</Time>
            <Position>
              <LatitudeDegrees>42.34955630265176296234130859375</LatitudeDegrees>
              <LongitudeDegrees>2.59726689197123050689697265625</LongitudeDegrees>
            </Position>
            <AltitudeMeters>711.20001220703125</AltitudeMeters>
            <DistanceMeters>NAN</DistanceMeters>
          </Trackpoint>
          <Trackpoint>
            <Time>2021-04-02T09:37:16.000Z</Time>
            <Position>
              <LatitudeDegrees>42.3495478369295597076416015625</LatitudeDegrees>
              <LongitudeDegrees>2.597276866436004638671875</LongitudeDegrees>
            </Position>
            <AltitudeMeters>711.20001220703125</AltitudeMeters>
            <DistanceMeters>NAN</DistanceMeters>
          </Trackpoint>
          <Trackpoint>
            <Time>2021-04-02T09:37:21.000Z</Time>
            <Position>
              <LatitudeDegrees>42.34951808117330074310302734375</LatitudeDegrees>
              <LongitudeDegrees>2.59731500409543514251708984375</LongitudeDegrees>
            </Position>
            <AltitudeMeters>711</AltitudeMeters>
            <DistanceMeters>NAN</DistanceMeters>
          </Trackpoint>
          <Trackpoint>
            <Time>2021-04-02T09:37:22.000Z</Time>
            <Position>
              <LatitudeDegrees>42.34951187856495380401611328125</LatitudeDegrees>
              <LongitudeDegrees>2.5973211228847503662109375</LongitudeDegrees>
            </Position>
            <AltitudeMeters>711</AltitudeMeters>
            <DistanceMeters>NAN</DistanceMeters>
          </Trackpoint>
          <Trackpoint>
            <Time>2021-04-02T09:37:23.000Z</Time>
            <Position>
              <LatitudeDegrees>42.3495086096227169036865234375</LatitudeDegrees>
              <LongitudeDegrees>2.59733059443533420562744140625</LongitudeDegrees>
            </Position>
            <AltitudeMeters>711</AltitudeMeters>
            <DistanceMeters>NAN</DistanceMeters>
          </Trackpoint>
          <Trackpoint>
            <Time>2021-04-02T09:37:24.000Z</Time>
            <Position>
              <LatitudeDegrees>42.34950517304241657257080078125</LatitudeDegrees>
              <LongitudeDegrees>2.59733763523399829864501953125</LongitudeDegrees>
            </Position>
            <AltitudeMeters>711</AltitudeMeters>
            <DistanceMeters>NAN</DistanceMeters>
          </Trackpoint>
          <Trackpoint>
            <Time>2021-04-02T09:37:27.000Z</Time>
            <Position>
              <LatitudeDegrees>42.34949394129216670989990234375</LatitudeDegrees>
              <LongitudeDegrees>2.59735221974551677703857421875</LongitudeDegrees>
            </Position>
            <AltitudeMeters>711.20001220703125</AltitudeMeters>
            <DistanceMeters>NAN</DistanceMeters>
          </Trackpoint>
          <Trackpoint>
            <Time>2021-04-02T09:37:28.000Z</Time>
            <Position>
              <LatitudeDegrees>42.3494908399879932403564453125</LatitudeDegrees>
              <LongitudeDegrees>2.59735858999192714691162109375</LongitudeDegrees>
            </Position>
            <AltitudeMeters>711.20001220703125</AltitudeMeters>
            <DistanceMeters>NAN</DistanceMeters>
          </Trackpoint>
          <Trackpoint>
            <Time>2021-04-02T09:37:29.000Z</Time>
            <Position>
              <LatitudeDegrees>42.3494871519505977630615234375</LatitudeDegrees>
              <LongitudeDegrees>2.5973613560199737548828125</LongitudeDegrees>
            </Position>
            <AltitudeMeters>711.20001220703125</AltitudeMeters>
            <DistanceMeters>NAN</DistanceMeters>
          </Trackpoint>
          <Trackpoint>
            <Time>2021-04-02T09:37:33.000Z</Time>
            <Position>
              <LatitudeDegrees>42.34946359880268573760986328125</LatitudeDegrees>
              <LongitudeDegrees>2.59739362634718418121337890625</LongitudeDegrees>
            </Position>
            <AltitudeMeters>711.20001220703125</AltitudeMeters>
            <DistanceMeters>NAN</DistanceMeters>
          </Trackpoint>
          <Trackpoint>
            <Time>2021-04-02T09:37:35.000Z</Time>
            <Position>
              <LatitudeDegrees>42.34945354051887989044189453125</LatitudeDegrees>
              <LongitudeDegrees>2.59740494191646575927734375</LongitudeDegrees>
            </Position>
            <AltitudeMeters>711.4000244140625</AltitudeMeters>
            <DistanceMeters>NAN</DistanceMeters>
          </Trackpoint>
          <Trackpoint>
            <Time>2021-04-02T09:37:42.000Z</Time>
            <Position>
              <LatitudeDegrees>42.34939486719667911529541015625</LatitudeDegrees>
              <LongitudeDegrees>2.59749135933816432952880859375</LongitudeDegrees>
            </Position>
            <AltitudeMeters>711.5999755859375</AltitudeMeters>
            <DistanceMeters>NAN</DistanceMeters>
          </Trackpoint>
          <Trackpoint>
            <Time>2021-04-02T09:37:46.000Z</Time>
            <Position>
              <LatitudeDegrees>42.34937793575227260589599609375</LatitudeDegrees>
              <LongitudeDegrees>2.59751700796186923980712890625</LongitudeDegrees>
            </Position>
            <AltitudeMeters>711.79998779296875</AltitudeMeters>
            <DistanceMeters>NAN</DistanceMeters>
          </Trackpoint>
          <Trackpoint>
            <Time>2021-04-02T09:37:51.000Z</Time>
            <Position>
              <LatitudeDegrees>42.34935899265110492706298828125</LatitudeDegrees>
              <LongitudeDegrees>2.59754299186170101165771484375</LongitudeDegrees>
            </Position>
            <AltitudeMeters>711.79998779296875</AltitudeMeters>
            <DistanceMeters>NAN</DistanceMeters>
          </Trackpoint>
          <Trackpoint>
            <Time>2021-04-02T09:37:58.000Z</Time>
            <Position>
              <LatitudeDegrees>42.34932345338165760040283203125</LatitudeDegrees>
              <LongitudeDegrees>2.5976025871932506561279296875</LongitudeDegrees>
            </Position>
            <AltitudeMeters>712</AltitudeMeters>
            <DistanceMeters>NAN</DistanceMeters>
          </Trackpoint>
          <Trackpoint>
            <Time>2021-04-02T09:38:07.000Z</Time>
            <Position>
              <LatitudeDegrees>42.349289841949939727783203125</LatitudeDegrees>
              <LongitudeDegrees>2.59764474816620349884033203125</LongitudeDegrees>
            </Position>
            <AltitudeMeters>711.79998779296875</AltitudeMeters>
            <DistanceMeters>NAN</DistanceMeters>
          </Trackpoint>
          <Trackpoint>
            <Time>2021-04-02T09:38:15.000Z</Time>
            <Position>
              <LatitudeDegrees>42.34921348281204700469970703125</LatitudeDegrees>
              <LongitudeDegrees>2.59774851612746715545654296875</LongitudeDegrees>
            </Position>
            <AltitudeMeters>712</AltitudeMeters>
            <DistanceMeters>NAN</DistanceMeters>
          </Trackpoint>
          <Trackpoint>
            <Time>2021-04-02T09:38:19.000Z</Time>
            <Position>
              <LatitudeDegrees>42.34919973649084568023681640625</LatitudeDegrees>
              <LongitudeDegrees>2.597774751484394073486328125</LongitudeDegrees>
            </Position>
            <AltitudeMeters>712.4000244140625</AltitudeMeters>
            <DistanceMeters>NAN</DistanceMeters>
          </Trackpoint>
          <Trackpoint>
            <Time>2021-04-02T09:38:22.000Z</Time>
            <Position>
              <LatitudeDegrees>42.34918498434126377105712890625</LatitudeDegrees>
              <LongitudeDegrees>2.59780132211744785308837890625</LongitudeDegrees>
            </Position>
            <AltitudeMeters>712.5999755859375</AltitudeMeters>
            <DistanceMeters>NAN</DistanceMeters>
          </Trackpoint>
          <Trackpoint>
            <Time>2021-04-02T09:38:25.000Z</Time>
            <Position>
              <LatitudeDegrees>42.34916545450687408447265625</LatitudeDegrees>
              <LongitudeDegrees>2.59783870540559291839599609375</LongitudeDegrees>
            </Position>
            <AltitudeMeters>713</AltitudeMeters>
            <DistanceMeters>NAN</DistanceMeters>
          </Trackpoint>
          <Trackpoint>
            <Time>2021-04-02T09:38:27.000Z</Time>
            <Position>
              <LatitudeDegrees>42.349152378737926483154296875</LatitudeDegrees>
              <LongitudeDegrees>2.5978634320199489593505859375</LongitudeDegrees>
            </Position>
            <AltitudeMeters>713.20001220703125</AltitudeMeters>
            <DistanceMeters>NAN</DistanceMeters>
          </Trackpoint>
          <Trackpoint>
            <Time>2021-04-02T09:38:28.000Z</Time>
            <Position>
              <LatitudeDegrees>42.34914927743375301361083984375</LatitudeDegrees>
              <LongitudeDegrees>2.59787323884665966033935546875</LongitudeDegrees>
            </Position>
            <AltitudeMeters>713.20001220703125</AltitudeMeters>
            <DistanceMeters>NAN</DistanceMeters>
          </Trackpoint>
          <Trackpoint>
            <Time>2021-04-02T09:38:31.000Z</Time>
            <Position>
              <LatitudeDegrees>42.34913854859769344329833984375</LatitudeDegrees>
              <LongitudeDegrees>2.59791313670575618743896484375</LongitudeDegrees>
            </Position>
            <AltitudeMeters>713.4000244140625</AltitudeMeters>
            <DistanceMeters>NAN</DistanceMeters>
          </Trackpoint>
          <Trackpoint>
            <Time>2021-04-02T09:38:32.000Z</Time>
            <Position>
              <LatitudeDegrees>42.34913636930286884307861328125</LatitudeDegrees>
              <LongitudeDegrees>2.59792864322662353515625</LongitudeDegrees>
            </Position>
            <AltitudeMeters>713.20001220703125</AltitudeMeters>
            <DistanceMeters>NAN</DistanceMeters>
          </Trackpoint>
          <Trackpoint>
            <Time>2021-04-02T09:38:36.000Z</Time>
            <Position>
              <LatitudeDegrees>42.34912128187716007232666015625</LatitudeDegrees>
              <LongitudeDegrees>2.5979760847985744476318359375</LongitudeDegrees>
            </Position>
            <AltitudeMeters>713.20001220703125</AltitudeMeters>
            <DistanceMeters>NAN</DistanceMeters>
          </Trackpoint>
          <Trackpoint>
            <Time>2021-04-02T09:38:38.000Z</Time>
            <Position>
              <LatitudeDegrees>42.34911373816430568695068359375</LatitudeDegrees>
              <LongitudeDegrees>2.597996704280376434326171875</LongitudeDegrees>
            </Position>
            <AltitudeMeters>713.4000244140625</AltitudeMeters>
            <DistanceMeters>NAN</DistanceMeters>
          </Trackpoint>
          <Trackpoint>
            <Time>2021-04-02T09:38:41.000Z</Time>
            <Position>
              <LatitudeDegrees>42.34909144230186939239501953125</LatitudeDegrees>
              <LongitudeDegrees>2.5980431400239467620849609375</LongitudeDegrees>
            </Position>
            <AltitudeMeters>713.5999755859375</AltitudeMeters>
            <DistanceMeters>NAN</DistanceMeters>
          </Trackpoint>
          <Trackpoint>
            <Time>2021-04-02T09:38:45.000Z</Time>
            <Position>
              <LatitudeDegrees>42.34907560050487518310546875</LatitudeDegrees>
              <LongitudeDegrees>2.59810575284063816070556640625</LongitudeDegrees>
            </Position>
            <AltitudeMeters>713.5999755859375</AltitudeMeters>
            <DistanceMeters>NAN</DistanceMeters>
          </Trackpoint>
          <Trackpoint>
            <Time>2021-04-02T09:38:46.000Z</Time>
            <Position>
              <LatitudeDegrees>42.349071912467479705810546875</LatitudeDegrees>
              <LongitudeDegrees>2.59811799041926860809326171875</LongitudeDegrees>
            </Position>
            <AltitudeMeters>713.5999755859375</AltitudeMeters>
            <DistanceMeters>NAN</DistanceMeters>
          </Trackpoint>
          <Trackpoint>
            <Time>2021-04-02T09:38:49.000Z</Time>
            <Position>
              <LatitudeDegrees>42.34906042926013469696044921875</LatitudeDegrees>
              <LongitudeDegrees>2.59815721772611141204833984375</LongitudeDegrees>
            </Position>
            <AltitudeMeters>714</AltitudeMeters>
            <DistanceMeters>NAN</DistanceMeters>
          </Trackpoint>
          <Trackpoint>
            <Time>2021-04-02T09:38:50.000Z</Time>
            <Position>
              <LatitudeDegrees>42.34905959106981754302978515625</LatitudeDegrees>
              <LongitudeDegrees>2.59816803038120269775390625</LongitudeDegrees>
            </Position>
            <AltitudeMeters>714</AltitudeMeters>
            <DistanceMeters>NAN</DistanceMeters>
          </Trackpoint>
          <Trackpoint>
            <Time>2021-04-02T09:38:51.000Z</Time>
            <Position>
              <LatitudeDegrees>42.3490588366985321044921875</LatitudeDegrees>
              <LongitudeDegrees>2.59818068705499172210693359375</LongitudeDegrees>
            </Position>
            <AltitudeMeters>714.20001220703125</AltitudeMeters>
            <DistanceMeters>NAN</DistanceMeters>
          </Trackpoint>
          <Trackpoint>
            <Time>2021-04-02T09:38:57.000Z</Time>
            <Position>
              <LatitudeDegrees>42.3490338586270809173583984375</LatitudeDegrees>
              <LongitudeDegrees>2.59826953522861003875732421875</LongitudeDegrees>
            </Position>
            <AltitudeMeters>714.79998779296875</AltitudeMeters>
            <DistanceMeters>NAN</DistanceMeters>
          </Trackpoint>
          <Trackpoint>
            <Time>2021-04-02T09:38:59.000Z</Time>
            <Position>
              <LatitudeDegrees>42.349025644361972808837890625</LatitudeDegrees>
              <LongitudeDegrees>2.5982986204326152801513671875</LongitudeDegrees>
            </Position>
            <AltitudeMeters>715</AltitudeMeters>
            <DistanceMeters>NAN</DistanceMeters>
          </Trackpoint>
          <Trackpoint>
            <Time>2021-04-02T09:39:00.000Z</Time>
            <Position>
              <LatitudeDegrees>42.3490278236567974090576171875</LatitudeDegrees>
              <LongitudeDegrees>2.59830591268837451934814453125</LongitudeDegrees>
            </Position>
            <AltitudeMeters>715.20001220703125</AltitudeMeters>
            <DistanceMeters>NAN</DistanceMeters>
          </Trackpoint>
          <Trackpoint>
            <Time>2021-04-02T09:39:03.000Z</Time>
            <Position>
              <LatitudeDegrees>42.34903209842741489410400390625</LatitudeDegrees>
              <LongitudeDegrees>2.59834371507167816162109375</LongitudeDegrees>
            </Position>
            <AltitudeMeters>715.20001220703125</AltitudeMeters>
            <DistanceMeters>NAN</DistanceMeters>
          </Trackpoint>
          <Trackpoint>
            <Time>2021-04-02T09:39:05.000Z</Time>
            <Position>
              <LatitudeDegrees>42.34903494827449321746826171875</LatitudeDegrees>
              <LongitudeDegrees>2.59836626239120960235595703125</LongitudeDegrees>
            </Position>
            <AltitudeMeters>714.79998779296875</AltitudeMeters>
            <DistanceMeters>NAN</DistanceMeters>
          </Trackpoint>
          <Trackpoint>
            <Time>2021-04-02T09:39:06.000Z</Time>
            <Position>
              <LatitudeDegrees>42.34902790747582912445068359375</LatitudeDegrees>
              <LongitudeDegrees>2.59837900288403034210205078125</LongitudeDegrees>
            </Position>
            <AltitudeMeters>714.79998779296875</AltitudeMeters>
            <DistanceMeters>NAN</DistanceMeters>
          </Trackpoint>
          <Trackpoint>
            <Time>2021-04-02T09:39:08.000Z</Time>
            <Position>
              <LatitudeDegrees>42.3490194417536258697509765625</LatitudeDegrees>
              <LongitudeDegrees>2.59839526377618312835693359375</LongitudeDegrees>
            </Position>
            <AltitudeMeters>715</AltitudeMeters>
            <DistanceMeters>NAN</DistanceMeters>
          </Trackpoint>
          <Trackpoint>
            <Time>2021-04-02T09:39:12.000Z</Time>
            <Position>
              <LatitudeDegrees>42.3490137420594692230224609375</LatitudeDegrees>
              <LongitudeDegrees>2.5984545238316059112548828125</LongitudeDegrees>
            </Position>
            <AltitudeMeters>716</AltitudeMeters>
            <DistanceMeters>NAN</DistanceMeters>
          </Trackpoint>
          <Trackpoint>
            <Time>2021-04-02T09:39:13.000Z</Time>
            <Position>
              <LatitudeDegrees>42.3490103892982006072998046875</LatitudeDegrees>
              <LongitudeDegrees>2.59846969507634639739990234375</LongitudeDegrees>
            </Position>
            <AltitudeMeters>716.20001220703125</AltitudeMeters>
            <DistanceMeters>NAN</DistanceMeters>
          </Trackpoint>
          <Trackpoint>
            <Time>2021-04-02T09:39:14.000Z</Time>
            <Position>
              <LatitudeDegrees>42.349006198346614837646484375</LatitudeDegrees>
              <LongitudeDegrees>2.5984825193881988525390625</LongitudeDegrees>
            </Position>
            <AltitudeMeters>716.20001220703125</AltitudeMeters>
            <DistanceMeters>NAN</DistanceMeters>
          </Trackpoint>
          <Trackpoint>
            <Time>2021-04-02T09:39:16.000Z</Time>
            <Position>
              <LatitudeDegrees>42.34900452196598052978515625</LatitudeDegrees>
              <LongitudeDegrees>2.59851344861090183258056640625</LongitudeDegrees>
            </Position>
            <AltitudeMeters>716.4000244140625</AltitudeMeters>
            <DistanceMeters>NAN</DistanceMeters>
          </Trackpoint>
          <Trackpoint>
            <Time>2021-04-02T09:39:19.000Z</Time>
            <Position>
              <LatitudeDegrees>42.3489815555512905120849609375</LatitudeDegrees>
              <LongitudeDegrees>2.59857161901891231536865234375</LongitudeDegrees>
            </Position>
            <AltitudeMeters>716.79998779296875</AltitudeMeters>
            <DistanceMeters>NAN</DistanceMeters>
          </Trackpoint>
          <Trackpoint>
            <Time>2021-04-02T09:39:21.000Z</Time>
            <Position>
              <LatitudeDegrees>42.34900007955729961395263671875</LatitudeDegrees>
              <LongitudeDegrees>2.59860665537416934967041015625</LongitudeDegrees>
            </Position>
            <AltitudeMeters>717.20001220703125</AltitudeMeters>
            <DistanceMeters>NAN</DistanceMeters>
          </Trackpoint>
          <Trackpoint>
            <Time>2021-04-02T09:39:23.000Z</Time>
            <Position>
              <LatitudeDegrees>42.34900477342307567596435546875</LatitudeDegrees>
              <LongitudeDegrees>2.5986278615891933441162109375</LongitudeDegrees>
            </Position>
            <AltitudeMeters>717.4000244140625</AltitudeMeters>
            <DistanceMeters>NAN</DistanceMeters>
          </Trackpoint>
          <Trackpoint>
            <Time>2021-04-02T09:39:26.000Z</Time>
            <Position>
              <LatitudeDegrees>42.3490070365369319915771484375</LatitudeDegrees>
              <LongitudeDegrees>2.59865644387900829315185546875</LongitudeDegrees>
            </Position>
            <AltitudeMeters>717.5999755859375</AltitudeMeters>
            <DistanceMeters>NAN</DistanceMeters>
          </Trackpoint>
          <Trackpoint>
            <Time>2021-04-02T09:39:33.000Z</Time>
            <Position>
              <LatitudeDegrees>42.34897367656230926513671875</LatitudeDegrees>
              <LongitudeDegrees>2.59871897287666797637939453125</LongitudeDegrees>
            </Position>
            <AltitudeMeters>718.20001220703125</AltitudeMeters>
            <DistanceMeters>NAN</DistanceMeters>
          </Trackpoint>
          <Trackpoint>
            <Time>2021-04-02T09:39:34.000Z</Time>
            <Position>
              <LatitudeDegrees>42.34897141344845294952392578125</LatitudeDegrees>
              <LongitudeDegrees>2.5987301208078861236572265625</LongitudeDegrees>
            </Position>
            <AltitudeMeters>718.4000244140625</AltitudeMeters>
            <DistanceMeters>NAN</DistanceMeters>
          </Trackpoint>
          <Trackpoint>
            <Time>2021-04-02T09:39:37.000Z</Time>
            <Position>
              <LatitudeDegrees>42.348962612450122833251953125</LatitudeDegrees>
              <LongitudeDegrees>2.59875945746898651123046875</LongitudeDegrees>
            </Position>
            <AltitudeMeters>718.5999755859375</AltitudeMeters>
            <DistanceMeters>NAN</DistanceMeters>
          </Trackpoint>
          <Trackpoint>
            <Time>2021-04-02T09:39:38.000Z</Time>
            <Position>
              <LatitudeDegrees>42.3489600978791713714599609375</LatitudeDegrees>
              <LongitudeDegrees>2.5987683422863483428955078125</LongitudeDegrees>
            </Position>
            <AltitudeMeters>718.5999755859375</AltitudeMeters>
            <DistanceMeters>NAN</DistanceMeters>
          </Trackpoint>
          <Trackpoint>
            <Time>2021-04-02T09:39:40.000Z</Time>
            <Position>
              <LatitudeDegrees>42.34895029105246067047119140625</LatitudeDegrees>
              <LongitudeDegrees>2.59879239834845066070556640625</LongitudeDegrees>
            </Position>
            <AltitudeMeters>718.79998779296875</AltitudeMeters>
            <DistanceMeters>NAN</DistanceMeters>
          </Trackpoint>
          <Trackpoint>
            <Time>2021-04-02T09:39:47.000Z</Time>
            <Position>
              <LatitudeDegrees>42.348925732076168060302734375</LatitudeDegrees>
              <LongitudeDegrees>2.59886733256280422210693359375</LongitudeDegrees>
            </Position>
            <AltitudeMeters>719.4000244140625</AltitudeMeters>
            <DistanceMeters>NAN</DistanceMeters>
          </Trackpoint>
          <Trackpoint>
            <Time>2021-04-02T09:39:49.000Z</Time>
            <Position>
              <LatitudeDegrees>42.34893486835062503814697265625</LatitudeDegrees>
              <LongitudeDegrees>2.5988930650055408477783203125</LongitudeDegrees>
            </Position>
            <AltitudeMeters>719.5999755859375</AltitudeMeters>
            <DistanceMeters>NAN</DistanceMeters>
          </Trackpoint>
          <Trackpoint>
            <Time>2021-04-02T09:39:52.000Z</Time>
            <Position>
              <LatitudeDegrees>42.348936460912227630615234375</LatitudeDegrees>
              <LongitudeDegrees>2.59894360788166522979736328125</LongitudeDegrees>
            </Position>
            <AltitudeMeters>720</AltitudeMeters>
            <DistanceMeters>NAN</DistanceMeters>
          </Trackpoint>
          <Trackpoint>
            <Time>2021-04-02T09:39:53.000Z</Time>
            <Position>
              <LatitudeDegrees>42.34893486835062503814697265625</LatitudeDegrees>
              <LongitudeDegrees>2.59895836003124713897705078125</LongitudeDegrees>
            </Position>
            <AltitudeMeters>720</AltitudeMeters>
            <DistanceMeters>NAN</DistanceMeters>
          </Trackpoint>
          <Trackpoint>
            <Time>2021-04-02T09:39:56.000Z</Time>
            <Position>
              <LatitudeDegrees>42.34894241206347942352294921875</LatitudeDegrees>
              <LongitudeDegrees>2.59899691678583621978759765625</LongitudeDegrees>
            </Position>
            <AltitudeMeters>720.4000244140625</AltitudeMeters>
            <DistanceMeters>NAN</DistanceMeters>
          </Trackpoint>
          <Trackpoint>
            <Time>2021-04-02T09:39:57.000Z</Time>
            <Position>
              <LatitudeDegrees>42.3489349521696567535400390625</LatitudeDegrees>
              <LongitudeDegrees>2.599011249840259552001953125</LongitudeDegrees>
            </Position>
            <AltitudeMeters>720.4000244140625</AltitudeMeters>
            <DistanceMeters>NAN</DistanceMeters>
          </Trackpoint>
          <Trackpoint>
            <Time>2021-04-02T09:39:58.000Z</Time>
            <Position>
              <LatitudeDegrees>42.34892497770488262176513671875</LatitudeDegrees>
              <LongitudeDegrees>2.599024660885334014892578125</LongitudeDegrees>
            </Position>
            <AltitudeMeters>720.5999755859375</AltitudeMeters>
            <DistanceMeters>NAN</DistanceMeters>
          </Trackpoint>
          <Trackpoint>
            <Time>2021-04-02T09:40:00.000Z</Time>
            <Position>
              <LatitudeDegrees>42.3489121533930301666259765625</LatitudeDegrees>
              <LongitudeDegrees>2.59904905222356319427490234375</LongitudeDegrees>
            </Position>
            <AltitudeMeters>720.79998779296875</AltitudeMeters>
            <DistanceMeters>NAN</DistanceMeters>
          </Trackpoint>
          <Trackpoint>
            <Time>2021-04-02T09:40:03.000Z</Time>
            <Position>
              <LatitudeDegrees>42.3488853313028812408447265625</LatitudeDegrees>
              <LongitudeDegrees>2.59907302446663379669189453125</LongitudeDegrees>
            </Position>
            <AltitudeMeters>721.5999755859375</AltitudeMeters>
            <DistanceMeters>NAN</DistanceMeters>
          </Trackpoint>
          <Trackpoint>
            <Time>2021-04-02T09:40:04.000Z</Time>
            <Position>
              <LatitudeDegrees>42.34887636266648769378662109375</LatitudeDegrees>
              <LongitudeDegrees>2.59908006526529788970947265625</LongitudeDegrees>
            </Position>
            <AltitudeMeters>721.79998779296875</AltitudeMeters>
            <DistanceMeters>NAN</DistanceMeters>
          </Trackpoint>
          <Trackpoint>
            <Time>2021-04-02T09:40:10.000Z</Time>
            <Position>
              <LatitudeDegrees>42.34882724471390247344970703125</LatitudeDegrees>
              <LongitudeDegrees>2.599174194037914276123046875</LongitudeDegrees>
            </Position>
            <AltitudeMeters>722</AltitudeMeters>
            <DistanceMeters>NAN</DistanceMeters>
          </Trackpoint>
          <Trackpoint>
            <Time>2021-04-02T09:40:11.000Z</Time>
            <Position>
              <LatitudeDegrees>42.34882481396198272705078125</LatitudeDegrees>
              <LongitudeDegrees>2.59918651543557643890380859375</LongitudeDegrees>
            </Position>
            <AltitudeMeters>722</AltitudeMeters>
            <DistanceMeters>NAN</DistanceMeters>
          </Trackpoint>
          <Trackpoint>
            <Time>2021-04-02T09:40:21.000Z</Time>
            <Position>
              <LatitudeDegrees>42.34880545176565647125244140625</LatitudeDegrees>
              <LongitudeDegrees>2.5993031077086925506591796875</LongitudeDegrees>
            </Position>
            <AltitudeMeters>722.5999755859375</AltitudeMeters>
            <DistanceMeters>NAN</DistanceMeters>
          </Trackpoint>
          <Trackpoint>
            <Time>2021-04-02T09:40:22.000Z</Time>
            <Position>
              <LatitudeDegrees>42.348780222237110137939453125</LatitudeDegrees>
              <LongitudeDegrees>2.5993249006569385528564453125</LongitudeDegrees>
            </Position>
            <AltitudeMeters>722.5999755859375</AltitudeMeters>
            <DistanceMeters>NAN</DistanceMeters>
          </Trackpoint>
          <Trackpoint>
            <Time>2021-04-02T09:40:25.000Z</Time>
            <Position>
              <LatitudeDegrees>42.348724566400051116943359375</LatitudeDegrees>
              <LongitudeDegrees>2.599368989467620849609375</LongitudeDegrees>
            </Position>
            <AltitudeMeters>722.79998779296875</AltitudeMeters>
            <DistanceMeters>NAN</DistanceMeters>
          </Trackpoint>
          <Trackpoint>
            <Time>2021-04-02T09:40:33.000Z</Time>
            <Position>
              <LatitudeDegrees>42.34870201908051967620849609375</LatitudeDegrees>
              <LongitudeDegrees>2.59944182820618152618408203125</LongitudeDegrees>
            </Position>
            <AltitudeMeters>722.79998779296875</AltitudeMeters>
            <DistanceMeters>NAN</DistanceMeters>
          </Trackpoint>
          <Trackpoint>
            <Time>2021-04-02T09:40:41.000Z</Time>
            <Position>
              <LatitudeDegrees>42.34868190251290798187255859375</LatitudeDegrees>
              <LongitudeDegrees>2.59944744408130645751953125</LongitudeDegrees>
            </Position>
            <AltitudeMeters>722.4000244140625</AltitudeMeters>
            <DistanceMeters>NAN</DistanceMeters>
          </Trackpoint>
          <Trackpoint>
            <Time>2021-04-02T09:40:44.000Z</Time>
            <Position>
              <LatitudeDegrees>42.3486752808094024658203125</LatitudeDegrees>
              <LongitudeDegrees>2.59944015182554721832275390625</LongitudeDegrees>
            </Position>
            <AltitudeMeters>722.20001220703125</AltitudeMeters>
            <DistanceMeters>NAN</DistanceMeters>
          </Trackpoint>
          <Trackpoint>
            <Time>2021-04-02T09:40:54.000Z</Time>
            <Position>
              <LatitudeDegrees>42.34867033548653125762939453125</LatitudeDegrees>
              <LongitudeDegrees>2.59944015182554721832275390625</LongitudeDegrees>
            </Position>
            <AltitudeMeters>721.5999755859375</AltitudeMeters>
            <DistanceMeters>NAN</DistanceMeters>
          </Trackpoint>
          <Trackpoint>
            <Time>2021-04-02T09:40:59.000Z</Time>
            <Position>
              <LatitudeDegrees>42.34867033548653125762939453125</LatitudeDegrees>
              <LongitudeDegrees>2.59944476187229156494140625</LongitudeDegrees>
            </Position>
            <AltitudeMeters>721.4000244140625</AltitudeMeters>
            <DistanceMeters>NAN</DistanceMeters>
          </Trackpoint>
          <Trackpoint>
            <Time>2021-04-02T09:41:04.000Z</Time>
            <Position>
              <LatitudeDegrees>42.348661534488201141357421875</LatitudeDegrees>
              <LongitudeDegrees>2.59944803081452846527099609375</LongitudeDegrees>
            </Position>
            <AltitudeMeters>721.20001220703125</AltitudeMeters>
            <DistanceMeters>NAN</DistanceMeters>
          </Trackpoint>
          <Trackpoint>
            <Time>2021-04-02T09:41:24.000Z</Time>
            <Position>
              <LatitudeDegrees>42.3486268334090709686279296875</LatitudeDegrees>
              <LongitudeDegrees>2.59946814738214015960693359375</LongitudeDegrees>
            </Position>
            <AltitudeMeters>721.79998779296875</AltitudeMeters>
            <DistanceMeters>NAN</DistanceMeters>
          </Trackpoint>
          <Trackpoint>
            <Time>2021-04-02T09:41:29.000Z</Time>
            <Position>
              <LatitudeDegrees>42.34862389974296092987060546875</LatitudeDegrees>
              <LongitudeDegrees>2.5994683988392353057861328125</LongitudeDegrees>
            </Position>
            <AltitudeMeters>721.79998779296875</AltitudeMeters>
            <DistanceMeters>NAN</DistanceMeters>
          </Trackpoint>
          <Trackpoint>
            <Time>2021-04-02T09:41:33.000Z</Time>
            <Position>
              <LatitudeDegrees>42.34862205572426319122314453125</LatitudeDegrees>
              <LongitudeDegrees>2.5994683988392353057861328125</LongitudeDegrees>
            </Position>
            <AltitudeMeters>721.79998779296875</AltitudeMeters>
            <DistanceMeters>NAN</DistanceMeters>
          </Trackpoint>
          <Trackpoint>
            <Time>2021-04-02T09:41:38.000Z</Time>
            <Position>
              <LatitudeDegrees>42.3486164398491382598876953125</LatitudeDegrees>
              <LongitudeDegrees>2.5994683988392353057861328125</LongitudeDegrees>
            </Position>
            <AltitudeMeters>722.4000244140625</AltitudeMeters>
            <DistanceMeters>NAN</DistanceMeters>
          </Trackpoint>
          <Trackpoint>
            <Time>2021-04-02T09:41:40.000Z</Time>
            <Position>
              <LatitudeDegrees>42.3486149311065673828125</LatitudeDegrees>
              <LongitudeDegrees>2.59946848265826702117919921875</LongitudeDegrees>
            </Position>
            <AltitudeMeters>722.79998779296875</AltitudeMeters>
            <DistanceMeters>NAN</DistanceMeters>
          </Trackpoint>
          <Trackpoint>
            <Time>2021-04-02T09:41:43.000Z</Time>
            <Position>
              <LatitudeDegrees>42.3486117459833621978759765625</LatitudeDegrees>
              <LongitudeDegrees>2.5994690693914890289306640625</LongitudeDegrees>
            </Position>
            <AltitudeMeters>723.20001220703125</AltitudeMeters>
            <DistanceMeters>NAN</DistanceMeters>
          </Trackpoint>
          <Trackpoint>
            <Time>2021-04-02T09:41:51.000Z</Time>
            <Position>
              <LatitudeDegrees>42.3485269211232662200927734375</LatitudeDegrees>
              <LongitudeDegrees>2.5995210371911525726318359375</LongitudeDegrees>
            </Position>
            <AltitudeMeters>723.20001220703125</AltitudeMeters>
            <DistanceMeters>NAN</DistanceMeters>
          </Trackpoint>
          <Trackpoint>
            <Time>2021-04-02T09:41:53.000Z</Time>
            <Position>
              <LatitudeDegrees>42.34849984757602214813232421875</LatitudeDegrees>
              <LongitudeDegrees>2.59953838773071765899658203125</LongitudeDegrees>
            </Position>
            <AltitudeMeters>723.20001220703125</AltitudeMeters>
            <DistanceMeters>NAN</DistanceMeters>
          </Trackpoint>
          <Trackpoint>
            <Time>2021-04-02T09:42:00.000Z</Time>
            <Position>
              <LatitudeDegrees>42.34843597747385501861572265625</LatitudeDegrees>
              <LongitudeDegrees>2.59959169663488864898681640625</LongitudeDegrees>
            </Position>
            <AltitudeMeters>723.4000244140625</AltitudeMeters>
            <DistanceMeters>NAN</DistanceMeters>
          </Trackpoint>
          <Trackpoint>
            <Time>2021-04-02T09:42:04.000Z</Time>
            <Position>
              <LatitudeDegrees>42.3484119214117527008056640625</LatitudeDegrees>
              <LongitudeDegrees>2.59962270967662334442138671875</LongitudeDegrees>
            </Position>
            <AltitudeMeters>723.4000244140625</AltitudeMeters>
            <DistanceMeters>NAN</DistanceMeters>
          </Trackpoint>
          <Trackpoint>
            <Time>2021-04-02T09:42:13.000Z</Time>
            <Position>
              <LatitudeDegrees>42.3483445309102535247802734375</LatitudeDegrees>
              <LongitudeDegrees>2.59966830722987651824951171875</LongitudeDegrees>
            </Position>
            <AltitudeMeters>723.4000244140625</AltitudeMeters>
            <DistanceMeters>NAN</DistanceMeters>
          </Trackpoint>
          <Trackpoint>
            <Time>2021-04-02T09:42:15.000Z</Time>
            <Position>
              <LatitudeDegrees>42.3483301140367984771728515625</LatitudeDegrees>
              <LongitudeDegrees>2.599669396877288818359375</LongitudeDegrees>
            </Position>
            <AltitudeMeters>723.5999755859375</AltitudeMeters>
            <DistanceMeters>NAN</DistanceMeters>
          </Trackpoint>
          <Trackpoint>
            <Time>2021-04-02T09:42:16.000Z</Time>
            <Position>
              <LatitudeDegrees>42.348326258361339569091796875</LatitudeDegrees>
              <LongitudeDegrees>2.59966746903955936431884765625</LongitudeDegrees>
            </Position>
            <AltitudeMeters>723.5999755859375</AltitudeMeters>
            <DistanceMeters>NAN</DistanceMeters>
          </Trackpoint>
          <Trackpoint>
            <Time>2021-04-02T09:42:18.000Z</Time>
            <Position>
              <LatitudeDegrees>42.348327934741973876953125</LatitudeDegrees>
              <LongitudeDegrees>2.5996544770896434783935546875</LongitudeDegrees>
            </Position>
            <AltitudeMeters>723.5999755859375</AltitudeMeters>
            <DistanceMeters>NAN</DistanceMeters>
          </Trackpoint>
          <Trackpoint>
            <Time>2021-04-02T09:42:27.000Z</Time>
            <Position>
              <LatitudeDegrees>42.34835165552794933319091796875</LatitudeDegrees>
              <LongitudeDegrees>2.59957753121852874755859375</LongitudeDegrees>
            </Position>
            <AltitudeMeters>723.4000244140625</AltitudeMeters>
            <DistanceMeters>NAN</DistanceMeters>
          </Trackpoint>
          <Trackpoint>
            <Time>2021-04-02T09:42:34.000Z</Time>
            <Position>
              <LatitudeDegrees>42.34835132025182247161865234375</LatitudeDegrees>
              <LongitudeDegrees>2.59957753121852874755859375</LongitudeDegrees>
            </Position>
            <AltitudeMeters>723.4000244140625</AltitudeMeters>
            <DistanceMeters>NAN</DistanceMeters>
          </Trackpoint>
          <Trackpoint>
            <Time>2021-04-02T09:42:44.000Z</Time>
            <Position>
              <LatitudeDegrees>42.34834335744380950927734375</LatitudeDegrees>
              <LongitudeDegrees>2.5996031798422336578369140625</LongitudeDegrees>
            </Position>
            <AltitudeMeters>723.79998779296875</AltitudeMeters>
            <DistanceMeters>NAN</DistanceMeters>
          </Trackpoint>
          <Trackpoint>
            <Time>2021-04-02T09:43:05.000Z</Time>
            <Position>
              <LatitudeDegrees>42.3482690937817096710205078125</LatitudeDegrees>
              <LongitudeDegrees>2.5995984859764575958251953125</LongitudeDegrees>
            </Position>
            <AltitudeMeters>724.5999755859375</AltitudeMeters>
            <DistanceMeters>NAN</DistanceMeters>
          </Trackpoint>
          <Trackpoint>
            <Time>2021-04-02T09:43:08.000Z</Time>
            <Position>
              <LatitudeDegrees>42.348226010799407958984375</LatitudeDegrees>
              <LongitudeDegrees>2.59959940798580646514892578125</LongitudeDegrees>
            </Position>
            <AltitudeMeters>724.79998779296875</AltitudeMeters>
            <DistanceMeters>NAN</DistanceMeters>
          </Trackpoint>
          <Trackpoint>
            <Time>2021-04-02T09:43:15.000Z</Time>
            <Position>
              <LatitudeDegrees>42.3481629788875579833984375</LatitudeDegrees>
              <LongitudeDegrees>2.59959102608263492584228515625</LongitudeDegrees>
            </Position>
            <AltitudeMeters>725.20001220703125</AltitudeMeters>
            <DistanceMeters>NAN</DistanceMeters>
          </Trackpoint>
          <Trackpoint>
            <Time>2021-04-02T09:43:20.000Z</Time>
            <Position>
              <LatitudeDegrees>42.34812769107520580291748046875</LatitudeDegrees>
              <LongitudeDegrees>2.5995849072933197021484375</LongitudeDegrees>
            </Position>
            <AltitudeMeters>725.5999755859375</AltitudeMeters>
            <DistanceMeters>NAN</DistanceMeters>
          </Trackpoint>
          <Trackpoint>
            <Time>2021-04-02T09:43:22.000Z</Time>
            <Position>
              <LatitudeDegrees>42.3481115140020847320556640625</LatitudeDegrees>
              <LongitudeDegrees>2.59958582930266857147216796875</LongitudeDegrees>
            </Position>
            <AltitudeMeters>725.79998779296875</AltitudeMeters>
            <DistanceMeters>NAN</DistanceMeters>
          </Trackpoint>
          <Trackpoint>
            <Time>2021-04-02T09:43:24.000Z</Time>
            <Position>
              <LatitudeDegrees>42.34808578155934810638427734375</LatitudeDegrees>
              <LongitudeDegrees>2.59959437884390354156494140625</LongitudeDegrees>
            </Position>
            <AltitudeMeters>725.79998779296875</AltitudeMeters>
            <DistanceMeters>NAN</DistanceMeters>
          </Trackpoint>
          <Trackpoint>
            <Time>2021-04-02T09:43:28.000Z</Time>
            <Position>
              <LatitudeDegrees>42.348041273653507232666015625</LatitudeDegrees>
              <LongitudeDegrees>2.59961449541151523590087890625</LongitudeDegrees>
            </Position>
            <AltitudeMeters>726.5999755859375</AltitudeMeters>
            <DistanceMeters>NAN</DistanceMeters>
          </Trackpoint>
          <Trackpoint>
            <Time>2021-04-02T09:43:29.000Z</Time>
            <Position>
              <LatitudeDegrees>42.3480162955820560455322265625</LatitudeDegrees>
              <LongitudeDegrees>2.599615752696990966796875</LongitudeDegrees>
            </Position>
            <AltitudeMeters>726.5999755859375</AltitudeMeters>
            <DistanceMeters>NAN</DistanceMeters>
          </Trackpoint>
          <Trackpoint>
            <Time>2021-04-02T09:43:31.000Z</Time>
            <Position>
              <LatitudeDegrees>42.348001711070537567138671875</LatitudeDegrees>
              <LongitudeDegrees>2.5995730049908161163330078125</LongitudeDegrees>
            </Position>
            <AltitudeMeters>726.79998779296875</AltitudeMeters>
            <DistanceMeters>NAN</DistanceMeters>
          </Trackpoint>
          <Trackpoint>
            <Time>2021-04-02T09:43:32.000Z</Time>
            <Position>
              <LatitudeDegrees>42.34799643047153949737548828125</LatitudeDegrees>
              <LongitudeDegrees>2.59955951012670993804931640625</LongitudeDegrees>
            </Position>
            <AltitudeMeters>727</AltitudeMeters>
            <DistanceMeters>NAN</DistanceMeters>
          </Trackpoint>
          <Trackpoint>
            <Time>2021-04-02T09:43:38.000Z</Time>
            <Position>
              <LatitudeDegrees>42.34794446267187595367431640625</LatitudeDegrees>
              <LongitudeDegrees>2.59951542131602764129638671875</LongitudeDegrees>
            </Position>
            <AltitudeMeters>727.5999755859375</AltitudeMeters>
            <DistanceMeters>NAN</DistanceMeters>
          </Trackpoint>
          <Trackpoint>
            <Time>2021-04-02T09:43:40.000Z</Time>
            <Position>
              <LatitudeDegrees>42.3479348234832286834716796875</LatitudeDegrees>
              <LongitudeDegrees>2.5994911976158618927001953125</LongitudeDegrees>
            </Position>
            <AltitudeMeters>728</AltitudeMeters>
            <DistanceMeters>NAN</DistanceMeters>
          </Trackpoint>
          <Trackpoint>
            <Time>2021-04-02T09:43:44.000Z</Time>
            <Position>
              <LatitudeDegrees>42.347920238971710205078125</LatitudeDegrees>
              <LongitudeDegrees>2.59945071302354335784912109375</LongitudeDegrees>
            </Position>
            <AltitudeMeters>728.20001220703125</AltitudeMeters>
            <DistanceMeters>NAN</DistanceMeters>
          </Trackpoint>
          <Trackpoint>
            <Time>2021-04-02T09:43:45.000Z</Time>
            <Position>
              <LatitudeDegrees>42.3479160480201244354248046875</LatitudeDegrees>
              <LongitudeDegrees>2.59943830780684947967529296875</LongitudeDegrees>
            </Position>
            <AltitudeMeters>728.4000244140625</AltitudeMeters>
            <DistanceMeters>NAN</DistanceMeters>
          </Trackpoint>
          <Trackpoint>
            <Time>2021-04-02T09:43:49.000Z</Time>
            <Position>
              <LatitudeDegrees>42.34788327477872371673583984375</LatitudeDegrees>
              <LongitudeDegrees>2.59940679185092449188232421875</LongitudeDegrees>
            </Position>
            <AltitudeMeters>729</AltitudeMeters>
            <DistanceMeters>NAN</DistanceMeters>
          </Trackpoint>
          <Trackpoint>
            <Time>2021-04-02T09:43:53.000Z</Time>
            <Position>
              <LatitudeDegrees>42.34787371940910816192626953125</LatitudeDegrees>
              <LongitudeDegrees>2.59936136193573474884033203125</LongitudeDegrees>
            </Position>
            <AltitudeMeters>729.5999755859375</AltitudeMeters>
            <DistanceMeters>NAN</DistanceMeters>
          </Trackpoint>
          <Trackpoint>
            <Time>2021-04-02T09:43:54.000Z</Time>
            <Position>
              <LatitudeDegrees>42.34787774272263050079345703125</LatitudeDegrees>
              <LongitudeDegrees>2.5993493758141994476318359375</LongitudeDegrees>
            </Position>
            <AltitudeMeters>729.79998779296875</AltitudeMeters>
            <DistanceMeters>NAN</DistanceMeters>
          </Trackpoint>
          <Trackpoint>
            <Time>2021-04-02T09:43:56.000Z</Time>
            <Position>
              <LatitudeDegrees>42.34788914211094379425048828125</LatitudeDegrees>
              <LongitudeDegrees>2.5993408262729644775390625</LongitudeDegrees>
            </Position>
            <AltitudeMeters>730</AltitudeMeters>
            <DistanceMeters>NAN</DistanceMeters>
          </Trackpoint>
          <Trackpoint>
            <Time>2021-04-02T09:44:00.000Z</Time>
            <Position>
              <LatitudeDegrees>42.34791562892496585845947265625</LatitudeDegrees>
              <LongitudeDegrees>2.599350549280643463134765625</LongitudeDegrees>
            </Position>
            <AltitudeMeters>730.4000244140625</AltitudeMeters>
            <DistanceMeters>NAN</DistanceMeters>
          </Trackpoint>
          <Trackpoint>
            <Time>2021-04-02T09:44:04.000Z</Time>
            <Position>
              <LatitudeDegrees>42.347931973636150360107421875</LatitudeDegrees>
              <LongitudeDegrees>2.599339149892330169677734375</LongitudeDegrees>
            </Position>
            <AltitudeMeters>730.4000244140625</AltitudeMeters>
            <DistanceMeters>NAN</DistanceMeters>
          </Trackpoint>
          <Trackpoint>
            <Time>2021-04-02T09:44:11.000Z</Time>
            <Position>
              <LatitudeDegrees>42.3479043133556842803955078125</LatitudeDegrees>
              <LongitudeDegrees>2.59928106330335140228271484375</LongitudeDegrees>
            </Position>
            <AltitudeMeters>730.5999755859375</AltitudeMeters>
            <DistanceMeters>NAN</DistanceMeters>
          </Trackpoint>
          <Trackpoint>
            <Time>2021-04-02T09:44:17.000Z</Time>
            <Position>
              <LatitudeDegrees>42.3478867113590240478515625</LatitudeDegrees>
              <LongitudeDegrees>2.59925256483256816864013671875</LongitudeDegrees>
            </Position>
            <AltitudeMeters>730.79998779296875</AltitudeMeters>
            <DistanceMeters>NAN</DistanceMeters>
          </Trackpoint>
          <Trackpoint>
            <Time>2021-04-02T09:44:26.000Z</Time>
            <Position>
              <LatitudeDegrees>42.3479368351399898529052734375</LatitudeDegrees>
              <LongitudeDegrees>2.59923848323523998260498046875</LongitudeDegrees>
            </Position>
            <AltitudeMeters>731</AltitudeMeters>
            <DistanceMeters>NAN</DistanceMeters>
          </Trackpoint>
          <Trackpoint>
            <Time>2021-04-02T09:44:28.000Z</Time>
            <Position>
              <LatitudeDegrees>42.3479368351399898529052734375</LatitudeDegrees>
              <LongitudeDegrees>2.59923848323523998260498046875</LongitudeDegrees>
            </Position>
            <AltitudeMeters>730.79998779296875</AltitudeMeters>
            <DistanceMeters>NAN</DistanceMeters>
          </Trackpoint>
          <Trackpoint>
            <Time>2021-04-02T09:44:37.000Z</Time>
            <Position>
              <LatitudeDegrees>42.347895763814449310302734375</LatitudeDegrees>
              <LongitudeDegrees>2.59919523261487483978271484375</LongitudeDegrees>
            </Position>
            <AltitudeMeters>730.79998779296875</AltitudeMeters>
            <DistanceMeters>NAN</DistanceMeters>
          </Trackpoint>
          <Trackpoint>
            <Time>2021-04-02T09:44:40.000Z</Time>
            <Position>
              <LatitudeDegrees>42.34788444824516773223876953125</LatitudeDegrees>
              <LongitudeDegrees>2.5991686619818210601806640625</LongitudeDegrees>
            </Position>
            <AltitudeMeters>730.79998779296875</AltitudeMeters>
            <DistanceMeters>NAN</DistanceMeters>
          </Trackpoint>
          <Trackpoint>
            <Time>2021-04-02T09:44:43.000Z</Time>
            <Position>
              <LatitudeDegrees>42.34786751680076122283935546875</LatitudeDegrees>
              <LongitudeDegrees>2.59916773997247219085693359375</LongitudeDegrees>
            </Position>
            <AltitudeMeters>730.79998779296875</AltitudeMeters>
            <DistanceMeters>NAN</DistanceMeters>
          </Trackpoint>
          <Trackpoint>
            <Time>2021-04-02T09:44:45.000Z</Time>
            <Position>
              <LatitudeDegrees>42.3478530161082744598388671875</LatitudeDegrees>
              <LongitudeDegrees>2.59916824288666248321533203125</LongitudeDegrees>
            </Position>
            <AltitudeMeters>731.20001220703125</AltitudeMeters>
            <DistanceMeters>NAN</DistanceMeters>
          </Trackpoint>
          <Trackpoint>
            <Time>2021-04-02T09:44:48.000Z</Time>
            <Position>
              <LatitudeDegrees>42.3478411138057708740234375</LatitudeDegrees>
              <LongitudeDegrees>2.59913505055010318756103515625</LongitudeDegrees>
            </Position>
            <AltitudeMeters>731.4000244140625</AltitudeMeters>
            <DistanceMeters>NAN</DistanceMeters>
          </Trackpoint>
          <Trackpoint>
            <Time>2021-04-02T09:44:52.000Z</Time>
            <Position>
              <LatitudeDegrees>42.3478080891072750091552734375</LatitudeDegrees>
              <LongitudeDegrees>2.599115185439586639404296875</LongitudeDegrees>
            </Position>
            <AltitudeMeters>731.5999755859375</AltitudeMeters>
            <DistanceMeters>NAN</DistanceMeters>
          </Trackpoint>
          <Trackpoint>
            <Time>2021-04-02T09:45:01.000Z</Time>
            <Position>
              <LatitudeDegrees>42.34770993702113628387451171875</LatitudeDegrees>
              <LongitudeDegrees>2.5990885309875011444091796875</LongitudeDegrees>
            </Position>
            <AltitudeMeters>732.20001220703125</AltitudeMeters>
            <DistanceMeters>NAN</DistanceMeters>
          </Trackpoint>
          <Trackpoint>
            <Time>2021-04-02T09:45:02.000Z</Time>
            <Position>
              <LatitudeDegrees>42.347708009183406829833984375</LatitudeDegrees>
              <LongitudeDegrees>2.5990845076739788055419921875</LongitudeDegrees>
            </Position>
            <AltitudeMeters>732.20001220703125</AltitudeMeters>
            <DistanceMeters>NAN</DistanceMeters>
          </Trackpoint>
          <Trackpoint>
            <Time>2021-04-02T09:45:04.000Z</Time>
            <Position>
              <LatitudeDegrees>42.347712032496929168701171875</LatitudeDegrees>
              <LongitudeDegrees>2.599060200154781341552734375</LongitudeDegrees>
            </Position>
            <AltitudeMeters>732.4000244140625</AltitudeMeters>
            <DistanceMeters>NAN</DistanceMeters>
          </Trackpoint>
          <Trackpoint>
            <Time>2021-04-02T09:45:06.000Z</Time>
            <Position>
              <LatitudeDegrees>42.3477148823440074920654296875</LatitudeDegrees>
              <LongitudeDegrees>2.5990368984639644622802734375</LongitudeDegrees>
            </Position>
            <AltitudeMeters>732.5999755859375</AltitudeMeters>
            <DistanceMeters>NAN</DistanceMeters>
          </Trackpoint>
          <Trackpoint>
            <Time>2021-04-02T09:45:08.000Z</Time>
            <Position>
              <LatitudeDegrees>42.34770390205085277557373046875</LatitudeDegrees>
              <LongitudeDegrees>2.5990291871130466461181640625</LongitudeDegrees>
            </Position>
            <AltitudeMeters>732.5999755859375</AltitudeMeters>
            <DistanceMeters>NAN</DistanceMeters>
          </Trackpoint>
          <Trackpoint>
            <Time>2021-04-02T09:45:12.000Z</Time>
            <Position>
              <LatitudeDegrees>42.34770490787923336029052734375</LatitudeDegrees>
              <LongitudeDegrees>2.59899440221488475799560546875</LongitudeDegrees>
            </Position>
            <AltitudeMeters>732.79998779296875</AltitudeMeters>
            <DistanceMeters>NAN</DistanceMeters>
          </Trackpoint>
          <Trackpoint>
            <Time>2021-04-02T09:45:14.000Z</Time>
            <Position>
              <LatitudeDegrees>42.347702644765377044677734375</LatitudeDegrees>
              <LongitudeDegrees>2.5989876128733158111572265625</LongitudeDegrees>
            </Position>
            <AltitudeMeters>733.20001220703125</AltitudeMeters>
            <DistanceMeters>NAN</DistanceMeters>
          </Trackpoint>
          <Trackpoint>
            <Time>2021-04-02T09:45:17.000Z</Time>
            <Position>
              <LatitudeDegrees>42.34765981324017047882080078125</LatitudeDegrees>
              <LongitudeDegrees>2.598986439406871795654296875</LongitudeDegrees>
            </Position>
            <AltitudeMeters>733.4000244140625</AltitudeMeters>
            <DistanceMeters>NAN</DistanceMeters>
          </Trackpoint>
          <Trackpoint>
            <Time>2021-04-02T09:45:18.000Z</Time>
            <Position>
              <LatitudeDegrees>42.3476461507380008697509765625</LatitudeDegrees>
              <LongitudeDegrees>2.5989869423210620880126953125</LongitudeDegrees>
            </Position>
            <AltitudeMeters>733.4000244140625</AltitudeMeters>
            <DistanceMeters>NAN</DistanceMeters>
          </Trackpoint>
          <Trackpoint>
            <Time>2021-04-02T09:45:21.000Z</Time>
            <Position>
              <LatitudeDegrees>42.34761840663850307464599609375</LatitudeDegrees>
              <LongitudeDegrees>2.5989889539778232574462890625</LongitudeDegrees>
            </Position>
            <AltitudeMeters>733.20001220703125</AltitudeMeters>
            <DistanceMeters>NAN</DistanceMeters>
          </Trackpoint>
          <Trackpoint>
            <Time>2021-04-02T09:45:25.000Z</Time>
            <Position>
              <LatitudeDegrees>42.3475847952067852020263671875</LatitudeDegrees>
              <LongitudeDegrees>2.59901602752506732940673828125</LongitudeDegrees>
            </Position>
            <AltitudeMeters>732.5999755859375</AltitudeMeters>
            <DistanceMeters>NAN</DistanceMeters>
          </Trackpoint>
          <Trackpoint>
            <Time>2021-04-02T09:45:28.000Z</Time>
            <Position>
              <LatitudeDegrees>42.34756459482014179229736328125</LatitudeDegrees>
              <LongitudeDegrees>2.5990419276058673858642578125</LongitudeDegrees>
            </Position>
            <AltitudeMeters>732.79998779296875</AltitudeMeters>
            <DistanceMeters>NAN</DistanceMeters>
          </Trackpoint>
          <Trackpoint>
            <Time>2021-04-02T09:45:32.000Z</Time>
            <Position>
              <LatitudeDegrees>42.34757448546588420867919921875</LatitudeDegrees>
              <LongitudeDegrees>2.599052488803863525390625</LongitudeDegrees>
            </Position>
            <AltitudeMeters>732.79998779296875</AltitudeMeters>
            <DistanceMeters>NAN</DistanceMeters>
          </Trackpoint>
          <Trackpoint>
            <Time>2021-04-02T09:45:35.000Z</Time>
            <Position>
              <LatitudeDegrees>42.3475742340087890625</LatitudeDegrees>
              <LongitudeDegrees>2.59905223734676837921142578125</LongitudeDegrees>
            </Position>
            <AltitudeMeters>732.5999755859375</AltitudeMeters>
            <DistanceMeters>NAN</DistanceMeters>
          </Trackpoint>
          <Trackpoint>
            <Time>2021-04-02T09:45:37.000Z</Time>
            <Position>
              <LatitudeDegrees>42.34756526537239551544189453125</LatitudeDegrees>
              <LongitudeDegrees>2.59905089624226093292236328125</LongitudeDegrees>
            </Position>
            <AltitudeMeters>732.4000244140625</AltitudeMeters>
            <DistanceMeters>NAN</DistanceMeters>
          </Trackpoint>
          <Trackpoint>
            <Time>2021-04-02T09:45:42.000Z</Time>
            <Position>
              <LatitudeDegrees>42.347552441060543060302734375</LatitudeDegrees>
              <LongitudeDegrees>2.59903714992105960845947265625</LongitudeDegrees>
            </Position>
            <AltitudeMeters>732.79998779296875</AltitudeMeters>
            <DistanceMeters>NAN</DistanceMeters>
          </Trackpoint>
          <Trackpoint>
            <Time>2021-04-02T09:45:48.000Z</Time>
            <Position>
              <LatitudeDegrees>42.3475636728107929229736328125</LatitudeDegrees>
              <LongitudeDegrees>2.59898417629301548004150390625</LongitudeDegrees>
            </Position>
            <AltitudeMeters>733</AltitudeMeters>
            <DistanceMeters>NAN</DistanceMeters>
          </Trackpoint>
          <Trackpoint>
            <Time>2021-04-02T09:45:53.000Z</Time>
            <Position>
              <LatitudeDegrees>42.34755755402147769927978515625</LatitudeDegrees>
              <LongitudeDegrees>2.5990033708512783050537109375</LongitudeDegrees>
            </Position>
            <AltitudeMeters>732.79998779296875</AltitudeMeters>
            <DistanceMeters>NAN</DistanceMeters>
          </Trackpoint>
          <Trackpoint>
            <Time>2021-04-02T09:45:58.000Z</Time>
            <Position>
              <LatitudeDegrees>42.34759711660444736480712890625</LatitudeDegrees>
              <LongitudeDegrees>2.59902876801788806915283203125</LongitudeDegrees>
            </Position>
            <AltitudeMeters>732.79998779296875</AltitudeMeters>
            <DistanceMeters>NAN</DistanceMeters>
          </Trackpoint>
          <Trackpoint>
            <Time>2021-04-02T09:46:04.000Z</Time>
            <Position>
              <LatitudeDegrees>42.34758940525352954864501953125</LatitudeDegrees>
              <LongitudeDegrees>2.59908107109367847442626953125</LongitudeDegrees>
            </Position>
            <AltitudeMeters>732.5999755859375</AltitudeMeters>
            <DistanceMeters>NAN</DistanceMeters>
          </Trackpoint>
          <Trackpoint>
            <Time>2021-04-02T09:46:10.000Z</Time>
            <Position>
              <LatitudeDegrees>42.34763097949326038360595703125</LatitudeDegrees>
              <LongitudeDegrees>2.59910923428833484649658203125</LongitudeDegrees>
            </Position>
            <AltitudeMeters>732.79998779296875</AltitudeMeters>
            <DistanceMeters>NAN</DistanceMeters>
          </Trackpoint>
          <Trackpoint>
            <Time>2021-04-02T09:46:15.000Z</Time>
            <Position>
              <LatitudeDegrees>42.3476679436862468719482421875</LatitudeDegrees>
              <LongitudeDegrees>2.59911426343023777008056640625</LongitudeDegrees>
            </Position>
            <AltitudeMeters>733</AltitudeMeters>
            <DistanceMeters>NAN</DistanceMeters>
          </Trackpoint>
          <Trackpoint>
            <Time>2021-04-02T09:46:20.000Z</Time>
            <Position>
              <LatitudeDegrees>42.34767523594200611114501953125</LatitudeDegrees>
              <LongitudeDegrees>2.59915282018482685089111328125</LongitudeDegrees>
            </Position>
            <AltitudeMeters>733.4000244140625</AltitudeMeters>
            <DistanceMeters>NAN</DistanceMeters>
          </Trackpoint>
          <Trackpoint>
            <Time>2021-04-02T09:46:23.000Z</Time>
            <Position>
              <LatitudeDegrees>42.3476776666939258575439453125</LatitudeDegrees>
              <LongitudeDegrees>2.5991750322282314300537109375</LongitudeDegrees>
            </Position>
            <AltitudeMeters>733.79998779296875</AltitudeMeters>
            <DistanceMeters>NAN</DistanceMeters>
          </Trackpoint>
          <Trackpoint>
            <Time>2021-04-02T09:46:25.000Z</Time>
            <Position>
              <LatitudeDegrees>42.34767624177038669586181640625</LatitudeDegrees>
              <LongitudeDegrees>2.599192969501018524169921875</LongitudeDegrees>
            </Position>
            <AltitudeMeters>733.79998779296875</AltitudeMeters>
            <DistanceMeters>NAN</DistanceMeters>
          </Trackpoint>
          <Trackpoint>
            <Time>2021-04-02T09:46:27.000Z</Time>
            <Position>
              <LatitudeDegrees>42.34767615795135498046875</LatitudeDegrees>
              <LongitudeDegrees>2.59921601973474025726318359375</LongitudeDegrees>
            </Position>
            <AltitudeMeters>734.4000244140625</AltitudeMeters>
            <DistanceMeters>NAN</DistanceMeters>
          </Trackpoint>
          <Trackpoint>
            <Time>2021-04-02T09:46:28.000Z</Time>
            <Position>
              <LatitudeDegrees>42.3476736433804035186767578125</LatitudeDegrees>
              <LongitudeDegrees>2.59922138415277004241943359375</LongitudeDegrees>
            </Position>
            <AltitudeMeters>734.4000244140625</AltitudeMeters>
            <DistanceMeters>NAN</DistanceMeters>
          </Trackpoint>
          <Trackpoint>
            <Time>2021-04-02T09:46:29.000Z</Time>
            <Position>
              <LatitudeDegrees>42.34767758287489414215087890625</LatitudeDegrees>
              <LongitudeDegrees>2.59922356344759464263916015625</LongitudeDegrees>
            </Position>
            <AltitudeMeters>734.5999755859375</AltitudeMeters>
            <DistanceMeters>NAN</DistanceMeters>
          </Trackpoint>
          <Trackpoint>
            <Time>2021-04-02T09:46:33.000Z</Time>
            <Position>
              <LatitudeDegrees>42.3476666025817394256591796875</LatitudeDegrees>
              <LongitudeDegrees>2.59927603416144847869873046875</LongitudeDegrees>
            </Position>
            <AltitudeMeters>735.20001220703125</AltitudeMeters>
            <DistanceMeters>NAN</DistanceMeters>
          </Trackpoint>
          <Trackpoint>
            <Time>2021-04-02T09:46:35.000Z</Time>
            <Position>
              <LatitudeDegrees>42.34764732420444488525390625</LatitudeDegrees>
              <LongitudeDegrees>2.59930989705026149749755859375</LongitudeDegrees>
            </Position>
            <AltitudeMeters>735.4000244140625</AltitudeMeters>
            <DistanceMeters>NAN</DistanceMeters>
          </Trackpoint>
          <Trackpoint>
            <Time>2021-04-02T09:46:36.000Z</Time>
            <Position>
              <LatitudeDegrees>42.34763869084417819976806640625</LatitudeDegrees>
              <LongitudeDegrees>2.5993269123136997222900390625</LongitudeDegrees>
            </Position>
            <AltitudeMeters>735.4000244140625</AltitudeMeters>
            <DistanceMeters>NAN</DistanceMeters>
          </Trackpoint>
          <Trackpoint>
            <Time>2021-04-02T09:46:42.000Z</Time>
            <Position>
              <LatitudeDegrees>42.34764908440411090850830078125</LatitudeDegrees>
              <LongitudeDegrees>2.59935893118381500244140625</LongitudeDegrees>
            </Position>
            <AltitudeMeters>736.5999755859375</AltitudeMeters>
            <DistanceMeters>NAN</DistanceMeters>
          </Trackpoint>
          <Trackpoint>
            <Time>2021-04-02T09:46:45.000Z</Time>
            <Position>
              <LatitudeDegrees>42.347666434943675994873046875</LatitudeDegrees>
              <LongitudeDegrees>2.5993688218295574188232421875</LongitudeDegrees>
            </Position>
            <AltitudeMeters>736.79998779296875</AltitudeMeters>
            <DistanceMeters>NAN</DistanceMeters>
          </Trackpoint>
          <Trackpoint>
            <Time>2021-04-02T09:46:48.000Z</Time>
            <Position>
              <LatitudeDegrees>42.34767171554267406463623046875</LatitudeDegrees>
              <LongitudeDegrees>2.59940360672771930694580078125</LongitudeDegrees>
            </Position>
            <AltitudeMeters>737</AltitudeMeters>
            <DistanceMeters>NAN</DistanceMeters>
          </Trackpoint>
          <Trackpoint>
            <Time>2021-04-02T09:46:49.000Z</Time>
            <Position>
              <LatitudeDegrees>42.34767548739910125732421875</LatitudeDegrees>
              <LongitudeDegrees>2.59941098280251026153564453125</LongitudeDegrees>
            </Position>
            <AltitudeMeters>737.20001220703125</AltitudeMeters>
            <DistanceMeters>NAN</DistanceMeters>
          </Trackpoint>
          <Trackpoint>
            <Time>2021-04-02T09:46:53.000Z</Time>
            <Position>
              <LatitudeDegrees>42.34767221845686435699462890625</LatitudeDegrees>
              <LongitudeDegrees>2.59944736026227474212646484375</LongitudeDegrees>
            </Position>
            <AltitudeMeters>737.79998779296875</AltitudeMeters>
            <DistanceMeters>NAN</DistanceMeters>
          </Trackpoint>
          <Trackpoint>
            <Time>2021-04-02T09:46:57.000Z</Time>
            <Position>
              <LatitudeDegrees>42.347687222063541412353515625</LatitudeDegrees>
              <LongitudeDegrees>2.59945280849933624267578125</LongitudeDegrees>
            </Position>
            <AltitudeMeters>738.20001220703125</AltitudeMeters>
            <DistanceMeters>NAN</DistanceMeters>
          </Trackpoint>
          <Trackpoint>
            <Time>2021-04-02T09:47:00.000Z</Time>
            <Position>
              <LatitudeDegrees>42.347689233720302581787109375</LatitudeDegrees>
              <LongitudeDegrees>2.59947703219950199127197265625</LongitudeDegrees>
            </Position>
            <AltitudeMeters>738.4000244140625</AltitudeMeters>
            <DistanceMeters>NAN</DistanceMeters>
          </Trackpoint>
          <Trackpoint>
            <Time>2021-04-02T09:47:03.000Z</Time>
            <Position>
              <LatitudeDegrees>42.34768755733966827392578125</LatitudeDegrees>
              <LongitudeDegrees>2.599504105746746063232421875</LongitudeDegrees>
            </Position>
            <AltitudeMeters>738.5999755859375</AltitudeMeters>
            <DistanceMeters>NAN</DistanceMeters>
          </Trackpoint>
          <Trackpoint>
            <Time>2021-04-02T09:47:04.000Z</Time>
            <Position>
              <LatitudeDegrees>42.347685880959033966064453125</LatitudeDegrees>
              <LongitudeDegrees>2.59950972162187099456787109375</LongitudeDegrees>
            </Position>
            <AltitudeMeters>738.79998779296875</AltitudeMeters>
            <DistanceMeters>NAN</DistanceMeters>
          </Trackpoint>
          <Trackpoint>
            <Time>2021-04-02T09:47:07.000Z</Time>
            <Position>
              <LatitudeDegrees>42.3476840369403362274169921875</LatitudeDegrees>
              <LongitudeDegrees>2.59952816180884838104248046875</LongitudeDegrees>
            </Position>
            <AltitudeMeters>739.20001220703125</AltitudeMeters>
            <DistanceMeters>NAN</DistanceMeters>
          </Trackpoint>
          <Trackpoint>
            <Time>2021-04-02T09:47:13.000Z</Time>
            <Position>
              <LatitudeDegrees>42.3477128706872463226318359375</LatitudeDegrees>
              <LongitudeDegrees>2.599534951150417327880859375</LongitudeDegrees>
            </Position>
            <AltitudeMeters>739.79998779296875</AltitudeMeters>
            <DistanceMeters>NAN</DistanceMeters>
          </Trackpoint>
          <Trackpoint>
            <Time>2021-04-02T09:47:14.000Z</Time>
            <Position>
              <LatitudeDegrees>42.3477118648588657379150390625</LatitudeDegrees>
              <LongitudeDegrees>2.59954442270100116729736328125</LongitudeDegrees>
            </Position>
            <AltitudeMeters>739.79998779296875</AltitudeMeters>
            <DistanceMeters>NAN</DistanceMeters>
          </Trackpoint>
          <Trackpoint>
            <Time>2021-04-02T09:47:15.000Z</Time>
            <Position>
              <LatitudeDegrees>42.3477132059633731842041015625</LatitudeDegrees>
              <LongitudeDegrees>2.59955196641385555267333984375</LongitudeDegrees>
            </Position>
            <AltitudeMeters>739.79998779296875</AltitudeMeters>
            <DistanceMeters>NAN</DistanceMeters>
          </Trackpoint>
          <Trackpoint>
            <Time>2021-04-02T09:47:18.000Z</Time>
            <Position>
              <LatitudeDegrees>42.34771111048758029937744140625</LatitudeDegrees>
              <LongitudeDegrees>2.59957811795175075531005859375</LongitudeDegrees>
            </Position>
            <AltitudeMeters>740.20001220703125</AltitudeMeters>
            <DistanceMeters>NAN</DistanceMeters>
          </Trackpoint>
          <Trackpoint>
            <Time>2021-04-02T09:47:21.000Z</Time>
            <Position>
              <LatitudeDegrees>42.34771479852497577667236328125</LatitudeDegrees>
              <LongitudeDegrees>2.59959639050066471099853515625</LongitudeDegrees>
            </Position>
            <AltitudeMeters>740.20001220703125</AltitudeMeters>
            <DistanceMeters>NAN</DistanceMeters>
          </Trackpoint>
          <Trackpoint>
            <Time>2021-04-02T09:47:22.000Z</Time>
            <Position>
              <LatitudeDegrees>42.3477202467620372772216796875</LatitudeDegrees>
              <LongitudeDegrees>2.59960209019482135772705078125</LongitudeDegrees>
            </Position>
            <AltitudeMeters>740.20001220703125</AltitudeMeters>
            <DistanceMeters>NAN</DistanceMeters>
          </Trackpoint>
          <Trackpoint>
            <Time>2021-04-02T09:47:25.000Z</Time>
            <Position>
              <LatitudeDegrees>42.34772108495235443115234375</LatitudeDegrees>
              <LongitudeDegrees>2.59962790645658969879150390625</LongitudeDegrees>
            </Position>
            <AltitudeMeters>740.4000244140625</AltitudeMeters>
            <DistanceMeters>NAN</DistanceMeters>
          </Trackpoint>
          <Trackpoint>
            <Time>2021-04-02T09:47:27.000Z</Time>
            <Position>
              <LatitudeDegrees>42.34773156233131885528564453125</LatitudeDegrees>
              <LongitudeDegrees>2.5996323488652706146240234375</LongitudeDegrees>
            </Position>
            <AltitudeMeters>740.4000244140625</AltitudeMeters>
            <DistanceMeters>NAN</DistanceMeters>
          </Trackpoint>
          <Trackpoint>
            <Time>2021-04-02T09:47:30.000Z</Time>
            <Position>
              <LatitudeDegrees>42.34775637276470661163330078125</LatitudeDegrees>
              <LongitudeDegrees>2.5996434129774570465087890625</LongitudeDegrees>
            </Position>
            <AltitudeMeters>740.20001220703125</AltitudeMeters>
            <DistanceMeters>NAN</DistanceMeters>
          </Trackpoint>
          <Trackpoint>
            <Time>2021-04-02T09:47:31.000Z</Time>
            <Position>
              <LatitudeDegrees>42.34776190482079982757568359375</LatitudeDegrees>
              <LongitudeDegrees>2.5996492803096771240234375</LongitudeDegrees>
            </Position>
            <AltitudeMeters>740.20001220703125</AltitudeMeters>
            <DistanceMeters>NAN</DistanceMeters>
          </Trackpoint>
          <Trackpoint>
            <Time>2021-04-02T09:47:34.000Z</Time>
            <Position>
              <LatitudeDegrees>42.3477685265243053436279296875</LatitudeDegrees>
              <LongitudeDegrees>2.59967216290533542633056640625</LongitudeDegrees>
            </Position>
            <AltitudeMeters>739.79998779296875</AltitudeMeters>
            <DistanceMeters>NAN</DistanceMeters>
          </Trackpoint>
          <Trackpoint>
            <Time>2021-04-02T09:47:39.000Z</Time>
            <Position>
              <LatitudeDegrees>42.347783111035823822021484375</LatitudeDegrees>
              <LongitudeDegrees>2.5997198559343814849853515625</LongitudeDegrees>
            </Position>
            <AltitudeMeters>739.4000244140625</AltitudeMeters>
            <DistanceMeters>NAN</DistanceMeters>
          </Trackpoint>
          <Trackpoint>
            <Time>2021-04-02T09:47:41.000Z</Time>
            <Position>
              <LatitudeDegrees>42.34780347906053066253662109375</LatitudeDegrees>
              <LongitudeDegrees>2.5997419841587543487548828125</LongitudeDegrees>
            </Position>
            <AltitudeMeters>739.20001220703125</AltitudeMeters>
            <DistanceMeters>NAN</DistanceMeters>
          </Trackpoint>
          <Trackpoint>
            <Time>2021-04-02T09:47:42.000Z</Time>
            <Position>
              <LatitudeDegrees>42.34780213795602321624755859375</LatitudeDegrees>
              <LongitudeDegrees>2.599759586155414581298828125</LongitudeDegrees>
            </Position>
            <AltitudeMeters>739.20001220703125</AltitudeMeters>
            <DistanceMeters>NAN</DistanceMeters>
          </Trackpoint>
          <Trackpoint>
            <Time>2021-04-02T09:47:45.000Z</Time>
            <Position>
              <LatitudeDegrees>42.34781630337238311767578125</LatitudeDegrees>
              <LongitudeDegrees>2.59979537688195705413818359375</LongitudeDegrees>
            </Position>
            <AltitudeMeters>739.20001220703125</AltitudeMeters>
            <DistanceMeters>NAN</DistanceMeters>
          </Trackpoint>
          <Trackpoint>
            <Time>2021-04-02T09:47:46.000Z</Time>
            <Position>
              <LatitudeDegrees>42.34781906940042972564697265625</LatitudeDegrees>
              <LongitudeDegrees>2.59980694390833377838134765625</LongitudeDegrees>
            </Position>
            <AltitudeMeters>739.20001220703125</AltitudeMeters>
            <DistanceMeters>NAN</DistanceMeters>
          </Trackpoint>
          <Trackpoint>
            <Time>2021-04-02T09:47:50.000Z</Time>
            <Position>
              <LatitudeDegrees>42.34782175160944461822509765625</LatitudeDegrees>
              <LongitudeDegrees>2.599878609180450439453125</LongitudeDegrees>
            </Position>
            <AltitudeMeters>739.4000244140625</AltitudeMeters>
            <DistanceMeters>NAN</DistanceMeters>
          </Trackpoint>
          <Trackpoint>
            <Time>2021-04-02T09:47:52.000Z</Time>
            <Position>
              <LatitudeDegrees>42.3478104360401630401611328125</LatitudeDegrees>
              <LongitudeDegrees>2.5999190099537372589111328125</LongitudeDegrees>
            </Position>
            <AltitudeMeters>739.4000244140625</AltitudeMeters>
            <DistanceMeters>NAN</DistanceMeters>
          </Trackpoint>
          <Trackpoint>
            <Time>2021-04-02T09:47:54.000Z</Time>
            <Position>
              <LatitudeDegrees>42.34781228005886077880859375</LatitudeDegrees>
              <LongitudeDegrees>2.59994356893002986907958984375</LongitudeDegrees>
            </Position>
            <AltitudeMeters>739.5999755859375</AltitudeMeters>
            <DistanceMeters>NAN</DistanceMeters>
          </Trackpoint>
          <Trackpoint>
            <Time>2021-04-02T09:48:00.000Z</Time>
            <Position>
              <LatitudeDegrees>42.347803227603435516357421875</LatitudeDegrees>
              <LongitudeDegrees>2.60002973489463329315185546875</LongitudeDegrees>
            </Position>
            <AltitudeMeters>740.20001220703125</AltitudeMeters>
            <DistanceMeters>NAN</DistanceMeters>
          </Trackpoint>
          <Trackpoint>
            <Time>2021-04-02T09:48:01.000Z</Time>
            <Position>
              <LatitudeDegrees>42.34780616126954555511474609375</LatitudeDegrees>
              <LongitudeDegrees>2.60004264302551746368408203125</LongitudeDegrees>
            </Position>
            <AltitudeMeters>740.20001220703125</AltitudeMeters>
            <DistanceMeters>NAN</DistanceMeters>
          </Trackpoint>
          <Trackpoint>
            <Time>2021-04-02T09:48:04.000Z</Time>
            <Position>
              <LatitudeDegrees>42.3478248529136180877685546875</LatitudeDegrees>
              <LongitudeDegrees>2.6000980474054813385009765625</LongitudeDegrees>
            </Position>
            <AltitudeMeters>740.4000244140625</AltitudeMeters>
            <DistanceMeters>NAN</DistanceMeters>
          </Trackpoint>
          <Trackpoint>
            <Time>2021-04-02T09:48:07.000Z</Time>
            <Position>
              <LatitudeDegrees>42.3478513397276401519775390625</LatitudeDegrees>
              <LongitudeDegrees>2.6001101173460483551025390625</LongitudeDegrees>
            </Position>
            <AltitudeMeters>740.79998779296875</AltitudeMeters>
            <DistanceMeters>NAN</DistanceMeters>
          </Trackpoint>
          <Trackpoint>
            <Time>2021-04-02T09:48:08.000Z</Time>
            <Position>
              <LatitudeDegrees>42.34785863198339939117431640625</LatitudeDegrees>
              <LongitudeDegrees>2.60010994970798492431640625</LongitudeDegrees>
            </Position>
            <AltitudeMeters>741.20001220703125</AltitudeMeters>
            <DistanceMeters>NAN</DistanceMeters>
          </Trackpoint>
          <Trackpoint>
            <Time>2021-04-02T09:48:09.000Z</Time>
            <Position>
              <LatitudeDegrees>42.3478613980114459991455078125</LatitudeDegrees>
              <LongitudeDegrees>2.60011891834437847137451171875</LongitudeDegrees>
            </Position>
            <AltitudeMeters>741.4000244140625</AltitudeMeters>
            <DistanceMeters>NAN</DistanceMeters>
          </Trackpoint>
          <Trackpoint>
            <Time>2021-04-02T09:48:12.000Z</Time>
            <Position>
              <LatitudeDegrees>42.3478764854371547698974609375</LatitudeDegrees>
              <LongitudeDegrees>2.60013652034103870391845703125</LongitudeDegrees>
            </Position>
            <AltitudeMeters>742</AltitudeMeters>
            <DistanceMeters>NAN</DistanceMeters>
          </Trackpoint>
          <Trackpoint>
            <Time>2021-04-02T09:48:14.000Z</Time>
            <Position>
              <LatitudeDegrees>42.3478853702545166015625</LatitudeDegrees>
              <LongitudeDegrees>2.60013903491199016571044921875</LongitudeDegrees>
            </Position>
            <AltitudeMeters>742.20001220703125</AltitudeMeters>
            <DistanceMeters>NAN</DistanceMeters>
          </Trackpoint>
          <Trackpoint>
            <Time>2021-04-02T09:48:16.000Z</Time>
            <Position>
              <LatitudeDegrees>42.34788998030126094818115234375</LatitudeDegrees>
              <LongitudeDegrees>2.6001550443470478057861328125</LongitudeDegrees>
            </Position>
            <AltitudeMeters>742.4000244140625</AltitudeMeters>
            <DistanceMeters>NAN</DistanceMeters>
          </Trackpoint>
          <Trackpoint>
            <Time>2021-04-02T09:48:17.000Z</Time>
            <Position>
              <LatitudeDegrees>42.34788444824516773223876953125</LatitudeDegrees>
              <LongitudeDegrees>2.60016904212534427642822265625</LongitudeDegrees>
            </Position>
            <AltitudeMeters>742.5999755859375</AltitudeMeters>
            <DistanceMeters>NAN</DistanceMeters>
          </Trackpoint>
          <Trackpoint>
            <Time>2021-04-02T09:48:19.000Z</Time>
            <Position>
              <LatitudeDegrees>42.3478811793029308319091796875</LatitudeDegrees>
              <LongitudeDegrees>2.60019443929195404052734375</LongitudeDegrees>
            </Position>
            <AltitudeMeters>743</AltitudeMeters>
            <DistanceMeters>NAN</DistanceMeters>
          </Trackpoint>
          <Trackpoint>
            <Time>2021-04-02T09:48:20.000Z</Time>
            <Position>
              <LatitudeDegrees>42.34788713045418262481689453125</LatitudeDegrees>
              <LongitudeDegrees>2.60020826943218708038330078125</LongitudeDegrees>
            </Position>
            <AltitudeMeters>743</AltitudeMeters>
            <DistanceMeters>NAN</DistanceMeters>
          </Trackpoint>
          <Trackpoint>
            <Time>2021-04-02T09:48:23.000Z</Time>
            <Position>
              <LatitudeDegrees>42.34790523536503314971923828125</LatitudeDegrees>
              <LongitudeDegrees>2.60022888891398906707763671875</LongitudeDegrees>
            </Position>
            <AltitudeMeters>743.4000244140625</AltitudeMeters>
            <DistanceMeters>NAN</DistanceMeters>
          </Trackpoint>
          <Trackpoint>
            <Time>2021-04-02T09:48:25.000Z</Time>
            <Position>
              <LatitudeDegrees>42.34790774993598461151123046875</LatitudeDegrees>
              <LongitudeDegrees>2.60024313814938068389892578125</LongitudeDegrees>
            </Position>
            <AltitudeMeters>743.79998779296875</AltitudeMeters>
            <DistanceMeters>NAN</DistanceMeters>
          </Trackpoint>
          <Trackpoint>
            <Time>2021-04-02T09:48:28.000Z</Time>
            <Position>
              <LatitudeDegrees>42.34790272079408168792724609375</LatitudeDegrees>
              <LongitudeDegrees>2.60026375763118267059326171875</LongitudeDegrees>
            </Position>
            <AltitudeMeters>744.20001220703125</AltitudeMeters>
            <DistanceMeters>NAN</DistanceMeters>
          </Trackpoint>
          <Trackpoint>
            <Time>2021-04-02T09:48:29.000Z</Time>
            <Position>
              <LatitudeDegrees>42.347901798784732818603515625</LatitudeDegrees>
              <LongitudeDegrees>2.600275240838527679443359375</LongitudeDegrees>
            </Position>
            <AltitudeMeters>744.20001220703125</AltitudeMeters>
            <DistanceMeters>NAN</DistanceMeters>
          </Trackpoint>
          <Trackpoint>
            <Time>2021-04-02T09:48:30.000Z</Time>
            <Position>
              <LatitudeDegrees>42.34790154732763767242431640625</LatitudeDegrees>
              <LongitudeDegrees>2.60028563439846038818359375</LongitudeDegrees>
            </Position>
            <AltitudeMeters>744.4000244140625</AltitudeMeters>
            <DistanceMeters>NAN</DistanceMeters>
          </Trackpoint>
          <Trackpoint>
            <Time>2021-04-02T09:48:34.000Z</Time>
            <Position>
              <LatitudeDegrees>42.34789702109992504119873046875</LatitudeDegrees>
              <LongitudeDegrees>2.60030843317508697509765625</LongitudeDegrees>
            </Position>
            <AltitudeMeters>744.79998779296875</AltitudeMeters>
            <DistanceMeters>NAN</DistanceMeters>
          </Trackpoint>
          <Trackpoint>
            <Time>2021-04-02T09:48:35.000Z</Time>
            <Position>
              <LatitudeDegrees>42.34789811074733734130859375</LatitudeDegrees>
              <LongitudeDegrees>2.6003143005073070526123046875</LongitudeDegrees>
            </Position>
            <AltitudeMeters>744.79998779296875</AltitudeMeters>
            <DistanceMeters>NAN</DistanceMeters>
          </Trackpoint>
          <Trackpoint>
            <Time>2021-04-02T09:48:37.000Z</Time>
            <Position>
              <LatitudeDegrees>42.34789408743381500244140625</LatitudeDegrees>
              <LongitudeDegrees>2.60032343678176403045654296875</LongitudeDegrees>
            </Position>
            <AltitudeMeters>745.20001220703125</AltitudeMeters>
            <DistanceMeters>NAN</DistanceMeters>
          </Trackpoint>
          <Trackpoint>
            <Time>2021-04-02T09:48:39.000Z</Time>
            <Position>
              <LatitudeDegrees>42.34791093505918979644775390625</LatitudeDegrees>
              <LongitudeDegrees>2.60032293386757373809814453125</LongitudeDegrees>
            </Position>
            <AltitudeMeters>745.4000244140625</AltitudeMeters>
            <DistanceMeters>NAN</DistanceMeters>
          </Trackpoint>
          <Trackpoint>
            <Time>2021-04-02T09:48:41.000Z</Time>
            <Position>
              <LatitudeDegrees>42.34791026450693607330322265625</LatitudeDegrees>
              <LongitudeDegrees>2.60034355334937572479248046875</LongitudeDegrees>
            </Position>
            <AltitudeMeters>745.5999755859375</AltitudeMeters>
            <DistanceMeters>NAN</DistanceMeters>
          </Trackpoint>
          <Trackpoint>
            <Time>2021-04-02T09:48:45.000Z</Time>
            <Position>
              <LatitudeDegrees>42.3479525931179523468017578125</LatitudeDegrees>
              <LongitudeDegrees>2.60035134851932525634765625</LongitudeDegrees>
            </Position>
            <AltitudeMeters>746.20001220703125</AltitudeMeters>
            <DistanceMeters>NAN</DistanceMeters>
          </Trackpoint>
          <Trackpoint>
            <Time>2021-04-02T09:48:48.000Z</Time>
            <Position>
              <LatitudeDegrees>42.3479636572301387786865234375</LatitudeDegrees>
              <LongitudeDegrees>2.60037590749561786651611328125</LongitudeDegrees>
            </Position>
            <AltitudeMeters>746.79998779296875</AltitudeMeters>
            <DistanceMeters>NAN</DistanceMeters>
          </Trackpoint>
          <Trackpoint>
            <Time>2021-04-02T09:48:52.000Z</Time>
            <Position>
              <LatitudeDegrees>42.34798528254032135009765625</LatitudeDegrees>
              <LongitudeDegrees>2.60038915090262889862060546875</LongitudeDegrees>
            </Position>
            <AltitudeMeters>747.20001220703125</AltitudeMeters>
            <DistanceMeters>NAN</DistanceMeters>
          </Trackpoint>
          <Trackpoint>
            <Time>2021-04-02T09:48:54.000Z</Time>
            <Position>
              <LatitudeDegrees>42.347996346652507781982421875</LatitudeDegrees>
              <LongitudeDegrees>2.60038755834102630615234375</LongitudeDegrees>
            </Position>
            <AltitudeMeters>747.4000244140625</AltitudeMeters>
            <DistanceMeters>NAN</DistanceMeters>
          </Trackpoint>
          <Trackpoint>
            <Time>2021-04-02T09:48:55.000Z</Time>
            <Position>
              <LatitudeDegrees>42.34800363890826702117919921875</LatitudeDegrees>
              <LongitudeDegrees>2.60038982145488262176513671875</LongitudeDegrees>
            </Position>
            <AltitudeMeters>747.5999755859375</AltitudeMeters>
            <DistanceMeters>NAN</DistanceMeters>
          </Trackpoint>
          <Trackpoint>
            <Time>2021-04-02T09:48:57.000Z</Time>
            <Position>
              <LatitudeDegrees>42.3480166308581829071044921875</LatitudeDegrees>
              <LongitudeDegrees>2.600391246378421783447265625</LongitudeDegrees>
            </Position>
            <AltitudeMeters>748</AltitudeMeters>
            <DistanceMeters>NAN</DistanceMeters>
          </Trackpoint>
          <Trackpoint>
            <Time>2021-04-02T09:49:00.000Z</Time>
            <Position>
              <LatitudeDegrees>42.34802761115133762359619140625</LatitudeDegrees>
              <LongitudeDegrees>2.600405327975749969482421875</LongitudeDegrees>
            </Position>
            <AltitudeMeters>748.5999755859375</AltitudeMeters>
            <DistanceMeters>NAN</DistanceMeters>
          </Trackpoint>
          <Trackpoint>
            <Time>2021-04-02T09:49:04.000Z</Time>
            <Position>
              <LatitudeDegrees>42.3480283655226230621337890625</LatitudeDegrees>
              <LongitudeDegrees>2.600435502827167510986328125</LongitudeDegrees>
            </Position>
            <AltitudeMeters>749.20001220703125</AltitudeMeters>
            <DistanceMeters>NAN</DistanceMeters>
          </Trackpoint>
          <Trackpoint>
            <Time>2021-04-02T09:49:07.000Z</Time>
            <Position>
              <LatitudeDegrees>42.34803314320743083953857421875</LatitudeDegrees>
              <LongitudeDegrees>2.6004651747643947601318359375</LongitudeDegrees>
            </Position>
            <AltitudeMeters>749.5999755859375</AltitudeMeters>
            <DistanceMeters>NAN</DistanceMeters>
          </Trackpoint>
          <Trackpoint>
            <Time>2021-04-02T09:49:08.000Z</Time>
            <Position>
              <LatitudeDegrees>42.34803331084549427032470703125</LatitudeDegrees>
              <LongitudeDegrees>2.6004671864211559295654296875</LongitudeDegrees>
            </Position>
            <AltitudeMeters>749.5999755859375</AltitudeMeters>
            <DistanceMeters>NAN</DistanceMeters>
          </Trackpoint>
          <Trackpoint>
            <Time>2021-04-02T09:49:09.000Z</Time>
            <Position>
              <LatitudeDegrees>42.3480350710451602935791015625</LatitudeDegrees>
              <LongitudeDegrees>2.60046391747891902923583984375</LongitudeDegrees>
            </Position>
            <AltitudeMeters>749.79998779296875</AltitudeMeters>
            <DistanceMeters>NAN</DistanceMeters>
          </Trackpoint>
          <Trackpoint>
            <Time>2021-04-02T09:49:11.000Z</Time>
            <Position>
              <LatitudeDegrees>42.34804588370025157928466796875</LatitudeDegrees>
              <LongitudeDegrees>2.60045218281447887420654296875</LongitudeDegrees>
            </Position>
            <AltitudeMeters>750</AltitudeMeters>
            <DistanceMeters>NAN</DistanceMeters>
          </Trackpoint>
          <Trackpoint>
            <Time>2021-04-02T09:49:13.000Z</Time>
            <Position>
              <LatitudeDegrees>42.34806147404015064239501953125</LatitudeDegrees>
              <LongitudeDegrees>2.600446902215480804443359375</LongitudeDegrees>
            </Position>
            <AltitudeMeters>750.4000244140625</AltitudeMeters>
            <DistanceMeters>NAN</DistanceMeters>
          </Trackpoint>
          <Trackpoint>
            <Time>2021-04-02T09:49:15.000Z</Time>
            <Position>
              <LatitudeDegrees>42.348081506788730621337890625</LatitudeDegrees>
              <LongitudeDegrees>2.60044966824352741241455078125</LongitudeDegrees>
            </Position>
            <AltitudeMeters>750.5999755859375</AltitudeMeters>
            <DistanceMeters>NAN</DistanceMeters>
          </Trackpoint>
          <Trackpoint>
            <Time>2021-04-02T09:49:16.000Z</Time>
            <Position>
              <LatitudeDegrees>42.34808477573096752166748046875</LatitudeDegrees>
              <LongitudeDegrees>2.6004591397941112518310546875</LongitudeDegrees>
            </Position>
            <AltitudeMeters>750.79998779296875</AltitudeMeters>
            <DistanceMeters>NAN</DistanceMeters>
          </Trackpoint>
          <Trackpoint>
            <Time>2021-04-02T09:49:17.000Z</Time>
            <Position>
              <LatitudeDegrees>42.3480878770351409912109375</LatitudeDegrees>
              <LongitudeDegrees>2.6004715450108051300048828125</LongitudeDegrees>
            </Position>
            <AltitudeMeters>751</AltitudeMeters>
            <DistanceMeters>NAN</DistanceMeters>
          </Trackpoint>
          <Trackpoint>
            <Time>2021-04-02T09:49:19.000Z</Time>
            <Position>
              <LatitudeDegrees>42.34809659421443939208984375</LatitudeDegrees>
              <LongitudeDegrees>2.6004807651042938232421875</LongitudeDegrees>
            </Position>
            <AltitudeMeters>751.20001220703125</AltitudeMeters>
            <DistanceMeters>NAN</DistanceMeters>
          </Trackpoint>
          <Trackpoint>
            <Time>2021-04-02T09:49:22.000Z</Time>
            <Position>
              <LatitudeDegrees>42.3481091670691967010498046875</LatitudeDegrees>
              <LongitudeDegrees>2.6004866324365139007568359375</LongitudeDegrees>
            </Position>
            <AltitudeMeters>751.79998779296875</AltitudeMeters>
            <DistanceMeters>NAN</DistanceMeters>
          </Trackpoint>
          <Trackpoint>
            <Time>2021-04-02T09:49:23.000Z</Time>
            <Position>
              <LatitudeDegrees>42.34811000525951385498046875</LatitudeDegrees>
              <LongitudeDegrees>2.60049409233033657073974609375</LongitudeDegrees>
            </Position>
            <AltitudeMeters>751.79998779296875</AltitudeMeters>
            <DistanceMeters>NAN</DistanceMeters>
          </Trackpoint>
          <Trackpoint>
            <Time>2021-04-02T09:49:24.000Z</Time>
            <Position>
              <LatitudeDegrees>42.34811260364949703216552734375</LatitudeDegrees>
              <LongitudeDegrees>2.60050146840512752532958984375</LongitudeDegrees>
            </Position>
            <AltitudeMeters>752</AltitudeMeters>
            <DistanceMeters>NAN</DistanceMeters>
          </Trackpoint>
          <Trackpoint>
            <Time>2021-04-02T09:49:25.000Z</Time>
            <Position>
              <LatitudeDegrees>42.3481128551065921783447265625</LatitudeDegrees>
              <LongitudeDegrees>2.600510604679584503173828125</LongitudeDegrees>
            </Position>
            <AltitudeMeters>752</AltitudeMeters>
            <DistanceMeters>NAN</DistanceMeters>
          </Trackpoint>
          <Trackpoint>
            <Time>2021-04-02T09:49:27.000Z</Time>
            <Position>
              <LatitudeDegrees>42.34811411239206790924072265625</LatitudeDegrees>
              <LongitudeDegrees>2.6005275361239910125732421875</LongitudeDegrees>
            </Position>
            <AltitudeMeters>752.4000244140625</AltitudeMeters>
            <DistanceMeters>NAN</DistanceMeters>
          </Trackpoint>
          <Trackpoint>
            <Time>2021-04-02T09:49:29.000Z</Time>
            <Position>
              <LatitudeDegrees>42.34811536967754364013671875</LatitudeDegrees>
              <LongitudeDegrees>2.60054983198642730712890625</LongitudeDegrees>
            </Position>
            <AltitudeMeters>752.79998779296875</AltitudeMeters>
            <DistanceMeters>NAN</DistanceMeters>
          </Trackpoint>
          <Trackpoint>
            <Time>2021-04-02T09:49:31.000Z</Time>
            <Position>
              <LatitudeDegrees>42.34811729751527309417724609375</LatitudeDegrees>
              <LongitudeDegrees>2.600586377084255218505859375</LongitudeDegrees>
            </Position>
            <AltitudeMeters>753.20001220703125</AltitudeMeters>
            <DistanceMeters>NAN</DistanceMeters>
          </Trackpoint>
          <Trackpoint>
            <Time>2021-04-02T09:49:37.000Z</Time>
            <Position>
              <LatitudeDegrees>42.3481316305696964263916015625</LatitudeDegrees>
              <LongitudeDegrees>2.6006696932017803192138671875</LongitudeDegrees>
            </Position>
            <AltitudeMeters>753.79998779296875</AltitudeMeters>
            <DistanceMeters>NAN</DistanceMeters>
          </Trackpoint>
          <Trackpoint>
            <Time>2021-04-02T09:49:38.000Z</Time>
            <Position>
              <LatitudeDegrees>42.34812769107520580291748046875</LatitudeDegrees>
              <LongitudeDegrees>2.600679583847522735595703125</LongitudeDegrees>
            </Position>
            <AltitudeMeters>754</AltitudeMeters>
            <DistanceMeters>NAN</DistanceMeters>
          </Trackpoint>
          <Trackpoint>
            <Time>2021-04-02T09:49:41.000Z</Time>
            <Position>
              <LatitudeDegrees>42.3481316305696964263916015625</LatitudeDegrees>
              <LongitudeDegrees>2.6007246784865856170654296875</LongitudeDegrees>
            </Position>
            <AltitudeMeters>754.4000244140625</AltitudeMeters>
            <DistanceMeters>NAN</DistanceMeters>
          </Trackpoint>
          <Trackpoint>
            <Time>2021-04-02T09:49:43.000Z</Time>
            <Position>
              <LatitudeDegrees>42.3481336422264575958251953125</LatitudeDegrees>
              <LongitudeDegrees>2.600753009319305419921875</LongitudeDegrees>
            </Position>
            <AltitudeMeters>754.79998779296875</AltitudeMeters>
            <DistanceMeters>NAN</DistanceMeters>
          </Trackpoint>
          <Trackpoint>
            <Time>2021-04-02T09:49:44.000Z</Time>
            <Position>
              <LatitudeDegrees>42.3481373302638530731201171875</LatitudeDegrees>
              <LongitudeDegrees>2.600763738155364990234375</LongitudeDegrees>
            </Position>
            <AltitudeMeters>755</AltitudeMeters>
            <DistanceMeters>NAN</DistanceMeters>
          </Trackpoint>
          <Trackpoint>
            <Time>2021-04-02T09:49:45.000Z</Time>
            <Position>
              <LatitudeDegrees>42.348137833178043365478515625</LatitudeDegrees>
              <LongitudeDegrees>2.6007756404578685760498046875</LongitudeDegrees>
            </Position>
            <AltitudeMeters>755</AltitudeMeters>
            <DistanceMeters>NAN</DistanceMeters>
          </Trackpoint>
          <Trackpoint>
            <Time>2021-04-02T09:49:49.000Z</Time>
            <Position>
              <LatitudeDegrees>42.3481319658458232879638671875</LatitudeDegrees>
              <LongitudeDegrees>2.600820399820804595947265625</LongitudeDegrees>
            </Position>
            <AltitudeMeters>755.79998779296875</AltitudeMeters>
            <DistanceMeters>NAN</DistanceMeters>
          </Trackpoint>
          <Trackpoint>
            <Time>2021-04-02T09:49:53.000Z</Time>
            <Position>
              <LatitudeDegrees>42.3481366597115993499755859375</LatitudeDegrees>
              <LongitudeDegrees>2.60085786692798137664794921875</LongitudeDegrees>
            </Position>
            <AltitudeMeters>756</AltitudeMeters>
            <DistanceMeters>NAN</DistanceMeters>
          </Trackpoint>
          <Trackpoint>
            <Time>2021-04-02T09:49:54.000Z</Time>
            <Position>
              <LatitudeDegrees>42.34813816845417022705078125</LatitudeDegrees>
              <LongitudeDegrees>2.60086608119308948516845703125</LongitudeDegrees>
            </Position>
            <AltitudeMeters>756.20001220703125</AltitudeMeters>
            <DistanceMeters>NAN</DistanceMeters>
          </Trackpoint>
          <Trackpoint>
            <Time>2021-04-02T09:49:56.000Z</Time>
            <Position>
              <LatitudeDegrees>42.3481406830251216888427734375</LatitudeDegrees>
              <LongitudeDegrees>2.6008825935423374176025390625</LongitudeDegrees>
            </Position>
            <AltitudeMeters>756.5999755859375</AltitudeMeters>
            <DistanceMeters>NAN</DistanceMeters>
          </Trackpoint>
          <Trackpoint>
            <Time>2021-04-02T09:49:57.000Z</Time>
            <Position>
              <LatitudeDegrees>42.34813707880675792694091796875</LatitudeDegrees>
              <LongitudeDegrees>2.6008919812738895416259765625</LongitudeDegrees>
            </Position>
            <AltitudeMeters>756.5999755859375</AltitudeMeters>
            <DistanceMeters>NAN</DistanceMeters>
          </Trackpoint>
          <Trackpoint>
            <Time>2021-04-02T09:50:01.000Z</Time>
            <Position>
              <LatitudeDegrees>42.34816339798271656036376953125</LatitudeDegrees>
              <LongitudeDegrees>2.60092391632497310638427734375</LongitudeDegrees>
            </Position>
            <AltitudeMeters>757</AltitudeMeters>
            <DistanceMeters>NAN</DistanceMeters>
          </Trackpoint>
          <Trackpoint>
            <Time>2021-04-02T09:50:02.000Z</Time>
            <Position>
              <LatitudeDegrees>42.3481658287346363067626953125</LatitudeDegrees>
              <LongitudeDegrees>2.6009362377226352691650390625</LongitudeDegrees>
            </Position>
            <AltitudeMeters>757.20001220703125</AltitudeMeters>
            <DistanceMeters>NAN</DistanceMeters>
          </Trackpoint>
          <Trackpoint>
            <Time>2021-04-02T09:50:05.000Z</Time>
            <Position>
              <LatitudeDegrees>42.34815317206084728240966796875</LatitudeDegrees>
              <LongitudeDegrees>2.6009627245366573333740234375</LongitudeDegrees>
            </Position>
            <AltitudeMeters>757.4000244140625</AltitudeMeters>
            <DistanceMeters>NAN</DistanceMeters>
          </Trackpoint>
          <Trackpoint>
            <Time>2021-04-02T09:50:07.000Z</Time>
            <Position>
              <LatitudeDegrees>42.34813875518739223480224609375</LatitudeDegrees>
              <LongitudeDegrees>2.6009727828204631805419921875</LongitudeDegrees>
            </Position>
            <AltitudeMeters>757.5999755859375</AltitudeMeters>
            <DistanceMeters>NAN</DistanceMeters>
          </Trackpoint>
          <Trackpoint>
            <Time>2021-04-02T09:50:08.000Z</Time>
            <Position>
              <LatitudeDegrees>42.34812651760876178741455078125</LatitudeDegrees>
              <LongitudeDegrees>2.60097823105752468109130859375</LongitudeDegrees>
            </Position>
            <AltitudeMeters>757.79998779296875</AltitudeMeters>
            <DistanceMeters>NAN</DistanceMeters>
          </Trackpoint>
          <Trackpoint>
            <Time>2021-04-02T09:50:10.000Z</Time>
            <Position>
              <LatitudeDegrees>42.34811210073530673980712890625</LatitudeDegrees>
              <LongitudeDegrees>2.60099600069224834442138671875</LongitudeDegrees>
            </Position>
            <AltitudeMeters>758</AltitudeMeters>
            <DistanceMeters>NAN</DistanceMeters>
          </Trackpoint>
          <Trackpoint>
            <Time>2021-04-02T09:50:12.000Z</Time>
            <Position>
              <LatitudeDegrees>42.3481031320989131927490234375</LatitudeDegrees>
              <LongitudeDegrees>2.60101561434566974639892578125</LongitudeDegrees>
            </Position>
            <AltitudeMeters>758.20001220703125</AltitudeMeters>
            <DistanceMeters>NAN</DistanceMeters>
          </Trackpoint>
          <Trackpoint>
            <Time>2021-04-02T09:50:14.000Z</Time>
            <Position>
              <LatitudeDegrees>42.34809064306318759918212890625</LatitudeDegrees>
              <LongitudeDegrees>2.6010324619710445404052734375</LongitudeDegrees>
            </Position>
            <AltitudeMeters>758.4000244140625</AltitudeMeters>
            <DistanceMeters>NAN</DistanceMeters>
          </Trackpoint>
          <Trackpoint>
            <Time>2021-04-02T09:50:15.000Z</Time>
            <Position>
              <LatitudeDegrees>42.34808360226452350616455078125</LatitudeDegrees>
              <LongitudeDegrees>2.601043023169040679931640625</LongitudeDegrees>
            </Position>
            <AltitudeMeters>758.5999755859375</AltitudeMeters>
            <DistanceMeters>NAN</DistanceMeters>
          </Trackpoint>
          <Trackpoint>
            <Time>2021-04-02T09:50:17.000Z</Time>
            <Position>
              <LatitudeDegrees>42.3480810038745403289794921875</LatitudeDegrees>
              <LongitudeDegrees>2.60105433873832225799560546875</LongitudeDegrees>
            </Position>
            <AltitudeMeters>759</AltitudeMeters>
            <DistanceMeters>NAN</DistanceMeters>
          </Trackpoint>
          <Trackpoint>
            <Time>2021-04-02T09:50:19.000Z</Time>
            <Position>
              <LatitudeDegrees>42.3480759747326374053955078125</LatitudeDegrees>
              <LongitudeDegrees>2.60106842033565044403076171875</LongitudeDegrees>
            </Position>
            <AltitudeMeters>759.20001220703125</AltitudeMeters>
            <DistanceMeters>NAN</DistanceMeters>
          </Trackpoint>
          <Trackpoint>
            <Time>2021-04-02T09:50:21.000Z</Time>
            <Position>
              <LatitudeDegrees>42.34806247986853122711181640625</LatitudeDegrees>
              <LongitudeDegrees>2.6010931469500064849853515625</LongitudeDegrees>
            </Position>
            <AltitudeMeters>759.5999755859375</AltitudeMeters>
            <DistanceMeters>NAN</DistanceMeters>
          </Trackpoint>
          <Trackpoint>
            <Time>2021-04-02T09:50:26.000Z</Time>
            <Position>
              <LatitudeDegrees>42.3480639047920703887939453125</LatitudeDegrees>
              <LongitudeDegrees>2.60112114250659942626953125</LongitudeDegrees>
            </Position>
            <AltitudeMeters>760.4000244140625</AltitudeMeters>
            <DistanceMeters>NAN</DistanceMeters>
          </Trackpoint>
          <Trackpoint>
            <Time>2021-04-02T09:50:27.000Z</Time>
            <Position>
              <LatitudeDegrees>42.34806549735367298126220703125</LatitudeDegrees>
              <LongitudeDegrees>2.6011280156672000885009765625</LongitudeDegrees>
            </Position>
            <AltitudeMeters>760.5999755859375</AltitudeMeters>
            <DistanceMeters>NAN</DistanceMeters>
          </Trackpoint>
          <Trackpoint>
            <Time>2021-04-02T09:50:32.000Z</Time>
            <Position>
              <LatitudeDegrees>42.3480555228888988494873046875</LatitudeDegrees>
              <LongitudeDegrees>2.6011638902127742767333984375</LongitudeDegrees>
            </Position>
            <AltitudeMeters>761.4000244140625</AltitudeMeters>
            <DistanceMeters>NAN</DistanceMeters>
          </Trackpoint>
          <Trackpoint>
            <Time>2021-04-02T09:50:36.000Z</Time>
            <Position>
              <LatitudeDegrees>42.348062060773372650146484375</LatitudeDegrees>
              <LongitudeDegrees>2.60120118968188762664794921875</LongitudeDegrees>
            </Position>
            <AltitudeMeters>762.20001220703125</AltitudeMeters>
            <DistanceMeters>NAN</DistanceMeters>
          </Trackpoint>
          <Trackpoint>
            <Time>2021-04-02T09:50:38.000Z</Time>
            <Position>
              <LatitudeDegrees>42.3480645753443241119384765625</LatitudeDegrees>
              <LongitudeDegrees>2.6012175343930721282958984375</LongitudeDegrees>
            </Position>
            <AltitudeMeters>762.4000244140625</AltitudeMeters>
            <DistanceMeters>NAN</DistanceMeters>
          </Trackpoint>
          <Trackpoint>
            <Time>2021-04-02T09:50:40.000Z</Time>
            <Position>
              <LatitudeDegrees>42.34804772771894931793212890625</LatitudeDegrees>
              <LongitudeDegrees>2.60123781859874725341796875</LongitudeDegrees>
            </Position>
            <AltitudeMeters>762.5999755859375</AltitudeMeters>
            <DistanceMeters>NAN</DistanceMeters>
          </Trackpoint>
          <Trackpoint>
            <Time>2021-04-02T09:50:43.000Z</Time>
            <Position>
              <LatitudeDegrees>42.34805007465183734893798828125</LatitudeDegrees>
              <LongitudeDegrees>2.6012507267296314239501953125</LongitudeDegrees>
            </Position>
            <AltitudeMeters>763.20001220703125</AltitudeMeters>
            <DistanceMeters>NAN</DistanceMeters>
          </Trackpoint>
          <Trackpoint>
            <Time>2021-04-02T09:50:44.000Z</Time>
            <Position>
              <LatitudeDegrees>42.34805543906986713409423828125</LatitudeDegrees>
              <LongitudeDegrees>2.601251900196075439453125</LongitudeDegrees>
            </Position>
            <AltitudeMeters>763.4000244140625</AltitudeMeters>
            <DistanceMeters>NAN</DistanceMeters>
          </Trackpoint>
          <Trackpoint>
            <Time>2021-04-02T09:50:45.000Z</Time>
            <Position>
              <LatitudeDegrees>42.348052673041820526123046875</LatitudeDegrees>
              <LongitudeDegrees>2.60126455686986446380615234375</LongitudeDegrees>
            </Position>
            <AltitudeMeters>763.5999755859375</AltitudeMeters>
            <DistanceMeters>NAN</DistanceMeters>
          </Trackpoint>
          <Trackpoint>
            <Time>2021-04-02T09:50:48.000Z</Time>
            <Position>
              <LatitudeDegrees>42.34803649596869945526123046875</LatitudeDegrees>
              <LongitudeDegrees>2.60130328126251697540283203125</LongitudeDegrees>
            </Position>
            <AltitudeMeters>763.79998779296875</AltitudeMeters>
            <DistanceMeters>NAN</DistanceMeters>
          </Trackpoint>
          <Trackpoint>
            <Time>2021-04-02T09:50:51.000Z</Time>
            <Position>
              <LatitudeDegrees>42.34801788814365863800048828125</LatitudeDegrees>
              <LongitudeDegrees>2.6013184525072574615478515625</LongitudeDegrees>
            </Position>
            <AltitudeMeters>764.20001220703125</AltitudeMeters>
            <DistanceMeters>NAN</DistanceMeters>
          </Trackpoint>
          <Trackpoint>
            <Time>2021-04-02T09:50:53.000Z</Time>
            <Position>
              <LatitudeDegrees>42.3480136133730411529541015625</LatitudeDegrees>
              <LongitudeDegrees>2.60133345611393451690673828125</LongitudeDegrees>
            </Position>
            <AltitudeMeters>764.5999755859375</AltitudeMeters>
            <DistanceMeters>NAN</DistanceMeters>
          </Trackpoint>
          <Trackpoint>
            <Time>2021-04-02T09:50:58.000Z</Time>
            <Position>
              <LatitudeDegrees>42.34801269136369228363037109375</LatitudeDegrees>
              <LongitudeDegrees>2.6013685762882232666015625</LongitudeDegrees>
            </Position>
            <AltitudeMeters>765.4000244140625</AltitudeMeters>
            <DistanceMeters>NAN</DistanceMeters>
          </Trackpoint>
          <Trackpoint>
            <Time>2021-04-02T09:51:00.000Z</Time>
            <Position>
              <LatitudeDegrees>42.34801269136369228363037109375</LatitudeDegrees>
              <LongitudeDegrees>2.6013771258294582366943359375</LongitudeDegrees>
            </Position>
            <AltitudeMeters>765.5999755859375</AltitudeMeters>
            <DistanceMeters>NAN</DistanceMeters>
          </Trackpoint>
          <Trackpoint>
            <Time>2021-04-02T09:51:06.000Z</Time>
            <Position>
              <LatitudeDegrees>42.3479945026338100433349609375</LatitudeDegrees>
              <LongitudeDegrees>2.60144007392227649688720703125</LongitudeDegrees>
            </Position>
            <AltitudeMeters>766.5999755859375</AltitudeMeters>
            <DistanceMeters>NAN</DistanceMeters>
          </Trackpoint>
          <Trackpoint>
            <Time>2021-04-02T09:51:08.000Z</Time>
            <Position>
              <LatitudeDegrees>42.34798704273998737335205078125</LatitudeDegrees>
              <LongitudeDegrees>2.60145784355700016021728515625</LongitudeDegrees>
            </Position>
            <AltitudeMeters>766.79998779296875</AltitudeMeters>
            <DistanceMeters>NAN</DistanceMeters>
          </Trackpoint>
          <Trackpoint>
            <Time>2021-04-02T09:51:11.000Z</Time>
            <Position>
              <LatitudeDegrees>42.34799307771027088165283203125</LatitudeDegrees>
              <LongitudeDegrees>2.60147863067686557769775390625</LongitudeDegrees>
            </Position>
            <AltitudeMeters>767.20001220703125</AltitudeMeters>
            <DistanceMeters>NAN</DistanceMeters>
          </Trackpoint>
          <Trackpoint>
            <Time>2021-04-02T09:51:13.000Z</Time>
            <Position>
              <LatitudeDegrees>42.34800833277404308319091796875</LatitudeDegrees>
              <LongitudeDegrees>2.60149455629289150238037109375</LongitudeDegrees>
            </Position>
            <AltitudeMeters>767.5999755859375</AltitudeMeters>
            <DistanceMeters>NAN</DistanceMeters>
          </Trackpoint>
          <Trackpoint>
            <Time>2021-04-02T09:51:14.000Z</Time>
            <Position>
              <LatitudeDegrees>42.3480166308581829071044921875</LatitudeDegrees>
              <LongitudeDegrees>2.60150427930057048797607421875</LongitudeDegrees>
            </Position>
            <AltitudeMeters>767.79998779296875</AltitudeMeters>
            <DistanceMeters>NAN</DistanceMeters>
          </Trackpoint>
          <Trackpoint>
            <Time>2021-04-02T09:51:18.000Z</Time>
            <Position>
              <LatitudeDegrees>42.348028533160686492919921875</LatitudeDegrees>
              <LongitudeDegrees>2.6015456020832061767578125</LongitudeDegrees>
            </Position>
            <AltitudeMeters>768.20001220703125</AltitudeMeters>
            <DistanceMeters>NAN</DistanceMeters>
          </Trackpoint>
          <Trackpoint>
            <Time>2021-04-02T09:51:20.000Z</Time>
            <Position>
              <LatitudeDegrees>42.34802191145718097686767578125</LatitudeDegrees>
              <LongitudeDegrees>2.6015675626695156097412109375</LongitudeDegrees>
            </Position>
            <AltitudeMeters>768.4000244140625</AltitudeMeters>
            <DistanceMeters>NAN</DistanceMeters>
          </Trackpoint>
          <Trackpoint>
            <Time>2021-04-02T09:51:23.000Z</Time>
            <Position>
              <LatitudeDegrees>42.34802509658038616180419921875</LatitudeDegrees>
              <LongitudeDegrees>2.6015930436551570892333984375</LongitudeDegrees>
            </Position>
            <AltitudeMeters>768.79998779296875</AltitudeMeters>
            <DistanceMeters>NAN</DistanceMeters>
          </Trackpoint>
          <Trackpoint>
            <Time>2021-04-02T09:51:25.000Z</Time>
            <Position>
              <LatitudeDegrees>42.348036579787731170654296875</LatitudeDegrees>
              <LongitudeDegrees>2.60160259902477264404296875</LongitudeDegrees>
            </Position>
            <AltitudeMeters>769.20001220703125</AltitudeMeters>
            <DistanceMeters>NAN</DistanceMeters>
          </Trackpoint>
          <Trackpoint>
            <Time>2021-04-02T09:51:28.000Z</Time>
            <Position>
              <LatitudeDegrees>42.34805862419307231903076171875</LatitudeDegrees>
              <LongitudeDegrees>2.60163352824747562408447265625</LongitudeDegrees>
            </Position>
            <AltitudeMeters>769.79998779296875</AltitudeMeters>
            <DistanceMeters>NAN</DistanceMeters>
          </Trackpoint>
          <Trackpoint>
            <Time>2021-04-02T09:51:32.000Z</Time>
            <Position>
              <LatitudeDegrees>42.34806482680141925811767578125</LatitudeDegrees>
              <LongitudeDegrees>2.60166294872760772705078125</LongitudeDegrees>
            </Position>
            <AltitudeMeters>770.5999755859375</AltitudeMeters>
            <DistanceMeters>NAN</DistanceMeters>
          </Trackpoint>
          <Trackpoint>
            <Time>2021-04-02T09:51:35.000Z</Time>
            <Position>
              <LatitudeDegrees>42.3480451293289661407470703125</LatitudeDegrees>
              <LongitudeDegrees>2.6016939617693424224853515625</LongitudeDegrees>
            </Position>
            <AltitudeMeters>771</AltitudeMeters>
            <DistanceMeters>NAN</DistanceMeters>
          </Trackpoint>
          <Trackpoint>
            <Time>2021-04-02T09:51:37.000Z</Time>
            <Position>
              <LatitudeDegrees>42.34804806299507617950439453125</LatitudeDegrees>
              <LongitudeDegrees>2.601701505482196807861328125</LongitudeDegrees>
            </Position>
            <AltitudeMeters>771</AltitudeMeters>
            <DistanceMeters>NAN</DistanceMeters>
          </Trackpoint>
          <Trackpoint>
            <Time>2021-04-02T09:51:43.000Z</Time>
            <Position>
              <LatitudeDegrees>42.3480504937469959259033203125</LatitudeDegrees>
              <LongitudeDegrees>2.60174785740673542022705078125</LongitudeDegrees>
            </Position>
            <AltitudeMeters>772</AltitudeMeters>
            <DistanceMeters>NAN</DistanceMeters>
          </Trackpoint>
          <Trackpoint>
            <Time>2021-04-02T09:51:51.000Z</Time>
            <Position>
              <LatitudeDegrees>42.34802073799073696136474609375</LatitudeDegrees>
              <LongitudeDegrees>2.60176428593695163726806640625</LongitudeDegrees>
            </Position>
            <AltitudeMeters>772.4000244140625</AltitudeMeters>
            <DistanceMeters>NAN</DistanceMeters>
          </Trackpoint>
          <Trackpoint>
            <Time>2021-04-02T09:51:54.000Z</Time>
            <Position>
              <LatitudeDegrees>42.34799441881477832794189453125</LatitudeDegrees>
              <LongitudeDegrees>2.601749114692211151123046875</LongitudeDegrees>
            </Position>
            <AltitudeMeters>772.4000244140625</AltitudeMeters>
            <DistanceMeters>NAN</DistanceMeters>
          </Trackpoint>
          <Trackpoint>
            <Time>2021-04-02T09:51:56.000Z</Time>
            <Position>
              <LatitudeDegrees>42.3479921557009220123291015625</LatitudeDegrees>
              <LongitudeDegrees>2.601745426654815673828125</LongitudeDegrees>
            </Position>
            <AltitudeMeters>772.4000244140625</AltitudeMeters>
            <DistanceMeters>NAN</DistanceMeters>
          </Trackpoint>
          <Trackpoint>
            <Time>2021-04-02T09:51:58.000Z</Time>
            <Position>
              <LatitudeDegrees>42.3479921557009220123291015625</LatitudeDegrees>
              <LongitudeDegrees>2.601745426654815673828125</LongitudeDegrees>
            </Position>
            <AltitudeMeters>772.5999755859375</AltitudeMeters>
            <DistanceMeters>NAN</DistanceMeters>
          </Trackpoint>
          <Trackpoint>
            <Time>2021-04-02T09:52:01.000Z</Time>
            <Position>
              <LatitudeDegrees>42.3479921557009220123291015625</LatitudeDegrees>
              <LongitudeDegrees>2.601745426654815673828125</LongitudeDegrees>
            </Position>
            <AltitudeMeters>772.5999755859375</AltitudeMeters>
            <DistanceMeters>NAN</DistanceMeters>
          </Trackpoint>
          <Trackpoint>
            <Time>2021-04-02T09:52:11.000Z</Time>
            <Position>
              <LatitudeDegrees>42.3479898087680339813232421875</LatitudeDegrees>
              <LongitudeDegrees>2.60174316354095935821533203125</LongitudeDegrees>
            </Position>
            <AltitudeMeters>772.5999755859375</AltitudeMeters>
            <DistanceMeters>NAN</DistanceMeters>
          </Trackpoint>
          <Trackpoint>
            <Time>2021-04-02T09:52:12.000Z</Time>
            <Position>
              <LatitudeDegrees>42.34798268415033817291259765625</LatitudeDegrees>
              <LongitudeDegrees>2.60174207389354705810546875</LongitudeDegrees>
            </Position>
            <AltitudeMeters>772.5999755859375</AltitudeMeters>
            <DistanceMeters>NAN</DistanceMeters>
          </Trackpoint>
          <Trackpoint>
            <Time>2021-04-02T09:52:13.000Z</Time>
            <Position>
              <LatitudeDegrees>42.347980923950672149658203125</LatitudeDegrees>
              <LongitudeDegrees>2.6017382182180881500244140625</LongitudeDegrees>
            </Position>
            <AltitudeMeters>772.5999755859375</AltitudeMeters>
            <DistanceMeters>NAN</DistanceMeters>
          </Trackpoint>
          <Trackpoint>
            <Time>2021-04-02T09:52:25.000Z</Time>
            <Position>
              <LatitudeDegrees>42.34796826727688312530517578125</LatitudeDegrees>
              <LongitudeDegrees>2.6016845740377902984619140625</LongitudeDegrees>
            </Position>
            <AltitudeMeters>772.5999755859375</AltitudeMeters>
            <DistanceMeters>NAN</DistanceMeters>
          </Trackpoint>
          <Trackpoint>
            <Time>2021-04-02T09:52:29.000Z</Time>
            <Position>
              <LatitudeDegrees>42.34796809963881969451904296875</LatitudeDegrees>
              <LongitudeDegrees>2.6016845740377902984619140625</LongitudeDegrees>
            </Position>
            <AltitudeMeters>772.79998779296875</AltitudeMeters>
            <DistanceMeters>NAN</DistanceMeters>
          </Trackpoint>
          <Trackpoint>
            <Time>2021-04-02T09:52:37.000Z</Time>
            <Position>
              <LatitudeDegrees>42.3479676805436611175537109375</LatitudeDegrees>
              <LongitudeDegrees>2.6016872562468051910400390625</LongitudeDegrees>
            </Position>
            <AltitudeMeters>773</AltitudeMeters>
            <DistanceMeters>NAN</DistanceMeters>
          </Trackpoint>
          <Trackpoint>
            <Time>2021-04-02T09:52:44.000Z</Time>
            <Position>
              <LatitudeDegrees>42.34796809963881969451904296875</LatitudeDegrees>
              <LongitudeDegrees>2.6016986556351184844970703125</LongitudeDegrees>
            </Position>
            <AltitudeMeters>772.79998779296875</AltitudeMeters>
            <DistanceMeters>NAN</DistanceMeters>
          </Trackpoint>
          <Trackpoint>
            <Time>2021-04-02T09:52:48.000Z</Time>
            <Position>
              <LatitudeDegrees>42.34796877019107341766357421875</LatitudeDegrees>
              <LongitudeDegrees>2.6017073728144168853759765625</LongitudeDegrees>
            </Position>
            <AltitudeMeters>773</AltitudeMeters>
            <DistanceMeters>NAN</DistanceMeters>
          </Trackpoint>
          <Trackpoint>
            <Time>2021-04-02T09:52:54.000Z</Time>
            <Position>
              <LatitudeDegrees>42.3479712009429931640625</LatitudeDegrees>
              <LongitudeDegrees>2.60171550326049327850341796875</LongitudeDegrees>
            </Position>
            <AltitudeMeters>774.20001220703125</AltitudeMeters>
            <DistanceMeters>NAN</DistanceMeters>
          </Trackpoint>
          <Trackpoint>
            <Time>2021-04-02T09:52:57.000Z</Time>
            <Position>
              <LatitudeDegrees>42.3479713685810565948486328125</LatitudeDegrees>
              <LongitudeDegrees>2.6017170958220958709716796875</LongitudeDegrees>
            </Position>
            <AltitudeMeters>774.79998779296875</AltitudeMeters>
            <DistanceMeters>NAN</DistanceMeters>
          </Trackpoint>
          <Trackpoint>
            <Time>2021-04-02T09:53:01.000Z</Time>
            <Position>
              <LatitudeDegrees>42.34796583652496337890625</LatitudeDegrees>
              <LongitudeDegrees>2.6017999090254306793212890625</LongitudeDegrees>
            </Position>
            <AltitudeMeters>775.4000244140625</AltitudeMeters>
            <DistanceMeters>NAN</DistanceMeters>
          </Trackpoint>
          <Trackpoint>
            <Time>2021-04-02T09:53:03.000Z</Time>
            <Position>
              <LatitudeDegrees>42.34796742908656597137451171875</LatitudeDegrees>
              <LongitudeDegrees>2.60183737613260746002197265625</LongitudeDegrees>
            </Position>
            <AltitudeMeters>775.79998779296875</AltitudeMeters>
            <DistanceMeters>NAN</DistanceMeters>
          </Trackpoint>
          <Trackpoint>
            <Time>2021-04-02T09:53:11.000Z</Time>
            <Position>
              <LatitudeDegrees>42.347989976406097412109375</LatitudeDegrees>
              <LongitudeDegrees>2.6019118912518024444580078125</LongitudeDegrees>
            </Position>
            <AltitudeMeters>776.20001220703125</AltitudeMeters>
            <DistanceMeters>NAN</DistanceMeters>
          </Trackpoint>
          <Trackpoint>
            <Time>2021-04-02T09:53:12.000Z</Time>
            <Position>
              <LatitudeDegrees>42.3479926586151123046875</LatitudeDegrees>
              <LongitudeDegrees>2.60191851295530796051025390625</LongitudeDegrees>
            </Position>
            <AltitudeMeters>776.20001220703125</AltitudeMeters>
            <DistanceMeters>NAN</DistanceMeters>
          </Trackpoint>
          <Trackpoint>
            <Time>2021-04-02T09:53:18.000Z</Time>
            <Position>
              <LatitudeDegrees>42.34798930585384368896484375</LatitudeDegrees>
              <LongitudeDegrees>2.60197500698268413543701171875</LongitudeDegrees>
            </Position>
            <AltitudeMeters>776.5999755859375</AltitudeMeters>
            <DistanceMeters>NAN</DistanceMeters>
          </Trackpoint>
          <Trackpoint>
            <Time>2021-04-02T09:53:19.000Z</Time>
            <Position>
              <LatitudeDegrees>42.34798687510192394256591796875</LatitudeDegrees>
              <LongitudeDegrees>2.60198154486715793609619140625</LongitudeDegrees>
            </Position>
            <AltitudeMeters>776.5999755859375</AltitudeMeters>
            <DistanceMeters>NAN</DistanceMeters>
          </Trackpoint>
          <Trackpoint>
            <Time>2021-04-02T09:53:25.000Z</Time>
            <Position>
              <LatitudeDegrees>42.3479670099914073944091796875</LatitudeDegrees>
              <LongitudeDegrees>2.60202479548752307891845703125</LongitudeDegrees>
            </Position>
            <AltitudeMeters>777.20001220703125</AltitudeMeters>
            <DistanceMeters>NAN</DistanceMeters>
          </Trackpoint>
          <Trackpoint>
            <Time>2021-04-02T09:53:27.000Z</Time>
            <Position>
              <LatitudeDegrees>42.3479683510959148406982421875</LatitudeDegrees>
              <LongitudeDegrees>2.60203820653259754180908203125</LongitudeDegrees>
            </Position>
            <AltitudeMeters>777.4000244140625</AltitudeMeters>
            <DistanceMeters>NAN</DistanceMeters>
          </Trackpoint>
          <Trackpoint>
            <Time>2021-04-02T09:53:28.000Z</Time>
            <Position>
              <LatitudeDegrees>42.34797195531427860260009765625</LatitudeDegrees>
              <LongitudeDegrees>2.60204575024545192718505859375</LongitudeDegrees>
            </Position>
            <AltitudeMeters>777.5999755859375</AltitudeMeters>
            <DistanceMeters>NAN</DistanceMeters>
          </Trackpoint>
          <Trackpoint>
            <Time>2021-04-02T09:53:29.000Z</Time>
            <Position>
              <LatitudeDegrees>42.34797195531427860260009765625</LatitudeDegrees>
              <LongitudeDegrees>2.602054886519908905029296875</LongitudeDegrees>
            </Position>
            <AltitudeMeters>777.5999755859375</AltitudeMeters>
            <DistanceMeters>NAN</DistanceMeters>
          </Trackpoint>
          <Trackpoint>
            <Time>2021-04-02T09:53:33.000Z</Time>
            <Position>
              <LatitudeDegrees>42.34795217402279376983642578125</LatitudeDegrees>
              <LongitudeDegrees>2.6021194271743297576904296875</LongitudeDegrees>
            </Position>
            <AltitudeMeters>778.20001220703125</AltitudeMeters>
            <DistanceMeters>NAN</DistanceMeters>
          </Trackpoint>
          <Trackpoint>
            <Time>2021-04-02T09:53:36.000Z</Time>
            <Position>
              <LatitudeDegrees>42.347933985292911529541015625</LatitudeDegrees>
              <LongitudeDegrees>2.6021452434360980987548828125</LongitudeDegrees>
            </Position>
            <AltitudeMeters>778.5999755859375</AltitudeMeters>
            <DistanceMeters>NAN</DistanceMeters>
          </Trackpoint>
          <Trackpoint>
            <Time>2021-04-02T09:53:37.000Z</Time>
            <Position>
              <LatitudeDegrees>42.3479308001697063446044921875</LatitudeDegrees>
              <LongitudeDegrees>2.60215580463409423828125</LongitudeDegrees>
            </Position>
            <AltitudeMeters>778.79998779296875</AltitudeMeters>
            <DistanceMeters>NAN</DistanceMeters>
          </Trackpoint>
          <Trackpoint>
            <Time>2021-04-02T09:53:41.000Z</Time>
            <Position>
              <LatitudeDegrees>42.34790506772696971893310546875</LatitudeDegrees>
              <LongitudeDegrees>2.6021920144557952880859375</LongitudeDegrees>
            </Position>
            <AltitudeMeters>779.5999755859375</AltitudeMeters>
            <DistanceMeters>NAN</DistanceMeters>
          </Trackpoint>
          <Trackpoint>
            <Time>2021-04-02T09:53:42.000Z</Time>
            <Position>
              <LatitudeDegrees>42.34789400361478328704833984375</LatitudeDegrees>
              <LongitudeDegrees>2.6022022403776645660400390625</LongitudeDegrees>
            </Position>
            <AltitudeMeters>779.79998779296875</AltitudeMeters>
            <DistanceMeters>NAN</DistanceMeters>
          </Trackpoint>
          <Trackpoint>
            <Time>2021-04-02T09:53:45.000Z</Time>
            <Position>
              <LatitudeDegrees>42.3478741385042667388916015625</LatitudeDegrees>
              <LongitudeDegrees>2.6022283919155597686767578125</LongitudeDegrees>
            </Position>
            <AltitudeMeters>780</AltitudeMeters>
            <DistanceMeters>NAN</DistanceMeters>
          </Trackpoint>
          <Trackpoint>
            <Time>2021-04-02T09:53:50.000Z</Time>
            <Position>
              <LatitudeDegrees>42.34782711602747440338134765625</LatitudeDegrees>
              <LongitudeDegrees>2.60226066224277019500732421875</LongitudeDegrees>
            </Position>
            <AltitudeMeters>780.79998779296875</AltitudeMeters>
            <DistanceMeters>NAN</DistanceMeters>
          </Trackpoint>
          <Trackpoint>
            <Time>2021-04-02T09:53:57.000Z</Time>
            <Position>
              <LatitudeDegrees>42.3477933369576930999755859375</LatitudeDegrees>
              <LongitudeDegrees>2.6023004762828350067138671875</LongitudeDegrees>
            </Position>
            <AltitudeMeters>781.79998779296875</AltitudeMeters>
            <DistanceMeters>NAN</DistanceMeters>
          </Trackpoint>
          <Trackpoint>
            <Time>2021-04-02T09:53:58.000Z</Time>
            <Position>
              <LatitudeDegrees>42.34779417514801025390625</LatitudeDegrees>
              <LongitudeDegrees>2.60230424813926219940185546875</LongitudeDegrees>
            </Position>
            <AltitudeMeters>782</AltitudeMeters>
            <DistanceMeters>NAN</DistanceMeters>
          </Trackpoint>
          <Trackpoint>
            <Time>2021-04-02T09:54:05.000Z</Time>
            <Position>
              <LatitudeDegrees>42.34776609577238559722900390625</LatitudeDegrees>
              <LongitudeDegrees>2.6023625023663043975830078125</LongitudeDegrees>
            </Position>
            <AltitudeMeters>782.79998779296875</AltitudeMeters>
            <DistanceMeters>NAN</DistanceMeters>
          </Trackpoint>
          <Trackpoint>
            <Time>2021-04-02T09:54:07.000Z</Time>
            <Position>
              <LatitudeDegrees>42.34776106663048267364501953125</LatitudeDegrees>
              <LongitudeDegrees>2.602368704974651336669921875</LongitudeDegrees>
            </Position>
            <AltitudeMeters>783</AltitudeMeters>
            <DistanceMeters>NAN</DistanceMeters>
          </Trackpoint>
          <Trackpoint>
            <Time>2021-04-02T09:54:13.000Z</Time>
            <Position>
              <LatitudeDegrees>42.34777296893298625946044921875</LatitudeDegrees>
              <LongitudeDegrees>2.6023904979228973388671875</LongitudeDegrees>
            </Position>
            <AltitudeMeters>784</AltitudeMeters>
            <DistanceMeters>NAN</DistanceMeters>
          </Trackpoint>
          <Trackpoint>
            <Time>2021-04-02T09:54:14.000Z</Time>
            <Position>
              <LatitudeDegrees>42.34777548350393772125244140625</LatitudeDegrees>
              <LongitudeDegrees>2.60239326395094394683837890625</LongitudeDegrees>
            </Position>
            <AltitudeMeters>784.20001220703125</AltitudeMeters>
            <DistanceMeters>NAN</DistanceMeters>
          </Trackpoint>
          <Trackpoint>
            <Time>2021-04-02T09:54:17.000Z</Time>
            <Position>
              <LatitudeDegrees>42.34776534140110015869140625</LatitudeDegrees>
              <LongitudeDegrees>2.6024173200130462646484375</LongitudeDegrees>
            </Position>
            <AltitudeMeters>784.5999755859375</AltitudeMeters>
            <DistanceMeters>NAN</DistanceMeters>
          </Trackpoint>
          <Trackpoint>
            <Time>2021-04-02T09:54:21.000Z</Time>
            <Position>
              <LatitudeDegrees>42.34775201417505741119384765625</LatitudeDegrees>
              <LongitudeDegrees>2.60244347155094146728515625</LongitudeDegrees>
            </Position>
            <AltitudeMeters>785</AltitudeMeters>
            <DistanceMeters>NAN</DistanceMeters>
          </Trackpoint>
          <Trackpoint>
            <Time>2021-04-02T09:54:26.000Z</Time>
            <Position>
              <LatitudeDegrees>42.3477418720722198486328125</LatitudeDegrees>
              <LongitudeDegrees>2.60245847515761852264404296875</LongitudeDegrees>
            </Position>
            <AltitudeMeters>786.20001220703125</AltitudeMeters>
            <DistanceMeters>NAN</DistanceMeters>
          </Trackpoint>
          <Trackpoint>
            <Time>2021-04-02T09:54:29.000Z</Time>
            <Position>
              <LatitudeDegrees>42.34775184653699398040771484375</LatitudeDegrees>
              <LongitudeDegrees>2.602469623088836669921875</LongitudeDegrees>
            </Position>
            <AltitudeMeters>786.5999755859375</AltitudeMeters>
            <DistanceMeters>NAN</DistanceMeters>
          </Trackpoint>
          <Trackpoint>
            <Time>2021-04-02T09:54:33.000Z</Time>
            <Position>
              <LatitudeDegrees>42.34772519208490848541259765625</LatitudeDegrees>
              <LongitudeDegrees>2.6024912483990192413330078125</LongitudeDegrees>
            </Position>
            <AltitudeMeters>787.20001220703125</AltitudeMeters>
            <DistanceMeters>NAN</DistanceMeters>
          </Trackpoint>
          <Trackpoint>
            <Time>2021-04-02T09:54:39.000Z</Time>
            <Position>
              <LatitudeDegrees>42.34768914990127086639404296875</LatitudeDegrees>
              <LongitudeDegrees>2.60251647792756557464599609375</LongitudeDegrees>
            </Position>
            <AltitudeMeters>788.20001220703125</AltitudeMeters>
            <DistanceMeters>NAN</DistanceMeters>
          </Trackpoint>
          <Trackpoint>
            <Time>2021-04-02T09:54:40.000Z</Time>
            <Position>
              <LatitudeDegrees>42.34768529422581195831298828125</LatitudeDegrees>
              <LongitudeDegrees>2.6025224290788173675537109375</LongitudeDegrees>
            </Position>
            <AltitudeMeters>788.4000244140625</AltitudeMeters>
            <DistanceMeters>NAN</DistanceMeters>
          </Trackpoint>
          <Trackpoint>
            <Time>2021-04-02T09:54:46.000Z</Time>
            <Position>
              <LatitudeDegrees>42.347664423286914825439453125</LatitudeDegrees>
              <LongitudeDegrees>2.60255520232021808624267578125</LongitudeDegrees>
            </Position>
            <AltitudeMeters>789.4000244140625</AltitudeMeters>
            <DistanceMeters>NAN</DistanceMeters>
          </Trackpoint>
          <Trackpoint>
            <Time>2021-04-02T09:54:49.000Z</Time>
            <Position>
              <LatitudeDegrees>42.34766400419175624847412109375</LatitudeDegrees>
              <LongitudeDegrees>2.60257087647914886474609375</LongitudeDegrees>
            </Position>
            <AltitudeMeters>789.79998779296875</AltitudeMeters>
            <DistanceMeters>NAN</DistanceMeters>
          </Trackpoint>
          <Trackpoint>
            <Time>2021-04-02T09:54:53.000Z</Time>
            <Position>
              <LatitudeDegrees>42.34765914268791675567626953125</LatitudeDegrees>
              <LongitudeDegrees>2.60258085094392299652099609375</LongitudeDegrees>
            </Position>
            <AltitudeMeters>790.4000244140625</AltitudeMeters>
            <DistanceMeters>NAN</DistanceMeters>
          </Trackpoint>
          <Trackpoint>
            <Time>2021-04-02T09:54:55.000Z</Time>
            <Position>
              <LatitudeDegrees>42.347649000585079193115234375</LatitudeDegrees>
              <LongitudeDegrees>2.60259493254125118255615234375</LongitudeDegrees>
            </Position>
            <AltitudeMeters>790.79998779296875</AltitudeMeters>
            <DistanceMeters>NAN</DistanceMeters>
          </Trackpoint>
          <Trackpoint>
            <Time>2021-04-02T09:54:58.000Z</Time>
            <Position>
              <LatitudeDegrees>42.34763047657907009124755859375</LatitudeDegrees>
              <LongitudeDegrees>2.60260867886245250701904296875</LongitudeDegrees>
            </Position>
            <AltitudeMeters>791.4000244140625</AltitudeMeters>
            <DistanceMeters>NAN</DistanceMeters>
          </Trackpoint>
          <Trackpoint>
            <Time>2021-04-02T09:55:03.000Z</Time>
            <Position>
              <LatitudeDegrees>42.34760767780244350433349609375</LatitudeDegrees>
              <LongitudeDegrees>2.6026189886033535003662109375</LongitudeDegrees>
            </Position>
            <AltitudeMeters>792.4000244140625</AltitudeMeters>
            <DistanceMeters>NAN</DistanceMeters>
          </Trackpoint>
          <Trackpoint>
            <Time>2021-04-02T09:55:07.000Z</Time>
            <Position>
              <LatitudeDegrees>42.34759728424251079559326171875</LatitudeDegrees>
              <LongitudeDegrees>2.60264405049383640289306640625</LongitudeDegrees>
            </Position>
            <AltitudeMeters>793.20001220703125</AltitudeMeters>
            <DistanceMeters>NAN</DistanceMeters>
          </Trackpoint>
          <Trackpoint>
            <Time>2021-04-02T09:55:09.000Z</Time>
            <Position>
              <LatitudeDegrees>42.3475851304829120635986328125</LatitudeDegrees>
              <LongitudeDegrees>2.60265477932989597320556640625</LongitudeDegrees>
            </Position>
            <AltitudeMeters>793.4000244140625</AltitudeMeters>
            <DistanceMeters>NAN</DistanceMeters>
          </Trackpoint>
          <Trackpoint>
            <Time>2021-04-02T09:55:10.000Z</Time>
            <Position>
              <LatitudeDegrees>42.347576916217803955078125</LatitudeDegrees>
              <LongitudeDegrees>2.6026614010334014892578125</LongitudeDegrees>
            </Position>
            <AltitudeMeters>793.79998779296875</AltitudeMeters>
            <DistanceMeters>NAN</DistanceMeters>
          </Trackpoint>
          <Trackpoint>
            <Time>2021-04-02T09:55:15.000Z</Time>
            <Position>
              <LatitudeDegrees>42.3475308157503604888916015625</LatitudeDegrees>
              <LongitudeDegrees>2.60268813930451869964599609375</LongitudeDegrees>
            </Position>
            <AltitudeMeters>794.5999755859375</AltitudeMeters>
            <DistanceMeters>NAN</DistanceMeters>
          </Trackpoint>
          <Trackpoint>
            <Time>2021-04-02T09:55:16.000Z</Time>
            <Position>
              <LatitudeDegrees>42.347527630627155303955078125</LatitudeDegrees>
              <LongitudeDegrees>2.6026957668364048004150390625</LongitudeDegrees>
            </Position>
            <AltitudeMeters>794.79998779296875</AltitudeMeters>
            <DistanceMeters>NAN</DistanceMeters>
          </Trackpoint>
          <Trackpoint>
            <Time>2021-04-02T09:55:21.000Z</Time>
            <Position>
              <LatitudeDegrees>42.3475321568548679351806640625</LatitudeDegrees>
              <LongitudeDegrees>2.6027390174567699432373046875</LongitudeDegrees>
            </Position>
            <AltitudeMeters>795.5999755859375</AltitudeMeters>
            <DistanceMeters>NAN</DistanceMeters>
          </Trackpoint>
          <Trackpoint>
            <Time>2021-04-02T09:55:24.000Z</Time>
            <Position>
              <LatitudeDegrees>42.34751011244952678680419921875</LatitudeDegrees>
              <LongitudeDegrees>2.60276793502271175384521484375</LongitudeDegrees>
            </Position>
            <AltitudeMeters>796</AltitudeMeters>
            <DistanceMeters>NAN</DistanceMeters>
          </Trackpoint>
          <Trackpoint>
            <Time>2021-04-02T09:55:31.000Z</Time>
            <Position>
              <LatitudeDegrees>42.34747943468391895294189453125</LatitudeDegrees>
              <LongitudeDegrees>2.6028238423168659210205078125</LongitudeDegrees>
            </Position>
            <AltitudeMeters>796.4000244140625</AltitudeMeters>
            <DistanceMeters>NAN</DistanceMeters>
          </Trackpoint>
          <Trackpoint>
            <Time>2021-04-02T09:55:33.000Z</Time>
            <Position>
              <LatitudeDegrees>42.34746971167623996734619140625</LatitudeDegrees>
              <LongitudeDegrees>2.60283599607646465301513671875</LongitudeDegrees>
            </Position>
            <AltitudeMeters>796.79998779296875</AltitudeMeters>
            <DistanceMeters>NAN</DistanceMeters>
          </Trackpoint>
          <Trackpoint>
            <Time>2021-04-02T09:55:41.000Z</Time>
            <Position>
              <LatitudeDegrees>42.3474486730992794036865234375</LatitudeDegrees>
              <LongitudeDegrees>2.60288611985743045806884765625</LongitudeDegrees>
            </Position>
            <AltitudeMeters>797.5999755859375</AltitudeMeters>
            <DistanceMeters>NAN</DistanceMeters>
          </Trackpoint>
          <Trackpoint>
            <Time>2021-04-02T09:55:44.000Z</Time>
            <Position>
              <LatitudeDegrees>42.34743718989193439483642578125</LatitudeDegrees>
              <LongitudeDegrees>2.6029079966247081756591796875</LongitudeDegrees>
            </Position>
            <AltitudeMeters>797.79998779296875</AltitudeMeters>
            <DistanceMeters>NAN</DistanceMeters>
          </Trackpoint>
          <Trackpoint>
            <Time>2021-04-02T09:55:49.000Z</Time>
            <Position>
              <LatitudeDegrees>42.34739787876605987548828125</LatitudeDegrees>
              <LongitudeDegrees>2.6029349863529205322265625</LongitudeDegrees>
            </Position>
            <AltitudeMeters>798.4000244140625</AltitudeMeters>
            <DistanceMeters>NAN</DistanceMeters>
          </Trackpoint>
          <Trackpoint>
            <Time>2021-04-02T09:55:52.000Z</Time>
            <Position>
              <LatitudeDegrees>42.347354628145694732666015625</LatitudeDegrees>
              <LongitudeDegrees>2.60295837186276912689208984375</LongitudeDegrees>
            </Position>
            <AltitudeMeters>798.79998779296875</AltitudeMeters>
            <DistanceMeters>NAN</DistanceMeters>
          </Trackpoint>
          <Trackpoint>
            <Time>2021-04-02T09:55:56.000Z</Time>
            <Position>
              <LatitudeDegrees>42.34732210636138916015625</LatitudeDegrees>
              <LongitudeDegrees>2.60298888199031352996826171875</LongitudeDegrees>
            </Position>
            <AltitudeMeters>799.4000244140625</AltitudeMeters>
            <DistanceMeters>NAN</DistanceMeters>
          </Trackpoint>
          <Trackpoint>
            <Time>2021-04-02T09:56:03.000Z</Time>
            <Position>
              <LatitudeDegrees>42.347255051136016845703125</LatitudeDegrees>
              <LongitudeDegrees>2.60305006988346576690673828125</LongitudeDegrees>
            </Position>
            <AltitudeMeters>799.5999755859375</AltitudeMeters>
            <DistanceMeters>NAN</DistanceMeters>
          </Trackpoint>
          <Trackpoint>
            <Time>2021-04-02T09:56:06.000Z</Time>
            <Position>
              <LatitudeDegrees>42.34721372835338115692138671875</LatitudeDegrees>
              <LongitudeDegrees>2.60305174626410007476806640625</LongitudeDegrees>
            </Position>
            <AltitudeMeters>799.79998779296875</AltitudeMeters>
            <DistanceMeters>NAN</DistanceMeters>
          </Trackpoint>
          <Trackpoint>
            <Time>2021-04-02T09:56:10.000Z</Time>
            <Position>
              <LatitudeDegrees>42.3472062684595584869384765625</LatitudeDegrees>
              <LongitudeDegrees>2.60307940654456615447998046875</LongitudeDegrees>
            </Position>
            <AltitudeMeters>800.4000244140625</AltitudeMeters>
            <DistanceMeters>NAN</DistanceMeters>
          </Trackpoint>
          <Trackpoint>
            <Time>2021-04-02T09:56:11.000Z</Time>
            <Position>
              <LatitudeDegrees>42.34720341861248016357421875</LatitudeDegrees>
              <LongitudeDegrees>2.60308728553354740142822265625</LongitudeDegrees>
            </Position>
            <AltitudeMeters>800.5999755859375</AltitudeMeters>
            <DistanceMeters>NAN</DistanceMeters>
          </Trackpoint>
          <Trackpoint>
            <Time>2021-04-02T09:56:13.000Z</Time>
            <Position>
              <LatitudeDegrees>42.3472012393176555633544921875</LatitudeDegrees>
              <LongitudeDegrees>2.6031044684350490570068359375</LongitudeDegrees>
            </Position>
            <AltitudeMeters>800.79998779296875</AltitudeMeters>
            <DistanceMeters>NAN</DistanceMeters>
          </Trackpoint>
          <Trackpoint>
            <Time>2021-04-02T09:56:14.000Z</Time>
            <Position>
              <LatitudeDegrees>42.3471915163099765777587890625</LatitudeDegrees>
              <LongitudeDegrees>2.60310807265341281890869140625</LongitudeDegrees>
            </Position>
            <AltitudeMeters>801</AltitudeMeters>
            <DistanceMeters>NAN</DistanceMeters>
          </Trackpoint>
          <Trackpoint>
            <Time>2021-04-02T09:56:17.000Z</Time>
            <Position>
              <LatitudeDegrees>42.3471707291901111602783203125</LatitudeDegrees>
              <LongitudeDegrees>2.60313372127711772918701171875</LongitudeDegrees>
            </Position>
            <AltitudeMeters>801.20001220703125</AltitudeMeters>
            <DistanceMeters>NAN</DistanceMeters>
          </Trackpoint>
          <Trackpoint>
            <Time>2021-04-02T09:56:19.000Z</Time>
            <Position>
              <LatitudeDegrees>42.34716276638209819793701171875</LatitudeDegrees>
              <LongitudeDegrees>2.603150568902492523193359375</LongitudeDegrees>
            </Position>
            <AltitudeMeters>801.4000244140625</AltitudeMeters>
            <DistanceMeters>NAN</DistanceMeters>
          </Trackpoint>
          <Trackpoint>
            <Time>2021-04-02T09:56:20.000Z</Time>
            <Position>
              <LatitudeDegrees>42.34715589322149753570556640625</LatitudeDegrees>
              <LongitudeDegrees>2.60316096246242523193359375</LongitudeDegrees>
            </Position>
            <AltitudeMeters>801.5999755859375</AltitudeMeters>
            <DistanceMeters>NAN</DistanceMeters>
          </Trackpoint>
          <Trackpoint>
            <Time>2021-04-02T09:56:21.000Z</Time>
            <Position>
              <LatitudeDegrees>42.347151450812816619873046875</LatitudeDegrees>
              <LongitudeDegrees>2.60316272266209125518798828125</LongitudeDegrees>
            </Position>
            <AltitudeMeters>801.79998779296875</AltitudeMeters>
            <DistanceMeters>NAN</DistanceMeters>
          </Trackpoint>
          <Trackpoint>
            <Time>2021-04-02T09:56:22.000Z</Time>
            <Position>
              <LatitudeDegrees>42.34714818187057971954345703125</LatitudeDegrees>
              <LongitudeDegrees>2.603162638843059539794921875</LongitudeDegrees>
            </Position>
            <AltitudeMeters>802</AltitudeMeters>
            <DistanceMeters>NAN</DistanceMeters>
          </Trackpoint>
          <Trackpoint>
            <Time>2021-04-02T09:56:25.000Z</Time>
            <Position>
              <LatitudeDegrees>42.34713443554937839508056640625</LatitudeDegrees>
              <LongitudeDegrees>2.60316791944205760955810546875</LongitudeDegrees>
            </Position>
            <AltitudeMeters>802.4000244140625</AltitudeMeters>
            <DistanceMeters>NAN</DistanceMeters>
          </Trackpoint>
          <Trackpoint>
            <Time>2021-04-02T09:56:30.000Z</Time>
            <Position>
              <LatitudeDegrees>42.347112558782100677490234375</LatitudeDegrees>
              <LongitudeDegrees>2.60321192443370819091796875</LongitudeDegrees>
            </Position>
            <AltitudeMeters>803</AltitudeMeters>
            <DistanceMeters>NAN</DistanceMeters>
          </Trackpoint>
          <Trackpoint>
            <Time>2021-04-02T09:56:32.000Z</Time>
            <Position>
              <LatitudeDegrees>42.3471030034124851226806640625</LatitudeDegrees>
              <LongitudeDegrees>2.6032353937625885009765625</LongitudeDegrees>
            </Position>
            <AltitudeMeters>803</AltitudeMeters>
            <DistanceMeters>NAN</DistanceMeters>
          </Trackpoint>
          <Trackpoint>
            <Time>2021-04-02T09:56:39.000Z</Time>
            <Position>
              <LatitudeDegrees>42.347069643437862396240234375</LatitudeDegrees>
              <LongitudeDegrees>2.60328275151550769805908203125</LongitudeDegrees>
            </Position>
            <AltitudeMeters>804</AltitudeMeters>
            <DistanceMeters>NAN</DistanceMeters>
          </Trackpoint>
          <Trackpoint>
            <Time>2021-04-02T09:56:41.000Z</Time>
            <Position>
              <LatitudeDegrees>42.3470651172101497650146484375</LatitudeDegrees>
              <LongitudeDegrees>2.603298760950565338134765625</LongitudeDegrees>
            </Position>
            <AltitudeMeters>804.20001220703125</AltitudeMeters>
            <DistanceMeters>NAN</DistanceMeters>
          </Trackpoint>
          <Trackpoint>
            <Time>2021-04-02T09:56:47.000Z</Time>
            <Position>
              <LatitudeDegrees>42.3470657877624034881591796875</LatitudeDegrees>
              <LongitudeDegrees>2.6033158600330352783203125</LongitudeDegrees>
            </Position>
            <AltitudeMeters>804.5999755859375</AltitudeMeters>
            <DistanceMeters>NAN</DistanceMeters>
          </Trackpoint>
          <Trackpoint>
            <Time>2021-04-02T09:56:53.000Z</Time>
            <Position>
              <LatitudeDegrees>42.3470201902091503143310546875</LatitudeDegrees>
              <LongitudeDegrees>2.60337419807910919189453125</LongitudeDegrees>
            </Position>
            <AltitudeMeters>805</AltitudeMeters>
            <DistanceMeters>NAN</DistanceMeters>
          </Trackpoint>
          <Trackpoint>
            <Time>2021-04-02T09:57:00.000Z</Time>
            <Position>
              <LatitudeDegrees>42.3469989001750946044921875</LatitudeDegrees>
              <LongitudeDegrees>2.6034152694046497344970703125</LongitudeDegrees>
            </Position>
            <AltitudeMeters>805.5999755859375</AltitudeMeters>
            <DistanceMeters>NAN</DistanceMeters>
          </Trackpoint>
          <Trackpoint>
            <Time>2021-04-02T09:57:02.000Z</Time>
            <Position>
              <LatitudeDegrees>42.34700091183185577392578125</LatitudeDegrees>
              <LongitudeDegrees>2.60342591442167758941650390625</LongitudeDegrees>
            </Position>
            <AltitudeMeters>806</AltitudeMeters>
            <DistanceMeters>NAN</DistanceMeters>
          </Trackpoint>
          <Trackpoint>
            <Time>2021-04-02T09:57:05.000Z</Time>
            <Position>
              <LatitudeDegrees>42.3470010794699192047119140625</LatitudeDegrees>
              <LongitudeDegrees>2.60345592163503170013427734375</LongitudeDegrees>
            </Position>
            <AltitudeMeters>806.20001220703125</AltitudeMeters>
            <DistanceMeters>NAN</DistanceMeters>
          </Trackpoint>
          <Trackpoint>
            <Time>2021-04-02T09:57:08.000Z</Time>
            <Position>
              <LatitudeDegrees>42.34698750078678131103515625</LatitudeDegrees>
              <LongitudeDegrees>2.60347218252718448638916015625</LongitudeDegrees>
            </Position>
            <AltitudeMeters>806.4000244140625</AltitudeMeters>
            <DistanceMeters>NAN</DistanceMeters>
          </Trackpoint>
          <Trackpoint>
            <Time>2021-04-02T09:57:11.000Z</Time>
            <Position>
              <LatitudeDegrees>42.34696679748594760894775390625</LatitudeDegrees>
              <LongitudeDegrees>2.6034907065331935882568359375</LongitudeDegrees>
            </Position>
            <AltitudeMeters>806.4000244140625</AltitudeMeters>
            <DistanceMeters>NAN</DistanceMeters>
          </Trackpoint>
          <Trackpoint>
            <Time>2021-04-02T09:57:17.000Z</Time>
            <Position>
              <LatitudeDegrees>42.3469212837517261505126953125</LatitudeDegrees>
              <LongitudeDegrees>2.60352431796491146087646484375</LongitudeDegrees>
            </Position>
            <AltitudeMeters>807</AltitudeMeters>
            <DistanceMeters>NAN</DistanceMeters>
          </Trackpoint>
          <Trackpoint>
            <Time>2021-04-02T09:57:18.000Z</Time>
            <Position>
              <LatitudeDegrees>42.3469102196395397186279296875</LatitudeDegrees>
              <LongitudeDegrees>2.60353320278227329254150390625</LongitudeDegrees>
            </Position>
            <AltitudeMeters>807.20001220703125</AltitudeMeters>
            <DistanceMeters>NAN</DistanceMeters>
          </Trackpoint>
          <Trackpoint>
            <Time>2021-04-02T09:57:26.000Z</Time>
            <Position>
              <LatitudeDegrees>42.34685833565890789031982421875</LatitudeDegrees>
              <LongitudeDegrees>2.60357343591749668121337890625</LongitudeDegrees>
            </Position>
            <AltitudeMeters>808</AltitudeMeters>
            <DistanceMeters>NAN</DistanceMeters>
          </Trackpoint>
          <Trackpoint>
            <Time>2021-04-02T09:57:28.000Z</Time>
            <Position>
              <LatitudeDegrees>42.3468384705483913421630859375</LatitudeDegrees>
              <LongitudeDegrees>2.60360511951148509979248046875</LongitudeDegrees>
            </Position>
            <AltitudeMeters>808.20001220703125</AltitudeMeters>
            <DistanceMeters>NAN</DistanceMeters>
          </Trackpoint>
          <Trackpoint>
            <Time>2021-04-02T09:57:33.000Z</Time>
            <Position>
              <LatitudeDegrees>42.3468005843460559844970703125</LatitudeDegrees>
              <LongitudeDegrees>2.60360361076891422271728515625</LongitudeDegrees>
            </Position>
            <AltitudeMeters>808.5999755859375</AltitudeMeters>
            <DistanceMeters>NAN</DistanceMeters>
          </Trackpoint>
          <Trackpoint>
            <Time>2021-04-02T09:57:34.000Z</Time>
            <Position>
              <LatitudeDegrees>42.34679647721350193023681640625</LatitudeDegrees>
              <LongitudeDegrees>2.60361148975789546966552734375</LongitudeDegrees>
            </Position>
            <AltitudeMeters>808.79998779296875</AltitudeMeters>
            <DistanceMeters>NAN</DistanceMeters>
          </Trackpoint>
          <Trackpoint>
            <Time>2021-04-02T09:57:39.000Z</Time>
            <Position>
              <LatitudeDegrees>42.3467405699193477630615234375</LatitudeDegrees>
              <LongitudeDegrees>2.60365557856857776641845703125</LongitudeDegrees>
            </Position>
            <AltitudeMeters>809</AltitudeMeters>
            <DistanceMeters>NAN</DistanceMeters>
          </Trackpoint>
          <Trackpoint>
            <Time>2021-04-02T09:57:40.000Z</Time>
            <Position>
              <LatitudeDegrees>42.34673746861517429351806640625</LatitudeDegrees>
              <LongitudeDegrees>2.60365272872149944305419921875</LongitudeDegrees>
            </Position>
            <AltitudeMeters>809.20001220703125</AltitudeMeters>
            <DistanceMeters>NAN</DistanceMeters>
          </Trackpoint>
          <Trackpoint>
            <Time>2021-04-02T09:57:45.000Z</Time>
            <Position>
              <LatitudeDegrees>42.3467197827994823455810546875</LatitudeDegrees>
              <LongitudeDegrees>2.6036519743502140045166015625</LongitudeDegrees>
            </Position>
            <AltitudeMeters>810</AltitudeMeters>
            <DistanceMeters>NAN</DistanceMeters>
          </Trackpoint>
          <Trackpoint>
            <Time>2021-04-02T09:57:47.000Z</Time>
            <Position>
              <LatitudeDegrees>42.34670394100248813629150390625</LatitudeDegrees>
              <LongitudeDegrees>2.6036536507308483123779296875</LongitudeDegrees>
            </Position>
            <AltitudeMeters>810.4000244140625</AltitudeMeters>
            <DistanceMeters>NAN</DistanceMeters>
          </Trackpoint>
          <Trackpoint>
            <Time>2021-04-02T09:57:53.000Z</Time>
            <Position>
              <LatitudeDegrees>42.34664644114673137664794921875</LatitudeDegrees>
              <LongitudeDegrees>2.60367033071815967559814453125</LongitudeDegrees>
            </Position>
            <AltitudeMeters>811</AltitudeMeters>
            <DistanceMeters>NAN</DistanceMeters>
          </Trackpoint>
          <Trackpoint>
            <Time>2021-04-02T09:57:59.000Z</Time>
            <Position>
              <LatitudeDegrees>42.34657569788396358489990234375</LatitudeDegrees>
              <LongitudeDegrees>2.6037240587174892425537109375</LongitudeDegrees>
            </Position>
            <AltitudeMeters>811.4000244140625</AltitudeMeters>
            <DistanceMeters>NAN</DistanceMeters>
          </Trackpoint>
          <Trackpoint>
            <Time>2021-04-02T09:58:00.000Z</Time>
            <Position>
              <LatitudeDegrees>42.34657175838947296142578125</LatitudeDegrees>
              <LongitudeDegrees>2.60373252443969249725341796875</LongitudeDegrees>
            </Position>
            <AltitudeMeters>811.5999755859375</AltitudeMeters>
            <DistanceMeters>NAN</DistanceMeters>
          </Trackpoint>
          <Trackpoint>
            <Time>2021-04-02T09:58:07.000Z</Time>
            <Position>
              <LatitudeDegrees>42.34655164182186126708984375</LatitudeDegrees>
              <LongitudeDegrees>2.60376353748142719268798828125</LongitudeDegrees>
            </Position>
            <AltitudeMeters>812.4000244140625</AltitudeMeters>
            <DistanceMeters>NAN</DistanceMeters>
          </Trackpoint>
          <Trackpoint>
            <Time>2021-04-02T09:58:13.000Z</Time>
            <Position>
              <LatitudeDegrees>42.34652456827461719512939453125</LatitudeDegrees>
              <LongitudeDegrees>2.603762112557888031005859375</LongitudeDegrees>
            </Position>
            <AltitudeMeters>813.20001220703125</AltitudeMeters>
            <DistanceMeters>NAN</DistanceMeters>
          </Trackpoint>
          <Trackpoint>
            <Time>2021-04-02T09:58:16.000Z</Time>
            <Position>
              <LatitudeDegrees>42.34648467041552066802978515625</LatitudeDegrees>
              <LongitudeDegrees>2.60376621969044208526611328125</LongitudeDegrees>
            </Position>
            <AltitudeMeters>813.5999755859375</AltitudeMeters>
            <DistanceMeters>NAN</DistanceMeters>
          </Trackpoint>
          <Trackpoint>
            <Time>2021-04-02T09:58:19.000Z</Time>
            <Position>
              <LatitudeDegrees>42.34647058881819248199462890625</LatitudeDegrees>
              <LongitudeDegrees>2.603766135871410369873046875</LongitudeDegrees>
            </Position>
            <AltitudeMeters>814</AltitudeMeters>
            <DistanceMeters>NAN</DistanceMeters>
          </Trackpoint>
          <Trackpoint>
            <Time>2021-04-02T09:58:23.000Z</Time>
            <Position>
              <LatitudeDegrees>42.34644175507128238677978515625</LatitudeDegrees>
              <LongitudeDegrees>2.60376588441431522369384765625</LongitudeDegrees>
            </Position>
            <AltitudeMeters>814.79998779296875</AltitudeMeters>
            <DistanceMeters>NAN</DistanceMeters>
          </Trackpoint>
          <Trackpoint>
            <Time>2021-04-02T09:58:28.000Z</Time>
            <Position>
              <LatitudeDegrees>42.3464088141918182373046875</LatitudeDegrees>
              <LongitudeDegrees>2.6037699915468692779541015625</LongitudeDegrees>
            </Position>
            <AltitudeMeters>815.4000244140625</AltitudeMeters>
            <DistanceMeters>NAN</DistanceMeters>
          </Trackpoint>
          <Trackpoint>
            <Time>2021-04-02T09:58:31.000Z</Time>
            <Position>
              <LatitudeDegrees>42.34638911671936511993408203125</LatitudeDegrees>
              <LongitudeDegrees>2.60377158410847187042236328125</LongitudeDegrees>
            </Position>
            <AltitudeMeters>815.79998779296875</AltitudeMeters>
            <DistanceMeters>NAN</DistanceMeters>
          </Trackpoint>
          <Trackpoint>
            <Time>2021-04-02T09:58:36.000Z</Time>
            <Position>
              <LatitudeDegrees>42.34635491855442523956298828125</LatitudeDegrees>
              <LongitudeDegrees>2.60377963073551654815673828125</LongitudeDegrees>
            </Position>
            <AltitudeMeters>816.5999755859375</AltitudeMeters>
            <DistanceMeters>NAN</DistanceMeters>
          </Trackpoint>
          <Trackpoint>
            <Time>2021-04-02T09:58:38.000Z</Time>
            <Position>
              <LatitudeDegrees>42.34634318388998508453369140625</LatitudeDegrees>
              <LongitudeDegrees>2.60378147475421428680419921875</LongitudeDegrees>
            </Position>
            <AltitudeMeters>817</AltitudeMeters>
            <DistanceMeters>NAN</DistanceMeters>
          </Trackpoint>
          <Trackpoint>
            <Time>2021-04-02T09:58:45.000Z</Time>
            <Position>
              <LatitudeDegrees>42.34630353748798370361328125</LatitudeDegrees>
              <LongitudeDegrees>2.60379002429544925689697265625</LongitudeDegrees>
            </Position>
            <AltitudeMeters>818</AltitudeMeters>
            <DistanceMeters>NAN</DistanceMeters>
          </Trackpoint>
          <Trackpoint>
            <Time>2021-04-02T09:58:47.000Z</Time>
            <Position>
              <LatitudeDegrees>42.34629414975643157958984375</LatitudeDegrees>
              <LongitudeDegrees>2.60379119776189327239990234375</LongitudeDegrees>
            </Position>
            <AltitudeMeters>818.4000244140625</AltitudeMeters>
            <DistanceMeters>NAN</DistanceMeters>
          </Trackpoint>
          <Trackpoint>
            <Time>2021-04-02T09:58:51.000Z</Time>
            <Position>
              <LatitudeDegrees>42.34626707620918750762939453125</LatitudeDegrees>
              <LongitudeDegrees>2.60379941202700138092041015625</LongitudeDegrees>
            </Position>
            <AltitudeMeters>819</AltitudeMeters>
            <DistanceMeters>NAN</DistanceMeters>
          </Trackpoint>
          <Trackpoint>
            <Time>2021-04-02T09:58:56.000Z</Time>
            <Position>
              <LatitudeDegrees>42.346238829195499420166015625</LatitudeDegrees>
              <LongitudeDegrees>2.6038142479956150054931640625</LongitudeDegrees>
            </Position>
            <AltitudeMeters>820</AltitudeMeters>
            <DistanceMeters>NAN</DistanceMeters>
          </Trackpoint>
          <Trackpoint>
            <Time>2021-04-02T09:59:03.000Z</Time>
            <Position>
              <LatitudeDegrees>42.346185855567455291748046875</LatitudeDegrees>
              <LongitudeDegrees>2.6038233004510402679443359375</LongitudeDegrees>
            </Position>
            <AltitudeMeters>821.4000244140625</AltitudeMeters>
            <DistanceMeters>NAN</DistanceMeters>
          </Trackpoint>
          <Trackpoint>
            <Time>2021-04-02T09:59:05.000Z</Time>
            <Position>
              <LatitudeDegrees>42.34617403708398342132568359375</LatitudeDegrees>
              <LongitudeDegrees>2.603828497231006622314453125</LongitudeDegrees>
            </Position>
            <AltitudeMeters>821.5999755859375</AltitudeMeters>
            <DistanceMeters>NAN</DistanceMeters>
          </Trackpoint>
          <Trackpoint>
            <Time>2021-04-02T09:59:11.000Z</Time>
            <Position>
              <LatitudeDegrees>42.34613346867263317108154296875</LatitudeDegrees>
              <LongitudeDegrees>2.60386101901531219482421875</LongitudeDegrees>
            </Position>
            <AltitudeMeters>822.4000244140625</AltitudeMeters>
            <DistanceMeters>NAN</DistanceMeters>
          </Trackpoint>
          <Trackpoint>
            <Time>2021-04-02T09:59:16.000Z</Time>
            <Position>
              <LatitudeDegrees>42.34608627855777740478515625</LatitudeDegrees>
              <LongitudeDegrees>2.6038630306720733642578125</LongitudeDegrees>
            </Position>
            <AltitudeMeters>823</AltitudeMeters>
            <DistanceMeters>NAN</DistanceMeters>
          </Trackpoint>
          <Trackpoint>
            <Time>2021-04-02T09:59:21.000Z</Time>
            <Position>
              <LatitudeDegrees>42.3460472188889980316162109375</LatitudeDegrees>
              <LongitudeDegrees>2.60386168956756591796875</LongitudeDegrees>
            </Position>
            <AltitudeMeters>823.4000244140625</AltitudeMeters>
            <DistanceMeters>NAN</DistanceMeters>
          </Trackpoint>
          <Trackpoint>
            <Time>2021-04-02T09:59:27.000Z</Time>
            <Position>
              <LatitudeDegrees>42.34600170515477657318115234375</LatitudeDegrees>
              <LongitudeDegrees>2.6038538105785846710205078125</LongitudeDegrees>
            </Position>
            <AltitudeMeters>823.5999755859375</AltitudeMeters>
            <DistanceMeters>NAN</DistanceMeters>
          </Trackpoint>
          <Trackpoint>
            <Time>2021-04-02T09:59:30.000Z</Time>
            <Position>
              <LatitudeDegrees>42.3459768109023571014404296875</LatitudeDegrees>
              <LongitudeDegrees>2.6038336940109729766845703125</LongitudeDegrees>
            </Position>
            <AltitudeMeters>823.20001220703125</AltitudeMeters>
            <DistanceMeters>NAN</DistanceMeters>
          </Trackpoint>
          <Trackpoint>
            <Time>2021-04-02T09:59:35.000Z</Time>
            <Position>
              <LatitudeDegrees>42.34594856388866901397705078125</LatitudeDegrees>
              <LongitudeDegrees>2.60379253886640071868896484375</LongitudeDegrees>
            </Position>
            <AltitudeMeters>822.5999755859375</AltitudeMeters>
            <DistanceMeters>NAN</DistanceMeters>
          </Trackpoint>
          <Trackpoint>
            <Time>2021-04-02T09:59:39.000Z</Time>
            <Position>
              <LatitudeDegrees>42.345927692949771881103515625</LatitudeDegrees>
              <LongitudeDegrees>2.6037549041211605072021484375</LongitudeDegrees>
            </Position>
            <AltitudeMeters>822.4000244140625</AltitudeMeters>
            <DistanceMeters>NAN</DistanceMeters>
          </Trackpoint>
          <Trackpoint>
            <Time>2021-04-02T09:59:43.000Z</Time>
            <Position>
              <LatitudeDegrees>42.34590531326830387115478515625</LatitudeDegrees>
              <LongitudeDegrees>2.6037101447582244873046875</LongitudeDegrees>
            </Position>
            <AltitudeMeters>822.20001220703125</AltitudeMeters>
            <DistanceMeters>NAN</DistanceMeters>
          </Trackpoint>
          <Trackpoint>
            <Time>2021-04-02T09:59:44.000Z</Time>
            <Position>
              <LatitudeDegrees>42.34590045176446437835693359375</LatitudeDegrees>
              <LongitudeDegrees>2.60370117612183094024658203125</LongitudeDegrees>
            </Position>
            <AltitudeMeters>822.20001220703125</AltitudeMeters>
            <DistanceMeters>NAN</DistanceMeters>
          </Trackpoint>
          <Trackpoint>
            <Time>2021-04-02T09:59:49.000Z</Time>
            <Position>
              <LatitudeDegrees>42.34587061218917369842529296875</LatitudeDegrees>
              <LongitudeDegrees>2.6036479510366916656494140625</LongitudeDegrees>
            </Position>
            <AltitudeMeters>821.4000244140625</AltitudeMeters>
            <DistanceMeters>NAN</DistanceMeters>
          </Trackpoint>
          <Trackpoint>
            <Time>2021-04-02T09:59:53.000Z</Time>
            <Position>
              <LatitudeDegrees>42.3458376713097095489501953125</LatitudeDegrees>
              <LongitudeDegrees>2.6035973243415355682373046875</LongitudeDegrees>
            </Position>
            <AltitudeMeters>820.5999755859375</AltitudeMeters>
            <DistanceMeters>NAN</DistanceMeters>
          </Trackpoint>
          <Trackpoint>
            <Time>2021-04-02T09:59:55.000Z</Time>
            <Position>
              <LatitudeDegrees>42.34582534991204738616943359375</LatitudeDegrees>
              <LongitudeDegrees>2.60357460938394069671630859375</LongitudeDegrees>
            </Position>
            <AltitudeMeters>820.20001220703125</AltitudeMeters>
            <DistanceMeters>NAN</DistanceMeters>
          </Trackpoint>
          <Trackpoint>
            <Time>2021-04-02T10:00:03.000Z</Time>
            <Position>
              <LatitudeDegrees>42.3457696102559566497802734375</LatitudeDegrees>
              <LongitudeDegrees>2.6034950651228427886962890625</LongitudeDegrees>
            </Position>
            <AltitudeMeters>819.4000244140625</AltitudeMeters>
            <DistanceMeters>NAN</DistanceMeters>
          </Trackpoint>
          <Trackpoint>
            <Time>2021-04-02T10:00:04.000Z</Time>
            <Position>
              <LatitudeDegrees>42.345764078199863433837890625</LatitudeDegrees>
              <LongitudeDegrees>2.60348525829613208770751953125</LongitudeDegrees>
            </Position>
            <AltitudeMeters>819.20001220703125</AltitudeMeters>
            <DistanceMeters>NAN</DistanceMeters>
          </Trackpoint>
          <Trackpoint>
            <Time>2021-04-02T10:00:09.000Z</Time>
            <Position>
              <LatitudeDegrees>42.34572577290236949920654296875</LatitudeDegrees>
              <LongitudeDegrees>2.60343044064939022064208984375</LongitudeDegrees>
            </Position>
            <AltitudeMeters>818.5999755859375</AltitudeMeters>
            <DistanceMeters>NAN</DistanceMeters>
          </Trackpoint>
          <Trackpoint>
            <Time>2021-04-02T10:00:14.000Z</Time>
            <Position>
              <LatitudeDegrees>42.34568034298717975616455078125</LatitudeDegrees>
              <LongitudeDegrees>2.6033857651054859161376953125</LongitudeDegrees>
            </Position>
            <AltitudeMeters>818</AltitudeMeters>
            <DistanceMeters>NAN</DistanceMeters>
          </Trackpoint>
          <Trackpoint>
            <Time>2021-04-02T10:00:24.000Z</Time>
            <Position>
              <LatitudeDegrees>42.34560457058250904083251953125</LatitudeDegrees>
              <LongitudeDegrees>2.60327897965908050537109375</LongitudeDegrees>
            </Position>
            <AltitudeMeters>817.20001220703125</AltitudeMeters>
            <DistanceMeters>NAN</DistanceMeters>
          </Trackpoint>
          <Trackpoint>
            <Time>2021-04-02T10:00:26.000Z</Time>
            <Position>
              <LatitudeDegrees>42.345590405166149139404296875</LatitudeDegrees>
              <LongitudeDegrees>2.6032637245953083038330078125</LongitudeDegrees>
            </Position>
            <AltitudeMeters>817</AltitudeMeters>
            <DistanceMeters>NAN</DistanceMeters>
          </Trackpoint>
          <Trackpoint>
            <Time>2021-04-02T10:00:27.000Z</Time>
            <Position>
              <LatitudeDegrees>42.3455838672816753387451171875</LatitudeDegrees>
              <LongitudeDegrees>2.603258527815341949462890625</LongitudeDegrees>
            </Position>
            <AltitudeMeters>817</AltitudeMeters>
            <DistanceMeters>NAN</DistanceMeters>
          </Trackpoint>
          <Trackpoint>
            <Time>2021-04-02T10:00:31.000Z</Time>
            <Position>
              <LatitudeDegrees>42.34555008821189403533935546875</LatitudeDegrees>
              <LongitudeDegrees>2.6032114215195178985595703125</LongitudeDegrees>
            </Position>
            <AltitudeMeters>817</AltitudeMeters>
            <DistanceMeters>NAN</DistanceMeters>
          </Trackpoint>
          <Trackpoint>
            <Time>2021-04-02T10:00:38.000Z</Time>
            <Position>
              <LatitudeDegrees>42.3454940132796764373779296875</LatitudeDegrees>
              <LongitudeDegrees>2.60313908569514751434326171875</LongitudeDegrees>
            </Position>
            <AltitudeMeters>816.4000244140625</AltitudeMeters>
            <DistanceMeters>NAN</DistanceMeters>
          </Trackpoint>
          <Trackpoint>
            <Time>2021-04-02T10:00:42.000Z</Time>
            <Position>
              <LatitudeDegrees>42.34546241350471973419189453125</LatitudeDegrees>
              <LongitudeDegrees>2.60310195386409759521484375</LongitudeDegrees>
            </Position>
            <AltitudeMeters>816.4000244140625</AltitudeMeters>
            <DistanceMeters>NAN</DistanceMeters>
          </Trackpoint>
          <Trackpoint>
            <Time>2021-04-02T10:00:46.000Z</Time>
            <Position>
              <LatitudeDegrees>42.3454293049871921539306640625</LatitudeDegrees>
              <LongitudeDegrees>2.60306574404239654541015625</LongitudeDegrees>
            </Position>
            <AltitudeMeters>816.4000244140625</AltitudeMeters>
            <DistanceMeters>NAN</DistanceMeters>
          </Trackpoint>
          <Trackpoint>
            <Time>2021-04-02T10:00:53.000Z</Time>
            <Position>
              <LatitudeDegrees>42.34537021256983280181884765625</LatitudeDegrees>
              <LongitudeDegrees>2.60300614871084690093994140625</LongitudeDegrees>
            </Position>
            <AltitudeMeters>816</AltitudeMeters>
            <DistanceMeters>NAN</DistanceMeters>
          </Trackpoint>
          <Trackpoint>
            <Time>2021-04-02T10:00:54.000Z</Time>
            <Position>
              <LatitudeDegrees>42.3453632555902004241943359375</LatitudeDegrees>
              <LongitudeDegrees>2.6029981859028339385986328125</LongitudeDegrees>
            </Position>
            <AltitudeMeters>816</AltitudeMeters>
            <DistanceMeters>NAN</DistanceMeters>
          </Trackpoint>
          <Trackpoint>
            <Time>2021-04-02T10:01:01.000Z</Time>
            <Position>
              <LatitudeDegrees>42.345302738249301910400390625</LatitudeDegrees>
              <LongitudeDegrees>2.60295015759766101837158203125</LongitudeDegrees>
            </Position>
            <AltitudeMeters>815.79998779296875</AltitudeMeters>
            <DistanceMeters>NAN</DistanceMeters>
          </Trackpoint>
          <Trackpoint>
            <Time>2021-04-02T10:01:09.000Z</Time>
            <Position>
              <LatitudeDegrees>42.34521799720823764801025390625</LatitudeDegrees>
              <LongitudeDegrees>2.602903135120868682861328125</LongitudeDegrees>
            </Position>
            <AltitudeMeters>815.20001220703125</AltitudeMeters>
            <DistanceMeters>NAN</DistanceMeters>
          </Trackpoint>
          <Trackpoint>
            <Time>2021-04-02T10:01:12.000Z</Time>
            <Position>
              <LatitudeDegrees>42.345188744366168975830078125</LatitudeDegrees>
              <LongitudeDegrees>2.602888382971286773681640625</LongitudeDegrees>
            </Position>
            <AltitudeMeters>815</AltitudeMeters>
            <DistanceMeters>NAN</DistanceMeters>
          </Trackpoint>
          <Trackpoint>
            <Time>2021-04-02T10:01:17.000Z</Time>
            <Position>
              <LatitudeDegrees>42.3451630957424640655517578125</LatitudeDegrees>
              <LongitudeDegrees>2.60289818979799747467041015625</LongitudeDegrees>
            </Position>
            <AltitudeMeters>814.5999755859375</AltitudeMeters>
            <DistanceMeters>NAN</DistanceMeters>
          </Trackpoint>
          <Trackpoint>
            <Time>2021-04-02T10:01:28.000Z</Time>
            <Position>
              <LatitudeDegrees>42.34517139382660388946533203125</LatitudeDegrees>
              <LongitudeDegrees>2.60290740989148616790771484375</LongitudeDegrees>
            </Position>
            <AltitudeMeters>814.20001220703125</AltitudeMeters>
            <DistanceMeters>NAN</DistanceMeters>
          </Trackpoint>
          <Trackpoint>
            <Time>2021-04-02T10:01:31.000Z</Time>
            <Position>
              <LatitudeDegrees>42.34517139382660388946533203125</LatitudeDegrees>
              <LongitudeDegrees>2.60290740989148616790771484375</LongitudeDegrees>
            </Position>
            <AltitudeMeters>814.20001220703125</AltitudeMeters>
            <DistanceMeters>NAN</DistanceMeters>
          </Trackpoint>
          <Trackpoint>
            <Time>2021-04-02T10:01:35.000Z</Time>
            <Position>
              <LatitudeDegrees>42.34517139382660388946533203125</LatitudeDegrees>
              <LongitudeDegrees>2.60290740989148616790771484375</LongitudeDegrees>
            </Position>
            <AltitudeMeters>814</AltitudeMeters>
            <DistanceMeters>NAN</DistanceMeters>
          </Trackpoint>
          <Trackpoint>
            <Time>2021-04-02T10:01:39.000Z</Time>
            <Position>
              <LatitudeDegrees>42.34517139382660388946533203125</LatitudeDegrees>
              <LongitudeDegrees>2.60290523059666156768798828125</LongitudeDegrees>
            </Position>
            <AltitudeMeters>813.79998779296875</AltitudeMeters>
            <DistanceMeters>NAN</DistanceMeters>
          </Trackpoint>
          <Trackpoint>
            <Time>2021-04-02T10:01:45.000Z</Time>
            <Position>
              <LatitudeDegrees>42.34517592005431652069091796875</LatitudeDegrees>
              <LongitudeDegrees>2.6029016263782978057861328125</LongitudeDegrees>
            </Position>
            <AltitudeMeters>813.79998779296875</AltitudeMeters>
            <DistanceMeters>NAN</DistanceMeters>
          </Trackpoint>
          <Trackpoint>
            <Time>2021-04-02T10:01:56.000Z</Time>
            <Position>
              <LatitudeDegrees>42.34510651789605617523193359375</LatitudeDegrees>
              <LongitudeDegrees>2.602867595851421356201171875</LongitudeDegrees>
            </Position>
            <AltitudeMeters>813.5999755859375</AltitudeMeters>
            <DistanceMeters>NAN</DistanceMeters>
          </Trackpoint>
          <Trackpoint>
            <Time>2021-04-02T10:02:02.000Z</Time>
            <Position>
              <LatitudeDegrees>42.345025129616260528564453125</LatitudeDegrees>
              <LongitudeDegrees>2.6028449647128582000732421875</LongitudeDegrees>
            </Position>
            <AltitudeMeters>813.79998779296875</AltitudeMeters>
            <DistanceMeters>NAN</DistanceMeters>
          </Trackpoint>
          <Trackpoint>
            <Time>2021-04-02T10:02:09.000Z</Time>
            <Position>
              <LatitudeDegrees>42.34495975077152252197265625</LatitudeDegrees>
              <LongitudeDegrees>2.6028121076524257659912109375</LongitudeDegrees>
            </Position>
            <AltitudeMeters>814.20001220703125</AltitudeMeters>
            <DistanceMeters>NAN</DistanceMeters>
          </Trackpoint>
          <Trackpoint>
            <Time>2021-04-02T10:02:21.000Z</Time>
            <Position>
              <LatitudeDegrees>42.3448315076529979705810546875</LatitudeDegrees>
              <LongitudeDegrees>2.60279618203639984130859375</LongitudeDegrees>
            </Position>
            <AltitudeMeters>814.20001220703125</AltitudeMeters>
            <DistanceMeters>NAN</DistanceMeters>
          </Trackpoint>
          <Trackpoint>
            <Time>2021-04-02T10:02:29.000Z</Time>
            <Position>
              <LatitudeDegrees>42.344753555953502655029296875</LatitudeDegrees>
              <LongitudeDegrees>2.6027970202267169952392578125</LongitudeDegrees>
            </Position>
            <AltitudeMeters>813.79998779296875</AltitudeMeters>
            <DistanceMeters>NAN</DistanceMeters>
          </Trackpoint>
          <Trackpoint>
            <Time>2021-04-02T10:02:31.000Z</Time>
            <Position>
              <LatitudeDegrees>42.34473486430943012237548828125</LatitudeDegrees>
              <LongitudeDegrees>2.602800540626049041748046875</LongitudeDegrees>
            </Position>
            <AltitudeMeters>813.79998779296875</AltitudeMeters>
            <DistanceMeters>NAN</DistanceMeters>
          </Trackpoint>
          <Trackpoint>
            <Time>2021-04-02T10:02:32.000Z</Time>
            <Position>
              <LatitudeDegrees>42.34472564421594142913818359375</LatitudeDegrees>
              <LongitudeDegrees>2.60280422866344451904296875</LongitudeDegrees>
            </Position>
            <AltitudeMeters>813.79998779296875</AltitudeMeters>
            <DistanceMeters>NAN</DistanceMeters>
          </Trackpoint>
          <Trackpoint>
            <Time>2021-04-02T10:02:33.000Z</Time>
            <Position>
              <LatitudeDegrees>42.344719357788562774658203125</LatitudeDegrees>
              <LongitudeDegrees>2.60280582122504711151123046875</LongitudeDegrees>
            </Position>
            <AltitudeMeters>813.79998779296875</AltitudeMeters>
            <DistanceMeters>NAN</DistanceMeters>
          </Trackpoint>
          <Trackpoint>
            <Time>2021-04-02T10:02:36.000Z</Time>
            <Position>
              <LatitudeDegrees>42.3446853272616863250732421875</LatitudeDegrees>
              <LongitudeDegrees>2.60282174684107303619384765625</LongitudeDegrees>
            </Position>
            <AltitudeMeters>813.20001220703125</AltitudeMeters>
            <DistanceMeters>NAN</DistanceMeters>
          </Trackpoint>
          <Trackpoint>
            <Time>2021-04-02T10:02:40.000Z</Time>
            <Position>
              <LatitudeDegrees>42.3446477763354778289794921875</LatitudeDegrees>
              <LongitudeDegrees>2.6028550229966640472412109375</LongitudeDegrees>
            </Position>
            <AltitudeMeters>812.79998779296875</AltitudeMeters>
            <DistanceMeters>NAN</DistanceMeters>
          </Trackpoint>
          <Trackpoint>
            <Time>2021-04-02T10:02:49.000Z</Time>
            <Position>
              <LatitudeDegrees>42.34459807164967060089111328125</LatitudeDegrees>
              <LongitudeDegrees>2.602931298315525054931640625</LongitudeDegrees>
            </Position>
            <AltitudeMeters>813.20001220703125</AltitudeMeters>
            <DistanceMeters>NAN</DistanceMeters>
          </Trackpoint>
          <Trackpoint>
            <Time>2021-04-02T10:02:53.000Z</Time>
            <Position>
              <LatitudeDegrees>42.34456990845501422882080078125</LatitudeDegrees>
              <LongitudeDegrees>2.6029676757752895355224609375</LongitudeDegrees>
            </Position>
            <AltitudeMeters>813.5999755859375</AltitudeMeters>
            <DistanceMeters>NAN</DistanceMeters>
          </Trackpoint>
          <Trackpoint>
            <Time>2021-04-02T10:02:58.000Z</Time>
            <Position>
              <LatitudeDegrees>42.34453059732913970947265625</LatitudeDegrees>
              <LongitudeDegrees>2.60300849564373493194580078125</LongitudeDegrees>
            </Position>
            <AltitudeMeters>813.5999755859375</AltitudeMeters>
            <DistanceMeters>NAN</DistanceMeters>
          </Trackpoint>
          <Trackpoint>
            <Time>2021-04-02T10:03:04.000Z</Time>
            <Position>
              <LatitudeDegrees>42.34448499977588653564453125</LatitudeDegrees>
              <LongitudeDegrees>2.6030484773218631744384765625</LongitudeDegrees>
            </Position>
            <AltitudeMeters>813.4000244140625</AltitudeMeters>
            <DistanceMeters>NAN</DistanceMeters>
          </Trackpoint>
          <Trackpoint>
            <Time>2021-04-02T10:03:05.000Z</Time>
            <Position>
              <LatitudeDegrees>42.34447837807238101959228515625</LatitudeDegrees>
              <LongitudeDegrees>2.60305677540600299835205078125</LongitudeDegrees>
            </Position>
            <AltitudeMeters>813.4000244140625</AltitudeMeters>
            <DistanceMeters>NAN</DistanceMeters>
          </Trackpoint>
          <Trackpoint>
            <Time>2021-04-02T10:03:07.000Z</Time>
            <Position>
              <LatitudeDegrees>42.34446463175117969512939453125</LatitudeDegrees>
              <LongitudeDegrees>2.60307152755558490753173828125</LongitudeDegrees>
            </Position>
            <AltitudeMeters>813.4000244140625</AltitudeMeters>
            <DistanceMeters>NAN</DistanceMeters>
          </Trackpoint>
          <Trackpoint>
            <Time>2021-04-02T10:03:16.000Z</Time>
            <Position>
              <LatitudeDegrees>42.344372011721134185791015625</LatitudeDegrees>
              <LongitudeDegrees>2.60311377234756946563720703125</LongitudeDegrees>
            </Position>
            <AltitudeMeters>813.79998779296875</AltitudeMeters>
            <DistanceMeters>NAN</DistanceMeters>
          </Trackpoint>
          <Trackpoint>
            <Time>2021-04-02T10:03:19.000Z</Time>
            <Position>
              <LatitudeDegrees>42.34434896148741245269775390625</LatitudeDegrees>
              <LongitudeDegrees>2.6031289435923099517822265625</LongitudeDegrees>
            </Position>
            <AltitudeMeters>814.4000244140625</AltitudeMeters>
            <DistanceMeters>NAN</DistanceMeters>
          </Trackpoint>
          <Trackpoint>
            <Time>2021-04-02T10:03:23.000Z</Time>
            <Position>
              <LatitudeDegrees>42.34431141056120395660400390625</LatitudeDegrees>
              <LongitudeDegrees>2.60315216146409511566162109375</LongitudeDegrees>
            </Position>
            <AltitudeMeters>814.79998779296875</AltitudeMeters>
            <DistanceMeters>NAN</DistanceMeters>
          </Trackpoint>
          <Trackpoint>
            <Time>2021-04-02T10:03:26.000Z</Time>
            <Position>
              <LatitudeDegrees>42.344293557107448577880859375</LatitudeDegrees>
              <LongitudeDegrees>2.60318501852452754974365234375</LongitudeDegrees>
            </Position>
            <AltitudeMeters>814.79998779296875</AltitudeMeters>
            <DistanceMeters>NAN</DistanceMeters>
          </Trackpoint>
          <Trackpoint>
            <Time>2021-04-02T10:03:27.000Z</Time>
            <Position>
              <LatitudeDegrees>42.344286851584911346435546875</LatitudeDegrees>
              <LongitudeDegrees>2.60319574736058712005615234375</LongitudeDegrees>
            </Position>
            <AltitudeMeters>814.79998779296875</AltitudeMeters>
            <DistanceMeters>NAN</DistanceMeters>
          </Trackpoint>
          <Trackpoint>
            <Time>2021-04-02T10:03:37.000Z</Time>
            <Position>
              <LatitudeDegrees>42.34422842971980571746826171875</LatitudeDegrees>
              <LongitudeDegrees>2.603300772607326507568359375</LongitudeDegrees>
            </Position>
            <AltitudeMeters>814.79998779296875</AltitudeMeters>
            <DistanceMeters>NAN</DistanceMeters>
          </Trackpoint>
          <Trackpoint>
            <Time>2021-04-02T10:03:39.000Z</Time>
            <Position>
              <LatitudeDegrees>42.344227842986583709716796875</LatitudeDegrees>
              <LongitudeDegrees>2.6033160276710987091064453125</LongitudeDegrees>
            </Position>
            <AltitudeMeters>815</AltitudeMeters>
            <DistanceMeters>NAN</DistanceMeters>
          </Trackpoint>
          <Trackpoint>
            <Time>2021-04-02T10:03:48.000Z</Time>
            <Position>
              <LatitudeDegrees>42.34418216161429882049560546875</LatitudeDegrees>
              <LongitudeDegrees>2.60341443121433258056640625</LongitudeDegrees>
            </Position>
            <AltitudeMeters>814.4000244140625</AltitudeMeters>
            <DistanceMeters>NAN</DistanceMeters>
          </Trackpoint>
          <Trackpoint>
            <Time>2021-04-02T10:03:57.000Z</Time>
            <Position>
              <LatitudeDegrees>42.34412667341530323028564453125</LatitudeDegrees>
              <LongitudeDegrees>2.6035306043922901153564453125</LongitudeDegrees>
            </Position>
            <AltitudeMeters>814</AltitudeMeters>
            <DistanceMeters>NAN</DistanceMeters>
          </Trackpoint>
          <Trackpoint>
            <Time>2021-04-02T10:04:09.000Z</Time>
            <Position>
              <LatitudeDegrees>42.34405961818993091583251953125</LatitudeDegrees>
              <LongitudeDegrees>2.60368441231548786163330078125</LongitudeDegrees>
            </Position>
            <AltitudeMeters>814.79998779296875</AltitudeMeters>
            <DistanceMeters>NAN</DistanceMeters>
          </Trackpoint>
          <Trackpoint>
            <Time>2021-04-02T10:04:19.000Z</Time>
            <Position>
              <LatitudeDegrees>42.344015948474407196044921875</LatitudeDegrees>
              <LongitudeDegrees>2.6038152538239955902099609375</LongitudeDegrees>
            </Position>
            <AltitudeMeters>815.20001220703125</AltitudeMeters>
            <DistanceMeters>NAN</DistanceMeters>
          </Trackpoint>
          <Trackpoint>
            <Time>2021-04-02T10:04:28.000Z</Time>
            <Position>
              <LatitudeDegrees>42.3439923115074634552001953125</LatitudeDegrees>
              <LongitudeDegrees>2.60394240729510784149169921875</LongitudeDegrees>
            </Position>
            <AltitudeMeters>815.4000244140625</AltitudeMeters>
            <DistanceMeters>NAN</DistanceMeters>
          </Trackpoint>
          <Trackpoint>
            <Time>2021-04-02T10:04:38.000Z</Time>
            <Position>
              <LatitudeDegrees>42.34395501203835010528564453125</LatitudeDegrees>
              <LongitudeDegrees>2.604065872728824615478515625</LongitudeDegrees>
            </Position>
            <AltitudeMeters>816</AltitudeMeters>
            <DistanceMeters>NAN</DistanceMeters>
          </Trackpoint>
          <Trackpoint>
            <Time>2021-04-02T10:04:39.000Z</Time>
            <Position>
              <LatitudeDegrees>42.3439517430961132049560546875</LatitudeDegrees>
              <LongitudeDegrees>2.60407819412648677825927734375</LongitudeDegrees>
            </Position>
            <AltitudeMeters>816</AltitudeMeters>
            <DistanceMeters>NAN</DistanceMeters>
          </Trackpoint>
          <Trackpoint>
            <Time>2021-04-02T10:04:51.000Z</Time>
            <Position>
              <LatitudeDegrees>42.343876473605632781982421875</LatitudeDegrees>
              <LongitudeDegrees>2.604245245456695556640625</LongitudeDegrees>
            </Position>
            <AltitudeMeters>816</AltitudeMeters>
            <DistanceMeters>NAN</DistanceMeters>
          </Trackpoint>
          <Trackpoint>
            <Time>2021-04-02T10:04:54.000Z</Time>
            <Position>
              <LatitudeDegrees>42.3438618890941143035888671875</LatitudeDegrees>
              <LongitudeDegrees>2.60428749024868011474609375</LongitudeDegrees>
            </Position>
            <AltitudeMeters>815.5999755859375</AltitudeMeters>
            <DistanceMeters>NAN</DistanceMeters>
          </Trackpoint>
          <Trackpoint>
            <Time>2021-04-02T10:04:56.000Z</Time>
            <Position>
              <LatitudeDegrees>42.34385325573384761810302734375</LatitudeDegrees>
              <LongitudeDegrees>2.6043124683201313018798828125</LongitudeDegrees>
            </Position>
            <AltitudeMeters>815.20001220703125</AltitudeMeters>
            <DistanceMeters>NAN</DistanceMeters>
          </Trackpoint>
          <Trackpoint>
            <Time>2021-04-02T10:04:59.000Z</Time>
            <Position>
              <LatitudeDegrees>42.34383414499461650848388671875</LatitudeDegrees>
              <LongitudeDegrees>2.60434649884700775146484375</LongitudeDegrees>
            </Position>
            <AltitudeMeters>814.79998779296875</AltitudeMeters>
            <DistanceMeters>NAN</DistanceMeters>
          </Trackpoint>
          <Trackpoint>
            <Time>2021-04-02T10:05:08.000Z</Time>
            <Position>
              <LatitudeDegrees>42.3437976837158203125</LatitudeDegrees>
              <LongitudeDegrees>2.60448304004967212677001953125</LongitudeDegrees>
            </Position>
            <AltitudeMeters>814</AltitudeMeters>
            <DistanceMeters>NAN</DistanceMeters>
          </Trackpoint>
          <Trackpoint>
            <Time>2021-04-02T10:05:10.000Z</Time>
            <Position>
              <LatitudeDegrees>42.3437921516597270965576171875</LatitudeDegrees>
              <LongitudeDegrees>2.60451707057654857635498046875</LongitudeDegrees>
            </Position>
            <AltitudeMeters>813.79998779296875</AltitudeMeters>
            <DistanceMeters>NAN</DistanceMeters>
          </Trackpoint>
          <Trackpoint>
            <Time>2021-04-02T10:05:13.000Z</Time>
            <Position>
              <LatitudeDegrees>42.3437753878533840179443359375</LatitudeDegrees>
              <LongitudeDegrees>2.604560740292072296142578125</LongitudeDegrees>
            </Position>
            <AltitudeMeters>813.79998779296875</AltitudeMeters>
            <DistanceMeters>NAN</DistanceMeters>
          </Trackpoint>
          <Trackpoint>
            <Time>2021-04-02T10:05:15.000Z</Time>
            <Position>
              <LatitudeDegrees>42.34376708976924419403076171875</LatitudeDegrees>
              <LongitudeDegrees>2.60458244942128658294677734375</LongitudeDegrees>
            </Position>
            <AltitudeMeters>813.5999755859375</AltitudeMeters>
            <DistanceMeters>NAN</DistanceMeters>
          </Trackpoint>
          <Trackpoint>
            <Time>2021-04-02T10:05:16.000Z</Time>
            <Position>
              <LatitudeDegrees>42.34376474283635616302490234375</LatitudeDegrees>
              <LongitudeDegrees>2.60459854267537593841552734375</LongitudeDegrees>
            </Position>
            <AltitudeMeters>813.5999755859375</AltitudeMeters>
            <DistanceMeters>NAN</DistanceMeters>
          </Trackpoint>
          <Trackpoint>
            <Time>2021-04-02T10:05:27.000Z</Time>
            <Position>
              <LatitudeDegrees>42.343682013452053070068359375</LatitudeDegrees>
              <LongitudeDegrees>2.604753859341144561767578125</LongitudeDegrees>
            </Position>
            <AltitudeMeters>813.79998779296875</AltitudeMeters>
            <DistanceMeters>NAN</DistanceMeters>
          </Trackpoint>
          <Trackpoint>
            <Time>2021-04-02T10:05:39.000Z</Time>
            <Position>
              <LatitudeDegrees>42.34355016611516475677490234375</LatitudeDegrees>
              <LongitudeDegrees>2.6048794202506542205810546875</LongitudeDegrees>
            </Position>
            <AltitudeMeters>813.5999755859375</AltitudeMeters>
            <DistanceMeters>NAN</DistanceMeters>
          </Trackpoint>
          <Trackpoint>
            <Time>2021-04-02T10:05:46.000Z</Time>
            <Position>
              <LatitudeDegrees>42.3434719629585742950439453125</LatitudeDegrees>
              <LongitudeDegrees>2.6049146242439746856689453125</LongitudeDegrees>
            </Position>
            <AltitudeMeters>813.5999755859375</AltitudeMeters>
            <DistanceMeters>NAN</DistanceMeters>
          </Trackpoint>
          <Trackpoint>
            <Time>2021-04-02T10:05:55.000Z</Time>
            <Position>
              <LatitudeDegrees>42.34337699599564075469970703125</LatitudeDegrees>
              <LongitudeDegrees>2.60496768169105052947998046875</LongitudeDegrees>
            </Position>
            <AltitudeMeters>813.5999755859375</AltitudeMeters>
            <DistanceMeters>NAN</DistanceMeters>
          </Trackpoint>
          <Trackpoint>
            <Time>2021-04-02T10:06:03.000Z</Time>
            <Position>
              <LatitudeDegrees>42.34329770319163799285888671875</LatitudeDegrees>
              <LongitudeDegrees>2.60500992648303508758544921875</LongitudeDegrees>
            </Position>
            <AltitudeMeters>813.5999755859375</AltitudeMeters>
            <DistanceMeters>NAN</DistanceMeters>
          </Trackpoint>
          <Trackpoint>
            <Time>2021-04-02T10:06:12.000Z</Time>
            <Position>
              <LatitudeDegrees>42.34320399351418018341064453125</LatitudeDegrees>
              <LongitudeDegrees>2.60504655539989471435546875</LongitudeDegrees>
            </Position>
            <AltitudeMeters>814</AltitudeMeters>
            <DistanceMeters>NAN</DistanceMeters>
          </Trackpoint>
          <Trackpoint>
            <Time>2021-04-02T10:06:17.000Z</Time>
            <Position>
              <LatitudeDegrees>42.3431601561605930328369140625</LatitudeDegrees>
              <LongitudeDegrees>2.60508150793612003326416015625</LongitudeDegrees>
            </Position>
            <AltitudeMeters>814.20001220703125</AltitudeMeters>
            <DistanceMeters>NAN</DistanceMeters>
          </Trackpoint>
          <Trackpoint>
            <Time>2021-04-02T10:06:20.000Z</Time>
            <Position>
              <LatitudeDegrees>42.34312285669147968292236328125</LatitudeDegrees>
              <LongitudeDegrees>2.60509944520890712738037109375</LongitudeDegrees>
            </Position>
            <AltitudeMeters>814.5999755859375</AltitudeMeters>
            <DistanceMeters>NAN</DistanceMeters>
          </Trackpoint>
          <Trackpoint>
            <Time>2021-04-02T10:06:23.000Z</Time>
            <Position>
              <LatitudeDegrees>42.3430951125919818878173828125</LatitudeDegrees>
              <LongitudeDegrees>2.60510682128369808197021484375</LongitudeDegrees>
            </Position>
            <AltitudeMeters>814.79998779296875</AltitudeMeters>
            <DistanceMeters>NAN</DistanceMeters>
          </Trackpoint>
          <Trackpoint>
            <Time>2021-04-02T10:06:28.000Z</Time>
            <Position>
              <LatitudeDegrees>42.3430361039936542510986328125</LatitudeDegrees>
              <LongitudeDegrees>2.6051531732082366943359375</LongitudeDegrees>
            </Position>
            <AltitudeMeters>815.20001220703125</AltitudeMeters>
            <DistanceMeters>NAN</DistanceMeters>
          </Trackpoint>
          <Trackpoint>
            <Time>2021-04-02T10:06:29.000Z</Time>
            <Position>
              <LatitudeDegrees>42.34302914701402187347412109375</LatitudeDegrees>
              <LongitudeDegrees>2.605162896215915679931640625</LongitudeDegrees>
            </Position>
            <AltitudeMeters>815.20001220703125</AltitudeMeters>
            <DistanceMeters>NAN</DistanceMeters>
          </Trackpoint>
          <Trackpoint>
            <Time>2021-04-02T10:06:35.000Z</Time>
            <Position>
              <LatitudeDegrees>42.34298656694591045379638671875</LatitudeDegrees>
              <LongitudeDegrees>2.6052133552730083465576171875</LongitudeDegrees>
            </Position>
            <AltitudeMeters>815.5999755859375</AltitudeMeters>
            <DistanceMeters>NAN</DistanceMeters>
          </Trackpoint>
          <Trackpoint>
            <Time>2021-04-02T10:06:40.000Z</Time>
            <Position>
              <LatitudeDegrees>42.342968545854091644287109375</LatitudeDegrees>
              <LongitudeDegrees>2.60527990758419036865234375</LongitudeDegrees>
            </Position>
            <AltitudeMeters>815.79998779296875</AltitudeMeters>
            <DistanceMeters>NAN</DistanceMeters>
          </Trackpoint>
          <Trackpoint>
            <Time>2021-04-02T10:06:44.000Z</Time>
            <Position>
              <LatitudeDegrees>42.342944405972957611083984375</LatitudeDegrees>
              <LongitudeDegrees>2.6053310371935367584228515625</LongitudeDegrees>
            </Position>
            <AltitudeMeters>816</AltitudeMeters>
            <DistanceMeters>NAN</DistanceMeters>
          </Trackpoint>
          <Trackpoint>
            <Time>2021-04-02T10:06:54.000Z</Time>
            <Position>
              <LatitudeDegrees>42.34289553947746753692626953125</LatitudeDegrees>
              <LongitudeDegrees>2.60546070523560047149658203125</LongitudeDegrees>
            </Position>
            <AltitudeMeters>816.20001220703125</AltitudeMeters>
            <DistanceMeters>NAN</DistanceMeters>
          </Trackpoint>
          <Trackpoint>
            <Time>2021-04-02T10:07:00.000Z</Time>
            <Position>
              <LatitudeDegrees>42.342853210866451263427734375</LatitudeDegrees>
              <LongitudeDegrees>2.6055345498025417327880859375</LongitudeDegrees>
            </Position>
            <AltitudeMeters>817</AltitudeMeters>
            <DistanceMeters>NAN</DistanceMeters>
          </Trackpoint>
          <Trackpoint>
            <Time>2021-04-02T10:07:03.000Z</Time>
            <Position>
              <LatitudeDegrees>42.3428299091756343841552734375</LatitudeDegrees>
              <LongitudeDegrees>2.6055664010345935821533203125</LongitudeDegrees>
            </Position>
            <AltitudeMeters>817</AltitudeMeters>
            <DistanceMeters>NAN</DistanceMeters>
          </Trackpoint>
          <Trackpoint>
            <Time>2021-04-02T10:07:05.000Z</Time>
            <Position>
              <LatitudeDegrees>42.3428173363208770751953125</LatitudeDegrees>
              <LongitudeDegrees>2.6055855117738246917724609375</LongitudeDegrees>
            </Position>
            <AltitudeMeters>817.20001220703125</AltitudeMeters>
            <DistanceMeters>NAN</DistanceMeters>
          </Trackpoint>
          <Trackpoint>
            <Time>2021-04-02T10:07:08.000Z</Time>
            <Position>
              <LatitudeDegrees>42.34279914759099483489990234375</LatitudeDegrees>
              <LongitudeDegrees>2.60561644099652767181396484375</LongitudeDegrees>
            </Position>
            <AltitudeMeters>817.20001220703125</AltitudeMeters>
            <DistanceMeters>NAN</DistanceMeters>
          </Trackpoint>
          <Trackpoint>
            <Time>2021-04-02T10:07:15.000Z</Time>
            <Position>
              <LatitudeDegrees>42.34277651645243167877197265625</LatitudeDegrees>
              <LongitudeDegrees>2.60570445097982883453369140625</LongitudeDegrees>
            </Position>
            <AltitudeMeters>817.4000244140625</AltitudeMeters>
            <DistanceMeters>NAN</DistanceMeters>
          </Trackpoint>
          <Trackpoint>
            <Time>2021-04-02T10:07:16.000Z</Time>
            <Position>
              <LatitudeDegrees>42.342772074043750762939453125</LatitudeDegrees>
              <LongitudeDegrees>2.60571970604360103607177734375</LongitudeDegrees>
            </Position>
            <AltitudeMeters>817.5999755859375</AltitudeMeters>
            <DistanceMeters>NAN</DistanceMeters>
          </Trackpoint>
          <Trackpoint>
            <Time>2021-04-02T10:07:27.000Z</Time>
            <Position>
              <LatitudeDegrees>42.34271532855927944183349609375</LatitudeDegrees>
              <LongitudeDegrees>2.605852223932743072509765625</LongitudeDegrees>
            </Position>
            <AltitudeMeters>817.79998779296875</AltitudeMeters>
            <DistanceMeters>NAN</DistanceMeters>
          </Trackpoint>
          <Trackpoint>
            <Time>2021-04-02T10:07:31.000Z</Time>
            <Position>
              <LatitudeDegrees>42.3426911048591136932373046875</LatitudeDegrees>
              <LongitudeDegrees>2.6059013418853282928466796875</LongitudeDegrees>
            </Position>
            <AltitudeMeters>817.79998779296875</AltitudeMeters>
            <DistanceMeters>NAN</DistanceMeters>
          </Trackpoint>
          <Trackpoint>
            <Time>2021-04-02T10:07:33.000Z</Time>
            <Position>
              <LatitudeDegrees>42.34267559833824634552001953125</LatitudeDegrees>
              <LongitudeDegrees>2.6059234701097011566162109375</LongitudeDegrees>
            </Position>
            <AltitudeMeters>818</AltitudeMeters>
            <DistanceMeters>NAN</DistanceMeters>
          </Trackpoint>
          <Trackpoint>
            <Time>2021-04-02T10:07:35.000Z</Time>
            <Position>
              <LatitudeDegrees>42.34266218729317188262939453125</LatitudeDegrees>
              <LongitudeDegrees>2.605936713516712188720703125</LongitudeDegrees>
            </Position>
            <AltitudeMeters>818</AltitudeMeters>
            <DistanceMeters>NAN</DistanceMeters>
          </Trackpoint>
          <Trackpoint>
            <Time>2021-04-02T10:07:37.000Z</Time>
            <Position>
              <LatitudeDegrees>42.34264827333390712738037109375</LatitudeDegrees>
              <LongitudeDegrees>2.6059455983340740203857421875</LongitudeDegrees>
            </Position>
            <AltitudeMeters>818.20001220703125</AltitudeMeters>
            <DistanceMeters>NAN</DistanceMeters>
          </Trackpoint>
          <Trackpoint>
            <Time>2021-04-02T10:07:44.000Z</Time>
            <Position>
              <LatitudeDegrees>42.34257266856729984283447265625</LatitudeDegrees>
              <LongitudeDegrees>2.605980969965457916259765625</LongitudeDegrees>
            </Position>
            <AltitudeMeters>818.5999755859375</AltitudeMeters>
            <DistanceMeters>NAN</DistanceMeters>
          </Trackpoint>
          <Trackpoint>
            <Time>2021-04-02T10:07:50.000Z</Time>
            <Position>
              <LatitudeDegrees>42.34250578097999095916748046875</LatitudeDegrees>
              <LongitudeDegrees>2.60599580593407154083251953125</LongitudeDegrees>
            </Position>
            <AltitudeMeters>819</AltitudeMeters>
            <DistanceMeters>NAN</DistanceMeters>
          </Trackpoint>
          <Trackpoint>
            <Time>2021-04-02T10:07:55.000Z</Time>
            <Position>
              <LatitudeDegrees>42.3424430005252361297607421875</LatitudeDegrees>
              <LongitudeDegrees>2.6060061156749725341796875</LongitudeDegrees>
            </Position>
            <AltitudeMeters>819.20001220703125</AltitudeMeters>
            <DistanceMeters>NAN</DistanceMeters>
          </Trackpoint>
          <Trackpoint>
            <Time>2021-04-02T10:08:03.000Z</Time>
            <Position>
              <LatitudeDegrees>42.3423772864043712615966796875</LatitudeDegrees>
              <LongitudeDegrees>2.60608725249767303466796875</LongitudeDegrees>
            </Position>
            <AltitudeMeters>819.5999755859375</AltitudeMeters>
            <DistanceMeters>NAN</DistanceMeters>
          </Trackpoint>
          <Trackpoint>
            <Time>2021-04-02T10:08:04.000Z</Time>
            <Position>
              <LatitudeDegrees>42.34236630611121654510498046875</LatitudeDegrees>
              <LongitudeDegrees>2.60609655641019344329833984375</LongitudeDegrees>
            </Position>
            <AltitudeMeters>819.5999755859375</AltitudeMeters>
            <DistanceMeters>NAN</DistanceMeters>
          </Trackpoint>
          <Trackpoint>
            <Time>2021-04-02T10:08:13.000Z</Time>
            <Position>
              <LatitudeDegrees>42.34230310656130313873291015625</LatitudeDegrees>
              <LongitudeDegrees>2.60619043372571468353271484375</LongitudeDegrees>
            </Position>
            <AltitudeMeters>819.79998779296875</AltitudeMeters>
            <DistanceMeters>NAN</DistanceMeters>
          </Trackpoint>
          <Trackpoint>
            <Time>2021-04-02T10:08:14.000Z</Time>
            <Position>
              <LatitudeDegrees>42.34229606576263904571533203125</LatitudeDegrees>
              <LongitudeDegrees>2.6061997376382350921630859375</LongitudeDegrees>
            </Position>
            <AltitudeMeters>819.79998779296875</AltitudeMeters>
            <DistanceMeters>NAN</DistanceMeters>
          </Trackpoint>
          <Trackpoint>
            <Time>2021-04-02T10:08:22.000Z</Time>
            <Position>
              <LatitudeDegrees>42.34222029335796833038330078125</LatitudeDegrees>
              <LongitudeDegrees>2.606283724308013916015625</LongitudeDegrees>
            </Position>
            <AltitudeMeters>819.79998779296875</AltitudeMeters>
            <DistanceMeters>NAN</DistanceMeters>
          </Trackpoint>
          <Trackpoint>
            <Time>2021-04-02T10:08:24.000Z</Time>
            <Position>
              <LatitudeDegrees>42.34220621176064014434814453125</LatitudeDegrees>
              <LongitudeDegrees>2.6063013263046741485595703125</LongitudeDegrees>
            </Position>
            <AltitudeMeters>819.79998779296875</AltitudeMeters>
            <DistanceMeters>NAN</DistanceMeters>
          </Trackpoint>
          <Trackpoint>
            <Time>2021-04-02T10:08:27.000Z</Time>
            <Position>
              <LatitudeDegrees>42.3421736061573028564453125</LatitudeDegrees>
              <LongitudeDegrees>2.60631750337779521942138671875</LongitudeDegrees>
            </Position>
            <AltitudeMeters>820</AltitudeMeters>
            <DistanceMeters>NAN</DistanceMeters>
          </Trackpoint>
          <Trackpoint>
            <Time>2021-04-02T10:08:35.000Z</Time>
            <Position>
              <LatitudeDegrees>42.3421016894280910491943359375</LatitudeDegrees>
              <LongitudeDegrees>2.60636729188263416290283203125</LongitudeDegrees>
            </Position>
            <AltitudeMeters>820.4000244140625</AltitudeMeters>
            <DistanceMeters>NAN</DistanceMeters>
          </Trackpoint>
          <Trackpoint>
            <Time>2021-04-02T10:08:44.000Z</Time>
            <Position>
              <LatitudeDegrees>42.34202683903276920318603515625</LatitudeDegrees>
              <LongitudeDegrees>2.60641758330166339874267578125</LongitudeDegrees>
            </Position>
            <AltitudeMeters>820</AltitudeMeters>
            <DistanceMeters>NAN</DistanceMeters>
          </Trackpoint>
          <Trackpoint>
            <Time>2021-04-02T10:08:46.000Z</Time>
            <Position>
              <LatitudeDegrees>42.34200789593160152435302734375</LatitudeDegrees>
              <LongitudeDegrees>2.606426216661930084228515625</LongitudeDegrees>
            </Position>
            <AltitudeMeters>819.79998779296875</AltitudeMeters>
            <DistanceMeters>NAN</DistanceMeters>
          </Trackpoint>
          <Trackpoint>
            <Time>2021-04-02T10:08:55.000Z</Time>
            <Position>
              <LatitudeDegrees>42.34191468916833400726318359375</LatitudeDegrees>
              <LongitudeDegrees>2.60646502487361431121826171875</LongitudeDegrees>
            </Position>
            <AltitudeMeters>820</AltitudeMeters>
            <DistanceMeters>NAN</DistanceMeters>
          </Trackpoint>
          <Trackpoint>
            <Time>2021-04-02T10:09:06.000Z</Time>
            <Position>
              <LatitudeDegrees>42.34182332642376422882080078125</LatitudeDegrees>
              <LongitudeDegrees>2.60650794021785259246826171875</LongitudeDegrees>
            </Position>
            <AltitudeMeters>819.5999755859375</AltitudeMeters>
            <DistanceMeters>NAN</DistanceMeters>
          </Trackpoint>
          <Trackpoint>
            <Time>2021-04-02T10:09:07.000Z</Time>
            <Position>
              <LatitudeDegrees>42.34181829728186130523681640625</LatitudeDegrees>
              <LongitudeDegrees>2.60650701820850372314453125</LongitudeDegrees>
            </Position>
            <AltitudeMeters>819.4000244140625</AltitudeMeters>
            <DistanceMeters>NAN</DistanceMeters>
          </Trackpoint>
          <Trackpoint>
            <Time>2021-04-02T10:09:09.000Z</Time>
            <Position>
              <LatitudeDegrees>42.34181821346282958984375</LatitudeDegrees>
              <LongitudeDegrees>2.6065048389136791229248046875</LongitudeDegrees>
            </Position>
            <AltitudeMeters>819.4000244140625</AltitudeMeters>
            <DistanceMeters>NAN</DistanceMeters>
          </Trackpoint>
          <Trackpoint>
            <Time>2021-04-02T10:09:13.000Z</Time>
            <Position>
              <LatitudeDegrees>42.3418168723583221435546875</LatitudeDegrees>
              <LongitudeDegrees>2.6065028272569179534912109375</LongitudeDegrees>
            </Position>
            <AltitudeMeters>819.20001220703125</AltitudeMeters>
            <DistanceMeters>NAN</DistanceMeters>
          </Trackpoint>
          <Trackpoint>
            <Time>2021-04-02T10:09:14.000Z</Time>
            <Position>
              <LatitudeDegrees>42.34181293286383152008056640625</LatitudeDegrees>
              <LongitudeDegrees>2.60650676675140857696533203125</LongitudeDegrees>
            </Position>
            <AltitudeMeters>819</AltitudeMeters>
            <DistanceMeters>NAN</DistanceMeters>
          </Trackpoint>
          <Trackpoint>
            <Time>2021-04-02T10:09:18.000Z</Time>
            <Position>
              <LatitudeDegrees>42.3417935706675052642822265625</LatitudeDegrees>
              <LongitudeDegrees>2.60652973316609859466552734375</LongitudeDegrees>
            </Position>
            <AltitudeMeters>819</AltitudeMeters>
            <DistanceMeters>NAN</DistanceMeters>
          </Trackpoint>
          <Trackpoint>
            <Time>2021-04-02T10:09:19.000Z</Time>
            <Position>
              <LatitudeDegrees>42.34178694896399974822998046875</LatitudeDegrees>
              <LongitudeDegrees>2.6065353490412235260009765625</LongitudeDegrees>
            </Position>
            <AltitudeMeters>819</AltitudeMeters>
            <DistanceMeters>NAN</DistanceMeters>
          </Trackpoint>
          <Trackpoint>
            <Time>2021-04-02T10:09:21.000Z</Time>
            <Position>
              <LatitudeDegrees>42.3417660780251026153564453125</LatitudeDegrees>
              <LongitudeDegrees>2.606546916067600250244140625</LongitudeDegrees>
            </Position>
            <AltitudeMeters>818.4000244140625</AltitudeMeters>
            <DistanceMeters>NAN</DistanceMeters>
          </Trackpoint>
          <Trackpoint>
            <Time>2021-04-02T10:09:24.000Z</Time>
            <Position>
              <LatitudeDegrees>42.341735400259494781494140625</LatitudeDegrees>
              <LongitudeDegrees>2.6065678708255290985107421875</LongitudeDegrees>
            </Position>
            <AltitudeMeters>817.79998779296875</AltitudeMeters>
            <DistanceMeters>NAN</DistanceMeters>
          </Trackpoint>
          <Trackpoint>
            <Time>2021-04-02T10:09:30.000Z</Time>
            <Position>
              <LatitudeDegrees>42.34168821014463901519775390625</LatitudeDegrees>
              <LongitudeDegrees>2.60663283057510852813720703125</LongitudeDegrees>
            </Position>
            <AltitudeMeters>817.4000244140625</AltitudeMeters>
            <DistanceMeters>NAN</DistanceMeters>
          </Trackpoint>
          <Trackpoint>
            <Time>2021-04-02T10:09:35.000Z</Time>
            <Position>
              <LatitudeDegrees>42.34166524372994899749755859375</LatitudeDegrees>
              <LongitudeDegrees>2.606693767011165618896484375</LongitudeDegrees>
            </Position>
            <AltitudeMeters>817.20001220703125</AltitudeMeters>
            <DistanceMeters>NAN</DistanceMeters>
          </Trackpoint>
          <Trackpoint>
            <Time>2021-04-02T10:09:39.000Z</Time>
            <Position>
              <LatitudeDegrees>42.34164965339004993438720703125</LatitudeDegrees>
              <LongitudeDegrees>2.60674028657376766204833984375</LongitudeDegrees>
            </Position>
            <AltitudeMeters>817</AltitudeMeters>
            <DistanceMeters>NAN</DistanceMeters>
          </Trackpoint>
          <Trackpoint>
            <Time>2021-04-02T10:09:41.000Z</Time>
            <Position>
              <LatitudeDegrees>42.34163506887853145599365234375</LatitudeDegrees>
              <LongitudeDegrees>2.60676191188395023345947265625</LongitudeDegrees>
            </Position>
            <AltitudeMeters>816.79998779296875</AltitudeMeters>
            <DistanceMeters>NAN</DistanceMeters>
          </Trackpoint>
          <Trackpoint>
            <Time>2021-04-02T10:09:48.000Z</Time>
            <Position>
              <LatitudeDegrees>42.3415877111256122589111328125</LatitudeDegrees>
              <LongitudeDegrees>2.60680197738111019134521484375</LongitudeDegrees>
            </Position>
            <AltitudeMeters>816.5999755859375</AltitudeMeters>
            <DistanceMeters>NAN</DistanceMeters>
          </Trackpoint>
          <Trackpoint>
            <Time>2021-04-02T10:09:50.000Z</Time>
            <Position>
              <LatitudeDegrees>42.34158058650791645050048828125</LatitudeDegrees>
              <LongitudeDegrees>2.60680675506591796875</LongitudeDegrees>
            </Position>
            <AltitudeMeters>816.5999755859375</AltitudeMeters>
            <DistanceMeters>NAN</DistanceMeters>
          </Trackpoint>
          <Trackpoint>
            <Time>2021-04-02T10:09:52.000Z</Time>
            <Position>
              <LatitudeDegrees>42.34157404862344264984130859375</LatitudeDegrees>
              <LongitudeDegrees>2.6068018935620784759521484375</LongitudeDegrees>
            </Position>
            <AltitudeMeters>816.4000244140625</AltitudeMeters>
            <DistanceMeters>NAN</DistanceMeters>
          </Trackpoint>
          <Trackpoint>
            <Time>2021-04-02T10:09:54.000Z</Time>
            <Position>
              <LatitudeDegrees>42.34154471196234226226806640625</LatitudeDegrees>
              <LongitudeDegrees>2.6068161427974700927734375</LongitudeDegrees>
            </Position>
            <AltitudeMeters>816.4000244140625</AltitudeMeters>
            <DistanceMeters>NAN</DistanceMeters>
          </Trackpoint>
          <Trackpoint>
            <Time>2021-04-02T10:09:56.000Z</Time>
            <Position>
              <LatitudeDegrees>42.3415218293666839599609375</LatitudeDegrees>
              <LongitudeDegrees>2.60682293213903903961181640625</LongitudeDegrees>
            </Position>
            <AltitudeMeters>816.4000244140625</AltitudeMeters>
            <DistanceMeters>NAN</DistanceMeters>
          </Trackpoint>
          <Trackpoint>
            <Time>2021-04-02T10:09:59.000Z</Time>
            <Position>
              <LatitudeDegrees>42.3414991982281208038330078125</LatitudeDegrees>
              <LongitudeDegrees>2.60685176588594913482666015625</LongitudeDegrees>
            </Position>
            <AltitudeMeters>816.20001220703125</AltitudeMeters>
            <DistanceMeters>NAN</DistanceMeters>
          </Trackpoint>
          <Trackpoint>
            <Time>2021-04-02T10:10:07.000Z</Time>
            <Position>
              <LatitudeDegrees>42.3414333164691925048828125</LatitudeDegrees>
              <LongitudeDegrees>2.60689602233469486236572265625</LongitudeDegrees>
            </Position>
            <AltitudeMeters>816.4000244140625</AltitudeMeters>
            <DistanceMeters>NAN</DistanceMeters>
          </Trackpoint>
          <Trackpoint>
            <Time>2021-04-02T10:10:09.000Z</Time>
            <Position>
              <LatitudeDegrees>42.34142300672829151153564453125</LatitudeDegrees>
              <LongitudeDegrees>2.6069024764001369476318359375</LongitudeDegrees>
            </Position>
            <AltitudeMeters>816.4000244140625</AltitudeMeters>
            <DistanceMeters>NAN</DistanceMeters>
          </Trackpoint>
          <Trackpoint>
            <Time>2021-04-02T10:10:11.000Z</Time>
            <Position>
              <LatitudeDegrees>42.3414069972932338714599609375</LatitudeDegrees>
              <LongitudeDegrees>2.60690390132367610931396484375</LongitudeDegrees>
            </Position>
            <AltitudeMeters>816.4000244140625</AltitudeMeters>
            <DistanceMeters>NAN</DistanceMeters>
          </Trackpoint>
          <Trackpoint>
            <Time>2021-04-02T10:10:14.000Z</Time>
            <Position>
              <LatitudeDegrees>42.34138059429824352264404296875</LatitudeDegrees>
              <LongitudeDegrees>2.60689250193536281585693359375</LongitudeDegrees>
            </Position>
            <AltitudeMeters>816.79998779296875</AltitudeMeters>
            <DistanceMeters>NAN</DistanceMeters>
          </Trackpoint>
          <Trackpoint>
            <Time>2021-04-02T10:10:18.000Z</Time>
            <Position>
              <LatitudeDegrees>42.34134136699140071868896484375</LatitudeDegrees>
              <LongitudeDegrees>2.60685972869396209716796875</LongitudeDegrees>
            </Position>
            <AltitudeMeters>817</AltitudeMeters>
            <DistanceMeters>NAN</DistanceMeters>
          </Trackpoint>
          <Trackpoint>
            <Time>2021-04-02T10:10:22.000Z</Time>
            <Position>
              <LatitudeDegrees>42.34130524098873138427734375</LatitudeDegrees>
              <LongitudeDegrees>2.60682351887226104736328125</LongitudeDegrees>
            </Position>
            <AltitudeMeters>817</AltitudeMeters>
            <DistanceMeters>NAN</DistanceMeters>
          </Trackpoint>
          <Trackpoint>
            <Time>2021-04-02T10:10:24.000Z</Time>
            <Position>
              <LatitudeDegrees>42.34129711054265499114990234375</LatitudeDegrees>
              <LongitudeDegrees>2.60680616833269596099853515625</LongitudeDegrees>
            </Position>
            <AltitudeMeters>817</AltitudeMeters>
            <DistanceMeters>NAN</DistanceMeters>
          </Trackpoint>
          <Trackpoint>
            <Time>2021-04-02T10:10:27.000Z</Time>
            <Position>
              <LatitudeDegrees>42.34127799980342388153076171875</LatitudeDegrees>
              <LongitudeDegrees>2.606786303222179412841796875</LongitudeDegrees>
            </Position>
            <AltitudeMeters>817</AltitudeMeters>
            <DistanceMeters>NAN</DistanceMeters>
          </Trackpoint>
          <Trackpoint>
            <Time>2021-04-02T10:10:30.000Z</Time>
            <Position>
              <LatitudeDegrees>42.34123860485851764678955078125</LatitudeDegrees>
              <LongitudeDegrees>2.60675847530364990234375</LongitudeDegrees>
            </Position>
            <AltitudeMeters>816.79998779296875</AltitudeMeters>
            <DistanceMeters>NAN</DistanceMeters>
          </Trackpoint>
          <Trackpoint>
            <Time>2021-04-02T10:10:38.000Z</Time>
            <Position>
              <LatitudeDegrees>42.3411726392805576324462890625</LatitudeDegrees>
              <LongitudeDegrees>2.60666937567293643951416015625</LongitudeDegrees>
            </Position>
            <AltitudeMeters>816.79998779296875</AltitudeMeters>
            <DistanceMeters>NAN</DistanceMeters>
          </Trackpoint>
          <Trackpoint>
            <Time>2021-04-02T10:10:48.000Z</Time>
            <Position>
              <LatitudeDegrees>42.34108219854533672332763671875</LatitudeDegrees>
              <LongitudeDegrees>2.60659511201083660125732421875</LongitudeDegrees>
            </Position>
            <AltitudeMeters>816.79998779296875</AltitudeMeters>
            <DistanceMeters>NAN</DistanceMeters>
          </Trackpoint>
          <Trackpoint>
            <Time>2021-04-02T10:10:52.000Z</Time>
            <Position>
              <LatitudeDegrees>42.3410479165613651275634765625</LatitudeDegrees>
              <LongitudeDegrees>2.60658212006092071533203125</LongitudeDegrees>
            </Position>
            <AltitudeMeters>817</AltitudeMeters>
            <DistanceMeters>NAN</DistanceMeters>
          </Trackpoint>
          <Trackpoint>
            <Time>2021-04-02T10:10:53.000Z</Time>
            <Position>
              <LatitudeDegrees>42.34104213304817676544189453125</LatitudeDegrees>
              <LongitudeDegrees>2.60658002458512783050537109375</LongitudeDegrees>
            </Position>
            <AltitudeMeters>817</AltitudeMeters>
            <DistanceMeters>NAN</DistanceMeters>
          </Trackpoint>
          <Trackpoint>
            <Time>2021-04-02T10:10:56.000Z</Time>
            <Position>
              <LatitudeDegrees>42.34101246111094951629638671875</LatitudeDegrees>
              <LongitudeDegrees>2.6065742410719394683837890625</LongitudeDegrees>
            </Position>
            <AltitudeMeters>817.4000244140625</AltitudeMeters>
            <DistanceMeters>NAN</DistanceMeters>
          </Trackpoint>
          <Trackpoint>
            <Time>2021-04-02T10:11:02.000Z</Time>
            <Position>
              <LatitudeDegrees>42.34096954576671123504638671875</LatitudeDegrees>
              <LongitudeDegrees>2.60652956552803516387939453125</LongitudeDegrees>
            </Position>
            <AltitudeMeters>817.79998779296875</AltitudeMeters>
            <DistanceMeters>NAN</DistanceMeters>
          </Trackpoint>
          <Trackpoint>
            <Time>2021-04-02T10:11:04.000Z</Time>
            <Position>
              <LatitudeDegrees>42.3409590683877468109130859375</LatitudeDegrees>
              <LongitudeDegrees>2.60651967488229274749755859375</LongitudeDegrees>
            </Position>
            <AltitudeMeters>817.79998779296875</AltitudeMeters>
            <DistanceMeters>NAN</DistanceMeters>
          </Trackpoint>
          <Trackpoint>
            <Time>2021-04-02T10:11:05.000Z</Time>
            <Position>
              <LatitudeDegrees>42.3409513570368289947509765625</LatitudeDegrees>
              <LongitudeDegrees>2.60651011951267719268798828125</LongitudeDegrees>
            </Position>
            <AltitudeMeters>818</AltitudeMeters>
            <DistanceMeters>NAN</DistanceMeters>
          </Trackpoint>
          <Trackpoint>
            <Time>2021-04-02T10:11:07.000Z</Time>
            <Position>
              <LatitudeDegrees>42.34093182720243930816650390625</LatitudeDegrees>
              <LongitudeDegrees>2.6064984686672687530517578125</LongitudeDegrees>
            </Position>
            <AltitudeMeters>818.20001220703125</AltitudeMeters>
            <DistanceMeters>NAN</DistanceMeters>
          </Trackpoint>
          <Trackpoint>
            <Time>2021-04-02T10:11:12.000Z</Time>
            <Position>
              <LatitudeDegrees>42.3408742435276508331298828125</LatitudeDegrees>
              <LongitudeDegrees>2.6064813695847988128662109375</LongitudeDegrees>
            </Position>
            <AltitudeMeters>818.4000244140625</AltitudeMeters>
            <DistanceMeters>NAN</DistanceMeters>
          </Trackpoint>
          <Trackpoint>
            <Time>2021-04-02T10:11:15.000Z</Time>
            <Position>
              <LatitudeDegrees>42.34084046445786952972412109375</LatitudeDegrees>
              <LongitudeDegrees>2.60645806789398193359375</LongitudeDegrees>
            </Position>
            <AltitudeMeters>818.5999755859375</AltitudeMeters>
            <DistanceMeters>NAN</DistanceMeters>
          </Trackpoint>
          <Trackpoint>
            <Time>2021-04-02T10:11:22.000Z</Time>
            <Position>
              <LatitudeDegrees>42.340774498879909515380859375</LatitudeDegrees>
              <LongitudeDegrees>2.6064230315387248992919921875</LongitudeDegrees>
            </Position>
            <AltitudeMeters>819</AltitudeMeters>
            <DistanceMeters>NAN</DistanceMeters>
          </Trackpoint>
          <Trackpoint>
            <Time>2021-04-02T10:11:30.000Z</Time>
            <Position>
              <LatitudeDegrees>42.34076209366321563720703125</LatitudeDegrees>
              <LongitudeDegrees>2.606444321572780609130859375</LongitudeDegrees>
            </Position>
            <AltitudeMeters>819.20001220703125</AltitudeMeters>
            <DistanceMeters>NAN</DistanceMeters>
          </Trackpoint>
          <Trackpoint>
            <Time>2021-04-02T10:11:32.000Z</Time>
            <Position>
              <LatitudeDegrees>42.340743653476238250732421875</LatitudeDegrees>
              <LongitudeDegrees>2.6064290665090084075927734375</LongitudeDegrees>
            </Position>
            <AltitudeMeters>819.20001220703125</AltitudeMeters>
            <DistanceMeters>NAN</DistanceMeters>
          </Trackpoint>
          <Trackpoint>
            <Time>2021-04-02T10:11:39.000Z</Time>
            <Position>
              <LatitudeDegrees>42.34068439342081546783447265625</LatitudeDegrees>
              <LongitudeDegrees>2.6063633523881435394287109375</LongitudeDegrees>
            </Position>
            <AltitudeMeters>819.5999755859375</AltitudeMeters>
            <DistanceMeters>NAN</DistanceMeters>
          </Trackpoint>
          <Trackpoint>
            <Time>2021-04-02T10:11:40.000Z</Time>
            <Position>
              <LatitudeDegrees>42.34067768789827823638916015625</LatitudeDegrees>
              <LongitudeDegrees>2.60635555721819400787353515625</LongitudeDegrees>
            </Position>
            <AltitudeMeters>819.5999755859375</AltitudeMeters>
            <DistanceMeters>NAN</DistanceMeters>
          </Trackpoint>
          <Trackpoint>
            <Time>2021-04-02T10:11:41.000Z</Time>
            <Position>
              <LatitudeDegrees>42.34067014418542385101318359375</LatitudeDegrees>
              <LongitudeDegrees>2.60634935460984706878662109375</LongitudeDegrees>
            </Position>
            <AltitudeMeters>819.5999755859375</AltitudeMeters>
            <DistanceMeters>NAN</DistanceMeters>
          </Trackpoint>
          <Trackpoint>
            <Time>2021-04-02T10:11:47.000Z</Time>
            <Position>
              <LatitudeDegrees>42.3406036756932735443115234375</LatitudeDegrees>
              <LongitudeDegrees>2.60629168711602687835693359375</LongitudeDegrees>
            </Position>
            <AltitudeMeters>819.4000244140625</AltitudeMeters>
            <DistanceMeters>NAN</DistanceMeters>
          </Trackpoint>
          <Trackpoint>
            <Time>2021-04-02T10:11:59.000Z</Time>
            <Position>
              <LatitudeDegrees>42.3404900170862674713134765625</LatitudeDegrees>
              <LongitudeDegrees>2.60622429661452770233154296875</LongitudeDegrees>
            </Position>
            <AltitudeMeters>819.5999755859375</AltitudeMeters>
            <DistanceMeters>NAN</DistanceMeters>
          </Trackpoint>
          <Trackpoint>
            <Time>2021-04-02T10:12:08.000Z</Time>
            <Position>
              <LatitudeDegrees>42.34038851223886013031005859375</LatitudeDegrees>
              <LongitudeDegrees>2.6061886735260486602783203125</LongitudeDegrees>
            </Position>
            <AltitudeMeters>820</AltitudeMeters>
            <DistanceMeters>NAN</DistanceMeters>
          </Trackpoint>
          <Trackpoint>
            <Time>2021-04-02T10:12:09.000Z</Time>
            <Position>
              <LatitudeDegrees>42.3403800465166568756103515625</LatitudeDegrees>
              <LongitudeDegrees>2.60618783533573150634765625</LongitudeDegrees>
            </Position>
            <AltitudeMeters>820</AltitudeMeters>
            <DistanceMeters>NAN</DistanceMeters>
          </Trackpoint>
          <Trackpoint>
            <Time>2021-04-02T10:12:17.000Z</Time>
            <Position>
              <LatitudeDegrees>42.34030469320714473724365234375</LatitudeDegrees>
              <LongitudeDegrees>2.6061618514358997344970703125</LongitudeDegrees>
            </Position>
            <AltitudeMeters>820.20001220703125</AltitudeMeters>
            <DistanceMeters>NAN</DistanceMeters>
          </Trackpoint>
          <Trackpoint>
            <Time>2021-04-02T10:12:26.000Z</Time>
            <Position>
              <LatitudeDegrees>42.3402150906622409820556640625</LatitudeDegrees>
              <LongitudeDegrees>2.606154978275299072265625</LongitudeDegrees>
            </Position>
            <AltitudeMeters>820.4000244140625</AltitudeMeters>
            <DistanceMeters>NAN</DistanceMeters>
          </Trackpoint>
          <Trackpoint>
            <Time>2021-04-02T10:12:31.000Z</Time>
            <Position>
              <LatitudeDegrees>42.34016597270965576171875</LatitudeDegrees>
              <LongitudeDegrees>2.6061484403908252716064453125</LongitudeDegrees>
            </Position>
            <AltitudeMeters>820.5999755859375</AltitudeMeters>
            <DistanceMeters>NAN</DistanceMeters>
          </Trackpoint>
          <Trackpoint>
            <Time>2021-04-02T10:12:39.000Z</Time>
            <Position>
              <LatitudeDegrees>42.34010604210197925567626953125</LatitudeDegrees>
              <LongitudeDegrees>2.606147937476634979248046875</LongitudeDegrees>
            </Position>
            <AltitudeMeters>820.4000244140625</AltitudeMeters>
            <DistanceMeters>NAN</DistanceMeters>
          </Trackpoint>
          <Trackpoint>
            <Time>2021-04-02T10:12:50.000Z</Time>
            <Position>
              <LatitudeDegrees>42.3399636335670948028564453125</LatitudeDegrees>
              <LongitudeDegrees>2.60613058693706989288330078125</LongitudeDegrees>
            </Position>
            <AltitudeMeters>819</AltitudeMeters>
            <DistanceMeters>NAN</DistanceMeters>
          </Trackpoint>
          <Trackpoint>
            <Time>2021-04-02T10:12:58.000Z</Time>
            <Position>
              <LatitudeDegrees>42.3398690856993198394775390625</LatitudeDegrees>
              <LongitudeDegrees>2.6061662100255489349365234375</LongitudeDegrees>
            </Position>
            <AltitudeMeters>818</AltitudeMeters>
            <DistanceMeters>NAN</DistanceMeters>
          </Trackpoint>
          <Trackpoint>
            <Time>2021-04-02T10:12:59.000Z</Time>
            <Position>
              <LatitudeDegrees>42.33985927887260913848876953125</LatitudeDegrees>
              <LongitudeDegrees>2.60617484338581562042236328125</LongitudeDegrees>
            </Position>
            <AltitudeMeters>817.79998779296875</AltitudeMeters>
            <DistanceMeters>NAN</DistanceMeters>
          </Trackpoint>
          <Trackpoint>
            <Time>2021-04-02T10:13:13.000Z</Time>
            <Position>
              <LatitudeDegrees>42.3397534154355525970458984375</LatitudeDegrees>
              <LongitudeDegrees>2.60634248144924640655517578125</LongitudeDegrees>
            </Position>
            <AltitudeMeters>817</AltitudeMeters>
            <DistanceMeters>NAN</DistanceMeters>
          </Trackpoint>
          <Trackpoint>
            <Time>2021-04-02T10:13:14.000Z</Time>
            <Position>
              <LatitudeDegrees>42.3397514037787914276123046875</LatitudeDegrees>
              <LongitudeDegrees>2.60635706596076488494873046875</LongitudeDegrees>
            </Position>
            <AltitudeMeters>817</AltitudeMeters>
            <DistanceMeters>NAN</DistanceMeters>
          </Trackpoint>
          <Trackpoint>
            <Time>2021-04-02T10:13:20.000Z</Time>
            <Position>
              <LatitudeDegrees>42.33973489142954349517822265625</LatitudeDegrees>
              <LongitudeDegrees>2.60643434710800647735595703125</LongitudeDegrees>
            </Position>
            <AltitudeMeters>816.4000244140625</AltitudeMeters>
            <DistanceMeters>NAN</DistanceMeters>
          </Trackpoint>
          <Trackpoint>
            <Time>2021-04-02T10:13:21.000Z</Time>
            <Position>
              <LatitudeDegrees>42.3397302813827991485595703125</LatitudeDegrees>
              <LongitudeDegrees>2.60644909925758838653564453125</LongitudeDegrees>
            </Position>
            <AltitudeMeters>816.4000244140625</AltitudeMeters>
            <DistanceMeters>NAN</DistanceMeters>
          </Trackpoint>
          <Trackpoint>
            <Time>2021-04-02T10:13:23.000Z</Time>
            <Position>
              <LatitudeDegrees>42.33972198329865932464599609375</LatitudeDegrees>
              <LongitudeDegrees>2.60648078285157680511474609375</LongitudeDegrees>
            </Position>
            <AltitudeMeters>816.4000244140625</AltitudeMeters>
            <DistanceMeters>NAN</DistanceMeters>
          </Trackpoint>
          <Trackpoint>
            <Time>2021-04-02T10:13:31.000Z</Time>
            <Position>
              <LatitudeDegrees>42.339679487049579620361328125</LatitudeDegrees>
              <LongitudeDegrees>2.6065827906131744384765625</LongitudeDegrees>
            </Position>
            <AltitudeMeters>816.4000244140625</AltitudeMeters>
            <DistanceMeters>NAN</DistanceMeters>
          </Trackpoint>
          <Trackpoint>
            <Time>2021-04-02T10:13:33.000Z</Time>
            <Position>
              <LatitudeDegrees>42.33966465108096599578857421875</LatitudeDegrees>
              <LongitudeDegrees>2.60660332627594470977783203125</LongitudeDegrees>
            </Position>
            <AltitudeMeters>816.4000244140625</AltitudeMeters>
            <DistanceMeters>NAN</DistanceMeters>
          </Trackpoint>
          <Trackpoint>
            <Time>2021-04-02T10:13:37.000Z</Time>
            <Position>
              <LatitudeDegrees>42.33962953090667724609375</LatitudeDegrees>
              <LongitudeDegrees>2.60663576424121856689453125</LongitudeDegrees>
            </Position>
            <AltitudeMeters>816.5999755859375</AltitudeMeters>
            <DistanceMeters>NAN</DistanceMeters>
          </Trackpoint>
          <Trackpoint>
            <Time>2021-04-02T10:13:44.000Z</Time>
            <Position>
              <LatitudeDegrees>42.3395733721554279327392578125</LatitudeDegrees>
              <LongitudeDegrees>2.6066873967647552490234375</LongitudeDegrees>
            </Position>
            <AltitudeMeters>816.79998779296875</AltitudeMeters>
            <DistanceMeters>NAN</DistanceMeters>
          </Trackpoint>
          <Trackpoint>
            <Time>2021-04-02T10:13:53.000Z</Time>
            <Position>
              <LatitudeDegrees>42.33949164859950542449951171875</LatitudeDegrees>
              <LongitudeDegrees>2.60676023550331592559814453125</LongitudeDegrees>
            </Position>
            <AltitudeMeters>816.79998779296875</AltitudeMeters>
            <DistanceMeters>NAN</DistanceMeters>
          </Trackpoint>
          <Trackpoint>
            <Time>2021-04-02T10:13:54.000Z</Time>
            <Position>
              <LatitudeDegrees>42.339482344686985015869140625</LatitudeDegrees>
              <LongitudeDegrees>2.60676241479814052581787109375</LongitudeDegrees>
            </Position>
            <AltitudeMeters>816.79998779296875</AltitudeMeters>
            <DistanceMeters>NAN</DistanceMeters>
          </Trackpoint>
          <Trackpoint>
            <Time>2021-04-02T10:13:56.000Z</Time>
            <Position>
              <LatitudeDegrees>42.339467592537403106689453125</LatitudeDegrees>
              <LongitudeDegrees>2.60677683167159557342529296875</LongitudeDegrees>
            </Position>
            <AltitudeMeters>816.5999755859375</AltitudeMeters>
            <DistanceMeters>NAN</DistanceMeters>
          </Trackpoint>
          <Trackpoint>
            <Time>2021-04-02T10:13:59.000Z</Time>
            <Position>
              <LatitudeDegrees>42.339442782104015350341796875</LatitudeDegrees>
              <LongitudeDegrees>2.60680449195206165313720703125</LongitudeDegrees>
            </Position>
            <AltitudeMeters>816.4000244140625</AltitudeMeters>
            <DistanceMeters>NAN</DistanceMeters>
          </Trackpoint>
          <Trackpoint>
            <Time>2021-04-02T10:14:02.000Z</Time>
            <Position>
              <LatitudeDegrees>42.339440770447254180908203125</LatitudeDegrees>
              <LongitudeDegrees>2.6068241894245147705078125</LongitudeDegrees>
            </Position>
            <AltitudeMeters>816.20001220703125</AltitudeMeters>
            <DistanceMeters>NAN</DistanceMeters>
          </Trackpoint>
          <Trackpoint>
            <Time>2021-04-02T10:14:04.000Z</Time>
            <Position>
              <LatitudeDegrees>42.339434064924716949462890625</LatitudeDegrees>
              <LongitudeDegrees>2.60683022439479827880859375</LongitudeDegrees>
            </Position>
            <AltitudeMeters>816.20001220703125</AltitudeMeters>
            <DistanceMeters>NAN</DistanceMeters>
          </Trackpoint>
          <Trackpoint>
            <Time>2021-04-02T10:14:05.000Z</Time>
            <Position>
              <LatitudeDegrees>42.3394265212118625640869140625</LatitudeDegrees>
              <LongitudeDegrees>2.60683500207960605621337890625</LongitudeDegrees>
            </Position>
            <AltitudeMeters>816.20001220703125</AltitudeMeters>
            <DistanceMeters>NAN</DistanceMeters>
          </Trackpoint>
          <Trackpoint>
            <Time>2021-04-02T10:14:07.000Z</Time>
            <Position>
              <LatitudeDegrees>42.33940632082521915435791015625</LatitudeDegrees>
              <LongitudeDegrees>2.6068417914211750030517578125</LongitudeDegrees>
            </Position>
            <AltitudeMeters>816.20001220703125</AltitudeMeters>
            <DistanceMeters>NAN</DistanceMeters>
          </Trackpoint>
          <Trackpoint>
            <Time>2021-04-02T10:14:11.000Z</Time>
            <Position>
              <LatitudeDegrees>42.339360974729061126708984375</LatitudeDegrees>
              <LongitudeDegrees>2.6068407855927944183349609375</LongitudeDegrees>
            </Position>
            <AltitudeMeters>816</AltitudeMeters>
            <DistanceMeters>NAN</DistanceMeters>
          </Trackpoint>
          <Trackpoint>
            <Time>2021-04-02T10:14:14.000Z</Time>
            <Position>
              <LatitudeDegrees>42.3393272794783115386962890625</LatitudeDegrees>
              <LongitudeDegrees>2.6068427972495555877685546875</LongitudeDegrees>
            </Position>
            <AltitudeMeters>815.79998779296875</AltitudeMeters>
            <DistanceMeters>NAN</DistanceMeters>
          </Trackpoint>
          <Trackpoint>
            <Time>2021-04-02T10:14:20.000Z</Time>
            <Position>
              <LatitudeDegrees>42.3392558656632900238037109375</LatitudeDegrees>
              <LongitudeDegrees>2.606844641268253326416015625</LongitudeDegrees>
            </Position>
            <AltitudeMeters>815.5999755859375</AltitudeMeters>
            <DistanceMeters>NAN</DistanceMeters>
          </Trackpoint>
          <Trackpoint>
            <Time>2021-04-02T10:14:31.000Z</Time>
            <Position>
              <LatitudeDegrees>42.3391016386449337005615234375</LatitudeDegrees>
              <LongitudeDegrees>2.6068454794585704803466796875</LongitudeDegrees>
            </Position>
            <AltitudeMeters>815.5999755859375</AltitudeMeters>
            <DistanceMeters>NAN</DistanceMeters>
          </Trackpoint>
          <Trackpoint>
            <Time>2021-04-02T10:14:41.000Z</Time>
            <Position>
              <LatitudeDegrees>42.338992841541767120361328125</LatitudeDegrees>
              <LongitudeDegrees>2.60683986358344554901123046875</LongitudeDegrees>
            </Position>
            <AltitudeMeters>814.79998779296875</AltitudeMeters>
            <DistanceMeters>NAN</DistanceMeters>
          </Trackpoint>
          <Trackpoint>
            <Time>2021-04-02T10:14:50.000Z</Time>
            <Position>
              <LatitudeDegrees>42.3388666100800037384033203125</LatitudeDegrees>
              <LongitudeDegrees>2.60681279003620147705078125</LongitudeDegrees>
            </Position>
            <AltitudeMeters>814.4000244140625</AltitudeMeters>
            <DistanceMeters>NAN</DistanceMeters>
          </Trackpoint>
          <Trackpoint>
            <Time>2021-04-02T10:15:02.000Z</Time>
            <Position>
              <LatitudeDegrees>42.33875504694879055023193359375</LatitudeDegrees>
              <LongitudeDegrees>2.606671638786792755126953125</LongitudeDegrees>
            </Position>
            <AltitudeMeters>814</AltitudeMeters>
            <DistanceMeters>NAN</DistanceMeters>
          </Trackpoint>
          <Trackpoint>
            <Time>2021-04-02T10:15:09.000Z</Time>
            <Position>
              <LatitudeDegrees>42.33871766366064548492431640625</LatitudeDegrees>
              <LongitudeDegrees>2.60655873455107212066650390625</LongitudeDegrees>
            </Position>
            <AltitudeMeters>814</AltitudeMeters>
            <DistanceMeters>NAN</DistanceMeters>
          </Trackpoint>
          <Trackpoint>
            <Time>2021-04-02T10:15:13.000Z</Time>
            <Position>
              <LatitudeDegrees>42.3386952839791774749755859375</LatitudeDegrees>
              <LongitudeDegrees>2.606497295200824737548828125</LongitudeDegrees>
            </Position>
            <AltitudeMeters>813.79998779296875</AltitudeMeters>
            <DistanceMeters>NAN</DistanceMeters>
          </Trackpoint>
          <Trackpoint>
            <Time>2021-04-02T10:15:14.000Z</Time>
            <Position>
              <LatitudeDegrees>42.3386915959417819976806640625</LatitudeDegrees>
              <LongitudeDegrees>2.60648019611835479736328125</LongitudeDegrees>
            </Position>
            <AltitudeMeters>813.79998779296875</AltitudeMeters>
            <DistanceMeters>NAN</DistanceMeters>
          </Trackpoint>
          <Trackpoint>
            <Time>2021-04-02T10:15:16.000Z</Time>
            <Position>
              <LatitudeDegrees>42.33868313021957874298095703125</LatitudeDegrees>
              <LongitudeDegrees>2.6064488478004932403564453125</LongitudeDegrees>
            </Position>
            <AltitudeMeters>813.79998779296875</AltitudeMeters>
            <DistanceMeters>NAN</DistanceMeters>
          </Trackpoint>
          <Trackpoint>
            <Time>2021-04-02T10:15:24.000Z</Time>
            <Position>
              <LatitudeDegrees>42.33863887377083301544189453125</LatitudeDegrees>
              <LongitudeDegrees>2.60632739402353763580322265625</LongitudeDegrees>
            </Position>
            <AltitudeMeters>813</AltitudeMeters>
            <DistanceMeters>NAN</DistanceMeters>
          </Trackpoint>
          <Trackpoint>
            <Time>2021-04-02T10:15:27.000Z</Time>
            <Position>
              <LatitudeDegrees>42.338612638413906097412109375</LatitudeDegrees>
              <LongitudeDegrees>2.606283724308013916015625</LongitudeDegrees>
            </Position>
            <AltitudeMeters>812.79998779296875</AltitudeMeters>
            <DistanceMeters>NAN</DistanceMeters>
          </Trackpoint>
          <Trackpoint>
            <Time>2021-04-02T10:15:32.000Z</Time>
            <Position>
              <LatitudeDegrees>42.33857248909771442413330078125</LatitudeDegrees>
              <LongitudeDegrees>2.606246173381805419921875</LongitudeDegrees>
            </Position>
            <AltitudeMeters>811.5999755859375</AltitudeMeters>
            <DistanceMeters>NAN</DistanceMeters>
          </Trackpoint>
          <Trackpoint>
            <Time>2021-04-02T10:15:34.000Z</Time>
            <Position>
              <LatitudeDegrees>42.3385501094162464141845703125</LatitudeDegrees>
              <LongitudeDegrees>2.60623552836477756500244140625</LongitudeDegrees>
            </Position>
            <AltitudeMeters>811.20001220703125</AltitudeMeters>
            <DistanceMeters>NAN</DistanceMeters>
          </Trackpoint>
          <Trackpoint>
            <Time>2021-04-02T10:15:38.000Z</Time>
            <Position>
              <LatitudeDegrees>42.33852571807801723480224609375</LatitudeDegrees>
              <LongitudeDegrees>2.60622094385325908660888671875</LongitudeDegrees>
            </Position>
            <AltitudeMeters>810.5999755859375</AltitudeMeters>
            <DistanceMeters>NAN</DistanceMeters>
          </Trackpoint>
          <Trackpoint>
            <Time>2021-04-02T10:15:39.000Z</Time>
            <Position>
              <LatitudeDegrees>42.33852085657417774200439453125</LatitudeDegrees>
              <LongitudeDegrees>2.60622194968163967132568359375</LongitudeDegrees>
            </Position>
            <AltitudeMeters>810.4000244140625</AltitudeMeters>
            <DistanceMeters>NAN</DistanceMeters>
          </Trackpoint>
          <Trackpoint>
            <Time>2021-04-02T10:15:41.000Z</Time>
            <Position>
              <LatitudeDegrees>42.33850769698619842529296875</LatitudeDegrees>
              <LongitudeDegrees>2.60621574707329273223876953125</LongitudeDegrees>
            </Position>
            <AltitudeMeters>810</AltitudeMeters>
            <DistanceMeters>NAN</DistanceMeters>
          </Trackpoint>
          <Trackpoint>
            <Time>2021-04-02T10:15:42.000Z</Time>
            <Position>
              <LatitudeDegrees>42.33850099146366119384765625</LatitudeDegrees>
              <LongitudeDegrees>2.6062099635601043701171875</LongitudeDegrees>
            </Position>
            <AltitudeMeters>810</AltitudeMeters>
            <DistanceMeters>NAN</DistanceMeters>
          </Trackpoint>
          <Trackpoint>
            <Time>2021-04-02T10:15:44.000Z</Time>
            <Position>
              <LatitudeDegrees>42.3384837247431278228759765625</LatitudeDegrees>
              <LongitudeDegrees>2.606199570000171661376953125</LongitudeDegrees>
            </Position>
            <AltitudeMeters>809.5999755859375</AltitudeMeters>
            <DistanceMeters>NAN</DistanceMeters>
          </Trackpoint>
          <Trackpoint>
            <Time>2021-04-02T10:15:45.000Z</Time>
            <Position>
              <LatitudeDegrees>42.33847626484930515289306640625</LatitudeDegrees>
              <LongitudeDegrees>2.6061903499066829681396484375</LongitudeDegrees>
            </Position>
            <AltitudeMeters>809.4000244140625</AltitudeMeters>
            <DistanceMeters>NAN</DistanceMeters>
          </Trackpoint>
          <Trackpoint>
            <Time>2021-04-02T10:15:46.000Z</Time>
            <Position>
              <LatitudeDegrees>42.33846905641257762908935546875</LatitudeDegrees>
              <LongitudeDegrees>2.60618322528898715972900390625</LongitudeDegrees>
            </Position>
            <AltitudeMeters>809.20001220703125</AltitudeMeters>
            <DistanceMeters>NAN</DistanceMeters>
          </Trackpoint>
          <Trackpoint>
            <Time>2021-04-02T10:15:51.000Z</Time>
            <Position>
              <LatitudeDegrees>42.33842312358319759368896484375</LatitudeDegrees>
              <LongitudeDegrees>2.60613159276545047760009765625</LongitudeDegrees>
            </Position>
            <AltitudeMeters>808.20001220703125</AltitudeMeters>
            <DistanceMeters>NAN</DistanceMeters>
          </Trackpoint>
          <Trackpoint>
            <Time>2021-04-02T10:15:57.000Z</Time>
            <Position>
              <LatitudeDegrees>42.33837819658219814300537109375</LatitudeDegrees>
              <LongitudeDegrees>2.6060803793370723724365234375</LongitudeDegrees>
            </Position>
            <AltitudeMeters>807.20001220703125</AltitudeMeters>
            <DistanceMeters>NAN</DistanceMeters>
          </Trackpoint>
          <Trackpoint>
            <Time>2021-04-02T10:16:00.000Z</Time>
            <Position>
              <LatitudeDegrees>42.33835523016750812530517578125</LatitudeDegrees>
              <LongitudeDegrees>2.60606001131236553192138671875</LongitudeDegrees>
            </Position>
            <AltitudeMeters>807</AltitudeMeters>
            <DistanceMeters>NAN</DistanceMeters>
          </Trackpoint>
          <Trackpoint>
            <Time>2021-04-02T10:16:01.000Z</Time>
            <Position>
              <LatitudeDegrees>42.3383496142923831939697265625</LatitudeDegrees>
              <LongitudeDegrees>2.6060505397617816925048828125</LongitudeDegrees>
            </Position>
            <AltitudeMeters>807</AltitudeMeters>
            <DistanceMeters>NAN</DistanceMeters>
          </Trackpoint>
          <Trackpoint>
            <Time>2021-04-02T10:16:07.000Z</Time>
            <Position>
              <LatitudeDegrees>42.3383298330008983612060546875</LatitudeDegrees>
              <LongitudeDegrees>2.6059739291667938232421875</LongitudeDegrees>
            </Position>
            <AltitudeMeters>807</AltitudeMeters>
            <DistanceMeters>NAN</DistanceMeters>
          </Trackpoint>
          <Trackpoint>
            <Time>2021-04-02T10:16:21.000Z</Time>
            <Position>
              <LatitudeDegrees>42.33824173919856548309326171875</LatitudeDegrees>
              <LongitudeDegrees>2.60579899884760379791259765625</LongitudeDegrees>
            </Position>
            <AltitudeMeters>807</AltitudeMeters>
            <DistanceMeters>NAN</DistanceMeters>
          </Trackpoint>
          <Trackpoint>
            <Time>2021-04-02T10:16:30.000Z</Time>
            <Position>
              <LatitudeDegrees>42.3381548188626766204833984375</LatitudeDegrees>
              <LongitudeDegrees>2.60573990643024444580078125</LongitudeDegrees>
            </Position>
            <AltitudeMeters>807</AltitudeMeters>
            <DistanceMeters>NAN</DistanceMeters>
          </Trackpoint>
          <Trackpoint>
            <Time>2021-04-02T10:16:36.000Z</Time>
            <Position>
              <LatitudeDegrees>42.3380931280553340911865234375</LatitudeDegrees>
              <LongitudeDegrees>2.60575457476079463958740234375</LongitudeDegrees>
            </Position>
            <AltitudeMeters>807.20001220703125</AltitudeMeters>
            <DistanceMeters>NAN</DistanceMeters>
          </Trackpoint>
          <Trackpoint>
            <Time>2021-04-02T10:16:38.000Z</Time>
            <Position>
              <LatitudeDegrees>42.3380837403237819671630859375</LatitudeDegrees>
              <LongitudeDegrees>2.6057405769824981689453125</LongitudeDegrees>
            </Position>
            <AltitudeMeters>807.4000244140625</AltitudeMeters>
            <DistanceMeters>NAN</DistanceMeters>
          </Trackpoint>
          <Trackpoint>
            <Time>2021-04-02T10:16:48.000Z</Time>
            <Position>
              <LatitudeDegrees>42.33796446584165096282958984375</LatitudeDegrees>
              <LongitudeDegrees>2.605645023286342620849609375</LongitudeDegrees>
            </Position>
            <AltitudeMeters>808.20001220703125</AltitudeMeters>
            <DistanceMeters>NAN</DistanceMeters>
          </Trackpoint>
          <Trackpoint>
            <Time>2021-04-02T10:16:49.000Z</Time>
            <Position>
              <LatitudeDegrees>42.337954156100749969482421875</LatitudeDegrees>
              <LongitudeDegrees>2.605640999972820281982421875</LongitudeDegrees>
            </Position>
            <AltitudeMeters>808.20001220703125</AltitudeMeters>
            <DistanceMeters>NAN</DistanceMeters>
          </Trackpoint>
          <Trackpoint>
            <Time>2021-04-02T10:16:50.000Z</Time>
            <Position>
              <LatitudeDegrees>42.33794510364532470703125</LatitudeDegrees>
              <LongitudeDegrees>2.60563940741121768951416015625</LongitudeDegrees>
            </Position>
            <AltitudeMeters>808.20001220703125</AltitudeMeters>
            <DistanceMeters>NAN</DistanceMeters>
          </Trackpoint>
          <Trackpoint>
            <Time>2021-04-02T10:16:59.000Z</Time>
            <Position>
              <LatitudeDegrees>42.33789439313113689422607421875</LatitudeDegrees>
              <LongitudeDegrees>2.60559498332440853118896484375</LongitudeDegrees>
            </Position>
            <AltitudeMeters>809</AltitudeMeters>
            <DistanceMeters>NAN</DistanceMeters>
          </Trackpoint>
          <Trackpoint>
            <Time>2021-04-02T10:17:01.000Z</Time>
            <Position>
              <LatitudeDegrees>42.33786941505968570709228515625</LatitudeDegrees>
              <LongitudeDegrees>2.6055804826319217681884765625</LongitudeDegrees>
            </Position>
            <AltitudeMeters>809.20001220703125</AltitudeMeters>
            <DistanceMeters>NAN</DistanceMeters>
          </Trackpoint>
          <Trackpoint>
            <Time>2021-04-02T10:17:06.000Z</Time>
            <Position>
              <LatitudeDegrees>42.337832115590572357177734375</LatitudeDegrees>
              <LongitudeDegrees>2.6055476255714893341064453125</LongitudeDegrees>
            </Position>
            <AltitudeMeters>809.79998779296875</AltitudeMeters>
            <DistanceMeters>NAN</DistanceMeters>
          </Trackpoint>
          <Trackpoint>
            <Time>2021-04-02T10:17:09.000Z</Time>
            <Position>
              <LatitudeDegrees>42.33781627379357814788818359375</LatitudeDegrees>
              <LongitudeDegrees>2.605533711612224578857421875</LongitudeDegrees>
            </Position>
            <AltitudeMeters>810</AltitudeMeters>
            <DistanceMeters>NAN</DistanceMeters>
          </Trackpoint>
          <Trackpoint>
            <Time>2021-04-02T10:17:14.000Z</Time>
            <Position>
              <LatitudeDegrees>42.33777252025902271270751953125</LatitudeDegrees>
              <LongitudeDegrees>2.6055063866078853607177734375</LongitudeDegrees>
            </Position>
            <AltitudeMeters>810.20001220703125</AltitudeMeters>
            <DistanceMeters>NAN</DistanceMeters>
          </Trackpoint>
          <Trackpoint>
            <Time>2021-04-02T10:17:15.000Z</Time>
            <Position>
              <LatitudeDegrees>42.33776682056486606597900390625</LatitudeDegrees>
              <LongitudeDegrees>2.605498842895030975341796875</LongitudeDegrees>
            </Position>
            <AltitudeMeters>810.4000244140625</AltitudeMeters>
            <DistanceMeters>NAN</DistanceMeters>
          </Trackpoint>
          <Trackpoint>
            <Time>2021-04-02T10:17:19.000Z</Time>
            <Position>
              <LatitudeDegrees>42.337737567722797393798828125</LatitudeDegrees>
              <LongitudeDegrees>2.60546506382524967193603515625</LongitudeDegrees>
            </Position>
            <AltitudeMeters>810</AltitudeMeters>
            <DistanceMeters>NAN</DistanceMeters>
          </Trackpoint>
          <Trackpoint>
            <Time>2021-04-02T10:17:22.000Z</Time>
            <Position>
              <LatitudeDegrees>42.3377146013081073760986328125</LatitudeDegrees>
              <LongitudeDegrees>2.6054374873638153076171875</LongitudeDegrees>
            </Position>
            <AltitudeMeters>810</AltitudeMeters>
            <DistanceMeters>NAN</DistanceMeters>
          </Trackpoint>
          <Trackpoint>
            <Time>2021-04-02T10:17:24.000Z</Time>
            <Position>
              <LatitudeDegrees>42.3376978375017642974853515625</LatitudeDegrees>
              <LongitudeDegrees>2.6054058037698268890380859375</LongitudeDegrees>
            </Position>
            <AltitudeMeters>810</AltitudeMeters>
            <DistanceMeters>NAN</DistanceMeters>
          </Trackpoint>
          <Trackpoint>
            <Time>2021-04-02T10:17:26.000Z</Time>
            <Position>
              <LatitudeDegrees>42.33768568374216556549072265625</LatitudeDegrees>
              <LongitudeDegrees>2.605382166802883148193359375</LongitudeDegrees>
            </Position>
            <AltitudeMeters>810</AltitudeMeters>
            <DistanceMeters>NAN</DistanceMeters>
          </Trackpoint>
          <Trackpoint>
            <Time>2021-04-02T10:17:29.000Z</Time>
            <Position>
              <LatitudeDegrees>42.3376579396426677703857421875</LatitudeDegrees>
              <LongitudeDegrees>2.60533983819186687469482421875</LongitudeDegrees>
            </Position>
            <AltitudeMeters>809.79998779296875</AltitudeMeters>
            <DistanceMeters>NAN</DistanceMeters>
          </Trackpoint>
          <Trackpoint>
            <Time>2021-04-02T10:17:31.000Z</Time>
            <Position>
              <LatitudeDegrees>42.33762734569609165191650390625</LatitudeDegrees>
              <LongitudeDegrees>2.605323828756809234619140625</LongitudeDegrees>
            </Position>
            <AltitudeMeters>809.79998779296875</AltitudeMeters>
            <DistanceMeters>NAN</DistanceMeters>
          </Trackpoint>
          <Trackpoint>
            <Time>2021-04-02T10:17:34.000Z</Time>
            <Position>
              <LatitudeDegrees>42.33760085888206958770751953125</LatitudeDegrees>
              <LongitudeDegrees>2.6052975095808506011962890625</LongitudeDegrees>
            </Position>
            <AltitudeMeters>809.79998779296875</AltitudeMeters>
            <DistanceMeters>NAN</DistanceMeters>
          </Trackpoint>
          <Trackpoint>
            <Time>2021-04-02T10:17:40.000Z</Time>
            <Position>
              <LatitudeDegrees>42.33757722191512584686279296875</LatitudeDegrees>
              <LongitudeDegrees>2.60525417514145374298095703125</LongitudeDegrees>
            </Position>
            <AltitudeMeters>810.20001220703125</AltitudeMeters>
            <DistanceMeters>NAN</DistanceMeters>
          </Trackpoint>
          <Trackpoint>
            <Time>2021-04-02T10:17:41.000Z</Time>
            <Position>
              <LatitudeDegrees>42.33757353387773036956787109375</LatitudeDegrees>
              <LongitudeDegrees>2.605246044695377349853515625</LongitudeDegrees>
            </Position>
            <AltitudeMeters>810.20001220703125</AltitudeMeters>
            <DistanceMeters>NAN</DistanceMeters>
          </Trackpoint>
          <Trackpoint>
            <Time>2021-04-02T10:17:42.000Z</Time>
            <Position>
              <LatitudeDegrees>42.337568588554859161376953125</LatitudeDegrees>
              <LongitudeDegrees>2.60523607023060321807861328125</LongitudeDegrees>
            </Position>
            <AltitudeMeters>810.4000244140625</AltitudeMeters>
            <DistanceMeters>NAN</DistanceMeters>
          </Trackpoint>
          <Trackpoint>
            <Time>2021-04-02T10:17:49.000Z</Time>
            <Position>
              <LatitudeDegrees>42.337520308792591094970703125</LatitudeDegrees>
              <LongitudeDegrees>2.60520002804696559906005859375</LongitudeDegrees>
            </Position>
            <AltitudeMeters>811.20001220703125</AltitudeMeters>
            <DistanceMeters>NAN</DistanceMeters>
          </Trackpoint>
          <Trackpoint>
            <Time>2021-04-02T10:17:50.000Z</Time>
            <Position>
              <LatitudeDegrees>42.3375157825648784637451171875</LatitudeDegrees>
              <LongitudeDegrees>2.605193071067333221435546875</LongitudeDegrees>
            </Position>
            <AltitudeMeters>811.20001220703125</AltitudeMeters>
            <DistanceMeters>NAN</DistanceMeters>
          </Trackpoint>
          <Trackpoint>
            <Time>2021-04-02T10:17:52.000Z</Time>
            <Position>
              <LatitudeDegrees>42.337495498359203338623046875</LatitudeDegrees>
              <LongitudeDegrees>2.60517840273678302764892578125</LongitudeDegrees>
            </Position>
            <AltitudeMeters>811.4000244140625</AltitudeMeters>
            <DistanceMeters>NAN</DistanceMeters>
          </Trackpoint>
          <Trackpoint>
            <Time>2021-04-02T10:17:54.000Z</Time>
            <Position>
              <LatitudeDegrees>42.33748577535152435302734375</LatitudeDegrees>
              <LongitudeDegrees>2.60516113601624965667724609375</LongitudeDegrees>
            </Position>
            <AltitudeMeters>811.5999755859375</AltitudeMeters>
            <DistanceMeters>NAN</DistanceMeters>
          </Trackpoint>
          <Trackpoint>
            <Time>2021-04-02T10:17:57.000Z</Time>
            <Position>
              <LatitudeDegrees>42.337453924119472503662109375</LatitudeDegrees>
              <LongitudeDegrees>2.60510615073144435882568359375</LongitudeDegrees>
            </Position>
            <AltitudeMeters>811.5999755859375</AltitudeMeters>
            <DistanceMeters>NAN</DistanceMeters>
          </Trackpoint>
          <Trackpoint>
            <Time>2021-04-02T10:17:58.000Z</Time>
            <Position>
              <LatitudeDegrees>42.33744931407272815704345703125</LatitudeDegrees>
              <LongitudeDegrees>2.6050836034119129180908203125</LongitudeDegrees>
            </Position>
            <AltitudeMeters>811.4000244140625</AltitudeMeters>
            <DistanceMeters>NAN</DistanceMeters>
          </Trackpoint>
          <Trackpoint>
            <Time>2021-04-02T10:18:04.000Z</Time>
            <Position>
              <LatitudeDegrees>42.3374115116894245147705078125</LatitudeDegrees>
              <LongitudeDegrees>2.60497815907001495361328125</LongitudeDegrees>
            </Position>
            <AltitudeMeters>811</AltitudeMeters>
            <DistanceMeters>NAN</DistanceMeters>
          </Trackpoint>
          <Trackpoint>
            <Time>2021-04-02T10:18:09.000Z</Time>
            <Position>
              <LatitudeDegrees>42.337368763983249664306640625</LatitudeDegrees>
              <LongitudeDegrees>2.604905404150485992431640625</LongitudeDegrees>
            </Position>
            <AltitudeMeters>810.79998779296875</AltitudeMeters>
            <DistanceMeters>NAN</DistanceMeters>
          </Trackpoint>
          <Trackpoint>
            <Time>2021-04-02T10:18:10.000Z</Time>
            <Position>
              <LatitudeDegrees>42.33735568821430206298828125</LatitudeDegrees>
              <LongitudeDegrees>2.60489392094314098358154296875</LongitudeDegrees>
            </Position>
            <AltitudeMeters>810.79998779296875</AltitudeMeters>
            <DistanceMeters>NAN</DistanceMeters>
          </Trackpoint>
          <Trackpoint>
            <Time>2021-04-02T10:18:11.000Z</Time>
            <Position>
              <LatitudeDegrees>42.33735107816755771636962890625</LatitudeDegrees>
              <LongitudeDegrees>2.60488771833479404449462890625</LongitudeDegrees>
            </Position>
            <AltitudeMeters>810.79998779296875</AltitudeMeters>
            <DistanceMeters>NAN</DistanceMeters>
          </Trackpoint>
          <Trackpoint>
            <Time>2021-04-02T10:18:16.000Z</Time>
            <Position>
              <LatitudeDegrees>42.33732350170612335205078125</LatitudeDegrees>
              <LongitudeDegrees>2.60482133366167545318603515625</LongitudeDegrees>
            </Position>
            <AltitudeMeters>810.79998779296875</AltitudeMeters>
            <DistanceMeters>NAN</DistanceMeters>
          </Trackpoint>
          <Trackpoint>
            <Time>2021-04-02T10:18:19.000Z</Time>
            <Position>
              <LatitudeDegrees>42.33729391358792781829833984375</LatitudeDegrees>
              <LongitudeDegrees>2.60477833449840545654296875</LongitudeDegrees>
            </Position>
            <AltitudeMeters>810.5999755859375</AltitudeMeters>
            <DistanceMeters>NAN</DistanceMeters>
          </Trackpoint>
          <Trackpoint>
            <Time>2021-04-02T10:18:20.000Z</Time>
            <Position>
              <LatitudeDegrees>42.33729491941630840301513671875</LatitudeDegrees>
              <LongitudeDegrees>2.604765929281711578369140625</LongitudeDegrees>
            </Position>
            <AltitudeMeters>810.5999755859375</AltitudeMeters>
            <DistanceMeters>NAN</DistanceMeters>
          </Trackpoint>
          <Trackpoint>
            <Time>2021-04-02T10:18:22.000Z</Time>
            <Position>
              <LatitudeDegrees>42.33729072846472263336181640625</LatitudeDegrees>
              <LongitudeDegrees>2.60475612245500087738037109375</LongitudeDegrees>
            </Position>
            <AltitudeMeters>810.5999755859375</AltitudeMeters>
            <DistanceMeters>NAN</DistanceMeters>
          </Trackpoint>
          <Trackpoint>
            <Time>2021-04-02T10:18:25.000Z</Time>
            <Position>
              <LatitudeDegrees>42.33725971542298793792724609375</LatitudeDegrees>
              <LongitudeDegrees>2.604729048907756805419921875</LongitudeDegrees>
            </Position>
            <AltitudeMeters>810.5999755859375</AltitudeMeters>
            <DistanceMeters>NAN</DistanceMeters>
          </Trackpoint>
          <Trackpoint>
            <Time>2021-04-02T10:18:26.000Z</Time>
            <Position>
              <LatitudeDegrees>42.33725384809076786041259765625</LatitudeDegrees>
              <LongitudeDegrees>2.60471790097653865814208984375</LongitudeDegrees>
            </Position>
            <AltitudeMeters>810.5999755859375</AltitudeMeters>
            <DistanceMeters>NAN</DistanceMeters>
          </Trackpoint>
          <Trackpoint>
            <Time>2021-04-02T10:18:36.000Z</Time>
            <Position>
              <LatitudeDegrees>42.33716315589845180511474609375</LatitudeDegrees>
              <LongitudeDegrees>2.60463156737387180328369140625</LongitudeDegrees>
            </Position>
            <AltitudeMeters>810.20001220703125</AltitudeMeters>
            <DistanceMeters>NAN</DistanceMeters>
          </Trackpoint>
          <Trackpoint>
            <Time>2021-04-02T10:18:37.000Z</Time>
            <Position>
              <LatitudeDegrees>42.337150163948535919189453125</LatitudeDegrees>
              <LongitudeDegrees>2.60462871752679347991943359375</LongitudeDegrees>
            </Position>
            <AltitudeMeters>810</AltitudeMeters>
            <DistanceMeters>NAN</DistanceMeters>
          </Trackpoint>
          <Trackpoint>
            <Time>2021-04-02T10:18:38.000Z</Time>
            <Position>
              <LatitudeDegrees>42.33713750727474689483642578125</LatitudeDegrees>
              <LongitudeDegrees>2.60462938807904720306396484375</LongitudeDegrees>
            </Position>
            <AltitudeMeters>810</AltitudeMeters>
            <DistanceMeters>NAN</DistanceMeters>
          </Trackpoint>
          <Trackpoint>
            <Time>2021-04-02T10:18:47.000Z</Time>
            <Position>
              <LatitudeDegrees>42.3370360024273395538330078125</LatitudeDegrees>
              <LongitudeDegrees>2.6046390272676944732666015625</LongitudeDegrees>
            </Position>
            <AltitudeMeters>809.20001220703125</AltitudeMeters>
            <DistanceMeters>NAN</DistanceMeters>
          </Trackpoint>
          <Trackpoint>
            <Time>2021-04-02T10:18:49.000Z</Time>
            <Position>
              <LatitudeDegrees>42.33702016063034534454345703125</LatitudeDegrees>
              <LongitudeDegrees>2.6046527735888957977294921875</LongitudeDegrees>
            </Position>
            <AltitudeMeters>809</AltitudeMeters>
            <DistanceMeters>NAN</DistanceMeters>
          </Trackpoint>
          <Trackpoint>
            <Time>2021-04-02T10:18:56.000Z</Time>
            <Position>
              <LatitudeDegrees>42.3369364254176616668701171875</LatitudeDegrees>
              <LongitudeDegrees>2.60468370281159877777099609375</LongitudeDegrees>
            </Position>
            <AltitudeMeters>808.20001220703125</AltitudeMeters>
            <DistanceMeters>NAN</DistanceMeters>
          </Trackpoint>
          <Trackpoint>
            <Time>2021-04-02T10:19:00.000Z</Time>
            <Position>
              <LatitudeDegrees>42.3368985392153263092041015625</LatitudeDegrees>
              <LongitudeDegrees>2.60468957014381885528564453125</LongitudeDegrees>
            </Position>
            <AltitudeMeters>808</AltitudeMeters>
            <DistanceMeters>NAN</DistanceMeters>
          </Trackpoint>
          <Trackpoint>
            <Time>2021-04-02T10:19:03.000Z</Time>
            <Position>
              <LatitudeDegrees>42.3368640057742595672607421875</LatitudeDegrees>
              <LongitudeDegrees>2.60469644330441951751708984375</LongitudeDegrees>
            </Position>
            <AltitudeMeters>807.5999755859375</AltitudeMeters>
            <DistanceMeters>NAN</DistanceMeters>
          </Trackpoint>
          <Trackpoint>
            <Time>2021-04-02T10:19:05.000Z</Time>
            <Position>
              <LatitudeDegrees>42.33685679733753204345703125</LatitudeDegrees>
              <LongitudeDegrees>2.604704238474369049072265625</LongitudeDegrees>
            </Position>
            <AltitudeMeters>807.5999755859375</AltitudeMeters>
            <DistanceMeters>NAN</DistanceMeters>
          </Trackpoint>
          <Trackpoint>
            <Time>2021-04-02T10:19:06.000Z</Time>
            <Position>
              <LatitudeDegrees>42.33685453422367572784423828125</LatitudeDegrees>
              <LongitudeDegrees>2.60470851324498653411865234375</LongitudeDegrees>
            </Position>
            <AltitudeMeters>807.4000244140625</AltitudeMeters>
            <DistanceMeters>NAN</DistanceMeters>
          </Trackpoint>
          <Trackpoint>
            <Time>2021-04-02T10:19:09.000Z</Time>
            <Position>
              <LatitudeDegrees>42.3368519358336925506591796875</LatitudeDegrees>
              <LongitudeDegrees>2.6046903245151042938232421875</LongitudeDegrees>
            </Position>
            <AltitudeMeters>807.4000244140625</AltitudeMeters>
            <DistanceMeters>NAN</DistanceMeters>
          </Trackpoint>
          <Trackpoint>
            <Time>2021-04-02T10:19:12.000Z</Time>
            <Position>
              <LatitudeDegrees>42.33686962164938449859619140625</LatitudeDegrees>
              <LongitudeDegrees>2.60469191707670688629150390625</LongitudeDegrees>
            </Position>
            <AltitudeMeters>807.4000244140625</AltitudeMeters>
            <DistanceMeters>NAN</DistanceMeters>
          </Trackpoint>
          <Trackpoint>
            <Time>2021-04-02T10:19:14.000Z</Time>
            <Position>
              <LatitudeDegrees>42.336872555315494537353515625</LatitudeDegrees>
              <LongitudeDegrees>2.60469845496118068695068359375</LongitudeDegrees>
            </Position>
            <AltitudeMeters>807.4000244140625</AltitudeMeters>
            <DistanceMeters>NAN</DistanceMeters>
          </Trackpoint>
          <Trackpoint>
            <Time>2021-04-02T10:19:21.000Z</Time>
            <Position>
              <LatitudeDegrees>42.3368224315345287322998046875</LatitudeDegrees>
              <LongitudeDegrees>2.604718990623950958251953125</LongitudeDegrees>
            </Position>
            <AltitudeMeters>807</AltitudeMeters>
            <DistanceMeters>NAN</DistanceMeters>
          </Trackpoint>
          <Trackpoint>
            <Time>2021-04-02T10:19:26.000Z</Time>
            <Position>
              <LatitudeDegrees>42.3367989622056484222412109375</LatitudeDegrees>
              <LongitudeDegrees>2.60472862981259822845458984375</LongitudeDegrees>
            </Position>
            <AltitudeMeters>807</AltitudeMeters>
            <DistanceMeters>NAN</DistanceMeters>
          </Trackpoint>
          <Trackpoint>
            <Time>2021-04-02T10:19:28.000Z</Time>
            <Position>
              <LatitudeDegrees>42.3367788456380367279052734375</LatitudeDegrees>
              <LongitudeDegrees>2.604724355041980743408203125</LongitudeDegrees>
            </Position>
            <AltitudeMeters>807</AltitudeMeters>
            <DistanceMeters>NAN</DistanceMeters>
          </Trackpoint>
          <Trackpoint>
            <Time>2021-04-02T10:19:33.000Z</Time>
            <Position>
              <LatitudeDegrees>42.33671556226909160614013671875</LatitudeDegrees>
              <LongitudeDegrees>2.60472360067069530487060546875</LongitudeDegrees>
            </Position>
            <AltitudeMeters>807</AltitudeMeters>
            <DistanceMeters>NAN</DistanceMeters>
          </Trackpoint>
          <Trackpoint>
            <Time>2021-04-02T10:19:34.000Z</Time>
            <Position>
              <LatitudeDegrees>42.3367017321288585662841796875</LatitudeDegrees>
              <LongitudeDegrees>2.6047137938439846038818359375</LongitudeDegrees>
            </Position>
            <AltitudeMeters>807</AltitudeMeters>
            <DistanceMeters>NAN</DistanceMeters>
          </Trackpoint>
          <Trackpoint>
            <Time>2021-04-02T10:19:35.000Z</Time>
            <Position>
              <LatitudeDegrees>42.33668974600732326507568359375</LatitudeDegrees>
              <LongitudeDegrees>2.60471169836819171905517578125</LongitudeDegrees>
            </Position>
            <AltitudeMeters>807</AltitudeMeters>
            <DistanceMeters>NAN</DistanceMeters>
          </Trackpoint>
          <Trackpoint>
            <Time>2021-04-02T10:19:40.000Z</Time>
            <Position>
              <LatitudeDegrees>42.3366353474557399749755859375</LatitudeDegrees>
              <LongitudeDegrees>2.60469007305800914764404296875</LongitudeDegrees>
            </Position>
            <AltitudeMeters>806.79998779296875</AltitudeMeters>
            <DistanceMeters>NAN</DistanceMeters>
          </Trackpoint>
          <Trackpoint>
            <Time>2021-04-02T10:19:41.000Z</Time>
            <Position>
              <LatitudeDegrees>42.33662084676325321197509765625</LatitudeDegrees>
              <LongitudeDegrees>2.60468303225934505462646484375</LongitudeDegrees>
            </Position>
            <AltitudeMeters>806.79998779296875</AltitudeMeters>
            <DistanceMeters>NAN</DistanceMeters>
          </Trackpoint>
          <Trackpoint>
            <Time>2021-04-02T10:19:49.000Z</Time>
            <Position>
              <LatitudeDegrees>42.3365302383899688720703125</LatitudeDegrees>
              <LongitudeDegrees>2.6046443916857242584228515625</LongitudeDegrees>
            </Position>
            <AltitudeMeters>806.20001220703125</AltitudeMeters>
            <DistanceMeters>NAN</DistanceMeters>
          </Trackpoint>
          <Trackpoint>
            <Time>2021-04-02T10:19:54.000Z</Time>
            <Position>
              <LatitudeDegrees>42.33648262917995452880859375</LatitudeDegrees>
              <LongitudeDegrees>2.60461530648171901702880859375</LongitudeDegrees>
            </Position>
            <AltitudeMeters>806</AltitudeMeters>
            <DistanceMeters>NAN</DistanceMeters>
          </Trackpoint>
          <Trackpoint>
            <Time>2021-04-02T10:19:56.000Z</Time>
            <Position>
              <LatitudeDegrees>42.336463518440723419189453125</LatitudeDegrees>
              <LongitudeDegrees>2.604593597352504730224609375</LongitudeDegrees>
            </Position>
            <AltitudeMeters>806</AltitudeMeters>
            <DistanceMeters>NAN</DistanceMeters>
          </Trackpoint>
          <Trackpoint>
            <Time>2021-04-02T10:20:01.000Z</Time>
            <Position>
              <LatitudeDegrees>42.336409874260425567626953125</LatitudeDegrees>
              <LongitudeDegrees>2.604570798575878143310546875</LongitudeDegrees>
            </Position>
            <AltitudeMeters>805.5999755859375</AltitudeMeters>
            <DistanceMeters>NAN</DistanceMeters>
          </Trackpoint>
          <Trackpoint>
            <Time>2021-04-02T10:20:02.000Z</Time>
            <Position>
              <LatitudeDegrees>42.33640350401401519775390625</LatitudeDegrees>
              <LongitudeDegrees>2.604564763605594635009765625</LongitudeDegrees>
            </Position>
            <AltitudeMeters>805.5999755859375</AltitudeMeters>
            <DistanceMeters>NAN</DistanceMeters>
          </Trackpoint>
          <Trackpoint>
            <Time>2021-04-02T10:20:03.000Z</Time>
            <Position>
              <LatitudeDegrees>42.33639906160533428192138671875</LatitudeDegrees>
              <LongitudeDegrees>2.60455680079758167266845703125</LongitudeDegrees>
            </Position>
            <AltitudeMeters>805.5999755859375</AltitudeMeters>
            <DistanceMeters>NAN</DistanceMeters>
          </Trackpoint>
          <Trackpoint>
            <Time>2021-04-02T10:20:07.000Z</Time>
            <Position>
              <LatitudeDegrees>42.3363473452627658843994140625</LatitudeDegrees>
              <LongitudeDegrees>2.60452578775584697723388671875</LongitudeDegrees>
            </Position>
            <AltitudeMeters>805.4000244140625</AltitudeMeters>
            <DistanceMeters>NAN</DistanceMeters>
          </Trackpoint>
          <Trackpoint>
            <Time>2021-04-02T10:20:13.000Z</Time>
            <Position>
              <LatitudeDegrees>42.3362846486270427703857421875</LatitudeDegrees>
              <LongitudeDegrees>2.60448052547872066497802734375</LongitudeDegrees>
            </Position>
            <AltitudeMeters>805.20001220703125</AltitudeMeters>
            <DistanceMeters>NAN</DistanceMeters>
          </Trackpoint>
          <Trackpoint>
            <Time>2021-04-02T10:20:14.000Z</Time>
            <Position>
              <LatitudeDegrees>42.33627500943839550018310546875</LatitudeDegrees>
              <LongitudeDegrees>2.6044744066894054412841796875</LongitudeDegrees>
            </Position>
            <AltitudeMeters>805.20001220703125</AltitudeMeters>
            <DistanceMeters>NAN</DistanceMeters>
          </Trackpoint>
          <Trackpoint>
            <Time>2021-04-02T10:20:20.000Z</Time>
            <Position>
              <LatitudeDegrees>42.336225807666778564453125</LatitudeDegrees>
              <LongitudeDegrees>2.6044395379722118377685546875</LongitudeDegrees>
            </Position>
            <AltitudeMeters>805</AltitudeMeters>
            <DistanceMeters>NAN</DistanceMeters>
          </Trackpoint>
          <Trackpoint>
            <Time>2021-04-02T10:20:24.000Z</Time>
            <Position>
              <LatitudeDegrees>42.336171157658100128173828125</LatitudeDegrees>
              <LongitudeDegrees>2.60440609417855739593505859375</LongitudeDegrees>
            </Position>
            <AltitudeMeters>804.5999755859375</AltitudeMeters>
            <DistanceMeters>NAN</DistanceMeters>
          </Trackpoint>
          <Trackpoint>
            <Time>2021-04-02T10:20:25.000Z</Time>
            <Position>
              <LatitudeDegrees>42.33616068027913570404052734375</LatitudeDegrees>
              <LongitudeDegrees>2.60440307669341564178466796875</LongitudeDegrees>
            </Position>
            <AltitudeMeters>804.5999755859375</AltitudeMeters>
            <DistanceMeters>NAN</DistanceMeters>
          </Trackpoint>
          <Trackpoint>
            <Time>2021-04-02T10:20:31.000Z</Time>
            <Position>
              <LatitudeDegrees>42.33609639108180999755859375</LatitudeDegrees>
              <LongitudeDegrees>2.60434088297188282012939453125</LongitudeDegrees>
            </Position>
            <AltitudeMeters>804</AltitudeMeters>
            <DistanceMeters>NAN</DistanceMeters>
          </Trackpoint>
          <Trackpoint>
            <Time>2021-04-02T10:20:33.000Z</Time>
            <Position>
              <LatitudeDegrees>42.33606395311653614044189453125</LatitudeDegrees>
              <LongitudeDegrees>2.60431431233882904052734375</LongitudeDegrees>
            </Position>
            <AltitudeMeters>803.79998779296875</AltitudeMeters>
            <DistanceMeters>NAN</DistanceMeters>
          </Trackpoint>
          <Trackpoint>
            <Time>2021-04-02T10:20:38.000Z</Time>
            <Position>
              <LatitudeDegrees>42.33600762672722339630126953125</LatitudeDegrees>
              <LongitudeDegrees>2.6042841374874114990234375</LongitudeDegrees>
            </Position>
            <AltitudeMeters>803.4000244140625</AltitudeMeters>
            <DistanceMeters>NAN</DistanceMeters>
          </Trackpoint>
          <Trackpoint>
            <Time>2021-04-02T10:20:45.000Z</Time>
            <Position>
              <LatitudeDegrees>42.335931099951267242431640625</LatitudeDegrees>
              <LongitudeDegrees>2.6042343489825725555419921875</LongitudeDegrees>
            </Position>
            <AltitudeMeters>802.79998779296875</AltitudeMeters>
            <DistanceMeters>NAN</DistanceMeters>
          </Trackpoint>
          <Trackpoint>
            <Time>2021-04-02T10:20:49.000Z</Time>
            <Position>
              <LatitudeDegrees>42.3358930461108684539794921875</LatitudeDegrees>
              <LongitudeDegrees>2.60422353632748126983642578125</LongitudeDegrees>
            </Position>
            <AltitudeMeters>802</AltitudeMeters>
            <DistanceMeters>NAN</DistanceMeters>
          </Trackpoint>
          <Trackpoint>
            <Time>2021-04-02T10:20:53.000Z</Time>
            <Position>
              <LatitudeDegrees>42.33585909940302371978759765625</LatitudeDegrees>
              <LongitudeDegrees>2.604197971522808074951171875</LongitudeDegrees>
            </Position>
            <AltitudeMeters>801.4000244140625</AltitudeMeters>
            <DistanceMeters>NAN</DistanceMeters>
          </Trackpoint>
          <Trackpoint>
            <Time>2021-04-02T10:20:58.000Z</Time>
            <Position>
              <LatitudeDegrees>42.33581341803073883056640625</LatitudeDegrees>
              <LongitudeDegrees>2.60416838340461254119873046875</LongitudeDegrees>
            </Position>
            <AltitudeMeters>800.79998779296875</AltitudeMeters>
            <DistanceMeters>NAN</DistanceMeters>
          </Trackpoint>
          <Trackpoint>
            <Time>2021-04-02T10:21:05.000Z</Time>
            <Position>
              <LatitudeDegrees>42.3357403278350830078125</LatitudeDegrees>
              <LongitudeDegrees>2.604100406169891357421875</LongitudeDegrees>
            </Position>
            <AltitudeMeters>800.4000244140625</AltitudeMeters>
            <DistanceMeters>NAN</DistanceMeters>
          </Trackpoint>
          <Trackpoint>
            <Time>2021-04-02T10:21:07.000Z</Time>
            <Position>
              <LatitudeDegrees>42.3357156850397586822509765625</LatitudeDegrees>
              <LongitudeDegrees>2.604073584079742431640625</LongitudeDegrees>
            </Position>
            <AltitudeMeters>800.4000244140625</AltitudeMeters>
            <DistanceMeters>NAN</DistanceMeters>
          </Trackpoint>
          <Trackpoint>
            <Time>2021-04-02T10:21:14.000Z</Time>
            <Position>
              <LatitudeDegrees>42.33564619906246662139892578125</LatitudeDegrees>
              <LongitudeDegrees>2.60402999818325042724609375</LongitudeDegrees>
            </Position>
            <AltitudeMeters>799.79998779296875</AltitudeMeters>
            <DistanceMeters>NAN</DistanceMeters>
          </Trackpoint>
          <Trackpoint>
            <Time>2021-04-02T10:21:15.000Z</Time>
            <Position>
              <LatitudeDegrees>42.33563630841672420501708984375</LatitudeDegrees>
              <LongitudeDegrees>2.60401918552815914154052734375</LongitudeDegrees>
            </Position>
            <AltitudeMeters>799.79998779296875</AltitudeMeters>
            <DistanceMeters>NAN</DistanceMeters>
          </Trackpoint>
          <Trackpoint>
            <Time>2021-04-02T10:21:21.000Z</Time>
            <Position>
              <LatitudeDegrees>42.33557009138166904449462890625</LatitudeDegrees>
              <LongitudeDegrees>2.60398582555353641510009765625</LongitudeDegrees>
            </Position>
            <AltitudeMeters>799.4000244140625</AltitudeMeters>
            <DistanceMeters>NAN</DistanceMeters>
          </Trackpoint>
          <Trackpoint>
            <Time>2021-04-02T10:21:24.000Z</Time>
            <Position>
              <LatitudeDegrees>42.33553824014961719512939453125</LatitudeDegrees>
              <LongitudeDegrees>2.60396252386271953582763671875</LongitudeDegrees>
            </Position>
            <AltitudeMeters>799.4000244140625</AltitudeMeters>
            <DistanceMeters>NAN</DistanceMeters>
          </Trackpoint>
          <Trackpoint>
            <Time>2021-04-02T10:21:32.000Z</Time>
            <Position>
              <LatitudeDegrees>42.33544855378568172454833984375</LatitudeDegrees>
              <LongitudeDegrees>2.60393804870545864105224609375</LongitudeDegrees>
            </Position>
            <AltitudeMeters>798.4000244140625</AltitudeMeters>
            <DistanceMeters>NAN</DistanceMeters>
          </Trackpoint>
          <Trackpoint>
            <Time>2021-04-02T10:21:34.000Z</Time>
            <Position>
              <LatitudeDegrees>42.33543254435062408447265625</LatitudeDegrees>
              <LongitudeDegrees>2.60392396710813045501708984375</LongitudeDegrees>
            </Position>
            <AltitudeMeters>798.4000244140625</AltitudeMeters>
            <DistanceMeters>NAN</DistanceMeters>
          </Trackpoint>
          <Trackpoint>
            <Time>2021-04-02T10:21:40.000Z</Time>
            <Position>
              <LatitudeDegrees>42.33536875806748867034912109375</LatitudeDegrees>
              <LongitudeDegrees>2.603894211351871490478515625</LongitudeDegrees>
            </Position>
            <AltitudeMeters>797.4000244140625</AltitudeMeters>
            <DistanceMeters>NAN</DistanceMeters>
          </Trackpoint>
          <Trackpoint>
            <Time>2021-04-02T10:21:41.000Z</Time>
            <Position>
              <LatitudeDegrees>42.33535652048885822296142578125</LatitudeDegrees>
              <LongitudeDegrees>2.60388541035354137420654296875</LongitudeDegrees>
            </Position>
            <AltitudeMeters>797.4000244140625</AltitudeMeters>
            <DistanceMeters>NAN</DistanceMeters>
          </Trackpoint>
          <Trackpoint>
            <Time>2021-04-02T10:21:48.000Z</Time>
            <Position>
              <LatitudeDegrees>42.335270941257476806640625</LatitudeDegrees>
              <LongitudeDegrees>2.60385590605437755584716796875</LongitudeDegrees>
            </Position>
            <AltitudeMeters>796.20001220703125</AltitudeMeters>
            <DistanceMeters>NAN</DistanceMeters>
          </Trackpoint>
          <Trackpoint>
            <Time>2021-04-02T10:21:53.000Z</Time>
            <Position>
              <LatitudeDegrees>42.335211597383022308349609375</LatitudeDegrees>
              <LongitudeDegrees>2.6038227975368499755859375</LongitudeDegrees>
            </Position>
            <AltitudeMeters>795.79998779296875</AltitudeMeters>
            <DistanceMeters>NAN</DistanceMeters>
          </Trackpoint>
          <Trackpoint>
            <Time>2021-04-02T10:21:54.000Z</Time>
            <Position>
              <LatitudeDegrees>42.335197515785694122314453125</LatitudeDegrees>
              <LongitudeDegrees>2.60381936095654964447021484375</LongitudeDegrees>
            </Position>
            <AltitudeMeters>795.79998779296875</AltitudeMeters>
            <DistanceMeters>NAN</DistanceMeters>
          </Trackpoint>
          <Trackpoint>
            <Time>2021-04-02T10:21:56.000Z</Time>
            <Position>
              <LatitudeDegrees>42.33515904285013675689697265625</LatitudeDegrees>
              <LongitudeDegrees>2.6037884317338466644287109375</LongitudeDegrees>
            </Position>
            <AltitudeMeters>795.5999755859375</AltitudeMeters>
            <DistanceMeters>NAN</DistanceMeters>
          </Trackpoint>
          <Trackpoint>
            <Time>2021-04-02T10:22:00.000Z</Time>
            <Position>
              <LatitudeDegrees>42.33510204590857028961181640625</LatitudeDegrees>
              <LongitudeDegrees>2.60375884361565113067626953125</LongitudeDegrees>
            </Position>
            <AltitudeMeters>795</AltitudeMeters>
            <DistanceMeters>NAN</DistanceMeters>
          </Trackpoint>
          <Trackpoint>
            <Time>2021-04-02T10:22:05.000Z</Time>
            <Position>
              <LatitudeDegrees>42.33506348915398120880126953125</LatitudeDegrees>
              <LongitudeDegrees>2.60371358133852481842041015625</LongitudeDegrees>
            </Position>
            <AltitudeMeters>794</AltitudeMeters>
            <DistanceMeters>NAN</DistanceMeters>
          </Trackpoint>
          <Trackpoint>
            <Time>2021-04-02T10:22:09.000Z</Time>
            <Position>
              <LatitudeDegrees>42.33502543531358242034912109375</LatitudeDegrees>
              <LongitudeDegrees>2.6036940515041351318359375</LongitudeDegrees>
            </Position>
            <AltitudeMeters>793</AltitudeMeters>
            <DistanceMeters>NAN</DistanceMeters>
          </Trackpoint>
          <Trackpoint>
            <Time>2021-04-02T10:22:12.000Z</Time>
            <Position>
              <LatitudeDegrees>42.33500850386917591094970703125</LatitudeDegrees>
              <LongitudeDegrees>2.60368659161031246185302734375</LongitudeDegrees>
            </Position>
            <AltitudeMeters>792.79998779296875</AltitudeMeters>
            <DistanceMeters>NAN</DistanceMeters>
          </Trackpoint>
          <Trackpoint>
            <Time>2021-04-02T10:22:14.000Z</Time>
            <Position>
              <LatitudeDegrees>42.33500146307051181793212890625</LatitudeDegrees>
              <LongitudeDegrees>2.60366848669946193695068359375</LongitudeDegrees>
            </Position>
            <AltitudeMeters>792.20001220703125</AltitudeMeters>
            <DistanceMeters>NAN</DistanceMeters>
          </Trackpoint>
          <Trackpoint>
            <Time>2021-04-02T10:22:16.000Z</Time>
            <Position>
              <LatitudeDegrees>42.33498654328286647796630859375</LatitudeDegrees>
              <LongitudeDegrees>2.6036633737385272979736328125</LongitudeDegrees>
            </Position>
            <AltitudeMeters>792</AltitudeMeters>
            <DistanceMeters>NAN</DistanceMeters>
          </Trackpoint>
          <Trackpoint>
            <Time>2021-04-02T10:22:17.000Z</Time>
            <Position>
              <LatitudeDegrees>42.33497715555131435394287109375</LatitudeDegrees>
              <LongitudeDegrees>2.60366446338593959808349609375</LongitudeDegrees>
            </Position>
            <AltitudeMeters>791.79998779296875</AltitudeMeters>
            <DistanceMeters>NAN</DistanceMeters>
          </Trackpoint>
          <Trackpoint>
            <Time>2021-04-02T10:22:21.000Z</Time>
            <Position>
              <LatitudeDegrees>42.334940694272518157958984375</LatitudeDegrees>
              <LongitudeDegrees>2.60367217473685741424560546875</LongitudeDegrees>
            </Position>
            <AltitudeMeters>791.20001220703125</AltitudeMeters>
            <DistanceMeters>NAN</DistanceMeters>
          </Trackpoint>
          <Trackpoint>
            <Time>2021-04-02T10:22:26.000Z</Time>
            <Position>
              <LatitudeDegrees>42.33490121550858020782470703125</LatitudeDegrees>
              <LongitudeDegrees>2.60369631461799144744873046875</LongitudeDegrees>
            </Position>
            <AltitudeMeters>790.79998779296875</AltitudeMeters>
            <DistanceMeters>NAN</DistanceMeters>
          </Trackpoint>
          <Trackpoint>
            <Time>2021-04-02T10:22:30.000Z</Time>
            <Position>
              <LatitudeDegrees>42.33488026075065135955810546875</LatitudeDegrees>
              <LongitudeDegrees>2.6037337817251682281494140625</LongitudeDegrees>
            </Position>
            <AltitudeMeters>790</AltitudeMeters>
            <DistanceMeters>NAN</DistanceMeters>
          </Trackpoint>
          <Trackpoint>
            <Time>2021-04-02T10:22:31.000Z</Time>
            <Position>
              <LatitudeDegrees>42.33488269150257110595703125</LatitudeDegrees>
              <LongitudeDegrees>2.60374694131314754486083984375</LongitudeDegrees>
            </Position>
            <AltitudeMeters>789.5999755859375</AltitudeMeters>
            <DistanceMeters>NAN</DistanceMeters>
          </Trackpoint>
          <Trackpoint>
            <Time>2021-04-02T10:22:35.000Z</Time>
            <Position>
              <LatitudeDegrees>42.334874309599399566650390625</LatitudeDegrees>
              <LongitudeDegrees>2.60379798710346221923828125</LongitudeDegrees>
            </Position>
            <AltitudeMeters>788.5999755859375</AltitudeMeters>
            <DistanceMeters>NAN</DistanceMeters>
          </Trackpoint>
          <Trackpoint>
            <Time>2021-04-02T10:22:38.000Z</Time>
            <Position>
              <LatitudeDegrees>42.33487037010490894317626953125</LatitudeDegrees>
              <LongitudeDegrees>2.60384702123701572418212890625</LongitudeDegrees>
            </Position>
            <AltitudeMeters>788.20001220703125</AltitudeMeters>
            <DistanceMeters>NAN</DistanceMeters>
          </Trackpoint>
          <Trackpoint>
            <Time>2021-04-02T10:22:41.000Z</Time>
            <Position>
              <LatitudeDegrees>42.3348677717149257659912109375</LatitudeDegrees>
              <LongitudeDegrees>2.6038992404937744140625</LongitudeDegrees>
            </Position>
            <AltitudeMeters>787.5999755859375</AltitudeMeters>
            <DistanceMeters>NAN</DistanceMeters>
          </Trackpoint>
          <Trackpoint>
            <Time>2021-04-02T10:22:45.000Z</Time>
            <Position>
              <LatitudeDegrees>42.33486550860106945037841796875</LatitudeDegrees>
              <LongitudeDegrees>2.6039676368236541748046875</LongitudeDegrees>
            </Position>
            <AltitudeMeters>787</AltitudeMeters>
            <DistanceMeters>NAN</DistanceMeters>
          </Trackpoint>
          <Trackpoint>
            <Time>2021-04-02T10:22:48.000Z</Time>
            <Position>
              <LatitudeDegrees>42.33485511504113674163818359375</LatitudeDegrees>
              <LongitudeDegrees>2.60401013307273387908935546875</LongitudeDegrees>
            </Position>
            <AltitudeMeters>787</AltitudeMeters>
            <DistanceMeters>NAN</DistanceMeters>
          </Trackpoint>
          <Trackpoint>
            <Time>2021-04-02T10:22:53.000Z</Time>
            <Position>
              <LatitudeDegrees>42.334888391196727752685546875</LatitudeDegrees>
              <LongitudeDegrees>2.60408624075353145599365234375</LongitudeDegrees>
            </Position>
            <AltitudeMeters>786.4000244140625</AltitudeMeters>
            <DistanceMeters>NAN</DistanceMeters>
          </Trackpoint>
          <Trackpoint>
            <Time>2021-04-02T10:22:57.000Z</Time>
            <Position>
              <LatitudeDegrees>42.33490272425115108489990234375</LatitudeDegrees>
              <LongitudeDegrees>2.60415195487439632415771484375</LongitudeDegrees>
            </Position>
            <AltitudeMeters>786</AltitudeMeters>
            <DistanceMeters>NAN</DistanceMeters>
          </Trackpoint>
          <Trackpoint>
            <Time>2021-04-02T10:23:03.000Z</Time>
            <Position>
              <LatitudeDegrees>42.33490691520273685455322265625</LatitudeDegrees>
              <LongitudeDegrees>2.60424247942864894866943359375</LongitudeDegrees>
            </Position>
            <AltitudeMeters>785.20001220703125</AltitudeMeters>
            <DistanceMeters>NAN</DistanceMeters>
          </Trackpoint>
          <Trackpoint>
            <Time>2021-04-02T10:23:06.000Z</Time>
            <Position>
              <LatitudeDegrees>42.3349150456488132476806640625</LatitudeDegrees>
              <LongitudeDegrees>2.60429285466670989990234375</LongitudeDegrees>
            </Position>
            <AltitudeMeters>784.5999755859375</AltitudeMeters>
            <DistanceMeters>NAN</DistanceMeters>
          </Trackpoint>
          <Trackpoint>
            <Time>2021-04-02T10:23:09.000Z</Time>
            <Position>
              <LatitudeDegrees>42.33490875922143459320068359375</LatitudeDegrees>
              <LongitudeDegrees>2.60433719493448734283447265625</LongitudeDegrees>
            </Position>
            <AltitudeMeters>784.20001220703125</AltitudeMeters>
            <DistanceMeters>NAN</DistanceMeters>
          </Trackpoint>
          <Trackpoint>
            <Time>2021-04-02T10:23:10.000Z</Time>
            <Position>
              <LatitudeDegrees>42.3349059931933879852294921875</LatitudeDegrees>
              <LongitudeDegrees>2.604354210197925567626953125</LongitudeDegrees>
            </Position>
            <AltitudeMeters>783.79998779296875</AltitudeMeters>
            <DistanceMeters>NAN</DistanceMeters>
          </Trackpoint>
          <Trackpoint>
            <Time>2021-04-02T10:23:14.000Z</Time>
            <Position>
              <LatitudeDegrees>42.33490993268787860870361328125</LatitudeDegrees>
              <LongitudeDegrees>2.604427970945835113525390625</LongitudeDegrees>
            </Position>
            <AltitudeMeters>782.79998779296875</AltitudeMeters>
            <DistanceMeters>NAN</DistanceMeters>
          </Trackpoint>
          <Trackpoint>
            <Time>2021-04-02T10:23:17.000Z</Time>
            <Position>
              <LatitudeDegrees>42.334918566048145294189453125</LatitudeDegrees>
              <LongitudeDegrees>2.6044734008610248565673828125</LongitudeDegrees>
            </Position>
            <AltitudeMeters>782.20001220703125</AltitudeMeters>
            <DistanceMeters>NAN</DistanceMeters>
          </Trackpoint>
          <Trackpoint>
            <Time>2021-04-02T10:23:18.000Z</Time>
            <Position>
              <LatitudeDegrees>42.3349177278578281402587890625</LatitudeDegrees>
              <LongitudeDegrees>2.604486644268035888671875</LongitudeDegrees>
            </Position>
            <AltitudeMeters>782</AltitudeMeters>
            <DistanceMeters>NAN</DistanceMeters>
          </Trackpoint>
          <Trackpoint>
            <Time>2021-04-02T10:23:19.000Z</Time>
            <Position>
              <LatitudeDegrees>42.33491747640073299407958984375</LatitudeDegrees>
              <LongitudeDegrees>2.6045025698840618133544921875</LongitudeDegrees>
            </Position>
            <AltitudeMeters>782</AltitudeMeters>
            <DistanceMeters>NAN</DistanceMeters>
          </Trackpoint>
          <Trackpoint>
            <Time>2021-04-02T10:23:22.000Z</Time>
            <Position>
              <LatitudeDegrees>42.33492049388587474822998046875</LatitudeDegrees>
              <LongitudeDegrees>2.60454230010509490966796875</LongitudeDegrees>
            </Position>
            <AltitudeMeters>781.5999755859375</AltitudeMeters>
            <DistanceMeters>NAN</DistanceMeters>
          </Trackpoint>
          <Trackpoint>
            <Time>2021-04-02T10:23:23.000Z</Time>
            <Position>
              <LatitudeDegrees>42.33493105508387088775634765625</LatitudeDegrees>
              <LongitudeDegrees>2.6045548729598522186279296875</LongitudeDegrees>
            </Position>
            <AltitudeMeters>781.4000244140625</AltitudeMeters>
            <DistanceMeters>NAN</DistanceMeters>
          </Trackpoint>
          <Trackpoint>
            <Time>2021-04-02T10:23:25.000Z</Time>
            <Position>
              <LatitudeDegrees>42.33493943698704242706298828125</LatitudeDegrees>
              <LongitudeDegrees>2.60458010248839855194091796875</LongitudeDegrees>
            </Position>
            <AltitudeMeters>781</AltitudeMeters>
            <DistanceMeters>NAN</DistanceMeters>
          </Trackpoint>
          <Trackpoint>
            <Time>2021-04-02T10:23:27.000Z</Time>
            <Position>
              <LatitudeDegrees>42.33493843115866184234619140625</LatitudeDegrees>
              <LongitudeDegrees>2.6046098582446575164794921875</LongitudeDegrees>
            </Position>
            <AltitudeMeters>780.79998779296875</AltitudeMeters>
            <DistanceMeters>NAN</DistanceMeters>
          </Trackpoint>
          <Trackpoint>
            <Time>2021-04-02T10:23:28.000Z</Time>
            <Position>
              <LatitudeDegrees>42.33494178391993045806884765625</LatitudeDegrees>
              <LongitudeDegrees>2.60462201200425624847412109375</LongitudeDegrees>
            </Position>
            <AltitudeMeters>780.5999755859375</AltitudeMeters>
            <DistanceMeters>NAN</DistanceMeters>
          </Trackpoint>
          <Trackpoint>
            <Time>2021-04-02T10:23:33.000Z</Time>
            <Position>
              <LatitudeDegrees>42.33495217747986316680908203125</LatitudeDegrees>
              <LongitudeDegrees>2.60467766784131526947021484375</LongitudeDegrees>
            </Position>
            <AltitudeMeters>780</AltitudeMeters>
            <DistanceMeters>NAN</DistanceMeters>
          </Trackpoint>
          <Trackpoint>
            <Time>2021-04-02T10:23:35.000Z</Time>
            <Position>
              <LatitudeDegrees>42.33495913445949554443359375</LatitudeDegrees>
              <LongitudeDegrees>2.60469627566635608673095703125</LongitudeDegrees>
            </Position>
            <AltitudeMeters>779.4000244140625</AltitudeMeters>
            <DistanceMeters>NAN</DistanceMeters>
          </Trackpoint>
          <Trackpoint>
            <Time>2021-04-02T10:23:39.000Z</Time>
            <Position>
              <LatitudeDegrees>42.33496810309588909149169921875</LatitudeDegrees>
              <LongitudeDegrees>2.60474036447703838348388671875</LongitudeDegrees>
            </Position>
            <AltitudeMeters>778.20001220703125</AltitudeMeters>
            <DistanceMeters>NAN</DistanceMeters>
          </Trackpoint>
          <Trackpoint>
            <Time>2021-04-02T10:23:41.000Z</Time>
            <Position>
              <LatitudeDegrees>42.334965504705905914306640625</LatitudeDegrees>
              <LongitudeDegrees>2.60476115159690380096435546875</LongitudeDegrees>
            </Position>
            <AltitudeMeters>778</AltitudeMeters>
            <DistanceMeters>NAN</DistanceMeters>
          </Trackpoint>
          <Trackpoint>
            <Time>2021-04-02T10:23:44.000Z</Time>
            <Position>
              <LatitudeDegrees>42.33496340923011302947998046875</LatitudeDegrees>
              <LongitudeDegrees>2.60479819960892200469970703125</LongitudeDegrees>
            </Position>
            <AltitudeMeters>777.20001220703125</AltitudeMeters>
            <DistanceMeters>NAN</DistanceMeters>
          </Trackpoint>
          <Trackpoint>
            <Time>2021-04-02T10:23:45.000Z</Time>
            <Position>
              <LatitudeDegrees>42.334960810840129852294921875</LatitudeDegrees>
              <LongitudeDegrees>2.604813873767852783203125</LongitudeDegrees>
            </Position>
            <AltitudeMeters>776.79998779296875</AltitudeMeters>
            <DistanceMeters>NAN</DistanceMeters>
          </Trackpoint>
          <Trackpoint>
            <Time>2021-04-02T10:23:47.000Z</Time>
            <Position>
              <LatitudeDegrees>42.33495687134563922882080078125</LatitudeDegrees>
              <LongitudeDegrees>2.6048408634960651397705078125</LongitudeDegrees>
            </Position>
            <AltitudeMeters>776</AltitudeMeters>
            <DistanceMeters>NAN</DistanceMeters>
          </Trackpoint>
          <Trackpoint>
            <Time>2021-04-02T10:23:49.000Z</Time>
            <Position>
              <LatitudeDegrees>42.33495586551725864410400390625</LatitudeDegrees>
              <LongitudeDegrees>2.60486709885299205780029296875</LongitudeDegrees>
            </Position>
            <AltitudeMeters>775.4000244140625</AltitudeMeters>
            <DistanceMeters>NAN</DistanceMeters>
          </Trackpoint>
          <Trackpoint>
            <Time>2021-04-02T10:23:51.000Z</Time>
            <Position>
              <LatitudeDegrees>42.33495519496500492095947265625</LatitudeDegrees>
              <LongitudeDegrees>2.6048911549150943756103515625</LongitudeDegrees>
            </Position>
            <AltitudeMeters>774.79998779296875</AltitudeMeters>
            <DistanceMeters>NAN</DistanceMeters>
          </Trackpoint>
          <Trackpoint>
            <Time>2021-04-02T10:23:56.000Z</Time>
            <Position>
              <LatitudeDegrees>42.33496139757335186004638671875</LatitudeDegrees>
              <LongitudeDegrees>2.60496013797819614410400390625</LongitudeDegrees>
            </Position>
            <AltitudeMeters>774.20001220703125</AltitudeMeters>
            <DistanceMeters>NAN</DistanceMeters>
          </Trackpoint>
          <Trackpoint>
            <Time>2021-04-02T10:23:59.000Z</Time>
            <Position>
              <LatitudeDegrees>42.3349691927433013916015625</LatitudeDegrees>
              <LongitudeDegrees>2.6050165481865406036376953125</LongitudeDegrees>
            </Position>
            <AltitudeMeters>773.79998779296875</AltitudeMeters>
            <DistanceMeters>NAN</DistanceMeters>
          </Trackpoint>
          <Trackpoint>
            <Time>2021-04-02T10:24:04.000Z</Time>
            <Position>
              <LatitudeDegrees>42.3349894769489765167236328125</LatitudeDegrees>
              <LongitudeDegrees>2.60510128922760486602783203125</LongitudeDegrees>
            </Position>
            <AltitudeMeters>773.20001220703125</AltitudeMeters>
            <DistanceMeters>NAN</DistanceMeters>
          </Trackpoint>
          <Trackpoint>
            <Time>2021-04-02T10:24:13.000Z</Time>
            <Position>
              <LatitudeDegrees>42.33497564680874347686767578125</LatitudeDegrees>
              <LongitudeDegrees>2.605232298374176025390625</LongitudeDegrees>
            </Position>
            <AltitudeMeters>773</AltitudeMeters>
            <DistanceMeters>NAN</DistanceMeters>
          </Trackpoint>
          <Trackpoint>
            <Time>2021-04-02T10:24:20.000Z</Time>
            <Position>
              <LatitudeDegrees>42.33493021689355373382568359375</LatitudeDegrees>
              <LongitudeDegrees>2.60531720705330371856689453125</LongitudeDegrees>
            </Position>
            <AltitudeMeters>773</AltitudeMeters>
            <DistanceMeters>NAN</DistanceMeters>
          </Trackpoint>
          <Trackpoint>
            <Time>2021-04-02T10:24:25.000Z</Time>
            <Position>
              <LatitudeDegrees>42.3349120281636714935302734375</LatitudeDegrees>
              <LongitudeDegrees>2.6053773052990436553955078125</LongitudeDegrees>
            </Position>
            <AltitudeMeters>772.79998779296875</AltitudeMeters>
            <DistanceMeters>NAN</DistanceMeters>
          </Trackpoint>
          <Trackpoint>
            <Time>2021-04-02T10:24:28.000Z</Time>
            <Position>
              <LatitudeDegrees>42.334904484450817108154296875</LatitudeDegrees>
              <LongitudeDegrees>2.60541175492107868194580078125</LongitudeDegrees>
            </Position>
            <AltitudeMeters>771.5999755859375</AltitudeMeters>
            <DistanceMeters>NAN</DistanceMeters>
          </Trackpoint>
          <Trackpoint>
            <Time>2021-04-02T10:24:30.000Z</Time>
            <Position>
              <LatitudeDegrees>42.3348919115960597991943359375</LatitudeDegrees>
              <LongitudeDegrees>2.60543069802224636077880859375</LongitudeDegrees>
            </Position>
            <AltitudeMeters>771.20001220703125</AltitudeMeters>
            <DistanceMeters>NAN</DistanceMeters>
          </Trackpoint>
          <Trackpoint>
            <Time>2021-04-02T10:24:32.000Z</Time>
            <Position>
              <LatitudeDegrees>42.33487858437001705169677734375</LatitudeDegrees>
              <LongitudeDegrees>2.60544511489570140838623046875</LongitudeDegrees>
            </Position>
            <AltitudeMeters>770.4000244140625</AltitudeMeters>
            <DistanceMeters>NAN</DistanceMeters>
          </Trackpoint>
          <Trackpoint>
            <Time>2021-04-02T10:24:36.000Z</Time>
            <Position>
              <LatitudeDegrees>42.33484371565282344818115234375</LatitudeDegrees>
              <LongitudeDegrees>2.6054762117564678192138671875</LongitudeDegrees>
            </Position>
            <AltitudeMeters>769.79998779296875</AltitudeMeters>
            <DistanceMeters>NAN</DistanceMeters>
          </Trackpoint>
          <Trackpoint>
            <Time>2021-04-02T10:24:38.000Z</Time>
            <Position>
              <LatitudeDegrees>42.3348270356655120849609375</LatitudeDegrees>
              <LongitudeDegrees>2.6054872758686542510986328125</LongitudeDegrees>
            </Position>
            <AltitudeMeters>769.20001220703125</AltitudeMeters>
            <DistanceMeters>NAN</DistanceMeters>
          </Trackpoint>
          <Trackpoint>
            <Time>2021-04-02T10:24:42.000Z</Time>
            <Position>
              <LatitudeDegrees>42.33479057438671588897705078125</LatitudeDegrees>
              <LongitudeDegrees>2.60550060309469699859619140625</LongitudeDegrees>
            </Position>
            <AltitudeMeters>768</AltitudeMeters>
            <DistanceMeters>NAN</DistanceMeters>
          </Trackpoint>
          <Trackpoint>
            <Time>2021-04-02T10:24:45.000Z</Time>
            <Position>
              <LatitudeDegrees>42.33476945199072360992431640625</LatitudeDegrees>
              <LongitudeDegrees>2.6055130921304225921630859375</LongitudeDegrees>
            </Position>
            <AltitudeMeters>767.79998779296875</AltitudeMeters>
            <DistanceMeters>NAN</DistanceMeters>
          </Trackpoint>
          <Trackpoint>
            <Time>2021-04-02T10:24:49.000Z</Time>
            <Position>
              <LatitudeDegrees>42.33473642729222774505615234375</LatitudeDegrees>
              <LongitudeDegrees>2.6055285148322582244873046875</LongitudeDegrees>
            </Position>
            <AltitudeMeters>767</AltitudeMeters>
            <DistanceMeters>NAN</DistanceMeters>
          </Trackpoint>
          <Trackpoint>
            <Time>2021-04-02T10:24:53.000Z</Time>
            <Position>
              <LatitudeDegrees>42.33469359576702117919921875</LatitudeDegrees>
              <LongitudeDegrees>2.60552876628935337066650390625</LongitudeDegrees>
            </Position>
            <AltitudeMeters>766.20001220703125</AltitudeMeters>
            <DistanceMeters>NAN</DistanceMeters>
          </Trackpoint>
          <Trackpoint>
            <Time>2021-04-02T10:24:55.000Z</Time>
            <Position>
              <LatitudeDegrees>42.33467750251293182373046875</LatitudeDegrees>
              <LongitudeDegrees>2.60553362779319286346435546875</LongitudeDegrees>
            </Position>
            <AltitudeMeters>766</AltitudeMeters>
            <DistanceMeters>NAN</DistanceMeters>
          </Trackpoint>
          <Trackpoint>
            <Time>2021-04-02T10:25:00.000Z</Time>
            <Position>
              <LatitudeDegrees>42.3346280492842197418212890625</LatitudeDegrees>
              <LongitudeDegrees>2.6055392436683177947998046875</LongitudeDegrees>
            </Position>
            <AltitudeMeters>764.5999755859375</AltitudeMeters>
            <DistanceMeters>NAN</DistanceMeters>
          </Trackpoint>
          <Trackpoint>
            <Time>2021-04-02T10:25:02.000Z</Time>
            <Position>
              <LatitudeDegrees>42.334604077041149139404296875</LatitudeDegrees>
              <LongitudeDegrees>2.60555039159953594207763671875</LongitudeDegrees>
            </Position>
            <AltitudeMeters>764</AltitudeMeters>
            <DistanceMeters>NAN</DistanceMeters>
          </Trackpoint>
          <Trackpoint>
            <Time>2021-04-02T10:25:05.000Z</Time>
            <Position>
              <LatitudeDegrees>42.33456795103847980499267578125</LatitudeDegrees>
              <LongitudeDegrees>2.60555659420788288116455078125</LongitudeDegrees>
            </Position>
            <AltitudeMeters>763.5999755859375</AltitudeMeters>
            <DistanceMeters>NAN</DistanceMeters>
          </Trackpoint>
          <Trackpoint>
            <Time>2021-04-02T10:25:07.000Z</Time>
            <Position>
              <LatitudeDegrees>42.33455604873597621917724609375</LatitudeDegrees>
              <LongitudeDegrees>2.6055608689785003662109375</LongitudeDegrees>
            </Position>
            <AltitudeMeters>763.4000244140625</AltitudeMeters>
            <DistanceMeters>NAN</DistanceMeters>
          </Trackpoint>
          <Trackpoint>
            <Time>2021-04-02T10:25:11.000Z</Time>
            <Position>
              <LatitudeDegrees>42.3345267958939075469970703125</LatitudeDegrees>
              <LongitudeDegrees>2.605559192597866058349609375</LongitudeDegrees>
            </Position>
            <AltitudeMeters>762.5999755859375</AltitudeMeters>
            <DistanceMeters>NAN</DistanceMeters>
          </Trackpoint>
          <Trackpoint>
            <Time>2021-04-02T10:25:16.000Z</Time>
            <Position>
              <LatitudeDegrees>42.33447005040943622589111328125</LatitudeDegrees>
              <LongitudeDegrees>2.60556916706264019012451171875</LongitudeDegrees>
            </Position>
            <AltitudeMeters>761.20001220703125</AltitudeMeters>
            <DistanceMeters>NAN</DistanceMeters>
          </Trackpoint>
          <Trackpoint>
            <Time>2021-04-02T10:25:21.000Z</Time>
            <Position>
              <LatitudeDegrees>42.3344228602945804595947265625</LatitudeDegrees>
              <LongitudeDegrees>2.6055747829377651214599609375</LongitudeDegrees>
            </Position>
            <AltitudeMeters>760.4000244140625</AltitudeMeters>
            <DistanceMeters>NAN</DistanceMeters>
          </Trackpoint>
          <Trackpoint>
            <Time>2021-04-02T10:25:23.000Z</Time>
            <Position>
              <LatitudeDegrees>42.334404923021793365478515625</LatitudeDegrees>
              <LongitudeDegrees>2.6055811531841754913330078125</LongitudeDegrees>
            </Position>
            <AltitudeMeters>760</AltitudeMeters>
            <DistanceMeters>NAN</DistanceMeters>
          </Trackpoint>
          <Trackpoint>
            <Time>2021-04-02T10:25:24.000Z</Time>
            <Position>
              <LatitudeDegrees>42.33439855277538299560546875</LatitudeDegrees>
              <LongitudeDegrees>2.60558928363025188446044921875</LongitudeDegrees>
            </Position>
            <AltitudeMeters>760</AltitudeMeters>
            <DistanceMeters>NAN</DistanceMeters>
          </Trackpoint>
          <Trackpoint>
            <Time>2021-04-02T10:25:29.000Z</Time>
            <Position>
              <LatitudeDegrees>42.3343172483146190643310546875</LatitudeDegrees>
              <LongitudeDegrees>2.6055902056396007537841796875</LongitudeDegrees>
            </Position>
            <AltitudeMeters>759.4000244140625</AltitudeMeters>
            <DistanceMeters>NAN</DistanceMeters>
          </Trackpoint>
          <Trackpoint>
            <Time>2021-04-02T10:25:30.000Z</Time>
            <Position>
              <LatitudeDegrees>42.33430643565952777862548828125</LatitudeDegrees>
              <LongitudeDegrees>2.60559028945863246917724609375</LongitudeDegrees>
            </Position>
            <AltitudeMeters>759</AltitudeMeters>
            <DistanceMeters>NAN</DistanceMeters>
          </Trackpoint>
          <Trackpoint>
            <Time>2021-04-02T10:25:31.000Z</Time>
            <Position>
              <LatitudeDegrees>42.33429688028991222381591796875</LatitudeDegrees>
              <LongitudeDegrees>2.60559263639152050018310546875</LongitudeDegrees>
            </Position>
            <AltitudeMeters>758.79998779296875</AltitudeMeters>
            <DistanceMeters>NAN</DistanceMeters>
          </Trackpoint>
          <Trackpoint>
            <Time>2021-04-02T10:25:33.000Z</Time>
            <Position>
              <LatitudeDegrees>42.33428145758807659149169921875</LatitudeDegrees>
              <LongitudeDegrees>2.6055972464382648468017578125</LongitudeDegrees>
            </Position>
            <AltitudeMeters>758.4000244140625</AltitudeMeters>
            <DistanceMeters>NAN</DistanceMeters>
          </Trackpoint>
          <Trackpoint>
            <Time>2021-04-02T10:25:35.000Z</Time>
            <Position>
              <LatitudeDegrees>42.33427475206553936004638671875</LatitudeDegrees>
              <LongitudeDegrees>2.60561116039752960205078125</LongitudeDegrees>
            </Position>
            <AltitudeMeters>758</AltitudeMeters>
            <DistanceMeters>NAN</DistanceMeters>
          </Trackpoint>
          <Trackpoint>
            <Time>2021-04-02T10:25:37.000Z</Time>
            <Position>
              <LatitudeDegrees>42.3342478461563587188720703125</LatitudeDegrees>
              <LongitudeDegrees>2.60561509989202022552490234375</LongitudeDegrees>
            </Position>
            <AltitudeMeters>757.79998779296875</AltitudeMeters>
            <DistanceMeters>NAN</DistanceMeters>
          </Trackpoint>
          <Trackpoint>
            <Time>2021-04-02T10:25:42.000Z</Time>
            <Position>
              <LatitudeDegrees>42.33419596217572689056396484375</LatitudeDegrees>
              <LongitudeDegrees>2.6056337915360927581787109375</LongitudeDegrees>
            </Position>
            <AltitudeMeters>757</AltitudeMeters>
            <DistanceMeters>NAN</DistanceMeters>
          </Trackpoint>
          <Trackpoint>
            <Time>2021-04-02T10:25:47.000Z</Time>
            <Position>
              <LatitudeDegrees>42.33414332382380962371826171875</LatitudeDegrees>
              <LongitudeDegrees>2.60564158670604228973388671875</LongitudeDegrees>
            </Position>
            <AltitudeMeters>756</AltitudeMeters>
            <DistanceMeters>NAN</DistanceMeters>
          </Trackpoint>
          <Trackpoint>
            <Time>2021-04-02T10:25:48.000Z</Time>
            <Position>
              <LatitudeDegrees>42.3341278173029422760009765625</LatitudeDegrees>
              <LongitudeDegrees>2.6056378148496150970458984375</LongitudeDegrees>
            </Position>
            <AltitudeMeters>756</AltitudeMeters>
            <DistanceMeters>NAN</DistanceMeters>
          </Trackpoint>
          <Trackpoint>
            <Time>2021-04-02T10:25:53.000Z</Time>
            <Position>
              <LatitudeDegrees>42.33404542319476604461669921875</LatitudeDegrees>
              <LongitudeDegrees>2.60562381707131862640380859375</LongitudeDegrees>
            </Position>
            <AltitudeMeters>754.79998779296875</AltitudeMeters>
            <DistanceMeters>NAN</DistanceMeters>
          </Trackpoint>
          <Trackpoint>
            <Time>2021-04-02T10:26:02.000Z</Time>
            <Position>
              <LatitudeDegrees>42.3339403979480266571044921875</LatitudeDegrees>
              <LongitudeDegrees>2.60564091615378856658935546875</LongitudeDegrees>
            </Position>
            <AltitudeMeters>754</AltitudeMeters>
            <DistanceMeters>NAN</DistanceMeters>
          </Trackpoint>
          <Trackpoint>
            <Time>2021-04-02T10:26:03.000Z</Time>
            <Position>
              <LatitudeDegrees>42.33393050730228424072265625</LatitudeDegrees>
              <LongitudeDegrees>2.6056438498198986053466796875</LongitudeDegrees>
            </Position>
            <AltitudeMeters>753.79998779296875</AltitudeMeters>
            <DistanceMeters>NAN</DistanceMeters>
          </Trackpoint>
          <Trackpoint>
            <Time>2021-04-02T10:26:09.000Z</Time>
            <Position>
              <LatitudeDegrees>42.3338720016181468963623046875</LatitudeDegrees>
              <LongitudeDegrees>2.605651728808879852294921875</LongitudeDegrees>
            </Position>
            <AltitudeMeters>753</AltitudeMeters>
            <DistanceMeters>NAN</DistanceMeters>
          </Trackpoint>
          <Trackpoint>
            <Time>2021-04-02T10:26:10.000Z</Time>
            <Position>
              <LatitudeDegrees>42.333857752382755279541015625</LatitudeDegrees>
              <LongitudeDegrees>2.6056505553424358367919921875</LongitudeDegrees>
            </Position>
            <AltitudeMeters>753</AltitudeMeters>
            <DistanceMeters>NAN</DistanceMeters>
          </Trackpoint>
          <Trackpoint>
            <Time>2021-04-02T10:26:11.000Z</Time>
            <Position>
              <LatitudeDegrees>42.33384375460445880889892578125</LatitudeDegrees>
              <LongitudeDegrees>2.60564795695245265960693359375</LongitudeDegrees>
            </Position>
            <AltitudeMeters>752.79998779296875</AltitudeMeters>
            <DistanceMeters>NAN</DistanceMeters>
          </Trackpoint>
          <Trackpoint>
            <Time>2021-04-02T10:26:13.000Z</Time>
            <Position>
              <LatitudeDegrees>42.3338274098932743072509765625</LatitudeDegrees>
              <LongitudeDegrees>2.6056498847901821136474609375</LongitudeDegrees>
            </Position>
            <AltitudeMeters>753</AltitudeMeters>
            <DistanceMeters>NAN</DistanceMeters>
          </Trackpoint>
          <Trackpoint>
            <Time>2021-04-02T10:26:15.000Z</Time>
            <Position>
              <LatitudeDegrees>42.333814837038516998291015625</LatitudeDegrees>
              <LongitudeDegrees>2.60567025281488895416259765625</LongitudeDegrees>
            </Position>
            <AltitudeMeters>752.79998779296875</AltitudeMeters>
            <DistanceMeters>NAN</DistanceMeters>
          </Trackpoint>
          <Trackpoint>
            <Time>2021-04-02T10:26:18.000Z</Time>
            <Position>
              <LatitudeDegrees>42.33378407545387744903564453125</LatitudeDegrees>
              <LongitudeDegrees>2.60566622950136661529541015625</LongitudeDegrees>
            </Position>
            <AltitudeMeters>752.5999755859375</AltitudeMeters>
            <DistanceMeters>NAN</DistanceMeters>
          </Trackpoint>
          <Trackpoint>
            <Time>2021-04-02T10:26:21.000Z</Time>
            <Position>
              <LatitudeDegrees>42.33374719507992267608642578125</LatitudeDegrees>
              <LongitudeDegrees>2.60563932359218597412109375</LongitudeDegrees>
            </Position>
            <AltitudeMeters>752.5999755859375</AltitudeMeters>
            <DistanceMeters>NAN</DistanceMeters>
          </Trackpoint>
          <Trackpoint>
            <Time>2021-04-02T10:26:23.000Z</Time>
            <Position>
              <LatitudeDegrees>42.33369288034737110137939453125</LatitudeDegrees>
              <LongitudeDegrees>2.6056143455207347869873046875</LongitudeDegrees>
            </Position>
            <AltitudeMeters>752.20001220703125</AltitudeMeters>
            <DistanceMeters>NAN</DistanceMeters>
          </Trackpoint>
          <Trackpoint>
            <Time>2021-04-02T10:26:28.000Z</Time>
            <Position>
              <LatitudeDegrees>42.333631776273250579833984375</LatitudeDegrees>
              <LongitudeDegrees>2.60562281124293804168701171875</LongitudeDegrees>
            </Position>
            <AltitudeMeters>751.79998779296875</AltitudeMeters>
            <DistanceMeters>NAN</DistanceMeters>
          </Trackpoint>
          <Trackpoint>
            <Time>2021-04-02T10:26:29.000Z</Time>
            <Position>
              <LatitudeDegrees>42.33361677266657352447509765625</LatitudeDegrees>
              <LongitudeDegrees>2.60561845265328884124755859375</LongitudeDegrees>
            </Position>
            <AltitudeMeters>751.5999755859375</AltitudeMeters>
            <DistanceMeters>NAN</DistanceMeters>
          </Trackpoint>
          <Trackpoint>
            <Time>2021-04-02T10:26:35.000Z</Time>
            <Position>
              <LatitudeDegrees>42.33355172909796237945556640625</LatitudeDegrees>
              <LongitudeDegrees>2.6056173630058765411376953125</LongitudeDegrees>
            </Position>
            <AltitudeMeters>750.79998779296875</AltitudeMeters>
            <DistanceMeters>NAN</DistanceMeters>
          </Trackpoint>
          <Trackpoint>
            <Time>2021-04-02T10:26:36.000Z</Time>
            <Position>
              <LatitudeDegrees>42.33354552648961544036865234375</LatitudeDegrees>
              <LongitudeDegrees>2.60561593808233737945556640625</LongitudeDegrees>
            </Position>
            <AltitudeMeters>750.5999755859375</AltitudeMeters>
            <DistanceMeters>NAN</DistanceMeters>
          </Trackpoint>
          <Trackpoint>
            <Time>2021-04-02T10:26:37.000Z</Time>
            <Position>
              <LatitudeDegrees>42.33354317955672740936279296875</LatitudeDegrees>
              <LongitudeDegrees>2.605607807636260986328125</LongitudeDegrees>
            </Position>
            <AltitudeMeters>750.5999755859375</AltitudeMeters>
            <DistanceMeters>NAN</DistanceMeters>
          </Trackpoint>
          <Trackpoint>
            <Time>2021-04-02T10:26:41.000Z</Time>
            <Position>
              <LatitudeDegrees>42.333515770733356475830078125</LatitudeDegrees>
              <LongitudeDegrees>2.6055957376956939697265625</LongitudeDegrees>
            </Position>
            <AltitudeMeters>749.79998779296875</AltitudeMeters>
            <DistanceMeters>NAN</DistanceMeters>
          </Trackpoint>
          <Trackpoint>
            <Time>2021-04-02T10:26:44.000Z</Time>
            <Position>
              <LatitudeDegrees>42.3334658145904541015625</LatitudeDegrees>
              <LongitudeDegrees>2.6055868528783321380615234375</LongitudeDegrees>
            </Position>
            <AltitudeMeters>749.4000244140625</AltitudeMeters>
            <DistanceMeters>NAN</DistanceMeters>
          </Trackpoint>
          <Trackpoint>
            <Time>2021-04-02T10:26:48.000Z</Time>
            <Position>
              <LatitudeDegrees>42.333430610597133636474609375</LatitudeDegrees>
              <LongitudeDegrees>2.60557956062257289886474609375</LongitudeDegrees>
            </Position>
            <AltitudeMeters>748.79998779296875</AltitudeMeters>
            <DistanceMeters>NAN</DistanceMeters>
          </Trackpoint>
          <Trackpoint>
            <Time>2021-04-02T10:26:51.000Z</Time>
            <Position>
              <LatitudeDegrees>42.33340152539312839508056640625</LatitudeDegrees>
              <LongitudeDegrees>2.60555190034210681915283203125</LongitudeDegrees>
            </Position>
            <AltitudeMeters>748.20001220703125</AltitudeMeters>
            <DistanceMeters>NAN</DistanceMeters>
          </Trackpoint>
          <Trackpoint>
            <Time>2021-04-02T10:26:52.000Z</Time>
            <Position>
              <LatitudeDegrees>42.33338945545256137847900390625</LatitudeDegrees>
              <LongitudeDegrees>2.6055415906012058258056640625</LongitudeDegrees>
            </Position>
            <AltitudeMeters>748</AltitudeMeters>
            <DistanceMeters>NAN</DistanceMeters>
          </Trackpoint>
          <Trackpoint>
            <Time>2021-04-02T10:26:56.000Z</Time>
            <Position>
              <LatitudeDegrees>42.3333479650318622589111328125</LatitudeDegrees>
              <LongitudeDegrees>2.605528347194194793701171875</LongitudeDegrees>
            </Position>
            <AltitudeMeters>747.4000244140625</AltitudeMeters>
            <DistanceMeters>NAN</DistanceMeters>
          </Trackpoint>
          <Trackpoint>
            <Time>2021-04-02T10:26:57.000Z</Time>
            <Position>
              <LatitudeDegrees>42.33333849348127841949462890625</LatitudeDegrees>
              <LongitudeDegrees>2.605527341365814208984375</LongitudeDegrees>
            </Position>
            <AltitudeMeters>747</AltitudeMeters>
            <DistanceMeters>NAN</DistanceMeters>
          </Trackpoint>
          <Trackpoint>
            <Time>2021-04-02T10:26:59.000Z</Time>
            <Position>
              <LatitudeDegrees>42.33330748043954372406005859375</LatitudeDegrees>
              <LongitudeDegrees>2.60551854036748409271240234375</LongitudeDegrees>
            </Position>
            <AltitudeMeters>746.79998779296875</AltitudeMeters>
            <DistanceMeters>NAN</DistanceMeters>
          </Trackpoint>
          <Trackpoint>
            <Time>2021-04-02T10:27:02.000Z</Time>
            <Position>
              <LatitudeDegrees>42.333282418549060821533203125</LatitudeDegrees>
              <LongitudeDegrees>2.6055124215781688690185546875</LongitudeDegrees>
            </Position>
            <AltitudeMeters>746</AltitudeMeters>
            <DistanceMeters>NAN</DistanceMeters>
          </Trackpoint>
          <Trackpoint>
            <Time>2021-04-02T10:27:03.000Z</Time>
            <Position>
              <LatitudeDegrees>42.333271689713001251220703125</LatitudeDegrees>
              <LongitudeDegrees>2.60550529696047306060791015625</LongitudeDegrees>
            </Position>
            <AltitudeMeters>745.5999755859375</AltitudeMeters>
            <DistanceMeters>NAN</DistanceMeters>
          </Trackpoint>
          <Trackpoint>
            <Time>2021-04-02T10:27:05.000Z</Time>
            <Position>
              <LatitudeDegrees>42.33324126340448856353759765625</LatitudeDegrees>
              <LongitudeDegrees>2.6054872758686542510986328125</LongitudeDegrees>
            </Position>
            <AltitudeMeters>745.20001220703125</AltitudeMeters>
            <DistanceMeters>NAN</DistanceMeters>
          </Trackpoint>
          <Trackpoint>
            <Time>2021-04-02T10:27:07.000Z</Time>
            <Position>
              <LatitudeDegrees>42.333218716084957122802734375</LatitudeDegrees>
              <LongitudeDegrees>2.6054748706519603729248046875</LongitudeDegrees>
            </Position>
            <AltitudeMeters>744.79998779296875</AltitudeMeters>
            <DistanceMeters>NAN</DistanceMeters>
          </Trackpoint>
          <Trackpoint>
            <Time>2021-04-02T10:27:10.000Z</Time>
            <Position>
              <LatitudeDegrees>42.3331868648529052734375</LatitudeDegrees>
              <LongitudeDegrees>2.605470009148120880126953125</LongitudeDegrees>
            </Position>
            <AltitudeMeters>744</AltitudeMeters>
            <DistanceMeters>NAN</DistanceMeters>
          </Trackpoint>
          <Trackpoint>
            <Time>2021-04-02T10:27:11.000Z</Time>
            <Position>
              <LatitudeDegrees>42.33316917903721332550048828125</LatitudeDegrees>
              <LongitudeDegrees>2.6054669916629791259765625</LongitudeDegrees>
            </Position>
            <AltitudeMeters>743.79998779296875</AltitudeMeters>
            <DistanceMeters>NAN</DistanceMeters>
          </Trackpoint>
          <Trackpoint>
            <Time>2021-04-02T10:27:15.000Z</Time>
            <Position>
              <LatitudeDegrees>42.3331320472061634063720703125</LatitudeDegrees>
              <LongitudeDegrees>2.6054674945771694183349609375</LongitudeDegrees>
            </Position>
            <AltitudeMeters>743.20001220703125</AltitudeMeters>
            <DistanceMeters>NAN</DistanceMeters>
          </Trackpoint>
          <Trackpoint>
            <Time>2021-04-02T10:27:17.000Z</Time>
            <Position>
              <LatitudeDegrees>42.33310027979314327239990234375</LatitudeDegrees>
              <LongitudeDegrees>2.6054554246366024017333984375</LongitudeDegrees>
            </Position>
            <AltitudeMeters>742.5999755859375</AltitudeMeters>
            <DistanceMeters>NAN</DistanceMeters>
          </Trackpoint>
          <Trackpoint>
            <Time>2021-04-02T10:27:20.000Z</Time>
            <Position>
              <LatitudeDegrees>42.33306474052369594573974609375</LatitudeDegrees>
              <LongitudeDegrees>2.60545819066464900970458984375</LongitudeDegrees>
            </Position>
            <AltitudeMeters>742.4000244140625</AltitudeMeters>
            <DistanceMeters>NAN</DistanceMeters>
          </Trackpoint>
          <Trackpoint>
            <Time>2021-04-02T10:27:24.000Z</Time>
            <Position>
              <LatitudeDegrees>42.3330096714198589324951171875</LatitudeDegrees>
              <LongitudeDegrees>2.60545534081757068634033203125</LongitudeDegrees>
            </Position>
            <AltitudeMeters>741.5999755859375</AltitudeMeters>
            <DistanceMeters>NAN</DistanceMeters>
          </Trackpoint>
          <Trackpoint>
            <Time>2021-04-02T10:27:28.000Z</Time>
            <Position>
              <LatitudeDegrees>42.332951165735721588134765625</LatitudeDegrees>
              <LongitudeDegrees>2.60547696612775325775146484375</LongitudeDegrees>
            </Position>
            <AltitudeMeters>740.79998779296875</AltitudeMeters>
            <DistanceMeters>NAN</DistanceMeters>
          </Trackpoint>
          <Trackpoint>
            <Time>2021-04-02T10:27:30.000Z</Time>
            <Position>
              <LatitudeDegrees>42.33292736113071441650390625</LatitudeDegrees>
              <LongitudeDegrees>2.60549641214311122894287109375</LongitudeDegrees>
            </Position>
            <AltitudeMeters>740.4000244140625</AltitudeMeters>
            <DistanceMeters>NAN</DistanceMeters>
          </Trackpoint>
          <Trackpoint>
            <Time>2021-04-02T10:27:33.000Z</Time>
            <Position>
              <LatitudeDegrees>42.33290263451635837554931640625</LatitudeDegrees>
              <LongitudeDegrees>2.60553547181189060211181640625</LongitudeDegrees>
            </Position>
            <AltitudeMeters>740.20001220703125</AltitudeMeters>
            <DistanceMeters>NAN</DistanceMeters>
          </Trackpoint>
          <Trackpoint>
            <Time>2021-04-02T10:27:36.000Z</Time>
            <Position>
              <LatitudeDegrees>42.33287631534039974212646484375</LatitudeDegrees>
              <LongitudeDegrees>2.60555994696915149688720703125</LongitudeDegrees>
            </Position>
            <AltitudeMeters>740</AltitudeMeters>
            <DistanceMeters>NAN</DistanceMeters>
          </Trackpoint>
          <Trackpoint>
            <Time>2021-04-02T10:27:40.000Z</Time>
            <Position>
              <LatitudeDegrees>42.33283457346260547637939453125</LatitudeDegrees>
              <LongitudeDegrees>2.60559104382991790771484375</LongitudeDegrees>
            </Position>
            <AltitudeMeters>739.4000244140625</AltitudeMeters>
            <DistanceMeters>NAN</DistanceMeters>
          </Trackpoint>
          <Trackpoint>
            <Time>2021-04-02T10:27:44.000Z</Time>
            <Position>
              <LatitudeDegrees>42.3327893950045108795166015625</LatitudeDegrees>
              <LongitudeDegrees>2.60562188923358917236328125</LongitudeDegrees>
            </Position>
            <AltitudeMeters>739.20001220703125</AltitudeMeters>
            <DistanceMeters>NAN</DistanceMeters>
          </Trackpoint>
          <Trackpoint>
            <Time>2021-04-02T10:27:47.000Z</Time>
            <Position>
              <LatitudeDegrees>42.3327563703060150146484375</LatitudeDegrees>
              <LongitudeDegrees>2.605645358562469482421875</LongitudeDegrees>
            </Position>
            <AltitudeMeters>738.5999755859375</AltitudeMeters>
            <DistanceMeters>NAN</DistanceMeters>
          </Trackpoint>
          <Trackpoint>
            <Time>2021-04-02T10:27:50.000Z</Time>
            <Position>
              <LatitudeDegrees>42.33273533172905445098876953125</LatitudeDegrees>
              <LongitudeDegrees>2.60568064637482166290283203125</LongitudeDegrees>
            </Position>
            <AltitudeMeters>738.4000244140625</AltitudeMeters>
            <DistanceMeters>NAN</DistanceMeters>
          </Trackpoint>
          <Trackpoint>
            <Time>2021-04-02T10:27:54.000Z</Time>
            <Position>
              <LatitudeDegrees>42.332718484103679656982421875</LatitudeDegrees>
              <LongitudeDegrees>2.6056877709925174713134765625</LongitudeDegrees>
            </Position>
            <AltitudeMeters>738.20001220703125</AltitudeMeters>
            <DistanceMeters>NAN</DistanceMeters>
          </Trackpoint>
          <Trackpoint>
            <Time>2021-04-02T10:27:58.000Z</Time>
            <Position>
              <LatitudeDegrees>42.3327169753611087799072265625</LatitudeDegrees>
              <LongitudeDegrees>2.6056924648582935333251953125</LongitudeDegrees>
            </Position>
            <AltitudeMeters>738.20001220703125</AltitudeMeters>
            <DistanceMeters>NAN</DistanceMeters>
          </Trackpoint>
          <Trackpoint>
            <Time>2021-04-02T10:28:02.000Z</Time>
            <Position>
              <LatitudeDegrees>42.33271571807563304901123046875</LatitudeDegrees>
              <LongitudeDegrees>2.605699338018894195556640625</LongitudeDegrees>
            </Position>
            <AltitudeMeters>738</AltitudeMeters>
            <DistanceMeters>NAN</DistanceMeters>
          </Trackpoint>
          <Trackpoint>
            <Time>2021-04-02T10:28:05.000Z</Time>
            <Position>
              <LatitudeDegrees>42.332705073058605194091796875</LatitudeDegrees>
              <LongitudeDegrees>2.60568316094577312469482421875</LongitudeDegrees>
            </Position>
            <AltitudeMeters>738</AltitudeMeters>
            <DistanceMeters>NAN</DistanceMeters>
          </Trackpoint>
          <Trackpoint>
            <Time>2021-04-02T10:28:12.000Z</Time>
            <Position>
              <LatitudeDegrees>42.33263474889099597930908203125</LatitudeDegrees>
              <LongitudeDegrees>2.60561878792941570281982421875</LongitudeDegrees>
            </Position>
            <AltitudeMeters>737.20001220703125</AltitudeMeters>
            <DistanceMeters>NAN</DistanceMeters>
          </Trackpoint>
          <Trackpoint>
            <Time>2021-04-02T10:28:16.000Z</Time>
            <Position>
              <LatitudeDegrees>42.3326200805604457855224609375</LatitudeDegrees>
              <LongitudeDegrees>2.60558375157415866851806640625</LongitudeDegrees>
            </Position>
            <AltitudeMeters>736.4000244140625</AltitudeMeters>
            <DistanceMeters>NAN</DistanceMeters>
          </Trackpoint>
          <Trackpoint>
            <Time>2021-04-02T10:28:18.000Z</Time>
            <Position>
              <LatitudeDegrees>42.33260625042021274566650390625</LatitudeDegrees>
              <LongitudeDegrees>2.6055838353931903839111328125</LongitudeDegrees>
            </Position>
            <AltitudeMeters>735.79998779296875</AltitudeMeters>
            <DistanceMeters>NAN</DistanceMeters>
          </Trackpoint>
          <Trackpoint>
            <Time>2021-04-02T10:28:20.000Z</Time>
            <Position>
              <LatitudeDegrees>42.33257624320685863494873046875</LatitudeDegrees>
              <LongitudeDegrees>2.605589367449283599853515625</LongitudeDegrees>
            </Position>
            <AltitudeMeters>735.5999755859375</AltitudeMeters>
            <DistanceMeters>NAN</DistanceMeters>
          </Trackpoint>
          <Trackpoint>
            <Time>2021-04-02T10:28:21.000Z</Time>
            <Position>
              <LatitudeDegrees>42.33257138170301914215087890625</LatitudeDegrees>
              <LongitudeDegrees>2.60558458976447582244873046875</LongitudeDegrees>
            </Position>
            <AltitudeMeters>735.5999755859375</AltitudeMeters>
            <DistanceMeters>NAN</DistanceMeters>
          </Trackpoint>
          <Trackpoint>
            <Time>2021-04-02T10:28:23.000Z</Time>
            <Position>
              <LatitudeDegrees>42.33258613385260105133056640625</LatitudeDegrees>
              <LongitudeDegrees>2.60557830333709716796875</LongitudeDegrees>
            </Position>
            <AltitudeMeters>735.5999755859375</AltitudeMeters>
            <DistanceMeters>NAN</DistanceMeters>
          </Trackpoint>
          <Trackpoint>
            <Time>2021-04-02T10:28:30.000Z</Time>
            <Position>
              <LatitudeDegrees>42.33260574750602245330810546875</LatitudeDegrees>
              <LongitudeDegrees>2.60562063194811344146728515625</LongitudeDegrees>
            </Position>
            <AltitudeMeters>735.5999755859375</AltitudeMeters>
            <DistanceMeters>NAN</DistanceMeters>
          </Trackpoint>
          <Trackpoint>
            <Time>2021-04-02T10:28:34.000Z</Time>
            <Position>
              <LatitudeDegrees>42.33264195732772350311279296875</LatitudeDegrees>
              <LongitudeDegrees>2.60560973547399044036865234375</LongitudeDegrees>
            </Position>
            <AltitudeMeters>735.79998779296875</AltitudeMeters>
            <DistanceMeters>NAN</DistanceMeters>
          </Trackpoint>
          <Trackpoint>
            <Time>2021-04-02T10:28:36.000Z</Time>
            <Position>
              <LatitudeDegrees>42.33264497481286525726318359375</LatitudeDegrees>
              <LongitudeDegrees>2.60561292059719562530517578125</LongitudeDegrees>
            </Position>
            <AltitudeMeters>735.5999755859375</AltitudeMeters>
            <DistanceMeters>NAN</DistanceMeters>
          </Trackpoint>
          <Trackpoint>
            <Time>2021-04-02T10:28:39.000Z</Time>
            <Position>
              <LatitudeDegrees>42.33266048133373260498046875</LatitudeDegrees>
              <LongitudeDegrees>2.605628930032253265380859375</LongitudeDegrees>
            </Position>
            <AltitudeMeters>735.4000244140625</AltitudeMeters>
            <DistanceMeters>NAN</DistanceMeters>
          </Trackpoint>
          <Trackpoint>
            <Time>2021-04-02T10:28:42.000Z</Time>
            <Position>
              <LatitudeDegrees>42.33266894705593585968017578125</LatitudeDegrees>
              <LongitudeDegrees>2.6056498847901821136474609375</LongitudeDegrees>
            </Position>
            <AltitudeMeters>735.20001220703125</AltitudeMeters>
            <DistanceMeters>NAN</DistanceMeters>
          </Trackpoint>
          <Trackpoint>
            <Time>2021-04-02T10:28:47.000Z</Time>
            <Position>
              <LatitudeDegrees>42.33266190625727176666259765625</LatitudeDegrees>
              <LongitudeDegrees>2.60565139353275299072265625</LongitudeDegrees>
            </Position>
            <AltitudeMeters>735.79998779296875</AltitudeMeters>
            <DistanceMeters>NAN</DistanceMeters>
          </Trackpoint>
          <Trackpoint>
            <Time>2021-04-02T10:28:49.000Z</Time>
            <Position>
              <LatitudeDegrees>42.3326599784195423126220703125</LatitudeDegrees>
              <LongitudeDegrees>2.60564879514276981353759765625</LongitudeDegrees>
            </Position>
            <AltitudeMeters>736</AltitudeMeters>
            <DistanceMeters>NAN</DistanceMeters>
          </Trackpoint>
          <Trackpoint>
            <Time>2021-04-02T10:28:50.000Z</Time>
            <Position>
              <LatitudeDegrees>42.3326599784195423126220703125</LatitudeDegrees>
              <LongitudeDegrees>2.60564879514276981353759765625</LongitudeDegrees>
            </Position>
            <AltitudeMeters>736</AltitudeMeters>
            <DistanceMeters>NAN</DistanceMeters>
          </Trackpoint>
          <Trackpoint>
            <Time>2021-04-02T10:29:00.000Z</Time>
            <Position>
              <LatitudeDegrees>42.3326599784195423126220703125</LatitudeDegrees>
              <LongitudeDegrees>2.60564879514276981353759765625</LongitudeDegrees>
            </Position>
            <AltitudeMeters>736</AltitudeMeters>
            <DistanceMeters>NAN</DistanceMeters>
          </Trackpoint>
          <Trackpoint>
            <Time>2021-04-02T10:29:09.000Z</Time>
            <Position>
              <LatitudeDegrees>42.33261982910335063934326171875</LatitudeDegrees>
              <LongitudeDegrees>2.60567259974777698516845703125</LongitudeDegrees>
            </Position>
            <AltitudeMeters>736.5999755859375</AltitudeMeters>
            <DistanceMeters>NAN</DistanceMeters>
          </Trackpoint>
          <Trackpoint>
            <Time>2021-04-02T10:29:11.000Z</Time>
            <Position>
              <LatitudeDegrees>42.332605160772800445556640625</LatitudeDegrees>
              <LongitudeDegrees>2.60567846707999706268310546875</LongitudeDegrees>
            </Position>
            <AltitudeMeters>736.5999755859375</AltitudeMeters>
            <DistanceMeters>NAN</DistanceMeters>
          </Trackpoint>
          <Trackpoint>
            <Time>2021-04-02T10:29:14.000Z</Time>
            <Position>
              <LatitudeDegrees>42.33257607556879520416259765625</LatitudeDegrees>
              <LongitudeDegrees>2.60567612014710903167724609375</LongitudeDegrees>
            </Position>
            <AltitudeMeters>736.5999755859375</AltitudeMeters>
            <DistanceMeters>NAN</DistanceMeters>
          </Trackpoint>
          <Trackpoint>
            <Time>2021-04-02T10:29:17.000Z</Time>
            <Position>
              <LatitudeDegrees>42.3325607366859912872314453125</LatitudeDegrees>
              <LongitudeDegrees>2.60569305159151554107666015625</LongitudeDegrees>
            </Position>
            <AltitudeMeters>736.4000244140625</AltitudeMeters>
            <DistanceMeters>NAN</DistanceMeters>
          </Trackpoint>
          <Trackpoint>
            <Time>2021-04-02T10:29:18.000Z</Time>
            <Position>
              <LatitudeDegrees>42.33256165869534015655517578125</LatitudeDegrees>
              <LongitudeDegrees>2.6056948117911815643310546875</LongitudeDegrees>
            </Position>
            <AltitudeMeters>736.4000244140625</AltitudeMeters>
            <DistanceMeters>NAN</DistanceMeters>
          </Trackpoint>
          <Trackpoint>
            <Time>2021-04-02T10:29:26.000Z</Time>
            <Position>
              <LatitudeDegrees>42.3325476609170436859130859375</LatitudeDegrees>
              <LongitudeDegrees>2.60569388978183269500732421875</LongitudeDegrees>
            </Position>
            <AltitudeMeters>736.4000244140625</AltitudeMeters>
            <DistanceMeters>NAN</DistanceMeters>
          </Trackpoint>
          <Trackpoint>
            <Time>2021-04-02T10:29:33.000Z</Time>
            <Position>
              <LatitudeDegrees>42.3325476609170436859130859375</LatitudeDegrees>
              <LongitudeDegrees>2.60569388978183269500732421875</LongitudeDegrees>
            </Position>
            <AltitudeMeters>736.20001220703125</AltitudeMeters>
            <DistanceMeters>NAN</DistanceMeters>
          </Trackpoint>
          <Trackpoint>
            <Time>2021-04-02T10:29:40.000Z</Time>
            <Position>
              <LatitudeDegrees>42.33255847357213497161865234375</LatitudeDegrees>
              <LongitudeDegrees>2.6056917943060398101806640625</LongitudeDegrees>
            </Position>
            <AltitudeMeters>736.4000244140625</AltitudeMeters>
            <DistanceMeters>NAN</DistanceMeters>
          </Trackpoint>
          <Trackpoint>
            <Time>2021-04-02T10:30:02.000Z</Time>
            <Position>
              <LatitudeDegrees>42.332585044205188751220703125</LatitudeDegrees>
              <LongitudeDegrees>2.60570528917014598846435546875</LongitudeDegrees>
            </Position>
            <AltitudeMeters>736</AltitudeMeters>
            <DistanceMeters>NAN</DistanceMeters>
          </Trackpoint>
          <Trackpoint>
            <Time>2021-04-02T10:30:30.000Z</Time>
            <Position>
              <LatitudeDegrees>42.3325825296342372894287109375</LatitudeDegrees>
              <LongitudeDegrees>2.60571031831204891204833984375</LongitudeDegrees>
            </Position>
            <AltitudeMeters>735.79998779296875</AltitudeMeters>
            <DistanceMeters>NAN</DistanceMeters>
          </Trackpoint>
          <Trackpoint>
            <Time>2021-04-02T10:30:34.000Z</Time>
            <Position>
              <LatitudeDegrees>42.33259988017380237579345703125</LatitudeDegrees>
              <LongitudeDegrees>2.60571668855845928192138671875</LongitudeDegrees>
            </Position>
            <AltitudeMeters>735.79998779296875</AltitudeMeters>
            <DistanceMeters>NAN</DistanceMeters>
          </Trackpoint>
          <Trackpoint>
            <Time>2021-04-02T10:30:35.000Z</Time>
            <Position>
              <LatitudeDegrees>42.33260893262922763824462890625</LatitudeDegrees>
              <LongitudeDegrees>2.6057135872542858123779296875</LongitudeDegrees>
            </Position>
            <AltitudeMeters>735.79998779296875</AltitudeMeters>
            <DistanceMeters>NAN</DistanceMeters>
          </Trackpoint>
          <Trackpoint>
            <Time>2021-04-02T10:30:42.000Z</Time>
            <Position>
              <LatitudeDegrees>42.3326418735086917877197265625</LatitudeDegrees>
              <LongitudeDegrees>2.60566388256847858428955078125</LongitudeDegrees>
            </Position>
            <AltitudeMeters>735.79998779296875</AltitudeMeters>
            <DistanceMeters>NAN</DistanceMeters>
          </Trackpoint>
          <Trackpoint>
            <Time>2021-04-02T10:30:45.000Z</Time>
            <Position>
              <LatitudeDegrees>42.33264975249767303466796875</LatitudeDegrees>
              <LongitudeDegrees>2.6056306064128875732421875</LongitudeDegrees>
            </Position>
            <AltitudeMeters>735.79998779296875</AltitudeMeters>
            <DistanceMeters>NAN</DistanceMeters>
          </Trackpoint>
          <Trackpoint>
            <Time>2021-04-02T10:30:47.000Z</Time>
            <Position>
              <LatitudeDegrees>42.33265184797346591949462890625</LatitudeDegrees>
              <LongitudeDegrees>2.60561191476881504058837890625</LongitudeDegrees>
            </Position>
            <AltitudeMeters>735.5999755859375</AltitudeMeters>
            <DistanceMeters>NAN</DistanceMeters>
          </Trackpoint>
          <Trackpoint>
            <Time>2021-04-02T10:30:53.000Z</Time>
            <Position>
              <LatitudeDegrees>42.33266022987663745880126953125</LatitudeDegrees>
              <LongitudeDegrees>2.60554687120020389556884765625</LongitudeDegrees>
            </Position>
            <AltitudeMeters>735.20001220703125</AltitudeMeters>
            <DistanceMeters>NAN</DistanceMeters>
          </Trackpoint>
          <Trackpoint>
            <Time>2021-04-02T10:30:56.000Z</Time>
            <Position>
              <LatitudeDegrees>42.33267062343657016754150390625</LatitudeDegrees>
              <LongitudeDegrees>2.60549959726631641387939453125</LongitudeDegrees>
            </Position>
            <AltitudeMeters>734.79998779296875</AltitudeMeters>
            <DistanceMeters>NAN</DistanceMeters>
          </Trackpoint>
          <Trackpoint>
            <Time>2021-04-02T10:31:01.000Z</Time>
            <Position>
              <LatitudeDegrees>42.33268084935843944549560546875</LatitudeDegrees>
              <LongitudeDegrees>2.60544444434344768524169921875</LongitudeDegrees>
            </Position>
            <AltitudeMeters>734</AltitudeMeters>
            <DistanceMeters>NAN</DistanceMeters>
          </Trackpoint>
          <Trackpoint>
            <Time>2021-04-02T10:31:03.000Z</Time>
            <Position>
              <LatitudeDegrees>42.33268462121486663818359375</LatitudeDegrees>
              <LongitudeDegrees>2.605431787669658660888671875</LongitudeDegrees>
            </Position>
            <AltitudeMeters>733.5999755859375</AltitudeMeters>
            <DistanceMeters>NAN</DistanceMeters>
          </Trackpoint>
          <Trackpoint>
            <Time>2021-04-02T10:31:08.000Z</Time>
            <Position>
              <LatitudeDegrees>42.3326700367033481597900390625</LatitudeDegrees>
              <LongitudeDegrees>2.60539616458117961883544921875</LongitudeDegrees>
            </Position>
            <AltitudeMeters>733.20001220703125</AltitudeMeters>
            <DistanceMeters>NAN</DistanceMeters>
          </Trackpoint>
          <Trackpoint>
            <Time>2021-04-02T10:31:16.000Z</Time>
            <Position>
              <LatitudeDegrees>42.33267179690301418304443359375</LatitudeDegrees>
              <LongitudeDegrees>2.605394236743450164794921875</LongitudeDegrees>
            </Position>
            <AltitudeMeters>733.4000244140625</AltitudeMeters>
            <DistanceMeters>NAN</DistanceMeters>
          </Trackpoint>
          <Trackpoint>
            <Time>2021-04-02T10:31:35.000Z</Time>
            <Position>
              <LatitudeDegrees>42.33267389237880706787109375</LatitudeDegrees>
              <LongitudeDegrees>2.60539784096181392669677734375</LongitudeDegrees>
            </Position>
            <AltitudeMeters>733.79998779296875</AltitudeMeters>
            <DistanceMeters>NAN</DistanceMeters>
          </Trackpoint>
          <Trackpoint>
            <Time>2021-04-02T10:31:46.000Z</Time>
            <Position>
              <LatitudeDegrees>42.33268889598548412322998046875</LatitudeDegrees>
              <LongitudeDegrees>2.6054068095982074737548828125</LongitudeDegrees>
            </Position>
            <AltitudeMeters>733.20001220703125</AltitudeMeters>
            <DistanceMeters>NAN</DistanceMeters>
          </Trackpoint>
          <Trackpoint>
            <Time>2021-04-02T10:31:49.000Z</Time>
            <Position>
              <LatitudeDegrees>42.33268956653773784637451171875</LatitudeDegrees>
              <LongitudeDegrees>2.6054068095982074737548828125</LongitudeDegrees>
            </Position>
            <AltitudeMeters>732.5999755859375</AltitudeMeters>
            <DistanceMeters>NAN</DistanceMeters>
          </Trackpoint>
          <Trackpoint>
            <Time>2021-04-02T10:32:06.000Z</Time>
            <Position>
              <LatitudeDegrees>42.33267649076879024505615234375</LatitudeDegrees>
              <LongitudeDegrees>2.60537688620388507843017578125</LongitudeDegrees>
            </Position>
            <AltitudeMeters>732.4000244140625</AltitudeMeters>
            <DistanceMeters>NAN</DistanceMeters>
          </Trackpoint>
          <Trackpoint>
            <Time>2021-04-02T10:32:18.000Z</Time>
            <Position>
              <LatitudeDegrees>42.33266978524625301361083984375</LatitudeDegrees>
              <LongitudeDegrees>2.6053682528436183929443359375</LongitudeDegrees>
            </Position>
            <AltitudeMeters>732</AltitudeMeters>
            <DistanceMeters>NAN</DistanceMeters>
          </Trackpoint>
          <Trackpoint>
            <Time>2021-04-02T10:32:22.000Z</Time>
            <Position>
              <LatitudeDegrees>42.3326717130839824676513671875</LatitudeDegrees>
              <LongitudeDegrees>2.60536179877817630767822265625</LongitudeDegrees>
            </Position>
            <AltitudeMeters>731.4000244140625</AltitudeMeters>
            <DistanceMeters>NAN</DistanceMeters>
          </Trackpoint>
          <Trackpoint>
            <Time>2021-04-02T10:32:26.000Z</Time>
            <Position>
              <LatitudeDegrees>42.3326941765844821929931640625</LatitudeDegrees>
              <LongitudeDegrees>2.6053022034466266632080078125</LongitudeDegrees>
            </Position>
            <AltitudeMeters>730.5999755859375</AltitudeMeters>
            <DistanceMeters>NAN</DistanceMeters>
          </Trackpoint>
          <Trackpoint>
            <Time>2021-04-02T10:32:27.000Z</Time>
            <Position>
              <LatitudeDegrees>42.33269694261252880096435546875</LatitudeDegrees>
              <LongitudeDegrees>2.605285607278347015380859375</LongitudeDegrees>
            </Position>
            <AltitudeMeters>730.4000244140625</AltitudeMeters>
            <DistanceMeters>NAN</DistanceMeters>
          </Trackpoint>
          <Trackpoint>
            <Time>2021-04-02T10:32:28.000Z</Time>
            <Position>
              <LatitudeDegrees>42.33270700089633464813232421875</LatitudeDegrees>
              <LongitudeDegrees>2.60527060367166996002197265625</LongitudeDegrees>
            </Position>
            <AltitudeMeters>730.20001220703125</AltitudeMeters>
            <DistanceMeters>NAN</DistanceMeters>
          </Trackpoint>
          <Trackpoint>
            <Time>2021-04-02T10:32:32.000Z</Time>
            <Position>
              <LatitudeDegrees>42.3327320627868175506591796875</LatitudeDegrees>
              <LongitudeDegrees>2.6052130199968814849853515625</LongitudeDegrees>
            </Position>
            <AltitudeMeters>729.5999755859375</AltitudeMeters>
            <DistanceMeters>NAN</DistanceMeters>
          </Trackpoint>
          <Trackpoint>
            <Time>2021-04-02T10:32:34.000Z</Time>
            <Position>
              <LatitudeDegrees>42.3327364213764667510986328125</LatitudeDegrees>
              <LongitudeDegrees>2.60518711991608142852783203125</LongitudeDegrees>
            </Position>
            <AltitudeMeters>729.20001220703125</AltitudeMeters>
            <DistanceMeters>NAN</DistanceMeters>
          </Trackpoint>
          <Trackpoint>
            <Time>2021-04-02T10:32:40.000Z</Time>
            <Position>
              <LatitudeDegrees>42.33275645412504673004150390625</LatitudeDegrees>
              <LongitudeDegrees>2.605131380259990692138671875</LongitudeDegrees>
            </Position>
            <AltitudeMeters>728</AltitudeMeters>
            <DistanceMeters>NAN</DistanceMeters>
          </Trackpoint>
          <Trackpoint>
            <Time>2021-04-02T10:32:43.000Z</Time>
            <Position>
              <LatitudeDegrees>42.332766093313694000244140625</LatitudeDegrees>
              <LongitudeDegrees>2.60510128922760486602783203125</LongitudeDegrees>
            </Position>
            <AltitudeMeters>727.5999755859375</AltitudeMeters>
            <DistanceMeters>NAN</DistanceMeters>
          </Trackpoint>
          <Trackpoint>
            <Time>2021-04-02T10:32:47.000Z</Time>
            <Position>
              <LatitudeDegrees>42.33278193511068820953369140625</LatitudeDegrees>
              <LongitudeDegrees>2.60504781268537044525146484375</LongitudeDegrees>
            </Position>
            <AltitudeMeters>727</AltitudeMeters>
            <DistanceMeters>NAN</DistanceMeters>
          </Trackpoint>
          <Trackpoint>
            <Time>2021-04-02T10:32:50.000Z</Time>
            <Position>
              <LatitudeDegrees>42.33279853127896785736083984375</LatitudeDegrees>
              <LongitudeDegrees>2.60501495562493801116943359375</LongitudeDegrees>
            </Position>
            <AltitudeMeters>726.4000244140625</AltitudeMeters>
            <DistanceMeters>NAN</DistanceMeters>
          </Trackpoint>
          <Trackpoint>
            <Time>2021-04-02T10:32:52.000Z</Time>
            <Position>
              <LatitudeDegrees>42.33281202614307403564453125</LatitudeDegrees>
              <LongitudeDegrees>2.60500095784664154052734375</LongitudeDegrees>
            </Position>
            <AltitudeMeters>725.79998779296875</AltitudeMeters>
            <DistanceMeters>NAN</DistanceMeters>
          </Trackpoint>
          <Trackpoint>
            <Time>2021-04-02T10:32:58.000Z</Time>
            <Position>
              <LatitudeDegrees>42.33286173082888126373291015625</LatitudeDegrees>
              <LongitudeDegrees>2.60497413575649261474609375</LongitudeDegrees>
            </Position>
            <AltitudeMeters>724.5999755859375</AltitudeMeters>
            <DistanceMeters>NAN</DistanceMeters>
          </Trackpoint>
          <Trackpoint>
            <Time>2021-04-02T10:33:02.000Z</Time>
            <Position>
              <LatitudeDegrees>42.33287178911268711090087890625</LatitudeDegrees>
              <LongitudeDegrees>2.6049293763935565948486328125</LongitudeDegrees>
            </Position>
            <AltitudeMeters>723.4000244140625</AltitudeMeters>
            <DistanceMeters>NAN</DistanceMeters>
          </Trackpoint>
          <Trackpoint>
            <Time>2021-04-02T10:33:05.000Z</Time>
            <Position>
              <LatitudeDegrees>42.332861311733722686767578125</LatitudeDegrees>
              <LongitudeDegrees>2.6048961840569972991943359375</LongitudeDegrees>
            </Position>
            <AltitudeMeters>722.79998779296875</AltitudeMeters>
            <DistanceMeters>NAN</DistanceMeters>
          </Trackpoint>
          <Trackpoint>
            <Time>2021-04-02T10:33:07.000Z</Time>
            <Position>
              <LatitudeDegrees>42.3328440450131893157958984375</LatitudeDegrees>
              <LongitudeDegrees>2.6048753969371318817138671875</LongitudeDegrees>
            </Position>
            <AltitudeMeters>722.4000244140625</AltitudeMeters>
            <DistanceMeters>NAN</DistanceMeters>
          </Trackpoint>
          <Trackpoint>
            <Time>2021-04-02T10:33:14.000Z</Time>
            <Position>
              <LatitudeDegrees>42.3327840305864810943603515625</LatitudeDegrees>
              <LongitudeDegrees>2.60482669807970523834228515625</LongitudeDegrees>
            </Position>
            <AltitudeMeters>721.4000244140625</AltitudeMeters>
            <DistanceMeters>NAN</DistanceMeters>
          </Trackpoint>
          <Trackpoint>
            <Time>2021-04-02T10:33:15.000Z</Time>
            <Position>
              <LatitudeDegrees>42.3327759839594364166259765625</LatitudeDegrees>
              <LongitudeDegrees>2.6048217527568340301513671875</LongitudeDegrees>
            </Position>
            <AltitudeMeters>721.20001220703125</AltitudeMeters>
            <DistanceMeters>NAN</DistanceMeters>
          </Trackpoint>
          <Trackpoint>
            <Time>2021-04-02T10:33:17.000Z</Time>
            <Position>
              <LatitudeDegrees>42.33275628648698329925537109375</LatitudeDegrees>
              <LongitudeDegrees>2.60481052100658416748046875</LongitudeDegrees>
            </Position>
            <AltitudeMeters>720.79998779296875</AltitudeMeters>
            <DistanceMeters>NAN</DistanceMeters>
          </Trackpoint>
          <Trackpoint>
            <Time>2021-04-02T10:33:21.000Z</Time>
            <Position>
              <LatitudeDegrees>42.33271001838147640228271484375</LatitudeDegrees>
              <LongitudeDegrees>2.6048127003014087677001953125</LongitudeDegrees>
            </Position>
            <AltitudeMeters>720.4000244140625</AltitudeMeters>
            <DistanceMeters>NAN</DistanceMeters>
          </Trackpoint>
          <Trackpoint>
            <Time>2021-04-02T10:33:24.000Z</Time>
            <Position>
              <LatitudeDegrees>42.33268554322421550750732421875</LatitudeDegrees>
              <LongitudeDegrees>2.60480088181793689727783203125</LongitudeDegrees>
            </Position>
            <AltitudeMeters>720</AltitudeMeters>
            <DistanceMeters>NAN</DistanceMeters>
          </Trackpoint>
          <Trackpoint>
            <Time>2021-04-02T10:33:26.000Z</Time>
            <Position>
              <LatitudeDegrees>42.33267464675009250640869140625</LatitudeDegrees>
              <LongitudeDegrees>2.6047883927822113037109375</LongitudeDegrees>
            </Position>
            <AltitudeMeters>719.4000244140625</AltitudeMeters>
            <DistanceMeters>NAN</DistanceMeters>
          </Trackpoint>
          <Trackpoint>
            <Time>2021-04-02T10:33:27.000Z</Time>
            <Position>
              <LatitudeDegrees>42.33266852796077728271484375</LatitudeDegrees>
              <LongitudeDegrees>2.6047785021364688873291015625</LongitudeDegrees>
            </Position>
            <AltitudeMeters>718.79998779296875</AltitudeMeters>
            <DistanceMeters>NAN</DistanceMeters>
          </Trackpoint>
          <Trackpoint>
            <Time>2021-04-02T10:33:29.000Z</Time>
            <Position>
              <LatitudeDegrees>42.33266123570501804351806640625</LatitudeDegrees>
              <LongitudeDegrees>2.604752518236637115478515625</LongitudeDegrees>
            </Position>
            <AltitudeMeters>718.4000244140625</AltitudeMeters>
            <DistanceMeters>NAN</DistanceMeters>
          </Trackpoint>
          <Trackpoint>
            <Time>2021-04-02T10:33:33.000Z</Time>
            <Position>
              <LatitudeDegrees>42.3326395265758037567138671875</LatitudeDegrees>
              <LongitudeDegrees>2.60470801033079624176025390625</LongitudeDegrees>
            </Position>
            <AltitudeMeters>717.79998779296875</AltitudeMeters>
            <DistanceMeters>NAN</DistanceMeters>
          </Trackpoint>
          <Trackpoint>
            <Time>2021-04-02T10:33:35.000Z</Time>
            <Position>
              <LatitudeDegrees>42.3326361738145351409912109375</LatitudeDegrees>
              <LongitudeDegrees>2.60468982160091400146484375</LongitudeDegrees>
            </Position>
            <AltitudeMeters>717.5999755859375</AltitudeMeters>
            <DistanceMeters>NAN</DistanceMeters>
          </Trackpoint>
          <Trackpoint>
            <Time>2021-04-02T10:33:38.000Z</Time>
            <Position>
              <LatitudeDegrees>42.3326331563293933868408203125</LatitudeDegrees>
              <LongitudeDegrees>2.604649923741817474365234375</LongitudeDegrees>
            </Position>
            <AltitudeMeters>716.79998779296875</AltitudeMeters>
            <DistanceMeters>NAN</DistanceMeters>
          </Trackpoint>
          <Trackpoint>
            <Time>2021-04-02T10:33:41.000Z</Time>
            <Position>
              <LatitudeDegrees>42.332633323967456817626953125</LatitudeDegrees>
              <LongitudeDegrees>2.60461530648171901702880859375</LongitudeDegrees>
            </Position>
            <AltitudeMeters>715.79998779296875</AltitudeMeters>
            <DistanceMeters>NAN</DistanceMeters>
          </Trackpoint>
          <Trackpoint>
            <Time>2021-04-02T10:33:42.000Z</Time>
            <Position>
              <LatitudeDegrees>42.3326368443667888641357421875</LatitudeDegrees>
              <LongitudeDegrees>2.6046041585505008697509765625</LongitudeDegrees>
            </Position>
            <AltitudeMeters>715.79998779296875</AltitudeMeters>
            <DistanceMeters>NAN</DistanceMeters>
          </Trackpoint>
          <Trackpoint>
            <Time>2021-04-02T10:33:47.000Z</Time>
            <Position>
              <LatitudeDegrees>42.33263927511870861053466796875</LatitudeDegrees>
              <LongitudeDegrees>2.604525201022624969482421875</LongitudeDegrees>
            </Position>
            <AltitudeMeters>714.5999755859375</AltitudeMeters>
            <DistanceMeters>NAN</DistanceMeters>
          </Trackpoint>
          <Trackpoint>
            <Time>2021-04-02T10:33:51.000Z</Time>
            <Position>
              <LatitudeDegrees>42.33263592235743999481201171875</LatitudeDegrees>
              <LongitudeDegrees>2.60447599925100803375244140625</LongitudeDegrees>
            </Position>
            <AltitudeMeters>713.4000244140625</AltitudeMeters>
            <DistanceMeters>NAN</DistanceMeters>
          </Trackpoint>
          <Trackpoint>
            <Time>2021-04-02T10:33:58.000Z</Time>
            <Position>
              <LatitudeDegrees>42.33261563815176486968994140625</LatitudeDegrees>
              <LongitudeDegrees>2.60437658987939357757568359375</LongitudeDegrees>
            </Position>
            <AltitudeMeters>712.4000244140625</AltitudeMeters>
            <DistanceMeters>NAN</DistanceMeters>
          </Trackpoint>
          <Trackpoint>
            <Time>2021-04-02T10:34:03.000Z</Time>
            <Position>
              <LatitudeDegrees>42.332582361996173858642578125</LatitudeDegrees>
              <LongitudeDegrees>2.60431540198624134063720703125</LongitudeDegrees>
            </Position>
            <AltitudeMeters>711.79998779296875</AltitudeMeters>
            <DistanceMeters>NAN</DistanceMeters>
          </Trackpoint>
          <Trackpoint>
            <Time>2021-04-02T10:34:07.000Z</Time>
            <Position>
              <LatitudeDegrees>42.332552187144756317138671875</LatitudeDegrees>
              <LongitudeDegrees>2.60426812805235385894775390625</LongitudeDegrees>
            </Position>
            <AltitudeMeters>711.4000244140625</AltitudeMeters>
            <DistanceMeters>NAN</DistanceMeters>
          </Trackpoint>
          <Trackpoint>
            <Time>2021-04-02T10:34:11.000Z</Time>
            <Position>
              <LatitudeDegrees>42.33252796344459056854248046875</LatitudeDegrees>
              <LongitudeDegrees>2.6042031683027744293212890625</LongitudeDegrees>
            </Position>
            <AltitudeMeters>710.79998779296875</AltitudeMeters>
            <DistanceMeters>NAN</DistanceMeters>
          </Trackpoint>
          <Trackpoint>
            <Time>2021-04-02T10:34:15.000Z</Time>
            <Position>
              <LatitudeDegrees>42.332514636218547821044921875</LatitudeDegrees>
              <LongitudeDegrees>2.60415296070277690887451171875</LongitudeDegrees>
            </Position>
            <AltitudeMeters>710.4000244140625</AltitudeMeters>
            <DistanceMeters>NAN</DistanceMeters>
          </Trackpoint>
          <Trackpoint>
            <Time>2021-04-02T10:34:20.000Z</Time>
            <Position>
              <LatitudeDegrees>42.33249929733574390411376953125</LatitudeDegrees>
              <LongitudeDegrees>2.60408925823867321014404296875</LongitudeDegrees>
            </Position>
            <AltitudeMeters>710.20001220703125</AltitudeMeters>
            <DistanceMeters>NAN</DistanceMeters>
          </Trackpoint>
          <Trackpoint>
            <Time>2021-04-02T10:34:32.000Z</Time>
            <Position>
              <LatitudeDegrees>42.33244967646896839141845703125</LatitudeDegrees>
              <LongitudeDegrees>2.6039917767047882080078125</LongitudeDegrees>
            </Position>
            <AltitudeMeters>709.4000244140625</AltitudeMeters>
            <DistanceMeters>NAN</DistanceMeters>
          </Trackpoint>
          <Trackpoint>
            <Time>2021-04-02T10:34:33.000Z</Time>
            <Position>
              <LatitudeDegrees>42.3324479162693023681640625</LatitudeDegrees>
              <LongitudeDegrees>2.6039805449545383453369140625</LongitudeDegrees>
            </Position>
            <AltitudeMeters>709.20001220703125</AltitudeMeters>
            <DistanceMeters>NAN</DistanceMeters>
          </Trackpoint>
          <Trackpoint>
            <Time>2021-04-02T10:34:35.000Z</Time>
            <Position>
              <LatitudeDegrees>42.33244716189801692962646484375</LatitudeDegrees>
              <LongitudeDegrees>2.6039530523121356964111328125</LongitudeDegrees>
            </Position>
            <AltitudeMeters>709.20001220703125</AltitudeMeters>
            <DistanceMeters>NAN</DistanceMeters>
          </Trackpoint>
          <Trackpoint>
            <Time>2021-04-02T10:34:40.000Z</Time>
            <Position>
              <LatitudeDegrees>42.33246711082756519317626953125</LatitudeDegrees>
              <LongitudeDegrees>2.60389194823801517486572265625</LongitudeDegrees>
            </Position>
            <AltitudeMeters>709.4000244140625</AltitudeMeters>
            <DistanceMeters>NAN</DistanceMeters>
          </Trackpoint>
          <Trackpoint>
            <Time>2021-04-02T10:34:46.000Z</Time>
            <Position>
              <LatitudeDegrees>42.33248420991003513336181640625</LatitudeDegrees>
              <LongitudeDegrees>2.60381081141531467437744140625</LongitudeDegrees>
            </Position>
            <AltitudeMeters>709.20001220703125</AltitudeMeters>
            <DistanceMeters>NAN</DistanceMeters>
          </Trackpoint>
          <Trackpoint>
            <Time>2021-04-02T10:34:50.000Z</Time>
            <Position>
              <LatitudeDegrees>42.33251304365694522857666015625</LatitudeDegrees>
              <LongitudeDegrees>2.6037626154720783233642578125</LongitudeDegrees>
            </Position>
            <AltitudeMeters>709.20001220703125</AltitudeMeters>
            <DistanceMeters>NAN</DistanceMeters>
          </Trackpoint>
          <Trackpoint>
            <Time>2021-04-02T10:34:59.000Z</Time>
            <Position>
              <LatitudeDegrees>42.332583703100681304931640625</LatitudeDegrees>
              <LongitudeDegrees>2.60368977673351764678955078125</LongitudeDegrees>
            </Position>
            <AltitudeMeters>709.4000244140625</AltitudeMeters>
            <DistanceMeters>NAN</DistanceMeters>
          </Trackpoint>
          <Trackpoint>
            <Time>2021-04-02T10:35:00.000Z</Time>
            <Position>
              <LatitudeDegrees>42.33259401284158229827880859375</LatitudeDegrees>
              <LongitudeDegrees>2.603685669600963592529296875</LongitudeDegrees>
            </Position>
            <AltitudeMeters>709.4000244140625</AltitudeMeters>
            <DistanceMeters>NAN</DistanceMeters>
          </Trackpoint>
          <Trackpoint>
            <Time>2021-04-02T10:35:08.000Z</Time>
            <Position>
              <LatitudeDegrees>42.33266894705593585968017578125</LatitudeDegrees>
              <LongitudeDegrees>2.60365272872149944305419921875</LongitudeDegrees>
            </Position>
            <AltitudeMeters>709.20001220703125</AltitudeMeters>
            <DistanceMeters>NAN</DistanceMeters>
          </Trackpoint>
          <Trackpoint>
            <Time>2021-04-02T10:35:15.000Z</Time>
            <Position>
              <LatitudeDegrees>42.3327166400849819183349609375</LatitudeDegrees>
              <LongitudeDegrees>2.6036445982754230499267578125</LongitudeDegrees>
            </Position>
            <AltitudeMeters>708</AltitudeMeters>
            <DistanceMeters>NAN</DistanceMeters>
          </Trackpoint>
          <Trackpoint>
            <Time>2021-04-02T10:35:17.000Z</Time>
            <Position>
              <LatitudeDegrees>42.33271806500852108001708984375</LatitudeDegrees>
              <LongitudeDegrees>2.6036452688276767730712890625</LongitudeDegrees>
            </Position>
            <AltitudeMeters>707.5999755859375</AltitudeMeters>
            <DistanceMeters>NAN</DistanceMeters>
          </Trackpoint>
          <Trackpoint>
            <Time>2021-04-02T10:35:19.000Z</Time>
            <Position>
              <LatitudeDegrees>42.33271186240017414093017578125</LatitudeDegrees>
              <LongitudeDegrees>2.60364241898059844970703125</LongitudeDegrees>
            </Position>
            <AltitudeMeters>707.4000244140625</AltitudeMeters>
            <DistanceMeters>NAN</DistanceMeters>
          </Trackpoint>
          <Trackpoint>
            <Time>2021-04-02T10:35:20.000Z</Time>
            <Position>
              <LatitudeDegrees>42.3327075876295566558837890625</LatitudeDegrees>
              <LongitudeDegrees>2.6036375574767589569091796875</LongitudeDegrees>
            </Position>
            <AltitudeMeters>707.4000244140625</AltitudeMeters>
            <DistanceMeters>NAN</DistanceMeters>
          </Trackpoint>
          <Trackpoint>
            <Time>2021-04-02T10:35:28.000Z</Time>
            <Position>
              <LatitudeDegrees>42.3326519317924976348876953125</LatitudeDegrees>
              <LongitudeDegrees>2.6036134175956249237060546875</LongitudeDegrees>
            </Position>
            <AltitudeMeters>708</AltitudeMeters>
            <DistanceMeters>NAN</DistanceMeters>
          </Trackpoint>
          <Trackpoint>
            <Time>2021-04-02T10:35:30.000Z</Time>
            <Position>
              <LatitudeDegrees>42.33263961039483547210693359375</LatitudeDegrees>
              <LongitudeDegrees>2.6036127470433712005615234375</LongitudeDegrees>
            </Position>
            <AltitudeMeters>708.20001220703125</AltitudeMeters>
            <DistanceMeters>NAN</DistanceMeters>
          </Trackpoint>
          <Trackpoint>
            <Time>2021-04-02T10:35:35.000Z</Time>
            <Position>
              <LatitudeDegrees>42.33260423876345157623291015625</LatitudeDegrees>
              <LongitudeDegrees>2.6036385633051395416259765625</LongitudeDegrees>
            </Position>
            <AltitudeMeters>709</AltitudeMeters>
            <DistanceMeters>NAN</DistanceMeters>
          </Trackpoint>
          <Trackpoint>
            <Time>2021-04-02T10:35:37.000Z</Time>
            <Position>
              <LatitudeDegrees>42.33259074389934539794921875</LatitudeDegrees>
              <LongitudeDegrees>2.60364954359829425811767578125</LongitudeDegrees>
            </Position>
            <AltitudeMeters>709.4000244140625</AltitudeMeters>
            <DistanceMeters>NAN</DistanceMeters>
          </Trackpoint>
          <Trackpoint>
            <Time>2021-04-02T10:35:38.000Z</Time>
            <Position>
              <LatitudeDegrees>42.33258177526295185089111328125</LatitudeDegrees>
              <LongitudeDegrees>2.60364971123635768890380859375</LongitudeDegrees>
            </Position>
            <AltitudeMeters>709.4000244140625</AltitudeMeters>
            <DistanceMeters>NAN</DistanceMeters>
          </Trackpoint>
          <Trackpoint>
            <Time>2021-04-02T10:35:40.000Z</Time>
            <Position>
              <LatitudeDegrees>42.33256450854241847991943359375</LatitudeDegrees>
              <LongitudeDegrees>2.6036613620817661285400390625</LongitudeDegrees>
            </Position>
            <AltitudeMeters>709.4000244140625</AltitudeMeters>
            <DistanceMeters>NAN</DistanceMeters>
          </Trackpoint>
          <Trackpoint>
            <Time>2021-04-02T10:35:48.000Z</Time>
            <Position>
              <LatitudeDegrees>42.3325107805430889129638671875</LatitudeDegrees>
              <LongitudeDegrees>2.60373252443969249725341796875</LongitudeDegrees>
            </Position>
            <AltitudeMeters>708.20001220703125</AltitudeMeters>
            <DistanceMeters>NAN</DistanceMeters>
          </Trackpoint>
          <Trackpoint>
            <Time>2021-04-02T10:35:59.000Z</Time>
            <Position>
              <LatitudeDegrees>42.33249678276479244232177734375</LatitudeDegrees>
              <LongitudeDegrees>2.60386277921497821807861328125</LongitudeDegrees>
            </Position>
            <AltitudeMeters>709</AltitudeMeters>
            <DistanceMeters>NAN</DistanceMeters>
          </Trackpoint>
          <Trackpoint>
            <Time>2021-04-02T10:36:05.000Z</Time>
            <Position>
              <LatitudeDegrees>42.33248337171971797943115234375</LatitudeDegrees>
              <LongitudeDegrees>2.60393385775387287139892578125</LongitudeDegrees>
            </Position>
            <AltitudeMeters>709.79998779296875</AltitudeMeters>
            <DistanceMeters>NAN</DistanceMeters>
          </Trackpoint>
          <Trackpoint>
            <Time>2021-04-02T10:36:08.000Z</Time>
            <Position>
              <LatitudeDegrees>42.33248270116746425628662109375</LatitudeDegrees>
              <LongitudeDegrees>2.6039755158126354217529296875</LongitudeDegrees>
            </Position>
            <AltitudeMeters>709.4000244140625</AltitudeMeters>
            <DistanceMeters>NAN</DistanceMeters>
          </Trackpoint>
          <Trackpoint>
            <Time>2021-04-02T10:36:15.000Z</Time>
            <Position>
              <LatitudeDegrees>42.3325111158192157745361328125</LatitudeDegrees>
              <LongitudeDegrees>2.60405640117824077606201171875</LongitudeDegrees>
            </Position>
            <AltitudeMeters>709.4000244140625</AltitudeMeters>
            <DistanceMeters>NAN</DistanceMeters>
          </Trackpoint>
          <Trackpoint>
            <Time>2021-04-02T10:36:22.000Z</Time>
            <Position>
              <LatitudeDegrees>42.33250466175377368927001953125</LatitudeDegrees>
              <LongitudeDegrees>2.60410702787339687347412109375</LongitudeDegrees>
            </Position>
            <AltitudeMeters>709.79998779296875</AltitudeMeters>
            <DistanceMeters>NAN</DistanceMeters>
          </Trackpoint>
          <Trackpoint>
            <Time>2021-04-02T10:36:28.000Z</Time>
            <Position>
              <LatitudeDegrees>42.33250415883958339691162109375</LatitudeDegrees>
              <LongitudeDegrees>2.60412664152681827545166015625</LongitudeDegrees>
            </Position>
            <AltitudeMeters>709.5999755859375</AltitudeMeters>
            <DistanceMeters>NAN</DistanceMeters>
          </Trackpoint>
          <Trackpoint>
            <Time>2021-04-02T10:36:31.000Z</Time>
            <Position>
              <LatitudeDegrees>42.33250633813440799713134765625</LatitudeDegrees>
              <LongitudeDegrees>2.604120187461376190185546875</LongitudeDegrees>
            </Position>
            <AltitudeMeters>709.79998779296875</AltitudeMeters>
            <DistanceMeters>NAN</DistanceMeters>
          </Trackpoint>
          <Trackpoint>
            <Time>2021-04-02T10:36:44.000Z</Time>
            <Position>
              <LatitudeDegrees>42.33252980746328830718994140625</LatitudeDegrees>
              <LongitudeDegrees>2.6041528768837451934814453125</LongitudeDegrees>
            </Position>
            <AltitudeMeters>709.20001220703125</AltitudeMeters>
            <DistanceMeters>NAN</DistanceMeters>
          </Trackpoint>
          <Trackpoint>
            <Time>2021-04-02T10:36:49.000Z</Time>
            <Position>
              <LatitudeDegrees>42.3325815238058567047119140625</LatitudeDegrees>
              <LongitudeDegrees>2.604204677045345306396484375</LongitudeDegrees>
            </Position>
            <AltitudeMeters>709.4000244140625</AltitudeMeters>
            <DistanceMeters>NAN</DistanceMeters>
          </Trackpoint>
          <Trackpoint>
            <Time>2021-04-02T10:36:52.000Z</Time>
            <Position>
              <LatitudeDegrees>42.33258135616779327392578125</LatitudeDegrees>
              <LongitudeDegrees>2.60424113832414150238037109375</LongitudeDegrees>
            </Position>
            <AltitudeMeters>709.4000244140625</AltitudeMeters>
            <DistanceMeters>NAN</DistanceMeters>
          </Trackpoint>
          <Trackpoint>
            <Time>2021-04-02T10:36:53.000Z</Time>
            <Position>
              <LatitudeDegrees>42.332584373652935028076171875</LatitudeDegrees>
              <LongitudeDegrees>2.60424901731312274932861328125</LongitudeDegrees>
            </Position>
            <AltitudeMeters>709.4000244140625</AltitudeMeters>
            <DistanceMeters>NAN</DistanceMeters>
          </Trackpoint>
          <Trackpoint>
            <Time>2021-04-02T10:36:55.000Z</Time>
            <Position>
              <LatitudeDegrees>42.33258244581520557403564453125</LatitudeDegrees>
              <LongitudeDegrees>2.60424952022731304168701171875</LongitudeDegrees>
            </Position>
            <AltitudeMeters>709.20001220703125</AltitudeMeters>
            <DistanceMeters>NAN</DistanceMeters>
          </Trackpoint>
          <Trackpoint>
            <Time>2021-04-02T10:36:59.000Z</Time>
            <Position>
              <LatitudeDegrees>42.3325738124549388885498046875</LatitudeDegrees>
              <LongitudeDegrees>2.60424918495118618011474609375</LongitudeDegrees>
            </Position>
            <AltitudeMeters>709.20001220703125</AltitudeMeters>
            <DistanceMeters>NAN</DistanceMeters>
          </Trackpoint>
          <Trackpoint>
            <Time>2021-04-02T10:37:04.000Z</Time>
            <Position>
              <LatitudeDegrees>42.3325805179774761199951171875</LatitudeDegrees>
              <LongitudeDegrees>2.6042484305799007415771484375</LongitudeDegrees>
            </Position>
            <AltitudeMeters>709.20001220703125</AltitudeMeters>
            <DistanceMeters>NAN</DistanceMeters>
          </Trackpoint>
          <Trackpoint>
            <Time>2021-04-02T10:37:06.000Z</Time>
            <Position>
              <LatitudeDegrees>42.3325805179774761199951171875</LatitudeDegrees>
              <LongitudeDegrees>2.6042484305799007415771484375</LongitudeDegrees>
            </Position>
            <AltitudeMeters>709.4000244140625</AltitudeMeters>
            <DistanceMeters>NAN</DistanceMeters>
          </Trackpoint>
          <Trackpoint>
            <Time>2021-04-02T10:37:10.000Z</Time>
            <Position>
              <LatitudeDegrees>42.3325805179774761199951171875</LatitudeDegrees>
              <LongitudeDegrees>2.6042484305799007415771484375</LongitudeDegrees>
            </Position>
            <AltitudeMeters>709.20001220703125</AltitudeMeters>
            <DistanceMeters>NAN</DistanceMeters>
          </Trackpoint>
          <Trackpoint>
            <Time>2021-04-02T10:37:12.000Z</Time>
            <Position>
              <LatitudeDegrees>42.3325684480369091033935546875</LatitudeDegrees>
              <LongitudeDegrees>2.60426326654851436614990234375</LongitudeDegrees>
            </Position>
            <AltitudeMeters>709</AltitudeMeters>
            <DistanceMeters>NAN</DistanceMeters>
          </Trackpoint>
          <Trackpoint>
            <Time>2021-04-02T10:37:15.000Z</Time>
            <Position>
              <LatitudeDegrees>42.33254590071737766265869140625</LatitudeDegrees>
              <LongitudeDegrees>2.6043114624917507171630859375</LongitudeDegrees>
            </Position>
            <AltitudeMeters>708.79998779296875</AltitudeMeters>
            <DistanceMeters>NAN</DistanceMeters>
          </Trackpoint>
          <Trackpoint>
            <Time>2021-04-02T10:37:18.000Z</Time>
            <Position>
              <LatitudeDegrees>42.332536764442920684814453125</LatitudeDegrees>
              <LongitudeDegrees>2.60437105782330036163330078125</LongitudeDegrees>
            </Position>
            <AltitudeMeters>708.5999755859375</AltitudeMeters>
            <DistanceMeters>NAN</DistanceMeters>
          </Trackpoint>
          <Trackpoint>
            <Time>2021-04-02T10:37:25.000Z</Time>
            <Position>
              <LatitudeDegrees>42.33253517188131809234619140625</LatitudeDegrees>
              <LongitudeDegrees>2.60446694679558277130126953125</LongitudeDegrees>
            </Position>
            <AltitudeMeters>708.5999755859375</AltitudeMeters>
            <DistanceMeters>NAN</DistanceMeters>
          </Trackpoint>
          <Trackpoint>
            <Time>2021-04-02T10:37:29.000Z</Time>
            <Position>
              <LatitudeDegrees>42.33253047801554203033447265625</LatitudeDegrees>
              <LongitudeDegrees>2.6044894941151142120361328125</LongitudeDegrees>
            </Position>
            <AltitudeMeters>709</AltitudeMeters>
            <DistanceMeters>NAN</DistanceMeters>
          </Trackpoint>
          <Trackpoint>
            <Time>2021-04-02T10:37:31.000Z</Time>
            <Position>
              <LatitudeDegrees>42.3325337469577789306640625</LatitudeDegrees>
              <LongitudeDegrees>2.6044975407421588897705078125</LongitudeDegrees>
            </Position>
            <AltitudeMeters>709</AltitudeMeters>
            <DistanceMeters>NAN</DistanceMeters>
          </Trackpoint>
          <Trackpoint>
            <Time>2021-04-02T10:37:34.000Z</Time>
            <Position>
              <LatitudeDegrees>42.33251907862722873687744140625</LatitudeDegrees>
              <LongitudeDegrees>2.6044799387454986572265625</LongitudeDegrees>
            </Position>
            <AltitudeMeters>709</AltitudeMeters>
            <DistanceMeters>NAN</DistanceMeters>
          </Trackpoint>
          <Trackpoint>
            <Time>2021-04-02T10:37:40.000Z</Time>
            <Position>
              <LatitudeDegrees>42.3325148038566112518310546875</LatitudeDegrees>
              <LongitudeDegrees>2.60448505170643329620361328125</LongitudeDegrees>
            </Position>
            <AltitudeMeters>708.79998779296875</AltitudeMeters>
            <DistanceMeters>NAN</DistanceMeters>
          </Trackpoint>
          <Trackpoint>
            <Time>2021-04-02T10:37:42.000Z</Time>
            <Position>
              <LatitudeDegrees>42.3325148038566112518310546875</LatitudeDegrees>
              <LongitudeDegrees>2.60448505170643329620361328125</LongitudeDegrees>
            </Position>
            <AltitudeMeters>708.5999755859375</AltitudeMeters>
            <DistanceMeters>NAN</DistanceMeters>
          </Trackpoint>
          <Trackpoint>
            <Time>2021-04-02T10:37:44.000Z</Time>
            <Position>
              <LatitudeDegrees>42.3325148038566112518310546875</LatitudeDegrees>
              <LongitudeDegrees>2.60448505170643329620361328125</LongitudeDegrees>
            </Position>
            <AltitudeMeters>708.5999755859375</AltitudeMeters>
            <DistanceMeters>NAN</DistanceMeters>
          </Trackpoint>
          <Trackpoint>
            <Time>2021-04-02T10:37:53.000Z</Time>
            <Position>
              <LatitudeDegrees>42.33251203782856464385986328125</LatitudeDegrees>
              <LongitudeDegrees>2.60448706336319446563720703125</LongitudeDegrees>
            </Position>
            <AltitudeMeters>708</AltitudeMeters>
            <DistanceMeters>NAN</DistanceMeters>
          </Trackpoint>
          <Trackpoint>
            <Time>2021-04-02T10:38:03.000Z</Time>
            <Position>
              <LatitudeDegrees>42.33250114135444164276123046875</LatitudeDegrees>
              <LongitudeDegrees>2.60457582771778106689453125</LongitudeDegrees>
            </Position>
            <AltitudeMeters>708</AltitudeMeters>
            <DistanceMeters>NAN</DistanceMeters>
          </Trackpoint>
          <Trackpoint>
            <Time>2021-04-02T10:38:04.000Z</Time>
            <Position>
              <LatitudeDegrees>42.33250114135444164276123046875</LatitudeDegrees>
              <LongitudeDegrees>2.6045994646847248077392578125</LongitudeDegrees>
            </Position>
            <AltitudeMeters>708.20001220703125</AltitudeMeters>
            <DistanceMeters>NAN</DistanceMeters>
          </Trackpoint>
          <Trackpoint>
            <Time>2021-04-02T10:38:11.000Z</Time>
            <Position>
              <LatitudeDegrees>42.332475073635578155517578125</LatitudeDegrees>
              <LongitudeDegrees>2.604731731116771697998046875</LongitudeDegrees>
            </Position>
            <AltitudeMeters>708</AltitudeMeters>
            <DistanceMeters>NAN</DistanceMeters>
          </Trackpoint>
          <Trackpoint>
            <Time>2021-04-02T10:38:13.000Z</Time>
            <Position>
              <LatitudeDegrees>42.3324631713330745697021484375</LatitudeDegrees>
              <LongitudeDegrees>2.604740448296070098876953125</LongitudeDegrees>
            </Position>
            <AltitudeMeters>708</AltitudeMeters>
            <DistanceMeters>NAN</DistanceMeters>
          </Trackpoint>
          <Trackpoint>
            <Time>2021-04-02T10:38:19.000Z</Time>
            <Position>
              <LatitudeDegrees>42.332420758903026580810546875</LatitudeDegrees>
              <LongitudeDegrees>2.60478369891643524169921875</LongitudeDegrees>
            </Position>
            <AltitudeMeters>707.4000244140625</AltitudeMeters>
            <DistanceMeters>NAN</DistanceMeters>
          </Trackpoint>
          <Trackpoint>
            <Time>2021-04-02T10:38:21.000Z</Time>
            <Position>
              <LatitudeDegrees>42.33240558765828609466552734375</LatitudeDegrees>
              <LongitudeDegrees>2.60480054654181003570556640625</LongitudeDegrees>
            </Position>
            <AltitudeMeters>707.4000244140625</AltitudeMeters>
            <DistanceMeters>NAN</DistanceMeters>
          </Trackpoint>
          <Trackpoint>
            <Time>2021-04-02T10:38:29.000Z</Time>
            <Position>
              <LatitudeDegrees>42.33237775973975658416748046875</LatitudeDegrees>
              <LongitudeDegrees>2.60483776219189167022705078125</LongitudeDegrees>
            </Position>
            <AltitudeMeters>707.5999755859375</AltitudeMeters>
            <DistanceMeters>NAN</DistanceMeters>
          </Trackpoint>
          <Trackpoint>
            <Time>2021-04-02T10:38:35.000Z</Time>
            <Position>
              <LatitudeDegrees>42.33233752660453319549560546875</LatitudeDegrees>
              <LongitudeDegrees>2.60485452599823474884033203125</LongitudeDegrees>
            </Position>
            <AltitudeMeters>707.79998779296875</AltitudeMeters>
            <DistanceMeters>NAN</DistanceMeters>
          </Trackpoint>
          <Trackpoint>
            <Time>2021-04-02T10:38:43.000Z</Time>
            <Position>
              <LatitudeDegrees>42.33230567537248134613037109375</LatitudeDegrees>
              <LongitudeDegrees>2.60488838888704776763916015625</LongitudeDegrees>
            </Position>
            <AltitudeMeters>708.5999755859375</AltitudeMeters>
            <DistanceMeters>NAN</DistanceMeters>
          </Trackpoint>
          <Trackpoint>
            <Time>2021-04-02T10:38:50.000Z</Time>
            <Position>
              <LatitudeDegrees>42.332292012870311737060546875</LatitudeDegrees>
              <LongitudeDegrees>2.6048807613551616668701171875</LongitudeDegrees>
            </Position>
            <AltitudeMeters>708.5999755859375</AltitudeMeters>
            <DistanceMeters>NAN</DistanceMeters>
          </Trackpoint>
          <Trackpoint>
            <Time>2021-04-02T10:38:52.000Z</Time>
            <Position>
              <LatitudeDegrees>42.33229100704193115234375</LatitudeDegrees>
              <LongitudeDegrees>2.604881264269351959228515625</LongitudeDegrees>
            </Position>
            <AltitudeMeters>708.5999755859375</AltitudeMeters>
            <DistanceMeters>NAN</DistanceMeters>
          </Trackpoint>
          <Trackpoint>
            <Time>2021-04-02T10:39:07.000Z</Time>
            <Position>
              <LatitudeDegrees>42.33231070451438426971435546875</LatitudeDegrees>
              <LongitudeDegrees>2.60483063757419586181640625</LongitudeDegrees>
            </Position>
            <AltitudeMeters>708.5999755859375</AltitudeMeters>
            <DistanceMeters>NAN</DistanceMeters>
          </Trackpoint>
          <Trackpoint>
            <Time>2021-04-02T10:39:08.000Z</Time>
            <Position>
              <LatitudeDegrees>42.3323086090385913848876953125</LatitudeDegrees>
              <LongitudeDegrees>2.60481588542461395263671875</LongitudeDegrees>
            </Position>
            <AltitudeMeters>708.5999755859375</AltitudeMeters>
            <DistanceMeters>NAN</DistanceMeters>
          </Trackpoint>
          <Trackpoint>
            <Time>2021-04-02T10:39:13.000Z</Time>
            <Position>
              <LatitudeDegrees>42.33231070451438426971435546875</LatitudeDegrees>
              <LongitudeDegrees>2.6047778315842151641845703125</LongitudeDegrees>
            </Position>
            <AltitudeMeters>708.5999755859375</AltitudeMeters>
            <DistanceMeters>NAN</DistanceMeters>
          </Trackpoint>
          <Trackpoint>
            <Time>2021-04-02T10:39:14.000Z</Time>
            <Position>
              <LatitudeDegrees>42.3323096148669719696044921875</LatitudeDegrees>
              <LongitudeDegrees>2.60477389208972454071044921875</LongitudeDegrees>
            </Position>
            <AltitudeMeters>708.5999755859375</AltitudeMeters>
            <DistanceMeters>NAN</DistanceMeters>
          </Trackpoint>
          <Trackpoint>
            <Time>2021-04-02T10:39:21.000Z</Time>
            <Position>
              <LatitudeDegrees>42.3322918452322483062744140625</LatitudeDegrees>
              <LongitudeDegrees>2.60474371723830699920654296875</LongitudeDegrees>
            </Position>
            <AltitudeMeters>708</AltitudeMeters>
            <DistanceMeters>NAN</DistanceMeters>
          </Trackpoint>
          <Trackpoint>
            <Time>2021-04-02T10:39:23.000Z</Time>
            <Position>
              <LatitudeDegrees>42.33228497207164764404296875</LatitudeDegrees>
              <LongitudeDegrees>2.60475159622728824615478515625</LongitudeDegrees>
            </Position>
            <AltitudeMeters>707.4000244140625</AltitudeMeters>
            <DistanceMeters>NAN</DistanceMeters>
          </Trackpoint>
          <Trackpoint>
            <Time>2021-04-02T10:39:28.000Z</Time>
            <Position>
              <LatitudeDegrees>42.33226108364760875701904296875</LatitudeDegrees>
              <LongitudeDegrees>2.6047677733004093170166015625</LongitudeDegrees>
            </Position>
            <AltitudeMeters>707.20001220703125</AltitudeMeters>
            <DistanceMeters>NAN</DistanceMeters>
          </Trackpoint>
          <Trackpoint>
            <Time>2021-04-02T10:39:30.000Z</Time>
            <Position>
              <LatitudeDegrees>42.3322496004402637481689453125</LatitudeDegrees>
              <LongitudeDegrees>2.6047677733004093170166015625</LongitudeDegrees>
            </Position>
            <AltitudeMeters>707</AltitudeMeters>
            <DistanceMeters>NAN</DistanceMeters>
          </Trackpoint>
          <Trackpoint>
            <Time>2021-04-02T10:39:33.000Z</Time>
            <Position>
              <LatitudeDegrees>42.33224205672740936279296875</LatitudeDegrees>
              <LongitudeDegrees>2.60476953350007534027099609375</LongitudeDegrees>
            </Position>
            <AltitudeMeters>707</AltitudeMeters>
            <DistanceMeters>NAN</DistanceMeters>
          </Trackpoint>
          <Trackpoint>
            <Time>2021-04-02T10:39:34.000Z</Time>
            <Position>
              <LatitudeDegrees>42.3322405479848384857177734375</LatitudeDegrees>
              <LongitudeDegrees>2.60476903058588504791259765625</LongitudeDegrees>
            </Position>
            <AltitudeMeters>706.79998779296875</AltitudeMeters>
            <DistanceMeters>NAN</DistanceMeters>
          </Trackpoint>
          <Trackpoint>
            <Time>2021-04-02T10:39:39.000Z</Time>
            <Position>
              <LatitudeDegrees>42.33224465511739253997802734375</LatitudeDegrees>
              <LongitudeDegrees>2.60476936586201190948486328125</LongitudeDegrees>
            </Position>
            <AltitudeMeters>706.5999755859375</AltitudeMeters>
            <DistanceMeters>NAN</DistanceMeters>
          </Trackpoint>
          <Trackpoint>
            <Time>2021-04-02T10:39:41.000Z</Time>
            <Position>
              <LatitudeDegrees>42.33224465511739253997802734375</LatitudeDegrees>
              <LongitudeDegrees>2.60476936586201190948486328125</LongitudeDegrees>
            </Position>
            <AltitudeMeters>706.4000244140625</AltitudeMeters>
            <DistanceMeters>NAN</DistanceMeters>
          </Trackpoint>
          <Trackpoint>
            <Time>2021-04-02T10:39:44.000Z</Time>
            <Position>
              <LatitudeDegrees>42.33224465511739253997802734375</LatitudeDegrees>
              <LongitudeDegrees>2.60476936586201190948486328125</LongitudeDegrees>
            </Position>
            <AltitudeMeters>706.4000244140625</AltitudeMeters>
            <DistanceMeters>NAN</DistanceMeters>
          </Trackpoint>
          <Trackpoint>
            <Time>2021-04-02T10:40:05.000Z</Time>
            <Position>
              <LatitudeDegrees>42.33220718801021575927734375</LatitudeDegrees>
              <LongitudeDegrees>2.60482217185199260711669921875</LongitudeDegrees>
            </Position>
            <AltitudeMeters>706.20001220703125</AltitudeMeters>
            <DistanceMeters>NAN</DistanceMeters>
          </Trackpoint>
          <Trackpoint>
            <Time>2021-04-02T10:40:13.000Z</Time>
            <Position>
              <LatitudeDegrees>42.3321610875427722930908203125</LatitudeDegrees>
              <LongitudeDegrees>2.60488000698387622833251953125</LongitudeDegrees>
            </Position>
            <AltitudeMeters>706.20001220703125</AltitudeMeters>
            <DistanceMeters>NAN</DistanceMeters>
          </Trackpoint>
          <Trackpoint>
            <Time>2021-04-02T10:40:15.000Z</Time>
            <Position>
              <LatitudeDegrees>42.33214013278484344482421875</LatitudeDegrees>
              <LongitudeDegrees>2.60488185100257396697998046875</LongitudeDegrees>
            </Position>
            <AltitudeMeters>706</AltitudeMeters>
            <DistanceMeters>NAN</DistanceMeters>
          </Trackpoint>
          <Trackpoint>
            <Time>2021-04-02T10:40:21.000Z</Time>
            <Position>
              <LatitudeDegrees>42.33211775310337543487548828125</LatitudeDegrees>
              <LongitudeDegrees>2.60486877523362636566162109375</LongitudeDegrees>
            </Position>
            <AltitudeMeters>705.79998779296875</AltitudeMeters>
            <DistanceMeters>NAN</DistanceMeters>
          </Trackpoint>
          <Trackpoint>
            <Time>2021-04-02T10:40:31.000Z</Time>
            <Position>
              <LatitudeDegrees>42.3321000672876834869384765625</LatitudeDegrees>
              <LongitudeDegrees>2.604849077761173248291015625</LongitudeDegrees>
            </Position>
            <AltitudeMeters>705.79998779296875</AltitudeMeters>
            <DistanceMeters>NAN</DistanceMeters>
          </Trackpoint>
          <Trackpoint>
            <Time>2021-04-02T10:40:43.000Z</Time>
            <Position>
              <LatitudeDegrees>42.33210450969636440277099609375</LatitudeDegrees>
              <LongitudeDegrees>2.60485033504664897918701171875</LongitudeDegrees>
            </Position>
            <AltitudeMeters>705.4000244140625</AltitudeMeters>
            <DistanceMeters>NAN</DistanceMeters>
          </Trackpoint>
          <Trackpoint>
            <Time>2021-04-02T10:40:44.000Z</Time>
            <Position>
              <LatitudeDegrees>42.33210450969636440277099609375</LatitudeDegrees>
              <LongitudeDegrees>2.60485033504664897918701171875</LongitudeDegrees>
            </Position>
            <AltitudeMeters>705.5999755859375</AltitudeMeters>
            <DistanceMeters>NAN</DistanceMeters>
          </Trackpoint>
          <Trackpoint>
            <Time>2021-04-02T10:40:53.000Z</Time>
            <Position>
              <LatitudeDegrees>42.3321000672876834869384765625</LatitudeDegrees>
              <LongitudeDegrees>2.60485033504664897918701171875</LongitudeDegrees>
            </Position>
            <AltitudeMeters>705</AltitudeMeters>
            <DistanceMeters>NAN</DistanceMeters>
          </Trackpoint>
          <Trackpoint>
            <Time>2021-04-02T10:40:56.000Z</Time>
            <Position>
              <LatitudeDegrees>42.3320977203547954559326171875</LatitudeDegrees>
              <LongitudeDegrees>2.60485033504664897918701171875</LongitudeDegrees>
            </Position>
            <AltitudeMeters>704.5999755859375</AltitudeMeters>
            <DistanceMeters>NAN</DistanceMeters>
          </Trackpoint>
          <Trackpoint>
            <Time>2021-04-02T10:40:58.000Z</Time>
            <Position>
              <LatitudeDegrees>42.332095541059970855712890625</LatitudeDegrees>
              <LongitudeDegrees>2.60485033504664897918701171875</LongitudeDegrees>
            </Position>
            <AltitudeMeters>704.5999755859375</AltitudeMeters>
            <DistanceMeters>NAN</DistanceMeters>
          </Trackpoint>
          <Trackpoint>
            <Time>2021-04-02T10:41:01.000Z</Time>
            <Position>
              <LatitudeDegrees>42.33209361322224140167236328125</LatitudeDegrees>
              <LongitudeDegrees>2.60485167615115642547607421875</LongitudeDegrees>
            </Position>
            <AltitudeMeters>704.20001220703125</AltitudeMeters>
            <DistanceMeters>NAN</DistanceMeters>
          </Trackpoint>
          <Trackpoint>
            <Time>2021-04-02T10:41:04.000Z</Time>
            <Position>
              <LatitudeDegrees>42.33208472840487957000732421875</LatitudeDegrees>
              <LongitudeDegrees>2.604860477149486541748046875</LongitudeDegrees>
            </Position>
            <AltitudeMeters>703.79998779296875</AltitudeMeters>
            <DistanceMeters>NAN</DistanceMeters>
          </Trackpoint>
          <Trackpoint>
            <Time>2021-04-02T10:41:13.000Z</Time>
            <Position>
              <LatitudeDegrees>42.33200727961957454681396484375</LatitudeDegrees>
              <LongitudeDegrees>2.60492325760424137115478515625</LongitudeDegrees>
            </Position>
            <AltitudeMeters>703.5999755859375</AltitudeMeters>
            <DistanceMeters>NAN</DistanceMeters>
          </Trackpoint>
          <Trackpoint>
            <Time>2021-04-02T10:41:18.000Z</Time>
            <Position>
              <LatitudeDegrees>42.3319864086806774139404296875</LatitudeDegrees>
              <LongitudeDegrees>2.60497204028069972991943359375</LongitudeDegrees>
            </Position>
            <AltitudeMeters>704.4000244140625</AltitudeMeters>
            <DistanceMeters>NAN</DistanceMeters>
          </Trackpoint>
          <Trackpoint>
            <Time>2021-04-02T10:41:21.000Z</Time>
            <Position>
              <LatitudeDegrees>42.331972829997539520263671875</LatitudeDegrees>
              <LongitudeDegrees>2.604990899562835693359375</LongitudeDegrees>
            </Position>
            <AltitudeMeters>705</AltitudeMeters>
            <DistanceMeters>NAN</DistanceMeters>
          </Trackpoint>
          <Trackpoint>
            <Time>2021-04-02T10:41:24.000Z</Time>
            <Position>
              <LatitudeDegrees>42.33196486718952655792236328125</LatitudeDegrees>
              <LongitudeDegrees>2.60501629672944545745849609375</LongitudeDegrees>
            </Position>
            <AltitudeMeters>705.5999755859375</AltitudeMeters>
            <DistanceMeters>NAN</DistanceMeters>
          </Trackpoint>
          <Trackpoint>
            <Time>2021-04-02T10:41:27.000Z</Time>
            <Position>
              <LatitudeDegrees>42.3319538868963718414306640625</LatitudeDegrees>
              <LongitudeDegrees>2.605039179325103759765625</LongitudeDegrees>
            </Position>
            <AltitudeMeters>705.79998779296875</AltitudeMeters>
            <DistanceMeters>NAN</DistanceMeters>
          </Trackpoint>
          <Trackpoint>
            <Time>2021-04-02T10:41:29.000Z</Time>
            <Position>
              <LatitudeDegrees>42.3319488577544689178466796875</LatitudeDegrees>
              <LongitudeDegrees>2.60505066253244876861572265625</LongitudeDegrees>
            </Position>
            <AltitudeMeters>706</AltitudeMeters>
            <DistanceMeters>NAN</DistanceMeters>
          </Trackpoint>
          <Trackpoint>
            <Time>2021-04-02T10:41:33.000Z</Time>
            <Position>
              <LatitudeDegrees>42.3319490253925323486328125</LatitudeDegrees>
              <LongitudeDegrees>2.60507429949939250946044921875</LongitudeDegrees>
            </Position>
            <AltitudeMeters>706.20001220703125</AltitudeMeters>
            <DistanceMeters>NAN</DistanceMeters>
          </Trackpoint>
          <Trackpoint>
            <Time>2021-04-02T10:41:35.000Z</Time>
            <Position>
              <LatitudeDegrees>42.33195531181991100311279296875</LatitudeDegrees>
              <LongitudeDegrees>2.60508150793612003326416015625</LongitudeDegrees>
            </Position>
            <AltitudeMeters>706.5999755859375</AltitudeMeters>
            <DistanceMeters>NAN</DistanceMeters>
          </Trackpoint>
          <Trackpoint>
            <Time>2021-04-02T10:41:37.000Z</Time>
            <Position>
              <LatitudeDegrees>42.33196687884628772735595703125</LatitudeDegrees>
              <LongitudeDegrees>2.60508435778319835662841796875</LongitudeDegrees>
            </Position>
            <AltitudeMeters>707</AltitudeMeters>
            <DistanceMeters>NAN</DistanceMeters>
          </Trackpoint>
          <Trackpoint>
            <Time>2021-04-02T10:41:41.000Z</Time>
            <Position>
              <LatitudeDegrees>42.3319746740162372589111328125</LatitudeDegrees>
              <LongitudeDegrees>2.6051100902259349822998046875</LongitudeDegrees>
            </Position>
            <AltitudeMeters>707.79998779296875</AltitudeMeters>
            <DistanceMeters>NAN</DistanceMeters>
          </Trackpoint>
          <Trackpoint>
            <Time>2021-04-02T10:41:43.000Z</Time>
            <Position>
              <LatitudeDegrees>42.33197945170104503631591796875</LatitudeDegrees>
              <LongitudeDegrees>2.605121992528438568115234375</LongitudeDegrees>
            </Position>
            <AltitudeMeters>708.20001220703125</AltitudeMeters>
            <DistanceMeters>NAN</DistanceMeters>
          </Trackpoint>
          <Trackpoint>
            <Time>2021-04-02T10:41:46.000Z</Time>
            <Position>
              <LatitudeDegrees>42.33199772424995899200439453125</LatitudeDegrees>
              <LongitudeDegrees>2.60513582266867160797119140625</LongitudeDegrees>
            </Position>
            <AltitudeMeters>709</AltitudeMeters>
            <DistanceMeters>NAN</DistanceMeters>
          </Trackpoint>
          <Trackpoint>
            <Time>2021-04-02T10:41:49.000Z</Time>
            <Position>
              <LatitudeDegrees>42.33198682777583599090576171875</LatitudeDegrees>
              <LongitudeDegrees>2.6051711104810237884521484375</LongitudeDegrees>
            </Position>
            <AltitudeMeters>709.20001220703125</AltitudeMeters>
            <DistanceMeters>NAN</DistanceMeters>
          </Trackpoint>
          <Trackpoint>
            <Time>2021-04-02T10:41:50.000Z</Time>
            <Position>
              <LatitudeDegrees>42.33198364265263080596923828125</LatitudeDegrees>
              <LongitudeDegrees>2.605178989470005035400390625</LongitudeDegrees>
            </Position>
            <AltitudeMeters>709.4000244140625</AltitudeMeters>
            <DistanceMeters>NAN</DistanceMeters>
          </Trackpoint>
          <Trackpoint>
            <Time>2021-04-02T10:41:51.000Z</Time>
            <Position>
              <LatitudeDegrees>42.33197827823460102081298828125</LatitudeDegrees>
              <LongitudeDegrees>2.60518544353544712066650390625</LongitudeDegrees>
            </Position>
            <AltitudeMeters>709.4000244140625</AltitudeMeters>
            <DistanceMeters>NAN</DistanceMeters>
          </Trackpoint>
          <Trackpoint>
            <Time>2021-04-02T10:41:53.000Z</Time>
            <Position>
              <LatitudeDegrees>42.33198397792875766754150390625</LatitudeDegrees>
              <LongitudeDegrees>2.60519969277083873748779296875</LongitudeDegrees>
            </Position>
            <AltitudeMeters>709.79998779296875</AltitudeMeters>
            <DistanceMeters>NAN</DistanceMeters>
          </Trackpoint>
          <Trackpoint>
            <Time>2021-04-02T10:41:55.000Z</Time>
            <Position>
              <LatitudeDegrees>42.33199051581323146820068359375</LatitudeDegrees>
              <LongitudeDegrees>2.60520480573177337646484375</LongitudeDegrees>
            </Position>
            <AltitudeMeters>710.20001220703125</AltitudeMeters>
            <DistanceMeters>NAN</DistanceMeters>
          </Trackpoint>
          <Trackpoint>
            <Time>2021-04-02T10:41:57.000Z</Time>
            <Position>
              <LatitudeDegrees>42.33197928406298160552978515625</LatitudeDegrees>
              <LongitudeDegrees>2.60519751347601413726806640625</LongitudeDegrees>
            </Position>
            <AltitudeMeters>710.4000244140625</AltitudeMeters>
            <DistanceMeters>NAN</DistanceMeters>
          </Trackpoint>
          <Trackpoint>
            <Time>2021-04-02T10:41:59.000Z</Time>
            <Position>
              <LatitudeDegrees>42.33198045752942562103271484375</LatitudeDegrees>
              <LongitudeDegrees>2.605184018611907958984375</LongitudeDegrees>
            </Position>
            <AltitudeMeters>710.4000244140625</AltitudeMeters>
            <DistanceMeters>NAN</DistanceMeters>
          </Trackpoint>
          <Trackpoint>
            <Time>2021-04-02T10:42:00.000Z</Time>
            <Position>
              <LatitudeDegrees>42.3319830559194087982177734375</LatitudeDegrees>
              <LongitudeDegrees>2.6051799952983856201171875</LongitudeDegrees>
            </Position>
            <AltitudeMeters>710.4000244140625</AltitudeMeters>
            <DistanceMeters>NAN</DistanceMeters>
          </Trackpoint>
          <Trackpoint>
            <Time>2021-04-02T10:42:10.000Z</Time>
            <Position>
              <LatitudeDegrees>42.331982888281345367431640625</LatitudeDegrees>
              <LongitudeDegrees>2.60517907328903675079345703125</LongitudeDegrees>
            </Position>
            <AltitudeMeters>710.5999755859375</AltitudeMeters>
            <DistanceMeters>NAN</DistanceMeters>
          </Trackpoint>
          <Trackpoint>
            <Time>2021-04-02T10:42:11.000Z</Time>
            <Position>
              <LatitudeDegrees>42.331982888281345367431640625</LatitudeDegrees>
              <LongitudeDegrees>2.60517907328903675079345703125</LongitudeDegrees>
            </Position>
            <AltitudeMeters>710.5999755859375</AltitudeMeters>
            <DistanceMeters>NAN</DistanceMeters>
          </Trackpoint>
          <Trackpoint>
            <Time>2021-04-02T10:42:15.000Z</Time>
            <Position>
              <LatitudeDegrees>42.33197961933910846710205078125</LatitudeDegrees>
              <LongitudeDegrees>2.60517907328903675079345703125</LongitudeDegrees>
            </Position>
            <AltitudeMeters>710.5999755859375</AltitudeMeters>
            <DistanceMeters>NAN</DistanceMeters>
          </Trackpoint>
          <Trackpoint>
            <Time>2021-04-02T10:42:29.000Z</Time>
            <Position>
              <LatitudeDegrees>42.3319624364376068115234375</LatitudeDegrees>
              <LongitudeDegrees>2.60517303831875324249267578125</LongitudeDegrees>
            </Position>
            <AltitudeMeters>711.4000244140625</AltitudeMeters>
            <DistanceMeters>NAN</DistanceMeters>
          </Trackpoint>
          <Trackpoint>
            <Time>2021-04-02T10:42:36.000Z</Time>
            <Position>
              <LatitudeDegrees>42.3319605924189090728759765625</LatitudeDegrees>
              <LongitudeDegrees>2.60517530143260955810546875</LongitudeDegrees>
            </Position>
            <AltitudeMeters>711.5999755859375</AltitudeMeters>
            <DistanceMeters>NAN</DistanceMeters>
          </Trackpoint>
          <Trackpoint>
            <Time>2021-04-02T10:42:43.000Z</Time>
            <Position>
              <LatitudeDegrees>42.3319582454860210418701171875</LatitudeDegrees>
              <LongitudeDegrees>2.60517605580389499664306640625</LongitudeDegrees>
            </Position>
            <AltitudeMeters>711.79998779296875</AltitudeMeters>
            <DistanceMeters>NAN</DistanceMeters>
          </Trackpoint>
          <Trackpoint>
            <Time>2021-04-02T10:42:46.000Z</Time>
            <Position>
              <LatitudeDegrees>42.33195648528635501861572265625</LatitudeDegrees>
              <LongitudeDegrees>2.60517605580389499664306640625</LongitudeDegrees>
            </Position>
            <AltitudeMeters>711.79998779296875</AltitudeMeters>
            <DistanceMeters>NAN</DistanceMeters>
          </Trackpoint>
          <Trackpoint>
            <Time>2021-04-02T10:43:07.000Z</Time>
            <Position>
              <LatitudeDegrees>42.33194567263126373291015625</LatitudeDegrees>
              <LongitudeDegrees>2.60519265197217464447021484375</LongitudeDegrees>
            </Position>
            <AltitudeMeters>712.20001220703125</AltitudeMeters>
            <DistanceMeters>NAN</DistanceMeters>
          </Trackpoint>
          <Trackpoint>
            <Time>2021-04-02T10:43:12.000Z</Time>
            <Position>
              <LatitudeDegrees>42.33194475062191486358642578125</LatitudeDegrees>
              <LongitudeDegrees>2.60520606301724910736083984375</LongitudeDegrees>
            </Position>
            <AltitudeMeters>712.4000244140625</AltitudeMeters>
            <DistanceMeters>NAN</DistanceMeters>
          </Trackpoint>
          <Trackpoint>
            <Time>2021-04-02T10:43:17.000Z</Time>
            <Position>
              <LatitudeDegrees>42.33194257132709026336669921875</LatitudeDegrees>
              <LongitudeDegrees>2.60520748794078826904296875</LongitudeDegrees>
            </Position>
            <AltitudeMeters>712.5999755859375</AltitudeMeters>
            <DistanceMeters>NAN</DistanceMeters>
          </Trackpoint>
          <Trackpoint>
            <Time>2021-04-02T10:43:23.000Z</Time>
            <Position>
              <LatitudeDegrees>42.3319409787654876708984375</LatitudeDegrees>
              <LongitudeDegrees>2.605207823216915130615234375</LongitudeDegrees>
            </Position>
            <AltitudeMeters>712.5999755859375</AltitudeMeters>
            <DistanceMeters>NAN</DistanceMeters>
          </Trackpoint>
          <Trackpoint>
            <Time>2021-04-02T10:43:37.000Z</Time>
            <Position>
              <LatitudeDegrees>42.33192932792007923126220703125</LatitudeDegrees>
              <LongitudeDegrees>2.60519784875214099884033203125</LongitudeDegrees>
            </Position>
            <AltitudeMeters>713</AltitudeMeters>
            <DistanceMeters>NAN</DistanceMeters>
          </Trackpoint>
          <Trackpoint>
            <Time>2021-04-02T10:43:39.000Z</Time>
            <Position>
              <LatitudeDegrees>42.33192698098719120025634765625</LatitudeDegrees>
              <LongitudeDegrees>2.60519675910472869873046875</LongitudeDegrees>
            </Position>
            <AltitudeMeters>713.20001220703125</AltitudeMeters>
            <DistanceMeters>NAN</DistanceMeters>
          </Trackpoint>
          <Trackpoint>
            <Time>2021-04-02T10:43:43.000Z</Time>
            <Position>
              <LatitudeDegrees>42.331923209130764007568359375</LatitudeDegrees>
              <LongitudeDegrees>2.60519382543861865997314453125</LongitudeDegrees>
            </Position>
            <AltitudeMeters>713.20001220703125</AltitudeMeters>
            <DistanceMeters>NAN</DistanceMeters>
          </Trackpoint>
          <Trackpoint>
            <Time>2021-04-02T10:43:47.000Z</Time>
            <Position>
              <LatitudeDegrees>42.3319200240075588226318359375</LatitudeDegrees>
              <LongitudeDegrees>2.6051918976008892059326171875</LongitudeDegrees>
            </Position>
            <AltitudeMeters>713.4000244140625</AltitudeMeters>
            <DistanceMeters>NAN</DistanceMeters>
          </Trackpoint>
          <Trackpoint>
            <Time>2021-04-02T10:43:51.000Z</Time>
            <Position>
              <LatitudeDegrees>42.3319186829030513763427734375</LatitudeDegrees>
              <LongitudeDegrees>2.605191729962825775146484375</LongitudeDegrees>
            </Position>
            <AltitudeMeters>713.79998779296875</AltitudeMeters>
            <DistanceMeters>NAN</DistanceMeters>
          </Trackpoint>
          <Trackpoint>
            <Time>2021-04-02T10:43:57.000Z</Time>
            <Position>
              <LatitudeDegrees>42.3319153301417827606201171875</LatitudeDegrees>
              <LongitudeDegrees>2.60519315488636493682861328125</LongitudeDegrees>
            </Position>
            <AltitudeMeters>713.79998779296875</AltitudeMeters>
            <DistanceMeters>NAN</DistanceMeters>
          </Trackpoint>
          <Trackpoint>
            <Time>2021-04-02T10:44:07.000Z</Time>
            <Position>
              <LatitudeDegrees>42.3318948782980442047119140625</LatitudeDegrees>
              <LongitudeDegrees>2.60520405136048793792724609375</LongitudeDegrees>
            </Position>
            <AltitudeMeters>713.79998779296875</AltitudeMeters>
            <DistanceMeters>NAN</DistanceMeters>
          </Trackpoint>
          <Trackpoint>
            <Time>2021-04-02T10:44:37.000Z</Time>
            <Position>
              <LatitudeDegrees>42.33192111365497112274169921875</LatitudeDegrees>
              <LongitudeDegrees>2.6051861979067325592041015625</LongitudeDegrees>
            </Position>
            <AltitudeMeters>714</AltitudeMeters>
            <DistanceMeters>NAN</DistanceMeters>
          </Trackpoint>
          <Trackpoint>
            <Time>2021-04-02T10:44:40.000Z</Time>
            <Position>
              <LatitudeDegrees>42.33192228712141513824462890625</LatitudeDegrees>
              <LongitudeDegrees>2.60518603026866912841796875</LongitudeDegrees>
            </Position>
            <AltitudeMeters>714.5999755859375</AltitudeMeters>
            <DistanceMeters>NAN</DistanceMeters>
          </Trackpoint>
          <Trackpoint>
            <Time>2021-04-02T10:44:47.000Z</Time>
            <Position>
              <LatitudeDegrees>42.33195950277149677276611328125</LatitudeDegrees>
              <LongitudeDegrees>2.6052282750606536865234375</LongitudeDegrees>
            </Position>
            <AltitudeMeters>715</AltitudeMeters>
            <DistanceMeters>NAN</DistanceMeters>
          </Trackpoint>
          <Trackpoint>
            <Time>2021-04-02T10:44:48.000Z</Time>
            <Position>
              <LatitudeDegrees>42.33196620829403400421142578125</LatitudeDegrees>
              <LongitudeDegrees>2.60523472912609577178955078125</LongitudeDegrees>
            </Position>
            <AltitudeMeters>715.20001220703125</AltitudeMeters>
            <DistanceMeters>NAN</DistanceMeters>
          </Trackpoint>
          <Trackpoint>
            <Time>2021-04-02T10:44:58.000Z</Time>
            <Position>
              <LatitudeDegrees>42.3320189304649829864501953125</LatitudeDegrees>
              <LongitudeDegrees>2.6052720285952091217041015625</LongitudeDegrees>
            </Position>
            <AltitudeMeters>715.4000244140625</AltitudeMeters>
            <DistanceMeters>NAN</DistanceMeters>
          </Trackpoint>
          <Trackpoint>
            <Time>2021-04-02T10:45:04.000Z</Time>
            <Position>
              <LatitudeDegrees>42.3320189304649829864501953125</LatitudeDegrees>
              <LongitudeDegrees>2.6052720285952091217041015625</LongitudeDegrees>
            </Position>
            <AltitudeMeters>715.20001220703125</AltitudeMeters>
            <DistanceMeters>NAN</DistanceMeters>
          </Trackpoint>
          <Trackpoint>
            <Time>2021-04-02T10:45:11.000Z</Time>
            <Position>
              <LatitudeDegrees>42.331962771713733673095703125</LatitudeDegrees>
              <LongitudeDegrees>2.60534402914345264434814453125</LongitudeDegrees>
            </Position>
            <AltitudeMeters>714.79998779296875</AltitudeMeters>
            <DistanceMeters>NAN</DistanceMeters>
          </Trackpoint>
          <Trackpoint>
            <Time>2021-04-02T10:45:14.000Z</Time>
            <Position>
              <LatitudeDegrees>42.33192781917750835418701171875</LatitudeDegrees>
              <LongitudeDegrees>2.6053799875080585479736328125</LongitudeDegrees>
            </Position>
            <AltitudeMeters>714.79998779296875</AltitudeMeters>
            <DistanceMeters>NAN</DistanceMeters>
          </Trackpoint>
          <Trackpoint>
            <Time>2021-04-02T10:45:17.000Z</Time>
            <Position>
              <LatitudeDegrees>42.33191709034144878387451171875</LatitudeDegrees>
              <LongitudeDegrees>2.60538929142057895660400390625</LongitudeDegrees>
            </Position>
            <AltitudeMeters>714.79998779296875</AltitudeMeters>
            <DistanceMeters>NAN</DistanceMeters>
          </Trackpoint>
          <Trackpoint>
            <Time>2021-04-02T10:45:20.000Z</Time>
            <Position>
              <LatitudeDegrees>42.3319302499294281005859375</LatitudeDegrees>
              <LongitudeDegrees>2.60537470690906047821044921875</LongitudeDegrees>
            </Position>
            <AltitudeMeters>714.5999755859375</AltitudeMeters>
            <DistanceMeters>NAN</DistanceMeters>
          </Trackpoint>
          <Trackpoint>
            <Time>2021-04-02T10:45:22.000Z</Time>
            <Position>
              <LatitudeDegrees>42.3319344408810138702392578125</LatitudeDegrees>
              <LongitudeDegrees>2.6053491421043872833251953125</LongitudeDegrees>
            </Position>
            <AltitudeMeters>714.5999755859375</AltitudeMeters>
            <DistanceMeters>NAN</DistanceMeters>
          </Trackpoint>
          <Trackpoint>
            <Time>2021-04-02T10:45:24.000Z</Time>
            <Position>
              <LatitudeDegrees>42.3319491930305957794189453125</LatitudeDegrees>
              <LongitudeDegrees>2.60530999861657619476318359375</LongitudeDegrees>
            </Position>
            <AltitudeMeters>714.5999755859375</AltitudeMeters>
            <DistanceMeters>NAN</DistanceMeters>
          </Trackpoint>
          <Trackpoint>
            <Time>2021-04-02T10:45:31.000Z</Time>
            <Position>
              <LatitudeDegrees>42.3319810442626476287841796875</LatitudeDegrees>
              <LongitudeDegrees>2.60519717819988727569580078125</LongitudeDegrees>
            </Position>
            <AltitudeMeters>715.20001220703125</AltitudeMeters>
            <DistanceMeters>NAN</DistanceMeters>
          </Trackpoint>
          <Trackpoint>
            <Time>2021-04-02T10:45:35.000Z</Time>
            <Position>
              <LatitudeDegrees>42.33201398514211177825927734375</LatitudeDegrees>
              <LongitudeDegrees>2.60519918985664844512939453125</LongitudeDegrees>
            </Position>
            <AltitudeMeters>715.5999755859375</AltitudeMeters>
            <DistanceMeters>NAN</DistanceMeters>
          </Trackpoint>
          <Trackpoint>
            <Time>2021-04-02T10:45:38.000Z</Time>
            <Position>
              <LatitudeDegrees>42.3320294916629791259765625</LatitudeDegrees>
              <LongitudeDegrees>2.6052026264369487762451171875</LongitudeDegrees>
            </Position>
            <AltitudeMeters>716.20001220703125</AltitudeMeters>
            <DistanceMeters>NAN</DistanceMeters>
          </Trackpoint>
          <Trackpoint>
            <Time>2021-04-02T10:45:39.000Z</Time>
            <Position>
              <LatitudeDegrees>42.33203460462391376495361328125</LatitudeDegrees>
              <LongitudeDegrees>2.60521058924496173858642578125</LongitudeDegrees>
            </Position>
            <AltitudeMeters>716.5999755859375</AltitudeMeters>
            <DistanceMeters>NAN</DistanceMeters>
          </Trackpoint>
          <Trackpoint>
            <Time>2021-04-02T10:45:41.000Z</Time>
            <Position>
              <LatitudeDegrees>42.33205103315412998199462890625</LatitudeDegrees>
              <LongitudeDegrees>2.60523824952542781829833984375</LongitudeDegrees>
            </Position>
            <AltitudeMeters>717.20001220703125</AltitudeMeters>
            <DistanceMeters>NAN</DistanceMeters>
          </Trackpoint>
          <Trackpoint>
            <Time>2021-04-02T10:45:43.000Z</Time>
            <Position>
              <LatitudeDegrees>42.33206771314144134521484375</LatitudeDegrees>
              <LongitudeDegrees>2.60525249876081943511962890625</LongitudeDegrees>
            </Position>
            <AltitudeMeters>717.79998779296875</AltitudeMeters>
            <DistanceMeters>NAN</DistanceMeters>
          </Trackpoint>
          <Trackpoint>
            <Time>2021-04-02T10:45:44.000Z</Time>
            <Position>
              <LatitudeDegrees>42.33207299374043941497802734375</LatitudeDegrees>
              <LongitudeDegrees>2.6052576117217540740966796875</LongitudeDegrees>
            </Position>
            <AltitudeMeters>718.4000244140625</AltitudeMeters>
            <DistanceMeters>NAN</DistanceMeters>
          </Trackpoint>
          <Trackpoint>
            <Time>2021-04-02T10:45:45.000Z</Time>
            <Position>
              <LatitudeDegrees>42.33207684941589832305908203125</LatitudeDegrees>
              <LongitudeDegrees>2.60526322759687900543212890625</LongitudeDegrees>
            </Position>
            <AltitudeMeters>718.5999755859375</AltitudeMeters>
            <DistanceMeters>NAN</DistanceMeters>
          </Trackpoint>
          <Trackpoint>
            <Time>2021-04-02T10:45:47.000Z</Time>
            <Position>
              <LatitudeDegrees>42.33208556659519672393798828125</LatitudeDegrees>
              <LongitudeDegrees>2.605269849300384521484375</LongitudeDegrees>
            </Position>
            <AltitudeMeters>718.79998779296875</AltitudeMeters>
            <DistanceMeters>NAN</DistanceMeters>
          </Trackpoint>
          <Trackpoint>
            <Time>2021-04-02T10:45:48.000Z</Time>
            <Position>
              <LatitudeDegrees>42.33209009282290935516357421875</LatitudeDegrees>
              <LongitudeDegrees>2.6052706874907016754150390625</LongitudeDegrees>
            </Position>
            <AltitudeMeters>719</AltitudeMeters>
            <DistanceMeters>NAN</DistanceMeters>
          </Trackpoint>
          <Trackpoint>
            <Time>2021-04-02T10:45:50.000Z</Time>
            <Position>
              <LatitudeDegrees>42.3321044258773326873779296875</LatitudeDegrees>
              <LongitudeDegrees>2.605276890099048614501953125</LongitudeDegrees>
            </Position>
            <AltitudeMeters>719</AltitudeMeters>
            <DistanceMeters>NAN</DistanceMeters>
          </Trackpoint>
          <Trackpoint>
            <Time>2021-04-02T10:45:52.000Z</Time>
            <Position>
              <LatitudeDegrees>42.33211892656981945037841796875</LatitudeDegrees>
              <LongitudeDegrees>2.60529507882893085479736328125</LongitudeDegrees>
            </Position>
            <AltitudeMeters>719.20001220703125</AltitudeMeters>
            <DistanceMeters>NAN</DistanceMeters>
          </Trackpoint>
          <Trackpoint>
            <Time>2021-04-02T10:45:55.000Z</Time>
            <Position>
              <LatitudeDegrees>42.33213837258517742156982421875</LatitudeDegrees>
              <LongitudeDegrees>2.60531703941524028778076171875</LongitudeDegrees>
            </Position>
            <AltitudeMeters>719.5999755859375</AltitudeMeters>
            <DistanceMeters>NAN</DistanceMeters>
          </Trackpoint>
          <Trackpoint>
            <Time>2021-04-02T10:45:58.000Z</Time>
            <Position>
              <LatitudeDegrees>42.3321677930653095245361328125</LatitudeDegrees>
              <LongitudeDegrees>2.60533715598285198211669921875</LongitudeDegrees>
            </Position>
            <AltitudeMeters>720</AltitudeMeters>
            <DistanceMeters>NAN</DistanceMeters>
          </Trackpoint>
          <Trackpoint>
            <Time>2021-04-02T10:46:00.000Z</Time>
            <Position>
              <LatitudeDegrees>42.3321620933711528778076171875</LatitudeDegrees>
              <LongitudeDegrees>2.60535769164562225341796875</LongitudeDegrees>
            </Position>
            <AltitudeMeters>720.4000244140625</AltitudeMeters>
            <DistanceMeters>NAN</DistanceMeters>
          </Trackpoint>
          <Trackpoint>
            <Time>2021-04-02T10:46:02.000Z</Time>
            <Position>
              <LatitudeDegrees>42.3321573995053768157958984375</LatitudeDegrees>
              <LongitudeDegrees>2.60537101887166500091552734375</LongitudeDegrees>
            </Position>
            <AltitudeMeters>720.79998779296875</AltitudeMeters>
            <DistanceMeters>NAN</DistanceMeters>
          </Trackpoint>
          <Trackpoint>
            <Time>2021-04-02T10:46:04.000Z</Time>
            <Position>
              <LatitudeDegrees>42.33213879168033599853515625</LatitudeDegrees>
              <LongitudeDegrees>2.605385519564151763916015625</LongitudeDegrees>
            </Position>
            <AltitudeMeters>721</AltitudeMeters>
            <DistanceMeters>NAN</DistanceMeters>
          </Trackpoint>
          <Trackpoint>
            <Time>2021-04-02T10:46:05.000Z</Time>
            <Position>
              <LatitudeDegrees>42.3321349360048770904541015625</LatitudeDegrees>
              <LongitudeDegrees>2.60539197362959384918212890625</LongitudeDegrees>
            </Position>
            <AltitudeMeters>721</AltitudeMeters>
            <DistanceMeters>NAN</DistanceMeters>
          </Trackpoint>
          <Trackpoint>
            <Time>2021-04-02T10:46:08.000Z</Time>
            <Position>
              <LatitudeDegrees>42.33212596736848354339599609375</LatitudeDegrees>
              <LongitudeDegrees>2.605406977236270904541015625</LongitudeDegrees>
            </Position>
            <AltitudeMeters>721</AltitudeMeters>
            <DistanceMeters>NAN</DistanceMeters>
          </Trackpoint>
          <Trackpoint>
            <Time>2021-04-02T10:46:11.000Z</Time>
            <Position>
              <LatitudeDegrees>42.3321218602359294891357421875</LatitudeDegrees>
              <LongitudeDegrees>2.6054309494793415069580078125</LongitudeDegrees>
            </Position>
            <AltitudeMeters>721</AltitudeMeters>
            <DistanceMeters>NAN</DistanceMeters>
          </Trackpoint>
          <Trackpoint>
            <Time>2021-04-02T10:46:15.000Z</Time>
            <Position>
              <LatitudeDegrees>42.33210652135312557220458984375</LatitudeDegrees>
              <LongitudeDegrees>2.60544125922024250030517578125</LongitudeDegrees>
            </Position>
            <AltitudeMeters>720.79998779296875</AltitudeMeters>
            <DistanceMeters>NAN</DistanceMeters>
          </Trackpoint>
          <Trackpoint>
            <Time>2021-04-02T10:46:17.000Z</Time>
            <Position>
              <LatitudeDegrees>42.33210216276347637176513671875</LatitudeDegrees>
              <LongitudeDegrees>2.6054490543901920318603515625</LongitudeDegrees>
            </Position>
            <AltitudeMeters>720.79998779296875</AltitudeMeters>
            <DistanceMeters>NAN</DistanceMeters>
          </Trackpoint>
          <Trackpoint>
            <Time>2021-04-02T10:46:24.000Z</Time>
            <Position>
              <LatitudeDegrees>42.3321027494966983795166015625</LatitudeDegrees>
              <LongitudeDegrees>2.60547378100454807281494140625</LongitudeDegrees>
            </Position>
            <AltitudeMeters>721</AltitudeMeters>
            <DistanceMeters>NAN</DistanceMeters>
          </Trackpoint>
          <Trackpoint>
            <Time>2021-04-02T10:46:30.000Z</Time>
            <Position>
              <LatitudeDegrees>42.33211691491305828094482421875</LatitudeDegrees>
              <LongitudeDegrees>2.605502195656299591064453125</LongitudeDegrees>
            </Position>
            <AltitudeMeters>722</AltitudeMeters>
            <DistanceMeters>NAN</DistanceMeters>
          </Trackpoint>
          <Trackpoint>
            <Time>2021-04-02T10:46:31.000Z</Time>
            <Position>
              <LatitudeDegrees>42.33212010003626346588134765625</LatitudeDegrees>
              <LongitudeDegrees>2.60550680570304393768310546875</LongitudeDegrees>
            </Position>
            <AltitudeMeters>722.20001220703125</AltitudeMeters>
            <DistanceMeters>NAN</DistanceMeters>
          </Trackpoint>
          <Trackpoint>
            <Time>2021-04-02T10:46:33.000Z</Time>
            <Position>
              <LatitudeDegrees>42.33213820494711399078369140625</LatitudeDegrees>
              <LongitudeDegrees>2.60552390478551387786865234375</LongitudeDegrees>
            </Position>
            <AltitudeMeters>722.79998779296875</AltitudeMeters>
            <DistanceMeters>NAN</DistanceMeters>
          </Trackpoint>
          <Trackpoint>
            <Time>2021-04-02T10:46:37.000Z</Time>
            <Position>
              <LatitudeDegrees>42.33216402120888233184814453125</LatitudeDegrees>
              <LongitudeDegrees>2.605535052716732025146484375</LongitudeDegrees>
            </Position>
            <AltitudeMeters>723.20001220703125</AltitudeMeters>
            <DistanceMeters>NAN</DistanceMeters>
          </Trackpoint>
          <Trackpoint>
            <Time>2021-04-02T10:46:46.000Z</Time>
            <Position>
              <LatitudeDegrees>42.33220852911472320556640625</LatitudeDegrees>
              <LongitudeDegrees>2.60556581430137157440185546875</LongitudeDegrees>
            </Position>
            <AltitudeMeters>724.20001220703125</AltitudeMeters>
            <DistanceMeters>NAN</DistanceMeters>
          </Trackpoint>
          <Trackpoint>
            <Time>2021-04-02T10:46:47.000Z</Time>
            <Position>
              <LatitudeDegrees>42.33221330679953098297119140625</LatitudeDegrees>
              <LongitudeDegrees>2.60557101108133792877197265625</LongitudeDegrees>
            </Position>
            <AltitudeMeters>724.4000244140625</AltitudeMeters>
            <DistanceMeters>NAN</DistanceMeters>
          </Trackpoint>
          <Trackpoint>
            <Time>2021-04-02T10:46:53.000Z</Time>
            <Position>
              <LatitudeDegrees>42.332241721451282501220703125</LatitudeDegrees>
              <LongitudeDegrees>2.60557956062257289886474609375</LongitudeDegrees>
            </Position>
            <AltitudeMeters>725.4000244140625</AltitudeMeters>
            <DistanceMeters>NAN</DistanceMeters>
          </Trackpoint>
          <Trackpoint>
            <Time>2021-04-02T10:46:54.000Z</Time>
            <Position>
              <LatitudeDegrees>42.3322494328022003173828125</LatitudeDegrees>
              <LongitudeDegrees>2.605576626956462860107421875</LongitudeDegrees>
            </Position>
            <AltitudeMeters>725.5999755859375</AltitudeMeters>
            <DistanceMeters>NAN</DistanceMeters>
          </Trackpoint>
          <Trackpoint>
            <Time>2021-04-02T10:46:57.000Z</Time>
            <Position>
              <LatitudeDegrees>42.3322626762092113494873046875</LatitudeDegrees>
              <LongitudeDegrees>2.605567909777164459228515625</LongitudeDegrees>
            </Position>
            <AltitudeMeters>725.79998779296875</AltitudeMeters>
            <DistanceMeters>NAN</DistanceMeters>
          </Trackpoint>
          <Trackpoint>
            <Time>2021-04-02T10:47:01.000Z</Time>
            <Position>
              <LatitudeDegrees>42.33228421770036220550537109375</LatitudeDegrees>
              <LongitudeDegrees>2.605564557015895843505859375</LongitudeDegrees>
            </Position>
            <AltitudeMeters>726.20001220703125</AltitudeMeters>
            <DistanceMeters>NAN</DistanceMeters>
          </Trackpoint>
          <Trackpoint>
            <Time>2021-04-02T10:47:03.000Z</Time>
            <Position>
              <LatitudeDegrees>42.3322988860309123992919921875</LatitudeDegrees>
              <LongitudeDegrees>2.6055570133030414581298828125</LongitudeDegrees>
            </Position>
            <AltitudeMeters>726.5999755859375</AltitudeMeters>
            <DistanceMeters>NAN</DistanceMeters>
          </Trackpoint>
          <Trackpoint>
            <Time>2021-04-02T10:47:07.000Z</Time>
            <Position>
              <LatitudeDegrees>42.3323245346546173095703125</LatitudeDegrees>
              <LongitudeDegrees>2.60554905049502849578857421875</LongitudeDegrees>
            </Position>
            <AltitudeMeters>727.5999755859375</AltitudeMeters>
            <DistanceMeters>NAN</DistanceMeters>
          </Trackpoint>
          <Trackpoint>
            <Time>2021-04-02T10:47:08.000Z</Time>
            <Position>
              <LatitudeDegrees>42.332331240177154541015625</LatitudeDegrees>
              <LongitudeDegrees>2.60554620064795017242431640625</LongitudeDegrees>
            </Position>
            <AltitudeMeters>727.79998779296875</AltitudeMeters>
            <DistanceMeters>NAN</DistanceMeters>
          </Trackpoint>
          <Trackpoint>
            <Time>2021-04-02T10:47:10.000Z</Time>
            <Position>
              <LatitudeDegrees>42.33234289102256298065185546875</LatitudeDegrees>
              <LongitudeDegrees>2.60554368607699871063232421875</LongitudeDegrees>
            </Position>
            <AltitudeMeters>728</AltitudeMeters>
            <DistanceMeters>NAN</DistanceMeters>
          </Trackpoint>
          <Trackpoint>
            <Time>2021-04-02T10:47:12.000Z</Time>
            <Position>
              <LatitudeDegrees>42.3323552124202251434326171875</LatitudeDegrees>
              <LongitudeDegrees>2.60554251261055469512939453125</LongitudeDegrees>
            </Position>
            <AltitudeMeters>728.20001220703125</AltitudeMeters>
            <DistanceMeters>NAN</DistanceMeters>
          </Trackpoint>
          <Trackpoint>
            <Time>2021-04-02T10:47:13.000Z</Time>
            <Position>
              <LatitudeDegrees>42.33236082829535007476806640625</LatitudeDegrees>
              <LongitudeDegrees>2.60554670356214046478271484375</LongitudeDegrees>
            </Position>
            <AltitudeMeters>728.20001220703125</AltitudeMeters>
            <DistanceMeters>NAN</DistanceMeters>
          </Trackpoint>
          <Trackpoint>
            <Time>2021-04-02T10:47:16.000Z</Time>
            <Position>
              <LatitudeDegrees>42.33237893320620059967041015625</LatitudeDegrees>
              <LongitudeDegrees>2.605565898120403289794921875</LongitudeDegrees>
            </Position>
            <AltitudeMeters>728.4000244140625</AltitudeMeters>
            <DistanceMeters>NAN</DistanceMeters>
          </Trackpoint>
          <Trackpoint>
            <Time>2021-04-02T10:47:17.000Z</Time>
            <Position>
              <LatitudeDegrees>42.3323835432529449462890625</LatitudeDegrees>
              <LongitudeDegrees>2.60557838715612888336181640625</LongitudeDegrees>
            </Position>
            <AltitudeMeters>728.79998779296875</AltitudeMeters>
            <DistanceMeters>NAN</DistanceMeters>
          </Trackpoint>
          <Trackpoint>
            <Time>2021-04-02T10:47:19.000Z</Time>
            <Position>
              <LatitudeDegrees>42.3323904164135456085205078125</LatitudeDegrees>
              <LongitudeDegrees>2.60559230111539363861083984375</LongitudeDegrees>
            </Position>
            <AltitudeMeters>729.20001220703125</AltitudeMeters>
            <DistanceMeters>NAN</DistanceMeters>
          </Trackpoint>
          <Trackpoint>
            <Time>2021-04-02T10:47:23.000Z</Time>
            <Position>
              <LatitudeDegrees>42.33240701258182525634765625</LatitudeDegrees>
              <LongitudeDegrees>2.6056210510432720184326171875</LongitudeDegrees>
            </Position>
            <AltitudeMeters>729.79998779296875</AltitudeMeters>
            <DistanceMeters>NAN</DistanceMeters>
          </Trackpoint>
          <Trackpoint>
            <Time>2021-04-02T10:47:25.000Z</Time>
            <Position>
              <LatitudeDegrees>42.33240776695311069488525390625</LatitudeDegrees>
              <LongitudeDegrees>2.60563521645963191986083984375</LongitudeDegrees>
            </Position>
            <AltitudeMeters>730.4000244140625</AltitudeMeters>
            <DistanceMeters>NAN</DistanceMeters>
          </Trackpoint>
          <Trackpoint>
            <Time>2021-04-02T10:47:29.000Z</Time>
            <Position>
              <LatitudeDegrees>42.332418747246265411376953125</LatitudeDegrees>
              <LongitudeDegrees>2.60566572658717632293701171875</LongitudeDegrees>
            </Position>
            <AltitudeMeters>730.79998779296875</AltitudeMeters>
            <DistanceMeters>NAN</DistanceMeters>
          </Trackpoint>
          <Trackpoint>
            <Time>2021-04-02T10:47:30.000Z</Time>
            <Position>
              <LatitudeDegrees>42.332419417798519134521484375</LatitudeDegrees>
              <LongitudeDegrees>2.60567276738584041595458984375</LongitudeDegrees>
            </Position>
            <AltitudeMeters>730.79998779296875</AltitudeMeters>
            <DistanceMeters>NAN</DistanceMeters>
          </Trackpoint>
          <Trackpoint>
            <Time>2021-04-02T10:47:31.000Z</Time>
            <Position>
              <LatitudeDegrees>42.33241883106529712677001953125</LatitudeDegrees>
              <LongitudeDegrees>2.60567813180387020111083984375</LongitudeDegrees>
            </Position>
            <AltitudeMeters>731.20001220703125</AltitudeMeters>
            <DistanceMeters>NAN</DistanceMeters>
          </Trackpoint>
          <Trackpoint>
            <Time>2021-04-02T10:47:37.000Z</Time>
            <Position>
              <LatitudeDegrees>42.332425452768802642822265625</LatitudeDegrees>
              <LongitudeDegrees>2.6056844182312488555908203125</LongitudeDegrees>
            </Position>
            <AltitudeMeters>732</AltitudeMeters>
            <DistanceMeters>NAN</DistanceMeters>
          </Trackpoint>
          <Trackpoint>
            <Time>2021-04-02T10:47:42.000Z</Time>
            <Position>
              <LatitudeDegrees>42.33243190683424472808837890625</LatitudeDegrees>
              <LongitudeDegrees>2.6056917943060398101806640625</LongitudeDegrees>
            </Position>
            <AltitudeMeters>731.79998779296875</AltitudeMeters>
            <DistanceMeters>NAN</DistanceMeters>
          </Trackpoint>
          <Trackpoint>
            <Time>2021-04-02T10:47:51.000Z</Time>
            <Position>
              <LatitudeDegrees>42.33241748996078968048095703125</LatitudeDegrees>
              <LongitudeDegrees>2.6056495495140552520751953125</LongitudeDegrees>
            </Position>
            <AltitudeMeters>730.5999755859375</AltitudeMeters>
            <DistanceMeters>NAN</DistanceMeters>
          </Trackpoint>
          <Trackpoint>
            <Time>2021-04-02T10:47:54.000Z</Time>
            <Position>
              <LatitudeDegrees>42.33240223489701747894287109375</LatitudeDegrees>
              <LongitudeDegrees>2.60559582151472568511962890625</LongitudeDegrees>
            </Position>
            <AltitudeMeters>730.20001220703125</AltitudeMeters>
            <DistanceMeters>NAN</DistanceMeters>
          </Trackpoint>
          <Trackpoint>
            <Time>2021-04-02T10:48:00.000Z</Time>
            <Position>
              <LatitudeDegrees>42.33239687047898769378662109375</LatitudeDegrees>
              <LongitudeDegrees>2.60549289174377918243408203125</LongitudeDegrees>
            </Position>
            <AltitudeMeters>729.79998779296875</AltitudeMeters>
            <DistanceMeters>NAN</DistanceMeters>
          </Trackpoint>
          <Trackpoint>
            <Time>2021-04-02T10:48:01.000Z</Time>
            <Position>
              <LatitudeDegrees>42.33240156434476375579833984375</LatitudeDegrees>
              <LongitudeDegrees>2.60548216290771961212158203125</LongitudeDegrees>
            </Position>
            <AltitudeMeters>729.79998779296875</AltitudeMeters>
            <DistanceMeters>NAN</DistanceMeters>
          </Trackpoint>
          <Trackpoint>
            <Time>2021-04-02T10:48:05.000Z</Time>
            <Position>
              <LatitudeDegrees>42.33243308030068874359130859375</LatitudeDegrees>
              <LongitudeDegrees>2.60545416735112667083740234375</LongitudeDegrees>
            </Position>
            <AltitudeMeters>730.20001220703125</AltitudeMeters>
            <DistanceMeters>NAN</DistanceMeters>
          </Trackpoint>
          <Trackpoint>
            <Time>2021-04-02T10:48:07.000Z</Time>
            <Position>
              <LatitudeDegrees>42.33244330622255802154541015625</LatitudeDegrees>
              <LongitudeDegrees>2.60544444434344768524169921875</LongitudeDegrees>
            </Position>
            <AltitudeMeters>730.4000244140625</AltitudeMeters>
            <DistanceMeters>NAN</DistanceMeters>
          </Trackpoint>
          <Trackpoint>
            <Time>2021-04-02T10:48:09.000Z</Time>
            <Position>
              <LatitudeDegrees>42.3324544541537761688232421875</LatitudeDegrees>
              <LongitudeDegrees>2.60544209741055965423583984375</LongitudeDegrees>
            </Position>
            <AltitudeMeters>730.79998779296875</AltitudeMeters>
            <DistanceMeters>NAN</DistanceMeters>
          </Trackpoint>
          <Trackpoint>
            <Time>2021-04-02T10:48:12.000Z</Time>
            <Position>
              <LatitudeDegrees>42.33247934840619564056396484375</LatitudeDegrees>
              <LongitudeDegrees>2.6054503954946994781494140625</LongitudeDegrees>
            </Position>
            <AltitudeMeters>731.20001220703125</AltitudeMeters>
            <DistanceMeters>NAN</DistanceMeters>
          </Trackpoint>
          <Trackpoint>
            <Time>2021-04-02T10:48:17.000Z</Time>
            <Position>
              <LatitudeDegrees>42.3325002193450927734375</LatitudeDegrees>
              <LongitudeDegrees>2.60546120814979076385498046875</LongitudeDegrees>
            </Position>
            <AltitudeMeters>732.20001220703125</AltitudeMeters>
            <DistanceMeters>NAN</DistanceMeters>
          </Trackpoint>
          <Trackpoint>
            <Time>2021-04-02T10:48:18.000Z</Time>
            <Position>
              <LatitudeDegrees>42.33250332064926624298095703125</LatitudeDegrees>
              <LongitudeDegrees>2.60546120814979076385498046875</LongitudeDegrees>
            </Position>
            <AltitudeMeters>732.4000244140625</AltitudeMeters>
            <DistanceMeters>NAN</DistanceMeters>
          </Trackpoint>
          <Trackpoint>
            <Time>2021-04-02T10:48:19.000Z</Time>
            <Position>
              <LatitudeDegrees>42.3325077630579471588134765625</LatitudeDegrees>
              <LongitudeDegrees>2.60546422563493251800537109375</LongitudeDegrees>
            </Position>
            <AltitudeMeters>732.5999755859375</AltitudeMeters>
            <DistanceMeters>NAN</DistanceMeters>
          </Trackpoint>
          <Trackpoint>
            <Time>2021-04-02T10:48:21.000Z</Time>
            <Position>
              <LatitudeDegrees>42.3325137980282306671142578125</LatitudeDegrees>
              <LongitudeDegrees>2.60545316152274608612060546875</LongitudeDegrees>
            </Position>
            <AltitudeMeters>733</AltitudeMeters>
            <DistanceMeters>NAN</DistanceMeters>
          </Trackpoint>
          <Trackpoint>
            <Time>2021-04-02T10:48:25.000Z</Time>
            <Position>
              <LatitudeDegrees>42.3325382731854915618896484375</LatitudeDegrees>
              <LongitudeDegrees>2.60543321259319782257080078125</LongitudeDegrees>
            </Position>
            <AltitudeMeters>733.5999755859375</AltitudeMeters>
            <DistanceMeters>NAN</DistanceMeters>
          </Trackpoint>
          <Trackpoint>
            <Time>2021-04-02T10:48:32.000Z</Time>
            <Position>
              <LatitudeDegrees>42.33257339335978031158447265625</LatitudeDegrees>
              <LongitudeDegrees>2.60538778267800807952880859375</LongitudeDegrees>
            </Position>
            <AltitudeMeters>734.5999755859375</AltitudeMeters>
            <DistanceMeters>NAN</DistanceMeters>
          </Trackpoint>
          <Trackpoint>
            <Time>2021-04-02T10:48:41.000Z</Time>
            <Position>
              <LatitudeDegrees>42.33264178968966007232666015625</LatitudeDegrees>
              <LongitudeDegrees>2.6053575240075588226318359375</LongitudeDegrees>
            </Position>
            <AltitudeMeters>735.79998779296875</AltitudeMeters>
            <DistanceMeters>NAN</DistanceMeters>
          </Trackpoint>
          <Trackpoint>
            <Time>2021-04-02T10:48:42.000Z</Time>
            <Position>
              <LatitudeDegrees>42.33264815993607044219970703125</LatitudeDegrees>
              <LongitudeDegrees>2.6053602062165737152099609375</LongitudeDegrees>
            </Position>
            <AltitudeMeters>735.79998779296875</AltitudeMeters>
            <DistanceMeters>NAN</DistanceMeters>
          </Trackpoint>
          <Trackpoint>
            <Time>2021-04-02T10:48:47.000Z</Time>
            <Position>
              <LatitudeDegrees>42.33267380855977535247802734375</LatitudeDegrees>
              <LongitudeDegrees>2.605408318340778350830078125</LongitudeDegrees>
            </Position>
            <AltitudeMeters>736.79998779296875</AltitudeMeters>
            <DistanceMeters>NAN</DistanceMeters>
          </Trackpoint>
          <Trackpoint>
            <Time>2021-04-02T10:48:51.000Z</Time>
            <Position>
              <LatitudeDegrees>42.33268386684358119964599609375</LatitudeDegrees>
              <LongitudeDegrees>2.6054535806179046630859375</LongitudeDegrees>
            </Position>
            <AltitudeMeters>737.5999755859375</AltitudeMeters>
            <DistanceMeters>NAN</DistanceMeters>
          </Trackpoint>
          <Trackpoint>
            <Time>2021-04-02T10:48:53.000Z</Time>
            <Position>
              <LatitudeDegrees>42.3326839506626129150390625</LatitudeDegrees>
              <LongitudeDegrees>2.60547704994678497314453125</LongitudeDegrees>
            </Position>
            <AltitudeMeters>737.79998779296875</AltitudeMeters>
            <DistanceMeters>NAN</DistanceMeters>
          </Trackpoint>
          <Trackpoint>
            <Time>2021-04-02T10:48:58.000Z</Time>
            <Position>
              <LatitudeDegrees>42.332674227654933929443359375</LatitudeDegrees>
              <LongitudeDegrees>2.60553228668868541717529296875</LongitudeDegrees>
            </Position>
            <AltitudeMeters>738.5999755859375</AltitudeMeters>
            <DistanceMeters>NAN</DistanceMeters>
          </Trackpoint>
          <Trackpoint>
            <Time>2021-04-02T10:49:01.000Z</Time>
            <Position>
              <LatitudeDegrees>42.3326747305691242218017578125</LatitudeDegrees>
              <LongitudeDegrees>2.60556296445429325103759765625</LongitudeDegrees>
            </Position>
            <AltitudeMeters>738.79998779296875</AltitudeMeters>
            <DistanceMeters>NAN</DistanceMeters>
          </Trackpoint>
          <Trackpoint>
            <Time>2021-04-02T10:49:02.000Z</Time>
            <Position>
              <LatitudeDegrees>42.33267313800752162933349609375</LatitudeDegrees>
              <LongitudeDegrees>2.6055754534900188446044921875</LongitudeDegrees>
            </Position>
            <AltitudeMeters>739</AltitudeMeters>
            <DistanceMeters>NAN</DistanceMeters>
          </Trackpoint>
          <Trackpoint>
            <Time>2021-04-02T10:49:04.000Z</Time>
            <Position>
              <LatitudeDegrees>42.33266693539917469024658203125</LatitudeDegrees>
              <LongitudeDegrees>2.60559414513409137725830078125</LongitudeDegrees>
            </Position>
            <AltitudeMeters>739.4000244140625</AltitudeMeters>
            <DistanceMeters>NAN</DistanceMeters>
          </Trackpoint>
          <Trackpoint>
            <Time>2021-04-02T10:49:08.000Z</Time>
            <Position>
              <LatitudeDegrees>42.3326552845537662506103515625</LatitudeDegrees>
              <LongitudeDegrees>2.6056374795734882354736328125</LongitudeDegrees>
            </Position>
            <AltitudeMeters>739.5999755859375</AltitudeMeters>
            <DistanceMeters>NAN</DistanceMeters>
          </Trackpoint>
          <Trackpoint>
            <Time>2021-04-02T10:49:17.000Z</Time>
            <Position>
              <LatitudeDegrees>42.332674562931060791015625</LatitudeDegrees>
              <LongitudeDegrees>2.60576262138783931732177734375</LongitudeDegrees>
            </Position>
            <AltitudeMeters>739.79998779296875</AltitudeMeters>
            <DistanceMeters>NAN</DistanceMeters>
          </Trackpoint>
          <Trackpoint>
            <Time>2021-04-02T10:49:21.000Z</Time>
            <Position>
              <LatitudeDegrees>42.3326733894646167755126953125</LatitudeDegrees>
              <LongitudeDegrees>2.6058124937117099761962890625</LongitudeDegrees>
            </Position>
            <AltitudeMeters>740</AltitudeMeters>
            <DistanceMeters>NAN</DistanceMeters>
          </Trackpoint>
          <Trackpoint>
            <Time>2021-04-02T10:49:24.000Z</Time>
            <Position>
              <LatitudeDegrees>42.33267129398882389068603515625</LatitudeDegrees>
              <LongitudeDegrees>2.6058483682572841644287109375</LongitudeDegrees>
            </Position>
            <AltitudeMeters>740.20001220703125</AltitudeMeters>
            <DistanceMeters>NAN</DistanceMeters>
          </Trackpoint>
          <Trackpoint>
            <Time>2021-04-02T10:49:32.000Z</Time>
            <Position>
              <LatitudeDegrees>42.332696355879306793212890625</LatitudeDegrees>
              <LongitudeDegrees>2.60594098828732967376708984375</LongitudeDegrees>
            </Position>
            <AltitudeMeters>740.4000244140625</AltitudeMeters>
            <DistanceMeters>NAN</DistanceMeters>
          </Trackpoint>
          <Trackpoint>
            <Time>2021-04-02T10:49:40.000Z</Time>
            <Position>
              <LatitudeDegrees>42.3326998762786388397216796875</LatitudeDegrees>
              <LongitudeDegrees>2.6059663854539394378662109375</LongitudeDegrees>
            </Position>
            <AltitudeMeters>740.4000244140625</AltitudeMeters>
            <DistanceMeters>NAN</DistanceMeters>
          </Trackpoint>
          <Trackpoint>
            <Time>2021-04-02T10:49:45.000Z</Time>
            <Position>
              <LatitudeDegrees>42.332692332565784454345703125</LatitudeDegrees>
              <LongitudeDegrees>2.6059687323868274688720703125</LongitudeDegrees>
            </Position>
            <AltitudeMeters>740.4000244140625</AltitudeMeters>
            <DistanceMeters>NAN</DistanceMeters>
          </Trackpoint>
          <Trackpoint>
            <Time>2021-04-02T10:49:47.000Z</Time>
            <Position>
              <LatitudeDegrees>42.332692332565784454345703125</LatitudeDegrees>
              <LongitudeDegrees>2.6059687323868274688720703125</LongitudeDegrees>
            </Position>
            <AltitudeMeters>740.4000244140625</AltitudeMeters>
            <DistanceMeters>NAN</DistanceMeters>
          </Trackpoint>
          <Trackpoint>
            <Time>2021-04-02T10:49:58.000Z</Time>
            <Position>
              <LatitudeDegrees>42.332692332565784454345703125</LatitudeDegrees>
              <LongitudeDegrees>2.6059687323868274688720703125</LongitudeDegrees>
            </Position>
            <AltitudeMeters>741</AltitudeMeters>
            <DistanceMeters>NAN</DistanceMeters>
          </Trackpoint>
          <Trackpoint>
            <Time>2021-04-02T10:50:03.000Z</Time>
            <Position>
              <LatitudeDegrees>42.332660816609859466552734375</LatitudeDegrees>
              <LongitudeDegrees>2.60591366328299045562744140625</LongitudeDegrees>
            </Position>
            <AltitudeMeters>741.4000244140625</AltitudeMeters>
            <DistanceMeters>NAN</DistanceMeters>
          </Trackpoint>
          <Trackpoint>
            <Time>2021-04-02T10:50:05.000Z</Time>
            <Position>
              <LatitudeDegrees>42.3326462320983409881591796875</LatitudeDegrees>
              <LongitudeDegrees>2.605892121791839599609375</LongitudeDegrees>
            </Position>
            <AltitudeMeters>741.4000244140625</AltitudeMeters>
            <DistanceMeters>NAN</DistanceMeters>
          </Trackpoint>
          <Trackpoint>
            <Time>2021-04-02T11:31:39.000Z</Time>
            <Position>
              <LatitudeDegrees>42.3325838707387447357177734375</LatitudeDegrees>
              <LongitudeDegrees>2.606102339923381805419921875</LongitudeDegrees>
            </Position>
            <AltitudeMeters>744.79998779296875</AltitudeMeters>
            <DistanceMeters>NAN</DistanceMeters>
          </Trackpoint>
          <Trackpoint>
            <Time>2021-04-02T11:31:40.000Z</Time>
            <Position>
              <LatitudeDegrees>42.33271940611302852630615234375</LatitudeDegrees>
              <LongitudeDegrees>2.6060538925230503082275390625</LongitudeDegrees>
            </Position>
            <AltitudeMeters>744.79998779296875</AltitudeMeters>
            <DistanceMeters>NAN</DistanceMeters>
          </Trackpoint>
          <Trackpoint>
            <Time>2021-04-02T11:31:42.000Z</Time>
            <Position>
              <LatitudeDegrees>42.3326049931347370147705078125</LatitudeDegrees>
              <LongitudeDegrees>2.60592724196612834930419921875</LongitudeDegrees>
            </Position>
            <AltitudeMeters>744.79998779296875</AltitudeMeters>
            <DistanceMeters>NAN</DistanceMeters>
          </Trackpoint>
          <Trackpoint>
            <Time>2021-04-02T11:31:54.000Z</Time>
            <Position>
              <LatitudeDegrees>42.332615219056606292724609375</LatitudeDegrees>
              <LongitudeDegrees>2.60583722032606601715087890625</LongitudeDegrees>
            </Position>
            <AltitudeMeters>745</AltitudeMeters>
            <DistanceMeters>NAN</DistanceMeters>
          </Trackpoint>
          <Trackpoint>
            <Time>2021-04-02T11:31:57.000Z</Time>
            <Position>
              <LatitudeDegrees>42.3326167277991771697998046875</LatitudeDegrees>
              <LongitudeDegrees>2.6058478653430938720703125</LongitudeDegrees>
            </Position>
            <AltitudeMeters>745.20001220703125</AltitudeMeters>
            <DistanceMeters>NAN</DistanceMeters>
          </Trackpoint>
          <Trackpoint>
            <Time>2021-04-02T11:32:05.000Z</Time>
            <Position>
              <LatitudeDegrees>42.33266852796077728271484375</LatitudeDegrees>
              <LongitudeDegrees>2.60582850314676761627197265625</LongitudeDegrees>
            </Position>
            <AltitudeMeters>745.20001220703125</AltitudeMeters>
            <DistanceMeters>NAN</DistanceMeters>
          </Trackpoint>
          <Trackpoint>
            <Time>2021-04-02T11:32:09.000Z</Time>
            <Position>
              <LatitudeDegrees>42.33265151269733905792236328125</LatitudeDegrees>
              <LongitudeDegrees>2.60584124363958835601806640625</LongitudeDegrees>
            </Position>
            <AltitudeMeters>745.4000244140625</AltitudeMeters>
            <DistanceMeters>NAN</DistanceMeters>
          </Trackpoint>
          <Trackpoint>
            <Time>2021-04-02T11:32:11.000Z</Time>
            <Position>
              <LatitudeDegrees>42.332645393908023834228515625</LatitudeDegrees>
              <LongitudeDegrees>2.60584275238215923309326171875</LongitudeDegrees>
            </Position>
            <AltitudeMeters>745.20001220703125</AltitudeMeters>
            <DistanceMeters>NAN</DistanceMeters>
          </Trackpoint>
          <Trackpoint>
            <Time>2021-04-02T11:32:16.000Z</Time>
            <Position>
              <LatitudeDegrees>42.33264447189867496490478515625</LatitudeDegrees>
              <LongitudeDegrees>2.60584275238215923309326171875</LongitudeDegrees>
            </Position>
            <AltitudeMeters>745.20001220703125</AltitudeMeters>
            <DistanceMeters>NAN</DistanceMeters>
          </Trackpoint>
          <Trackpoint>
            <Time>2021-04-02T11:32:17.000Z</Time>
            <Position>
              <LatitudeDegrees>42.33264447189867496490478515625</LatitudeDegrees>
              <LongitudeDegrees>2.60584275238215923309326171875</LongitudeDegrees>
            </Position>
            <AltitudeMeters>745.20001220703125</AltitudeMeters>
            <DistanceMeters>NAN</DistanceMeters>
          </Trackpoint>
          <Trackpoint>
            <Time>2021-04-02T11:32:24.000Z</Time>
            <Position>
              <LatitudeDegrees>42.33264095149934291839599609375</LatitudeDegrees>
              <LongitudeDegrees>2.60580268688499927520751953125</LongitudeDegrees>
            </Position>
            <AltitudeMeters>744.5999755859375</AltitudeMeters>
            <DistanceMeters>NAN</DistanceMeters>
          </Trackpoint>
          <Trackpoint>
            <Time>2021-04-02T11:32:26.000Z</Time>
            <Position>
              <LatitudeDegrees>42.33263776637613773345947265625</LatitudeDegrees>
              <LongitudeDegrees>2.6057638786733150482177734375</LongitudeDegrees>
            </Position>
            <AltitudeMeters>744.5999755859375</AltitudeMeters>
            <DistanceMeters>NAN</DistanceMeters>
          </Trackpoint>
          <Trackpoint>
            <Time>2021-04-02T11:32:30.000Z</Time>
            <Position>
              <LatitudeDegrees>42.3326381854712963104248046875</LatitudeDegrees>
              <LongitudeDegrees>2.60567896999418735504150390625</LongitudeDegrees>
            </Position>
            <AltitudeMeters>744.5999755859375</AltitudeMeters>
            <DistanceMeters>NAN</DistanceMeters>
          </Trackpoint>
          <Trackpoint>
            <Time>2021-04-02T11:32:37.000Z</Time>
            <Position>
              <LatitudeDegrees>42.33265704475343227386474609375</LatitudeDegrees>
              <LongitudeDegrees>2.605589367449283599853515625</LongitudeDegrees>
            </Position>
            <AltitudeMeters>744.20001220703125</AltitudeMeters>
            <DistanceMeters>NAN</DistanceMeters>
          </Trackpoint>
          <Trackpoint>
            <Time>2021-04-02T11:32:45.000Z</Time>
            <Position>
              <LatitudeDegrees>42.3326673544943332672119140625</LatitudeDegrees>
              <LongitudeDegrees>2.6054986752569675445556640625</LongitudeDegrees>
            </Position>
            <AltitudeMeters>743</AltitudeMeters>
            <DistanceMeters>NAN</DistanceMeters>
          </Trackpoint>
          <Trackpoint>
            <Time>2021-04-02T11:32:47.000Z</Time>
            <Position>
              <LatitudeDegrees>42.33266140334308147430419921875</LatitudeDegrees>
              <LongitudeDegrees>2.605479396879673004150390625</LongitudeDegrees>
            </Position>
            <AltitudeMeters>742.4000244140625</AltitudeMeters>
            <DistanceMeters>NAN</DistanceMeters>
          </Trackpoint>
          <Trackpoint>
            <Time>2021-04-02T11:32:50.000Z</Time>
            <Position>
              <LatitudeDegrees>42.33266056515276432037353515625</LatitudeDegrees>
              <LongitudeDegrees>2.605461962521076202392578125</LongitudeDegrees>
            </Position>
            <AltitudeMeters>741.79998779296875</AltitudeMeters>
            <DistanceMeters>NAN</DistanceMeters>
          </Trackpoint>
          <Trackpoint>
            <Time>2021-04-02T11:32:56.000Z</Time>
            <Position>
              <LatitudeDegrees>42.33265385963022708892822265625</LatitudeDegrees>
              <LongitudeDegrees>2.60536439716815948486328125</LongitudeDegrees>
            </Position>
            <AltitudeMeters>740.79998779296875</AltitudeMeters>
            <DistanceMeters>NAN</DistanceMeters>
          </Trackpoint>
          <Trackpoint>
            <Time>2021-04-02T11:33:03.000Z</Time>
            <Position>
              <LatitudeDegrees>42.33268705196678638458251953125</LatitudeDegrees>
              <LongitudeDegrees>2.6052703522145748138427734375</LongitudeDegrees>
            </Position>
            <AltitudeMeters>739.79998779296875</AltitudeMeters>
            <DistanceMeters>NAN</DistanceMeters>
          </Trackpoint>
          <Trackpoint>
            <Time>2021-04-02T11:33:05.000Z</Time>
            <Position>
              <LatitudeDegrees>42.33269660733640193939208984375</LatitudeDegrees>
              <LongitudeDegrees>2.60525383986532688140869140625</LongitudeDegrees>
            </Position>
            <AltitudeMeters>739.20001220703125</AltitudeMeters>
            <DistanceMeters>NAN</DistanceMeters>
          </Trackpoint>
          <Trackpoint>
            <Time>2021-04-02T11:33:10.000Z</Time>
            <Position>
              <LatitudeDegrees>42.33270582742989063262939453125</LatitudeDegrees>
              <LongitudeDegrees>2.60521410964429378509521484375</LongitudeDegrees>
            </Position>
            <AltitudeMeters>738.5999755859375</AltitudeMeters>
            <DistanceMeters>NAN</DistanceMeters>
          </Trackpoint>
          <Trackpoint>
            <Time>2021-04-02T11:33:13.000Z</Time>
            <Position>
              <LatitudeDegrees>42.33270331285893917083740234375</LatitudeDegrees>
              <LongitudeDegrees>2.60518996976315975189208984375</LongitudeDegrees>
            </Position>
            <AltitudeMeters>738.20001220703125</AltitudeMeters>
            <DistanceMeters>NAN</DistanceMeters>
          </Trackpoint>
          <Trackpoint>
            <Time>2021-04-02T11:33:16.000Z</Time>
            <Position>
              <LatitudeDegrees>42.33271605335175991058349609375</LatitudeDegrees>
              <LongitudeDegrees>2.6051580347120761871337890625</LongitudeDegrees>
            </Position>
            <AltitudeMeters>737.4000244140625</AltitudeMeters>
            <DistanceMeters>NAN</DistanceMeters>
          </Trackpoint>
          <Trackpoint>
            <Time>2021-04-02T11:33:17.000Z</Time>
            <Position>
              <LatitudeDegrees>42.3327216692268848419189453125</LatitudeDegrees>
              <LongitudeDegrees>2.60515116155147552490234375</LongitudeDegrees>
            </Position>
            <AltitudeMeters>737.4000244140625</AltitudeMeters>
            <DistanceMeters>NAN</DistanceMeters>
          </Trackpoint>
          <Trackpoint>
            <Time>2021-04-02T11:33:21.000Z</Time>
            <Position>
              <LatitudeDegrees>42.33274153433740139007568359375</LatitudeDegrees>
              <LongitudeDegrees>2.60511922650039196014404296875</LongitudeDegrees>
            </Position>
            <AltitudeMeters>736.4000244140625</AltitudeMeters>
            <DistanceMeters>NAN</DistanceMeters>
          </Trackpoint>
          <Trackpoint>
            <Time>2021-04-02T11:33:29.000Z</Time>
            <Position>
              <LatitudeDegrees>42.33277522958815097808837890625</LatitudeDegrees>
              <LongitudeDegrees>2.60503557510673999786376953125</LongitudeDegrees>
            </Position>
            <AltitudeMeters>735.4000244140625</AltitudeMeters>
            <DistanceMeters>NAN</DistanceMeters>
          </Trackpoint>
          <Trackpoint>
            <Time>2021-04-02T11:33:30.000Z</Time>
            <Position>
              <LatitudeDegrees>42.33277715742588043212890625</LatitudeDegrees>
              <LongitudeDegrees>2.605028115212917327880859375</LongitudeDegrees>
            </Position>
            <AltitudeMeters>735.20001220703125</AltitudeMeters>
            <DistanceMeters>NAN</DistanceMeters>
          </Trackpoint>
          <Trackpoint>
            <Time>2021-04-02T11:33:31.000Z</Time>
            <Position>
              <LatitudeDegrees>42.33277338556945323944091796875</LatitudeDegrees>
              <LongitudeDegrees>2.60501713491976261138916015625</LongitudeDegrees>
            </Position>
            <AltitudeMeters>735.20001220703125</AltitudeMeters>
            <DistanceMeters>NAN</DistanceMeters>
          </Trackpoint>
          <Trackpoint>
            <Time>2021-04-02T11:33:34.000Z</Time>
            <Position>
              <LatitudeDegrees>42.33278612606227397918701171875</LatitudeDegrees>
              <LongitudeDegrees>2.6049860380589962005615234375</LongitudeDegrees>
            </Position>
            <AltitudeMeters>734.5999755859375</AltitudeMeters>
            <DistanceMeters>NAN</DistanceMeters>
          </Trackpoint>
          <Trackpoint>
            <Time>2021-04-02T11:33:35.000Z</Time>
            <Position>
              <LatitudeDegrees>42.332796938717365264892578125</LatitudeDegrees>
              <LongitudeDegrees>2.60498209856450557708740234375</LongitudeDegrees>
            </Position>
            <AltitudeMeters>734.20001220703125</AltitudeMeters>
            <DistanceMeters>NAN</DistanceMeters>
          </Trackpoint>
          <Trackpoint>
            <Time>2021-04-02T11:33:37.000Z</Time>
            <Position>
              <LatitudeDegrees>42.33281311579048633575439453125</LatitudeDegrees>
              <LongitudeDegrees>2.60498084127902984619140625</LongitudeDegrees>
            </Position>
            <AltitudeMeters>734</AltitudeMeters>
            <DistanceMeters>NAN</DistanceMeters>
          </Trackpoint>
          <Trackpoint>
            <Time>2021-04-02T11:33:41.000Z</Time>
            <Position>
              <LatitudeDegrees>42.332844547927379608154296875</LatitudeDegrees>
              <LongitudeDegrees>2.6049600541591644287109375</LongitudeDegrees>
            </Position>
            <AltitudeMeters>733.20001220703125</AltitudeMeters>
            <DistanceMeters>NAN</DistanceMeters>
          </Trackpoint>
          <Trackpoint>
            <Time>2021-04-02T11:33:44.000Z</Time>
            <Position>
              <LatitudeDegrees>42.33283842913806438446044921875</LatitudeDegrees>
              <LongitudeDegrees>2.6049344055354595184326171875</LongitudeDegrees>
            </Position>
            <AltitudeMeters>732.5999755859375</AltitudeMeters>
            <DistanceMeters>NAN</DistanceMeters>
          </Trackpoint>
          <Trackpoint>
            <Time>2021-04-02T11:33:47.000Z</Time>
            <Position>
              <LatitudeDegrees>42.33282946050167083740234375</LatitudeDegrees>
              <LongitudeDegrees>2.60490766726434230804443359375</LongitudeDegrees>
            </Position>
            <AltitudeMeters>732.20001220703125</AltitudeMeters>
            <DistanceMeters>NAN</DistanceMeters>
          </Trackpoint>
          <Trackpoint>
            <Time>2021-04-02T11:33:53.000Z</Time>
            <Position>
              <LatitudeDegrees>42.33281982131302356719970703125</LatitudeDegrees>
              <LongitudeDegrees>2.60487397201359272003173828125</LongitudeDegrees>
            </Position>
            <AltitudeMeters>731.20001220703125</AltitudeMeters>
            <DistanceMeters>NAN</DistanceMeters>
          </Trackpoint>
          <Trackpoint>
            <Time>2021-04-02T11:33:55.000Z</Time>
            <Position>
              <LatitudeDegrees>42.33280523680150508880615234375</LatitudeDegrees>
              <LongitudeDegrees>2.60486642830073833465576171875</LongitudeDegrees>
            </Position>
            <AltitudeMeters>731</AltitudeMeters>
            <DistanceMeters>NAN</DistanceMeters>
          </Trackpoint>
          <Trackpoint>
            <Time>2021-04-02T11:33:59.000Z</Time>
            <Position>
              <LatitudeDegrees>42.332768104970455169677734375</LatitudeDegrees>
              <LongitudeDegrees>2.60484329424798488616943359375</LongitudeDegrees>
            </Position>
            <AltitudeMeters>730.4000244140625</AltitudeMeters>
            <DistanceMeters>NAN</DistanceMeters>
          </Trackpoint>
          <Trackpoint>
            <Time>2021-04-02T11:34:01.000Z</Time>
            <Position>
              <LatitudeDegrees>42.33275033533573150634765625</LatitudeDegrees>
              <LongitudeDegrees>2.6048348285257816314697265625</LongitudeDegrees>
            </Position>
            <AltitudeMeters>730.20001220703125</AltitudeMeters>
            <DistanceMeters>NAN</DistanceMeters>
          </Trackpoint>
          <Trackpoint>
            <Time>2021-04-02T11:34:02.000Z</Time>
            <Position>
              <LatitudeDegrees>42.33274455182254314422607421875</LatitudeDegrees>
              <LongitudeDegrees>2.60483155958354473114013671875</LongitudeDegrees>
            </Position>
            <AltitudeMeters>730</AltitudeMeters>
            <DistanceMeters>NAN</DistanceMeters>
          </Trackpoint>
          <Trackpoint>
            <Time>2021-04-02T11:34:04.000Z</Time>
            <Position>
              <LatitudeDegrees>42.332734577357769012451171875</LatitudeDegrees>
              <LongitudeDegrees>2.60482116602361202239990234375</LongitudeDegrees>
            </Position>
            <AltitudeMeters>729.4000244140625</AltitudeMeters>
            <DistanceMeters>NAN</DistanceMeters>
          </Trackpoint>
          <Trackpoint>
            <Time>2021-04-02T11:34:08.000Z</Time>
            <Position>
              <LatitudeDegrees>42.33270197175443172454833984375</LatitudeDegrees>
              <LongitudeDegrees>2.6048190705478191375732421875</LongitudeDegrees>
            </Position>
            <AltitudeMeters>728.79998779296875</AltitudeMeters>
            <DistanceMeters>NAN</DistanceMeters>
          </Trackpoint>
          <Trackpoint>
            <Time>2021-04-02T11:34:09.000Z</Time>
            <Position>
              <LatitudeDegrees>42.33269375748932361602783203125</LatitudeDegrees>
              <LongitudeDegrees>2.604814879596233367919921875</LongitudeDegrees>
            </Position>
            <AltitudeMeters>728.79998779296875</AltitudeMeters>
            <DistanceMeters>NAN</DistanceMeters>
          </Trackpoint>
          <Trackpoint>
            <Time>2021-04-02T11:34:14.000Z</Time>
            <Position>
              <LatitudeDegrees>42.33266492374241352081298828125</LatitudeDegrees>
              <LongitudeDegrees>2.60477741248905658721923828125</LongitudeDegrees>
            </Position>
            <AltitudeMeters>727.79998779296875</AltitudeMeters>
            <DistanceMeters>NAN</DistanceMeters>
          </Trackpoint>
          <Trackpoint>
            <Time>2021-04-02T11:34:17.000Z</Time>
            <Position>
              <LatitudeDegrees>42.33265503309667110443115234375</LatitudeDegrees>
              <LongitudeDegrees>2.60476014576852321624755859375</LongitudeDegrees>
            </Position>
            <AltitudeMeters>727.4000244140625</AltitudeMeters>
            <DistanceMeters>NAN</DistanceMeters>
          </Trackpoint>
          <Trackpoint>
            <Time>2021-04-02T11:34:21.000Z</Time>
            <Position>
              <LatitudeDegrees>42.332640700042247772216796875</LatitudeDegrees>
              <LongitudeDegrees>2.60472158901393413543701171875</LongitudeDegrees>
            </Position>
            <AltitudeMeters>726.5999755859375</AltitudeMeters>
            <DistanceMeters>NAN</DistanceMeters>
          </Trackpoint>
          <Trackpoint>
            <Time>2021-04-02T11:34:25.000Z</Time>
            <Position>
              <LatitudeDegrees>42.3326428793370723724365234375</LatitudeDegrees>
              <LongitudeDegrees>2.60465629398822784423828125</LongitudeDegrees>
            </Position>
            <AltitudeMeters>725.79998779296875</AltitudeMeters>
            <DistanceMeters>NAN</DistanceMeters>
          </Trackpoint>
          <Trackpoint>
            <Time>2021-04-02T11:34:27.000Z</Time>
            <Position>
              <LatitudeDegrees>42.33263558708131313323974609375</LatitudeDegrees>
              <LongitudeDegrees>2.60463081300258636474609375</LongitudeDegrees>
            </Position>
            <AltitudeMeters>725.20001220703125</AltitudeMeters>
            <DistanceMeters>NAN</DistanceMeters>
          </Trackpoint>
          <Trackpoint>
            <Time>2021-04-02T11:34:30.000Z</Time>
            <Position>
              <LatitudeDegrees>42.33262988738715648651123046875</LatitudeDegrees>
              <LongitudeDegrees>2.60460088960826396942138671875</LongitudeDegrees>
            </Position>
            <AltitudeMeters>724.5999755859375</AltitudeMeters>
            <DistanceMeters>NAN</DistanceMeters>
          </Trackpoint>
          <Trackpoint>
            <Time>2021-04-02T11:34:33.000Z</Time>
            <Position>
              <LatitudeDegrees>42.33262829482555389404296875</LatitudeDegrees>
              <LongitudeDegrees>2.60456979274749755859375</LongitudeDegrees>
            </Position>
            <AltitudeMeters>724</AltitudeMeters>
            <DistanceMeters>NAN</DistanceMeters>
          </Trackpoint>
          <Trackpoint>
            <Time>2021-04-02T11:34:34.000Z</Time>
            <Position>
              <LatitudeDegrees>42.33262552879750728607177734375</LatitudeDegrees>
              <LongitudeDegrees>2.60456149466335773468017578125</LongitudeDegrees>
            </Position>
            <AltitudeMeters>723.79998779296875</AltitudeMeters>
            <DistanceMeters>NAN</DistanceMeters>
          </Trackpoint>
          <Trackpoint>
            <Time>2021-04-02T11:34:36.000Z</Time>
            <Position>
              <LatitudeDegrees>42.33261563815176486968994140625</LatitudeDegrees>
              <LongitudeDegrees>2.60454523377120494842529296875</LongitudeDegrees>
            </Position>
            <AltitudeMeters>723.20001220703125</AltitudeMeters>
            <DistanceMeters>NAN</DistanceMeters>
          </Trackpoint>
          <Trackpoint>
            <Time>2021-04-02T11:34:37.000Z</Time>
            <Position>
              <LatitudeDegrees>42.332607172429561614990234375</LatitudeDegrees>
              <LongitudeDegrees>2.60453165508806705474853515625</LongitudeDegrees>
            </Position>
            <AltitudeMeters>723</AltitudeMeters>
            <DistanceMeters>NAN</DistanceMeters>
          </Trackpoint>
          <Trackpoint>
            <Time>2021-04-02T11:34:43.000Z</Time>
            <Position>
              <LatitudeDegrees>42.33257724903523921966552734375</LatitudeDegrees>
              <LongitudeDegrees>2.60443559847772121429443359375</LongitudeDegrees>
            </Position>
            <AltitudeMeters>722</AltitudeMeters>
            <DistanceMeters>NAN</DistanceMeters>
          </Trackpoint>
          <Trackpoint>
            <Time>2021-04-02T11:34:44.000Z</Time>
            <Position>
              <LatitudeDegrees>42.3325764946639537811279296875</LatitudeDegrees>
              <LongitudeDegrees>2.60441699065268039703369140625</LongitudeDegrees>
            </Position>
            <AltitudeMeters>721.79998779296875</AltitudeMeters>
            <DistanceMeters>NAN</DistanceMeters>
          </Trackpoint>
          <Trackpoint>
            <Time>2021-04-02T11:34:50.000Z</Time>
            <Position>
              <LatitudeDegrees>42.3325744830071926116943359375</LatitudeDegrees>
              <LongitudeDegrees>2.60436720214784145355224609375</LongitudeDegrees>
            </Position>
            <AltitudeMeters>721</AltitudeMeters>
            <DistanceMeters>NAN</DistanceMeters>
          </Trackpoint>
          <Trackpoint>
            <Time>2021-04-02T11:34:53.000Z</Time>
            <Position>
              <LatitudeDegrees>42.33254824765026569366455078125</LatitudeDegrees>
              <LongitudeDegrees>2.60432998649775981903076171875</LongitudeDegrees>
            </Position>
            <AltitudeMeters>720.5999755859375</AltitudeMeters>
            <DistanceMeters>NAN</DistanceMeters>
          </Trackpoint>
          <Trackpoint>
            <Time>2021-04-02T11:34:59.000Z</Time>
            <Position>
              <LatitudeDegrees>42.33251941390335559844970703125</LatitudeDegrees>
              <LongitudeDegrees>2.604254297912120819091796875</LongitudeDegrees>
            </Position>
            <AltitudeMeters>719.79998779296875</AltitudeMeters>
            <DistanceMeters>NAN</DistanceMeters>
          </Trackpoint>
          <Trackpoint>
            <Time>2021-04-02T11:35:02.000Z</Time>
            <Position>
              <LatitudeDegrees>42.3325230181217193603515625</LatitudeDegrees>
              <LongitudeDegrees>2.604195959866046905517578125</LongitudeDegrees>
            </Position>
            <AltitudeMeters>719.5999755859375</AltitudeMeters>
            <DistanceMeters>NAN</DistanceMeters>
          </Trackpoint>
          <Trackpoint>
            <Time>2021-04-02T11:35:05.000Z</Time>
            <Position>
              <LatitudeDegrees>42.3325141333043575286865234375</LatitudeDegrees>
              <LongitudeDegrees>2.60415614582598209381103515625</LongitudeDegrees>
            </Position>
            <AltitudeMeters>719.5999755859375</AltitudeMeters>
            <DistanceMeters>NAN</DistanceMeters>
          </Trackpoint>
          <Trackpoint>
            <Time>2021-04-02T11:35:10.000Z</Time>
            <Position>
              <LatitudeDegrees>42.33247666619718074798583984375</LatitudeDegrees>
              <LongitudeDegrees>2.60409613139927387237548828125</LongitudeDegrees>
            </Position>
            <AltitudeMeters>719.5999755859375</AltitudeMeters>
            <DistanceMeters>NAN</DistanceMeters>
          </Trackpoint>
          <Trackpoint>
            <Time>2021-04-02T11:35:17.000Z</Time>
            <Position>
              <LatitudeDegrees>42.3324524424970149993896484375</LatitudeDegrees>
              <LongitudeDegrees>2.604035697877407073974609375</LongitudeDegrees>
            </Position>
            <AltitudeMeters>719.4000244140625</AltitudeMeters>
            <DistanceMeters>NAN</DistanceMeters>
          </Trackpoint>
          <Trackpoint>
            <Time>2021-04-02T11:35:20.000Z</Time>
            <Position>
              <LatitudeDegrees>42.33244028873741626739501953125</LatitudeDegrees>
              <LongitudeDegrees>2.604003846645355224609375</LongitudeDegrees>
            </Position>
            <AltitudeMeters>719</AltitudeMeters>
            <DistanceMeters>NAN</DistanceMeters>
          </Trackpoint>
          <Trackpoint>
            <Time>2021-04-02T11:35:23.000Z</Time>
            <Position>
              <LatitudeDegrees>42.33242000453174114227294921875</LatitudeDegrees>
              <LongitudeDegrees>2.6039745099842548370361328125</LongitudeDegrees>
            </Position>
            <AltitudeMeters>718.79998779296875</AltitudeMeters>
            <DistanceMeters>NAN</DistanceMeters>
          </Trackpoint>
          <Trackpoint>
            <Time>2021-04-02T11:35:29.000Z</Time>
            <Position>
              <LatitudeDegrees>42.33238295651972293853759765625</LatitudeDegrees>
              <LongitudeDegrees>2.60393503122031688690185546875</LongitudeDegrees>
            </Position>
            <AltitudeMeters>717.4000244140625</AltitudeMeters>
            <DistanceMeters>NAN</DistanceMeters>
          </Trackpoint>
          <Trackpoint>
            <Time>2021-04-02T11:35:32.000Z</Time>
            <Position>
              <LatitudeDegrees>42.332359068095684051513671875</LatitudeDegrees>
              <LongitudeDegrees>2.60393687523901462554931640625</LongitudeDegrees>
            </Position>
            <AltitudeMeters>716.5999755859375</AltitudeMeters>
            <DistanceMeters>NAN</DistanceMeters>
          </Trackpoint>
          <Trackpoint>
            <Time>2021-04-02T11:35:33.000Z</Time>
            <Position>
              <LatitudeDegrees>42.3323552124202251434326171875</LatitudeDegrees>
              <LongitudeDegrees>2.603939808905124664306640625</LongitudeDegrees>
            </Position>
            <AltitudeMeters>716.20001220703125</AltitudeMeters>
            <DistanceMeters>NAN</DistanceMeters>
          </Trackpoint>
          <Trackpoint>
            <Time>2021-04-02T11:35:38.000Z</Time>
            <Position>
              <LatitudeDegrees>42.332324199378490447998046875</LatitudeDegrees>
              <LongitudeDegrees>2.60393285192549228668212890625</LongitudeDegrees>
            </Position>
            <AltitudeMeters>715</AltitudeMeters>
            <DistanceMeters>NAN</DistanceMeters>
          </Trackpoint>
          <Trackpoint>
            <Time>2021-04-02T11:35:40.000Z</Time>
            <Position>
              <LatitudeDegrees>42.3323164880275726318359375</LatitudeDegrees>
              <LongitudeDegrees>2.60392279364168643951416015625</LongitudeDegrees>
            </Position>
            <AltitudeMeters>714.5999755859375</AltitudeMeters>
            <DistanceMeters>NAN</DistanceMeters>
          </Trackpoint>
          <Trackpoint>
            <Time>2021-04-02T11:35:42.000Z</Time>
            <Position>
              <LatitudeDegrees>42.33231154270470142364501953125</LatitudeDegrees>
              <LongitudeDegrees>2.60390619747340679168701171875</LongitudeDegrees>
            </Position>
            <AltitudeMeters>714</AltitudeMeters>
            <DistanceMeters>NAN</DistanceMeters>
          </Trackpoint>
          <Trackpoint>
            <Time>2021-04-02T11:35:45.000Z</Time>
            <Position>
              <LatitudeDegrees>42.332300059497356414794921875</LatitudeDegrees>
              <LongitudeDegrees>2.603884823620319366455078125</LongitudeDegrees>
            </Position>
            <AltitudeMeters>713.20001220703125</AltitudeMeters>
            <DistanceMeters>NAN</DistanceMeters>
          </Trackpoint>
          <Trackpoint>
            <Time>2021-04-02T11:35:46.000Z</Time>
            <Position>
              <LatitudeDegrees>42.3322962038218975067138671875</LatitudeDegrees>
              <LongitudeDegrees>2.6038772799074649810791015625</LongitudeDegrees>
            </Position>
            <AltitudeMeters>712.79998779296875</AltitudeMeters>
            <DistanceMeters>NAN</DistanceMeters>
          </Trackpoint>
          <Trackpoint>
            <Time>2021-04-02T11:35:50.000Z</Time>
            <Position>
              <LatitudeDegrees>42.332265861332416534423828125</LatitudeDegrees>
              <LongitudeDegrees>2.60386462323367595672607421875</LongitudeDegrees>
            </Position>
            <AltitudeMeters>712</AltitudeMeters>
            <DistanceMeters>NAN</DistanceMeters>
          </Trackpoint>
          <Trackpoint>
            <Time>2021-04-02T11:35:51.000Z</Time>
            <Position>
              <LatitudeDegrees>42.33226192183792591094970703125</LatitudeDegrees>
              <LongitudeDegrees>2.60386428795754909515380859375</LongitudeDegrees>
            </Position>
            <AltitudeMeters>711.79998779296875</AltitudeMeters>
            <DistanceMeters>NAN</DistanceMeters>
          </Trackpoint>
          <Trackpoint>
            <Time>2021-04-02T11:35:52.000Z</Time>
            <Position>
              <LatitudeDegrees>42.332257814705371856689453125</LatitudeDegrees>
              <LongitudeDegrees>2.60386143811047077178955078125</LongitudeDegrees>
            </Position>
            <AltitudeMeters>711.5999755859375</AltitudeMeters>
            <DistanceMeters>NAN</DistanceMeters>
          </Trackpoint>
          <Trackpoint>
            <Time>2021-04-02T11:35:53.000Z</Time>
            <Position>
              <LatitudeDegrees>42.33225152827799320220947265625</LatitudeDegrees>
              <LongitudeDegrees>2.60386059992015361785888671875</LongitudeDegrees>
            </Position>
            <AltitudeMeters>711.20001220703125</AltitudeMeters>
            <DistanceMeters>NAN</DistanceMeters>
          </Trackpoint>
          <Trackpoint>
            <Time>2021-04-02T11:35:55.000Z</Time>
            <Position>
              <LatitudeDegrees>42.3322402127087116241455078125</LatitudeDegrees>
              <LongitudeDegrees>2.60386948473751544952392578125</LongitudeDegrees>
            </Position>
            <AltitudeMeters>710.5999755859375</AltitudeMeters>
            <DistanceMeters>NAN</DistanceMeters>
          </Trackpoint>
          <Trackpoint>
            <Time>2021-04-02T11:35:58.000Z</Time>
            <Position>
              <LatitudeDegrees>42.33220928348600864410400390625</LatitudeDegrees>
              <LongitudeDegrees>2.6038709096610546112060546875</LongitudeDegrees>
            </Position>
            <AltitudeMeters>709.79998779296875</AltitudeMeters>
            <DistanceMeters>NAN</DistanceMeters>
          </Trackpoint>
          <Trackpoint>
            <Time>2021-04-02T11:35:59.000Z</Time>
            <Position>
              <LatitudeDegrees>42.332200817763805389404296875</LatitudeDegrees>
              <LongitudeDegrees>2.60387233458459377288818359375</LongitudeDegrees>
            </Position>
            <AltitudeMeters>709.5999755859375</AltitudeMeters>
            <DistanceMeters>NAN</DistanceMeters>
          </Trackpoint>
          <Trackpoint>
            <Time>2021-04-02T11:36:01.000Z</Time>
            <Position>
              <LatitudeDegrees>42.33218899928033351898193359375</LatitudeDegrees>
              <LongitudeDegrees>2.603864707052707672119140625</LongitudeDegrees>
            </Position>
            <AltitudeMeters>708.79998779296875</AltitudeMeters>
            <DistanceMeters>NAN</DistanceMeters>
          </Trackpoint>
          <Trackpoint>
            <Time>2021-04-02T11:36:03.000Z</Time>
            <Position>
              <LatitudeDegrees>42.33218313194811344146728515625</LatitudeDegrees>
              <LongitudeDegrees>2.60385439731180667877197265625</LongitudeDegrees>
            </Position>
            <AltitudeMeters>708.4000244140625</AltitudeMeters>
            <DistanceMeters>NAN</DistanceMeters>
          </Trackpoint>
          <Trackpoint>
            <Time>2021-04-02T11:36:07.000Z</Time>
            <Position>
              <LatitudeDegrees>42.33217877335846424102783203125</LatitudeDegrees>
              <LongitudeDegrees>2.60385992936789989471435546875</LongitudeDegrees>
            </Position>
            <AltitudeMeters>708</AltitudeMeters>
            <DistanceMeters>NAN</DistanceMeters>
          </Trackpoint>
          <Trackpoint>
            <Time>2021-04-02T11:36:17.000Z</Time>
            <Position>
              <LatitudeDegrees>42.33215480111539363861083984375</LatitudeDegrees>
              <LongitudeDegrees>2.6038836501538753509521484375</LongitudeDegrees>
            </Position>
            <AltitudeMeters>707.4000244140625</AltitudeMeters>
            <DistanceMeters>NAN</DistanceMeters>
          </Trackpoint>
          <Trackpoint>
            <Time>2021-04-02T11:36:22.000Z</Time>
            <Position>
              <LatitudeDegrees>42.3321335949003696441650390625</LatitudeDegrees>
              <LongitudeDegrees>2.60393100790679454803466796875</LongitudeDegrees>
            </Position>
            <AltitudeMeters>706.20001220703125</AltitudeMeters>
            <DistanceMeters>NAN</DistanceMeters>
          </Trackpoint>
          <Trackpoint>
            <Time>2021-04-02T11:36:23.000Z</Time>
            <Position>
              <LatitudeDegrees>42.33213250525295734405517578125</LatitudeDegrees>
              <LongitudeDegrees>2.60393905453383922576904296875</LongitudeDegrees>
            </Position>
            <AltitudeMeters>705.79998779296875</AltitudeMeters>
            <DistanceMeters>NAN</DistanceMeters>
          </Trackpoint>
          <Trackpoint>
            <Time>2021-04-02T11:36:25.000Z</Time>
            <Position>
              <LatitudeDegrees>42.3321242071688175201416015625</LatitudeDegrees>
              <LongitudeDegrees>2.603957913815975189208984375</LongitudeDegrees>
            </Position>
            <AltitudeMeters>705.20001220703125</AltitudeMeters>
            <DistanceMeters>NAN</DistanceMeters>
          </Trackpoint>
          <Trackpoint>
            <Time>2021-04-02T11:36:30.000Z</Time>
            <Position>
              <LatitudeDegrees>42.33211155049502849578857421875</LatitudeDegrees>
              <LongitudeDegrees>2.60397241450846195220947265625</LongitudeDegrees>
            </Position>
            <AltitudeMeters>704.20001220703125</AltitudeMeters>
            <DistanceMeters>NAN</DistanceMeters>
          </Trackpoint>
          <Trackpoint>
            <Time>2021-04-02T11:36:31.000Z</Time>
            <Position>
              <LatitudeDegrees>42.3321077786386013031005859375</LatitudeDegrees>
              <LongitudeDegrees>2.60397291742265224456787109375</LongitudeDegrees>
            </Position>
            <AltitudeMeters>704</AltitudeMeters>
            <DistanceMeters>NAN</DistanceMeters>
          </Trackpoint>
          <Trackpoint>
            <Time>2021-04-02T11:36:35.000Z</Time>
            <Position>
              <LatitudeDegrees>42.33207936398684978485107421875</LatitudeDegrees>
              <LongitudeDegrees>2.60396252386271953582763671875</LongitudeDegrees>
            </Position>
            <AltitudeMeters>703.20001220703125</AltitudeMeters>
            <DistanceMeters>NAN</DistanceMeters>
          </Trackpoint>
          <Trackpoint>
            <Time>2021-04-02T11:36:36.000Z</Time>
            <Position>
              <LatitudeDegrees>42.33207802288234233856201171875</LatitudeDegrees>
              <LongitudeDegrees>2.60395095683634281158447265625</LongitudeDegrees>
            </Position>
            <AltitudeMeters>703</AltitudeMeters>
            <DistanceMeters>NAN</DistanceMeters>
          </Trackpoint>
          <Trackpoint>
            <Time>2021-04-02T11:36:37.000Z</Time>
            <Position>
              <LatitudeDegrees>42.33207399956881999969482421875</LatitudeDegrees>
              <LongitudeDegrees>2.60394291020929813385009765625</LongitudeDegrees>
            </Position>
            <AltitudeMeters>702.79998779296875</AltitudeMeters>
            <DistanceMeters>NAN</DistanceMeters>
          </Trackpoint>
          <Trackpoint>
            <Time>2021-04-02T11:36:43.000Z</Time>
            <Position>
              <LatitudeDegrees>42.33205388300120830535888671875</LatitudeDegrees>
              <LongitudeDegrees>2.60390921495854854583740234375</LongitudeDegrees>
            </Position>
            <AltitudeMeters>702.20001220703125</AltitudeMeters>
            <DistanceMeters>NAN</DistanceMeters>
          </Trackpoint>
          <Trackpoint>
            <Time>2021-04-02T11:36:46.000Z</Time>
            <Position>
              <LatitudeDegrees>42.33204617165029048919677734375</LatitudeDegrees>
              <LongitudeDegrees>2.6038994081318378448486328125</LongitudeDegrees>
            </Position>
            <AltitudeMeters>702.20001220703125</AltitudeMeters>
            <DistanceMeters>NAN</DistanceMeters>
          </Trackpoint>
          <Trackpoint>
            <Time>2021-04-02T11:36:47.000Z</Time>
            <Position>
              <LatitudeDegrees>42.3320437408983707427978515625</LatitudeDegrees>
              <LongitudeDegrees>2.60390401817858219146728515625</LongitudeDegrees>
            </Position>
            <AltitudeMeters>701.79998779296875</AltitudeMeters>
            <DistanceMeters>NAN</DistanceMeters>
          </Trackpoint>
          <Trackpoint>
            <Time>2021-04-02T11:36:51.000Z</Time>
            <Position>
              <LatitudeDegrees>42.33203460462391376495361328125</LatitudeDegrees>
              <LongitudeDegrees>2.6039332710206508636474609375</LongitudeDegrees>
            </Position>
            <AltitudeMeters>701</AltitudeMeters>
            <DistanceMeters>NAN</DistanceMeters>
          </Trackpoint>
          <Trackpoint>
            <Time>2021-04-02T11:36:53.000Z</Time>
            <Position>
              <LatitudeDegrees>42.3320279829204082489013671875</LatitudeDegrees>
              <LongitudeDegrees>2.6039453409612178802490234375</LongitudeDegrees>
            </Position>
            <AltitudeMeters>700.79998779296875</AltitudeMeters>
            <DistanceMeters>NAN</DistanceMeters>
          </Trackpoint>
          <Trackpoint>
            <Time>2021-04-02T11:36:54.000Z</Time>
            <Position>
              <LatitudeDegrees>42.33201985247433185577392578125</LatitudeDegrees>
              <LongitudeDegrees>2.60394542478024959564208984375</LongitudeDegrees>
            </Position>
            <AltitudeMeters>700.5999755859375</AltitudeMeters>
            <DistanceMeters>NAN</DistanceMeters>
          </Trackpoint>
          <Trackpoint>
            <Time>2021-04-02T11:36:59.000Z</Time>
            <Position>
              <LatitudeDegrees>42.33198364265263080596923828125</LatitudeDegrees>
              <LongitudeDegrees>2.6039379648864269256591796875</LongitudeDegrees>
            </Position>
            <AltitudeMeters>699.4000244140625</AltitudeMeters>
            <DistanceMeters>NAN</DistanceMeters>
          </Trackpoint>
          <Trackpoint>
            <Time>2021-04-02T11:37:03.000Z</Time>
            <Position>
              <LatitudeDegrees>42.33196369372308254241943359375</LatitudeDegrees>
              <LongitudeDegrees>2.603950537741184234619140625</LongitudeDegrees>
            </Position>
            <AltitudeMeters>698.5999755859375</AltitudeMeters>
            <DistanceMeters>NAN</DistanceMeters>
          </Trackpoint>
          <Trackpoint>
            <Time>2021-04-02T11:37:04.000Z</Time>
            <Position>
              <LatitudeDegrees>42.33195816166698932647705078125</LatitudeDegrees>
              <LongitudeDegrees>2.60395330376923084259033203125</LongitudeDegrees>
            </Position>
            <AltitudeMeters>698.4000244140625</AltitudeMeters>
            <DistanceMeters>NAN</DistanceMeters>
          </Trackpoint>
          <Trackpoint>
            <Time>2021-04-02T11:37:08.000Z</Time>
            <Position>
              <LatitudeDegrees>42.33194273896515369415283203125</LatitudeDegrees>
              <LongitudeDegrees>2.60397576726973056793212890625</LongitudeDegrees>
            </Position>
            <AltitudeMeters>697.20001220703125</AltitudeMeters>
            <DistanceMeters>NAN</DistanceMeters>
          </Trackpoint>
          <Trackpoint>
            <Time>2021-04-02T11:37:09.000Z</Time>
            <Position>
              <LatitudeDegrees>42.33193754218518733978271484375</LatitudeDegrees>
              <LongitudeDegrees>2.60398305952548980712890625</LongitudeDegrees>
            </Position>
            <AltitudeMeters>696.79998779296875</AltitudeMeters>
            <DistanceMeters>NAN</DistanceMeters>
          </Trackpoint>
          <Trackpoint>
            <Time>2021-04-02T11:37:11.000Z</Time>
            <Position>
              <LatitudeDegrees>42.33192664571106433868408203125</LatitudeDegrees>
              <LongitudeDegrees>2.6040006615221500396728515625</LongitudeDegrees>
            </Position>
            <AltitudeMeters>696.20001220703125</AltitudeMeters>
            <DistanceMeters>NAN</DistanceMeters>
          </Trackpoint>
          <Trackpoint>
            <Time>2021-04-02T11:37:12.000Z</Time>
            <Position>
              <LatitudeDegrees>42.3319222033023834228515625</LatitudeDegrees>
              <LongitudeDegrees>2.60400895960628986358642578125</LongitudeDegrees>
            </Position>
            <AltitudeMeters>695.79998779296875</AltitudeMeters>
            <DistanceMeters>NAN</DistanceMeters>
          </Trackpoint>
          <Trackpoint>
            <Time>2021-04-02T11:37:16.000Z</Time>
            <Position>
              <LatitudeDegrees>42.3319248855113983154296875</LatitudeDegrees>
              <LongitudeDegrees>2.6040194369852542877197265625</LongitudeDegrees>
            </Position>
            <AltitudeMeters>695.4000244140625</AltitudeMeters>
            <DistanceMeters>NAN</DistanceMeters>
          </Trackpoint>
          <Trackpoint>
            <Time>2021-04-02T11:37:18.000Z</Time>
            <Position>
              <LatitudeDegrees>42.33193226158618927001953125</LatitudeDegrees>
              <LongitudeDegrees>2.60401650331914424896240234375</LongitudeDegrees>
            </Position>
            <AltitudeMeters>695.4000244140625</AltitudeMeters>
            <DistanceMeters>NAN</DistanceMeters>
          </Trackpoint>
          <Trackpoint>
            <Time>2021-04-02T11:37:22.000Z</Time>
            <Position>
              <LatitudeDegrees>42.3319357819855213165283203125</LatitudeDegrees>
              <LongitudeDegrees>2.6040177606046199798583984375</LongitudeDegrees>
            </Position>
            <AltitudeMeters>695.4000244140625</AltitudeMeters>
            <DistanceMeters>NAN</DistanceMeters>
          </Trackpoint>
          <Trackpoint>
            <Time>2021-04-02T11:37:25.000Z</Time>
            <Position>
              <LatitudeDegrees>42.33193133957684040069580078125</LatitudeDegrees>
              <LongitudeDegrees>2.6040154136717319488525390625</LongitudeDegrees>
            </Position>
            <AltitudeMeters>695.20001220703125</AltitudeMeters>
            <DistanceMeters>NAN</DistanceMeters>
          </Trackpoint>
          <Trackpoint>
            <Time>2021-04-02T11:37:29.000Z</Time>
            <Position>
              <LatitudeDegrees>42.3319126479327678680419921875</LatitudeDegrees>
              <LongitudeDegrees>2.60404768399894237518310546875</LongitudeDegrees>
            </Position>
            <AltitudeMeters>694.5999755859375</AltitudeMeters>
            <DistanceMeters>NAN</DistanceMeters>
          </Trackpoint>
          <Trackpoint>
            <Time>2021-04-02T11:37:33.000Z</Time>
            <Position>
              <LatitudeDegrees>42.33187937177717685699462890625</LatitudeDegrees>
              <LongitudeDegrees>2.60406084358692169189453125</LongitudeDegrees>
            </Position>
            <AltitudeMeters>693.5999755859375</AltitudeMeters>
            <DistanceMeters>NAN</DistanceMeters>
          </Trackpoint>
          <Trackpoint>
            <Time>2021-04-02T11:37:36.000Z</Time>
            <Position>
              <LatitudeDegrees>42.33186579309403896331787109375</LatitudeDegrees>
              <LongitudeDegrees>2.60407618246972560882568359375</LongitudeDegrees>
            </Position>
            <AltitudeMeters>692.20001220703125</AltitudeMeters>
            <DistanceMeters>NAN</DistanceMeters>
          </Trackpoint>
          <Trackpoint>
            <Time>2021-04-02T11:37:40.000Z</Time>
            <Position>
              <LatitudeDegrees>42.331852801144123077392578125</LatitudeDegrees>
              <LongitudeDegrees>2.604114152491092681884765625</LongitudeDegrees>
            </Position>
            <AltitudeMeters>691</AltitudeMeters>
            <DistanceMeters>NAN</DistanceMeters>
          </Trackpoint>
          <Trackpoint>
            <Time>2021-04-02T11:37:42.000Z</Time>
            <Position>
              <LatitudeDegrees>42.33184316195547580718994140625</LatitudeDegrees>
              <LongitudeDegrees>2.60412412695586681365966796875</LongitudeDegrees>
            </Position>
            <AltitudeMeters>690.5999755859375</AltitudeMeters>
            <DistanceMeters>NAN</DistanceMeters>
          </Trackpoint>
          <Trackpoint>
            <Time>2021-04-02T11:37:43.000Z</Time>
            <Position>
              <LatitudeDegrees>42.3318368755280971527099609375</LatitudeDegrees>
              <LongitudeDegrees>2.604130245745182037353515625</LongitudeDegrees>
            </Position>
            <AltitudeMeters>690.5999755859375</AltitudeMeters>
            <DistanceMeters>NAN</DistanceMeters>
          </Trackpoint>
          <Trackpoint>
            <Time>2021-04-02T11:37:45.000Z</Time>
            <Position>
              <LatitudeDegrees>42.331822626292705535888671875</LatitudeDegrees>
              <LongitudeDegrees>2.60414491407573223114013671875</LongitudeDegrees>
            </Position>
            <AltitudeMeters>690.20001220703125</AltitudeMeters>
            <DistanceMeters>NAN</DistanceMeters>
          </Trackpoint>
          <Trackpoint>
            <Time>2021-04-02T11:37:46.000Z</Time>
            <Position>
              <LatitudeDegrees>42.3318154178559780120849609375</LatitudeDegrees>
              <LongitudeDegrees>2.604148685932159423828125</LongitudeDegrees>
            </Position>
            <AltitudeMeters>689.79998779296875</AltitudeMeters>
            <DistanceMeters>NAN</DistanceMeters>
          </Trackpoint>
          <Trackpoint>
            <Time>2021-04-02T11:37:50.000Z</Time>
            <Position>
              <LatitudeDegrees>42.33178566209971904754638671875</LatitudeDegrees>
              <LongitudeDegrees>2.6041736640036106109619140625</LongitudeDegrees>
            </Position>
            <AltitudeMeters>688.79998779296875</AltitudeMeters>
            <DistanceMeters>NAN</DistanceMeters>
          </Trackpoint>
          <Trackpoint>
            <Time>2021-04-02T11:37:52.000Z</Time>
            <Position>
              <LatitudeDegrees>42.33177443034946918487548828125</LatitudeDegrees>
              <LongitudeDegrees>2.6041830517351627349853515625</LongitudeDegrees>
            </Position>
            <AltitudeMeters>688.4000244140625</AltitudeMeters>
            <DistanceMeters>NAN</DistanceMeters>
          </Trackpoint>
          <Trackpoint>
            <Time>2021-04-02T11:37:53.000Z</Time>
            <Position>
              <LatitudeDegrees>42.33177007175981998443603515625</LatitudeDegrees>
              <LongitudeDegrees>2.60418866761028766632080078125</LongitudeDegrees>
            </Position>
            <AltitudeMeters>688.4000244140625</AltitudeMeters>
            <DistanceMeters>NAN</DistanceMeters>
          </Trackpoint>
          <Trackpoint>
            <Time>2021-04-02T11:37:55.000Z</Time>
            <Position>
              <LatitudeDegrees>42.33176722191274166107177734375</LatitudeDegrees>
              <LongitudeDegrees>2.6041931100189685821533203125</LongitudeDegrees>
            </Position>
            <AltitudeMeters>688</AltitudeMeters>
            <DistanceMeters>NAN</DistanceMeters>
          </Trackpoint>
          <Trackpoint>
            <Time>2021-04-02T11:37:57.000Z</Time>
            <Position>
              <LatitudeDegrees>42.331748865544795989990234375</LatitudeDegrees>
              <LongitudeDegrees>2.6041927747428417205810546875</LongitudeDegrees>
            </Position>
            <AltitudeMeters>687.5999755859375</AltitudeMeters>
            <DistanceMeters>NAN</DistanceMeters>
          </Trackpoint>
          <Trackpoint>
            <Time>2021-04-02T11:37:59.000Z</Time>
            <Position>
              <LatitudeDegrees>42.331724055111408233642578125</LatitudeDegrees>
              <LongitudeDegrees>2.60419487021863460540771484375</LongitudeDegrees>
            </Position>
            <AltitudeMeters>687.4000244140625</AltitudeMeters>
            <DistanceMeters>NAN</DistanceMeters>
          </Trackpoint>
          <Trackpoint>
            <Time>2021-04-02T11:38:06.000Z</Time>
            <Position>
              <LatitudeDegrees>42.33165574260056018829345703125</LatitudeDegrees>
              <LongitudeDegrees>2.60421062819659709930419921875</LongitudeDegrees>
            </Position>
            <AltitudeMeters>686.5999755859375</AltitudeMeters>
            <DistanceMeters>NAN</DistanceMeters>
          </Trackpoint>
          <Trackpoint>
            <Time>2021-04-02T11:38:10.000Z</Time>
            <Position>
              <LatitudeDegrees>42.33162422664463520050048828125</LatitudeDegrees>
              <LongitudeDegrees>2.60425220243632793426513671875</LongitudeDegrees>
            </Position>
            <AltitudeMeters>685.4000244140625</AltitudeMeters>
            <DistanceMeters>NAN</DistanceMeters>
          </Trackpoint>
          <Trackpoint>
            <Time>2021-04-02T11:38:13.000Z</Time>
            <Position>
              <LatitudeDegrees>42.33160343952476978302001953125</LatitudeDegrees>
              <LongitudeDegrees>2.60427818633615970611572265625</LongitudeDegrees>
            </Position>
            <AltitudeMeters>685.20001220703125</AltitudeMeters>
            <DistanceMeters>NAN</DistanceMeters>
          </Trackpoint>
          <Trackpoint>
            <Time>2021-04-02T11:38:17.000Z</Time>
            <Position>
              <LatitudeDegrees>42.33157225884497165679931640625</LatitudeDegrees>
              <LongitudeDegrees>2.60430869646370410919189453125</LongitudeDegrees>
            </Position>
            <AltitudeMeters>684</AltitudeMeters>
            <DistanceMeters>NAN</DistanceMeters>
          </Trackpoint>
          <Trackpoint>
            <Time>2021-04-02T11:38:25.000Z</Time>
            <Position>
              <LatitudeDegrees>42.33150520361959934234619140625</LatitudeDegrees>
              <LongitudeDegrees>2.60437089018523693084716796875</LongitudeDegrees>
            </Position>
            <AltitudeMeters>682.79998779296875</AltitudeMeters>
            <DistanceMeters>NAN</DistanceMeters>
          </Trackpoint>
          <Trackpoint>
            <Time>2021-04-02T11:38:32.000Z</Time>
            <Position>
              <LatitudeDegrees>42.331461198627948760986328125</LatitudeDegrees>
              <LongitudeDegrees>2.60441229678690433502197265625</LongitudeDegrees>
            </Position>
            <AltitudeMeters>681.79998779296875</AltitudeMeters>
            <DistanceMeters>NAN</DistanceMeters>
          </Trackpoint>
          <Trackpoint>
            <Time>2021-04-02T11:38:35.000Z</Time>
            <Position>
              <LatitudeDegrees>42.33143596909940242767333984375</LatitudeDegrees>
              <LongitudeDegrees>2.6044261269271373748779296875</LongitudeDegrees>
            </Position>
            <AltitudeMeters>681.20001220703125</AltitudeMeters>
            <DistanceMeters>NAN</DistanceMeters>
          </Trackpoint>
          <Trackpoint>
            <Time>2021-04-02T11:38:37.000Z</Time>
            <Position>
              <LatitudeDegrees>42.33141182921826839447021484375</LatitudeDegrees>
              <LongitudeDegrees>2.60443325154483318328857421875</LongitudeDegrees>
            </Position>
            <AltitudeMeters>680.79998779296875</AltitudeMeters>
            <DistanceMeters>NAN</DistanceMeters>
          </Trackpoint>
          <Trackpoint>
            <Time>2021-04-02T11:38:38.000Z</Time>
            <Position>
              <LatitudeDegrees>42.3314006812870502471923828125</LatitudeDegrees>
              <LongitudeDegrees>2.604427970945835113525390625</LongitudeDegrees>
            </Position>
            <AltitudeMeters>680.5999755859375</AltitudeMeters>
            <DistanceMeters>NAN</DistanceMeters>
          </Trackpoint>
          <Trackpoint>
            <Time>2021-04-02T11:38:39.000Z</Time>
            <Position>
              <LatitudeDegrees>42.3313938081264495849609375</LatitudeDegrees>
              <LongitudeDegrees>2.6044180803000926971435546875</LongitudeDegrees>
            </Position>
            <AltitudeMeters>680.4000244140625</AltitudeMeters>
            <DistanceMeters>NAN</DistanceMeters>
          </Trackpoint>
          <Trackpoint>
            <Time>2021-04-02T11:38:41.000Z</Time>
            <Position>
              <LatitudeDegrees>42.33138701878488063812255859375</LatitudeDegrees>
              <LongitudeDegrees>2.604389078915119171142578125</LongitudeDegrees>
            </Position>
            <AltitudeMeters>680</AltitudeMeters>
            <DistanceMeters>NAN</DistanceMeters>
          </Trackpoint>
          <Trackpoint>
            <Time>2021-04-02T11:38:42.000Z</Time>
            <Position>
              <LatitudeDegrees>42.331386767327785491943359375</LatitudeDegrees>
              <LongitudeDegrees>2.604376338422298431396484375</LongitudeDegrees>
            </Position>
            <AltitudeMeters>679.5999755859375</AltitudeMeters>
            <DistanceMeters>NAN</DistanceMeters>
          </Trackpoint>
          <Trackpoint>
            <Time>2021-04-02T11:38:49.000Z</Time>
            <Position>
              <LatitudeDegrees>42.33142289333045482635498046875</LatitudeDegrees>
              <LongitudeDegrees>2.60428053326904773712158203125</LongitudeDegrees>
            </Position>
            <AltitudeMeters>679</AltitudeMeters>
            <DistanceMeters>NAN</DistanceMeters>
          </Trackpoint>
          <Trackpoint>
            <Time>2021-04-02T11:38:53.000Z</Time>
            <Position>
              <LatitudeDegrees>42.33144535683095455169677734375</LatitudeDegrees>
              <LongitudeDegrees>2.60422672145068645477294921875</LongitudeDegrees>
            </Position>
            <AltitudeMeters>678.5999755859375</AltitudeMeters>
            <DistanceMeters>NAN</DistanceMeters>
          </Trackpoint>
          <Trackpoint>
            <Time>2021-04-02T11:38:54.000Z</Time>
            <Position>
              <LatitudeDegrees>42.33145072124898433685302734375</LatitudeDegrees>
              <LongitudeDegrees>2.60421398095786571502685546875</LongitudeDegrees>
            </Position>
            <AltitudeMeters>678.5999755859375</AltitudeMeters>
            <DistanceMeters>NAN</DistanceMeters>
          </Trackpoint>
          <Trackpoint>
            <Time>2021-04-02T11:38:58.000Z</Time>
            <Position>
              <LatitudeDegrees>42.33147804625332355499267578125</LatitudeDegrees>
              <LongitudeDegrees>2.60415178723633289337158203125</LongitudeDegrees>
            </Position>
            <AltitudeMeters>678.20001220703125</AltitudeMeters>
            <DistanceMeters>NAN</DistanceMeters>
          </Trackpoint>
          <Trackpoint>
            <Time>2021-04-02T11:39:03.000Z</Time>
            <Position>
              <LatitudeDegrees>42.33151341788470745086669921875</LatitudeDegrees>
              <LongitudeDegrees>2.6040999032557010650634765625</LongitudeDegrees>
            </Position>
            <AltitudeMeters>677.5999755859375</AltitudeMeters>
            <DistanceMeters>NAN</DistanceMeters>
          </Trackpoint>
          <Trackpoint>
            <Time>2021-04-02T11:39:06.000Z</Time>
            <Position>
              <LatitudeDegrees>42.33153085224330425262451171875</LatitudeDegrees>
              <LongitudeDegrees>2.60406042449176311492919921875</LongitudeDegrees>
            </Position>
            <AltitudeMeters>677.4000244140625</AltitudeMeters>
            <DistanceMeters>NAN</DistanceMeters>
          </Trackpoint>
          <Trackpoint>
            <Time>2021-04-02T11:39:08.000Z</Time>
            <Position>
              <LatitudeDegrees>42.3315337859094142913818359375</LatitudeDegrees>
              <LongitudeDegrees>2.60402999818325042724609375</LongitudeDegrees>
            </Position>
            <AltitudeMeters>677.4000244140625</AltitudeMeters>
            <DistanceMeters>NAN</DistanceMeters>
          </Trackpoint>
          <Trackpoint>
            <Time>2021-04-02T11:39:13.000Z</Time>
            <Position>
              <LatitudeDegrees>42.3315547406673431396484375</LatitudeDegrees>
              <LongitudeDegrees>2.60394374839961528778076171875</LongitudeDegrees>
            </Position>
            <AltitudeMeters>677.4000244140625</AltitudeMeters>
            <DistanceMeters>NAN</DistanceMeters>
          </Trackpoint>
          <Trackpoint>
            <Time>2021-04-02T11:39:18.000Z</Time>
            <Position>
              <LatitudeDegrees>42.331581227481365203857421875</LatitudeDegrees>
              <LongitudeDegrees>2.60386764071881771087646484375</LongitudeDegrees>
            </Position>
            <AltitudeMeters>677.20001220703125</AltitudeMeters>
            <DistanceMeters>NAN</DistanceMeters>
          </Trackpoint>
          <Trackpoint>
            <Time>2021-04-02T11:39:28.000Z</Time>
            <Position>
              <LatitudeDegrees>42.3316189460456371307373046875</LatitudeDegrees>
              <LongitudeDegrees>2.60375440120697021484375</LongitudeDegrees>
            </Position>
            <AltitudeMeters>676.5999755859375</AltitudeMeters>
            <DistanceMeters>NAN</DistanceMeters>
          </Trackpoint>
          <Trackpoint>
            <Time>2021-04-02T11:39:29.000Z</Time>
            <Position>
              <LatitudeDegrees>42.331618107855319976806640625</LatitudeDegrees>
              <LongitudeDegrees>2.6037461869418621063232421875</LongitudeDegrees>
            </Position>
            <AltitudeMeters>676.5999755859375</AltitudeMeters>
            <DistanceMeters>NAN</DistanceMeters>
          </Trackpoint>
          <Trackpoint>
            <Time>2021-04-02T11:39:31.000Z</Time>
            <Position>
              <LatitudeDegrees>42.33161307871341705322265625</LatitudeDegrees>
              <LongitudeDegrees>2.6037518866360187530517578125</LongitudeDegrees>
            </Position>
            <AltitudeMeters>676.5999755859375</AltitudeMeters>
            <DistanceMeters>NAN</DistanceMeters>
          </Trackpoint>
          <Trackpoint>
            <Time>2021-04-02T11:39:33.000Z</Time>
            <Position>
              <LatitudeDegrees>42.331614755094051361083984375</LatitudeDegrees>
              <LongitudeDegrees>2.60376336984336376190185546875</LongitudeDegrees>
            </Position>
            <AltitudeMeters>676.5999755859375</AltitudeMeters>
            <DistanceMeters>NAN</DistanceMeters>
          </Trackpoint>
          <Trackpoint>
            <Time>2021-04-02T11:39:36.000Z</Time>
            <Position>
              <LatitudeDegrees>42.33161098323762416839599609375</LatitudeDegrees>
              <LongitudeDegrees>2.60376957245171070098876953125</LongitudeDegrees>
            </Position>
            <AltitudeMeters>676.4000244140625</AltitudeMeters>
            <DistanceMeters>NAN</DistanceMeters>
          </Trackpoint>
          <Trackpoint>
            <Time>2021-04-02T11:39:40.000Z</Time>
            <Position>
              <LatitudeDegrees>42.33160880394279956817626953125</LatitudeDegrees>
              <LongitudeDegrees>2.60376202873885631561279296875</LongitudeDegrees>
            </Position>
            <AltitudeMeters>675.79998779296875</AltitudeMeters>
            <DistanceMeters>NAN</DistanceMeters>
          </Trackpoint>
          <Trackpoint>
            <Time>2021-04-02T11:39:44.000Z</Time>
            <Position>
              <LatitudeDegrees>42.33160394243896007537841796875</LatitudeDegrees>
              <LongitudeDegrees>2.60378985665738582611083984375</LongitudeDegrees>
            </Position>
            <AltitudeMeters>675.4000244140625</AltitudeMeters>
            <DistanceMeters>NAN</DistanceMeters>
          </Trackpoint>
          <Trackpoint>
            <Time>2021-04-02T11:39:45.000Z</Time>
            <Position>
              <LatitudeDegrees>42.331597991287708282470703125</LatitudeDegrees>
              <LongitudeDegrees>2.60379756800830364227294921875</LongitudeDegrees>
            </Position>
            <AltitudeMeters>675.4000244140625</AltitudeMeters>
            <DistanceMeters>NAN</DistanceMeters>
          </Trackpoint>
          <Trackpoint>
            <Time>2021-04-02T11:39:50.000Z</Time>
            <Position>
              <LatitudeDegrees>42.33157879672944545745849609375</LatitudeDegrees>
              <LongitudeDegrees>2.6038348674774169921875</LongitudeDegrees>
            </Position>
            <AltitudeMeters>674.79998779296875</AltitudeMeters>
            <DistanceMeters>NAN</DistanceMeters>
          </Trackpoint>
          <Trackpoint>
            <Time>2021-04-02T11:39:53.000Z</Time>
            <Position>
              <LatitudeDegrees>42.3315582610666751861572265625</LatitudeDegrees>
              <LongitudeDegrees>2.60385892353951930999755859375</LongitudeDegrees>
            </Position>
            <AltitudeMeters>674.4000244140625</AltitudeMeters>
            <DistanceMeters>NAN</DistanceMeters>
          </Trackpoint>
          <Trackpoint>
            <Time>2021-04-02T11:39:56.000Z</Time>
            <Position>
              <LatitudeDegrees>42.33154468238353729248046875</LatitudeDegrees>
              <LongitudeDegrees>2.6038710772991180419921875</LongitudeDegrees>
            </Position>
            <AltitudeMeters>674.4000244140625</AltitudeMeters>
            <DistanceMeters>NAN</DistanceMeters>
          </Trackpoint>
          <Trackpoint>
            <Time>2021-04-02T11:39:57.000Z</Time>
            <Position>
              <LatitudeDegrees>42.3315371386706829071044921875</LatitudeDegrees>
              <LongitudeDegrees>2.60387300513684749603271484375</LongitudeDegrees>
            </Position>
            <AltitudeMeters>674.20001220703125</AltitudeMeters>
            <DistanceMeters>NAN</DistanceMeters>
          </Trackpoint>
          <Trackpoint>
            <Time>2021-04-02T11:40:05.000Z</Time>
            <Position>
              <LatitudeDegrees>42.33151777647435665130615234375</LatitudeDegrees>
              <LongitudeDegrees>2.603937126696109771728515625</LongitudeDegrees>
            </Position>
            <AltitudeMeters>674.5999755859375</AltitudeMeters>
            <DistanceMeters>NAN</DistanceMeters>
          </Trackpoint>
          <Trackpoint>
            <Time>2021-04-02T11:40:13.000Z</Time>
            <Position>
              <LatitudeDegrees>42.3314741067588329315185546875</LatitudeDegrees>
              <LongitudeDegrees>2.603966630995273590087890625</LongitudeDegrees>
            </Position>
            <AltitudeMeters>675.4000244140625</AltitudeMeters>
            <DistanceMeters>NAN</DistanceMeters>
          </Trackpoint>
          <Trackpoint>
            <Time>2021-04-02T11:40:14.000Z</Time>
            <Position>
              <LatitudeDegrees>42.3314769566059112548828125</LatitudeDegrees>
              <LongitudeDegrees>2.603968642652034759521484375</LongitudeDegrees>
            </Position>
            <AltitudeMeters>675.4000244140625</AltitudeMeters>
            <DistanceMeters>NAN</DistanceMeters>
          </Trackpoint>
          <Trackpoint>
            <Time>2021-04-02T11:40:22.000Z</Time>
            <Position>
              <LatitudeDegrees>42.3314702510833740234375</LatitudeDegrees>
              <LongitudeDegrees>2.60400124825537204742431640625</LongitudeDegrees>
            </Position>
            <AltitudeMeters>675.20001220703125</AltitudeMeters>
            <DistanceMeters>NAN</DistanceMeters>
          </Trackpoint>
          <Trackpoint>
            <Time>2021-04-02T11:40:23.000Z</Time>
            <Position>
              <LatitudeDegrees>42.3314724303781986236572265625</LatitudeDegrees>
              <LongitudeDegrees>2.603996135294437408447265625</LongitudeDegrees>
            </Position>
            <AltitudeMeters>675.20001220703125</AltitudeMeters>
            <DistanceMeters>NAN</DistanceMeters>
          </Trackpoint>
          <Trackpoint>
            <Time>2021-04-02T11:40:27.000Z</Time>
            <Position>
              <LatitudeDegrees>42.3314429260790348052978515625</LatitudeDegrees>
              <LongitudeDegrees>2.60399336926639080047607421875</LongitudeDegrees>
            </Position>
            <AltitudeMeters>675</AltitudeMeters>
            <DistanceMeters>NAN</DistanceMeters>
          </Trackpoint>
          <Trackpoint>
            <Time>2021-04-02T11:40:33.000Z</Time>
            <Position>
              <LatitudeDegrees>42.33142825774848461151123046875</LatitudeDegrees>
              <LongitudeDegrees>2.60399588383734226226806640625</LongitudeDegrees>
            </Position>
            <AltitudeMeters>675</AltitudeMeters>
            <DistanceMeters>NAN</DistanceMeters>
          </Trackpoint>
          <Trackpoint>
            <Time>2021-04-02T11:40:41.000Z</Time>
            <Position>
              <LatitudeDegrees>42.331404201686382293701171875</LatitudeDegrees>
              <LongitudeDegrees>2.60403427295386791229248046875</LongitudeDegrees>
            </Position>
            <AltitudeMeters>675.79998779296875</AltitudeMeters>
            <DistanceMeters>NAN</DistanceMeters>
          </Trackpoint>
          <Trackpoint>
            <Time>2021-04-02T11:40:42.000Z</Time>
            <Position>
              <LatitudeDegrees>42.33140277676284313201904296875</LatitudeDegrees>
              <LongitudeDegrees>2.60404533706605434417724609375</LongitudeDegrees>
            </Position>
            <AltitudeMeters>676</AltitudeMeters>
            <DistanceMeters>NAN</DistanceMeters>
          </Trackpoint>
          <Trackpoint>
            <Time>2021-04-02T11:40:46.000Z</Time>
            <Position>
              <LatitudeDegrees>42.33138668350875377655029296875</LatitudeDegrees>
              <LongitudeDegrees>2.60410350747406482696533203125</LongitudeDegrees>
            </Position>
            <AltitudeMeters>675.79998779296875</AltitudeMeters>
            <DistanceMeters>NAN</DistanceMeters>
          </Trackpoint>
          <Trackpoint>
            <Time>2021-04-02T11:40:48.000Z</Time>
            <Position>
              <LatitudeDegrees>42.33138165436685085296630859375</LatitudeDegrees>
              <LongitudeDegrees>2.6041203550994396209716796875</LongitudeDegrees>
            </Position>
            <AltitudeMeters>675.4000244140625</AltitudeMeters>
            <DistanceMeters>NAN</DistanceMeters>
          </Trackpoint>
          <Trackpoint>
            <Time>2021-04-02T11:40:54.000Z</Time>
            <Position>
              <LatitudeDegrees>42.33136438764631748199462890625</LatitudeDegrees>
              <LongitudeDegrees>2.60414457879960536956787109375</LongitudeDegrees>
            </Position>
            <AltitudeMeters>675.5999755859375</AltitudeMeters>
            <DistanceMeters>NAN</DistanceMeters>
          </Trackpoint>
          <Trackpoint>
            <Time>2021-04-02T11:41:00.000Z</Time>
            <Position>
              <LatitudeDegrees>42.33132247813045978546142578125</LatitudeDegrees>
              <LongitudeDegrees>2.6041830517351627349853515625</LongitudeDegrees>
            </Position>
            <AltitudeMeters>676.20001220703125</AltitudeMeters>
            <DistanceMeters>NAN</DistanceMeters>
          </Trackpoint>
          <Trackpoint>
            <Time>2021-04-02T11:41:02.000Z</Time>
            <Position>
              <LatitudeDegrees>42.3312943987548351287841796875</LatitudeDegrees>
              <LongitudeDegrees>2.60419554077088832855224609375</LongitudeDegrees>
            </Position>
            <AltitudeMeters>676.4000244140625</AltitudeMeters>
            <DistanceMeters>NAN</DistanceMeters>
          </Trackpoint>
          <Trackpoint>
            <Time>2021-04-02T11:41:04.000Z</Time>
            <Position>
              <LatitudeDegrees>42.3312699235975742340087890625</LatitudeDegrees>
              <LongitudeDegrees>2.60420459322631359100341796875</LongitudeDegrees>
            </Position>
            <AltitudeMeters>676.5999755859375</AltitudeMeters>
            <DistanceMeters>NAN</DistanceMeters>
          </Trackpoint>
          <Trackpoint>
            <Time>2021-04-02T11:41:07.000Z</Time>
            <Position>
              <LatitudeDegrees>42.3312333784997463226318359375</LatitudeDegrees>
              <LongitudeDegrees>2.60420970618724822998046875</LongitudeDegrees>
            </Position>
            <AltitudeMeters>677.20001220703125</AltitudeMeters>
            <DistanceMeters>NAN</DistanceMeters>
          </Trackpoint>
          <Trackpoint>
            <Time>2021-04-02T11:41:08.000Z</Time>
            <Position>
              <LatitudeDegrees>42.331227175891399383544921875</LatitudeDegrees>
              <LongitudeDegrees>2.60420610196888446807861328125</LongitudeDegrees>
            </Position>
            <AltitudeMeters>677.20001220703125</AltitudeMeters>
            <DistanceMeters>NAN</DistanceMeters>
          </Trackpoint>
          <Trackpoint>
            <Time>2021-04-02T11:41:10.000Z</Time>
            <Position>
              <LatitudeDegrees>42.3312105797231197357177734375</LatitudeDegrees>
              <LongitudeDegrees>2.604202330112457275390625</LongitudeDegrees>
            </Position>
            <AltitudeMeters>677.4000244140625</AltitudeMeters>
            <DistanceMeters>NAN</DistanceMeters>
          </Trackpoint>
          <Trackpoint>
            <Time>2021-04-02T11:41:13.000Z</Time>
            <Position>
              <LatitudeDegrees>42.33118526637554168701171875</LatitudeDegrees>
              <LongitudeDegrees>2.6041978038847446441650390625</LongitudeDegrees>
            </Position>
            <AltitudeMeters>677.79998779296875</AltitudeMeters>
            <DistanceMeters>NAN</DistanceMeters>
          </Trackpoint>
          <Trackpoint>
            <Time>2021-04-02T11:41:15.000Z</Time>
            <Position>
              <LatitudeDegrees>42.331178225576877593994140625</LatitudeDegrees>
              <LongitudeDegrees>2.604180537164211273193359375</LongitudeDegrees>
            </Position>
            <AltitudeMeters>678</AltitudeMeters>
            <DistanceMeters>NAN</DistanceMeters>
          </Trackpoint>
          <Trackpoint>
            <Time>2021-04-02T11:41:17.000Z</Time>
            <Position>
              <LatitudeDegrees>42.331162802875041961669921875</LatitudeDegrees>
              <LongitudeDegrees>2.6041719876229763031005859375</LongitudeDegrees>
            </Position>
            <AltitudeMeters>678.4000244140625</AltitudeMeters>
            <DistanceMeters>NAN</DistanceMeters>
          </Trackpoint>
          <Trackpoint>
            <Time>2021-04-02T11:41:24.000Z</Time>
            <Position>
              <LatitudeDegrees>42.33110882341861724853515625</LatitudeDegrees>
              <LongitudeDegrees>2.604142986238002777099609375</LongitudeDegrees>
            </Position>
            <AltitudeMeters>678.79998779296875</AltitudeMeters>
            <DistanceMeters>NAN</DistanceMeters>
          </Trackpoint>
          <Trackpoint>
            <Time>2021-04-02T11:41:26.000Z</Time>
            <Position>
              <LatitudeDegrees>42.3310848511755466461181640625</LatitudeDegrees>
              <LongitudeDegrees>2.60413854382932186126708984375</LongitudeDegrees>
            </Position>
            <AltitudeMeters>679</AltitudeMeters>
            <DistanceMeters>NAN</DistanceMeters>
          </Trackpoint>
          <Trackpoint>
            <Time>2021-04-02T11:41:30.000Z</Time>
            <Position>
              <LatitudeDegrees>42.33105526305735111236572265625</LatitudeDegrees>
              <LongitudeDegrees>2.60412462987005710601806640625</LongitudeDegrees>
            </Position>
            <AltitudeMeters>679</AltitudeMeters>
            <DistanceMeters>NAN</DistanceMeters>
          </Trackpoint>
          <Trackpoint>
            <Time>2021-04-02T11:41:33.000Z</Time>
            <Position>
              <LatitudeDegrees>42.33102324418723583221435546875</LatitudeDegrees>
              <LongitudeDegrees>2.60410778224468231201171875</LongitudeDegrees>
            </Position>
            <AltitudeMeters>679.20001220703125</AltitudeMeters>
            <DistanceMeters>NAN</DistanceMeters>
          </Trackpoint>
          <Trackpoint>
            <Time>2021-04-02T11:41:36.000Z</Time>
            <Position>
              <LatitudeDegrees>42.3310003615915775299072265625</LatitudeDegrees>
              <LongitudeDegrees>2.60409772396087646484375</LongitudeDegrees>
            </Position>
            <AltitudeMeters>679.20001220703125</AltitudeMeters>
            <DistanceMeters>NAN</DistanceMeters>
          </Trackpoint>
          <Trackpoint>
            <Time>2021-04-02T11:41:38.000Z</Time>
            <Position>
              <LatitudeDegrees>42.33098812401294708251953125</LatitudeDegrees>
              <LongitudeDegrees>2.60409428738057613372802734375</LongitudeDegrees>
            </Position>
            <AltitudeMeters>679</AltitudeMeters>
            <DistanceMeters>NAN</DistanceMeters>
          </Trackpoint>
          <Trackpoint>
            <Time>2021-04-02T11:41:40.000Z</Time>
            <Position>
              <LatitudeDegrees>42.33098200522363185882568359375</LatitudeDegrees>
              <LongitudeDegrees>2.60408892296254634857177734375</LongitudeDegrees>
            </Position>
            <AltitudeMeters>679</AltitudeMeters>
            <DistanceMeters>NAN</DistanceMeters>
          </Trackpoint>
          <Trackpoint>
            <Time>2021-04-02T11:41:41.000Z</Time>
            <Position>
              <LatitudeDegrees>42.33097697608172893524169921875</LatitudeDegrees>
              <LongitudeDegrees>2.60408590547740459442138671875</LongitudeDegrees>
            </Position>
            <AltitudeMeters>679.20001220703125</AltitudeMeters>
            <DistanceMeters>NAN</DistanceMeters>
          </Trackpoint>
          <Trackpoint>
            <Time>2021-04-02T11:41:43.000Z</Time>
            <Position>
              <LatitudeDegrees>42.33095535077154636383056640625</LatitudeDegrees>
              <LongitudeDegrees>2.6040874980390071868896484375</LongitudeDegrees>
            </Position>
            <AltitudeMeters>679.4000244140625</AltitudeMeters>
            <DistanceMeters>NAN</DistanceMeters>
          </Trackpoint>
          <Trackpoint>
            <Time>2021-04-02T11:41:44.000Z</Time>
            <Position>
              <LatitudeDegrees>42.3309458792209625244140625</LatitudeDegrees>
              <LongitudeDegrees>2.604087330400943756103515625</LongitudeDegrees>
            </Position>
            <AltitudeMeters>679.5999755859375</AltitudeMeters>
            <DistanceMeters>NAN</DistanceMeters>
          </Trackpoint>
          <Trackpoint>
            <Time>2021-04-02T11:41:45.000Z</Time>
            <Position>
              <LatitudeDegrees>42.33093850314617156982421875</LatitudeDegrees>
              <LongitudeDegrees>2.60408624075353145599365234375</LongitudeDegrees>
            </Position>
            <AltitudeMeters>679.5999755859375</AltitudeMeters>
            <DistanceMeters>NAN</DistanceMeters>
          </Trackpoint>
          <Trackpoint>
            <Time>2021-04-02T11:41:47.000Z</Time>
            <Position>
              <LatitudeDegrees>42.33091427944600582122802734375</LatitudeDegrees>
              <LongitudeDegrees>2.60408573783934116363525390625</LongitudeDegrees>
            </Position>
            <AltitudeMeters>679.79998779296875</AltitudeMeters>
            <DistanceMeters>NAN</DistanceMeters>
          </Trackpoint>
          <Trackpoint>
            <Time>2021-04-02T11:41:49.000Z</Time>
            <Position>
              <LatitudeDegrees>42.33089785091578960418701171875</LatitudeDegrees>
              <LongitudeDegrees>2.6040868274867534637451171875</LongitudeDegrees>
            </Position>
            <AltitudeMeters>679.79998779296875</AltitudeMeters>
            <DistanceMeters>NAN</DistanceMeters>
          </Trackpoint>
          <Trackpoint>
            <Time>2021-04-02T11:41:51.000Z</Time>
            <Position>
              <LatitudeDegrees>42.33086516149342060089111328125</LatitudeDegrees>
              <LongitudeDegrees>2.60409076698124408721923828125</LongitudeDegrees>
            </Position>
            <AltitudeMeters>679.79998779296875</AltitudeMeters>
            <DistanceMeters>NAN</DistanceMeters>
          </Trackpoint>
          <Trackpoint>
            <Time>2021-04-02T11:41:55.000Z</Time>
            <Position>
              <LatitudeDegrees>42.330820150673389434814453125</LatitudeDegrees>
              <LongitudeDegrees>2.6040925271809101104736328125</LongitudeDegrees>
            </Position>
            <AltitudeMeters>679.79998779296875</AltitudeMeters>
            <DistanceMeters>NAN</DistanceMeters>
          </Trackpoint>
          <Trackpoint>
            <Time>2021-04-02T11:42:00.000Z</Time>
            <Position>
              <LatitudeDegrees>42.33079156838357448577880859375</LatitudeDegrees>
              <LongitudeDegrees>2.60406729765236377716064453125</LongitudeDegrees>
            </Position>
            <AltitudeMeters>680.4000244140625</AltitudeMeters>
            <DistanceMeters>NAN</DistanceMeters>
          </Trackpoint>
          <Trackpoint>
            <Time>2021-04-02T11:42:02.000Z</Time>
            <Position>
              <LatitudeDegrees>42.33077413402497768402099609375</LatitudeDegrees>
              <LongitudeDegrees>2.6040653698146343231201171875</LongitudeDegrees>
            </Position>
            <AltitudeMeters>680.5999755859375</AltitudeMeters>
            <DistanceMeters>NAN</DistanceMeters>
          </Trackpoint>
          <Trackpoint>
            <Time>2021-04-02T11:42:03.000Z</Time>
            <Position>
              <LatitudeDegrees>42.3307670094072818756103515625</LatitudeDegrees>
              <LongitudeDegrees>2.604066543281078338623046875</LongitudeDegrees>
            </Position>
            <AltitudeMeters>680.5999755859375</AltitudeMeters>
            <DistanceMeters>NAN</DistanceMeters>
          </Trackpoint>
          <Trackpoint>
            <Time>2021-04-02T11:42:04.000Z</Time>
            <Position>
              <LatitudeDegrees>42.33076005242764949798583984375</LatitudeDegrees>
              <LongitudeDegrees>2.6040623523294925689697265625</LongitudeDegrees>
            </Position>
            <AltitudeMeters>680.5999755859375</AltitudeMeters>
            <DistanceMeters>NAN</DistanceMeters>
          </Trackpoint>
          <Trackpoint>
            <Time>2021-04-02T11:42:08.000Z</Time>
            <Position>
              <LatitudeDegrees>42.3307261057198047637939453125</LatitudeDegrees>
              <LongitudeDegrees>2.6040469296276569366455078125</LongitudeDegrees>
            </Position>
            <AltitudeMeters>681</AltitudeMeters>
            <DistanceMeters>NAN</DistanceMeters>
          </Trackpoint>
          <Trackpoint>
            <Time>2021-04-02T11:42:09.000Z</Time>
            <Position>
              <LatitudeDegrees>42.33071479015052318572998046875</LatitudeDegrees>
              <LongitudeDegrees>2.60404533706605434417724609375</LongitudeDegrees>
            </Position>
            <AltitudeMeters>681.20001220703125</AltitudeMeters>
            <DistanceMeters>NAN</DistanceMeters>
          </Trackpoint>
          <Trackpoint>
            <Time>2021-04-02T11:42:11.000Z</Time>
            <Position>
              <LatitudeDegrees>42.33069366775453090667724609375</LatitudeDegrees>
              <LongitudeDegrees>2.604043073952198028564453125</LongitudeDegrees>
            </Position>
            <AltitudeMeters>681.4000244140625</AltitudeMeters>
            <DistanceMeters>NAN</DistanceMeters>
          </Trackpoint>
          <Trackpoint>
            <Time>2021-04-02T11:42:13.000Z</Time>
            <Position>
              <LatitudeDegrees>42.3306818492710590362548828125</LatitudeDegrees>
              <LongitudeDegrees>2.60404131375253200531005859375</LongitudeDegrees>
            </Position>
            <AltitudeMeters>681.5999755859375</AltitudeMeters>
            <DistanceMeters>NAN</DistanceMeters>
          </Trackpoint>
          <Trackpoint>
            <Time>2021-04-02T11:42:17.000Z</Time>
            <Position>
              <LatitudeDegrees>42.3306580446660518646240234375</LatitudeDegrees>
              <LongitudeDegrees>2.6040261425077915191650390625</LongitudeDegrees>
            </Position>
            <AltitudeMeters>681.79998779296875</AltitudeMeters>
            <DistanceMeters>NAN</DistanceMeters>
          </Trackpoint>
          <Trackpoint>
            <Time>2021-04-02T11:42:23.000Z</Time>
            <Position>
              <LatitudeDegrees>42.33061873354017734527587890625</LatitudeDegrees>
              <LongitudeDegrees>2.604028992354869842529296875</LongitudeDegrees>
            </Position>
            <AltitudeMeters>682.20001220703125</AltitudeMeters>
            <DistanceMeters>NAN</DistanceMeters>
          </Trackpoint>
          <Trackpoint>
            <Time>2021-04-02T11:42:25.000Z</Time>
            <Position>
              <LatitudeDegrees>42.33060993254184722900390625</LatitudeDegrees>
              <LongitudeDegrees>2.604028992354869842529296875</LongitudeDegrees>
            </Position>
            <AltitudeMeters>682.20001220703125</AltitudeMeters>
            <DistanceMeters>NAN</DistanceMeters>
          </Trackpoint>
          <Trackpoint>
            <Time>2021-04-02T11:42:30.000Z</Time>
            <Position>
              <LatitudeDegrees>42.3305702023208141326904296875</LatitudeDegrees>
              <LongitudeDegrees>2.60401298291981220245361328125</LongitudeDegrees>
            </Position>
            <AltitudeMeters>682</AltitudeMeters>
            <DistanceMeters>NAN</DistanceMeters>
          </Trackpoint>
          <Trackpoint>
            <Time>2021-04-02T11:42:38.000Z</Time>
            <Position>
              <LatitudeDegrees>42.33051211573183536529541015625</LatitudeDegrees>
              <LongitudeDegrees>2.60396428406238555908203125</LongitudeDegrees>
            </Position>
            <AltitudeMeters>682.5999755859375</AltitudeMeters>
            <DistanceMeters>NAN</DistanceMeters>
          </Trackpoint>
          <Trackpoint>
            <Time>2021-04-02T11:42:41.000Z</Time>
            <Position>
              <LatitudeDegrees>42.330488227307796478271484375</LatitudeDegrees>
              <LongitudeDegrees>2.6039436645805835723876953125</LongitudeDegrees>
            </Position>
            <AltitudeMeters>682.5999755859375</AltitudeMeters>
            <DistanceMeters>NAN</DistanceMeters>
          </Trackpoint>
          <Trackpoint>
            <Time>2021-04-02T11:42:47.000Z</Time>
            <Position>
              <LatitudeDegrees>42.33045511879026889801025390625</LatitudeDegrees>
              <LongitudeDegrees>2.60390921495854854583740234375</LongitudeDegrees>
            </Position>
            <AltitudeMeters>682.79998779296875</AltitudeMeters>
            <DistanceMeters>NAN</DistanceMeters>
          </Trackpoint>
          <Trackpoint>
            <Time>2021-04-02T11:42:56.000Z</Time>
            <Position>
              <LatitudeDegrees>42.33039342798292636871337890625</LatitudeDegrees>
              <LongitudeDegrees>2.60384852997958660125732421875</LongitudeDegrees>
            </Position>
            <AltitudeMeters>683.5999755859375</AltitudeMeters>
            <DistanceMeters>NAN</DistanceMeters>
          </Trackpoint>
          <Trackpoint>
            <Time>2021-04-02T11:42:57.000Z</Time>
            <Position>
              <LatitudeDegrees>42.3303874768316745758056640625</LatitudeDegrees>
              <LongitudeDegrees>2.60384115390479564666748046875</LongitudeDegrees>
            </Position>
            <AltitudeMeters>683.5999755859375</AltitudeMeters>
            <DistanceMeters>NAN</DistanceMeters>
          </Trackpoint>
          <Trackpoint>
            <Time>2021-04-02T11:43:03.000Z</Time>
            <Position>
              <LatitudeDegrees>42.33035185374319553375244140625</LatitudeDegrees>
              <LongitudeDegrees>2.60380377061665058135986328125</LongitudeDegrees>
            </Position>
            <AltitudeMeters>684</AltitudeMeters>
            <DistanceMeters>NAN</DistanceMeters>
          </Trackpoint>
          <Trackpoint>
            <Time>2021-04-02T11:43:05.000Z</Time>
            <Position>
              <LatitudeDegrees>42.33033928088843822479248046875</LatitudeDegrees>
              <LongitudeDegrees>2.60378482751548290252685546875</LongitudeDegrees>
            </Position>
            <AltitudeMeters>684</AltitudeMeters>
            <DistanceMeters>NAN</DistanceMeters>
          </Trackpoint>
          <Trackpoint>
            <Time>2021-04-02T11:43:09.000Z</Time>
            <Position>
              <LatitudeDegrees>42.33031011186540126800537109375</LatitudeDegrees>
              <LongitudeDegrees>2.6037528924643993377685546875</LongitudeDegrees>
            </Position>
            <AltitudeMeters>684.4000244140625</AltitudeMeters>
            <DistanceMeters>NAN</DistanceMeters>
          </Trackpoint>
          <Trackpoint>
            <Time>2021-04-02T11:43:10.000Z</Time>
            <Position>
              <LatitudeDegrees>42.3303066752851009368896484375</LatitudeDegrees>
              <LongitudeDegrees>2.60374157689511775970458984375</LongitudeDegrees>
            </Position>
            <AltitudeMeters>684.4000244140625</AltitudeMeters>
            <DistanceMeters>NAN</DistanceMeters>
          </Trackpoint>
          <Trackpoint>
            <Time>2021-04-02T11:43:17.000Z</Time>
            <Position>
              <LatitudeDegrees>42.33026082627475261688232421875</LatitudeDegrees>
              <LongitudeDegrees>2.60368474759161472320556640625</LongitudeDegrees>
            </Position>
            <AltitudeMeters>684.79998779296875</AltitudeMeters>
            <DistanceMeters>NAN</DistanceMeters>
          </Trackpoint>
          <Trackpoint>
            <Time>2021-04-02T11:43:19.000Z</Time>
            <Position>
              <LatitudeDegrees>42.3302516900002956390380859375</LatitudeDegrees>
              <LongitudeDegrees>2.60366479866206645965576171875</LongitudeDegrees>
            </Position>
            <AltitudeMeters>684.79998779296875</AltitudeMeters>
            <DistanceMeters>NAN</DistanceMeters>
          </Trackpoint>
          <Trackpoint>
            <Time>2021-04-02T11:43:22.000Z</Time>
            <Position>
              <LatitudeDegrees>42.33023366890847682952880859375</LatitudeDegrees>
              <LongitudeDegrees>2.60364367626607418060302734375</LongitudeDegrees>
            </Position>
            <AltitudeMeters>685</AltitudeMeters>
            <DistanceMeters>NAN</DistanceMeters>
          </Trackpoint>
          <Trackpoint>
            <Time>2021-04-02T11:43:25.000Z</Time>
            <Position>
              <LatitudeDegrees>42.33023065142333507537841796875</LatitudeDegrees>
              <LongitudeDegrees>2.60360746644437313079833984375</LongitudeDegrees>
            </Position>
            <AltitudeMeters>685.4000244140625</AltitudeMeters>
            <DistanceMeters>NAN</DistanceMeters>
          </Trackpoint>
          <Trackpoint>
            <Time>2021-04-02T11:43:28.000Z</Time>
            <Position>
              <LatitudeDegrees>42.330233752727508544921875</LatitudeDegrees>
              <LongitudeDegrees>2.60359573177993297576904296875</LongitudeDegrees>
            </Position>
            <AltitudeMeters>685.4000244140625</AltitudeMeters>
            <DistanceMeters>NAN</DistanceMeters>
          </Trackpoint>
          <Trackpoint>
            <Time>2021-04-02T11:43:30.000Z</Time>
            <Position>
              <LatitudeDegrees>42.3302243649959564208984375</LatitudeDegrees>
              <LongitudeDegrees>2.6035882718861103057861328125</LongitudeDegrees>
            </Position>
            <AltitudeMeters>685.4000244140625</AltitudeMeters>
            <DistanceMeters>NAN</DistanceMeters>
          </Trackpoint>
          <Trackpoint>
            <Time>2021-04-02T11:43:33.000Z</Time>
            <Position>
              <LatitudeDegrees>42.33020760118961334228515625</LatitudeDegrees>
              <LongitudeDegrees>2.60355851612985134124755859375</LongitudeDegrees>
            </Position>
            <AltitudeMeters>685.4000244140625</AltitudeMeters>
            <DistanceMeters>NAN</DistanceMeters>
          </Trackpoint>
          <Trackpoint>
            <Time>2021-04-02T11:43:38.000Z</Time>
            <Position>
              <LatitudeDegrees>42.330158650875091552734375</LatitudeDegrees>
              <LongitudeDegrees>2.60355013422667980194091796875</LongitudeDegrees>
            </Position>
            <AltitudeMeters>685.79998779296875</AltitudeMeters>
            <DistanceMeters>NAN</DistanceMeters>
          </Trackpoint>
          <Trackpoint>
            <Time>2021-04-02T11:43:40.000Z</Time>
            <Position>
              <LatitudeDegrees>42.33014079742133617401123046875</LatitudeDegrees>
              <LongitudeDegrees>2.6035331189632415771484375</LongitudeDegrees>
            </Position>
            <AltitudeMeters>686</AltitudeMeters>
            <DistanceMeters>NAN</DistanceMeters>
          </Trackpoint>
          <Trackpoint>
            <Time>2021-04-02T11:43:44.000Z</Time>
            <Position>
              <LatitudeDegrees>42.33011581934988498687744140625</LatitudeDegrees>
              <LongitudeDegrees>2.60349833406507968902587890625</LongitudeDegrees>
            </Position>
            <AltitudeMeters>686</AltitudeMeters>
            <DistanceMeters>NAN</DistanceMeters>
          </Trackpoint>
          <Trackpoint>
            <Time>2021-04-02T11:43:47.000Z</Time>
            <Position>
              <LatitudeDegrees>42.33007491566240787506103515625</LatitudeDegrees>
              <LongitudeDegrees>2.60349699296057224273681640625</LongitudeDegrees>
            </Position>
            <AltitudeMeters>685.5999755859375</AltitudeMeters>
            <DistanceMeters>NAN</DistanceMeters>
          </Trackpoint>
          <Trackpoint>
            <Time>2021-04-02T11:43:51.000Z</Time>
            <Position>
              <LatitudeDegrees>42.3300381191074848175048828125</LatitudeDegrees>
              <LongitudeDegrees>2.60347369126975536346435546875</LongitudeDegrees>
            </Position>
            <AltitudeMeters>684.79998779296875</AltitudeMeters>
            <DistanceMeters>NAN</DistanceMeters>
          </Trackpoint>
          <Trackpoint>
            <Time>2021-04-02T11:43:54.000Z</Time>
            <Position>
              <LatitudeDegrees>42.33002093620598316192626953125</LatitudeDegrees>
              <LongitudeDegrees>2.60344821028411388397216796875</LongitudeDegrees>
            </Position>
            <AltitudeMeters>684.4000244140625</AltitudeMeters>
            <DistanceMeters>NAN</DistanceMeters>
          </Trackpoint>
          <Trackpoint>
            <Time>2021-04-02T11:44:01.000Z</Time>
            <Position>
              <LatitudeDegrees>42.329960502684116363525390625</LatitudeDegrees>
              <LongitudeDegrees>2.60339121334254741668701171875</LongitudeDegrees>
            </Position>
            <AltitudeMeters>684</AltitudeMeters>
            <DistanceMeters>NAN</DistanceMeters>
          </Trackpoint>
          <Trackpoint>
            <Time>2021-04-02T11:44:02.000Z</Time>
            <Position>
              <LatitudeDegrees>42.32995907776057720184326171875</LatitudeDegrees>
              <LongitudeDegrees>2.60338651947677135467529296875</LongitudeDegrees>
            </Position>
            <AltitudeMeters>684</AltitudeMeters>
            <DistanceMeters>NAN</DistanceMeters>
          </Trackpoint>
          <Trackpoint>
            <Time>2021-04-02T11:44:04.000Z</Time>
            <Position>
              <LatitudeDegrees>42.3299566470086574554443359375</LatitudeDegrees>
              <LongitudeDegrees>2.603357769548892974853515625</LongitudeDegrees>
            </Position>
            <AltitudeMeters>684.20001220703125</AltitudeMeters>
            <DistanceMeters>NAN</DistanceMeters>
          </Trackpoint>
          <Trackpoint>
            <Time>2021-04-02T11:44:09.000Z</Time>
            <Position>
              <LatitudeDegrees>42.32991448603570461273193359375</LatitudeDegrees>
              <LongitudeDegrees>2.6032959111034870147705078125</LongitudeDegrees>
            </Position>
            <AltitudeMeters>684</AltitudeMeters>
            <DistanceMeters>NAN</DistanceMeters>
          </Trackpoint>
          <Trackpoint>
            <Time>2021-04-02T11:44:13.000Z</Time>
            <Position>
              <LatitudeDegrees>42.32989436946809291839599609375</LatitudeDegrees>
              <LongitudeDegrees>2.603251822292804718017578125</LongitudeDegrees>
            </Position>
            <AltitudeMeters>683.79998779296875</AltitudeMeters>
            <DistanceMeters>NAN</DistanceMeters>
          </Trackpoint>
          <Trackpoint>
            <Time>2021-04-02T11:44:16.000Z</Time>
            <Position>
              <LatitudeDegrees>42.3298986442387104034423828125</LatitudeDegrees>
              <LongitudeDegrees>2.60319373570382595062255859375</LongitudeDegrees>
            </Position>
            <AltitudeMeters>683.5999755859375</AltitudeMeters>
            <DistanceMeters>NAN</DistanceMeters>
          </Trackpoint>
          <Trackpoint>
            <Time>2021-04-02T11:44:18.000Z</Time>
            <Position>
              <LatitudeDegrees>42.32989822514355182647705078125</LatitudeDegrees>
              <LongitudeDegrees>2.60315450839698314666748046875</LongitudeDegrees>
            </Position>
            <AltitudeMeters>683.5999755859375</AltitudeMeters>
            <DistanceMeters>NAN</DistanceMeters>
          </Trackpoint>
          <Trackpoint>
            <Time>2021-04-02T11:44:20.000Z</Time>
            <Position>
              <LatitudeDegrees>42.32989671640098094940185546875</LatitudeDegrees>
              <LongitudeDegrees>2.6031192205846309661865234375</LongitudeDegrees>
            </Position>
            <AltitudeMeters>683.5999755859375</AltitudeMeters>
            <DistanceMeters>NAN</DistanceMeters>
          </Trackpoint>
          <Trackpoint>
            <Time>2021-04-02T11:44:22.000Z</Time>
            <Position>
              <LatitudeDegrees>42.32991121709346771240234375</LatitudeDegrees>
              <LongitudeDegrees>2.60308829136192798614501953125</LongitudeDegrees>
            </Position>
            <AltitudeMeters>683.5999755859375</AltitudeMeters>
            <DistanceMeters>NAN</DistanceMeters>
          </Trackpoint>
          <Trackpoint>
            <Time>2021-04-02T11:44:25.000Z</Time>
            <Position>
              <LatitudeDegrees>42.329913564026355743408203125</LatitudeDegrees>
              <LongitudeDegrees>2.6030454598367214202880859375</LongitudeDegrees>
            </Position>
            <AltitudeMeters>683.4000244140625</AltitudeMeters>
            <DistanceMeters>NAN</DistanceMeters>
          </Trackpoint>
          <Trackpoint>
            <Time>2021-04-02T11:44:27.000Z</Time>
            <Position>
              <LatitudeDegrees>42.3299154080450534820556640625</LatitudeDegrees>
              <LongitudeDegrees>2.603033892810344696044921875</LongitudeDegrees>
            </Position>
            <AltitudeMeters>683.4000244140625</AltitudeMeters>
            <DistanceMeters>NAN</DistanceMeters>
          </Trackpoint>
          <Trackpoint>
            <Time>2021-04-02T11:44:28.000Z</Time>
            <Position>
              <LatitudeDegrees>42.32991792261600494384765625</LatitudeDegrees>
              <LongitudeDegrees>2.60302609764039516448974609375</LongitudeDegrees>
            </Position>
            <AltitudeMeters>683.20001220703125</AltitudeMeters>
            <DistanceMeters>NAN</DistanceMeters>
          </Trackpoint>
          <Trackpoint>
            <Time>2021-04-02T11:44:30.000Z</Time>
            <Position>
              <LatitudeDegrees>42.32991415075957775115966796875</LatitudeDegrees>
              <LongitudeDegrees>2.6030065678060054779052734375</LongitudeDegrees>
            </Position>
            <AltitudeMeters>683.20001220703125</AltitudeMeters>
            <DistanceMeters>NAN</DistanceMeters>
          </Trackpoint>
          <Trackpoint>
            <Time>2021-04-02T11:44:32.000Z</Time>
            <Position>
              <LatitudeDegrees>42.3299093730747699737548828125</LatitudeDegrees>
              <LongitudeDegrees>2.60299743153154850006103515625</LongitudeDegrees>
            </Position>
            <AltitudeMeters>683.20001220703125</AltitudeMeters>
            <DistanceMeters>NAN</DistanceMeters>
          </Trackpoint>
          <Trackpoint>
            <Time>2021-04-02T11:44:34.000Z</Time>
            <Position>
              <LatitudeDegrees>42.32990342192351818084716796875</LatitudeDegrees>
              <LongitudeDegrees>2.60299005545675754547119140625</LongitudeDegrees>
            </Position>
            <AltitudeMeters>683.4000244140625</AltitudeMeters>
            <DistanceMeters>NAN</DistanceMeters>
          </Trackpoint>
          <Trackpoint>
            <Time>2021-04-02T11:44:38.000Z</Time>
            <Position>
              <LatitudeDegrees>42.329879365861415863037109375</LatitudeDegrees>
              <LongitudeDegrees>2.60298661887645721435546875</LongitudeDegrees>
            </Position>
            <AltitudeMeters>684</AltitudeMeters>
            <DistanceMeters>NAN</DistanceMeters>
          </Trackpoint>
          <Trackpoint>
            <Time>2021-04-02T11:44:40.000Z</Time>
            <Position>
              <LatitudeDegrees>42.32986620627343654632568359375</LatitudeDegrees>
              <LongitudeDegrees>2.6029827632009983062744140625</LongitudeDegrees>
            </Position>
            <AltitudeMeters>684.4000244140625</AltitudeMeters>
            <DistanceMeters>NAN</DistanceMeters>
          </Trackpoint>
          <Trackpoint>
            <Time>2021-04-02T11:44:41.000Z</Time>
            <Position>
              <LatitudeDegrees>42.329863943159580230712890625</LatitudeDegrees>
              <LongitudeDegrees>2.6029770635068416595458984375</LongitudeDegrees>
            </Position>
            <AltitudeMeters>684.5999755859375</AltitudeMeters>
            <DistanceMeters>NAN</DistanceMeters>
          </Trackpoint>
          <Trackpoint>
            <Time>2021-04-02T11:44:43.000Z</Time>
            <Position>
              <LatitudeDegrees>42.329855896532535552978515625</LatitudeDegrees>
              <LongitudeDegrees>2.602965496480464935302734375</LongitudeDegrees>
            </Position>
            <AltitudeMeters>684.79998779296875</AltitudeMeters>
            <DistanceMeters>NAN</DistanceMeters>
          </Trackpoint>
          <Trackpoint>
            <Time>2021-04-02T11:44:44.000Z</Time>
            <Position>
              <LatitudeDegrees>42.3298480175435543060302734375</LatitudeDegrees>
              <LongitudeDegrees>2.6029643230140209197998046875</LongitudeDegrees>
            </Position>
            <AltitudeMeters>684.79998779296875</AltitudeMeters>
            <DistanceMeters>NAN</DistanceMeters>
          </Trackpoint>
          <Trackpoint>
            <Time>2021-04-02T11:44:45.000Z</Time>
            <Position>
              <LatitudeDegrees>42.32984173111617565155029296875</LatitudeDegrees>
              <LongitudeDegrees>2.60296457447111606597900390625</LongitudeDegrees>
            </Position>
            <AltitudeMeters>685</AltitudeMeters>
            <DistanceMeters>NAN</DistanceMeters>
          </Trackpoint>
          <Trackpoint>
            <Time>2021-04-02T11:44:47.000Z</Time>
            <Position>
              <LatitudeDegrees>42.32982530258595943450927734375</LatitudeDegrees>
              <LongitudeDegrees>2.60296650230884552001953125</LongitudeDegrees>
            </Position>
            <AltitudeMeters>685.20001220703125</AltitudeMeters>
            <DistanceMeters>NAN</DistanceMeters>
          </Trackpoint>
          <Trackpoint>
            <Time>2021-04-02T11:44:48.000Z</Time>
            <Position>
              <LatitudeDegrees>42.3298175074160099029541015625</LatitudeDegrees>
              <LongitudeDegrees>2.60296826250851154327392578125</LongitudeDegrees>
            </Position>
            <AltitudeMeters>685.20001220703125</AltitudeMeters>
            <DistanceMeters>NAN</DistanceMeters>
          </Trackpoint>
          <Trackpoint>
            <Time>2021-04-02T11:44:50.000Z</Time>
            <Position>
              <LatitudeDegrees>42.32980334199965000152587890625</LatitudeDegrees>
              <LongitudeDegrees>2.6029723696410655975341796875</LongitudeDegrees>
            </Position>
            <AltitudeMeters>685.5999755859375</AltitudeMeters>
            <DistanceMeters>NAN</DistanceMeters>
          </Trackpoint>
          <Trackpoint>
            <Time>2021-04-02T11:44:52.000Z</Time>
            <Position>
              <LatitudeDegrees>42.32979211024940013885498046875</LatitudeDegrees>
              <LongitudeDegrees>2.6029680110514163970947265625</LongitudeDegrees>
            </Position>
            <AltitudeMeters>685.79998779296875</AltitudeMeters>
            <DistanceMeters>NAN</DistanceMeters>
          </Trackpoint>
          <Trackpoint>
            <Time>2021-04-02T11:44:53.000Z</Time>
            <Position>
              <LatitudeDegrees>42.32978926040232181549072265625</LatitudeDegrees>
              <LongitudeDegrees>2.6029616408050060272216796875</LongitudeDegrees>
            </Position>
            <AltitudeMeters>686</AltitudeMeters>
            <DistanceMeters>NAN</DistanceMeters>
          </Trackpoint>
          <Trackpoint>
            <Time>2021-04-02T11:44:54.000Z</Time>
            <Position>
              <LatitudeDegrees>42.32979160733520984649658203125</LatitudeDegrees>
              <LongitudeDegrees>2.602954097092151641845703125</LongitudeDegrees>
            </Position>
            <AltitudeMeters>686.20001220703125</AltitudeMeters>
            <DistanceMeters>NAN</DistanceMeters>
          </Trackpoint>
          <Trackpoint>
            <Time>2021-04-02T11:45:00.000Z</Time>
            <Position>
              <LatitudeDegrees>42.3297732509672641754150390625</LatitudeDegrees>
              <LongitudeDegrees>2.60293037630617618560791015625</LongitudeDegrees>
            </Position>
            <AltitudeMeters>687</AltitudeMeters>
            <DistanceMeters>NAN</DistanceMeters>
          </Trackpoint>
          <Trackpoint>
            <Time>2021-04-02T11:45:02.000Z</Time>
            <Position>
              <LatitudeDegrees>42.3297655396163463592529296875</LatitudeDegrees>
              <LongitudeDegrees>2.60292970575392246246337890625</LongitudeDegrees>
            </Position>
            <AltitudeMeters>687.5999755859375</AltitudeMeters>
            <DistanceMeters>NAN</DistanceMeters>
          </Trackpoint>
          <Trackpoint>
            <Time>2021-04-02T11:45:07.000Z</Time>
            <Position>
              <LatitudeDegrees>42.329739220440387725830078125</LatitudeDegrees>
              <LongitudeDegrees>2.602928616106510162353515625</LongitudeDegrees>
            </Position>
            <AltitudeMeters>688.20001220703125</AltitudeMeters>
            <DistanceMeters>NAN</DistanceMeters>
          </Trackpoint>
          <Trackpoint>
            <Time>2021-04-02T11:45:09.000Z</Time>
            <Position>
              <LatitudeDegrees>42.3297413997352123260498046875</LatitudeDegrees>
              <LongitudeDegrees>2.602931298315525054931640625</LongitudeDegrees>
            </Position>
            <AltitudeMeters>688.4000244140625</AltitudeMeters>
            <DistanceMeters>NAN</DistanceMeters>
          </Trackpoint>
          <Trackpoint>
            <Time>2021-04-02T11:45:11.000Z</Time>
            <Position>
              <LatitudeDegrees>42.329741902649402618408203125</LatitudeDegrees>
              <LongitudeDegrees>2.602931968867778778076171875</LongitudeDegrees>
            </Position>
            <AltitudeMeters>688.5999755859375</AltitudeMeters>
            <DistanceMeters>NAN</DistanceMeters>
          </Trackpoint>
          <Trackpoint>
            <Time>2021-04-02T11:45:13.000Z</Time>
            <Position>
              <LatitudeDegrees>42.32973285019397735595703125</LatitudeDegrees>
              <LongitudeDegrees>2.60292015038430690765380859375</LongitudeDegrees>
            </Position>
            <AltitudeMeters>688.5999755859375</AltitudeMeters>
            <DistanceMeters>NAN</DistanceMeters>
          </Trackpoint>
          <Trackpoint>
            <Time>2021-04-02T11:45:19.000Z</Time>
            <Position>
              <LatitudeDegrees>42.3296984843909740447998046875</LatitudeDegrees>
              <LongitudeDegrees>2.602907828986644744873046875</LongitudeDegrees>
            </Position>
            <AltitudeMeters>689.4000244140625</AltitudeMeters>
            <DistanceMeters>NAN</DistanceMeters>
          </Trackpoint>
          <Trackpoint>
            <Time>2021-04-02T11:45:21.000Z</Time>
            <Position>
              <LatitudeDegrees>42.3296840675175189971923828125</LatitudeDegrees>
              <LongitudeDegrees>2.602898776531219482421875</LongitudeDegrees>
            </Position>
            <AltitudeMeters>689.5999755859375</AltitudeMeters>
            <DistanceMeters>NAN</DistanceMeters>
          </Trackpoint>
          <Trackpoint>
            <Time>2021-04-02T11:45:28.000Z</Time>
            <Position>
              <LatitudeDegrees>42.3296448402106761932373046875</LatitudeDegrees>
              <LongitudeDegrees>2.60286994278430938720703125</LongitudeDegrees>
            </Position>
            <AltitudeMeters>690.20001220703125</AltitudeMeters>
            <DistanceMeters>NAN</DistanceMeters>
          </Trackpoint>
          <Trackpoint>
            <Time>2021-04-02T11:45:29.000Z</Time>
            <Position>
              <LatitudeDegrees>42.329640649259090423583984375</LatitudeDegrees>
              <LongitudeDegrees>2.602864913642406463623046875</LongitudeDegrees>
            </Position>
            <AltitudeMeters>690.4000244140625</AltitudeMeters>
            <DistanceMeters>NAN</DistanceMeters>
          </Trackpoint>
          <Trackpoint>
            <Time>2021-04-02T11:45:30.000Z</Time>
            <Position>
              <LatitudeDegrees>42.32963704504072666168212890625</LatitudeDegrees>
              <LongitudeDegrees>2.60285426862537860870361328125</LongitudeDegrees>
            </Position>
            <AltitudeMeters>690.5999755859375</AltitudeMeters>
            <DistanceMeters>NAN</DistanceMeters>
          </Trackpoint>
          <Trackpoint>
            <Time>2021-04-02T11:45:37.000Z</Time>
            <Position>
              <LatitudeDegrees>42.32960284687578678131103515625</LatitudeDegrees>
              <LongitudeDegrees>2.60280263610184192657470703125</LongitudeDegrees>
            </Position>
            <AltitudeMeters>691.4000244140625</AltitudeMeters>
            <DistanceMeters>NAN</DistanceMeters>
          </Trackpoint>
          <Trackpoint>
            <Time>2021-04-02T11:45:38.000Z</Time>
            <Position>
              <LatitudeDegrees>42.32959681190550327301025390625</LatitudeDegrees>
              <LongitudeDegrees>2.60279341600835323333740234375</LongitudeDegrees>
            </Position>
            <AltitudeMeters>691.4000244140625</AltitudeMeters>
            <DistanceMeters>NAN</DistanceMeters>
          </Trackpoint>
          <Trackpoint>
            <Time>2021-04-02T11:45:45.000Z</Time>
            <Position>
              <LatitudeDegrees>42.32959530316293239593505859375</LatitudeDegrees>
              <LongitudeDegrees>2.6027158834040164947509765625</LongitudeDegrees>
            </Position>
            <AltitudeMeters>692.20001220703125</AltitudeMeters>
            <DistanceMeters>NAN</DistanceMeters>
          </Trackpoint>
          <Trackpoint>
            <Time>2021-04-02T11:45:49.000Z</Time>
            <Position>
              <LatitudeDegrees>42.3295952193439006805419921875</LatitudeDegrees>
              <LongitudeDegrees>2.60267254896461963653564453125</LongitudeDegrees>
            </Position>
            <AltitudeMeters>692.5999755859375</AltitudeMeters>
            <DistanceMeters>NAN</DistanceMeters>
          </Trackpoint>
          <Trackpoint>
            <Time>2021-04-02T11:45:53.000Z</Time>
            <Position>
              <LatitudeDegrees>42.3295992426574230194091796875</LatitudeDegrees>
              <LongitudeDegrees>2.60263583622872829437255859375</LongitudeDegrees>
            </Position>
            <AltitudeMeters>692.79998779296875</AltitudeMeters>
            <DistanceMeters>NAN</DistanceMeters>
          </Trackpoint>
          <Trackpoint>
            <Time>2021-04-02T11:46:00.000Z</Time>
            <Position>
              <LatitudeDegrees>42.3296029306948184967041015625</LatitudeDegrees>
              <LongitudeDegrees>2.602581940591335296630859375</LongitudeDegrees>
            </Position>
            <AltitudeMeters>693.5999755859375</AltitudeMeters>
            <DistanceMeters>NAN</DistanceMeters>
          </Trackpoint>
          <Trackpoint>
            <Time>2021-04-02T11:46:09.000Z</Time>
            <Position>
              <LatitudeDegrees>42.329613827168941497802734375</LatitudeDegrees>
              <LongitudeDegrees>2.60249921120703220367431640625</LongitudeDegrees>
            </Position>
            <AltitudeMeters>694.5999755859375</AltitudeMeters>
            <DistanceMeters>NAN</DistanceMeters>
          </Trackpoint>
          <Trackpoint>
            <Time>2021-04-02T11:46:10.000Z</Time>
            <Position>
              <LatitudeDegrees>42.32961508445441722869873046875</LatitudeDegrees>
              <LongitudeDegrees>2.60249351151287555694580078125</LongitudeDegrees>
            </Position>
            <AltitudeMeters>694.5999755859375</AltitudeMeters>
            <DistanceMeters>NAN</DistanceMeters>
          </Trackpoint>
          <Trackpoint>
            <Time>2021-04-02T11:46:16.000Z</Time>
            <Position>
              <LatitudeDegrees>42.3296113125979900360107421875</LatitudeDegrees>
              <LongitudeDegrees>2.60244070552289485931396484375</LongitudeDegrees>
            </Position>
            <AltitudeMeters>695.20001220703125</AltitudeMeters>
            <DistanceMeters>NAN</DistanceMeters>
          </Trackpoint>
          <Trackpoint>
            <Time>2021-04-02T11:46:24.000Z</Time>
            <Position>
              <LatitudeDegrees>42.32961625792086124420166015625</LatitudeDegrees>
              <LongitudeDegrees>2.6023584790527820587158203125</LongitudeDegrees>
            </Position>
            <AltitudeMeters>695.5999755859375</AltitudeMeters>
            <DistanceMeters>NAN</DistanceMeters>
          </Trackpoint>
          <Trackpoint>
            <Time>2021-04-02T11:46:26.000Z</Time>
            <Position>
              <LatitudeDegrees>42.32961885631084442138671875</LatitudeDegrees>
              <LongitudeDegrees>2.6023423857986927032470703125</LongitudeDegrees>
            </Position>
            <AltitudeMeters>695.79998779296875</AltitudeMeters>
            <DistanceMeters>NAN</DistanceMeters>
          </Trackpoint>
          <Trackpoint>
            <Time>2021-04-02T11:46:30.000Z</Time>
            <Position>
              <LatitudeDegrees>42.3296243883669376373291015625</LatitudeDegrees>
              <LongitudeDegrees>2.60232754983007907867431640625</LongitudeDegrees>
            </Position>
            <AltitudeMeters>696</AltitudeMeters>
            <DistanceMeters>NAN</DistanceMeters>
          </Trackpoint>
          <Trackpoint>
            <Time>2021-04-02T11:46:38.000Z</Time>
            <Position>
              <LatitudeDegrees>42.3296082951128482818603515625</LatitudeDegrees>
              <LongitudeDegrees>2.6022307388484477996826171875</LongitudeDegrees>
            </Position>
            <AltitudeMeters>696</AltitudeMeters>
            <DistanceMeters>NAN</DistanceMeters>
          </Trackpoint>
          <Trackpoint>
            <Time>2021-04-02T11:46:46.000Z</Time>
            <Position>
              <LatitudeDegrees>42.32960552908480167388916015625</LatitudeDegrees>
              <LongitudeDegrees>2.60216980241239070892333984375</LongitudeDegrees>
            </Position>
            <AltitudeMeters>696.20001220703125</AltitudeMeters>
            <DistanceMeters>NAN</DistanceMeters>
          </Trackpoint>
          <Trackpoint>
            <Time>2021-04-02T11:46:54.000Z</Time>
            <Position>
              <LatitudeDegrees>42.32960385270416736602783203125</LatitudeDegrees>
              <LongitudeDegrees>2.602081708610057830810546875</LongitudeDegrees>
            </Position>
            <AltitudeMeters>696.5999755859375</AltitudeMeters>
            <DistanceMeters>NAN</DistanceMeters>
          </Trackpoint>
          <Trackpoint>
            <Time>2021-04-02T11:46:58.000Z</Time>
            <Position>
              <LatitudeDegrees>42.32960368506610393524169921875</LatitudeDegrees>
              <LongitudeDegrees>2.60203032754361629486083984375</LongitudeDegrees>
            </Position>
            <AltitudeMeters>696.4000244140625</AltitudeMeters>
            <DistanceMeters>NAN</DistanceMeters>
          </Trackpoint>
          <Trackpoint>
            <Time>2021-04-02T11:47:00.000Z</Time>
            <Position>
              <LatitudeDegrees>42.3296042717993259429931640625</LatitudeDegrees>
              <LongitudeDegrees>2.602013647556304931640625</LongitudeDegrees>
            </Position>
            <AltitudeMeters>696.4000244140625</AltitudeMeters>
            <DistanceMeters>NAN</DistanceMeters>
          </Trackpoint>
          <Trackpoint>
            <Time>2021-04-02T11:47:01.000Z</Time>
            <Position>
              <LatitudeDegrees>42.32960435561835765838623046875</LatitudeDegrees>
              <LongitudeDegrees>2.6020014099776744842529296875</LongitudeDegrees>
            </Position>
            <AltitudeMeters>696.4000244140625</AltitudeMeters>
            <DistanceMeters>NAN</DistanceMeters>
          </Trackpoint>
          <Trackpoint>
            <Time>2021-04-02T11:47:07.000Z</Time>
            <Position>
              <LatitudeDegrees>42.32960276305675506591796875</LatitudeDegrees>
              <LongitudeDegrees>2.60193309746682643890380859375</LongitudeDegrees>
            </Position>
            <AltitudeMeters>696.79998779296875</AltitudeMeters>
            <DistanceMeters>NAN</DistanceMeters>
          </Trackpoint>
          <Trackpoint>
            <Time>2021-04-02T11:47:10.000Z</Time>
            <Position>
              <LatitudeDegrees>42.3296009190380573272705078125</LatitudeDegrees>
              <LongitudeDegrees>2.601901330053806304931640625</LongitudeDegrees>
            </Position>
            <AltitudeMeters>697.20001220703125</AltitudeMeters>
            <DistanceMeters>NAN</DistanceMeters>
          </Trackpoint>
          <Trackpoint>
            <Time>2021-04-02T11:47:12.000Z</Time>
            <Position>
              <LatitudeDegrees>42.32960117049515247344970703125</LatitudeDegrees>
              <LongitudeDegrees>2.60187794454395771026611328125</LongitudeDegrees>
            </Position>
            <AltitudeMeters>697.20001220703125</AltitudeMeters>
            <DistanceMeters>NAN</DistanceMeters>
          </Trackpoint>
          <Trackpoint>
            <Time>2021-04-02T11:47:16.000Z</Time>
            <Position>
              <LatitudeDegrees>42.32959379442036151885986328125</LatitudeDegrees>
              <LongitudeDegrees>2.6018297486007213592529296875</LongitudeDegrees>
            </Position>
            <AltitudeMeters>697.79998779296875</AltitudeMeters>
            <DistanceMeters>NAN</DistanceMeters>
          </Trackpoint>
          <Trackpoint>
            <Time>2021-04-02T11:47:18.000Z</Time>
            <Position>
              <LatitudeDegrees>42.3295918665826320648193359375</LatitudeDegrees>
              <LongitudeDegrees>2.60180686600506305694580078125</LongitudeDegrees>
            </Position>
            <AltitudeMeters>697.5999755859375</AltitudeMeters>
            <DistanceMeters>NAN</DistanceMeters>
          </Trackpoint>
          <Trackpoint>
            <Time>2021-04-02T11:47:21.000Z</Time>
            <Position>
              <LatitudeDegrees>42.32959337532520294189453125</LatitudeDegrees>
              <LongitudeDegrees>2.60176780633628368377685546875</LongitudeDegrees>
            </Position>
            <AltitudeMeters>697.5999755859375</AltitudeMeters>
            <DistanceMeters>NAN</DistanceMeters>
          </Trackpoint>
          <Trackpoint>
            <Time>2021-04-02T11:47:23.000Z</Time>
            <Position>
              <LatitudeDegrees>42.32959337532520294189453125</LatitudeDegrees>
              <LongitudeDegrees>2.60174567811191082000732421875</LongitudeDegrees>
            </Position>
            <AltitudeMeters>697.5999755859375</AltitudeMeters>
            <DistanceMeters>NAN</DistanceMeters>
          </Trackpoint>
          <Trackpoint>
            <Time>2021-04-02T11:47:25.000Z</Time>
            <Position>
              <LatitudeDegrees>42.32959630899131298065185546875</LatitudeDegrees>
              <LongitudeDegrees>2.60172170586884021759033203125</LongitudeDegrees>
            </Position>
            <AltitudeMeters>697.4000244140625</AltitudeMeters>
            <DistanceMeters>NAN</DistanceMeters>
          </Trackpoint>
          <Trackpoint>
            <Time>2021-04-02T11:47:28.000Z</Time>
            <Position>
              <LatitudeDegrees>42.3296047747135162353515625</LatitudeDegrees>
              <LongitudeDegrees>2.60169689543545246124267578125</LongitudeDegrees>
            </Position>
            <AltitudeMeters>697</AltitudeMeters>
            <DistanceMeters>NAN</DistanceMeters>
          </Trackpoint>
          <Trackpoint>
            <Time>2021-04-02T11:47:29.000Z</Time>
            <Position>
              <LatitudeDegrees>42.3296082951128482818603515625</LatitudeDegrees>
              <LongitudeDegrees>2.60168968699872493743896484375</LongitudeDegrees>
            </Position>
            <AltitudeMeters>696.79998779296875</AltitudeMeters>
            <DistanceMeters>NAN</DistanceMeters>
          </Trackpoint>
          <Trackpoint>
            <Time>2021-04-02T11:47:31.000Z</Time>
            <Position>
              <LatitudeDegrees>42.32960821129381656646728515625</LatitudeDegrees>
              <LongitudeDegrees>2.601668648421764373779296875</LongitudeDegrees>
            </Position>
            <AltitudeMeters>696.5999755859375</AltitudeMeters>
            <DistanceMeters>NAN</DistanceMeters>
          </Trackpoint>
          <Trackpoint>
            <Time>2021-04-02T11:47:34.000Z</Time>
            <Position>
              <LatitudeDegrees>42.32962229289114475250244140625</LatitudeDegrees>
              <LongitudeDegrees>2.60164082050323486328125</LongitudeDegrees>
            </Position>
            <AltitudeMeters>696</AltitudeMeters>
            <DistanceMeters>NAN</DistanceMeters>
          </Trackpoint>
          <Trackpoint>
            <Time>2021-04-02T11:47:36.000Z</Time>
            <Position>
              <LatitudeDegrees>42.32962463982403278350830078125</LatitudeDegrees>
              <LongitudeDegrees>2.60162531398236751556396484375</LongitudeDegrees>
            </Position>
            <AltitudeMeters>695.79998779296875</AltitudeMeters>
            <DistanceMeters>NAN</DistanceMeters>
          </Trackpoint>
          <Trackpoint>
            <Time>2021-04-02T11:47:37.000Z</Time>
            <Position>
              <LatitudeDegrees>42.32962614856660366058349609375</LatitudeDegrees>
              <LongitudeDegrees>2.6016138307750225067138671875</LongitudeDegrees>
            </Position>
            <AltitudeMeters>695.5999755859375</AltitudeMeters>
            <DistanceMeters>NAN</DistanceMeters>
          </Trackpoint>
          <Trackpoint>
            <Time>2021-04-02T11:47:39.000Z</Time>
            <Position>
              <LatitudeDegrees>42.32962732203304767608642578125</LatitudeDegrees>
              <LongitudeDegrees>2.60159094817936420440673828125</LongitudeDegrees>
            </Position>
            <AltitudeMeters>695.4000244140625</AltitudeMeters>
            <DistanceMeters>NAN</DistanceMeters>
          </Trackpoint>
          <Trackpoint>
            <Time>2021-04-02T11:47:42.000Z</Time>
            <Position>
              <LatitudeDegrees>42.32963872142136096954345703125</LatitudeDegrees>
              <LongitudeDegrees>2.60155742056667804718017578125</LongitudeDegrees>
            </Position>
            <AltitudeMeters>695.20001220703125</AltitudeMeters>
            <DistanceMeters>NAN</DistanceMeters>
          </Trackpoint>
          <Trackpoint>
            <Time>2021-04-02T11:47:46.000Z</Time>
            <Position>
              <LatitudeDegrees>42.32965364120900630950927734375</LatitudeDegrees>
              <LongitudeDegrees>2.60151215828955173492431640625</LongitudeDegrees>
            </Position>
            <AltitudeMeters>695</AltitudeMeters>
            <DistanceMeters>NAN</DistanceMeters>
          </Trackpoint>
          <Trackpoint>
            <Time>2021-04-02T11:47:48.000Z</Time>
            <Position>
              <LatitudeDegrees>42.3296662978827953338623046875</LatitudeDegrees>
              <LongitudeDegrees>2.60148516856133937835693359375</LongitudeDegrees>
            </Position>
            <AltitudeMeters>695</AltitudeMeters>
            <DistanceMeters>NAN</DistanceMeters>
          </Trackpoint>
          <Trackpoint>
            <Time>2021-04-02T11:47:50.000Z</Time>
            <Position>
              <LatitudeDegrees>42.32967426069080829620361328125</LatitudeDegrees>
              <LongitudeDegrees>2.60145641863346099853515625</LongitudeDegrees>
            </Position>
            <AltitudeMeters>694.79998779296875</AltitudeMeters>
            <DistanceMeters>NAN</DistanceMeters>
          </Trackpoint>
          <Trackpoint>
            <Time>2021-04-02T11:47:53.000Z</Time>
            <Position>
              <LatitudeDegrees>42.3296924494206905364990234375</LatitudeDegrees>
              <LongitudeDegrees>2.6014146767556667327880859375</LongitudeDegrees>
            </Position>
            <AltitudeMeters>694.79998779296875</AltitudeMeters>
            <DistanceMeters>NAN</DistanceMeters>
          </Trackpoint>
          <Trackpoint>
            <Time>2021-04-02T11:47:54.000Z</Time>
            <Position>
              <LatitudeDegrees>42.329695634543895721435546875</LatitudeDegrees>
              <LongitudeDegrees>2.60140470229089260101318359375</LongitudeDegrees>
            </Position>
            <AltitudeMeters>694.5999755859375</AltitudeMeters>
            <DistanceMeters>NAN</DistanceMeters>
          </Trackpoint>
          <Trackpoint>
            <Time>2021-04-02T11:48:02.000Z</Time>
            <Position>
              <LatitudeDegrees>42.3297254741191864013671875</LatitudeDegrees>
              <LongitudeDegrees>2.6013100706040859222412109375</LongitudeDegrees>
            </Position>
            <AltitudeMeters>695</AltitudeMeters>
            <DistanceMeters>NAN</DistanceMeters>
          </Trackpoint>
          <Trackpoint>
            <Time>2021-04-02T11:48:09.000Z</Time>
            <Position>
              <LatitudeDegrees>42.329743914306163787841796875</LatitudeDegrees>
              <LongitudeDegrees>2.6012296043336391448974609375</LongitudeDegrees>
            </Position>
            <AltitudeMeters>695.4000244140625</AltitudeMeters>
            <DistanceMeters>NAN</DistanceMeters>
          </Trackpoint>
          <Trackpoint>
            <Time>2021-04-02T11:48:10.000Z</Time>
            <Position>
              <LatitudeDegrees>42.32974550686776638031005859375</LatitudeDegrees>
              <LongitudeDegrees>2.6012188754975795745849609375</LongitudeDegrees>
            </Position>
            <AltitudeMeters>695.4000244140625</AltitudeMeters>
            <DistanceMeters>NAN</DistanceMeters>
          </Trackpoint>
          <Trackpoint>
            <Time>2021-04-02T11:48:18.000Z</Time>
            <Position>
              <LatitudeDegrees>42.3297658748924732208251953125</LatitudeDegrees>
              <LongitudeDegrees>2.601140923798084259033203125</LongitudeDegrees>
            </Position>
            <AltitudeMeters>694.79998779296875</AltitudeMeters>
            <DistanceMeters>NAN</DistanceMeters>
          </Trackpoint>
          <Trackpoint>
            <Time>2021-04-02T11:48:20.000Z</Time>
            <Position>
              <LatitudeDegrees>42.329766042530536651611328125</LatitudeDegrees>
              <LongitudeDegrees>2.6011196337640285491943359375</LongitudeDegrees>
            </Position>
            <AltitudeMeters>694.79998779296875</AltitudeMeters>
            <DistanceMeters>NAN</DistanceMeters>
          </Trackpoint>
          <Trackpoint>
            <Time>2021-04-02T11:48:21.000Z</Time>
            <Position>
              <LatitudeDegrees>42.32976277358829975128173828125</LatitudeDegrees>
              <LongitudeDegrees>2.60110865347087383270263671875</LongitudeDegrees>
            </Position>
            <AltitudeMeters>694.5999755859375</AltitudeMeters>
            <DistanceMeters>NAN</DistanceMeters>
          </Trackpoint>
          <Trackpoint>
            <Time>2021-04-02T11:48:23.000Z</Time>
            <Position>
              <LatitudeDegrees>42.329757325351238250732421875</LatitudeDegrees>
              <LongitudeDegrees>2.60109356604516506195068359375</LongitudeDegrees>
            </Position>
            <AltitudeMeters>694.20001220703125</AltitudeMeters>
            <DistanceMeters>NAN</DistanceMeters>
          </Trackpoint>
          <Trackpoint>
            <Time>2021-04-02T11:48:28.000Z</Time>
            <Position>
              <LatitudeDegrees>42.329776771366596221923828125</LatitudeDegrees>
              <LongitudeDegrees>2.60103740729391574859619140625</LongitudeDegrees>
            </Position>
            <AltitudeMeters>693.5999755859375</AltitudeMeters>
            <DistanceMeters>NAN</DistanceMeters>
          </Trackpoint>
          <Trackpoint>
            <Time>2021-04-02T11:48:29.000Z</Time>
            <Position>
              <LatitudeDegrees>42.329777441918849945068359375</LatitudeDegrees>
              <LongitudeDegrees>2.6010237447917461395263671875</LongitudeDegrees>
            </Position>
            <AltitudeMeters>693.4000244140625</AltitudeMeters>
            <DistanceMeters>NAN</DistanceMeters>
          </Trackpoint>
          <Trackpoint>
            <Time>2021-04-02T11:48:30.000Z</Time>
            <Position>
              <LatitudeDegrees>42.32978087849915027618408203125</LatitudeDegrees>
              <LongitudeDegrees>2.60101745836436748504638671875</LongitudeDegrees>
            </Position>
            <AltitudeMeters>693.4000244140625</AltitudeMeters>
            <DistanceMeters>NAN</DistanceMeters>
          </Trackpoint>
          <Trackpoint>
            <Time>2021-04-02T11:48:34.000Z</Time>
            <Position>
              <LatitudeDegrees>42.3297977261245250701904296875</LatitudeDegrees>
              <LongitudeDegrees>2.60099499486386775970458984375</LongitudeDegrees>
            </Position>
            <AltitudeMeters>693</AltitudeMeters>
            <DistanceMeters>NAN</DistanceMeters>
          </Trackpoint>
          <Trackpoint>
            <Time>2021-04-02T11:48:38.000Z</Time>
            <Position>
              <LatitudeDegrees>42.32980736531317234039306640625</LatitudeDegrees>
              <LongitudeDegrees>2.60095325298607349395751953125</LongitudeDegrees>
            </Position>
            <AltitudeMeters>692.5999755859375</AltitudeMeters>
            <DistanceMeters>NAN</DistanceMeters>
          </Trackpoint>
          <Trackpoint>
            <Time>2021-04-02T11:48:42.000Z</Time>
            <Position>
              <LatitudeDegrees>42.32980384491384029388427734375</LatitudeDegrees>
              <LongitudeDegrees>2.600921653211116790771484375</LongitudeDegrees>
            </Position>
            <AltitudeMeters>692.4000244140625</AltitudeMeters>
            <DistanceMeters>NAN</DistanceMeters>
          </Trackpoint>
          <Trackpoint>
            <Time>2021-04-02T11:48:47.000Z</Time>
            <Position>
              <LatitudeDegrees>42.32980501838028430938720703125</LatitudeDegrees>
              <LongitudeDegrees>2.60087463073432445526123046875</LongitudeDegrees>
            </Position>
            <AltitudeMeters>692.20001220703125</AltitudeMeters>
            <DistanceMeters>NAN</DistanceMeters>
          </Trackpoint>
          <Trackpoint>
            <Time>2021-04-02T11:48:48.000Z</Time>
            <Position>
              <LatitudeDegrees>42.3298030905425548553466796875</LatitudeDegrees>
              <LongitudeDegrees>2.6008614711463451385498046875</LongitudeDegrees>
            </Position>
            <AltitudeMeters>692</AltitudeMeters>
            <DistanceMeters>NAN</DistanceMeters>
          </Trackpoint>
          <Trackpoint>
            <Time>2021-04-02T11:48:50.000Z</Time>
            <Position>
              <LatitudeDegrees>42.329799570143222808837890625</LatitudeDegrees>
              <LongitudeDegrees>2.600843198597431182861328125</LongitudeDegrees>
            </Position>
            <AltitudeMeters>692</AltitudeMeters>
            <DistanceMeters>NAN</DistanceMeters>
          </Trackpoint>
          <Trackpoint>
            <Time>2021-04-02T11:48:52.000Z</Time>
            <Position>
              <LatitudeDegrees>42.32980065979063510894775390625</LatitudeDegrees>
              <LongitudeDegrees>2.6008168794214725494384765625</LongitudeDegrees>
            </Position>
            <AltitudeMeters>692</AltitudeMeters>
            <DistanceMeters>NAN</DistanceMeters>
          </Trackpoint>
          <Trackpoint>
            <Time>2021-04-02T11:48:54.000Z</Time>
            <Position>
              <LatitudeDegrees>42.3298077844083309173583984375</LatitudeDegrees>
              <LongitudeDegrees>2.6007913984358310699462890625</LongitudeDegrees>
            </Position>
            <AltitudeMeters>691.79998779296875</AltitudeMeters>
            <DistanceMeters>NAN</DistanceMeters>
          </Trackpoint>
          <Trackpoint>
            <Time>2021-04-02T11:48:56.000Z</Time>
            <Position>
              <LatitudeDegrees>42.3298138193786144256591796875</LatitudeDegrees>
              <LongitudeDegrees>2.60076583363115787506103515625</LongitudeDegrees>
            </Position>
            <AltitudeMeters>691.79998779296875</AltitudeMeters>
            <DistanceMeters>NAN</DistanceMeters>
          </Trackpoint>
          <Trackpoint>
            <Time>2021-04-02T11:49:04.000Z</Time>
            <Position>
              <LatitudeDegrees>42.3298193514347076416015625</LatitudeDegrees>
              <LongitudeDegrees>2.60066608898341655731201171875</LongitudeDegrees>
            </Position>
            <AltitudeMeters>691.5999755859375</AltitudeMeters>
            <DistanceMeters>NAN</DistanceMeters>
          </Trackpoint>
          <Trackpoint>
            <Time>2021-04-02T11:49:06.000Z</Time>
            <Position>
              <LatitudeDegrees>42.32982002198696136474609375</LatitudeDegrees>
              <LongitudeDegrees>2.60065284557640552520751953125</LongitudeDegrees>
            </Position>
            <AltitudeMeters>691.4000244140625</AltitudeMeters>
            <DistanceMeters>NAN</DistanceMeters>
          </Trackpoint>
          <Trackpoint>
            <Time>2021-04-02T11:49:14.000Z</Time>
            <Position>
              <LatitudeDegrees>42.3298369534313678741455078125</LatitudeDegrees>
              <LongitudeDegrees>2.6005493290722370147705078125</LongitudeDegrees>
            </Position>
            <AltitudeMeters>691.4000244140625</AltitudeMeters>
            <DistanceMeters>NAN</DistanceMeters>
          </Trackpoint>
          <Trackpoint>
            <Time>2021-04-02T11:49:22.000Z</Time>
            <Position>
              <LatitudeDegrees>42.3298211954534053802490234375</LatitudeDegrees>
              <LongitudeDegrees>2.60044991970062255859375</LongitudeDegrees>
            </Position>
            <AltitudeMeters>691.20001220703125</AltitudeMeters>
            <DistanceMeters>NAN</DistanceMeters>
          </Trackpoint>
          <Trackpoint>
            <Time>2021-04-02T11:49:28.000Z</Time>
            <Position>
              <LatitudeDegrees>42.32984684407711029052734375</LatitudeDegrees>
              <LongitudeDegrees>2.60038998909294605255126953125</LongitudeDegrees>
            </Position>
            <AltitudeMeters>691.20001220703125</AltitudeMeters>
            <DistanceMeters>NAN</DistanceMeters>
          </Trackpoint>
          <Trackpoint>
            <Time>2021-04-02T11:49:35.000Z</Time>
            <Position>
              <LatitudeDegrees>42.3298517055809497833251953125</LatitudeDegrees>
              <LongitudeDegrees>2.60035000741481781005859375</LongitudeDegrees>
            </Position>
            <AltitudeMeters>691.20001220703125</AltitudeMeters>
            <DistanceMeters>NAN</DistanceMeters>
          </Trackpoint>
          <Trackpoint>
            <Time>2021-04-02T11:49:42.000Z</Time>
            <Position>
              <LatitudeDegrees>42.3298644460737705230712890625</LatitudeDegrees>
              <LongitudeDegrees>2.600332237780094146728515625</LongitudeDegrees>
            </Position>
            <AltitudeMeters>691.4000244140625</AltitudeMeters>
            <DistanceMeters>NAN</DistanceMeters>
          </Trackpoint>
          <Trackpoint>
            <Time>2021-04-02T11:49:51.000Z</Time>
            <Position>
              <LatitudeDegrees>42.3298676311969757080078125</LatitudeDegrees>
              <LongitudeDegrees>2.60032863356173038482666015625</LongitudeDegrees>
            </Position>
            <AltitudeMeters>691.20001220703125</AltitudeMeters>
            <DistanceMeters>NAN</DistanceMeters>
          </Trackpoint>
          <Trackpoint>
            <Time>2021-04-02T11:49:57.000Z</Time>
            <Position>
              <LatitudeDegrees>42.3298676311969757080078125</LatitudeDegrees>
              <LongitudeDegrees>2.60033081285655498504638671875</LongitudeDegrees>
            </Position>
            <AltitudeMeters>690.5999755859375</AltitudeMeters>
            <DistanceMeters>NAN</DistanceMeters>
          </Trackpoint>
          <Trackpoint>
            <Time>2021-04-02T11:50:04.000Z</Time>
            <Position>
              <LatitudeDegrees>42.32986972667276859283447265625</LatitudeDegrees>
              <LongitudeDegrees>2.60033081285655498504638671875</LongitudeDegrees>
            </Position>
            <AltitudeMeters>690.4000244140625</AltitudeMeters>
            <DistanceMeters>NAN</DistanceMeters>
          </Trackpoint>
          <Trackpoint>
            <Time>2021-04-02T11:50:15.000Z</Time>
            <Position>
              <LatitudeDegrees>42.32991951517760753631591796875</LatitudeDegrees>
              <LongitudeDegrees>2.60019578039646148681640625</LongitudeDegrees>
            </Position>
            <AltitudeMeters>690</AltitudeMeters>
            <DistanceMeters>NAN</DistanceMeters>
          </Trackpoint>
          <Trackpoint>
            <Time>2021-04-02T11:50:18.000Z</Time>
            <Position>
              <LatitudeDegrees>42.3299351893365383148193359375</LatitudeDegrees>
              <LongitudeDegrees>2.60012713260948657989501953125</LongitudeDegrees>
            </Position>
            <AltitudeMeters>690</AltitudeMeters>
            <DistanceMeters>NAN</DistanceMeters>
          </Trackpoint>
          <Trackpoint>
            <Time>2021-04-02T11:50:22.000Z</Time>
            <Position>
              <LatitudeDegrees>42.32994248159229755401611328125</LatitudeDegrees>
              <LongitudeDegrees>2.60008857585489749908447265625</LongitudeDegrees>
            </Position>
            <AltitudeMeters>690</AltitudeMeters>
            <DistanceMeters>NAN</DistanceMeters>
          </Trackpoint>
          <Trackpoint>
            <Time>2021-04-02T11:50:24.000Z</Time>
            <Position>
              <LatitudeDegrees>42.3299405537545680999755859375</LatitudeDegrees>
              <LongitudeDegrees>2.60007935576140880584716796875</LongitudeDegrees>
            </Position>
            <AltitudeMeters>689.79998779296875</AltitudeMeters>
            <DistanceMeters>NAN</DistanceMeters>
          </Trackpoint>
          <Trackpoint>
            <Time>2021-04-02T11:50:28.000Z</Time>
            <Position>
              <LatitudeDegrees>42.32994742691516876220703125</LatitudeDegrees>
              <LongitudeDegrees>2.6000628434121608734130859375</LongitudeDegrees>
            </Position>
            <AltitudeMeters>690</AltitudeMeters>
            <DistanceMeters>NAN</DistanceMeters>
          </Trackpoint>
          <Trackpoint>
            <Time>2021-04-02T11:50:36.000Z</Time>
            <Position>
              <LatitudeDegrees>42.329955138266086578369140625</LatitudeDegrees>
              <LongitudeDegrees>2.6000583171844482421875</LongitudeDegrees>
            </Position>
            <AltitudeMeters>689.79998779296875</AltitudeMeters>
            <DistanceMeters>NAN</DistanceMeters>
          </Trackpoint>
          <Trackpoint>
            <Time>2021-04-02T11:50:41.000Z</Time>
            <Position>
              <LatitudeDegrees>42.329955138266086578369140625</LatitudeDegrees>
              <LongitudeDegrees>2.6000583171844482421875</LongitudeDegrees>
            </Position>
            <AltitudeMeters>689.79998779296875</AltitudeMeters>
            <DistanceMeters>NAN</DistanceMeters>
          </Trackpoint>
          <Trackpoint>
            <Time>2021-04-02T11:50:59.000Z</Time>
            <Position>
              <LatitudeDegrees>42.32994885183870792388916015625</LatitudeDegrees>
              <LongitudeDegrees>2.6000797748565673828125</LongitudeDegrees>
            </Position>
            <AltitudeMeters>689.79998779296875</AltitudeMeters>
            <DistanceMeters>NAN</DistanceMeters>
          </Trackpoint>
          <Trackpoint>
            <Time>2021-04-02T11:51:18.000Z</Time>
            <Position>
              <LatitudeDegrees>42.3299452476203441619873046875</LatitudeDegrees>
              <LongitudeDegrees>2.60009041987359523773193359375</LongitudeDegrees>
            </Position>
            <AltitudeMeters>689.5999755859375</AltitudeMeters>
            <DistanceMeters>NAN</DistanceMeters>
          </Trackpoint>
          <Trackpoint>
            <Time>2021-04-02T11:51:25.000Z</Time>
            <Position>
              <LatitudeDegrees>42.3299392126500606536865234375</LatitudeDegrees>
              <LongitudeDegrees>2.60008907876908779144287109375</LongitudeDegrees>
            </Position>
            <AltitudeMeters>689.4000244140625</AltitudeMeters>
            <DistanceMeters>NAN</DistanceMeters>
          </Trackpoint>
          <Trackpoint>
            <Time>2021-04-02T11:51:47.000Z</Time>
            <Position>
              <LatitudeDegrees>42.32989671640098094940185546875</LatitudeDegrees>
              <LongitudeDegrees>2.600066363811492919921875</LongitudeDegrees>
            </Position>
            <AltitudeMeters>690.5999755859375</AltitudeMeters>
            <DistanceMeters>NAN</DistanceMeters>
          </Trackpoint>
          <Trackpoint>
            <Time>2021-04-02T11:51:52.000Z</Time>
            <Position>
              <LatitudeDegrees>42.32989403419196605682373046875</LatitudeDegrees>
              <LongitudeDegrees>2.600066363811492919921875</LongitudeDegrees>
            </Position>
            <AltitudeMeters>691.4000244140625</AltitudeMeters>
            <DistanceMeters>NAN</DistanceMeters>
          </Trackpoint>
          <Trackpoint>
            <Time>2021-04-02T11:51:55.000Z</Time>
            <Position>
              <LatitudeDegrees>42.329890094697475433349609375</LatitudeDegrees>
              <LongitudeDegrees>2.600066363811492919921875</LongitudeDegrees>
            </Position>
            <AltitudeMeters>691.79998779296875</AltitudeMeters>
            <DistanceMeters>NAN</DistanceMeters>
          </Trackpoint>
          <Trackpoint>
            <Time>2021-04-02T11:51:58.000Z</Time>
            <Position>
              <LatitudeDegrees>42.3298838920891284942626953125</LatitudeDegrees>
              <LongitudeDegrees>2.6000665314495563507080078125</LongitudeDegrees>
            </Position>
            <AltitudeMeters>692.20001220703125</AltitudeMeters>
            <DistanceMeters>NAN</DistanceMeters>
          </Trackpoint>
          <Trackpoint>
            <Time>2021-04-02T11:52:00.000Z</Time>
            <Position>
              <LatitudeDegrees>42.32988246716558933258056640625</LatitudeDegrees>
              <LongitudeDegrees>2.60006980039179325103759765625</LongitudeDegrees>
            </Position>
            <AltitudeMeters>692.5999755859375</AltitudeMeters>
            <DistanceMeters>NAN</DistanceMeters>
          </Trackpoint>
          <Trackpoint>
            <Time>2021-04-02T11:52:02.000Z</Time>
            <Position>
              <LatitudeDegrees>42.32988079078495502471923828125</LatitudeDegrees>
              <LongitudeDegrees>2.60007248260080814361572265625</LongitudeDegrees>
            </Position>
            <AltitudeMeters>692.79998779296875</AltitudeMeters>
            <DistanceMeters>NAN</DistanceMeters>
          </Trackpoint>
          <Trackpoint>
            <Time>2021-04-02T11:52:05.000Z</Time>
            <Position>
              <LatitudeDegrees>42.3298783600330352783203125</LatitudeDegrees>
              <LongitudeDegrees>2.60007684119045734405517578125</LongitudeDegrees>
            </Position>
            <AltitudeMeters>693.4000244140625</AltitudeMeters>
            <DistanceMeters>NAN</DistanceMeters>
          </Trackpoint>
          <Trackpoint>
            <Time>2021-04-02T11:52:09.000Z</Time>
            <Position>
              <LatitudeDegrees>42.32987509109079837799072265625</LatitudeDegrees>
              <LongitudeDegrees>2.60008153505623340606689453125</LongitudeDegrees>
            </Position>
            <AltitudeMeters>694</AltitudeMeters>
            <DistanceMeters>NAN</DistanceMeters>
          </Trackpoint>
          <Trackpoint>
            <Time>2021-04-02T11:52:17.000Z</Time>
            <Position>
              <LatitudeDegrees>42.3298587463796138763427734375</LatitudeDegrees>
              <LongitudeDegrees>2.60008455254137516021728515625</LongitudeDegrees>
            </Position>
            <AltitudeMeters>695</AltitudeMeters>
            <DistanceMeters>NAN</DistanceMeters>
          </Trackpoint>
          <Trackpoint>
            <Time>2021-04-02T11:52:23.000Z</Time>
            <Position>
              <LatitudeDegrees>42.32984961010515689849853515625</LatitudeDegrees>
              <LongitudeDegrees>2.60008874349296092987060546875</LongitudeDegrees>
            </Position>
            <AltitudeMeters>695.4000244140625</AltitudeMeters>
            <DistanceMeters>NAN</DistanceMeters>
          </Trackpoint>
          <Trackpoint>
            <Time>2021-04-02T11:52:30.000Z</Time>
            <Position>
              <LatitudeDegrees>42.32983267866075038909912109375</LatitudeDegrees>
              <LongitudeDegrees>2.6000900007784366607666015625</LongitudeDegrees>
            </Position>
            <AltitudeMeters>696</AltitudeMeters>
            <DistanceMeters>NAN</DistanceMeters>
          </Trackpoint>
          <Trackpoint>
            <Time>2021-04-02T11:52:35.000Z</Time>
            <Position>
              <LatitudeDegrees>42.32975891791284084320068359375</LatitudeDegrees>
              <LongitudeDegrees>2.60012411512434482574462890625</LongitudeDegrees>
            </Position>
            <AltitudeMeters>696.4000244140625</AltitudeMeters>
            <DistanceMeters>NAN</DistanceMeters>
          </Trackpoint>
          <Trackpoint>
            <Time>2021-04-02T11:52:40.000Z</Time>
            <Position>
              <LatitudeDegrees>42.3296958021819591522216796875</LatitudeDegrees>
              <LongitudeDegrees>2.6001832075417041778564453125</LongitudeDegrees>
            </Position>
            <AltitudeMeters>696.79998779296875</AltitudeMeters>
            <DistanceMeters>NAN</DistanceMeters>
          </Trackpoint>
          <Trackpoint>
            <Time>2021-04-02T11:52:41.000Z</Time>
            <Position>
              <LatitudeDegrees>42.3296874202787876129150390625</LatitudeDegrees>
              <LongitudeDegrees>2.60018832050263881683349609375</LongitudeDegrees>
            </Position>
            <AltitudeMeters>696.79998779296875</AltitudeMeters>
            <DistanceMeters>NAN</DistanceMeters>
          </Trackpoint>
          <Trackpoint>
            <Time>2021-04-02T11:52:43.000Z</Time>
            <Position>
              <LatitudeDegrees>42.3296676389873027801513671875</LatitudeDegrees>
              <LongitudeDegrees>2.60019980370998382568359375</LongitudeDegrees>
            </Position>
            <AltitudeMeters>697</AltitudeMeters>
            <DistanceMeters>NAN</DistanceMeters>
          </Trackpoint>
          <Trackpoint>
            <Time>2021-04-02T11:52:44.000Z</Time>
            <Position>
              <LatitudeDegrees>42.32965950854122638702392578125</LatitudeDegrees>
              <LongitudeDegrees>2.60020919144153594970703125</LongitudeDegrees>
            </Position>
            <AltitudeMeters>697</AltitudeMeters>
            <DistanceMeters>NAN</DistanceMeters>
          </Trackpoint>
          <Trackpoint>
            <Time>2021-04-02T11:52:48.000Z</Time>
            <Position>
              <LatitudeDegrees>42.32962019741535186767578125</LatitudeDegrees>
              <LongitudeDegrees>2.600215561687946319580078125</LongitudeDegrees>
            </Position>
            <AltitudeMeters>697.20001220703125</AltitudeMeters>
            <DistanceMeters>NAN</DistanceMeters>
          </Trackpoint>
          <Trackpoint>
            <Time>2021-04-02T11:52:50.000Z</Time>
            <Position>
              <LatitudeDegrees>42.32961558736860752105712890625</LatitudeDegrees>
              <LongitudeDegrees>2.60021765716373920440673828125</LongitudeDegrees>
            </Position>
            <AltitudeMeters>697.4000244140625</AltitudeMeters>
            <DistanceMeters>NAN</DistanceMeters>
          </Trackpoint>
          <Trackpoint>
            <Time>2021-04-02T11:52:52.000Z</Time>
            <Position>
              <LatitudeDegrees>42.32961349189281463623046875</LatitudeDegrees>
              <LongitudeDegrees>2.60021111927926540374755859375</LongitudeDegrees>
            </Position>
            <AltitudeMeters>697.5999755859375</AltitudeMeters>
            <DistanceMeters>NAN</DistanceMeters>
          </Trackpoint>
          <Trackpoint>
            <Time>2021-04-02T11:52:54.000Z</Time>
            <Position>
              <LatitudeDegrees>42.32960217632353305816650390625</LatitudeDegrees>
              <LongitudeDegrees>2.60021313093602657318115234375</LongitudeDegrees>
            </Position>
            <AltitudeMeters>697.79998779296875</AltitudeMeters>
            <DistanceMeters>NAN</DistanceMeters>
          </Trackpoint>
          <Trackpoint>
            <Time>2021-04-02T11:52:55.000Z</Time>
            <Position>
              <LatitudeDegrees>42.3295965604484081268310546875</LatitudeDegrees>
              <LongitudeDegrees>2.60021321475505828857421875</LongitudeDegrees>
            </Position>
            <AltitudeMeters>697.79998779296875</AltitudeMeters>
            <DistanceMeters>NAN</DistanceMeters>
          </Trackpoint>
          <Trackpoint>
            <Time>2021-04-02T11:52:56.000Z</Time>
            <Position>
              <LatitudeDegrees>42.32958608306944370269775390625</LatitudeDegrees>
              <LongitudeDegrees>2.6002214290201663970947265625</LongitudeDegrees>
            </Position>
            <AltitudeMeters>698</AltitudeMeters>
            <DistanceMeters>NAN</DistanceMeters>
          </Trackpoint>
          <Trackpoint>
            <Time>2021-04-02T11:52:57.000Z</Time>
            <Position>
              <LatitudeDegrees>42.32957116328179836273193359375</LatitudeDegrees>
              <LongitudeDegrees>2.600227296352386474609375</LongitudeDegrees>
            </Position>
            <AltitudeMeters>698.20001220703125</AltitudeMeters>
            <DistanceMeters>NAN</DistanceMeters>
          </Trackpoint>
          <Trackpoint>
            <Time>2021-04-02T11:52:59.000Z</Time>
            <Position>
              <LatitudeDegrees>42.3295452632009983062744140625</LatitudeDegrees>
              <LongitudeDegrees>2.60022419504821300506591796875</LongitudeDegrees>
            </Position>
            <AltitudeMeters>698.4000244140625</AltitudeMeters>
            <DistanceMeters>NAN</DistanceMeters>
          </Trackpoint>
          <Trackpoint>
            <Time>2021-04-02T11:53:03.000Z</Time>
            <Position>
              <LatitudeDegrees>42.3295090533792972564697265625</LatitudeDegrees>
              <LongitudeDegrees>2.60023601353168487548828125</LongitudeDegrees>
            </Position>
            <AltitudeMeters>698.5999755859375</AltitudeMeters>
            <DistanceMeters>NAN</DistanceMeters>
          </Trackpoint>
          <Trackpoint>
            <Time>2021-04-02T11:53:04.000Z</Time>
            <Position>
              <LatitudeDegrees>42.32950762845575809478759765625</LatitudeDegrees>
              <LongitudeDegrees>2.60023467242717742919921875</LongitudeDegrees>
            </Position>
            <AltitudeMeters>698.79998779296875</AltitudeMeters>
            <DistanceMeters>NAN</DistanceMeters>
          </Trackpoint>
          <Trackpoint>
            <Time>2021-04-02T11:53:07.000Z</Time>
            <Position>
              <LatitudeDegrees>42.32949220575392246246337890625</LatitudeDegrees>
              <LongitudeDegrees>2.600246407091617584228515625</LongitudeDegrees>
            </Position>
            <AltitudeMeters>699.20001220703125</AltitudeMeters>
            <DistanceMeters>NAN</DistanceMeters>
          </Trackpoint>
          <Trackpoint>
            <Time>2021-04-02T11:53:09.000Z</Time>
            <Position>
              <LatitudeDegrees>42.32949170283973217010498046875</LatitudeDegrees>
              <LongitudeDegrees>2.60024297051131725311279296875</LongitudeDegrees>
            </Position>
            <AltitudeMeters>699.4000244140625</AltitudeMeters>
            <DistanceMeters>NAN</DistanceMeters>
          </Trackpoint>
          <Trackpoint>
            <Time>2021-04-02T11:53:12.000Z</Time>
            <Position>
              <LatitudeDegrees>42.32949673198163509368896484375</LatitudeDegrees>
              <LongitudeDegrees>2.60025621391832828521728515625</LongitudeDegrees>
            </Position>
            <AltitudeMeters>700</AltitudeMeters>
            <DistanceMeters>NAN</DistanceMeters>
          </Trackpoint>
          <Trackpoint>
            <Time>2021-04-02T11:53:14.000Z</Time>
            <Position>
              <LatitudeDegrees>42.32948005199432373046875</LatitudeDegrees>
              <LongitudeDegrees>2.60026861913502216339111328125</LongitudeDegrees>
            </Position>
            <AltitudeMeters>700.20001220703125</AltitudeMeters>
            <DistanceMeters>NAN</DistanceMeters>
          </Trackpoint>
          <Trackpoint>
            <Time>2021-04-02T11:53:17.000Z</Time>
            <Position>
              <LatitudeDegrees>42.3294533975422382354736328125</LatitudeDegrees>
              <LongitudeDegrees>2.6002744026482105255126953125</LongitudeDegrees>
            </Position>
            <AltitudeMeters>700.4000244140625</AltitudeMeters>
            <DistanceMeters>NAN</DistanceMeters>
          </Trackpoint>
          <Trackpoint>
            <Time>2021-04-02T11:53:22.000Z</Time>
            <Position>
              <LatitudeDegrees>42.3294238932430744171142578125</LatitudeDegrees>
              <LongitudeDegrees>2.6002787612378597259521484375</LongitudeDegrees>
            </Position>
            <AltitudeMeters>701.20001220703125</AltitudeMeters>
            <DistanceMeters>NAN</DistanceMeters>
          </Trackpoint>
          <Trackpoint>
            <Time>2021-04-02T11:53:27.000Z</Time>
            <Position>
              <LatitudeDegrees>42.32940285466611385345458984375</LatitudeDegrees>
              <LongitudeDegrees>2.600279934704303741455078125</LongitudeDegrees>
            </Position>
            <AltitudeMeters>701.5999755859375</AltitudeMeters>
            <DistanceMeters>NAN</DistanceMeters>
          </Trackpoint>
          <Trackpoint>
            <Time>2021-04-02T11:53:32.000Z</Time>
            <Position>
              <LatitudeDegrees>42.329407632350921630859375</LatitudeDegrees>
              <LongitudeDegrees>2.60028370656073093414306640625</LongitudeDegrees>
            </Position>
            <AltitudeMeters>702.20001220703125</AltitudeMeters>
            <DistanceMeters>NAN</DistanceMeters>
          </Trackpoint>
          <Trackpoint>
            <Time>2021-04-02T11:53:33.000Z</Time>
            <Position>
              <LatitudeDegrees>42.32940117828547954559326171875</LatitudeDegrees>
              <LongitudeDegrees>2.6002878136932849884033203125</LongitudeDegrees>
            </Position>
            <AltitudeMeters>702.20001220703125</AltitudeMeters>
            <DistanceMeters>NAN</DistanceMeters>
          </Trackpoint>
          <Trackpoint>
            <Time>2021-04-02T11:53:37.000Z</Time>
            <Position>
              <LatitudeDegrees>42.329397238790988922119140625</LatitudeDegrees>
              <LongitudeDegrees>2.60028672404587268829345703125</LongitudeDegrees>
            </Position>
            <AltitudeMeters>702.5999755859375</AltitudeMeters>
            <DistanceMeters>NAN</DistanceMeters>
          </Trackpoint>
          <Trackpoint>
            <Time>2021-04-02T11:53:38.000Z</Time>
            <Position>
              <LatitudeDegrees>42.32939631678164005279541015625</LatitudeDegrees>
              <LongitudeDegrees>2.60028840042650699615478515625</LongitudeDegrees>
            </Position>
            <AltitudeMeters>702.79998779296875</AltitudeMeters>
            <DistanceMeters>NAN</DistanceMeters>
          </Trackpoint>
          <Trackpoint>
            <Time>2021-04-02T11:53:43.000Z</Time>
            <Position>
              <LatitudeDegrees>42.32936136424541473388671875</LatitudeDegrees>
              <LongitudeDegrees>2.6003200002014636993408203125</LongitudeDegrees>
            </Position>
            <AltitudeMeters>703.4000244140625</AltitudeMeters>
            <DistanceMeters>NAN</DistanceMeters>
          </Trackpoint>
          <Trackpoint>
            <Time>2021-04-02T11:53:45.000Z</Time>
            <Position>
              <LatitudeDegrees>42.3293440975248813629150390625</LatitudeDegrees>
              <LongitudeDegrees>2.6003344170749187469482421875</LongitudeDegrees>
            </Position>
            <AltitudeMeters>703.5999755859375</AltitudeMeters>
            <DistanceMeters>NAN</DistanceMeters>
          </Trackpoint>
          <Trackpoint>
            <Time>2021-04-02T11:53:50.000Z</Time>
            <Position>
              <LatitudeDegrees>42.329311408102512359619140625</LatitudeDegrees>
              <LongitudeDegrees>2.6003334112465381622314453125</LongitudeDegrees>
            </Position>
            <AltitudeMeters>704.20001220703125</AltitudeMeters>
            <DistanceMeters>NAN</DistanceMeters>
          </Trackpoint>
          <Trackpoint>
            <Time>2021-04-02T11:53:51.000Z</Time>
            <Position>
              <LatitudeDegrees>42.329310066998004913330078125</LatitudeDegrees>
              <LongitudeDegrees>2.600336261093616485595703125</LongitudeDegrees>
            </Position>
            <AltitudeMeters>704.5999755859375</AltitudeMeters>
            <DistanceMeters>NAN</DistanceMeters>
          </Trackpoint>
          <Trackpoint>
            <Time>2021-04-02T11:53:55.000Z</Time>
            <Position>
              <LatitudeDegrees>42.3292830772697925567626953125</LatitudeDegrees>
              <LongitudeDegrees>2.60035134851932525634765625</LongitudeDegrees>
            </Position>
            <AltitudeMeters>704.79998779296875</AltitudeMeters>
            <DistanceMeters>NAN</DistanceMeters>
          </Trackpoint>
          <Trackpoint>
            <Time>2021-04-02T11:54:00.000Z</Time>
            <Position>
              <LatitudeDegrees>42.3292415030300617218017578125</LatitudeDegrees>
              <LongitudeDegrees>2.60036501102149486541748046875</LongitudeDegrees>
            </Position>
            <AltitudeMeters>705.20001220703125</AltitudeMeters>
            <DistanceMeters>NAN</DistanceMeters>
          </Trackpoint>
          <Trackpoint>
            <Time>2021-04-02T11:54:02.000Z</Time>
            <Position>
              <LatitudeDegrees>42.32922281138598918914794921875</LatitudeDegrees>
              <LongitudeDegrees>2.60037607513368129730224609375</LongitudeDegrees>
            </Position>
            <AltitudeMeters>705.5999755859375</AltitudeMeters>
            <DistanceMeters>NAN</DistanceMeters>
          </Trackpoint>
          <Trackpoint>
            <Time>2021-04-02T11:54:07.000Z</Time>
            <Position>
              <LatitudeDegrees>42.32920185662806034088134765625</LatitudeDegrees>
              <LongitudeDegrees>2.600372135639190673828125</LongitudeDegrees>
            </Position>
            <AltitudeMeters>706.20001220703125</AltitudeMeters>
            <DistanceMeters>NAN</DistanceMeters>
          </Trackpoint>
          <Trackpoint>
            <Time>2021-04-02T11:54:13.000Z</Time>
            <Position>
              <LatitudeDegrees>42.329173944890499114990234375</LatitudeDegrees>
              <LongitudeDegrees>2.6003726385533809661865234375</LongitudeDegrees>
            </Position>
            <AltitudeMeters>706.5999755859375</AltitudeMeters>
            <DistanceMeters>NAN</DistanceMeters>
          </Trackpoint>
          <Trackpoint>
            <Time>2021-04-02T11:54:14.000Z</Time>
            <Position>
              <LatitudeDegrees>42.329169251024723052978515625</LatitudeDegrees>
              <LongitudeDegrees>2.60037682950496673583984375</LongitudeDegrees>
            </Position>
            <AltitudeMeters>706.5999755859375</AltitudeMeters>
            <DistanceMeters>NAN</DistanceMeters>
          </Trackpoint>
          <Trackpoint>
            <Time>2021-04-02T11:54:19.000Z</Time>
            <Position>
              <LatitudeDegrees>42.32914284802973270416259765625</LatitudeDegrees>
              <LongitudeDegrees>2.60040096938610076904296875</LongitudeDegrees>
            </Position>
            <AltitudeMeters>707.20001220703125</AltitudeMeters>
            <DistanceMeters>NAN</DistanceMeters>
          </Trackpoint>
          <Trackpoint>
            <Time>2021-04-02T11:54:22.000Z</Time>
            <Position>
              <LatitudeDegrees>42.32912759296596050262451171875</LatitudeDegrees>
              <LongitudeDegrees>2.60039753280580043792724609375</LongitudeDegrees>
            </Position>
            <AltitudeMeters>707.5999755859375</AltitudeMeters>
            <DistanceMeters>NAN</DistanceMeters>
          </Trackpoint>
          <Trackpoint>
            <Time>2021-04-02T11:54:23.000Z</Time>
            <Position>
              <LatitudeDegrees>42.3291201330721378326416015625</LatitudeDegrees>
              <LongitudeDegrees>2.6003967784345149993896484375</LongitudeDegrees>
            </Position>
            <AltitudeMeters>707.79998779296875</AltitudeMeters>
            <DistanceMeters>NAN</DistanceMeters>
          </Trackpoint>
          <Trackpoint>
            <Time>2021-04-02T11:54:24.000Z</Time>
            <Position>
              <LatitudeDegrees>42.32911284081637859344482421875</LatitudeDegrees>
              <LongitudeDegrees>2.60040373541414737701416015625</LongitudeDegrees>
            </Position>
            <AltitudeMeters>707.79998779296875</AltitudeMeters>
            <DistanceMeters>NAN</DistanceMeters>
          </Trackpoint>
          <Trackpoint>
            <Time>2021-04-02T11:54:26.000Z</Time>
            <Position>
              <LatitudeDegrees>42.32910831458866596221923828125</LatitudeDegrees>
              <LongitudeDegrees>2.60040792636573314666748046875</LongitudeDegrees>
            </Position>
            <AltitudeMeters>708</AltitudeMeters>
            <DistanceMeters>NAN</DistanceMeters>
          </Trackpoint>
          <Trackpoint>
            <Time>2021-04-02T11:54:29.000Z</Time>
            <Position>
              <LatitudeDegrees>42.32910194434225559234619140625</LatitudeDegrees>
              <LongitudeDegrees>2.6003883965313434600830078125</LongitudeDegrees>
            </Position>
            <AltitudeMeters>708.79998779296875</AltitudeMeters>
            <DistanceMeters>NAN</DistanceMeters>
          </Trackpoint>
          <Trackpoint>
            <Time>2021-04-02T11:54:32.000Z</Time>
            <Position>
              <LatitudeDegrees>42.3290978372097015380859375</LatitudeDegrees>
              <LongitudeDegrees>2.60038244538009166717529296875</LongitudeDegrees>
            </Position>
            <AltitudeMeters>709.4000244140625</AltitudeMeters>
            <DistanceMeters>NAN</DistanceMeters>
          </Trackpoint>
          <Trackpoint>
            <Time>2021-04-02T11:54:36.000Z</Time>
            <Position>
              <LatitudeDegrees>42.3291003517806529998779296875</LatitudeDegrees>
              <LongitudeDegrees>2.60035579092800617218017578125</LongitudeDegrees>
            </Position>
            <AltitudeMeters>709.79998779296875</AltitudeMeters>
            <DistanceMeters>NAN</DistanceMeters>
          </Trackpoint>
          <Trackpoint>
            <Time>2021-04-02T11:54:37.000Z</Time>
            <Position>
              <LatitudeDegrees>42.3291032016277313232421875</LatitudeDegrees>
              <LongitudeDegrees>2.6003505103290081024169921875</LongitudeDegrees>
            </Position>
            <AltitudeMeters>710</AltitudeMeters>
            <DistanceMeters>NAN</DistanceMeters>
          </Trackpoint>
          <Trackpoint>
            <Time>2021-04-02T11:54:38.000Z</Time>
            <Position>
              <LatitudeDegrees>42.329103536903858184814453125</LatitudeDegrees>
              <LongitudeDegrees>2.600347660481929779052734375</LongitudeDegrees>
            </Position>
            <AltitudeMeters>710</AltitudeMeters>
            <DistanceMeters>NAN</DistanceMeters>
          </Trackpoint>
          <Trackpoint>
            <Time>2021-04-02T11:54:43.000Z</Time>
            <Position>
              <LatitudeDegrees>42.329101860523223876953125</LatitudeDegrees>
              <LongitudeDegrees>2.60033718310296535491943359375</LongitudeDegrees>
            </Position>
            <AltitudeMeters>711</AltitudeMeters>
            <DistanceMeters>NAN</DistanceMeters>
          </Trackpoint>
          <Trackpoint>
            <Time>2021-04-02T11:54:46.000Z</Time>
            <Position>
              <LatitudeDegrees>42.32909875921905040740966796875</LatitudeDegrees>
              <LongitudeDegrees>2.6003407873213291168212890625</LongitudeDegrees>
            </Position>
            <AltitudeMeters>711.4000244140625</AltitudeMeters>
            <DistanceMeters>NAN</DistanceMeters>
          </Trackpoint>
          <Trackpoint>
            <Time>2021-04-02T11:54:51.000Z</Time>
            <Position>
              <LatitudeDegrees>42.3290943168103694915771484375</LatitudeDegrees>
              <LongitudeDegrees>2.600347995758056640625</LongitudeDegrees>
            </Position>
            <AltitudeMeters>712.20001220703125</AltitudeMeters>
            <DistanceMeters>NAN</DistanceMeters>
          </Trackpoint>
          <Trackpoint>
            <Time>2021-04-02T11:54:52.000Z</Time>
            <Position>
              <LatitudeDegrees>42.32909725047647953033447265625</LatitudeDegrees>
              <LongitudeDegrees>2.60035126470029354095458984375</LongitudeDegrees>
            </Position>
            <AltitudeMeters>712.20001220703125</AltitudeMeters>
            <DistanceMeters>NAN</DistanceMeters>
          </Trackpoint>
          <Trackpoint>
            <Time>2021-04-02T11:54:57.000Z</Time>
            <Position>
              <LatitudeDegrees>42.329084761440753936767578125</LatitudeDegrees>
              <LongitudeDegrees>2.60035076178610324859619140625</LongitudeDegrees>
            </Position>
            <AltitudeMeters>713</AltitudeMeters>
            <DistanceMeters>NAN</DistanceMeters>
          </Trackpoint>
          <Trackpoint>
            <Time>2021-04-02T11:54:59.000Z</Time>
            <Position>
              <LatitudeDegrees>42.3290805704891681671142578125</LatitudeDegrees>
              <LongitudeDegrees>2.60035545565187931060791015625</LongitudeDegrees>
            </Position>
            <AltitudeMeters>713.20001220703125</AltitudeMeters>
            <DistanceMeters>NAN</DistanceMeters>
          </Trackpoint>
          <Trackpoint>
            <Time>2021-04-02T11:55:02.000Z</Time>
            <Position>
              <LatitudeDegrees>42.32907730154693126678466796875</LatitudeDegrees>
              <LongitudeDegrees>2.60036719031631946563720703125</LongitudeDegrees>
            </Position>
            <AltitudeMeters>713.5999755859375</AltitudeMeters>
            <DistanceMeters>NAN</DistanceMeters>
          </Trackpoint>
          <Trackpoint>
            <Time>2021-04-02T11:55:07.000Z</Time>
            <Position>
              <LatitudeDegrees>42.32904494740068912506103515625</LatitudeDegrees>
              <LongitudeDegrees>2.6003783382475376129150390625</LongitudeDegrees>
            </Position>
            <AltitudeMeters>714.20001220703125</AltitudeMeters>
            <DistanceMeters>NAN</DistanceMeters>
          </Trackpoint>
          <Trackpoint>
            <Time>2021-04-02T11:55:09.000Z</Time>
            <Position>
              <LatitudeDegrees>42.329037487506866455078125</LatitudeDegrees>
              <LongitudeDegrees>2.60038211010396480560302734375</LongitudeDegrees>
            </Position>
            <AltitudeMeters>714.5999755859375</AltitudeMeters>
            <DistanceMeters>NAN</DistanceMeters>
          </Trackpoint>
          <Trackpoint>
            <Time>2021-04-02T11:55:15.000Z</Time>
            <Position>
              <LatitudeDegrees>42.3290302790701389312744140625</LatitudeDegrees>
              <LongitudeDegrees>2.60039418004453182220458984375</LongitudeDegrees>
            </Position>
            <AltitudeMeters>715.4000244140625</AltitudeMeters>
            <DistanceMeters>NAN</DistanceMeters>
          </Trackpoint>
          <Trackpoint>
            <Time>2021-04-02T11:55:20.000Z</Time>
            <Position>
              <LatitudeDegrees>42.32901209034025669097900390625</LatitudeDegrees>
              <LongitudeDegrees>2.6003976166248321533203125</LongitudeDegrees>
            </Position>
            <AltitudeMeters>716.4000244140625</AltitudeMeters>
            <DistanceMeters>NAN</DistanceMeters>
          </Trackpoint>
          <Trackpoint>
            <Time>2021-04-02T11:55:26.000Z</Time>
            <Position>
              <LatitudeDegrees>42.3289893753826618194580078125</LatitudeDegrees>
              <LongitudeDegrees>2.60037071071565151214599609375</LongitudeDegrees>
            </Position>
            <AltitudeMeters>716.5999755859375</AltitudeMeters>
            <DistanceMeters>NAN</DistanceMeters>
          </Trackpoint>
          <Trackpoint>
            <Time>2021-04-02T11:55:33.000Z</Time>
            <Position>
              <LatitudeDegrees>42.3289498127996921539306640625</LatitudeDegrees>
              <LongitudeDegrees>2.60034321807324886322021484375</LongitudeDegrees>
            </Position>
            <AltitudeMeters>717</AltitudeMeters>
            <DistanceMeters>NAN</DistanceMeters>
          </Trackpoint>
          <Trackpoint>
            <Time>2021-04-02T11:55:37.000Z</Time>
            <Position>
              <LatitudeDegrees>42.32894235290586948394775390625</LatitudeDegrees>
              <LongitudeDegrees>2.60031647980213165283203125</LongitudeDegrees>
            </Position>
            <AltitudeMeters>717.20001220703125</AltitudeMeters>
            <DistanceMeters>NAN</DistanceMeters>
          </Trackpoint>
          <Trackpoint>
            <Time>2021-04-02T11:55:40.000Z</Time>
            <Position>
              <LatitudeDegrees>42.32893355190753936767578125</LatitudeDegrees>
              <LongitudeDegrees>2.6002925075590610504150390625</LongitudeDegrees>
            </Position>
            <AltitudeMeters>717.4000244140625</AltitudeMeters>
            <DistanceMeters>NAN</DistanceMeters>
          </Trackpoint>
          <Trackpoint>
            <Time>2021-04-02T11:55:43.000Z</Time>
            <Position>
              <LatitudeDegrees>42.328915111720561981201171875</LatitudeDegrees>
              <LongitudeDegrees>2.60027901269495487213134765625</LongitudeDegrees>
            </Position>
            <AltitudeMeters>717.5999755859375</AltitudeMeters>
            <DistanceMeters>NAN</DistanceMeters>
          </Trackpoint>
          <Trackpoint>
            <Time>2021-04-02T11:55:50.000Z</Time>
            <Position>
              <LatitudeDegrees>42.3288680054247379302978515625</LatitudeDegrees>
              <LongitudeDegrees>2.60022528469562530517578125</LongitudeDegrees>
            </Position>
            <AltitudeMeters>716.79998779296875</AltitudeMeters>
            <DistanceMeters>NAN</DistanceMeters>
          </Trackpoint>
          <Trackpoint>
            <Time>2021-04-02T11:55:59.000Z</Time>
            <Position>
              <LatitudeDegrees>42.3288354836404323577880859375</LatitudeDegrees>
              <LongitudeDegrees>2.60014590807259082794189453125</LongitudeDegrees>
            </Position>
            <AltitudeMeters>716.79998779296875</AltitudeMeters>
            <DistanceMeters>NAN</DistanceMeters>
          </Trackpoint>
          <Trackpoint>
            <Time>2021-04-02T11:56:08.000Z</Time>
            <Position>
              <LatitudeDegrees>42.3287895508110523223876953125</LatitudeDegrees>
              <LongitudeDegrees>2.6001070998609066009521484375</LongitudeDegrees>
            </Position>
            <AltitudeMeters>716.79998779296875</AltitudeMeters>
            <DistanceMeters>NAN</DistanceMeters>
          </Trackpoint>
          <Trackpoint>
            <Time>2021-04-02T11:56:11.000Z</Time>
            <Position>
              <LatitudeDegrees>42.3287479765713214874267578125</LatitudeDegrees>
              <LongitudeDegrees>2.60010165162384510040283203125</LongitudeDegrees>
            </Position>
            <AltitudeMeters>716.5999755859375</AltitudeMeters>
            <DistanceMeters>NAN</DistanceMeters>
          </Trackpoint>
          <Trackpoint>
            <Time>2021-04-02T11:56:14.000Z</Time>
            <Position>
              <LatitudeDegrees>42.32874403707683086395263671875</LatitudeDegrees>
              <LongitudeDegrees>2.60007583536207675933837890625</LongitudeDegrees>
            </Position>
            <AltitudeMeters>716.4000244140625</AltitudeMeters>
            <DistanceMeters>NAN</DistanceMeters>
          </Trackpoint>
          <Trackpoint>
            <Time>2021-04-02T11:56:20.000Z</Time>
            <Position>
              <LatitudeDegrees>42.32872576452791690826416015625</LatitudeDegrees>
              <LongitudeDegrees>2.60003107599914073944091796875</LongitudeDegrees>
            </Position>
            <AltitudeMeters>716.4000244140625</AltitudeMeters>
            <DistanceMeters>NAN</DistanceMeters>
          </Trackpoint>
          <Trackpoint>
            <Time>2021-04-02T11:56:22.000Z</Time>
            <Position>
              <LatitudeDegrees>42.32872811146080493927001953125</LatitudeDegrees>
              <LongitudeDegrees>2.60000878013670444488525390625</LongitudeDegrees>
            </Position>
            <AltitudeMeters>716.5999755859375</AltitudeMeters>
            <DistanceMeters>NAN</DistanceMeters>
          </Trackpoint>
          <Trackpoint>
            <Time>2021-04-02T11:56:26.000Z</Time>
            <Position>
              <LatitudeDegrees>42.3287169635295867919921875</LatitudeDegrees>
              <LongitudeDegrees>2.599968798458576202392578125</LongitudeDegrees>
            </Position>
            <AltitudeMeters>717</AltitudeMeters>
            <DistanceMeters>NAN</DistanceMeters>
          </Trackpoint>
          <Trackpoint>
            <Time>2021-04-02T11:56:30.000Z</Time>
            <Position>
              <LatitudeDegrees>42.32871620915830135345458984375</LatitudeDegrees>
              <LongitudeDegrees>2.5999327562749385833740234375</LongitudeDegrees>
            </Position>
            <AltitudeMeters>717.20001220703125</AltitudeMeters>
            <DistanceMeters>NAN</DistanceMeters>
          </Trackpoint>
          <Trackpoint>
            <Time>2021-04-02T11:56:31.000Z</Time>
            <Position>
              <LatitudeDegrees>42.32871453277766704559326171875</LatitudeDegrees>
              <LongitudeDegrees>2.59992429055273532867431640625</LongitudeDegrees>
            </Position>
            <AltitudeMeters>717.4000244140625</AltitudeMeters>
            <DistanceMeters>NAN</DistanceMeters>
          </Trackpoint>
          <Trackpoint>
            <Time>2021-04-02T11:56:32.000Z</Time>
            <Position>
              <LatitudeDegrees>42.3287090845406055450439453125</LatitudeDegrees>
              <LongitudeDegrees>2.599918842315673828125</LongitudeDegrees>
            </Position>
            <AltitudeMeters>717.5999755859375</AltitudeMeters>
            <DistanceMeters>NAN</DistanceMeters>
          </Trackpoint>
          <Trackpoint>
            <Time>2021-04-02T11:56:34.000Z</Time>
            <Position>
              <LatitudeDegrees>42.328699529170989990234375</LatitudeDegrees>
              <LongitudeDegrees>2.5999052636325359344482421875</LongitudeDegrees>
            </Position>
            <AltitudeMeters>717.79998779296875</AltitudeMeters>
            <DistanceMeters>NAN</DistanceMeters>
          </Trackpoint>
          <Trackpoint>
            <Time>2021-04-02T11:56:37.000Z</Time>
            <Position>
              <LatitudeDegrees>42.3286874592304229736328125</LatitudeDegrees>
              <LongitudeDegrees>2.599883973598480224609375</LongitudeDegrees>
            </Position>
            <AltitudeMeters>718</AltitudeMeters>
            <DistanceMeters>NAN</DistanceMeters>
          </Trackpoint>
          <Trackpoint>
            <Time>2021-04-02T11:56:39.000Z</Time>
            <Position>
              <LatitudeDegrees>42.32867748476564884185791015625</LatitudeDegrees>
              <LongitudeDegrees>2.5998707301914691925048828125</LongitudeDegrees>
            </Position>
            <AltitudeMeters>718</AltitudeMeters>
            <DistanceMeters>NAN</DistanceMeters>
          </Trackpoint>
          <Trackpoint>
            <Time>2021-04-02T11:56:40.000Z</Time>
            <Position>
              <LatitudeDegrees>42.32867295853793621063232421875</LatitudeDegrees>
              <LongitudeDegrees>2.59986720979213714599609375</LongitudeDegrees>
            </Position>
            <AltitudeMeters>718</AltitudeMeters>
            <DistanceMeters>NAN</DistanceMeters>
          </Trackpoint>
          <Trackpoint>
            <Time>2021-04-02T11:56:45.000Z</Time>
            <Position>
              <LatitudeDegrees>42.328651584684848785400390625</LatitudeDegrees>
              <LongitudeDegrees>2.5998385436832904815673828125</LongitudeDegrees>
            </Position>
            <AltitudeMeters>718.20001220703125</AltitudeMeters>
            <DistanceMeters>NAN</DistanceMeters>
          </Trackpoint>
          <Trackpoint>
            <Time>2021-04-02T11:56:46.000Z</Time>
            <Position>
              <LatitudeDegrees>42.328648231923580169677734375</LatitudeDegrees>
              <LongitudeDegrees>2.59982739575207233428955078125</LongitudeDegrees>
            </Position>
            <AltitudeMeters>718.20001220703125</AltitudeMeters>
            <DistanceMeters>NAN</DistanceMeters>
          </Trackpoint>
          <Trackpoint>
            <Time>2021-04-02T11:56:49.000Z</Time>
            <Position>
              <LatitudeDegrees>42.3286426998674869537353515625</LatitudeDegrees>
              <LongitudeDegrees>2.5998019985854625701904296875</LongitudeDegrees>
            </Position>
            <AltitudeMeters>718.4000244140625</AltitudeMeters>
            <DistanceMeters>NAN</DistanceMeters>
          </Trackpoint>
          <Trackpoint>
            <Time>2021-04-02T11:56:54.000Z</Time>
            <Position>
              <LatitudeDegrees>42.328624092042446136474609375</LatitudeDegrees>
              <LongitudeDegrees>2.599763609468936920166015625</LongitudeDegrees>
            </Position>
            <AltitudeMeters>718.4000244140625</AltitudeMeters>
            <DistanceMeters>NAN</DistanceMeters>
          </Trackpoint>
          <Trackpoint>
            <Time>2021-04-02T11:56:55.000Z</Time>
            <Position>
              <LatitudeDegrees>42.3286219127476215362548828125</LatitudeDegrees>
              <LongitudeDegrees>2.59975531138479709625244140625</LongitudeDegrees>
            </Position>
            <AltitudeMeters>718.4000244140625</AltitudeMeters>
            <DistanceMeters>NAN</DistanceMeters>
          </Trackpoint>
          <Trackpoint>
            <Time>2021-04-02T11:56:57.000Z</Time>
            <Position>
              <LatitudeDegrees>42.32861646451056003570556640625</LatitudeDegrees>
              <LongitudeDegrees>2.59973712265491485595703125</LongitudeDegrees>
            </Position>
            <AltitudeMeters>718.5999755859375</AltitudeMeters>
            <DistanceMeters>NAN</DistanceMeters>
          </Trackpoint>
          <Trackpoint>
            <Time>2021-04-02T11:56:58.000Z</Time>
            <Position>
              <LatitudeDegrees>42.3286163806915283203125</LatitudeDegrees>
              <LongitudeDegrees>2.5997279025614261627197265625</LongitudeDegrees>
            </Position>
            <AltitudeMeters>718.5999755859375</AltitudeMeters>
            <DistanceMeters>NAN</DistanceMeters>
          </Trackpoint>
          <Trackpoint>
            <Time>2021-04-02T11:57:02.000Z</Time>
            <Position>
              <LatitudeDegrees>42.32861411757767200469970703125</LatitudeDegrees>
              <LongitudeDegrees>2.59968909434974193572998046875</LongitudeDegrees>
            </Position>
            <AltitudeMeters>719</AltitudeMeters>
            <DistanceMeters>NAN</DistanceMeters>
          </Trackpoint>
          <Trackpoint>
            <Time>2021-04-02T11:57:03.000Z</Time>
            <Position>
              <LatitudeDegrees>42.32861411757767200469970703125</LatitudeDegrees>
              <LongitudeDegrees>2.599679119884967803955078125</LongitudeDegrees>
            </Position>
            <AltitudeMeters>719</AltitudeMeters>
            <DistanceMeters>NAN</DistanceMeters>
          </Trackpoint>
          <Trackpoint>
            <Time>2021-04-02T11:57:06.000Z</Time>
            <Position>
              <LatitudeDegrees>42.32860104180872440338134765625</LatitudeDegrees>
              <LongitudeDegrees>2.5996668823063373565673828125</LongitudeDegrees>
            </Position>
            <AltitudeMeters>719.4000244140625</AltitudeMeters>
            <DistanceMeters>NAN</DistanceMeters>
          </Trackpoint>
          <Trackpoint>
            <Time>2021-04-02T11:57:08.000Z</Time>
            <Position>
              <LatitudeDegrees>42.328587211668491363525390625</LatitudeDegrees>
              <LongitudeDegrees>2.59965992532670497894287109375</LongitudeDegrees>
            </Position>
            <AltitudeMeters>719.5999755859375</AltitudeMeters>
            <DistanceMeters>NAN</DistanceMeters>
          </Trackpoint>
          <Trackpoint>
            <Time>2021-04-02T11:57:10.000Z</Time>
            <Position>
              <LatitudeDegrees>42.3285779915750026702880859375</LatitudeDegrees>
              <LongitudeDegrees>2.59964592754840850830078125</LongitudeDegrees>
            </Position>
            <AltitudeMeters>719.5999755859375</AltitudeMeters>
            <DistanceMeters>NAN</DistanceMeters>
          </Trackpoint>
          <Trackpoint>
            <Time>2021-04-02T11:57:12.000Z</Time>
            <Position>
              <LatitudeDegrees>42.328575141727924346923828125</LatitudeDegrees>
              <LongitudeDegrees>2.59961667470633983612060546875</LongitudeDegrees>
            </Position>
            <AltitudeMeters>719.5999755859375</AltitudeMeters>
            <DistanceMeters>NAN</DistanceMeters>
          </Trackpoint>
          <Trackpoint>
            <Time>2021-04-02T11:57:15.000Z</Time>
            <Position>
              <LatitudeDegrees>42.32856835238635540008544921875</LatitudeDegrees>
              <LongitudeDegrees>2.5995864160358905792236328125</LongitudeDegrees>
            </Position>
            <AltitudeMeters>719.79998779296875</AltitudeMeters>
            <DistanceMeters>NAN</DistanceMeters>
          </Trackpoint>
          <Trackpoint>
            <Time>2021-04-02T11:57:19.000Z</Time>
            <Position>
              <LatitudeDegrees>42.32854463160037994384765625</LatitudeDegrees>
              <LongitudeDegrees>2.59956923313438892364501953125</LongitudeDegrees>
            </Position>
            <AltitudeMeters>720.4000244140625</AltitudeMeters>
            <DistanceMeters>NAN</DistanceMeters>
          </Trackpoint>
          <Trackpoint>
            <Time>2021-04-02T11:57:21.000Z</Time>
            <Position>
              <LatitudeDegrees>42.3285290412604808807373046875</LatitudeDegrees>
              <LongitudeDegrees>2.59955431334674358367919921875</LongitudeDegrees>
            </Position>
            <AltitudeMeters>720.5999755859375</AltitudeMeters>
            <DistanceMeters>NAN</DistanceMeters>
          </Trackpoint>
          <Trackpoint>
            <Time>2021-04-02T11:57:22.000Z</Time>
            <Position>
              <LatitudeDegrees>42.32852007262408733367919921875</LatitudeDegrees>
              <LongitudeDegrees>2.59954945184290409088134765625</LongitudeDegrees>
            </Position>
            <AltitudeMeters>720.79998779296875</AltitudeMeters>
            <DistanceMeters>NAN</DistanceMeters>
          </Trackpoint>
          <Trackpoint>
            <Time>2021-04-02T11:57:25.000Z</Time>
            <Position>
              <LatitudeDegrees>42.3285092599689960479736328125</LatitudeDegrees>
              <LongitudeDegrees>2.59953771717846393585205078125</LongitudeDegrees>
            </Position>
            <AltitudeMeters>720.5999755859375</AltitudeMeters>
            <DistanceMeters>NAN</DistanceMeters>
          </Trackpoint>
          <Trackpoint>
            <Time>2021-04-02T11:57:27.000Z</Time>
            <Position>
              <LatitudeDegrees>42.3284916579723358154296875</LatitudeDegrees>
              <LongitudeDegrees>2.59953268803656101226806640625</LongitudeDegrees>
            </Position>
            <AltitudeMeters>720.5999755859375</AltitudeMeters>
            <DistanceMeters>NAN</DistanceMeters>
          </Trackpoint>
          <Trackpoint>
            <Time>2021-04-02T11:57:30.000Z</Time>
            <Position>
              <LatitudeDegrees>42.3284661769866943359375</LatitudeDegrees>
              <LongitudeDegrees>2.5995294190943241119384765625</LongitudeDegrees>
            </Position>
            <AltitudeMeters>720.4000244140625</AltitudeMeters>
            <DistanceMeters>NAN</DistanceMeters>
          </Trackpoint>
          <Trackpoint>
            <Time>2021-04-02T11:57:33.000Z</Time>
            <Position>
              <LatitudeDegrees>42.32844178564846515655517578125</LatitudeDegrees>
              <LongitudeDegrees>2.59952363558113574981689453125</LongitudeDegrees>
            </Position>
            <AltitudeMeters>720.20001220703125</AltitudeMeters>
            <DistanceMeters>NAN</DistanceMeters>
          </Trackpoint>
          <Trackpoint>
            <Time>2021-04-02T11:57:37.000Z</Time>
            <Position>
              <LatitudeDegrees>42.32841680757701396942138671875</LatitudeDegrees>
              <LongitudeDegrees>2.59950720705091953277587890625</LongitudeDegrees>
            </Position>
            <AltitudeMeters>720</AltitudeMeters>
            <DistanceMeters>NAN</DistanceMeters>
          </Trackpoint>
          <Trackpoint>
            <Time>2021-04-02T11:57:38.000Z</Time>
            <Position>
              <LatitudeDegrees>42.3284153826534748077392578125</LatitudeDegrees>
              <LongitudeDegrees>2.59949731640517711639404296875</LongitudeDegrees>
            </Position>
            <AltitudeMeters>720</AltitudeMeters>
            <DistanceMeters>NAN</DistanceMeters>
          </Trackpoint>
          <Trackpoint>
            <Time>2021-04-02T11:57:40.000Z</Time>
            <Position>
              <LatitudeDegrees>42.3284120298922061920166015625</LatitudeDegrees>
              <LongitudeDegrees>2.59948692284524440765380859375</LongitudeDegrees>
            </Position>
            <AltitudeMeters>720</AltitudeMeters>
            <DistanceMeters>NAN</DistanceMeters>
          </Trackpoint>
          <Trackpoint>
            <Time>2021-04-02T11:57:44.000Z</Time>
            <Position>
              <LatitudeDegrees>42.3283781670033931732177734375</LatitudeDegrees>
              <LongitudeDegrees>2.59949748404324054718017578125</LongitudeDegrees>
            </Position>
            <AltitudeMeters>719.79998779296875</AltitudeMeters>
            <DistanceMeters>NAN</DistanceMeters>
          </Trackpoint>
          <Trackpoint>
            <Time>2021-04-02T11:57:46.000Z</Time>
            <Position>
              <LatitudeDegrees>42.3283627443015575408935546875</LatitudeDegrees>
              <LongitudeDegrees>2.599499411880970001220703125</LongitudeDegrees>
            </Position>
            <AltitudeMeters>719.5999755859375</AltitudeMeters>
            <DistanceMeters>NAN</DistanceMeters>
          </Trackpoint>
          <Trackpoint>
            <Time>2021-04-02T11:57:51.000Z</Time>
            <Position>
              <LatitudeDegrees>42.32833147980272769927978515625</LatitudeDegrees>
              <LongitudeDegrees>2.59945523925125598907470703125</LongitudeDegrees>
            </Position>
            <AltitudeMeters>719</AltitudeMeters>
            <DistanceMeters>NAN</DistanceMeters>
          </Trackpoint>
          <Trackpoint>
            <Time>2021-04-02T11:57:57.000Z</Time>
            <Position>
              <LatitudeDegrees>42.32828772626817226409912109375</LatitudeDegrees>
              <LongitudeDegrees>2.59941047988831996917724609375</LongitudeDegrees>
            </Position>
            <AltitudeMeters>718.79998779296875</AltitudeMeters>
            <DistanceMeters>NAN</DistanceMeters>
          </Trackpoint>
          <Trackpoint>
            <Time>2021-04-02T11:58:03.000Z</Time>
            <Position>
              <LatitudeDegrees>42.328253276646137237548828125</LatitudeDegrees>
              <LongitudeDegrees>2.599361948668956756591796875</LongitudeDegrees>
            </Position>
            <AltitudeMeters>719</AltitudeMeters>
            <DistanceMeters>NAN</DistanceMeters>
          </Trackpoint>
          <Trackpoint>
            <Time>2021-04-02T11:58:05.000Z</Time>
            <Position>
              <LatitudeDegrees>42.32824967242777347564697265625</LatitudeDegrees>
              <LongitudeDegrees>2.59934728033840656280517578125</LongitudeDegrees>
            </Position>
            <AltitudeMeters>718.79998779296875</AltitudeMeters>
            <DistanceMeters>NAN</DistanceMeters>
          </Trackpoint>
          <Trackpoint>
            <Time>2021-04-02T11:58:08.000Z</Time>
            <Position>
              <LatitudeDegrees>42.32823458500206470489501953125</LatitudeDegrees>
              <LongitudeDegrees>2.599327079951763153076171875</LongitudeDegrees>
            </Position>
            <AltitudeMeters>718.79998779296875</AltitudeMeters>
            <DistanceMeters>NAN</DistanceMeters>
          </Trackpoint>
          <Trackpoint>
            <Time>2021-04-02T11:58:15.000Z</Time>
            <Position>
              <LatitudeDegrees>42.3282085172832012176513671875</LatitudeDegrees>
              <LongitudeDegrees>2.59927569888532161712646484375</LongitudeDegrees>
            </Position>
            <AltitudeMeters>719</AltitudeMeters>
            <DistanceMeters>NAN</DistanceMeters>
          </Trackpoint>
          <Trackpoint>
            <Time>2021-04-02T11:58:23.000Z</Time>
            <Position>
              <LatitudeDegrees>42.3281444795429706573486328125</LatitudeDegrees>
              <LongitudeDegrees>2.59925440885126590728759765625</LongitudeDegrees>
            </Position>
            <AltitudeMeters>719.20001220703125</AltitudeMeters>
            <DistanceMeters>NAN</DistanceMeters>
          </Trackpoint>
          <Trackpoint>
            <Time>2021-04-02T11:58:30.000Z</Time>
            <Position>
              <LatitudeDegrees>42.328092344105243682861328125</LatitudeDegrees>
              <LongitudeDegrees>2.59922658093273639678955078125</LongitudeDegrees>
            </Position>
            <AltitudeMeters>719</AltitudeMeters>
            <DistanceMeters>NAN</DistanceMeters>
          </Trackpoint>
          <Trackpoint>
            <Time>2021-04-02T11:58:37.000Z</Time>
            <Position>
              <LatitudeDegrees>42.32803056947886943817138671875</LatitudeDegrees>
              <LongitudeDegrees>2.5992055423557758331298828125</LongitudeDegrees>
            </Position>
            <AltitudeMeters>719</AltitudeMeters>
            <DistanceMeters>NAN</DistanceMeters>
          </Trackpoint>
          <Trackpoint>
            <Time>2021-04-02T11:58:46.000Z</Time>
            <Position>
              <LatitudeDegrees>42.3279513604938983917236328125</LatitudeDegrees>
              <LongitudeDegrees>2.5991485454142093658447265625</LongitudeDegrees>
            </Position>
            <AltitudeMeters>719.20001220703125</AltitudeMeters>
            <DistanceMeters>NAN</DistanceMeters>
          </Trackpoint>
          <Trackpoint>
            <Time>2021-04-02T11:58:54.000Z</Time>
            <Position>
              <LatitudeDegrees>42.32787097804248332977294921875</LatitudeDegrees>
              <LongitudeDegrees>2.5991217233240604400634765625</LongitudeDegrees>
            </Position>
            <AltitudeMeters>719</AltitudeMeters>
            <DistanceMeters>NAN</DistanceMeters>
          </Trackpoint>
          <Trackpoint>
            <Time>2021-04-02T11:59:01.000Z</Time>
            <Position>
              <LatitudeDegrees>42.327804677188396453857421875</LatitudeDegrees>
              <LongitudeDegrees>2.59910789318382740020751953125</LongitudeDegrees>
            </Position>
            <AltitudeMeters>719</AltitudeMeters>
            <DistanceMeters>NAN</DistanceMeters>
          </Trackpoint>
          <Trackpoint>
            <Time>2021-04-02T11:59:08.000Z</Time>
            <Position>
              <LatitudeDegrees>42.3277404718101024627685546875</LatitudeDegrees>
              <LongitudeDegrees>2.599073611199855804443359375</LongitudeDegrees>
            </Position>
            <AltitudeMeters>719</AltitudeMeters>
            <DistanceMeters>NAN</DistanceMeters>
          </Trackpoint>
          <Trackpoint>
            <Time>2021-04-02T11:59:10.000Z</Time>
            <Position>
              <LatitudeDegrees>42.3277299106121063232421875</LatitudeDegrees>
              <LongitudeDegrees>2.59906564839184284210205078125</LongitudeDegrees>
            </Position>
            <AltitudeMeters>718.5999755859375</AltitudeMeters>
            <DistanceMeters>NAN</DistanceMeters>
          </Trackpoint>
          <Trackpoint>
            <Time>2021-04-02T11:59:11.000Z</Time>
            <Position>
              <LatitudeDegrees>42.32772496528923511505126953125</LatitudeDegrees>
              <LongitudeDegrees>2.5990586914122104644775390625</LongitudeDegrees>
            </Position>
            <AltitudeMeters>718.5999755859375</AltitudeMeters>
            <DistanceMeters>NAN</DistanceMeters>
          </Trackpoint>
          <Trackpoint>
            <Time>2021-04-02T11:59:14.000Z</Time>
            <Position>
              <LatitudeDegrees>42.32771314680576324462890625</LatitudeDegrees>
              <LongitudeDegrees>2.59903782047331333160400390625</LongitudeDegrees>
            </Position>
            <AltitudeMeters>718.5999755859375</AltitudeMeters>
            <DistanceMeters>NAN</DistanceMeters>
          </Trackpoint>
          <Trackpoint>
            <Time>2021-04-02T11:59:22.000Z</Time>
            <Position>
              <LatitudeDegrees>42.32762874104082584381103515625</LatitudeDegrees>
              <LongitudeDegrees>2.5990020297467708587646484375</LongitudeDegrees>
            </Position>
            <AltitudeMeters>718.5999755859375</AltitudeMeters>
            <DistanceMeters>NAN</DistanceMeters>
          </Trackpoint>
          <Trackpoint>
            <Time>2021-04-02T11:59:28.000Z</Time>
            <Position>
              <LatitudeDegrees>42.32755715958774089813232421875</LatitudeDegrees>
              <LongitudeDegrees>2.59897998534142971038818359375</LongitudeDegrees>
            </Position>
            <AltitudeMeters>718.5999755859375</AltitudeMeters>
            <DistanceMeters>NAN</DistanceMeters>
          </Trackpoint>
          <Trackpoint>
            <Time>2021-04-02T11:59:34.000Z</Time>
            <Position>
              <LatitudeDegrees>42.3275260627269744873046875</LatitudeDegrees>
              <LongitudeDegrees>2.59891343303024768829345703125</LongitudeDegrees>
            </Position>
            <AltitudeMeters>718.79998779296875</AltitudeMeters>
            <DistanceMeters>NAN</DistanceMeters>
          </Trackpoint>
          <Trackpoint>
            <Time>2021-04-02T11:59:37.000Z</Time>
            <Position>
              <LatitudeDegrees>42.327513992786407470703125</LatitudeDegrees>
              <LongitudeDegrees>2.59887604974210262298583984375</LongitudeDegrees>
            </Position>
            <AltitudeMeters>718.5999755859375</AltitudeMeters>
            <DistanceMeters>NAN</DistanceMeters>
          </Trackpoint>
          <Trackpoint>
            <Time>2021-04-02T11:59:44.000Z</Time>
            <Position>
              <LatitudeDegrees>42.32749060727655887603759765625</LatitudeDegrees>
              <LongitudeDegrees>2.59878351353108882904052734375</LongitudeDegrees>
            </Position>
            <AltitudeMeters>719</AltitudeMeters>
            <DistanceMeters>NAN</DistanceMeters>
          </Trackpoint>
          <Trackpoint>
            <Time>2021-04-02T11:59:52.000Z</Time>
            <Position>
              <LatitudeDegrees>42.3274702392518520355224609375</LatitudeDegrees>
              <LongitudeDegrees>2.59870304726064205169677734375</LongitudeDegrees>
            </Position>
            <AltitudeMeters>719.20001220703125</AltitudeMeters>
            <DistanceMeters>NAN</DistanceMeters>
          </Trackpoint>
          <Trackpoint>
            <Time>2021-04-02T12:00:00.000Z</Time>
            <Position>
              <LatitudeDegrees>42.32745431363582611083984375</LatitudeDegrees>
              <LongitudeDegrees>2.59862660430371761322021484375</LongitudeDegrees>
            </Position>
            <AltitudeMeters>719.5999755859375</AltitudeMeters>
            <DistanceMeters>NAN</DistanceMeters>
          </Trackpoint>
          <Trackpoint>
            <Time>2021-04-02T12:00:09.000Z</Time>
            <Position>
              <LatitudeDegrees>42.32743822038173675537109375</LatitudeDegrees>
              <LongitudeDegrees>2.59852082468569278717041015625</LongitudeDegrees>
            </Position>
            <AltitudeMeters>719.4000244140625</AltitudeMeters>
            <DistanceMeters>NAN</DistanceMeters>
          </Trackpoint>
          <Trackpoint>
            <Time>2021-04-02T12:00:12.000Z</Time>
            <Position>
              <LatitudeDegrees>42.32743243686854839324951171875</LatitudeDegrees>
              <LongitudeDegrees>2.59849383495748043060302734375</LongitudeDegrees>
            </Position>
            <AltitudeMeters>719.5999755859375</AltitudeMeters>
            <DistanceMeters>NAN</DistanceMeters>
          </Trackpoint>
          <Trackpoint>
            <Time>2021-04-02T12:00:18.000Z</Time>
            <Position>
              <LatitudeDegrees>42.32743729837238788604736328125</LatitudeDegrees>
              <LongitudeDegrees>2.59842728264629840850830078125</LongitudeDegrees>
            </Position>
            <AltitudeMeters>720.20001220703125</AltitudeMeters>
            <DistanceMeters>NAN</DistanceMeters>
          </Trackpoint>
          <Trackpoint>
            <Time>2021-04-02T12:00:21.000Z</Time>
            <Position>
              <LatitudeDegrees>42.3274326883256435394287109375</LatitudeDegrees>
              <LongitudeDegrees>2.5984069146215915679931640625</LongitudeDegrees>
            </Position>
            <AltitudeMeters>720.79998779296875</AltitudeMeters>
            <DistanceMeters>NAN</DistanceMeters>
          </Trackpoint>
          <Trackpoint>
            <Time>2021-04-02T12:00:23.000Z</Time>
            <Position>
              <LatitudeDegrees>42.32742824591696262359619140625</LatitudeDegrees>
              <LongitudeDegrees>2.59838973172008991241455078125</LongitudeDegrees>
            </Position>
            <AltitudeMeters>721</AltitudeMeters>
            <DistanceMeters>NAN</DistanceMeters>
          </Trackpoint>
          <Trackpoint>
            <Time>2021-04-02T12:00:25.000Z</Time>
            <Position>
              <LatitudeDegrees>42.3274147510528564453125</LatitudeDegrees>
              <LongitudeDegrees>2.5983817689120769500732421875</LongitudeDegrees>
            </Position>
            <AltitudeMeters>721.20001220703125</AltitudeMeters>
            <DistanceMeters>NAN</DistanceMeters>
          </Trackpoint>
          <Trackpoint>
            <Time>2021-04-02T12:00:30.000Z</Time>
            <Position>
              <LatitudeDegrees>42.32740125618875026702880859375</LatitudeDegrees>
              <LongitudeDegrees>2.5983509235084056854248046875</LongitudeDegrees>
            </Position>
            <AltitudeMeters>721.79998779296875</AltitudeMeters>
            <DistanceMeters>NAN</DistanceMeters>
          </Trackpoint>
          <Trackpoint>
            <Time>2021-04-02T12:00:31.000Z</Time>
            <Position>
              <LatitudeDegrees>42.32739304192364215850830078125</LatitudeDegrees>
              <LongitudeDegrees>2.59834916330873966217041015625</LongitudeDegrees>
            </Position>
            <AltitudeMeters>721.79998779296875</AltitudeMeters>
            <DistanceMeters>NAN</DistanceMeters>
          </Trackpoint>
          <Trackpoint>
            <Time>2021-04-02T12:00:35.000Z</Time>
            <Position>
              <LatitudeDegrees>42.32736202888190746307373046875</LatitudeDegrees>
              <LongitudeDegrees>2.59831664152443408966064453125</LongitudeDegrees>
            </Position>
            <AltitudeMeters>722.4000244140625</AltitudeMeters>
            <DistanceMeters>NAN</DistanceMeters>
          </Trackpoint>
          <Trackpoint>
            <Time>2021-04-02T12:00:38.000Z</Time>
            <Position>
              <LatitudeDegrees>42.32734744437038898468017578125</LatitudeDegrees>
              <LongitudeDegrees>2.59828277863562107086181640625</LongitudeDegrees>
            </Position>
            <AltitudeMeters>722.5999755859375</AltitudeMeters>
            <DistanceMeters>NAN</DistanceMeters>
          </Trackpoint>
          <Trackpoint>
            <Time>2021-04-02T12:00:40.000Z</Time>
            <Position>
              <LatitudeDegrees>42.3273463547229766845703125</LatitudeDegrees>
              <LongitudeDegrees>2.59825729764997959136962890625</LongitudeDegrees>
            </Position>
            <AltitudeMeters>722.79998779296875</AltitudeMeters>
            <DistanceMeters>NAN</DistanceMeters>
          </Trackpoint>
          <Trackpoint>
            <Time>2021-04-02T12:00:43.000Z</Time>
            <Position>
              <LatitudeDegrees>42.32733336277306079864501953125</LatitudeDegrees>
              <LongitudeDegrees>2.59822293184697628021240234375</LongitudeDegrees>
            </Position>
            <AltitudeMeters>723.20001220703125</AltitudeMeters>
            <DistanceMeters>NAN</DistanceMeters>
          </Trackpoint>
          <Trackpoint>
            <Time>2021-04-02T12:00:46.000Z</Time>
            <Position>
              <LatitudeDegrees>42.32732112519443035125732421875</LatitudeDegrees>
              <LongitudeDegrees>2.59819929488003253936767578125</LongitudeDegrees>
            </Position>
            <AltitudeMeters>723.4000244140625</AltitudeMeters>
            <DistanceMeters>NAN</DistanceMeters>
          </Trackpoint>
          <Trackpoint>
            <Time>2021-04-02T12:00:47.000Z</Time>
            <Position>
              <LatitudeDegrees>42.32731224037706851959228515625</LatitudeDegrees>
              <LongitudeDegrees>2.598192505538463592529296875</LongitudeDegrees>
            </Position>
            <AltitudeMeters>723.4000244140625</AltitudeMeters>
            <DistanceMeters>NAN</DistanceMeters>
          </Trackpoint>
          <Trackpoint>
            <Time>2021-04-02T12:00:48.000Z</Time>
            <Position>
              <LatitudeDegrees>42.3273109830915927886962890625</LatitudeDegrees>
              <LongitudeDegrees>2.59818487800657749176025390625</LongitudeDegrees>
            </Position>
            <AltitudeMeters>723.4000244140625</AltitudeMeters>
            <DistanceMeters>NAN</DistanceMeters>
          </Trackpoint>
          <Trackpoint>
            <Time>2021-04-02T12:00:52.000Z</Time>
            <Position>
              <LatitudeDegrees>42.3272757790982723236083984375</LatitudeDegrees>
              <LongitudeDegrees>2.598163671791553497314453125</LongitudeDegrees>
            </Position>
            <AltitudeMeters>723.5999755859375</AltitudeMeters>
            <DistanceMeters>NAN</DistanceMeters>
          </Trackpoint>
          <Trackpoint>
            <Time>2021-04-02T12:00:53.000Z</Time>
            <Position>
              <LatitudeDegrees>42.3272663913667201995849609375</LatitudeDegrees>
              <LongitudeDegrees>2.59815386496484279632568359375</LongitudeDegrees>
            </Position>
            <AltitudeMeters>723.5999755859375</AltitudeMeters>
            <DistanceMeters>NAN</DistanceMeters>
          </Trackpoint>
          <Trackpoint>
            <Time>2021-04-02T12:00:56.000Z</Time>
            <Position>
              <LatitudeDegrees>42.32726831920444965362548828125</LatitudeDegrees>
              <LongitudeDegrees>2.5981155596673488616943359375</LongitudeDegrees>
            </Position>
            <AltitudeMeters>723.5999755859375</AltitudeMeters>
            <DistanceMeters>NAN</DistanceMeters>
          </Trackpoint>
          <Trackpoint>
            <Time>2021-04-02T12:00:58.000Z</Time>
            <Position>
              <LatitudeDegrees>42.32727619819343090057373046875</LatitudeDegrees>
              <LongitudeDegrees>2.59808328934013843536376953125</LongitudeDegrees>
            </Position>
            <AltitudeMeters>723.20001220703125</AltitudeMeters>
            <DistanceMeters>NAN</DistanceMeters>
          </Trackpoint>
          <Trackpoint>
            <Time>2021-04-02T12:01:03.000Z</Time>
            <Position>
              <LatitudeDegrees>42.32725180685520172119140625</LatitudeDegrees>
              <LongitudeDegrees>2.59803417138755321502685546875</LongitudeDegrees>
            </Position>
            <AltitudeMeters>723.79998779296875</AltitudeMeters>
            <DistanceMeters>NAN</DistanceMeters>
          </Trackpoint>
          <Trackpoint>
            <Time>2021-04-02T12:01:05.000Z</Time>
            <Position>
              <LatitudeDegrees>42.32724769972264766693115234375</LatitudeDegrees>
              <LongitudeDegrees>2.59801112115383148193359375</LongitudeDegrees>
            </Position>
            <AltitudeMeters>724</AltitudeMeters>
            <DistanceMeters>NAN</DistanceMeters>
          </Trackpoint>
          <Trackpoint>
            <Time>2021-04-02T12:01:06.000Z</Time>
            <Position>
              <LatitudeDegrees>42.32724619098007678985595703125</LatitudeDegrees>
              <LongitudeDegrees>2.59800248779356479644775390625</LongitudeDegrees>
            </Position>
            <AltitudeMeters>724</AltitudeMeters>
            <DistanceMeters>NAN</DistanceMeters>
          </Trackpoint>
          <Trackpoint>
            <Time>2021-04-02T12:01:09.000Z</Time>
            <Position>
              <LatitudeDegrees>42.32724200002849102020263671875</LatitudeDegrees>
              <LongitudeDegrees>2.59798002429306507110595703125</LongitudeDegrees>
            </Position>
            <AltitudeMeters>724.20001220703125</AltitudeMeters>
            <DistanceMeters>NAN</DistanceMeters>
          </Trackpoint>
          <Trackpoint>
            <Time>2021-04-02T12:01:11.000Z</Time>
            <Position>
              <LatitudeDegrees>42.327237389981746673583984375</LatitudeDegrees>
              <LongitudeDegrees>2.5979650206863880157470703125</LongitudeDegrees>
            </Position>
            <AltitudeMeters>724.4000244140625</AltitudeMeters>
            <DistanceMeters>NAN</DistanceMeters>
          </Trackpoint>
          <Trackpoint>
            <Time>2021-04-02T12:01:13.000Z</Time>
            <Position>
              <LatitudeDegrees>42.32723110355436801910400390625</LatitudeDegrees>
              <LongitudeDegrees>2.59796074591577053070068359375</LongitudeDegrees>
            </Position>
            <AltitudeMeters>724.4000244140625</AltitudeMeters>
            <DistanceMeters>NAN</DistanceMeters>
          </Trackpoint>
          <Trackpoint>
            <Time>2021-04-02T12:01:14.000Z</Time>
            <Position>
              <LatitudeDegrees>42.32722900807857513427734375</LatitudeDegrees>
              <LongitudeDegrees>2.5979542918503284454345703125</LongitudeDegrees>
            </Position>
            <AltitudeMeters>724.4000244140625</AltitudeMeters>
            <DistanceMeters>NAN</DistanceMeters>
          </Trackpoint>
          <Trackpoint>
            <Time>2021-04-02T12:01:18.000Z</Time>
            <Position>
              <LatitudeDegrees>42.32723495922982692718505859375</LatitudeDegrees>
              <LongitudeDegrees>2.597920261323451995849609375</LongitudeDegrees>
            </Position>
            <AltitudeMeters>724.5999755859375</AltitudeMeters>
            <DistanceMeters>NAN</DistanceMeters>
          </Trackpoint>
          <Trackpoint>
            <Time>2021-04-02T12:01:28.000Z</Time>
            <Position>
              <LatitudeDegrees>42.327197492122650146484375</LatitudeDegrees>
              <LongitudeDegrees>2.5978104583919048309326171875</LongitudeDegrees>
            </Position>
            <AltitudeMeters>724.79998779296875</AltitudeMeters>
            <DistanceMeters>NAN</DistanceMeters>
          </Trackpoint>
          <Trackpoint>
            <Time>2021-04-02T12:01:31.000Z</Time>
            <Position>
              <LatitudeDegrees>42.32719053514301776885986328125</LatitudeDegrees>
              <LongitudeDegrees>2.59778824634850025177001953125</LongitudeDegrees>
            </Position>
            <AltitudeMeters>725</AltitudeMeters>
            <DistanceMeters>NAN</DistanceMeters>
          </Trackpoint>
          <Trackpoint>
            <Time>2021-04-02T12:01:33.000Z</Time>
            <Position>
              <LatitudeDegrees>42.32718433253467082977294921875</LatitudeDegrees>
              <LongitudeDegrees>2.59777366183698177337646484375</LongitudeDegrees>
            </Position>
            <AltitudeMeters>725</AltitudeMeters>
            <DistanceMeters>NAN</DistanceMeters>
          </Trackpoint>
          <Trackpoint>
            <Time>2021-04-02T12:01:34.000Z</Time>
            <Position>
              <LatitudeDegrees>42.3271787166595458984375</LatitudeDegrees>
              <LongitudeDegrees>2.59776695631444454193115234375</LongitudeDegrees>
            </Position>
            <AltitudeMeters>725.20001220703125</AltitudeMeters>
            <DistanceMeters>NAN</DistanceMeters>
          </Trackpoint>
          <Trackpoint>
            <Time>2021-04-02T12:01:37.000Z</Time>
            <Position>
              <LatitudeDegrees>42.327173016965389251708984375</LatitudeDegrees>
              <LongitudeDegrees>2.59774516336619853973388671875</LongitudeDegrees>
            </Position>
            <AltitudeMeters>725.5999755859375</AltitudeMeters>
            <DistanceMeters>NAN</DistanceMeters>
          </Trackpoint>
          <Trackpoint>
            <Time>2021-04-02T12:01:38.000Z</Time>
            <Position>
              <LatitudeDegrees>42.3271701671183109283447265625</LatitudeDegrees>
              <LongitudeDegrees>2.59774130769073963165283203125</LongitudeDegrees>
            </Position>
            <AltitudeMeters>725.79998779296875</AltitudeMeters>
            <DistanceMeters>NAN</DistanceMeters>
          </Trackpoint>
          <Trackpoint>
            <Time>2021-04-02T12:01:40.000Z</Time>
            <Position>
              <LatitudeDegrees>42.32715399004518985748291015625</LatitudeDegrees>
              <LongitudeDegrees>2.5977422297000885009765625</LongitudeDegrees>
            </Position>
            <AltitudeMeters>725.79998779296875</AltitudeMeters>
            <DistanceMeters>NAN</DistanceMeters>
          </Trackpoint>
          <Trackpoint>
            <Time>2021-04-02T12:01:43.000Z</Time>
            <Position>
              <LatitudeDegrees>42.32712448574602603912353515625</LatitudeDegrees>
              <LongitudeDegrees>2.597731836140155792236328125</LongitudeDegrees>
            </Position>
            <AltitudeMeters>725.79998779296875</AltitudeMeters>
            <DistanceMeters>NAN</DistanceMeters>
          </Trackpoint>
          <Trackpoint>
            <Time>2021-04-02T12:01:50.000Z</Time>
            <Position>
              <LatitudeDegrees>42.327116690576076507568359375</LatitudeDegrees>
              <LongitudeDegrees>2.59765463881194591522216796875</LongitudeDegrees>
            </Position>
            <AltitudeMeters>725.5999755859375</AltitudeMeters>
            <DistanceMeters>NAN</DistanceMeters>
          </Trackpoint>
          <Trackpoint>
            <Time>2021-04-02T12:01:51.000Z</Time>
            <Position>
              <LatitudeDegrees>42.32711358927190303802490234375</LatitudeDegrees>
              <LongitudeDegrees>2.597647346556186676025390625</LongitudeDegrees>
            </Position>
            <AltitudeMeters>725.79998779296875</AltitudeMeters>
            <DistanceMeters>NAN</DistanceMeters>
          </Trackpoint>
          <Trackpoint>
            <Time>2021-04-02T12:01:53.000Z</Time>
            <Position>
              <LatitudeDegrees>42.32711593620479106903076171875</LatitudeDegrees>
              <LongitudeDegrees>2.597629241645336151123046875</LongitudeDegrees>
            </Position>
            <AltitudeMeters>725.79998779296875</AltitudeMeters>
            <DistanceMeters>NAN</DistanceMeters>
          </Trackpoint>
          <Trackpoint>
            <Time>2021-04-02T12:01:56.000Z</Time>
            <Position>
              <LatitudeDegrees>42.32712716795504093170166015625</LatitudeDegrees>
              <LongitudeDegrees>2.59759495966136455535888671875</LongitudeDegrees>
            </Position>
            <AltitudeMeters>726</AltitudeMeters>
            <DistanceMeters>NAN</DistanceMeters>
          </Trackpoint>
          <Trackpoint>
            <Time>2021-04-02T12:01:58.000Z</Time>
            <Position>
              <LatitudeDegrees>42.3271272517740726470947265625</LatitudeDegrees>
              <LongitudeDegrees>2.59756713174283504486083984375</LongitudeDegrees>
            </Position>
            <AltitudeMeters>725.79998779296875</AltitudeMeters>
            <DistanceMeters>NAN</DistanceMeters>
          </Trackpoint>
          <Trackpoint>
            <Time>2021-04-02T12:02:06.000Z</Time>
            <Position>
              <LatitudeDegrees>42.32708307914435863494873046875</LatitudeDegrees>
              <LongitudeDegrees>2.59749571792781352996826171875</LongitudeDegrees>
            </Position>
            <AltitudeMeters>725.5999755859375</AltitudeMeters>
            <DistanceMeters>NAN</DistanceMeters>
          </Trackpoint>
          <Trackpoint>
            <Time>2021-04-02T12:02:13.000Z</Time>
            <Position>
              <LatitudeDegrees>42.32708911411464214324951171875</LatitudeDegrees>
              <LongitudeDegrees>2.5974041037261486053466796875</LongitudeDegrees>
            </Position>
            <AltitudeMeters>725.79998779296875</AltitudeMeters>
            <DistanceMeters>NAN</DistanceMeters>
          </Trackpoint>
          <Trackpoint>
            <Time>2021-04-02T12:02:14.000Z</Time>
            <Position>
              <LatitudeDegrees>42.32708944939076900482177734375</LatitudeDegrees>
              <LongitudeDegrees>2.59739345870912075042724609375</LongitudeDegrees>
            </Position>
            <AltitudeMeters>725.79998779296875</AltitudeMeters>
            <DistanceMeters>NAN</DistanceMeters>
          </Trackpoint>
          <Trackpoint>
            <Time>2021-04-02T12:02:17.000Z</Time>
            <Position>
              <LatitudeDegrees>42.32709129340946674346923828125</LatitudeDegrees>
              <LongitudeDegrees>2.597369737923145294189453125</LongitudeDegrees>
            </Position>
            <AltitudeMeters>726</AltitudeMeters>
            <DistanceMeters>NAN</DistanceMeters>
          </Trackpoint>
          <Trackpoint>
            <Time>2021-04-02T12:02:18.000Z</Time>
            <Position>
              <LatitudeDegrees>42.32708995230495929718017578125</LatitudeDegrees>
              <LongitudeDegrees>2.59736697189509868621826171875</LongitudeDegrees>
            </Position>
            <AltitudeMeters>726.20001220703125</AltitudeMeters>
            <DistanceMeters>NAN</DistanceMeters>
          </Trackpoint>
          <Trackpoint>
            <Time>2021-04-02T12:02:20.000Z</Time>
            <Position>
              <LatitudeDegrees>42.327073775231838226318359375</LatitudeDegrees>
              <LongitudeDegrees>2.59736211039125919342041015625</LongitudeDegrees>
            </Position>
            <AltitudeMeters>726.4000244140625</AltitudeMeters>
            <DistanceMeters>NAN</DistanceMeters>
          </Trackpoint>
          <Trackpoint>
            <Time>2021-04-02T12:02:22.000Z</Time>
            <Position>
              <LatitudeDegrees>42.327077798545360565185546875</LatitudeDegrees>
              <LongitudeDegrees>2.5973336957395076751708984375</LongitudeDegrees>
            </Position>
            <AltitudeMeters>726.79998779296875</AltitudeMeters>
            <DistanceMeters>NAN</DistanceMeters>
          </Trackpoint>
          <Trackpoint>
            <Time>2021-04-02T12:02:23.000Z</Time>
            <Position>
              <LatitudeDegrees>42.327076457440853118896484375</LatitudeDegrees>
              <LongitudeDegrees>2.5973239727318286895751953125</LongitudeDegrees>
            </Position>
            <AltitudeMeters>726.79998779296875</AltitudeMeters>
            <DistanceMeters>NAN</DistanceMeters>
          </Trackpoint>
          <Trackpoint>
            <Time>2021-04-02T12:02:26.000Z</Time>
            <Position>
              <LatitudeDegrees>42.32706866227090358734130859375</LatitudeDegrees>
              <LongitudeDegrees>2.59730511344969272613525390625</LongitudeDegrees>
            </Position>
            <AltitudeMeters>727</AltitudeMeters>
            <DistanceMeters>NAN</DistanceMeters>
          </Trackpoint>
          <Trackpoint>
            <Time>2021-04-02T12:02:27.000Z</Time>
            <Position>
              <LatitudeDegrees>42.32706195674836635589599609375</LatitudeDegrees>
              <LongitudeDegrees>2.5973005034029483795166015625</LongitudeDegrees>
            </Position>
            <AltitudeMeters>727.20001220703125</AltitudeMeters>
            <DistanceMeters>NAN</DistanceMeters>
          </Trackpoint>
          <Trackpoint>
            <Time>2021-04-02T12:02:29.000Z</Time>
            <Position>
              <LatitudeDegrees>42.327054999768733978271484375</LatitudeDegrees>
              <LongitudeDegrees>2.5972897745668888092041015625</LongitudeDegrees>
            </Position>
            <AltitudeMeters>727.4000244140625</AltitudeMeters>
            <DistanceMeters>NAN</DistanceMeters>
          </Trackpoint>
          <Trackpoint>
            <Time>2021-04-02T12:02:35.000Z</Time>
            <Position>
              <LatitudeDegrees>42.32702809385955333709716796875</LatitudeDegrees>
              <LongitudeDegrees>2.59725951589643955230712890625</LongitudeDegrees>
            </Position>
            <AltitudeMeters>727.79998779296875</AltitudeMeters>
            <DistanceMeters>NAN</DistanceMeters>
          </Trackpoint>
          <Trackpoint>
            <Time>2021-04-02T12:02:36.000Z</Time>
            <Position>
              <LatitudeDegrees>42.32702708803117275238037109375</LatitudeDegrees>
              <LongitudeDegrees>2.5972565822303295135498046875</LongitudeDegrees>
            </Position>
            <AltitudeMeters>727.79998779296875</AltitudeMeters>
            <DistanceMeters>NAN</DistanceMeters>
          </Trackpoint>
          <Trackpoint>
            <Time>2021-04-02T12:02:40.000Z</Time>
            <Position>
              <LatitudeDegrees>42.32700177468359470367431640625</LatitudeDegrees>
              <LongitudeDegrees>2.5972473621368408203125</LongitudeDegrees>
            </Position>
            <AltitudeMeters>727.79998779296875</AltitudeMeters>
            <DistanceMeters>NAN</DistanceMeters>
          </Trackpoint>
          <Trackpoint>
            <Time>2021-04-02T12:02:42.000Z</Time>
            <Position>
              <LatitudeDegrees>42.32699305750429630279541015625</LatitudeDegrees>
              <LongitudeDegrees>2.5972394831478595733642578125</LongitudeDegrees>
            </Position>
            <AltitudeMeters>728</AltitudeMeters>
            <DistanceMeters>NAN</DistanceMeters>
          </Trackpoint>
          <Trackpoint>
            <Time>2021-04-02T12:02:43.000Z</Time>
            <Position>
              <LatitudeDegrees>42.3269807361066341400146484375</LatitudeDegrees>
              <LongitudeDegrees>2.59724375791847705841064453125</LongitudeDegrees>
            </Position>
            <AltitudeMeters>728</AltitudeMeters>
            <DistanceMeters>NAN</DistanceMeters>
          </Trackpoint>
          <Trackpoint>
            <Time>2021-04-02T12:02:48.000Z</Time>
            <Position>
              <LatitudeDegrees>42.32695265673100948333740234375</LatitudeDegrees>
              <LongitudeDegrees>2.59717670269310474395751953125</LongitudeDegrees>
            </Position>
            <AltitudeMeters>728.20001220703125</AltitudeMeters>
            <DistanceMeters>NAN</DistanceMeters>
          </Trackpoint>
          <Trackpoint>
            <Time>2021-04-02T12:02:55.000Z</Time>
            <Position>
              <LatitudeDegrees>42.32692080549895763397216796875</LatitudeDegrees>
              <LongitudeDegrees>2.597128339111804962158203125</LongitudeDegrees>
            </Position>
            <AltitudeMeters>728.4000244140625</AltitudeMeters>
            <DistanceMeters>NAN</DistanceMeters>
          </Trackpoint>
          <Trackpoint>
            <Time>2021-04-02T12:03:02.000Z</Time>
            <Position>
              <LatitudeDegrees>42.32694477774202823638916015625</LatitudeDegrees>
              <LongitudeDegrees>2.5970570929348468780517578125</LongitudeDegrees>
            </Position>
            <AltitudeMeters>728.79998779296875</AltitudeMeters>
            <DistanceMeters>NAN</DistanceMeters>
          </Trackpoint>
          <Trackpoint>
            <Time>2021-04-02T12:03:05.000Z</Time>
            <Position>
              <LatitudeDegrees>42.32693589292466640472412109375</LatitudeDegrees>
              <LongitudeDegrees>2.59704644791781902313232421875</LongitudeDegrees>
            </Position>
            <AltitudeMeters>729</AltitudeMeters>
            <DistanceMeters>NAN</DistanceMeters>
          </Trackpoint>
          <Trackpoint>
            <Time>2021-04-02T12:03:09.000Z</Time>
            <Position>
              <LatitudeDegrees>42.3269190452992916107177734375</LatitudeDegrees>
              <LongitudeDegrees>2.59704929776489734649658203125</LongitudeDegrees>
            </Position>
            <AltitudeMeters>729.20001220703125</AltitudeMeters>
            <DistanceMeters>NAN</DistanceMeters>
          </Trackpoint>
          <Trackpoint>
            <Time>2021-04-02T12:03:17.000Z</Time>
            <Position>
              <LatitudeDegrees>42.326870262622833251953125</LatitudeDegrees>
              <LongitudeDegrees>2.5970051251351833343505859375</LongitudeDegrees>
            </Position>
            <AltitudeMeters>729</AltitudeMeters>
            <DistanceMeters>NAN</DistanceMeters>
          </Trackpoint>
          <Trackpoint>
            <Time>2021-04-02T12:03:23.000Z</Time>
            <Position>
              <LatitudeDegrees>42.326850481331348419189453125</LatitudeDegrees>
              <LongitudeDegrees>2.5969437696039676666259765625</LongitudeDegrees>
            </Position>
            <AltitudeMeters>728.5999755859375</AltitudeMeters>
            <DistanceMeters>NAN</DistanceMeters>
          </Trackpoint>
          <Trackpoint>
            <Time>2021-04-02T12:03:28.000Z</Time>
            <Position>
              <LatitudeDegrees>42.326810248196125030517578125</LatitudeDegrees>
              <LongitudeDegrees>2.59691334329545497894287109375</LongitudeDegrees>
            </Position>
            <AltitudeMeters>728.79998779296875</AltitudeMeters>
            <DistanceMeters>NAN</DistanceMeters>
          </Trackpoint>
          <Trackpoint>
            <Time>2021-04-02T12:03:31.000Z</Time>
            <Position>
              <LatitudeDegrees>42.32678870670497417449951171875</LatitudeDegrees>
              <LongitudeDegrees>2.5968861021101474761962890625</LongitudeDegrees>
            </Position>
            <AltitudeMeters>729</AltitudeMeters>
            <DistanceMeters>NAN</DistanceMeters>
          </Trackpoint>
          <Trackpoint>
            <Time>2021-04-02T12:03:34.000Z</Time>
            <Position>
              <LatitudeDegrees>42.32679155655205249786376953125</LatitudeDegrees>
              <LongitudeDegrees>2.5968626327812671661376953125</LongitudeDegrees>
            </Position>
            <AltitudeMeters>729.20001220703125</AltitudeMeters>
            <DistanceMeters>NAN</DistanceMeters>
          </Trackpoint>
          <Trackpoint>
            <Time>2021-04-02T12:03:42.000Z</Time>
            <Position>
              <LatitudeDegrees>42.32678107917308807373046875</LatitudeDegrees>
              <LongitudeDegrees>2.5968126766383647918701171875</LongitudeDegrees>
            </Position>
            <AltitudeMeters>730</AltitudeMeters>
            <DistanceMeters>NAN</DistanceMeters>
          </Trackpoint>
          <Trackpoint>
            <Time>2021-04-02T12:03:43.000Z</Time>
            <Position>
              <LatitudeDegrees>42.3267804086208343505859375</LatitudeDegrees>
              <LongitudeDegrees>2.596799768507480621337890625</LongitudeDegrees>
            </Position>
            <AltitudeMeters>730.20001220703125</AltitudeMeters>
            <DistanceMeters>NAN</DistanceMeters>
          </Trackpoint>
          <Trackpoint>
            <Time>2021-04-02T12:03:46.000Z</Time>
            <Position>
              <LatitudeDegrees>42.3267624713480472564697265625</LatitudeDegrees>
              <LongitudeDegrees>2.59678275324404239654541015625</LongitudeDegrees>
            </Position>
            <AltitudeMeters>730.5999755859375</AltitudeMeters>
            <DistanceMeters>NAN</DistanceMeters>
          </Trackpoint>
          <Trackpoint>
            <Time>2021-04-02T12:03:50.000Z</Time>
            <Position>
              <LatitudeDegrees>42.3267500661313533782958984375</LatitudeDegrees>
              <LongitudeDegrees>2.59676733054220676422119140625</LongitudeDegrees>
            </Position>
            <AltitudeMeters>731.20001220703125</AltitudeMeters>
            <DistanceMeters>NAN</DistanceMeters>
          </Trackpoint>
          <Trackpoint>
            <Time>2021-04-02T12:03:55.000Z</Time>
            <Position>
              <LatitudeDegrees>42.32673204503953456878662109375</LatitudeDegrees>
              <LongitudeDegrees>2.59673128835856914520263671875</LongitudeDegrees>
            </Position>
            <AltitudeMeters>731.5999755859375</AltitudeMeters>
            <DistanceMeters>NAN</DistanceMeters>
          </Trackpoint>
          <Trackpoint>
            <Time>2021-04-02T12:03:56.000Z</Time>
            <Position>
              <LatitudeDegrees>42.3267322964966297149658203125</LatitudeDegrees>
              <LongitudeDegrees>2.59671787731349468231201171875</LongitudeDegrees>
            </Position>
            <AltitudeMeters>731.5999755859375</AltitudeMeters>
            <DistanceMeters>NAN</DistanceMeters>
          </Trackpoint>
          <Trackpoint>
            <Time>2021-04-02T12:04:03.000Z</Time>
            <Position>
              <LatitudeDegrees>42.3267081566154956817626953125</LatitudeDegrees>
              <LongitudeDegrees>2.59665216319262981414794921875</LongitudeDegrees>
            </Position>
            <AltitudeMeters>731.5999755859375</AltitudeMeters>
            <DistanceMeters>NAN</DistanceMeters>
          </Trackpoint>
          <Trackpoint>
            <Time>2021-04-02T12:04:09.000Z</Time>
            <Position>
              <LatitudeDegrees>42.32669667340815067291259765625</LatitudeDegrees>
              <LongitudeDegrees>2.596594579517841339111328125</LongitudeDegrees>
            </Position>
            <AltitudeMeters>731.20001220703125</AltitudeMeters>
            <DistanceMeters>NAN</DistanceMeters>
          </Trackpoint>
          <Trackpoint>
            <Time>2021-04-02T12:04:15.000Z</Time>
            <Position>
              <LatitudeDegrees>42.32667504809796810150146484375</LatitudeDegrees>
              <LongitudeDegrees>2.596547640860080718994140625</LongitudeDegrees>
            </Position>
            <AltitudeMeters>730.79998779296875</AltitudeMeters>
            <DistanceMeters>NAN</DistanceMeters>
          </Trackpoint>
          <Trackpoint>
            <Time>2021-04-02T12:04:22.000Z</Time>
            <Position>
              <LatitudeDegrees>42.326656691730022430419921875</LatitudeDegrees>
              <LongitudeDegrees>2.5964482314884662628173828125</LongitudeDegrees>
            </Position>
            <AltitudeMeters>730.5999755859375</AltitudeMeters>
            <DistanceMeters>NAN</DistanceMeters>
          </Trackpoint>
          <Trackpoint>
            <Time>2021-04-02T12:04:27.000Z</Time>
            <Position>
              <LatitudeDegrees>42.3266058973968029022216796875</LatitudeDegrees>
              <LongitudeDegrees>2.5964147038757801055908203125</LongitudeDegrees>
            </Position>
            <AltitudeMeters>730.5999755859375</AltitudeMeters>
            <DistanceMeters>NAN</DistanceMeters>
          </Trackpoint>
          <Trackpoint>
            <Time>2021-04-02T12:04:28.000Z</Time>
            <Position>
              <LatitudeDegrees>42.32659894041717052459716796875</LatitudeDegrees>
              <LongitudeDegrees>2.59639785625040531158447265625</LongitudeDegrees>
            </Position>
            <AltitudeMeters>730.5999755859375</AltitudeMeters>
            <DistanceMeters>NAN</DistanceMeters>
          </Trackpoint>
          <Trackpoint>
            <Time>2021-04-02T12:04:32.000Z</Time>
            <Position>
              <LatitudeDegrees>42.32657312415540218353271484375</LatitudeDegrees>
              <LongitudeDegrees>2.5963526777923107147216796875</LongitudeDegrees>
            </Position>
            <AltitudeMeters>730.20001220703125</AltitudeMeters>
            <DistanceMeters>NAN</DistanceMeters>
          </Trackpoint>
          <Trackpoint>
            <Time>2021-04-02T12:04:35.000Z</Time>
            <Position>
              <LatitudeDegrees>42.32655334286391735076904296875</LatitudeDegrees>
              <LongitudeDegrees>2.59633549489080905914306640625</LongitudeDegrees>
            </Position>
            <AltitudeMeters>730.20001220703125</AltitudeMeters>
            <DistanceMeters>NAN</DistanceMeters>
          </Trackpoint>
          <Trackpoint>
            <Time>2021-04-02T12:04:37.000Z</Time>
            <Position>
              <LatitudeDegrees>42.3265589587390422821044921875</LatitudeDegrees>
              <LongitudeDegrees>2.5963124446570873260498046875</LongitudeDegrees>
            </Position>
            <AltitudeMeters>730.20001220703125</AltitudeMeters>
            <DistanceMeters>NAN</DistanceMeters>
          </Trackpoint>
          <Trackpoint>
            <Time>2021-04-02T12:04:43.000Z</Time>
            <Position>
              <LatitudeDegrees>42.3265445418655872344970703125</LatitudeDegrees>
              <LongitudeDegrees>2.5963265262544155120849609375</LongitudeDegrees>
            </Position>
            <AltitudeMeters>729.79998779296875</AltitudeMeters>
            <DistanceMeters>NAN</DistanceMeters>
          </Trackpoint>
          <Trackpoint>
            <Time>2021-04-02T12:04:47.000Z</Time>
            <Position>
              <LatitudeDegrees>42.32653054408729076385498046875</LatitudeDegrees>
              <LongitudeDegrees>2.59632878936827182769775390625</LongitudeDegrees>
            </Position>
            <AltitudeMeters>729.20001220703125</AltitudeMeters>
            <DistanceMeters>NAN</DistanceMeters>
          </Trackpoint>
          <Trackpoint>
            <Time>2021-04-02T12:04:49.000Z</Time>
            <Position>
              <LatitudeDegrees>42.326515205204486846923828125</LatitudeDegrees>
              <LongitudeDegrees>2.5963463075459003448486328125</LongitudeDegrees>
            </Position>
            <AltitudeMeters>728.79998779296875</AltitudeMeters>
            <DistanceMeters>NAN</DistanceMeters>
          </Trackpoint>
          <Trackpoint>
            <Time>2021-04-02T12:04:56.000Z</Time>
            <Position>
              <LatitudeDegrees>42.326481342315673828125</LatitudeDegrees>
              <LongitudeDegrees>2.5963580422103404998779296875</LongitudeDegrees>
            </Position>
            <AltitudeMeters>728.5999755859375</AltitudeMeters>
            <DistanceMeters>NAN</DistanceMeters>
          </Trackpoint>
          <Trackpoint>
            <Time>2021-04-02T12:05:03.000Z</Time>
            <Position>
              <LatitudeDegrees>42.3264546878635883331298828125</LatitudeDegrees>
              <LongitudeDegrees>2.59638930670917034149169921875</LongitudeDegrees>
            </Position>
            <AltitudeMeters>728.4000244140625</AltitudeMeters>
            <DistanceMeters>NAN</DistanceMeters>
          </Trackpoint>
          <Trackpoint>
            <Time>2021-04-02T12:05:05.000Z</Time>
            <Position>
              <LatitudeDegrees>42.32645074836909770965576171875</LatitudeDegrees>
              <LongitudeDegrees>2.59640489704906940460205078125</LongitudeDegrees>
            </Position>
            <AltitudeMeters>728.4000244140625</AltitudeMeters>
            <DistanceMeters>NAN</DistanceMeters>
          </Trackpoint>
          <Trackpoint>
            <Time>2021-04-02T12:05:08.000Z</Time>
            <Position>
              <LatitudeDegrees>42.32642979361116886138916015625</LatitudeDegrees>
              <LongitudeDegrees>2.59641520678997039794921875</LongitudeDegrees>
            </Position>
            <AltitudeMeters>728.20001220703125</AltitudeMeters>
            <DistanceMeters>NAN</DistanceMeters>
          </Trackpoint>
          <Trackpoint>
            <Time>2021-04-02T12:05:10.000Z</Time>
            <Position>
              <LatitudeDegrees>42.32641118578612804412841796875</LatitudeDegrees>
              <LongitudeDegrees>2.59642459452152252197265625</LongitudeDegrees>
            </Position>
            <AltitudeMeters>727.79998779296875</AltitudeMeters>
            <DistanceMeters>NAN</DistanceMeters>
          </Trackpoint>
          <Trackpoint>
            <Time>2021-04-02T12:05:15.000Z</Time>
            <Position>
              <LatitudeDegrees>42.32637397013604640960693359375</LatitudeDegrees>
              <LongitudeDegrees>2.59643289260566234588623046875</LongitudeDegrees>
            </Position>
            <AltitudeMeters>727.79998779296875</AltitudeMeters>
            <DistanceMeters>NAN</DistanceMeters>
          </Trackpoint>
          <Trackpoint>
            <Time>2021-04-02T12:05:16.000Z</Time>
            <Position>
              <LatitudeDegrees>42.32636374421417713165283203125</LatitudeDegrees>
              <LongitudeDegrees>2.59643943049013614654541015625</LongitudeDegrees>
            </Position>
            <AltitudeMeters>727.79998779296875</AltitudeMeters>
            <DistanceMeters>NAN</DistanceMeters>
          </Trackpoint>
          <Trackpoint>
            <Time>2021-04-02T12:05:23.000Z</Time>
            <Position>
              <LatitudeDegrees>42.32628679834306240081787109375</LatitudeDegrees>
              <LongitudeDegrees>2.596466504037380218505859375</LongitudeDegrees>
            </Position>
            <AltitudeMeters>728</AltitudeMeters>
            <DistanceMeters>NAN</DistanceMeters>
          </Trackpoint>
          <Trackpoint>
            <Time>2021-04-02T12:05:28.000Z</Time>
            <Position>
              <LatitudeDegrees>42.326273806393146514892578125</LatitudeDegrees>
              <LongitudeDegrees>2.596465833485126495361328125</LongitudeDegrees>
            </Position>
            <AltitudeMeters>728</AltitudeMeters>
            <DistanceMeters>NAN</DistanceMeters>
          </Trackpoint>
          <Trackpoint>
            <Time>2021-04-02T12:05:29.000Z</Time>
            <Position>
              <LatitudeDegrees>42.326273135840892791748046875</LatitudeDegrees>
              <LongitudeDegrees>2.59646206162869930267333984375</LongitudeDegrees>
            </Position>
            <AltitudeMeters>728</AltitudeMeters>
            <DistanceMeters>NAN</DistanceMeters>
          </Trackpoint>
          <Trackpoint>
            <Time>2021-04-02T12:05:35.000Z</Time>
            <Position>
              <LatitudeDegrees>42.32623181305825710296630859375</LatitudeDegrees>
              <LongitudeDegrees>2.59648737497627735137939453125</LongitudeDegrees>
            </Position>
            <AltitudeMeters>727.79998779296875</AltitudeMeters>
            <DistanceMeters>NAN</DistanceMeters>
          </Trackpoint>
          <Trackpoint>
            <Time>2021-04-02T12:05:41.000Z</Time>
            <Position>
              <LatitudeDegrees>42.32619711197912693023681640625</LatitudeDegrees>
              <LongitudeDegrees>2.59652115404605865478515625</LongitudeDegrees>
            </Position>
            <AltitudeMeters>727.79998779296875</AltitudeMeters>
            <DistanceMeters>NAN</DistanceMeters>
          </Trackpoint>
          <Trackpoint>
            <Time>2021-04-02T12:05:46.000Z</Time>
            <Position>
              <LatitudeDegrees>42.32616727240383625030517578125</LatitudeDegrees>
              <LongitudeDegrees>2.59653515182435512542724609375</LongitudeDegrees>
            </Position>
            <AltitudeMeters>728.20001220703125</AltitudeMeters>
            <DistanceMeters>NAN</DistanceMeters>
          </Trackpoint>
          <Trackpoint>
            <Time>2021-04-02T12:05:50.000Z</Time>
            <Position>
              <LatitudeDegrees>42.32613273896276950836181640625</LatitudeDegrees>
              <LongitudeDegrees>2.596548311412334442138671875</LongitudeDegrees>
            </Position>
            <AltitudeMeters>728.5999755859375</AltitudeMeters>
            <DistanceMeters>NAN</DistanceMeters>
          </Trackpoint>
          <Trackpoint>
            <Time>2021-04-02T12:05:52.000Z</Time>
            <Position>
              <LatitudeDegrees>42.32612527906894683837890625</LatitudeDegrees>
              <LongitudeDegrees>2.59655208326876163482666015625</LongitudeDegrees>
            </Position>
            <AltitudeMeters>728.79998779296875</AltitudeMeters>
            <DistanceMeters>NAN</DistanceMeters>
          </Trackpoint>
          <Trackpoint>
            <Time>2021-04-02T12:05:53.000Z</Time>
            <Position>
              <LatitudeDegrees>42.32611647807061672210693359375</LatitudeDegrees>
              <LongitudeDegrees>2.5965566933155059814453125</LongitudeDegrees>
            </Position>
            <AltitudeMeters>729</AltitudeMeters>
            <DistanceMeters>NAN</DistanceMeters>
          </Trackpoint>
          <Trackpoint>
            <Time>2021-04-02T12:05:57.000Z</Time>
            <Position>
              <LatitudeDegrees>42.32608647085726261138916015625</LatitudeDegrees>
              <LongitudeDegrees>2.5965672545135021209716796875</LongitudeDegrees>
            </Position>
            <AltitudeMeters>729.4000244140625</AltitudeMeters>
            <DistanceMeters>NAN</DistanceMeters>
          </Trackpoint>
          <Trackpoint>
            <Time>2021-04-02T12:05:59.000Z</Time>
            <Position>
              <LatitudeDegrees>42.32607859186828136444091796875</LatitudeDegrees>
              <LongitudeDegrees>2.596575133502483367919921875</LongitudeDegrees>
            </Position>
            <AltitudeMeters>729.5999755859375</AltitudeMeters>
            <DistanceMeters>NAN</DistanceMeters>
          </Trackpoint>
          <Trackpoint>
            <Time>2021-04-02T12:06:01.000Z</Time>
            <Position>
              <LatitudeDegrees>42.32607808895409107208251953125</LatitudeDegrees>
              <LongitudeDegrees>2.596587203443050384521484375</LongitudeDegrees>
            </Position>
            <AltitudeMeters>729.79998779296875</AltitudeMeters>
            <DistanceMeters>NAN</DistanceMeters>
          </Trackpoint>
          <Trackpoint>
            <Time>2021-04-02T12:06:02.000Z</Time>
            <Position>
              <LatitudeDegrees>42.32607658021152019500732421875</LatitudeDegrees>
              <LongitudeDegrees>2.596595585346221923828125</LongitudeDegrees>
            </Position>
            <AltitudeMeters>729.79998779296875</AltitudeMeters>
            <DistanceMeters>NAN</DistanceMeters>
          </Trackpoint>
          <Trackpoint>
            <Time>2021-04-02T12:06:05.000Z</Time>
            <Position>
              <LatitudeDegrees>42.3260791786015033721923828125</LatitudeDegrees>
              <LongitudeDegrees>2.59661025367677211761474609375</LongitudeDegrees>
            </Position>
            <AltitudeMeters>730</AltitudeMeters>
            <DistanceMeters>NAN</DistanceMeters>
          </Trackpoint>
          <Trackpoint>
            <Time>2021-04-02T12:06:07.000Z</Time>
            <Position>
              <LatitudeDegrees>42.326070629060268402099609375</LatitudeDegrees>
              <LongitudeDegrees>2.5966235809028148651123046875</LongitudeDegrees>
            </Position>
            <AltitudeMeters>729.79998779296875</AltitudeMeters>
            <DistanceMeters>NAN</DistanceMeters>
          </Trackpoint>
          <Trackpoint>
            <Time>2021-04-02T12:06:09.000Z</Time>
            <Position>
              <LatitudeDegrees>42.32605864293873310089111328125</LatitudeDegrees>
              <LongitudeDegrees>2.596643865108489990234375</LongitudeDegrees>
            </Position>
            <AltitudeMeters>729.79998779296875</AltitudeMeters>
            <DistanceMeters>NAN</DistanceMeters>
          </Trackpoint>
          <Trackpoint>
            <Time>2021-04-02T12:06:11.000Z</Time>
            <Position>
              <LatitudeDegrees>42.32604858465492725372314453125</LatitudeDegrees>
              <LongitudeDegrees>2.596658281981945037841796875</LongitudeDegrees>
            </Position>
            <AltitudeMeters>729.79998779296875</AltitudeMeters>
            <DistanceMeters>NAN</DistanceMeters>
          </Trackpoint>
          <Trackpoint>
            <Time>2021-04-02T12:06:13.000Z</Time>
            <Position>
              <LatitudeDegrees>42.32603031210601329803466796875</LatitudeDegrees>
              <LongitudeDegrees>2.59666607715189456939697265625</LongitudeDegrees>
            </Position>
            <AltitudeMeters>729.79998779296875</AltitudeMeters>
            <DistanceMeters>NAN</DistanceMeters>
          </Trackpoint>
          <Trackpoint>
            <Time>2021-04-02T12:06:18.000Z</Time>
            <Position>
              <LatitudeDegrees>42.32600198127329349517822265625</LatitudeDegrees>
              <LongitudeDegrees>2.59668937884271144866943359375</LongitudeDegrees>
            </Position>
            <AltitudeMeters>729.4000244140625</AltitudeMeters>
            <DistanceMeters>NAN</DistanceMeters>
          </Trackpoint>
          <Trackpoint>
            <Time>2021-04-02T12:06:20.000Z</Time>
            <Position>
              <LatitudeDegrees>42.32600189745426177978515625</LatitudeDegrees>
              <LongitudeDegrees>2.596712596714496612548828125</LongitudeDegrees>
            </Position>
            <AltitudeMeters>728.79998779296875</AltitudeMeters>
            <DistanceMeters>NAN</DistanceMeters>
          </Trackpoint>
          <Trackpoint>
            <Time>2021-04-02T12:06:22.000Z</Time>
            <Position>
              <LatitudeDegrees>42.32600432820618152618408203125</LatitudeDegrees>
              <LongitudeDegrees>2.59672089479863643646240234375</LongitudeDegrees>
            </Position>
            <AltitudeMeters>728.5999755859375</AltitudeMeters>
            <DistanceMeters>NAN</DistanceMeters>
          </Trackpoint>
          <Trackpoint>
            <Time>2021-04-02T12:06:25.000Z</Time>
            <Position>
              <LatitudeDegrees>42.32598454691469669342041015625</LatitudeDegrees>
              <LongitudeDegrees>2.596717290580272674560546875</LongitudeDegrees>
            </Position>
            <AltitudeMeters>728.5999755859375</AltitudeMeters>
            <DistanceMeters>NAN</DistanceMeters>
          </Trackpoint>
          <Trackpoint>
            <Time>2021-04-02T12:06:30.000Z</Time>
            <Position>
              <LatitudeDegrees>42.32595655135810375213623046875</LatitudeDegrees>
              <LongitudeDegrees>2.59670211933553218841552734375</LongitudeDegrees>
            </Position>
            <AltitudeMeters>728.79998779296875</AltitudeMeters>
            <DistanceMeters>NAN</DistanceMeters>
          </Trackpoint>
          <Trackpoint>
            <Time>2021-04-02T12:06:35.000Z</Time>
            <Position>
              <LatitudeDegrees>42.32590827159583568572998046875</LatitudeDegrees>
              <LongitudeDegrees>2.5966916419565677642822265625</LongitudeDegrees>
            </Position>
            <AltitudeMeters>728.79998779296875</AltitudeMeters>
            <DistanceMeters>NAN</DistanceMeters>
          </Trackpoint>
          <Trackpoint>
            <Time>2021-04-02T12:06:40.000Z</Time>
            <Position>
              <LatitudeDegrees>42.32585613615810871124267578125</LatitudeDegrees>
              <LongitudeDegrees>2.5966889597475528717041015625</LongitudeDegrees>
            </Position>
            <AltitudeMeters>729.20001220703125</AltitudeMeters>
            <DistanceMeters>NAN</DistanceMeters>
          </Trackpoint>
          <Trackpoint>
            <Time>2021-04-02T12:06:43.000Z</Time>
            <Position>
              <LatitudeDegrees>42.32583291828632354736328125</LatitudeDegrees>
              <LongitudeDegrees>2.59669457562267780303955078125</LongitudeDegrees>
            </Position>
            <AltitudeMeters>729.79998779296875</AltitudeMeters>
            <DistanceMeters>NAN</DistanceMeters>
          </Trackpoint>
          <Trackpoint>
            <Time>2021-04-02T12:06:46.000Z</Time>
            <Position>
              <LatitudeDegrees>42.3258042521774768829345703125</LatitudeDegrees>
              <LongitudeDegrees>2.59669323451817035675048828125</LongitudeDegrees>
            </Position>
            <AltitudeMeters>730.20001220703125</AltitudeMeters>
            <DistanceMeters>NAN</DistanceMeters>
          </Trackpoint>
          <Trackpoint>
            <Time>2021-04-02T12:06:51.000Z</Time>
            <Position>
              <LatitudeDegrees>42.325749099254608154296875</LatitudeDegrees>
              <LongitudeDegrees>2.596693150699138641357421875</LongitudeDegrees>
            </Position>
            <AltitudeMeters>730.5999755859375</AltitudeMeters>
            <DistanceMeters>NAN</DistanceMeters>
          </Trackpoint>
          <Trackpoint>
            <Time>2021-04-02T12:06:53.000Z</Time>
            <Position>
              <LatitudeDegrees>42.32573845423758029937744140625</LatitudeDegrees>
              <LongitudeDegrees>2.59669608436524868011474609375</LongitudeDegrees>
            </Position>
            <AltitudeMeters>730.79998779296875</AltitudeMeters>
            <DistanceMeters>NAN</DistanceMeters>
          </Trackpoint>
          <Trackpoint>
            <Time>2021-04-02T12:06:55.000Z</Time>
            <Position>
              <LatitudeDegrees>42.325734011828899383544921875</LatitudeDegrees>
              <LongitudeDegrees>2.59669482707977294921875</LongitudeDegrees>
            </Position>
            <AltitudeMeters>731</AltitudeMeters>
            <DistanceMeters>NAN</DistanceMeters>
          </Trackpoint>
          <Trackpoint>
            <Time>2021-04-02T12:06:56.000Z</Time>
            <Position>
              <LatitudeDegrees>42.3257301561534404754638671875</LatitudeDegrees>
              <LongitudeDegrees>2.59669038467109203338623046875</LongitudeDegrees>
            </Position>
            <AltitudeMeters>731.20001220703125</AltitudeMeters>
            <DistanceMeters>NAN</DistanceMeters>
          </Trackpoint>
          <Trackpoint>
            <Time>2021-04-02T12:06:57.000Z</Time>
            <Position>
              <LatitudeDegrees>42.32571749947965145111083984375</LatitudeDegrees>
              <LongitudeDegrees>2.59669105522334575653076171875</LongitudeDegrees>
            </Position>
            <AltitudeMeters>731.4000244140625</AltitudeMeters>
            <DistanceMeters>NAN</DistanceMeters>
          </Trackpoint>
          <Trackpoint>
            <Time>2021-04-02T12:07:01.000Z</Time>
            <Position>
              <LatitudeDegrees>42.325693778693675994873046875</LatitudeDegrees>
              <LongitudeDegrees>2.59667806327342987060546875</LongitudeDegrees>
            </Position>
            <AltitudeMeters>731.79998779296875</AltitudeMeters>
            <DistanceMeters>NAN</DistanceMeters>
          </Trackpoint>
          <Trackpoint>
            <Time>2021-04-02T12:07:02.000Z</Time>
            <Position>
              <LatitudeDegrees>42.32568950392305850982666015625</LatitudeDegrees>
              <LongitudeDegrees>2.59667865000665187835693359375</LongitudeDegrees>
            </Position>
            <AltitudeMeters>732</AltitudeMeters>
            <DistanceMeters>NAN</DistanceMeters>
          </Trackpoint>
          <Trackpoint>
            <Time>2021-04-02T12:07:04.000Z</Time>
            <Position>
              <LatitudeDegrees>42.3256822116672992706298828125</LatitudeDegrees>
              <LongitudeDegrees>2.5966752134263515472412109375</LongitudeDegrees>
            </Position>
            <AltitudeMeters>732.20001220703125</AltitudeMeters>
            <DistanceMeters>NAN</DistanceMeters>
          </Trackpoint>
          <Trackpoint>
            <Time>2021-04-02T12:07:05.000Z</Time>
            <Position>
              <LatitudeDegrees>42.325679697096347808837890625</LatitudeDegrees>
              <LongitudeDegrees>2.59667144156992435455322265625</LongitudeDegrees>
            </Position>
            <AltitudeMeters>732.4000244140625</AltitudeMeters>
            <DistanceMeters>NAN</DistanceMeters>
          </Trackpoint>
          <Trackpoint>
            <Time>2021-04-02T12:07:08.000Z</Time>
            <Position>
              <LatitudeDegrees>42.325669638812541961669921875</LatitudeDegrees>
              <LongitudeDegrees>2.5966554321348667144775390625</LongitudeDegrees>
            </Position>
            <AltitudeMeters>732.5999755859375</AltitudeMeters>
            <DistanceMeters>NAN</DistanceMeters>
          </Trackpoint>
          <Trackpoint>
            <Time>2021-04-02T12:07:13.000Z</Time>
            <Position>
              <LatitudeDegrees>42.32565429992973804473876953125</LatitudeDegrees>
              <LongitudeDegrees>2.59664294309914112091064453125</LongitudeDegrees>
            </Position>
            <AltitudeMeters>732.5999755859375</AltitudeMeters>
            <DistanceMeters>NAN</DistanceMeters>
          </Trackpoint>
          <Trackpoint>
            <Time>2021-04-02T12:07:17.000Z</Time>
            <Position>
              <LatitudeDegrees>42.32564608566462993621826171875</LatitudeDegrees>
              <LongitudeDegrees>2.59661025367677211761474609375</LongitudeDegrees>
            </Position>
            <AltitudeMeters>733</AltitudeMeters>
            <DistanceMeters>NAN</DistanceMeters>
          </Trackpoint>
          <Trackpoint>
            <Time>2021-04-02T12:07:18.000Z</Time>
            <Position>
              <LatitudeDegrees>42.32564449310302734375</LatitudeDegrees>
              <LongitudeDegrees>2.596605978906154632568359375</LongitudeDegrees>
            </Position>
            <AltitudeMeters>733.20001220703125</AltitudeMeters>
            <DistanceMeters>NAN</DistanceMeters>
          </Trackpoint>
          <Trackpoint>
            <Time>2021-04-02T12:07:19.000Z</Time>
            <Position>
              <LatitudeDegrees>42.32563116587698459625244140625</LatitudeDegrees>
              <LongitudeDegrees>2.59660757146775722503662109375</LongitudeDegrees>
            </Position>
            <AltitudeMeters>733.20001220703125</AltitudeMeters>
            <DistanceMeters>NAN</DistanceMeters>
          </Trackpoint>
          <Trackpoint>
            <Time>2021-04-02T12:07:24.000Z</Time>
            <Position>
              <LatitudeDegrees>42.3256044276058673858642578125</LatitudeDegrees>
              <LongitudeDegrees>2.596605308353900909423828125</LongitudeDegrees>
            </Position>
            <AltitudeMeters>734</AltitudeMeters>
            <DistanceMeters>NAN</DistanceMeters>
          </Trackpoint>
          <Trackpoint>
            <Time>2021-04-02T12:07:25.000Z</Time>
            <Position>
              <LatitudeDegrees>42.3256015777587890625</LatitudeDegrees>
              <LongitudeDegrees>2.59660220704972743988037109375</LongitudeDegrees>
            </Position>
            <AltitudeMeters>734</AltitudeMeters>
            <DistanceMeters>NAN</DistanceMeters>
          </Trackpoint>
          <Trackpoint>
            <Time>2021-04-02T12:07:31.000Z</Time>
            <Position>
              <LatitudeDegrees>42.3255662061274051666259765625</LatitudeDegrees>
              <LongitudeDegrees>2.596614696085453033447265625</LongitudeDegrees>
            </Position>
            <AltitudeMeters>734.4000244140625</AltitudeMeters>
            <DistanceMeters>NAN</DistanceMeters>
          </Trackpoint>
          <Trackpoint>
            <Time>2021-04-02T12:07:37.000Z</Time>
            <Position>
              <LatitudeDegrees>42.32540032826364040374755859375</LatitudeDegrees>
              <LongitudeDegrees>2.59662710130214691162109375</LongitudeDegrees>
            </Position>
            <AltitudeMeters>735.20001220703125</AltitudeMeters>
            <DistanceMeters>NAN</DistanceMeters>
          </Trackpoint>
          <Trackpoint>
            <Time>2021-04-02T12:07:41.000Z</Time>
            <Position>
              <LatitudeDegrees>42.32533176429569721221923828125</LatitudeDegrees>
              <LongitudeDegrees>2.59660656563937664031982421875</LongitudeDegrees>
            </Position>
            <AltitudeMeters>735.5999755859375</AltitudeMeters>
            <DistanceMeters>NAN</DistanceMeters>
          </Trackpoint>
          <Trackpoint>
            <Time>2021-04-02T12:07:47.000Z</Time>
            <Position>
              <LatitudeDegrees>42.3253905214369297027587890625</LatitudeDegrees>
              <LongitudeDegrees>2.59656566195189952850341796875</LongitudeDegrees>
            </Position>
            <AltitudeMeters>736</AltitudeMeters>
            <DistanceMeters>NAN</DistanceMeters>
          </Trackpoint>
          <Trackpoint>
            <Time>2021-04-02T12:07:52.000Z</Time>
            <Position>
              <LatitudeDegrees>42.325433604419231414794921875</LatitudeDegrees>
              <LongitudeDegrees>2.5965763069689273834228515625</LongitudeDegrees>
            </Position>
            <AltitudeMeters>736</AltitudeMeters>
            <DistanceMeters>NAN</DistanceMeters>
          </Trackpoint>
          <Trackpoint>
            <Time>2021-04-02T12:07:56.000Z</Time>
            <Position>
              <LatitudeDegrees>42.32546453364193439483642578125</LatitudeDegrees>
              <LongitudeDegrees>2.596585862338542938232421875</LongitudeDegrees>
            </Position>
            <AltitudeMeters>736</AltitudeMeters>
            <DistanceMeters>NAN</DistanceMeters>
          </Trackpoint>
          <Trackpoint>
            <Time>2021-04-02T12:08:00.000Z</Time>
            <Position>
              <LatitudeDegrees>42.32547375373542308807373046875</LatitudeDegrees>
              <LongitudeDegrees>2.59660589508712291717529296875</LongitudeDegrees>
            </Position>
            <AltitudeMeters>735.79998779296875</AltitudeMeters>
            <DistanceMeters>NAN</DistanceMeters>
          </Trackpoint>
          <Trackpoint>
            <Time>2021-04-02T12:08:03.000Z</Time>
            <Position>
              <LatitudeDegrees>42.32549873180687427520751953125</LatitudeDegrees>
              <LongitudeDegrees>2.59660472162067890167236328125</LongitudeDegrees>
            </Position>
            <AltitudeMeters>735.79998779296875</AltitudeMeters>
            <DistanceMeters>NAN</DistanceMeters>
          </Trackpoint>
          <Trackpoint>
            <Time>2021-04-02T12:08:05.000Z</Time>
            <Position>
              <LatitudeDegrees>42.32552370987832546234130859375</LatitudeDegrees>
              <LongitudeDegrees>2.5966296158730983734130859375</LongitudeDegrees>
            </Position>
            <AltitudeMeters>735.79998779296875</AltitudeMeters>
            <DistanceMeters>NAN</DistanceMeters>
          </Trackpoint>
          <Trackpoint>
            <Time>2021-04-02T12:08:09.000Z</Time>
            <Position>
              <LatitudeDegrees>42.3255615122616291046142578125</LatitudeDegrees>
              <LongitudeDegrees>2.59671452455222606658935546875</LongitudeDegrees>
            </Position>
            <AltitudeMeters>735.79998779296875</AltitudeMeters>
            <DistanceMeters>NAN</DistanceMeters>
          </Trackpoint>
          <Trackpoint>
            <Time>2021-04-02T12:08:13.000Z</Time>
            <Position>
              <LatitudeDegrees>42.325595878064632415771484375</LatitudeDegrees>
              <LongitudeDegrees>2.59679247625172138214111328125</LongitudeDegrees>
            </Position>
            <AltitudeMeters>735.5999755859375</AltitudeMeters>
            <DistanceMeters>NAN</DistanceMeters>
          </Trackpoint>
          <Trackpoint>
            <Time>2021-04-02T12:08:15.000Z</Time>
            <Position>
              <LatitudeDegrees>42.32559378258883953094482421875</LatitudeDegrees>
              <LongitudeDegrees>2.59682667441666126251220703125</LongitudeDegrees>
            </Position>
            <AltitudeMeters>735.5999755859375</AltitudeMeters>
            <DistanceMeters>NAN</DistanceMeters>
          </Trackpoint>
          <Trackpoint>
            <Time>2021-04-02T12:08:17.000Z</Time>
            <Position>
              <LatitudeDegrees>42.32558674179017543792724609375</LatitudeDegrees>
              <LongitudeDegrees>2.59683840908110141754150390625</LongitudeDegrees>
            </Position>
            <AltitudeMeters>735.5999755859375</AltitudeMeters>
            <DistanceMeters>NAN</DistanceMeters>
          </Trackpoint>
          <Trackpoint>
            <Time>2021-04-02T12:08:24.000Z</Time>
            <Position>
              <LatitudeDegrees>42.32558221556246280670166015625</LatitudeDegrees>
              <LongitudeDegrees>2.596836648881435394287109375</LongitudeDegrees>
            </Position>
            <AltitudeMeters>735.5999755859375</AltitudeMeters>
            <DistanceMeters>NAN</DistanceMeters>
          </Trackpoint>
          <Trackpoint>
            <Time>2021-04-02T12:08:27.000Z</Time>
            <Position>
              <LatitudeDegrees>42.32558422721922397613525390625</LatitudeDegrees>
              <LongitudeDegrees>2.59684092365205287933349609375</LongitudeDegrees>
            </Position>
            <AltitudeMeters>735.5999755859375</AltitudeMeters>
            <DistanceMeters>NAN</DistanceMeters>
          </Trackpoint>
          <Trackpoint>
            <Time>2021-04-02T12:08:29.000Z</Time>
            <Position>
              <LatitudeDegrees>42.32558271847665309906005859375</LatitudeDegrees>
              <LongitudeDegrees>2.5968445278704166412353515625</LongitudeDegrees>
            </Position>
            <AltitudeMeters>735.4000244140625</AltitudeMeters>
            <DistanceMeters>NAN</DistanceMeters>
          </Trackpoint>
          <Trackpoint>
            <Time>2021-04-02T12:08:33.000Z</Time>
            <Position>
              <LatitudeDegrees>42.32559696771204471588134765625</LatitudeDegrees>
              <LongitudeDegrees>2.59683254174888134002685546875</LongitudeDegrees>
            </Position>
            <AltitudeMeters>735.20001220703125</AltitudeMeters>
            <DistanceMeters>NAN</DistanceMeters>
          </Trackpoint>
          <Trackpoint>
            <Time>2021-04-02T12:08:38.000Z</Time>
            <Position>
              <LatitudeDegrees>42.3256164975464344024658203125</LatitudeDegrees>
              <LongitudeDegrees>2.596770934760570526123046875</LongitudeDegrees>
            </Position>
            <AltitudeMeters>735.20001220703125</AltitudeMeters>
            <DistanceMeters>NAN</DistanceMeters>
          </Trackpoint>
          <Trackpoint>
            <Time>2021-04-02T12:08:43.000Z</Time>
            <Position>
              <LatitudeDegrees>42.32567173428833484649658203125</LatitudeDegrees>
              <LongitudeDegrees>2.5967409275472164154052734375</LongitudeDegrees>
            </Position>
            <AltitudeMeters>735.20001220703125</AltitudeMeters>
            <DistanceMeters>NAN</DistanceMeters>
          </Trackpoint>
          <Trackpoint>
            <Time>2021-04-02T12:08:49.000Z</Time>
            <Position>
              <LatitudeDegrees>42.325665950775146484375</LatitudeDegrees>
              <LongitudeDegrees>2.59673011489212512969970703125</LongitudeDegrees>
            </Position>
            <AltitudeMeters>735.20001220703125</AltitudeMeters>
            <DistanceMeters>NAN</DistanceMeters>
          </Trackpoint>
          <Trackpoint>
            <Time>2021-04-02T12:08:53.000Z</Time>
            <Position>
              <LatitudeDegrees>42.32565882615745067596435546875</LatitudeDegrees>
              <LongitudeDegrees>2.596715949475765228271484375</LongitudeDegrees>
            </Position>
            <AltitudeMeters>735.4000244140625</AltitudeMeters>
            <DistanceMeters>NAN</DistanceMeters>
          </Trackpoint>
          <Trackpoint>
            <Time>2021-04-02T12:08:56.000Z</Time>
            <Position>
              <LatitudeDegrees>42.32564306817948818206787109375</LatitudeDegrees>
              <LongitudeDegrees>2.596672363579273223876953125</LongitudeDegrees>
            </Position>
            <AltitudeMeters>735.4000244140625</AltitudeMeters>
            <DistanceMeters>NAN</DistanceMeters>
          </Trackpoint>
          <Trackpoint>
            <Time>2021-04-02T12:08:59.000Z</Time>
            <Position>
              <LatitudeDegrees>42.32564742676913738250732421875</LatitudeDegrees>
              <LongitudeDegrees>2.59665015153586864471435546875</LongitudeDegrees>
            </Position>
            <AltitudeMeters>735.5999755859375</AltitudeMeters>
            <DistanceMeters>NAN</DistanceMeters>
          </Trackpoint>
          <Trackpoint>
            <Time>2021-04-02T12:09:02.000Z</Time>
            <Position>
              <LatitudeDegrees>42.32562865130603313446044921875</LatitudeDegrees>
              <LongitudeDegrees>2.59666305966675281524658203125</LongitudeDegrees>
            </Position>
            <AltitudeMeters>735.5999755859375</AltitudeMeters>
            <DistanceMeters>NAN</DistanceMeters>
          </Trackpoint>
          <Trackpoint>
            <Time>2021-04-02T12:09:05.000Z</Time>
            <Position>
              <LatitudeDegrees>42.3255863226950168609619140625</LatitudeDegrees>
              <LongitudeDegrees>2.596676051616668701171875</LongitudeDegrees>
            </Position>
            <AltitudeMeters>735.5999755859375</AltitudeMeters>
            <DistanceMeters>NAN</DistanceMeters>
          </Trackpoint>
          <Trackpoint>
            <Time>2021-04-02T12:09:08.000Z</Time>
            <Position>
              <LatitudeDegrees>42.32560752891004085540771484375</LatitudeDegrees>
              <LongitudeDegrees>2.596670351922512054443359375</LongitudeDegrees>
            </Position>
            <AltitudeMeters>735.5999755859375</AltitudeMeters>
            <DistanceMeters>NAN</DistanceMeters>
          </Trackpoint>
          <Trackpoint>
            <Time>2021-04-02T12:09:13.000Z</Time>
            <Position>
              <LatitudeDegrees>42.3255950398743152618408203125</LatitudeDegrees>
              <LongitudeDegrees>2.59660840965807437896728515625</LongitudeDegrees>
            </Position>
            <AltitudeMeters>735.5999755859375</AltitudeMeters>
            <DistanceMeters>NAN</DistanceMeters>
          </Trackpoint>
          <Trackpoint>
            <Time>2021-04-02T12:09:16.000Z</Time>
            <Position>
              <LatitudeDegrees>42.3255118913948535919189453125</LatitudeDegrees>
              <LongitudeDegrees>2.596608661115169525146484375</LongitudeDegrees>
            </Position>
            <AltitudeMeters>735.5999755859375</AltitudeMeters>
            <DistanceMeters>NAN</DistanceMeters>
          </Trackpoint>
          <Trackpoint>
            <Time>2021-04-02T12:09:20.000Z</Time>
            <Position>
              <LatitudeDegrees>42.32543670572340488433837890625</LatitudeDegrees>
              <LongitudeDegrees>2.59660455398261547088623046875</LongitudeDegrees>
            </Position>
            <AltitudeMeters>735.5999755859375</AltitudeMeters>
            <DistanceMeters>NAN</DistanceMeters>
          </Trackpoint>
          <Trackpoint>
            <Time>2021-04-02T12:09:23.000Z</Time>
            <Position>
              <LatitudeDegrees>42.3254414834082126617431640625</LatitudeDegrees>
              <LongitudeDegrees>2.5965994410216808319091796875</LongitudeDegrees>
            </Position>
            <AltitudeMeters>735.5999755859375</AltitudeMeters>
            <DistanceMeters>NAN</DistanceMeters>
          </Trackpoint>
          <Trackpoint>
            <Time>2021-04-02T12:09:27.000Z</Time>
            <Position>
              <LatitudeDegrees>42.32549764215946197509765625</LatitudeDegrees>
              <LongitudeDegrees>2.59658896364271640777587890625</LongitudeDegrees>
            </Position>
            <AltitudeMeters>735.5999755859375</AltitudeMeters>
            <DistanceMeters>NAN</DistanceMeters>
          </Trackpoint>
          <Trackpoint>
            <Time>2021-04-02T12:09:32.000Z</Time>
            <Position>
              <LatitudeDegrees>42.325515411794185638427734375</LatitudeDegrees>
              <LongitudeDegrees>2.59664461947977542877197265625</LongitudeDegrees>
            </Position>
            <AltitudeMeters>735.5999755859375</AltitudeMeters>
            <DistanceMeters>NAN</DistanceMeters>
          </Trackpoint>
          <Trackpoint>
            <Time>2021-04-02T12:09:37.000Z</Time>
            <Position>
              <LatitudeDegrees>42.32554181478917598724365234375</LatitudeDegrees>
              <LongitudeDegrees>2.59663975797593593597412109375</LongitudeDegrees>
            </Position>
            <AltitudeMeters>735.5999755859375</AltitudeMeters>
            <DistanceMeters>NAN</DistanceMeters>
          </Trackpoint>
          <Trackpoint>
            <Time>2021-04-02T12:09:43.000Z</Time>
            <Position>
              <LatitudeDegrees>42.325539886951446533203125</LatitudeDegrees>
              <LongitudeDegrees>2.59663389064371585845947265625</LongitudeDegrees>
            </Position>
            <AltitudeMeters>735.5999755859375</AltitudeMeters>
            <DistanceMeters>NAN</DistanceMeters>
          </Trackpoint>
          <Trackpoint>
            <Time>2021-04-02T12:09:49.000Z</Time>
            <Position>
              <LatitudeDegrees>42.32562697492539882659912109375</LatitudeDegrees>
              <LongitudeDegrees>2.596636153757572174072265625</LongitudeDegrees>
            </Position>
            <AltitudeMeters>735.5999755859375</AltitudeMeters>
            <DistanceMeters>NAN</DistanceMeters>
          </Trackpoint>
          <Trackpoint>
            <Time>2021-04-02T12:09:52.000Z</Time>
            <Position>
              <LatitudeDegrees>42.32563133351504802703857421875</LatitudeDegrees>
              <LongitudeDegrees>2.5966299511492252349853515625</LongitudeDegrees>
            </Position>
            <AltitudeMeters>735.5999755859375</AltitudeMeters>
            <DistanceMeters>NAN</DistanceMeters>
          </Trackpoint>
          <Trackpoint>
            <Time>2021-04-02T12:09:54.000Z</Time>
            <Position>
              <LatitudeDegrees>42.32561163604259490966796875</LatitudeDegrees>
              <LongitudeDegrees>2.59663305245339870452880859375</LongitudeDegrees>
            </Position>
            <AltitudeMeters>735.5999755859375</AltitudeMeters>
            <DistanceMeters>NAN</DistanceMeters>
          </Trackpoint>
          <Trackpoint>
            <Time>2021-04-02T12:09:55.000Z</Time>
            <Position>
              <LatitudeDegrees>42.32561188749969005584716796875</LatitudeDegrees>
              <LongitudeDegrees>2.5966353155672550201416015625</LongitudeDegrees>
            </Position>
            <AltitudeMeters>735.5999755859375</AltitudeMeters>
            <DistanceMeters>NAN</DistanceMeters>
          </Trackpoint>
          <Trackpoint>
            <Time>2021-04-02T12:10:00.000Z</Time>
            <Position>
              <LatitudeDegrees>42.32563602738082408905029296875</LatitudeDegrees>
              <LongitudeDegrees>2.59661075659096240997314453125</LongitudeDegrees>
            </Position>
            <AltitudeMeters>735.5999755859375</AltitudeMeters>
            <DistanceMeters>NAN</DistanceMeters>
          </Trackpoint>
          <Trackpoint>
            <Time>2021-04-02T12:10:03.000Z</Time>
            <Position>
              <LatitudeDegrees>42.325663603842258453369140625</LatitudeDegrees>
              <LongitudeDegrees>2.59659701026976108551025390625</LongitudeDegrees>
            </Position>
            <AltitudeMeters>735.5999755859375</AltitudeMeters>
            <DistanceMeters>NAN</DistanceMeters>
          </Trackpoint>
          <Trackpoint>
            <Time>2021-04-02T12:10:04.000Z</Time>
            <Position>
              <LatitudeDegrees>42.3256661184132099151611328125</LatitudeDegrees>
              <LongitudeDegrees>2.59659935720264911651611328125</LongitudeDegrees>
            </Position>
            <AltitudeMeters>735.5999755859375</AltitudeMeters>
            <DistanceMeters>NAN</DistanceMeters>
          </Trackpoint>
          <Trackpoint>
            <Time>2021-04-02T12:10:06.000Z</Time>
            <Position>
              <LatitudeDegrees>42.3256714828312397003173828125</LatitudeDegrees>
              <LongitudeDegrees>2.5966007821261882781982421875</LongitudeDegrees>
            </Position>
            <AltitudeMeters>735.5999755859375</AltitudeMeters>
            <DistanceMeters>NAN</DistanceMeters>
          </Trackpoint>
          <Trackpoint>
            <Time>2021-04-02T12:10:10.000Z</Time>
            <Position>
              <LatitudeDegrees>42.3256245441734790802001953125</LatitudeDegrees>
              <LongitudeDegrees>2.5966292805969715118408203125</LongitudeDegrees>
            </Position>
            <AltitudeMeters>735.5999755859375</AltitudeMeters>
            <DistanceMeters>NAN</DistanceMeters>
          </Trackpoint>
          <Trackpoint>
            <Time>2021-04-02T12:10:14.000Z</Time>
            <Position>
              <LatitudeDegrees>42.3256292380392551422119140625</LatitudeDegrees>
              <LongitudeDegrees>2.59662785567343235015869140625</LongitudeDegrees>
            </Position>
            <AltitudeMeters>735.5999755859375</AltitudeMeters>
            <DistanceMeters>NAN</DistanceMeters>
          </Trackpoint>
          <Trackpoint>
            <Time>2021-04-02T12:10:17.000Z</Time>
            <Position>
              <LatitudeDegrees>42.32562714256346225738525390625</LatitudeDegrees>
              <LongitudeDegrees>2.59663154371082782745361328125</LongitudeDegrees>
            </Position>
            <AltitudeMeters>735.5999755859375</AltitudeMeters>
            <DistanceMeters>NAN</DistanceMeters>
          </Trackpoint>
          <Trackpoint>
            <Time>2021-04-02T12:10:20.000Z</Time>
            <Position>
              <LatitudeDegrees>42.32561373151838779449462890625</LatitudeDegrees>
              <LongitudeDegrees>2.59663514792919158935546875</LongitudeDegrees>
            </Position>
            <AltitudeMeters>735.5999755859375</AltitudeMeters>
            <DistanceMeters>NAN</DistanceMeters>
          </Trackpoint>
          <Trackpoint>
            <Time>2021-04-02T12:10:25.000Z</Time>
            <Position>
              <LatitudeDegrees>42.32561222277581691741943359375</LatitudeDegrees>
              <LongitudeDegrees>2.59663104079663753509521484375</LongitudeDegrees>
            </Position>
            <AltitudeMeters>735.5999755859375</AltitudeMeters>
            <DistanceMeters>NAN</DistanceMeters>
          </Trackpoint>
          <Trackpoint>
            <Time>2021-04-02T12:10:27.000Z</Time>
            <Position>
              <LatitudeDegrees>42.32561222277581691741943359375</LatitudeDegrees>
              <LongitudeDegrees>2.59663104079663753509521484375</LongitudeDegrees>
            </Position>
            <AltitudeMeters>735.5999755859375</AltitudeMeters>
            <DistanceMeters>NAN</DistanceMeters>
          </Trackpoint>
          <Trackpoint>
            <Time>2021-04-02T12:10:31.000Z</Time>
            <Position>
              <LatitudeDegrees>42.3256148211658000946044921875</LatitudeDegrees>
              <LongitudeDegrees>2.59662098251283168792724609375</LongitudeDegrees>
            </Position>
            <AltitudeMeters>735.5999755859375</AltitudeMeters>
            <DistanceMeters>NAN</DistanceMeters>
          </Trackpoint>
          <Trackpoint>
            <Time>2021-04-02T12:10:37.000Z</Time>
            <Position>
              <LatitudeDegrees>42.3256377875804901123046875</LatitudeDegrees>
              <LongitudeDegrees>2.59661310352385044097900390625</LongitudeDegrees>
            </Position>
            <AltitudeMeters>735.5999755859375</AltitudeMeters>
            <DistanceMeters>NAN</DistanceMeters>
          </Trackpoint>
          <Trackpoint>
            <Time>2021-04-02T12:10:40.000Z</Time>
            <Position>
              <LatitudeDegrees>42.3256377875804901123046875</LatitudeDegrees>
              <LongitudeDegrees>2.59661310352385044097900390625</LongitudeDegrees>
            </Position>
            <AltitudeMeters>735.5999755859375</AltitudeMeters>
            <DistanceMeters>NAN</DistanceMeters>
          </Trackpoint>
          <Trackpoint>
            <Time>2021-04-02T12:10:44.000Z</Time>
            <Position>
              <LatitudeDegrees>42.32563552446663379669189453125</LatitudeDegrees>
              <LongitudeDegrees>2.59661310352385044097900390625</LongitudeDegrees>
            </Position>
            <AltitudeMeters>735.5999755859375</AltitudeMeters>
            <DistanceMeters>NAN</DistanceMeters>
          </Trackpoint>
          <Trackpoint>
            <Time>2021-04-02T12:10:53.000Z</Time>
            <Position>
              <LatitudeDegrees>42.32562865130603313446044921875</LatitudeDegrees>
              <LongitudeDegrees>2.59661662392318248748779296875</LongitudeDegrees>
            </Position>
            <AltitudeMeters>735.5999755859375</AltitudeMeters>
            <DistanceMeters>NAN</DistanceMeters>
          </Trackpoint>
          <Trackpoint>
            <Time>2021-04-02T12:10:55.000Z</Time>
            <Position>
              <LatitudeDegrees>42.325628735125064849853515625</LatitudeDegrees>
              <LongitudeDegrees>2.59661662392318248748779296875</LongitudeDegrees>
            </Position>
            <AltitudeMeters>735.5999755859375</AltitudeMeters>
            <DistanceMeters>NAN</DistanceMeters>
          </Trackpoint>
          <Trackpoint>
            <Time>2021-04-02T12:10:58.000Z</Time>
            <Position>
              <LatitudeDegrees>42.3256466723978519439697265625</LatitudeDegrees>
              <LongitudeDegrees>2.5966071523725986480712890625</LongitudeDegrees>
            </Position>
            <AltitudeMeters>735.5999755859375</AltitudeMeters>
            <DistanceMeters>NAN</DistanceMeters>
          </Trackpoint>
          <Trackpoint>
            <Time>2021-04-02T12:11:04.000Z</Time>
            <Position>
              <LatitudeDegrees>42.32567894272506237030029296875</LatitudeDegrees>
              <LongitudeDegrees>2.59657203219830989837646484375</LongitudeDegrees>
            </Position>
            <AltitudeMeters>735.5999755859375</AltitudeMeters>
            <DistanceMeters>NAN</DistanceMeters>
          </Trackpoint>
          <Trackpoint>
            <Time>2021-04-02T12:11:07.000Z</Time>
            <Position>
              <LatitudeDegrees>42.3256731592118740081787109375</LatitudeDegrees>
              <LongitudeDegrees>2.59660773910582065582275390625</LongitudeDegrees>
            </Position>
            <AltitudeMeters>735.5999755859375</AltitudeMeters>
            <DistanceMeters>NAN</DistanceMeters>
          </Trackpoint>
          <Trackpoint>
            <Time>2021-04-02T12:11:09.000Z</Time>
            <Position>
              <LatitudeDegrees>42.32566754333674907684326171875</LatitudeDegrees>
              <LongitudeDegrees>2.596628107130527496337890625</LongitudeDegrees>
            </Position>
            <AltitudeMeters>735.5999755859375</AltitudeMeters>
            <DistanceMeters>NAN</DistanceMeters>
          </Trackpoint>
          <Trackpoint>
            <Time>2021-04-02T12:11:13.000Z</Time>
            <Position>
              <LatitudeDegrees>42.32568196021020412445068359375</LatitudeDegrees>
              <LongitudeDegrees>2.59664210490882396697998046875</LongitudeDegrees>
            </Position>
            <AltitudeMeters>735.5999755859375</AltitudeMeters>
            <DistanceMeters>NAN</DistanceMeters>
          </Trackpoint>
          <Trackpoint>
            <Time>2021-04-02T12:11:19.000Z</Time>
            <Position>
              <LatitudeDegrees>42.32568967156112194061279296875</LatitudeDegrees>
              <LongitudeDegrees>2.59665266610682010650634765625</LongitudeDegrees>
            </Position>
            <AltitudeMeters>735.5999755859375</AltitudeMeters>
            <DistanceMeters>NAN</DistanceMeters>
          </Trackpoint>
          <Trackpoint>
            <Time>2021-04-02T12:11:25.000Z</Time>
            <Position>
              <LatitudeDegrees>42.32566720806062221527099609375</LatitudeDegrees>
              <LongitudeDegrees>2.596644200384616851806640625</LongitudeDegrees>
            </Position>
            <AltitudeMeters>735.5999755859375</AltitudeMeters>
            <DistanceMeters>NAN</DistanceMeters>
          </Trackpoint>
          <Trackpoint>
            <Time>2021-04-02T12:11:27.000Z</Time>
            <Position>
              <LatitudeDegrees>42.32566720806062221527099609375</LatitudeDegrees>
              <LongitudeDegrees>2.596644200384616851806640625</LongitudeDegrees>
            </Position>
            <AltitudeMeters>735.5999755859375</AltitudeMeters>
            <DistanceMeters>NAN</DistanceMeters>
          </Trackpoint>
          <Trackpoint>
            <Time>2021-04-02T12:11:41.000Z</Time>
            <Position>
              <LatitudeDegrees>42.32564876787364482879638671875</LatitudeDegrees>
              <LongitudeDegrees>2.5966467149555683135986328125</LongitudeDegrees>
            </Position>
            <AltitudeMeters>735.5999755859375</AltitudeMeters>
            <DistanceMeters>NAN</DistanceMeters>
          </Trackpoint>
          <Trackpoint>
            <Time>2021-04-02T12:11:47.000Z</Time>
            <Position>
              <LatitudeDegrees>42.32567106373608112335205078125</LatitudeDegrees>
              <LongitudeDegrees>2.5966452062129974365234375</LongitudeDegrees>
            </Position>
            <AltitudeMeters>735.5999755859375</AltitudeMeters>
            <DistanceMeters>NAN</DistanceMeters>
          </Trackpoint>
          <Trackpoint>
            <Time>2021-04-02T12:11:52.000Z</Time>
            <Position>
              <LatitudeDegrees>42.3256815411150455474853515625</LatitudeDegrees>
              <LongitudeDegrees>2.59663917124271392822265625</LongitudeDegrees>
            </Position>
            <AltitudeMeters>735.5999755859375</AltitudeMeters>
            <DistanceMeters>NAN</DistanceMeters>
          </Trackpoint>
          <Trackpoint>
            <Time>2021-04-02T12:11:58.000Z</Time>
            <Position>
              <LatitudeDegrees>42.32571867294609546661376953125</LatitudeDegrees>
              <LongitudeDegrees>2.59661830030381679534912109375</LongitudeDegrees>
            </Position>
            <AltitudeMeters>735.5999755859375</AltitudeMeters>
            <DistanceMeters>NAN</DistanceMeters>
          </Trackpoint>
          <Trackpoint>
            <Time>2021-04-02T12:12:04.000Z</Time>
            <Position>
              <LatitudeDegrees>42.32571867294609546661376953125</LatitudeDegrees>
              <LongitudeDegrees>2.59661830030381679534912109375</LongitudeDegrees>
            </Position>
            <AltitudeMeters>735.5999755859375</AltitudeMeters>
            <DistanceMeters>NAN</DistanceMeters>
          </Trackpoint>
          <Trackpoint>
            <Time>2021-04-02T12:12:14.000Z</Time>
            <Position>
              <LatitudeDegrees>42.3256872408092021942138671875</LatitudeDegrees>
              <LongitudeDegrees>2.59664813987910747528076171875</LongitudeDegrees>
            </Position>
            <AltitudeMeters>735.5999755859375</AltitudeMeters>
            <DistanceMeters>NAN</DistanceMeters>
          </Trackpoint>
          <Trackpoint>
            <Time>2021-04-02T12:12:17.000Z</Time>
            <Position>
              <LatitudeDegrees>42.3256828822195529937744140625</LatitudeDegrees>
              <LongitudeDegrees>2.59667261503636837005615234375</LongitudeDegrees>
            </Position>
            <AltitudeMeters>735.5999755859375</AltitudeMeters>
            <DistanceMeters>NAN</DistanceMeters>
          </Trackpoint>
          <Trackpoint>
            <Time>2021-04-02T12:12:26.000Z</Time>
            <Position>
              <LatitudeDegrees>42.32567961327731609344482421875</LatitudeDegrees>
              <LongitudeDegrees>2.5966886244714260101318359375</LongitudeDegrees>
            </Position>
            <AltitudeMeters>735.5999755859375</AltitudeMeters>
            <DistanceMeters>NAN</DistanceMeters>
          </Trackpoint>
          <Trackpoint>
            <Time>2021-04-02T12:12:33.000Z</Time>
            <Position>
              <LatitudeDegrees>42.3256644420325756072998046875</LatitudeDegrees>
              <LongitudeDegrees>2.59673212654888629913330078125</LongitudeDegrees>
            </Position>
            <AltitudeMeters>735.5999755859375</AltitudeMeters>
            <DistanceMeters>NAN</DistanceMeters>
          </Trackpoint>
          <Trackpoint>
            <Time>2021-04-02T12:12:35.000Z</Time>
            <Position>
              <LatitudeDegrees>42.32562999241054058074951171875</LatitudeDegrees>
              <LongitudeDegrees>2.59675039909780025482177734375</LongitudeDegrees>
            </Position>
            <AltitudeMeters>735.5999755859375</AltitudeMeters>
            <DistanceMeters>NAN</DistanceMeters>
          </Trackpoint>
          <Trackpoint>
            <Time>2021-04-02T12:12:37.000Z</Time>
            <Position>
              <LatitudeDegrees>42.32558523304760456085205078125</LatitudeDegrees>
              <LongitudeDegrees>2.596776969730854034423828125</LongitudeDegrees>
            </Position>
            <AltitudeMeters>735.5999755859375</AltitudeMeters>
            <DistanceMeters>NAN</DistanceMeters>
          </Trackpoint>
          <Trackpoint>
            <Time>2021-04-02T12:12:38.000Z</Time>
            <Position>
              <LatitudeDegrees>42.32555958442389965057373046875</LatitudeDegrees>
              <LongitudeDegrees>2.5967871956527233123779296875</LongitudeDegrees>
            </Position>
            <AltitudeMeters>735.5999755859375</AltitudeMeters>
            <DistanceMeters>NAN</DistanceMeters>
          </Trackpoint>
          <Trackpoint>
            <Time>2021-04-02T12:12:41.000Z</Time>
            <Position>
              <LatitudeDegrees>42.325513064861297607421875</LatitudeDegrees>
              <LongitudeDegrees>2.59679364971816539764404296875</LongitudeDegrees>
            </Position>
            <AltitudeMeters>735.5999755859375</AltitudeMeters>
            <DistanceMeters>NAN</DistanceMeters>
          </Trackpoint>
          <Trackpoint>
            <Time>2021-04-02T12:12:43.000Z</Time>
            <Position>
              <LatitudeDegrees>42.3254894278943538665771484375</LatitudeDegrees>
              <LongitudeDegrees>2.596805132925510406494140625</LongitudeDegrees>
            </Position>
            <AltitudeMeters>735.5999755859375</AltitudeMeters>
            <DistanceMeters>NAN</DistanceMeters>
          </Trackpoint>
          <Trackpoint>
            <Time>2021-04-02T12:12:48.000Z</Time>
            <Position>
              <LatitudeDegrees>42.32545799575746059417724609375</LatitudeDegrees>
              <LongitudeDegrees>2.59680320508778095245361328125</LongitudeDegrees>
            </Position>
            <AltitudeMeters>736</AltitudeMeters>
            <DistanceMeters>NAN</DistanceMeters>
          </Trackpoint>
          <Trackpoint>
            <Time>2021-04-02T12:12:49.000Z</Time>
            <Position>
              <LatitudeDegrees>42.3254478536546230316162109375</LatitudeDegrees>
              <LongitudeDegrees>2.59680069051682949066162109375</LongitudeDegrees>
            </Position>
            <AltitudeMeters>736.20001220703125</AltitudeMeters>
            <DistanceMeters>NAN</DistanceMeters>
          </Trackpoint>
          <Trackpoint>
            <Time>2021-04-02T12:12:55.000Z</Time>
            <Position>
              <LatitudeDegrees>42.325401417911052703857421875</LatitudeDegrees>
              <LongitudeDegrees>2.59679499082267284393310546875</LongitudeDegrees>
            </Position>
            <AltitudeMeters>736.4000244140625</AltitudeMeters>
            <DistanceMeters>NAN</DistanceMeters>
          </Trackpoint>
          <Trackpoint>
            <Time>2021-04-02T12:13:01.000Z</Time>
            <Position>
              <LatitudeDegrees>42.325373589992523193359375</LatitudeDegrees>
              <LongitudeDegrees>2.5967724435031414031982421875</LongitudeDegrees>
            </Position>
            <AltitudeMeters>737</AltitudeMeters>
            <DistanceMeters>NAN</DistanceMeters>
          </Trackpoint>
          <Trackpoint>
            <Time>2021-04-02T12:13:03.000Z</Time>
            <Position>
              <LatitudeDegrees>42.3253593407571315765380859375</LatitudeDegrees>
              <LongitudeDegrees>2.5967905484139919281005859375</LongitudeDegrees>
            </Position>
            <AltitudeMeters>737.20001220703125</AltitudeMeters>
            <DistanceMeters>NAN</DistanceMeters>
          </Trackpoint>
          <Trackpoint>
            <Time>2021-04-02T12:13:07.000Z</Time>
            <Position>
              <LatitudeDegrees>42.3253522999584674835205078125</LatitudeDegrees>
              <LongitudeDegrees>2.59681644849479198455810546875</LongitudeDegrees>
            </Position>
            <AltitudeMeters>737.5999755859375</AltitudeMeters>
            <DistanceMeters>NAN</DistanceMeters>
          </Trackpoint>
          <Trackpoint>
            <Time>2021-04-02T12:13:13.000Z</Time>
            <Position>
              <LatitudeDegrees>42.32531349174678325653076171875</LatitudeDegrees>
              <LongitudeDegrees>2.59683321230113506317138671875</LongitudeDegrees>
            </Position>
            <AltitudeMeters>738.20001220703125</AltitudeMeters>
            <DistanceMeters>NAN</DistanceMeters>
          </Trackpoint>
          <Trackpoint>
            <Time>2021-04-02T12:13:16.000Z</Time>
            <Position>
              <LatitudeDegrees>42.32529873959720134735107421875</LatitudeDegrees>
              <LongitudeDegrees>2.5968230701982975006103515625</LongitudeDegrees>
            </Position>
            <AltitudeMeters>738.5999755859375</AltitudeMeters>
            <DistanceMeters>NAN</DistanceMeters>
          </Trackpoint>
          <Trackpoint>
            <Time>2021-04-02T12:13:19.000Z</Time>
            <Position>
              <LatitudeDegrees>42.32527661137282848358154296875</LatitudeDegrees>
              <LongitudeDegrees>2.59683321230113506317138671875</LongitudeDegrees>
            </Position>
            <AltitudeMeters>739.20001220703125</AltitudeMeters>
            <DistanceMeters>NAN</DistanceMeters>
          </Trackpoint>
          <Trackpoint>
            <Time>2021-04-02T12:13:20.000Z</Time>
            <Position>
              <LatitudeDegrees>42.325269989669322967529296875</LatitudeDegrees>
              <LongitudeDegrees>2.59684260003268718719482421875</LongitudeDegrees>
            </Position>
            <AltitudeMeters>739.20001220703125</AltitudeMeters>
            <DistanceMeters>NAN</DistanceMeters>
          </Trackpoint>
          <Trackpoint>
            <Time>2021-04-02T12:13:27.000Z</Time>
            <Position>
              <LatitudeDegrees>42.325236797332763671875</LatitudeDegrees>
              <LongitudeDegrees>2.596844024956226348876953125</LongitudeDegrees>
            </Position>
            <AltitudeMeters>740.20001220703125</AltitudeMeters>
            <DistanceMeters>NAN</DistanceMeters>
          </Trackpoint>
          <Trackpoint>
            <Time>2021-04-02T12:13:28.000Z</Time>
            <Position>
              <LatitudeDegrees>42.32523503713309764862060546875</LatitudeDegrees>
              <LongitudeDegrees>2.59684829972684383392333984375</LongitudeDegrees>
            </Position>
            <AltitudeMeters>740.4000244140625</AltitudeMeters>
            <DistanceMeters>NAN</DistanceMeters>
          </Trackpoint>
          <Trackpoint>
            <Time>2021-04-02T12:13:31.000Z</Time>
            <Position>
              <LatitudeDegrees>42.32522481121122837066650390625</LatitudeDegrees>
              <LongitudeDegrees>2.59683840908110141754150390625</LongitudeDegrees>
            </Position>
            <AltitudeMeters>740.79998779296875</AltitudeMeters>
            <DistanceMeters>NAN</DistanceMeters>
          </Trackpoint>
          <Trackpoint>
            <Time>2021-04-02T12:13:34.000Z</Time>
            <Position>
              <LatitudeDegrees>42.3252027668058872222900390625</LatitudeDegrees>
              <LongitudeDegrees>2.59685911238193511962890625</LongitudeDegrees>
            </Position>
            <AltitudeMeters>741.20001220703125</AltitudeMeters>
            <DistanceMeters>NAN</DistanceMeters>
          </Trackpoint>
          <Trackpoint>
            <Time>2021-04-02T12:13:35.000Z</Time>
            <Position>
              <LatitudeDegrees>42.32519497163593769073486328125</LatitudeDegrees>
              <LongitudeDegrees>2.59687076322734355926513671875</LongitudeDegrees>
            </Position>
            <AltitudeMeters>741.20001220703125</AltitudeMeters>
            <DistanceMeters>NAN</DistanceMeters>
          </Trackpoint>
          <Trackpoint>
            <Time>2021-04-02T12:13:38.000Z</Time>
            <Position>
              <LatitudeDegrees>42.325176112353801727294921875</LatitudeDegrees>
              <LongitudeDegrees>2.59688752703368663787841796875</LongitudeDegrees>
            </Position>
            <AltitudeMeters>741.5999755859375</AltitudeMeters>
            <DistanceMeters>NAN</DistanceMeters>
          </Trackpoint>
          <Trackpoint>
            <Time>2021-04-02T12:13:41.000Z</Time>
            <Position>
              <LatitudeDegrees>42.325164712965488433837890625</LatitudeDegrees>
              <LongitudeDegrees>2.59690579958260059356689453125</LongitudeDegrees>
            </Position>
            <AltitudeMeters>741.79998779296875</AltitudeMeters>
            <DistanceMeters>NAN</DistanceMeters>
          </Trackpoint>
          <Trackpoint>
            <Time>2021-04-02T12:13:44.000Z</Time>
            <Position>
              <LatitudeDegrees>42.32515658251941204071044921875</LatitudeDegrees>
              <LongitudeDegrees>2.59691619314253330230712890625</LongitudeDegrees>
            </Position>
            <AltitudeMeters>742</AltitudeMeters>
            <DistanceMeters>NAN</DistanceMeters>
          </Trackpoint>
          <Trackpoint>
            <Time>2021-04-02T12:13:48.000Z</Time>
            <Position>
              <LatitudeDegrees>42.32513344846665859222412109375</LatitudeDegrees>
              <LongitudeDegrees>2.59691753424704074859619140625</LongitudeDegrees>
            </Position>
            <AltitudeMeters>742.4000244140625</AltitudeMeters>
            <DistanceMeters>NAN</DistanceMeters>
          </Trackpoint>
          <Trackpoint>
            <Time>2021-04-02T12:13:51.000Z</Time>
            <Position>
              <LatitudeDegrees>42.32512087561190128326416015625</LatitudeDegrees>
              <LongitudeDegrees>2.596917115151882171630859375</LongitudeDegrees>
            </Position>
            <AltitudeMeters>742.79998779296875</AltitudeMeters>
            <DistanceMeters>NAN</DistanceMeters>
          </Trackpoint>
          <Trackpoint>
            <Time>2021-04-02T12:13:53.000Z</Time>
            <Position>
              <LatitudeDegrees>42.3251119069755077362060546875</LatitudeDegrees>
              <LongitudeDegrees>2.59692206047475337982177734375</LongitudeDegrees>
            </Position>
            <AltitudeMeters>743</AltitudeMeters>
            <DistanceMeters>NAN</DistanceMeters>
          </Trackpoint>
          <Trackpoint>
            <Time>2021-04-02T12:13:55.000Z</Time>
            <Position>
              <LatitudeDegrees>42.32510327361524105072021484375</LatitudeDegrees>
              <LongitudeDegrees>2.596923150122165679931640625</LongitudeDegrees>
            </Position>
            <AltitudeMeters>743.20001220703125</AltitudeMeters>
            <DistanceMeters>NAN</DistanceMeters>
          </Trackpoint>
          <Trackpoint>
            <Time>2021-04-02T12:13:58.000Z</Time>
            <Position>
              <LatitudeDegrees>42.32509874738752841949462890625</LatitudeDegrees>
              <LongitudeDegrees>2.59691384620964527130126953125</LongitudeDegrees>
            </Position>
            <AltitudeMeters>743.4000244140625</AltitudeMeters>
            <DistanceMeters>NAN</DistanceMeters>
          </Trackpoint>
          <Trackpoint>
            <Time>2021-04-02T12:14:00.000Z</Time>
            <Position>
              <LatitudeDegrees>42.32509003020823001861572265625</LatitudeDegrees>
              <LongitudeDegrees>2.596914432942867279052734375</LongitudeDegrees>
            </Position>
            <AltitudeMeters>743.5999755859375</AltitudeMeters>
            <DistanceMeters>NAN</DistanceMeters>
          </Trackpoint>
          <Trackpoint>
            <Time>2021-04-02T12:14:06.000Z</Time>
            <Position>
              <LatitudeDegrees>42.32506086118519306182861328125</LatitudeDegrees>
              <LongitudeDegrees>2.59693597443401813507080078125</LongitudeDegrees>
            </Position>
            <AltitudeMeters>744.4000244140625</AltitudeMeters>
            <DistanceMeters>NAN</DistanceMeters>
          </Trackpoint>
          <Trackpoint>
            <Time>2021-04-02T12:14:09.000Z</Time>
            <Position>
              <LatitudeDegrees>42.32504300773143768310546875</LatitudeDegrees>
              <LongitudeDegrees>2.596951313316822052001953125</LongitudeDegrees>
            </Position>
            <AltitudeMeters>744.5999755859375</AltitudeMeters>
            <DistanceMeters>NAN</DistanceMeters>
          </Trackpoint>
          <Trackpoint>
            <Time>2021-04-02T12:14:11.000Z</Time>
            <Position>
              <LatitudeDegrees>42.32503588311374187469482421875</LatitudeDegrees>
              <LongitudeDegrees>2.596953324973583221435546875</LongitudeDegrees>
            </Position>
            <AltitudeMeters>744.79998779296875</AltitudeMeters>
            <DistanceMeters>NAN</DistanceMeters>
          </Trackpoint>
          <Trackpoint>
            <Time>2021-04-02T12:14:16.000Z</Time>
            <Position>
              <LatitudeDegrees>42.3250133357942104339599609375</LatitudeDegrees>
              <LongitudeDegrees>2.59696464054286479949951171875</LongitudeDegrees>
            </Position>
            <AltitudeMeters>745.5999755859375</AltitudeMeters>
            <DistanceMeters>NAN</DistanceMeters>
          </Trackpoint>
          <Trackpoint>
            <Time>2021-04-02T12:14:17.000Z</Time>
            <Position>
              <LatitudeDegrees>42.3250089772045612335205078125</LatitudeDegrees>
              <LongitudeDegrees>2.59696103632450103759765625</LongitudeDegrees>
            </Position>
            <AltitudeMeters>745.5999755859375</AltitudeMeters>
            <DistanceMeters>NAN</DistanceMeters>
          </Trackpoint>
          <Trackpoint>
            <Time>2021-04-02T12:14:20.000Z</Time>
            <Position>
              <LatitudeDegrees>42.32498676516115665435791015625</LatitudeDegrees>
              <LongitudeDegrees>2.596968747675418853759765625</LongitudeDegrees>
            </Position>
            <AltitudeMeters>746</AltitudeMeters>
            <DistanceMeters>NAN</DistanceMeters>
          </Trackpoint>
          <Trackpoint>
            <Time>2021-04-02T12:14:22.000Z</Time>
            <Position>
              <LatitudeDegrees>42.3249794729053974151611328125</LatitudeDegrees>
              <LongitudeDegrees>2.59696765802800655364990234375</LongitudeDegrees>
            </Position>
            <AltitudeMeters>746.20001220703125</AltitudeMeters>
            <DistanceMeters>NAN</DistanceMeters>
          </Trackpoint>
          <Trackpoint>
            <Time>2021-04-02T12:14:24.000Z</Time>
            <Position>
              <LatitudeDegrees>42.324986346065998077392578125</LatitudeDegrees>
              <LongitudeDegrees>2.5969521515071392059326171875</LongitudeDegrees>
            </Position>
            <AltitudeMeters>746.4000244140625</AltitudeMeters>
            <DistanceMeters>NAN</DistanceMeters>
          </Trackpoint>
          <Trackpoint>
            <Time>2021-04-02T12:14:26.000Z</Time>
            <Position>
              <LatitudeDegrees>42.32498458586633205413818359375</LatitudeDegrees>
              <LongitudeDegrees>2.59694502688944339752197265625</LongitudeDegrees>
            </Position>
            <AltitudeMeters>746.5999755859375</AltitudeMeters>
            <DistanceMeters>NAN</DistanceMeters>
          </Trackpoint>
          <Trackpoint>
            <Time>2021-04-02T12:14:30.000Z</Time>
            <Position>
              <LatitudeDegrees>42.324982993304729461669921875</LatitudeDegrees>
              <LongitudeDegrees>2.5969430990517139434814453125</LongitudeDegrees>
            </Position>
            <AltitudeMeters>747</AltitudeMeters>
            <DistanceMeters>NAN</DistanceMeters>
          </Trackpoint>
          <Trackpoint>
            <Time>2021-04-02T12:14:32.000Z</Time>
            <Position>
              <LatitudeDegrees>42.324982993304729461669921875</LatitudeDegrees>
              <LongitudeDegrees>2.5969430990517139434814453125</LongitudeDegrees>
            </Position>
            <AltitudeMeters>747.5999755859375</AltitudeMeters>
            <DistanceMeters>NAN</DistanceMeters>
          </Trackpoint>
          <Trackpoint>
            <Time>2021-04-02T12:14:33.000Z</Time>
            <Position>
              <LatitudeDegrees>42.324982993304729461669921875</LatitudeDegrees>
              <LongitudeDegrees>2.5969430990517139434814453125</LongitudeDegrees>
            </Position>
            <AltitudeMeters>747.79998779296875</AltitudeMeters>
            <DistanceMeters>NAN</DistanceMeters>
          </Trackpoint>
          <Trackpoint>
            <Time>2021-04-02T12:14:35.000Z</Time>
            <Position>
              <LatitudeDegrees>42.324982993304729461669921875</LatitudeDegrees>
              <LongitudeDegrees>2.5969430990517139434814453125</LongitudeDegrees>
            </Position>
            <AltitudeMeters>748</AltitudeMeters>
            <DistanceMeters>NAN</DistanceMeters>
          </Trackpoint>
          <Trackpoint>
            <Time>2021-04-02T12:14:41.000Z</Time>
            <Position>
              <LatitudeDegrees>42.324982993304729461669921875</LatitudeDegrees>
              <LongitudeDegrees>2.5969430990517139434814453125</LongitudeDegrees>
            </Position>
            <AltitudeMeters>748.5999755859375</AltitudeMeters>
            <DistanceMeters>NAN</DistanceMeters>
          </Trackpoint>
          <Trackpoint>
            <Time>2021-04-02T12:14:42.000Z</Time>
            <Position>
              <LatitudeDegrees>42.32497972436249256134033203125</LatitudeDegrees>
              <LongitudeDegrees>2.5969430990517139434814453125</LongitudeDegrees>
            </Position>
            <AltitudeMeters>748.79998779296875</AltitudeMeters>
            <DistanceMeters>NAN</DistanceMeters>
          </Trackpoint>
          <Trackpoint>
            <Time>2021-04-02T12:14:45.000Z</Time>
            <Position>
              <LatitudeDegrees>42.32497167773544788360595703125</LatitudeDegrees>
              <LongitudeDegrees>2.5969430990517139434814453125</LongitudeDegrees>
            </Position>
            <AltitudeMeters>749.20001220703125</AltitudeMeters>
            <DistanceMeters>NAN</DistanceMeters>
          </Trackpoint>
          <Trackpoint>
            <Time>2021-04-02T12:14:48.000Z</Time>
            <Position>
              <LatitudeDegrees>42.324969582259654998779296875</LatitudeDegrees>
              <LongitudeDegrees>2.5969377346336841583251953125</LongitudeDegrees>
            </Position>
            <AltitudeMeters>749.5999755859375</AltitudeMeters>
            <DistanceMeters>NAN</DistanceMeters>
          </Trackpoint>
          <Trackpoint>
            <Time>2021-04-02T12:14:50.000Z</Time>
            <Position>
              <LatitudeDegrees>42.3249610327184200286865234375</LatitudeDegrees>
              <LongitudeDegrees>2.5969296880066394805908203125</LongitudeDegrees>
            </Position>
            <AltitudeMeters>749.79998779296875</AltitudeMeters>
            <DistanceMeters>NAN</DistanceMeters>
          </Trackpoint>
          <Trackpoint>
            <Time>2021-04-02T12:14:54.000Z</Time>
            <Position>
              <LatitudeDegrees>42.32495105825364589691162109375</LatitudeDegrees>
              <LongitudeDegrees>2.5969095714390277862548828125</LongitudeDegrees>
            </Position>
            <AltitudeMeters>750.20001220703125</AltitudeMeters>
            <DistanceMeters>NAN</DistanceMeters>
          </Trackpoint>
          <Trackpoint>
            <Time>2021-04-02T12:15:04.000Z</Time>
            <Position>
              <LatitudeDegrees>42.32491560280323028564453125</LatitudeDegrees>
              <LongitudeDegrees>2.59688585065305233001708984375</LongitudeDegrees>
            </Position>
            <AltitudeMeters>750.79998779296875</AltitudeMeters>
            <DistanceMeters>NAN</DistanceMeters>
          </Trackpoint>
          <Trackpoint>
            <Time>2021-04-02T12:15:11.000Z</Time>
            <Position>
              <LatitudeDegrees>42.3248410038650035858154296875</LatitudeDegrees>
              <LongitudeDegrees>2.596828937530517578125</LongitudeDegrees>
            </Position>
            <AltitudeMeters>751.4000244140625</AltitudeMeters>
            <DistanceMeters>NAN</DistanceMeters>
          </Trackpoint>
          <Trackpoint>
            <Time>2021-04-02T12:15:16.000Z</Time>
            <Position>
              <LatitudeDegrees>42.32477076351642608642578125</LatitudeDegrees>
              <LongitudeDegrees>2.596795074641704559326171875</LongitudeDegrees>
            </Position>
            <AltitudeMeters>751.79998779296875</AltitudeMeters>
            <DistanceMeters>NAN</DistanceMeters>
          </Trackpoint>
          <Trackpoint>
            <Time>2021-04-02T12:15:18.000Z</Time>
            <Position>
              <LatitudeDegrees>42.32476405799388885498046875</LatitudeDegrees>
              <LongitudeDegrees>2.596783339977264404296875</LongitudeDegrees>
            </Position>
            <AltitudeMeters>752</AltitudeMeters>
            <DistanceMeters>NAN</DistanceMeters>
          </Trackpoint>
          <Trackpoint>
            <Time>2021-04-02T12:15:19.000Z</Time>
            <Position>
              <LatitudeDegrees>42.32476699165999889373779296875</LatitudeDegrees>
              <LongitudeDegrees>2.59678543545305728912353515625</LongitudeDegrees>
            </Position>
            <AltitudeMeters>752.20001220703125</AltitudeMeters>
            <DistanceMeters>NAN</DistanceMeters>
          </Trackpoint>
          <Trackpoint>
            <Time>2021-04-02T12:15:21.000Z</Time>
            <Position>
              <LatitudeDegrees>42.3247555084526538848876953125</LatitudeDegrees>
              <LongitudeDegrees>2.59677822701632976531982421875</LongitudeDegrees>
            </Position>
            <AltitudeMeters>752.20001220703125</AltitudeMeters>
            <DistanceMeters>NAN</DistanceMeters>
          </Trackpoint>
          <Trackpoint>
            <Time>2021-04-02T12:15:27.000Z</Time>
            <Position>
              <LatitudeDegrees>42.32474100776016712188720703125</LatitudeDegrees>
              <LongitudeDegrees>2.5967369042336940765380859375</LongitudeDegrees>
            </Position>
            <AltitudeMeters>752.79998779296875</AltitudeMeters>
            <DistanceMeters>NAN</DistanceMeters>
          </Trackpoint>
          <Trackpoint>
            <Time>2021-04-02T12:15:31.000Z</Time>
            <Position>
              <LatitudeDegrees>42.32472307048738002777099609375</LatitudeDegrees>
              <LongitudeDegrees>2.59672625921666622161865234375</LongitudeDegrees>
            </Position>
            <AltitudeMeters>753</AltitudeMeters>
            <DistanceMeters>NAN</DistanceMeters>
          </Trackpoint>
          <Trackpoint>
            <Time>2021-04-02T12:15:35.000Z</Time>
            <Position>
              <LatitudeDegrees>42.3247035406529903411865234375</LatitudeDegrees>
              <LongitudeDegrees>2.5967109203338623046875</LongitudeDegrees>
            </Position>
            <AltitudeMeters>753.4000244140625</AltitudeMeters>
            <DistanceMeters>NAN</DistanceMeters>
          </Trackpoint>
          <Trackpoint>
            <Time>2021-04-02T12:15:36.000Z</Time>
            <Position>
              <LatitudeDegrees>42.32469440437853336334228515625</LatitudeDegrees>
              <LongitudeDegrees>2.596709243953227996826171875</LongitudeDegrees>
            </Position>
            <AltitudeMeters>753.5999755859375</AltitudeMeters>
            <DistanceMeters>NAN</DistanceMeters>
          </Trackpoint>
          <Trackpoint>
            <Time>2021-04-02T12:15:39.000Z</Time>
            <Position>
              <LatitudeDegrees>42.324679233133792877197265625</LatitudeDegrees>
              <LongitudeDegrees>2.59670463390648365020751953125</LongitudeDegrees>
            </Position>
            <AltitudeMeters>754</AltitudeMeters>
            <DistanceMeters>NAN</DistanceMeters>
          </Trackpoint>
          <Trackpoint>
            <Time>2021-04-02T12:15:44.000Z</Time>
            <Position>
              <LatitudeDegrees>42.32464143075048923492431640625</LatitudeDegrees>
              <LongitudeDegrees>2.5967231579124927520751953125</LongitudeDegrees>
            </Position>
            <AltitudeMeters>754.4000244140625</AltitudeMeters>
            <DistanceMeters>NAN</DistanceMeters>
          </Trackpoint>
          <Trackpoint>
            <Time>2021-04-02T12:15:49.000Z</Time>
            <Position>
              <LatitudeDegrees>42.32464109547436237335205078125</LatitudeDegrees>
              <LongitudeDegrees>2.59669172577559947967529296875</LongitudeDegrees>
            </Position>
            <AltitudeMeters>754.79998779296875</AltitudeMeters>
            <DistanceMeters>NAN</DistanceMeters>
          </Trackpoint>
          <Trackpoint>
            <Time>2021-04-02T12:15:52.000Z</Time>
            <Position>
              <LatitudeDegrees>42.3246180452406406402587890625</LatitudeDegrees>
              <LongitudeDegrees>2.59668887592852115631103515625</LongitudeDegrees>
            </Position>
            <AltitudeMeters>755</AltitudeMeters>
            <DistanceMeters>NAN</DistanceMeters>
          </Trackpoint>
          <Trackpoint>
            <Time>2021-04-02T12:15:53.000Z</Time>
            <Position>
              <LatitudeDegrees>42.3246120102703571319580078125</LatitudeDegrees>
              <LongitudeDegrees>2.59667948819696903228759765625</LongitudeDegrees>
            </Position>
            <AltitudeMeters>755.20001220703125</AltitudeMeters>
            <DistanceMeters>NAN</DistanceMeters>
          </Trackpoint>
          <Trackpoint>
            <Time>2021-04-02T12:15:54.000Z</Time>
            <Position>
              <LatitudeDegrees>42.32460773549973964691162109375</LatitudeDegrees>
              <LongitudeDegrees>2.5966708548367023468017578125</LongitudeDegrees>
            </Position>
            <AltitudeMeters>755.20001220703125</AltitudeMeters>
            <DistanceMeters>NAN</DistanceMeters>
          </Trackpoint>
          <Trackpoint>
            <Time>2021-04-02T12:15:56.000Z</Time>
            <Position>
              <LatitudeDegrees>42.324598766863346099853515625</LatitudeDegrees>
              <LongitudeDegrees>2.59666071273386478424072265625</LongitudeDegrees>
            </Position>
            <AltitudeMeters>755.20001220703125</AltitudeMeters>
            <DistanceMeters>NAN</DistanceMeters>
          </Trackpoint>
          <Trackpoint>
            <Time>2021-04-02T12:15:59.000Z</Time>
            <Position>
              <LatitudeDegrees>42.3245848529040813446044921875</LatitudeDegrees>
              <LongitudeDegrees>2.59666909463703632354736328125</LongitudeDegrees>
            </Position>
            <AltitudeMeters>755.4000244140625</AltitudeMeters>
            <DistanceMeters>NAN</DistanceMeters>
          </Trackpoint>
          <Trackpoint>
            <Time>2021-04-02T12:16:03.000Z</Time>
            <Position>
              <LatitudeDegrees>42.32455216348171234130859375</LatitudeDegrees>
              <LongitudeDegrees>2.5966755487024784088134765625</LongitudeDegrees>
            </Position>
            <AltitudeMeters>756.20001220703125</AltitudeMeters>
            <DistanceMeters>NAN</DistanceMeters>
          </Trackpoint>
          <Trackpoint>
            <Time>2021-04-02T12:16:06.000Z</Time>
            <Position>
              <LatitudeDegrees>42.32453783042728900909423828125</LatitudeDegrees>
              <LongitudeDegrees>2.59666909463703632354736328125</LongitudeDegrees>
            </Position>
            <AltitudeMeters>756.4000244140625</AltitudeMeters>
            <DistanceMeters>NAN</DistanceMeters>
          </Trackpoint>
          <Trackpoint>
            <Time>2021-04-02T12:16:11.000Z</Time>
            <Position>
              <LatitudeDegrees>42.32451117597520351409912109375</LatitudeDegrees>
              <LongitudeDegrees>2.596671022474765777587890625</LongitudeDegrees>
            </Position>
            <AltitudeMeters>756.5999755859375</AltitudeMeters>
            <DistanceMeters>NAN</DistanceMeters>
          </Trackpoint>
          <Trackpoint>
            <Time>2021-04-02T12:16:12.000Z</Time>
            <Position>
              <LatitudeDegrees>42.32450631447136402130126953125</LatitudeDegrees>
              <LongitudeDegrees>2.59666926227509975433349609375</LongitudeDegrees>
            </Position>
            <AltitudeMeters>756.79998779296875</AltitudeMeters>
            <DistanceMeters>NAN</DistanceMeters>
          </Trackpoint>
          <Trackpoint>
            <Time>2021-04-02T12:16:16.000Z</Time>
            <Position>
              <LatitudeDegrees>42.32448904775083065032958984375</LatitudeDegrees>
              <LongitudeDegrees>2.59666926227509975433349609375</LongitudeDegrees>
            </Position>
            <AltitudeMeters>757.20001220703125</AltitudeMeters>
            <DistanceMeters>NAN</DistanceMeters>
          </Trackpoint>
          <Trackpoint>
            <Time>2021-04-02T12:16:19.000Z</Time>
            <Position>
              <LatitudeDegrees>42.32448586262762546539306640625</LatitudeDegrees>
              <LongitudeDegrees>2.59666607715189456939697265625</LongitudeDegrees>
            </Position>
            <AltitudeMeters>757.5999755859375</AltitudeMeters>
            <DistanceMeters>NAN</DistanceMeters>
          </Trackpoint>
          <Trackpoint>
            <Time>2021-04-02T12:16:20.000Z</Time>
            <Position>
              <LatitudeDegrees>42.32448049820959568023681640625</LatitudeDegrees>
              <LongitudeDegrees>2.59666557423770427703857421875</LongitudeDegrees>
            </Position>
            <AltitudeMeters>757.79998779296875</AltitudeMeters>
            <DistanceMeters>NAN</DistanceMeters>
          </Trackpoint>
          <Trackpoint>
            <Time>2021-04-02T12:16:22.000Z</Time>
            <Position>
              <LatitudeDegrees>42.32447597198188304901123046875</LatitudeDegrees>
              <LongitudeDegrees>2.5966664962470531463623046875</LongitudeDegrees>
            </Position>
            <AltitudeMeters>758.20001220703125</AltitudeMeters>
            <DistanceMeters>NAN</DistanceMeters>
          </Trackpoint>
          <Trackpoint>
            <Time>2021-04-02T12:16:23.000Z</Time>
            <Position>
              <LatitudeDegrees>42.32447111047804355621337890625</LatitudeDegrees>
              <LongitudeDegrees>2.59666892699897289276123046875</LongitudeDegrees>
            </Position>
            <AltitudeMeters>758.4000244140625</AltitudeMeters>
            <DistanceMeters>NAN</DistanceMeters>
          </Trackpoint>
          <Trackpoint>
            <Time>2021-04-02T12:16:27.000Z</Time>
            <Position>
              <LatitudeDegrees>42.32445417903363704681396484375</LatitudeDegrees>
              <LongitudeDegrees>2.596675045788288116455078125</LongitudeDegrees>
            </Position>
            <AltitudeMeters>759.4000244140625</AltitudeMeters>
            <DistanceMeters>NAN</DistanceMeters>
          </Trackpoint>
          <Trackpoint>
            <Time>2021-04-02T12:16:28.000Z</Time>
            <Position>
              <LatitudeDegrees>42.32444697059690952301025390625</LatitudeDegrees>
              <LongitudeDegrees>2.59667680598795413970947265625</LongitudeDegrees>
            </Position>
            <AltitudeMeters>759.4000244140625</AltitudeMeters>
            <DistanceMeters>NAN</DistanceMeters>
          </Trackpoint>
          <Trackpoint>
            <Time>2021-04-02T12:16:31.000Z</Time>
            <Position>
              <LatitudeDegrees>42.32442819513380527496337890625</LatitudeDegrees>
              <LongitudeDegrees>2.59668066166341304779052734375</LongitudeDegrees>
            </Position>
            <AltitudeMeters>759.79998779296875</AltitudeMeters>
            <DistanceMeters>NAN</DistanceMeters>
          </Trackpoint>
          <Trackpoint>
            <Time>2021-04-02T12:16:33.000Z</Time>
            <Position>
              <LatitudeDegrees>42.32441696338355541229248046875</LatitudeDegrees>
              <LongitudeDegrees>2.596683092415332794189453125</LongitudeDegrees>
            </Position>
            <AltitudeMeters>760</AltitudeMeters>
            <DistanceMeters>NAN</DistanceMeters>
          </Trackpoint>
          <Trackpoint>
            <Time>2021-04-02T12:16:34.000Z</Time>
            <Position>
              <LatitudeDegrees>42.324409000575542449951171875</LatitudeDegrees>
              <LongitudeDegrees>2.5966894626617431640625</LongitudeDegrees>
            </Position>
            <AltitudeMeters>760.20001220703125</AltitudeMeters>
            <DistanceMeters>NAN</DistanceMeters>
          </Trackpoint>
          <Trackpoint>
            <Time>2021-04-02T12:16:35.000Z</Time>
            <Position>
              <LatitudeDegrees>42.32440598309040069580078125</LatitudeDegrees>
              <LongitudeDegrees>2.59668870829045772552490234375</LongitudeDegrees>
            </Position>
            <AltitudeMeters>760.4000244140625</AltitudeMeters>
            <DistanceMeters>NAN</DistanceMeters>
          </Trackpoint>
          <Trackpoint>
            <Time>2021-04-02T12:16:41.000Z</Time>
            <Position>
              <LatitudeDegrees>42.3243796639144420623779296875</LatitudeDegrees>
              <LongitudeDegrees>2.5966664962470531463623046875</LongitudeDegrees>
            </Position>
            <AltitudeMeters>761.20001220703125</AltitudeMeters>
            <DistanceMeters>NAN</DistanceMeters>
          </Trackpoint>
          <Trackpoint>
            <Time>2021-04-02T12:16:44.000Z</Time>
            <Position>
              <LatitudeDegrees>42.324364744126796722412109375</LatitudeDegrees>
              <LongitudeDegrees>2.59667345322668552398681640625</LongitudeDegrees>
            </Position>
            <AltitudeMeters>761.5999755859375</AltitudeMeters>
            <DistanceMeters>NAN</DistanceMeters>
          </Trackpoint>
          <Trackpoint>
            <Time>2021-04-02T12:16:50.000Z</Time>
            <Position>
              <LatitudeDegrees>42.324330545961856842041015625</LatitudeDegrees>
              <LongitudeDegrees>2.59666590951383113861083984375</LongitudeDegrees>
            </Position>
            <AltitudeMeters>762.20001220703125</AltitudeMeters>
            <DistanceMeters>NAN</DistanceMeters>
          </Trackpoint>
          <Trackpoint>
            <Time>2021-04-02T12:16:52.000Z</Time>
            <Position>
              <LatitudeDegrees>42.324319817125797271728515625</LatitudeDegrees>
              <LongitudeDegrees>2.5966681726276874542236328125</LongitudeDegrees>
            </Position>
            <AltitudeMeters>762.5999755859375</AltitudeMeters>
            <DistanceMeters>NAN</DistanceMeters>
          </Trackpoint>
          <Trackpoint>
            <Time>2021-04-02T12:16:59.000Z</Time>
            <Position>
              <LatitudeDegrees>42.3242908157408237457275390625</LatitudeDegrees>
              <LongitudeDegrees>2.596660293638706207275390625</LongitudeDegrees>
            </Position>
            <AltitudeMeters>763.5999755859375</AltitudeMeters>
            <DistanceMeters>NAN</DistanceMeters>
          </Trackpoint>
          <Trackpoint>
            <Time>2021-04-02T12:17:00.000Z</Time>
            <Position>
              <LatitudeDegrees>42.32428729534149169921875</LatitudeDegrees>
              <LongitudeDegrees>2.59665719233453273773193359375</LongitudeDegrees>
            </Position>
            <AltitudeMeters>763.5999755859375</AltitudeMeters>
            <DistanceMeters>NAN</DistanceMeters>
          </Trackpoint>
          <Trackpoint>
            <Time>2021-04-02T12:17:06.000Z</Time>
            <Position>
              <LatitudeDegrees>42.32425636611878871917724609375</LatitudeDegrees>
              <LongitudeDegrees>2.596653588116168975830078125</LongitudeDegrees>
            </Position>
            <AltitudeMeters>764.20001220703125</AltitudeMeters>
            <DistanceMeters>NAN</DistanceMeters>
          </Trackpoint>
          <Trackpoint>
            <Time>2021-04-02T12:17:10.000Z</Time>
            <Position>
              <LatitudeDegrees>42.3242267780005931854248046875</LatitudeDegrees>
              <LongitudeDegrees>2.59664596058428287506103515625</LongitudeDegrees>
            </Position>
            <AltitudeMeters>764.5999755859375</AltitudeMeters>
            <DistanceMeters>NAN</DistanceMeters>
          </Trackpoint>
          <Trackpoint>
            <Time>2021-04-02T12:17:12.000Z</Time>
            <Position>
              <LatitudeDegrees>42.324209846556186676025390625</LatitudeDegrees>
              <LongitudeDegrees>2.59664445184171199798583984375</LongitudeDegrees>
            </Position>
            <AltitudeMeters>764.79998779296875</AltitudeMeters>
            <DistanceMeters>NAN</DistanceMeters>
          </Trackpoint>
          <Trackpoint>
            <Time>2021-04-02T12:17:14.000Z</Time>
            <Position>
              <LatitudeDegrees>42.32419651933014392852783203125</LatitudeDegrees>
              <LongitudeDegrees>2.59665191173553466796875</LongitudeDegrees>
            </Position>
            <AltitudeMeters>765</AltitudeMeters>
            <DistanceMeters>NAN</DistanceMeters>
          </Trackpoint>
          <Trackpoint>
            <Time>2021-04-02T12:17:17.000Z</Time>
            <Position>
              <LatitudeDegrees>42.32418428175151348114013671875</LatitudeDegrees>
              <LongitudeDegrees>2.5966393388807773590087890625</LongitudeDegrees>
            </Position>
            <AltitudeMeters>765.20001220703125</AltitudeMeters>
            <DistanceMeters>NAN</DistanceMeters>
          </Trackpoint>
          <Trackpoint>
            <Time>2021-04-02T12:17:23.000Z</Time>
            <Position>
              <LatitudeDegrees>42.32416458427906036376953125</LatitudeDegrees>
              <LongitudeDegrees>2.59662165306508541107177734375</LongitudeDegrees>
            </Position>
            <AltitudeMeters>765.5999755859375</AltitudeMeters>
            <DistanceMeters>NAN</DistanceMeters>
          </Trackpoint>
          <Trackpoint>
            <Time>2021-04-02T12:17:29.000Z</Time>
            <Position>
              <LatitudeDegrees>42.324145473539829254150390625</LatitudeDegrees>
              <LongitudeDegrees>2.5965957529842853546142578125</LongitudeDegrees>
            </Position>
            <AltitudeMeters>766.5999755859375</AltitudeMeters>
            <DistanceMeters>NAN</DistanceMeters>
          </Trackpoint>
          <Trackpoint>
            <Time>2021-04-02T12:17:30.000Z</Time>
            <Position>
              <LatitudeDegrees>42.3241424560546875</LatitudeDegrees>
              <LongitudeDegrees>2.5965840183198451995849609375</LongitudeDegrees>
            </Position>
            <AltitudeMeters>766.79998779296875</AltitudeMeters>
            <DistanceMeters>NAN</DistanceMeters>
          </Trackpoint>
          <Trackpoint>
            <Time>2021-04-02T12:17:35.000Z</Time>
            <Position>
              <LatitudeDegrees>42.3241218365728855133056640625</LatitudeDegrees>
              <LongitudeDegrees>2.5965548492968082427978515625</LongitudeDegrees>
            </Position>
            <AltitudeMeters>767.20001220703125</AltitudeMeters>
            <DistanceMeters>NAN</DistanceMeters>
          </Trackpoint>
          <Trackpoint>
            <Time>2021-04-02T12:17:38.000Z</Time>
            <Position>
              <LatitudeDegrees>42.32409543357789516448974609375</LatitudeDegrees>
              <LongitudeDegrees>2.59654990397393703460693359375</LongitudeDegrees>
            </Position>
            <AltitudeMeters>767.5999755859375</AltitudeMeters>
            <DistanceMeters>NAN</DistanceMeters>
          </Trackpoint>
          <Trackpoint>
            <Time>2021-04-02T12:17:39.000Z</Time>
            <Position>
              <LatitudeDegrees>42.3240899853408336639404296875</LatitudeDegrees>
              <LongitudeDegrees>2.5965504907071590423583984375</LongitudeDegrees>
            </Position>
            <AltitudeMeters>767.79998779296875</AltitudeMeters>
            <DistanceMeters>NAN</DistanceMeters>
          </Trackpoint>
          <Trackpoint>
            <Time>2021-04-02T12:17:40.000Z</Time>
            <Position>
              <LatitudeDegrees>42.3240805976092815399169921875</LatitudeDegrees>
              <LongitudeDegrees>2.59655535221099853515625</LongitudeDegrees>
            </Position>
            <AltitudeMeters>767.79998779296875</AltitudeMeters>
            <DistanceMeters>NAN</DistanceMeters>
          </Trackpoint>
          <Trackpoint>
            <Time>2021-04-02T12:17:41.000Z</Time>
            <Position>
              <LatitudeDegrees>42.32407364062964916229248046875</LatitudeDegrees>
              <LongitudeDegrees>2.59655065834522247314453125</LongitudeDegrees>
            </Position>
            <AltitudeMeters>767.79998779296875</AltitudeMeters>
            <DistanceMeters>NAN</DistanceMeters>
          </Trackpoint>
          <Trackpoint>
            <Time>2021-04-02T12:17:44.000Z</Time>
            <Position>
              <LatitudeDegrees>42.32406534254550933837890625</LatitudeDegrees>
              <LongitudeDegrees>2.59655199944972991943359375</LongitudeDegrees>
            </Position>
            <AltitudeMeters>768.20001220703125</AltitudeMeters>
            <DistanceMeters>NAN</DistanceMeters>
          </Trackpoint>
          <Trackpoint>
            <Time>2021-04-02T12:17:46.000Z</Time>
            <Position>
              <LatitudeDegrees>42.3240552842617034912109375</LatitudeDegrees>
              <LongitudeDegrees>2.59655510075390338897705078125</LongitudeDegrees>
            </Position>
            <AltitudeMeters>768.20001220703125</AltitudeMeters>
            <DistanceMeters>NAN</DistanceMeters>
          </Trackpoint>
          <Trackpoint>
            <Time>2021-04-02T12:17:54.000Z</Time>
            <Position>
              <LatitudeDegrees>42.3240038193762302398681640625</LatitudeDegrees>
              <LongitudeDegrees>2.59655761532485485076904296875</LongitudeDegrees>
            </Position>
            <AltitudeMeters>768.5999755859375</AltitudeMeters>
            <DistanceMeters>NAN</DistanceMeters>
          </Trackpoint>
          <Trackpoint>
            <Time>2021-04-02T12:17:56.000Z</Time>
            <Position>
              <LatitudeDegrees>42.3239910788834095001220703125</LatitudeDegrees>
              <LongitudeDegrees>2.59655375964939594268798828125</LongitudeDegrees>
            </Position>
            <AltitudeMeters>768.79998779296875</AltitudeMeters>
            <DistanceMeters>NAN</DistanceMeters>
          </Trackpoint>
          <Trackpoint>
            <Time>2021-04-02T12:18:00.000Z</Time>
            <Position>
              <LatitudeDegrees>42.32399418018758296966552734375</LatitudeDegrees>
              <LongitudeDegrees>2.59654537774622440338134765625</LongitudeDegrees>
            </Position>
            <AltitudeMeters>769</AltitudeMeters>
            <DistanceMeters>NAN</DistanceMeters>
          </Trackpoint>
          <Trackpoint>
            <Time>2021-04-02T12:18:04.000Z</Time>
            <Position>
              <LatitudeDegrees>42.32402234338223934173583984375</LatitudeDegrees>
              <LongitudeDegrees>2.59654453955590724945068359375</LongitudeDegrees>
            </Position>
            <AltitudeMeters>768.79998779296875</AltitudeMeters>
            <DistanceMeters>NAN</DistanceMeters>
          </Trackpoint>
          <Trackpoint>
            <Time>2021-04-02T12:18:06.000Z</Time>
            <Position>
              <LatitudeDegrees>42.32402980327606201171875</LatitudeDegrees>
              <LongitudeDegrees>2.59654998779296875</LongitudeDegrees>
            </Position>
            <AltitudeMeters>768.79998779296875</AltitudeMeters>
            <DistanceMeters>NAN</DistanceMeters>
          </Trackpoint>
          <Trackpoint>
            <Time>2021-04-02T12:18:11.000Z</Time>
            <Position>
              <LatitudeDegrees>42.32402980327606201171875</LatitudeDegrees>
              <LongitudeDegrees>2.59654998779296875</LongitudeDegrees>
            </Position>
            <AltitudeMeters>768.79998779296875</AltitudeMeters>
            <DistanceMeters>NAN</DistanceMeters>
          </Trackpoint>
          <Trackpoint>
            <Time>2021-04-02T12:18:28.000Z</Time>
            <Position>
              <LatitudeDegrees>42.32403047382831573486328125</LatitudeDegrees>
              <LongitudeDegrees>2.5965513288974761962890625</LongitudeDegrees>
            </Position>
            <AltitudeMeters>768.5999755859375</AltitudeMeters>
            <DistanceMeters>NAN</DistanceMeters>
          </Trackpoint>
          <Trackpoint>
            <Time>2021-04-02T12:18:31.000Z</Time>
            <Position>
              <LatitudeDegrees>42.324043549597263336181640625</LatitudeDegrees>
              <LongitudeDegrees>2.59655124507844448089599609375</LongitudeDegrees>
            </Position>
            <AltitudeMeters>768.5999755859375</AltitudeMeters>
            <DistanceMeters>NAN</DistanceMeters>
          </Trackpoint>
          <Trackpoint>
            <Time>2021-04-02T12:18:32.000Z</Time>
            <Position>
              <LatitudeDegrees>42.32404598034918308258056640625</LatitudeDegrees>
              <LongitudeDegrees>2.59655124507844448089599609375</LongitudeDegrees>
            </Position>
            <AltitudeMeters>768.4000244140625</AltitudeMeters>
            <DistanceMeters>NAN</DistanceMeters>
          </Trackpoint>
          <Trackpoint>
            <Time>2021-04-02T12:18:45.000Z</Time>
            <Position>
              <LatitudeDegrees>42.32405218295753002166748046875</LatitudeDegrees>
              <LongitudeDegrees>2.59651553817093372344970703125</LongitudeDegrees>
            </Position>
            <AltitudeMeters>768.4000244140625</AltitudeMeters>
            <DistanceMeters>NAN</DistanceMeters>
          </Trackpoint>
          <Trackpoint>
            <Time>2021-04-02T12:18:55.000Z</Time>
            <Position>
              <LatitudeDegrees>42.32405168004333972930908203125</LatitudeDegrees>
              <LongitudeDegrees>2.5964904762804508209228515625</LongitudeDegrees>
            </Position>
            <AltitudeMeters>768.20001220703125</AltitudeMeters>
            <DistanceMeters>NAN</DistanceMeters>
          </Trackpoint>
          <Trackpoint>
            <Time>2021-04-02T12:18:56.000Z</Time>
            <Position>
              <LatitudeDegrees>42.32405134476721286773681640625</LatitudeDegrees>
              <LongitudeDegrees>2.59648955427110195159912109375</LongitudeDegrees>
            </Position>
            <AltitudeMeters>768.4000244140625</AltitudeMeters>
            <DistanceMeters>NAN</DistanceMeters>
          </Trackpoint>
          <Trackpoint>
            <Time>2021-04-02T12:19:12.000Z</Time>
            <Position>
              <LatitudeDegrees>42.323994599282741546630859375</LatitudeDegrees>
              <LongitudeDegrees>2.59646759368479251861572265625</LongitudeDegrees>
            </Position>
            <AltitudeMeters>769.79998779296875</AltitudeMeters>
            <DistanceMeters>NAN</DistanceMeters>
          </Trackpoint>
          <Trackpoint>
            <Time>2021-04-02T12:19:14.000Z</Time>
            <Position>
              <LatitudeDegrees>42.323965765535831451416015625</LatitudeDegrees>
              <LongitudeDegrees>2.59644261561334133148193359375</LongitudeDegrees>
            </Position>
            <AltitudeMeters>770</AltitudeMeters>
            <DistanceMeters>NAN</DistanceMeters>
          </Trackpoint>
          <Trackpoint>
            <Time>2021-04-02T12:19:15.000Z</Time>
            <Position>
              <LatitudeDegrees>42.32395377941429615020751953125</LatitudeDegrees>
              <LongitudeDegrees>2.596430964767932891845703125</LongitudeDegrees>
            </Position>
            <AltitudeMeters>770.20001220703125</AltitudeMeters>
            <DistanceMeters>NAN</DistanceMeters>
          </Trackpoint>
          <Trackpoint>
            <Time>2021-04-02T12:19:16.000Z</Time>
            <Position>
              <LatitudeDegrees>42.32393600977957248687744140625</LatitudeDegrees>
              <LongitudeDegrees>2.59642836637794971466064453125</LongitudeDegrees>
            </Position>
            <AltitudeMeters>770.20001220703125</AltitudeMeters>
            <DistanceMeters>NAN</DistanceMeters>
          </Trackpoint>
          <Trackpoint>
            <Time>2021-04-02T12:19:18.000Z</Time>
            <Position>
              <LatitudeDegrees>42.3238941840827465057373046875</LatitudeDegrees>
              <LongitudeDegrees>2.5964381732046604156494140625</LongitudeDegrees>
            </Position>
            <AltitudeMeters>770.5999755859375</AltitudeMeters>
            <DistanceMeters>NAN</DistanceMeters>
          </Trackpoint>
          <Trackpoint>
            <Time>2021-04-02T12:19:22.000Z</Time>
            <Position>
              <LatitudeDegrees>42.3238438926637172698974609375</LatitudeDegrees>
              <LongitudeDegrees>2.59643255732953548431396484375</LongitudeDegrees>
            </Position>
            <AltitudeMeters>771</AltitudeMeters>
            <DistanceMeters>NAN</DistanceMeters>
          </Trackpoint>
          <Trackpoint>
            <Time>2021-04-02T12:19:26.000Z</Time>
            <Position>
              <LatitudeDegrees>42.32381011359393596649169921875</LatitudeDegrees>
              <LongitudeDegrees>2.596435658633708953857421875</LongitudeDegrees>
            </Position>
            <AltitudeMeters>771.4000244140625</AltitudeMeters>
            <DistanceMeters>NAN</DistanceMeters>
          </Trackpoint>
          <Trackpoint>
            <Time>2021-04-02T12:19:27.000Z</Time>
            <Position>
              <LatitudeDegrees>42.323805503547191619873046875</LatitudeDegrees>
              <LongitudeDegrees>2.596434317529201507568359375</LongitudeDegrees>
            </Position>
            <AltitudeMeters>771.4000244140625</AltitudeMeters>
            <DistanceMeters>NAN</DistanceMeters>
          </Trackpoint>
          <Trackpoint>
            <Time>2021-04-02T12:19:29.000Z</Time>
            <Position>
              <LatitudeDegrees>42.32379972003400325775146484375</LatitudeDegrees>
              <LongitudeDegrees>2.59642870165407657623291015625</LongitudeDegrees>
            </Position>
            <AltitudeMeters>771.4000244140625</AltitudeMeters>
            <DistanceMeters>NAN</DistanceMeters>
          </Trackpoint>
          <Trackpoint>
            <Time>2021-04-02T12:19:30.000Z</Time>
            <Position>
              <LatitudeDegrees>42.3237982951104640960693359375</LatitudeDegrees>
              <LongitudeDegrees>2.59642400778830051422119140625</LongitudeDegrees>
            </Position>
            <AltitudeMeters>771.5999755859375</AltitudeMeters>
            <DistanceMeters>NAN</DistanceMeters>
          </Trackpoint>
          <Trackpoint>
            <Time>2021-04-02T12:19:36.000Z</Time>
            <Position>
              <LatitudeDegrees>42.323777340352535247802734375</LatitudeDegrees>
              <LongitudeDegrees>2.5963684357702732086181640625</LongitudeDegrees>
            </Position>
            <AltitudeMeters>771.79998779296875</AltitudeMeters>
            <DistanceMeters>NAN</DistanceMeters>
          </Trackpoint>
          <Trackpoint>
            <Time>2021-04-02T12:19:38.000Z</Time>
            <Position>
              <LatitudeDegrees>42.32377239502966403961181640625</LatitudeDegrees>
              <LongitudeDegrees>2.5963769853115081787109375</LongitudeDegrees>
            </Position>
            <AltitudeMeters>771.79998779296875</AltitudeMeters>
            <DistanceMeters>NAN</DistanceMeters>
          </Trackpoint>
          <Trackpoint>
            <Time>2021-04-02T12:19:41.000Z</Time>
            <Position>
              <LatitudeDegrees>42.323785386979579925537109375</LatitudeDegrees>
              <LongitudeDegrees>2.59637765586376190185546875</LongitudeDegrees>
            </Position>
            <AltitudeMeters>771.79998779296875</AltitudeMeters>
            <DistanceMeters>NAN</DistanceMeters>
          </Trackpoint>
          <Trackpoint>
            <Time>2021-04-02T12:19:45.000Z</Time>
            <Position>
              <LatitudeDegrees>42.323776669800281524658203125</LatitudeDegrees>
              <LongitudeDegrees>2.59637690149247646331787109375</LongitudeDegrees>
            </Position>
            <AltitudeMeters>772</AltitudeMeters>
            <DistanceMeters>NAN</DistanceMeters>
          </Trackpoint>
          <Trackpoint>
            <Time>2021-04-02T12:19:47.000Z</Time>
            <Position>
              <LatitudeDegrees>42.3237587325274944305419921875</LatitudeDegrees>
              <LongitudeDegrees>2.59638436138629913330078125</LongitudeDegrees>
            </Position>
            <AltitudeMeters>772.20001220703125</AltitudeMeters>
            <DistanceMeters>NAN</DistanceMeters>
          </Trackpoint>
          <Trackpoint>
            <Time>2021-04-02T12:19:49.000Z</Time>
            <Position>
              <LatitudeDegrees>42.3237469978630542755126953125</LatitudeDegrees>
              <LongitudeDegrees>2.5963791646063327789306640625</LongitudeDegrees>
            </Position>
            <AltitudeMeters>772.4000244140625</AltitudeMeters>
            <DistanceMeters>NAN</DistanceMeters>
          </Trackpoint>
          <Trackpoint>
            <Time>2021-04-02T12:19:51.000Z</Time>
            <Position>
              <LatitudeDegrees>42.32373568229377269744873046875</LatitudeDegrees>
              <LongitudeDegrees>2.59638109244406223297119140625</LongitudeDegrees>
            </Position>
            <AltitudeMeters>772.79998779296875</AltitudeMeters>
            <DistanceMeters>NAN</DistanceMeters>
          </Trackpoint>
          <Trackpoint>
            <Time>2021-04-02T12:19:53.000Z</Time>
            <Position>
              <LatitudeDegrees>42.323715984821319580078125</LatitudeDegrees>
              <LongitudeDegrees>2.5963922403752803802490234375</LongitudeDegrees>
            </Position>
            <AltitudeMeters>773</AltitudeMeters>
            <DistanceMeters>NAN</DistanceMeters>
          </Trackpoint>
          <Trackpoint>
            <Time>2021-04-02T12:19:57.000Z</Time>
            <Position>
              <LatitudeDegrees>42.32367918826639652252197265625</LatitudeDegrees>
              <LongitudeDegrees>2.59642216376960277557373046875</LongitudeDegrees>
            </Position>
            <AltitudeMeters>773.79998779296875</AltitudeMeters>
            <DistanceMeters>NAN</DistanceMeters>
          </Trackpoint>
          <Trackpoint>
            <Time>2021-04-02T12:19:59.000Z</Time>
            <Position>
              <LatitudeDegrees>42.32365630567073822021484375</LatitudeDegrees>
              <LongitudeDegrees>2.59642668999731540679931640625</LongitudeDegrees>
            </Position>
            <AltitudeMeters>774</AltitudeMeters>
            <DistanceMeters>NAN</DistanceMeters>
          </Trackpoint>
          <Trackpoint>
            <Time>2021-04-02T12:20:00.000Z</Time>
            <Position>
              <LatitudeDegrees>42.32364834286272525787353515625</LatitudeDegrees>
              <LongitudeDegrees>2.59643406607210636138916015625</LongitudeDegrees>
            </Position>
            <AltitudeMeters>774</AltitudeMeters>
            <DistanceMeters>NAN</DistanceMeters>
          </Trackpoint>
          <Trackpoint>
            <Time>2021-04-02T12:20:05.000Z</Time>
            <Position>
              <LatitudeDegrees>42.3236046731472015380859375</LatitudeDegrees>
              <LongitudeDegrees>2.59645518846809864044189453125</LongitudeDegrees>
            </Position>
            <AltitudeMeters>774.4000244140625</AltitudeMeters>
            <DistanceMeters>NAN</DistanceMeters>
          </Trackpoint>
          <Trackpoint>
            <Time>2021-04-02T12:20:08.000Z</Time>
            <Position>
              <LatitudeDegrees>42.3235833831131458282470703125</LatitudeDegrees>
              <LongitudeDegrees>2.5964750535786151885986328125</LongitudeDegrees>
            </Position>
            <AltitudeMeters>774.5999755859375</AltitudeMeters>
            <DistanceMeters>NAN</DistanceMeters>
          </Trackpoint>
          <Trackpoint>
            <Time>2021-04-02T12:20:12.000Z</Time>
            <Position>
              <LatitudeDegrees>42.3235488496720790863037109375</LatitudeDegrees>
              <LongitudeDegrees>2.59648687206208705902099609375</LongitudeDegrees>
            </Position>
            <AltitudeMeters>775.20001220703125</AltitudeMeters>
            <DistanceMeters>NAN</DistanceMeters>
          </Trackpoint>
          <Trackpoint>
            <Time>2021-04-02T12:20:14.000Z</Time>
            <Position>
              <LatitudeDegrees>42.3235310800373554229736328125</LatitudeDegrees>
              <LongitudeDegrees>2.59649072773754596710205078125</LongitudeDegrees>
            </Position>
            <AltitudeMeters>775.4000244140625</AltitudeMeters>
            <DistanceMeters>NAN</DistanceMeters>
          </Trackpoint>
          <Trackpoint>
            <Time>2021-04-02T12:20:15.000Z</Time>
            <Position>
              <LatitudeDegrees>42.323523201048374176025390625</LatitudeDegrees>
              <LongitudeDegrees>2.596487961709499359130859375</LongitudeDegrees>
            </Position>
            <AltitudeMeters>775.4000244140625</AltitudeMeters>
            <DistanceMeters>NAN</DistanceMeters>
          </Trackpoint>
          <Trackpoint>
            <Time>2021-04-02T12:20:19.000Z</Time>
            <Position>
              <LatitudeDegrees>42.3234851472079753875732421875</LatitudeDegrees>
              <LongitudeDegrees>2.59649391286075115203857421875</LongitudeDegrees>
            </Position>
            <AltitudeMeters>775.4000244140625</AltitudeMeters>
            <DistanceMeters>NAN</DistanceMeters>
          </Trackpoint>
          <Trackpoint>
            <Time>2021-04-02T12:20:26.000Z</Time>
            <Position>
              <LatitudeDegrees>42.3234345205128192901611328125</LatitudeDegrees>
              <LongitudeDegrees>2.59649843908846378326416015625</LongitudeDegrees>
            </Position>
            <AltitudeMeters>776</AltitudeMeters>
            <DistanceMeters>NAN</DistanceMeters>
          </Trackpoint>
          <Trackpoint>
            <Time>2021-04-02T12:20:30.000Z</Time>
            <Position>
              <LatitudeDegrees>42.32340392656624317169189453125</LatitudeDegrees>
              <LongitudeDegrees>2.596488632261753082275390625</LongitudeDegrees>
            </Position>
            <AltitudeMeters>776.4000244140625</AltitudeMeters>
            <DistanceMeters>NAN</DistanceMeters>
          </Trackpoint>
          <Trackpoint>
            <Time>2021-04-02T12:20:33.000Z</Time>
            <Position>
              <LatitudeDegrees>42.323385067284107208251953125</LatitudeDegrees>
              <LongitudeDegrees>2.596480585634708404541015625</LongitudeDegrees>
            </Position>
            <AltitudeMeters>776.5999755859375</AltitudeMeters>
            <DistanceMeters>NAN</DistanceMeters>
          </Trackpoint>
          <Trackpoint>
            <Time>2021-04-02T12:20:40.000Z</Time>
            <Position>
              <LatitudeDegrees>42.32333720661699771881103515625</LatitudeDegrees>
              <LongitudeDegrees>2.5964492373168468475341796875</LongitudeDegrees>
            </Position>
            <AltitudeMeters>777</AltitudeMeters>
            <DistanceMeters>NAN</DistanceMeters>
          </Trackpoint>
          <Trackpoint>
            <Time>2021-04-02T12:20:45.000Z</Time>
            <Position>
              <LatitudeDegrees>42.32328373007476329803466796875</LatitudeDegrees>
              <LongitudeDegrees>2.5964472256600856781005859375</LongitudeDegrees>
            </Position>
            <AltitudeMeters>777.4000244140625</AltitudeMeters>
            <DistanceMeters>NAN</DistanceMeters>
          </Trackpoint>
          <Trackpoint>
            <Time>2021-04-02T12:20:47.000Z</Time>
            <Position>
              <LatitudeDegrees>42.32326461933553218841552734375</LatitudeDegrees>
              <LongitudeDegrees>2.59644429199397563934326171875</LongitudeDegrees>
            </Position>
            <AltitudeMeters>777.4000244140625</AltitudeMeters>
            <DistanceMeters>NAN</DistanceMeters>
          </Trackpoint>
          <Trackpoint>
            <Time>2021-04-02T12:20:55.000Z</Time>
            <Position>
              <LatitudeDegrees>42.32322572730481624603271484375</LatitudeDegrees>
              <LongitudeDegrees>2.59639534167945384979248046875</LongitudeDegrees>
            </Position>
            <AltitudeMeters>777.79998779296875</AltitudeMeters>
            <DistanceMeters>NAN</DistanceMeters>
          </Trackpoint>
          <Trackpoint>
            <Time>2021-04-02T12:21:00.000Z</Time>
            <Position>
              <LatitudeDegrees>42.323212064802646636962890625</LatitudeDegrees>
              <LongitudeDegrees>2.596353180706501007080078125</LongitudeDegrees>
            </Position>
            <AltitudeMeters>778.4000244140625</AltitudeMeters>
            <DistanceMeters>NAN</DistanceMeters>
          </Trackpoint>
          <Trackpoint>
            <Time>2021-04-02T12:21:02.000Z</Time>
            <Position>
              <LatitudeDegrees>42.3231991566717624664306640625</LatitudeDegrees>
              <LongitudeDegrees>2.59634337387979030609130859375</LongitudeDegrees>
            </Position>
            <AltitudeMeters>778.5999755859375</AltitudeMeters>
            <DistanceMeters>NAN</DistanceMeters>
          </Trackpoint>
          <Trackpoint>
            <Time>2021-04-02T12:21:09.000Z</Time>
            <Position>
              <LatitudeDegrees>42.32316370122134685516357421875</LatitudeDegrees>
              <LongitudeDegrees>2.59631462395191192626953125</LongitudeDegrees>
            </Position>
            <AltitudeMeters>779.20001220703125</AltitudeMeters>
            <DistanceMeters>NAN</DistanceMeters>
          </Trackpoint>
          <Trackpoint>
            <Time>2021-04-02T12:21:11.000Z</Time>
            <Position>
              <LatitudeDegrees>42.32314576394855976104736328125</LatitudeDegrees>
              <LongitudeDegrees>2.5963245145976543426513671875</LongitudeDegrees>
            </Position>
            <AltitudeMeters>779.4000244140625</AltitudeMeters>
            <DistanceMeters>NAN</DistanceMeters>
          </Trackpoint>
          <Trackpoint>
            <Time>2021-04-02T12:21:12.000Z</Time>
            <Position>
              <LatitudeDegrees>42.32314274646341800689697265625</LatitudeDegrees>
              <LongitudeDegrees>2.59631998836994171142578125</LongitudeDegrees>
            </Position>
            <AltitudeMeters>779.4000244140625</AltitudeMeters>
            <DistanceMeters>NAN</DistanceMeters>
          </Trackpoint>
          <Trackpoint>
            <Time>2021-04-02T12:21:13.000Z</Time>
            <Position>
              <LatitudeDegrees>42.32314425520598888397216796875</LatitudeDegrees>
              <LongitudeDegrees>2.596310935914516448974609375</LongitudeDegrees>
            </Position>
            <AltitudeMeters>779.5999755859375</AltitudeMeters>
            <DistanceMeters>NAN</DistanceMeters>
          </Trackpoint>
          <Trackpoint>
            <Time>2021-04-02T12:21:15.000Z</Time>
            <Position>
              <LatitudeDegrees>42.32313972897827625274658203125</LatitudeDegrees>
              <LongitudeDegrees>2.59630397893488407135009765625</LongitudeDegrees>
            </Position>
            <AltitudeMeters>779.79998779296875</AltitudeMeters>
            <DistanceMeters>NAN</DistanceMeters>
          </Trackpoint>
          <Trackpoint>
            <Time>2021-04-02T12:21:17.000Z</Time>
            <Position>
              <LatitudeDegrees>42.32312598265707492828369140625</LatitudeDegrees>
              <LongitudeDegrees>2.596292160451412200927734375</LongitudeDegrees>
            </Position>
            <AltitudeMeters>780</AltitudeMeters>
            <DistanceMeters>NAN</DistanceMeters>
          </Trackpoint>
          <Trackpoint>
            <Time>2021-04-02T12:21:22.000Z</Time>
            <Position>
              <LatitudeDegrees>42.3231052793562412261962890625</LatitudeDegrees>
              <LongitudeDegrees>2.5962670147418975830078125</LongitudeDegrees>
            </Position>
            <AltitudeMeters>780.20001220703125</AltitudeMeters>
            <DistanceMeters>NAN</DistanceMeters>
          </Trackpoint>
          <Trackpoint>
            <Time>2021-04-02T12:21:27.000Z</Time>
            <Position>
              <LatitudeDegrees>42.32308122329413890838623046875</LatitudeDegrees>
              <LongitudeDegrees>2.59624865837395191192626953125</LongitudeDegrees>
            </Position>
            <AltitudeMeters>780.4000244140625</AltitudeMeters>
            <DistanceMeters>NAN</DistanceMeters>
          </Trackpoint>
          <Trackpoint>
            <Time>2021-04-02T12:21:35.000Z</Time>
            <Position>
              <LatitudeDegrees>42.323014922440052032470703125</LatitudeDegrees>
              <LongitudeDegrees>2.5962316431105136871337890625</LongitudeDegrees>
            </Position>
            <AltitudeMeters>781</AltitudeMeters>
            <DistanceMeters>NAN</DistanceMeters>
          </Trackpoint>
          <Trackpoint>
            <Time>2021-04-02T12:21:40.000Z</Time>
            <Position>
              <LatitudeDegrees>42.32297242619097232818603515625</LatitudeDegrees>
              <LongitudeDegrees>2.59622569195926189422607421875</LongitudeDegrees>
            </Position>
            <AltitudeMeters>781.20001220703125</AltitudeMeters>
            <DistanceMeters>NAN</DistanceMeters>
          </Trackpoint>
          <Trackpoint>
            <Time>2021-04-02T12:21:44.000Z</Time>
            <Position>
              <LatitudeDegrees>42.32294091023504734039306640625</LatitudeDegrees>
              <LongitudeDegrees>2.59621764533221721649169921875</LongitudeDegrees>
            </Position>
            <AltitudeMeters>781.5999755859375</AltitudeMeters>
            <DistanceMeters>NAN</DistanceMeters>
          </Trackpoint>
          <Trackpoint>
            <Time>2021-04-02T12:21:48.000Z</Time>
            <Position>
              <LatitudeDegrees>42.3229019343852996826171875</LatitudeDegrees>
              <LongitudeDegrees>2.5962048210203647613525390625</LongitudeDegrees>
            </Position>
            <AltitudeMeters>781.79998779296875</AltitudeMeters>
            <DistanceMeters>NAN</DistanceMeters>
          </Trackpoint>
          <Trackpoint>
            <Time>2021-04-02T12:21:49.000Z</Time>
            <Position>
              <LatitudeDegrees>42.3228950612246990203857421875</LatitudeDegrees>
              <LongitudeDegrees>2.5961950980126857757568359375</LongitudeDegrees>
            </Position>
            <AltitudeMeters>782</AltitudeMeters>
            <DistanceMeters>NAN</DistanceMeters>
          </Trackpoint>
          <Trackpoint>
            <Time>2021-04-02T12:21:54.000Z</Time>
            <Position>
              <LatitudeDegrees>42.322871424257755279541015625</LatitudeDegrees>
              <LongitudeDegrees>2.5961702875792980194091796875</LongitudeDegrees>
            </Position>
            <AltitudeMeters>782.20001220703125</AltitudeMeters>
            <DistanceMeters>NAN</DistanceMeters>
          </Trackpoint>
          <Trackpoint>
            <Time>2021-04-02T12:21:56.000Z</Time>
            <Position>
              <LatitudeDegrees>42.32286195270717144012451171875</LatitudeDegrees>
              <LongitudeDegrees>2.5961531884968280792236328125</LongitudeDegrees>
            </Position>
            <AltitudeMeters>782.20001220703125</AltitudeMeters>
            <DistanceMeters>NAN</DistanceMeters>
          </Trackpoint>
          <Trackpoint>
            <Time>2021-04-02T12:21:59.000Z</Time>
            <Position>
              <LatitudeDegrees>42.32285700738430023193359375</LatitudeDegrees>
              <LongitudeDegrees>2.59612427093088626861572265625</LongitudeDegrees>
            </Position>
            <AltitudeMeters>782.4000244140625</AltitudeMeters>
            <DistanceMeters>NAN</DistanceMeters>
          </Trackpoint>
          <Trackpoint>
            <Time>2021-04-02T12:22:01.000Z</Time>
            <Position>
              <LatitudeDegrees>42.32285164296627044677734375</LatitudeDegrees>
              <LongitudeDegrees>2.5961065851151943206787109375</LongitudeDegrees>
            </Position>
            <AltitudeMeters>782.5999755859375</AltitudeMeters>
            <DistanceMeters>NAN</DistanceMeters>
          </Trackpoint>
          <Trackpoint>
            <Time>2021-04-02T12:22:05.000Z</Time>
            <Position>
              <LatitudeDegrees>42.32285038568079471588134765625</LatitudeDegrees>
              <LongitudeDegrees>2.5960757397115230560302734375</LongitudeDegrees>
            </Position>
            <AltitudeMeters>783</AltitudeMeters>
            <DistanceMeters>NAN</DistanceMeters>
          </Trackpoint>
          <Trackpoint>
            <Time>2021-04-02T12:22:06.000Z</Time>
            <Position>
              <LatitudeDegrees>42.322842590510845184326171875</LatitudeDegrees>
              <LongitudeDegrees>2.5960703752934932708740234375</LongitudeDegrees>
            </Position>
            <AltitudeMeters>783.20001220703125</AltitudeMeters>
            <DistanceMeters>NAN</DistanceMeters>
          </Trackpoint>
          <Trackpoint>
            <Time>2021-04-02T12:22:08.000Z</Time>
            <Position>
              <LatitudeDegrees>42.32283018529415130615234375</LatitudeDegrees>
              <LongitudeDegrees>2.5960604846477508544921875</LongitudeDegrees>
            </Position>
            <AltitudeMeters>783.5999755859375</AltitudeMeters>
            <DistanceMeters>NAN</DistanceMeters>
          </Trackpoint>
          <Trackpoint>
            <Time>2021-04-02T12:22:09.000Z</Time>
            <Position>
              <LatitudeDegrees>42.322828508913516998291015625</LatitudeDegrees>
              <LongitudeDegrees>2.5960519351065158843994140625</LongitudeDegrees>
            </Position>
            <AltitudeMeters>783.79998779296875</AltitudeMeters>
            <DistanceMeters>NAN</DistanceMeters>
          </Trackpoint>
          <Trackpoint>
            <Time>2021-04-02T12:22:10.000Z</Time>
            <Position>
              <LatitudeDegrees>42.3228176124393939971923828125</LatitudeDegrees>
              <LongitudeDegrees>2.5960465706884860992431640625</LongitudeDegrees>
            </Position>
            <AltitudeMeters>783.79998779296875</AltitudeMeters>
            <DistanceMeters>NAN</DistanceMeters>
          </Trackpoint>
          <Trackpoint>
            <Time>2021-04-02T12:22:13.000Z</Time>
            <Position>
              <LatitudeDegrees>42.3227907903492450714111328125</LatitudeDegrees>
              <LongitudeDegrees>2.596042044460773468017578125</LongitudeDegrees>
            </Position>
            <AltitudeMeters>784.20001220703125</AltitudeMeters>
            <DistanceMeters>NAN</DistanceMeters>
          </Trackpoint>
          <Trackpoint>
            <Time>2021-04-02T12:22:18.000Z</Time>
            <Position>
              <LatitudeDegrees>42.32275466434657573699951171875</LatitudeDegrees>
              <LongitudeDegrees>2.59603374637663364410400390625</LongitudeDegrees>
            </Position>
            <AltitudeMeters>784.79998779296875</AltitudeMeters>
            <DistanceMeters>NAN</DistanceMeters>
          </Trackpoint>
          <Trackpoint>
            <Time>2021-04-02T12:22:19.000Z</Time>
            <Position>
              <LatitudeDegrees>42.32275499962270259857177734375</LatitudeDegrees>
              <LongitudeDegrees>2.59602167643606662750244140625</LongitudeDegrees>
            </Position>
            <AltitudeMeters>785</AltitudeMeters>
            <DistanceMeters>NAN</DistanceMeters>
          </Trackpoint>
          <Trackpoint>
            <Time>2021-04-02T12:22:21.000Z</Time>
            <Position>
              <LatitudeDegrees>42.32274544425308704376220703125</LatitudeDegrees>
              <LongitudeDegrees>2.596005499362945556640625</LongitudeDegrees>
            </Position>
            <AltitudeMeters>785.20001220703125</AltitudeMeters>
            <DistanceMeters>NAN</DistanceMeters>
          </Trackpoint>
          <Trackpoint>
            <Time>2021-04-02T12:22:23.000Z</Time>
            <Position>
              <LatitudeDegrees>42.3227264173328876495361328125</LatitudeDegrees>
              <LongitudeDegrees>2.59599787183105945587158203125</LongitudeDegrees>
            </Position>
            <AltitudeMeters>785.20001220703125</AltitudeMeters>
            <DistanceMeters>NAN</DistanceMeters>
          </Trackpoint>
          <Trackpoint>
            <Time>2021-04-02T12:22:26.000Z</Time>
            <Position>
              <LatitudeDegrees>42.322690375149250030517578125</LatitudeDegrees>
              <LongitudeDegrees>2.5959961116313934326171875</LongitudeDegrees>
            </Position>
            <AltitudeMeters>785.20001220703125</AltitudeMeters>
            <DistanceMeters>NAN</DistanceMeters>
          </Trackpoint>
          <Trackpoint>
            <Time>2021-04-02T12:22:28.000Z</Time>
            <Position>
              <LatitudeDegrees>42.32268291525542736053466796875</LatitudeDegrees>
              <LongitudeDegrees>2.59598605334758758544921875</LongitudeDegrees>
            </Position>
            <AltitudeMeters>785.20001220703125</AltitudeMeters>
            <DistanceMeters>NAN</DistanceMeters>
          </Trackpoint>
          <Trackpoint>
            <Time>2021-04-02T12:22:29.000Z</Time>
            <Position>
              <LatitudeDegrees>42.32268911786377429962158203125</LatitudeDegrees>
              <LongitudeDegrees>2.5959758274257183074951171875</LongitudeDegrees>
            </Position>
            <AltitudeMeters>785.4000244140625</AltitudeMeters>
            <DistanceMeters>NAN</DistanceMeters>
          </Trackpoint>
          <Trackpoint>
            <Time>2021-04-02T12:22:30.000Z</Time>
            <Position>
              <LatitudeDegrees>42.32269532047212123870849609375</LatitudeDegrees>
              <LongitudeDegrees>2.59596501477062702178955078125</LongitudeDegrees>
            </Position>
            <AltitudeMeters>785.4000244140625</AltitudeMeters>
            <DistanceMeters>NAN</DistanceMeters>
          </Trackpoint>
          <Trackpoint>
            <Time>2021-04-02T12:22:31.000Z</Time>
            <Position>
              <LatitudeDegrees>42.3226982541382312774658203125</LatitudeDegrees>
              <LongitudeDegrees>2.595956884324550628662109375</LongitudeDegrees>
            </Position>
            <AltitudeMeters>785.79998779296875</AltitudeMeters>
            <DistanceMeters>NAN</DistanceMeters>
          </Trackpoint>
          <Trackpoint>
            <Time>2021-04-02T12:22:34.000Z</Time>
            <Position>
              <LatitudeDegrees>42.32268861494958400726318359375</LatitudeDegrees>
              <LongitudeDegrees>2.59593802504241466522216796875</LongitudeDegrees>
            </Position>
            <AltitudeMeters>786.20001220703125</AltitudeMeters>
            <DistanceMeters>NAN</DistanceMeters>
          </Trackpoint>
          <Trackpoint>
            <Time>2021-04-02T12:22:35.000Z</Time>
            <Position>
              <LatitudeDegrees>42.32268869876861572265625</LatitudeDegrees>
              <LongitudeDegrees>2.59592478163540363311767578125</LongitudeDegrees>
            </Position>
            <AltitudeMeters>786.4000244140625</AltitudeMeters>
            <DistanceMeters>NAN</DistanceMeters>
          </Trackpoint>
          <Trackpoint>
            <Time>2021-04-02T12:22:38.000Z</Time>
            <Position>
              <LatitudeDegrees>42.32270353473722934722900390625</LatitudeDegrees>
              <LongitudeDegrees>2.595888487994670867919921875</LongitudeDegrees>
            </Position>
            <AltitudeMeters>786.5999755859375</AltitudeMeters>
            <DistanceMeters>NAN</DistanceMeters>
          </Trackpoint>
          <Trackpoint>
            <Time>2021-04-02T12:22:39.000Z</Time>
            <Position>
              <LatitudeDegrees>42.322699762880802154541015625</LatitudeDegrees>
              <LongitudeDegrees>2.5958802737295627593994140625</LongitudeDegrees>
            </Position>
            <AltitudeMeters>786.5999755859375</AltitudeMeters>
            <DistanceMeters>NAN</DistanceMeters>
          </Trackpoint>
          <Trackpoint>
            <Time>2021-04-02T12:22:40.000Z</Time>
            <Position>
              <LatitudeDegrees>42.32269196771085262298583984375</LatitudeDegrees>
              <LongitudeDegrees>2.5958727300167083740234375</LongitudeDegrees>
            </Position>
            <AltitudeMeters>786.5999755859375</AltitudeMeters>
            <DistanceMeters>NAN</DistanceMeters>
          </Trackpoint>
          <Trackpoint>
            <Time>2021-04-02T12:22:45.000Z</Time>
            <Position>
              <LatitudeDegrees>42.32267805375158786773681640625</LatitudeDegrees>
              <LongitudeDegrees>2.5958309881389141082763671875</LongitudeDegrees>
            </Position>
            <AltitudeMeters>786.79998779296875</AltitudeMeters>
            <DistanceMeters>NAN</DistanceMeters>
          </Trackpoint>
          <Trackpoint>
            <Time>2021-04-02T12:22:46.000Z</Time>
            <Position>
              <LatitudeDegrees>42.32267671264708042144775390625</LatitudeDegrees>
              <LongitudeDegrees>2.59582134895026683807373046875</LongitudeDegrees>
            </Position>
            <AltitudeMeters>786.79998779296875</AltitudeMeters>
            <DistanceMeters>NAN</DistanceMeters>
          </Trackpoint>
          <Trackpoint>
            <Time>2021-04-02T12:22:53.000Z</Time>
            <Position>
              <LatitudeDegrees>42.32269632630050182342529296875</LatitudeDegrees>
              <LongitudeDegrees>2.5957761704921722412109375</LongitudeDegrees>
            </Position>
            <AltitudeMeters>787.20001220703125</AltitudeMeters>
            <DistanceMeters>NAN</DistanceMeters>
          </Trackpoint>
          <Trackpoint>
            <Time>2021-04-02T12:22:56.000Z</Time>
            <Position>
              <LatitudeDegrees>42.32272163964807987213134765625</LatitudeDegrees>
              <LongitudeDegrees>2.5957615859806537628173828125</LongitudeDegrees>
            </Position>
            <AltitudeMeters>787.20001220703125</AltitudeMeters>
            <DistanceMeters>NAN</DistanceMeters>
          </Trackpoint>
          <Trackpoint>
            <Time>2021-04-02T12:22:58.000Z</Time>
            <Position>
              <LatitudeDegrees>42.32273689471185207366943359375</LatitudeDegrees>
              <LongitudeDegrees>2.59572898037731647491455078125</LongitudeDegrees>
            </Position>
            <AltitudeMeters>787</AltitudeMeters>
            <DistanceMeters>NAN</DistanceMeters>
          </Trackpoint>
          <Trackpoint>
            <Time>2021-04-02T12:23:02.000Z</Time>
            <Position>
              <LatitudeDegrees>42.3227358050644397735595703125</LatitudeDegrees>
              <LongitudeDegrees>2.59567131288349628448486328125</LongitudeDegrees>
            </Position>
            <AltitudeMeters>787</AltitudeMeters>
            <DistanceMeters>NAN</DistanceMeters>
          </Trackpoint>
          <Trackpoint>
            <Time>2021-04-02T12:23:03.000Z</Time>
            <Position>
              <LatitudeDegrees>42.322734631597995758056640625</LatitudeDegrees>
              <LongitudeDegrees>2.59565890766680240631103515625</LongitudeDegrees>
            </Position>
            <AltitudeMeters>786.79998779296875</AltitudeMeters>
            <DistanceMeters>NAN</DistanceMeters>
          </Trackpoint>
          <Trackpoint>
            <Time>2021-04-02T12:23:07.000Z</Time>
            <Position>
              <LatitudeDegrees>42.322762124240398406982421875</LatitudeDegrees>
              <LongitudeDegrees>2.59558900259435176849365234375</LongitudeDegrees>
            </Position>
            <AltitudeMeters>786.4000244140625</AltitudeMeters>
            <DistanceMeters>NAN</DistanceMeters>
          </Trackpoint>
          <Trackpoint>
            <Time>2021-04-02T12:23:09.000Z</Time>
            <Position>
              <LatitudeDegrees>42.32275282032787799835205078125</LatitudeDegrees>
              <LongitudeDegrees>2.59556335397064685821533203125</LongitudeDegrees>
            </Position>
            <AltitudeMeters>785.79998779296875</AltitudeMeters>
            <DistanceMeters>NAN</DistanceMeters>
          </Trackpoint>
          <Trackpoint>
            <Time>2021-04-02T12:23:12.000Z</Time>
            <Position>
              <LatitudeDegrees>42.32272650115191936492919921875</LatitudeDegrees>
              <LongitudeDegrees>2.5955547206103801727294921875</LongitudeDegrees>
            </Position>
            <AltitudeMeters>785.4000244140625</AltitudeMeters>
            <DistanceMeters>NAN</DistanceMeters>
          </Trackpoint>
          <Trackpoint>
            <Time>2021-04-02T12:23:17.000Z</Time>
            <Position>
              <LatitudeDegrees>42.32270638458430767059326171875</LatitudeDegrees>
              <LongitudeDegrees>2.59553351439535617828369140625</LongitudeDegrees>
            </Position>
            <AltitudeMeters>784.79998779296875</AltitudeMeters>
            <DistanceMeters>NAN</DistanceMeters>
          </Trackpoint>
          <Trackpoint>
            <Time>2021-04-02T12:23:18.000Z</Time>
            <Position>
              <LatitudeDegrees>42.32271057553589344024658203125</LatitudeDegrees>
              <LongitudeDegrees>2.5955213606357574462890625</LongitudeDegrees>
            </Position>
            <AltitudeMeters>784.79998779296875</AltitudeMeters>
            <DistanceMeters>NAN</DistanceMeters>
          </Trackpoint>
          <Trackpoint>
            <Time>2021-04-02T12:23:22.000Z</Time>
            <Position>
              <LatitudeDegrees>42.322723902761936187744140625</LatitudeDegrees>
              <LongitudeDegrees>2.59547467343509197235107421875</LongitudeDegrees>
            </Position>
            <AltitudeMeters>784</AltitudeMeters>
            <DistanceMeters>NAN</DistanceMeters>
          </Trackpoint>
          <Trackpoint>
            <Time>2021-04-02T12:23:24.000Z</Time>
            <Position>
              <LatitudeDegrees>42.322728931903839111328125</LatitudeDegrees>
              <LongitudeDegrees>2.59545790962874889373779296875</LongitudeDegrees>
            </Position>
            <AltitudeMeters>783.5999755859375</AltitudeMeters>
            <DistanceMeters>NAN</DistanceMeters>
          </Trackpoint>
          <Trackpoint>
            <Time>2021-04-02T12:23:25.000Z</Time>
            <Position>
              <LatitudeDegrees>42.32273094356060028076171875</LatitudeDegrees>
              <LongitudeDegrees>2.59544827044010162353515625</LongitudeDegrees>
            </Position>
            <AltitudeMeters>783.4000244140625</AltitudeMeters>
            <DistanceMeters>NAN</DistanceMeters>
          </Trackpoint>
          <Trackpoint>
            <Time>2021-04-02T12:23:30.000Z</Time>
            <Position>
              <LatitudeDegrees>42.32274292968213558197021484375</LatitudeDegrees>
              <LongitudeDegrees>2.59539655409753322601318359375</LongitudeDegrees>
            </Position>
            <AltitudeMeters>782.5999755859375</AltitudeMeters>
            <DistanceMeters>NAN</DistanceMeters>
          </Trackpoint>
          <Trackpoint>
            <Time>2021-04-02T12:23:31.000Z</Time>
            <Position>
              <LatitudeDegrees>42.32275030575692653656005859375</LatitudeDegrees>
              <LongitudeDegrees>2.59538515470921993255615234375</LongitudeDegrees>
            </Position>
            <AltitudeMeters>782.4000244140625</AltitudeMeters>
            <DistanceMeters>NAN</DistanceMeters>
          </Trackpoint>
          <Trackpoint>
            <Time>2021-04-02T12:23:36.000Z</Time>
            <Position>
              <LatitudeDegrees>42.32273639179766178131103515625</LatitudeDegrees>
              <LongitudeDegrees>2.5953388027846813201904296875</LongitudeDegrees>
            </Position>
            <AltitudeMeters>781.5999755859375</AltitudeMeters>
            <DistanceMeters>NAN</DistanceMeters>
          </Trackpoint>
          <Trackpoint>
            <Time>2021-04-02T12:23:40.000Z</Time>
            <Position>
              <LatitudeDegrees>42.32269297353923320770263671875</LatitudeDegrees>
              <LongitudeDegrees>2.59531994350254535675048828125</LongitudeDegrees>
            </Position>
            <AltitudeMeters>780.5999755859375</AltitudeMeters>
            <DistanceMeters>NAN</DistanceMeters>
          </Trackpoint>
          <Trackpoint>
            <Time>2021-04-02T12:23:42.000Z</Time>
            <Position>
              <LatitudeDegrees>42.322674952447414398193359375</LatitudeDegrees>
              <LongitudeDegrees>2.5953116454184055328369140625</LongitudeDegrees>
            </Position>
            <AltitudeMeters>780.4000244140625</AltitudeMeters>
            <DistanceMeters>NAN</DistanceMeters>
          </Trackpoint>
          <Trackpoint>
            <Time>2021-04-02T12:23:47.000Z</Time>
            <Position>
              <LatitudeDegrees>42.3226516507565975189208984375</LatitudeDegrees>
              <LongitudeDegrees>2.59526319801807403564453125</LongitudeDegrees>
            </Position>
            <AltitudeMeters>779.79998779296875</AltitudeMeters>
            <DistanceMeters>NAN</DistanceMeters>
          </Trackpoint>
          <Trackpoint>
            <Time>2021-04-02T12:23:53.000Z</Time>
            <Position>
              <LatitudeDegrees>42.322642765939235687255859375</LatitudeDegrees>
              <LongitudeDegrees>2.59518901817500591278076171875</LongitudeDegrees>
            </Position>
            <AltitudeMeters>780</AltitudeMeters>
            <DistanceMeters>NAN</DistanceMeters>
          </Trackpoint>
          <Trackpoint>
            <Time>2021-04-02T12:24:00.000Z</Time>
            <Position>
              <LatitudeDegrees>42.3226077295839786529541015625</LatitudeDegrees>
              <LongitudeDegrees>2.5951560772955417633056640625</LongitudeDegrees>
            </Position>
            <AltitudeMeters>780.4000244140625</AltitudeMeters>
            <DistanceMeters>NAN</DistanceMeters>
          </Trackpoint>
          <Trackpoint>
            <Time>2021-04-02T12:24:06.000Z</Time>
            <Position>
              <LatitudeDegrees>42.32257210649549961090087890625</LatitudeDegrees>
              <LongitudeDegrees>2.59513185359537601470947265625</LongitudeDegrees>
            </Position>
            <AltitudeMeters>779.79998779296875</AltitudeMeters>
            <DistanceMeters>NAN</DistanceMeters>
          </Trackpoint>
          <Trackpoint>
            <Time>2021-04-02T12:24:09.000Z</Time>
            <Position>
              <LatitudeDegrees>42.32254897244274616241455078125</LatitudeDegrees>
              <LongitudeDegrees>2.59514107368886470794677734375</LongitudeDegrees>
            </Position>
            <AltitudeMeters>779.20001220703125</AltitudeMeters>
            <DistanceMeters>NAN</DistanceMeters>
          </Trackpoint>
          <Trackpoint>
            <Time>2021-04-02T12:24:15.000Z</Time>
            <Position>
              <LatitudeDegrees>42.32250086031854152679443359375</LatitudeDegrees>
              <LongitudeDegrees>2.59514358825981616973876953125</LongitudeDegrees>
            </Position>
            <AltitudeMeters>778.20001220703125</AltitudeMeters>
            <DistanceMeters>NAN</DistanceMeters>
          </Trackpoint>
          <Trackpoint>
            <Time>2021-04-02T12:24:16.000Z</Time>
            <Position>
              <LatitudeDegrees>42.32249130494892597198486328125</LatitudeDegrees>
              <LongitudeDegrees>2.5951396487653255462646484375</LongitudeDegrees>
            </Position>
            <AltitudeMeters>777.79998779296875</AltitudeMeters>
            <DistanceMeters>NAN</DistanceMeters>
          </Trackpoint>
          <Trackpoint>
            <Time>2021-04-02T12:24:22.000Z</Time>
            <Position>
              <LatitudeDegrees>42.3224337212741374969482421875</LatitudeDegrees>
              <LongitudeDegrees>2.59510234929621219635009765625</LongitudeDegrees>
            </Position>
            <AltitudeMeters>776.79998779296875</AltitudeMeters>
            <DistanceMeters>NAN</DistanceMeters>
          </Trackpoint>
          <Trackpoint>
            <Time>2021-04-02T12:24:26.000Z</Time>
            <Position>
              <LatitudeDegrees>42.32240648008882999420166015625</LatitudeDegrees>
              <LongitudeDegrees>2.59506261907517910003662109375</LongitudeDegrees>
            </Position>
            <AltitudeMeters>776.4000244140625</AltitudeMeters>
            <DistanceMeters>NAN</DistanceMeters>
          </Trackpoint>
          <Trackpoint>
            <Time>2021-04-02T12:24:29.000Z</Time>
            <Position>
              <LatitudeDegrees>42.32238820753991603851318359375</LatitudeDegrees>
              <LongitudeDegrees>2.5950229726731777191162109375</LongitudeDegrees>
            </Position>
            <AltitudeMeters>776.4000244140625</AltitudeMeters>
            <DistanceMeters>NAN</DistanceMeters>
          </Trackpoint>
          <Trackpoint>
            <Time>2021-04-02T12:24:30.000Z</Time>
            <Position>
              <LatitudeDegrees>42.32238451950252056121826171875</LatitudeDegrees>
              <LongitudeDegrees>2.59500914253294467926025390625</LongitudeDegrees>
            </Position>
            <AltitudeMeters>776.20001220703125</AltitudeMeters>
            <DistanceMeters>NAN</DistanceMeters>
          </Trackpoint>
          <Trackpoint>
            <Time>2021-04-02T12:24:32.000Z</Time>
            <Position>
              <LatitudeDegrees>42.3223854415118694305419921875</LatitudeDegrees>
              <LongitudeDegrees>2.59498232044279575347900390625</LongitudeDegrees>
            </Position>
            <AltitudeMeters>776.20001220703125</AltitudeMeters>
            <DistanceMeters>NAN</DistanceMeters>
          </Trackpoint>
          <Trackpoint>
            <Time>2021-04-02T12:24:35.000Z</Time>
            <Position>
              <LatitudeDegrees>42.32239164412021636962890625</LatitudeDegrees>
              <LongitudeDegrees>2.59494443424046039581298828125</LongitudeDegrees>
            </Position>
            <AltitudeMeters>776.20001220703125</AltitudeMeters>
            <DistanceMeters>NAN</DistanceMeters>
          </Trackpoint>
          <Trackpoint>
            <Time>2021-04-02T12:24:39.000Z</Time>
            <Position>
              <LatitudeDegrees>42.322402037680149078369140625</LatitudeDegrees>
              <LongitudeDegrees>2.59489531628787517547607421875</LongitudeDegrees>
            </Position>
            <AltitudeMeters>776.20001220703125</AltitudeMeters>
            <DistanceMeters>NAN</DistanceMeters>
          </Trackpoint>
          <Trackpoint>
            <Time>2021-04-02T12:24:41.000Z</Time>
            <Position>
              <LatitudeDegrees>42.32240027748048305511474609375</LatitudeDegrees>
              <LongitudeDegrees>2.5948803126811981201171875</LongitudeDegrees>
            </Position>
            <AltitudeMeters>776.4000244140625</AltitudeMeters>
            <DistanceMeters>NAN</DistanceMeters>
          </Trackpoint>
          <Trackpoint>
            <Time>2021-04-02T12:24:42.000Z</Time>
            <Position>
              <LatitudeDegrees>42.32240371406078338623046875</LatitudeDegrees>
              <LongitudeDegrees>2.59487159550189971923828125</LongitudeDegrees>
            </Position>
            <AltitudeMeters>776.5999755859375</AltitudeMeters>
            <DistanceMeters>NAN</DistanceMeters>
          </Trackpoint>
          <Trackpoint>
            <Time>2021-04-02T12:24:44.000Z</Time>
            <Position>
              <LatitudeDegrees>42.32240430079400539398193359375</LatitudeDegrees>
              <LongitudeDegrees>2.59486463852226734161376953125</LongitudeDegrees>
            </Position>
            <AltitudeMeters>776.79998779296875</AltitudeMeters>
            <DistanceMeters>NAN</DistanceMeters>
          </Trackpoint>
          <Trackpoint>
            <Time>2021-04-02T12:24:46.000Z</Time>
            <Position>
              <LatitudeDegrees>42.32239700853824615478515625</LatitudeDegrees>
              <LongitudeDegrees>2.59486732073128223419189453125</LongitudeDegrees>
            </Position>
            <AltitudeMeters>776.79998779296875</AltitudeMeters>
            <DistanceMeters>NAN</DistanceMeters>
          </Trackpoint>
          <Trackpoint>
            <Time>2021-04-02T12:24:52.000Z</Time>
            <Position>
              <LatitudeDegrees>42.32236683368682861328125</LatitudeDegrees>
              <LongitudeDegrees>2.59484401904046535491943359375</LongitudeDegrees>
            </Position>
            <AltitudeMeters>777</AltitudeMeters>
            <DistanceMeters>NAN</DistanceMeters>
          </Trackpoint>
          <Trackpoint>
            <Time>2021-04-02T12:24:57.000Z</Time>
            <Position>
              <LatitudeDegrees>42.322351746261119842529296875</LatitudeDegrees>
              <LongitudeDegrees>2.59483278729021549224853515625</LongitudeDegrees>
            </Position>
            <AltitudeMeters>776.79998779296875</AltitudeMeters>
            <DistanceMeters>NAN</DistanceMeters>
          </Trackpoint>
          <Trackpoint>
            <Time>2021-04-02T12:25:01.000Z</Time>
            <Position>
              <LatitudeDegrees>42.32235685922205448150634765625</LatitudeDegrees>
              <LongitudeDegrees>2.5948047079145908355712890625</LongitudeDegrees>
            </Position>
            <AltitudeMeters>776.5999755859375</AltitudeMeters>
            <DistanceMeters>NAN</DistanceMeters>
          </Trackpoint>
          <Trackpoint>
            <Time>2021-04-02T12:25:05.000Z</Time>
            <Position>
              <LatitudeDegrees>42.32235484756529331207275390625</LatitudeDegrees>
              <LongitudeDegrees>2.59475902654230594635009765625</LongitudeDegrees>
            </Position>
            <AltitudeMeters>776.79998779296875</AltitudeMeters>
            <DistanceMeters>NAN</DistanceMeters>
          </Trackpoint>
          <Trackpoint>
            <Time>2021-04-02T12:25:12.000Z</Time>
            <Position>
              <LatitudeDegrees>42.32230640016496181488037109375</LatitudeDegrees>
              <LongitudeDegrees>2.5947034545242786407470703125</LongitudeDegrees>
            </Position>
            <AltitudeMeters>777.79998779296875</AltitudeMeters>
            <DistanceMeters>NAN</DistanceMeters>
          </Trackpoint>
          <Trackpoint>
            <Time>2021-04-02T12:25:18.000Z</Time>
            <Position>
              <LatitudeDegrees>42.3222318850457668304443359375</LatitudeDegrees>
              <LongitudeDegrees>2.5946764647960662841796875</LongitudeDegrees>
            </Position>
            <AltitudeMeters>777.5999755859375</AltitudeMeters>
            <DistanceMeters>NAN</DistanceMeters>
          </Trackpoint>
          <Trackpoint>
            <Time>2021-04-02T12:25:22.000Z</Time>
            <Position>
              <LatitudeDegrees>42.32222308404743671417236328125</LatitudeDegrees>
              <LongitudeDegrees>2.5946424342691898345947265625</LongitudeDegrees>
            </Position>
            <AltitudeMeters>777</AltitudeMeters>
            <DistanceMeters>NAN</DistanceMeters>
          </Trackpoint>
          <Trackpoint>
            <Time>2021-04-02T12:25:23.000Z</Time>
            <Position>
              <LatitudeDegrees>42.3222198151051998138427734375</LatitudeDegrees>
              <LongitudeDegrees>2.59463212452828884124755859375</LongitudeDegrees>
            </Position>
            <AltitudeMeters>777</AltitudeMeters>
            <DistanceMeters>NAN</DistanceMeters>
          </Trackpoint>
          <Trackpoint>
            <Time>2021-04-02T12:25:28.000Z</Time>
            <Position>
              <LatitudeDegrees>42.3221683502197265625</LatitudeDegrees>
              <LongitudeDegrees>2.59464385919272899627685546875</LongitudeDegrees>
            </Position>
            <AltitudeMeters>776.20001220703125</AltitudeMeters>
            <DistanceMeters>NAN</DistanceMeters>
          </Trackpoint>
          <Trackpoint>
            <Time>2021-04-02T12:25:31.000Z</Time>
            <Position>
              <LatitudeDegrees>42.32214756309986114501953125</LatitudeDegrees>
              <LongitudeDegrees>2.59461636655032634735107421875</LongitudeDegrees>
            </Position>
            <AltitudeMeters>775.79998779296875</AltitudeMeters>
            <DistanceMeters>NAN</DistanceMeters>
          </Trackpoint>
          <Trackpoint>
            <Time>2021-04-02T12:25:34.000Z</Time>
            <Position>
              <LatitudeDegrees>42.3221482336521148681640625</LatitudeDegrees>
              <LongitudeDegrees>2.59459264576435089111328125</LongitudeDegrees>
            </Position>
            <AltitudeMeters>775.4000244140625</AltitudeMeters>
            <DistanceMeters>NAN</DistanceMeters>
          </Trackpoint>
          <Trackpoint>
            <Time>2021-04-02T12:25:40.000Z</Time>
            <Position>
              <LatitudeDegrees>42.322109006345272064208984375</LatitudeDegrees>
              <LongitudeDegrees>2.59457655251026153564453125</LongitudeDegrees>
            </Position>
            <AltitudeMeters>775.4000244140625</AltitudeMeters>
            <DistanceMeters>NAN</DistanceMeters>
          </Trackpoint>
          <Trackpoint>
            <Time>2021-04-02T12:25:44.000Z</Time>
            <Position>
              <LatitudeDegrees>42.322064749896526336669921875</LatitudeDegrees>
              <LongitudeDegrees>2.59457563050091266632080078125</LongitudeDegrees>
            </Position>
            <AltitudeMeters>775.4000244140625</AltitudeMeters>
            <DistanceMeters>NAN</DistanceMeters>
          </Trackpoint>
          <Trackpoint>
            <Time>2021-04-02T12:25:50.000Z</Time>
            <Position>
              <LatitudeDegrees>42.3219965212047100067138671875</LatitudeDegrees>
              <LongitudeDegrees>2.5945718586444854736328125</LongitudeDegrees>
            </Position>
            <AltitudeMeters>775.4000244140625</AltitudeMeters>
            <DistanceMeters>NAN</DistanceMeters>
          </Trackpoint>
          <Trackpoint>
            <Time>2021-04-02T12:25:56.000Z</Time>
            <Position>
              <LatitudeDegrees>42.32191328890621662139892578125</LatitudeDegrees>
              <LongitudeDegrees>2.59460270404815673828125</LongitudeDegrees>
            </Position>
            <AltitudeMeters>775.4000244140625</AltitudeMeters>
            <DistanceMeters>NAN</DistanceMeters>
          </Trackpoint>
          <Trackpoint>
            <Time>2021-04-02T12:26:03.000Z</Time>
            <Position>
              <LatitudeDegrees>42.3218349181115627288818359375</LatitudeDegrees>
              <LongitudeDegrees>2.5946132652461528778076171875</LongitudeDegrees>
            </Position>
            <AltitudeMeters>775.79998779296875</AltitudeMeters>
            <DistanceMeters>NAN</DistanceMeters>
          </Trackpoint>
          <Trackpoint>
            <Time>2021-04-02T12:26:09.000Z</Time>
            <Position>
              <LatitudeDegrees>42.32177314348518848419189453125</LatitudeDegrees>
              <LongitudeDegrees>2.59465341456234455108642578125</LongitudeDegrees>
            </Position>
            <AltitudeMeters>775.79998779296875</AltitudeMeters>
            <DistanceMeters>NAN</DistanceMeters>
          </Trackpoint>
          <Trackpoint>
            <Time>2021-04-02T12:26:15.000Z</Time>
            <Position>
              <LatitudeDegrees>42.3217262886464595794677734375</LatitudeDegrees>
              <LongitudeDegrees>2.59467269293963909149169921875</LongitudeDegrees>
            </Position>
            <AltitudeMeters>775.79998779296875</AltitudeMeters>
            <DistanceMeters>NAN</DistanceMeters>
          </Trackpoint>
          <Trackpoint>
            <Time>2021-04-02T12:26:17.000Z</Time>
            <Position>
              <LatitudeDegrees>42.32170457951724529266357421875</LatitudeDegrees>
              <LongitudeDegrees>2.5946883670985698699951171875</LongitudeDegrees>
            </Position>
            <AltitudeMeters>775.79998779296875</AltitudeMeters>
            <DistanceMeters>NAN</DistanceMeters>
          </Trackpoint>
          <Trackpoint>
            <Time>2021-04-02T12:26:18.000Z</Time>
            <Position>
              <LatitudeDegrees>42.32169753871858119964599609375</LatitudeDegrees>
              <LongitudeDegrees>2.5946898758411407470703125</LongitudeDegrees>
            </Position>
            <AltitudeMeters>775.79998779296875</AltitudeMeters>
            <DistanceMeters>NAN</DistanceMeters>
          </Trackpoint>
          <Trackpoint>
            <Time>2021-04-02T12:26:22.000Z</Time>
            <Position>
              <LatitudeDegrees>42.3216734826564788818359375</LatitudeDegrees>
              <LongitudeDegrees>2.59471259079873561859130859375</LongitudeDegrees>
            </Position>
            <AltitudeMeters>775.79998779296875</AltitudeMeters>
            <DistanceMeters>NAN</DistanceMeters>
          </Trackpoint>
          <Trackpoint>
            <Time>2021-04-02T12:26:25.000Z</Time>
            <Position>
              <LatitudeDegrees>42.32165713794529438018798828125</LatitudeDegrees>
              <LongitudeDegrees>2.59472432546317577362060546875</LongitudeDegrees>
            </Position>
            <AltitudeMeters>775.79998779296875</AltitudeMeters>
            <DistanceMeters>NAN</DistanceMeters>
          </Trackpoint>
          <Trackpoint>
            <Time>2021-04-02T12:26:30.000Z</Time>
            <Position>
              <LatitudeDegrees>42.32164389453828334808349609375</LatitudeDegrees>
              <LongitudeDegrees>2.5947649776935577392578125</LongitudeDegrees>
            </Position>
            <AltitudeMeters>776</AltitudeMeters>
            <DistanceMeters>NAN</DistanceMeters>
          </Trackpoint>
          <Trackpoint>
            <Time>2021-04-02T12:26:33.000Z</Time>
            <Position>
              <LatitudeDegrees>42.3216354288160800933837890625</LatitudeDegrees>
              <LongitudeDegrees>2.5947837531566619873046875</LongitudeDegrees>
            </Position>
            <AltitudeMeters>776.20001220703125</AltitudeMeters>
            <DistanceMeters>NAN</DistanceMeters>
          </Trackpoint>
          <Trackpoint>
            <Time>2021-04-02T12:26:37.000Z</Time>
            <Position>
              <LatitudeDegrees>42.3215995542705059051513671875</LatitudeDegrees>
              <LongitudeDegrees>2.5948003493249416351318359375</LongitudeDegrees>
            </Position>
            <AltitudeMeters>776.4000244140625</AltitudeMeters>
            <DistanceMeters>NAN</DistanceMeters>
          </Trackpoint>
          <Trackpoint>
            <Time>2021-04-02T12:26:38.000Z</Time>
            <Position>
              <LatitudeDegrees>42.3215898312628269195556640625</LatitudeDegrees>
              <LongitudeDegrees>2.594806887209415435791015625</LongitudeDegrees>
            </Position>
            <AltitudeMeters>776.4000244140625</AltitudeMeters>
            <DistanceMeters>NAN</DistanceMeters>
          </Trackpoint>
          <Trackpoint>
            <Time>2021-04-02T12:26:43.000Z</Time>
            <Position>
              <LatitudeDegrees>42.32154498808085918426513671875</LatitudeDegrees>
              <LongitudeDegrees>2.59482876397669315338134765625</LongitudeDegrees>
            </Position>
            <AltitudeMeters>776.79998779296875</AltitudeMeters>
            <DistanceMeters>NAN</DistanceMeters>
          </Trackpoint>
          <Trackpoint>
            <Time>2021-04-02T12:26:48.000Z</Time>
            <Position>
              <LatitudeDegrees>42.321520261466503143310546875</LatitudeDegrees>
              <LongitudeDegrees>2.5948561728000640869140625</LongitudeDegrees>
            </Position>
            <AltitudeMeters>777.20001220703125</AltitudeMeters>
            <DistanceMeters>NAN</DistanceMeters>
          </Trackpoint>
          <Trackpoint>
            <Time>2021-04-02T12:26:56.000Z</Time>
            <Position>
              <LatitudeDegrees>42.32147692702710628509521484375</LatitudeDegrees>
              <LongitudeDegrees>2.59490319527685642242431640625</LongitudeDegrees>
            </Position>
            <AltitudeMeters>777.79998779296875</AltitudeMeters>
            <DistanceMeters>NAN</DistanceMeters>
          </Trackpoint>
          <Trackpoint>
            <Time>2021-04-02T12:26:57.000Z</Time>
            <Position>
              <LatitudeDegrees>42.32146871276199817657470703125</LatitudeDegrees>
              <LongitudeDegrees>2.59491006843745708465576171875</LongitudeDegrees>
            </Position>
            <AltitudeMeters>778</AltitudeMeters>
            <DistanceMeters>NAN</DistanceMeters>
          </Trackpoint>
          <Trackpoint>
            <Time>2021-04-02T12:27:02.000Z</Time>
            <Position>
              <LatitudeDegrees>42.321441806852817535400390625</LatitudeDegrees>
              <LongitudeDegrees>2.59491208009421825408935546875</LongitudeDegrees>
            </Position>
            <AltitudeMeters>778.79998779296875</AltitudeMeters>
            <DistanceMeters>NAN</DistanceMeters>
          </Trackpoint>
          <Trackpoint>
            <Time>2021-04-02T12:27:03.000Z</Time>
            <Position>
              <LatitudeDegrees>42.321437112987041473388671875</LatitudeDegrees>
              <LongitudeDegrees>2.59490956552326679229736328125</LongitudeDegrees>
            </Position>
            <AltitudeMeters>779</AltitudeMeters>
            <DistanceMeters>NAN</DistanceMeters>
          </Trackpoint>
          <Trackpoint>
            <Time>2021-04-02T12:27:08.000Z</Time>
            <Position>
              <LatitudeDegrees>42.3214245401322841644287109375</LatitudeDegrees>
              <LongitudeDegrees>2.5949113257229328155517578125</LongitudeDegrees>
            </Position>
            <AltitudeMeters>779.79998779296875</AltitudeMeters>
            <DistanceMeters>NAN</DistanceMeters>
          </Trackpoint>
          <Trackpoint>
            <Time>2021-04-02T12:27:10.000Z</Time>
            <Position>
              <LatitudeDegrees>42.3214295692741870880126953125</LatitudeDegrees>
              <LongitudeDegrees>2.59488902986049652099609375</LongitudeDegrees>
            </Position>
            <AltitudeMeters>780</AltitudeMeters>
            <DistanceMeters>NAN</DistanceMeters>
          </Trackpoint>
          <Trackpoint>
            <Time>2021-04-02T12:27:16.000Z</Time>
            <Position>
              <LatitudeDegrees>42.3214168287813663482666015625</LatitudeDegrees>
              <LongitudeDegrees>2.59486765600740909576416015625</LongitudeDegrees>
            </Position>
            <AltitudeMeters>780</AltitudeMeters>
            <DistanceMeters>NAN</DistanceMeters>
          </Trackpoint>
          <Trackpoint>
            <Time>2021-04-02T12:27:31.000Z</Time>
            <Position>
              <LatitudeDegrees>42.32136259786784648895263671875</LatitudeDegrees>
              <LongitudeDegrees>2.5949166901409626007080078125</LongitudeDegrees>
            </Position>
            <AltitudeMeters>780.79998779296875</AltitudeMeters>
            <DistanceMeters>NAN</DistanceMeters>
          </Trackpoint>
          <Trackpoint>
            <Time>2021-04-02T12:27:33.000Z</Time>
            <Position>
              <LatitudeDegrees>42.32134046964347362518310546875</LatitudeDegrees>
              <LongitudeDegrees>2.59493638761341571807861328125</LongitudeDegrees>
            </Position>
            <AltitudeMeters>781.20001220703125</AltitudeMeters>
            <DistanceMeters>NAN</DistanceMeters>
          </Trackpoint>
          <Trackpoint>
            <Time>2021-04-02T12:27:36.000Z</Time>
            <Position>
              <LatitudeDegrees>42.32132035307586193084716796875</LatitudeDegrees>
              <LongitudeDegrees>2.59495801292359828948974609375</LongitudeDegrees>
            </Position>
            <AltitudeMeters>781.4000244140625</AltitudeMeters>
            <DistanceMeters>NAN</DistanceMeters>
          </Trackpoint>
          <Trackpoint>
            <Time>2021-04-02T12:27:38.000Z</Time>
            <Position>
              <LatitudeDegrees>42.3213085345923900604248046875</LatitudeDegrees>
              <LongitudeDegrees>2.59496119804680347442626953125</LongitudeDegrees>
            </Position>
            <AltitudeMeters>781.79998779296875</AltitudeMeters>
            <DistanceMeters>NAN</DistanceMeters>
          </Trackpoint>
          <Trackpoint>
            <Time>2021-04-02T12:27:39.000Z</Time>
            <Position>
              <LatitudeDegrees>42.3213011585175991058349609375</LatitudeDegrees>
              <LongitudeDegrees>2.5949606113135814666748046875</LongitudeDegrees>
            </Position>
            <AltitudeMeters>781.79998779296875</AltitudeMeters>
            <DistanceMeters>NAN</DistanceMeters>
          </Trackpoint>
          <Trackpoint>
            <Time>2021-04-02T12:27:40.000Z</Time>
            <Position>
              <LatitudeDegrees>42.32129503972828388214111328125</LatitudeDegrees>
              <LongitudeDegrees>2.59496052749454975128173828125</LongitudeDegrees>
            </Position>
            <AltitudeMeters>782.20001220703125</AltitudeMeters>
            <DistanceMeters>NAN</DistanceMeters>
          </Trackpoint>
          <Trackpoint>
            <Time>2021-04-02T12:27:44.000Z</Time>
            <Position>
              <LatitudeDegrees>42.32126603834331035614013671875</LatitudeDegrees>
              <LongitudeDegrees>2.59496320970356464385986328125</LongitudeDegrees>
            </Position>
            <AltitudeMeters>782.79998779296875</AltitudeMeters>
            <DistanceMeters>NAN</DistanceMeters>
          </Trackpoint>
          <Trackpoint>
            <Time>2021-04-02T12:27:47.000Z</Time>
            <Position>
              <LatitudeDegrees>42.3212582431733608245849609375</LatitudeDegrees>
              <LongitudeDegrees>2.59495499543845653533935546875</LongitudeDegrees>
            </Position>
            <AltitudeMeters>783</AltitudeMeters>
            <DistanceMeters>NAN</DistanceMeters>
          </Trackpoint>
          <Trackpoint>
            <Time>2021-04-02T12:27:48.000Z</Time>
            <Position>
              <LatitudeDegrees>42.3212485201656818389892578125</LatitudeDegrees>
              <LongitudeDegrees>2.59495600126683712005615234375</LongitudeDegrees>
            </Position>
            <AltitudeMeters>783.20001220703125</AltitudeMeters>
            <DistanceMeters>NAN</DistanceMeters>
          </Trackpoint>
          <Trackpoint>
            <Time>2021-04-02T12:27:51.000Z</Time>
            <Position>
              <LatitudeDegrees>42.3212404735386371612548828125</LatitudeDegrees>
              <LongitudeDegrees>2.59493865072727203369140625</LongitudeDegrees>
            </Position>
            <AltitudeMeters>784.20001220703125</AltitudeMeters>
            <DistanceMeters>NAN</DistanceMeters>
          </Trackpoint>
          <Trackpoint>
            <Time>2021-04-02T12:27:52.000Z</Time>
            <Position>
              <LatitudeDegrees>42.32123854570090770721435546875</LatitudeDegrees>
              <LongitudeDegrees>2.59493320249021053314208984375</LongitudeDegrees>
            </Position>
            <AltitudeMeters>784.4000244140625</AltitudeMeters>
            <DistanceMeters>NAN</DistanceMeters>
          </Trackpoint>
          <Trackpoint>
            <Time>2021-04-02T12:27:55.000Z</Time>
            <Position>
              <LatitudeDegrees>42.321243993937969207763671875</LatitudeDegrees>
              <LongitudeDegrees>2.59490839205682277679443359375</LongitudeDegrees>
            </Position>
            <AltitudeMeters>784.5999755859375</AltitudeMeters>
            <DistanceMeters>NAN</DistanceMeters>
          </Trackpoint>
          <Trackpoint>
            <Time>2021-04-02T12:27:59.000Z</Time>
            <Position>
              <LatitudeDegrees>42.32124575413763523101806640625</LatitudeDegrees>
              <LongitudeDegrees>2.59487335570156574249267578125</LongitudeDegrees>
            </Position>
            <AltitudeMeters>785.20001220703125</AltitudeMeters>
            <DistanceMeters>NAN</DistanceMeters>
          </Trackpoint>
          <Trackpoint>
            <Time>2021-04-02T12:28:01.000Z</Time>
            <Position>
              <LatitudeDegrees>42.32124097645282745361328125</LatitudeDegrees>
              <LongitudeDegrees>2.59485843591392040252685546875</LongitudeDegrees>
            </Position>
            <AltitudeMeters>785.4000244140625</AltitudeMeters>
            <DistanceMeters>NAN</DistanceMeters>
          </Trackpoint>
          <Trackpoint>
            <Time>2021-04-02T12:28:03.000Z</Time>
            <Position>
              <LatitudeDegrees>42.3212349414825439453125</LatitudeDegrees>
              <LongitudeDegrees>2.594844438135623931884765625</LongitudeDegrees>
            </Position>
            <AltitudeMeters>785.5999755859375</AltitudeMeters>
            <DistanceMeters>NAN</DistanceMeters>
          </Trackpoint>
          <Trackpoint>
            <Time>2021-04-02T12:28:09.000Z</Time>
            <Position>
              <LatitudeDegrees>42.3212260566651821136474609375</LatitudeDegrees>
              <LongitudeDegrees>2.5948013551533222198486328125</LongitudeDegrees>
            </Position>
            <AltitudeMeters>786.5999755859375</AltitudeMeters>
            <DistanceMeters>NAN</DistanceMeters>
          </Trackpoint>
          <Trackpoint>
            <Time>2021-04-02T12:28:11.000Z</Time>
            <Position>
              <LatitudeDegrees>42.321223206818103790283203125</LatitudeDegrees>
              <LongitudeDegrees>2.5947872735559940338134765625</LongitudeDegrees>
            </Position>
            <AltitudeMeters>786.79998779296875</AltitudeMeters>
            <DistanceMeters>NAN</DistanceMeters>
          </Trackpoint>
          <Trackpoint>
            <Time>2021-04-02T12:28:17.000Z</Time>
            <Position>
              <LatitudeDegrees>42.32117333449423313140869140625</LatitudeDegrees>
              <LongitudeDegrees>2.59476623497903347015380859375</LongitudeDegrees>
            </Position>
            <AltitudeMeters>787.79998779296875</AltitudeMeters>
            <DistanceMeters>NAN</DistanceMeters>
          </Trackpoint>
          <Trackpoint>
            <Time>2021-04-02T12:28:20.000Z</Time>
            <Position>
              <LatitudeDegrees>42.321146763861179351806640625</LatitudeDegrees>
              <LongitudeDegrees>2.59474762715399265289306640625</LongitudeDegrees>
            </Position>
            <AltitudeMeters>788.4000244140625</AltitudeMeters>
            <DistanceMeters>NAN</DistanceMeters>
          </Trackpoint>
          <Trackpoint>
            <Time>2021-04-02T12:28:27.000Z</Time>
            <Position>
              <LatitudeDegrees>42.3211647011339664459228515625</LatitudeDegrees>
              <LongitudeDegrees>2.5947220623493194580078125</LongitudeDegrees>
            </Position>
            <AltitudeMeters>788.5999755859375</AltitudeMeters>
            <DistanceMeters>NAN</DistanceMeters>
          </Trackpoint>
          <Trackpoint>
            <Time>2021-04-02T12:28:29.000Z</Time>
            <Position>
              <LatitudeDegrees>42.32116361148655414581298828125</LatitudeDegrees>
              <LongitudeDegrees>2.59471627883613109588623046875</LongitudeDegrees>
            </Position>
            <AltitudeMeters>788.79998779296875</AltitudeMeters>
            <DistanceMeters>NAN</DistanceMeters>
          </Trackpoint>
          <Trackpoint>
            <Time>2021-04-02T12:28:33.000Z</Time>
            <Position>
              <LatitudeDegrees>42.32116520404815673828125</LatitudeDegrees>
              <LongitudeDegrees>2.59469297714531421661376953125</LongitudeDegrees>
            </Position>
            <AltitudeMeters>788.4000244140625</AltitudeMeters>
            <DistanceMeters>NAN</DistanceMeters>
          </Trackpoint>
          <Trackpoint>
            <Time>2021-04-02T12:28:35.000Z</Time>
            <Position>
              <LatitudeDegrees>42.32116587460041046142578125</LatitudeDegrees>
              <LongitudeDegrees>2.5946845114231109619140625</LongitudeDegrees>
            </Position>
            <AltitudeMeters>788.20001220703125</AltitudeMeters>
            <DistanceMeters>NAN</DistanceMeters>
          </Trackpoint>
          <Trackpoint>
            <Time>2021-04-02T12:35:52.000Z</Time>
            <Position>
              <LatitudeDegrees>42.32107694260776042938232421875</LatitudeDegrees>
              <LongitudeDegrees>2.5947503931820392608642578125</LongitudeDegrees>
            </Position>
            <AltitudeMeters>788.4000244140625</AltitudeMeters>
            <DistanceMeters>NAN</DistanceMeters>
          </Trackpoint>
          <Trackpoint>
            <Time>2021-04-02T12:35:53.000Z</Time>
            <Position>
              <LatitudeDegrees>42.32107694260776042938232421875</LatitudeDegrees>
              <LongitudeDegrees>2.5947503931820392608642578125</LongitudeDegrees>
            </Position>
            <AltitudeMeters>788.4000244140625</AltitudeMeters>
            <DistanceMeters>NAN</DistanceMeters>
          </Trackpoint>
          <Trackpoint>
            <Time>2021-04-02T12:35:57.000Z</Time>
            <Position>
              <LatitudeDegrees>42.32107694260776042938232421875</LatitudeDegrees>
              <LongitudeDegrees>2.5947503931820392608642578125</LongitudeDegrees>
            </Position>
            <AltitudeMeters>788.4000244140625</AltitudeMeters>
            <DistanceMeters>NAN</DistanceMeters>
          </Trackpoint>
          <Trackpoint>
            <Time>2021-04-02T12:35:59.000Z</Time>
            <Position>
              <LatitudeDegrees>42.3210833966732025146484375</LatitudeDegrees>
              <LongitudeDegrees>2.59474687278270721435546875</LongitudeDegrees>
            </Position>
            <AltitudeMeters>788.5999755859375</AltitudeMeters>
            <DistanceMeters>NAN</DistanceMeters>
          </Trackpoint>
          <Trackpoint>
            <Time>2021-04-02T12:36:00.000Z</Time>
            <Position>
              <LatitudeDegrees>42.32109655626118183135986328125</LatitudeDegrees>
              <LongitudeDegrees>2.5947408378124237060546875</LongitudeDegrees>
            </Position>
            <AltitudeMeters>788.4000244140625</AltitudeMeters>
            <DistanceMeters>NAN</DistanceMeters>
          </Trackpoint>
          <Trackpoint>
            <Time>2021-04-02T12:36:08.000Z</Time>
            <Position>
              <LatitudeDegrees>42.32115648686885833740234375</LatitudeDegrees>
              <LongitudeDegrees>2.59471678175032138824462890625</LongitudeDegrees>
            </Position>
            <AltitudeMeters>788.4000244140625</AltitudeMeters>
            <DistanceMeters>NAN</DistanceMeters>
          </Trackpoint>
          <Trackpoint>
            <Time>2021-04-02T12:36:14.000Z</Time>
            <Position>
              <LatitudeDegrees>42.321154139935970306396484375</LatitudeDegrees>
              <LongitudeDegrees>2.59472298435866832733154296875</LongitudeDegrees>
            </Position>
            <AltitudeMeters>788.5999755859375</AltitudeMeters>
            <DistanceMeters>NAN</DistanceMeters>
          </Trackpoint>
          <Trackpoint>
            <Time>2021-04-02T12:36:16.000Z</Time>
            <Position>
              <LatitudeDegrees>42.321154139935970306396484375</LatitudeDegrees>
              <LongitudeDegrees>2.59472298435866832733154296875</LongitudeDegrees>
            </Position>
            <AltitudeMeters>788.4000244140625</AltitudeMeters>
            <DistanceMeters>NAN</DistanceMeters>
          </Trackpoint>
          <Trackpoint>
            <Time>2021-04-02T12:36:26.000Z</Time>
            <Position>
              <LatitudeDegrees>42.32115372084081172943115234375</LatitudeDegrees>
              <LongitudeDegrees>2.59472298435866832733154296875</LongitudeDegrees>
            </Position>
            <AltitudeMeters>787.79998779296875</AltitudeMeters>
            <DistanceMeters>NAN</DistanceMeters>
          </Trackpoint>
          <Trackpoint>
            <Time>2021-04-02T12:36:32.000Z</Time>
            <Position>
              <LatitudeDegrees>42.32112522237002849578857421875</LatitudeDegrees>
              <LongitudeDegrees>2.59469850920140743255615234375</LongitudeDegrees>
            </Position>
            <AltitudeMeters>787.20001220703125</AltitudeMeters>
            <DistanceMeters>NAN</DistanceMeters>
          </Trackpoint>
          <Trackpoint>
            <Time>2021-04-02T12:36:38.000Z</Time>
            <Position>
              <LatitudeDegrees>42.321092449128627777099609375</LatitudeDegrees>
              <LongitudeDegrees>2.59466162882745265960693359375</LongitudeDegrees>
            </Position>
            <AltitudeMeters>787</AltitudeMeters>
            <DistanceMeters>NAN</DistanceMeters>
          </Trackpoint>
          <Trackpoint>
            <Time>2021-04-02T12:36:40.000Z</Time>
            <Position>
              <LatitudeDegrees>42.32108540832996368408203125</LatitudeDegrees>
              <LongitudeDegrees>2.59464587084949016571044921875</LongitudeDegrees>
            </Position>
            <AltitudeMeters>786.79998779296875</AltitudeMeters>
            <DistanceMeters>NAN</DistanceMeters>
          </Trackpoint>
          <Trackpoint>
            <Time>2021-04-02T12:36:41.000Z</Time>
            <Position>
              <LatitudeDegrees>42.32108230702579021453857421875</LatitudeDegrees>
              <LongitudeDegrees>2.5946362316608428955078125</LongitudeDegrees>
            </Position>
            <AltitudeMeters>786.79998779296875</AltitudeMeters>
            <DistanceMeters>NAN</DistanceMeters>
          </Trackpoint>
          <Trackpoint>
            <Time>2021-04-02T12:36:43.000Z</Time>
            <Position>
              <LatitudeDegrees>42.32107199728488922119140625</LatitudeDegrees>
              <LongitudeDegrees>2.5946189649403095245361328125</LongitudeDegrees>
            </Position>
            <AltitudeMeters>786.5999755859375</AltitudeMeters>
            <DistanceMeters>NAN</DistanceMeters>
          </Trackpoint>
          <Trackpoint>
            <Time>2021-04-02T12:36:47.000Z</Time>
            <Position>
              <LatitudeDegrees>42.32111181132495403289794921875</LatitudeDegrees>
              <LongitudeDegrees>2.59455031715333461761474609375</LongitudeDegrees>
            </Position>
            <AltitudeMeters>786.4000244140625</AltitudeMeters>
            <DistanceMeters>NAN</DistanceMeters>
          </Trackpoint>
          <Trackpoint>
            <Time>2021-04-02T12:36:52.000Z</Time>
            <Position>
              <LatitudeDegrees>42.32113494537770748138427734375</LatitudeDegrees>
              <LongitudeDegrees>2.5945012830197811126708984375</LongitudeDegrees>
            </Position>
            <AltitudeMeters>785.5999755859375</AltitudeMeters>
            <DistanceMeters>NAN</DistanceMeters>
          </Trackpoint>
          <Trackpoint>
            <Time>2021-04-02T12:36:54.000Z</Time>
            <Position>
              <LatitudeDegrees>42.321137376129627227783203125</LatitudeDegrees>
              <LongitudeDegrees>2.5944875366985797882080078125</LongitudeDegrees>
            </Position>
            <AltitudeMeters>785.5999755859375</AltitudeMeters>
            <DistanceMeters>NAN</DistanceMeters>
          </Trackpoint>
          <Trackpoint>
            <Time>2021-04-02T12:37:01.000Z</Time>
            <Position>
              <LatitudeDegrees>42.32117115519940853118896484375</LatitudeDegrees>
              <LongitudeDegrees>2.5943946652114391326904296875</LongitudeDegrees>
            </Position>
            <AltitudeMeters>784.5999755859375</AltitudeMeters>
            <DistanceMeters>NAN</DistanceMeters>
          </Trackpoint>
          <Trackpoint>
            <Time>2021-04-02T12:37:02.000Z</Time>
            <Position>
              <LatitudeDegrees>42.321176268160343170166015625</LatitudeDegrees>
              <LongitudeDegrees>2.59438921697437763214111328125</LongitudeDegrees>
            </Position>
            <AltitudeMeters>784.5999755859375</AltitudeMeters>
            <DistanceMeters>NAN</DistanceMeters>
          </Trackpoint>
          <Trackpoint>
            <Time>2021-04-02T12:37:07.000Z</Time>
            <Position>
              <LatitudeDegrees>42.32118372805416584014892578125</LatitudeDegrees>
              <LongitudeDegrees>2.5943410210311412811279296875</LongitudeDegrees>
            </Position>
            <AltitudeMeters>783.5999755859375</AltitudeMeters>
            <DistanceMeters>NAN</DistanceMeters>
          </Trackpoint>
          <Trackpoint>
            <Time>2021-04-02T12:37:09.000Z</Time>
            <Position>
              <LatitudeDegrees>42.32118624262511730194091796875</LatitudeDegrees>
              <LongitudeDegrees>2.5943098403513431549072265625</LongitudeDegrees>
            </Position>
            <AltitudeMeters>783</AltitudeMeters>
            <DistanceMeters>NAN</DistanceMeters>
          </Trackpoint>
          <Trackpoint>
            <Time>2021-04-02T12:37:10.000Z</Time>
            <Position>
              <LatitudeDegrees>42.3211920261383056640625</LatitudeDegrees>
              <LongitudeDegrees>2.59429701603949069976806640625</LongitudeDegrees>
            </Position>
            <AltitudeMeters>782.5999755859375</AltitudeMeters>
            <DistanceMeters>NAN</DistanceMeters>
          </Trackpoint>
          <Trackpoint>
            <Time>2021-04-02T12:37:16.000Z</Time>
            <Position>
              <LatitudeDegrees>42.32122245244681835174560546875</LatitudeDegrees>
              <LongitudeDegrees>2.59424655698239803314208984375</LongitudeDegrees>
            </Position>
            <AltitudeMeters>781.5999755859375</AltitudeMeters>
            <DistanceMeters>NAN</DistanceMeters>
          </Trackpoint>
          <Trackpoint>
            <Time>2021-04-02T12:37:20.000Z</Time>
            <Position>
              <LatitudeDegrees>42.321243323385715484619140625</LatitudeDegrees>
              <LongitudeDegrees>2.59421755559742450714111328125</LongitudeDegrees>
            </Position>
            <AltitudeMeters>780.4000244140625</AltitudeMeters>
            <DistanceMeters>NAN</DistanceMeters>
          </Trackpoint>
          <Trackpoint>
            <Time>2021-04-02T12:37:25.000Z</Time>
            <Position>
              <LatitudeDegrees>42.321279533207416534423828125</LatitudeDegrees>
              <LongitudeDegrees>2.59417153894901275634765625</LongitudeDegrees>
            </Position>
            <AltitudeMeters>779.5999755859375</AltitudeMeters>
            <DistanceMeters>NAN</DistanceMeters>
          </Trackpoint>
          <Trackpoint>
            <Time>2021-04-02T12:37:26.000Z</Time>
            <Position>
              <LatitudeDegrees>42.3212860710918903350830078125</LatitudeDegrees>
              <LongitudeDegrees>2.594165503978729248046875</LongitudeDegrees>
            </Position>
            <AltitudeMeters>779.5999755859375</AltitudeMeters>
            <DistanceMeters>NAN</DistanceMeters>
          </Trackpoint>
          <Trackpoint>
            <Time>2021-04-02T12:37:30.000Z</Time>
            <Position>
              <LatitudeDegrees>42.32131733559072017669677734375</LatitudeDegrees>
              <LongitudeDegrees>2.59414069354534149169921875</LongitudeDegrees>
            </Position>
            <AltitudeMeters>779.20001220703125</AltitudeMeters>
            <DistanceMeters>NAN</DistanceMeters>
          </Trackpoint>
          <Trackpoint>
            <Time>2021-04-02T12:37:32.000Z</Time>
            <Position>
              <LatitudeDegrees>42.32132957316935062408447265625</LatitudeDegrees>
              <LongitudeDegrees>2.59412166662514209747314453125</LongitudeDegrees>
            </Position>
            <AltitudeMeters>779.20001220703125</AltitudeMeters>
            <DistanceMeters>NAN</DistanceMeters>
          </Trackpoint>
          <Trackpoint>
            <Time>2021-04-02T12:37:36.000Z</Time>
            <Position>
              <LatitudeDegrees>42.32135287486016750335693359375</LatitudeDegrees>
              <LongitudeDegrees>2.59408629499375820159912109375</LongitudeDegrees>
            </Position>
            <AltitudeMeters>778.20001220703125</AltitudeMeters>
            <DistanceMeters>NAN</DistanceMeters>
          </Trackpoint>
          <Trackpoint>
            <Time>2021-04-02T12:37:39.000Z</Time>
            <Position>
              <LatitudeDegrees>42.321379445493221282958984375</LatitudeDegrees>
              <LongitudeDegrees>2.59405092336237430572509765625</LongitudeDegrees>
            </Position>
            <AltitudeMeters>777.5999755859375</AltitudeMeters>
            <DistanceMeters>NAN</DistanceMeters>
          </Trackpoint>
          <Trackpoint>
            <Time>2021-04-02T12:37:41.000Z</Time>
            <Position>
              <LatitudeDegrees>42.32139118015766143798828125</LatitudeDegrees>
              <LongitudeDegrees>2.59402628056704998016357421875</LongitudeDegrees>
            </Position>
            <AltitudeMeters>777</AltitudeMeters>
            <DistanceMeters>NAN</DistanceMeters>
          </Trackpoint>
          <Trackpoint>
            <Time>2021-04-02T12:37:46.000Z</Time>
            <Position>
              <LatitudeDegrees>42.32141054235398769378662109375</LatitudeDegrees>
              <LongitudeDegrees>2.59396769106388092041015625</LongitudeDegrees>
            </Position>
            <AltitudeMeters>776.5999755859375</AltitudeMeters>
            <DistanceMeters>NAN</DistanceMeters>
          </Trackpoint>
          <Trackpoint>
            <Time>2021-04-02T12:37:48.000Z</Time>
            <Position>
              <LatitudeDegrees>42.3214235343039035797119140625</LatitudeDegrees>
              <LongitudeDegrees>2.59394966997206211090087890625</LongitudeDegrees>
            </Position>
            <AltitudeMeters>776</AltitudeMeters>
            <DistanceMeters>NAN</DistanceMeters>
          </Trackpoint>
          <Trackpoint>
            <Time>2021-04-02T12:37:55.000Z</Time>
            <Position>
              <LatitudeDegrees>42.3214751668274402618408203125</LatitudeDegrees>
              <LongitudeDegrees>2.59386383928358554840087890625</LongitudeDegrees>
            </Position>
            <AltitudeMeters>775</AltitudeMeters>
            <DistanceMeters>NAN</DistanceMeters>
          </Trackpoint>
          <Trackpoint>
            <Time>2021-04-02T12:37:56.000Z</Time>
            <Position>
              <LatitudeDegrees>42.32148430310189723968505859375</LatitudeDegrees>
              <LongitudeDegrees>2.593853361904621124267578125</LongitudeDegrees>
            </Position>
            <AltitudeMeters>775</AltitudeMeters>
            <DistanceMeters>NAN</DistanceMeters>
          </Trackpoint>
          <Trackpoint>
            <Time>2021-04-02T12:38:00.000Z</Time>
            <Position>
              <LatitudeDegrees>42.32149989344179630279541015625</LatitudeDegrees>
              <LongitudeDegrees>2.59382394142448902130126953125</LongitudeDegrees>
            </Position>
            <AltitudeMeters>773.79998779296875</AltitudeMeters>
            <DistanceMeters>NAN</DistanceMeters>
          </Trackpoint>
          <Trackpoint>
            <Time>2021-04-02T12:38:02.000Z</Time>
            <Position>
              <LatitudeDegrees>42.32149871997535228729248046875</LatitudeDegrees>
              <LongitudeDegrees>2.59380407631397247314453125</LongitudeDegrees>
            </Position>
            <AltitudeMeters>773.5999755859375</AltitudeMeters>
            <DistanceMeters>NAN</DistanceMeters>
          </Trackpoint>
          <Trackpoint>
            <Time>2021-04-02T12:38:04.000Z</Time>
            <Position>
              <LatitudeDegrees>42.321493439376354217529296875</LatitudeDegrees>
              <LongitudeDegrees>2.5938002206385135650634765625</LongitudeDegrees>
            </Position>
            <AltitudeMeters>773.5999755859375</AltitudeMeters>
            <DistanceMeters>NAN</DistanceMeters>
          </Trackpoint>
          <Trackpoint>
            <Time>2021-04-02T12:38:06.000Z</Time>
            <Position>
              <LatitudeDegrees>42.32149444520473480224609375</LatitudeDegrees>
              <LongitudeDegrees>2.59379762224853038787841796875</LongitudeDegrees>
            </Position>
            <AltitudeMeters>773.4000244140625</AltitudeMeters>
            <DistanceMeters>NAN</DistanceMeters>
          </Trackpoint>
          <Trackpoint>
            <Time>2021-04-02T12:38:08.000Z</Time>
            <Position>
              <LatitudeDegrees>42.32148773968219757080078125</LatitudeDegrees>
              <LongitudeDegrees>2.59379334747791290283203125</LongitudeDegrees>
            </Position>
            <AltitudeMeters>773.4000244140625</AltitudeMeters>
            <DistanceMeters>NAN</DistanceMeters>
          </Trackpoint>
          <Trackpoint>
            <Time>2021-04-02T12:38:13.000Z</Time>
            <Position>
              <LatitudeDegrees>42.32145211659371852874755859375</LatitudeDegrees>
              <LongitudeDegrees>2.5938243605196475982666015625</LongitudeDegrees>
            </Position>
            <AltitudeMeters>772.79998779296875</AltitudeMeters>
            <DistanceMeters>NAN</DistanceMeters>
          </Trackpoint>
          <Trackpoint>
            <Time>2021-04-02T12:38:20.000Z</Time>
            <Position>
              <LatitudeDegrees>42.32139595784246921539306640625</LatitudeDegrees>
              <LongitudeDegrees>2.59384774602949619293212890625</LongitudeDegrees>
            </Position>
            <AltitudeMeters>771.79998779296875</AltitudeMeters>
            <DistanceMeters>NAN</DistanceMeters>
          </Trackpoint>
          <Trackpoint>
            <Time>2021-04-02T12:38:21.000Z</Time>
            <Position>
              <LatitudeDegrees>42.3213859833776950836181640625</LatitudeDegrees>
              <LongitudeDegrees>2.5938424654304981231689453125</LongitudeDegrees>
            </Position>
            <AltitudeMeters>771.5999755859375</AltitudeMeters>
            <DistanceMeters>NAN</DistanceMeters>
          </Trackpoint>
          <Trackpoint>
            <Time>2021-04-02T12:38:27.000Z</Time>
            <Position>
              <LatitudeDegrees>42.32139386236667633056640625</LatitudeDegrees>
              <LongitudeDegrees>2.5937750749289989471435546875</LongitudeDegrees>
            </Position>
            <AltitudeMeters>770.5999755859375</AltitudeMeters>
            <DistanceMeters>NAN</DistanceMeters>
          </Trackpoint>
          <Trackpoint>
            <Time>2021-04-02T12:38:33.000Z</Time>
            <Position>
              <LatitudeDegrees>42.32141724787652492523193359375</LatitudeDegrees>
              <LongitudeDegrees>2.59368614293634891510009765625</LongitudeDegrees>
            </Position>
            <AltitudeMeters>769.5999755859375</AltitudeMeters>
            <DistanceMeters>NAN</DistanceMeters>
          </Trackpoint>
          <Trackpoint>
            <Time>2021-04-02T12:38:35.000Z</Time>
            <Position>
              <LatitudeDegrees>42.3214242048561573028564453125</LatitudeDegrees>
              <LongitudeDegrees>2.593672983348369598388671875</LongitudeDegrees>
            </Position>
            <AltitudeMeters>769.20001220703125</AltitudeMeters>
            <DistanceMeters>NAN</DistanceMeters>
          </Trackpoint>
          <Trackpoint>
            <Time>2021-04-02T12:38:38.000Z</Time>
            <Position>
              <LatitudeDegrees>42.3214399628341197967529296875</LatitudeDegrees>
              <LongitudeDegrees>2.59364104829728603363037109375</LongitudeDegrees>
            </Position>
            <AltitudeMeters>768.4000244140625</AltitudeMeters>
            <DistanceMeters>NAN</DistanceMeters>
          </Trackpoint>
          <Trackpoint>
            <Time>2021-04-02T12:38:40.000Z</Time>
            <Position>
              <LatitudeDegrees>42.32144616544246673583984375</LatitudeDegrees>
              <LongitudeDegrees>2.59361439384520053863525390625</LongitudeDegrees>
            </Position>
            <AltitudeMeters>768.4000244140625</AltitudeMeters>
            <DistanceMeters>NAN</DistanceMeters>
          </Trackpoint>
          <Trackpoint>
            <Time>2021-04-02T12:38:42.000Z</Time>
            <Position>
              <LatitudeDegrees>42.3214537091553211212158203125</LatitudeDegrees>
              <LongitudeDegrees>2.5935889966785907745361328125</LongitudeDegrees>
            </Position>
            <AltitudeMeters>768.4000244140625</AltitudeMeters>
            <DistanceMeters>NAN</DistanceMeters>
          </Trackpoint>
          <Trackpoint>
            <Time>2021-04-02T12:38:45.000Z</Time>
            <Position>
              <LatitudeDegrees>42.321459911763668060302734375</LatitudeDegrees>
              <LongitudeDegrees>2.5935541279613971710205078125</LongitudeDegrees>
            </Position>
            <AltitudeMeters>768.4000244140625</AltitudeMeters>
            <DistanceMeters>NAN</DistanceMeters>
          </Trackpoint>
          <Trackpoint>
            <Time>2021-04-02T12:38:48.000Z</Time>
            <Position>
              <LatitudeDegrees>42.32145815156400203704833984375</LatitudeDegrees>
              <LongitudeDegrees>2.59354214183986186981201171875</LongitudeDegrees>
            </Position>
            <AltitudeMeters>767.79998779296875</AltitudeMeters>
            <DistanceMeters>NAN</DistanceMeters>
          </Trackpoint>
          <Trackpoint>
            <Time>2021-04-02T12:38:50.000Z</Time>
            <Position>
              <LatitudeDegrees>42.32144775800406932830810546875</LatitudeDegrees>
              <LongitudeDegrees>2.59351431392133235931396484375</LongitudeDegrees>
            </Position>
            <AltitudeMeters>767.4000244140625</AltitudeMeters>
            <DistanceMeters>NAN</DistanceMeters>
          </Trackpoint>
          <Trackpoint>
            <Time>2021-04-02T12:38:52.000Z</Time>
            <Position>
              <LatitudeDegrees>42.3214496858417987823486328125</LatitudeDegrees>
              <LongitudeDegrees>2.59350299835205078125</LongitudeDegrees>
            </Position>
            <AltitudeMeters>767</AltitudeMeters>
            <DistanceMeters>NAN</DistanceMeters>
          </Trackpoint>
          <Trackpoint>
            <Time>2021-04-02T12:38:56.000Z</Time>
            <Position>
              <LatitudeDegrees>42.32147105969488620758056640625</LatitudeDegrees>
              <LongitudeDegrees>2.5935001485049724578857421875</LongitudeDegrees>
            </Position>
            <AltitudeMeters>766.4000244140625</AltitudeMeters>
            <DistanceMeters>NAN</DistanceMeters>
          </Trackpoint>
          <Trackpoint>
            <Time>2021-04-02T12:39:00.000Z</Time>
            <Position>
              <LatitudeDegrees>42.321456559002399444580078125</LatitudeDegrees>
              <LongitudeDegrees>2.5934944488108158111572265625</LongitudeDegrees>
            </Position>
            <AltitudeMeters>765.79998779296875</AltitudeMeters>
            <DistanceMeters>NAN</DistanceMeters>
          </Trackpoint>
          <Trackpoint>
            <Time>2021-04-02T12:39:02.000Z</Time>
            <Position>
              <LatitudeDegrees>42.32144541107118129730224609375</LatitudeDegrees>
              <LongitudeDegrees>2.5934703089296817779541015625</LongitudeDegrees>
            </Position>
            <AltitudeMeters>765.20001220703125</AltitudeMeters>
            <DistanceMeters>NAN</DistanceMeters>
          </Trackpoint>
          <Trackpoint>
            <Time>2021-04-02T12:39:04.000Z</Time>
            <Position>
              <LatitudeDegrees>42.321441471576690673828125</LatitudeDegrees>
              <LongitudeDegrees>2.59345698170363903045654296875</LongitudeDegrees>
            </Position>
            <AltitudeMeters>765</AltitudeMeters>
            <DistanceMeters>NAN</DistanceMeters>
          </Trackpoint>
          <Trackpoint>
            <Time>2021-04-02T12:39:06.000Z</Time>
            <Position>
              <LatitudeDegrees>42.3214292339980602264404296875</LatitudeDegrees>
              <LongitudeDegrees>2.59346150793135166168212890625</LongitudeDegrees>
            </Position>
            <AltitudeMeters>765</AltitudeMeters>
            <DistanceMeters>NAN</DistanceMeters>
          </Trackpoint>
          <Trackpoint>
            <Time>2021-04-02T12:39:10.000Z</Time>
            <Position>
              <LatitudeDegrees>42.32141573913395404815673828125</LatitudeDegrees>
              <LongitudeDegrees>2.59347441606223583221435546875</LongitudeDegrees>
            </Position>
            <AltitudeMeters>765</AltitudeMeters>
            <DistanceMeters>NAN</DistanceMeters>
          </Trackpoint>
          <Trackpoint>
            <Time>2021-04-02T12:39:13.000Z</Time>
            <Position>
              <LatitudeDegrees>42.32138489373028278350830078125</LatitudeDegrees>
              <LongitudeDegrees>2.5934696383774280548095703125</LongitudeDegrees>
            </Position>
            <AltitudeMeters>764.4000244140625</AltitudeMeters>
            <DistanceMeters>NAN</DistanceMeters>
          </Trackpoint>
          <Trackpoint>
            <Time>2021-04-02T12:39:14.000Z</Time>
            <Position>
              <LatitudeDegrees>42.3213745839893817901611328125</LatitudeDegrees>
              <LongitudeDegrees>2.59346486069262027740478515625</LongitudeDegrees>
            </Position>
            <AltitudeMeters>764.20001220703125</AltitudeMeters>
            <DistanceMeters>NAN</DistanceMeters>
          </Trackpoint>
          <Trackpoint>
            <Time>2021-04-02T12:39:19.000Z</Time>
            <Position>
              <LatitudeDegrees>42.3213071934878826141357421875</LatitudeDegrees>
              <LongitudeDegrees>2.59345094673335552215576171875</LongitudeDegrees>
            </Position>
            <AltitudeMeters>763.5999755859375</AltitudeMeters>
            <DistanceMeters>NAN</DistanceMeters>
          </Trackpoint>
          <Trackpoint>
            <Time>2021-04-02T12:39:23.000Z</Time>
            <Position>
              <LatitudeDegrees>42.32127391733229160308837890625</LatitudeDegrees>
              <LongitudeDegrees>2.59345044381916522979736328125</LongitudeDegrees>
            </Position>
            <AltitudeMeters>763</AltitudeMeters>
            <DistanceMeters>NAN</DistanceMeters>
          </Trackpoint>
          <Trackpoint>
            <Time>2021-04-02T12:39:26.000Z</Time>
            <Position>
              <LatitudeDegrees>42.32125631533563137054443359375</LatitudeDegrees>
              <LongitudeDegrees>2.59344466030597686767578125</LongitudeDegrees>
            </Position>
            <AltitudeMeters>762.20001220703125</AltitudeMeters>
            <DistanceMeters>NAN</DistanceMeters>
          </Trackpoint>
          <Trackpoint>
            <Time>2021-04-02T12:39:27.000Z</Time>
            <Position>
              <LatitudeDegrees>42.32125296257436275482177734375</LatitudeDegrees>
              <LongitudeDegrees>2.5934384576976299285888671875</LongitudeDegrees>
            </Position>
            <AltitudeMeters>762</AltitudeMeters>
            <DistanceMeters>NAN</DistanceMeters>
          </Trackpoint>
          <Trackpoint>
            <Time>2021-04-02T12:39:28.000Z</Time>
            <Position>
              <LatitudeDegrees>42.32124391011893749237060546875</LatitudeDegrees>
              <LongitudeDegrees>2.59343368001282215118408203125</LongitudeDegrees>
            </Position>
            <AltitudeMeters>761.5999755859375</AltitudeMeters>
            <DistanceMeters>NAN</DistanceMeters>
          </Trackpoint>
          <Trackpoint>
            <Time>2021-04-02T12:39:29.000Z</Time>
            <Position>
              <LatitudeDegrees>42.32123301364481449127197265625</LatitudeDegrees>
              <LongitudeDegrees>2.59342915378510951995849609375</LongitudeDegrees>
            </Position>
            <AltitudeMeters>761.20001220703125</AltitudeMeters>
            <DistanceMeters>NAN</DistanceMeters>
          </Trackpoint>
          <Trackpoint>
            <Time>2021-04-02T12:39:31.000Z</Time>
            <Position>
              <LatitudeDegrees>42.32122144661843776702880859375</LatitudeDegrees>
              <LongitudeDegrees>2.59344373829662799835205078125</LongitudeDegrees>
            </Position>
            <AltitudeMeters>760.5999755859375</AltitudeMeters>
            <DistanceMeters>NAN</DistanceMeters>
          </Trackpoint>
          <Trackpoint>
            <Time>2021-04-02T12:39:32.000Z</Time>
            <Position>
              <LatitudeDegrees>42.32121960259974002838134765625</LatitudeDegrees>
              <LongitudeDegrees>2.59345195256173610687255859375</LongitudeDegrees>
            </Position>
            <AltitudeMeters>760.4000244140625</AltitudeMeters>
            <DistanceMeters>NAN</DistanceMeters>
          </Trackpoint>
          <Trackpoint>
            <Time>2021-04-02T12:39:35.000Z</Time>
            <Position>
              <LatitudeDegrees>42.32120216824114322662353515625</LatitudeDegrees>
              <LongitudeDegrees>2.59347223676741123199462890625</LongitudeDegrees>
            </Position>
            <AltitudeMeters>760</AltitudeMeters>
            <DistanceMeters>NAN</DistanceMeters>
          </Trackpoint>
          <Trackpoint>
            <Time>2021-04-02T12:39:37.000Z</Time>
            <Position>
              <LatitudeDegrees>42.32119780965149402618408203125</LatitudeDegrees>
              <LongitudeDegrees>2.5934927724301815032958984375</LongitudeDegrees>
            </Position>
            <AltitudeMeters>759.5999755859375</AltitudeMeters>
            <DistanceMeters>NAN</DistanceMeters>
          </Trackpoint>
          <Trackpoint>
            <Time>2021-04-02T12:39:38.000Z</Time>
            <Position>
              <LatitudeDegrees>42.32120401225984096527099609375</LatitudeDegrees>
              <LongitudeDegrees>2.5935014896094799041748046875</LongitudeDegrees>
            </Position>
            <AltitudeMeters>759.4000244140625</AltitudeMeters>
            <DistanceMeters>NAN</DistanceMeters>
          </Trackpoint>
          <Trackpoint>
            <Time>2021-04-02T12:39:39.000Z</Time>
            <Position>
              <LatitudeDegrees>42.321215160191059112548828125</LatitudeDegrees>
              <LongitudeDegrees>2.59350274689495563507080078125</LongitudeDegrees>
            </Position>
            <AltitudeMeters>758.79998779296875</AltitudeMeters>
            <DistanceMeters>NAN</DistanceMeters>
          </Trackpoint>
          <Trackpoint>
            <Time>2021-04-02T12:39:44.000Z</Time>
            <Position>
              <LatitudeDegrees>42.3212069459259510040283203125</LatitudeDegrees>
              <LongitudeDegrees>2.59355186484754085540771484375</LongitudeDegrees>
            </Position>
            <AltitudeMeters>758</AltitudeMeters>
            <DistanceMeters>NAN</DistanceMeters>
          </Trackpoint>
          <Trackpoint>
            <Time>2021-04-02T12:39:45.000Z</Time>
            <Position>
              <LatitudeDegrees>42.3212143220007419586181640625</LatitudeDegrees>
              <LongitudeDegrees>2.59356074966490268707275390625</LongitudeDegrees>
            </Position>
            <AltitudeMeters>757.79998779296875</AltitudeMeters>
            <DistanceMeters>NAN</DistanceMeters>
          </Trackpoint>
          <Trackpoint>
            <Time>2021-04-02T12:39:48.000Z</Time>
            <Position>
              <LatitudeDegrees>42.3212223686277866363525390625</LatitudeDegrees>
              <LongitudeDegrees>2.5935702212154865264892578125</LongitudeDegrees>
            </Position>
            <AltitudeMeters>757</AltitudeMeters>
            <DistanceMeters>NAN</DistanceMeters>
          </Trackpoint>
          <Trackpoint>
            <Time>2021-04-02T12:39:49.000Z</Time>
            <Position>
              <LatitudeDegrees>42.3212228715419769287109375</LatitudeDegrees>
              <LongitudeDegrees>2.59357474744319915771484375</LongitudeDegrees>
            </Position>
            <AltitudeMeters>756.79998779296875</AltitudeMeters>
            <DistanceMeters>NAN</DistanceMeters>
          </Trackpoint>
          <Trackpoint>
            <Time>2021-04-02T12:39:50.000Z</Time>
            <Position>
              <LatitudeDegrees>42.32122379355132579803466796875</LatitudeDegrees>
              <LongitudeDegrees>2.59358413517475128173828125</LongitudeDegrees>
            </Position>
            <AltitudeMeters>756.5999755859375</AltitudeMeters>
            <DistanceMeters>NAN</DistanceMeters>
          </Trackpoint>
          <Trackpoint>
            <Time>2021-04-02T12:39:53.000Z</Time>
            <Position>
              <LatitudeDegrees>42.3212166689336299896240234375</LatitudeDegrees>
              <LongitudeDegrees>2.59361690841615200042724609375</LongitudeDegrees>
            </Position>
            <AltitudeMeters>756.20001220703125</AltitudeMeters>
            <DistanceMeters>NAN</DistanceMeters>
          </Trackpoint>
          <Trackpoint>
            <Time>2021-04-02T12:39:57.000Z</Time>
            <Position>
              <LatitudeDegrees>42.32121817767620086669921875</LatitudeDegrees>
              <LongitudeDegrees>2.59363316930830478668212890625</LongitudeDegrees>
            </Position>
            <AltitudeMeters>755.5999755859375</AltitudeMeters>
            <DistanceMeters>NAN</DistanceMeters>
          </Trackpoint>
          <Trackpoint>
            <Time>2021-04-02T12:39:59.000Z</Time>
            <Position>
              <LatitudeDegrees>42.321208454668521881103515625</LatitudeDegrees>
              <LongitudeDegrees>2.59364607743918895721435546875</LongitudeDegrees>
            </Position>
            <AltitudeMeters>755</AltitudeMeters>
            <DistanceMeters>NAN</DistanceMeters>
          </Trackpoint>
          <Trackpoint>
            <Time>2021-04-02T12:40:01.000Z</Time>
            <Position>
              <LatitudeDegrees>42.3212148249149322509765625</LatitudeDegrees>
              <LongitudeDegrees>2.5936550460755825042724609375</LongitudeDegrees>
            </Position>
            <AltitudeMeters>754.4000244140625</AltitudeMeters>
            <DistanceMeters>NAN</DistanceMeters>
          </Trackpoint>
          <Trackpoint>
            <Time>2021-04-02T12:40:03.000Z</Time>
            <Position>
              <LatitudeDegrees>42.3212123103439807891845703125</LatitudeDegrees>
              <LongitudeDegrees>2.59366862475872039794921875</LongitudeDegrees>
            </Position>
            <AltitudeMeters>753.79998779296875</AltitudeMeters>
            <DistanceMeters>NAN</DistanceMeters>
          </Trackpoint>
          <Trackpoint>
            <Time>2021-04-02T12:40:07.000Z</Time>
            <Position>
              <LatitudeDegrees>42.32120099477469921112060546875</LatitudeDegrees>
              <LongitudeDegrees>2.59365211240947246551513671875</LongitudeDegrees>
            </Position>
            <AltitudeMeters>753.4000244140625</AltitudeMeters>
            <DistanceMeters>NAN</DistanceMeters>
          </Trackpoint>
          <Trackpoint>
            <Time>2021-04-02T12:40:10.000Z</Time>
            <Position>
              <LatitudeDegrees>42.32119797728955745697021484375</LatitudeDegrees>
              <LongitudeDegrees>2.5936275534331798553466796875</LongitudeDegrees>
            </Position>
            <AltitudeMeters>752.79998779296875</AltitudeMeters>
            <DistanceMeters>NAN</DistanceMeters>
          </Trackpoint>
          <Trackpoint>
            <Time>2021-04-02T12:40:12.000Z</Time>
            <Position>
              <LatitudeDegrees>42.3212109692394733428955078125</LatitudeDegrees>
              <LongitudeDegrees>2.593604587018489837646484375</LongitudeDegrees>
            </Position>
            <AltitudeMeters>752.4000244140625</AltitudeMeters>
            <DistanceMeters>NAN</DistanceMeters>
          </Trackpoint>
          <Trackpoint>
            <Time>2021-04-02T12:40:13.000Z</Time>
            <Position>
              <LatitudeDegrees>42.32121725566685199737548828125</LatitudeDegrees>
              <LongitudeDegrees>2.59359595365822315216064453125</LongitudeDegrees>
            </Position>
            <AltitudeMeters>752.4000244140625</AltitudeMeters>
            <DistanceMeters>NAN</DistanceMeters>
          </Trackpoint>
          <Trackpoint>
            <Time>2021-04-02T12:40:18.000Z</Time>
            <Position>
              <LatitudeDegrees>42.3212139867246150970458984375</LatitudeDegrees>
              <LongitudeDegrees>2.59360282681882381439208984375</LongitudeDegrees>
            </Position>
            <AltitudeMeters>751.4000244140625</AltitudeMeters>
            <DistanceMeters>NAN</DistanceMeters>
          </Trackpoint>
          <Trackpoint>
            <Time>2021-04-02T12:40:19.000Z</Time>
            <Position>
              <LatitudeDegrees>42.3212149925529956817626953125</LatitudeDegrees>
              <LongitudeDegrees>2.59360265918076038360595703125</LongitudeDegrees>
            </Position>
            <AltitudeMeters>751.20001220703125</AltitudeMeters>
            <DistanceMeters>NAN</DistanceMeters>
          </Trackpoint>
          <Trackpoint>
            <Time>2021-04-02T12:40:23.000Z</Time>
            <Position>
              <LatitudeDegrees>42.32121147215366363525390625</LatitudeDegrees>
              <LongitudeDegrees>2.5935926847159862518310546875</LongitudeDegrees>
            </Position>
            <AltitudeMeters>750.5999755859375</AltitudeMeters>
            <DistanceMeters>NAN</DistanceMeters>
          </Trackpoint>
          <Trackpoint>
            <Time>2021-04-02T12:40:30.000Z</Time>
            <Position>
              <LatitudeDegrees>42.32121189124882221221923828125</LatitudeDegrees>
              <LongitudeDegrees>2.5935423932969570159912109375</LongitudeDegrees>
            </Position>
            <AltitudeMeters>750.4000244140625</AltitudeMeters>
            <DistanceMeters>NAN</DistanceMeters>
          </Trackpoint>
          <Trackpoint>
            <Time>2021-04-02T12:40:38.000Z</Time>
            <Position>
              <LatitudeDegrees>42.32122396118938922882080078125</LatitudeDegrees>
              <LongitudeDegrees>2.59348162449896335601806640625</LongitudeDegrees>
            </Position>
            <AltitudeMeters>750.4000244140625</AltitudeMeters>
            <DistanceMeters>NAN</DistanceMeters>
          </Trackpoint>
          <Trackpoint>
            <Time>2021-04-02T12:40:44.000Z</Time>
            <Position>
              <LatitudeDegrees>42.32121574692428112030029296875</LatitudeDegrees>
              <LongitudeDegrees>2.59348598308861255645751953125</LongitudeDegrees>
            </Position>
            <AltitudeMeters>750.20001220703125</AltitudeMeters>
            <DistanceMeters>NAN</DistanceMeters>
          </Trackpoint>
          <Trackpoint>
            <Time>2021-04-02T12:40:45.000Z</Time>
            <Position>
              <LatitudeDegrees>42.3212119750678539276123046875</LatitudeDegrees>
              <LongitudeDegrees>2.593490593135356903076171875</LongitudeDegrees>
            </Position>
            <AltitudeMeters>750.20001220703125</AltitudeMeters>
            <DistanceMeters>NAN</DistanceMeters>
          </Trackpoint>
          <Trackpoint>
            <Time>2021-04-02T12:40:50.000Z</Time>
            <Position>
              <LatitudeDegrees>42.3211895115673542022705078125</LatitudeDegrees>
              <LongitudeDegrees>2.5934962928295135498046875</LongitudeDegrees>
            </Position>
            <AltitudeMeters>750</AltitudeMeters>
            <DistanceMeters>NAN</DistanceMeters>
          </Trackpoint>
          <Trackpoint>
            <Time>2021-04-02T12:40:52.000Z</Time>
            <Position>
              <LatitudeDegrees>42.321158833801746368408203125</LatitudeDegrees>
              <LongitudeDegrees>2.59350609965622425079345703125</LongitudeDegrees>
            </Position>
            <AltitudeMeters>749.4000244140625</AltitudeMeters>
            <DistanceMeters>NAN</DistanceMeters>
          </Trackpoint>
          <Trackpoint>
            <Time>2021-04-02T12:40:53.000Z</Time>
            <Position>
              <LatitudeDegrees>42.32114936225116252899169921875</LatitudeDegrees>
              <LongitudeDegrees>2.59350299835205078125</LongitudeDegrees>
            </Position>
            <AltitudeMeters>749</AltitudeMeters>
            <DistanceMeters>NAN</DistanceMeters>
          </Trackpoint>
          <Trackpoint>
            <Time>2021-04-02T12:40:58.000Z</Time>
            <Position>
              <LatitudeDegrees>42.32112270779907703399658203125</LatitudeDegrees>
              <LongitudeDegrees>2.5935313291847705841064453125</LongitudeDegrees>
            </Position>
            <AltitudeMeters>747.79998779296875</AltitudeMeters>
            <DistanceMeters>NAN</DistanceMeters>
          </Trackpoint>
          <Trackpoint>
            <Time>2021-04-02T12:41:05.000Z</Time>
            <Position>
              <LatitudeDegrees>42.3210849054157733917236328125</LatitudeDegrees>
              <LongitudeDegrees>2.59353878907859325408935546875</LongitudeDegrees>
            </Position>
            <AltitudeMeters>746.79998779296875</AltitudeMeters>
            <DistanceMeters>NAN</DistanceMeters>
          </Trackpoint>
          <Trackpoint>
            <Time>2021-04-02T12:41:09.000Z</Time>
            <Position>
              <LatitudeDegrees>42.32109823264181613922119140625</LatitudeDegrees>
              <LongitudeDegrees>2.5935521163046360015869140625</LongitudeDegrees>
            </Position>
            <AltitudeMeters>746</AltitudeMeters>
            <DistanceMeters>NAN</DistanceMeters>
          </Trackpoint>
          <Trackpoint>
            <Time>2021-04-02T12:41:12.000Z</Time>
            <Position>
              <LatitudeDegrees>42.32110611163079738616943359375</LatitudeDegrees>
              <LongitudeDegrees>2.59356561116874217987060546875</LongitudeDegrees>
            </Position>
            <AltitudeMeters>745.79998779296875</AltitudeMeters>
            <DistanceMeters>NAN</DistanceMeters>
          </Trackpoint>
          <Trackpoint>
            <Time>2021-04-02T12:41:15.000Z</Time>
            <Position>
              <LatitudeDegrees>42.32110728509724140167236328125</LatitudeDegrees>
              <LongitudeDegrees>2.59357877075672149658203125</LongitudeDegrees>
            </Position>
            <AltitudeMeters>745.5999755859375</AltitudeMeters>
            <DistanceMeters>NAN</DistanceMeters>
          </Trackpoint>
          <Trackpoint>
            <Time>2021-04-02T12:41:22.000Z</Time>
            <Position>
              <LatitudeDegrees>42.32109840027987957000732421875</LatitudeDegrees>
              <LongitudeDegrees>2.59362327866256237030029296875</LongitudeDegrees>
            </Position>
            <AltitudeMeters>744.5999755859375</AltitudeMeters>
            <DistanceMeters>NAN</DistanceMeters>
          </Trackpoint>
          <Trackpoint>
            <Time>2021-04-02T12:41:27.000Z</Time>
            <Position>
              <LatitudeDegrees>42.3211197741329669952392578125</LatitudeDegrees>
              <LongitudeDegrees>2.5936711393296718597412109375</LongitudeDegrees>
            </Position>
            <AltitudeMeters>743.5999755859375</AltitudeMeters>
            <DistanceMeters>NAN</DistanceMeters>
          </Trackpoint>
          <Trackpoint>
            <Time>2021-04-02T12:41:28.000Z</Time>
            <Position>
              <LatitudeDegrees>42.321118600666522979736328125</LatitudeDegrees>
              <LongitudeDegrees>2.59367625229060649871826171875</LongitudeDegrees>
            </Position>
            <AltitudeMeters>743.5999755859375</AltitudeMeters>
            <DistanceMeters>NAN</DistanceMeters>
          </Trackpoint>
          <Trackpoint>
            <Time>2021-04-02T12:41:32.000Z</Time>
            <Position>
              <LatitudeDegrees>42.3211211152374744415283203125</LatitudeDegrees>
              <LongitudeDegrees>2.593687064945697784423828125</LongitudeDegrees>
            </Position>
            <AltitudeMeters>742.5999755859375</AltitudeMeters>
            <DistanceMeters>NAN</DistanceMeters>
          </Trackpoint>
          <Trackpoint>
            <Time>2021-04-02T12:41:33.000Z</Time>
            <Position>
              <LatitudeDegrees>42.3211211152374744415283203125</LatitudeDegrees>
              <LongitudeDegrees>2.59368647821247577667236328125</LongitudeDegrees>
            </Position>
            <AltitudeMeters>742.4000244140625</AltitudeMeters>
            <DistanceMeters>NAN</DistanceMeters>
          </Trackpoint>
          <Trackpoint>
            <Time>2021-04-02T12:41:38.000Z</Time>
            <Position>
              <LatitudeDegrees>42.32110778801143169403076171875</LatitudeDegrees>
              <LongitudeDegrees>2.59371849708259105682373046875</LongitudeDegrees>
            </Position>
            <AltitudeMeters>741.20001220703125</AltitudeMeters>
            <DistanceMeters>NAN</DistanceMeters>
          </Trackpoint>
          <Trackpoint>
            <Time>2021-04-02T12:41:43.000Z</Time>
            <Position>
              <LatitudeDegrees>42.321087084710597991943359375</LatitudeDegrees>
              <LongitudeDegrees>2.5937593169510364532470703125</LongitudeDegrees>
            </Position>
            <AltitudeMeters>740</AltitudeMeters>
            <DistanceMeters>NAN</DistanceMeters>
          </Trackpoint>
          <Trackpoint>
            <Time>2021-04-02T12:41:47.000Z</Time>
            <Position>
              <LatitudeDegrees>42.321082390844821929931640625</LatitudeDegrees>
              <LongitudeDegrees>2.593781948089599609375</LongitudeDegrees>
            </Position>
            <AltitudeMeters>739</AltitudeMeters>
            <DistanceMeters>NAN</DistanceMeters>
          </Trackpoint>
          <Trackpoint>
            <Time>2021-04-02T12:41:49.000Z</Time>
            <Position>
              <LatitudeDegrees>42.32107392512261867523193359375</LatitudeDegrees>
              <LongitudeDegrees>2.593763172626495361328125</LongitudeDegrees>
            </Position>
            <AltitudeMeters>738.79998779296875</AltitudeMeters>
            <DistanceMeters>NAN</DistanceMeters>
          </Trackpoint>
          <Trackpoint>
            <Time>2021-04-02T12:41:53.000Z</Time>
            <Position>
              <LatitudeDegrees>42.32105682604014873504638671875</LatitudeDegrees>
              <LongitudeDegrees>2.59373660199344158172607421875</LongitudeDegrees>
            </Position>
            <AltitudeMeters>737.5999755859375</AltitudeMeters>
            <DistanceMeters>NAN</DistanceMeters>
          </Trackpoint>
          <Trackpoint>
            <Time>2021-04-02T12:41:58.000Z</Time>
            <Position>
              <LatitudeDegrees>42.3210168443620204925537109375</LatitudeDegrees>
              <LongitudeDegrees>2.593719922006130218505859375</LongitudeDegrees>
            </Position>
            <AltitudeMeters>736.4000244140625</AltitudeMeters>
            <DistanceMeters>NAN</DistanceMeters>
          </Trackpoint>
          <Trackpoint>
            <Time>2021-04-02T12:42:00.000Z</Time>
            <Position>
              <LatitudeDegrees>42.321003936231136322021484375</LatitudeDegrees>
              <LongitudeDegrees>2.59371682070195674896240234375</LongitudeDegrees>
            </Position>
            <AltitudeMeters>736</AltitudeMeters>
            <DistanceMeters>NAN</DistanceMeters>
          </Trackpoint>
          <Trackpoint>
            <Time>2021-04-02T12:42:04.000Z</Time>
            <Position>
              <LatitudeDegrees>42.32099563814699649810791015625</LatitudeDegrees>
              <LongitudeDegrees>2.59371514432132244110107421875</LongitudeDegrees>
            </Position>
            <AltitudeMeters>735.20001220703125</AltitudeMeters>
            <DistanceMeters>NAN</DistanceMeters>
          </Trackpoint>
          <Trackpoint>
            <Time>2021-04-02T12:42:06.000Z</Time>
            <Position>
              <LatitudeDegrees>42.32098155654966831207275390625</LatitudeDegrees>
              <LongitudeDegrees>2.5937210954725742340087890625</LongitudeDegrees>
            </Position>
            <AltitudeMeters>735</AltitudeMeters>
            <DistanceMeters>NAN</DistanceMeters>
          </Trackpoint>
          <Trackpoint>
            <Time>2021-04-02T12:42:11.000Z</Time>
            <Position>
              <LatitudeDegrees>42.3209316842257976531982421875</LatitudeDegrees>
              <LongitudeDegrees>2.59370894171297550201416015625</LongitudeDegrees>
            </Position>
            <AltitudeMeters>734.20001220703125</AltitudeMeters>
            <DistanceMeters>NAN</DistanceMeters>
          </Trackpoint>
          <Trackpoint>
            <Time>2021-04-02T12:42:13.000Z</Time>
            <Position>
              <LatitudeDegrees>42.320930175483226776123046875</LatitudeDegrees>
              <LongitudeDegrees>2.5937033258378505706787109375</LongitudeDegrees>
            </Position>
            <AltitudeMeters>733.79998779296875</AltitudeMeters>
            <DistanceMeters>NAN</DistanceMeters>
          </Trackpoint>
          <Trackpoint>
            <Time>2021-04-02T12:42:16.000Z</Time>
            <Position>
              <LatitudeDegrees>42.3209353722631931304931640625</LatitudeDegrees>
              <LongitudeDegrees>2.59370860643684864044189453125</LongitudeDegrees>
            </Position>
            <AltitudeMeters>733.20001220703125</AltitudeMeters>
            <DistanceMeters>NAN</DistanceMeters>
          </Trackpoint>
          <Trackpoint>
            <Time>2021-04-02T12:42:18.000Z</Time>
            <Position>
              <LatitudeDegrees>42.32093830592930316925048828125</LatitudeDegrees>
              <LongitudeDegrees>2.5937187485396862030029296875</LongitudeDegrees>
            </Position>
            <AltitudeMeters>733</AltitudeMeters>
            <DistanceMeters>NAN</DistanceMeters>
          </Trackpoint>
          <Trackpoint>
            <Time>2021-04-02T12:42:19.000Z</Time>
            <Position>
              <LatitudeDegrees>42.32093243859708309173583984375</LatitudeDegrees>
              <LongitudeDegrees>2.5937324948608875274658203125</LongitudeDegrees>
            </Position>
            <AltitudeMeters>732.5999755859375</AltitudeMeters>
            <DistanceMeters>NAN</DistanceMeters>
          </Trackpoint>
          <Trackpoint>
            <Time>2021-04-02T12:42:20.000Z</Time>
            <Position>
              <LatitudeDegrees>42.32093386352062225341796875</LatitudeDegrees>
              <LongitudeDegrees>2.5937335006892681121826171875</LongitudeDegrees>
            </Position>
            <AltitudeMeters>732.4000244140625</AltitudeMeters>
            <DistanceMeters>NAN</DistanceMeters>
          </Trackpoint>
          <Trackpoint>
            <Time>2021-04-02T12:42:21.000Z</Time>
            <Position>
              <LatitudeDegrees>42.3209326900541782379150390625</LatitudeDegrees>
              <LongitudeDegrees>2.5937432236969470977783203125</LongitudeDegrees>
            </Position>
            <AltitudeMeters>732.20001220703125</AltitudeMeters>
            <DistanceMeters>NAN</DistanceMeters>
          </Trackpoint>
          <Trackpoint>
            <Time>2021-04-02T12:42:22.000Z</Time>
            <Position>
              <LatitudeDegrees>42.32093042694032192230224609375</LatitudeDegrees>
              <LongitudeDegrees>2.59374649263918399810791015625</LongitudeDegrees>
            </Position>
            <AltitudeMeters>732</AltitudeMeters>
            <DistanceMeters>NAN</DistanceMeters>
          </Trackpoint>
          <Trackpoint>
            <Time>2021-04-02T12:42:23.000Z</Time>
            <Position>
              <LatitudeDegrees>42.32092942111194133758544921875</LatitudeDegrees>
              <LongitudeDegrees>2.59374867193400859832763671875</LongitudeDegrees>
            </Position>
            <AltitudeMeters>731.79998779296875</AltitudeMeters>
            <DistanceMeters>NAN</DistanceMeters>
          </Trackpoint>
          <Trackpoint>
            <Time>2021-04-02T12:42:27.000Z</Time>
            <Position>
              <LatitudeDegrees>42.32092455960810184478759765625</LatitudeDegrees>
              <LongitudeDegrees>2.5937438942492008209228515625</LongitudeDegrees>
            </Position>
            <AltitudeMeters>731</AltitudeMeters>
            <DistanceMeters>NAN</DistanceMeters>
          </Trackpoint>
          <Trackpoint>
            <Time>2021-04-02T12:42:34.000Z</Time>
            <Position>
              <LatitudeDegrees>42.32090704143047332763671875</LatitudeDegrees>
              <LongitudeDegrees>2.59369075298309326171875</LongitudeDegrees>
            </Position>
            <AltitudeMeters>730</AltitudeMeters>
            <DistanceMeters>NAN</DistanceMeters>
          </Trackpoint>
          <Trackpoint>
            <Time>2021-04-02T12:42:38.000Z</Time>
            <Position>
              <LatitudeDegrees>42.32090963982045650482177734375</LatitudeDegrees>
              <LongitudeDegrees>2.59368605911731719970703125</LongitudeDegrees>
            </Position>
            <AltitudeMeters>729.20001220703125</AltitudeMeters>
            <DistanceMeters>NAN</DistanceMeters>
          </Trackpoint>
          <Trackpoint>
            <Time>2021-04-02T12:42:41.000Z</Time>
            <Position>
              <LatitudeDegrees>42.32091508805751800537109375</LatitudeDegrees>
              <LongitudeDegrees>2.59368765167891979217529296875</LongitudeDegrees>
            </Position>
            <AltitudeMeters>729.20001220703125</AltitudeMeters>
            <DistanceMeters>NAN</DistanceMeters>
          </Trackpoint>
          <Trackpoint>
            <Time>2021-04-02T12:42:44.000Z</Time>
            <Position>
              <LatitudeDegrees>42.32091508805751800537109375</LatitudeDegrees>
              <LongitudeDegrees>2.59368765167891979217529296875</LongitudeDegrees>
            </Position>
            <AltitudeMeters>728.79998779296875</AltitudeMeters>
            <DistanceMeters>NAN</DistanceMeters>
          </Trackpoint>
          <Trackpoint>
            <Time>2021-04-02T12:42:52.000Z</Time>
            <Position>
              <LatitudeDegrees>42.32090972363948822021484375</LatitudeDegrees>
              <LongitudeDegrees>2.59368681348860263824462890625</LongitudeDegrees>
            </Position>
            <AltitudeMeters>727.79998779296875</AltitudeMeters>
            <DistanceMeters>NAN</DistanceMeters>
          </Trackpoint>
          <Trackpoint>
            <Time>2021-04-02T12:42:53.000Z</Time>
            <Position>
              <LatitudeDegrees>42.3209090530872344970703125</LatitudeDegrees>
              <LongitudeDegrees>2.59368631057441234588623046875</LongitudeDegrees>
            </Position>
            <AltitudeMeters>727.79998779296875</AltitudeMeters>
            <DistanceMeters>NAN</DistanceMeters>
          </Trackpoint>
          <Trackpoint>
            <Time>2021-04-02T12:42:56.000Z</Time>
            <Position>
              <LatitudeDegrees>42.320906706154346466064453125</LatitudeDegrees>
              <LongitudeDegrees>2.59368446655571460723876953125</LongitudeDegrees>
            </Position>
            <AltitudeMeters>727.5999755859375</AltitudeMeters>
            <DistanceMeters>NAN</DistanceMeters>
          </Trackpoint>
          <Trackpoint>
            <Time>2021-04-02T12:43:01.000Z</Time>
            <Position>
              <LatitudeDegrees>42.32090075500309467315673828125</LatitudeDegrees>
              <LongitudeDegrees>2.593656890094280242919921875</LongitudeDegrees>
            </Position>
            <AltitudeMeters>726.5999755859375</AltitudeMeters>
            <DistanceMeters>NAN</DistanceMeters>
          </Trackpoint>
          <Trackpoint>
            <Time>2021-04-02T12:43:05.000Z</Time>
            <Position>
              <LatitudeDegrees>42.32089472003281116485595703125</LatitudeDegrees>
              <LongitudeDegrees>2.59365663863718509674072265625</LongitudeDegrees>
            </Position>
            <AltitudeMeters>725.5999755859375</AltitudeMeters>
            <DistanceMeters>NAN</DistanceMeters>
          </Trackpoint>
          <Trackpoint>
            <Time>2021-04-02T12:43:15.000Z</Time>
            <Position>
              <LatitudeDegrees>42.32086001895368099212646484375</LatitudeDegrees>
              <LongitudeDegrees>2.59365663863718509674072265625</LongitudeDegrees>
            </Position>
            <AltitudeMeters>724.5999755859375</AltitudeMeters>
            <DistanceMeters>NAN</DistanceMeters>
          </Trackpoint>
          <Trackpoint>
            <Time>2021-04-02T12:43:20.000Z</Time>
            <Position>
              <LatitudeDegrees>42.32083135284483432769775390625</LatitudeDegrees>
              <LongitudeDegrees>2.59367340244352817535400390625</LongitudeDegrees>
            </Position>
            <AltitudeMeters>723.20001220703125</AltitudeMeters>
            <DistanceMeters>NAN</DistanceMeters>
          </Trackpoint>
          <Trackpoint>
            <Time>2021-04-02T12:43:25.000Z</Time>
            <Position>
              <LatitudeDegrees>42.3207563348114490509033203125</LatitudeDegrees>
              <LongitudeDegrees>2.5936853885650634765625</LongitudeDegrees>
            </Position>
            <AltitudeMeters>722.20001220703125</AltitudeMeters>
            <DistanceMeters>NAN</DistanceMeters>
          </Trackpoint>
          <Trackpoint>
            <Time>2021-04-02T12:43:27.000Z</Time>
            <Position>
              <LatitudeDegrees>42.3207258246839046478271484375</LatitudeDegrees>
              <LongitudeDegrees>2.593697793781757354736328125</LongitudeDegrees>
            </Position>
            <AltitudeMeters>721.79998779296875</AltitudeMeters>
            <DistanceMeters>NAN</DistanceMeters>
          </Trackpoint>
          <Trackpoint>
            <Time>2021-04-02T12:43:28.000Z</Time>
            <Position>
              <LatitudeDegrees>42.32071383856236934661865234375</LatitudeDegrees>
              <LongitudeDegrees>2.59370709769427776336669921875</LongitudeDegrees>
            </Position>
            <AltitudeMeters>721.79998779296875</AltitudeMeters>
            <DistanceMeters>NAN</DistanceMeters>
          </Trackpoint>
          <Trackpoint>
            <Time>2021-04-02T12:43:30.000Z</Time>
            <Position>
              <LatitudeDegrees>42.3206916265189647674560546875</LatitudeDegrees>
              <LongitudeDegrees>2.5937345065176486968994140625</LongitudeDegrees>
            </Position>
            <AltitudeMeters>721.4000244140625</AltitudeMeters>
            <DistanceMeters>NAN</DistanceMeters>
          </Trackpoint>
          <Trackpoint>
            <Time>2021-04-02T12:43:31.000Z</Time>
            <Position>
              <LatitudeDegrees>42.320688106119632720947265625</LatitudeDegrees>
              <LongitudeDegrees>2.59374297223985195159912109375</LongitudeDegrees>
            </Position>
            <AltitudeMeters>721</AltitudeMeters>
            <DistanceMeters>NAN</DistanceMeters>
          </Trackpoint>
          <Trackpoint>
            <Time>2021-04-02T12:43:32.000Z</Time>
            <Position>
              <LatitudeDegrees>42.3206922970712184906005859375</LatitudeDegrees>
              <LongitudeDegrees>2.5937445648014545440673828125</LongitudeDegrees>
            </Position>
            <AltitudeMeters>720.79998779296875</AltitudeMeters>
            <DistanceMeters>NAN</DistanceMeters>
          </Trackpoint>
          <Trackpoint>
            <Time>2021-04-02T12:43:33.000Z</Time>
            <Position>
              <LatitudeDegrees>42.32069271616637706756591796875</LatitudeDegrees>
              <LongitudeDegrees>2.59374716319143772125244140625</LongitudeDegrees>
            </Position>
            <AltitudeMeters>720.5999755859375</AltitudeMeters>
            <DistanceMeters>NAN</DistanceMeters>
          </Trackpoint>
          <Trackpoint>
            <Time>2021-04-02T12:43:36.000Z</Time>
            <Position>
              <LatitudeDegrees>42.3206631280481815338134765625</LatitudeDegrees>
              <LongitudeDegrees>2.5937787629663944244384765625</LongitudeDegrees>
            </Position>
            <AltitudeMeters>720.4000244140625</AltitudeMeters>
            <DistanceMeters>NAN</DistanceMeters>
          </Trackpoint>
          <Trackpoint>
            <Time>2021-04-02T12:43:38.000Z</Time>
            <Position>
              <LatitudeDegrees>42.3206383176147937774658203125</LatitudeDegrees>
              <LongitudeDegrees>2.59379443712532520294189453125</LongitudeDegrees>
            </Position>
            <AltitudeMeters>720</AltitudeMeters>
            <DistanceMeters>NAN</DistanceMeters>
          </Trackpoint>
          <Trackpoint>
            <Time>2021-04-02T12:43:40.000Z</Time>
            <Position>
              <LatitudeDegrees>42.3206104896962642669677734375</LatitudeDegrees>
              <LongitudeDegrees>2.593799717724323272705078125</LongitudeDegrees>
            </Position>
            <AltitudeMeters>719.5999755859375</AltitudeMeters>
            <DistanceMeters>NAN</DistanceMeters>
          </Trackpoint>
          <Trackpoint>
            <Time>2021-04-02T12:43:44.000Z</Time>
            <Position>
              <LatitudeDegrees>42.3205806501209735870361328125</LatitudeDegrees>
              <LongitudeDegrees>2.593816816806793212890625</LongitudeDegrees>
            </Position>
            <AltitudeMeters>718.79998779296875</AltitudeMeters>
            <DistanceMeters>NAN</DistanceMeters>
          </Trackpoint>
          <Trackpoint>
            <Time>2021-04-02T12:43:45.000Z</Time>
            <Position>
              <LatitudeDegrees>42.3205823265016078948974609375</LatitudeDegrees>
              <LongitudeDegrees>2.5938173197209835052490234375</LongitudeDegrees>
            </Position>
            <AltitudeMeters>718.4000244140625</AltitudeMeters>
            <DistanceMeters>NAN</DistanceMeters>
          </Trackpoint>
          <Trackpoint>
            <Time>2021-04-02T12:43:46.000Z</Time>
            <Position>
              <LatitudeDegrees>42.320582829415798187255859375</LatitudeDegrees>
              <LongitudeDegrees>2.593820504844188690185546875</LongitudeDegrees>
            </Position>
            <AltitudeMeters>718</AltitudeMeters>
            <DistanceMeters>NAN</DistanceMeters>
          </Trackpoint>
          <Trackpoint>
            <Time>2021-04-02T12:43:47.000Z</Time>
            <Position>
              <LatitudeDegrees>42.3205776326358318328857421875</LatitudeDegrees>
              <LongitudeDegrees>2.593827210366725921630859375</LongitudeDegrees>
            </Position>
            <AltitudeMeters>717.5999755859375</AltitudeMeters>
            <DistanceMeters>NAN</DistanceMeters>
          </Trackpoint>
          <Trackpoint>
            <Time>2021-04-02T12:43:49.000Z</Time>
            <Position>
              <LatitudeDegrees>42.320584170520305633544921875</LatitudeDegrees>
              <LongitudeDegrees>2.593824863433837890625</LongitudeDegrees>
            </Position>
            <AltitudeMeters>717.4000244140625</AltitudeMeters>
            <DistanceMeters>NAN</DistanceMeters>
          </Trackpoint>
          <Trackpoint>
            <Time>2021-04-02T12:43:50.000Z</Time>
            <Position>
              <LatitudeDegrees>42.3205873556435108184814453125</LatitudeDegrees>
              <LongitudeDegrees>2.5938200019299983978271484375</LongitudeDegrees>
            </Position>
            <AltitudeMeters>717.20001220703125</AltitudeMeters>
            <DistanceMeters>NAN</DistanceMeters>
          </Trackpoint>
          <Trackpoint>
            <Time>2021-04-02T12:43:53.000Z</Time>
            <Position>
              <LatitudeDegrees>42.320591546595096588134765625</LatitudeDegrees>
              <LongitudeDegrees>2.5938200019299983978271484375</LongitudeDegrees>
            </Position>
            <AltitudeMeters>716.4000244140625</AltitudeMeters>
            <DistanceMeters>NAN</DistanceMeters>
          </Trackpoint>
          <Trackpoint>
            <Time>2021-04-02T12:43:54.000Z</Time>
            <Position>
              <LatitudeDegrees>42.32058861292898654937744140625</LatitudeDegrees>
              <LongitudeDegrees>2.593822181224822998046875</LongitudeDegrees>
            </Position>
            <AltitudeMeters>716</AltitudeMeters>
            <DistanceMeters>NAN</DistanceMeters>
          </Trackpoint>
          <Trackpoint>
            <Time>2021-04-02T12:43:55.000Z</Time>
            <Position>
              <LatitudeDegrees>42.3205898702144622802734375</LatitudeDegrees>
              <LongitudeDegrees>2.59382427670061588287353515625</LongitudeDegrees>
            </Position>
            <AltitudeMeters>715.79998779296875</AltitudeMeters>
            <DistanceMeters>NAN</DistanceMeters>
          </Trackpoint>
          <Trackpoint>
            <Time>2021-04-02T12:43:57.000Z</Time>
            <Position>
              <LatitudeDegrees>42.320592217147350311279296875</LatitudeDegrees>
              <LongitudeDegrees>2.5938535295426845550537109375</LongitudeDegrees>
            </Position>
            <AltitudeMeters>715.79998779296875</AltitudeMeters>
            <DistanceMeters>NAN</DistanceMeters>
          </Trackpoint>
          <Trackpoint>
            <Time>2021-04-02T12:43:59.000Z</Time>
            <Position>
              <LatitudeDegrees>42.32060152105987071990966796875</LatitudeDegrees>
              <LongitudeDegrees>2.59387255646288394927978515625</LongitudeDegrees>
            </Position>
            <AltitudeMeters>715.5999755859375</AltitudeMeters>
            <DistanceMeters>NAN</DistanceMeters>
          </Trackpoint>
          <Trackpoint>
            <Time>2021-04-02T12:44:01.000Z</Time>
            <Position>
              <LatitudeDegrees>42.32061761431396007537841796875</LatitudeDegrees>
              <LongitudeDegrees>2.59388211183249950408935546875</LongitudeDegrees>
            </Position>
            <AltitudeMeters>715.4000244140625</AltitudeMeters>
            <DistanceMeters>NAN</DistanceMeters>
          </Trackpoint>
          <Trackpoint>
            <Time>2021-04-02T12:44:07.000Z</Time>
            <Position>
              <LatitudeDegrees>42.320574112236499786376953125</LatitudeDegrees>
              <LongitudeDegrees>2.5938825309276580810546875</LongitudeDegrees>
            </Position>
            <AltitudeMeters>714.20001220703125</AltitudeMeters>
            <DistanceMeters>NAN</DistanceMeters>
          </Trackpoint>
          <Trackpoint>
            <Time>2021-04-02T12:44:13.000Z</Time>
            <Position>
              <LatitudeDegrees>42.32054603286087512969970703125</LatitudeDegrees>
              <LongitudeDegrees>2.59385009296238422393798828125</LongitudeDegrees>
            </Position>
            <AltitudeMeters>713.20001220703125</AltitudeMeters>
            <DistanceMeters>NAN</DistanceMeters>
          </Trackpoint>
          <Trackpoint>
            <Time>2021-04-02T12:44:14.000Z</Time>
            <Position>
              <LatitudeDegrees>42.320542596280574798583984375</LatitudeDegrees>
              <LongitudeDegrees>2.59384028613567352294921875</LongitudeDegrees>
            </Position>
            <AltitudeMeters>712.79998779296875</AltitudeMeters>
            <DistanceMeters>NAN</DistanceMeters>
          </Trackpoint>
          <Trackpoint>
            <Time>2021-04-02T12:44:18.000Z</Time>
            <Position>
              <LatitudeDegrees>42.3205253295600414276123046875</LatitudeDegrees>
              <LongitudeDegrees>2.5938381068408489227294921875</LongitudeDegrees>
            </Position>
            <AltitudeMeters>711.79998779296875</AltitudeMeters>
            <DistanceMeters>NAN</DistanceMeters>
          </Trackpoint>
          <Trackpoint>
            <Time>2021-04-02T12:44:20.000Z</Time>
            <Position>
              <LatitudeDegrees>42.32051468454301357269287109375</LatitudeDegrees>
              <LongitudeDegrees>2.59383617900311946868896484375</LongitudeDegrees>
            </Position>
            <AltitudeMeters>711.20001220703125</AltitudeMeters>
            <DistanceMeters>NAN</DistanceMeters>
          </Trackpoint>
          <Trackpoint>
            <Time>2021-04-02T12:44:22.000Z</Time>
            <Position>
              <LatitudeDegrees>42.3205129243433475494384765625</LatitudeDegrees>
              <LongitudeDegrees>2.59384162724018096923828125</LongitudeDegrees>
            </Position>
            <AltitudeMeters>710.79998779296875</AltitudeMeters>
            <DistanceMeters>NAN</DistanceMeters>
          </Trackpoint>
          <Trackpoint>
            <Time>2021-04-02T12:44:24.000Z</Time>
            <Position>
              <LatitudeDegrees>42.3204975016415119171142578125</LatitudeDegrees>
              <LongitudeDegrees>2.59383014403283596038818359375</LongitudeDegrees>
            </Position>
            <AltitudeMeters>710.20001220703125</AltitudeMeters>
            <DistanceMeters>NAN</DistanceMeters>
          </Trackpoint>
          <Trackpoint>
            <Time>2021-04-02T12:44:25.000Z</Time>
            <Position>
              <LatitudeDegrees>42.32049155049026012420654296875</LatitudeDegrees>
              <LongitudeDegrees>2.59382192976772785186767578125</LongitudeDegrees>
            </Position>
            <AltitudeMeters>710</AltitudeMeters>
            <DistanceMeters>NAN</DistanceMeters>
          </Trackpoint>
          <Trackpoint>
            <Time>2021-04-02T12:44:26.000Z</Time>
            <Position>
              <LatitudeDegrees>42.32048400677740573883056640625</LatitudeDegrees>
              <LongitudeDegrees>2.59380944073200225830078125</LongitudeDegrees>
            </Position>
            <AltitudeMeters>710</AltitudeMeters>
            <DistanceMeters>NAN</DistanceMeters>
          </Trackpoint>
          <Trackpoint>
            <Time>2021-04-02T12:44:28.000Z</Time>
            <Position>
              <LatitudeDegrees>42.32047126628458499908447265625</LatitudeDegrees>
              <LongitudeDegrees>2.5938008911907672882080078125</LongitudeDegrees>
            </Position>
            <AltitudeMeters>709.5999755859375</AltitudeMeters>
            <DistanceMeters>NAN</DistanceMeters>
          </Trackpoint>
          <Trackpoint>
            <Time>2021-04-02T12:44:34.000Z</Time>
            <Position>
              <LatitudeDegrees>42.32046305201947689056396484375</LatitudeDegrees>
              <LongitudeDegrees>2.5938143022358417510986328125</LongitudeDegrees>
            </Position>
            <AltitudeMeters>708.4000244140625</AltitudeMeters>
            <DistanceMeters>NAN</DistanceMeters>
          </Trackpoint>
          <Trackpoint>
            <Time>2021-04-02T12:44:39.000Z</Time>
            <Position>
              <LatitudeDegrees>42.32045467011630535125732421875</LatitudeDegrees>
              <LongitudeDegrees>2.593806423246860504150390625</LongitudeDegrees>
            </Position>
            <AltitudeMeters>707.20001220703125</AltitudeMeters>
            <DistanceMeters>NAN</DistanceMeters>
          </Trackpoint>
          <Trackpoint>
            <Time>2021-04-02T12:44:41.000Z</Time>
            <Position>
              <LatitudeDegrees>42.32045232318341732025146484375</LatitudeDegrees>
              <LongitudeDegrees>2.59380348958075046539306640625</LongitudeDegrees>
            </Position>
            <AltitudeMeters>707</AltitudeMeters>
            <DistanceMeters>NAN</DistanceMeters>
          </Trackpoint>
          <Trackpoint>
            <Time>2021-04-02T12:44:46.000Z</Time>
            <Position>
              <LatitudeDegrees>42.32043002732098102569580078125</LatitudeDegrees>
              <LongitudeDegrees>2.59379125200212001800537109375</LongitudeDegrees>
            </Position>
            <AltitudeMeters>706.20001220703125</AltitudeMeters>
            <DistanceMeters>NAN</DistanceMeters>
          </Trackpoint>
          <Trackpoint>
            <Time>2021-04-02T12:44:49.000Z</Time>
            <Position>
              <LatitudeDegrees>42.3204150237143039703369140625</LatitudeDegrees>
              <LongitudeDegrees>2.59378957562148571014404296875</LongitudeDegrees>
            </Position>
            <AltitudeMeters>705.5999755859375</AltitudeMeters>
            <DistanceMeters>NAN</DistanceMeters>
          </Trackpoint>
          <Trackpoint>
            <Time>2021-04-02T12:44:52.000Z</Time>
            <Position>
              <LatitudeDegrees>42.320401780307292938232421875</LatitudeDegrees>
              <LongitudeDegrees>2.59377725422382354736328125</LongitudeDegrees>
            </Position>
            <AltitudeMeters>705</AltitudeMeters>
            <DistanceMeters>NAN</DistanceMeters>
          </Trackpoint>
          <Trackpoint>
            <Time>2021-04-02T12:44:55.000Z</Time>
            <Position>
              <LatitudeDegrees>42.3203841783106327056884765625</LatitudeDegrees>
              <LongitudeDegrees>2.593795359134674072265625</LongitudeDegrees>
            </Position>
            <AltitudeMeters>704.4000244140625</AltitudeMeters>
            <DistanceMeters>NAN</DistanceMeters>
          </Trackpoint>
          <Trackpoint>
            <Time>2021-04-02T12:44:59.000Z</Time>
            <Position>
              <LatitudeDegrees>42.32036389410495758056640625</LatitudeDegrees>
              <LongitudeDegrees>2.593803741037845611572265625</LongitudeDegrees>
            </Position>
            <AltitudeMeters>704</AltitudeMeters>
            <DistanceMeters>NAN</DistanceMeters>
          </Trackpoint>
          <Trackpoint>
            <Time>2021-04-02T12:45:02.000Z</Time>
            <Position>
              <LatitudeDegrees>42.3203694261610507965087890625</LatitudeDegrees>
              <LongitudeDegrees>2.593789994716644287109375</LongitudeDegrees>
            </Position>
            <AltitudeMeters>703.20001220703125</AltitudeMeters>
            <DistanceMeters>NAN</DistanceMeters>
          </Trackpoint>
          <Trackpoint>
            <Time>2021-04-02T12:45:03.000Z</Time>
            <Position>
              <LatitudeDegrees>42.32036699540913105010986328125</LatitudeDegrees>
              <LongitudeDegrees>2.59379066526889801025390625</LongitudeDegrees>
            </Position>
            <AltitudeMeters>703</AltitudeMeters>
            <DistanceMeters>NAN</DistanceMeters>
          </Trackpoint>
          <Trackpoint>
            <Time>2021-04-02T12:45:07.000Z</Time>
            <Position>
              <LatitudeDegrees>42.3203496448695659637451171875</LatitudeDegrees>
              <LongitudeDegrees>2.5937821157276630401611328125</LongitudeDegrees>
            </Position>
            <AltitudeMeters>702.5999755859375</AltitudeMeters>
            <DistanceMeters>NAN</DistanceMeters>
          </Trackpoint>
          <Trackpoint>
            <Time>2021-04-02T12:45:11.000Z</Time>
            <Position>
              <LatitudeDegrees>42.32030614279210567474365234375</LatitudeDegrees>
              <LongitudeDegrees>2.59375805966556072235107421875</LongitudeDegrees>
            </Position>
            <AltitudeMeters>701.79998779296875</AltitudeMeters>
            <DistanceMeters>NAN</DistanceMeters>
          </Trackpoint>
          <Trackpoint>
            <Time>2021-04-02T12:45:16.000Z</Time>
            <Position>
              <LatitudeDegrees>42.3202975094318389892578125</LatitudeDegrees>
              <LongitudeDegrees>2.5937358476221561431884765625</LongitudeDegrees>
            </Position>
            <AltitudeMeters>701.20001220703125</AltitudeMeters>
            <DistanceMeters>NAN</DistanceMeters>
          </Trackpoint>
          <Trackpoint>
            <Time>2021-04-02T12:45:19.000Z</Time>
            <Position>
              <LatitudeDegrees>42.3203151114284992218017578125</LatitudeDegrees>
              <LongitudeDegrees>2.59372805245220661163330078125</LongitudeDegrees>
            </Position>
            <AltitudeMeters>700.79998779296875</AltitudeMeters>
            <DistanceMeters>NAN</DistanceMeters>
          </Trackpoint>
          <Trackpoint>
            <Time>2021-04-02T12:45:20.000Z</Time>
            <Position>
              <LatitudeDegrees>42.32031016610562801361083984375</LatitudeDegrees>
              <LongitudeDegrees>2.5937298126518726348876953125</LongitudeDegrees>
            </Position>
            <AltitudeMeters>700.5999755859375</AltitudeMeters>
            <DistanceMeters>NAN</DistanceMeters>
          </Trackpoint>
          <Trackpoint>
            <Time>2021-04-02T12:45:23.000Z</Time>
            <Position>
              <LatitudeDegrees>42.32030848972499370574951171875</LatitudeDegrees>
              <LongitudeDegrees>2.593762166798114776611328125</LongitudeDegrees>
            </Position>
            <AltitudeMeters>700</AltitudeMeters>
            <DistanceMeters>NAN</DistanceMeters>
          </Trackpoint>
          <Trackpoint>
            <Time>2021-04-02T12:45:24.000Z</Time>
            <Position>
              <LatitudeDegrees>42.32031301595270633697509765625</LatitudeDegrees>
              <LongitudeDegrees>2.5937727279961109161376953125</LongitudeDegrees>
            </Position>
            <AltitudeMeters>699.5999755859375</AltitudeMeters>
            <DistanceMeters>NAN</DistanceMeters>
          </Trackpoint>
          <Trackpoint>
            <Time>2021-04-02T12:45:27.000Z</Time>
            <Position>
              <LatitudeDegrees>42.32032340951263904571533203125</LatitudeDegrees>
              <LongitudeDegrees>2.59377968497574329376220703125</LongitudeDegrees>
            </Position>
            <AltitudeMeters>699</AltitudeMeters>
            <DistanceMeters>NAN</DistanceMeters>
          </Trackpoint>
          <Trackpoint>
            <Time>2021-04-02T12:45:30.000Z</Time>
            <Position>
              <LatitudeDegrees>42.320315279066562652587890625</LatitudeDegrees>
              <LongitudeDegrees>2.5937884859740734100341796875</LongitudeDegrees>
            </Position>
            <AltitudeMeters>698.5999755859375</AltitudeMeters>
            <DistanceMeters>NAN</DistanceMeters>
          </Trackpoint>
          <Trackpoint>
            <Time>2021-04-02T12:45:31.000Z</Time>
            <Position>
              <LatitudeDegrees>42.320319972932338714599609375</LatitudeDegrees>
              <LongitudeDegrees>2.59379158727824687957763671875</LongitudeDegrees>
            </Position>
            <AltitudeMeters>698.5999755859375</AltitudeMeters>
            <DistanceMeters>NAN</DistanceMeters>
          </Trackpoint>
          <Trackpoint>
            <Time>2021-04-02T12:45:34.000Z</Time>
            <Position>
              <LatitudeDegrees>42.32032760046422481536865234375</LatitudeDegrees>
              <LongitudeDegrees>2.59382260031998157501220703125</LongitudeDegrees>
            </Position>
            <AltitudeMeters>698.20001220703125</AltitudeMeters>
            <DistanceMeters>NAN</DistanceMeters>
          </Trackpoint>
          <Trackpoint>
            <Time>2021-04-02T12:45:38.000Z</Time>
            <Position>
              <LatitudeDegrees>42.3203479684889316558837890625</LatitudeDegrees>
              <LongitudeDegrees>2.59383517317473888397216796875</LongitudeDegrees>
            </Position>
            <AltitudeMeters>697.4000244140625</AltitudeMeters>
            <DistanceMeters>NAN</DistanceMeters>
          </Trackpoint>
          <Trackpoint>
            <Time>2021-04-02T12:45:41.000Z</Time>
            <Position>
              <LatitudeDegrees>42.3203694261610507965087890625</LatitudeDegrees>
              <LongitudeDegrees>2.59386132471263408660888671875</LongitudeDegrees>
            </Position>
            <AltitudeMeters>696.79998779296875</AltitudeMeters>
            <DistanceMeters>NAN</DistanceMeters>
          </Trackpoint>
          <Trackpoint>
            <Time>2021-04-02T12:45:45.000Z</Time>
            <Position>
              <LatitudeDegrees>42.32035593129694461822509765625</LatitudeDegrees>
              <LongitudeDegrees>2.59389501996338367462158203125</LongitudeDegrees>
            </Position>
            <AltitudeMeters>696.4000244140625</AltitudeMeters>
            <DistanceMeters>NAN</DistanceMeters>
          </Trackpoint>
          <Trackpoint>
            <Time>2021-04-02T12:45:46.000Z</Time>
            <Position>
              <LatitudeDegrees>42.3203630559146404266357421875</LatitudeDegrees>
              <LongitudeDegrees>2.59390407241880893707275390625</LongitudeDegrees>
            </Position>
            <AltitudeMeters>696.20001220703125</AltitudeMeters>
            <DistanceMeters>NAN</DistanceMeters>
          </Trackpoint>
          <Trackpoint>
            <Time>2021-04-02T12:45:49.000Z</Time>
            <Position>
              <LatitudeDegrees>42.32038392685353755950927734375</LatitudeDegrees>
              <LongitudeDegrees>2.59394380263984203338623046875</LongitudeDegrees>
            </Position>
            <AltitudeMeters>695.5999755859375</AltitudeMeters>
            <DistanceMeters>NAN</DistanceMeters>
          </Trackpoint>
          <Trackpoint>
            <Time>2021-04-02T12:45:51.000Z</Time>
            <Position>
              <LatitudeDegrees>42.32040136121213436126708984375</LatitudeDegrees>
              <LongitudeDegrees>2.59394749067723751068115234375</LongitudeDegrees>
            </Position>
            <AltitudeMeters>695.20001220703125</AltitudeMeters>
            <DistanceMeters>NAN</DistanceMeters>
          </Trackpoint>
          <Trackpoint>
            <Time>2021-04-02T12:45:52.000Z</Time>
            <Position>
              <LatitudeDegrees>42.32039649970829486846923828125</LatitudeDegrees>
              <LongitudeDegrees>2.593952603638172149658203125</LongitudeDegrees>
            </Position>
            <AltitudeMeters>694.5999755859375</AltitudeMeters>
            <DistanceMeters>NAN</DistanceMeters>
          </Trackpoint>
          <Trackpoint>
            <Time>2021-04-02T12:45:55.000Z</Time>
            <Position>
              <LatitudeDegrees>42.32040806673467159271240234375</LatitudeDegrees>
              <LongitudeDegrees>2.5939879752695560455322265625</LongitudeDegrees>
            </Position>
            <AltitudeMeters>693.79998779296875</AltitudeMeters>
            <DistanceMeters>NAN</DistanceMeters>
          </Trackpoint>
          <Trackpoint>
            <Time>2021-04-02T12:45:56.000Z</Time>
            <Position>
              <LatitudeDegrees>42.3204074800014495849609375</LatitudeDegrees>
              <LongitudeDegrees>2.59399225004017353057861328125</LongitudeDegrees>
            </Position>
            <AltitudeMeters>693.5999755859375</AltitudeMeters>
            <DistanceMeters>NAN</DistanceMeters>
          </Trackpoint>
          <Trackpoint>
            <Time>2021-04-02T12:45:57.000Z</Time>
            <Position>
              <LatitudeDegrees>42.32040136121213436126708984375</LatitudeDegrees>
              <LongitudeDegrees>2.59399719536304473876953125</LongitudeDegrees>
            </Position>
            <AltitudeMeters>693.4000244140625</AltitudeMeters>
            <DistanceMeters>NAN</DistanceMeters>
          </Trackpoint>
          <Trackpoint>
            <Time>2021-04-02T12:45:59.000Z</Time>
            <Position>
              <LatitudeDegrees>42.3204083181917667388916015625</LatitudeDegrees>
              <LongitudeDegrees>2.59401060640811920166015625</LongitudeDegrees>
            </Position>
            <AltitudeMeters>693.20001220703125</AltitudeMeters>
            <DistanceMeters>NAN</DistanceMeters>
          </Trackpoint>
          <Trackpoint>
            <Time>2021-04-02T12:46:01.000Z</Time>
            <Position>
              <LatitudeDegrees>42.32041426934301853179931640625</LatitudeDegrees>
              <LongitudeDegrees>2.59401731193065643310546875</LongitudeDegrees>
            </Position>
            <AltitudeMeters>692.79998779296875</AltitudeMeters>
            <DistanceMeters>NAN</DistanceMeters>
          </Trackpoint>
          <Trackpoint>
            <Time>2021-04-02T12:46:03.000Z</Time>
            <Position>
              <LatitudeDegrees>42.32041879557073116302490234375</LatitudeDegrees>
              <LongitudeDegrees>2.59404606185853481292724609375</LongitudeDegrees>
            </Position>
            <AltitudeMeters>692.4000244140625</AltitudeMeters>
            <DistanceMeters>NAN</DistanceMeters>
          </Trackpoint>
          <Trackpoint>
            <Time>2021-04-02T12:46:06.000Z</Time>
            <Position>
              <LatitudeDegrees>42.3204287700355052947998046875</LatitudeDegrees>
              <LongitudeDegrees>2.59408302605152130126953125</LongitudeDegrees>
            </Position>
            <AltitudeMeters>692</AltitudeMeters>
            <DistanceMeters>NAN</DistanceMeters>
          </Trackpoint>
          <Trackpoint>
            <Time>2021-04-02T12:46:07.000Z</Time>
            <Position>
              <LatitudeDegrees>42.320429272949695587158203125</LatitudeDegrees>
              <LongitudeDegrees>2.5940929166972637176513671875</LongitudeDegrees>
            </Position>
            <AltitudeMeters>692</AltitudeMeters>
            <DistanceMeters>NAN</DistanceMeters>
          </Trackpoint>
          <Trackpoint>
            <Time>2021-04-02T12:46:09.000Z</Time>
            <Position>
              <LatitudeDegrees>42.3204244114458560943603515625</LatitudeDegrees>
              <LongitudeDegrees>2.5941100157797336578369140625</LongitudeDegrees>
            </Position>
            <AltitudeMeters>691.5999755859375</AltitudeMeters>
            <DistanceMeters>NAN</DistanceMeters>
          </Trackpoint>
          <Trackpoint>
            <Time>2021-04-02T12:46:11.000Z</Time>
            <Position>
              <LatitudeDegrees>42.32042382471263408660888671875</LatitudeDegrees>
              <LongitudeDegrees>2.59412594139575958251953125</LongitudeDegrees>
            </Position>
            <AltitudeMeters>691.20001220703125</AltitudeMeters>
            <DistanceMeters>NAN</DistanceMeters>
          </Trackpoint>
          <Trackpoint>
            <Time>2021-04-02T12:46:12.000Z</Time>
            <Position>
              <LatitudeDegrees>42.32042734511196613311767578125</LatitudeDegrees>
              <LongitudeDegrees>2.59413809515535831451416015625</LongitudeDegrees>
            </Position>
            <AltitudeMeters>691.20001220703125</AltitudeMeters>
            <DistanceMeters>NAN</DistanceMeters>
          </Trackpoint>
          <Trackpoint>
            <Time>2021-04-02T12:46:13.000Z</Time>
            <Position>
              <LatitudeDegrees>42.32042432762682437896728515625</LatitudeDegrees>
              <LongitudeDegrees>2.59414781816303730010986328125</LongitudeDegrees>
            </Position>
            <AltitudeMeters>691.20001220703125</AltitudeMeters>
            <DistanceMeters>NAN</DistanceMeters>
          </Trackpoint>
          <Trackpoint>
            <Time>2021-04-02T12:46:18.000Z</Time>
            <Position>
              <LatitudeDegrees>42.32044980861246585845947265625</LatitudeDegrees>
              <LongitudeDegrees>2.594161145389080047607421875</LongitudeDegrees>
            </Position>
            <AltitudeMeters>690.20001220703125</AltitudeMeters>
            <DistanceMeters>NAN</DistanceMeters>
          </Trackpoint>
          <Trackpoint>
            <Time>2021-04-02T12:46:23.000Z</Time>
            <Position>
              <LatitudeDegrees>42.3204584419727325439453125</LatitudeDegrees>
              <LongitudeDegrees>2.59421537630259990692138671875</LongitudeDegrees>
            </Position>
            <AltitudeMeters>689.79998779296875</AltitudeMeters>
            <DistanceMeters>NAN</DistanceMeters>
          </Trackpoint>
          <Trackpoint>
            <Time>2021-04-02T12:46:27.000Z</Time>
            <Position>
              <LatitudeDegrees>42.32049129903316497802734375</LatitudeDegrees>
              <LongitudeDegrees>2.59423063136637210845947265625</LongitudeDegrees>
            </Position>
            <AltitudeMeters>689.20001220703125</AltitudeMeters>
            <DistanceMeters>NAN</DistanceMeters>
          </Trackpoint>
          <Trackpoint>
            <Time>2021-04-02T12:46:29.000Z</Time>
            <Position>
              <LatitudeDegrees>42.3204757086932659149169921875</LatitudeDegrees>
              <LongitudeDegrees>2.59423716925084590911865234375</LongitudeDegrees>
            </Position>
            <AltitudeMeters>688.79998779296875</AltitudeMeters>
            <DistanceMeters>NAN</DistanceMeters>
          </Trackpoint>
          <Trackpoint>
            <Time>2021-04-02T12:46:32.000Z</Time>
            <Position>
              <LatitudeDegrees>42.32046472840011119842529296875</LatitudeDegrees>
              <LongitudeDegrees>2.5942598842084407806396484375</LongitudeDegrees>
            </Position>
            <AltitudeMeters>688</AltitudeMeters>
            <DistanceMeters>NAN</DistanceMeters>
          </Trackpoint>
          <Trackpoint>
            <Time>2021-04-02T12:46:35.000Z</Time>
            <Position>
              <LatitudeDegrees>42.320454418659210205078125</LatitudeDegrees>
              <LongitudeDegrees>2.594271786510944366455078125</LongitudeDegrees>
            </Position>
            <AltitudeMeters>687.5999755859375</AltitudeMeters>
            <DistanceMeters>NAN</DistanceMeters>
          </Trackpoint>
          <Trackpoint>
            <Time>2021-04-02T12:46:36.000Z</Time>
            <Position>
              <LatitudeDegrees>42.320451401174068450927734375</LatitudeDegrees>
              <LongitudeDegrees>2.594275139272212982177734375</LongitudeDegrees>
            </Position>
            <AltitudeMeters>687.5999755859375</AltitudeMeters>
            <DistanceMeters>NAN</DistanceMeters>
          </Trackpoint>
          <Trackpoint>
            <Time>2021-04-02T12:46:41.000Z</Time>
            <Position>
              <LatitudeDegrees>42.32043824158608913421630859375</LatitudeDegrees>
              <LongitudeDegrees>2.594311349093914031982421875</LongitudeDegrees>
            </Position>
            <AltitudeMeters>687.4000244140625</AltitudeMeters>
            <DistanceMeters>NAN</DistanceMeters>
          </Trackpoint>
          <Trackpoint>
            <Time>2021-04-02T12:46:43.000Z</Time>
            <Position>
              <LatitudeDegrees>42.320433296263217926025390625</LatitudeDegrees>
              <LongitudeDegrees>2.594336159527301788330078125</LongitudeDegrees>
            </Position>
            <AltitudeMeters>687</AltitudeMeters>
            <DistanceMeters>NAN</DistanceMeters>
          </Trackpoint>
          <Trackpoint>
            <Time>2021-04-02T12:46:47.000Z</Time>
            <Position>
              <LatitudeDegrees>42.32041125185787677764892578125</LatitudeDegrees>
              <LongitudeDegrees>2.59435585699975490570068359375</LongitudeDegrees>
            </Position>
            <AltitudeMeters>686</AltitudeMeters>
            <DistanceMeters>NAN</DistanceMeters>
          </Trackpoint>
          <Trackpoint>
            <Time>2021-04-02T12:46:48.000Z</Time>
            <Position>
              <LatitudeDegrees>42.320404462516307830810546875</LatitudeDegrees>
              <LongitudeDegrees>2.59435049258172512054443359375</LongitudeDegrees>
            </Position>
            <AltitudeMeters>685.79998779296875</AltitudeMeters>
            <DistanceMeters>NAN</DistanceMeters>
          </Trackpoint>
          <Trackpoint>
            <Time>2021-04-02T12:46:54.000Z</Time>
            <Position>
              <LatitudeDegrees>42.3203630559146404266357421875</LatitudeDegrees>
              <LongitudeDegrees>2.59437781758606433868408203125</LongitudeDegrees>
            </Position>
            <AltitudeMeters>684.79998779296875</AltitudeMeters>
            <DistanceMeters>NAN</DistanceMeters>
          </Trackpoint>
          <Trackpoint>
            <Time>2021-04-02T12:46:55.000Z</Time>
            <Position>
              <LatitudeDegrees>42.32037051580846309661865234375</LatitudeDegrees>
              <LongitudeDegrees>2.5943896360695362091064453125</LongitudeDegrees>
            </Position>
            <AltitudeMeters>684.79998779296875</AltitudeMeters>
            <DistanceMeters>NAN</DistanceMeters>
          </Trackpoint>
          <Trackpoint>
            <Time>2021-04-02T12:47:00.000Z</Time>
            <Position>
              <LatitudeDegrees>42.32036096043884754180908203125</LatitudeDegrees>
              <LongitudeDegrees>2.59441033937036991119384765625</LongitudeDegrees>
            </Position>
            <AltitudeMeters>684</AltitudeMeters>
            <DistanceMeters>NAN</DistanceMeters>
          </Trackpoint>
          <Trackpoint>
            <Time>2021-04-02T12:47:01.000Z</Time>
            <Position>
              <LatitudeDegrees>42.32036012224853038787841796875</LatitudeDegrees>
              <LongitudeDegrees>2.594400532543659210205078125</LongitudeDegrees>
            </Position>
            <AltitudeMeters>683.5999755859375</AltitudeMeters>
            <DistanceMeters>NAN</DistanceMeters>
          </Trackpoint>
          <Trackpoint>
            <Time>2021-04-02T12:47:06.000Z</Time>
            <Position>
              <LatitudeDegrees>42.32034252025187015533447265625</LatitudeDegrees>
              <LongitudeDegrees>2.59435351006686687469482421875</LongitudeDegrees>
            </Position>
            <AltitudeMeters>682.79998779296875</AltitudeMeters>
            <DistanceMeters>NAN</DistanceMeters>
          </Trackpoint>
          <Trackpoint>
            <Time>2021-04-02T12:47:07.000Z</Time>
            <Position>
              <LatitudeDegrees>42.3203409276902675628662109375</LatitudeDegrees>
              <LongitudeDegrees>2.5943433679640293121337890625</LongitudeDegrees>
            </Position>
            <AltitudeMeters>682.5999755859375</AltitudeMeters>
            <DistanceMeters>NAN</DistanceMeters>
          </Trackpoint>
          <Trackpoint>
            <Time>2021-04-02T12:47:08.000Z</Time>
            <Position>
              <LatitudeDegrees>42.32033732347190380096435546875</LatitudeDegrees>
              <LongitudeDegrees>2.59433247148990631103515625</LongitudeDegrees>
            </Position>
            <AltitudeMeters>682.4000244140625</AltitudeMeters>
            <DistanceMeters>NAN</DistanceMeters>
          </Trackpoint>
          <Trackpoint>
            <Time>2021-04-02T12:47:11.000Z</Time>
            <Position>
              <LatitudeDegrees>42.320338077843189239501953125</LatitudeDegrees>
              <LongitudeDegrees>2.59430087171494960784912109375</LongitudeDegrees>
            </Position>
            <AltitudeMeters>681.79998779296875</AltitudeMeters>
            <DistanceMeters>NAN</DistanceMeters>
          </Trackpoint>
          <Trackpoint>
            <Time>2021-04-02T12:47:13.000Z</Time>
            <Position>
              <LatitudeDegrees>42.32034268788993358612060546875</LatitudeDegrees>
              <LongitudeDegrees>2.5942846946418285369873046875</LongitudeDegrees>
            </Position>
            <AltitudeMeters>681.5999755859375</AltitudeMeters>
            <DistanceMeters>NAN</DistanceMeters>
          </Trackpoint>
          <Trackpoint>
            <Time>2021-04-02T12:47:14.000Z</Time>
            <Position>
              <LatitudeDegrees>42.32035048305988311767578125</LatitudeDegrees>
              <LongitudeDegrees>2.5942729599773883819580078125</LongitudeDegrees>
            </Position>
            <AltitudeMeters>681.4000244140625</AltitudeMeters>
            <DistanceMeters>NAN</DistanceMeters>
          </Trackpoint>
          <Trackpoint>
            <Time>2021-04-02T12:47:17.000Z</Time>
            <Position>
              <LatitudeDegrees>42.32036666013300418853759765625</LatitudeDegrees>
              <LongitudeDegrees>2.5942417792975902557373046875</LongitudeDegrees>
            </Position>
            <AltitudeMeters>680.79998779296875</AltitudeMeters>
            <DistanceMeters>NAN</DistanceMeters>
          </Trackpoint>
          <Trackpoint>
            <Time>2021-04-02T12:47:20.000Z</Time>
            <Position>
              <LatitudeDegrees>42.32037906534969806671142578125</LatitudeDegrees>
              <LongitudeDegrees>2.59418855421245098114013671875</LongitudeDegrees>
            </Position>
            <AltitudeMeters>680.4000244140625</AltitudeMeters>
            <DistanceMeters>NAN</DistanceMeters>
          </Trackpoint>
          <Trackpoint>
            <Time>2021-04-02T12:47:21.000Z</Time>
            <Position>
              <LatitudeDegrees>42.32038610614836215972900390625</LatitudeDegrees>
              <LongitudeDegrees>2.5941757299005985260009765625</LongitudeDegrees>
            </Position>
            <AltitudeMeters>680.20001220703125</AltitudeMeters>
            <DistanceMeters>NAN</DistanceMeters>
          </Trackpoint>
          <Trackpoint>
            <Time>2021-04-02T12:47:23.000Z</Time>
            <Position>
              <LatitudeDegrees>42.3203972540795803070068359375</LatitudeDegrees>
              <LongitudeDegrees>2.594159133732318878173828125</LongitudeDegrees>
            </Position>
            <AltitudeMeters>679.79998779296875</AltitudeMeters>
            <DistanceMeters>NAN</DistanceMeters>
          </Trackpoint>
          <Trackpoint>
            <Time>2021-04-02T12:47:24.000Z</Time>
            <Position>
              <LatitudeDegrees>42.32039985246956348419189453125</LatitudeDegrees>
              <LongitudeDegrees>2.594151757657527923583984375</LongitudeDegrees>
            </Position>
            <AltitudeMeters>679.79998779296875</AltitudeMeters>
            <DistanceMeters>NAN</DistanceMeters>
          </Trackpoint>
          <Trackpoint>
            <Time>2021-04-02T12:47:28.000Z</Time>
            <Position>
              <LatitudeDegrees>42.3204029537737369537353515625</LatitudeDegrees>
              <LongitudeDegrees>2.594147734344005584716796875</LongitudeDegrees>
            </Position>
            <AltitudeMeters>679.20001220703125</AltitudeMeters>
            <DistanceMeters>NAN</DistanceMeters>
          </Trackpoint>
          <Trackpoint>
            <Time>2021-04-02T12:47:32.000Z</Time>
            <Position>
              <LatitudeDegrees>42.320393063127994537353515625</LatitudeDegrees>
              <LongitudeDegrees>2.5941358320415019989013671875</LongitudeDegrees>
            </Position>
            <AltitudeMeters>678.4000244140625</AltitudeMeters>
            <DistanceMeters>NAN</DistanceMeters>
          </Trackpoint>
          <Trackpoint>
            <Time>2021-04-02T12:47:34.000Z</Time>
            <Position>
              <LatitudeDegrees>42.32038778252899646759033203125</LatitudeDegrees>
              <LongitudeDegrees>2.594148404896259307861328125</LongitudeDegrees>
            </Position>
            <AltitudeMeters>678.20001220703125</AltitudeMeters>
            <DistanceMeters>NAN</DistanceMeters>
          </Trackpoint>
          <Trackpoint>
            <Time>2021-04-02T12:47:52.000Z</Time>
            <Position>
              <LatitudeDegrees>42.3203845135867595672607421875</LatitudeDegrees>
              <LongitudeDegrees>2.59414949454367160797119140625</LongitudeDegrees>
            </Position>
            <AltitudeMeters>677.20001220703125</AltitudeMeters>
            <DistanceMeters>NAN</DistanceMeters>
          </Trackpoint>
          <Trackpoint>
            <Time>2021-04-02T12:47:57.000Z</Time>
            <Position>
              <LatitudeDegrees>42.3203794844448566436767578125</LatitudeDegrees>
              <LongitudeDegrees>2.5941512547433376312255859375</LongitudeDegrees>
            </Position>
            <AltitudeMeters>676.5999755859375</AltitudeMeters>
            <DistanceMeters>NAN</DistanceMeters>
          </Trackpoint>
          <Trackpoint>
            <Time>2021-04-02T12:47:59.000Z</Time>
            <Position>
              <LatitudeDegrees>42.32037864625453948974609375</LatitudeDegrees>
              <LongitudeDegrees>2.59415544569492340087890625</LongitudeDegrees>
            </Position>
            <AltitudeMeters>676.5999755859375</AltitudeMeters>
            <DistanceMeters>NAN</DistanceMeters>
          </Trackpoint>
          <Trackpoint>
            <Time>2021-04-02T12:48:05.000Z</Time>
            <Position>
              <LatitudeDegrees>42.3203726112842559814453125</LatitudeDegrees>
              <LongitudeDegrees>2.59417497552931308746337890625</LongitudeDegrees>
            </Position>
            <AltitudeMeters>676</AltitudeMeters>
            <DistanceMeters>NAN</DistanceMeters>
          </Trackpoint>
          <Trackpoint>
            <Time>2021-04-02T12:48:08.000Z</Time>
            <Position>
              <LatitudeDegrees>42.32036481611430644989013671875</LatitudeDegrees>
              <LongitudeDegrees>2.59418033994734287261962890625</LongitudeDegrees>
            </Position>
            <AltitudeMeters>675.5999755859375</AltitudeMeters>
            <DistanceMeters>NAN</DistanceMeters>
          </Trackpoint>
          <Trackpoint>
            <Time>2021-04-02T12:48:11.000Z</Time>
            <Position>
              <LatitudeDegrees>42.32035241089761257171630859375</LatitudeDegrees>
              <LongitudeDegrees>2.59419693611562252044677734375</LongitudeDegrees>
            </Position>
            <AltitudeMeters>674.79998779296875</AltitudeMeters>
            <DistanceMeters>NAN</DistanceMeters>
          </Trackpoint>
          <Trackpoint>
            <Time>2021-04-02T12:48:18.000Z</Time>
            <Position>
              <LatitudeDegrees>42.3203399218618869781494140625</LatitudeDegrees>
              <LongitudeDegrees>2.59420984424650669097900390625</LongitudeDegrees>
            </Position>
            <AltitudeMeters>674</AltitudeMeters>
            <DistanceMeters>NAN</DistanceMeters>
          </Trackpoint>
          <Trackpoint>
            <Time>2021-04-02T12:48:19.000Z</Time>
            <Position>
              <LatitudeDegrees>42.32033497653901576995849609375</LatitudeDegrees>
              <LongitudeDegrees>2.5942129455506801605224609375</LongitudeDegrees>
            </Position>
            <AltitudeMeters>673.5999755859375</AltitudeMeters>
            <DistanceMeters>NAN</DistanceMeters>
          </Trackpoint>
          <Trackpoint>
            <Time>2021-04-02T12:48:34.000Z</Time>
            <Position>
              <LatitudeDegrees>42.32030086219310760498046875</LatitudeDegrees>
              <LongitudeDegrees>2.5942900590598583221435546875</LongitudeDegrees>
            </Position>
            <AltitudeMeters>673</AltitudeMeters>
            <DistanceMeters>NAN</DistanceMeters>
          </Trackpoint>
          <Trackpoint>
            <Time>2021-04-02T12:48:47.000Z</Time>
            <Position>
              <LatitudeDegrees>42.3202814161777496337890625</LatitudeDegrees>
              <LongitudeDegrees>2.594299614429473876953125</LongitudeDegrees>
            </Position>
            <AltitudeMeters>672.79998779296875</AltitudeMeters>
            <DistanceMeters>NAN</DistanceMeters>
          </Trackpoint>
          <Trackpoint>
            <Time>2021-04-02T12:48:49.000Z</Time>
            <Position>
              <LatitudeDegrees>42.3202802427113056182861328125</LatitudeDegrees>
              <LongitudeDegrees>2.594299614429473876953125</LongitudeDegrees>
            </Position>
            <AltitudeMeters>672.5999755859375</AltitudeMeters>
            <DistanceMeters>NAN</DistanceMeters>
          </Trackpoint>
          <Trackpoint>
            <Time>2021-04-02T12:48:58.000Z</Time>
            <Position>
              <LatitudeDegrees>42.3202721960842609405517578125</LatitudeDegrees>
              <LongitudeDegrees>2.594299614429473876953125</LongitudeDegrees>
            </Position>
            <AltitudeMeters>671.79998779296875</AltitudeMeters>
            <DistanceMeters>NAN</DistanceMeters>
          </Trackpoint>
          <Trackpoint>
            <Time>2021-04-02T12:48:59.000Z</Time>
            <Position>
              <LatitudeDegrees>42.3202721960842609405517578125</LatitudeDegrees>
              <LongitudeDegrees>2.594299614429473876953125</LongitudeDegrees>
            </Position>
            <AltitudeMeters>671.5999755859375</AltitudeMeters>
            <DistanceMeters>NAN</DistanceMeters>
          </Trackpoint>
          <Trackpoint>
            <Time>2021-04-02T12:49:00.000Z</Time>
            <Position>
              <LatitudeDegrees>42.320270352065563201904296875</LatitudeDegrees>
              <LongitudeDegrees>2.594299614429473876953125</LongitudeDegrees>
            </Position>
            <AltitudeMeters>671.5999755859375</AltitudeMeters>
            <DistanceMeters>NAN</DistanceMeters>
          </Trackpoint>
          <Trackpoint>
            <Time>2021-04-02T12:49:04.000Z</Time>
            <Position>
              <LatitudeDegrees>42.32026725076138973236083984375</LatitudeDegrees>
              <LongitudeDegrees>2.59429156780242919921875</LongitudeDegrees>
            </Position>
            <AltitudeMeters>671.5999755859375</AltitudeMeters>
            <DistanceMeters>NAN</DistanceMeters>
          </Trackpoint>
          <Trackpoint>
            <Time>2021-04-02T12:49:13.000Z</Time>
            <Position>
              <LatitudeDegrees>42.32025182805955410003662109375</LatitudeDegrees>
              <LongitudeDegrees>2.59425695054233074188232421875</LongitudeDegrees>
            </Position>
            <AltitudeMeters>671.20001220703125</AltitudeMeters>
            <DistanceMeters>NAN</DistanceMeters>
          </Trackpoint>
          <Trackpoint>
            <Time>2021-04-02T12:49:17.000Z</Time>
            <Position>
              <LatitudeDegrees>42.3202430270612239837646484375</LatitudeDegrees>
              <LongitudeDegrees>2.594235241413116455078125</LongitudeDegrees>
            </Position>
            <AltitudeMeters>671.20001220703125</AltitudeMeters>
            <DistanceMeters>NAN</DistanceMeters>
          </Trackpoint>
          <Trackpoint>
            <Time>2021-04-02T12:49:21.000Z</Time>
            <Position>
              <LatitudeDegrees>42.3202426917850971221923828125</LatitudeDegrees>
              <LongitudeDegrees>2.5942219980061054229736328125</LongitudeDegrees>
            </Position>
            <AltitudeMeters>670.4000244140625</AltitudeMeters>
            <DistanceMeters>NAN</DistanceMeters>
          </Trackpoint>
          <Trackpoint>
            <Time>2021-04-02T12:49:26.000Z</Time>
            <Position>
              <LatitudeDegrees>42.3202426917850971221923828125</LatitudeDegrees>
              <LongitudeDegrees>2.5942156277596950531005859375</LongitudeDegrees>
            </Position>
            <AltitudeMeters>669.4000244140625</AltitudeMeters>
            <DistanceMeters>NAN</DistanceMeters>
          </Trackpoint>
          <Trackpoint>
            <Time>2021-04-02T12:49:29.000Z</Time>
            <Position>
              <LatitudeDegrees>42.3202463798224925994873046875</LatitudeDegrees>
              <LongitudeDegrees>2.59420632384717464447021484375</LongitudeDegrees>
            </Position>
            <AltitudeMeters>668.4000244140625</AltitudeMeters>
            <DistanceMeters>NAN</DistanceMeters>
          </Trackpoint>
          <Trackpoint>
            <Time>2021-04-02T12:49:30.000Z</Time>
            <Position>
              <LatitudeDegrees>42.3202545940876007080078125</LatitudeDegrees>
              <LongitudeDegrees>2.59418620727956295013427734375</LongitudeDegrees>
            </Position>
            <AltitudeMeters>668.20001220703125</AltitudeMeters>
            <DistanceMeters>NAN</DistanceMeters>
          </Trackpoint>
          <Trackpoint>
            <Time>2021-04-02T12:49:35.000Z</Time>
            <Position>
              <LatitudeDegrees>42.32028217054903507232666015625</LatitudeDegrees>
              <LongitudeDegrees>2.59412133134901523590087890625</LongitudeDegrees>
            </Position>
            <AltitudeMeters>667</AltitudeMeters>
            <DistanceMeters>NAN</DistanceMeters>
          </Trackpoint>
          <Trackpoint>
            <Time>2021-04-02T12:49:39.000Z</Time>
            <Position>
              <LatitudeDegrees>42.32029524631798267364501953125</LatitudeDegrees>
              <LongitudeDegrees>2.59407103992998600006103515625</LongitudeDegrees>
            </Position>
            <AltitudeMeters>666.20001220703125</AltitudeMeters>
            <DistanceMeters>NAN</DistanceMeters>
          </Trackpoint>
          <Trackpoint>
            <Time>2021-04-02T12:49:40.000Z</Time>
            <Position>
              <LatitudeDegrees>42.32029608450829982757568359375</LatitudeDegrees>
              <LongitudeDegrees>2.594069950282573699951171875</LongitudeDegrees>
            </Position>
            <AltitudeMeters>666</AltitudeMeters>
            <DistanceMeters>NAN</DistanceMeters>
          </Trackpoint>
          <Trackpoint>
            <Time>2021-04-02T12:49:44.000Z</Time>
            <Position>
              <LatitudeDegrees>42.32028988189995288848876953125</LatitudeDegrees>
              <LongitudeDegrees>2.59405695833265781402587890625</LongitudeDegrees>
            </Position>
            <AltitudeMeters>665.20001220703125</AltitudeMeters>
            <DistanceMeters>NAN</DistanceMeters>
          </Trackpoint>
          <Trackpoint>
            <Time>2021-04-02T12:49:45.000Z</Time>
            <Position>
              <LatitudeDegrees>42.3202787339687347412109375</LatitudeDegrees>
              <LongitudeDegrees>2.59406047873198986053466796875</LongitudeDegrees>
            </Position>
            <AltitudeMeters>665</AltitudeMeters>
            <DistanceMeters>NAN</DistanceMeters>
          </Trackpoint>
          <Trackpoint>
            <Time>2021-04-02T12:49:50.000Z</Time>
            <Position>
              <LatitudeDegrees>42.3202450387179851531982421875</LatitudeDegrees>
              <LongitudeDegrees>2.594088725745677947998046875</LongitudeDegrees>
            </Position>
            <AltitudeMeters>664</AltitudeMeters>
            <DistanceMeters>NAN</DistanceMeters>
          </Trackpoint>
          <Trackpoint>
            <Time>2021-04-02T12:49:51.000Z</Time>
            <Position>
              <LatitudeDegrees>42.3202326335012912750244140625</LatitudeDegrees>
              <LongitudeDegrees>2.59409115649759769439697265625</LongitudeDegrees>
            </Position>
            <AltitudeMeters>664</AltitudeMeters>
            <DistanceMeters>NAN</DistanceMeters>
          </Trackpoint>
          <Trackpoint>
            <Time>2021-04-02T12:49:56.000Z</Time>
            <Position>
              <LatitudeDegrees>42.32020069845020771026611328125</LatitudeDegrees>
              <LongitudeDegrees>2.59410439990460872650146484375</LongitudeDegrees>
            </Position>
            <AltitudeMeters>663.4000244140625</AltitudeMeters>
            <DistanceMeters>NAN</DistanceMeters>
          </Trackpoint>
          <Trackpoint>
            <Time>2021-04-02T12:50:03.000Z</Time>
            <Position>
              <LatitudeDegrees>42.32021008618175983428955078125</LatitudeDegrees>
              <LongitudeDegrees>2.59411521255970001220703125</LongitudeDegrees>
            </Position>
            <AltitudeMeters>663</AltitudeMeters>
            <DistanceMeters>NAN</DistanceMeters>
          </Trackpoint>
          <Trackpoint>
            <Time>2021-04-02T12:50:04.000Z</Time>
            <Position>
              <LatitudeDegrees>42.32020153664052486419677734375</LatitudeDegrees>
              <LongitudeDegrees>2.59412032552063465118408203125</LongitudeDegrees>
            </Position>
            <AltitudeMeters>662.79998779296875</AltitudeMeters>
            <DistanceMeters>NAN</DistanceMeters>
          </Trackpoint>
          <Trackpoint>
            <Time>2021-04-02T12:50:08.000Z</Time>
            <Position>
              <LatitudeDegrees>42.3201592080295085906982421875</LatitudeDegrees>
              <LongitudeDegrees>2.594121582806110382080078125</LongitudeDegrees>
            </Position>
            <AltitudeMeters>662</AltitudeMeters>
            <DistanceMeters>NAN</DistanceMeters>
          </Trackpoint>
          <Trackpoint>
            <Time>2021-04-02T12:50:11.000Z</Time>
            <Position>
              <LatitudeDegrees>42.320140264928340911865234375</LatitudeDegrees>
              <LongitudeDegrees>2.59411831386387348175048828125</LongitudeDegrees>
            </Position>
            <AltitudeMeters>661.5999755859375</AltitudeMeters>
            <DistanceMeters>NAN</DistanceMeters>
          </Trackpoint>
          <Trackpoint>
            <Time>2021-04-02T12:50:14.000Z</Time>
            <Position>
              <LatitudeDegrees>42.32014588080346584320068359375</LatitudeDegrees>
              <LongitudeDegrees>2.594135664403438568115234375</LongitudeDegrees>
            </Position>
            <AltitudeMeters>661.20001220703125</AltitudeMeters>
            <DistanceMeters>NAN</DistanceMeters>
          </Trackpoint>
          <Trackpoint>
            <Time>2021-04-02T12:50:17.000Z</Time>
            <Position>
              <LatitudeDegrees>42.32012509368360042572021484375</LatitudeDegrees>
              <LongitudeDegrees>2.59415720589458942413330078125</LongitudeDegrees>
            </Position>
            <AltitudeMeters>660.5999755859375</AltitudeMeters>
            <DistanceMeters>NAN</DistanceMeters>
          </Trackpoint>
          <Trackpoint>
            <Time>2021-04-02T12:50:21.000Z</Time>
            <Position>
              <LatitudeDegrees>42.3200975172221660614013671875</LatitudeDegrees>
              <LongitudeDegrees>2.594163157045841217041015625</LongitudeDegrees>
            </Position>
            <AltitudeMeters>659.79998779296875</AltitudeMeters>
            <DistanceMeters>NAN</DistanceMeters>
          </Trackpoint>
          <Trackpoint>
            <Time>2021-04-02T12:50:22.000Z</Time>
            <Position>
              <LatitudeDegrees>42.32009458355605602264404296875</LatitudeDegrees>
              <LongitudeDegrees>2.59415972046554088592529296875</LongitudeDegrees>
            </Position>
            <AltitudeMeters>659.5999755859375</AltitudeMeters>
            <DistanceMeters>NAN</DistanceMeters>
          </Trackpoint>
          <Trackpoint>
            <Time>2021-04-02T12:50:27.000Z</Time>
            <Position>
              <LatitudeDegrees>42.3200750537216663360595703125</LatitudeDegrees>
              <LongitudeDegrees>2.5941650010645389556884765625</LongitudeDegrees>
            </Position>
            <AltitudeMeters>658.5999755859375</AltitudeMeters>
            <DistanceMeters>NAN</DistanceMeters>
          </Trackpoint>
          <Trackpoint>
            <Time>2021-04-02T12:50:33.000Z</Time>
            <Position>
              <LatitudeDegrees>42.3200331442058086395263671875</LatitudeDegrees>
              <LongitudeDegrees>2.5941817648708820343017578125</LongitudeDegrees>
            </Position>
            <AltitudeMeters>657.5999755859375</AltitudeMeters>
            <DistanceMeters>NAN</DistanceMeters>
          </Trackpoint>
          <Trackpoint>
            <Time>2021-04-02T12:50:34.000Z</Time>
            <Position>
              <LatitudeDegrees>42.32003473676741123199462890625</LatitudeDegrees>
              <LongitudeDegrees>2.594183273613452911376953125</LongitudeDegrees>
            </Position>
            <AltitudeMeters>657.4000244140625</AltitudeMeters>
            <DistanceMeters>NAN</DistanceMeters>
          </Trackpoint>
          <Trackpoint>
            <Time>2021-04-02T12:50:38.000Z</Time>
            <Position>
              <LatitudeDegrees>42.32005803845822811126708984375</LatitudeDegrees>
              <LongitudeDegrees>2.5941948406398296356201171875</LongitudeDegrees>
            </Position>
            <AltitudeMeters>656.79998779296875</AltitudeMeters>
            <DistanceMeters>NAN</DistanceMeters>
          </Trackpoint>
          <Trackpoint>
            <Time>2021-04-02T12:50:40.000Z</Time>
            <Position>
              <LatitudeDegrees>42.32004462741315364837646484375</LatitudeDegrees>
              <LongitudeDegrees>2.59420280344784259796142578125</LongitudeDegrees>
            </Position>
            <AltitudeMeters>656.4000244140625</AltitudeMeters>
            <DistanceMeters>NAN</DistanceMeters>
          </Trackpoint>
          <Trackpoint>
            <Time>2021-04-02T12:50:45.000Z</Time>
            <Position>
              <LatitudeDegrees>42.32001763768494129180908203125</LatitudeDegrees>
              <LongitudeDegrees>2.59422920644283294677734375</LongitudeDegrees>
            </Position>
            <AltitudeMeters>655.4000244140625</AltitudeMeters>
            <DistanceMeters>NAN</DistanceMeters>
          </Trackpoint>
          <Trackpoint>
            <Time>2021-04-02T12:50:46.000Z</Time>
            <Position>
              <LatitudeDegrees>42.3200133629143238067626953125</LatitudeDegrees>
              <LongitudeDegrees>2.59422794915735721588134765625</LongitudeDegrees>
            </Position>
            <AltitudeMeters>655</AltitudeMeters>
            <DistanceMeters>NAN</DistanceMeters>
          </Trackpoint>
          <Trackpoint>
            <Time>2021-04-02T12:50:50.000Z</Time>
            <Position>
              <LatitudeDegrees>42.3199976049363613128662109375</LatitudeDegrees>
              <LongitudeDegrees>2.594242952764034271240234375</LongitudeDegrees>
            </Position>
            <AltitudeMeters>654</AltitudeMeters>
            <DistanceMeters>NAN</DistanceMeters>
          </Trackpoint>
          <Trackpoint>
            <Time>2021-04-02T12:50:52.000Z</Time>
            <Position>
              <LatitudeDegrees>42.3199944198131561279296875</LatitudeDegrees>
              <LongitudeDegrees>2.594250328838825225830078125</LongitudeDegrees>
            </Position>
            <AltitudeMeters>653.5999755859375</AltitudeMeters>
            <DistanceMeters>NAN</DistanceMeters>
          </Trackpoint>
          <Trackpoint>
            <Time>2021-04-02T12:50:55.000Z</Time>
            <Position>
              <LatitudeDegrees>42.319986037909984588623046875</LatitudeDegrees>
              <LongitudeDegrees>2.594246305525302886962890625</LongitudeDegrees>
            </Position>
            <AltitudeMeters>653</AltitudeMeters>
            <DistanceMeters>NAN</DistanceMeters>
          </Trackpoint>
          <Trackpoint>
            <Time>2021-04-02T12:50:58.000Z</Time>
            <Position>
              <LatitudeDegrees>42.319982685148715972900390625</LatitudeDegrees>
              <LongitudeDegrees>2.59423457086086273193359375</LongitudeDegrees>
            </Position>
            <AltitudeMeters>652.4000244140625</AltitudeMeters>
            <DistanceMeters>NAN</DistanceMeters>
          </Trackpoint>
          <Trackpoint>
            <Time>2021-04-02T12:51:01.000Z</Time>
            <Position>
              <LatitudeDegrees>42.3199774883687496185302734375</LatitudeDegrees>
              <LongitudeDegrees>2.5942204892635345458984375</LongitudeDegrees>
            </Position>
            <AltitudeMeters>651.79998779296875</AltitudeMeters>
            <DistanceMeters>NAN</DistanceMeters>
          </Trackpoint>
          <Trackpoint>
            <Time>2021-04-02T12:51:06.000Z</Time>
            <Position>
              <LatitudeDegrees>42.31997338123619556427001953125</LatitudeDegrees>
              <LongitudeDegrees>2.59420280344784259796142578125</LongitudeDegrees>
            </Position>
            <AltitudeMeters>651.20001220703125</AltitudeMeters>
            <DistanceMeters>NAN</DistanceMeters>
          </Trackpoint>
          <Trackpoint>
            <Time>2021-04-02T12:51:26.000Z</Time>
            <Position>
              <LatitudeDegrees>42.31996634043753147125244140625</LatitudeDegrees>
              <LongitudeDegrees>2.5941998697817325592041015625</LongitudeDegrees>
            </Position>
            <AltitudeMeters>651.20001220703125</AltitudeMeters>
            <DistanceMeters>NAN</DistanceMeters>
          </Trackpoint>
          <Trackpoint>
            <Time>2021-04-02T12:51:29.000Z</Time>
            <Position>
              <LatitudeDegrees>42.31996365822851657867431640625</LatitudeDegrees>
              <LongitudeDegrees>2.594199366867542266845703125</LongitudeDegrees>
            </Position>
            <AltitudeMeters>650.79998779296875</AltitudeMeters>
            <DistanceMeters>NAN</DistanceMeters>
          </Trackpoint>
          <Trackpoint>
            <Time>2021-04-02T12:51:35.000Z</Time>
            <Position>
              <LatitudeDegrees>42.31994622386991977691650390625</LatitudeDegrees>
              <LongitudeDegrees>2.59419593028724193572998046875</LongitudeDegrees>
            </Position>
            <AltitudeMeters>649.79998779296875</AltitudeMeters>
            <DistanceMeters>NAN</DistanceMeters>
          </Trackpoint>
          <Trackpoint>
            <Time>2021-04-02T12:51:38.000Z</Time>
            <Position>
              <LatitudeDegrees>42.31991705484688282012939453125</LatitudeDegrees>
              <LongitudeDegrees>2.59420230053365230560302734375</LongitudeDegrees>
            </Position>
            <AltitudeMeters>648.5999755859375</AltitudeMeters>
            <DistanceMeters>NAN</DistanceMeters>
          </Trackpoint>
          <Trackpoint>
            <Time>2021-04-02T12:51:39.000Z</Time>
            <Position>
              <LatitudeDegrees>42.3199111036956310272216796875</LatitudeDegrees>
              <LongitudeDegrees>2.5941924937069416046142578125</LongitudeDegrees>
            </Position>
            <AltitudeMeters>648.4000244140625</AltitudeMeters>
            <DistanceMeters>NAN</DistanceMeters>
          </Trackpoint>
          <Trackpoint>
            <Time>2021-04-02T12:51:42.000Z</Time>
            <Position>
              <LatitudeDegrees>42.31987598352134227752685546875</LatitudeDegrees>
              <LongitudeDegrees>2.594187296926975250244140625</LongitudeDegrees>
            </Position>
            <AltitudeMeters>647.5999755859375</AltitudeMeters>
            <DistanceMeters>NAN</DistanceMeters>
          </Trackpoint>
          <Trackpoint>
            <Time>2021-04-02T12:51:45.000Z</Time>
            <Position>
              <LatitudeDegrees>42.31987279839813709259033203125</LatitudeDegrees>
              <LongitudeDegrees>2.59418067522346973419189453125</LongitudeDegrees>
            </Position>
            <AltitudeMeters>647</AltitudeMeters>
            <DistanceMeters>NAN</DistanceMeters>
          </Trackpoint>
          <Trackpoint>
            <Time>2021-04-02T12:51:47.000Z</Time>
            <Position>
              <LatitudeDegrees>42.31987011618912220001220703125</LatitudeDegrees>
              <LongitudeDegrees>2.5941837765276432037353515625</LongitudeDegrees>
            </Position>
            <AltitudeMeters>646.4000244140625</AltitudeMeters>
            <DistanceMeters>NAN</DistanceMeters>
          </Trackpoint>
          <Trackpoint>
            <Time>2021-04-02T12:51:51.000Z</Time>
            <Position>
              <LatitudeDegrees>42.3198363371193408966064453125</LatitudeDegrees>
              <LongitudeDegrees>2.59420783258974552154541015625</LongitudeDegrees>
            </Position>
            <AltitudeMeters>645.79998779296875</AltitudeMeters>
            <DistanceMeters>NAN</DistanceMeters>
          </Trackpoint>
          <Trackpoint>
            <Time>2021-04-02T12:51:53.000Z</Time>
            <Position>
              <LatitudeDegrees>42.3198296315968036651611328125</LatitudeDegrees>
              <LongitudeDegrees>2.59422384202480316162109375</LongitudeDegrees>
            </Position>
            <AltitudeMeters>645.4000244140625</AltitudeMeters>
            <DistanceMeters>NAN</DistanceMeters>
          </Trackpoint>
          <Trackpoint>
            <Time>2021-04-02T12:51:54.000Z</Time>
            <Position>
              <LatitudeDegrees>42.31982569210231304168701171875</LatitudeDegrees>
              <LongitudeDegrees>2.59423314593732357025146484375</LongitudeDegrees>
            </Position>
            <AltitudeMeters>645.4000244140625</AltitudeMeters>
            <DistanceMeters>NAN</DistanceMeters>
          </Trackpoint>
          <Trackpoint>
            <Time>2021-04-02T12:51:57.000Z</Time>
            <Position>
              <LatitudeDegrees>42.3198172263801097869873046875</LatitudeDegrees>
              <LongitudeDegrees>2.59426147677004337310791015625</LongitudeDegrees>
            </Position>
            <AltitudeMeters>644.5999755859375</AltitudeMeters>
            <DistanceMeters>NAN</DistanceMeters>
          </Trackpoint>
          <Trackpoint>
            <Time>2021-04-02T12:51:59.000Z</Time>
            <Position>
              <LatitudeDegrees>42.31981110759079456329345703125</LatitudeDegrees>
              <LongitudeDegrees>2.59426516480743885040283203125</LongitudeDegrees>
            </Position>
            <AltitudeMeters>644</AltitudeMeters>
            <DistanceMeters>NAN</DistanceMeters>
          </Trackpoint>
          <Trackpoint>
            <Time>2021-04-02T12:52:00.000Z</Time>
            <Position>
              <LatitudeDegrees>42.31980842538177967071533203125</LatitudeDegrees>
              <LongitudeDegrees>2.59426700882613658905029296875</LongitudeDegrees>
            </Position>
            <AltitudeMeters>643.5999755859375</AltitudeMeters>
            <DistanceMeters>NAN</DistanceMeters>
          </Trackpoint>
          <Trackpoint>
            <Time>2021-04-02T12:52:04.000Z</Time>
            <Position>
              <LatitudeDegrees>42.31978512369096279144287109375</LatitudeDegrees>
              <LongitudeDegrees>2.5942893885076045989990234375</LongitudeDegrees>
            </Position>
            <AltitudeMeters>642.5999755859375</AltitudeMeters>
            <DistanceMeters>NAN</DistanceMeters>
          </Trackpoint>
          <Trackpoint>
            <Time>2021-04-02T12:52:05.000Z</Time>
            <Position>
              <LatitudeDegrees>42.31977925635874271392822265625</LatitudeDegrees>
              <LongitudeDegrees>2.5942893885076045989990234375</LongitudeDegrees>
            </Position>
            <AltitudeMeters>642.4000244140625</AltitudeMeters>
            <DistanceMeters>NAN</DistanceMeters>
          </Trackpoint>
          <Trackpoint>
            <Time>2021-04-02T12:52:11.000Z</Time>
            <Position>
              <LatitudeDegrees>42.319741286337375640869140625</LatitudeDegrees>
              <LongitudeDegrees>2.594295926392078399658203125</LongitudeDegrees>
            </Position>
            <AltitudeMeters>641.4000244140625</AltitudeMeters>
            <DistanceMeters>NAN</DistanceMeters>
          </Trackpoint>
          <Trackpoint>
            <Time>2021-04-02T12:52:13.000Z</Time>
            <Position>
              <LatitudeDegrees>42.31973835267126560211181640625</LatitudeDegrees>
              <LongitudeDegrees>2.59431998245418071746826171875</LongitudeDegrees>
            </Position>
            <AltitudeMeters>641.20001220703125</AltitudeMeters>
            <DistanceMeters>NAN</DistanceMeters>
          </Trackpoint>
          <Trackpoint>
            <Time>2021-04-02T12:52:14.000Z</Time>
            <Position>
              <LatitudeDegrees>42.31974137015640735626220703125</LatitudeDegrees>
              <LongitudeDegrees>2.59433691389858722686767578125</LongitudeDegrees>
            </Position>
            <AltitudeMeters>641</AltitudeMeters>
            <DistanceMeters>NAN</DistanceMeters>
          </Trackpoint>
          <Trackpoint>
            <Time>2021-04-02T12:52:16.000Z</Time>
            <Position>
              <LatitudeDegrees>42.31974271126091480255126953125</LatitudeDegrees>
              <LongitudeDegrees>2.59434697218239307403564453125</LongitudeDegrees>
            </Position>
            <AltitudeMeters>640.79998779296875</AltitudeMeters>
            <DistanceMeters>NAN</DistanceMeters>
          </Trackpoint>
          <Trackpoint>
            <Time>2021-04-02T12:52:18.000Z</Time>
            <Position>
              <LatitudeDegrees>42.31973516754806041717529296875</LatitudeDegrees>
              <LongitudeDegrees>2.5943557731807231903076171875</LongitudeDegrees>
            </Position>
            <AltitudeMeters>640.4000244140625</AltitudeMeters>
            <DistanceMeters>NAN</DistanceMeters>
          </Trackpoint>
          <Trackpoint>
            <Time>2021-04-02T12:52:19.000Z</Time>
            <Position>
              <LatitudeDegrees>42.3197354190051555633544921875</LatitudeDegrees>
              <LongitudeDegrees>2.594362311065196990966796875</LongitudeDegrees>
            </Position>
            <AltitudeMeters>640.20001220703125</AltitudeMeters>
            <DistanceMeters>NAN</DistanceMeters>
          </Trackpoint>
          <Trackpoint>
            <Time>2021-04-02T12:52:22.000Z</Time>
            <Position>
              <LatitudeDegrees>42.3197324015200138092041015625</LatitudeDegrees>
              <LongitudeDegrees>2.59436641819775104522705078125</LongitudeDegrees>
            </Position>
            <AltitudeMeters>639.5999755859375</AltitudeMeters>
            <DistanceMeters>NAN</DistanceMeters>
          </Trackpoint>
          <Trackpoint>
            <Time>2021-04-02T12:52:24.000Z</Time>
            <Position>
              <LatitudeDegrees>42.3197256959974765777587890625</LatitudeDegrees>
              <LongitudeDegrees>2.59438687004148960113525390625</LongitudeDegrees>
            </Position>
            <AltitudeMeters>639.4000244140625</AltitudeMeters>
            <DistanceMeters>NAN</DistanceMeters>
          </Trackpoint>
          <Trackpoint>
            <Time>2021-04-02T12:52:25.000Z</Time>
            <Position>
              <LatitudeDegrees>42.31971974484622478485107421875</LatitudeDegrees>
              <LongitudeDegrees>2.59439910762012004852294921875</LongitudeDegrees>
            </Position>
            <AltitudeMeters>639.20001220703125</AltitudeMeters>
            <DistanceMeters>NAN</DistanceMeters>
          </Trackpoint>
          <Trackpoint>
            <Time>2021-04-02T12:52:29.000Z</Time>
            <Position>
              <LatitudeDegrees>42.319700717926025390625</LatitudeDegrees>
              <LongitudeDegrees>2.594443447887897491455078125</LongitudeDegrees>
            </Position>
            <AltitudeMeters>638.20001220703125</AltitudeMeters>
            <DistanceMeters>NAN</DistanceMeters>
          </Trackpoint>
          <Trackpoint>
            <Time>2021-04-02T12:52:31.000Z</Time>
            <Position>
              <LatitudeDegrees>42.31968621723353862762451171875</LatitudeDegrees>
              <LongitudeDegrees>2.5944633968174457550048828125</LongitudeDegrees>
            </Position>
            <AltitudeMeters>638.20001220703125</AltitudeMeters>
            <DistanceMeters>NAN</DistanceMeters>
          </Trackpoint>
          <Trackpoint>
            <Time>2021-04-02T12:52:32.000Z</Time>
            <Position>
              <LatitudeDegrees>42.319677583873271942138671875</LatitudeDegrees>
              <LongitudeDegrees>2.59447253309190273284912109375</LongitudeDegrees>
            </Position>
            <AltitudeMeters>638</AltitudeMeters>
            <DistanceMeters>NAN</DistanceMeters>
          </Trackpoint>
          <Trackpoint>
            <Time>2021-04-02T12:52:35.000Z</Time>
            <Position>
              <LatitudeDegrees>42.31968537904322147369384765625</LatitudeDegrees>
              <LongitudeDegrees>2.59448979981243610382080078125</LongitudeDegrees>
            </Position>
            <AltitudeMeters>637.5999755859375</AltitudeMeters>
            <DistanceMeters>NAN</DistanceMeters>
          </Trackpoint>
          <Trackpoint>
            <Time>2021-04-02T12:52:37.000Z</Time>
            <Position>
              <LatitudeDegrees>42.31970675289630889892578125</LatitudeDegrees>
              <LongitudeDegrees>2.5944887101650238037109375</LongitudeDegrees>
            </Position>
            <AltitudeMeters>637.20001220703125</AltitudeMeters>
            <DistanceMeters>NAN</DistanceMeters>
          </Trackpoint>
          <Trackpoint>
            <Time>2021-04-02T12:52:39.000Z</Time>
            <Position>
              <LatitudeDegrees>42.31971438042819499969482421875</LatitudeDegrees>
              <LongitudeDegrees>2.594477646052837371826171875</LongitudeDegrees>
            </Position>
            <AltitudeMeters>637</AltitudeMeters>
            <DistanceMeters>NAN</DistanceMeters>
          </Trackpoint>
          <Trackpoint>
            <Time>2021-04-02T12:52:41.000Z</Time>
            <Position>
              <LatitudeDegrees>42.31972209177911281585693359375</LatitudeDegrees>
              <LongitudeDegrees>2.59447320364415645599365234375</LongitudeDegrees>
            </Position>
            <AltitudeMeters>636.79998779296875</AltitudeMeters>
            <DistanceMeters>NAN</DistanceMeters>
          </Trackpoint>
          <Trackpoint>
            <Time>2021-04-02T12:52:44.000Z</Time>
            <Position>
              <LatitudeDegrees>42.31972712092101573944091796875</LatitudeDegrees>
              <LongitudeDegrees>2.5944580323994159698486328125</LongitudeDegrees>
            </Position>
            <AltitudeMeters>636.20001220703125</AltitudeMeters>
            <DistanceMeters>NAN</DistanceMeters>
          </Trackpoint>
          <Trackpoint>
            <Time>2021-04-02T12:52:46.000Z</Time>
            <Position>
              <LatitudeDegrees>42.31974036432802677154541015625</LatitudeDegrees>
              <LongitudeDegrees>2.5944590382277965545654296875</LongitudeDegrees>
            </Position>
            <AltitudeMeters>635.79998779296875</AltitudeMeters>
            <DistanceMeters>NAN</DistanceMeters>
          </Trackpoint>
          <Trackpoint>
            <Time>2021-04-02T12:52:48.000Z</Time>
            <Position>
              <LatitudeDegrees>42.3197541944682598114013671875</LatitudeDegrees>
              <LongitudeDegrees>2.59445719420909881591796875</LongitudeDegrees>
            </Position>
            <AltitudeMeters>635.4000244140625</AltitudeMeters>
            <DistanceMeters>NAN</DistanceMeters>
          </Trackpoint>
          <Trackpoint>
            <Time>2021-04-02T12:52:50.000Z</Time>
            <Position>
              <LatitudeDegrees>42.31975813396275043487548828125</LatitudeDegrees>
              <LongitudeDegrees>2.59444939903914928436279296875</LongitudeDegrees>
            </Position>
            <AltitudeMeters>634.79998779296875</AltitudeMeters>
            <DistanceMeters>NAN</DistanceMeters>
          </Trackpoint>
          <Trackpoint>
            <Time>2021-04-02T12:52:51.000Z</Time>
            <Position>
              <LatitudeDegrees>42.3197629116475582122802734375</LatitudeDegrees>
              <LongitudeDegrees>2.59445250034332275390625</LongitudeDegrees>
            </Position>
            <AltitudeMeters>634.5999755859375</AltitudeMeters>
            <DistanceMeters>NAN</DistanceMeters>
          </Trackpoint>
          <Trackpoint>
            <Time>2021-04-02T12:52:54.000Z</Time>
            <Position>
              <LatitudeDegrees>42.319781519472599029541015625</LatitudeDegrees>
              <LongitudeDegrees>2.59446381591260433197021484375</LongitudeDegrees>
            </Position>
            <AltitudeMeters>634.20001220703125</AltitudeMeters>
            <DistanceMeters>NAN</DistanceMeters>
          </Trackpoint>
          <Trackpoint>
            <Time>2021-04-02T12:52:57.000Z</Time>
            <Position>
              <LatitudeDegrees>42.3198031447827816009521484375</LatitudeDegrees>
              <LongitudeDegrees>2.5944650731980800628662109375</LongitudeDegrees>
            </Position>
            <AltitudeMeters>634</AltitudeMeters>
            <DistanceMeters>NAN</DistanceMeters>
          </Trackpoint>
          <Trackpoint>
            <Time>2021-04-02T12:52:58.000Z</Time>
            <Position>
              <LatitudeDegrees>42.31980892829596996307373046875</LatitudeDegrees>
              <LongitudeDegrees>2.59447018615901470184326171875</LongitudeDegrees>
            </Position>
            <AltitudeMeters>633.5999755859375</AltitudeMeters>
            <DistanceMeters>NAN</DistanceMeters>
          </Trackpoint>
          <Trackpoint>
            <Time>2021-04-02T12:53:02.000Z</Time>
            <Position>
              <LatitudeDegrees>42.3198276199400424957275390625</LatitudeDegrees>
              <LongitudeDegrees>2.59448041208088397979736328125</LongitudeDegrees>
            </Position>
            <AltitudeMeters>632.79998779296875</AltitudeMeters>
            <DistanceMeters>NAN</DistanceMeters>
          </Trackpoint>
          <Trackpoint>
            <Time>2021-04-02T12:53:04.000Z</Time>
            <Position>
              <LatitudeDegrees>42.319829128682613372802734375</LatitudeDegrees>
              <LongitudeDegrees>2.59447395801544189453125</LongitudeDegrees>
            </Position>
            <AltitudeMeters>632.4000244140625</AltitudeMeters>
            <DistanceMeters>NAN</DistanceMeters>
          </Trackpoint>
          <Trackpoint>
            <Time>2021-04-02T12:53:08.000Z</Time>
            <Position>
              <LatitudeDegrees>42.3198393546044826507568359375</LatitudeDegrees>
              <LongitudeDegrees>2.59448912926018238067626953125</LongitudeDegrees>
            </Position>
            <AltitudeMeters>631.79998779296875</AltitudeMeters>
            <DistanceMeters>NAN</DistanceMeters>
          </Trackpoint>
          <Trackpoint>
            <Time>2021-04-02T12:53:10.000Z</Time>
            <Position>
              <LatitudeDegrees>42.3198678530752658843994140625</LatitudeDegrees>
              <LongitudeDegrees>2.5945007801055908203125</LongitudeDegrees>
            </Position>
            <AltitudeMeters>631.4000244140625</AltitudeMeters>
            <DistanceMeters>NAN</DistanceMeters>
          </Trackpoint>
          <Trackpoint>
            <Time>2021-04-02T12:53:12.000Z</Time>
            <Position>
              <LatitudeDegrees>42.319867350161075592041015625</LatitudeDegrees>
              <LongitudeDegrees>2.594510503113269805908203125</LongitudeDegrees>
            </Position>
            <AltitudeMeters>630.79998779296875</AltitudeMeters>
            <DistanceMeters>NAN</DistanceMeters>
          </Trackpoint>
          <Trackpoint>
            <Time>2021-04-02T12:53:14.000Z</Time>
            <Position>
              <LatitudeDegrees>42.31986240483820438385009765625</LatitudeDegrees>
              <LongitudeDegrees>2.5945244170725345611572265625</LongitudeDegrees>
            </Position>
            <AltitudeMeters>630.4000244140625</AltitudeMeters>
            <DistanceMeters>NAN</DistanceMeters>
          </Trackpoint>
          <Trackpoint>
            <Time>2021-04-02T12:53:15.000Z</Time>
            <Position>
              <LatitudeDegrees>42.3198614828288555145263671875</LatitudeDegrees>
              <LongitudeDegrees>2.59452885948121547698974609375</LongitudeDegrees>
            </Position>
            <AltitudeMeters>630.20001220703125</AltitudeMeters>
            <DistanceMeters>NAN</DistanceMeters>
          </Trackpoint>
          <Trackpoint>
            <Time>2021-04-02T12:53:22.000Z</Time>
            <Position>
              <LatitudeDegrees>42.31990397907793521881103515625</LatitudeDegrees>
              <LongitudeDegrees>2.59458183310925960540771484375</LongitudeDegrees>
            </Position>
            <AltitudeMeters>629.5999755859375</AltitudeMeters>
            <DistanceMeters>NAN</DistanceMeters>
          </Trackpoint>
          <Trackpoint>
            <Time>2021-04-02T12:53:26.000Z</Time>
            <Position>
              <LatitudeDegrees>42.31992158107459545135498046875</LatitudeDegrees>
              <LongitudeDegrees>2.5946139357984066009521484375</LongitudeDegrees>
            </Position>
            <AltitudeMeters>629.4000244140625</AltitudeMeters>
            <DistanceMeters>NAN</DistanceMeters>
          </Trackpoint>
          <Trackpoint>
            <Time>2021-04-02T12:53:27.000Z</Time>
            <Position>
              <LatitudeDegrees>42.3199261911213397979736328125</LatitudeDegrees>
              <LongitudeDegrees>2.59462357498705387115478515625</LongitudeDegrees>
            </Position>
            <AltitudeMeters>629.20001220703125</AltitudeMeters>
            <DistanceMeters>NAN</DistanceMeters>
          </Trackpoint>
          <Trackpoint>
            <Time>2021-04-02T12:53:28.000Z</Time>
            <Position>
              <LatitudeDegrees>42.3199273645877838134765625</LatitudeDegrees>
              <LongitudeDegrees>2.59463296271860599517822265625</LongitudeDegrees>
            </Position>
            <AltitudeMeters>629</AltitudeMeters>
            <DistanceMeters>NAN</DistanceMeters>
          </Trackpoint>
          <Trackpoint>
            <Time>2021-04-02T12:53:33.000Z</Time>
            <Position>
              <LatitudeDegrees>42.31994605623185634613037109375</LatitudeDegrees>
              <LongitudeDegrees>2.59467537514865398406982421875</LongitudeDegrees>
            </Position>
            <AltitudeMeters>628</AltitudeMeters>
            <DistanceMeters>NAN</DistanceMeters>
          </Trackpoint>
          <Trackpoint>
            <Time>2021-04-02T12:53:34.000Z</Time>
            <Position>
              <LatitudeDegrees>42.31995393522083759307861328125</LatitudeDegrees>
              <LongitudeDegrees>2.5946873612701892852783203125</LongitudeDegrees>
            </Position>
            <AltitudeMeters>628</AltitudeMeters>
            <DistanceMeters>NAN</DistanceMeters>
          </Trackpoint>
          <Trackpoint>
            <Time>2021-04-02T12:53:41.000Z</Time>
            <Position>
              <LatitudeDegrees>42.31995661742985248565673828125</LatitudeDegrees>
              <LongitudeDegrees>2.5947757065296173095703125</LongitudeDegrees>
            </Position>
            <AltitudeMeters>627</AltitudeMeters>
            <DistanceMeters>NAN</DistanceMeters>
          </Trackpoint>
          <Trackpoint>
            <Time>2021-04-02T12:53:46.000Z</Time>
            <Position>
              <LatitudeDegrees>42.31991839595139026641845703125</LatitudeDegrees>
              <LongitudeDegrees>2.59479003958404064178466796875</LongitudeDegrees>
            </Position>
            <AltitudeMeters>626</AltitudeMeters>
            <DistanceMeters>NAN</DistanceMeters>
          </Trackpoint>
          <Trackpoint>
            <Time>2021-04-02T12:53:47.000Z</Time>
            <Position>
              <LatitudeDegrees>42.31991194188594818115234375</LatitudeDegrees>
              <LongitudeDegrees>2.59478366933763027191162109375</LongitudeDegrees>
            </Position>
            <AltitudeMeters>625.79998779296875</AltitudeMeters>
            <DistanceMeters>NAN</DistanceMeters>
          </Trackpoint>
          <Trackpoint>
            <Time>2021-04-02T12:53:54.000Z</Time>
            <Position>
              <LatitudeDegrees>42.31986642815172672271728515625</LatitudeDegrees>
              <LongitudeDegrees>2.59476087056100368499755859375</LongitudeDegrees>
            </Position>
            <AltitudeMeters>625</AltitudeMeters>
            <DistanceMeters>NAN</DistanceMeters>
          </Trackpoint>
          <Trackpoint>
            <Time>2021-04-02T12:53:55.000Z</Time>
            <Position>
              <LatitudeDegrees>42.31985653750598430633544921875</LatitudeDegrees>
              <LongitudeDegrees>2.59475290775299072265625</LongitudeDegrees>
            </Position>
            <AltitudeMeters>624.79998779296875</AltitudeMeters>
            <DistanceMeters>NAN</DistanceMeters>
          </Trackpoint>
          <Trackpoint>
            <Time>2021-04-02T12:54:01.000Z</Time>
            <Position>
              <LatitudeDegrees>42.319843210279941558837890625</LatitudeDegrees>
              <LongitudeDegrees>2.5947098247706890106201171875</LongitudeDegrees>
            </Position>
            <AltitudeMeters>623.79998779296875</AltitudeMeters>
            <DistanceMeters>NAN</DistanceMeters>
          </Trackpoint>
          <Trackpoint>
            <Time>2021-04-02T12:54:08.000Z</Time>
            <Position>
              <LatitudeDegrees>42.31981680728495121002197265625</LatitudeDegrees>
              <LongitudeDegrees>2.5947198830544948577880859375</LongitudeDegrees>
            </Position>
            <AltitudeMeters>622.79998779296875</AltitudeMeters>
            <DistanceMeters>NAN</DistanceMeters>
          </Trackpoint>
          <Trackpoint>
            <Time>2021-04-02T12:54:16.000Z</Time>
            <Position>
              <LatitudeDegrees>42.31980197131633758544921875</LatitudeDegrees>
              <LongitudeDegrees>2.59471309371292591094970703125</LongitudeDegrees>
            </Position>
            <AltitudeMeters>622.5999755859375</AltitudeMeters>
            <DistanceMeters>NAN</DistanceMeters>
          </Trackpoint>
          <Trackpoint>
            <Time>2021-04-02T12:54:21.000Z</Time>
            <Position>
              <LatitudeDegrees>42.31980197131633758544921875</LatitudeDegrees>
              <LongitudeDegrees>2.59471309371292591094970703125</LongitudeDegrees>
            </Position>
            <AltitudeMeters>622.5999755859375</AltitudeMeters>
            <DistanceMeters>NAN</DistanceMeters>
          </Trackpoint>
          <Trackpoint>
            <Time>2021-04-02T12:54:32.000Z</Time>
            <Position>
              <LatitudeDegrees>42.3197954334318637847900390625</LatitudeDegrees>
              <LongitudeDegrees>2.59472767822444438934326171875</LongitudeDegrees>
            </Position>
            <AltitudeMeters>622.4000244140625</AltitudeMeters>
            <DistanceMeters>NAN</DistanceMeters>
          </Trackpoint>
          <Trackpoint>
            <Time>2021-04-02T12:54:37.000Z</Time>
            <Position>
              <LatitudeDegrees>42.31979333795607089996337890625</LatitudeDegrees>
              <LongitudeDegrees>2.59474209509789943695068359375</LongitudeDegrees>
            </Position>
            <AltitudeMeters>622</AltitudeMeters>
            <DistanceMeters>NAN</DistanceMeters>
          </Trackpoint>
          <Trackpoint>
            <Time>2021-04-02T12:54:39.000Z</Time>
            <Position>
              <LatitudeDegrees>42.3197920806705951690673828125</LatitudeDegrees>
              <LongitudeDegrees>2.59474729187786579132080078125</LongitudeDegrees>
            </Position>
            <AltitudeMeters>621.79998779296875</AltitudeMeters>
            <DistanceMeters>NAN</DistanceMeters>
          </Trackpoint>
          <Trackpoint>
            <Time>2021-04-02T12:54:45.000Z</Time>
            <Position>
              <LatitudeDegrees>42.31978646479547023773193359375</LatitudeDegrees>
              <LongitudeDegrees>2.59476120583713054656982421875</LongitudeDegrees>
            </Position>
            <AltitudeMeters>621</AltitudeMeters>
            <DistanceMeters>NAN</DistanceMeters>
          </Trackpoint>
          <Trackpoint>
            <Time>2021-04-02T12:54:54.000Z</Time>
            <Position>
              <LatitudeDegrees>42.3197806812822818756103515625</LatitudeDegrees>
              <LongitudeDegrees>2.59477143175899982452392578125</LongitudeDegrees>
            </Position>
            <AltitudeMeters>621</AltitudeMeters>
            <DistanceMeters>NAN</DistanceMeters>
          </Trackpoint>
          <Trackpoint>
            <Time>2021-04-02T12:54:59.000Z</Time>
            <Position>
              <LatitudeDegrees>42.31977188028395175933837890625</LatitudeDegrees>
              <LongitudeDegrees>2.59477143175899982452392578125</LongitudeDegrees>
            </Position>
            <AltitudeMeters>621.20001220703125</AltitudeMeters>
            <DistanceMeters>NAN</DistanceMeters>
          </Trackpoint>
          <Trackpoint>
            <Time>2021-04-02T12:55:03.000Z</Time>
            <Position>
              <LatitudeDegrees>42.3197679407894611358642578125</LatitudeDegrees>
              <LongitudeDegrees>2.594767995178699493408203125</LongitudeDegrees>
            </Position>
            <AltitudeMeters>621.20001220703125</AltitudeMeters>
            <DistanceMeters>NAN</DistanceMeters>
          </Trackpoint>
          <Trackpoint>
            <Time>2021-04-02T12:55:15.000Z</Time>
            <Position>
              <LatitudeDegrees>42.3197572119534015655517578125</LatitudeDegrees>
              <LongitudeDegrees>2.59474863298237323760986328125</LongitudeDegrees>
            </Position>
            <AltitudeMeters>621</AltitudeMeters>
            <DistanceMeters>NAN</DistanceMeters>
          </Trackpoint>
          <Trackpoint>
            <Time>2021-04-02T12:55:49.000Z</Time>
            <Position>
              <LatitudeDegrees>42.319810353219509124755859375</LatitudeDegrees>
              <LongitudeDegrees>2.59472935460507869720458984375</LongitudeDegrees>
            </Position>
            <AltitudeMeters>620.79998779296875</AltitudeMeters>
            <DistanceMeters>NAN</DistanceMeters>
          </Trackpoint>
          <Trackpoint>
            <Time>2021-04-02T12:56:01.000Z</Time>
            <Position>
              <LatitudeDegrees>42.319814376533031463623046875</LatitudeDegrees>
              <LongitudeDegrees>2.5947363115847110748291015625</LongitudeDegrees>
            </Position>
            <AltitudeMeters>619.79998779296875</AltitudeMeters>
            <DistanceMeters>NAN</DistanceMeters>
          </Trackpoint>
          <Trackpoint>
            <Time>2021-04-02T12:56:02.000Z</Time>
            <Position>
              <LatitudeDegrees>42.31981462799012660980224609375</LatitudeDegrees>
              <LongitudeDegrees>2.5947366468608379364013671875</LongitudeDegrees>
            </Position>
            <AltitudeMeters>619.4000244140625</AltitudeMeters>
            <DistanceMeters>NAN</DistanceMeters>
          </Trackpoint>
          <Trackpoint>
            <Time>2021-04-02T12:56:07.000Z</Time>
            <Position>
              <LatitudeDegrees>42.31981538236141204833984375</LatitudeDegrees>
              <LongitudeDegrees>2.59473748505115509033203125</LongitudeDegrees>
            </Position>
            <AltitudeMeters>618.4000244140625</AltitudeMeters>
            <DistanceMeters>NAN</DistanceMeters>
          </Trackpoint>
          <Trackpoint>
            <Time>2021-04-02T12:56:11.000Z</Time>
            <Position>
              <LatitudeDegrees>42.3198147118091583251953125</LatitudeDegrees>
              <LongitudeDegrees>2.5947453640401363372802734375</LongitudeDegrees>
            </Position>
            <AltitudeMeters>617.4000244140625</AltitudeMeters>
            <DistanceMeters>NAN</DistanceMeters>
          </Trackpoint>
          <Trackpoint>
            <Time>2021-04-02T12:56:18.000Z</Time>
            <Position>
              <LatitudeDegrees>42.319810353219509124755859375</LatitudeDegrees>
              <LongitudeDegrees>2.5948063842952251434326171875</LongitudeDegrees>
            </Position>
            <AltitudeMeters>616.20001220703125</AltitudeMeters>
            <DistanceMeters>NAN</DistanceMeters>
          </Trackpoint>
          <Trackpoint>
            <Time>2021-04-02T12:56:24.000Z</Time>
            <Position>
              <LatitudeDegrees>42.319804318249225616455078125</LatitudeDegrees>
              <LongitudeDegrees>2.59485105983912944793701171875</LongitudeDegrees>
            </Position>
            <AltitudeMeters>615</AltitudeMeters>
            <DistanceMeters>NAN</DistanceMeters>
          </Trackpoint>
          <Trackpoint>
            <Time>2021-04-02T12:56:31.000Z</Time>
            <Position>
              <LatitudeDegrees>42.31979258358478546142578125</LatitudeDegrees>
              <LongitudeDegrees>2.59487268514931201934814453125</LongitudeDegrees>
            </Position>
            <AltitudeMeters>613.79998779296875</AltitudeMeters>
            <DistanceMeters>NAN</DistanceMeters>
          </Trackpoint>
          <Trackpoint>
            <Time>2021-04-02T12:56:36.000Z</Time>
            <Position>
              <LatitudeDegrees>42.3197783343493938446044921875</LatitudeDegrees>
              <LongitudeDegrees>2.59487427771091461181640625</LongitudeDegrees>
            </Position>
            <AltitudeMeters>612.5999755859375</AltitudeMeters>
            <DistanceMeters>NAN</DistanceMeters>
          </Trackpoint>
          <Trackpoint>
            <Time>2021-04-02T12:56:41.000Z</Time>
            <Position>
              <LatitudeDegrees>42.31972980313003063201904296875</LatitudeDegrees>
              <LongitudeDegrees>2.594851814210414886474609375</LongitudeDegrees>
            </Position>
            <AltitudeMeters>611.5999755859375</AltitudeMeters>
            <DistanceMeters>NAN</DistanceMeters>
          </Trackpoint>
          <Trackpoint>
            <Time>2021-04-02T12:56:43.000Z</Time>
            <Position>
              <LatitudeDegrees>42.3196901567280292510986328125</LatitudeDegrees>
              <LongitudeDegrees>2.5948400795459747314453125</LongitudeDegrees>
            </Position>
            <AltitudeMeters>611.4000244140625</AltitudeMeters>
            <DistanceMeters>NAN</DistanceMeters>
          </Trackpoint>
          <Trackpoint>
            <Time>2021-04-02T12:56:47.000Z</Time>
            <Position>
              <LatitudeDegrees>42.31960893608629703521728515625</LatitudeDegrees>
              <LongitudeDegrees>2.5948023609817028045654296875</LongitudeDegrees>
            </Position>
            <AltitudeMeters>611.20001220703125</AltitudeMeters>
            <DistanceMeters>NAN</DistanceMeters>
          </Trackpoint>
          <Trackpoint>
            <Time>2021-04-02T12:56:53.000Z</Time>
            <Position>
              <LatitudeDegrees>42.3195540346205234527587890625</LatitudeDegrees>
              <LongitudeDegrees>2.5947917997837066650390625</LongitudeDegrees>
            </Position>
            <AltitudeMeters>610.4000244140625</AltitudeMeters>
            <DistanceMeters>NAN</DistanceMeters>
          </Trackpoint>
          <Trackpoint>
            <Time>2021-04-02T12:56:56.000Z</Time>
            <Position>
              <LatitudeDegrees>42.31951086781919002532958984375</LatitudeDegrees>
              <LongitudeDegrees>2.59478635154664516448974609375</LongitudeDegrees>
            </Position>
            <AltitudeMeters>609.79998779296875</AltitudeMeters>
            <DistanceMeters>NAN</DistanceMeters>
          </Trackpoint>
          <Trackpoint>
            <Time>2021-04-02T12:56:58.000Z</Time>
            <Position>
              <LatitudeDegrees>42.3194916732609272003173828125</LatitudeDegrees>
              <LongitudeDegrees>2.59478576481342315673828125</LongitudeDegrees>
            </Position>
            <AltitudeMeters>609.5999755859375</AltitudeMeters>
            <DistanceMeters>NAN</DistanceMeters>
          </Trackpoint>
          <Trackpoint>
            <Time>2021-04-02T12:57:01.000Z</Time>
            <Position>
              <LatitudeDegrees>42.31947071850299835205078125</LatitudeDegrees>
              <LongitudeDegrees>2.59478509426116943359375</LongitudeDegrees>
            </Position>
            <AltitudeMeters>609.20001220703125</AltitudeMeters>
            <DistanceMeters>NAN</DistanceMeters>
          </Trackpoint>
          <Trackpoint>
            <Time>2021-04-02T12:57:04.000Z</Time>
            <Position>
              <LatitudeDegrees>42.31944448314607143402099609375</LatitudeDegrees>
              <LongitudeDegrees>2.59479054249823093414306640625</LongitudeDegrees>
            </Position>
            <AltitudeMeters>609</AltitudeMeters>
            <DistanceMeters>NAN</DistanceMeters>
          </Trackpoint>
          <Trackpoint>
            <Time>2021-04-02T12:57:09.000Z</Time>
            <Position>
              <LatitudeDegrees>42.3193907551467418670654296875</LatitudeDegrees>
              <LongitudeDegrees>2.59480051696300506591796875</LongitudeDegrees>
            </Position>
            <AltitudeMeters>608.20001220703125</AltitudeMeters>
            <DistanceMeters>NAN</DistanceMeters>
          </Trackpoint>
          <Trackpoint>
            <Time>2021-04-02T12:57:10.000Z</Time>
            <Position>
              <LatitudeDegrees>42.3193833790719509124755859375</LatitudeDegrees>
              <LongitudeDegrees>2.59479423053562641143798828125</LongitudeDegrees>
            </Position>
            <AltitudeMeters>608.20001220703125</AltitudeMeters>
            <DistanceMeters>NAN</DistanceMeters>
          </Trackpoint>
          <Trackpoint>
            <Time>2021-04-02T12:57:14.000Z</Time>
            <Position>
              <LatitudeDegrees>42.31934071518480777740478515625</LatitudeDegrees>
              <LongitudeDegrees>2.5947582721710205078125</LongitudeDegrees>
            </Position>
            <AltitudeMeters>608</AltitudeMeters>
            <DistanceMeters>NAN</DistanceMeters>
          </Trackpoint>
          <Trackpoint>
            <Time>2021-04-02T12:57:17.000Z</Time>
            <Position>
              <LatitudeDegrees>42.319306433200836181640625</LatitudeDegrees>
              <LongitudeDegrees>2.59473572485148906707763671875</LongitudeDegrees>
            </Position>
            <AltitudeMeters>607.79998779296875</AltitudeMeters>
            <DistanceMeters>NAN</DistanceMeters>
          </Trackpoint>
          <Trackpoint>
            <Time>2021-04-02T12:57:21.000Z</Time>
            <Position>
              <LatitudeDegrees>42.319274246692657470703125</LatitudeDegrees>
              <LongitudeDegrees>2.59472784586250782012939453125</LongitudeDegrees>
            </Position>
            <AltitudeMeters>607.79998779296875</AltitudeMeters>
            <DistanceMeters>NAN</DistanceMeters>
          </Trackpoint>
          <Trackpoint>
            <Time>2021-04-02T12:57:24.000Z</Time>
            <Position>
              <LatitudeDegrees>42.3192482627928256988525390625</LatitudeDegrees>
              <LongitudeDegrees>2.59470974095165729522705078125</LongitudeDegrees>
            </Position>
            <AltitudeMeters>607.4000244140625</AltitudeMeters>
            <DistanceMeters>NAN</DistanceMeters>
          </Trackpoint>
          <Trackpoint>
            <Time>2021-04-02T12:57:25.000Z</Time>
            <Position>
              <LatitudeDegrees>42.31923644430935382843017578125</LatitudeDegrees>
              <LongitudeDegrees>2.594700269401073455810546875</LongitudeDegrees>
            </Position>
            <AltitudeMeters>607.4000244140625</AltitudeMeters>
            <DistanceMeters>NAN</DistanceMeters>
          </Trackpoint>
          <Trackpoint>
            <Time>2021-04-02T12:57:26.000Z</Time>
            <Position>
              <LatitudeDegrees>42.319233007729053497314453125</LatitudeDegrees>
              <LongitudeDegrees>2.5946997664868831634521484375</LongitudeDegrees>
            </Position>
            <AltitudeMeters>607</AltitudeMeters>
            <DistanceMeters>NAN</DistanceMeters>
          </Trackpoint>
          <Trackpoint>
            <Time>2021-04-02T12:57:27.000Z</Time>
            <Position>
              <LatitudeDegrees>42.31922437436878681182861328125</LatitudeDegrees>
              <LongitudeDegrees>2.5946960784494876861572265625</LongitudeDegrees>
            </Position>
            <AltitudeMeters>607</AltitudeMeters>
            <DistanceMeters>NAN</DistanceMeters>
          </Trackpoint>
          <Trackpoint>
            <Time>2021-04-02T12:57:29.000Z</Time>
            <Position>
              <LatitudeDegrees>42.31920844875276088714599609375</LatitudeDegrees>
              <LongitudeDegrees>2.5946927256882190704345703125</LongitudeDegrees>
            </Position>
            <AltitudeMeters>606.5999755859375</AltitudeMeters>
            <DistanceMeters>NAN</DistanceMeters>
          </Trackpoint>
          <Trackpoint>
            <Time>2021-04-02T12:57:32.000Z</Time>
            <Position>
              <LatitudeDegrees>42.31918984092772006988525390625</LatitudeDegrees>
              <LongitudeDegrees>2.59469716809689998626708984375</LongitudeDegrees>
            </Position>
            <AltitudeMeters>606</AltitudeMeters>
            <DistanceMeters>NAN</DistanceMeters>
          </Trackpoint>
          <Trackpoint>
            <Time>2021-04-02T12:57:36.000Z</Time>
            <Position>
              <LatitudeDegrees>42.319187410175800323486328125</LatitudeDegrees>
              <LongitudeDegrees>2.5946846790611743927001953125</LongitudeDegrees>
            </Position>
            <AltitudeMeters>605</AltitudeMeters>
            <DistanceMeters>NAN</DistanceMeters>
          </Trackpoint>
          <Trackpoint>
            <Time>2021-04-02T12:57:37.000Z</Time>
            <Position>
              <LatitudeDegrees>42.3191832192242145538330078125</LatitudeDegrees>
              <LongitudeDegrees>2.5946803204715251922607421875</LongitudeDegrees>
            </Position>
            <AltitudeMeters>604.5999755859375</AltitudeMeters>
            <DistanceMeters>NAN</DistanceMeters>
          </Trackpoint>
          <Trackpoint>
            <Time>2021-04-02T12:57:38.000Z</Time>
            <Position>
              <LatitudeDegrees>42.319171987473964691162109375</LatitudeDegrees>
              <LongitudeDegrees>2.594672776758670806884765625</LongitudeDegrees>
            </Position>
            <AltitudeMeters>604.4000244140625</AltitudeMeters>
            <DistanceMeters>NAN</DistanceMeters>
          </Trackpoint>
          <Trackpoint>
            <Time>2021-04-02T12:57:40.000Z</Time>
            <Position>
              <LatitudeDegrees>42.31917240656912326812744140625</LatitudeDegrees>
              <LongitudeDegrees>2.59466146118938922882080078125</LongitudeDegrees>
            </Position>
            <AltitudeMeters>603.5999755859375</AltitudeMeters>
            <DistanceMeters>NAN</DistanceMeters>
          </Trackpoint>
          <Trackpoint>
            <Time>2021-04-02T12:57:41.000Z</Time>
            <Position>
              <LatitudeDegrees>42.31916201300919055938720703125</LatitudeDegrees>
              <LongitudeDegrees>2.594656683504581451416015625</LongitudeDegrees>
            </Position>
            <AltitudeMeters>603.4000244140625</AltitudeMeters>
            <DistanceMeters>NAN</DistanceMeters>
          </Trackpoint>
          <Trackpoint>
            <Time>2021-04-02T12:57:42.000Z</Time>
            <Position>
              <LatitudeDegrees>42.31915245763957500457763671875</LatitudeDegrees>
              <LongitudeDegrees>2.5946558453142642974853515625</LongitudeDegrees>
            </Position>
            <AltitudeMeters>603.4000244140625</AltitudeMeters>
            <DistanceMeters>NAN</DistanceMeters>
          </Trackpoint>
          <Trackpoint>
            <Time>2021-04-02T12:57:45.000Z</Time>
            <Position>
              <LatitudeDegrees>42.319118678569793701171875</LatitudeDegrees>
              <LongitudeDegrees>2.59464897215366363525390625</LongitudeDegrees>
            </Position>
            <AltitudeMeters>603</AltitudeMeters>
            <DistanceMeters>NAN</DistanceMeters>
          </Trackpoint>
          <Trackpoint>
            <Time>2021-04-02T12:57:46.000Z</Time>
            <Position>
              <LatitudeDegrees>42.31911490671336650848388671875</LatitudeDegrees>
              <LongitudeDegrees>2.5946394167840480804443359375</LongitudeDegrees>
            </Position>
            <AltitudeMeters>603</AltitudeMeters>
            <DistanceMeters>NAN</DistanceMeters>
          </Trackpoint>
          <Trackpoint>
            <Time>2021-04-02T12:57:48.000Z</Time>
            <Position>
              <LatitudeDegrees>42.3191014118492603302001953125</LatitudeDegrees>
              <LongitudeDegrees>2.594614438712596893310546875</LongitudeDegrees>
            </Position>
            <AltitudeMeters>602.5999755859375</AltitudeMeters>
            <DistanceMeters>NAN</DistanceMeters>
          </Trackpoint>
          <Trackpoint>
            <Time>2021-04-02T12:57:49.000Z</Time>
            <Position>
              <LatitudeDegrees>42.31909680180251598358154296875</LatitudeDegrees>
              <LongitudeDegrees>2.59460203349590301513671875</LongitudeDegrees>
            </Position>
            <AltitudeMeters>602.4000244140625</AltitudeMeters>
            <DistanceMeters>NAN</DistanceMeters>
          </Trackpoint>
          <Trackpoint>
            <Time>2021-04-02T12:57:51.000Z</Time>
            <Position>
              <LatitudeDegrees>42.31908045709133148193359375</LatitudeDegrees>
              <LongitudeDegrees>2.59458133019506931304931640625</LongitudeDegrees>
            </Position>
            <AltitudeMeters>602.4000244140625</AltitudeMeters>
            <DistanceMeters>NAN</DistanceMeters>
          </Trackpoint>
          <Trackpoint>
            <Time>2021-04-02T12:57:55.000Z</Time>
            <Position>
              <LatitudeDegrees>42.3190641961991786956787109375</LatitudeDegrees>
              <LongitudeDegrees>2.59454579092562198638916015625</LongitudeDegrees>
            </Position>
            <AltitudeMeters>602.20001220703125</AltitudeMeters>
            <DistanceMeters>NAN</DistanceMeters>
          </Trackpoint>
          <Trackpoint>
            <Time>2021-04-02T12:57:57.000Z</Time>
            <Position>
              <LatitudeDegrees>42.31906243599951267242431640625</LatitudeDegrees>
              <LongitudeDegrees>2.59453958831727504730224609375</LongitudeDegrees>
            </Position>
            <AltitudeMeters>602.20001220703125</AltitudeMeters>
            <DistanceMeters>NAN</DistanceMeters>
          </Trackpoint>
          <Trackpoint>
            <Time>2021-04-02T12:58:00.000Z</Time>
            <Position>
              <LatitudeDegrees>42.3190615139901638031005859375</LatitudeDegrees>
              <LongitudeDegrees>2.59452885948121547698974609375</LongitudeDegrees>
            </Position>
            <AltitudeMeters>602</AltitudeMeters>
            <DistanceMeters>NAN</DistanceMeters>
          </Trackpoint>
          <Trackpoint>
            <Time>2021-04-02T12:58:06.000Z</Time>
            <Position>
              <LatitudeDegrees>42.31906109489500522613525390625</LatitudeDegrees>
              <LongitudeDegrees>2.59454545564949512481689453125</LongitudeDegrees>
            </Position>
            <AltitudeMeters>602</AltitudeMeters>
            <DistanceMeters>NAN</DistanceMeters>
          </Trackpoint>
          <Trackpoint>
            <Time>2021-04-02T12:58:25.000Z</Time>
            <Position>
              <LatitudeDegrees>42.31906377710402011871337890625</LatitudeDegrees>
              <LongitudeDegrees>2.59453254751861095428466796875</LongitudeDegrees>
            </Position>
            <AltitudeMeters>602</AltitudeMeters>
            <DistanceMeters>NAN</DistanceMeters>
          </Trackpoint>
          <Trackpoint>
            <Time>2021-04-02T12:58:28.000Z</Time>
            <Position>
              <LatitudeDegrees>42.319064699113368988037109375</LatitudeDegrees>
              <LongitudeDegrees>2.594530284404754638671875</LongitudeDegrees>
            </Position>
            <AltitudeMeters>602.20001220703125</AltitudeMeters>
            <DistanceMeters>NAN</DistanceMeters>
          </Trackpoint>
          <Trackpoint>
            <Time>2021-04-02T12:59:11.000Z</Time>
            <Position>
              <LatitudeDegrees>42.3191205225884914398193359375</LatitudeDegrees>
              <LongitudeDegrees>2.5944955833256244659423828125</LongitudeDegrees>
            </Position>
            <AltitudeMeters>603</AltitudeMeters>
            <DistanceMeters>NAN</DistanceMeters>
          </Trackpoint>
          <Trackpoint>
            <Time>2021-04-02T12:59:21.000Z</Time>
            <Position>
              <LatitudeDegrees>42.31912580318748950958251953125</LatitudeDegrees>
              <LongitudeDegrees>2.59449549950659275054931640625</LongitudeDegrees>
            </Position>
            <AltitudeMeters>603.4000244140625</AltitudeMeters>
            <DistanceMeters>NAN</DistanceMeters>
          </Trackpoint>
          <Trackpoint>
            <Time>2021-04-02T12:59:25.000Z</Time>
            <Position>
              <LatitudeDegrees>42.31912739574909210205078125</LatitudeDegrees>
              <LongitudeDegrees>2.59449541568756103515625</LongitudeDegrees>
            </Position>
            <AltitudeMeters>603.5999755859375</AltitudeMeters>
            <DistanceMeters>NAN</DistanceMeters>
          </Trackpoint>
          <Trackpoint>
            <Time>2021-04-02T12:59:39.000Z</Time>
            <Position>
              <LatitudeDegrees>42.31914483010768890380859375</LatitudeDegrees>
              <LongitudeDegrees>2.59448845870792865753173828125</LongitudeDegrees>
            </Position>
            <AltitudeMeters>603.5999755859375</AltitudeMeters>
            <DistanceMeters>NAN</DistanceMeters>
          </Trackpoint>
          <Trackpoint>
            <Time>2021-04-02T13:00:02.000Z</Time>
            <Position>
              <LatitudeDegrees>42.31913678348064422607421875</LatitudeDegrees>
              <LongitudeDegrees>2.59448845870792865753173828125</LongitudeDegrees>
            </Position>
            <AltitudeMeters>602.79998779296875</AltitudeMeters>
            <DistanceMeters>NAN</DistanceMeters>
          </Trackpoint>
          <Trackpoint>
            <Time>2021-04-02T13:00:12.000Z</Time>
            <Position>
              <LatitudeDegrees>42.3191289044916629791259765625</LatitudeDegrees>
              <LongitudeDegrees>2.59449147619307041168212890625</LongitudeDegrees>
            </Position>
            <AltitudeMeters>602.4000244140625</AltitudeMeters>
            <DistanceMeters>NAN</DistanceMeters>
          </Trackpoint>
          <Trackpoint>
            <Time>2021-04-02T13:00:13.000Z</Time>
            <Position>
              <LatitudeDegrees>42.31912882067263126373291015625</LatitudeDegrees>
              <LongitudeDegrees>2.59449164383113384246826171875</LongitudeDegrees>
            </Position>
            <AltitudeMeters>602.4000244140625</AltitudeMeters>
            <DistanceMeters>NAN</DistanceMeters>
          </Trackpoint>
          <Trackpoint>
            <Time>2021-04-02T13:00:27.000Z</Time>
            <Position>
              <LatitudeDegrees>42.31913217343389987945556640625</LatitudeDegrees>
              <LongitudeDegrees>2.5944996066391468048095703125</LongitudeDegrees>
            </Position>
            <AltitudeMeters>601.5999755859375</AltitudeMeters>
            <DistanceMeters>NAN</DistanceMeters>
          </Trackpoint>
          <Trackpoint>
            <Time>2021-04-02T13:00:32.000Z</Time>
            <Position>
              <LatitudeDegrees>42.319145165383815765380859375</LatitudeDegrees>
              <LongitudeDegrees>2.59450404904782772064208984375</LongitudeDegrees>
            </Position>
            <AltitudeMeters>601.5999755859375</AltitudeMeters>
            <DistanceMeters>NAN</DistanceMeters>
          </Trackpoint>
          <Trackpoint>
            <Time>2021-04-02T13:00:34.000Z</Time>
            <Position>
              <LatitudeDegrees>42.31914944015443325042724609375</LatitudeDegrees>
              <LongitudeDegrees>2.59450471960008144378662109375</LongitudeDegrees>
            </Position>
            <AltitudeMeters>601.5999755859375</AltitudeMeters>
            <DistanceMeters>NAN</DistanceMeters>
          </Trackpoint>
          <Trackpoint>
            <Time>2021-04-02T13:00:37.000Z</Time>
            <Position>
              <LatitudeDegrees>42.3191553913056850433349609375</LatitudeDegrees>
              <LongitudeDegrees>2.59450522251427173614501953125</LongitudeDegrees>
            </Position>
            <AltitudeMeters>601.5999755859375</AltitudeMeters>
            <DistanceMeters>NAN</DistanceMeters>
          </Trackpoint>
          <Trackpoint>
            <Time>2021-04-02T13:00:55.000Z</Time>
            <Position>
              <LatitudeDegrees>42.31918229721486568450927734375</LatitudeDegrees>
              <LongitudeDegrees>2.5944949127733707427978515625</LongitudeDegrees>
            </Position>
            <AltitudeMeters>601.5999755859375</AltitudeMeters>
            <DistanceMeters>NAN</DistanceMeters>
          </Trackpoint>
          <Trackpoint>
            <Time>2021-04-02T13:01:01.000Z</Time>
            <Position>
              <LatitudeDegrees>42.319183386862277984619140625</LatitudeDegrees>
              <LongitudeDegrees>2.59449264965951442718505859375</LongitudeDegrees>
            </Position>
            <AltitudeMeters>601.4000244140625</AltitudeMeters>
            <DistanceMeters>NAN</DistanceMeters>
          </Trackpoint>
          <Trackpoint>
            <Time>2021-04-02T13:01:04.000Z</Time>
            <Position>
              <LatitudeDegrees>42.319183386862277984619140625</LatitudeDegrees>
              <LongitudeDegrees>2.5944918952882289886474609375</LongitudeDegrees>
            </Position>
            <AltitudeMeters>601.5999755859375</AltitudeMeters>
            <DistanceMeters>NAN</DistanceMeters>
          </Trackpoint>
          <Trackpoint>
            <Time>2021-04-02T13:01:34.000Z</Time>
            <Position>
              <LatitudeDegrees>42.31917425058782100677490234375</LatitudeDegrees>
              <LongitudeDegrees>2.59448728524148464202880859375</LongitudeDegrees>
            </Position>
            <AltitudeMeters>602</AltitudeMeters>
            <DistanceMeters>NAN</DistanceMeters>
          </Trackpoint>
          <Trackpoint>
            <Time>2021-04-02T13:02:01.000Z</Time>
            <Position>
              <LatitudeDegrees>42.31917257420718669891357421875</LatitudeDegrees>
              <LongitudeDegrees>2.59448728524148464202880859375</LongitudeDegrees>
            </Position>
            <AltitudeMeters>602</AltitudeMeters>
            <DistanceMeters>NAN</DistanceMeters>
          </Trackpoint>
          <Trackpoint>
            <Time>2021-04-02T13:02:03.000Z</Time>
            <Position>
              <LatitudeDegrees>42.3191724903881549835205078125</LatitudeDegrees>
              <LongitudeDegrees>2.59448728524148464202880859375</LongitudeDegrees>
            </Position>
            <AltitudeMeters>602</AltitudeMeters>
            <DistanceMeters>NAN</DistanceMeters>
          </Trackpoint>
          <Trackpoint>
            <Time>2021-04-02T13:02:13.000Z</Time>
            <Position>
              <LatitudeDegrees>42.31909923255443572998046875</LatitudeDegrees>
              <LongitudeDegrees>2.5944245047867298126220703125</LongitudeDegrees>
            </Position>
            <AltitudeMeters>600.4000244140625</AltitudeMeters>
            <DistanceMeters>NAN</DistanceMeters>
          </Trackpoint>
          <Trackpoint>
            <Time>2021-04-02T13:02:14.000Z</Time>
            <Position>
              <LatitudeDegrees>42.3190779425203800201416015625</LatitudeDegrees>
              <LongitudeDegrees>2.594406567513942718505859375</LongitudeDegrees>
            </Position>
            <AltitudeMeters>600.4000244140625</AltitudeMeters>
            <DistanceMeters>NAN</DistanceMeters>
          </Trackpoint>
          <Trackpoint>
            <Time>2021-04-02T13:02:22.000Z</Time>
            <Position>
              <LatitudeDegrees>42.31894475407898426055908203125</LatitudeDegrees>
              <LongitudeDegrees>2.59429626166820526123046875</LongitudeDegrees>
            </Position>
            <AltitudeMeters>599.20001220703125</AltitudeMeters>
            <DistanceMeters>NAN</DistanceMeters>
          </Trackpoint>
          <Trackpoint>
            <Time>2021-04-02T13:02:23.000Z</Time>
            <Position>
              <LatitudeDegrees>42.3189421556890010833740234375</LatitudeDegrees>
              <LongitudeDegrees>2.59427547454833984375</LongitudeDegrees>
            </Position>
            <AltitudeMeters>599</AltitudeMeters>
            <DistanceMeters>NAN</DistanceMeters>
          </Trackpoint>
          <Trackpoint>
            <Time>2021-04-02T13:02:25.000Z</Time>
            <Position>
              <LatitudeDegrees>42.3189367912709712982177734375</LatitudeDegrees>
              <LongitudeDegrees>2.5942531786859035491943359375</LongitudeDegrees>
            </Position>
            <AltitudeMeters>599</AltitudeMeters>
            <DistanceMeters>NAN</DistanceMeters>
          </Trackpoint>
          <Trackpoint>
            <Time>2021-04-02T13:02:27.000Z</Time>
            <Position>
              <LatitudeDegrees>42.3189247213304042816162109375</LatitudeDegrees>
              <LongitudeDegrees>2.594238258898258209228515625</LongitudeDegrees>
            </Position>
            <AltitudeMeters>599</AltitudeMeters>
            <DistanceMeters>NAN</DistanceMeters>
          </Trackpoint>
          <Trackpoint>
            <Time>2021-04-02T13:02:28.000Z</Time>
            <Position>
              <LatitudeDegrees>42.3189227096736431121826171875</LatitudeDegrees>
              <LongitudeDegrees>2.59423063136637210845947265625</LongitudeDegrees>
            </Position>
            <AltitudeMeters>599</AltitudeMeters>
            <DistanceMeters>NAN</DistanceMeters>
          </Trackpoint>
          <Trackpoint>
            <Time>2021-04-02T13:02:33.000Z</Time>
            <Position>
              <LatitudeDegrees>42.3188989050686359405517578125</LatitudeDegrees>
              <LongitudeDegrees>2.59419207461178302764892578125</LongitudeDegrees>
            </Position>
            <AltitudeMeters>599.20001220703125</AltitudeMeters>
            <DistanceMeters>NAN</DistanceMeters>
          </Trackpoint>
          <Trackpoint>
            <Time>2021-04-02T13:02:41.000Z</Time>
            <Position>
              <LatitudeDegrees>42.31885171495378017425537109375</LatitudeDegrees>
              <LongitudeDegrees>2.5941271148622035980224609375</LongitudeDegrees>
            </Position>
            <AltitudeMeters>598.79998779296875</AltitudeMeters>
            <DistanceMeters>NAN</DistanceMeters>
          </Trackpoint>
          <Trackpoint>
            <Time>2021-04-02T13:02:48.000Z</Time>
            <Position>
              <LatitudeDegrees>42.31883008964359760284423828125</LatitudeDegrees>
              <LongitudeDegrees>2.59409249760210514068603515625</LongitudeDegrees>
            </Position>
            <AltitudeMeters>598.20001220703125</AltitudeMeters>
            <DistanceMeters>NAN</DistanceMeters>
          </Trackpoint>
          <Trackpoint>
            <Time>2021-04-02T13:02:55.000Z</Time>
            <Position>
              <LatitudeDegrees>42.31879387982189655303955078125</LatitudeDegrees>
              <LongitudeDegrees>2.5940563715994358062744140625</LongitudeDegrees>
            </Position>
            <AltitudeMeters>597.5999755859375</AltitudeMeters>
            <DistanceMeters>NAN</DistanceMeters>
          </Trackpoint>
          <Trackpoint>
            <Time>2021-04-02T13:03:03.000Z</Time>
            <Position>
              <LatitudeDegrees>42.318744175136089324951171875</LatitudeDegrees>
              <LongitudeDegrees>2.5940047390758991241455078125</LongitudeDegrees>
            </Position>
            <AltitudeMeters>597.4000244140625</AltitudeMeters>
            <DistanceMeters>NAN</DistanceMeters>
          </Trackpoint>
          <Trackpoint>
            <Time>2021-04-02T13:03:08.000Z</Time>
            <Position>
              <LatitudeDegrees>42.3187031038105487823486328125</LatitudeDegrees>
              <LongitudeDegrees>2.593972720205783843994140625</LongitudeDegrees>
            </Position>
            <AltitudeMeters>597.5999755859375</AltitudeMeters>
            <DistanceMeters>NAN</DistanceMeters>
          </Trackpoint>
          <Trackpoint>
            <Time>2021-04-02T13:03:12.000Z</Time>
            <Position>
              <LatitudeDegrees>42.318690530955791473388671875</LatitudeDegrees>
              <LongitudeDegrees>2.5939578004181385040283203125</LongitudeDegrees>
            </Position>
            <AltitudeMeters>596.79998779296875</AltitudeMeters>
            <DistanceMeters>NAN</DistanceMeters>
          </Trackpoint>
          <Trackpoint>
            <Time>2021-04-02T13:03:15.000Z</Time>
            <Position>
              <LatitudeDegrees>42.3186747729778289794921875</LatitudeDegrees>
              <LongitudeDegrees>2.59396693669259548187255859375</LongitudeDegrees>
            </Position>
            <AltitudeMeters>595.79998779296875</AltitudeMeters>
            <DistanceMeters>NAN</DistanceMeters>
          </Trackpoint>
          <Trackpoint>
            <Time>2021-04-02T13:03:17.000Z</Time>
            <Position>
              <LatitudeDegrees>42.3186752758920192718505859375</LatitudeDegrees>
              <LongitudeDegrees>2.5939782522618770599365234375</LongitudeDegrees>
            </Position>
            <AltitudeMeters>595</AltitudeMeters>
            <DistanceMeters>NAN</DistanceMeters>
          </Trackpoint>
          <Trackpoint>
            <Time>2021-04-02T13:03:18.000Z</Time>
            <Position>
              <LatitudeDegrees>42.31868080794811248779296875</LatitudeDegrees>
              <LongitudeDegrees>2.59398487396538257598876953125</LongitudeDegrees>
            </Position>
            <AltitudeMeters>594.79998779296875</AltitudeMeters>
            <DistanceMeters>NAN</DistanceMeters>
          </Trackpoint>
          <Trackpoint>
            <Time>2021-04-02T13:03:19.000Z</Time>
            <Position>
              <LatitudeDegrees>42.3186772875487804412841796875</LatitudeDegrees>
              <LongitudeDegrees>2.5939909927546977996826171875</LongitudeDegrees>
            </Position>
            <AltitudeMeters>594.4000244140625</AltitudeMeters>
            <DistanceMeters>NAN</DistanceMeters>
          </Trackpoint>
          <Trackpoint>
            <Time>2021-04-02T13:03:21.000Z</Time>
            <Position>
              <LatitudeDegrees>42.3186729289591312408447265625</LatitudeDegrees>
              <LongitudeDegrees>2.59400247596204280853271484375</LongitudeDegrees>
            </Position>
            <AltitudeMeters>594</AltitudeMeters>
            <DistanceMeters>NAN</DistanceMeters>
          </Trackpoint>
          <Trackpoint>
            <Time>2021-04-02T13:03:22.000Z</Time>
            <Position>
              <LatitudeDegrees>42.318669743835926055908203125</LatitudeDegrees>
              <LongitudeDegrees>2.59400549344718456268310546875</LongitudeDegrees>
            </Position>
            <AltitudeMeters>593.5999755859375</AltitudeMeters>
            <DistanceMeters>NAN</DistanceMeters>
          </Trackpoint>
          <Trackpoint>
            <Time>2021-04-02T13:03:24.000Z</Time>
            <Position>
              <LatitudeDegrees>42.31865759007632732391357421875</LatitudeDegrees>
              <LongitudeDegrees>2.59399845264852046966552734375</LongitudeDegrees>
            </Position>
            <AltitudeMeters>593</AltitudeMeters>
            <DistanceMeters>NAN</DistanceMeters>
          </Trackpoint>
          <Trackpoint>
            <Time>2021-04-02T13:03:26.000Z</Time>
            <Position>
              <LatitudeDegrees>42.31863914988934993743896484375</LatitudeDegrees>
              <LongitudeDegrees>2.59398587979376316070556640625</LongitudeDegrees>
            </Position>
            <AltitudeMeters>592.4000244140625</AltitudeMeters>
            <DistanceMeters>NAN</DistanceMeters>
          </Trackpoint>
          <Trackpoint>
            <Time>2021-04-02T13:03:32.000Z</Time>
            <Position>
              <LatitudeDegrees>42.31857628561556339263916015625</LatitudeDegrees>
              <LongitudeDegrees>2.59399660862982273101806640625</LongitudeDegrees>
            </Position>
            <AltitudeMeters>591.20001220703125</AltitudeMeters>
            <DistanceMeters>NAN</DistanceMeters>
          </Trackpoint>
          <Trackpoint>
            <Time>2021-04-02T13:03:37.000Z</Time>
            <Position>
              <LatitudeDegrees>42.3185272514820098876953125</LatitudeDegrees>
              <LongitudeDegrees>2.5939923338592052459716796875</LongitudeDegrees>
            </Position>
            <AltitudeMeters>590.20001220703125</AltitudeMeters>
            <DistanceMeters>NAN</DistanceMeters>
          </Trackpoint>
          <Trackpoint>
            <Time>2021-04-02T13:03:40.000Z</Time>
            <Position>
              <LatitudeDegrees>42.3185106553137302398681640625</LatitudeDegrees>
              <LongitudeDegrees>2.59397263638675212860107421875</LongitudeDegrees>
            </Position>
            <AltitudeMeters>589.79998779296875</AltitudeMeters>
            <DistanceMeters>NAN</DistanceMeters>
          </Trackpoint>
          <Trackpoint>
            <Time>2021-04-02T13:03:43.000Z</Time>
            <Position>
              <LatitudeDegrees>42.3185019381344318389892578125</LatitudeDegrees>
              <LongitudeDegrees>2.59392972104251384735107421875</LongitudeDegrees>
            </Position>
            <AltitudeMeters>589.5999755859375</AltitudeMeters>
            <DistanceMeters>NAN</DistanceMeters>
          </Trackpoint>
          <Trackpoint>
            <Time>2021-04-02T13:03:45.000Z</Time>
            <Position>
              <LatitudeDegrees>42.31848760508000850677490234375</LatitudeDegrees>
              <LongitudeDegrees>2.5939125381410121917724609375</LongitudeDegrees>
            </Position>
            <AltitudeMeters>589.5999755859375</AltitudeMeters>
            <DistanceMeters>NAN</DistanceMeters>
          </Trackpoint>
          <Trackpoint>
            <Time>2021-04-02T13:03:51.000Z</Time>
            <Position>
              <LatitudeDegrees>42.3184389062225818634033203125</LatitudeDegrees>
              <LongitudeDegrees>2.5938749872148036956787109375</LongitudeDegrees>
            </Position>
            <AltitudeMeters>589.4000244140625</AltitudeMeters>
            <DistanceMeters>NAN</DistanceMeters>
          </Trackpoint>
          <Trackpoint>
            <Time>2021-04-02T13:03:54.000Z</Time>
            <Position>
              <LatitudeDegrees>42.3184258304536342620849609375</LatitudeDegrees>
              <LongitudeDegrees>2.5938642583787441253662109375</LongitudeDegrees>
            </Position>
            <AltitudeMeters>589</AltitudeMeters>
            <DistanceMeters>NAN</DistanceMeters>
          </Trackpoint>
          <Trackpoint>
            <Time>2021-04-02T13:03:56.000Z</Time>
            <Position>
              <LatitudeDegrees>42.31842272914946079254150390625</LatitudeDegrees>
              <LongitudeDegrees>2.59382687509059906005859375</LongitudeDegrees>
            </Position>
            <AltitudeMeters>588.5999755859375</AltitudeMeters>
            <DistanceMeters>NAN</DistanceMeters>
          </Trackpoint>
          <Trackpoint>
            <Time>2021-04-02T13:03:59.000Z</Time>
            <Position>
              <LatitudeDegrees>42.31840747408568859100341796875</LatitudeDegrees>
              <LongitudeDegrees>2.5937998853623867034912109375</LongitudeDegrees>
            </Position>
            <AltitudeMeters>588.4000244140625</AltitudeMeters>
            <DistanceMeters>NAN</DistanceMeters>
          </Trackpoint>
          <Trackpoint>
            <Time>2021-04-02T13:04:01.000Z</Time>
            <Position>
              <LatitudeDegrees>42.31837344355881214141845703125</LatitudeDegrees>
              <LongitudeDegrees>2.59378521703183650970458984375</LongitudeDegrees>
            </Position>
            <AltitudeMeters>588.4000244140625</AltitudeMeters>
            <DistanceMeters>NAN</DistanceMeters>
          </Trackpoint>
          <Trackpoint>
            <Time>2021-04-02T13:04:04.000Z</Time>
            <Position>
              <LatitudeDegrees>42.3183456994593143463134765625</LatitudeDegrees>
              <LongitudeDegrees>2.59376962669193744659423828125</LongitudeDegrees>
            </Position>
            <AltitudeMeters>588.20001220703125</AltitudeMeters>
            <DistanceMeters>NAN</DistanceMeters>
          </Trackpoint>
          <Trackpoint>
            <Time>2021-04-02T13:04:06.000Z</Time>
            <Position>
              <LatitudeDegrees>42.31832851655781269073486328125</LatitudeDegrees>
              <LongitudeDegrees>2.59375973604619503021240234375</LongitudeDegrees>
            </Position>
            <AltitudeMeters>588</AltitudeMeters>
            <DistanceMeters>NAN</DistanceMeters>
          </Trackpoint>
          <Trackpoint>
            <Time>2021-04-02T13:04:07.000Z</Time>
            <Position>
              <LatitudeDegrees>42.31832801364362239837646484375</LatitudeDegrees>
              <LongitudeDegrees>2.59375085122883319854736328125</LongitudeDegrees>
            </Position>
            <AltitudeMeters>588</AltitudeMeters>
            <DistanceMeters>NAN</DistanceMeters>
          </Trackpoint>
          <Trackpoint>
            <Time>2021-04-02T13:04:08.000Z</Time>
            <Position>
              <LatitudeDegrees>42.318323068320751190185546875</LatitudeDegrees>
              <LongitudeDegrees>2.5937425531446933746337890625</LongitudeDegrees>
            </Position>
            <AltitudeMeters>587.79998779296875</AltitudeMeters>
            <DistanceMeters>NAN</DistanceMeters>
          </Trackpoint>
          <Trackpoint>
            <Time>2021-04-02T13:04:11.000Z</Time>
            <Position>
              <LatitudeDegrees>42.3183272592723369598388671875</LatitudeDegrees>
              <LongitudeDegrees>2.593731321394443511962890625</LongitudeDegrees>
            </Position>
            <AltitudeMeters>587.5999755859375</AltitudeMeters>
            <DistanceMeters>NAN</DistanceMeters>
          </Trackpoint>
          <Trackpoint>
            <Time>2021-04-02T13:04:15.000Z</Time>
            <Position>
              <LatitudeDegrees>42.318338491022586822509765625</LatitudeDegrees>
              <LongitudeDegrees>2.593731991946697235107421875</LongitudeDegrees>
            </Position>
            <AltitudeMeters>587.5999755859375</AltitudeMeters>
            <DistanceMeters>NAN</DistanceMeters>
          </Trackpoint>
          <Trackpoint>
            <Time>2021-04-02T13:04:18.000Z</Time>
            <Position>
              <LatitudeDegrees>42.31832415796816349029541015625</LatitudeDegrees>
              <LongitudeDegrees>2.5937247835099697113037109375</LongitudeDegrees>
            </Position>
            <AltitudeMeters>587.4000244140625</AltitudeMeters>
            <DistanceMeters>NAN</DistanceMeters>
          </Trackpoint>
          <Trackpoint>
            <Time>2021-04-02T13:04:22.000Z</Time>
            <Position>
              <LatitudeDegrees>42.31829666532576084136962890625</LatitudeDegrees>
              <LongitudeDegrees>2.59370307438075542449951171875</LongitudeDegrees>
            </Position>
            <AltitudeMeters>586.79998779296875</AltitudeMeters>
            <DistanceMeters>NAN</DistanceMeters>
          </Trackpoint>
          <Trackpoint>
            <Time>2021-04-02T13:04:25.000Z</Time>
            <Position>
              <LatitudeDegrees>42.318267412483692169189453125</LatitudeDegrees>
              <LongitudeDegrees>2.59367574937641620635986328125</LongitudeDegrees>
            </Position>
            <AltitudeMeters>586</AltitudeMeters>
            <DistanceMeters>NAN</DistanceMeters>
          </Trackpoint>
          <Trackpoint>
            <Time>2021-04-02T13:04:28.000Z</Time>
            <Position>
              <LatitudeDegrees>42.3182375729084014892578125</LatitudeDegrees>
              <LongitudeDegrees>2.59367407299578189849853515625</LongitudeDegrees>
            </Position>
            <AltitudeMeters>585.5999755859375</AltitudeMeters>
            <DistanceMeters>NAN</DistanceMeters>
          </Trackpoint>
          <Trackpoint>
            <Time>2021-04-02T13:04:33.000Z</Time>
            <Position>
              <LatitudeDegrees>42.3182028718292713165283203125</LatitudeDegrees>
              <LongitudeDegrees>2.59364305995404720306396484375</LongitudeDegrees>
            </Position>
            <AltitudeMeters>585</AltitudeMeters>
            <DistanceMeters>NAN</DistanceMeters>
          </Trackpoint>
          <Trackpoint>
            <Time>2021-04-02T13:04:35.000Z</Time>
            <Position>
              <LatitudeDegrees>42.3181998543441295623779296875</LatitudeDegrees>
              <LongitudeDegrees>2.59363400749862194061279296875</LongitudeDegrees>
            </Position>
            <AltitudeMeters>584.4000244140625</AltitudeMeters>
            <DistanceMeters>NAN</DistanceMeters>
          </Trackpoint>
          <Trackpoint>
            <Time>2021-04-02T13:04:40.000Z</Time>
            <Position>
              <LatitudeDegrees>42.31816984713077545166015625</LatitudeDegrees>
              <LongitudeDegrees>2.5936037488281726837158203125</LongitudeDegrees>
            </Position>
            <AltitudeMeters>583.79998779296875</AltitudeMeters>
            <DistanceMeters>NAN</DistanceMeters>
          </Trackpoint>
          <Trackpoint>
            <Time>2021-04-02T13:04:42.000Z</Time>
            <Position>
              <LatitudeDegrees>42.31816180050373077392578125</LatitudeDegrees>
              <LongitudeDegrees>2.593606598675251007080078125</LongitudeDegrees>
            </Position>
            <AltitudeMeters>583.4000244140625</AltitudeMeters>
            <DistanceMeters>NAN</DistanceMeters>
          </Trackpoint>
          <Trackpoint>
            <Time>2021-04-02T13:04:48.000Z</Time>
            <Position>
              <LatitudeDegrees>42.3181294463574886322021484375</LatitudeDegrees>
              <LongitudeDegrees>2.59354918263852596282958984375</LongitudeDegrees>
            </Position>
            <AltitudeMeters>582.4000244140625</AltitudeMeters>
            <DistanceMeters>NAN</DistanceMeters>
          </Trackpoint>
          <Trackpoint>
            <Time>2021-04-02T13:04:52.000Z</Time>
            <Position>
              <LatitudeDegrees>42.318114526569843292236328125</LatitudeDegrees>
              <LongitudeDegrees>2.59351280517876148223876953125</LongitudeDegrees>
            </Position>
            <AltitudeMeters>582</AltitudeMeters>
            <DistanceMeters>NAN</DistanceMeters>
          </Trackpoint>
          <Trackpoint>
            <Time>2021-04-02T13:04:56.000Z</Time>
            <Position>
              <LatitudeDegrees>42.318097762763500213623046875</LatitudeDegrees>
              <LongitudeDegrees>2.5934800319373607635498046875</LongitudeDegrees>
            </Position>
            <AltitudeMeters>581.5999755859375</AltitudeMeters>
            <DistanceMeters>NAN</DistanceMeters>
          </Trackpoint>
          <Trackpoint>
            <Time>2021-04-02T13:04:57.000Z</Time>
            <Position>
              <LatitudeDegrees>42.31809583492577075958251953125</LatitudeDegrees>
              <LongitudeDegrees>2.59348430670797824859619140625</LongitudeDegrees>
            </Position>
            <AltitudeMeters>581.4000244140625</AltitudeMeters>
            <DistanceMeters>NAN</DistanceMeters>
          </Trackpoint>
          <Trackpoint>
            <Time>2021-04-02T13:05:01.000Z</Time>
            <Position>
              <LatitudeDegrees>42.31806850992143154144287109375</LatitudeDegrees>
              <LongitudeDegrees>2.593471147119998931884765625</LongitudeDegrees>
            </Position>
            <AltitudeMeters>581.20001220703125</AltitudeMeters>
            <DistanceMeters>NAN</DistanceMeters>
          </Trackpoint>
          <Trackpoint>
            <Time>2021-04-02T13:05:03.000Z</Time>
            <Position>
              <LatitudeDegrees>42.31806121766567230224609375</LatitudeDegrees>
              <LongitudeDegrees>2.593457736074924468994140625</LongitudeDegrees>
            </Position>
            <AltitudeMeters>581</AltitudeMeters>
            <DistanceMeters>NAN</DistanceMeters>
          </Trackpoint>
          <Trackpoint>
            <Time>2021-04-02T13:05:06.000Z</Time>
            <Position>
              <LatitudeDegrees>42.3180479742586612701416015625</LatitudeDegrees>
              <LongitudeDegrees>2.593424879014492034912109375</LongitudeDegrees>
            </Position>
            <AltitudeMeters>581</AltitudeMeters>
            <DistanceMeters>NAN</DistanceMeters>
          </Trackpoint>
          <Trackpoint>
            <Time>2021-04-02T13:05:08.000Z</Time>
            <Position>
              <LatitudeDegrees>42.31804805807769298553466796875</LatitudeDegrees>
              <LongitudeDegrees>2.5934045948088169097900390625</LongitudeDegrees>
            </Position>
            <AltitudeMeters>581</AltitudeMeters>
            <DistanceMeters>NAN</DistanceMeters>
          </Trackpoint>
          <Trackpoint>
            <Time>2021-04-02T13:05:10.000Z</Time>
            <Position>
              <LatitudeDegrees>42.31804034672677516937255859375</LatitudeDegrees>
              <LongitudeDegrees>2.59338305331766605377197265625</LongitudeDegrees>
            </Position>
            <AltitudeMeters>581</AltitudeMeters>
            <DistanceMeters>NAN</DistanceMeters>
          </Trackpoint>
          <Trackpoint>
            <Time>2021-04-02T13:05:15.000Z</Time>
            <Position>
              <LatitudeDegrees>42.3179980181157588958740234375</LatitudeDegrees>
              <LongitudeDegrees>2.593344748020172119140625</LongitudeDegrees>
            </Position>
            <AltitudeMeters>581.20001220703125</AltitudeMeters>
            <DistanceMeters>NAN</DistanceMeters>
          </Trackpoint>
          <Trackpoint>
            <Time>2021-04-02T13:05:18.000Z</Time>
            <Position>
              <LatitudeDegrees>42.3179815895855426788330078125</LatitudeDegrees>
              <LongitudeDegrees>2.593326307833194732666015625</LongitudeDegrees>
            </Position>
            <AltitudeMeters>581.20001220703125</AltitudeMeters>
            <DistanceMeters>NAN</DistanceMeters>
          </Trackpoint>
          <Trackpoint>
            <Time>2021-04-02T13:05:24.000Z</Time>
            <Position>
              <LatitudeDegrees>42.3179584555327892303466796875</LatitudeDegrees>
              <LongitudeDegrees>2.59328515268862247467041015625</LongitudeDegrees>
            </Position>
            <AltitudeMeters>581</AltitudeMeters>
            <DistanceMeters>NAN</DistanceMeters>
          </Trackpoint>
          <Trackpoint>
            <Time>2021-04-02T13:05:26.000Z</Time>
            <Position>
              <LatitudeDegrees>42.3179611377418041229248046875</LatitudeDegrees>
              <LongitudeDegrees>2.5932704843580722808837890625</LongitudeDegrees>
            </Position>
            <AltitudeMeters>581</AltitudeMeters>
            <DistanceMeters>NAN</DistanceMeters>
          </Trackpoint>
          <Trackpoint>
            <Time>2021-04-02T13:05:30.000Z</Time>
            <Position>
              <LatitudeDegrees>42.31795418076217174530029296875</LatitudeDegrees>
              <LongitudeDegrees>2.5932584144175052642822265625</LongitudeDegrees>
            </Position>
            <AltitudeMeters>580.5999755859375</AltitudeMeters>
            <DistanceMeters>NAN</DistanceMeters>
          </Trackpoint>
          <Trackpoint>
            <Time>2021-04-02T13:05:35.000Z</Time>
            <Position>
              <LatitudeDegrees>42.31792417354881763458251953125</LatitudeDegrees>
              <LongitudeDegrees>2.59323603473603725433349609375</LongitudeDegrees>
            </Position>
            <AltitudeMeters>580.20001220703125</AltitudeMeters>
            <DistanceMeters>NAN</DistanceMeters>
          </Trackpoint>
          <Trackpoint>
            <Time>2021-04-02T13:05:36.000Z</Time>
            <Position>
              <LatitudeDegrees>42.31792040169239044189453125</LatitudeDegrees>
              <LongitudeDegrees>2.59323368780314922332763671875</LongitudeDegrees>
            </Position>
            <AltitudeMeters>580.20001220703125</AltitudeMeters>
            <DistanceMeters>NAN</DistanceMeters>
          </Trackpoint>
          <Trackpoint>
            <Time>2021-04-02T13:05:39.000Z</Time>
            <Position>
              <LatitudeDegrees>42.317898608744144439697265625</LatitudeDegrees>
              <LongitudeDegrees>2.593232095241546630859375</LongitudeDegrees>
            </Position>
            <AltitudeMeters>580</AltitudeMeters>
            <DistanceMeters>NAN</DistanceMeters>
          </Trackpoint>
          <Trackpoint>
            <Time>2021-04-02T13:05:42.000Z</Time>
            <Position>
              <LatitudeDegrees>42.3178883828222751617431640625</LatitudeDegrees>
              <LongitudeDegrees>2.5932292453944683074951171875</LongitudeDegrees>
            </Position>
            <AltitudeMeters>579.20001220703125</AltitudeMeters>
            <DistanceMeters>NAN</DistanceMeters>
          </Trackpoint>
          <Trackpoint>
            <Time>2021-04-02T13:05:43.000Z</Time>
            <Position>
              <LatitudeDegrees>42.31787790544331073760986328125</LatitudeDegrees>
              <LongitudeDegrees>2.5932305864989757537841796875</LongitudeDegrees>
            </Position>
            <AltitudeMeters>579</AltitudeMeters>
            <DistanceMeters>NAN</DistanceMeters>
          </Trackpoint>
          <Trackpoint>
            <Time>2021-04-02T13:05:50.000Z</Time>
            <Position>
              <LatitudeDegrees>42.3178193159401416778564453125</LatitudeDegrees>
              <LongitudeDegrees>2.59318071417510509490966796875</LongitudeDegrees>
            </Position>
            <AltitudeMeters>578.20001220703125</AltitudeMeters>
            <DistanceMeters>NAN</DistanceMeters>
          </Trackpoint>
          <Trackpoint>
            <Time>2021-04-02T13:05:52.000Z</Time>
            <Position>
              <LatitudeDegrees>42.31780163012444972991943359375</LatitudeDegrees>
              <LongitudeDegrees>2.59317216463387012481689453125</LongitudeDegrees>
            </Position>
            <AltitudeMeters>578</AltitudeMeters>
            <DistanceMeters>NAN</DistanceMeters>
          </Trackpoint>
          <Trackpoint>
            <Time>2021-04-02T13:05:57.000Z</Time>
            <Position>
              <LatitudeDegrees>42.31775754131376743316650390625</LatitudeDegrees>
              <LongitudeDegrees>2.59314291179180145263671875</LongitudeDegrees>
            </Position>
            <AltitudeMeters>577</AltitudeMeters>
            <DistanceMeters>NAN</DistanceMeters>
          </Trackpoint>
          <Trackpoint>
            <Time>2021-04-02T13:06:03.000Z</Time>
            <Position>
              <LatitudeDegrees>42.3177194036543369293212890625</LatitudeDegrees>
              <LongitudeDegrees>2.5931051932275295257568359375</LongitudeDegrees>
            </Position>
            <AltitudeMeters>576.4000244140625</AltitudeMeters>
            <DistanceMeters>NAN</DistanceMeters>
          </Trackpoint>
          <Trackpoint>
            <Time>2021-04-02T13:06:04.000Z</Time>
            <Position>
              <LatitudeDegrees>42.317716889083385467529296875</LatitudeDegrees>
              <LongitudeDegrees>2.59309471584856510162353515625</LongitudeDegrees>
            </Position>
            <AltitudeMeters>576.4000244140625</AltitudeMeters>
            <DistanceMeters>NAN</DistanceMeters>
          </Trackpoint>
          <Trackpoint>
            <Time>2021-04-02T13:06:05.000Z</Time>
            <Position>
              <LatitudeDegrees>42.317713201045989990234375</LatitudeDegrees>
              <LongitudeDegrees>2.59308549575507640838623046875</LongitudeDegrees>
            </Position>
            <AltitudeMeters>576.20001220703125</AltitudeMeters>
            <DistanceMeters>NAN</DistanceMeters>
          </Trackpoint>
          <Trackpoint>
            <Time>2021-04-02T13:06:08.000Z</Time>
            <Position>
              <LatitudeDegrees>42.31769953854382038116455078125</LatitudeDegrees>
              <LongitudeDegrees>2.5930590927600860595703125</LongitudeDegrees>
            </Position>
            <AltitudeMeters>575.79998779296875</AltitudeMeters>
            <DistanceMeters>NAN</DistanceMeters>
          </Trackpoint>
          <Trackpoint>
            <Time>2021-04-02T13:06:09.000Z</Time>
            <Position>
              <LatitudeDegrees>42.317692749202251434326171875</LatitudeDegrees>
              <LongitudeDegrees>2.59304392151534557342529296875</LongitudeDegrees>
            </Position>
            <AltitudeMeters>575.79998779296875</AltitudeMeters>
            <DistanceMeters>NAN</DistanceMeters>
          </Trackpoint>
          <Trackpoint>
            <Time>2021-04-02T13:06:11.000Z</Time>
            <Position>
              <LatitudeDegrees>42.3176828585565090179443359375</LatitudeDegrees>
              <LongitudeDegrees>2.5930223800241947174072265625</LongitudeDegrees>
            </Position>
            <AltitudeMeters>575.5999755859375</AltitudeMeters>
            <DistanceMeters>NAN</DistanceMeters>
          </Trackpoint>
          <Trackpoint>
            <Time>2021-04-02T13:06:12.000Z</Time>
            <Position>
              <LatitudeDegrees>42.317679338157176971435546875</LatitudeDegrees>
              <LongitudeDegrees>2.5930123217403888702392578125</LongitudeDegrees>
            </Position>
            <AltitudeMeters>575.4000244140625</AltitudeMeters>
            <DistanceMeters>NAN</DistanceMeters>
          </Trackpoint>
          <Trackpoint>
            <Time>2021-04-02T13:06:16.000Z</Time>
            <Position>
              <LatitudeDegrees>42.3176523484289646148681640625</LatitudeDegrees>
              <LongitudeDegrees>2.5929704122245311737060546875</LongitudeDegrees>
            </Position>
            <AltitudeMeters>575.20001220703125</AltitudeMeters>
            <DistanceMeters>NAN</DistanceMeters>
          </Trackpoint>
          <Trackpoint>
            <Time>2021-04-02T13:06:18.000Z</Time>
            <Position>
              <LatitudeDegrees>42.31764321215450763702392578125</LatitudeDegrees>
              <LongitudeDegrees>2.59294820018112659454345703125</LongitudeDegrees>
            </Position>
            <AltitudeMeters>575.20001220703125</AltitudeMeters>
            <DistanceMeters>NAN</DistanceMeters>
          </Trackpoint>
          <Trackpoint>
            <Time>2021-04-02T13:06:24.000Z</Time>
            <Position>
              <LatitudeDegrees>42.3176221735775470733642578125</LatitudeDegrees>
              <LongitudeDegrees>2.59290151298046112060546875</LongitudeDegrees>
            </Position>
            <AltitudeMeters>575.4000244140625</AltitudeMeters>
            <DistanceMeters>NAN</DistanceMeters>
          </Trackpoint>
          <Trackpoint>
            <Time>2021-04-02T13:06:32.000Z</Time>
            <Position>
              <LatitudeDegrees>42.31761605478823184967041015625</LatitudeDegrees>
              <LongitudeDegrees>2.5928289256989955902099609375</LongitudeDegrees>
            </Position>
            <AltitudeMeters>575.4000244140625</AltitudeMeters>
            <DistanceMeters>NAN</DistanceMeters>
          </Trackpoint>
          <Trackpoint>
            <Time>2021-04-02T13:06:39.000Z</Time>
            <Position>
              <LatitudeDegrees>42.31761555187404155731201171875</LatitudeDegrees>
              <LongitudeDegrees>2.59275910444557666778564453125</LongitudeDegrees>
            </Position>
            <AltitudeMeters>576.20001220703125</AltitudeMeters>
            <DistanceMeters>NAN</DistanceMeters>
          </Trackpoint>
          <Trackpoint>
            <Time>2021-04-02T13:06:41.000Z</Time>
            <Position>
              <LatitudeDegrees>42.317612282931804656982421875</LatitudeDegrees>
              <LongitudeDegrees>2.59272708557546138763427734375</LongitudeDegrees>
            </Position>
            <AltitudeMeters>576.4000244140625</AltitudeMeters>
            <DistanceMeters>NAN</DistanceMeters>
          </Trackpoint>
          <Trackpoint>
            <Time>2021-04-02T13:06:46.000Z</Time>
            <Position>
              <LatitudeDegrees>42.31758956797420978546142578125</LatitudeDegrees>
              <LongitudeDegrees>2.5926757045090198516845703125</LongitudeDegrees>
            </Position>
            <AltitudeMeters>576.20001220703125</AltitudeMeters>
            <DistanceMeters>NAN</DistanceMeters>
          </Trackpoint>
          <Trackpoint>
            <Time>2021-04-02T13:06:53.000Z</Time>
            <Position>
              <LatitudeDegrees>42.3175494186580181121826171875</LatitudeDegrees>
              <LongitudeDegrees>2.5926089845597743988037109375</LongitudeDegrees>
            </Position>
            <AltitudeMeters>575.79998779296875</AltitudeMeters>
            <DistanceMeters>NAN</DistanceMeters>
          </Trackpoint>
          <Trackpoint>
            <Time>2021-04-02T13:07:00.000Z</Time>
            <Position>
              <LatitudeDegrees>42.31754078529775142669677734375</LatitudeDegrees>
              <LongitudeDegrees>2.592547796666622161865234375</LongitudeDegrees>
            </Position>
            <AltitudeMeters>575.20001220703125</AltitudeMeters>
            <DistanceMeters>NAN</DistanceMeters>
          </Trackpoint>
          <Trackpoint>
            <Time>2021-04-02T13:07:07.000Z</Time>
            <Position>
              <LatitudeDegrees>42.31750759296119213104248046875</LatitudeDegrees>
              <LongitudeDegrees>2.592483423650264739990234375</LongitudeDegrees>
            </Position>
            <AltitudeMeters>575.20001220703125</AltitudeMeters>
            <DistanceMeters>NAN</DistanceMeters>
          </Trackpoint>
          <Trackpoint>
            <Time>2021-04-02T13:07:10.000Z</Time>
            <Position>
              <LatitudeDegrees>42.31748722493648529052734375</LatitudeDegrees>
              <LongitudeDegrees>2.5924671627581119537353515625</LongitudeDegrees>
            </Position>
            <AltitudeMeters>574.79998779296875</AltitudeMeters>
            <DistanceMeters>NAN</DistanceMeters>
          </Trackpoint>
          <Trackpoint>
            <Time>2021-04-02T13:07:14.000Z</Time>
            <Position>
              <LatitudeDegrees>42.317460738122463226318359375</LatitudeDegrees>
              <LongitudeDegrees>2.59243547916412353515625</LongitudeDegrees>
            </Position>
            <AltitudeMeters>574.4000244140625</AltitudeMeters>
            <DistanceMeters>NAN</DistanceMeters>
          </Trackpoint>
          <Trackpoint>
            <Time>2021-04-02T13:07:21.000Z</Time>
            <Position>
              <LatitudeDegrees>42.31741388328373432159423828125</LatitudeDegrees>
              <LongitudeDegrees>2.5923776440322399139404296875</LongitudeDegrees>
            </Position>
            <AltitudeMeters>574.20001220703125</AltitudeMeters>
            <DistanceMeters>NAN</DistanceMeters>
          </Trackpoint>
          <Trackpoint>
            <Time>2021-04-02T13:07:26.000Z</Time>
            <Position>
              <LatitudeDegrees>42.31740533374249935150146484375</LatitudeDegrees>
              <LongitudeDegrees>2.59233246557414531707763671875</LongitudeDegrees>
            </Position>
            <AltitudeMeters>574.20001220703125</AltitudeMeters>
            <DistanceMeters>NAN</DistanceMeters>
          </Trackpoint>
          <Trackpoint>
            <Time>2021-04-02T13:07:28.000Z</Time>
            <Position>
              <LatitudeDegrees>42.31739812530577182769775390625</LatitudeDegrees>
              <LongitudeDegrees>2.5923152826726436614990234375</LongitudeDegrees>
            </Position>
            <AltitudeMeters>574.20001220703125</AltitudeMeters>
            <DistanceMeters>NAN</DistanceMeters>
          </Trackpoint>
          <Trackpoint>
            <Time>2021-04-02T13:07:33.000Z</Time>
            <Position>
              <LatitudeDegrees>42.317380607128143310546875</LatitudeDegrees>
              <LongitudeDegrees>2.59225904010236263275146484375</LongitudeDegrees>
            </Position>
            <AltitudeMeters>574</AltitudeMeters>
            <DistanceMeters>NAN</DistanceMeters>
          </Trackpoint>
          <Trackpoint>
            <Time>2021-04-02T13:07:39.000Z</Time>
            <Position>
              <LatitudeDegrees>42.3173422180116176605224609375</LatitudeDegrees>
              <LongitudeDegrees>2.59219500236213207244873046875</LongitudeDegrees>
            </Position>
            <AltitudeMeters>574</AltitudeMeters>
            <DistanceMeters>NAN</DistanceMeters>
          </Trackpoint>
          <Trackpoint>
            <Time>2021-04-02T13:07:44.000Z</Time>
            <Position>
              <LatitudeDegrees>42.3173348419368267059326171875</LatitudeDegrees>
              <LongitudeDegrees>2.59212878532707691192626953125</LongitudeDegrees>
            </Position>
            <AltitudeMeters>573.5999755859375</AltitudeMeters>
            <DistanceMeters>NAN</DistanceMeters>
          </Trackpoint>
          <Trackpoint>
            <Time>2021-04-02T13:07:45.000Z</Time>
            <Position>
              <LatitudeDegrees>42.31733559630811214447021484375</LatitudeDegrees>
              <LongitudeDegrees>2.5921221636235713958740234375</LongitudeDegrees>
            </Position>
            <AltitudeMeters>573.5999755859375</AltitudeMeters>
            <DistanceMeters>NAN</DistanceMeters>
          </Trackpoint>
          <Trackpoint>
            <Time>2021-04-02T13:07:52.000Z</Time>
            <Position>
              <LatitudeDegrees>42.3173355124890804290771484375</LatitudeDegrees>
              <LongitudeDegrees>2.5919969379901885986328125</LongitudeDegrees>
            </Position>
            <AltitudeMeters>572.79998779296875</AltitudeMeters>
            <DistanceMeters>NAN</DistanceMeters>
          </Trackpoint>
          <Trackpoint>
            <Time>2021-04-02T13:07:54.000Z</Time>
            <Position>
              <LatitudeDegrees>42.3173417150974273681640625</LatitudeDegrees>
              <LongitudeDegrees>2.5919759832322597503662109375</LongitudeDegrees>
            </Position>
            <AltitudeMeters>572.5999755859375</AltitudeMeters>
            <DistanceMeters>NAN</DistanceMeters>
          </Trackpoint>
          <Trackpoint>
            <Time>2021-04-02T13:07:57.000Z</Time>
            <Position>
              <LatitudeDegrees>42.31734062545001506805419921875</LatitudeDegrees>
              <LongitudeDegrees>2.59196064434945583343505859375</LongitudeDegrees>
            </Position>
            <AltitudeMeters>572</AltitudeMeters>
            <DistanceMeters>NAN</DistanceMeters>
          </Trackpoint>
          <Trackpoint>
            <Time>2021-04-02T13:08:03.000Z</Time>
            <Position>
              <LatitudeDegrees>42.3173355124890804290771484375</LatitudeDegrees>
              <LongitudeDegrees>2.5919142924249172210693359375</LongitudeDegrees>
            </Position>
            <AltitudeMeters>571.5999755859375</AltitudeMeters>
            <DistanceMeters>NAN</DistanceMeters>
          </Trackpoint>
          <Trackpoint>
            <Time>2021-04-02T13:08:09.000Z</Time>
            <Position>
              <LatitudeDegrees>42.31733945198357105255126953125</LatitudeDegrees>
              <LongitudeDegrees>2.591869533061981201171875</LongitudeDegrees>
            </Position>
            <AltitudeMeters>571.5999755859375</AltitudeMeters>
            <DistanceMeters>NAN</DistanceMeters>
          </Trackpoint>
          <Trackpoint>
            <Time>2021-04-02T13:08:13.000Z</Time>
            <Position>
              <LatitudeDegrees>42.317344062030315399169921875</LatitudeDegrees>
              <LongitudeDegrees>2.59185905568301677703857421875</LongitudeDegrees>
            </Position>
            <AltitudeMeters>571.5999755859375</AltitudeMeters>
            <DistanceMeters>NAN</DistanceMeters>
          </Trackpoint>
          <Trackpoint>
            <Time>2021-04-02T13:08:15.000Z</Time>
            <Position>
              <LatitudeDegrees>42.3173455707728862762451171875</LatitudeDegrees>
              <LongitudeDegrees>2.5918401964008808135986328125</LongitudeDegrees>
            </Position>
            <AltitudeMeters>571.5999755859375</AltitudeMeters>
            <DistanceMeters>NAN</DistanceMeters>
          </Trackpoint>
          <Trackpoint>
            <Time>2021-04-02T13:08:21.000Z</Time>
            <Position>
              <LatitudeDegrees>42.317336015403270721435546875</LatitudeDegrees>
              <LongitudeDegrees>2.591826282441616058349609375</LongitudeDegrees>
            </Position>
            <AltitudeMeters>572</AltitudeMeters>
            <DistanceMeters>NAN</DistanceMeters>
          </Trackpoint>
          <Trackpoint>
            <Time>2021-04-02T13:08:27.000Z</Time>
            <Position>
              <LatitudeDegrees>42.31730483472347259521484375</LatitudeDegrees>
              <LongitudeDegrees>2.5918224267661571502685546875</LongitudeDegrees>
            </Position>
            <AltitudeMeters>572.20001220703125</AltitudeMeters>
            <DistanceMeters>NAN</DistanceMeters>
          </Trackpoint>
          <Trackpoint>
            <Time>2021-04-02T13:08:32.000Z</Time>
            <Position>
              <LatitudeDegrees>42.31732168234884738922119140625</LatitudeDegrees>
              <LongitudeDegrees>2.591793425381183624267578125</LongitudeDegrees>
            </Position>
            <AltitudeMeters>572.20001220703125</AltitudeMeters>
            <DistanceMeters>NAN</DistanceMeters>
          </Trackpoint>
          <Trackpoint>
            <Time>2021-04-02T13:08:36.000Z</Time>
            <Position>
              <LatitudeDegrees>42.31732419691979885101318359375</LatitudeDegrees>
              <LongitudeDegrees>2.59179468266665935516357421875</LongitudeDegrees>
            </Position>
            <AltitudeMeters>572.20001220703125</AltitudeMeters>
            <DistanceMeters>NAN</DistanceMeters>
          </Trackpoint>
          <Trackpoint>
            <Time>2021-04-02T13:08:37.000Z</Time>
            <Position>
              <LatitudeDegrees>42.31732763350009918212890625</LatitudeDegrees>
              <LongitudeDegrees>2.59179568849503993988037109375</LongitudeDegrees>
            </Position>
            <AltitudeMeters>572</AltitudeMeters>
            <DistanceMeters>NAN</DistanceMeters>
          </Trackpoint>
          <Trackpoint>
            <Time>2021-04-02T13:08:41.000Z</Time>
            <Position>
              <LatitudeDegrees>42.31733475811779499053955078125</LatitudeDegrees>
              <LongitudeDegrees>2.59183877147734165191650390625</LongitudeDegrees>
            </Position>
            <AltitudeMeters>572</AltitudeMeters>
            <DistanceMeters>NAN</DistanceMeters>
          </Trackpoint>
          <Trackpoint>
            <Time>2021-04-02T13:08:47.000Z</Time>
            <Position>
              <LatitudeDegrees>42.31734104454517364501953125</LatitudeDegrees>
              <LongitudeDegrees>2.59185570292174816131591796875</LongitudeDegrees>
            </Position>
            <AltitudeMeters>572</AltitudeMeters>
            <DistanceMeters>NAN</DistanceMeters>
          </Trackpoint>
          <Trackpoint>
            <Time>2021-04-02T13:08:53.000Z</Time>
            <Position>
              <LatitudeDegrees>42.3173095285892486572265625</LatitudeDegrees>
              <LongitudeDegrees>2.5918452255427837371826171875</LongitudeDegrees>
            </Position>
            <AltitudeMeters>572.20001220703125</AltitudeMeters>
            <DistanceMeters>NAN</DistanceMeters>
          </Trackpoint>
          <Trackpoint>
            <Time>2021-04-02T13:08:57.000Z</Time>
            <Position>
              <LatitudeDegrees>42.31729486025869846343994140625</LatitudeDegrees>
              <LongitudeDegrees>2.5918482430279254913330078125</LongitudeDegrees>
            </Position>
            <AltitudeMeters>572.20001220703125</AltitudeMeters>
            <DistanceMeters>NAN</DistanceMeters>
          </Trackpoint>
          <Trackpoint>
            <Time>2021-04-02T13:09:01.000Z</Time>
            <Position>
              <LatitudeDegrees>42.31727859936654567718505859375</LatitudeDegrees>
              <LongitudeDegrees>2.59183458052575588226318359375</LongitudeDegrees>
            </Position>
            <AltitudeMeters>572</AltitudeMeters>
            <DistanceMeters>NAN</DistanceMeters>
          </Trackpoint>
          <Trackpoint>
            <Time>2021-04-02T13:09:03.000Z</Time>
            <Position>
              <LatitudeDegrees>42.31728094629943370819091796875</LatitudeDegrees>
              <LongitudeDegrees>2.59182536043226718902587890625</LongitudeDegrees>
            </Position>
            <AltitudeMeters>572</AltitudeMeters>
            <DistanceMeters>NAN</DistanceMeters>
          </Trackpoint>
          <Trackpoint>
            <Time>2021-04-02T13:09:04.000Z</Time>
            <Position>
              <LatitudeDegrees>42.3172761686146259307861328125</LatitudeDegrees>
              <LongitudeDegrees>2.5918190740048885345458984375</LongitudeDegrees>
            </Position>
            <AltitudeMeters>572.20001220703125</AltitudeMeters>
            <DistanceMeters>NAN</DistanceMeters>
          </Trackpoint>
          <Trackpoint>
            <Time>2021-04-02T13:09:11.000Z</Time>
            <Position>
              <LatitudeDegrees>42.3172496818006038665771484375</LatitudeDegrees>
              <LongitudeDegrees>2.59177322499454021453857421875</LongitudeDegrees>
            </Position>
            <AltitudeMeters>572.79998779296875</AltitudeMeters>
            <DistanceMeters>NAN</DistanceMeters>
          </Trackpoint>
          <Trackpoint>
            <Time>2021-04-02T13:09:17.000Z</Time>
            <Position>
              <LatitudeDegrees>42.31721632182598114013671875</LatitudeDegrees>
              <LongitudeDegrees>2.5917034037411212921142578125</LongitudeDegrees>
            </Position>
            <AltitudeMeters>572.79998779296875</AltitudeMeters>
            <DistanceMeters>NAN</DistanceMeters>
          </Trackpoint>
          <Trackpoint>
            <Time>2021-04-02T13:09:18.000Z</Time>
            <Position>
              <LatitudeDegrees>42.31721699237823486328125</LatitudeDegrees>
              <LongitudeDegrees>2.5916765816509723663330078125</LongitudeDegrees>
            </Position>
            <AltitudeMeters>572.79998779296875</AltitudeMeters>
            <DistanceMeters>NAN</DistanceMeters>
          </Trackpoint>
          <Trackpoint>
            <Time>2021-04-02T13:09:23.000Z</Time>
            <Position>
              <LatitudeDegrees>42.31720735318958759307861328125</LatitudeDegrees>
              <LongitudeDegrees>2.59162880480289459228515625</LongitudeDegrees>
            </Position>
            <AltitudeMeters>573.4000244140625</AltitudeMeters>
            <DistanceMeters>NAN</DistanceMeters>
          </Trackpoint>
          <Trackpoint>
            <Time>2021-04-02T13:09:25.000Z</Time>
            <Position>
              <LatitudeDegrees>42.31719553470611572265625</LatitudeDegrees>
              <LongitudeDegrees>2.5916148908436298370361328125</LongitudeDegrees>
            </Position>
            <AltitudeMeters>573.5999755859375</AltitudeMeters>
            <DistanceMeters>NAN</DistanceMeters>
          </Trackpoint>
          <Trackpoint>
            <Time>2021-04-02T13:09:27.000Z</Time>
            <Position>
              <LatitudeDegrees>42.31718354858458042144775390625</LatitudeDegrees>
              <LongitudeDegrees>2.5916061736643314361572265625</LongitudeDegrees>
            </Position>
            <AltitudeMeters>573.79998779296875</AltitudeMeters>
            <DistanceMeters>NAN</DistanceMeters>
          </Trackpoint>
          <Trackpoint>
            <Time>2021-04-02T13:09:29.000Z</Time>
            <Position>
              <LatitudeDegrees>42.31717717833817005157470703125</LatitudeDegrees>
              <LongitudeDegrees>2.59160055778920650482177734375</LongitudeDegrees>
            </Position>
            <AltitudeMeters>574</AltitudeMeters>
            <DistanceMeters>NAN</DistanceMeters>
          </Trackpoint>
          <Trackpoint>
            <Time>2021-04-02T13:09:35.000Z</Time>
            <Position>
              <LatitudeDegrees>42.31718086637556552886962890625</LatitudeDegrees>
              <LongitudeDegrees>2.5915731489658355712890625</LongitudeDegrees>
            </Position>
            <AltitudeMeters>573.79998779296875</AltitudeMeters>
            <DistanceMeters>NAN</DistanceMeters>
          </Trackpoint>
          <Trackpoint>
            <Time>2021-04-02T13:09:42.000Z</Time>
            <Position>
              <LatitudeDegrees>42.31719310395419597625732421875</LatitudeDegrees>
              <LongitudeDegrees>2.5915491767227649688720703125</LongitudeDegrees>
            </Position>
            <AltitudeMeters>573.79998779296875</AltitudeMeters>
            <DistanceMeters>NAN</DistanceMeters>
          </Trackpoint>
          <Trackpoint>
            <Time>2021-04-02T13:09:50.000Z</Time>
            <Position>
              <LatitudeDegrees>42.317154966294765472412109375</LatitudeDegrees>
              <LongitudeDegrees>2.59156770072877407073974609375</LongitudeDegrees>
            </Position>
            <AltitudeMeters>573.5999755859375</AltitudeMeters>
            <DistanceMeters>NAN</DistanceMeters>
          </Trackpoint>
          <Trackpoint>
            <Time>2021-04-02T13:09:52.000Z</Time>
            <Position>
              <LatitudeDegrees>42.3171407170593738555908203125</LatitudeDegrees>
              <LongitudeDegrees>2.59158228524029254913330078125</LongitudeDegrees>
            </Position>
            <AltitudeMeters>573.5999755859375</AltitudeMeters>
            <DistanceMeters>NAN</DistanceMeters>
          </Trackpoint>
          <Trackpoint>
            <Time>2021-04-02T13:10:01.000Z</Time>
            <Position>
              <LatitudeDegrees>42.31714096851646900177001953125</LatitudeDegrees>
              <LongitudeDegrees>2.59157859720289707183837890625</LongitudeDegrees>
            </Position>
            <AltitudeMeters>573.4000244140625</AltitudeMeters>
            <DistanceMeters>NAN</DistanceMeters>
          </Trackpoint>
          <Trackpoint>
            <Time>2021-04-02T13:10:09.000Z</Time>
            <Position>
              <LatitudeDegrees>42.31713694520294666290283203125</LatitudeDegrees>
              <LongitudeDegrees>2.5915149785578250885009765625</LongitudeDegrees>
            </Position>
            <AltitudeMeters>572.79998779296875</AltitudeMeters>
            <DistanceMeters>NAN</DistanceMeters>
          </Trackpoint>
          <Trackpoint>
            <Time>2021-04-02T13:10:10.000Z</Time>
            <Position>
              <LatitudeDegrees>42.31713845394551753997802734375</LatitudeDegrees>
              <LongitudeDegrees>2.59150810539722442626953125</LongitudeDegrees>
            </Position>
            <AltitudeMeters>572.4000244140625</AltitudeMeters>
            <DistanceMeters>NAN</DistanceMeters>
          </Trackpoint>
          <Trackpoint>
            <Time>2021-04-02T13:10:12.000Z</Time>
            <Position>
              <LatitudeDegrees>42.31714666821062564849853515625</LatitudeDegrees>
              <LongitudeDegrees>2.59149058721959590911865234375</LongitudeDegrees>
            </Position>
            <AltitudeMeters>572</AltitudeMeters>
            <DistanceMeters>NAN</DistanceMeters>
          </Trackpoint>
          <Trackpoint>
            <Time>2021-04-02T13:10:14.000Z</Time>
            <Position>
              <LatitudeDegrees>42.3171407170593738555908203125</LatitudeDegrees>
              <LongitudeDegrees>2.59146326221525669097900390625</LongitudeDegrees>
            </Position>
            <AltitudeMeters>571.79998779296875</AltitudeMeters>
            <DistanceMeters>NAN</DistanceMeters>
          </Trackpoint>
          <Trackpoint>
            <Time>2021-04-02T13:10:17.000Z</Time>
            <Position>
              <LatitudeDegrees>42.3171330057084560394287109375</LatitudeDegrees>
              <LongitudeDegrees>2.59143912233412265777587890625</LongitudeDegrees>
            </Position>
            <AltitudeMeters>571.4000244140625</AltitudeMeters>
            <DistanceMeters>NAN</DistanceMeters>
          </Trackpoint>
          <Trackpoint>
            <Time>2021-04-02T13:10:18.000Z</Time>
            <Position>
              <LatitudeDegrees>42.3171289823949337005615234375</LatitudeDegrees>
              <LongitudeDegrees>2.59142638184130191802978515625</LongitudeDegrees>
            </Position>
            <AltitudeMeters>571.20001220703125</AltitudeMeters>
            <DistanceMeters>NAN</DistanceMeters>
          </Trackpoint>
          <Trackpoint>
            <Time>2021-04-02T13:10:22.000Z</Time>
            <Position>
              <LatitudeDegrees>42.317120768129825592041015625</LatitudeDegrees>
              <LongitudeDegrees>2.5913773477077484130859375</LongitudeDegrees>
            </Position>
            <AltitudeMeters>570.5999755859375</AltitudeMeters>
            <DistanceMeters>NAN</DistanceMeters>
          </Trackpoint>
          <Trackpoint>
            <Time>2021-04-02T13:10:23.000Z</Time>
            <Position>
              <LatitudeDegrees>42.3171162419021129608154296875</LatitudeDegrees>
              <LongitudeDegrees>2.5913795270025730133056640625</LongitudeDegrees>
            </Position>
            <AltitudeMeters>570</AltitudeMeters>
            <DistanceMeters>NAN</DistanceMeters>
          </Trackpoint>
          <Trackpoint>
            <Time>2021-04-02T13:10:26.000Z</Time>
            <Position>
              <LatitudeDegrees>42.31709436513483524322509765625</LatitudeDegrees>
              <LongitudeDegrees>2.59137089364230632781982421875</LongitudeDegrees>
            </Position>
            <AltitudeMeters>569</AltitudeMeters>
            <DistanceMeters>NAN</DistanceMeters>
          </Trackpoint>
          <Trackpoint>
            <Time>2021-04-02T13:10:29.000Z</Time>
            <Position>
              <LatitudeDegrees>42.31708891689777374267578125</LatitudeDegrees>
              <LongitudeDegrees>2.5913570635020732879638671875</LongitudeDegrees>
            </Position>
            <AltitudeMeters>568.4000244140625</AltitudeMeters>
            <DistanceMeters>NAN</DistanceMeters>
          </Trackpoint>
          <Trackpoint>
            <Time>2021-04-02T13:10:31.000Z</Time>
            <Position>
              <LatitudeDegrees>42.3170760087668895721435546875</LatitudeDegrees>
              <LongitudeDegrees>2.5913533754646778106689453125</LongitudeDegrees>
            </Position>
            <AltitudeMeters>568</AltitudeMeters>
            <DistanceMeters>NAN</DistanceMeters>
          </Trackpoint>
          <Trackpoint>
            <Time>2021-04-02T13:10:36.000Z</Time>
            <Position>
              <LatitudeDegrees>42.31706343591213226318359375</LatitudeDegrees>
              <LongitudeDegrees>2.59133107960224151611328125</LongitudeDegrees>
            </Position>
            <AltitudeMeters>567.79998779296875</AltitudeMeters>
            <DistanceMeters>NAN</DistanceMeters>
          </Trackpoint>
          <Trackpoint>
            <Time>2021-04-02T13:10:37.000Z</Time>
            <Position>
              <LatitudeDegrees>42.3170605860650539398193359375</LatitudeDegrees>
              <LongitudeDegrees>2.59132646955549716949462890625</LongitudeDegrees>
            </Position>
            <AltitudeMeters>567.4000244140625</AltitudeMeters>
            <DistanceMeters>NAN</DistanceMeters>
          </Trackpoint>
          <Trackpoint>
            <Time>2021-04-02T13:10:39.000Z</Time>
            <Position>
              <LatitudeDegrees>42.317047007381916046142578125</LatitudeDegrees>
              <LongitudeDegrees>2.59130635298788547515869140625</LongitudeDegrees>
            </Position>
            <AltitudeMeters>567</AltitudeMeters>
            <DistanceMeters>NAN</DistanceMeters>
          </Trackpoint>
          <Trackpoint>
            <Time>2021-04-02T13:10:40.000Z</Time>
            <Position>
              <LatitudeDegrees>42.31703451834619045257568359375</LatitudeDegrees>
              <LongitudeDegrees>2.5912953726947307586669921875</LongitudeDegrees>
            </Position>
            <AltitudeMeters>567</AltitudeMeters>
            <DistanceMeters>NAN</DistanceMeters>
          </Trackpoint>
          <Trackpoint>
            <Time>2021-04-02T13:10:41.000Z</Time>
            <Position>
              <LatitudeDegrees>42.31702311895787715911865234375</LatitudeDegrees>
              <LongitudeDegrees>2.59128103964030742645263671875</LongitudeDegrees>
            </Position>
            <AltitudeMeters>566.5999755859375</AltitudeMeters>
            <DistanceMeters>NAN</DistanceMeters>
          </Trackpoint>
          <Trackpoint>
            <Time>2021-04-02T13:10:43.000Z</Time>
            <Position>
              <LatitudeDegrees>42.3170149885118007659912109375</LatitudeDegrees>
              <LongitudeDegrees>2.591259665787220001220703125</LongitudeDegrees>
            </Position>
            <AltitudeMeters>566.20001220703125</AltitudeMeters>
            <DistanceMeters>NAN</DistanceMeters>
          </Trackpoint>
          <Trackpoint>
            <Time>2021-04-02T13:10:45.000Z</Time>
            <Position>
              <LatitudeDegrees>42.31699663214385509490966796875</LatitudeDegrees>
              <LongitudeDegrees>2.5912380404770374298095703125</LongitudeDegrees>
            </Position>
            <AltitudeMeters>565.5999755859375</AltitudeMeters>
            <DistanceMeters>NAN</DistanceMeters>
          </Trackpoint>
          <Trackpoint>
            <Time>2021-04-02T13:10:47.000Z</Time>
            <Position>
              <LatitudeDegrees>42.3169891722500324249267578125</LatitudeDegrees>
              <LongitudeDegrees>2.59122270159423351287841796875</LongitudeDegrees>
            </Position>
            <AltitudeMeters>565.20001220703125</AltitudeMeters>
            <DistanceMeters>NAN</DistanceMeters>
          </Trackpoint>
          <Trackpoint>
            <Time>2021-04-02T13:10:49.000Z</Time>
            <Position>
              <LatitudeDegrees>42.31697903014719486236572265625</LatitudeDegrees>
              <LongitudeDegrees>2.59121146984398365020751953125</LongitudeDegrees>
            </Position>
            <AltitudeMeters>564.79998779296875</AltitudeMeters>
            <DistanceMeters>NAN</DistanceMeters>
          </Trackpoint>
          <Trackpoint>
            <Time>2021-04-02T13:10:50.000Z</Time>
            <Position>
              <LatitudeDegrees>42.31696763075888156890869140625</LatitudeDegrees>
              <LongitudeDegrees>2.59120543487370014190673828125</LongitudeDegrees>
            </Position>
            <AltitudeMeters>564.5999755859375</AltitudeMeters>
            <DistanceMeters>NAN</DistanceMeters>
          </Trackpoint>
          <Trackpoint>
            <Time>2021-04-02T13:10:51.000Z</Time>
            <Position>
              <LatitudeDegrees>42.3169519565999507904052734375</LatitudeDegrees>
              <LongitudeDegrees>2.59119655005633831024169921875</LongitudeDegrees>
            </Position>
            <AltitudeMeters>564.20001220703125</AltitudeMeters>
            <DistanceMeters>NAN</DistanceMeters>
          </Trackpoint>
          <Trackpoint>
            <Time>2021-04-02T13:10:53.000Z</Time>
            <Position>
              <LatitudeDegrees>42.31693066656589508056640625</LatitudeDegrees>
              <LongitudeDegrees>2.59118984453380107879638671875</LongitudeDegrees>
            </Position>
            <AltitudeMeters>563.79998779296875</AltitudeMeters>
            <DistanceMeters>NAN</DistanceMeters>
          </Trackpoint>
          <Trackpoint>
            <Time>2021-04-02T13:10:55.000Z</Time>
            <Position>
              <LatitudeDegrees>42.31693410314619541168212890625</LatitudeDegrees>
              <LongitudeDegrees>2.59117324836552143096923828125</LongitudeDegrees>
            </Position>
            <AltitudeMeters>563.4000244140625</AltitudeMeters>
            <DistanceMeters>NAN</DistanceMeters>
          </Trackpoint>
          <Trackpoint>
            <Time>2021-04-02T13:10:56.000Z</Time>
            <Position>
              <LatitudeDegrees>42.3169341869652271270751953125</LatitudeDegrees>
              <LongitudeDegrees>2.59116687811911106109619140625</LongitudeDegrees>
            </Position>
            <AltitudeMeters>563.20001220703125</AltitudeMeters>
            <DistanceMeters>NAN</DistanceMeters>
          </Trackpoint>
          <Trackpoint>
            <Time>2021-04-02T13:10:58.000Z</Time>
            <Position>
              <LatitudeDegrees>42.31693661771714687347412109375</LatitudeDegrees>
              <LongitudeDegrees>2.591152377426624298095703125</LongitudeDegrees>
            </Position>
            <AltitudeMeters>562.5999755859375</AltitudeMeters>
            <DistanceMeters>NAN</DistanceMeters>
          </Trackpoint>
          <Trackpoint>
            <Time>2021-04-02T13:11:00.000Z</Time>
            <Position>
              <LatitudeDegrees>42.3169556446373462677001953125</LatitudeDegrees>
              <LongitudeDegrees>2.59114089421927928924560546875</LongitudeDegrees>
            </Position>
            <AltitudeMeters>562.4000244140625</AltitudeMeters>
            <DistanceMeters>NAN</DistanceMeters>
          </Trackpoint>
          <Trackpoint>
            <Time>2021-04-02T13:11:03.000Z</Time>
            <Position>
              <LatitudeDegrees>42.3169804550707340240478515625</LatitudeDegrees>
              <LongitudeDegrees>2.5911159999668598175048828125</LongitudeDegrees>
            </Position>
            <AltitudeMeters>562</AltitudeMeters>
            <DistanceMeters>NAN</DistanceMeters>
          </Trackpoint>
          <Trackpoint>
            <Time>2021-04-02T13:11:06.000Z</Time>
            <Position>
              <LatitudeDegrees>42.31700551696121692657470703125</LatitudeDegrees>
              <LongitudeDegrees>2.5911126472055912017822265625</LongitudeDegrees>
            </Position>
            <AltitudeMeters>561.4000244140625</AltitudeMeters>
            <DistanceMeters>NAN</DistanceMeters>
          </Trackpoint>
          <Trackpoint>
            <Time>2021-04-02T13:11:09.000Z</Time>
            <Position>
              <LatitudeDegrees>42.317018844187259674072265625</LatitudeDegrees>
              <LongitudeDegrees>2.5911089591681957244873046875</LongitudeDegrees>
            </Position>
            <AltitudeMeters>561.20001220703125</AltitudeMeters>
            <DistanceMeters>NAN</DistanceMeters>
          </Trackpoint>
          <Trackpoint>
            <Time>2021-04-02T13:11:10.000Z</Time>
            <Position>
              <LatitudeDegrees>42.31702311895787715911865234375</LatitudeDegrees>
              <LongitudeDegrees>2.59110619314014911651611328125</LongitudeDegrees>
            </Position>
            <AltitudeMeters>561.20001220703125</AltitudeMeters>
            <DistanceMeters>NAN</DistanceMeters>
          </Trackpoint>
          <Trackpoint>
            <Time>2021-04-02T13:11:11.000Z</Time>
            <Position>
              <LatitudeDegrees>42.3170278966426849365234375</LatitudeDegrees>
              <LongitudeDegrees>2.591096051037311553955078125</LongitudeDegrees>
            </Position>
            <AltitudeMeters>561</AltitudeMeters>
            <DistanceMeters>NAN</DistanceMeters>
          </Trackpoint>
          <Trackpoint>
            <Time>2021-04-02T13:11:14.000Z</Time>
            <Position>
              <LatitudeDegrees>42.3170468397438526153564453125</LatitudeDegrees>
              <LongitudeDegrees>2.59105657227337360382080078125</LongitudeDegrees>
            </Position>
            <AltitudeMeters>560.5999755859375</AltitudeMeters>
            <DistanceMeters>NAN</DistanceMeters>
          </Trackpoint>
          <Trackpoint>
            <Time>2021-04-02T13:11:16.000Z</Time>
            <Position>
              <LatitudeDegrees>42.31705798767507076263427734375</LatitudeDegrees>
              <LongitudeDegrees>2.59103695861995220184326171875</LongitudeDegrees>
            </Position>
            <AltitudeMeters>560.20001220703125</AltitudeMeters>
            <DistanceMeters>NAN</DistanceMeters>
          </Trackpoint>
          <Trackpoint>
            <Time>2021-04-02T13:11:17.000Z</Time>
            <Position>
              <LatitudeDegrees>42.317067794501781463623046875</LatitudeDegrees>
              <LongitudeDegrees>2.59103293530642986297607421875</LongitudeDegrees>
            </Position>
            <AltitudeMeters>560</AltitudeMeters>
            <DistanceMeters>NAN</DistanceMeters>
          </Trackpoint>
          <Trackpoint>
            <Time>2021-04-02T13:11:19.000Z</Time>
            <Position>
              <LatitudeDegrees>42.3170847259461879730224609375</LatitudeDegrees>
              <LongitudeDegrees>2.59103469550609588623046875</LongitudeDegrees>
            </Position>
            <AltitudeMeters>560</AltitudeMeters>
            <DistanceMeters>NAN</DistanceMeters>
          </Trackpoint>
          <Trackpoint>
            <Time>2021-04-02T13:11:22.000Z</Time>
            <Position>
              <LatitudeDegrees>42.3170815408229827880859375</LatitudeDegrees>
              <LongitudeDegrees>2.59099639020860195159912109375</LongitudeDegrees>
            </Position>
            <AltitudeMeters>559</AltitudeMeters>
            <DistanceMeters>NAN</DistanceMeters>
          </Trackpoint>
          <Trackpoint>
            <Time>2021-04-02T13:11:23.000Z</Time>
            <Position>
              <LatitudeDegrees>42.31707994826138019561767578125</LatitudeDegrees>
              <LongitudeDegrees>2.59098909795284271240234375</LongitudeDegrees>
            </Position>
            <AltitudeMeters>558.4000244140625</AltitudeMeters>
            <DistanceMeters>NAN</DistanceMeters>
          </Trackpoint>
          <Trackpoint>
            <Time>2021-04-02T13:11:25.000Z</Time>
            <Position>
              <LatitudeDegrees>42.3170974664390087127685546875</LatitudeDegrees>
              <LongitudeDegrees>2.5909684784710407257080078125</LongitudeDegrees>
            </Position>
            <AltitudeMeters>558</AltitudeMeters>
            <DistanceMeters>NAN</DistanceMeters>
          </Trackpoint>
          <Trackpoint>
            <Time>2021-04-02T13:11:26.000Z</Time>
            <Position>
              <LatitudeDegrees>42.31710827909409999847412109375</LatitudeDegrees>
              <LongitudeDegrees>2.5909642875194549560546875</LongitudeDegrees>
            </Position>
            <AltitudeMeters>557.79998779296875</AltitudeMeters>
            <DistanceMeters>NAN</DistanceMeters>
          </Trackpoint>
          <Trackpoint>
            <Time>2021-04-02T13:11:28.000Z</Time>
            <Position>
              <LatitudeDegrees>42.3171236179769039154052734375</LatitudeDegrees>
              <LongitudeDegrees>2.5909486971795558929443359375</LongitudeDegrees>
            </Position>
            <AltitudeMeters>557.5999755859375</AltitudeMeters>
            <DistanceMeters>NAN</DistanceMeters>
          </Trackpoint>
          <Trackpoint>
            <Time>2021-04-02T13:11:31.000Z</Time>
            <Position>
              <LatitudeDegrees>42.317136861383914947509765625</LatitudeDegrees>
              <LongitudeDegrees>2.59091877378523349761962890625</LongitudeDegrees>
            </Position>
            <AltitudeMeters>557.20001220703125</AltitudeMeters>
            <DistanceMeters>NAN</DistanceMeters>
          </Trackpoint>
          <Trackpoint>
            <Time>2021-04-02T13:11:36.000Z</Time>
            <Position>
              <LatitudeDegrees>42.31714633293449878692626953125</LatitudeDegrees>
              <LongitudeDegrees>2.5908585079014301300048828125</LongitudeDegrees>
            </Position>
            <AltitudeMeters>556.79998779296875</AltitudeMeters>
            <DistanceMeters>NAN</DistanceMeters>
          </Trackpoint>
          <Trackpoint>
            <Time>2021-04-02T13:11:39.000Z</Time>
            <Position>
              <LatitudeDegrees>42.31713979505002498626708984375</LatitudeDegrees>
              <LongitudeDegrees>2.59079924784600734710693359375</LongitudeDegrees>
            </Position>
            <AltitudeMeters>556.4000244140625</AltitudeMeters>
            <DistanceMeters>NAN</DistanceMeters>
          </Trackpoint>
          <Trackpoint>
            <Time>2021-04-02T13:11:41.000Z</Time>
            <Position>
              <LatitudeDegrees>42.31714599765837192535400390625</LatitudeDegrees>
              <LongitudeDegrees>2.59077359922230243682861328125</LongitudeDegrees>
            </Position>
            <AltitudeMeters>556</AltitudeMeters>
            <DistanceMeters>NAN</DistanceMeters>
          </Trackpoint>
          <Trackpoint>
            <Time>2021-04-02T13:11:43.000Z</Time>
            <Position>
              <LatitudeDegrees>42.3171512782573699951171875</LatitudeDegrees>
              <LongitudeDegrees>2.59074308909475803375244140625</LongitudeDegrees>
            </Position>
            <AltitudeMeters>556</AltitudeMeters>
            <DistanceMeters>NAN</DistanceMeters>
          </Trackpoint>
          <Trackpoint>
            <Time>2021-04-02T13:11:45.000Z</Time>
            <Position>
              <LatitudeDegrees>42.31715999543666839599609375</LatitudeDegrees>
              <LongitudeDegrees>2.59069447405636310577392578125</LongitudeDegrees>
            </Position>
            <AltitudeMeters>555.5999755859375</AltitudeMeters>
            <DistanceMeters>NAN</DistanceMeters>
          </Trackpoint>
          <Trackpoint>
            <Time>2021-04-02T13:11:47.000Z</Time>
            <Position>
              <LatitudeDegrees>42.31716728769242763519287109375</LatitudeDegrees>
              <LongitudeDegrees>2.59067502804100513458251953125</LongitudeDegrees>
            </Position>
            <AltitudeMeters>555.4000244140625</AltitudeMeters>
            <DistanceMeters>NAN</DistanceMeters>
          </Trackpoint>
          <Trackpoint>
            <Time>2021-04-02T13:11:50.000Z</Time>
            <Position>
              <LatitudeDegrees>42.31715873815119266510009765625</LatitudeDegrees>
              <LongitudeDegrees>2.590664885938167572021484375</LongitudeDegrees>
            </Position>
            <AltitudeMeters>554.79998779296875</AltitudeMeters>
            <DistanceMeters>NAN</DistanceMeters>
          </Trackpoint>
          <Trackpoint>
            <Time>2021-04-02T13:11:51.000Z</Time>
            <Position>
              <LatitudeDegrees>42.31715555302798748016357421875</LatitudeDegrees>
              <LongitudeDegrees>2.59066614322364330291748046875</LongitudeDegrees>
            </Position>
            <AltitudeMeters>554.79998779296875</AltitudeMeters>
            <DistanceMeters>NAN</DistanceMeters>
          </Trackpoint>
          <Trackpoint>
            <Time>2021-04-02T13:11:52.000Z</Time>
            <Position>
              <LatitudeDegrees>42.31715194880962371826171875</LatitudeDegrees>
              <LongitudeDegrees>2.590660862624645233154296875</LongitudeDegrees>
            </Position>
            <AltitudeMeters>554.5999755859375</AltitudeMeters>
            <DistanceMeters>NAN</DistanceMeters>
          </Trackpoint>
          <Trackpoint>
            <Time>2021-04-02T13:11:54.000Z</Time>
            <Position>
              <LatitudeDegrees>42.31714549474418163299560546875</LatitudeDegrees>
              <LongitudeDegrees>2.59066614322364330291748046875</LongitudeDegrees>
            </Position>
            <AltitudeMeters>554.20001220703125</AltitudeMeters>
            <DistanceMeters>NAN</DistanceMeters>
          </Trackpoint>
          <Trackpoint>
            <Time>2021-04-02T13:11:55.000Z</Time>
            <Position>
              <LatitudeDegrees>42.3171433992683887481689453125</LatitudeDegrees>
              <LongitudeDegrees>2.59067268110811710357666015625</LongitudeDegrees>
            </Position>
            <AltitudeMeters>554</AltitudeMeters>
            <DistanceMeters>NAN</DistanceMeters>
          </Trackpoint>
          <Trackpoint>
            <Time>2021-04-02T13:11:56.000Z</Time>
            <Position>
              <LatitudeDegrees>42.31713627465069293975830078125</LatitudeDegrees>
              <LongitudeDegrees>2.5906719267368316650390625</LongitudeDegrees>
            </Position>
            <AltitudeMeters>554</AltitudeMeters>
            <DistanceMeters>NAN</DistanceMeters>
          </Trackpoint>
          <Trackpoint>
            <Time>2021-04-02T13:11:59.000Z</Time>
            <Position>
              <LatitudeDegrees>42.3171095363795757293701171875</LatitudeDegrees>
              <LongitudeDegrees>2.5906841643154621124267578125</LongitudeDegrees>
            </Position>
            <AltitudeMeters>553.79998779296875</AltitudeMeters>
            <DistanceMeters>NAN</DistanceMeters>
          </Trackpoint>
          <Trackpoint>
            <Time>2021-04-02T13:12:01.000Z</Time>
            <Position>
              <LatitudeDegrees>42.31710375286638736724853515625</LatitudeDegrees>
              <LongitudeDegrees>2.590708471834659576416015625</LongitudeDegrees>
            </Position>
            <AltitudeMeters>553.4000244140625</AltitudeMeters>
            <DistanceMeters>NAN</DistanceMeters>
          </Trackpoint>
          <Trackpoint>
            <Time>2021-04-02T13:12:02.000Z</Time>
            <Position>
              <LatitudeDegrees>42.31709972955286502838134765625</LatitudeDegrees>
              <LongitudeDegrees>2.59071710519492626190185546875</LongitudeDegrees>
            </Position>
            <AltitudeMeters>553.4000244140625</AltitudeMeters>
            <DistanceMeters>NAN</DistanceMeters>
          </Trackpoint>
          <Trackpoint>
            <Time>2021-04-02T13:12:05.000Z</Time>
            <Position>
              <LatitudeDegrees>42.31708195991814136505126953125</LatitudeDegrees>
              <LongitudeDegrees>2.590734623372554779052734375</LongitudeDegrees>
            </Position>
            <AltitudeMeters>553</AltitudeMeters>
            <DistanceMeters>NAN</DistanceMeters>
          </Trackpoint>
          <Trackpoint>
            <Time>2021-04-02T13:12:07.000Z</Time>
            <Position>
              <LatitudeDegrees>42.31708246283233165740966796875</LatitudeDegrees>
              <LongitudeDegrees>2.59074979461729526519775390625</LongitudeDegrees>
            </Position>
            <AltitudeMeters>552.79998779296875</AltitudeMeters>
            <DistanceMeters>NAN</DistanceMeters>
          </Trackpoint>
          <Trackpoint>
            <Time>2021-04-02T13:12:09.000Z</Time>
            <Position>
              <LatitudeDegrees>42.3170843906700611114501953125</LatitudeDegrees>
              <LongitudeDegrees>2.59077711962163448333740234375</LongitudeDegrees>
            </Position>
            <AltitudeMeters>552.5999755859375</AltitudeMeters>
            <DistanceMeters>NAN</DistanceMeters>
          </Trackpoint>
          <Trackpoint>
            <Time>2021-04-02T13:12:10.000Z</Time>
            <Position>
              <LatitudeDegrees>42.31708061881363391876220703125</LatitudeDegrees>
              <LongitudeDegrees>2.59078566916286945343017578125</LongitudeDegrees>
            </Position>
            <AltitudeMeters>552.4000244140625</AltitudeMeters>
            <DistanceMeters>NAN</DistanceMeters>
          </Trackpoint>
          <Trackpoint>
            <Time>2021-04-02T13:12:11.000Z</Time>
            <Position>
              <LatitudeDegrees>42.31707441620528697967529296875</LatitudeDegrees>
              <LongitudeDegrees>2.59078818373382091522216796875</LongitudeDegrees>
            </Position>
            <AltitudeMeters>552.20001220703125</AltitudeMeters>
            <DistanceMeters>NAN</DistanceMeters>
          </Trackpoint>
          <Trackpoint>
            <Time>2021-04-02T13:12:12.000Z</Time>
            <Position>
              <LatitudeDegrees>42.3170659504830837249755859375</LatitudeDegrees>
              <LongitudeDegrees>2.59078835137188434600830078125</LongitudeDegrees>
            </Position>
            <AltitudeMeters>552</AltitudeMeters>
            <DistanceMeters>NAN</DistanceMeters>
          </Trackpoint>
          <Trackpoint>
            <Time>2021-04-02T13:12:13.000Z</Time>
            <Position>
              <LatitudeDegrees>42.31705865822732448577880859375</LatitudeDegrees>
              <LongitudeDegrees>2.59078868664801120758056640625</LongitudeDegrees>
            </Position>
            <AltitudeMeters>551.79998779296875</AltitudeMeters>
            <DistanceMeters>NAN</DistanceMeters>
          </Trackpoint>
          <Trackpoint>
            <Time>2021-04-02T13:12:16.000Z</Time>
            <Position>
              <LatitudeDegrees>42.31704859994351863861083984375</LatitudeDegrees>
              <LongitudeDegrees>2.59079908020794391632080078125</LongitudeDegrees>
            </Position>
            <AltitudeMeters>551.4000244140625</AltitudeMeters>
            <DistanceMeters>NAN</DistanceMeters>
          </Trackpoint>
          <Trackpoint>
            <Time>2021-04-02T13:12:18.000Z</Time>
            <Position>
              <LatitudeDegrees>42.3170481808483600616455078125</LatitudeDegrees>
              <LongitudeDegrees>2.59078986011445522308349609375</LongitudeDegrees>
            </Position>
            <AltitudeMeters>550.4000244140625</AltitudeMeters>
            <DistanceMeters>NAN</DistanceMeters>
          </Trackpoint>
          <Trackpoint>
            <Time>2021-04-02T13:12:19.000Z</Time>
            <Position>
              <LatitudeDegrees>42.31704692356288433074951171875</LatitudeDegrees>
              <LongitudeDegrees>2.590784244239330291748046875</LongitudeDegrees>
            </Position>
            <AltitudeMeters>550.20001220703125</AltitudeMeters>
            <DistanceMeters>NAN</DistanceMeters>
          </Trackpoint>
          <Trackpoint>
            <Time>2021-04-02T13:12:20.000Z</Time>
            <Position>
              <LatitudeDegrees>42.317047677934169769287109375</LatitudeDegrees>
              <LongitudeDegrees>2.5907767005264759063720703125</LongitudeDegrees>
            </Position>
            <AltitudeMeters>550</AltitudeMeters>
            <DistanceMeters>NAN</DistanceMeters>
          </Trackpoint>
          <Trackpoint>
            <Time>2021-04-02T13:12:24.000Z</Time>
            <Position>
              <LatitudeDegrees>42.31705916114151477813720703125</LatitudeDegrees>
              <LongitudeDegrees>2.59074811823666095733642578125</LongitudeDegrees>
            </Position>
            <AltitudeMeters>549</AltitudeMeters>
            <DistanceMeters>NAN</DistanceMeters>
          </Trackpoint>
          <Trackpoint>
            <Time>2021-04-02T13:12:26.000Z</Time>
            <Position>
              <LatitudeDegrees>42.3170615918934345245361328125</LatitudeDegrees>
              <LongitudeDegrees>2.5907129980623722076416015625</LongitudeDegrees>
            </Position>
            <AltitudeMeters>548.5999755859375</AltitudeMeters>
            <DistanceMeters>NAN</DistanceMeters>
          </Trackpoint>
          <Trackpoint>
            <Time>2021-04-02T13:12:27.000Z</Time>
            <Position>
              <LatitudeDegrees>42.31706670485436916351318359375</LatitudeDegrees>
              <LongitudeDegrees>2.59069950319826602935791015625</LongitudeDegrees>
            </Position>
            <AltitudeMeters>548.4000244140625</AltitudeMeters>
            <DistanceMeters>NAN</DistanceMeters>
          </Trackpoint>
          <Trackpoint>
            <Time>2021-04-02T13:12:30.000Z</Time>
            <Position>
              <LatitudeDegrees>42.3170734941959381103515625</LatitudeDegrees>
              <LongitudeDegrees>2.59065927006304264068603515625</LongitudeDegrees>
            </Position>
            <AltitudeMeters>547.79998779296875</AltitudeMeters>
            <DistanceMeters>NAN</DistanceMeters>
          </Trackpoint>
          <Trackpoint>
            <Time>2021-04-02T13:12:32.000Z</Time>
            <Position>
              <LatitudeDegrees>42.31707751750946044921875</LatitudeDegrees>
              <LongitudeDegrees>2.59063445962965488433837890625</LongitudeDegrees>
            </Position>
            <AltitudeMeters>547.4000244140625</AltitudeMeters>
            <DistanceMeters>NAN</DistanceMeters>
          </Trackpoint>
          <Trackpoint>
            <Time>2021-04-02T13:12:34.000Z</Time>
            <Position>
              <LatitudeDegrees>42.31707206927239894866943359375</LatitudeDegrees>
              <LongitudeDegrees>2.59059892036020755767822265625</LongitudeDegrees>
            </Position>
            <AltitudeMeters>546.5999755859375</AltitudeMeters>
            <DistanceMeters>NAN</DistanceMeters>
          </Trackpoint>
          <Trackpoint>
            <Time>2021-04-02T13:12:35.000Z</Time>
            <Position>
              <LatitudeDegrees>42.31706771068274974822998046875</LatitudeDegrees>
              <LongitudeDegrees>2.5905876047909259796142578125</LongitudeDegrees>
            </Position>
            <AltitudeMeters>546.4000244140625</AltitudeMeters>
            <DistanceMeters>NAN</DistanceMeters>
          </Trackpoint>
          <Trackpoint>
            <Time>2021-04-02T13:12:39.000Z</Time>
            <Position>
              <LatitudeDegrees>42.3170542158186435699462890625</LatitudeDegrees>
              <LongitudeDegrees>2.59053404442965984344482421875</LongitudeDegrees>
            </Position>
            <AltitudeMeters>545.5999755859375</AltitudeMeters>
            <DistanceMeters>NAN</DistanceMeters>
          </Trackpoint>
          <Trackpoint>
            <Time>2021-04-02T13:12:40.000Z</Time>
            <Position>
              <LatitudeDegrees>42.31705580838024616241455078125</LatitudeDegrees>
              <LongitudeDegrees>2.59052499197423458099365234375</LongitudeDegrees>
            </Position>
            <AltitudeMeters>545.20001220703125</AltitudeMeters>
            <DistanceMeters>NAN</DistanceMeters>
          </Trackpoint>
          <Trackpoint>
            <Time>2021-04-02T13:12:44.000Z</Time>
            <Position>
              <LatitudeDegrees>42.3170505277812480926513671875</LatitudeDegrees>
              <LongitudeDegrees>2.59048224426805973052978515625</LongitudeDegrees>
            </Position>
            <AltitudeMeters>544.5999755859375</AltitudeMeters>
            <DistanceMeters>NAN</DistanceMeters>
          </Trackpoint>
          <Trackpoint>
            <Time>2021-04-02T13:12:45.000Z</Time>
            <Position>
              <LatitudeDegrees>42.317040301859378814697265625</LatitudeDegrees>
              <LongitudeDegrees>2.5904729403555393218994140625</LongitudeDegrees>
            </Position>
            <AltitudeMeters>544.4000244140625</AltitudeMeters>
            <DistanceMeters>NAN</DistanceMeters>
          </Trackpoint>
          <Trackpoint>
            <Time>2021-04-02T13:12:46.000Z</Time>
            <Position>
              <LatitudeDegrees>42.3170287348330020904541015625</LatitudeDegrees>
              <LongitudeDegrees>2.59046095423400402069091796875</LongitudeDegrees>
            </Position>
            <AltitudeMeters>544.20001220703125</AltitudeMeters>
            <DistanceMeters>NAN</DistanceMeters>
          </Trackpoint>
          <Trackpoint>
            <Time>2021-04-02T13:12:48.000Z</Time>
            <Position>
              <LatitudeDegrees>42.317017503082752227783203125</LatitudeDegrees>
              <LongitudeDegrees>2.5904385745525360107421875</LongitudeDegrees>
            </Position>
            <AltitudeMeters>543.79998779296875</AltitudeMeters>
            <DistanceMeters>NAN</DistanceMeters>
          </Trackpoint>
          <Trackpoint>
            <Time>2021-04-02T13:12:50.000Z</Time>
            <Position>
              <LatitudeDegrees>42.31700702570378780364990234375</LatitudeDegrees>
              <LongitudeDegrees>2.59040999226272106170654296875</LongitudeDegrees>
            </Position>
            <AltitudeMeters>543.5999755859375</AltitudeMeters>
            <DistanceMeters>NAN</DistanceMeters>
          </Trackpoint>
          <Trackpoint>
            <Time>2021-04-02T13:12:54.000Z</Time>
            <Position>
              <LatitudeDegrees>42.31699679978191852569580078125</LatitudeDegrees>
              <LongitudeDegrees>2.59036808274686336517333984375</LongitudeDegrees>
            </Position>
            <AltitudeMeters>543.20001220703125</AltitudeMeters>
            <DistanceMeters>NAN</DistanceMeters>
          </Trackpoint>
          <Trackpoint>
            <Time>2021-04-02T13:12:57.000Z</Time>
            <Position>
              <LatitudeDegrees>42.3170126415789127349853515625</LatitudeDegrees>
              <LongitudeDegrees>2.5903361476957798004150390625</LongitudeDegrees>
            </Position>
            <AltitudeMeters>542.5999755859375</AltitudeMeters>
            <DistanceMeters>NAN</DistanceMeters>
          </Trackpoint>
          <Trackpoint>
            <Time>2021-04-02T13:12:59.000Z</Time>
            <Position>
              <LatitudeDegrees>42.31701959855854511260986328125</LatitudeDegrees>
              <LongitudeDegrees>2.590320892632007598876953125</LongitudeDegrees>
            </Position>
            <AltitudeMeters>542.4000244140625</AltitudeMeters>
            <DistanceMeters>NAN</DistanceMeters>
          </Trackpoint>
          <Trackpoint>
            <Time>2021-04-02T13:13:00.000Z</Time>
            <Position>
              <LatitudeDegrees>42.31701876036822795867919921875</LatitudeDegrees>
              <LongitudeDegrees>2.59031561203300952911376953125</LongitudeDegrees>
            </Position>
            <AltitudeMeters>542.20001220703125</AltitudeMeters>
            <DistanceMeters>NAN</DistanceMeters>
          </Trackpoint>
          <Trackpoint>
            <Time>2021-04-02T13:13:03.000Z</Time>
            <Position>
              <LatitudeDegrees>42.31701792217791080474853515625</LatitudeDegrees>
              <LongitudeDegrees>2.5902838446199893951416015625</LongitudeDegrees>
            </Position>
            <AltitudeMeters>541.5999755859375</AltitudeMeters>
            <DistanceMeters>NAN</DistanceMeters>
          </Trackpoint>
          <Trackpoint>
            <Time>2021-04-02T13:13:05.000Z</Time>
            <Position>
              <LatitudeDegrees>42.3170198500156402587890625</LatitudeDegrees>
              <LongitudeDegrees>2.59025593288242816925048828125</LongitudeDegrees>
            </Position>
            <AltitudeMeters>541.4000244140625</AltitudeMeters>
            <DistanceMeters>NAN</DistanceMeters>
          </Trackpoint>
          <Trackpoint>
            <Time>2021-04-02T13:13:06.000Z</Time>
            <Position>
              <LatitudeDegrees>42.317020855844020843505859375</LatitudeDegrees>
              <LongitudeDegrees>2.59023749269545078277587890625</LongitudeDegrees>
            </Position>
            <AltitudeMeters>541.20001220703125</AltitudeMeters>
            <DistanceMeters>NAN</DistanceMeters>
          </Trackpoint>
          <Trackpoint>
            <Time>2021-04-02T13:13:10.000Z</Time>
            <Position>
              <LatitudeDegrees>42.31703795492649078369140625</LatitudeDegrees>
              <LongitudeDegrees>2.5902013666927814483642578125</LongitudeDegrees>
            </Position>
            <AltitudeMeters>540.20001220703125</AltitudeMeters>
            <DistanceMeters>NAN</DistanceMeters>
          </Trackpoint>
          <Trackpoint>
            <Time>2021-04-02T13:13:12.000Z</Time>
            <Position>
              <LatitudeDegrees>42.317037619650363922119140625</LatitudeDegrees>
              <LongitudeDegrees>2.5901742093265056610107421875</LongitudeDegrees>
            </Position>
            <AltitudeMeters>539.5999755859375</AltitudeMeters>
            <DistanceMeters>NAN</DistanceMeters>
          </Trackpoint>
          <Trackpoint>
            <Time>2021-04-02T13:13:14.000Z</Time>
            <Position>
              <LatitudeDegrees>42.317022867500782012939453125</LatitudeDegrees>
              <LongitudeDegrees>2.5901676714420318603515625</LongitudeDegrees>
            </Position>
            <AltitudeMeters>539.20001220703125</AltitudeMeters>
            <DistanceMeters>NAN</DistanceMeters>
          </Trackpoint>
          <Trackpoint>
            <Time>2021-04-02T13:13:16.000Z</Time>
            <Position>
              <LatitudeDegrees>42.3169930279254913330078125</LatitudeDegrees>
              <LongitudeDegrees>2.59015493094921112060546875</LongitudeDegrees>
            </Position>
            <AltitudeMeters>538.79998779296875</AltitudeMeters>
            <DistanceMeters>NAN</DistanceMeters>
          </Trackpoint>
          <Trackpoint>
            <Time>2021-04-02T13:13:19.000Z</Time>
            <Position>
              <LatitudeDegrees>42.31696109287440776824951171875</LatitudeDegrees>
              <LongitudeDegrees>2.59014126844704151153564453125</LongitudeDegrees>
            </Position>
            <AltitudeMeters>538.5999755859375</AltitudeMeters>
            <DistanceMeters>NAN</DistanceMeters>
          </Trackpoint>
          <Trackpoint>
            <Time>2021-04-02T13:13:20.000Z</Time>
            <Position>
              <LatitudeDegrees>42.3169553093612194061279296875</LatitudeDegrees>
              <LongitudeDegrees>2.5901460461318492889404296875</LongitudeDegrees>
            </Position>
            <AltitudeMeters>538.4000244140625</AltitudeMeters>
            <DistanceMeters>NAN</DistanceMeters>
          </Trackpoint>
          <Trackpoint>
            <Time>2021-04-02T13:13:23.000Z</Time>
            <Position>
              <LatitudeDegrees>42.316942401230335235595703125</LatitudeDegrees>
              <LongitudeDegrees>2.59014663286507129669189453125</LongitudeDegrees>
            </Position>
            <AltitudeMeters>538.20001220703125</AltitudeMeters>
            <DistanceMeters>NAN</DistanceMeters>
          </Trackpoint>
          <Trackpoint>
            <Time>2021-04-02T13:13:24.000Z</Time>
            <Position>
              <LatitudeDegrees>42.3169385455548763275146484375</LatitudeDegrees>
              <LongitudeDegrees>2.59014688432216644287109375</LongitudeDegrees>
            </Position>
            <AltitudeMeters>538</AltitudeMeters>
            <DistanceMeters>NAN</DistanceMeters>
          </Trackpoint>
          <Trackpoint>
            <Time>2021-04-02T13:13:26.000Z</Time>
            <Position>
              <LatitudeDegrees>42.31691457331180572509765625</LatitudeDegrees>
              <LongitudeDegrees>2.590130455791950225830078125</LongitudeDegrees>
            </Position>
            <AltitudeMeters>537.5999755859375</AltitudeMeters>
            <DistanceMeters>NAN</DistanceMeters>
          </Trackpoint>
          <Trackpoint>
            <Time>2021-04-02T13:13:28.000Z</Time>
            <Position>
              <LatitudeDegrees>42.31688129715621471405029296875</LatitudeDegrees>
              <LongitudeDegrees>2.59012014605104923248291015625</LongitudeDegrees>
            </Position>
            <AltitudeMeters>537</AltitudeMeters>
            <DistanceMeters>NAN</DistanceMeters>
          </Trackpoint>
          <Trackpoint>
            <Time>2021-04-02T13:13:32.000Z</Time>
            <Position>
              <LatitudeDegrees>42.31683486141264438629150390625</LatitudeDegrees>
              <LongitudeDegrees>2.590079493820667266845703125</LongitudeDegrees>
            </Position>
            <AltitudeMeters>535.79998779296875</AltitudeMeters>
            <DistanceMeters>NAN</DistanceMeters>
          </Trackpoint>
          <Trackpoint>
            <Time>2021-04-02T13:13:33.000Z</Time>
            <Position>
              <LatitudeDegrees>42.31682899408042430877685546875</LatitudeDegrees>
              <LongitudeDegrees>2.59005996398627758026123046875</LongitudeDegrees>
            </Position>
            <AltitudeMeters>535.4000244140625</AltitudeMeters>
            <DistanceMeters>NAN</DistanceMeters>
          </Trackpoint>
          <Trackpoint>
            <Time>2021-04-02T13:13:35.000Z</Time>
            <Position>
              <LatitudeDegrees>42.3168361186981201171875</LatitudeDegrees>
              <LongitudeDegrees>2.590029872953891754150390625</LongitudeDegrees>
            </Position>
            <AltitudeMeters>534.79998779296875</AltitudeMeters>
            <DistanceMeters>NAN</DistanceMeters>
          </Trackpoint>
          <Trackpoint>
            <Time>2021-04-02T13:13:38.000Z</Time>
            <Position>
              <LatitudeDegrees>42.31686101295053958892822265625</LatitudeDegrees>
              <LongitudeDegrees>2.59000598452985286712646484375</LongitudeDegrees>
            </Position>
            <AltitudeMeters>534.20001220703125</AltitudeMeters>
            <DistanceMeters>NAN</DistanceMeters>
          </Trackpoint>
          <Trackpoint>
            <Time>2021-04-02T13:13:43.000Z</Time>
            <Position>
              <LatitudeDegrees>42.3168825544416904449462890625</LatitudeDegrees>
              <LongitudeDegrees>2.58993591181933879852294921875</LongitudeDegrees>
            </Position>
            <AltitudeMeters>533.4000244140625</AltitudeMeters>
            <DistanceMeters>NAN</DistanceMeters>
          </Trackpoint>
          <Trackpoint>
            <Time>2021-04-02T13:13:45.000Z</Time>
            <Position>
              <LatitudeDegrees>42.31689772568643093109130859375</LatitudeDegrees>
              <LongitudeDegrees>2.58991965092718601226806640625</LongitudeDegrees>
            </Position>
            <AltitudeMeters>533</AltitudeMeters>
            <DistanceMeters>NAN</DistanceMeters>
          </Trackpoint>
          <Trackpoint>
            <Time>2021-04-02T13:13:46.000Z</Time>
            <Position>
              <LatitudeDegrees>42.3169043473899364471435546875</LatitudeDegrees>
              <LongitudeDegrees>2.58990925736725330352783203125</LongitudeDegrees>
            </Position>
            <AltitudeMeters>533</AltitudeMeters>
            <DistanceMeters>NAN</DistanceMeters>
          </Trackpoint>
          <Trackpoint>
            <Time>2021-04-02T13:13:48.000Z</Time>
            <Position>
              <LatitudeDegrees>42.316915579140186309814453125</LatitudeDegrees>
              <LongitudeDegrees>2.5898935832083225250244140625</LongitudeDegrees>
            </Position>
            <AltitudeMeters>532.20001220703125</AltitudeMeters>
            <DistanceMeters>NAN</DistanceMeters>
          </Trackpoint>
          <Trackpoint>
            <Time>2021-04-02T13:13:53.000Z</Time>
            <Position>
              <LatitudeDegrees>42.31695556081831455230712890625</LatitudeDegrees>
              <LongitudeDegrees>2.589843459427356719970703125</LongitudeDegrees>
            </Position>
            <AltitudeMeters>531.4000244140625</AltitudeMeters>
            <DistanceMeters>NAN</DistanceMeters>
          </Trackpoint>
          <Trackpoint>
            <Time>2021-04-02T13:13:54.000Z</Time>
            <Position>
              <LatitudeDegrees>42.316958494484424591064453125</LatitudeDegrees>
              <LongitudeDegrees>2.589837424457073211669921875</LongitudeDegrees>
            </Position>
            <AltitudeMeters>531.4000244140625</AltitudeMeters>
            <DistanceMeters>NAN</DistanceMeters>
          </Trackpoint>
          <Trackpoint>
            <Time>2021-04-02T13:13:55.000Z</Time>
            <Position>
              <LatitudeDegrees>42.3169576562941074371337890625</LatitudeDegrees>
              <LongitudeDegrees>2.5898332335054874420166015625</LongitudeDegrees>
            </Position>
            <AltitudeMeters>531</AltitudeMeters>
            <DistanceMeters>NAN</DistanceMeters>
          </Trackpoint>
          <Trackpoint>
            <Time>2021-04-02T13:13:56.000Z</Time>
            <Position>
              <LatitudeDegrees>42.3169660381972789764404296875</LatitudeDegrees>
              <LongitudeDegrees>2.589831054210662841796875</LongitudeDegrees>
            </Position>
            <AltitudeMeters>530.79998779296875</AltitudeMeters>
            <DistanceMeters>NAN</DistanceMeters>
          </Trackpoint>
          <Trackpoint>
            <Time>2021-04-02T13:13:58.000Z</Time>
            <Position>
              <LatitudeDegrees>42.3169844783842563629150390625</LatitudeDegrees>
              <LongitudeDegrees>2.58983097039163112640380859375</LongitudeDegrees>
            </Position>
            <AltitudeMeters>530.5999755859375</AltitudeMeters>
            <DistanceMeters>NAN</DistanceMeters>
          </Trackpoint>
          <Trackpoint>
            <Time>2021-04-02T13:13:59.000Z</Time>
            <Position>
              <LatitudeDegrees>42.3169925250113010406494140625</LatitudeDegrees>
              <LongitudeDegrees>2.5898211635649204254150390625</LongitudeDegrees>
            </Position>
            <AltitudeMeters>530.5999755859375</AltitudeMeters>
            <DistanceMeters>NAN</DistanceMeters>
          </Trackpoint>
          <Trackpoint>
            <Time>2021-04-02T13:14:03.000Z</Time>
            <Position>
              <LatitudeDegrees>42.31699948199093341827392578125</LatitudeDegrees>
              <LongitudeDegrees>2.58976978249847888946533203125</LongitudeDegrees>
            </Position>
            <AltitudeMeters>530</AltitudeMeters>
            <DistanceMeters>NAN</DistanceMeters>
          </Trackpoint>
          <Trackpoint>
            <Time>2021-04-02T13:14:04.000Z</Time>
            <Position>
              <LatitudeDegrees>42.31701004318892955780029296875</LatitudeDegrees>
              <LongitudeDegrees>2.589762993156909942626953125</LongitudeDegrees>
            </Position>
            <AltitudeMeters>529.4000244140625</AltitudeMeters>
            <DistanceMeters>NAN</DistanceMeters>
          </Trackpoint>
          <Trackpoint>
            <Time>2021-04-02T13:14:06.000Z</Time>
            <Position>
              <LatitudeDegrees>42.31703083030879497528076171875</LatitudeDegrees>
              <LongitudeDegrees>2.5897474028170108795166015625</LongitudeDegrees>
            </Position>
            <AltitudeMeters>528.79998779296875</AltitudeMeters>
            <DistanceMeters>NAN</DistanceMeters>
          </Trackpoint>
          <Trackpoint>
            <Time>2021-04-02T13:14:11.000Z</Time>
            <Position>
              <LatitudeDegrees>42.3170880787074565887451171875</LatitudeDegrees>
              <LongitudeDegrees>2.58975855074822902679443359375</LongitudeDegrees>
            </Position>
            <AltitudeMeters>527.79998779296875</AltitudeMeters>
            <DistanceMeters>NAN</DistanceMeters>
          </Trackpoint>
          <Trackpoint>
            <Time>2021-04-02T13:14:14.000Z</Time>
            <Position>
              <LatitudeDegrees>42.3171155713498592376708984375</LatitudeDegrees>
              <LongitudeDegrees>2.58976760320365428924560546875</LongitudeDegrees>
            </Position>
            <AltitudeMeters>527</AltitudeMeters>
            <DistanceMeters>NAN</DistanceMeters>
          </Trackpoint>
          <Trackpoint>
            <Time>2021-04-02T13:14:16.000Z</Time>
            <Position>
              <LatitudeDegrees>42.3171336762607097625732421875</LatitudeDegrees>
              <LongitudeDegrees>2.58977129124104976654052734375</LongitudeDegrees>
            </Position>
            <AltitudeMeters>526.5999755859375</AltitudeMeters>
            <DistanceMeters>NAN</DistanceMeters>
          </Trackpoint>
          <Trackpoint>
            <Time>2021-04-02T13:14:18.000Z</Time>
            <Position>
              <LatitudeDegrees>42.3171454109251499176025390625</LatitudeDegrees>
              <LongitudeDegrees>2.5897728838026523590087890625</LongitudeDegrees>
            </Position>
            <AltitudeMeters>526.20001220703125</AltitudeMeters>
            <DistanceMeters>NAN</DistanceMeters>
          </Trackpoint>
          <Trackpoint>
            <Time>2021-04-02T13:14:20.000Z</Time>
            <Position>
              <LatitudeDegrees>42.317161001265048980712890625</LatitudeDegrees>
              <LongitudeDegrees>2.58977145887911319732666015625</LongitudeDegrees>
            </Position>
            <AltitudeMeters>525.5999755859375</AltitudeMeters>
            <DistanceMeters>NAN</DistanceMeters>
          </Trackpoint>
          <Trackpoint>
            <Time>2021-04-02T13:14:24.000Z</Time>
            <Position>
              <LatitudeDegrees>42.31716712005436420440673828125</LatitudeDegrees>
              <LongitudeDegrees>2.58974455296993255615234375</LongitudeDegrees>
            </Position>
            <AltitudeMeters>524.79998779296875</AltitudeMeters>
            <DistanceMeters>NAN</DistanceMeters>
          </Trackpoint>
          <Trackpoint>
            <Time>2021-04-02T13:14:25.000Z</Time>
            <Position>
              <LatitudeDegrees>42.3171635158360004425048828125</LatitudeDegrees>
              <LongitudeDegrees>2.58974027819931507110595703125</LongitudeDegrees>
            </Position>
            <AltitudeMeters>524.5999755859375</AltitudeMeters>
            <DistanceMeters>NAN</DistanceMeters>
          </Trackpoint>
          <Trackpoint>
            <Time>2021-04-02T13:14:26.000Z</Time>
            <Position>
              <LatitudeDegrees>42.31714666821062564849853515625</LatitudeDegrees>
              <LongitudeDegrees>2.58974782191216945648193359375</LongitudeDegrees>
            </Position>
            <AltitudeMeters>524.5999755859375</AltitudeMeters>
            <DistanceMeters>NAN</DistanceMeters>
          </Trackpoint>
          <Trackpoint>
            <Time>2021-04-02T13:14:27.000Z</Time>
            <Position>
              <LatitudeDegrees>42.31714163906872272491455078125</LatitudeDegrees>
              <LongitudeDegrees>2.58975259959697723388671875</LongitudeDegrees>
            </Position>
            <AltitudeMeters>524.4000244140625</AltitudeMeters>
            <DistanceMeters>NAN</DistanceMeters>
          </Trackpoint>
          <Trackpoint>
            <Time>2021-04-02T13:14:29.000Z</Time>
            <Position>
              <LatitudeDegrees>42.31713987886905670166015625</LatitudeDegrees>
              <LongitudeDegrees>2.58975435979664325714111328125</LongitudeDegrees>
            </Position>
            <AltitudeMeters>524.20001220703125</AltitudeMeters>
            <DistanceMeters>NAN</DistanceMeters>
          </Trackpoint>
          <Trackpoint>
            <Time>2021-04-02T13:14:30.000Z</Time>
            <Position>
              <LatitudeDegrees>42.3171410523355007171630859375</LatitudeDegrees>
              <LongitudeDegrees>2.58974648080766201019287109375</LongitudeDegrees>
            </Position>
            <AltitudeMeters>524.20001220703125</AltitudeMeters>
            <DistanceMeters>NAN</DistanceMeters>
          </Trackpoint>
          <Trackpoint>
            <Time>2021-04-02T13:14:34.000Z</Time>
            <Position>
              <LatitudeDegrees>42.3171574808657169342041015625</LatitudeDegrees>
              <LongitudeDegrees>2.58971110917627811431884765625</LongitudeDegrees>
            </Position>
            <AltitudeMeters>523.79998779296875</AltitudeMeters>
            <DistanceMeters>NAN</DistanceMeters>
          </Trackpoint>
          <Trackpoint>
            <Time>2021-04-02T13:14:35.000Z</Time>
            <Position>
              <LatitudeDegrees>42.31717013753950595855712890625</LatitudeDegrees>
              <LongitudeDegrees>2.58971504867076873779296875</LongitudeDegrees>
            </Position>
            <AltitudeMeters>523.5999755859375</AltitudeMeters>
            <DistanceMeters>NAN</DistanceMeters>
          </Trackpoint>
          <Trackpoint>
            <Time>2021-04-02T13:14:36.000Z</Time>
            <Position>
              <LatitudeDegrees>42.317186482250690460205078125</LatitudeDegrees>
              <LongitudeDegrees>2.5897235982120037078857421875</LongitudeDegrees>
            </Position>
            <AltitudeMeters>523.20001220703125</AltitudeMeters>
            <DistanceMeters>NAN</DistanceMeters>
          </Trackpoint>
          <Trackpoint>
            <Time>2021-04-02T13:14:39.000Z</Time>
            <Position>
              <LatitudeDegrees>42.31720584444701671600341796875</LatitudeDegrees>
              <LongitudeDegrees>2.58972351439297199249267578125</LongitudeDegrees>
            </Position>
            <AltitudeMeters>522.79998779296875</AltitudeMeters>
            <DistanceMeters>NAN</DistanceMeters>
          </Trackpoint>
          <Trackpoint>
            <Time>2021-04-02T13:14:43.000Z</Time>
            <Position>
              <LatitudeDegrees>42.31720919720828533172607421875</LatitudeDegrees>
              <LongitudeDegrees>2.589702308177947998046875</LongitudeDegrees>
            </Position>
            <AltitudeMeters>522.4000244140625</AltitudeMeters>
            <DistanceMeters>NAN</DistanceMeters>
          </Trackpoint>
          <Trackpoint>
            <Time>2021-04-02T13:14:44.000Z</Time>
            <Position>
              <LatitudeDegrees>42.31721657328307628631591796875</LatitudeDegrees>
              <LongitudeDegrees>2.58970038034021854400634765625</LongitudeDegrees>
            </Position>
            <AltitudeMeters>522.20001220703125</AltitudeMeters>
            <DistanceMeters>NAN</DistanceMeters>
          </Trackpoint>
          <Trackpoint>
            <Time>2021-04-02T13:14:45.000Z</Time>
            <Position>
              <LatitudeDegrees>42.3172242008149623870849609375</LatitudeDegrees>
              <LongitudeDegrees>2.58969803340733051300048828125</LongitudeDegrees>
            </Position>
            <AltitudeMeters>522</AltitudeMeters>
            <DistanceMeters>NAN</DistanceMeters>
          </Trackpoint>
          <Trackpoint>
            <Time>2021-04-02T13:14:47.000Z</Time>
            <Position>
              <LatitudeDegrees>42.31722814030945301055908203125</LatitudeDegrees>
              <LongitudeDegrees>2.58969987742602825164794921875</LongitudeDegrees>
            </Position>
            <AltitudeMeters>521.5999755859375</AltitudeMeters>
            <DistanceMeters>NAN</DistanceMeters>
          </Trackpoint>
          <Trackpoint>
            <Time>2021-04-02T13:14:48.000Z</Time>
            <Position>
              <LatitudeDegrees>42.3172262124717235565185546875</LatitudeDegrees>
              <LongitudeDegrees>2.5897058285772800445556640625</LongitudeDegrees>
            </Position>
            <AltitudeMeters>521.4000244140625</AltitudeMeters>
            <DistanceMeters>NAN</DistanceMeters>
          </Trackpoint>
          <Trackpoint>
            <Time>2021-04-02T13:14:49.000Z</Time>
            <Position>
              <LatitudeDegrees>42.317222692072391510009765625</LatitudeDegrees>
              <LongitudeDegrees>2.58970406837761402130126953125</LongitudeDegrees>
            </Position>
            <AltitudeMeters>521</AltitudeMeters>
            <DistanceMeters>NAN</DistanceMeters>
          </Trackpoint>
          <Trackpoint>
            <Time>2021-04-02T13:14:50.000Z</Time>
            <Position>
              <LatitudeDegrees>42.3172198422253131866455078125</LatitudeDegrees>
              <LongitudeDegrees>2.589698620140552520751953125</LongitudeDegrees>
            </Position>
            <AltitudeMeters>520.79998779296875</AltitudeMeters>
            <DistanceMeters>NAN</DistanceMeters>
          </Trackpoint>
          <Trackpoint>
            <Time>2021-04-02T13:14:51.000Z</Time>
            <Position>
              <LatitudeDegrees>42.31722042895853519439697265625</LatitudeDegrees>
              <LongitudeDegrees>2.58968462236225605010986328125</LongitudeDegrees>
            </Position>
            <AltitudeMeters>520.5999755859375</AltitudeMeters>
            <DistanceMeters>NAN</DistanceMeters>
          </Trackpoint>
          <Trackpoint>
            <Time>2021-04-02T13:14:53.000Z</Time>
            <Position>
              <LatitudeDegrees>42.3172315768897533416748046875</LatitudeDegrees>
              <LongitudeDegrees>2.5896642543375492095947265625</LongitudeDegrees>
            </Position>
            <AltitudeMeters>520.4000244140625</AltitudeMeters>
            <DistanceMeters>NAN</DistanceMeters>
          </Trackpoint>
          <Trackpoint>
            <Time>2021-04-02T13:14:55.000Z</Time>
            <Position>
              <LatitudeDegrees>42.3172451555728912353515625</LatitudeDegrees>
              <LongitudeDegrees>2.58966743946075439453125</LongitudeDegrees>
            </Position>
            <AltitudeMeters>519.79998779296875</AltitudeMeters>
            <DistanceMeters>NAN</DistanceMeters>
          </Trackpoint>
          <Trackpoint>
            <Time>2021-04-02T13:14:56.000Z</Time>
            <Position>
              <LatitudeDegrees>42.3172449879348278045654296875</LatitudeDegrees>
              <LongitudeDegrees>2.58966215886175632476806640625</LongitudeDegrees>
            </Position>
            <AltitudeMeters>519.5999755859375</AltitudeMeters>
            <DistanceMeters>NAN</DistanceMeters>
          </Trackpoint>
          <Trackpoint>
            <Time>2021-04-02T13:15:01.000Z</Time>
            <Position>
              <LatitudeDegrees>42.31721523217856884002685546875</LatitudeDegrees>
              <LongitudeDegrees>2.58963567204773426055908203125</LongitudeDegrees>
            </Position>
            <AltitudeMeters>518.5999755859375</AltitudeMeters>
            <DistanceMeters>NAN</DistanceMeters>
          </Trackpoint>
          <Trackpoint>
            <Time>2021-04-02T13:15:06.000Z</Time>
            <Position>
              <LatitudeDegrees>42.31720601208508014678955078125</LatitudeDegrees>
              <LongitudeDegrees>2.58962142281234264373779296875</LongitudeDegrees>
            </Position>
            <AltitudeMeters>517.79998779296875</AltitudeMeters>
            <DistanceMeters>NAN</DistanceMeters>
          </Trackpoint>
          <Trackpoint>
            <Time>2021-04-02T13:15:07.000Z</Time>
            <Position>
              <LatitudeDegrees>42.31720349751412868499755859375</LatitudeDegrees>
              <LongitudeDegrees>2.58961312472820281982421875</LongitudeDegrees>
            </Position>
            <AltitudeMeters>517.4000244140625</AltitudeMeters>
            <DistanceMeters>NAN</DistanceMeters>
          </Trackpoint>
          <Trackpoint>
            <Time>2021-04-02T13:15:11.000Z</Time>
            <Position>
              <LatitudeDegrees>42.31721338815987110137939453125</LatitudeDegrees>
              <LongitudeDegrees>2.5895871408283710479736328125</LongitudeDegrees>
            </Position>
            <AltitudeMeters>516.4000244140625</AltitudeMeters>
            <DistanceMeters>NAN</DistanceMeters>
          </Trackpoint>
          <Trackpoint>
            <Time>2021-04-02T13:15:12.000Z</Time>
            <Position>
              <LatitudeDegrees>42.31721498072147369384765625</LatitudeDegrees>
              <LongitudeDegrees>2.58958018384873867034912109375</LongitudeDegrees>
            </Position>
            <AltitudeMeters>516.20001220703125</AltitudeMeters>
            <DistanceMeters>NAN</DistanceMeters>
          </Trackpoint>
          <Trackpoint>
            <Time>2021-04-02T13:15:18.000Z</Time>
            <Position>
              <LatitudeDegrees>42.317219674587249755859375</LatitudeDegrees>
              <LongitudeDegrees>2.5895546190440654754638671875</LongitudeDegrees>
            </Position>
            <AltitudeMeters>515.4000244140625</AltitudeMeters>
            <DistanceMeters>NAN</DistanceMeters>
          </Trackpoint>
          <Trackpoint>
            <Time>2021-04-02T13:15:19.000Z</Time>
            <Position>
              <LatitudeDegrees>42.31721623800694942474365234375</LatitudeDegrees>
              <LongitudeDegrees>2.58954179473221302032470703125</LongitudeDegrees>
            </Position>
            <AltitudeMeters>515.20001220703125</AltitudeMeters>
            <DistanceMeters>NAN</DistanceMeters>
          </Trackpoint>
          <Trackpoint>
            <Time>2021-04-02T13:15:23.000Z</Time>
            <Position>
              <LatitudeDegrees>42.3172362707555294036865234375</LatitudeDegrees>
              <LongitudeDegrees>2.589514553546905517578125</LongitudeDegrees>
            </Position>
            <AltitudeMeters>514</AltitudeMeters>
            <DistanceMeters>NAN</DistanceMeters>
          </Trackpoint>
          <Trackpoint>
            <Time>2021-04-02T13:15:26.000Z</Time>
            <Position>
              <LatitudeDegrees>42.317258901894092559814453125</LatitudeDegrees>
              <LongitudeDegrees>2.58950960822403430938720703125</LongitudeDegrees>
            </Position>
            <AltitudeMeters>513.4000244140625</AltitudeMeters>
            <DistanceMeters>NAN</DistanceMeters>
          </Trackpoint>
          <Trackpoint>
            <Time>2021-04-02T13:15:30.000Z</Time>
            <Position>
              <LatitudeDegrees>42.31728463433682918548583984375</LatitudeDegrees>
              <LongitudeDegrees>2.589483372867107391357421875</LongitudeDegrees>
            </Position>
            <AltitudeMeters>512.79998779296875</AltitudeMeters>
            <DistanceMeters>NAN</DistanceMeters>
          </Trackpoint>
          <Trackpoint>
            <Time>2021-04-02T13:15:33.000Z</Time>
            <Position>
              <LatitudeDegrees>42.31730483472347259521484375</LatitudeDegrees>
              <LongitudeDegrees>2.5894741527736186981201171875</LongitudeDegrees>
            </Position>
            <AltitudeMeters>512.5999755859375</AltitudeMeters>
            <DistanceMeters>NAN</DistanceMeters>
          </Trackpoint>
          <Trackpoint>
            <Time>2021-04-02T13:15:37.000Z</Time>
            <Position>
              <LatitudeDegrees>42.317305505275726318359375</LatitudeDegrees>
              <LongitudeDegrees>2.58941489271819591522216796875</LongitudeDegrees>
            </Position>
            <AltitudeMeters>512</AltitudeMeters>
            <DistanceMeters>NAN</DistanceMeters>
          </Trackpoint>
          <Trackpoint>
            <Time>2021-04-02T13:15:39.000Z</Time>
            <Position>
              <LatitudeDegrees>42.31729544699192047119140625</LatitudeDegrees>
              <LongitudeDegrees>2.58940391242504119873046875</LongitudeDegrees>
            </Position>
            <AltitudeMeters>511.600006103515625</AltitudeMeters>
            <DistanceMeters>NAN</DistanceMeters>
          </Trackpoint>
          <Trackpoint>
            <Time>2021-04-02T13:15:41.000Z</Time>
            <Position>
              <LatitudeDegrees>42.31730575673282146453857421875</LatitudeDegrees>
              <LongitudeDegrees>2.589376084506511688232421875</LongitudeDegrees>
            </Position>
            <AltitudeMeters>511.399993896484375</AltitudeMeters>
            <DistanceMeters>NAN</DistanceMeters>
          </Trackpoint>
          <Trackpoint>
            <Time>2021-04-02T13:15:47.000Z</Time>
            <Position>
              <LatitudeDegrees>42.3173599876463413238525390625</LatitudeDegrees>
              <LongitudeDegrees>2.58935655467212200164794921875</LongitudeDegrees>
            </Position>
            <AltitudeMeters>510.399993896484375</AltitudeMeters>
            <DistanceMeters>NAN</DistanceMeters>
          </Trackpoint>
          <Trackpoint>
            <Time>2021-04-02T13:15:50.000Z</Time>
            <Position>
              <LatitudeDegrees>42.31737985275685787200927734375</LatitudeDegrees>
              <LongitudeDegrees>2.58934314362704753875732421875</LongitudeDegrees>
            </Position>
            <AltitudeMeters>510</AltitudeMeters>
            <DistanceMeters>NAN</DistanceMeters>
          </Trackpoint>
          <Trackpoint>
            <Time>2021-04-02T13:15:54.000Z</Time>
            <Position>
              <LatitudeDegrees>42.317416481673717498779296875</LatitudeDegrees>
              <LongitudeDegrees>2.5893286429345607757568359375</LongitudeDegrees>
            </Position>
            <AltitudeMeters>509.20001220703125</AltitudeMeters>
            <DistanceMeters>NAN</DistanceMeters>
          </Trackpoint>
          <Trackpoint>
            <Time>2021-04-02T13:15:55.000Z</Time>
            <Position>
              <LatitudeDegrees>42.31742151081562042236328125</LatitudeDegrees>
              <LongitudeDegrees>2.589316070079803466796875</LongitudeDegrees>
            </Position>
            <AltitudeMeters>508.79998779296875</AltitudeMeters>
            <DistanceMeters>NAN</DistanceMeters>
          </Trackpoint>
          <Trackpoint>
            <Time>2021-04-02T13:15:57.000Z</Time>
            <Position>
              <LatitudeDegrees>42.317423857748508453369140625</LatitudeDegrees>
              <LongitudeDegrees>2.58929972536861896514892578125</LongitudeDegrees>
            </Position>
            <AltitudeMeters>508.399993896484375</AltitudeMeters>
            <DistanceMeters>NAN</DistanceMeters>
          </Trackpoint>
          <Trackpoint>
            <Time>2021-04-02T13:15:59.000Z</Time>
            <Position>
              <LatitudeDegrees>42.3174293898046016693115234375</LatitudeDegrees>
              <LongitudeDegrees>2.5892957858741283416748046875</LongitudeDegrees>
            </Position>
            <AltitudeMeters>508</AltitudeMeters>
            <DistanceMeters>NAN</DistanceMeters>
          </Trackpoint>
          <Trackpoint>
            <Time>2021-04-02T13:16:00.000Z</Time>
            <Position>
              <LatitudeDegrees>42.31742762960493564605712890625</LatitudeDegrees>
              <LongitudeDegrees>2.58928832598030567169189453125</LongitudeDegrees>
            </Position>
            <AltitudeMeters>507.79998779296875</AltitudeMeters>
            <DistanceMeters>NAN</DistanceMeters>
          </Trackpoint>
          <Trackpoint>
            <Time>2021-04-02T13:16:01.000Z</Time>
            <Position>
              <LatitudeDegrees>42.3174267075955867767333984375</LatitudeDegrees>
              <LongitudeDegrees>2.58928631432354450225830078125</LongitudeDegrees>
            </Position>
            <AltitudeMeters>507.600006103515625</AltitudeMeters>
            <DistanceMeters>NAN</DistanceMeters>
          </Trackpoint>
          <Trackpoint>
            <Time>2021-04-02T13:16:02.000Z</Time>
            <Position>
              <LatitudeDegrees>42.31742561794817447662353515625</LatitudeDegrees>
              <LongitudeDegrees>2.5892867334187030792236328125</LongitudeDegrees>
            </Position>
            <AltitudeMeters>507.399993896484375</AltitudeMeters>
            <DistanceMeters>NAN</DistanceMeters>
          </Trackpoint>
          <Trackpoint>
            <Time>2021-04-02T13:16:04.000Z</Time>
            <Position>
              <LatitudeDegrees>42.3174267075955867767333984375</LatitudeDegrees>
              <LongitudeDegrees>2.589286230504512786865234375</LongitudeDegrees>
            </Position>
            <AltitudeMeters>507.20001220703125</AltitudeMeters>
            <DistanceMeters>NAN</DistanceMeters>
          </Trackpoint>
          <Trackpoint>
            <Time>2021-04-02T13:16:05.000Z</Time>
            <Position>
              <LatitudeDegrees>42.31742595322430133819580078125</LatitudeDegrees>
              <LongitudeDegrees>2.58928614668548107147216796875</LongitudeDegrees>
            </Position>
            <AltitudeMeters>506.79998779296875</AltitudeMeters>
            <DistanceMeters>NAN</DistanceMeters>
          </Trackpoint>
          <Trackpoint>
            <Time>2021-04-02T13:16:06.000Z</Time>
            <Position>
              <LatitudeDegrees>42.31742276810109615325927734375</LatitudeDegrees>
              <LongitudeDegrees>2.58927742950618267059326171875</LongitudeDegrees>
            </Position>
            <AltitudeMeters>506.600006103515625</AltitudeMeters>
            <DistanceMeters>NAN</DistanceMeters>
          </Trackpoint>
          <Trackpoint>
            <Time>2021-04-02T13:16:10.000Z</Time>
            <Position>
              <LatitudeDegrees>42.31740466319024562835693359375</LatitudeDegrees>
              <LongitudeDegrees>2.5892706401646137237548828125</LongitudeDegrees>
            </Position>
            <AltitudeMeters>505.79998779296875</AltitudeMeters>
            <DistanceMeters>NAN</DistanceMeters>
          </Trackpoint>
          <Trackpoint>
            <Time>2021-04-02T13:16:11.000Z</Time>
            <Position>
              <LatitudeDegrees>42.31739879585802555084228515625</LatitudeDegrees>
              <LongitudeDegrees>2.5892770104110240936279296875</LongitudeDegrees>
            </Position>
            <AltitudeMeters>505.399993896484375</AltitudeMeters>
            <DistanceMeters>NAN</DistanceMeters>
          </Trackpoint>
          <Trackpoint>
            <Time>2021-04-02T13:16:16.000Z</Time>
            <Position>
              <LatitudeDegrees>42.31738940812647342681884765625</LatitudeDegrees>
              <LongitudeDegrees>2.58926309645175933837890625</LongitudeDegrees>
            </Position>
            <AltitudeMeters>504.79998779296875</AltitudeMeters>
            <DistanceMeters>NAN</DistanceMeters>
          </Trackpoint>
          <Trackpoint>
            <Time>2021-04-02T13:16:18.000Z</Time>
            <Position>
              <LatitudeDegrees>42.31737784110009670257568359375</LatitudeDegrees>
              <LongitudeDegrees>2.589250691235065460205078125</LongitudeDegrees>
            </Position>
            <AltitudeMeters>504.600006103515625</AltitudeMeters>
            <DistanceMeters>NAN</DistanceMeters>
          </Trackpoint>
          <Trackpoint>
            <Time>2021-04-02T13:16:23.000Z</Time>
            <Position>
              <LatitudeDegrees>42.31739125214517116546630859375</LatitudeDegrees>
              <LongitudeDegrees>2.58921439759433269500732421875</LongitudeDegrees>
            </Position>
            <AltitudeMeters>503.600006103515625</AltitudeMeters>
            <DistanceMeters>NAN</DistanceMeters>
          </Trackpoint>
          <Trackpoint>
            <Time>2021-04-02T13:16:27.000Z</Time>
            <Position>
              <LatitudeDegrees>42.31739343143999576568603515625</LatitudeDegrees>
              <LongitudeDegrees>2.58920542895793914794921875</LongitudeDegrees>
            </Position>
            <AltitudeMeters>502.600006103515625</AltitudeMeters>
            <DistanceMeters>NAN</DistanceMeters>
          </Trackpoint>
          <Trackpoint>
            <Time>2021-04-02T13:16:28.000Z</Time>
            <Position>
              <LatitudeDegrees>42.31739477254450321197509765625</LatitudeDegrees>
              <LongitudeDegrees>2.58919646032154560089111328125</LongitudeDegrees>
            </Position>
            <AltitudeMeters>502.600006103515625</AltitudeMeters>
            <DistanceMeters>NAN</DistanceMeters>
          </Trackpoint>
          <Trackpoint>
            <Time>2021-04-02T13:16:33.000Z</Time>
            <Position>
              <LatitudeDegrees>42.317410446703433990478515625</LatitudeDegrees>
              <LongitudeDegrees>2.5891618430614471435546875</LongitudeDegrees>
            </Position>
            <AltitudeMeters>501.600006103515625</AltitudeMeters>
            <DistanceMeters>NAN</DistanceMeters>
          </Trackpoint>
          <Trackpoint>
            <Time>2021-04-02T13:16:34.000Z</Time>
            <Position>
              <LatitudeDegrees>42.31741287745535373687744140625</LatitudeDegrees>
              <LongitudeDegrees>2.58916142396628856658935546875</LongitudeDegrees>
            </Position>
            <AltitudeMeters>501.600006103515625</AltitudeMeters>
            <DistanceMeters>NAN</DistanceMeters>
          </Trackpoint>
          <Trackpoint>
            <Time>2021-04-02T13:16:38.000Z</Time>
            <Position>
              <LatitudeDegrees>42.31743760406970977783203125</LatitudeDegrees>
              <LongitudeDegrees>2.58914751000702381134033203125</LongitudeDegrees>
            </Position>
            <AltitudeMeters>501</AltitudeMeters>
            <DistanceMeters>NAN</DistanceMeters>
          </Trackpoint>
          <Trackpoint>
            <Time>2021-04-02T13:16:43.000Z</Time>
            <Position>
              <LatitudeDegrees>42.31747238896787166595458984375</LatitudeDegrees>
              <LongitudeDegrees>2.5891137309372425079345703125</LongitudeDegrees>
            </Position>
            <AltitudeMeters>500.399993896484375</AltitudeMeters>
            <DistanceMeters>NAN</DistanceMeters>
          </Trackpoint>
          <Trackpoint>
            <Time>2021-04-02T13:16:48.000Z</Time>
            <Position>
              <LatitudeDegrees>42.3174967803061008453369140625</LatitudeDegrees>
              <LongitudeDegrees>2.58906997740268707275390625</LongitudeDegrees>
            </Position>
            <AltitudeMeters>500</AltitudeMeters>
            <DistanceMeters>NAN</DistanceMeters>
          </Trackpoint>
          <Trackpoint>
            <Time>2021-04-02T13:16:51.000Z</Time>
            <Position>
              <LatitudeDegrees>42.31750491075217723846435546875</LatitudeDegrees>
              <LongitudeDegrees>2.58903644979000091552734375</LongitudeDegrees>
            </Position>
            <AltitudeMeters>499.399993896484375</AltitudeMeters>
            <DistanceMeters>NAN</DistanceMeters>
          </Trackpoint>
          <Trackpoint>
            <Time>2021-04-02T13:16:54.000Z</Time>
            <Position>
              <LatitudeDegrees>42.3175081796944141387939453125</LatitudeDegrees>
              <LongitudeDegrees>2.58898288942873477935791015625</LongitudeDegrees>
            </Position>
            <AltitudeMeters>499.20001220703125</AltitudeMeters>
            <DistanceMeters>NAN</DistanceMeters>
          </Trackpoint>
          <Trackpoint>
            <Time>2021-04-02T13:16:56.000Z</Time>
            <Position>
              <LatitudeDegrees>42.31751614250242710113525390625</LatitudeDegrees>
              <LongitudeDegrees>2.5889606773853302001953125</LongitudeDegrees>
            </Position>
            <AltitudeMeters>498.600006103515625</AltitudeMeters>
            <DistanceMeters>NAN</DistanceMeters>
          </Trackpoint>
          <Trackpoint>
            <Time>2021-04-02T13:16:57.000Z</Time>
            <Position>
              <LatitudeDegrees>42.31752200983464717864990234375</LatitudeDegrees>
              <LongitudeDegrees>2.58895388804376125335693359375</LongitudeDegrees>
            </Position>
            <AltitudeMeters>498.399993896484375</AltitudeMeters>
            <DistanceMeters>NAN</DistanceMeters>
          </Trackpoint>
          <Trackpoint>
            <Time>2021-04-02T13:16:59.000Z</Time>
            <Position>
              <LatitudeDegrees>42.317532487213611602783203125</LatitudeDegrees>
              <LongitudeDegrees>2.588940560817718505859375</LongitudeDegrees>
            </Position>
            <AltitudeMeters>498</AltitudeMeters>
            <DistanceMeters>NAN</DistanceMeters>
          </Trackpoint>
          <Trackpoint>
            <Time>2021-04-02T13:17:06.000Z</Time>
            <Position>
              <LatitudeDegrees>42.317586801946163177490234375</LatitudeDegrees>
              <LongitudeDegrees>2.588893286883831024169921875</LongitudeDegrees>
            </Position>
            <AltitudeMeters>498</AltitudeMeters>
            <DistanceMeters>NAN</DistanceMeters>
          </Trackpoint>
          <Trackpoint>
            <Time>2021-04-02T13:17:08.000Z</Time>
            <Position>
              <LatitudeDegrees>42.31759560294449329376220703125</LatitudeDegrees>
              <LongitudeDegrees>2.58887493051588535308837890625</LongitudeDegrees>
            </Position>
            <AltitudeMeters>498</AltitudeMeters>
            <DistanceMeters>NAN</DistanceMeters>
          </Trackpoint>
          <Trackpoint>
            <Time>2021-04-02T13:17:11.000Z</Time>
            <Position>
              <LatitudeDegrees>42.31760197319090366363525390625</LatitudeDegrees>
              <LongitudeDegrees>2.58885883726179599761962890625</LongitudeDegrees>
            </Position>
            <AltitudeMeters>497.600006103515625</AltitudeMeters>
            <DistanceMeters>NAN</DistanceMeters>
          </Trackpoint>
          <Trackpoint>
            <Time>2021-04-02T13:17:12.000Z</Time>
            <Position>
              <LatitudeDegrees>42.31761454604566097259521484375</LatitudeDegrees>
              <LongitudeDegrees>2.5888421572744846343994140625</LongitudeDegrees>
            </Position>
            <AltitudeMeters>497.399993896484375</AltitudeMeters>
            <DistanceMeters>NAN</DistanceMeters>
          </Trackpoint>
          <Trackpoint>
            <Time>2021-04-02T13:17:13.000Z</Time>
            <Position>
              <LatitudeDegrees>42.31761739589273929595947265625</LatitudeDegrees>
              <LongitudeDegrees>2.5888297520577907562255859375</LongitudeDegrees>
            </Position>
            <AltitudeMeters>497.399993896484375</AltitudeMeters>
            <DistanceMeters>NAN</DistanceMeters>
          </Trackpoint>
          <Trackpoint>
            <Time>2021-04-02T13:17:15.000Z</Time>
            <Position>
              <LatitudeDegrees>42.3176215030252933502197265625</LatitudeDegrees>
              <LongitudeDegrees>2.58881659246981143951416015625</LongitudeDegrees>
            </Position>
            <AltitudeMeters>497.20001220703125</AltitudeMeters>
            <DistanceMeters>NAN</DistanceMeters>
          </Trackpoint>
          <Trackpoint>
            <Time>2021-04-02T13:17:17.000Z</Time>
            <Position>
              <LatitudeDegrees>42.317627705633640289306640625</LatitudeDegrees>
              <LongitudeDegrees>2.58880636654794216156005859375</LongitudeDegrees>
            </Position>
            <AltitudeMeters>497.20001220703125</AltitudeMeters>
            <DistanceMeters>NAN</DistanceMeters>
          </Trackpoint>
          <Trackpoint>
            <Time>2021-04-02T13:17:20.000Z</Time>
            <Position>
              <LatitudeDegrees>42.31763818301260471343994140625</LatitudeDegrees>
              <LongitudeDegrees>2.5887808017432689666748046875</LongitudeDegrees>
            </Position>
            <AltitudeMeters>496.79998779296875</AltitudeMeters>
            <DistanceMeters>NAN</DistanceMeters>
          </Trackpoint>
          <Trackpoint>
            <Time>2021-04-02T13:17:21.000Z</Time>
            <Position>
              <LatitudeDegrees>42.31764002703130245208740234375</LatitudeDegrees>
              <LongitudeDegrees>2.5887744314968585968017578125</LongitudeDegrees>
            </Position>
            <AltitudeMeters>496.79998779296875</AltitudeMeters>
            <DistanceMeters>NAN</DistanceMeters>
          </Trackpoint>
          <Trackpoint>
            <Time>2021-04-02T13:17:24.000Z</Time>
            <Position>
              <LatitudeDegrees>42.317649163305759429931640625</LatitudeDegrees>
              <LongitudeDegrees>2.58876579813659191131591796875</LongitudeDegrees>
            </Position>
            <AltitudeMeters>496.20001220703125</AltitudeMeters>
            <DistanceMeters>NAN</DistanceMeters>
          </Trackpoint>
          <Trackpoint>
            <Time>2021-04-02T13:17:25.000Z</Time>
            <Position>
              <LatitudeDegrees>42.31765109114348888397216796875</LatitudeDegrees>
              <LongitudeDegrees>2.58876361884176731109619140625</LongitudeDegrees>
            </Position>
            <AltitudeMeters>496.20001220703125</AltitudeMeters>
            <DistanceMeters>NAN</DistanceMeters>
          </Trackpoint>
          <Trackpoint>
            <Time>2021-04-02T13:17:31.000Z</Time>
            <Position>
              <LatitudeDegrees>42.31766559183597564697265625</LatitudeDegrees>
              <LongitudeDegrees>2.588758170604705810546875</LongitudeDegrees>
            </Position>
            <AltitudeMeters>495.399993896484375</AltitudeMeters>
            <DistanceMeters>NAN</DistanceMeters>
          </Trackpoint>
          <Trackpoint>
            <Time>2021-04-02T13:17:33.000Z</Time>
            <Position>
              <LatitudeDegrees>42.31764522381126880645751953125</LatitudeDegrees>
              <LongitudeDegrees>2.5887660495936870574951171875</LongitudeDegrees>
            </Position>
            <AltitudeMeters>495</AltitudeMeters>
            <DistanceMeters>NAN</DistanceMeters>
          </Trackpoint>
          <Trackpoint>
            <Time>2021-04-02T13:17:36.000Z</Time>
            <Position>
              <LatitudeDegrees>42.31763851828873157501220703125</LatitudeDegrees>
              <LongitudeDegrees>2.58876361884176731109619140625</LongitudeDegrees>
            </Position>
            <AltitudeMeters>494.20001220703125</AltitudeMeters>
            <DistanceMeters>NAN</DistanceMeters>
          </Trackpoint>
          <Trackpoint>
            <Time>2021-04-02T13:17:37.000Z</Time>
            <Position>
              <LatitudeDegrees>42.3176426254212856292724609375</LatitudeDegrees>
              <LongitudeDegrees>2.58875372819602489471435546875</LongitudeDegrees>
            </Position>
            <AltitudeMeters>494</AltitudeMeters>
            <DistanceMeters>NAN</DistanceMeters>
          </Trackpoint>
          <Trackpoint>
            <Time>2021-04-02T13:17:43.000Z</Time>
            <Position>
              <LatitudeDegrees>42.31767632067203521728515625</LatitudeDegrees>
              <LongitudeDegrees>2.588726989924907684326171875</LongitudeDegrees>
            </Position>
            <AltitudeMeters>493</AltitudeMeters>
            <DistanceMeters>NAN</DistanceMeters>
          </Trackpoint>
          <Trackpoint>
            <Time>2021-04-02T13:17:45.000Z</Time>
            <Position>
              <LatitudeDegrees>42.31768034398555755615234375</LatitudeDegrees>
              <LongitudeDegrees>2.58871383033692836761474609375</LongitudeDegrees>
            </Position>
            <AltitudeMeters>492.600006103515625</AltitudeMeters>
            <DistanceMeters>NAN</DistanceMeters>
          </Trackpoint>
          <Trackpoint>
            <Time>2021-04-02T13:17:50.000Z</Time>
            <Position>
              <LatitudeDegrees>42.3176895640790462493896484375</LatitudeDegrees>
              <LongitudeDegrees>2.58864618837833404541015625</LongitudeDegrees>
            </Position>
            <AltitudeMeters>491.79998779296875</AltitudeMeters>
            <DistanceMeters>NAN</DistanceMeters>
          </Trackpoint>
          <Trackpoint>
            <Time>2021-04-02T13:17:55.000Z</Time>
            <Position>
              <LatitudeDegrees>42.31770792044699192047119140625</LatitudeDegrees>
              <LongitudeDegrees>2.5886188633739948272705078125</LongitudeDegrees>
            </Position>
            <AltitudeMeters>490.600006103515625</AltitudeMeters>
            <DistanceMeters>NAN</DistanceMeters>
          </Trackpoint>
          <Trackpoint>
            <Time>2021-04-02T13:17:57.000Z</Time>
            <Position>
              <LatitudeDegrees>42.3177123628556728363037109375</LatitudeDegrees>
              <LongitudeDegrees>2.58861039765179157257080078125</LongitudeDegrees>
            </Position>
            <AltitudeMeters>490</AltitudeMeters>
            <DistanceMeters>NAN</DistanceMeters>
          </Trackpoint>
          <Trackpoint>
            <Time>2021-04-02T13:18:00.000Z</Time>
            <Position>
              <LatitudeDegrees>42.3177086748182773590087890625</LatitudeDegrees>
              <LongitudeDegrees>2.5885985791683197021484375</LongitudeDegrees>
            </Position>
            <AltitudeMeters>489.600006103515625</AltitudeMeters>
            <DistanceMeters>NAN</DistanceMeters>
          </Trackpoint>
          <Trackpoint>
            <Time>2021-04-02T13:18:02.000Z</Time>
            <Position>
              <LatitudeDegrees>42.31770976446568965911865234375</LatitudeDegrees>
              <LongitudeDegrees>2.58860536850988864898681640625</LongitudeDegrees>
            </Position>
            <AltitudeMeters>489.399993896484375</AltitudeMeters>
            <DistanceMeters>NAN</DistanceMeters>
          </Trackpoint>
          <Trackpoint>
            <Time>2021-04-02T13:18:05.000Z</Time>
            <Position>
              <LatitudeDegrees>42.317702807486057281494140625</LatitudeDegrees>
              <LongitudeDegrees>2.58858961053192615509033203125</LongitudeDegrees>
            </Position>
            <AltitudeMeters>488.399993896484375</AltitudeMeters>
            <DistanceMeters>NAN</DistanceMeters>
          </Trackpoint>
          <Trackpoint>
            <Time>2021-04-02T13:18:07.000Z</Time>
            <Position>
              <LatitudeDegrees>42.3176885582506656646728515625</LatitudeDegrees>
              <LongitudeDegrees>2.58857921697199344635009765625</LongitudeDegrees>
            </Position>
            <AltitudeMeters>488</AltitudeMeters>
            <DistanceMeters>NAN</DistanceMeters>
          </Trackpoint>
          <Trackpoint>
            <Time>2021-04-02T13:18:11.000Z</Time>
            <Position>
              <LatitudeDegrees>42.3176635801792144775390625</LatitudeDegrees>
              <LongitudeDegrees>2.5885407440364360809326171875</LongitudeDegrees>
            </Position>
            <AltitudeMeters>487.399993896484375</AltitudeMeters>
            <DistanceMeters>NAN</DistanceMeters>
          </Trackpoint>
          <Trackpoint>
            <Time>2021-04-02T13:18:13.000Z</Time>
            <Position>
              <LatitudeDegrees>42.3176667653024196624755859375</LatitudeDegrees>
              <LongitudeDegrees>2.5884991697967052459716796875</LongitudeDegrees>
            </Position>
            <AltitudeMeters>486.399993896484375</AltitudeMeters>
            <DistanceMeters>NAN</DistanceMeters>
          </Trackpoint>
          <Trackpoint>
            <Time>2021-04-02T13:18:14.000Z</Time>
            <Position>
              <LatitudeDegrees>42.3176610656082630157470703125</LatitudeDegrees>
              <LongitudeDegrees>2.58848165161907672882080078125</LongitudeDegrees>
            </Position>
            <AltitudeMeters>486.20001220703125</AltitudeMeters>
            <DistanceMeters>NAN</DistanceMeters>
          </Trackpoint>
          <Trackpoint>
            <Time>2021-04-02T13:18:16.000Z</Time>
            <Position>
              <LatitudeDegrees>42.317654527723789215087890625</LatitudeDegrees>
              <LongitudeDegrees>2.58845265023410320281982421875</LongitudeDegrees>
            </Position>
            <AltitudeMeters>486</AltitudeMeters>
            <DistanceMeters>NAN</DistanceMeters>
          </Trackpoint>
          <Trackpoint>
            <Time>2021-04-02T13:18:18.000Z</Time>
            <Position>
              <LatitudeDegrees>42.31765209697186946868896484375</LatitudeDegrees>
              <LongitudeDegrees>2.58844879455864429473876953125</LongitudeDegrees>
            </Position>
            <AltitudeMeters>485.600006103515625</AltitudeMeters>
            <DistanceMeters>NAN</DistanceMeters>
          </Trackpoint>
          <Trackpoint>
            <Time>2021-04-02T13:18:19.000Z</Time>
            <Position>
              <LatitudeDegrees>42.31765008531510829925537109375</LatitudeDegrees>
              <LongitudeDegrees>2.5884378142654895782470703125</LongitudeDegrees>
            </Position>
            <AltitudeMeters>485.399993896484375</AltitudeMeters>
            <DistanceMeters>NAN</DistanceMeters>
          </Trackpoint>
          <Trackpoint>
            <Time>2021-04-02T13:18:21.000Z</Time>
            <Position>
              <LatitudeDegrees>42.31764036230742931365966796875</LatitudeDegrees>
              <LongitudeDegrees>2.5884130038321018218994140625</LongitudeDegrees>
            </Position>
            <AltitudeMeters>485.20001220703125</AltitudeMeters>
            <DistanceMeters>NAN</DistanceMeters>
          </Trackpoint>
          <Trackpoint>
            <Time>2021-04-02T13:18:25.000Z</Time>
            <Position>
              <LatitudeDegrees>42.31765712611377239227294921875</LatitudeDegrees>
              <LongitudeDegrees>2.58838492445647716522216796875</LongitudeDegrees>
            </Position>
            <AltitudeMeters>484</AltitudeMeters>
            <DistanceMeters>NAN</DistanceMeters>
          </Trackpoint>
          <Trackpoint>
            <Time>2021-04-02T13:18:29.000Z</Time>
            <Position>
              <LatitudeDegrees>42.31764975003898143768310546875</LatitudeDegrees>
              <LongitudeDegrees>2.588356845080852508544921875</LongitudeDegrees>
            </Position>
            <AltitudeMeters>483.20001220703125</AltitudeMeters>
            <DistanceMeters>NAN</DistanceMeters>
          </Trackpoint>
          <Trackpoint>
            <Time>2021-04-02T13:18:31.000Z</Time>
            <Position>
              <LatitudeDegrees>42.317636422812938690185546875</LatitudeDegrees>
              <LongitudeDegrees>2.58834636770188808441162109375</LongitudeDegrees>
            </Position>
            <AltitudeMeters>482.79998779296875</AltitudeMeters>
            <DistanceMeters>NAN</DistanceMeters>
          </Trackpoint>
          <Trackpoint>
            <Time>2021-04-02T13:18:32.000Z</Time>
            <Position>
              <LatitudeDegrees>42.31763072311878204345703125</LatitudeDegrees>
              <LongitudeDegrees>2.588352151215076446533203125</LongitudeDegrees>
            </Position>
            <AltitudeMeters>482.600006103515625</AltitudeMeters>
            <DistanceMeters>NAN</DistanceMeters>
          </Trackpoint>
          <Trackpoint>
            <Time>2021-04-02T13:18:38.000Z</Time>
            <Position>
              <LatitudeDegrees>42.31758202426135540008544921875</LatitudeDegrees>
              <LongitudeDegrees>2.58834955282509326934814453125</LongitudeDegrees>
            </Position>
            <AltitudeMeters>481.399993896484375</AltitudeMeters>
            <DistanceMeters>NAN</DistanceMeters>
          </Trackpoint>
          <Trackpoint>
            <Time>2021-04-02T13:18:39.000Z</Time>
            <Position>
              <LatitudeDegrees>42.3175831139087677001953125</LatitudeDegrees>
              <LongitudeDegrees>2.5883375667035579681396484375</LongitudeDegrees>
            </Position>
            <AltitudeMeters>481.20001220703125</AltitudeMeters>
            <DistanceMeters>NAN</DistanceMeters>
          </Trackpoint>
          <Trackpoint>
            <Time>2021-04-02T13:18:43.000Z</Time>
            <Position>
              <LatitudeDegrees>42.31759996153414249420166015625</LatitudeDegrees>
              <LongitudeDegrees>2.588296495378017425537109375</LongitudeDegrees>
            </Position>
            <AltitudeMeters>480.79998779296875</AltitudeMeters>
            <DistanceMeters>NAN</DistanceMeters>
          </Trackpoint>
          <Trackpoint>
            <Time>2021-04-02T13:18:45.000Z</Time>
            <Position>
              <LatitudeDegrees>42.317597866058349609375</LatitudeDegrees>
              <LongitudeDegrees>2.58827696554362773895263671875</LongitudeDegrees>
            </Position>
            <AltitudeMeters>480.600006103515625</AltitudeMeters>
            <DistanceMeters>NAN</DistanceMeters>
          </Trackpoint>
          <Trackpoint>
            <Time>2021-04-02T13:18:46.000Z</Time>
            <Position>
              <LatitudeDegrees>42.31759794987738132476806640625</LatitudeDegrees>
              <LongitudeDegrees>2.5882658176124095916748046875</LongitudeDegrees>
            </Position>
            <AltitudeMeters>480.399993896484375</AltitudeMeters>
            <DistanceMeters>NAN</DistanceMeters>
          </Trackpoint>
          <Trackpoint>
            <Time>2021-04-02T13:18:47.000Z</Time>
            <Position>
              <LatitudeDegrees>42.31759191490709781646728515625</LatitudeDegrees>
              <LongitudeDegrees>2.58825265802443027496337890625</LongitudeDegrees>
            </Position>
            <AltitudeMeters>480.20001220703125</AltitudeMeters>
            <DistanceMeters>NAN</DistanceMeters>
          </Trackpoint>
          <Trackpoint>
            <Time>2021-04-02T13:18:49.000Z</Time>
            <Position>
              <LatitudeDegrees>42.31758512556552886962890625</LatitudeDegrees>
              <LongitudeDegrees>2.5882353074848651885986328125</LongitudeDegrees>
            </Position>
            <AltitudeMeters>479.79998779296875</AltitudeMeters>
            <DistanceMeters>NAN</DistanceMeters>
          </Trackpoint>
          <Trackpoint>
            <Time>2021-04-02T13:18:51.000Z</Time>
            <Position>
              <LatitudeDegrees>42.31757976114749908447265625</LatitudeDegrees>
              <LongitudeDegrees>2.58821259252727031707763671875</LongitudeDegrees>
            </Position>
            <AltitudeMeters>479.20001220703125</AltitudeMeters>
            <DistanceMeters>NAN</DistanceMeters>
          </Trackpoint>
          <Trackpoint>
            <Time>2021-04-02T13:18:52.000Z</Time>
            <Position>
              <LatitudeDegrees>42.31758185662329196929931640625</LatitudeDegrees>
              <LongitudeDegrees>2.588203288614749908447265625</LongitudeDegrees>
            </Position>
            <AltitudeMeters>479</AltitudeMeters>
            <DistanceMeters>NAN</DistanceMeters>
          </Trackpoint>
          <Trackpoint>
            <Time>2021-04-02T13:18:57.000Z</Time>
            <Position>
              <LatitudeDegrees>42.31757498346269130706787109375</LatitudeDegrees>
              <LongitudeDegrees>2.58815802633762359619140625</LongitudeDegrees>
            </Position>
            <AltitudeMeters>478.399993896484375</AltitudeMeters>
            <DistanceMeters>NAN</DistanceMeters>
          </Trackpoint>
          <Trackpoint>
            <Time>2021-04-02T13:18:58.000Z</Time>
            <Position>
              <LatitudeDegrees>42.31757573783397674560546875</LatitudeDegrees>
              <LongitudeDegrees>2.5881531648337841033935546875</LongitudeDegrees>
            </Position>
            <AltitudeMeters>478.20001220703125</AltitudeMeters>
            <DistanceMeters>NAN</DistanceMeters>
          </Trackpoint>
          <Trackpoint>
            <Time>2021-04-02T13:18:59.000Z</Time>
            <Position>
              <LatitudeDegrees>42.31757649220526218414306640625</LatitudeDegrees>
              <LongitudeDegrees>2.588150314986705780029296875</LongitudeDegrees>
            </Position>
            <AltitudeMeters>478</AltitudeMeters>
            <DistanceMeters>NAN</DistanceMeters>
          </Trackpoint>
          <Trackpoint>
            <Time>2021-04-02T13:19:05.000Z</Time>
            <Position>
              <LatitudeDegrees>42.31755805201828479766845703125</LatitudeDegrees>
              <LongitudeDegrees>2.58811620064079761505126953125</LongitudeDegrees>
            </Position>
            <AltitudeMeters>477.20001220703125</AltitudeMeters>
            <DistanceMeters>NAN</DistanceMeters>
          </Trackpoint>
          <Trackpoint>
            <Time>2021-04-02T13:19:11.000Z</Time>
            <Position>
              <LatitudeDegrees>42.317538522183895111083984375</LatitudeDegrees>
              <LongitudeDegrees>2.588096000254154205322265625</LongitudeDegrees>
            </Position>
            <AltitudeMeters>476</AltitudeMeters>
            <DistanceMeters>NAN</DistanceMeters>
          </Trackpoint>
          <Trackpoint>
            <Time>2021-04-02T13:19:16.000Z</Time>
            <Position>
              <LatitudeDegrees>42.317507676780223846435546875</LatitudeDegrees>
              <LongitudeDegrees>2.58806683123111724853515625</LongitudeDegrees>
            </Position>
            <AltitudeMeters>475</AltitudeMeters>
            <DistanceMeters>NAN</DistanceMeters>
          </Trackpoint>
          <Trackpoint>
            <Time>2021-04-02T13:19:18.000Z</Time>
            <Position>
              <LatitudeDegrees>42.317502982914447784423828125</LatitudeDegrees>
              <LongitudeDegrees>2.588056437671184539794921875</LongitudeDegrees>
            </Position>
            <AltitudeMeters>474.600006103515625</AltitudeMeters>
            <DistanceMeters>NAN</DistanceMeters>
          </Trackpoint>
          <Trackpoint>
            <Time>2021-04-02T13:19:21.000Z</Time>
            <Position>
              <LatitudeDegrees>42.31749133206903934478759765625</LatitudeDegrees>
              <LongitudeDegrees>2.588031627237796783447265625</LongitudeDegrees>
            </Position>
            <AltitudeMeters>474</AltitudeMeters>
            <DistanceMeters>NAN</DistanceMeters>
          </Trackpoint>
          <Trackpoint>
            <Time>2021-04-02T13:19:25.000Z</Time>
            <Position>
              <LatitudeDegrees>42.317470125854015350341796875</LatitudeDegrees>
              <LongitudeDegrees>2.5880016200244426727294921875</LongitudeDegrees>
            </Position>
            <AltitudeMeters>473</AltitudeMeters>
            <DistanceMeters>NAN</DistanceMeters>
          </Trackpoint>
          <Trackpoint>
            <Time>2021-04-02T13:19:26.000Z</Time>
            <Position>
              <LatitudeDegrees>42.317464761435985565185546875</LatitudeDegrees>
              <LongitudeDegrees>2.5879918970167636871337890625</LongitudeDegrees>
            </Position>
            <AltitudeMeters>472.79998779296875</AltitudeMeters>
            <DistanceMeters>NAN</DistanceMeters>
          </Trackpoint>
          <Trackpoint>
            <Time>2021-04-02T13:19:30.000Z</Time>
            <Position>
              <LatitudeDegrees>42.31744372285902500152587890625</LatitudeDegrees>
              <LongitudeDegrees>2.5879499875009059906005859375</LongitudeDegrees>
            </Position>
            <AltitudeMeters>471.600006103515625</AltitudeMeters>
            <DistanceMeters>NAN</DistanceMeters>
          </Trackpoint>
          <Trackpoint>
            <Time>2021-04-02T13:19:32.000Z</Time>
            <Position>
              <LatitudeDegrees>42.31743634678423404693603515625</LatitudeDegrees>
              <LongitudeDegrees>2.587935738265514373779296875</LongitudeDegrees>
            </Position>
            <AltitudeMeters>471.20001220703125</AltitudeMeters>
            <DistanceMeters>NAN</DistanceMeters>
          </Trackpoint>
          <Trackpoint>
            <Time>2021-04-02T13:19:34.000Z</Time>
            <Position>
              <LatitudeDegrees>42.31743148528039455413818359375</LatitudeDegrees>
              <LongitudeDegrees>2.58791939355432987213134765625</LongitudeDegrees>
            </Position>
            <AltitudeMeters>470.79998779296875</AltitudeMeters>
            <DistanceMeters>NAN</DistanceMeters>
          </Trackpoint>
          <Trackpoint>
            <Time>2021-04-02T13:19:35.000Z</Time>
            <Position>
              <LatitudeDegrees>42.3174243606626987457275390625</LatitudeDegrees>
              <LongitudeDegrees>2.5879117660224437713623046875</LongitudeDegrees>
            </Position>
            <AltitudeMeters>470.600006103515625</AltitudeMeters>
            <DistanceMeters>NAN</DistanceMeters>
          </Trackpoint>
          <Trackpoint>
            <Time>2021-04-02T13:19:36.000Z</Time>
            <Position>
              <LatitudeDegrees>42.31741388328373432159423828125</LatitudeDegrees>
              <LongitudeDegrees>2.58790723979473114013671875</LongitudeDegrees>
            </Position>
            <AltitudeMeters>470.20001220703125</AltitudeMeters>
            <DistanceMeters>NAN</DistanceMeters>
          </Trackpoint>
          <Trackpoint>
            <Time>2021-04-02T13:19:38.000Z</Time>
            <Position>
              <LatitudeDegrees>42.31739896349608898162841796875</LatitudeDegrees>
              <LongitudeDegrees>2.5878931581974029541015625</LongitudeDegrees>
            </Position>
            <AltitudeMeters>469.600006103515625</AltitudeMeters>
            <DistanceMeters>NAN</DistanceMeters>
          </Trackpoint>
          <Trackpoint>
            <Time>2021-04-02T13:19:43.000Z</Time>
            <Position>
              <LatitudeDegrees>42.317378260195255279541015625</LatitudeDegrees>
              <LongitudeDegrees>2.5878460519015789031982421875</LongitudeDegrees>
            </Position>
            <AltitudeMeters>468.79998779296875</AltitudeMeters>
            <DistanceMeters>NAN</DistanceMeters>
          </Trackpoint>
          <Trackpoint>
            <Time>2021-04-02T13:19:45.000Z</Time>
            <Position>
              <LatitudeDegrees>42.31735923327505588531494140625</LatitudeDegrees>
              <LongitudeDegrees>2.587835155427455902099609375</LongitudeDegrees>
            </Position>
            <AltitudeMeters>468.399993896484375</AltitudeMeters>
            <DistanceMeters>NAN</DistanceMeters>
          </Trackpoint>
          <Trackpoint>
            <Time>2021-04-02T13:19:48.000Z</Time>
            <Position>
              <LatitudeDegrees>42.31735847890377044677734375</LatitudeDegrees>
              <LongitudeDegrees>2.58781059645116329193115234375</LongitudeDegrees>
            </Position>
            <AltitudeMeters>467.600006103515625</AltitudeMeters>
            <DistanceMeters>NAN</DistanceMeters>
          </Trackpoint>
          <Trackpoint>
            <Time>2021-04-02T13:19:49.000Z</Time>
            <Position>
              <LatitudeDegrees>42.31736493296921253204345703125</LatitudeDegrees>
              <LongitudeDegrees>2.587802968919277191162109375</LongitudeDegrees>
            </Position>
            <AltitudeMeters>467.20001220703125</AltitudeMeters>
            <DistanceMeters>NAN</DistanceMeters>
          </Trackpoint>
          <Trackpoint>
            <Time>2021-04-02T13:19:54.000Z</Time>
            <Position>
              <LatitudeDegrees>42.31736308895051479339599609375</LatitudeDegrees>
              <LongitudeDegrees>2.58775795809924602508544921875</LongitudeDegrees>
            </Position>
            <AltitudeMeters>466.20001220703125</AltitudeMeters>
            <DistanceMeters>NAN</DistanceMeters>
          </Trackpoint>
          <Trackpoint>
            <Time>2021-04-02T13:19:55.000Z</Time>
            <Position>
              <LatitudeDegrees>42.31735386885702610015869140625</LatitudeDegrees>
              <LongitudeDegrees>2.58776600472629070281982421875</LongitudeDegrees>
            </Position>
            <AltitudeMeters>466</AltitudeMeters>
            <DistanceMeters>NAN</DistanceMeters>
          </Trackpoint>
          <Trackpoint>
            <Time>2021-04-02T13:19:59.000Z</Time>
            <Position>
              <LatitudeDegrees>42.31733844615519046783447265625</LatitudeDegrees>
              <LongitudeDegrees>2.587781846523284912109375</LongitudeDegrees>
            </Position>
            <AltitudeMeters>465</AltitudeMeters>
            <DistanceMeters>NAN</DistanceMeters>
          </Trackpoint>
          <Trackpoint>
            <Time>2021-04-02T13:20:00.000Z</Time>
            <Position>
              <LatitudeDegrees>42.31734397821128368377685546875</LatitudeDegrees>
              <LongitudeDegrees>2.58777857758104801177978515625</LongitudeDegrees>
            </Position>
            <AltitudeMeters>465</AltitudeMeters>
            <DistanceMeters>NAN</DistanceMeters>
          </Trackpoint>
          <Trackpoint>
            <Time>2021-04-02T13:20:04.000Z</Time>
            <Position>
              <LatitudeDegrees>42.3173475824296474456787109375</LatitudeDegrees>
              <LongitudeDegrees>2.58780271746218204498291015625</LongitudeDegrees>
            </Position>
            <AltitudeMeters>464.20001220703125</AltitudeMeters>
            <DistanceMeters>NAN</DistanceMeters>
          </Trackpoint>
          <Trackpoint>
            <Time>2021-04-02T13:20:05.000Z</Time>
            <Position>
              <LatitudeDegrees>42.3173472471535205841064453125</LatitudeDegrees>
              <LongitudeDegrees>2.5878105126321315765380859375</LongitudeDegrees>
            </Position>
            <AltitudeMeters>464</AltitudeMeters>
            <DistanceMeters>NAN</DistanceMeters>
          </Trackpoint>
          <Trackpoint>
            <Time>2021-04-02T13:20:07.000Z</Time>
            <Position>
              <LatitudeDegrees>42.31734573841094970703125</LatitudeDegrees>
              <LongitudeDegrees>2.5878314673900604248046875</LongitudeDegrees>
            </Position>
            <AltitudeMeters>463.79998779296875</AltitudeMeters>
            <DistanceMeters>NAN</DistanceMeters>
          </Trackpoint>
          <Trackpoint>
            <Time>2021-04-02T13:20:11.000Z</Time>
            <Position>
              <LatitudeDegrees>42.31734129600226879119873046875</LatitudeDegrees>
              <LongitudeDegrees>2.5878718681633472442626953125</LongitudeDegrees>
            </Position>
            <AltitudeMeters>462.79998779296875</AltitudeMeters>
            <DistanceMeters>NAN</DistanceMeters>
          </Trackpoint>
          <Trackpoint>
            <Time>2021-04-02T13:20:15.000Z</Time>
            <Position>
              <LatitudeDegrees>42.31732302345335483551025390625</LatitudeDegrees>
              <LongitudeDegrees>2.5878918170928955078125</LongitudeDegrees>
            </Position>
            <AltitudeMeters>461.399993896484375</AltitudeMeters>
            <DistanceMeters>NAN</DistanceMeters>
          </Trackpoint>
          <Trackpoint>
            <Time>2021-04-02T13:20:21.000Z</Time>
            <Position>
              <LatitudeDegrees>42.31730625964701175689697265625</LatitudeDegrees>
              <LongitudeDegrees>2.58795526809990406036376953125</LongitudeDegrees>
            </Position>
            <AltitudeMeters>461</AltitudeMeters>
            <DistanceMeters>NAN</DistanceMeters>
          </Trackpoint>
          <Trackpoint>
            <Time>2021-04-02T13:20:25.000Z</Time>
            <Position>
              <LatitudeDegrees>42.31728346087038516998291015625</LatitudeDegrees>
              <LongitudeDegrees>2.58797136135399341583251953125</LongitudeDegrees>
            </Position>
            <AltitudeMeters>460.20001220703125</AltitudeMeters>
            <DistanceMeters>NAN</DistanceMeters>
          </Trackpoint>
          <Trackpoint>
            <Time>2021-04-02T13:20:28.000Z</Time>
            <Position>
              <LatitudeDegrees>42.31726284138858318328857421875</LatitudeDegrees>
              <LongitudeDegrees>2.5879897177219390869140625</LongitudeDegrees>
            </Position>
            <AltitudeMeters>459.79998779296875</AltitudeMeters>
            <DistanceMeters>NAN</DistanceMeters>
          </Trackpoint>
          <Trackpoint>
            <Time>2021-04-02T13:20:31.000Z</Time>
            <Position>
              <LatitudeDegrees>42.317246161401271820068359375</LatitudeDegrees>
              <LongitudeDegrees>2.58801377378404140472412109375</LongitudeDegrees>
            </Position>
            <AltitudeMeters>459</AltitudeMeters>
            <DistanceMeters>NAN</DistanceMeters>
          </Trackpoint>
          <Trackpoint>
            <Time>2021-04-02T13:20:34.000Z</Time>
            <Position>
              <LatitudeDegrees>42.3172356002032756805419921875</LatitudeDegrees>
              <LongitudeDegrees>2.58805417455732822418212890625</LongitudeDegrees>
            </Position>
            <AltitudeMeters>458.399993896484375</AltitudeMeters>
            <DistanceMeters>NAN</DistanceMeters>
          </Trackpoint>
          <Trackpoint>
            <Time>2021-04-02T13:20:41.000Z</Time>
            <Position>
              <LatitudeDegrees>42.31719712726771831512451171875</LatitudeDegrees>
              <LongitudeDegrees>2.58805769495666027069091796875</LongitudeDegrees>
            </Position>
            <AltitudeMeters>458.20001220703125</AltitudeMeters>
            <DistanceMeters>NAN</DistanceMeters>
          </Trackpoint>
          <Trackpoint>
            <Time>2021-04-02T13:20:44.000Z</Time>
            <Position>
              <LatitudeDegrees>42.3171906732022762298583984375</LatitudeDegrees>
              <LongitudeDegrees>2.588057108223438262939453125</LongitudeDegrees>
            </Position>
            <AltitudeMeters>458</AltitudeMeters>
            <DistanceMeters>NAN</DistanceMeters>
          </Trackpoint>
          <Trackpoint>
            <Time>2021-04-02T13:20:47.000Z</Time>
            <Position>
              <LatitudeDegrees>42.31716728769242763519287109375</LatitudeDegrees>
              <LongitudeDegrees>2.58804914541542530059814453125</LongitudeDegrees>
            </Position>
            <AltitudeMeters>457.399993896484375</AltitudeMeters>
            <DistanceMeters>NAN</DistanceMeters>
          </Trackpoint>
          <Trackpoint>
            <Time>2021-04-02T13:20:49.000Z</Time>
            <Position>
              <LatitudeDegrees>42.317157648503780364990234375</LatitudeDegrees>
              <LongitudeDegrees>2.58803456090390682220458984375</LongitudeDegrees>
            </Position>
            <AltitudeMeters>457</AltitudeMeters>
            <DistanceMeters>NAN</DistanceMeters>
          </Trackpoint>
          <Trackpoint>
            <Time>2021-04-02T13:20:54.000Z</Time>
            <Position>
              <LatitudeDegrees>42.3171313293278217315673828125</LatitudeDegrees>
              <LongitudeDegrees>2.5879942439496517181396484375</LongitudeDegrees>
            </Position>
            <AltitudeMeters>456.79998779296875</AltitudeMeters>
            <DistanceMeters>NAN</DistanceMeters>
          </Trackpoint>
          <Trackpoint>
            <Time>2021-04-02T13:21:00.000Z</Time>
            <Position>
              <LatitudeDegrees>42.3171393759548664093017578125</LatitudeDegrees>
              <LongitudeDegrees>2.58797974325716495513916015625</LongitudeDegrees>
            </Position>
            <AltitudeMeters>457.20001220703125</AltitudeMeters>
            <DistanceMeters>NAN</DistanceMeters>
          </Trackpoint>
          <Trackpoint>
            <Time>2021-04-02T13:21:08.000Z</Time>
            <Position>
              <LatitudeDegrees>42.31716804206371307373046875</LatitudeDegrees>
              <LongitudeDegrees>2.58799918927252292633056640625</LongitudeDegrees>
            </Position>
            <AltitudeMeters>457.20001220703125</AltitudeMeters>
            <DistanceMeters>NAN</DistanceMeters>
          </Trackpoint>
          <Trackpoint>
            <Time>2021-04-02T13:21:13.000Z</Time>
            <Position>
              <LatitudeDegrees>42.31716594658792018890380859375</LatitudeDegrees>
              <LongitudeDegrees>2.588005475699901580810546875</LongitudeDegrees>
            </Position>
            <AltitudeMeters>457.399993896484375</AltitudeMeters>
            <DistanceMeters>NAN</DistanceMeters>
          </Trackpoint>
          <Trackpoint>
            <Time>2021-04-02T13:21:19.000Z</Time>
            <Position>
              <LatitudeDegrees>42.3171598277986049652099609375</LatitudeDegrees>
              <LongitudeDegrees>2.58800103329122066497802734375</LongitudeDegrees>
            </Position>
            <AltitudeMeters>457.399993896484375</AltitudeMeters>
            <DistanceMeters>NAN</DistanceMeters>
          </Trackpoint>
          <Trackpoint>
            <Time>2021-04-02T13:21:31.000Z</Time>
            <Position>
              <LatitudeDegrees>42.31714189052581787109375</LatitudeDegrees>
              <LongitudeDegrees>2.58795409463346004486083984375</LongitudeDegrees>
            </Position>
            <AltitudeMeters>457.600006103515625</AltitudeMeters>
            <DistanceMeters>NAN</DistanceMeters>
          </Trackpoint>
          <Trackpoint>
            <Time>2021-04-02T13:21:38.000Z</Time>
            <Position>
              <LatitudeDegrees>42.3170874081552028656005859375</LatitudeDegrees>
              <LongitudeDegrees>2.5878846086561679840087890625</LongitudeDegrees>
            </Position>
            <AltitudeMeters>457.79998779296875</AltitudeMeters>
            <DistanceMeters>NAN</DistanceMeters>
          </Trackpoint>
          <Trackpoint>
            <Time>2021-04-02T13:21:43.000Z</Time>
            <Position>
              <LatitudeDegrees>42.31705446727573871612548828125</LatitudeDegrees>
              <LongitudeDegrees>2.587862648069858551025390625</LongitudeDegrees>
            </Position>
            <AltitudeMeters>458.20001220703125</AltitudeMeters>
            <DistanceMeters>NAN</DistanceMeters>
          </Trackpoint>
          <Trackpoint>
            <Time>2021-04-02T13:21:45.000Z</Time>
            <Position>
              <LatitudeDegrees>42.31703636236488819122314453125</LatitudeDegrees>
              <LongitudeDegrees>2.58786155842244625091552734375</LongitudeDegrees>
            </Position>
            <AltitudeMeters>458.20001220703125</AltitudeMeters>
            <DistanceMeters>NAN</DistanceMeters>
          </Trackpoint>
          <Trackpoint>
            <Time>2021-04-02T13:21:50.000Z</Time>
            <Position>
              <LatitudeDegrees>42.317031584680080413818359375</LatitudeDegrees>
              <LongitudeDegrees>2.5878768973052501678466796875</LongitudeDegrees>
            </Position>
            <AltitudeMeters>458.79998779296875</AltitudeMeters>
            <DistanceMeters>NAN</DistanceMeters>
          </Trackpoint>
          <Trackpoint>
            <Time>2021-04-02T13:21:51.000Z</Time>
            <Position>
              <LatitudeDegrees>42.317030914127826690673828125</LatitudeDegrees>
              <LongitudeDegrees>2.58788536302745342254638671875</LongitudeDegrees>
            </Position>
            <AltitudeMeters>459</AltitudeMeters>
            <DistanceMeters>NAN</DistanceMeters>
          </Trackpoint>
          <Trackpoint>
            <Time>2021-04-02T13:21:53.000Z</Time>
            <Position>
              <LatitudeDegrees>42.31703770346939563751220703125</LatitudeDegrees>
              <LongitudeDegrees>2.5879030488431453704833984375</LongitudeDegrees>
            </Position>
            <AltitudeMeters>459.20001220703125</AltitudeMeters>
            <DistanceMeters>NAN</DistanceMeters>
          </Trackpoint>
          <Trackpoint>
            <Time>2021-04-02T13:21:56.000Z</Time>
            <Position>
              <LatitudeDegrees>42.3170505277812480926513671875</LatitudeDegrees>
              <LongitudeDegrees>2.58789340965449810028076171875</LongitudeDegrees>
            </Position>
            <AltitudeMeters>459.600006103515625</AltitudeMeters>
            <DistanceMeters>NAN</DistanceMeters>
          </Trackpoint>
          <Trackpoint>
            <Time>2021-04-02T13:22:01.000Z</Time>
            <Position>
              <LatitudeDegrees>42.3170574009418487548828125</LatitudeDegrees>
              <LongitudeDegrees>2.5878862850368022918701171875</LongitudeDegrees>
            </Position>
            <AltitudeMeters>459.79998779296875</AltitudeMeters>
            <DistanceMeters>NAN</DistanceMeters>
          </Trackpoint>
          <Trackpoint>
            <Time>2021-04-02T13:22:03.000Z</Time>
            <Position>
              <LatitudeDegrees>42.31706452555954456329345703125</LatitudeDegrees>
              <LongitudeDegrees>2.58788712322711944580078125</LongitudeDegrees>
            </Position>
            <AltitudeMeters>459.79998779296875</AltitudeMeters>
            <DistanceMeters>NAN</DistanceMeters>
          </Trackpoint>
          <Trackpoint>
            <Time>2021-04-02T13:22:08.000Z</Time>
            <Position>
              <LatitudeDegrees>42.31708028353750705718994140625</LatitudeDegrees>
              <LongitudeDegrees>2.5878851115703582763671875</LongitudeDegrees>
            </Position>
            <AltitudeMeters>459.600006103515625</AltitudeMeters>
            <DistanceMeters>NAN</DistanceMeters>
          </Trackpoint>
          <Trackpoint>
            <Time>2021-04-03T06:52:04.000Z</Time>
            <Position>
              <LatitudeDegrees>42.31692555360496044158935546875</LatitudeDegrees>
              <LongitudeDegrees>2.58701481856405735015869140625</LongitudeDegrees>
            </Position>
            <AltitudeMeters>458.399993896484375</AltitudeMeters>
            <DistanceMeters>NAN</DistanceMeters>
          </Trackpoint>
          <Trackpoint>
            <Time>2021-04-03T06:52:16.000Z</Time>
            <Position>
              <LatitudeDegrees>42.316937707364559173583984375</LatitudeDegrees>
              <LongitudeDegrees>2.5869823805987834930419921875</LongitudeDegrees>
            </Position>
            <AltitudeMeters>458.79998779296875</AltitudeMeters>
            <DistanceMeters>NAN</DistanceMeters>
          </Trackpoint>
          <Trackpoint>
            <Time>2021-04-03T06:52:25.000Z</Time>
            <Position>
              <LatitudeDegrees>42.31693795882165431976318359375</LatitudeDegrees>
              <LongitudeDegrees>2.58692529983818531036376953125</LongitudeDegrees>
            </Position>
            <AltitudeMeters>459.399993896484375</AltitudeMeters>
            <DistanceMeters>NAN</DistanceMeters>
          </Trackpoint>
          <Trackpoint>
            <Time>2021-04-03T06:52:27.000Z</Time>
            <Position>
              <LatitudeDegrees>42.3169375397264957427978515625</LatitudeDegrees>
              <LongitudeDegrees>2.58691406808793544769287109375</LongitudeDegrees>
            </Position>
            <AltitudeMeters>459.399993896484375</AltitudeMeters>
            <DistanceMeters>NAN</DistanceMeters>
          </Trackpoint>
          <Trackpoint>
            <Time>2021-04-03T06:52:32.000Z</Time>
            <Position>
              <LatitudeDegrees>42.3169365338981151580810546875</LatitudeDegrees>
              <LongitudeDegrees>2.586902417242527008056640625</LongitudeDegrees>
            </Position>
            <AltitudeMeters>459.399993896484375</AltitudeMeters>
            <DistanceMeters>NAN</DistanceMeters>
          </Trackpoint>
          <Trackpoint>
            <Time>2021-04-03T06:52:37.000Z</Time>
            <Position>
              <LatitudeDegrees>42.31691465713083744049072265625</LatitudeDegrees>
              <LongitudeDegrees>2.58690199814736843109130859375</LongitudeDegrees>
            </Position>
            <AltitudeMeters>459.600006103515625</AltitudeMeters>
            <DistanceMeters>NAN</DistanceMeters>
          </Trackpoint>
          <Trackpoint>
            <Time>2021-04-03T06:52:51.000Z</Time>
            <Position>
              <LatitudeDegrees>42.31688238680362701416015625</LatitudeDegrees>
              <LongitudeDegrees>2.58690820075571537017822265625</LongitudeDegrees>
            </Position>
            <AltitudeMeters>459.20001220703125</AltitudeMeters>
            <DistanceMeters>NAN</DistanceMeters>
          </Trackpoint>
          <Trackpoint>
            <Time>2021-04-03T06:52:56.000Z</Time>
            <Position>
              <LatitudeDegrees>42.31686495244503021240234375</LatitudeDegrees>
              <LongitudeDegrees>2.5869139842689037322998046875</LongitudeDegrees>
            </Position>
            <AltitudeMeters>458</AltitudeMeters>
            <DistanceMeters>NAN</DistanceMeters>
          </Trackpoint>
          <Trackpoint>
            <Time>2021-04-03T06:52:59.000Z</Time>
            <Position>
              <LatitudeDegrees>42.316851876676082611083984375</LatitudeDegrees>
              <LongitudeDegrees>2.586916498839855194091796875</LongitudeDegrees>
            </Position>
            <AltitudeMeters>457</AltitudeMeters>
            <DistanceMeters>NAN</DistanceMeters>
          </Trackpoint>
          <Trackpoint>
            <Time>2021-04-03T06:53:04.000Z</Time>
            <Position>
              <LatitudeDegrees>42.31677711009979248046875</LatitudeDegrees>
              <LongitudeDegrees>2.58696653880178928375244140625</LongitudeDegrees>
            </Position>
            <AltitudeMeters>456.399993896484375</AltitudeMeters>
            <DistanceMeters>NAN</DistanceMeters>
          </Trackpoint>
          <Trackpoint>
            <Time>2021-04-03T06:53:07.000Z</Time>
            <Position>
              <LatitudeDegrees>42.31673679314553737640380859375</LatitudeDegrees>
              <LongitudeDegrees>2.5869944505393505096435546875</LongitudeDegrees>
            </Position>
            <AltitudeMeters>456.20001220703125</AltitudeMeters>
            <DistanceMeters>NAN</DistanceMeters>
          </Trackpoint>
          <Trackpoint>
            <Time>2021-04-03T06:53:09.000Z</Time>
            <Position>
              <LatitudeDegrees>42.31670225970447063446044921875</LatitudeDegrees>
              <LongitudeDegrees>2.58700308389961719512939453125</LongitudeDegrees>
            </Position>
            <AltitudeMeters>456</AltitudeMeters>
            <DistanceMeters>NAN</DistanceMeters>
          </Trackpoint>
          <Trackpoint>
            <Time>2021-04-03T06:53:10.000Z</Time>
            <Position>
              <LatitudeDegrees>42.3166864179074764251708984375</LatitudeDegrees>
              <LongitudeDegrees>2.58700668811798095703125</LongitudeDegrees>
            </Position>
            <AltitudeMeters>455.79998779296875</AltitudeMeters>
            <DistanceMeters>NAN</DistanceMeters>
          </Trackpoint>
          <Trackpoint>
            <Time>2021-04-03T06:53:11.000Z</Time>
            <Position>
              <LatitudeDegrees>42.31668164022266864776611328125</LatitudeDegrees>
              <LongitudeDegrees>2.586998306214809417724609375</LongitudeDegrees>
            </Position>
            <AltitudeMeters>455.79998779296875</AltitudeMeters>
            <DistanceMeters>NAN</DistanceMeters>
          </Trackpoint>
          <Trackpoint>
            <Time>2021-04-03T06:53:17.000Z</Time>
            <Position>
              <LatitudeDegrees>42.31666244566440582275390625</LatitudeDegrees>
              <LongitudeDegrees>2.58696285076439380645751953125</LongitudeDegrees>
            </Position>
            <AltitudeMeters>455.79998779296875</AltitudeMeters>
            <DistanceMeters>NAN</DistanceMeters>
          </Trackpoint>
          <Trackpoint>
            <Time>2021-04-03T06:53:25.000Z</Time>
            <Position>
              <LatitudeDegrees>42.31660217978060245513916015625</LatitudeDegrees>
              <LongitudeDegrees>2.58693519048392772674560546875</LongitudeDegrees>
            </Position>
            <AltitudeMeters>456.399993896484375</AltitudeMeters>
            <DistanceMeters>NAN</DistanceMeters>
          </Trackpoint>
          <Trackpoint>
            <Time>2021-04-03T06:53:31.000Z</Time>
            <Position>
              <LatitudeDegrees>42.31654233299195766448974609375</LatitudeDegrees>
              <LongitudeDegrees>2.58695614524185657501220703125</LongitudeDegrees>
            </Position>
            <AltitudeMeters>456.79998779296875</AltitudeMeters>
            <DistanceMeters>NAN</DistanceMeters>
          </Trackpoint>
          <Trackpoint>
            <Time>2021-04-03T06:53:38.000Z</Time>
            <Position>
              <LatitudeDegrees>42.3164916224777698516845703125</LatitudeDegrees>
              <LongitudeDegrees>2.586961425840854644775390625</LongitudeDegrees>
            </Position>
            <AltitudeMeters>456.399993896484375</AltitudeMeters>
            <DistanceMeters>NAN</DistanceMeters>
          </Trackpoint>
          <Trackpoint>
            <Time>2021-04-03T06:53:43.000Z</Time>
            <Position>
              <LatitudeDegrees>42.3165075480937957763671875</LatitudeDegrees>
              <LongitudeDegrees>2.5869314186275005340576171875</LongitudeDegrees>
            </Position>
            <AltitudeMeters>456.20001220703125</AltitudeMeters>
            <DistanceMeters>NAN</DistanceMeters>
          </Trackpoint>
          <Trackpoint>
            <Time>2021-04-03T06:53:48.000Z</Time>
            <Position>
              <LatitudeDegrees>42.31651098467409610748291015625</LatitudeDegrees>
              <LongitudeDegrees>2.58690753020346164703369140625</LongitudeDegrees>
            </Position>
            <AltitudeMeters>456.20001220703125</AltitudeMeters>
            <DistanceMeters>NAN</DistanceMeters>
          </Trackpoint>
          <Trackpoint>
            <Time>2021-04-03T06:53:53.000Z</Time>
            <Position>
              <LatitudeDegrees>42.31650461442768573760986328125</LatitudeDegrees>
              <LongitudeDegrees>2.58689680136740207672119140625</LongitudeDegrees>
            </Position>
            <AltitudeMeters>456.20001220703125</AltitudeMeters>
            <DistanceMeters>NAN</DistanceMeters>
          </Trackpoint>
          <Trackpoint>
            <Time>2021-04-03T06:54:00.000Z</Time>
            <Position>
              <LatitudeDegrees>42.31647200882434844970703125</LatitudeDegrees>
              <LongitudeDegrees>2.58687735535204410552978515625</LongitudeDegrees>
            </Position>
            <AltitudeMeters>456.600006103515625</AltitudeMeters>
            <DistanceMeters>NAN</DistanceMeters>
          </Trackpoint>
          <Trackpoint>
            <Time>2021-04-03T06:54:03.000Z</Time>
            <Position>
              <LatitudeDegrees>42.31647200882434844970703125</LatitudeDegrees>
              <LongitudeDegrees>2.58687735535204410552978515625</LongitudeDegrees>
            </Position>
            <AltitudeMeters>457</AltitudeMeters>
            <DistanceMeters>NAN</DistanceMeters>
          </Trackpoint>
          <Trackpoint>
            <Time>2021-04-03T06:54:09.000Z</Time>
            <Position>
              <LatitudeDegrees>42.31647200882434844970703125</LatitudeDegrees>
              <LongitudeDegrees>2.58687735535204410552978515625</LongitudeDegrees>
            </Position>
            <AltitudeMeters>457.79998779296875</AltitudeMeters>
            <DistanceMeters>NAN</DistanceMeters>
          </Trackpoint>
          <Trackpoint>
            <Time>2021-04-03T06:54:10.000Z</Time>
            <Position>
              <LatitudeDegrees>42.31647200882434844970703125</LatitudeDegrees>
              <LongitudeDegrees>2.58687735535204410552978515625</LongitudeDegrees>
            </Position>
            <AltitudeMeters>458</AltitudeMeters>
            <DistanceMeters>NAN</DistanceMeters>
          </Trackpoint>
          <Trackpoint>
            <Time>2021-04-03T06:54:12.000Z</Time>
            <Position>
              <LatitudeDegrees>42.31647200882434844970703125</LatitudeDegrees>
              <LongitudeDegrees>2.58687735535204410552978515625</LongitudeDegrees>
            </Position>
            <AltitudeMeters>458.20001220703125</AltitudeMeters>
            <DistanceMeters>NAN</DistanceMeters>
          </Trackpoint>
          <Trackpoint>
            <Time>2021-04-03T06:54:16.000Z</Time>
            <Position>
              <LatitudeDegrees>42.31647200882434844970703125</LatitudeDegrees>
              <LongitudeDegrees>2.586878947913646697998046875</LongitudeDegrees>
            </Position>
            <AltitudeMeters>458.20001220703125</AltitudeMeters>
            <DistanceMeters>NAN</DistanceMeters>
          </Trackpoint>
          <Trackpoint>
            <Time>2021-04-03T06:54:23.000Z</Time>
            <Position>
              <LatitudeDegrees>42.31647209264338016510009765625</LatitudeDegrees>
              <LongitudeDegrees>2.58688037283718585968017578125</LongitudeDegrees>
            </Position>
            <AltitudeMeters>458.20001220703125</AltitudeMeters>
            <DistanceMeters>NAN</DistanceMeters>
          </Trackpoint>
          <Trackpoint>
            <Time>2021-04-03T06:54:31.000Z</Time>
            <Position>
              <LatitudeDegrees>42.3164919577538967132568359375</LatitudeDegrees>
              <LongitudeDegrees>2.58692362345755100250244140625</LongitudeDegrees>
            </Position>
            <AltitudeMeters>458.399993896484375</AltitudeMeters>
            <DistanceMeters>NAN</DistanceMeters>
          </Trackpoint>
          <Trackpoint>
            <Time>2021-04-03T06:54:34.000Z</Time>
            <Position>
              <LatitudeDegrees>42.316482067108154296875</LatitudeDegrees>
              <LongitudeDegrees>2.586937956511974334716796875</LongitudeDegrees>
            </Position>
            <AltitudeMeters>458.600006103515625</AltitudeMeters>
            <DistanceMeters>NAN</DistanceMeters>
          </Trackpoint>
          <Trackpoint>
            <Time>2021-04-03T06:54:37.000Z</Time>
            <Position>
              <LatitudeDegrees>42.31647309847176074981689453125</LatitudeDegrees>
              <LongitudeDegrees>2.58696452714502811431884765625</LongitudeDegrees>
            </Position>
            <AltitudeMeters>458.79998779296875</AltitudeMeters>
            <DistanceMeters>NAN</DistanceMeters>
          </Trackpoint>
          <Trackpoint>
            <Time>2021-04-03T06:54:38.000Z</Time>
            <Position>
              <LatitudeDegrees>42.31647293083369731903076171875</LatitudeDegrees>
              <LongitudeDegrees>2.58697173558175563812255859375</LongitudeDegrees>
            </Position>
            <AltitudeMeters>458.79998779296875</AltitudeMeters>
            <DistanceMeters>NAN</DistanceMeters>
          </Trackpoint>
          <Trackpoint>
            <Time>2021-04-03T06:54:39.000Z</Time>
            <Position>
              <LatitudeDegrees>42.31646991334855556488037109375</LatitudeDegrees>
              <LongitudeDegrees>2.5869838893413543701171875</LongitudeDegrees>
            </Position>
            <AltitudeMeters>458.79998779296875</AltitudeMeters>
            <DistanceMeters>NAN</DistanceMeters>
          </Trackpoint>
          <Trackpoint>
            <Time>2021-04-03T06:54:40.000Z</Time>
            <Position>
              <LatitudeDegrees>42.316473685204982757568359375</LatitudeDegrees>
              <LongitudeDegrees>2.58699126541614532470703125</LongitudeDegrees>
            </Position>
            <AltitudeMeters>459</AltitudeMeters>
            <DistanceMeters>NAN</DistanceMeters>
          </Trackpoint>
          <Trackpoint>
            <Time>2021-04-03T06:54:45.000Z</Time>
            <Position>
              <LatitudeDegrees>42.31648952700197696685791015625</LatitudeDegrees>
              <LongitudeDegrees>2.58702018298208713531494140625</LongitudeDegrees>
            </Position>
            <AltitudeMeters>460</AltitudeMeters>
            <DistanceMeters>NAN</DistanceMeters>
          </Trackpoint>
          <Trackpoint>
            <Time>2021-04-03T06:54:46.000Z</Time>
            <Position>
              <LatitudeDegrees>42.31649606488645076751708984375</LatitudeDegrees>
              <LongitudeDegrees>2.5870273075997829437255859375</LongitudeDegrees>
            </Position>
            <AltitudeMeters>460.20001220703125</AltitudeMeters>
            <DistanceMeters>NAN</DistanceMeters>
          </Trackpoint>
          <Trackpoint>
            <Time>2021-04-03T06:54:52.000Z</Time>
            <Position>
              <LatitudeDegrees>42.31652028858661651611328125</LatitudeDegrees>
              <LongitudeDegrees>2.58707483299076557159423828125</LongitudeDegrees>
            </Position>
            <AltitudeMeters>460.79998779296875</AltitudeMeters>
            <DistanceMeters>NAN</DistanceMeters>
          </Trackpoint>
          <Trackpoint>
            <Time>2021-04-03T06:54:55.000Z</Time>
            <Position>
              <LatitudeDegrees>42.3165217973291873931884765625</LatitudeDegrees>
              <LongitudeDegrees>2.58709478192031383514404296875</LongitudeDegrees>
            </Position>
            <AltitudeMeters>461</AltitudeMeters>
            <DistanceMeters>NAN</DistanceMeters>
          </Trackpoint>
          <Trackpoint>
            <Time>2021-04-03T06:54:56.000Z</Time>
            <Position>
              <LatitudeDegrees>42.3165268264710903167724609375</LatitudeDegrees>
              <LongitudeDegrees>2.587099559605121612548828125</LongitudeDegrees>
            </Position>
            <AltitudeMeters>461</AltitudeMeters>
            <DistanceMeters>NAN</DistanceMeters>
          </Trackpoint>
          <Trackpoint>
            <Time>2021-04-03T06:55:01.000Z</Time>
            <Position>
              <LatitudeDegrees>42.3165352083742618560791015625</LatitudeDegrees>
              <LongitudeDegrees>2.58712805807590484619140625</LongitudeDegrees>
            </Position>
            <AltitudeMeters>462</AltitudeMeters>
            <DistanceMeters>NAN</DistanceMeters>
          </Trackpoint>
          <Trackpoint>
            <Time>2021-04-03T06:55:02.000Z</Time>
            <Position>
              <LatitudeDegrees>42.31653898023068904876708984375</LatitudeDegrees>
              <LongitudeDegrees>2.5871342606842517852783203125</LongitudeDegrees>
            </Position>
            <AltitudeMeters>462</AltitudeMeters>
            <DistanceMeters>NAN</DistanceMeters>
          </Trackpoint>
          <Trackpoint>
            <Time>2021-04-03T06:55:06.000Z</Time>
            <Position>
              <LatitudeDegrees>42.3165342025458812713623046875</LatitudeDegrees>
              <LongitudeDegrees>2.587157227098941802978515625</LongitudeDegrees>
            </Position>
            <AltitudeMeters>462.600006103515625</AltitudeMeters>
            <DistanceMeters>NAN</DistanceMeters>
          </Trackpoint>
          <Trackpoint>
            <Time>2021-04-03T06:55:10.000Z</Time>
            <Position>
              <LatitudeDegrees>42.3165077157318592071533203125</LatitudeDegrees>
              <LongitudeDegrees>2.58719100616872310638427734375</LongitudeDegrees>
            </Position>
            <AltitudeMeters>463</AltitudeMeters>
            <DistanceMeters>NAN</DistanceMeters>
          </Trackpoint>
          <Trackpoint>
            <Time>2021-04-03T06:55:14.000Z</Time>
            <Position>
              <LatitudeDegrees>42.31648810207843780517578125</LatitudeDegrees>
              <LongitudeDegrees>2.58721430785953998565673828125</LongitudeDegrees>
            </Position>
            <AltitudeMeters>463.399993896484375</AltitudeMeters>
            <DistanceMeters>NAN</DistanceMeters>
          </Trackpoint>
          <Trackpoint>
            <Time>2021-04-03T06:55:18.000Z</Time>
            <Position>
              <LatitudeDegrees>42.3164822347462177276611328125</LatitudeDegrees>
              <LongitudeDegrees>2.58722084574401378631591796875</LongitudeDegrees>
            </Position>
            <AltitudeMeters>464</AltitudeMeters>
            <DistanceMeters>NAN</DistanceMeters>
          </Trackpoint>
          <Trackpoint>
            <Time>2021-04-03T06:55:19.000Z</Time>
            <Position>
              <LatitudeDegrees>42.3164741881191730499267578125</LatitudeDegrees>
              <LongitudeDegrees>2.587227635085582733154296875</LongitudeDegrees>
            </Position>
            <AltitudeMeters>464.20001220703125</AltitudeMeters>
            <DistanceMeters>NAN</DistanceMeters>
          </Trackpoint>
          <Trackpoint>
            <Time>2021-04-03T06:55:22.000Z</Time>
            <Position>
              <LatitudeDegrees>42.3164728470146656036376953125</LatitudeDegrees>
              <LongitudeDegrees>2.58725772611796855926513671875</LongitudeDegrees>
            </Position>
            <AltitudeMeters>464.79998779296875</AltitudeMeters>
            <DistanceMeters>NAN</DistanceMeters>
          </Trackpoint>
          <Trackpoint>
            <Time>2021-04-03T06:55:23.000Z</Time>
            <Position>
              <LatitudeDegrees>42.31647728942334651947021484375</LatitudeDegrees>
              <LongitudeDegrees>2.5872708857059478759765625</LongitudeDegrees>
            </Position>
            <AltitudeMeters>465.20001220703125</AltitudeMeters>
            <DistanceMeters>NAN</DistanceMeters>
          </Trackpoint>
          <Trackpoint>
            <Time>2021-04-03T06:55:27.000Z</Time>
            <Position>
              <LatitudeDegrees>42.3164701648056507110595703125</LatitudeDegrees>
              <LongitudeDegrees>2.5872941873967647552490234375</LongitudeDegrees>
            </Position>
            <AltitudeMeters>465.600006103515625</AltitudeMeters>
            <DistanceMeters>NAN</DistanceMeters>
          </Trackpoint>
          <Trackpoint>
            <Time>2021-04-03T06:55:28.000Z</Time>
            <Position>
              <LatitudeDegrees>42.316464968025684356689453125</LatitudeDegrees>
              <LongitudeDegrees>2.587300725281238555908203125</LongitudeDegrees>
            </Position>
            <AltitudeMeters>465.600006103515625</AltitudeMeters>
            <DistanceMeters>NAN</DistanceMeters>
          </Trackpoint>
          <Trackpoint>
            <Time>2021-04-03T06:55:29.000Z</Time>
            <Position>
              <LatitudeDegrees>42.31645935215055942535400390625</LatitudeDegrees>
              <LongitudeDegrees>2.5873055867850780487060546875</LongitudeDegrees>
            </Position>
            <AltitudeMeters>465.79998779296875</AltitudeMeters>
            <DistanceMeters>NAN</DistanceMeters>
          </Trackpoint>
          <Trackpoint>
            <Time>2021-04-03T06:55:36.000Z</Time>
            <Position>
              <LatitudeDegrees>42.31642104685306549072265625</LatitudeDegrees>
              <LongitudeDegrees>2.587346322834491729736328125</LongitudeDegrees>
            </Position>
            <AltitudeMeters>466</AltitudeMeters>
            <DistanceMeters>NAN</DistanceMeters>
          </Trackpoint>
          <Trackpoint>
            <Time>2021-04-03T06:55:37.000Z</Time>
            <Position>
              <LatitudeDegrees>42.3164175264537334442138671875</LatitudeDegrees>
              <LongitudeDegrees>2.58735193870961666107177734375</LongitudeDegrees>
            </Position>
            <AltitudeMeters>466.20001220703125</AltitudeMeters>
            <DistanceMeters>NAN</DistanceMeters>
          </Trackpoint>
          <Trackpoint>
            <Time>2021-04-03T06:55:39.000Z</Time>
            <Position>
              <LatitudeDegrees>42.316404618322849273681640625</LatitudeDegrees>
              <LongitudeDegrees>2.58736752904951572418212890625</LongitudeDegrees>
            </Position>
            <AltitudeMeters>466.600006103515625</AltitudeMeters>
            <DistanceMeters>NAN</DistanceMeters>
          </Trackpoint>
          <Trackpoint>
            <Time>2021-04-03T06:55:42.000Z</Time>
            <Position>
              <LatitudeDegrees>42.31638877652585506439208984375</LatitudeDegrees>
              <LongitudeDegrees>2.587381862103939056396484375</LongitudeDegrees>
            </Position>
            <AltitudeMeters>466.79998779296875</AltitudeMeters>
            <DistanceMeters>NAN</DistanceMeters>
          </Trackpoint>
          <Trackpoint>
            <Time>2021-04-03T06:55:46.000Z</Time>
            <Position>
              <LatitudeDegrees>42.316361367702484130859375</LatitudeDegrees>
              <LongitudeDegrees>2.58742100559175014495849609375</LongitudeDegrees>
            </Position>
            <AltitudeMeters>467.20001220703125</AltitudeMeters>
            <DistanceMeters>NAN</DistanceMeters>
          </Trackpoint>
          <Trackpoint>
            <Time>2021-04-03T06:55:48.000Z</Time>
            <Position>
              <LatitudeDegrees>42.3163454420864582061767578125</LatitudeDegrees>
              <LongitudeDegrees>2.58742712438106536865234375</LongitudeDegrees>
            </Position>
            <AltitudeMeters>467.20001220703125</AltitudeMeters>
            <DistanceMeters>NAN</DistanceMeters>
          </Trackpoint>
          <Trackpoint>
            <Time>2021-04-03T06:55:50.000Z</Time>
            <Position>
              <LatitudeDegrees>42.31633379124104976654052734375</LatitudeDegrees>
              <LongitudeDegrees>2.5874326564371585845947265625</LongitudeDegrees>
            </Position>
            <AltitudeMeters>467.399993896484375</AltitudeMeters>
            <DistanceMeters>NAN</DistanceMeters>
          </Trackpoint>
          <Trackpoint>
            <Time>2021-04-03T06:55:58.000Z</Time>
            <Position>
              <LatitudeDegrees>42.31630998663604259490966796875</LatitudeDegrees>
              <LongitudeDegrees>2.58742251433432102203369140625</LongitudeDegrees>
            </Position>
            <AltitudeMeters>468.399993896484375</AltitudeMeters>
            <DistanceMeters>NAN</DistanceMeters>
          </Trackpoint>
          <Trackpoint>
            <Time>2021-04-03T06:56:04.000Z</Time>
            <Position>
              <LatitudeDegrees>42.3162782192230224609375</LatitudeDegrees>
              <LongitudeDegrees>2.5874212570488452911376953125</LongitudeDegrees>
            </Position>
            <AltitudeMeters>469.20001220703125</AltitudeMeters>
            <DistanceMeters>NAN</DistanceMeters>
          </Trackpoint>
          <Trackpoint>
            <Time>2021-04-03T06:56:05.000Z</Time>
            <Position>
              <LatitudeDegrees>42.31627352535724639892578125</LatitudeDegrees>
              <LongitudeDegrees>2.5874259509146213531494140625</LongitudeDegrees>
            </Position>
            <AltitudeMeters>469.399993896484375</AltitudeMeters>
            <DistanceMeters>NAN</DistanceMeters>
          </Trackpoint>
          <Trackpoint>
            <Time>2021-04-03T06:56:10.000Z</Time>
            <Position>
              <LatitudeDegrees>42.31625785119831562042236328125</LatitudeDegrees>
              <LongitudeDegrees>2.58746559731662273406982421875</LongitudeDegrees>
            </Position>
            <AltitudeMeters>470</AltitudeMeters>
            <DistanceMeters>NAN</DistanceMeters>
          </Trackpoint>
          <Trackpoint>
            <Time>2021-04-03T06:56:16.000Z</Time>
            <Position>
              <LatitudeDegrees>42.3162203840911388397216796875</LatitudeDegrees>
              <LongitudeDegrees>2.58744196034967899322509765625</LongitudeDegrees>
            </Position>
            <AltitudeMeters>470.20001220703125</AltitudeMeters>
            <DistanceMeters>NAN</DistanceMeters>
          </Trackpoint>
          <Trackpoint>
            <Time>2021-04-03T06:56:19.000Z</Time>
            <Position>
              <LatitudeDegrees>42.3161824978888034820556640625</LatitudeDegrees>
              <LongitudeDegrees>2.58744363673031330108642578125</LongitudeDegrees>
            </Position>
            <AltitudeMeters>470.399993896484375</AltitudeMeters>
            <DistanceMeters>NAN</DistanceMeters>
          </Trackpoint>
          <Trackpoint>
            <Time>2021-04-03T06:56:26.000Z</Time>
            <Position>
              <LatitudeDegrees>42.316136397421360015869140625</LatitudeDegrees>
              <LongitudeDegrees>2.58745126426219940185546875</LongitudeDegrees>
            </Position>
            <AltitudeMeters>469.79998779296875</AltitudeMeters>
            <DistanceMeters>NAN</DistanceMeters>
          </Trackpoint>
          <Trackpoint>
            <Time>2021-04-03T06:56:28.000Z</Time>
            <Position>
              <LatitudeDegrees>42.3161127604544162750244140625</LatitudeDegrees>
              <LongitudeDegrees>2.58744900114834308624267578125</LongitudeDegrees>
            </Position>
            <AltitudeMeters>469.79998779296875</AltitudeMeters>
            <DistanceMeters>NAN</DistanceMeters>
          </Trackpoint>
          <Trackpoint>
            <Time>2021-04-03T06:56:33.000Z</Time>
            <Position>
              <LatitudeDegrees>42.31609758920967578887939453125</LatitudeDegrees>
              <LongitudeDegrees>2.58743424899876117706298828125</LongitudeDegrees>
            </Position>
            <AltitudeMeters>469.79998779296875</AltitudeMeters>
            <DistanceMeters>NAN</DistanceMeters>
          </Trackpoint>
          <Trackpoint>
            <Time>2021-04-03T06:56:40.000Z</Time>
            <Position>
              <LatitudeDegrees>42.31606020592153072357177734375</LatitudeDegrees>
              <LongitudeDegrees>2.587412707507610321044921875</LongitudeDegrees>
            </Position>
            <AltitudeMeters>470.399993896484375</AltitudeMeters>
            <DistanceMeters>NAN</DistanceMeters>
          </Trackpoint>
          <Trackpoint>
            <Time>2021-04-03T06:56:41.000Z</Time>
            <Position>
              <LatitudeDegrees>42.3160530813038349151611328125</LatitudeDegrees>
              <LongitudeDegrees>2.58741103112697601318359375</LongitudeDegrees>
            </Position>
            <AltitudeMeters>470.399993896484375</AltitudeMeters>
            <DistanceMeters>NAN</DistanceMeters>
          </Trackpoint>
          <Trackpoint>
            <Time>2021-04-03T06:56:42.000Z</Time>
            <Position>
              <LatitudeDegrees>42.31604159809648990631103515625</LatitudeDegrees>
              <LongitudeDegrees>2.58740373887121677398681640625</LongitudeDegrees>
            </Position>
            <AltitudeMeters>470.399993896484375</AltitudeMeters>
            <DistanceMeters>NAN</DistanceMeters>
          </Trackpoint>
          <Trackpoint>
            <Time>2021-04-03T06:56:45.000Z</Time>
            <Position>
              <LatitudeDegrees>42.3160048015415668487548828125</LatitudeDegrees>
              <LongitudeDegrees>2.5874014757573604583740234375</LongitudeDegrees>
            </Position>
            <AltitudeMeters>470.399993896484375</AltitudeMeters>
            <DistanceMeters>NAN</DistanceMeters>
          </Trackpoint>
          <Trackpoint>
            <Time>2021-04-03T06:56:51.000Z</Time>
            <Position>
              <LatitudeDegrees>42.31597588397562503814697265625</LatitudeDegrees>
              <LongitudeDegrees>2.58737213909626007080078125</LongitudeDegrees>
            </Position>
            <AltitudeMeters>470.79998779296875</AltitudeMeters>
            <DistanceMeters>NAN</DistanceMeters>
          </Trackpoint>
          <Trackpoint>
            <Time>2021-04-03T06:56:55.000Z</Time>
            <Position>
              <LatitudeDegrees>42.3159545101225376129150390625</LatitudeDegrees>
              <LongitudeDegrees>2.5873320735991001129150390625</LongitudeDegrees>
            </Position>
            <AltitudeMeters>471.20001220703125</AltitudeMeters>
            <DistanceMeters>NAN</DistanceMeters>
          </Trackpoint>
          <Trackpoint>
            <Time>2021-04-03T06:56:56.000Z</Time>
            <Position>
              <LatitudeDegrees>42.3159551806747913360595703125</LatitudeDegrees>
              <LongitudeDegrees>2.58732344023883342742919921875</LongitudeDegrees>
            </Position>
            <AltitudeMeters>471.399993896484375</AltitudeMeters>
            <DistanceMeters>NAN</DistanceMeters>
          </Trackpoint>
          <Trackpoint>
            <Time>2021-04-03T06:56:58.000Z</Time>
            <Position>
              <LatitudeDegrees>42.3159498162567615509033203125</LatitudeDegrees>
              <LongitudeDegrees>2.587301731109619140625</LongitudeDegrees>
            </Position>
            <AltitudeMeters>471.399993896484375</AltitudeMeters>
            <DistanceMeters>NAN</DistanceMeters>
          </Trackpoint>
          <Trackpoint>
            <Time>2021-04-03T06:57:00.000Z</Time>
            <Position>
              <LatitudeDegrees>42.3159523308277130126953125</LatitudeDegrees>
              <LongitudeDegrees>2.58727616630494594573974609375</LongitudeDegrees>
            </Position>
            <AltitudeMeters>471.600006103515625</AltitudeMeters>
            <DistanceMeters>NAN</DistanceMeters>
          </Trackpoint>
          <Trackpoint>
            <Time>2021-04-03T06:57:01.000Z</Time>
            <Position>
              <LatitudeDegrees>42.31595425866544246673583984375</LatitudeDegrees>
              <LongitudeDegrees>2.58726828731596469879150390625</LongitudeDegrees>
            </Position>
            <AltitudeMeters>471.79998779296875</AltitudeMeters>
            <DistanceMeters>NAN</DistanceMeters>
          </Trackpoint>
          <Trackpoint>
            <Time>2021-04-03T06:57:02.000Z</Time>
            <Position>
              <LatitudeDegrees>42.315951324999332427978515625</LatitudeDegrees>
              <LongitudeDegrees>2.58726795203983783721923828125</LongitudeDegrees>
            </Position>
            <AltitudeMeters>472</AltitudeMeters>
            <DistanceMeters>NAN</DistanceMeters>
          </Trackpoint>
          <Trackpoint>
            <Time>2021-04-03T06:57:04.000Z</Time>
            <Position>
              <LatitudeDegrees>42.31594956479966640472412109375</LatitudeDegrees>
              <LongitudeDegrees>2.58725822903215885162353515625</LongitudeDegrees>
            </Position>
            <AltitudeMeters>472.20001220703125</AltitudeMeters>
            <DistanceMeters>NAN</DistanceMeters>
          </Trackpoint>
          <Trackpoint>
            <Time>2021-04-03T06:57:06.000Z</Time>
            <Position>
              <LatitudeDegrees>42.31594487093389034271240234375</LatitudeDegrees>
              <LongitudeDegrees>2.58724884130060672760009765625</LongitudeDegrees>
            </Position>
            <AltitudeMeters>472.600006103515625</AltitudeMeters>
            <DistanceMeters>NAN</DistanceMeters>
          </Trackpoint>
          <Trackpoint>
            <Time>2021-04-03T06:57:07.000Z</Time>
            <Position>
              <LatitudeDegrees>42.315937913954257965087890625</LatitudeDegrees>
              <LongitudeDegrees>2.58724196814000606536865234375</LongitudeDegrees>
            </Position>
            <AltitudeMeters>472.600006103515625</AltitudeMeters>
            <DistanceMeters>NAN</DistanceMeters>
          </Trackpoint>
          <Trackpoint>
            <Time>2021-04-03T06:57:08.000Z</Time>
            <Position>
              <LatitudeDegrees>42.3159333877265453338623046875</LatitudeDegrees>
              <LongitudeDegrees>2.587238363921642303466796875</LongitudeDegrees>
            </Position>
            <AltitudeMeters>472.600006103515625</AltitudeMeters>
            <DistanceMeters>NAN</DistanceMeters>
          </Trackpoint>
          <Trackpoint>
            <Time>2021-04-03T06:57:11.000Z</Time>
            <Position>
              <LatitudeDegrees>42.31592609547078609466552734375</LatitudeDegrees>
              <LongitudeDegrees>2.5872278027236461639404296875</LongitudeDegrees>
            </Position>
            <AltitudeMeters>472.79998779296875</AltitudeMeters>
            <DistanceMeters>NAN</DistanceMeters>
          </Trackpoint>
          <Trackpoint>
            <Time>2021-04-03T06:57:13.000Z</Time>
            <Position>
              <LatitudeDegrees>42.31592257507145404815673828125</LatitudeDegrees>
              <LongitudeDegrees>2.58721120655536651611328125</LongitudeDegrees>
            </Position>
            <AltitudeMeters>473</AltitudeMeters>
            <DistanceMeters>NAN</DistanceMeters>
          </Trackpoint>
          <Trackpoint>
            <Time>2021-04-03T06:57:20.000Z</Time>
            <Position>
              <LatitudeDegrees>42.31589927338063716888427734375</LatitudeDegrees>
              <LongitudeDegrees>2.58715814910829067230224609375</LongitudeDegrees>
            </Position>
            <AltitudeMeters>473.600006103515625</AltitudeMeters>
            <DistanceMeters>NAN</DistanceMeters>
          </Trackpoint>
          <Trackpoint>
            <Time>2021-04-03T06:57:21.000Z</Time>
            <Position>
              <LatitudeDegrees>42.31589801609516143798828125</LatitudeDegrees>
              <LongitudeDegrees>2.5871490128338336944580078125</LongitudeDegrees>
            </Position>
            <AltitudeMeters>473.600006103515625</AltitudeMeters>
            <DistanceMeters>NAN</DistanceMeters>
          </Trackpoint>
          <Trackpoint>
            <Time>2021-04-03T06:57:22.000Z</Time>
            <Position>
              <LatitudeDegrees>42.31589265167713165283203125</LatitudeDegrees>
              <LongitudeDegrees>2.5871466659009456634521484375</LongitudeDegrees>
            </Position>
            <AltitudeMeters>473.600006103515625</AltitudeMeters>
            <DistanceMeters>NAN</DistanceMeters>
          </Trackpoint>
          <Trackpoint>
            <Time>2021-04-03T06:57:23.000Z</Time>
            <Position>
              <LatitudeDegrees>42.31589273549616336822509765625</LatitudeDegrees>
              <LongitudeDegrees>2.58714322932064533233642578125</LongitudeDegrees>
            </Position>
            <AltitudeMeters>473.600006103515625</AltitudeMeters>
            <DistanceMeters>NAN</DistanceMeters>
          </Trackpoint>
          <Trackpoint>
            <Time>2021-04-03T06:57:26.000Z</Time>
            <Position>
              <LatitudeDegrees>42.31587630696594715118408203125</LatitudeDegrees>
              <LongitudeDegrees>2.58709109388291835784912109375</LongitudeDegrees>
            </Position>
            <AltitudeMeters>474</AltitudeMeters>
            <DistanceMeters>NAN</DistanceMeters>
          </Trackpoint>
          <Trackpoint>
            <Time>2021-04-03T06:57:28.000Z</Time>
            <Position>
              <LatitudeDegrees>42.315864153206348419189453125</LatitudeDegrees>
              <LongitudeDegrees>2.5870665349066257476806640625</LongitudeDegrees>
            </Position>
            <AltitudeMeters>474.20001220703125</AltitudeMeters>
            <DistanceMeters>NAN</DistanceMeters>
          </Trackpoint>
          <Trackpoint>
            <Time>2021-04-03T06:57:31.000Z</Time>
            <Position>
              <LatitudeDegrees>42.315868176519870758056640625</LatitudeDegrees>
              <LongitudeDegrees>2.58705555461347103118896484375</LongitudeDegrees>
            </Position>
            <AltitudeMeters>474.600006103515625</AltitudeMeters>
            <DistanceMeters>NAN</DistanceMeters>
          </Trackpoint>
          <Trackpoint>
            <Time>2021-04-03T06:57:36.000Z</Time>
            <Position>
              <LatitudeDegrees>42.315857447683811187744140625</LatitudeDegrees>
              <LongitudeDegrees>2.58704566396772861480712890625</LongitudeDegrees>
            </Position>
            <AltitudeMeters>475.399993896484375</AltitudeMeters>
            <DistanceMeters>NAN</DistanceMeters>
          </Trackpoint>
          <Trackpoint>
            <Time>2021-04-03T06:57:39.000Z</Time>
            <Position>
              <LatitudeDegrees>42.31586272828280925750732421875</LatitudeDegrees>
              <LongitudeDegrees>2.58702336810529232025146484375</LongitudeDegrees>
            </Position>
            <AltitudeMeters>475.79998779296875</AltitudeMeters>
            <DistanceMeters>NAN</DistanceMeters>
          </Trackpoint>
          <Trackpoint>
            <Time>2021-04-03T06:57:46.000Z</Time>
            <Position>
              <LatitudeDegrees>42.3158341459929943084716796875</LatitudeDegrees>
              <LongitudeDegrees>2.58698933757841587066650390625</LongitudeDegrees>
            </Position>
            <AltitudeMeters>476.79998779296875</AltitudeMeters>
            <DistanceMeters>NAN</DistanceMeters>
          </Trackpoint>
          <Trackpoint>
            <Time>2021-04-03T06:57:48.000Z</Time>
            <Position>
              <LatitudeDegrees>42.31582936830818653106689453125</LatitudeDegrees>
              <LongitudeDegrees>2.58697944693267345428466796875</LongitudeDegrees>
            </Position>
            <AltitudeMeters>477</AltitudeMeters>
            <DistanceMeters>NAN</DistanceMeters>
          </Trackpoint>
          <Trackpoint>
            <Time>2021-04-03T06:57:53.000Z</Time>
            <Position>
              <LatitudeDegrees>42.3158183880150318145751953125</LatitudeDegrees>
              <LongitudeDegrees>2.5869374535977840423583984375</LongitudeDegrees>
            </Position>
            <AltitudeMeters>477.399993896484375</AltitudeMeters>
            <DistanceMeters>NAN</DistanceMeters>
          </Trackpoint>
          <Trackpoint>
            <Time>2021-04-03T06:57:56.000Z</Time>
            <Position>
              <LatitudeDegrees>42.31581746600568294525146484375</LatitudeDegrees>
              <LongitudeDegrees>2.58692421019077301025390625</LongitudeDegrees>
            </Position>
            <AltitudeMeters>477.600006103515625</AltitudeMeters>
            <DistanceMeters>NAN</DistanceMeters>
          </Trackpoint>
          <Trackpoint>
            <Time>2021-04-03T06:57:58.000Z</Time>
            <Position>
              <LatitudeDegrees>42.3158163763582706451416015625</LatitudeDegrees>
              <LongitudeDegrees>2.58691993542015552520751953125</LongitudeDegrees>
            </Position>
            <AltitudeMeters>477.79998779296875</AltitudeMeters>
            <DistanceMeters>NAN</DistanceMeters>
          </Trackpoint>
          <Trackpoint>
            <Time>2021-04-03T06:58:00.000Z</Time>
            <Position>
              <LatitudeDegrees>42.3158133588731288909912109375</LatitudeDegrees>
              <LongitudeDegrees>2.58690551854670047760009765625</LongitudeDegrees>
            </Position>
            <AltitudeMeters>478.20001220703125</AltitudeMeters>
            <DistanceMeters>NAN</DistanceMeters>
          </Trackpoint>
          <Trackpoint>
            <Time>2021-04-03T06:58:06.000Z</Time>
            <Position>
              <LatitudeDegrees>42.3158187232911586761474609375</LatitudeDegrees>
              <LongitudeDegrees>2.58684533648192882537841796875</LongitudeDegrees>
            </Position>
            <AltitudeMeters>478.79998779296875</AltitudeMeters>
            <DistanceMeters>NAN</DistanceMeters>
          </Trackpoint>
          <Trackpoint>
            <Time>2021-04-03T06:58:10.000Z</Time>
            <Position>
              <LatitudeDegrees>42.3158168792724609375</LatitudeDegrees>
              <LongitudeDegrees>2.58678649552166461944580078125</LongitudeDegrees>
            </Position>
            <AltitudeMeters>479</AltitudeMeters>
            <DistanceMeters>NAN</DistanceMeters>
          </Trackpoint>
          <Trackpoint>
            <Time>2021-04-03T06:58:13.000Z</Time>
            <Position>
              <LatitudeDegrees>42.31581444852054119110107421875</LatitudeDegrees>
              <LongitudeDegrees>2.58676554076373577117919921875</LongitudeDegrees>
            </Position>
            <AltitudeMeters>479.399993896484375</AltitudeMeters>
            <DistanceMeters>NAN</DistanceMeters>
          </Trackpoint>
          <Trackpoint>
            <Time>2021-04-03T06:58:15.000Z</Time>
            <Position>
              <LatitudeDegrees>42.31580791063606739044189453125</LatitudeDegrees>
              <LongitudeDegrees>2.58675648830831050872802734375</LongitudeDegrees>
            </Position>
            <AltitudeMeters>479.399993896484375</AltitudeMeters>
            <DistanceMeters>NAN</DistanceMeters>
          </Trackpoint>
          <Trackpoint>
            <Time>2021-04-03T06:58:16.000Z</Time>
            <Position>
              <LatitudeDegrees>42.31580355204641819000244140625</LatitudeDegrees>
              <LongitudeDegrees>2.58675078861415386199951171875</LongitudeDegrees>
            </Position>
            <AltitudeMeters>479.600006103515625</AltitudeMeters>
            <DistanceMeters>NAN</DistanceMeters>
          </Trackpoint>
          <Trackpoint>
            <Time>2021-04-03T06:58:20.000Z</Time>
            <Position>
              <LatitudeDegrees>42.31580506078898906707763671875</LatitudeDegrees>
              <LongitudeDegrees>2.58671759627759456634521484375</LongitudeDegrees>
            </Position>
            <AltitudeMeters>480</AltitudeMeters>
            <DistanceMeters>NAN</DistanceMeters>
          </Trackpoint>
          <Trackpoint>
            <Time>2021-04-03T06:58:21.000Z</Time>
            <Position>
              <LatitudeDegrees>42.31580321677029132843017578125</LatitudeDegrees>
              <LongitudeDegrees>2.58671340532600879669189453125</LongitudeDegrees>
            </Position>
            <AltitudeMeters>480.20001220703125</AltitudeMeters>
            <DistanceMeters>NAN</DistanceMeters>
          </Trackpoint>
          <Trackpoint>
            <Time>2021-04-03T06:58:22.000Z</Time>
            <Position>
              <LatitudeDegrees>42.31580288149416446685791015625</LatitudeDegrees>
              <LongitudeDegrees>2.58670820854604244232177734375</LongitudeDegrees>
            </Position>
            <AltitudeMeters>480.20001220703125</AltitudeMeters>
            <DistanceMeters>NAN</DistanceMeters>
          </Trackpoint>
          <Trackpoint>
            <Time>2021-04-03T06:58:23.000Z</Time>
            <Position>
              <LatitudeDegrees>42.31580187566578388214111328125</LatitudeDegrees>
              <LongitudeDegrees>2.58670452050864696502685546875</LongitudeDegrees>
            </Position>
            <AltitudeMeters>480.20001220703125</AltitudeMeters>
            <DistanceMeters>NAN</DistanceMeters>
          </Trackpoint>
          <Trackpoint>
            <Time>2021-04-03T06:58:24.000Z</Time>
            <Position>
              <LatitudeDegrees>42.315803803503513336181640625</LatitudeDegrees>
              <LongitudeDegrees>2.58670032955706119537353515625</LongitudeDegrees>
            </Position>
            <AltitudeMeters>480.399993896484375</AltitudeMeters>
            <DistanceMeters>NAN</DistanceMeters>
          </Trackpoint>
          <Trackpoint>
            <Time>2021-04-03T06:58:26.000Z</Time>
            <Position>
              <LatitudeDegrees>42.3158036358654499053955078125</LatitudeDegrees>
              <LongitudeDegrees>2.58668993599712848663330078125</LongitudeDegrees>
            </Position>
            <AltitudeMeters>480.600006103515625</AltitudeMeters>
            <DistanceMeters>NAN</DistanceMeters>
          </Trackpoint>
          <Trackpoint>
            <Time>2021-04-03T06:58:32.000Z</Time>
            <Position>
              <LatitudeDegrees>42.31578662060201168060302734375</LatitudeDegrees>
              <LongitudeDegrees>2.586656324565410614013671875</LongitudeDegrees>
            </Position>
            <AltitudeMeters>481.399993896484375</AltitudeMeters>
            <DistanceMeters>NAN</DistanceMeters>
          </Trackpoint>
          <Trackpoint>
            <Time>2021-04-03T06:58:33.000Z</Time>
            <Position>
              <LatitudeDegrees>42.31578745879232883453369140625</LatitudeDegrees>
              <LongitudeDegrees>2.58664802648127079010009765625</LongitudeDegrees>
            </Position>
            <AltitudeMeters>481.600006103515625</AltitudeMeters>
            <DistanceMeters>NAN</DistanceMeters>
          </Trackpoint>
          <Trackpoint>
            <Time>2021-04-03T06:58:38.000Z</Time>
            <Position>
              <LatitudeDegrees>42.31577756814658641815185546875</LatitudeDegrees>
              <LongitudeDegrees>2.58659924380481243133544921875</LongitudeDegrees>
            </Position>
            <AltitudeMeters>482.20001220703125</AltitudeMeters>
            <DistanceMeters>NAN</DistanceMeters>
          </Trackpoint>
          <Trackpoint>
            <Time>2021-04-03T06:58:39.000Z</Time>
            <Position>
              <LatitudeDegrees>42.31577421538531780242919921875</LatitudeDegrees>
              <LongitudeDegrees>2.58657979778945446014404296875</LongitudeDegrees>
            </Position>
            <AltitudeMeters>482.399993896484375</AltitudeMeters>
            <DistanceMeters>NAN</DistanceMeters>
          </Trackpoint>
          <Trackpoint>
            <Time>2021-04-03T06:58:41.000Z</Time>
            <Position>
              <LatitudeDegrees>42.31578645296394824981689453125</LatitudeDegrees>
              <LongitudeDegrees>2.586550377309322357177734375</LongitudeDegrees>
            </Position>
            <AltitudeMeters>482.79998779296875</AltitudeMeters>
            <DistanceMeters>NAN</DistanceMeters>
          </Trackpoint>
          <Trackpoint>
            <Time>2021-04-03T06:58:45.000Z</Time>
            <Position>
              <LatitudeDegrees>42.31577396392822265625</LatitudeDegrees>
              <LongitudeDegrees>2.58651911281049251556396484375</LongitudeDegrees>
            </Position>
            <AltitudeMeters>483.20001220703125</AltitudeMeters>
            <DistanceMeters>NAN</DistanceMeters>
          </Trackpoint>
          <Trackpoint>
            <Time>2021-04-03T06:58:49.000Z</Time>
            <Position>
              <LatitudeDegrees>42.3157452978193759918212890625</LatitudeDegrees>
              <LongitudeDegrees>2.586510479450225830078125</LongitudeDegrees>
            </Position>
            <AltitudeMeters>483.600006103515625</AltitudeMeters>
            <DistanceMeters>NAN</DistanceMeters>
          </Trackpoint>
          <Trackpoint>
            <Time>2021-04-03T06:58:50.000Z</Time>
            <Position>
              <LatitudeDegrees>42.315735407173633575439453125</LatitudeDegrees>
              <LongitudeDegrees>2.5865072943270206451416015625</LongitudeDegrees>
            </Position>
            <AltitudeMeters>483.600006103515625</AltitudeMeters>
            <DistanceMeters>NAN</DistanceMeters>
          </Trackpoint>
          <Trackpoint>
            <Time>2021-04-03T06:58:52.000Z</Time>
            <Position>
              <LatitudeDegrees>42.31572207994759082794189453125</LatitudeDegrees>
              <LongitudeDegrees>2.5865126587450504302978515625</LongitudeDegrees>
            </Position>
            <AltitudeMeters>483.79998779296875</AltitudeMeters>
            <DistanceMeters>NAN</DistanceMeters>
          </Trackpoint>
          <Trackpoint>
            <Time>2021-04-03T06:58:53.000Z</Time>
            <Position>
              <LatitudeDegrees>42.31571830809116363525390625</LatitudeDegrees>
              <LongitudeDegrees>2.5865156762301921844482421875</LongitudeDegrees>
            </Position>
            <AltitudeMeters>484</AltitudeMeters>
            <DistanceMeters>NAN</DistanceMeters>
          </Trackpoint>
          <Trackpoint>
            <Time>2021-04-03T06:58:59.000Z</Time>
            <Position>
              <LatitudeDegrees>42.31567061506211757659912109375</LatitudeDegrees>
              <LongitudeDegrees>2.58650871925055980682373046875</LongitudeDegrees>
            </Position>
            <AltitudeMeters>484</AltitudeMeters>
            <DistanceMeters>NAN</DistanceMeters>
          </Trackpoint>
          <Trackpoint>
            <Time>2021-04-03T06:59:01.000Z</Time>
            <Position>
              <LatitudeDegrees>42.31566064059734344482421875</LatitudeDegrees>
              <LongitudeDegrees>2.58649882860481739044189453125</LongitudeDegrees>
            </Position>
            <AltitudeMeters>484</AltitudeMeters>
            <DistanceMeters>NAN</DistanceMeters>
          </Trackpoint>
          <Trackpoint>
            <Time>2021-04-03T06:59:03.000Z</Time>
            <Position>
              <LatitudeDegrees>42.315651588141918182373046875</LatitudeDegrees>
              <LongitudeDegrees>2.58648742921650409698486328125</LongitudeDegrees>
            </Position>
            <AltitudeMeters>484.20001220703125</AltitudeMeters>
            <DistanceMeters>NAN</DistanceMeters>
          </Trackpoint>
          <Trackpoint>
            <Time>2021-04-03T06:59:06.000Z</Time>
            <Position>
              <LatitudeDegrees>42.31563725508749485015869140625</LatitudeDegrees>
              <LongitudeDegrees>2.58646823465824127197265625</LongitudeDegrees>
            </Position>
            <AltitudeMeters>483</AltitudeMeters>
            <DistanceMeters>NAN</DistanceMeters>
          </Trackpoint>
          <Trackpoint>
            <Time>2021-04-03T06:59:12.000Z</Time>
            <Position>
              <LatitudeDegrees>42.3156007938086986541748046875</LatitudeDegrees>
              <LongitudeDegrees>2.58643412031233310699462890625</LongitudeDegrees>
            </Position>
            <AltitudeMeters>483.399993896484375</AltitudeMeters>
            <DistanceMeters>NAN</DistanceMeters>
          </Trackpoint>
          <Trackpoint>
            <Time>2021-04-03T06:59:18.000Z</Time>
            <Position>
              <LatitudeDegrees>42.3155541904270648956298828125</LatitudeDegrees>
              <LongitudeDegrees>2.58639891631901264190673828125</LongitudeDegrees>
            </Position>
            <AltitudeMeters>483.79998779296875</AltitudeMeters>
            <DistanceMeters>NAN</DistanceMeters>
          </Trackpoint>
          <Trackpoint>
            <Time>2021-04-03T06:59:23.000Z</Time>
            <Position>
              <LatitudeDegrees>42.31552326120436191558837890625</LatitudeDegrees>
              <LongitudeDegrees>2.5863718427717685699462890625</LongitudeDegrees>
            </Position>
            <AltitudeMeters>484.399993896484375</AltitudeMeters>
            <DistanceMeters>NAN</DistanceMeters>
          </Trackpoint>
          <Trackpoint>
            <Time>2021-04-03T06:59:24.000Z</Time>
            <Position>
              <LatitudeDegrees>42.315516807138919830322265625</LatitudeDegrees>
              <LongitudeDegrees>2.58636857382953166961669921875</LongitudeDegrees>
            </Position>
            <AltitudeMeters>484.600006103515625</AltitudeMeters>
            <DistanceMeters>NAN</DistanceMeters>
          </Trackpoint>
          <Trackpoint>
            <Time>2021-04-03T06:59:30.000Z</Time>
            <Position>
              <LatitudeDegrees>42.31548856012523174285888671875</LatitudeDegrees>
              <LongitudeDegrees>2.5863306038081645965576171875</LongitudeDegrees>
            </Position>
            <AltitudeMeters>485.20001220703125</AltitudeMeters>
            <DistanceMeters>NAN</DistanceMeters>
          </Trackpoint>
          <Trackpoint>
            <Time>2021-04-03T06:59:32.000Z</Time>
            <Position>
              <LatitudeDegrees>42.3154733888804912567138671875</LatitudeDegrees>
              <LongitudeDegrees>2.58632884360849857330322265625</LongitudeDegrees>
            </Position>
            <AltitudeMeters>485.600006103515625</AltitudeMeters>
            <DistanceMeters>NAN</DistanceMeters>
          </Trackpoint>
          <Trackpoint>
            <Time>2021-04-03T06:59:37.000Z</Time>
            <Position>
              <LatitudeDegrees>42.31544698588550090789794921875</LatitudeDegrees>
              <LongitudeDegrees>2.58629313670098781585693359375</LongitudeDegrees>
            </Position>
            <AltitudeMeters>486</AltitudeMeters>
            <DistanceMeters>NAN</DistanceMeters>
          </Trackpoint>
          <Trackpoint>
            <Time>2021-04-03T06:59:45.000Z</Time>
            <Position>
              <LatitudeDegrees>42.315389402210712432861328125</LatitudeDegrees>
              <LongitudeDegrees>2.58625726215541362762451171875</LongitudeDegrees>
            </Position>
            <AltitudeMeters>486.399993896484375</AltitudeMeters>
            <DistanceMeters>NAN</DistanceMeters>
          </Trackpoint>
          <Trackpoint>
            <Time>2021-04-03T06:59:48.000Z</Time>
            <Position>
              <LatitudeDegrees>42.315380685031414031982421875</LatitudeDegrees>
              <LongitudeDegrees>2.586228512227535247802734375</LongitudeDegrees>
            </Position>
            <AltitudeMeters>486.600006103515625</AltitudeMeters>
            <DistanceMeters>NAN</DistanceMeters>
          </Trackpoint>
          <Trackpoint>
            <Time>2021-04-03T06:59:51.000Z</Time>
            <Position>
              <LatitudeDegrees>42.31537641026079654693603515625</LatitudeDegrees>
              <LongitudeDegrees>2.58620931766927242279052734375</LongitudeDegrees>
            </Position>
            <AltitudeMeters>486.79998779296875</AltitudeMeters>
            <DistanceMeters>NAN</DistanceMeters>
          </Trackpoint>
          <Trackpoint>
            <Time>2021-04-03T06:59:57.000Z</Time>
            <Position>
              <LatitudeDegrees>42.31534271501004695892333984375</LatitudeDegrees>
              <LongitudeDegrees>2.58618735708296298980712890625</LongitudeDegrees>
            </Position>
            <AltitudeMeters>487.399993896484375</AltitudeMeters>
            <DistanceMeters>NAN</DistanceMeters>
          </Trackpoint>
          <Trackpoint>
            <Time>2021-04-03T06:59:58.000Z</Time>
            <Position>
              <LatitudeDegrees>42.3153381049633026123046875</LatitudeDegrees>
              <LongitudeDegrees>2.58618635125458240509033203125</LongitudeDegrees>
            </Position>
            <AltitudeMeters>487.600006103515625</AltitudeMeters>
            <DistanceMeters>NAN</DistanceMeters>
          </Trackpoint>
          <Trackpoint>
            <Time>2021-04-03T07:00:02.000Z</Time>
            <Position>
              <LatitudeDegrees>42.31533383019268512725830078125</LatitudeDegrees>
              <LongitudeDegrees>2.58614896796643733978271484375</LongitudeDegrees>
            </Position>
            <AltitudeMeters>488.20001220703125</AltitudeMeters>
            <DistanceMeters>NAN</DistanceMeters>
          </Trackpoint>
          <Trackpoint>
            <Time>2021-04-03T07:00:05.000Z</Time>
            <Position>
              <LatitudeDegrees>42.31532511301338672637939453125</LatitudeDegrees>
              <LongitudeDegrees>2.58612281642854213714599609375</LongitudeDegrees>
            </Position>
            <AltitudeMeters>488.79998779296875</AltitudeMeters>
            <DistanceMeters>NAN</DistanceMeters>
          </Trackpoint>
          <Trackpoint>
            <Time>2021-04-03T07:00:10.000Z</Time>
            <Position>
              <LatitudeDegrees>42.3152978718280792236328125</LatitudeDegrees>
              <LongitudeDegrees>2.5861109979450702667236328125</LongitudeDegrees>
            </Position>
            <AltitudeMeters>489.399993896484375</AltitudeMeters>
            <DistanceMeters>NAN</DistanceMeters>
          </Trackpoint>
          <Trackpoint>
            <Time>2021-04-03T07:00:14.000Z</Time>
            <Position>
              <LatitudeDegrees>42.31527985073626041412353515625</LatitudeDegrees>
              <LongitudeDegrees>2.5860938988626003265380859375</LongitudeDegrees>
            </Position>
            <AltitudeMeters>489.600006103515625</AltitudeMeters>
            <DistanceMeters>NAN</DistanceMeters>
          </Trackpoint>
          <Trackpoint>
            <Time>2021-04-03T07:00:15.000Z</Time>
            <Position>
              <LatitudeDegrees>42.31527985073626041412353515625</LatitudeDegrees>
              <LongitudeDegrees>2.5860938988626003265380859375</LongitudeDegrees>
            </Position>
            <AltitudeMeters>489.79998779296875</AltitudeMeters>
            <DistanceMeters>NAN</DistanceMeters>
          </Trackpoint>
          <Trackpoint>
            <Time>2021-04-03T07:00:17.000Z</Time>
            <Position>
              <LatitudeDegrees>42.31528370641171932220458984375</LatitudeDegrees>
              <LongitudeDegrees>2.5860630534589290618896484375</LongitudeDegrees>
            </Position>
            <AltitudeMeters>490</AltitudeMeters>
            <DistanceMeters>NAN</DistanceMeters>
          </Trackpoint>
          <Trackpoint>
            <Time>2021-04-03T07:00:24.000Z</Time>
            <Position>
              <LatitudeDegrees>42.31525587849318981170654296875</LatitudeDegrees>
              <LongitudeDegrees>2.5860228203237056732177734375</LongitudeDegrees>
            </Position>
            <AltitudeMeters>490.600006103515625</AltitudeMeters>
            <DistanceMeters>NAN</DistanceMeters>
          </Trackpoint>
          <Trackpoint>
            <Time>2021-04-03T07:00:25.000Z</Time>
            <Position>
              <LatitudeDegrees>42.31525160372257232666015625</LatitudeDegrees>
              <LongitudeDegrees>2.5860129296779632568359375</LongitudeDegrees>
            </Position>
            <AltitudeMeters>490.79998779296875</AltitudeMeters>
            <DistanceMeters>NAN</DistanceMeters>
          </Trackpoint>
          <Trackpoint>
            <Time>2021-04-03T07:00:27.000Z</Time>
            <Position>
              <LatitudeDegrees>42.31523944996297359466552734375</LatitudeDegrees>
              <LongitudeDegrees>2.58599507622420787811279296875</LongitudeDegrees>
            </Position>
            <AltitudeMeters>491</AltitudeMeters>
            <DistanceMeters>NAN</DistanceMeters>
          </Trackpoint>
          <Trackpoint>
            <Time>2021-04-03T07:00:30.000Z</Time>
            <Position>
              <LatitudeDegrees>42.315220423042774200439453125</LatitudeDegrees>
              <LongitudeDegrees>2.58597445674240589141845703125</LongitudeDegrees>
            </Position>
            <AltitudeMeters>491.399993896484375</AltitudeMeters>
            <DistanceMeters>NAN</DistanceMeters>
          </Trackpoint>
          <Trackpoint>
            <Time>2021-04-03T07:00:32.000Z</Time>
            <Position>
              <LatitudeDegrees>42.3152135498821735382080078125</LatitudeDegrees>
              <LongitudeDegrees>2.58596993051469326019287109375</LongitudeDegrees>
            </Position>
            <AltitudeMeters>491.79998779296875</AltitudeMeters>
            <DistanceMeters>NAN</DistanceMeters>
          </Trackpoint>
          <Trackpoint>
            <Time>2021-04-03T07:00:35.000Z</Time>
            <Position>
              <LatitudeDegrees>42.315205670893192291259765625</LatitudeDegrees>
              <LongitudeDegrees>2.585969008505344390869140625</LongitudeDegrees>
            </Position>
            <AltitudeMeters>492</AltitudeMeters>
            <DistanceMeters>NAN</DistanceMeters>
          </Trackpoint>
          <Trackpoint>
            <Time>2021-04-03T07:00:37.000Z</Time>
            <Position>
              <LatitudeDegrees>42.31519284658133983612060546875</LatitudeDegrees>
              <LongitudeDegrees>2.58596238680183887481689453125</LongitudeDegrees>
            </Position>
            <AltitudeMeters>492.20001220703125</AltitudeMeters>
            <DistanceMeters>NAN</DistanceMeters>
          </Trackpoint>
          <Trackpoint>
            <Time>2021-04-03T07:00:42.000Z</Time>
            <Position>
              <LatitudeDegrees>42.31516635976731777191162109375</LatitudeDegrees>
              <LongitudeDegrees>2.58595601655542850494384765625</LongitudeDegrees>
            </Position>
            <AltitudeMeters>492.600006103515625</AltitudeMeters>
            <DistanceMeters>NAN</DistanceMeters>
          </Trackpoint>
          <Trackpoint>
            <Time>2021-04-03T07:00:43.000Z</Time>
            <Position>
              <LatitudeDegrees>42.3151575587689876556396484375</LatitudeDegrees>
              <LongitudeDegrees>2.585954256355762481689453125</LongitudeDegrees>
            </Position>
            <AltitudeMeters>492.600006103515625</AltitudeMeters>
            <DistanceMeters>NAN</DistanceMeters>
          </Trackpoint>
          <Trackpoint>
            <Time>2021-04-03T07:00:52.000Z</Time>
            <Position>
              <LatitudeDegrees>42.31510433368384838104248046875</LatitudeDegrees>
              <LongitudeDegrees>2.58591343648731708526611328125</LongitudeDegrees>
            </Position>
            <AltitudeMeters>493.20001220703125</AltitudeMeters>
            <DistanceMeters>NAN</DistanceMeters>
          </Trackpoint>
          <Trackpoint>
            <Time>2021-04-03T07:00:58.000Z</Time>
            <Position>
              <LatitudeDegrees>42.31505454517900943756103515625</LatitudeDegrees>
              <LongitudeDegrees>2.58591930381953716278076171875</LongitudeDegrees>
            </Position>
            <AltitudeMeters>493.399993896484375</AltitudeMeters>
            <DistanceMeters>NAN</DistanceMeters>
          </Trackpoint>
          <Trackpoint>
            <Time>2021-04-03T07:01:00.000Z</Time>
            <Position>
              <LatitudeDegrees>42.31503166258335113525390625</LatitudeDegrees>
              <LongitudeDegrees>2.58592667989432811737060546875</LongitudeDegrees>
            </Position>
            <AltitudeMeters>493.399993896484375</AltitudeMeters>
            <DistanceMeters>NAN</DistanceMeters>
          </Trackpoint>
          <Trackpoint>
            <Time>2021-04-03T07:01:02.000Z</Time>
            <Position>
              <LatitudeDegrees>42.31501380912959575653076171875</LatitudeDegrees>
              <LongitudeDegrees>2.58591846562922000885009765625</LongitudeDegrees>
            </Position>
            <AltitudeMeters>493.399993896484375</AltitudeMeters>
            <DistanceMeters>NAN</DistanceMeters>
          </Trackpoint>
          <Trackpoint>
            <Time>2021-04-03T07:01:05.000Z</Time>
            <Position>
              <LatitudeDegrees>42.31498765759170055389404296875</LatitudeDegrees>
              <LongitudeDegrees>2.585903294384479522705078125</LongitudeDegrees>
            </Position>
            <AltitudeMeters>493.600006103515625</AltitudeMeters>
            <DistanceMeters>NAN</DistanceMeters>
          </Trackpoint>
          <Trackpoint>
            <Time>2021-04-03T07:01:13.000Z</Time>
            <Position>
              <LatitudeDegrees>42.3149116337299346923828125</LatitudeDegrees>
              <LongitudeDegrees>2.58588351309299468994140625</LongitudeDegrees>
            </Position>
            <AltitudeMeters>494</AltitudeMeters>
            <DistanceMeters>NAN</DistanceMeters>
          </Trackpoint>
          <Trackpoint>
            <Time>2021-04-03T07:01:15.000Z</Time>
            <Position>
              <LatitudeDegrees>42.3148983903229236602783203125</LatitudeDegrees>
              <LongitudeDegrees>2.5858789868652820587158203125</LongitudeDegrees>
            </Position>
            <AltitudeMeters>494.20001220703125</AltitudeMeters>
            <DistanceMeters>NAN</DistanceMeters>
          </Trackpoint>
          <Trackpoint>
            <Time>2021-04-03T07:01:20.000Z</Time>
            <Position>
              <LatitudeDegrees>42.314864695072174072265625</LatitudeDegrees>
              <LongitudeDegrees>2.58589114062488079071044921875</LongitudeDegrees>
            </Position>
            <AltitudeMeters>494.600006103515625</AltitudeMeters>
            <DistanceMeters>NAN</DistanceMeters>
          </Trackpoint>
          <Trackpoint>
            <Time>2021-04-03T07:01:25.000Z</Time>
            <Position>
              <LatitudeDegrees>42.31481633149087429046630859375</LatitudeDegrees>
              <LongitudeDegrees>2.5858836807310581207275390625</LongitudeDegrees>
            </Position>
            <AltitudeMeters>494.79998779296875</AltitudeMeters>
            <DistanceMeters>NAN</DistanceMeters>
          </Trackpoint>
          <Trackpoint>
            <Time>2021-04-03T07:01:27.000Z</Time>
            <Position>
              <LatitudeDegrees>42.31479923240840435028076171875</LatitudeDegrees>
              <LongitudeDegrees>2.5858860276639461517333984375</LongitudeDegrees>
            </Position>
            <AltitudeMeters>494.79998779296875</AltitudeMeters>
            <DistanceMeters>NAN</DistanceMeters>
          </Trackpoint>
          <Trackpoint>
            <Time>2021-04-03T07:01:32.000Z</Time>
            <Position>
              <LatitudeDegrees>42.3147743381559848785400390625</LatitudeDegrees>
              <LongitudeDegrees>2.58586415089666843414306640625</LongitudeDegrees>
            </Position>
            <AltitudeMeters>495.20001220703125</AltitudeMeters>
            <DistanceMeters>NAN</DistanceMeters>
          </Trackpoint>
          <Trackpoint>
            <Time>2021-04-03T07:01:35.000Z</Time>
            <Position>
              <LatitudeDegrees>42.31475363485515117645263671875</LatitudeDegrees>
              <LongitudeDegrees>2.5858535058796405792236328125</LongitudeDegrees>
            </Position>
            <AltitudeMeters>495.600006103515625</AltitudeMeters>
            <DistanceMeters>NAN</DistanceMeters>
          </Trackpoint>
          <Trackpoint>
            <Time>2021-04-03T07:01:42.000Z</Time>
            <Position>
              <LatitudeDegrees>42.3147116415202617645263671875</LatitudeDegrees>
              <LongitudeDegrees>2.585814781486988067626953125</LongitudeDegrees>
            </Position>
            <AltitudeMeters>496.20001220703125</AltitudeMeters>
            <DistanceMeters>NAN</DistanceMeters>
          </Trackpoint>
          <Trackpoint>
            <Time>2021-04-03T07:01:43.000Z</Time>
            <Position>
              <LatitudeDegrees>42.31470686383545398712158203125</LatitudeDegrees>
              <LongitudeDegrees>2.5858099199831485748291015625</LongitudeDegrees>
            </Position>
            <AltitudeMeters>496.399993896484375</AltitudeMeters>
            <DistanceMeters>NAN</DistanceMeters>
          </Trackpoint>
          <Trackpoint>
            <Time>2021-04-03T07:01:46.000Z</Time>
            <Position>
              <LatitudeDegrees>42.31468289159238338470458984375</LatitudeDegrees>
              <LongitudeDegrees>2.5858022086322307586669921875</LongitudeDegrees>
            </Position>
            <AltitudeMeters>496.79998779296875</AltitudeMeters>
            <DistanceMeters>NAN</DistanceMeters>
          </Trackpoint>
          <Trackpoint>
            <Time>2021-04-03T07:01:49.000Z</Time>
            <Position>
              <LatitudeDegrees>42.31465992517769336700439453125</LatitudeDegrees>
              <LongitudeDegrees>2.5857965089380741119384765625</LongitudeDegrees>
            </Position>
            <AltitudeMeters>497</AltitudeMeters>
            <DistanceMeters>NAN</DistanceMeters>
          </Trackpoint>
          <Trackpoint>
            <Time>2021-04-03T07:01:50.000Z</Time>
            <Position>
              <LatitudeDegrees>42.314651794731616973876953125</LatitudeDegrees>
              <LongitudeDegrees>2.585791982710361480712890625</LongitudeDegrees>
            </Position>
            <AltitudeMeters>497.20001220703125</AltitudeMeters>
            <DistanceMeters>NAN</DistanceMeters>
          </Trackpoint>
          <Trackpoint>
            <Time>2021-04-03T07:01:53.000Z</Time>
            <Position>
              <LatitudeDegrees>42.314634360373020172119140625</LatitudeDegrees>
              <LongitudeDegrees>2.58577144704759120941162109375</LongitudeDegrees>
            </Position>
            <AltitudeMeters>497.20001220703125</AltitudeMeters>
            <DistanceMeters>NAN</DistanceMeters>
          </Trackpoint>
          <Trackpoint>
            <Time>2021-04-03T07:01:54.000Z</Time>
            <Position>
              <LatitudeDegrees>42.31462933123111724853515625</LatitudeDegrees>
              <LongitudeDegrees>2.58576692081987857818603515625</LongitudeDegrees>
            </Position>
            <AltitudeMeters>497.20001220703125</AltitudeMeters>
            <DistanceMeters>NAN</DistanceMeters>
          </Trackpoint>
          <Trackpoint>
            <Time>2021-04-03T07:01:55.000Z</Time>
            <Position>
              <LatitudeDegrees>42.31462472118437290191650390625</LatitudeDegrees>
              <LongitudeDegrees>2.5857659988105297088623046875</LongitudeDegrees>
            </Position>
            <AltitudeMeters>497.399993896484375</AltitudeMeters>
            <DistanceMeters>NAN</DistanceMeters>
          </Trackpoint>
          <Trackpoint>
            <Time>2021-04-03T07:01:58.000Z</Time>
            <Position>
              <LatitudeDegrees>42.31458507478237152099609375</LatitudeDegrees>
              <LongitudeDegrees>2.58576038293540477752685546875</LongitudeDegrees>
            </Position>
            <AltitudeMeters>497.600006103515625</AltitudeMeters>
            <DistanceMeters>NAN</DistanceMeters>
          </Trackpoint>
          <Trackpoint>
            <Time>2021-04-03T07:02:03.000Z</Time>
            <Position>
              <LatitudeDegrees>42.31454995460808277130126953125</LatitudeDegrees>
              <LongitudeDegrees>2.5857445411384105682373046875</LongitudeDegrees>
            </Position>
            <AltitudeMeters>497.600006103515625</AltitudeMeters>
            <DistanceMeters>NAN</DistanceMeters>
          </Trackpoint>
          <Trackpoint>
            <Time>2021-04-03T07:02:09.000Z</Time>
            <Position>
              <LatitudeDegrees>42.31448172591626644134521484375</LatitudeDegrees>
              <LongitudeDegrees>2.58574076928198337554931640625</LongitudeDegrees>
            </Position>
            <AltitudeMeters>496.79998779296875</AltitudeMeters>
            <DistanceMeters>NAN</DistanceMeters>
          </Trackpoint>
          <Trackpoint>
            <Time>2021-04-03T07:02:14.000Z</Time>
            <Position>
              <LatitudeDegrees>42.3144306801259517669677734375</LatitudeDegrees>
              <LongitudeDegrees>2.58575074374675750732421875</LongitudeDegrees>
            </Position>
            <AltitudeMeters>496.399993896484375</AltitudeMeters>
            <DistanceMeters>NAN</DistanceMeters>
          </Trackpoint>
          <Trackpoint>
            <Time>2021-04-03T07:02:15.000Z</Time>
            <Position>
              <LatitudeDegrees>42.3144192807376384735107421875</LatitudeDegrees>
              <LongitudeDegrees>2.5857559405267238616943359375</LongitudeDegrees>
            </Position>
            <AltitudeMeters>496.399993896484375</AltitudeMeters>
            <DistanceMeters>NAN</DistanceMeters>
          </Trackpoint>
          <Trackpoint>
            <Time>2021-04-03T07:02:20.000Z</Time>
            <Position>
              <LatitudeDegrees>42.314377538859844207763671875</LatitudeDegrees>
              <LongitudeDegrees>2.58577345870435237884521484375</LongitudeDegrees>
            </Position>
            <AltitudeMeters>497</AltitudeMeters>
            <DistanceMeters>NAN</DistanceMeters>
          </Trackpoint>
          <Trackpoint>
            <Time>2021-04-03T07:02:25.000Z</Time>
            <Position>
              <LatitudeDegrees>42.3143483698368072509765625</LatitudeDegrees>
              <LongitudeDegrees>2.58576608262956142425537109375</LongitudeDegrees>
            </Position>
            <AltitudeMeters>497.399993896484375</AltitudeMeters>
            <DistanceMeters>NAN</DistanceMeters>
          </Trackpoint>
          <Trackpoint>
            <Time>2021-04-03T07:02:26.000Z</Time>
            <Position>
              <LatitudeDegrees>42.31433889828622341156005859375</LatitudeDegrees>
              <LongitudeDegrees>2.5857606343924999237060546875</LongitudeDegrees>
            </Position>
            <AltitudeMeters>497.600006103515625</AltitudeMeters>
            <DistanceMeters>NAN</DistanceMeters>
          </Trackpoint>
          <Trackpoint>
            <Time>2021-04-03T07:02:27.000Z</Time>
            <Position>
              <LatitudeDegrees>42.314325906336307525634765625</LatitudeDegrees>
              <LongitudeDegrees>2.5857599638402462005615234375</LongitudeDegrees>
            </Position>
            <AltitudeMeters>497.600006103515625</AltitudeMeters>
            <DistanceMeters>NAN</DistanceMeters>
          </Trackpoint>
          <Trackpoint>
            <Time>2021-04-03T07:02:30.000Z</Time>
            <Position>
              <LatitudeDegrees>42.31430654413998126983642578125</LatitudeDegrees>
              <LongitudeDegrees>2.5857425294816493988037109375</LongitudeDegrees>
            </Position>
            <AltitudeMeters>498.20001220703125</AltitudeMeters>
            <DistanceMeters>NAN</DistanceMeters>
          </Trackpoint>
          <Trackpoint>
            <Time>2021-04-03T07:02:31.000Z</Time>
            <Position>
              <LatitudeDegrees>42.31430268846452236175537109375</LatitudeDegrees>
              <LongitudeDegrees>2.58573590777814388275146484375</LongitudeDegrees>
            </Position>
            <AltitudeMeters>498.399993896484375</AltitudeMeters>
            <DistanceMeters>NAN</DistanceMeters>
          </Trackpoint>
          <Trackpoint>
            <Time>2021-04-03T07:02:35.000Z</Time>
            <Position>
              <LatitudeDegrees>42.31428810395300388336181640625</LatitudeDegrees>
              <LongitudeDegrees>2.58572526276111602783203125</LongitudeDegrees>
            </Position>
            <AltitudeMeters>499.20001220703125</AltitudeMeters>
            <DistanceMeters>NAN</DistanceMeters>
          </Trackpoint>
          <Trackpoint>
            <Time>2021-04-03T07:02:37.000Z</Time>
            <Position>
              <LatitudeDegrees>42.314279638230800628662109375</LatitudeDegrees>
              <LongitudeDegrees>2.58571545593440532684326171875</LongitudeDegrees>
            </Position>
            <AltitudeMeters>499.399993896484375</AltitudeMeters>
            <DistanceMeters>NAN</DistanceMeters>
          </Trackpoint>
          <Trackpoint>
            <Time>2021-04-03T07:02:38.000Z</Time>
            <Position>
              <LatitudeDegrees>42.31427418999373912811279296875</LatitudeDegrees>
              <LongitudeDegrees>2.58571595884859561920166015625</LongitudeDegrees>
            </Position>
            <AltitudeMeters>499.79998779296875</AltitudeMeters>
            <DistanceMeters>NAN</DistanceMeters>
          </Trackpoint>
          <Trackpoint>
            <Time>2021-04-03T07:02:40.000Z</Time>
            <Position>
              <LatitudeDegrees>42.31426631100475788116455078125</LatitudeDegrees>
              <LongitudeDegrees>2.58571579121053218841552734375</LongitudeDegrees>
            </Position>
            <AltitudeMeters>500</AltitudeMeters>
            <DistanceMeters>NAN</DistanceMeters>
          </Trackpoint>
          <Trackpoint>
            <Time>2021-04-03T07:02:44.000Z</Time>
            <Position>
              <LatitudeDegrees>42.31424351222813129425048828125</LatitudeDegrees>
              <LongitudeDegrees>2.5857287831604480743408203125</LongitudeDegrees>
            </Position>
            <AltitudeMeters>500.600006103515625</AltitudeMeters>
            <DistanceMeters>NAN</DistanceMeters>
          </Trackpoint>
          <Trackpoint>
            <Time>2021-04-03T07:02:45.000Z</Time>
            <Position>
              <LatitudeDegrees>42.3142368905246257781982421875</LatitudeDegrees>
              <LongitudeDegrees>2.5857291184365749359130859375</LongitudeDegrees>
            </Position>
            <AltitudeMeters>501</AltitudeMeters>
            <DistanceMeters>NAN</DistanceMeters>
          </Trackpoint>
          <Trackpoint>
            <Time>2021-04-03T07:02:49.000Z</Time>
            <Position>
              <LatitudeDegrees>42.3142214678227901458740234375</LatitudeDegrees>
              <LongitudeDegrees>2.5857368297874927520751953125</LongitudeDegrees>
            </Position>
            <AltitudeMeters>501.79998779296875</AltitudeMeters>
            <DistanceMeters>NAN</DistanceMeters>
          </Trackpoint>
          <Trackpoint>
            <Time>2021-04-03T07:02:51.000Z</Time>
            <Position>
              <LatitudeDegrees>42.31421585194766521453857421875</LatitudeDegrees>
              <LongitudeDegrees>2.585731633007526397705078125</LongitudeDegrees>
            </Position>
            <AltitudeMeters>502</AltitudeMeters>
            <DistanceMeters>NAN</DistanceMeters>
          </Trackpoint>
          <Trackpoint>
            <Time>2021-04-03T07:02:52.000Z</Time>
            <Position>
              <LatitudeDegrees>42.314215265214443206787109375</LatitudeDegrees>
              <LongitudeDegrees>2.58572383783757686614990234375</LongitudeDegrees>
            </Position>
            <AltitudeMeters>502</AltitudeMeters>
            <DistanceMeters>NAN</DistanceMeters>
          </Trackpoint>
          <Trackpoint>
            <Time>2021-04-03T07:02:56.000Z</Time>
            <Position>
              <LatitudeDegrees>42.31422297656536102294921875</LatitudeDegrees>
              <LongitudeDegrees>2.5856972672045230865478515625</LongitudeDegrees>
            </Position>
            <AltitudeMeters>502.20001220703125</AltitudeMeters>
            <DistanceMeters>NAN</DistanceMeters>
          </Trackpoint>
          <Trackpoint>
            <Time>2021-04-03T07:03:03.000Z</Time>
            <Position>
              <LatitudeDegrees>42.3142276704311370849609375</LatitudeDegrees>
              <LongitudeDegrees>2.58569634519517421722412109375</LongitudeDegrees>
            </Position>
            <AltitudeMeters>502.20001220703125</AltitudeMeters>
            <DistanceMeters>NAN</DistanceMeters>
          </Trackpoint>
          <Trackpoint>
            <Time>2021-04-03T07:03:06.000Z</Time>
            <Position>
              <LatitudeDegrees>42.3142276704311370849609375</LatitudeDegrees>
              <LongitudeDegrees>2.58569634519517421722412109375</LongitudeDegrees>
            </Position>
            <AltitudeMeters>502.399993896484375</AltitudeMeters>
            <DistanceMeters>NAN</DistanceMeters>
          </Trackpoint>
          <Trackpoint>
            <Time>2021-04-03T07:03:08.000Z</Time>
            <Position>
              <LatitudeDegrees>42.3142276704311370849609375</LatitudeDegrees>
              <LongitudeDegrees>2.58569634519517421722412109375</LongitudeDegrees>
            </Position>
            <AltitudeMeters>502.600006103515625</AltitudeMeters>
            <DistanceMeters>NAN</DistanceMeters>
          </Trackpoint>
          <Trackpoint>
            <Time>2021-04-03T07:03:12.000Z</Time>
            <Position>
              <LatitudeDegrees>42.31422699987888336181640625</LatitudeDegrees>
              <LongitudeDegrees>2.58569885976612567901611328125</LongitudeDegrees>
            </Position>
            <AltitudeMeters>503.20001220703125</AltitudeMeters>
            <DistanceMeters>NAN</DistanceMeters>
          </Trackpoint>
          <Trackpoint>
            <Time>2021-04-03T07:03:16.000Z</Time>
            <Position>
              <LatitudeDegrees>42.3142224736511707305908203125</LatitudeDegrees>
              <LongitudeDegrees>2.5857016257941722869873046875</LongitudeDegrees>
            </Position>
            <AltitudeMeters>503.600006103515625</AltitudeMeters>
            <DistanceMeters>NAN</DistanceMeters>
          </Trackpoint>
          <Trackpoint>
            <Time>2021-04-03T07:03:21.000Z</Time>
            <Position>
              <LatitudeDegrees>42.314217947423458099365234375</LatitudeDegrees>
              <LongitudeDegrees>2.585706822574138641357421875</LongitudeDegrees>
            </Position>
            <AltitudeMeters>504.20001220703125</AltitudeMeters>
            <DistanceMeters>NAN</DistanceMeters>
          </Trackpoint>
          <Trackpoint>
            <Time>2021-04-03T07:03:29.000Z</Time>
            <Position>
              <LatitudeDegrees>42.31418316252529621124267578125</LatitudeDegrees>
              <LongitudeDegrees>2.58573439903557300567626953125</LongitudeDegrees>
            </Position>
            <AltitudeMeters>505.20001220703125</AltitudeMeters>
            <DistanceMeters>NAN</DistanceMeters>
          </Trackpoint>
          <Trackpoint>
            <Time>2021-04-03T07:03:30.000Z</Time>
            <Position>
              <LatitudeDegrees>42.3141782172024250030517578125</LatitudeDegrees>
              <LongitudeDegrees>2.585736326873302459716796875</LongitudeDegrees>
            </Position>
            <AltitudeMeters>505.399993896484375</AltitudeMeters>
            <DistanceMeters>NAN</DistanceMeters>
          </Trackpoint>
          <Trackpoint>
            <Time>2021-04-03T07:03:35.000Z</Time>
            <Position>
              <LatitudeDegrees>42.31410839594900608062744140625</LatitudeDegrees>
              <LongitudeDegrees>2.58573657833039760589599609375</LongitudeDegrees>
            </Position>
            <AltitudeMeters>506.20001220703125</AltitudeMeters>
            <DistanceMeters>NAN</DistanceMeters>
          </Trackpoint>
          <Trackpoint>
            <Time>2021-04-03T07:03:37.000Z</Time>
            <Position>
              <LatitudeDegrees>42.31407889164984226226806640625</LatitudeDegrees>
              <LongitudeDegrees>2.5857393443584442138671875</LongitudeDegrees>
            </Position>
            <AltitudeMeters>506.399993896484375</AltitudeMeters>
            <DistanceMeters>NAN</DistanceMeters>
          </Trackpoint>
          <Trackpoint>
            <Time>2021-04-03T07:03:41.000Z</Time>
            <Position>
              <LatitudeDegrees>42.31401669792830944061279296875</LatitudeDegrees>
              <LongitudeDegrees>2.585754096508026123046875</LongitudeDegrees>
            </Position>
            <AltitudeMeters>507</AltitudeMeters>
            <DistanceMeters>NAN</DistanceMeters>
          </Trackpoint>
          <Trackpoint>
            <Time>2021-04-03T07:03:42.000Z</Time>
            <Position>
              <LatitudeDegrees>42.3140050470829010009765625</LatitudeDegrees>
              <LongitudeDegrees>2.5857482291758060455322265625</LongitudeDegrees>
            </Position>
            <AltitudeMeters>507.20001220703125</AltitudeMeters>
            <DistanceMeters>NAN</DistanceMeters>
          </Trackpoint>
          <Trackpoint>
            <Time>2021-04-03T07:03:44.000Z</Time>
            <Position>
              <LatitudeDegrees>42.3140052147209644317626953125</LatitudeDegrees>
              <LongitudeDegrees>2.58572467602789402008056640625</LongitudeDegrees>
            </Position>
            <AltitudeMeters>507.600006103515625</AltitudeMeters>
            <DistanceMeters>NAN</DistanceMeters>
          </Trackpoint>
          <Trackpoint>
            <Time>2021-04-03T07:03:45.000Z</Time>
            <Position>
              <LatitudeDegrees>42.3140037059783935546875</LatitudeDegrees>
              <LongitudeDegrees>2.58571855723857879638671875</LongitudeDegrees>
            </Position>
            <AltitudeMeters>507.79998779296875</AltitudeMeters>
            <DistanceMeters>NAN</DistanceMeters>
          </Trackpoint>
          <Trackpoint>
            <Time>2021-04-03T07:03:49.000Z</Time>
            <Position>
              <LatitudeDegrees>42.313995324075222015380859375</LatitudeDegrees>
              <LongitudeDegrees>2.58569483645260334014892578125</LongitudeDegrees>
            </Position>
            <AltitudeMeters>508.399993896484375</AltitudeMeters>
            <DistanceMeters>NAN</DistanceMeters>
          </Trackpoint>
          <Trackpoint>
            <Time>2021-04-03T07:03:51.000Z</Time>
            <Position>
              <LatitudeDegrees>42.3139894567430019378662109375</LatitudeDegrees>
              <LongitudeDegrees>2.58568393997848033905029296875</LongitudeDegrees>
            </Position>
            <AltitudeMeters>508.600006103515625</AltitudeMeters>
            <DistanceMeters>NAN</DistanceMeters>
          </Trackpoint>
          <Trackpoint>
            <Time>2021-04-03T07:03:54.000Z</Time>
            <Position>
              <LatitudeDegrees>42.3139854334294795989990234375</LatitudeDegrees>
              <LongitudeDegrees>2.585661225020885467529296875</LongitudeDegrees>
            </Position>
            <AltitudeMeters>509</AltitudeMeters>
            <DistanceMeters>NAN</DistanceMeters>
          </Trackpoint>
          <Trackpoint>
            <Time>2021-04-03T07:03:57.000Z</Time>
            <Position>
              <LatitudeDegrees>42.3139827512204647064208984375</LatitudeDegrees>
              <LongitudeDegrees>2.585635744035243988037109375</LongitudeDegrees>
            </Position>
            <AltitudeMeters>509.399993896484375</AltitudeMeters>
            <DistanceMeters>NAN</DistanceMeters>
          </Trackpoint>
          <Trackpoint>
            <Time>2021-04-03T07:03:59.000Z</Time>
            <Position>
              <LatitudeDegrees>42.3139750398695468902587890625</LatitudeDegrees>
              <LongitudeDegrees>2.5856151245534420013427734375</LongitudeDegrees>
            </Position>
            <AltitudeMeters>509.600006103515625</AltitudeMeters>
            <DistanceMeters>NAN</DistanceMeters>
          </Trackpoint>
          <Trackpoint>
            <Time>2021-04-03T07:04:01.000Z</Time>
            <Position>
              <LatitudeDegrees>42.31397512368857860565185546875</LatitudeDegrees>
              <LongitudeDegrees>2.58559945039451122283935546875</LongitudeDegrees>
            </Position>
            <AltitudeMeters>510</AltitudeMeters>
            <DistanceMeters>NAN</DistanceMeters>
          </Trackpoint>
          <Trackpoint>
            <Time>2021-04-03T07:04:03.000Z</Time>
            <Position>
              <LatitudeDegrees>42.31397487223148345947265625</LatitudeDegrees>
              <LongitudeDegrees>2.58558670990169048309326171875</LongitudeDegrees>
            </Position>
            <AltitudeMeters>510.399993896484375</AltitudeMeters>
            <DistanceMeters>NAN</DistanceMeters>
          </Trackpoint>
          <Trackpoint>
            <Time>2021-04-03T07:04:07.000Z</Time>
            <Position>
              <LatitudeDegrees>42.313990294933319091796875</LatitudeDegrees>
              <LongitudeDegrees>2.58556994609534740447998046875</LongitudeDegrees>
            </Position>
            <AltitudeMeters>510.600006103515625</AltitudeMeters>
            <DistanceMeters>NAN</DistanceMeters>
          </Trackpoint>
          <Trackpoint>
            <Time>2021-04-03T07:04:08.000Z</Time>
            <Position>
              <LatitudeDegrees>42.31399658136069774627685546875</LatitudeDegrees>
              <LongitudeDegrees>2.5855705328285694122314453125</LongitudeDegrees>
            </Position>
            <AltitudeMeters>511</AltitudeMeters>
            <DistanceMeters>NAN</DistanceMeters>
          </Trackpoint>
          <Trackpoint>
            <Time>2021-04-03T07:04:10.000Z</Time>
            <Position>
              <LatitudeDegrees>42.314007394015789031982421875</LatitudeDegrees>
              <LongitudeDegrees>2.58556826971471309661865234375</LongitudeDegrees>
            </Position>
            <AltitudeMeters>511.20001220703125</AltitudeMeters>
            <DistanceMeters>NAN</DistanceMeters>
          </Trackpoint>
          <Trackpoint>
            <Time>2021-04-03T07:04:12.000Z</Time>
            <Position>
              <LatitudeDegrees>42.31400764547288417816162109375</LatitudeDegrees>
              <LongitudeDegrees>2.58556055836379528045654296875</LongitudeDegrees>
            </Position>
            <AltitudeMeters>511.399993896484375</AltitudeMeters>
            <DistanceMeters>NAN</DistanceMeters>
          </Trackpoint>
          <Trackpoint>
            <Time>2021-04-03T07:04:13.000Z</Time>
            <Position>
              <LatitudeDegrees>42.31400764547288417816162109375</LatitudeDegrees>
              <LongitudeDegrees>2.5855507515370845794677734375</LongitudeDegrees>
            </Position>
            <AltitudeMeters>511.399993896484375</AltitudeMeters>
            <DistanceMeters>NAN</DistanceMeters>
          </Trackpoint>
          <Trackpoint>
            <Time>2021-04-03T07:04:15.000Z</Time>
            <Position>
              <LatitudeDegrees>42.314012087881565093994140625</LatitudeDegrees>
              <LongitudeDegrees>2.58554614149034023284912109375</LongitudeDegrees>
            </Position>
            <AltitudeMeters>511.600006103515625</AltitudeMeters>
            <DistanceMeters>NAN</DistanceMeters>
          </Trackpoint>
          <Trackpoint>
            <Time>2021-04-03T07:04:16.000Z</Time>
            <Position>
              <LatitudeDegrees>42.31401954777538776397705078125</LatitudeDegrees>
              <LongitudeDegrees>2.585539184510707855224609375</LongitudeDegrees>
            </Position>
            <AltitudeMeters>511.600006103515625</AltitudeMeters>
            <DistanceMeters>NAN</DistanceMeters>
          </Trackpoint>
          <Trackpoint>
            <Time>2021-04-03T07:04:17.000Z</Time>
            <Position>
              <LatitudeDegrees>42.31402256526052951812744140625</LatitudeDegrees>
              <LongitudeDegrees>2.58553038351237773895263671875</LongitudeDegrees>
            </Position>
            <AltitudeMeters>511.79998779296875</AltitudeMeters>
            <DistanceMeters>NAN</DistanceMeters>
          </Trackpoint>
          <Trackpoint>
            <Time>2021-04-03T07:04:18.000Z</Time>
            <Position>
              <LatitudeDegrees>42.31402373872697353363037109375</LatitudeDegrees>
              <LongitudeDegrees>2.58552233688533306121826171875</LongitudeDegrees>
            </Position>
            <AltitudeMeters>511.79998779296875</AltitudeMeters>
            <DistanceMeters>NAN</DistanceMeters>
          </Trackpoint>
          <Trackpoint>
            <Time>2021-04-03T07:04:21.000Z</Time>
            <Position>
              <LatitudeDegrees>42.314040921628475189208984375</LatitudeDegrees>
              <LongitudeDegrees>2.5854971073567867279052734375</LongitudeDegrees>
            </Position>
            <AltitudeMeters>512</AltitudeMeters>
            <DistanceMeters>NAN</DistanceMeters>
          </Trackpoint>
          <Trackpoint>
            <Time>2021-04-03T07:04:24.000Z</Time>
            <Position>
              <LatitudeDegrees>42.3140518181025981903076171875</LatitudeDegrees>
              <LongitudeDegrees>2.58548059500753879547119140625</LongitudeDegrees>
            </Position>
            <AltitudeMeters>512.4000244140625</AltitudeMeters>
            <DistanceMeters>NAN</DistanceMeters>
          </Trackpoint>
          <Trackpoint>
            <Time>2021-04-03T07:04:28.000Z</Time>
            <Position>
              <LatitudeDegrees>42.31407185085117816925048828125</LatitudeDegrees>
              <LongitudeDegrees>2.5854665972292423248291015625</LongitudeDegrees>
            </Position>
            <AltitudeMeters>512.79998779296875</AltitudeMeters>
            <DistanceMeters>NAN</DistanceMeters>
          </Trackpoint>
          <Trackpoint>
            <Time>2021-04-03T07:04:33.000Z</Time>
            <Position>
              <LatitudeDegrees>42.314076460897922515869140625</LatitudeDegrees>
              <LongitudeDegrees>2.58545444346964359283447265625</LongitudeDegrees>
            </Position>
            <AltitudeMeters>513.20001220703125</AltitudeMeters>
            <DistanceMeters>NAN</DistanceMeters>
          </Trackpoint>
          <Trackpoint>
            <Time>2021-04-03T07:04:38.000Z</Time>
            <Position>
              <LatitudeDegrees>42.31406883336603641510009765625</LatitudeDegrees>
              <LongitudeDegrees>2.5854469835758209228515625</LongitudeDegrees>
            </Position>
            <AltitudeMeters>513.79998779296875</AltitudeMeters>
            <DistanceMeters>NAN</DistanceMeters>
          </Trackpoint>
          <Trackpoint>
            <Time>2021-04-03T07:04:41.000Z</Time>
            <Position>
              <LatitudeDegrees>42.31405475176870822906494140625</LatitudeDegrees>
              <LongitudeDegrees>2.5854608975350856781005859375</LongitudeDegrees>
            </Position>
            <AltitudeMeters>514.20001220703125</AltitudeMeters>
            <DistanceMeters>NAN</DistanceMeters>
          </Trackpoint>
          <Trackpoint>
            <Time>2021-04-03T07:04:46.000Z</Time>
            <Position>
              <LatitudeDegrees>42.31403832323849201202392578125</LatitudeDegrees>
              <LongitudeDegrees>2.58545846678316593170166015625</LongitudeDegrees>
            </Position>
            <AltitudeMeters>514.79998779296875</AltitudeMeters>
            <DistanceMeters>NAN</DistanceMeters>
          </Trackpoint>
          <Trackpoint>
            <Time>2021-04-03T07:04:47.000Z</Time>
            <Position>
              <LatitudeDegrees>42.3140327073633670806884765625</LatitudeDegrees>
              <LongitudeDegrees>2.58545712567865848541259765625</LongitudeDegrees>
            </Position>
            <AltitudeMeters>515</AltitudeMeters>
            <DistanceMeters>NAN</DistanceMeters>
          </Trackpoint>
          <Trackpoint>
            <Time>2021-04-03T07:04:52.000Z</Time>
            <Position>
              <LatitudeDegrees>42.31401083059608936309814453125</LatitudeDegrees>
              <LongitudeDegrees>2.58542946539819240570068359375</LongitudeDegrees>
            </Position>
            <AltitudeMeters>515.5999755859375</AltitudeMeters>
            <DistanceMeters>NAN</DistanceMeters>
          </Trackpoint>
          <Trackpoint>
            <Time>2021-04-03T07:04:57.000Z</Time>
            <Position>
              <LatitudeDegrees>42.3140001855790615081787109375</LatitudeDegrees>
              <LongitudeDegrees>2.58538194000720977783203125</LongitudeDegrees>
            </Position>
            <AltitudeMeters>516</AltitudeMeters>
            <DistanceMeters>NAN</DistanceMeters>
          </Trackpoint>
          <Trackpoint>
            <Time>2021-04-03T07:05:04.000Z</Time>
            <Position>
              <LatitudeDegrees>42.31399691663682460784912109375</LatitudeDegrees>
              <LongitudeDegrees>2.58534371852874755859375</LongitudeDegrees>
            </Position>
            <AltitudeMeters>516.20001220703125</AltitudeMeters>
            <DistanceMeters>NAN</DistanceMeters>
          </Trackpoint>
          <Trackpoint>
            <Time>2021-04-03T07:05:10.000Z</Time>
            <Position>
              <LatitudeDegrees>42.3139726929366588592529296875</LatitudeDegrees>
              <LongitudeDegrees>2.585278339684009552001953125</LongitudeDegrees>
            </Position>
            <AltitudeMeters>516.79998779296875</AltitudeMeters>
            <DistanceMeters>NAN</DistanceMeters>
          </Trackpoint>
          <Trackpoint>
            <Time>2021-04-03T07:05:13.000Z</Time>
            <Position>
              <LatitudeDegrees>42.3139649815857410430908203125</LatitudeDegrees>
              <LongitudeDegrees>2.5852456502616405487060546875</LongitudeDegrees>
            </Position>
            <AltitudeMeters>517</AltitudeMeters>
            <DistanceMeters>NAN</DistanceMeters>
          </Trackpoint>
          <Trackpoint>
            <Time>2021-04-03T07:05:15.000Z</Time>
            <Position>
              <LatitudeDegrees>42.313956432044506072998046875</LatitudeDegrees>
              <LongitudeDegrees>2.5852163136005401611328125</LongitudeDegrees>
            </Position>
            <AltitudeMeters>517.20001220703125</AltitudeMeters>
            <DistanceMeters>NAN</DistanceMeters>
          </Trackpoint>
          <Trackpoint>
            <Time>2021-04-03T07:05:16.000Z</Time>
            <Position>
              <LatitudeDegrees>42.3139462061226367950439453125</LatitudeDegrees>
              <LongitudeDegrees>2.58520483039319515228271484375</LongitudeDegrees>
            </Position>
            <AltitudeMeters>517.20001220703125</AltitudeMeters>
            <DistanceMeters>NAN</DistanceMeters>
          </Trackpoint>
          <Trackpoint>
            <Time>2021-04-03T07:05:22.000Z</Time>
            <Position>
              <LatitudeDegrees>42.3139130137860774993896484375</LatitudeDegrees>
              <LongitudeDegrees>2.5851557962596416473388671875</LongitudeDegrees>
            </Position>
            <AltitudeMeters>517.4000244140625</AltitudeMeters>
            <DistanceMeters>NAN</DistanceMeters>
          </Trackpoint>
          <Trackpoint>
            <Time>2021-04-03T07:05:24.000Z</Time>
            <Position>
              <LatitudeDegrees>42.31391091831028461456298828125</LatitudeDegrees>
              <LongitudeDegrees>2.58514431305229663848876953125</LongitudeDegrees>
            </Position>
            <AltitudeMeters>517.4000244140625</AltitudeMeters>
            <DistanceMeters>NAN</DistanceMeters>
          </Trackpoint>
          <Trackpoint>
            <Time>2021-04-03T07:05:26.000Z</Time>
            <Position>
              <LatitudeDegrees>42.31390153057873249053955078125</LatitudeDegrees>
              <LongitudeDegrees>2.58513894863426685333251953125</LongitudeDegrees>
            </Position>
            <AltitudeMeters>517.4000244140625</AltitudeMeters>
            <DistanceMeters>NAN</DistanceMeters>
          </Trackpoint>
          <Trackpoint>
            <Time>2021-04-03T07:05:27.000Z</Time>
            <Position>
              <LatitudeDegrees>42.3138942383229732513427734375</LatitudeDegrees>
              <LongitudeDegrees>2.585136853158473968505859375</LongitudeDegrees>
            </Position>
            <AltitudeMeters>517.4000244140625</AltitudeMeters>
            <DistanceMeters>NAN</DistanceMeters>
          </Trackpoint>
          <Trackpoint>
            <Time>2021-04-03T07:05:30.000Z</Time>
            <Position>
              <LatitudeDegrees>42.31389130465686321258544921875</LatitudeDegrees>
              <LongitudeDegrees>2.5851229391992092132568359375</LongitudeDegrees>
            </Position>
            <AltitudeMeters>517.20001220703125</AltitudeMeters>
            <DistanceMeters>NAN</DistanceMeters>
          </Trackpoint>
          <Trackpoint>
            <Time>2021-04-03T07:05:35.000Z</Time>
            <Position>
              <LatitudeDegrees>42.313877642154693603515625</LatitudeDegrees>
              <LongitudeDegrees>2.58508195169270038604736328125</LongitudeDegrees>
            </Position>
            <AltitudeMeters>517</AltitudeMeters>
            <DistanceMeters>NAN</DistanceMeters>
          </Trackpoint>
          <Trackpoint>
            <Time>2021-04-03T07:05:40.000Z</Time>
            <Position>
              <LatitudeDegrees>42.31385626830160617828369140625</LatitudeDegrees>
              <LongitudeDegrees>2.5850555486977100372314453125</LongitudeDegrees>
            </Position>
            <AltitudeMeters>517</AltitudeMeters>
            <DistanceMeters>NAN</DistanceMeters>
          </Trackpoint>
          <Trackpoint>
            <Time>2021-04-03T07:05:46.000Z</Time>
            <Position>
              <LatitudeDegrees>42.31382408179342746734619140625</LatitudeDegrees>
              <LongitudeDegrees>2.58498229086399078369140625</LongitudeDegrees>
            </Position>
            <AltitudeMeters>517.20001220703125</AltitudeMeters>
            <DistanceMeters>NAN</DistanceMeters>
          </Trackpoint>
          <Trackpoint>
            <Time>2021-04-03T07:05:52.000Z</Time>
            <Position>
              <LatitudeDegrees>42.313778400421142578125</LatitudeDegrees>
              <LongitudeDegrees>2.58494834415614604949951171875</LongitudeDegrees>
            </Position>
            <AltitudeMeters>517.4000244140625</AltitudeMeters>
            <DistanceMeters>NAN</DistanceMeters>
          </Trackpoint>
          <Trackpoint>
            <Time>2021-04-03T07:05:57.000Z</Time>
            <Position>
              <LatitudeDegrees>42.3137547634541988372802734375</LatitudeDegrees>
              <LongitudeDegrees>2.58491414599120616912841796875</LongitudeDegrees>
            </Position>
            <AltitudeMeters>517.4000244140625</AltitudeMeters>
            <DistanceMeters>NAN</DistanceMeters>
          </Trackpoint>
          <Trackpoint>
            <Time>2021-04-03T07:06:04.000Z</Time>
            <Position>
              <LatitudeDegrees>42.31368510983884334564208984375</LatitudeDegrees>
              <LongitudeDegrees>2.5849224440753459930419921875</LongitudeDegrees>
            </Position>
            <AltitudeMeters>517.20001220703125</AltitudeMeters>
            <DistanceMeters>NAN</DistanceMeters>
          </Trackpoint>
          <Trackpoint>
            <Time>2021-04-03T07:06:08.000Z</Time>
            <Position>
              <LatitudeDegrees>42.3136561922729015350341796875</LatitudeDegrees>
              <LongitudeDegrees>2.58491733111441135406494140625</LongitudeDegrees>
            </Position>
            <AltitudeMeters>517</AltitudeMeters>
            <DistanceMeters>NAN</DistanceMeters>
          </Trackpoint>
          <Trackpoint>
            <Time>2021-04-03T07:06:09.000Z</Time>
            <Position>
              <LatitudeDegrees>42.31364588253200054168701171875</LatitudeDegrees>
              <LongitudeDegrees>2.584915570914745330810546875</LongitudeDegrees>
            </Position>
            <AltitudeMeters>516.79998779296875</AltitudeMeters>
            <DistanceMeters>NAN</DistanceMeters>
          </Trackpoint>
          <Trackpoint>
            <Time>2021-04-03T07:06:15.000Z</Time>
            <Position>
              <LatitudeDegrees>42.31359039433300495147705078125</LatitudeDegrees>
              <LongitudeDegrees>2.584927640855312347412109375</LongitudeDegrees>
            </Position>
            <AltitudeMeters>516.4000244140625</AltitudeMeters>
            <DistanceMeters>NAN</DistanceMeters>
          </Trackpoint>
          <Trackpoint>
            <Time>2021-04-03T07:06:18.000Z</Time>
            <Position>
              <LatitudeDegrees>42.313556112349033355712890625</LatitudeDegrees>
              <LongitudeDegrees>2.5849293172359466552734375</LongitudeDegrees>
            </Position>
            <AltitudeMeters>516.5999755859375</AltitudeMeters>
            <DistanceMeters>NAN</DistanceMeters>
          </Trackpoint>
          <Trackpoint>
            <Time>2021-04-03T07:06:21.000Z</Time>
            <Position>
              <LatitudeDegrees>42.31352484785020351409912109375</LatitudeDegrees>
              <LongitudeDegrees>2.58493191562592983245849609375</LongitudeDegrees>
            </Position>
            <AltitudeMeters>516.79998779296875</AltitudeMeters>
            <DistanceMeters>NAN</DistanceMeters>
          </Trackpoint>
          <Trackpoint>
            <Time>2021-04-03T07:06:23.000Z</Time>
            <Position>
              <LatitudeDegrees>42.31350808404386043548583984375</LatitudeDegrees>
              <LongitudeDegrees>2.58492470718920230865478515625</LongitudeDegrees>
            </Position>
            <AltitudeMeters>516.79998779296875</AltitudeMeters>
            <DistanceMeters>NAN</DistanceMeters>
          </Trackpoint>
          <Trackpoint>
            <Time>2021-04-03T07:06:28.000Z</Time>
            <Position>
              <LatitudeDegrees>42.3134603910148143768310546875</LatitudeDegrees>
              <LongitudeDegrees>2.58492018096148967742919921875</LongitudeDegrees>
            </Position>
            <AltitudeMeters>516.5999755859375</AltitudeMeters>
            <DistanceMeters>NAN</DistanceMeters>
          </Trackpoint>
          <Trackpoint>
            <Time>2021-04-03T07:06:30.000Z</Time>
            <Position>
              <LatitudeDegrees>42.31344957835972309112548828125</LatitudeDegrees>
              <LongitudeDegrees>2.58491531945765018463134765625</LongitudeDegrees>
            </Position>
            <AltitudeMeters>516.4000244140625</AltitudeMeters>
            <DistanceMeters>NAN</DistanceMeters>
          </Trackpoint>
          <Trackpoint>
            <Time>2021-04-03T07:06:32.000Z</Time>
            <Position>
              <LatitudeDegrees>42.31343046762049198150634765625</LatitudeDegrees>
              <LongitudeDegrees>2.5849174149334430694580078125</LongitudeDegrees>
            </Position>
            <AltitudeMeters>516.20001220703125</AltitudeMeters>
            <DistanceMeters>NAN</DistanceMeters>
          </Trackpoint>
          <Trackpoint>
            <Time>2021-04-03T07:06:33.000Z</Time>
            <Position>
              <LatitudeDegrees>42.31342460028827190399169921875</LatitudeDegrees>
              <LongitudeDegrees>2.5849231146275997161865234375</LongitudeDegrees>
            </Position>
            <AltitudeMeters>516</AltitudeMeters>
            <DistanceMeters>NAN</DistanceMeters>
          </Trackpoint>
          <Trackpoint>
            <Time>2021-04-03T07:06:34.000Z</Time>
            <Position>
              <LatitudeDegrees>42.31341739185154438018798828125</LatitudeDegrees>
              <LongitudeDegrees>2.58493040688335895538330078125</LongitudeDegrees>
            </Position>
            <AltitudeMeters>516</AltitudeMeters>
            <DistanceMeters>NAN</DistanceMeters>
          </Trackpoint>
          <Trackpoint>
            <Time>2021-04-03T07:06:39.000Z</Time>
            <Position>
              <LatitudeDegrees>42.31337606906890869140625</LatitudeDegrees>
              <LongitudeDegrees>2.58496753871440887451171875</LongitudeDegrees>
            </Position>
            <AltitudeMeters>515</AltitudeMeters>
            <DistanceMeters>NAN</DistanceMeters>
          </Trackpoint>
          <Trackpoint>
            <Time>2021-04-03T07:06:40.000Z</Time>
            <Position>
              <LatitudeDegrees>42.31336508877575397491455078125</LatitudeDegrees>
              <LongitudeDegrees>2.5849724002182483673095703125</LongitudeDegrees>
            </Position>
            <AltitudeMeters>515</AltitudeMeters>
            <DistanceMeters>NAN</DistanceMeters>
          </Trackpoint>
          <Trackpoint>
            <Time>2021-04-03T07:06:45.000Z</Time>
            <Position>
              <LatitudeDegrees>42.31330825947225093841552734375</LatitudeDegrees>
              <LongitudeDegrees>2.584995366632938385009765625</LongitudeDegrees>
            </Position>
            <AltitudeMeters>515</AltitudeMeters>
            <DistanceMeters>NAN</DistanceMeters>
          </Trackpoint>
          <Trackpoint>
            <Time>2021-04-03T07:06:52.000Z</Time>
            <Position>
              <LatitudeDegrees>42.313242293894290924072265625</LatitudeDegrees>
              <LongitudeDegrees>2.5849747471511363983154296875</LongitudeDegrees>
            </Position>
            <AltitudeMeters>516</AltitudeMeters>
            <DistanceMeters>NAN</DistanceMeters>
          </Trackpoint>
          <Trackpoint>
            <Time>2021-04-03T07:07:00.000Z</Time>
            <Position>
              <LatitudeDegrees>42.3131586425006389617919921875</LatitudeDegrees>
              <LongitudeDegrees>2.5849965400993824005126953125</LongitudeDegrees>
            </Position>
            <AltitudeMeters>515.5999755859375</AltitudeMeters>
            <DistanceMeters>NAN</DistanceMeters>
          </Trackpoint>
          <Trackpoint>
            <Time>2021-04-03T07:07:01.000Z</Time>
            <Position>
              <LatitudeDegrees>42.3131522722542285919189453125</LatitudeDegrees>
              <LongitudeDegrees>2.58499167859554290771484375</LongitudeDegrees>
            </Position>
            <AltitudeMeters>516.20001220703125</AltitudeMeters>
            <DistanceMeters>NAN</DistanceMeters>
          </Trackpoint>
          <Trackpoint>
            <Time>2021-04-03T07:07:03.000Z</Time>
            <Position>
              <LatitudeDegrees>42.31312930583953857421875</LatitudeDegrees>
              <LongitudeDegrees>2.58499075658619403839111328125</LongitudeDegrees>
            </Position>
            <AltitudeMeters>516.20001220703125</AltitudeMeters>
            <DistanceMeters>NAN</DistanceMeters>
          </Trackpoint>
          <Trackpoint>
            <Time>2021-04-03T07:07:07.000Z</Time>
            <Position>
              <LatitudeDegrees>42.31309468857944011688232421875</LatitudeDegrees>
              <LongitudeDegrees>2.5850015692412853240966796875</LongitudeDegrees>
            </Position>
            <AltitudeMeters>516</AltitudeMeters>
            <DistanceMeters>NAN</DistanceMeters>
          </Trackpoint>
          <Trackpoint>
            <Time>2021-04-03T07:07:09.000Z</Time>
            <Position>
              <LatitudeDegrees>42.313086725771427154541015625</LatitudeDegrees>
              <LongitudeDegrees>2.58501070551574230194091796875</LongitudeDegrees>
            </Position>
            <AltitudeMeters>516</AltitudeMeters>
            <DistanceMeters>NAN</DistanceMeters>
          </Trackpoint>
          <Trackpoint>
            <Time>2021-04-03T07:07:12.000Z</Time>
            <Position>
              <LatitudeDegrees>42.313069961965084075927734375</LatitudeDegrees>
              <LongitudeDegrees>2.5850079394876956939697265625</LongitudeDegrees>
            </Position>
            <AltitudeMeters>516</AltitudeMeters>
            <DistanceMeters>NAN</DistanceMeters>
          </Trackpoint>
          <Trackpoint>
            <Time>2021-04-03T07:07:15.000Z</Time>
            <Position>
              <LatitudeDegrees>42.313036434352397918701171875</LatitudeDegrees>
              <LongitudeDegrees>2.58502042852342128753662109375</LongitudeDegrees>
            </Position>
            <AltitudeMeters>516</AltitudeMeters>
            <DistanceMeters>NAN</DistanceMeters>
          </Trackpoint>
          <Trackpoint>
            <Time>2021-04-03T07:07:18.000Z</Time>
            <Position>
              <LatitudeDegrees>42.3130148090422153472900390625</LatitudeDegrees>
              <LongitudeDegrees>2.58503216318786144256591796875</LongitudeDegrees>
            </Position>
            <AltitudeMeters>515.79998779296875</AltitudeMeters>
            <DistanceMeters>NAN</DistanceMeters>
          </Trackpoint>
          <Trackpoint>
            <Time>2021-04-03T07:07:19.000Z</Time>
            <Position>
              <LatitudeDegrees>42.3130047507584095001220703125</LatitudeDegrees>
              <LongitudeDegrees>2.58503518067300319671630859375</LongitudeDegrees>
            </Position>
            <AltitudeMeters>515.79998779296875</AltitudeMeters>
            <DistanceMeters>NAN</DistanceMeters>
          </Trackpoint>
          <Trackpoint>
            <Time>2021-04-03T07:07:20.000Z</Time>
            <Position>
              <LatitudeDegrees>42.31299586594104766845703125</LatitudeDegrees>
              <LongitudeDegrees>2.58503903634846210479736328125</LongitudeDegrees>
            </Position>
            <AltitudeMeters>515.79998779296875</AltitudeMeters>
            <DistanceMeters>NAN</DistanceMeters>
          </Trackpoint>
          <Trackpoint>
            <Time>2021-04-03T07:07:22.000Z</Time>
            <Position>
              <LatitudeDegrees>42.31297248043119907379150390625</LatitudeDegrees>
              <LongitudeDegrees>2.58505462668836116790771484375</LongitudeDegrees>
            </Position>
            <AltitudeMeters>515.79998779296875</AltitudeMeters>
            <DistanceMeters>NAN</DistanceMeters>
          </Trackpoint>
          <Trackpoint>
            <Time>2021-04-03T07:07:25.000Z</Time>
            <Position>
              <LatitudeDegrees>42.3129259608685970306396484375</LatitudeDegrees>
              <LongitudeDegrees>2.5850848853588104248046875</LongitudeDegrees>
            </Position>
            <AltitudeMeters>515.79998779296875</AltitudeMeters>
            <DistanceMeters>NAN</DistanceMeters>
          </Trackpoint>
          <Trackpoint>
            <Time>2021-04-03T07:07:33.000Z</Time>
            <Position>
              <LatitudeDegrees>42.312854714691638946533203125</LatitudeDegrees>
              <LongitudeDegrees>2.58511506021022796630859375</LongitudeDegrees>
            </Position>
            <AltitudeMeters>516</AltitudeMeters>
            <DistanceMeters>NAN</DistanceMeters>
          </Trackpoint>
          <Trackpoint>
            <Time>2021-04-03T07:07:35.000Z</Time>
            <Position>
              <LatitudeDegrees>42.31284960173070430755615234375</LatitudeDegrees>
              <LongitudeDegrees>2.58513651788234710693359375</LongitudeDegrees>
            </Position>
            <AltitudeMeters>516</AltitudeMeters>
            <DistanceMeters>NAN</DistanceMeters>
          </Trackpoint>
          <Trackpoint>
            <Time>2021-04-03T07:07:37.000Z</Time>
            <Position>
              <LatitudeDegrees>42.3128354363143444061279296875</LatitudeDegrees>
              <LongitudeDegrees>2.58515520952641963958740234375</LongitudeDegrees>
            </Position>
            <AltitudeMeters>516</AltitudeMeters>
            <DistanceMeters>NAN</DistanceMeters>
          </Trackpoint>
          <Trackpoint>
            <Time>2021-04-03T07:07:40.000Z</Time>
            <Position>
              <LatitudeDegrees>42.3127985559403896331787109375</LatitudeDegrees>
              <LongitudeDegrees>2.585171721875667572021484375</LongitudeDegrees>
            </Position>
            <AltitudeMeters>516</AltitudeMeters>
            <DistanceMeters>NAN</DistanceMeters>
          </Trackpoint>
          <Trackpoint>
            <Time>2021-04-03T07:07:41.000Z</Time>
            <Position>
              <LatitudeDegrees>42.31278824619948863983154296875</LatitudeDegrees>
              <LongitudeDegrees>2.5851735658943653106689453125</LongitudeDegrees>
            </Position>
            <AltitudeMeters>516.20001220703125</AltitudeMeters>
            <DistanceMeters>NAN</DistanceMeters>
          </Trackpoint>
          <Trackpoint>
            <Time>2021-04-03T07:07:43.000Z</Time>
            <Position>
              <LatitudeDegrees>42.312772236764430999755859375</LatitudeDegrees>
              <LongitudeDegrees>2.585174739360809326171875</LongitudeDegrees>
            </Position>
            <AltitudeMeters>516.4000244140625</AltitudeMeters>
            <DistanceMeters>NAN</DistanceMeters>
          </Trackpoint>
          <Trackpoint>
            <Time>2021-04-03T07:07:46.000Z</Time>
            <Position>
              <LatitudeDegrees>42.3127556405961513519287109375</LatitudeDegrees>
              <LongitudeDegrees>2.58517180569469928741455078125</LongitudeDegrees>
            </Position>
            <AltitudeMeters>516.4000244140625</AltitudeMeters>
            <DistanceMeters>NAN</DistanceMeters>
          </Trackpoint>
          <Trackpoint>
            <Time>2021-04-03T07:07:47.000Z</Time>
            <Position>
              <LatitudeDegrees>42.31274935416877269744873046875</LatitudeDegrees>
              <LongitudeDegrees>2.5851765833795070648193359375</LongitudeDegrees>
            </Position>
            <AltitudeMeters>516.5999755859375</AltitudeMeters>
            <DistanceMeters>NAN</DistanceMeters>
          </Trackpoint>
          <Trackpoint>
            <Time>2021-04-03T07:07:50.000Z</Time>
            <Position>
              <LatitudeDegrees>42.31271683238446712493896484375</LatitudeDegrees>
              <LongitudeDegrees>2.58519343100488185882568359375</LongitudeDegrees>
            </Position>
            <AltitudeMeters>517</AltitudeMeters>
            <DistanceMeters>NAN</DistanceMeters>
          </Trackpoint>
          <Trackpoint>
            <Time>2021-04-03T07:07:51.000Z</Time>
            <Position>
              <LatitudeDegrees>42.31270593591034412384033203125</LatitudeDegrees>
              <LongitudeDegrees>2.5852002203464508056640625</LongitudeDegrees>
            </Position>
            <AltitudeMeters>517</AltitudeMeters>
            <DistanceMeters>NAN</DistanceMeters>
          </Trackpoint>
          <Trackpoint>
            <Time>2021-04-03T07:07:53.000Z</Time>
            <Position>
              <LatitudeDegrees>42.3126875795423984527587890625</LatitudeDegrees>
              <LongitudeDegrees>2.585203237831592559814453125</LongitudeDegrees>
            </Position>
            <AltitudeMeters>517.20001220703125</AltitudeMeters>
            <DistanceMeters>NAN</DistanceMeters>
          </Trackpoint>
          <Trackpoint>
            <Time>2021-04-03T07:07:54.000Z</Time>
            <Position>
              <LatitudeDegrees>42.3126768507063388824462890625</LatitudeDegrees>
              <LongitudeDegrees>2.5851993821561336517333984375</LongitudeDegrees>
            </Position>
            <AltitudeMeters>517.4000244140625</AltitudeMeters>
            <DistanceMeters>NAN</DistanceMeters>
          </Trackpoint>
          <Trackpoint>
            <Time>2021-04-03T07:07:55.000Z</Time>
            <Position>
              <LatitudeDegrees>42.31266335584223270416259765625</LatitudeDegrees>
              <LongitudeDegrees>2.58520885370671749114990234375</LongitudeDegrees>
            </Position>
            <AltitudeMeters>517.5999755859375</AltitudeMeters>
            <DistanceMeters>NAN</DistanceMeters>
          </Trackpoint>
          <Trackpoint>
            <Time>2021-04-03T07:07:59.000Z</Time>
            <Position>
              <LatitudeDegrees>42.31264189817011356353759765625</LatitudeDegrees>
              <LongitudeDegrees>2.5852050818502902984619140625</LongitudeDegrees>
            </Position>
            <AltitudeMeters>518.20001220703125</AltitudeMeters>
            <DistanceMeters>NAN</DistanceMeters>
          </Trackpoint>
          <Trackpoint>
            <Time>2021-04-03T07:08:01.000Z</Time>
            <Position>
              <LatitudeDegrees>42.312623374164104461669921875</LatitudeDegrees>
              <LongitudeDegrees>2.58520617149770259857177734375</LongitudeDegrees>
            </Position>
            <AltitudeMeters>518.4000244140625</AltitudeMeters>
            <DistanceMeters>NAN</DistanceMeters>
          </Trackpoint>
          <Trackpoint>
            <Time>2021-04-03T07:08:02.000Z</Time>
            <Position>
              <LatitudeDegrees>42.3126129806041717529296875</LatitudeDegrees>
              <LongitudeDegrees>2.58520516566932201385498046875</LongitudeDegrees>
            </Position>
            <AltitudeMeters>518.5999755859375</AltitudeMeters>
            <DistanceMeters>NAN</DistanceMeters>
          </Trackpoint>
          <Trackpoint>
            <Time>2021-04-03T07:08:09.000Z</Time>
            <Position>
              <LatitudeDegrees>42.31257182545959949493408203125</LatitudeDegrees>
              <LongitudeDegrees>2.5851923413574695587158203125</LongitudeDegrees>
            </Position>
            <AltitudeMeters>519.4000244140625</AltitudeMeters>
            <DistanceMeters>NAN</DistanceMeters>
          </Trackpoint>
          <Trackpoint>
            <Time>2021-04-03T07:08:10.000Z</Time>
            <Position>
              <LatitudeDegrees>42.312566377222537994384765625</LatitudeDegrees>
              <LongitudeDegrees>2.58518882095813751220703125</LongitudeDegrees>
            </Position>
            <AltitudeMeters>519.4000244140625</AltitudeMeters>
            <DistanceMeters>NAN</DistanceMeters>
          </Trackpoint>
          <Trackpoint>
            <Time>2021-04-03T07:08:11.000Z</Time>
            <Position>
              <LatitudeDegrees>42.31256361119449138641357421875</LatitudeDegrees>
              <LongitudeDegrees>2.5851832889020442962646484375</LongitudeDegrees>
            </Position>
            <AltitudeMeters>519.79998779296875</AltitudeMeters>
            <DistanceMeters>NAN</DistanceMeters>
          </Trackpoint>
          <Trackpoint>
            <Time>2021-04-03T07:08:12.000Z</Time>
            <Position>
              <LatitudeDegrees>42.31256059370934963226318359375</LatitudeDegrees>
              <LongitudeDegrees>2.585183121263980865478515625</LongitudeDegrees>
            </Position>
            <AltitudeMeters>519.79998779296875</AltitudeMeters>
            <DistanceMeters>NAN</DistanceMeters>
          </Trackpoint>
          <Trackpoint>
            <Time>2021-04-03T07:08:13.000Z</Time>
            <Position>
              <LatitudeDegrees>42.312552966177463531494140625</LatitudeDegrees>
              <LongitudeDegrees>2.585186474025249481201171875</LongitudeDegrees>
            </Position>
            <AltitudeMeters>520</AltitudeMeters>
            <DistanceMeters>NAN</DistanceMeters>
          </Trackpoint>
          <Trackpoint>
            <Time>2021-04-03T07:08:15.000Z</Time>
            <Position>
              <LatitudeDegrees>42.3125367052853107452392578125</LatitudeDegrees>
              <LongitudeDegrees>2.5851963646709918975830078125</LongitudeDegrees>
            </Position>
            <AltitudeMeters>520</AltitudeMeters>
            <DistanceMeters>NAN</DistanceMeters>
          </Trackpoint>
          <Trackpoint>
            <Time>2021-04-03T07:08:17.000Z</Time>
            <Position>
              <LatitudeDegrees>42.31251633726060390472412109375</LatitudeDegrees>
              <LongitudeDegrees>2.58520365692675113677978515625</LongitudeDegrees>
            </Position>
            <AltitudeMeters>520.4000244140625</AltitudeMeters>
            <DistanceMeters>NAN</DistanceMeters>
          </Trackpoint>
          <Trackpoint>
            <Time>2021-04-03T07:08:18.000Z</Time>
            <Position>
              <LatitudeDegrees>42.3125092126429080963134765625</LatitudeDegrees>
              <LongitudeDegrees>2.58520617149770259857177734375</LongitudeDegrees>
            </Position>
            <AltitudeMeters>520.5999755859375</AltitudeMeters>
            <DistanceMeters>NAN</DistanceMeters>
          </Trackpoint>
          <Trackpoint>
            <Time>2021-04-03T07:08:20.000Z</Time>
            <Position>
              <LatitudeDegrees>42.31249907054007053375244140625</LatitudeDegrees>
              <LongitudeDegrees>2.58521270938217639923095703125</LongitudeDegrees>
            </Position>
            <AltitudeMeters>520.79998779296875</AltitudeMeters>
            <DistanceMeters>NAN</DistanceMeters>
          </Trackpoint>
          <Trackpoint>
            <Time>2021-04-03T07:08:22.000Z</Time>
            <Position>
              <LatitudeDegrees>42.31249085627496242523193359375</LatitudeDegrees>
              <LongitudeDegrees>2.5852111168205738067626953125</LongitudeDegrees>
            </Position>
            <AltitudeMeters>521</AltitudeMeters>
            <DistanceMeters>NAN</DistanceMeters>
          </Trackpoint>
          <Trackpoint>
            <Time>2021-04-03T07:08:23.000Z</Time>
            <Position>
              <LatitudeDegrees>42.31248498894274234771728515625</LatitudeDegrees>
              <LongitudeDegrees>2.58520633913576602935791015625</LongitudeDegrees>
            </Position>
            <AltitudeMeters>521.20001220703125</AltitudeMeters>
            <DistanceMeters>NAN</DistanceMeters>
          </Trackpoint>
          <Trackpoint>
            <Time>2021-04-03T07:08:27.000Z</Time>
            <Position>
              <LatitudeDegrees>42.3124592565000057220458984375</LatitudeDegrees>
              <LongitudeDegrees>2.5852054171264171600341796875</LongitudeDegrees>
            </Position>
            <AltitudeMeters>521.5999755859375</AltitudeMeters>
            <DistanceMeters>NAN</DistanceMeters>
          </Trackpoint>
          <Trackpoint>
            <Time>2021-04-03T07:08:29.000Z</Time>
            <Position>
              <LatitudeDegrees>42.31244609691202640533447265625</LatitudeDegrees>
              <LongitudeDegrees>2.58520047180354595184326171875</LongitudeDegrees>
            </Position>
            <AltitudeMeters>521.79998779296875</AltitudeMeters>
            <DistanceMeters>NAN</DistanceMeters>
          </Trackpoint>
          <Trackpoint>
            <Time>2021-04-03T07:08:35.000Z</Time>
            <Position>
              <LatitudeDegrees>42.3124190233647823333740234375</LatitudeDegrees>
              <LongitudeDegrees>2.585198543965816497802734375</LongitudeDegrees>
            </Position>
            <AltitudeMeters>522.4000244140625</AltitudeMeters>
            <DistanceMeters>NAN</DistanceMeters>
          </Trackpoint>
          <Trackpoint>
            <Time>2021-04-03T07:08:36.000Z</Time>
            <Position>
              <LatitudeDegrees>42.3124158382415771484375</LatitudeDegrees>
              <LongitudeDegrees>2.58519544266164302825927734375</LongitudeDegrees>
            </Position>
            <AltitudeMeters>522.5999755859375</AltitudeMeters>
            <DistanceMeters>NAN</DistanceMeters>
          </Trackpoint>
          <Trackpoint>
            <Time>2021-04-03T07:08:39.000Z</Time>
            <Position>
              <LatitudeDegrees>42.31240167282521724700927734375</LatitudeDegrees>
              <LongitudeDegrees>2.5851775892078876495361328125</LongitudeDegrees>
            </Position>
            <AltitudeMeters>523</AltitudeMeters>
            <DistanceMeters>NAN</DistanceMeters>
          </Trackpoint>
          <Trackpoint>
            <Time>2021-04-03T07:08:44.000Z</Time>
            <Position>
              <LatitudeDegrees>42.31237837113440036773681640625</LatitudeDegrees>
              <LongitudeDegrees>2.585158981382846832275390625</LongitudeDegrees>
            </Position>
            <AltitudeMeters>523.79998779296875</AltitudeMeters>
            <DistanceMeters>NAN</DistanceMeters>
          </Trackpoint>
          <Trackpoint>
            <Time>2021-04-03T07:08:48.000Z</Time>
            <Position>
              <LatitudeDegrees>42.31236864812672138214111328125</LatitudeDegrees>
              <LongitudeDegrees>2.5851507671177387237548828125</LongitudeDegrees>
            </Position>
            <AltitudeMeters>524.4000244140625</AltitudeMeters>
            <DistanceMeters>NAN</DistanceMeters>
          </Trackpoint>
          <Trackpoint>
            <Time>2021-04-03T07:08:52.000Z</Time>
            <Position>
              <LatitudeDegrees>42.312347777187824249267578125</LatitudeDegrees>
              <LongitudeDegrees>2.58515487425029277801513671875</LongitudeDegrees>
            </Position>
            <AltitudeMeters>524.79998779296875</AltitudeMeters>
            <DistanceMeters>NAN</DistanceMeters>
          </Trackpoint>
          <Trackpoint>
            <Time>2021-04-03T07:08:57.000Z</Time>
            <Position>
              <LatitudeDegrees>42.31232992373406887054443359375</LatitudeDegrees>
              <LongitudeDegrees>2.5851226039230823516845703125</LongitudeDegrees>
            </Position>
            <AltitudeMeters>525.4000244140625</AltitudeMeters>
            <DistanceMeters>NAN</DistanceMeters>
          </Trackpoint>
          <Trackpoint>
            <Time>2021-04-03T07:09:01.000Z</Time>
            <Position>
              <LatitudeDegrees>42.3123085498809814453125</LatitudeDegrees>
              <LongitudeDegrees>2.5851232744753360748291015625</LongitudeDegrees>
            </Position>
            <AltitudeMeters>525.79998779296875</AltitudeMeters>
            <DistanceMeters>NAN</DistanceMeters>
          </Trackpoint>
          <Trackpoint>
            <Time>2021-04-03T07:09:04.000Z</Time>
            <Position>
              <LatitudeDegrees>42.3122932948172092437744140625</LatitudeDegrees>
              <LongitudeDegrees>2.585121430456638336181640625</LongitudeDegrees>
            </Position>
            <AltitudeMeters>526.20001220703125</AltitudeMeters>
            <DistanceMeters>NAN</DistanceMeters>
          </Trackpoint>
          <Trackpoint>
            <Time>2021-04-03T07:09:06.000Z</Time>
            <Position>
              <LatitudeDegrees>42.3122696578502655029296875</LatitudeDegrees>
              <LongitudeDegrees>2.58512553758919239044189453125</LongitudeDegrees>
            </Position>
            <AltitudeMeters>526.20001220703125</AltitudeMeters>
            <DistanceMeters>NAN</DistanceMeters>
          </Trackpoint>
          <Trackpoint>
            <Time>2021-04-03T07:09:07.000Z</Time>
            <Position>
              <LatitudeDegrees>42.3122589290142059326171875</LatitudeDegrees>
              <LongitudeDegrees>2.58512017317116260528564453125</LongitudeDegrees>
            </Position>
            <AltitudeMeters>526.4000244140625</AltitudeMeters>
            <DistanceMeters>NAN</DistanceMeters>
          </Trackpoint>
          <Trackpoint>
            <Time>2021-04-03T07:09:11.000Z</Time>
            <Position>
              <LatitudeDegrees>42.31223939917981624603271484375</LatitudeDegrees>
              <LongitudeDegrees>2.58508329279720783233642578125</LongitudeDegrees>
            </Position>
            <AltitudeMeters>526.79998779296875</AltitudeMeters>
            <DistanceMeters>NAN</DistanceMeters>
          </Trackpoint>
          <Trackpoint>
            <Time>2021-04-03T07:09:14.000Z</Time>
            <Position>
              <LatitudeDegrees>42.31222280301153659820556640625</LatitudeDegrees>
              <LongitudeDegrees>2.5850803591310977935791015625</LongitudeDegrees>
            </Position>
            <AltitudeMeters>527</AltitudeMeters>
            <DistanceMeters>NAN</DistanceMeters>
          </Trackpoint>
          <Trackpoint>
            <Time>2021-04-03T07:09:17.000Z</Time>
            <Position>
              <LatitudeDegrees>42.31221274472773075103759765625</LatitudeDegrees>
              <LongitudeDegrees>2.58506887592375278472900390625</LongitudeDegrees>
            </Position>
            <AltitudeMeters>527.4000244140625</AltitudeMeters>
            <DistanceMeters>NAN</DistanceMeters>
          </Trackpoint>
          <Trackpoint>
            <Time>2021-04-03T07:09:18.000Z</Time>
            <Position>
              <LatitudeDegrees>42.31221006251871585845947265625</LatitudeDegrees>
              <LongitudeDegrees>2.585072480142116546630859375</LongitudeDegrees>
            </Position>
            <AltitudeMeters>527.4000244140625</AltitudeMeters>
            <DistanceMeters>NAN</DistanceMeters>
          </Trackpoint>
          <Trackpoint>
            <Time>2021-04-03T07:09:19.000Z</Time>
            <Position>
              <LatitudeDegrees>42.31220805086195468902587890625</LatitudeDegrees>
              <LongitudeDegrees>2.58507004939019680023193359375</LongitudeDegrees>
            </Position>
            <AltitudeMeters>527.5999755859375</AltitudeMeters>
            <DistanceMeters>NAN</DistanceMeters>
          </Trackpoint>
          <Trackpoint>
            <Time>2021-04-03T07:09:21.000Z</Time>
            <Position>
              <LatitudeDegrees>42.31220000423491001129150390625</LatitudeDegrees>
              <LongitudeDegrees>2.58505999110639095306396484375</LongitudeDegrees>
            </Position>
            <AltitudeMeters>527.5999755859375</AltitudeMeters>
            <DistanceMeters>NAN</DistanceMeters>
          </Trackpoint>
          <Trackpoint>
            <Time>2021-04-03T07:09:22.000Z</Time>
            <Position>
              <LatitudeDegrees>42.3121907003223896026611328125</LatitudeDegrees>
              <LongitudeDegrees>2.5850612483918666839599609375</LongitudeDegrees>
            </Position>
            <AltitudeMeters>527.5999755859375</AltitudeMeters>
            <DistanceMeters>NAN</DistanceMeters>
          </Trackpoint>
          <Trackpoint>
            <Time>2021-04-03T07:09:23.000Z</Time>
            <Position>
              <LatitudeDegrees>42.31217871420085430145263671875</LatitudeDegrees>
              <LongitudeDegrees>2.58506434969604015350341796875</LongitudeDegrees>
            </Position>
            <AltitudeMeters>528</AltitudeMeters>
            <DistanceMeters>NAN</DistanceMeters>
          </Trackpoint>
          <Trackpoint>
            <Time>2021-04-03T07:09:25.000Z</Time>
            <Position>
              <LatitudeDegrees>42.312155999243259429931640625</LatitudeDegrees>
              <LongitudeDegrees>2.585080526769161224365234375</LongitudeDegrees>
            </Position>
            <AltitudeMeters>528.20001220703125</AltitudeMeters>
            <DistanceMeters>NAN</DistanceMeters>
          </Trackpoint>
          <Trackpoint>
            <Time>2021-04-03T07:09:26.000Z</Time>
            <Position>
              <LatitudeDegrees>42.31215633451938629150390625</LatitudeDegrees>
              <LongitudeDegrees>2.58508848957717418670654296875</LongitudeDegrees>
            </Position>
            <AltitudeMeters>528.20001220703125</AltitudeMeters>
            <DistanceMeters>NAN</DistanceMeters>
          </Trackpoint>
          <Trackpoint>
            <Time>2021-04-03T07:09:27.000Z</Time>
            <Position>
              <LatitudeDegrees>42.31215809471905231475830078125</LatitudeDegrees>
              <LongitudeDegrees>2.58509268052875995635986328125</LongitudeDegrees>
            </Position>
            <AltitudeMeters>528.20001220703125</AltitudeMeters>
            <DistanceMeters>NAN</DistanceMeters>
          </Trackpoint>
          <Trackpoint>
            <Time>2021-04-03T07:09:29.000Z</Time>
            <Position>
              <LatitudeDegrees>42.31215340085327625274658203125</LatitudeDegrees>
              <LongitudeDegrees>2.58508823812007904052734375</LongitudeDegrees>
            </Position>
            <AltitudeMeters>528.20001220703125</AltitudeMeters>
            <DistanceMeters>NAN</DistanceMeters>
          </Trackpoint>
          <Trackpoint>
            <Time>2021-04-03T07:09:32.000Z</Time>
            <Position>
              <LatitudeDegrees>42.31213579885661602020263671875</LatitudeDegrees>
              <LongitudeDegrees>2.585068456828594207763671875</LongitudeDegrees>
            </Position>
            <AltitudeMeters>528.5999755859375</AltitudeMeters>
            <DistanceMeters>NAN</DistanceMeters>
          </Trackpoint>
          <Trackpoint>
            <Time>2021-04-03T07:09:39.000Z</Time>
            <Position>
              <LatitudeDegrees>42.31211383827030658721923828125</LatitudeDegrees>
              <LongitudeDegrees>2.5850334204733371734619140625</LongitudeDegrees>
            </Position>
            <AltitudeMeters>528.79998779296875</AltitudeMeters>
            <DistanceMeters>NAN</DistanceMeters>
          </Trackpoint>
          <Trackpoint>
            <Time>2021-04-03T07:09:40.000Z</Time>
            <Position>
              <LatitudeDegrees>42.3121115751564502716064453125</LatitudeDegrees>
              <LongitudeDegrees>2.58503551594913005828857421875</LongitudeDegrees>
            </Position>
            <AltitudeMeters>529</AltitudeMeters>
            <DistanceMeters>NAN</DistanceMeters>
          </Trackpoint>
          <Trackpoint>
            <Time>2021-04-03T07:09:42.000Z</Time>
            <Position>
              <LatitudeDegrees>42.31209992431104183197021484375</LatitudeDegrees>
              <LongitudeDegrees>2.5850414671003818511962890625</LongitudeDegrees>
            </Position>
            <AltitudeMeters>529.4000244140625</AltitudeMeters>
            <DistanceMeters>NAN</DistanceMeters>
          </Trackpoint>
          <Trackpoint>
            <Time>2021-04-03T07:09:44.000Z</Time>
            <Position>
              <LatitudeDegrees>42.31209464371204376220703125</LatitudeDegrees>
              <LongitudeDegrees>2.58505596779286861419677734375</LongitudeDegrees>
            </Position>
            <AltitudeMeters>529.5999755859375</AltitudeMeters>
            <DistanceMeters>NAN</DistanceMeters>
          </Trackpoint>
          <Trackpoint>
            <Time>2021-04-03T07:09:46.000Z</Time>
            <Position>
              <LatitudeDegrees>42.312079556286334991455078125</LatitudeDegrees>
              <LongitudeDegrees>2.585070468485355377197265625</LongitudeDegrees>
            </Position>
            <AltitudeMeters>530.20001220703125</AltitudeMeters>
            <DistanceMeters>NAN</DistanceMeters>
          </Trackpoint>
          <Trackpoint>
            <Time>2021-04-03T07:09:47.000Z</Time>
            <Position>
              <LatitudeDegrees>42.31208165176212787628173828125</LatitudeDegrees>
              <LongitudeDegrees>2.5850739888846874237060546875</LongitudeDegrees>
            </Position>
            <AltitudeMeters>530.4000244140625</AltitudeMeters>
            <DistanceMeters>NAN</DistanceMeters>
          </Trackpoint>
          <Trackpoint>
            <Time>2021-04-03T07:09:48.000Z</Time>
            <Position>
              <LatitudeDegrees>42.3120773769915103912353515625</LatitudeDegrees>
              <LongitudeDegrees>2.5850840471684932708740234375</LongitudeDegrees>
            </Position>
            <AltitudeMeters>530.4000244140625</AltitudeMeters>
            <DistanceMeters>NAN</DistanceMeters>
          </Trackpoint>
          <Trackpoint>
            <Time>2021-04-03T07:09:52.000Z</Time>
            <Position>
              <LatitudeDegrees>42.312076203525066375732421875</LatitudeDegrees>
              <LongitudeDegrees>2.5850994698703289031982421875</LongitudeDegrees>
            </Position>
            <AltitudeMeters>530.5999755859375</AltitudeMeters>
            <DistanceMeters>NAN</DistanceMeters>
          </Trackpoint>
          <Trackpoint>
            <Time>2021-04-03T07:09:57.000Z</Time>
            <Position>
              <LatitudeDegrees>42.3120458610355854034423828125</LatitudeDegrees>
              <LongitudeDegrees>2.5851474143564701080322265625</LongitudeDegrees>
            </Position>
            <AltitudeMeters>531.20001220703125</AltitudeMeters>
            <DistanceMeters>NAN</DistanceMeters>
          </Trackpoint>
          <Trackpoint>
            <Time>2021-04-03T07:09:58.000Z</Time>
            <Position>
              <LatitudeDegrees>42.31203295290470123291015625</LatitudeDegrees>
              <LongitudeDegrees>2.58516208268702030181884765625</LongitudeDegrees>
            </Position>
            <AltitudeMeters>531.20001220703125</AltitudeMeters>
            <DistanceMeters>NAN</DistanceMeters>
          </Trackpoint>
          <Trackpoint>
            <Time>2021-04-03T07:10:01.000Z</Time>
            <Position>
              <LatitudeDegrees>42.312014512717723846435546875</LatitudeDegrees>
              <LongitudeDegrees>2.585192508995532989501953125</LongitudeDegrees>
            </Position>
            <AltitudeMeters>531.5999755859375</AltitudeMeters>
            <DistanceMeters>NAN</DistanceMeters>
          </Trackpoint>
          <Trackpoint>
            <Time>2021-04-03T07:10:03.000Z</Time>
            <Position>
              <LatitudeDegrees>42.31201007030904293060302734375</LatitudeDegrees>
              <LongitudeDegrees>2.58520399220287799835205078125</LongitudeDegrees>
            </Position>
            <AltitudeMeters>531.5999755859375</AltitudeMeters>
            <DistanceMeters>NAN</DistanceMeters>
          </Trackpoint>
          <Trackpoint>
            <Time>2021-04-03T07:10:04.000Z</Time>
            <Position>
              <LatitudeDegrees>42.3120076395571231842041015625</LatitudeDegrees>
              <LongitudeDegrees>2.58520868606865406036376953125</LongitudeDegrees>
            </Position>
            <AltitudeMeters>531.79998779296875</AltitudeMeters>
            <DistanceMeters>NAN</DistanceMeters>
          </Trackpoint>
          <Trackpoint>
            <Time>2021-04-03T07:10:05.000Z</Time>
            <Position>
              <LatitudeDegrees>42.3120056279003620147705078125</LatitudeDegrees>
              <LongitudeDegrees>2.585213966667652130126953125</LongitudeDegrees>
            </Position>
            <AltitudeMeters>532</AltitudeMeters>
            <DistanceMeters>NAN</DistanceMeters>
          </Trackpoint>
          <Trackpoint>
            <Time>2021-04-03T07:10:09.000Z</Time>
            <Position>
              <LatitudeDegrees>42.31198039837181568145751953125</LatitudeDegrees>
              <LongitudeDegrees>2.5852449797093868255615234375</LongitudeDegrees>
            </Position>
            <AltitudeMeters>532.20001220703125</AltitudeMeters>
            <DistanceMeters>NAN</DistanceMeters>
          </Trackpoint>
          <Trackpoint>
            <Time>2021-04-03T07:10:11.000Z</Time>
            <Position>
              <LatitudeDegrees>42.31196857988834381103515625</LatitudeDegrees>
              <LongitudeDegrees>2.58525880984961986541748046875</LongitudeDegrees>
            </Position>
            <AltitudeMeters>532.4000244140625</AltitudeMeters>
            <DistanceMeters>NAN</DistanceMeters>
          </Trackpoint>
          <Trackpoint>
            <Time>2021-04-03T07:10:18.000Z</Time>
            <Position>
              <LatitudeDegrees>42.31192356906831264495849609375</LatitudeDegrees>
              <LongitudeDegrees>2.58531077764928340911865234375</LongitudeDegrees>
            </Position>
            <AltitudeMeters>533</AltitudeMeters>
            <DistanceMeters>NAN</DistanceMeters>
          </Trackpoint>
          <Trackpoint>
            <Time>2021-04-03T07:10:19.000Z</Time>
            <Position>
              <LatitudeDegrees>42.311917282640933990478515625</LatitudeDegrees>
              <LongitudeDegrees>2.58532133884727954864501953125</LongitudeDegrees>
            </Position>
            <AltitudeMeters>533</AltitudeMeters>
            <DistanceMeters>NAN</DistanceMeters>
          </Trackpoint>
          <Trackpoint>
            <Time>2021-04-03T07:10:20.000Z</Time>
            <Position>
              <LatitudeDegrees>42.31191082857549190521240234375</LatitudeDegrees>
              <LongitudeDegrees>2.58533039130270481109619140625</LongitudeDegrees>
            </Position>
            <AltitudeMeters>533</AltitudeMeters>
            <DistanceMeters>NAN</DistanceMeters>
          </Trackpoint>
          <Trackpoint>
            <Time>2021-04-03T07:10:22.000Z</Time>
            <Position>
              <LatitudeDegrees>42.31190043501555919647216796875</LatitudeDegrees>
              <LongitudeDegrees>2.585354112088680267333984375</LongitudeDegrees>
            </Position>
            <AltitudeMeters>533</AltitudeMeters>
            <DistanceMeters>NAN</DistanceMeters>
          </Trackpoint>
          <Trackpoint>
            <Time>2021-04-03T07:10:24.000Z</Time>
            <Position>
              <LatitudeDegrees>42.31189356185495853424072265625</LatitudeDegrees>
              <LongitudeDegrees>2.58537246845662593841552734375</LongitudeDegrees>
            </Position>
            <AltitudeMeters>533</AltitudeMeters>
            <DistanceMeters>NAN</DistanceMeters>
          </Trackpoint>
          <Trackpoint>
            <Time>2021-04-03T07:10:26.000Z</Time>
            <Position>
              <LatitudeDegrees>42.3118788935244083404541015625</LatitudeDegrees>
              <LongitudeDegrees>2.58540197275578975677490234375</LongitudeDegrees>
            </Position>
            <AltitudeMeters>533.20001220703125</AltitudeMeters>
            <DistanceMeters>NAN</DistanceMeters>
          </Trackpoint>
          <Trackpoint>
            <Time>2021-04-03T07:10:29.000Z</Time>
            <Position>
              <LatitudeDegrees>42.3118554241955280303955078125</LatitudeDegrees>
              <LongitudeDegrees>2.5854313932359218597412109375</LongitudeDegrees>
            </Position>
            <AltitudeMeters>533.20001220703125</AltitudeMeters>
            <DistanceMeters>NAN</DistanceMeters>
          </Trackpoint>
          <Trackpoint>
            <Time>2021-04-03T07:10:30.000Z</Time>
            <Position>
              <LatitudeDegrees>42.311847209930419921875</LatitudeDegrees>
              <LongitudeDegrees>2.58544094860553741455078125</LongitudeDegrees>
            </Position>
            <AltitudeMeters>533.20001220703125</AltitudeMeters>
            <DistanceMeters>NAN</DistanceMeters>
          </Trackpoint>
          <Trackpoint>
            <Time>2021-04-03T07:10:31.000Z</Time>
            <Position>
              <LatitudeDegrees>42.3118400014936923980712890625</LatitudeDegrees>
              <LongitudeDegrees>2.585454024374485015869140625</LongitudeDegrees>
            </Position>
            <AltitudeMeters>533.20001220703125</AltitudeMeters>
            <DistanceMeters>NAN</DistanceMeters>
          </Trackpoint>
          <Trackpoint>
            <Time>2021-04-03T07:10:35.000Z</Time>
            <Position>
              <LatitudeDegrees>42.31180689297616481781005859375</LatitudeDegrees>
              <LongitudeDegrees>2.58547715842723846435546875</LongitudeDegrees>
            </Position>
            <AltitudeMeters>533.4000244140625</AltitudeMeters>
            <DistanceMeters>NAN</DistanceMeters>
          </Trackpoint>
          <Trackpoint>
            <Time>2021-04-03T07:10:39.000Z</Time>
            <Position>
              <LatitudeDegrees>42.31178174726665019989013671875</LatitudeDegrees>
              <LongitudeDegrees>2.5855100154876708984375</LongitudeDegrees>
            </Position>
            <AltitudeMeters>533.4000244140625</AltitudeMeters>
            <DistanceMeters>NAN</DistanceMeters>
          </Trackpoint>
          <Trackpoint>
            <Time>2021-04-03T07:10:41.000Z</Time>
            <Position>
              <LatitudeDegrees>42.311769090592861175537109375</LatitudeDegrees>
              <LongitudeDegrees>2.58552636019885540008544921875</LongitudeDegrees>
            </Position>
            <AltitudeMeters>533.20001220703125</AltitudeMeters>
            <DistanceMeters>NAN</DistanceMeters>
          </Trackpoint>
          <Trackpoint>
            <Time>2021-04-03T07:10:46.000Z</Time>
            <Position>
              <LatitudeDegrees>42.311727516353130340576171875</LatitudeDegrees>
              <LongitudeDegrees>2.58555821143090724945068359375</LongitudeDegrees>
            </Position>
            <AltitudeMeters>532.79998779296875</AltitudeMeters>
            <DistanceMeters>NAN</DistanceMeters>
          </Trackpoint>
          <Trackpoint>
            <Time>2021-04-03T07:10:47.000Z</Time>
            <Position>
              <LatitudeDegrees>42.3117193020880222320556640625</LatitudeDegrees>
              <LongitudeDegrees>2.585561983287334442138671875</LongitudeDegrees>
            </Position>
            <AltitudeMeters>532.79998779296875</AltitudeMeters>
            <DistanceMeters>NAN</DistanceMeters>
          </Trackpoint>
          <Trackpoint>
            <Time>2021-04-03T07:10:49.000Z</Time>
            <Position>
              <LatitudeDegrees>42.3117035441100597381591796875</LatitudeDegrees>
              <LongitudeDegrees>2.5855715386569499969482421875</LongitudeDegrees>
            </Position>
            <AltitudeMeters>532.5999755859375</AltitudeMeters>
            <DistanceMeters>NAN</DistanceMeters>
          </Trackpoint>
          <Trackpoint>
            <Time>2021-04-03T07:10:50.000Z</Time>
            <Position>
              <LatitudeDegrees>42.3116928152740001678466796875</LatitudeDegrees>
              <LongitudeDegrees>2.58557916618883609771728515625</LongitudeDegrees>
            </Position>
            <AltitudeMeters>532.5999755859375</AltitudeMeters>
            <DistanceMeters>NAN</DistanceMeters>
          </Trackpoint>
          <Trackpoint>
            <Time>2021-04-03T07:10:56.000Z</Time>
            <Position>
              <LatitudeDegrees>42.3116364888846874237060546875</LatitudeDegrees>
              <LongitudeDegrees>2.58561923168599605560302734375</LongitudeDegrees>
            </Position>
            <AltitudeMeters>532.5999755859375</AltitudeMeters>
            <DistanceMeters>NAN</DistanceMeters>
          </Trackpoint>
          <Trackpoint>
            <Time>2021-04-03T07:10:59.000Z</Time>
            <Position>
              <LatitudeDegrees>42.311613857746124267578125</LatitudeDegrees>
              <LongitudeDegrees>2.58563633076846599578857421875</LongitudeDegrees>
            </Position>
            <AltitudeMeters>532.5999755859375</AltitudeMeters>
            <DistanceMeters>NAN</DistanceMeters>
          </Trackpoint>
          <Trackpoint>
            <Time>2021-04-03T07:11:02.000Z</Time>
            <Position>
              <LatitudeDegrees>42.31159214861690998077392578125</LatitudeDegrees>
              <LongitudeDegrees>2.58564186282455921173095703125</LongitudeDegrees>
            </Position>
            <AltitudeMeters>532.5999755859375</AltitudeMeters>
            <DistanceMeters>NAN</DistanceMeters>
          </Trackpoint>
          <Trackpoint>
            <Time>2021-04-03T07:11:06.000Z</Time>
            <Position>
              <LatitudeDegrees>42.3115476407110691070556640625</LatitudeDegrees>
              <LongitudeDegrees>2.5856654159724712371826171875</LongitudeDegrees>
            </Position>
            <AltitudeMeters>532.5999755859375</AltitudeMeters>
            <DistanceMeters>NAN</DistanceMeters>
          </Trackpoint>
          <Trackpoint>
            <Time>2021-04-03T07:11:08.000Z</Time>
            <Position>
              <LatitudeDegrees>42.311535738408565521240234375</LatitudeDegrees>
              <LongitudeDegrees>2.58567471988499164581298828125</LongitudeDegrees>
            </Position>
            <AltitudeMeters>532.4000244140625</AltitudeMeters>
            <DistanceMeters>NAN</DistanceMeters>
          </Trackpoint>
          <Trackpoint>
            <Time>2021-04-03T07:11:11.000Z</Time>
            <Position>
              <LatitudeDegrees>42.31152065098285675048828125</LatitudeDegrees>
              <LongitudeDegrees>2.5857006199657917022705078125</LongitudeDegrees>
            </Position>
            <AltitudeMeters>532.4000244140625</AltitudeMeters>
            <DistanceMeters>NAN</DistanceMeters>
          </Trackpoint>
          <Trackpoint>
            <Time>2021-04-03T07:11:13.000Z</Time>
            <Position>
              <LatitudeDegrees>42.3115146160125732421875</LatitudeDegrees>
              <LongitudeDegrees>2.58571981452405452728271484375</LongitudeDegrees>
            </Position>
            <AltitudeMeters>532.20001220703125</AltitudeMeters>
            <DistanceMeters>NAN</DistanceMeters>
          </Trackpoint>
          <Trackpoint>
            <Time>2021-04-03T07:11:14.000Z</Time>
            <Position>
              <LatitudeDegrees>42.311509586870670318603515625</LatitudeDegrees>
              <LongitudeDegrees>2.58572551421821117401123046875</LongitudeDegrees>
            </Position>
            <AltitudeMeters>532.20001220703125</AltitudeMeters>
            <DistanceMeters>NAN</DistanceMeters>
          </Trackpoint>
          <Trackpoint>
            <Time>2021-04-03T07:11:16.000Z</Time>
            <Position>
              <LatitudeDegrees>42.31150321662425994873046875</LatitudeDegrees>
              <LongitudeDegrees>2.58574227802455425262451171875</LongitudeDegrees>
            </Position>
            <AltitudeMeters>532</AltitudeMeters>
            <DistanceMeters>NAN</DistanceMeters>
          </Trackpoint>
          <Trackpoint>
            <Time>2021-04-03T07:11:19.000Z</Time>
            <Position>
              <LatitudeDegrees>42.3114998638629913330078125</LatitudeDegrees>
              <LongitudeDegrees>2.58577580563724040985107421875</LongitudeDegrees>
            </Position>
            <AltitudeMeters>531.79998779296875</AltitudeMeters>
            <DistanceMeters>NAN</DistanceMeters>
          </Trackpoint>
          <Trackpoint>
            <Time>2021-04-03T07:11:22.000Z</Time>
            <Position>
              <LatitudeDegrees>42.31146675534546375274658203125</LatitudeDegrees>
              <LongitudeDegrees>2.58579039014875888824462890625</LongitudeDegrees>
            </Position>
            <AltitudeMeters>532.5999755859375</AltitudeMeters>
            <DistanceMeters>NAN</DistanceMeters>
          </Trackpoint>
          <Trackpoint>
            <Time>2021-04-03T07:11:24.000Z</Time>
            <Position>
              <LatitudeDegrees>42.31144513003528118133544921875</LatitudeDegrees>
              <LongitudeDegrees>2.58581067435443401336669921875</LongitudeDegrees>
            </Position>
            <AltitudeMeters>532.20001220703125</AltitudeMeters>
            <DistanceMeters>NAN</DistanceMeters>
          </Trackpoint>
          <Trackpoint>
            <Time>2021-04-03T07:11:25.000Z</Time>
            <Position>
              <LatitudeDegrees>42.3114353232085704803466796875</LatitudeDegrees>
              <LongitudeDegrees>2.58581922389566898345947265625</LongitudeDegrees>
            </Position>
            <AltitudeMeters>532.20001220703125</AltitudeMeters>
            <DistanceMeters>NAN</DistanceMeters>
          </Trackpoint>
          <Trackpoint>
            <Time>2021-04-03T07:11:27.000Z</Time>
            <Position>
              <LatitudeDegrees>42.31142283417284488677978515625</LatitudeDegrees>
              <LongitudeDegrees>2.5858494825661182403564453125</LongitudeDegrees>
            </Position>
            <AltitudeMeters>532.20001220703125</AltitudeMeters>
            <DistanceMeters>NAN</DistanceMeters>
          </Trackpoint>
          <Trackpoint>
            <Time>2021-04-03T07:11:29.000Z</Time>
            <Position>
              <LatitudeDegrees>42.311404980719089508056640625</LatitudeDegrees>
              <LongitudeDegrees>2.58585191331803798675537109375</LongitudeDegrees>
            </Position>
            <AltitudeMeters>532.20001220703125</AltitudeMeters>
            <DistanceMeters>NAN</DistanceMeters>
          </Trackpoint>
          <Trackpoint>
            <Time>2021-04-03T07:11:30.000Z</Time>
            <Position>
              <LatitudeDegrees>42.3114001192152500152587890625</LatitudeDegrees>
              <LongitudeDegrees>2.585862390697002410888671875</LongitudeDegrees>
            </Position>
            <AltitudeMeters>532.20001220703125</AltitudeMeters>
            <DistanceMeters>NAN</DistanceMeters>
          </Trackpoint>
          <Trackpoint>
            <Time>2021-04-03T07:11:39.000Z</Time>
            <Position>
              <LatitudeDegrees>42.31131504289805889129638671875</LatitudeDegrees>
              <LongitudeDegrees>2.5859336368739604949951171875</LongitudeDegrees>
            </Position>
            <AltitudeMeters>532</AltitudeMeters>
            <DistanceMeters>NAN</DistanceMeters>
          </Trackpoint>
          <Trackpoint>
            <Time>2021-04-03T07:11:42.000Z</Time>
            <Position>
              <LatitudeDegrees>42.31129744090139865875244140625</LatitudeDegrees>
              <LongitudeDegrees>2.58594042621552944183349609375</LongitudeDegrees>
            </Position>
            <AltitudeMeters>532.20001220703125</AltitudeMeters>
            <DistanceMeters>NAN</DistanceMeters>
          </Trackpoint>
          <Trackpoint>
            <Time>2021-04-03T07:11:43.000Z</Time>
            <Position>
              <LatitudeDegrees>42.311290316283702850341796875</LatitudeDegrees>
              <LongitudeDegrees>2.58594922721385955810546875</LongitudeDegrees>
            </Position>
            <AltitudeMeters>532.4000244140625</AltitudeMeters>
            <DistanceMeters>NAN</DistanceMeters>
          </Trackpoint>
          <Trackpoint>
            <Time>2021-04-03T07:11:44.000Z</Time>
            <Position>
              <LatitudeDegrees>42.31128838844597339630126953125</LatitudeDegrees>
              <LongitudeDegrees>2.5859592854976654052734375</LongitudeDegrees>
            </Position>
            <AltitudeMeters>532.4000244140625</AltitudeMeters>
            <DistanceMeters>NAN</DistanceMeters>
          </Trackpoint>
          <Trackpoint>
            <Time>2021-04-03T07:11:46.000Z</Time>
            <Position>
              <LatitudeDegrees>42.31128134764730930328369140625</LatitudeDegrees>
              <LongitudeDegrees>2.5859778933227062225341796875</LongitudeDegrees>
            </Position>
            <AltitudeMeters>532.4000244140625</AltitudeMeters>
            <DistanceMeters>NAN</DistanceMeters>
          </Trackpoint>
          <Trackpoint>
            <Time>2021-04-03T07:11:48.000Z</Time>
            <Position>
              <LatitudeDegrees>42.3112774081528186798095703125</LatitudeDegrees>
              <LongitudeDegrees>2.58600329048931598663330078125</LongitudeDegrees>
            </Position>
            <AltitudeMeters>532.4000244140625</AltitudeMeters>
            <DistanceMeters>NAN</DistanceMeters>
          </Trackpoint>
          <Trackpoint>
            <Time>2021-04-03T07:11:50.000Z</Time>
            <Position>
              <LatitudeDegrees>42.31125201098620891571044921875</LatitudeDegrees>
              <LongitudeDegrees>2.58603799156844615936279296875</LongitudeDegrees>
            </Position>
            <AltitudeMeters>532.4000244140625</AltitudeMeters>
            <DistanceMeters>NAN</DistanceMeters>
          </Trackpoint>
          <Trackpoint>
            <Time>2021-04-03T07:11:51.000Z</Time>
            <Position>
              <LatitudeDegrees>42.311246395111083984375</LatitudeDegrees>
              <LongitudeDegrees>2.58605559356510639190673828125</LongitudeDegrees>
            </Position>
            <AltitudeMeters>532.4000244140625</AltitudeMeters>
            <DistanceMeters>NAN</DistanceMeters>
          </Trackpoint>
          <Trackpoint>
            <Time>2021-04-03T07:11:53.000Z</Time>
            <Position>
              <LatitudeDegrees>42.31124312616884708404541015625</LatitudeDegrees>
              <LongitudeDegrees>2.5860878638923168182373046875</LongitudeDegrees>
            </Position>
            <AltitudeMeters>532.4000244140625</AltitudeMeters>
            <DistanceMeters>NAN</DistanceMeters>
          </Trackpoint>
          <Trackpoint>
            <Time>2021-04-03T07:11:56.000Z</Time>
            <Position>
              <LatitudeDegrees>42.31122770346701145172119140625</LatitudeDegrees>
              <LongitudeDegrees>2.5861314497888088226318359375</LongitudeDegrees>
            </Position>
            <AltitudeMeters>532.20001220703125</AltitudeMeters>
            <DistanceMeters>NAN</DistanceMeters>
          </Trackpoint>
          <Trackpoint>
            <Time>2021-04-03T07:11:59.000Z</Time>
            <Position>
              <LatitudeDegrees>42.31120943091809749603271484375</LatitudeDegrees>
              <LongitudeDegrees>2.58616103790700435638427734375</LongitudeDegrees>
            </Position>
            <AltitudeMeters>532.4000244140625</AltitudeMeters>
            <DistanceMeters>NAN</DistanceMeters>
          </Trackpoint>
          <Trackpoint>
            <Time>2021-04-03T07:12:04.000Z</Time>
            <Position>
              <LatitudeDegrees>42.31118646450340747833251953125</LatitudeDegrees>
              <LongitudeDegrees>2.58620797656476497650146484375</LongitudeDegrees>
            </Position>
            <AltitudeMeters>533</AltitudeMeters>
            <DistanceMeters>NAN</DistanceMeters>
          </Trackpoint>
          <Trackpoint>
            <Time>2021-04-03T07:12:06.000Z</Time>
            <Position>
              <LatitudeDegrees>42.31117741204798221588134765625</LatitudeDegrees>
              <LongitudeDegrees>2.586228847503662109375</LongitudeDegrees>
            </Position>
            <AltitudeMeters>533.4000244140625</AltitudeMeters>
            <DistanceMeters>NAN</DistanceMeters>
          </Trackpoint>
          <Trackpoint>
            <Time>2021-04-03T07:12:07.000Z</Time>
            <Position>
              <LatitudeDegrees>42.31117422692477703094482421875</LatitudeDegrees>
              <LongitudeDegrees>2.58623731322586536407470703125</LongitudeDegrees>
            </Position>
            <AltitudeMeters>533.4000244140625</AltitudeMeters>
            <DistanceMeters>NAN</DistanceMeters>
          </Trackpoint>
          <Trackpoint>
            <Time>2021-04-03T07:12:10.000Z</Time>
            <Position>
              <LatitudeDegrees>42.31115930713713169097900390625</LatitudeDegrees>
              <LongitudeDegrees>2.58626380003988742828369140625</LongitudeDegrees>
            </Position>
            <AltitudeMeters>534</AltitudeMeters>
            <DistanceMeters>NAN</DistanceMeters>
          </Trackpoint>
          <Trackpoint>
            <Time>2021-04-03T07:12:12.000Z</Time>
            <Position>
              <LatitudeDegrees>42.31114706955850124359130859375</LatitudeDegrees>
              <LongitudeDegrees>2.5862675718963146209716796875</LongitudeDegrees>
            </Position>
            <AltitudeMeters>534.4000244140625</AltitudeMeters>
            <DistanceMeters>NAN</DistanceMeters>
          </Trackpoint>
          <Trackpoint>
            <Time>2021-04-03T07:12:13.000Z</Time>
            <Position>
              <LatitudeDegrees>42.31113214977085590362548828125</LatitudeDegrees>
              <LongitudeDegrees>2.58627234958112239837646484375</LongitudeDegrees>
            </Position>
            <AltitudeMeters>534.5999755859375</AltitudeMeters>
            <DistanceMeters>NAN</DistanceMeters>
          </Trackpoint>
          <Trackpoint>
            <Time>2021-04-03T07:12:19.000Z</Time>
            <Position>
              <LatitudeDegrees>42.31109015643596649169921875</LatitudeDegrees>
              <LongitudeDegrees>2.58631224744021892547607421875</LongitudeDegrees>
            </Position>
            <AltitudeMeters>535.20001220703125</AltitudeMeters>
            <DistanceMeters>NAN</DistanceMeters>
          </Trackpoint>
          <Trackpoint>
            <Time>2021-04-03T07:12:21.000Z</Time>
            <Position>
              <LatitudeDegrees>42.31107649393379688262939453125</LatitudeDegrees>
              <LongitudeDegrees>2.5863285921514034271240234375</LongitudeDegrees>
            </Position>
            <AltitudeMeters>535.5999755859375</AltitudeMeters>
            <DistanceMeters>NAN</DistanceMeters>
          </Trackpoint>
          <Trackpoint>
            <Time>2021-04-03T07:12:24.000Z</Time>
            <Position>
              <LatitudeDegrees>42.31106610037386417388916015625</LatitudeDegrees>
              <LongitudeDegrees>2.58633085526525974273681640625</LongitudeDegrees>
            </Position>
            <AltitudeMeters>536.20001220703125</AltitudeMeters>
            <DistanceMeters>NAN</DistanceMeters>
          </Trackpoint>
          <Trackpoint>
            <Time>2021-04-03T07:12:25.000Z</Time>
            <Position>
              <LatitudeDegrees>42.311064340174198150634765625</LatitudeDegrees>
              <LongitudeDegrees>2.586324401199817657470703125</LongitudeDegrees>
            </Position>
            <AltitudeMeters>536.4000244140625</AltitudeMeters>
            <DistanceMeters>NAN</DistanceMeters>
          </Trackpoint>
          <Trackpoint>
            <Time>2021-04-03T07:12:27.000Z</Time>
            <Position>
              <LatitudeDegrees>42.3110584728419780731201171875</LatitudeDegrees>
              <LongitudeDegrees>2.58630520664155483245849609375</LongitudeDegrees>
            </Position>
            <AltitudeMeters>536.79998779296875</AltitudeMeters>
            <DistanceMeters>NAN</DistanceMeters>
          </Trackpoint>
          <Trackpoint>
            <Time>2021-04-03T07:12:28.000Z</Time>
            <Position>
              <LatitudeDegrees>42.31105905957520008087158203125</LatitudeDegrees>
              <LongitudeDegrees>2.58629657328128814697265625</LongitudeDegrees>
            </Position>
            <AltitudeMeters>537</AltitudeMeters>
            <DistanceMeters>NAN</DistanceMeters>
          </Trackpoint>
          <Trackpoint>
            <Time>2021-04-03T07:12:32.000Z</Time>
            <Position>
              <LatitudeDegrees>42.31105403043329715728759765625</LatitudeDegrees>
              <LongitudeDegrees>2.58627234958112239837646484375</LongitudeDegrees>
            </Position>
            <AltitudeMeters>537.5999755859375</AltitudeMeters>
            <DistanceMeters>NAN</DistanceMeters>
          </Trackpoint>
          <Trackpoint>
            <Time>2021-04-03T07:12:33.000Z</Time>
            <Position>
              <LatitudeDegrees>42.31105151586234569549560546875</LatitudeDegrees>
              <LongitudeDegrees>2.586264722049236297607421875</LongitudeDegrees>
            </Position>
            <AltitudeMeters>537.79998779296875</AltitudeMeters>
            <DistanceMeters>NAN</DistanceMeters>
          </Trackpoint>
          <Trackpoint>
            <Time>2021-04-03T07:12:34.000Z</Time>
            <Position>
              <LatitudeDegrees>42.3110519349575042724609375</LatitudeDegrees>
              <LongitudeDegrees>2.5862591899931430816650390625</LongitudeDegrees>
            </Position>
            <AltitudeMeters>538</AltitudeMeters>
            <DistanceMeters>NAN</DistanceMeters>
          </Trackpoint>
          <Trackpoint>
            <Time>2021-04-03T07:12:38.000Z</Time>
            <Position>
              <LatitudeDegrees>42.3110551200807094573974609375</LatitudeDegrees>
              <LongitudeDegrees>2.58623094297945499420166015625</LongitudeDegrees>
            </Position>
            <AltitudeMeters>538.79998779296875</AltitudeMeters>
            <DistanceMeters>NAN</DistanceMeters>
          </Trackpoint>
          <Trackpoint>
            <Time>2021-04-03T07:12:39.000Z</Time>
            <Position>
              <LatitudeDegrees>42.31105620972812175750732421875</LatitudeDegrees>
              <LongitudeDegrees>2.5862283445894718170166015625</LongitudeDegrees>
            </Position>
            <AltitudeMeters>539</AltitudeMeters>
            <DistanceMeters>NAN</DistanceMeters>
          </Trackpoint>
          <Trackpoint>
            <Time>2021-04-03T07:12:40.000Z</Time>
            <Position>
              <LatitudeDegrees>42.31105805374681949615478515625</LatitudeDegrees>
              <LongitudeDegrees>2.5862256623804569244384765625</LongitudeDegrees>
            </Position>
            <AltitudeMeters>539.20001220703125</AltitudeMeters>
            <DistanceMeters>NAN</DistanceMeters>
          </Trackpoint>
          <Trackpoint>
            <Time>2021-04-03T07:12:45.000Z</Time>
            <Position>
              <LatitudeDegrees>42.3110668547451496124267578125</LatitudeDegrees>
              <LongitudeDegrees>2.58620143868029117584228515625</LongitudeDegrees>
            </Position>
            <AltitudeMeters>540</AltitudeMeters>
            <DistanceMeters>NAN</DistanceMeters>
          </Trackpoint>
          <Trackpoint>
            <Time>2021-04-03T07:12:48.000Z</Time>
            <Position>
              <LatitudeDegrees>42.3110708780586719512939453125</LatitudeDegrees>
              <LongitudeDegrees>2.586172856390476226806640625</LongitudeDegrees>
            </Position>
            <AltitudeMeters>540.5999755859375</AltitudeMeters>
            <DistanceMeters>NAN</DistanceMeters>
          </Trackpoint>
          <Trackpoint>
            <Time>2021-04-03T07:12:52.000Z</Time>
            <Position>
              <LatitudeDegrees>42.3110854625701904296875</LatitudeDegrees>
              <LongitudeDegrees>2.586150728166103363037109375</LongitudeDegrees>
            </Position>
            <AltitudeMeters>541.20001220703125</AltitudeMeters>
            <DistanceMeters>NAN</DistanceMeters>
          </Trackpoint>
          <Trackpoint>
            <Time>2021-04-03T07:12:55.000Z</Time>
            <Position>
              <LatitudeDegrees>42.31111773289740085601806640625</LatitudeDegrees>
              <LongitudeDegrees>2.58614276535809040069580078125</LongitudeDegrees>
            </Position>
            <AltitudeMeters>541.5999755859375</AltitudeMeters>
            <DistanceMeters>NAN</DistanceMeters>
          </Trackpoint>
          <Trackpoint>
            <Time>2021-04-03T07:12:56.000Z</Time>
            <Position>
              <LatitudeDegrees>42.31112175621092319488525390625</LatitudeDegrees>
              <LongitudeDegrees>2.58613832294940948486328125</LongitudeDegrees>
            </Position>
            <AltitudeMeters>541.5999755859375</AltitudeMeters>
            <DistanceMeters>NAN</DistanceMeters>
          </Trackpoint>
          <Trackpoint>
            <Time>2021-04-03T07:12:59.000Z</Time>
            <Position>
              <LatitudeDegrees>42.3111463151872158050537109375</LatitudeDegrees>
              <LongitudeDegrees>2.58611694909632205963134765625</LongitudeDegrees>
            </Position>
            <AltitudeMeters>542.20001220703125</AltitudeMeters>
            <DistanceMeters>NAN</DistanceMeters>
          </Trackpoint>
          <Trackpoint>
            <Time>2021-04-03T07:13:04.000Z</Time>
            <Position>
              <LatitudeDegrees>42.31113617308437824249267578125</LatitudeDegrees>
              <LongitudeDegrees>2.58609934709966182708740234375</LongitudeDegrees>
            </Position>
            <AltitudeMeters>543</AltitudeMeters>
            <DistanceMeters>NAN</DistanceMeters>
          </Trackpoint>
          <Trackpoint>
            <Time>2021-04-03T07:13:06.000Z</Time>
            <Position>
              <LatitudeDegrees>42.3111402802169322967529296875</LatitudeDegrees>
              <LongitudeDegrees>2.58609280921518802642822265625</LongitudeDegrees>
            </Position>
            <AltitudeMeters>543.20001220703125</AltitudeMeters>
            <DistanceMeters>NAN</DistanceMeters>
          </Trackpoint>
          <Trackpoint>
            <Time>2021-04-03T07:13:10.000Z</Time>
            <Position>
              <LatitudeDegrees>42.31113349087536334991455078125</LatitudeDegrees>
              <LongitudeDegrees>2.58608660660684108734130859375</LongitudeDegrees>
            </Position>
            <AltitudeMeters>544</AltitudeMeters>
            <DistanceMeters>NAN</DistanceMeters>
          </Trackpoint>
          <Trackpoint>
            <Time>2021-04-03T07:13:11.000Z</Time>
            <Position>
              <LatitudeDegrees>42.31113365851342678070068359375</LatitudeDegrees>
              <LongitudeDegrees>2.586079649627208709716796875</LongitudeDegrees>
            </Position>
            <AltitudeMeters>544</AltitudeMeters>
            <DistanceMeters>NAN</DistanceMeters>
          </Trackpoint>
          <Trackpoint>
            <Time>2021-04-03T07:13:14.000Z</Time>
            <Position>
              <LatitudeDegrees>42.3111312277615070343017578125</LatitudeDegrees>
              <LongitudeDegrees>2.5860593654215335845947265625</LongitudeDegrees>
            </Position>
            <AltitudeMeters>544.4000244140625</AltitudeMeters>
            <DistanceMeters>NAN</DistanceMeters>
          </Trackpoint>
          <Trackpoint>
            <Time>2021-04-03T07:13:18.000Z</Time>
            <Position>
              <LatitudeDegrees>42.31112770736217498779296875</LatitudeDegrees>
              <LongitudeDegrees>2.5860586948692798614501953125</LongitudeDegrees>
            </Position>
            <AltitudeMeters>545</AltitudeMeters>
            <DistanceMeters>NAN</DistanceMeters>
          </Trackpoint>
          <Trackpoint>
            <Time>2021-04-03T07:13:20.000Z</Time>
            <Position>
              <LatitudeDegrees>42.31111773289740085601806640625</LatitudeDegrees>
              <LongitudeDegrees>2.5860667414963245391845703125</LongitudeDegrees>
            </Position>
            <AltitudeMeters>545.4000244140625</AltitudeMeters>
            <DistanceMeters>NAN</DistanceMeters>
          </Trackpoint>
          <Trackpoint>
            <Time>2021-04-03T07:13:21.000Z</Time>
            <Position>
              <LatitudeDegrees>42.31111161410808563232421875</LatitudeDegrees>
              <LongitudeDegrees>2.5860697589814662933349609375</LongitudeDegrees>
            </Position>
            <AltitudeMeters>545.5999755859375</AltitudeMeters>
            <DistanceMeters>NAN</DistanceMeters>
          </Trackpoint>
          <Trackpoint>
            <Time>2021-04-03T07:13:26.000Z</Time>
            <Position>
              <LatitudeDegrees>42.3110839538276195526123046875</LatitudeDegrees>
              <LongitudeDegrees>2.58608375675976276397705078125</LongitudeDegrees>
            </Position>
            <AltitudeMeters>546.20001220703125</AltitudeMeters>
            <DistanceMeters>NAN</DistanceMeters>
          </Trackpoint>
          <Trackpoint>
            <Time>2021-04-03T07:13:28.000Z</Time>
            <Position>
              <LatitudeDegrees>42.31107314117252826690673828125</LatitudeDegrees>
              <LongitudeDegrees>2.58609599433839321136474609375</LongitudeDegrees>
            </Position>
            <AltitudeMeters>546.4000244140625</AltitudeMeters>
            <DistanceMeters>NAN</DistanceMeters>
          </Trackpoint>
          <Trackpoint>
            <Time>2021-04-03T07:13:30.000Z</Time>
            <Position>
              <LatitudeDegrees>42.31105486862361431121826171875</LatitudeDegrees>
              <LongitudeDegrees>2.58610856719315052032470703125</LongitudeDegrees>
            </Position>
            <AltitudeMeters>546.5999755859375</AltitudeMeters>
            <DistanceMeters>NAN</DistanceMeters>
          </Trackpoint>
          <Trackpoint>
            <Time>2021-04-03T07:13:37.000Z</Time>
            <Position>
              <LatitudeDegrees>42.3110197484493255615234375</LatitudeDegrees>
              <LongitudeDegrees>2.58613027632236480712890625</LongitudeDegrees>
            </Position>
            <AltitudeMeters>547.5999755859375</AltitudeMeters>
            <DistanceMeters>NAN</DistanceMeters>
          </Trackpoint>
          <Trackpoint>
            <Time>2021-04-03T07:13:38.000Z</Time>
            <Position>
              <LatitudeDegrees>42.31101715005934238433837890625</LatitudeDegrees>
              <LongitudeDegrees>2.5861327908933162689208984375</LongitudeDegrees>
            </Position>
            <AltitudeMeters>547.79998779296875</AltitudeMeters>
            <DistanceMeters>NAN</DistanceMeters>
          </Trackpoint>
          <Trackpoint>
            <Time>2021-04-03T07:13:44.000Z</Time>
            <Position>
              <LatitudeDegrees>42.31100692413747310638427734375</LatitudeDegrees>
              <LongitudeDegrees>2.58615575730800628662109375</LongitudeDegrees>
            </Position>
            <AltitudeMeters>548.79998779296875</AltitudeMeters>
            <DistanceMeters>NAN</DistanceMeters>
          </Trackpoint>
          <Trackpoint>
            <Time>2021-04-03T07:13:46.000Z</Time>
            <Position>
              <LatitudeDegrees>42.3110054992139339447021484375</LatitudeDegrees>
              <LongitudeDegrees>2.58616246283054351806640625</LongitudeDegrees>
            </Position>
            <AltitudeMeters>549.20001220703125</AltitudeMeters>
            <DistanceMeters>NAN</DistanceMeters>
          </Trackpoint>
          <Trackpoint>
            <Time>2021-04-03T07:13:49.000Z</Time>
            <Position>
              <LatitudeDegrees>42.31100155971944332122802734375</LatitudeDegrees>
              <LongitudeDegrees>2.5861669890582561492919921875</LongitudeDegrees>
            </Position>
            <AltitudeMeters>550</AltitudeMeters>
            <DistanceMeters>NAN</DistanceMeters>
          </Trackpoint>
          <Trackpoint>
            <Time>2021-04-03T07:13:54.000Z</Time>
            <Position>
              <LatitudeDegrees>42.31100155971944332122802734375</LatitudeDegrees>
              <LongitudeDegrees>2.5861669890582561492919921875</LongitudeDegrees>
            </Position>
            <AltitudeMeters>550.79998779296875</AltitudeMeters>
            <DistanceMeters>NAN</DistanceMeters>
          </Trackpoint>
          <Trackpoint>
            <Time>2021-04-03T07:13:56.000Z</Time>
            <Position>
              <LatitudeDegrees>42.31100155971944332122802734375</LatitudeDegrees>
              <LongitudeDegrees>2.5861669890582561492919921875</LongitudeDegrees>
            </Position>
            <AltitudeMeters>551.20001220703125</AltitudeMeters>
            <DistanceMeters>NAN</DistanceMeters>
          </Trackpoint>
          <Trackpoint>
            <Time>2021-04-03T07:14:06.000Z</Time>
            <Position>
              <LatitudeDegrees>42.3109967820346355438232421875</LatitudeDegrees>
              <LongitudeDegrees>2.58617327548563480377197265625</LongitudeDegrees>
            </Position>
            <AltitudeMeters>552.20001220703125</AltitudeMeters>
            <DistanceMeters>NAN</DistanceMeters>
          </Trackpoint>
          <Trackpoint>
            <Time>2021-04-03T07:14:13.000Z</Time>
            <Position>
              <LatitudeDegrees>42.31098555028438568115234375</LatitudeDegrees>
              <LongitudeDegrees>2.58620847947895526885986328125</LongitudeDegrees>
            </Position>
            <AltitudeMeters>553.20001220703125</AltitudeMeters>
            <DistanceMeters>NAN</DistanceMeters>
          </Trackpoint>
          <Trackpoint>
            <Time>2021-04-03T07:14:15.000Z</Time>
            <Position>
              <LatitudeDegrees>42.310975827276706695556640625</LatitudeDegrees>
              <LongitudeDegrees>2.586220465600490570068359375</LongitudeDegrees>
            </Position>
            <AltitudeMeters>553.4000244140625</AltitudeMeters>
            <DistanceMeters>NAN</DistanceMeters>
          </Trackpoint>
          <Trackpoint>
            <Time>2021-04-03T07:14:17.000Z</Time>
            <Position>
              <LatitudeDegrees>42.31096769683063030242919921875</LatitudeDegrees>
              <LongitudeDegrees>2.58623220026493072509765625</LongitudeDegrees>
            </Position>
            <AltitudeMeters>553.5999755859375</AltitudeMeters>
            <DistanceMeters>NAN</DistanceMeters>
          </Trackpoint>
          <Trackpoint>
            <Time>2021-04-03T07:14:22.000Z</Time>
            <Position>
              <LatitudeDegrees>42.31094322167336940765380859375</LatitudeDegrees>
              <LongitudeDegrees>2.5862471200525760650634765625</LongitudeDegrees>
            </Position>
            <AltitudeMeters>554.4000244140625</AltitudeMeters>
            <DistanceMeters>NAN</DistanceMeters>
          </Trackpoint>
          <Trackpoint>
            <Time>2021-04-03T07:14:27.000Z</Time>
            <Position>
              <LatitudeDegrees>42.31091849505901336669921875</LatitudeDegrees>
              <LongitudeDegrees>2.5862623751163482666015625</LongitudeDegrees>
            </Position>
            <AltitudeMeters>555.20001220703125</AltitudeMeters>
            <DistanceMeters>NAN</DistanceMeters>
          </Trackpoint>
          <Trackpoint>
            <Time>2021-04-03T07:14:29.000Z</Time>
            <Position>
              <LatitudeDegrees>42.310908101499080657958984375</LatitudeDegrees>
              <LongitudeDegrees>2.58627184666693210601806640625</LongitudeDegrees>
            </Position>
            <AltitudeMeters>555.4000244140625</AltitudeMeters>
            <DistanceMeters>NAN</DistanceMeters>
          </Trackpoint>
          <Trackpoint>
            <Time>2021-04-03T07:14:32.000Z</Time>
            <Position>
              <LatitudeDegrees>42.31089393608272075653076171875</LatitudeDegrees>
              <LongitudeDegrees>2.586278133094310760498046875</LongitudeDegrees>
            </Position>
            <AltitudeMeters>555.79998779296875</AltitudeMeters>
            <DistanceMeters>NAN</DistanceMeters>
          </Trackpoint>
          <Trackpoint>
            <Time>2021-04-03T07:14:37.000Z</Time>
            <Position>
              <LatitudeDegrees>42.31087247841060161590576171875</LatitudeDegrees>
              <LongitudeDegrees>2.58629464544355869293212890625</LongitudeDegrees>
            </Position>
            <AltitudeMeters>556.5999755859375</AltitudeMeters>
            <DistanceMeters>NAN</DistanceMeters>
          </Trackpoint>
          <Trackpoint>
            <Time>2021-04-03T07:14:42.000Z</Time>
            <Position>
              <LatitudeDegrees>42.310853786766529083251953125</LatitudeDegrees>
              <LongitudeDegrees>2.58631275035440921783447265625</LongitudeDegrees>
            </Position>
            <AltitudeMeters>557.4000244140625</AltitudeMeters>
            <DistanceMeters>NAN</DistanceMeters>
          </Trackpoint>
          <Trackpoint>
            <Time>2021-04-03T07:14:43.000Z</Time>
            <Position>
              <LatitudeDegrees>42.31085185892879962921142578125</LatitudeDegrees>
              <LongitudeDegrees>2.58631727658212184906005859375</LongitudeDegrees>
            </Position>
            <AltitudeMeters>557.5999755859375</AltitudeMeters>
            <DistanceMeters>NAN</DistanceMeters>
          </Trackpoint>
          <Trackpoint>
            <Time>2021-04-03T07:14:50.000Z</Time>
            <Position>
              <LatitudeDegrees>42.3108346760272979736328125</LatitudeDegrees>
              <LongitudeDegrees>2.58634426631033420562744140625</LongitudeDegrees>
            </Position>
            <AltitudeMeters>558.5999755859375</AltitudeMeters>
            <DistanceMeters>NAN</DistanceMeters>
          </Trackpoint>
          <Trackpoint>
            <Time>2021-04-03T07:15:01.000Z</Time>
            <Position>
              <LatitudeDegrees>42.31079536490142345428466796875</LatitudeDegrees>
              <LongitudeDegrees>2.586355246603488922119140625</LongitudeDegrees>
            </Position>
            <AltitudeMeters>559.20001220703125</AltitudeMeters>
            <DistanceMeters>NAN</DistanceMeters>
          </Trackpoint>
          <Trackpoint>
            <Time>2021-04-03T07:15:04.000Z</Time>
            <Position>
              <LatitudeDegrees>42.31078212149441242218017578125</LatitudeDegrees>
              <LongitudeDegrees>2.58635533042252063751220703125</LongitudeDegrees>
            </Position>
            <AltitudeMeters>559.20001220703125</AltitudeMeters>
            <DistanceMeters>NAN</DistanceMeters>
          </Trackpoint>
          <Trackpoint>
            <Time>2021-04-03T07:15:09.000Z</Time>
            <Position>
              <LatitudeDegrees>42.3107684589922428131103515625</LatitudeDegrees>
              <LongitudeDegrees>2.5863550789654254913330078125</LongitudeDegrees>
            </Position>
            <AltitudeMeters>559.20001220703125</AltitudeMeters>
            <DistanceMeters>NAN</DistanceMeters>
          </Trackpoint>
          <Trackpoint>
            <Time>2021-04-03T07:15:14.000Z</Time>
            <Position>
              <LatitudeDegrees>42.310764603316783905029296875</LatitudeDegrees>
              <LongitudeDegrees>2.58634577505290508270263671875</LongitudeDegrees>
            </Position>
            <AltitudeMeters>558.79998779296875</AltitudeMeters>
            <DistanceMeters>NAN</DistanceMeters>
          </Trackpoint>
          <Trackpoint>
            <Time>2021-04-03T07:15:16.000Z</Time>
            <Position>
              <LatitudeDegrees>42.31076426804065704345703125</LatitudeDegrees>
              <LongitudeDegrees>2.58634342812001705169677734375</LongitudeDegrees>
            </Position>
            <AltitudeMeters>558.4000244140625</AltitudeMeters>
            <DistanceMeters>NAN</DistanceMeters>
          </Trackpoint>
          <Trackpoint>
            <Time>2021-04-03T07:15:20.000Z</Time>
            <Position>
              <LatitudeDegrees>42.3107620887458324432373046875</LatitudeDegrees>
              <LongitudeDegrees>2.5863376446068286895751953125</LongitudeDegrees>
            </Position>
            <AltitudeMeters>557.5999755859375</AltitudeMeters>
            <DistanceMeters>NAN</DistanceMeters>
          </Trackpoint>
          <Trackpoint>
            <Time>2021-04-03T07:15:26.000Z</Time>
            <Position>
              <LatitudeDegrees>42.31071204878389835357666015625</LatitudeDegrees>
              <LongitudeDegrees>2.58630101568996906280517578125</LongitudeDegrees>
            </Position>
            <AltitudeMeters>556.5999755859375</AltitudeMeters>
            <DistanceMeters>NAN</DistanceMeters>
          </Trackpoint>
          <Trackpoint>
            <Time>2021-04-03T07:15:27.000Z</Time>
            <Position>
              <LatitudeDegrees>42.31069679372012615203857421875</LatitudeDegrees>
              <LongitudeDegrees>2.58629498071968555450439453125</LongitudeDegrees>
            </Position>
            <AltitudeMeters>556.4000244140625</AltitudeMeters>
            <DistanceMeters>NAN</DistanceMeters>
          </Trackpoint>
          <Trackpoint>
            <Time>2021-04-03T07:15:34.000Z</Time>
            <Position>
              <LatitudeDegrees>42.31061297468841075897216796875</LatitudeDegrees>
              <LongitudeDegrees>2.5862726010382175445556640625</LongitudeDegrees>
            </Position>
            <AltitudeMeters>555.5999755859375</AltitudeMeters>
            <DistanceMeters>NAN</DistanceMeters>
          </Trackpoint>
          <Trackpoint>
            <Time>2021-04-03T07:15:35.000Z</Time>
            <Position>
              <LatitudeDegrees>42.3106008209288120269775390625</LatitudeDegrees>
              <LongitudeDegrees>2.58627519942820072174072265625</LongitudeDegrees>
            </Position>
            <AltitudeMeters>555.4000244140625</AltitudeMeters>
            <DistanceMeters>NAN</DistanceMeters>
          </Trackpoint>
          <Trackpoint>
            <Time>2021-04-03T07:15:41.000Z</Time>
            <Position>
              <LatitudeDegrees>42.31053854338824748992919921875</LatitudeDegrees>
              <LongitudeDegrees>2.58628182113170623779296875</LongitudeDegrees>
            </Position>
            <AltitudeMeters>554.79998779296875</AltitudeMeters>
            <DistanceMeters>NAN</DistanceMeters>
          </Trackpoint>
          <Trackpoint>
            <Time>2021-04-03T07:15:42.000Z</Time>
            <Position>
              <LatitudeDegrees>42.310529910027980804443359375</LatitudeDegrees>
              <LongitudeDegrees>2.5862880237400531768798828125</LongitudeDegrees>
            </Position>
            <AltitudeMeters>554.79998779296875</AltitudeMeters>
            <DistanceMeters>NAN</DistanceMeters>
          </Trackpoint>
          <Trackpoint>
            <Time>2021-04-03T07:15:45.000Z</Time>
            <Position>
              <LatitudeDegrees>42.3105052672326564788818359375</LatitudeDegrees>
              <LongitudeDegrees>2.5863004289567470550537109375</LongitudeDegrees>
            </Position>
            <AltitudeMeters>554.5999755859375</AltitudeMeters>
            <DistanceMeters>NAN</DistanceMeters>
          </Trackpoint>
          <Trackpoint>
            <Time>2021-04-03T07:15:48.000Z</Time>
            <Position>
              <LatitudeDegrees>42.3104814626276493072509765625</LatitudeDegrees>
              <LongitudeDegrees>2.5863175280392169952392578125</LongitudeDegrees>
            </Position>
            <AltitudeMeters>554.4000244140625</AltitudeMeters>
            <DistanceMeters>NAN</DistanceMeters>
          </Trackpoint>
          <Trackpoint>
            <Time>2021-04-03T07:15:52.000Z</Time>
            <Position>
              <LatitudeDegrees>42.31045589782297611236572265625</LatitudeDegrees>
              <LongitudeDegrees>2.58633303456008434295654296875</LongitudeDegrees>
            </Position>
            <AltitudeMeters>554.4000244140625</AltitudeMeters>
            <DistanceMeters>NAN</DistanceMeters>
          </Trackpoint>
          <Trackpoint>
            <Time>2021-04-03T07:15:57.000Z</Time>
            <Position>
              <LatitudeDegrees>42.3104217834770679473876953125</LatitudeDegrees>
              <LongitudeDegrees>2.58635516278445720672607421875</LongitudeDegrees>
            </Position>
            <AltitudeMeters>554</AltitudeMeters>
            <DistanceMeters>NAN</DistanceMeters>
          </Trackpoint>
          <Trackpoint>
            <Time>2021-04-03T07:16:04.000Z</Time>
            <Position>
              <LatitudeDegrees>42.31038381345570087432861328125</LatitudeDegrees>
              <LongitudeDegrees>2.58641534484922885894775390625</LongitudeDegrees>
            </Position>
            <AltitudeMeters>553.5999755859375</AltitudeMeters>
            <DistanceMeters>NAN</DistanceMeters>
          </Trackpoint>
          <Trackpoint>
            <Time>2021-04-03T07:16:07.000Z</Time>
            <Position>
              <LatitudeDegrees>42.310362271964550018310546875</LatitudeDegrees>
              <LongitudeDegrees>2.5864308513700962066650390625</LongitudeDegrees>
            </Position>
            <AltitudeMeters>553.79998779296875</AltitudeMeters>
            <DistanceMeters>NAN</DistanceMeters>
          </Trackpoint>
          <Trackpoint>
            <Time>2021-04-03T07:16:10.000Z</Time>
            <Position>
              <LatitudeDegrees>42.3103356175124645233154296875</LatitudeDegrees>
              <LongitudeDegrees>2.5864489562809467315673828125</LongitudeDegrees>
            </Position>
            <AltitudeMeters>554.20001220703125</AltitudeMeters>
            <DistanceMeters>NAN</DistanceMeters>
          </Trackpoint>
          <Trackpoint>
            <Time>2021-04-03T07:16:15.000Z</Time>
            <Position>
              <LatitudeDegrees>42.3102915287017822265625</LatitudeDegrees>
              <LongitudeDegrees>2.5864855013787746429443359375</LongitudeDegrees>
            </Position>
            <AltitudeMeters>554.20001220703125</AltitudeMeters>
            <DistanceMeters>NAN</DistanceMeters>
          </Trackpoint>
          <Trackpoint>
            <Time>2021-04-03T07:16:16.000Z</Time>
            <Position>
              <LatitudeDegrees>42.3102849908173084259033203125</LatitudeDegrees>
              <LongitudeDegrees>2.58649882860481739044189453125</LongitudeDegrees>
            </Position>
            <AltitudeMeters>554.20001220703125</AltitudeMeters>
            <DistanceMeters>NAN</DistanceMeters>
          </Trackpoint>
          <Trackpoint>
            <Time>2021-04-03T07:16:18.000Z</Time>
            <Position>
              <LatitudeDegrees>42.31026596389710903167724609375</LatitudeDegrees>
              <LongitudeDegrees>2.5865233875811100006103515625</LongitudeDegrees>
            </Position>
            <AltitudeMeters>554.20001220703125</AltitudeMeters>
            <DistanceMeters>NAN</DistanceMeters>
          </Trackpoint>
          <Trackpoint>
            <Time>2021-04-03T07:16:20.000Z</Time>
            <Position>
              <LatitudeDegrees>42.310246266424655914306640625</LatitudeDegrees>
              <LongitudeDegrees>2.5865435041487216949462890625</LongitudeDegrees>
            </Position>
            <AltitudeMeters>554.20001220703125</AltitudeMeters>
            <DistanceMeters>NAN</DistanceMeters>
          </Trackpoint>
          <Trackpoint>
            <Time>2021-04-03T07:16:22.000Z</Time>
            <Position>
              <LatitudeDegrees>42.310237549245357513427734375</LatitudeDegrees>
              <LongitudeDegrees>2.586558759212493896484375</LongitudeDegrees>
            </Position>
            <AltitudeMeters>554.4000244140625</AltitudeMeters>
            <DistanceMeters>NAN</DistanceMeters>
          </Trackpoint>
          <Trackpoint>
            <Time>2021-04-03T07:16:27.000Z</Time>
            <Position>
              <LatitudeDegrees>42.31020494364202022552490234375</LatitudeDegrees>
              <LongitudeDegrees>2.58656806312501430511474609375</LongitudeDegrees>
            </Position>
            <AltitudeMeters>555.20001220703125</AltitudeMeters>
            <DistanceMeters>NAN</DistanceMeters>
          </Trackpoint>
          <Trackpoint>
            <Time>2021-04-03T07:16:28.000Z</Time>
            <Position>
              <LatitudeDegrees>42.31019488535821437835693359375</LatitudeDegrees>
              <LongitudeDegrees>2.5865708291530609130859375</LongitudeDegrees>
            </Position>
            <AltitudeMeters>555.4000244140625</AltitudeMeters>
            <DistanceMeters>NAN</DistanceMeters>
          </Trackpoint>
          <Trackpoint>
            <Time>2021-04-03T07:16:29.000Z</Time>
            <Position>
              <LatitudeDegrees>42.3101840727031230926513671875</LatitudeDegrees>
              <LongitudeDegrees>2.586574852466583251953125</LongitudeDegrees>
            </Position>
            <AltitudeMeters>555.4000244140625</AltitudeMeters>
            <DistanceMeters>NAN</DistanceMeters>
          </Trackpoint>
          <Trackpoint>
            <Time>2021-04-03T07:16:34.000Z</Time>
            <Position>
              <LatitudeDegrees>42.31013637967407703399658203125</LatitudeDegrees>
              <LongitudeDegrees>2.5865907780826091766357421875</LongitudeDegrees>
            </Position>
            <AltitudeMeters>555.79998779296875</AltitudeMeters>
            <DistanceMeters>NAN</DistanceMeters>
          </Trackpoint>
          <Trackpoint>
            <Time>2021-04-03T07:16:35.000Z</Time>
            <Position>
              <LatitudeDegrees>42.3101292550563812255859375</LatitudeDegrees>
              <LongitudeDegrees>2.58658491075038909912109375</LongitudeDegrees>
            </Position>
            <AltitudeMeters>555.79998779296875</AltitudeMeters>
            <DistanceMeters>NAN</DistanceMeters>
          </Trackpoint>
          <Trackpoint>
            <Time>2021-04-03T07:16:37.000Z</Time>
            <Position>
              <LatitudeDegrees>42.31011517345905303955078125</LatitudeDegrees>
              <LongitudeDegrees>2.58656521327793598175048828125</LongitudeDegrees>
            </Position>
            <AltitudeMeters>555.79998779296875</AltitudeMeters>
            <DistanceMeters>NAN</DistanceMeters>
          </Trackpoint>
          <Trackpoint>
            <Time>2021-04-03T07:16:41.000Z</Time>
            <Position>
              <LatitudeDegrees>42.31008776463568210601806640625</LatitudeDegrees>
              <LongitudeDegrees>2.58654861710965633392333984375</LongitudeDegrees>
            </Position>
            <AltitudeMeters>555.5999755859375</AltitudeMeters>
            <DistanceMeters>NAN</DistanceMeters>
          </Trackpoint>
          <Trackpoint>
            <Time>2021-04-03T07:16:49.000Z</Time>
            <Position>
              <LatitudeDegrees>42.3100311867892742156982421875</LatitudeDegrees>
              <LongitudeDegrees>2.58655272424221038818359375</LongitudeDegrees>
            </Position>
            <AltitudeMeters>555.5999755859375</AltitudeMeters>
            <DistanceMeters>NAN</DistanceMeters>
          </Trackpoint>
          <Trackpoint>
            <Time>2021-04-03T07:16:53.000Z</Time>
            <Position>
              <LatitudeDegrees>42.309992797672748565673828125</LatitudeDegrees>
              <LongitudeDegrees>2.58657476864755153656005859375</LongitudeDegrees>
            </Position>
            <AltitudeMeters>554.4000244140625</AltitudeMeters>
            <DistanceMeters>NAN</DistanceMeters>
          </Trackpoint>
          <Trackpoint>
            <Time>2021-04-03T07:16:56.000Z</Time>
            <Position>
              <LatitudeDegrees>42.30996639467775821685791015625</LatitudeDegrees>
              <LongitudeDegrees>2.58659170009195804595947265625</LongitudeDegrees>
            </Position>
            <AltitudeMeters>554.4000244140625</AltitudeMeters>
            <DistanceMeters>NAN</DistanceMeters>
          </Trackpoint>
          <Trackpoint>
            <Time>2021-04-03T07:16:58.000Z</Time>
            <Position>
              <LatitudeDegrees>42.3099554143846035003662109375</LatitudeDegrees>
              <LongitudeDegrees>2.586600668728351593017578125</LongitudeDegrees>
            </Position>
            <AltitudeMeters>554.20001220703125</AltitudeMeters>
            <DistanceMeters>NAN</DistanceMeters>
          </Trackpoint>
          <Trackpoint>
            <Time>2021-04-03T07:17:02.000Z</Time>
            <Position>
              <LatitudeDegrees>42.3099218867719173431396484375</LatitudeDegrees>
              <LongitudeDegrees>2.5866088829934597015380859375</LongitudeDegrees>
            </Position>
            <AltitudeMeters>554.4000244140625</AltitudeMeters>
            <DistanceMeters>NAN</DistanceMeters>
          </Trackpoint>
          <Trackpoint>
            <Time>2021-04-03T07:17:05.000Z</Time>
            <Position>
              <LatitudeDegrees>42.30989120900630950927734375</LatitudeDegrees>
              <LongitudeDegrees>2.58663511835038661956787109375</LongitudeDegrees>
            </Position>
            <AltitudeMeters>554.20001220703125</AltitudeMeters>
            <DistanceMeters>NAN</DistanceMeters>
          </Trackpoint>
          <Trackpoint>
            <Time>2021-04-03T07:17:08.000Z</Time>
            <Position>
              <LatitudeDegrees>42.309864051640033721923828125</LatitudeDegrees>
              <LongitudeDegrees>2.586660347878932952880859375</LongitudeDegrees>
            </Position>
            <AltitudeMeters>553.79998779296875</AltitudeMeters>
            <DistanceMeters>NAN</DistanceMeters>
          </Trackpoint>
          <Trackpoint>
            <Time>2021-04-03T07:17:10.000Z</Time>
            <Position>
              <LatitudeDegrees>42.30984427034854888916015625</LatitudeDegrees>
              <LongitudeDegrees>2.58666981942951679229736328125</LongitudeDegrees>
            </Position>
            <AltitudeMeters>553.5999755859375</AltitudeMeters>
            <DistanceMeters>NAN</DistanceMeters>
          </Trackpoint>
          <Trackpoint>
            <Time>2021-04-03T07:17:12.000Z</Time>
            <Position>
              <LatitudeDegrees>42.3098239861428737640380859375</LatitudeDegrees>
              <LongitudeDegrees>2.5866802968084812164306640625</LongitudeDegrees>
            </Position>
            <AltitudeMeters>553.20001220703125</AltitudeMeters>
            <DistanceMeters>NAN</DistanceMeters>
          </Trackpoint>
          <Trackpoint>
            <Time>2021-04-03T07:17:18.000Z</Time>
            <Position>
              <LatitudeDegrees>42.3097564280033111572265625</LatitudeDegrees>
              <LongitudeDegrees>2.58670686744153499603271484375</LongitudeDegrees>
            </Position>
            <AltitudeMeters>552.79998779296875</AltitudeMeters>
            <DistanceMeters>NAN</DistanceMeters>
          </Trackpoint>
          <Trackpoint>
            <Time>2021-04-03T07:17:20.000Z</Time>
            <Position>
              <LatitudeDegrees>42.30973832309246063232421875</LatitudeDegrees>
              <LongitudeDegrees>2.58671374060213565826416015625</LongitudeDegrees>
            </Position>
            <AltitudeMeters>552.5999755859375</AltitudeMeters>
            <DistanceMeters>NAN</DistanceMeters>
          </Trackpoint>
          <Trackpoint>
            <Time>2021-04-03T07:17:24.000Z</Time>
            <Position>
              <LatitudeDegrees>42.30970404110848903656005859375</LatitudeDegrees>
              <LongitudeDegrees>2.5867292471230030059814453125</LongitudeDegrees>
            </Position>
            <AltitudeMeters>552.4000244140625</AltitudeMeters>
            <DistanceMeters>NAN</DistanceMeters>
          </Trackpoint>
          <Trackpoint>
            <Time>2021-04-03T07:17:26.000Z</Time>
            <Position>
              <LatitudeDegrees>42.30968660674989223480224609375</LatitudeDegrees>
              <LongitudeDegrees>2.58673234842717647552490234375</LongitudeDegrees>
            </Position>
            <AltitudeMeters>552.4000244140625</AltitudeMeters>
            <DistanceMeters>NAN</DistanceMeters>
          </Trackpoint>
          <Trackpoint>
            <Time>2021-04-03T07:17:28.000Z</Time>
            <Position>
              <LatitudeDegrees>42.30967084877192974090576171875</LatitudeDegrees>
              <LongitudeDegrees>2.58673243224620819091796875</LongitudeDegrees>
            </Position>
            <AltitudeMeters>552.4000244140625</AltitudeMeters>
            <DistanceMeters>NAN</DistanceMeters>
          </Trackpoint>
          <Trackpoint>
            <Time>2021-04-03T07:17:29.000Z</Time>
            <Position>
              <LatitudeDegrees>42.30966011993587017059326171875</LatitudeDegrees>
              <LongitudeDegrees>2.58673922158777713775634765625</LongitudeDegrees>
            </Position>
            <AltitudeMeters>552.4000244140625</AltitudeMeters>
            <DistanceMeters>NAN</DistanceMeters>
          </Trackpoint>
          <Trackpoint>
            <Time>2021-04-03T07:17:31.000Z</Time>
            <Position>
              <LatitudeDegrees>42.30964872054755687713623046875</LatitudeDegrees>
              <LongitudeDegrees>2.586740143597126007080078125</LongitudeDegrees>
            </Position>
            <AltitudeMeters>552.20001220703125</AltitudeMeters>
            <DistanceMeters>NAN</DistanceMeters>
          </Trackpoint>
          <Trackpoint>
            <Time>2021-04-03T07:17:34.000Z</Time>
            <Position>
              <LatitudeDegrees>42.3096231557428836822509765625</LatitudeDegrees>
              <LongitudeDegrees>2.58675925433635711669921875</LongitudeDegrees>
            </Position>
            <AltitudeMeters>552.20001220703125</AltitudeMeters>
            <DistanceMeters>NAN</DistanceMeters>
          </Trackpoint>
          <Trackpoint>
            <Time>2021-04-03T07:17:37.000Z</Time>
            <Position>
              <LatitudeDegrees>42.3095872811973094940185546875</LatitudeDegrees>
              <LongitudeDegrees>2.58676973171532154083251953125</LongitudeDegrees>
            </Position>
            <AltitudeMeters>552.20001220703125</AltitudeMeters>
            <DistanceMeters>NAN</DistanceMeters>
          </Trackpoint>
          <Trackpoint>
            <Time>2021-04-03T07:17:38.000Z</Time>
            <Position>
              <LatitudeDegrees>42.3095820844173431396484375</LatitudeDegrees>
              <LongitudeDegrees>2.58677559904754161834716796875</LongitudeDegrees>
            </Position>
            <AltitudeMeters>552.4000244140625</AltitudeMeters>
            <DistanceMeters>NAN</DistanceMeters>
          </Trackpoint>
          <Trackpoint>
            <Time>2021-04-03T07:17:44.000Z</Time>
            <Position>
              <LatitudeDegrees>42.30955132283270359039306640625</LatitudeDegrees>
              <LongitudeDegrees>2.5868144072592258453369140625</LongitudeDegrees>
            </Position>
            <AltitudeMeters>552.4000244140625</AltitudeMeters>
            <DistanceMeters>NAN</DistanceMeters>
          </Trackpoint>
          <Trackpoint>
            <Time>2021-04-03T07:17:45.000Z</Time>
            <Position>
              <LatitudeDegrees>42.3095457069575786590576171875</LatitudeDegrees>
              <LongitudeDegrees>2.5868288241326808929443359375</LongitudeDegrees>
            </Position>
            <AltitudeMeters>552.4000244140625</AltitudeMeters>
            <DistanceMeters>NAN</DistanceMeters>
          </Trackpoint>
          <Trackpoint>
            <Time>2021-04-03T07:17:47.000Z</Time>
            <Position>
              <LatitudeDegrees>42.30953640304505825042724609375</LatitudeDegrees>
              <LongitudeDegrees>2.58685581386089324951171875</LongitudeDegrees>
            </Position>
            <AltitudeMeters>552.4000244140625</AltitudeMeters>
            <DistanceMeters>NAN</DistanceMeters>
          </Trackpoint>
          <Trackpoint>
            <Time>2021-04-03T07:17:51.000Z</Time>
            <Position>
              <LatitudeDegrees>42.30951838195323944091796875</LatitudeDegrees>
              <LongitudeDegrees>2.5868819653987884521484375</LongitudeDegrees>
            </Position>
            <AltitudeMeters>552.20001220703125</AltitudeMeters>
            <DistanceMeters>NAN</DistanceMeters>
          </Trackpoint>
          <Trackpoint>
            <Time>2021-04-03T07:17:52.000Z</Time>
            <Position>
              <LatitudeDegrees>42.30951561592519283294677734375</LatitudeDegrees>
              <LongitudeDegrees>2.5868828035891056060791015625</LongitudeDegrees>
            </Position>
            <AltitudeMeters>552.20001220703125</AltitudeMeters>
            <DistanceMeters>NAN</DistanceMeters>
          </Trackpoint>
          <Trackpoint>
            <Time>2021-04-03T07:17:55.000Z</Time>
            <Position>
              <LatitudeDegrees>42.309509329497814178466796875</LatitudeDegrees>
              <LongitudeDegrees>2.58688355796039104461669921875</LongitudeDegrees>
            </Position>
            <AltitudeMeters>554.4000244140625</AltitudeMeters>
            <DistanceMeters>NAN</DistanceMeters>
          </Trackpoint>
          <Trackpoint>
            <Time>2021-04-03T07:17:57.000Z</Time>
            <Position>
              <LatitudeDegrees>42.3094980977475643157958984375</LatitudeDegrees>
              <LongitudeDegrees>2.58689629845321178436279296875</LongitudeDegrees>
            </Position>
            <AltitudeMeters>554.4000244140625</AltitudeMeters>
            <DistanceMeters>NAN</DistanceMeters>
          </Trackpoint>
          <Trackpoint>
            <Time>2021-04-03T07:18:00.000Z</Time>
            <Position>
              <LatitudeDegrees>42.30947135947644710540771484375</LatitudeDegrees>
              <LongitudeDegrees>2.58690811693668365478515625</LongitudeDegrees>
            </Position>
            <AltitudeMeters>554.20001220703125</AltitudeMeters>
            <DistanceMeters>NAN</DistanceMeters>
          </Trackpoint>
          <Trackpoint>
            <Time>2021-04-03T07:18:03.000Z</Time>
            <Position>
              <LatitudeDegrees>42.30944939889013767242431640625</LatitudeDegrees>
              <LongitudeDegrees>2.58691356517374515533447265625</LongitudeDegrees>
            </Position>
            <AltitudeMeters>553</AltitudeMeters>
            <DistanceMeters>NAN</DistanceMeters>
          </Trackpoint>
          <Trackpoint>
            <Time>2021-04-03T07:18:05.000Z</Time>
            <Position>
              <LatitudeDegrees>42.30944328010082244873046875</LatitudeDegrees>
              <LongitudeDegrees>2.586915493011474609375</LongitudeDegrees>
            </Position>
            <AltitudeMeters>554.4000244140625</AltitudeMeters>
            <DistanceMeters>NAN</DistanceMeters>
          </Trackpoint>
          <Trackpoint>
            <Time>2021-04-03T07:18:08.000Z</Time>
            <Position>
              <LatitudeDegrees>42.30941888876259326934814453125</LatitudeDegrees>
              <LongitudeDegrees>2.58692496456205844879150390625</LongitudeDegrees>
            </Position>
            <AltitudeMeters>554</AltitudeMeters>
            <DistanceMeters>NAN</DistanceMeters>
          </Trackpoint>
          <Trackpoint>
            <Time>2021-04-03T07:18:09.000Z</Time>
            <Position>
              <LatitudeDegrees>42.30941017158329486846923828125</LatitudeDegrees>
              <LongitudeDegrees>2.58692814968526363372802734375</LongitudeDegrees>
            </Position>
            <AltitudeMeters>553.5999755859375</AltitudeMeters>
            <DistanceMeters>NAN</DistanceMeters>
          </Trackpoint>
          <Trackpoint>
            <Time>2021-04-03T07:18:10.000Z</Time>
            <Position>
              <LatitudeDegrees>42.3094042204320430755615234375</LatitudeDegrees>
              <LongitudeDegrees>2.58693720214068889617919921875</LongitudeDegrees>
            </Position>
            <AltitudeMeters>553.4000244140625</AltitudeMeters>
            <DistanceMeters>NAN</DistanceMeters>
          </Trackpoint>
          <Trackpoint>
            <Time>2021-04-03T07:18:15.000Z</Time>
            <Position>
              <LatitudeDegrees>42.309367842972278594970703125</LatitudeDegrees>
              <LongitudeDegrees>2.58696268312633037567138671875</LongitudeDegrees>
            </Position>
            <AltitudeMeters>552</AltitudeMeters>
            <DistanceMeters>NAN</DistanceMeters>
          </Trackpoint>
          <Trackpoint>
            <Time>2021-04-03T07:18:18.000Z</Time>
            <Position>
              <LatitudeDegrees>42.30934328399598598480224609375</LatitudeDegrees>
              <LongitudeDegrees>2.58698053658008575439453125</LongitudeDegrees>
            </Position>
            <AltitudeMeters>551.4000244140625</AltitudeMeters>
            <DistanceMeters>NAN</DistanceMeters>
          </Trackpoint>
          <Trackpoint>
            <Time>2021-04-03T07:18:20.000Z</Time>
            <Position>
              <LatitudeDegrees>42.3093261010944843292236328125</LatitudeDegrees>
              <LongitudeDegrees>2.58699260652065277099609375</LongitudeDegrees>
            </Position>
            <AltitudeMeters>551</AltitudeMeters>
            <DistanceMeters>NAN</DistanceMeters>
          </Trackpoint>
          <Trackpoint>
            <Time>2021-04-03T07:18:26.000Z</Time>
            <Position>
              <LatitudeDegrees>42.309296093881130218505859375</LatitudeDegrees>
              <LongitudeDegrees>2.5870239548385143280029296875</LongitudeDegrees>
            </Position>
            <AltitudeMeters>549.5999755859375</AltitudeMeters>
            <DistanceMeters>NAN</DistanceMeters>
          </Trackpoint>
          <Trackpoint>
            <Time>2021-04-03T07:18:28.000Z</Time>
            <Position>
              <LatitudeDegrees>42.3092791624367237091064453125</LatitudeDegrees>
              <LongitudeDegrees>2.5870333425700664520263671875</LongitudeDegrees>
            </Position>
            <AltitudeMeters>548.79998779296875</AltitudeMeters>
            <DistanceMeters>NAN</DistanceMeters>
          </Trackpoint>
          <Trackpoint>
            <Time>2021-04-03T07:18:29.000Z</Time>
            <Position>
              <LatitudeDegrees>42.3092701099812984466552734375</LatitudeDegrees>
              <LongitudeDegrees>2.5870335102081298828125</LongitudeDegrees>
            </Position>
            <AltitudeMeters>548.4000244140625</AltitudeMeters>
            <DistanceMeters>NAN</DistanceMeters>
          </Trackpoint>
          <Trackpoint>
            <Time>2021-04-03T07:18:31.000Z</Time>
            <Position>
              <LatitudeDegrees>42.30925493873655796051025390625</LatitudeDegrees>
              <LongitudeDegrees>2.58703820407390594482421875</LongitudeDegrees>
            </Position>
            <AltitudeMeters>548.20001220703125</AltitudeMeters>
            <DistanceMeters>NAN</DistanceMeters>
          </Trackpoint>
          <Trackpoint>
            <Time>2021-04-03T07:18:33.000Z</Time>
            <Position>
              <LatitudeDegrees>42.3092452995479106903076171875</LatitudeDegrees>
              <LongitudeDegrees>2.5870574824512004852294921875</LongitudeDegrees>
            </Position>
            <AltitudeMeters>547.5999755859375</AltitudeMeters>
            <DistanceMeters>NAN</DistanceMeters>
          </Trackpoint>
          <Trackpoint>
            <Time>2021-04-03T07:18:34.000Z</Time>
            <Position>
              <LatitudeDegrees>42.3092409409582614898681640625</LatitudeDegrees>
              <LongitudeDegrees>2.5870631821453571319580078125</LongitudeDegrees>
            </Position>
            <AltitudeMeters>547.4000244140625</AltitudeMeters>
            <DistanceMeters>NAN</DistanceMeters>
          </Trackpoint>
          <Trackpoint>
            <Time>2021-04-03T07:18:35.000Z</Time>
            <Position>
              <LatitudeDegrees>42.30923633091151714324951171875</LatitudeDegrees>
              <LongitudeDegrees>2.58707114495337009429931640625</LongitudeDegrees>
            </Position>
            <AltitudeMeters>547</AltitudeMeters>
            <DistanceMeters>NAN</DistanceMeters>
          </Trackpoint>
          <Trackpoint>
            <Time>2021-04-03T07:18:39.000Z</Time>
            <Position>
              <LatitudeDegrees>42.309216968715190887451171875</LatitudeDegrees>
              <LongitudeDegrees>2.58710953406989574432373046875</LongitudeDegrees>
            </Position>
            <AltitudeMeters>546.4000244140625</AltitudeMeters>
            <DistanceMeters>NAN</DistanceMeters>
          </Trackpoint>
          <Trackpoint>
            <Time>2021-04-03T07:18:43.000Z</Time>
            <Position>
              <LatitudeDegrees>42.3091851174831390380859375</LatitudeDegrees>
              <LongitudeDegrees>2.587126381695270538330078125</LongitudeDegrees>
            </Position>
            <AltitudeMeters>545.20001220703125</AltitudeMeters>
            <DistanceMeters>NAN</DistanceMeters>
          </Trackpoint>
          <Trackpoint>
            <Time>2021-04-03T07:18:44.000Z</Time>
            <Position>
              <LatitudeDegrees>42.30917799286544322967529296875</LatitudeDegrees>
              <LongitudeDegrees>2.5871262140572071075439453125</LongitudeDegrees>
            </Position>
            <AltitudeMeters>545</AltitudeMeters>
            <DistanceMeters>NAN</DistanceMeters>
          </Trackpoint>
          <Trackpoint>
            <Time>2021-04-03T07:18:47.000Z</Time>
            <Position>
              <LatitudeDegrees>42.30916240252554416656494140625</LatitudeDegrees>
              <LongitudeDegrees>2.587130069732666015625</LongitudeDegrees>
            </Position>
            <AltitudeMeters>544.4000244140625</AltitudeMeters>
            <DistanceMeters>NAN</DistanceMeters>
          </Trackpoint>
          <Trackpoint>
            <Time>2021-04-03T07:18:48.000Z</Time>
            <Position>
              <LatitudeDegrees>42.30915955267846584320068359375</LatitudeDegrees>
              <LongitudeDegrees>2.5871332548558712005615234375</LongitudeDegrees>
            </Position>
            <AltitudeMeters>543.79998779296875</AltitudeMeters>
            <DistanceMeters>NAN</DistanceMeters>
          </Trackpoint>
          <Trackpoint>
            <Time>2021-04-03T07:18:50.000Z</Time>
            <Position>
              <LatitudeDegrees>42.30915100313723087310791015625</LatitudeDegrees>
              <LongitudeDegrees>2.58713166229426860809326171875</LongitudeDegrees>
            </Position>
            <AltitudeMeters>544.5999755859375</AltitudeMeters>
            <DistanceMeters>NAN</DistanceMeters>
          </Trackpoint>
          <Trackpoint>
            <Time>2021-04-03T07:18:56.000Z</Time>
            <Position>
              <LatitudeDegrees>42.30912099592387676239013671875</LatitudeDegrees>
              <LongitudeDegrees>2.58720089681446552276611328125</LongitudeDegrees>
            </Position>
            <AltitudeMeters>543</AltitudeMeters>
            <DistanceMeters>NAN</DistanceMeters>
          </Trackpoint>
          <Trackpoint>
            <Time>2021-04-03T07:18:57.000Z</Time>
            <Position>
              <LatitudeDegrees>42.30911445803940296173095703125</LatitudeDegrees>
              <LongitudeDegrees>2.587207518517971038818359375</LongitudeDegrees>
            </Position>
            <AltitudeMeters>542.79998779296875</AltitudeMeters>
            <DistanceMeters>NAN</DistanceMeters>
          </Trackpoint>
          <Trackpoint>
            <Time>2021-04-03T07:19:00.000Z</Time>
            <Position>
              <LatitudeDegrees>42.309076152741909027099609375</LatitudeDegrees>
              <LongitudeDegrees>2.58719167672097682952880859375</LongitudeDegrees>
            </Position>
            <AltitudeMeters>542.20001220703125</AltitudeMeters>
            <DistanceMeters>NAN</DistanceMeters>
          </Trackpoint>
          <Trackpoint>
            <Time>2021-04-03T07:19:01.000Z</Time>
            <Position>
              <LatitudeDegrees>42.309069447219371795654296875</LatitudeDegrees>
              <LongitudeDegrees>2.5871877372264862060546875</LongitudeDegrees>
            </Position>
            <AltitudeMeters>541.79998779296875</AltitudeMeters>
            <DistanceMeters>NAN</DistanceMeters>
          </Trackpoint>
          <Trackpoint>
            <Time>2021-04-03T07:19:02.000Z</Time>
            <Position>
              <LatitudeDegrees>42.3090602271258831024169921875</LatitudeDegrees>
              <LongitudeDegrees>2.587189413607120513916015625</LongitudeDegrees>
            </Position>
            <AltitudeMeters>541.4000244140625</AltitudeMeters>
            <DistanceMeters>NAN</DistanceMeters>
          </Trackpoint>
          <Trackpoint>
            <Time>2021-04-03T07:19:04.000Z</Time>
            <Position>
              <LatitudeDegrees>42.3090444691479206085205078125</LatitudeDegrees>
              <LongitudeDegrees>2.58719201199710369110107421875</LongitudeDegrees>
            </Position>
            <AltitudeMeters>541</AltitudeMeters>
            <DistanceMeters>NAN</DistanceMeters>
          </Trackpoint>
          <Trackpoint>
            <Time>2021-04-03T07:19:05.000Z</Time>
            <Position>
              <LatitudeDegrees>42.30903650633990764617919921875</LatitudeDegrees>
              <LongitudeDegrees>2.5871885754168033599853515625</LongitudeDegrees>
            </Position>
            <AltitudeMeters>540.79998779296875</AltitudeMeters>
            <DistanceMeters>NAN</DistanceMeters>
          </Trackpoint>
          <Trackpoint>
            <Time>2021-04-03T07:19:06.000Z</Time>
            <Position>
              <LatitudeDegrees>42.3090313933789730072021484375</LatitudeDegrees>
              <LongitudeDegrees>2.58718170225620269775390625</LongitudeDegrees>
            </Position>
            <AltitudeMeters>540.4000244140625</AltitudeMeters>
            <DistanceMeters>NAN</DistanceMeters>
          </Trackpoint>
          <Trackpoint>
            <Time>2021-04-03T07:19:07.000Z</Time>
            <Position>
              <LatitudeDegrees>42.30902678333222866058349609375</LatitudeDegrees>
              <LongitudeDegrees>2.587178684771060943603515625</LongitudeDegrees>
            </Position>
            <AltitudeMeters>540.20001220703125</AltitudeMeters>
            <DistanceMeters>NAN</DistanceMeters>
          </Trackpoint>
          <Trackpoint>
            <Time>2021-04-03T07:19:11.000Z</Time>
            <Position>
              <LatitudeDegrees>42.30900532566010951995849609375</LatitudeDegrees>
              <LongitudeDegrees>2.58717876859009265899658203125</LongitudeDegrees>
            </Position>
            <AltitudeMeters>539.4000244140625</AltitudeMeters>
            <DistanceMeters>NAN</DistanceMeters>
          </Trackpoint>
          <Trackpoint>
            <Time>2021-04-03T07:19:15.000Z</Time>
            <Position>
              <LatitudeDegrees>42.308999709784984588623046875</LatitudeDegrees>
              <LongitudeDegrees>2.5871540419757366180419921875</LongitudeDegrees>
            </Position>
            <AltitudeMeters>538</AltitudeMeters>
            <DistanceMeters>NAN</DistanceMeters>
          </Trackpoint>
          <Trackpoint>
            <Time>2021-04-03T07:19:16.000Z</Time>
            <Position>
              <LatitudeDegrees>42.30900163762271404266357421875</LatitudeDegrees>
              <LongitudeDegrees>2.5871463306248188018798828125</LongitudeDegrees>
            </Position>
            <AltitudeMeters>537.79998779296875</AltitudeMeters>
            <DistanceMeters>NAN</DistanceMeters>
          </Trackpoint>
          <Trackpoint>
            <Time>2021-04-03T07:19:18.000Z</Time>
            <Position>
              <LatitudeDegrees>42.30899023823440074920654296875</LatitudeDegrees>
              <LongitudeDegrees>2.587138451635837554931640625</LongitudeDegrees>
            </Position>
            <AltitudeMeters>537.79998779296875</AltitudeMeters>
            <DistanceMeters>NAN</DistanceMeters>
          </Trackpoint>
          <Trackpoint>
            <Time>2021-04-03T07:19:21.000Z</Time>
            <Position>
              <LatitudeDegrees>42.3089680261909961700439453125</LatitudeDegrees>
              <LongitudeDegrees>2.58711892180144786834716796875</LongitudeDegrees>
            </Position>
            <AltitudeMeters>537.4000244140625</AltitudeMeters>
            <DistanceMeters>NAN</DistanceMeters>
          </Trackpoint>
          <Trackpoint>
            <Time>2021-04-03T07:19:23.000Z</Time>
            <Position>
              <LatitudeDegrees>42.30895553715527057647705078125</LatitudeDegrees>
              <LongitudeDegrees>2.58710324764251708984375</LongitudeDegrees>
            </Position>
            <AltitudeMeters>537</AltitudeMeters>
            <DistanceMeters>NAN</DistanceMeters>
          </Trackpoint>
          <Trackpoint>
            <Time>2021-04-03T07:19:25.000Z</Time>
            <Position>
              <LatitudeDegrees>42.30894447304308414459228515625</LatitudeDegrees>
              <LongitudeDegrees>2.5870836339890956878662109375</LongitudeDegrees>
            </Position>
            <AltitudeMeters>536.5999755859375</AltitudeMeters>
            <DistanceMeters>NAN</DistanceMeters>
          </Trackpoint>
          <Trackpoint>
            <Time>2021-04-03T07:19:28.000Z</Time>
            <Position>
              <LatitudeDegrees>42.30892485938966274261474609375</LatitudeDegrees>
              <LongitudeDegrees>2.58705957792699337005615234375</LongitudeDegrees>
            </Position>
            <AltitudeMeters>536.20001220703125</AltitudeMeters>
            <DistanceMeters>NAN</DistanceMeters>
          </Trackpoint>
          <Trackpoint>
            <Time>2021-04-03T07:19:31.000Z</Time>
            <Position>
              <LatitudeDegrees>42.308903820812702178955078125</LatitudeDegrees>
              <LongitudeDegrees>2.5870383717119693756103515625</LongitudeDegrees>
            </Position>
            <AltitudeMeters>535.5999755859375</AltitudeMeters>
            <DistanceMeters>NAN</DistanceMeters>
          </Trackpoint>
          <Trackpoint>
            <Time>2021-04-03T07:19:34.000Z</Time>
            <Position>
              <LatitudeDegrees>42.30888269841670989990234375</LatitudeDegrees>
              <LongitudeDegrees>2.58702345192432403564453125</LongitudeDegrees>
            </Position>
            <AltitudeMeters>535</AltitudeMeters>
            <DistanceMeters>NAN</DistanceMeters>
          </Trackpoint>
          <Trackpoint>
            <Time>2021-04-03T07:19:35.000Z</Time>
            <Position>
              <LatitudeDegrees>42.30887808836996555328369140625</LatitudeDegrees>
              <LongitudeDegrees>2.58700861595571041107177734375</LongitudeDegrees>
            </Position>
            <AltitudeMeters>534.79998779296875</AltitudeMeters>
            <DistanceMeters>NAN</DistanceMeters>
          </Trackpoint>
          <Trackpoint>
            <Time>2021-04-03T07:19:36.000Z</Time>
            <Position>
              <LatitudeDegrees>42.30887465178966522216796875</LatitudeDegrees>
              <LongitudeDegrees>2.58700056932866573333740234375</LongitudeDegrees>
            </Position>
            <AltitudeMeters>534.4000244140625</AltitudeMeters>
            <DistanceMeters>NAN</DistanceMeters>
          </Trackpoint>
          <Trackpoint>
            <Time>2021-04-03T07:19:41.000Z</Time>
            <Position>
              <LatitudeDegrees>42.30884154327213764190673828125</LatitudeDegrees>
              <LongitudeDegrees>2.58694357238709926605224609375</LongitudeDegrees>
            </Position>
            <AltitudeMeters>533.4000244140625</AltitudeMeters>
            <DistanceMeters>NAN</DistanceMeters>
          </Trackpoint>
          <Trackpoint>
            <Time>2021-04-03T07:19:47.000Z</Time>
            <Position>
              <LatitudeDegrees>42.3087990470230579376220703125</LatitudeDegrees>
              <LongitudeDegrees>2.5869354419410228729248046875</LongitudeDegrees>
            </Position>
            <AltitudeMeters>532.4000244140625</AltitudeMeters>
            <DistanceMeters>NAN</DistanceMeters>
          </Trackpoint>
          <Trackpoint>
            <Time>2021-04-03T07:19:48.000Z</Time>
            <Position>
              <LatitudeDegrees>42.3087946884334087371826171875</LatitudeDegrees>
              <LongitudeDegrees>2.586931921541690826416015625</LongitudeDegrees>
            </Position>
            <AltitudeMeters>532.20001220703125</AltitudeMeters>
            <DistanceMeters>NAN</DistanceMeters>
          </Trackpoint>
          <Trackpoint>
            <Time>2021-04-03T07:19:54.000Z</Time>
            <Position>
              <LatitudeDegrees>42.3087586462497711181640625</LatitudeDegrees>
              <LongitudeDegrees>2.5868817977607250213623046875</LongitudeDegrees>
            </Position>
            <AltitudeMeters>531.5999755859375</AltitudeMeters>
            <DistanceMeters>NAN</DistanceMeters>
          </Trackpoint>
          <Trackpoint>
            <Time>2021-04-03T07:19:56.000Z</Time>
            <Position>
              <LatitudeDegrees>42.308743558824062347412109375</LatitudeDegrees>
              <LongitudeDegrees>2.58687551133334636688232421875</LongitudeDegrees>
            </Position>
            <AltitudeMeters>531.4000244140625</AltitudeMeters>
            <DistanceMeters>NAN</DistanceMeters>
          </Trackpoint>
          <Trackpoint>
            <Time>2021-04-03T07:19:57.000Z</Time>
            <Position>
              <LatitudeDegrees>42.3087350092828273773193359375</LatitudeDegrees>
              <LongitudeDegrees>2.58687215857207775115966796875</LongitudeDegrees>
            </Position>
            <AltitudeMeters>531.20001220703125</AltitudeMeters>
            <DistanceMeters>NAN</DistanceMeters>
          </Trackpoint>
          <Trackpoint>
            <Time>2021-04-03T07:19:59.000Z</Time>
            <Position>
              <LatitudeDegrees>42.308722101151943206787109375</LatitudeDegrees>
              <LongitudeDegrees>2.58685640059411525726318359375</LongitudeDegrees>
            </Position>
            <AltitudeMeters>530.5999755859375</AltitudeMeters>
            <DistanceMeters>NAN</DistanceMeters>
          </Trackpoint>
          <Trackpoint>
            <Time>2021-04-03T07:20:00.000Z</Time>
            <Position>
              <LatitudeDegrees>42.30871346779167652130126953125</LatitudeDegrees>
              <LongitudeDegrees>2.58684952743351459503173828125</LongitudeDegrees>
            </Position>
            <AltitudeMeters>530.20001220703125</AltitudeMeters>
            <DistanceMeters>NAN</DistanceMeters>
          </Trackpoint>
          <Trackpoint>
            <Time>2021-04-03T07:20:02.000Z</Time>
            <Position>
              <LatitudeDegrees>42.30870139785110950469970703125</LatitudeDegrees>
              <LongitudeDegrees>2.58683494292199611663818359375</LongitudeDegrees>
            </Position>
            <AltitudeMeters>529.79998779296875</AltitudeMeters>
            <DistanceMeters>NAN</DistanceMeters>
          </Trackpoint>
          <Trackpoint>
            <Time>2021-04-03T07:20:07.000Z</Time>
            <Position>
              <LatitudeDegrees>42.3086488433182239532470703125</LatitudeDegrees>
              <LongitudeDegrees>2.58681264705955982208251953125</LongitudeDegrees>
            </Position>
            <AltitudeMeters>530.5999755859375</AltitudeMeters>
            <DistanceMeters>NAN</DistanceMeters>
          </Trackpoint>
          <Trackpoint>
            <Time>2021-04-03T07:20:08.000Z</Time>
            <Position>
              <LatitudeDegrees>42.30863886885344982147216796875</LatitudeDegrees>
              <LongitudeDegrees>2.58681356906890869140625</LongitudeDegrees>
            </Position>
            <AltitudeMeters>530.4000244140625</AltitudeMeters>
            <DistanceMeters>NAN</DistanceMeters>
          </Trackpoint>
          <Trackpoint>
            <Time>2021-04-03T07:20:10.000Z</Time>
            <Position>
              <LatitudeDegrees>42.3086203448474407196044921875</LatitudeDegrees>
              <LongitudeDegrees>2.58681952022016048431396484375</LongitudeDegrees>
            </Position>
            <AltitudeMeters>530.4000244140625</AltitudeMeters>
            <DistanceMeters>NAN</DistanceMeters>
          </Trackpoint>
          <Trackpoint>
            <Time>2021-04-03T07:20:12.000Z</Time>
            <Position>
              <LatitudeDegrees>42.30859360657632350921630859375</LatitudeDegrees>
              <LongitudeDegrees>2.58682806976139545440673828125</LongitudeDegrees>
            </Position>
            <AltitudeMeters>530.5999755859375</AltitudeMeters>
            <DistanceMeters>NAN</DistanceMeters>
          </Trackpoint>
          <Trackpoint>
            <Time>2021-04-03T07:20:17.000Z</Time>
            <Position>
              <LatitudeDegrees>42.30855069123208522796630859375</LatitudeDegrees>
              <LongitudeDegrees>2.5868040136992931365966796875</LongitudeDegrees>
            </Position>
            <AltitudeMeters>530.79998779296875</AltitudeMeters>
            <DistanceMeters>NAN</DistanceMeters>
          </Trackpoint>
          <Trackpoint>
            <Time>2021-04-03T07:20:20.000Z</Time>
            <Position>
              <LatitudeDegrees>42.30853409506380558013916015625</LatitudeDegrees>
              <LongitudeDegrees>2.58680862374603748321533203125</LongitudeDegrees>
            </Position>
            <AltitudeMeters>531.20001220703125</AltitudeMeters>
            <DistanceMeters>NAN</DistanceMeters>
          </Trackpoint>
          <Trackpoint>
            <Time>2021-04-03T07:20:21.000Z</Time>
            <Position>
              <LatitudeDegrees>42.30852956883609294891357421875</LatitudeDegrees>
              <LongitudeDegrees>2.5868134014308452606201171875</LongitudeDegrees>
            </Position>
            <AltitudeMeters>531.20001220703125</AltitudeMeters>
            <DistanceMeters>NAN</DistanceMeters>
          </Trackpoint>
          <Trackpoint>
            <Time>2021-04-03T07:20:25.000Z</Time>
            <Position>
              <LatitudeDegrees>42.30851448141038417816162109375</LatitudeDegrees>
              <LongitudeDegrees>2.586800493299961090087890625</LongitudeDegrees>
            </Position>
            <AltitudeMeters>532</AltitudeMeters>
            <DistanceMeters>NAN</DistanceMeters>
          </Trackpoint>
          <Trackpoint>
            <Time>2021-04-03T07:20:27.000Z</Time>
            <Position>
              <LatitudeDegrees>42.3085076920688152313232421875</LatitudeDegrees>
              <LongitudeDegrees>2.586800158023834228515625</LongitudeDegrees>
            </Position>
            <AltitudeMeters>532.20001220703125</AltitudeMeters>
            <DistanceMeters>NAN</DistanceMeters>
          </Trackpoint>
          <Trackpoint>
            <Time>2021-04-03T07:20:28.000Z</Time>
            <Position>
              <LatitudeDegrees>42.30850207619369029998779296875</LatitudeDegrees>
              <LongitudeDegrees>2.586805522441864013671875</LongitudeDegrees>
            </Position>
            <AltitudeMeters>532.4000244140625</AltitudeMeters>
            <DistanceMeters>NAN</DistanceMeters>
          </Trackpoint>
          <Trackpoint>
            <Time>2021-04-03T07:20:29.000Z</Time>
            <Position>
              <LatitudeDegrees>42.30849754996597766876220703125</LatitudeDegrees>
              <LongitudeDegrees>2.58680728264153003692626953125</LongitudeDegrees>
            </Position>
            <AltitudeMeters>532.5999755859375</AltitudeMeters>
            <DistanceMeters>NAN</DistanceMeters>
          </Trackpoint>
          <Trackpoint>
            <Time>2021-04-03T07:20:31.000Z</Time>
            <Position>
              <LatitudeDegrees>42.3084862343966960906982421875</LatitudeDegrees>
              <LongitudeDegrees>2.586823292076587677001953125</LongitudeDegrees>
            </Position>
            <AltitudeMeters>533</AltitudeMeters>
            <DistanceMeters>NAN</DistanceMeters>
          </Trackpoint>
          <Trackpoint>
            <Time>2021-04-03T07:20:34.000Z</Time>
            <Position>
              <LatitudeDegrees>42.30846586637198925018310546875</LatitudeDegrees>
              <LongitudeDegrees>2.5868492759764194488525390625</LongitudeDegrees>
            </Position>
            <AltitudeMeters>533.4000244140625</AltitudeMeters>
            <DistanceMeters>NAN</DistanceMeters>
          </Trackpoint>
          <Trackpoint>
            <Time>2021-04-03T07:20:35.000Z</Time>
            <Position>
              <LatitudeDegrees>42.3084600828588008880615234375</LatitudeDegrees>
              <LongitudeDegrees>2.58685589767992496490478515625</LongitudeDegrees>
            </Position>
            <AltitudeMeters>533.4000244140625</AltitudeMeters>
            <DistanceMeters>NAN</DistanceMeters>
          </Trackpoint>
          <Trackpoint>
            <Time>2021-04-03T07:20:36.000Z</Time>
            <Position>
              <LatitudeDegrees>42.30845463462173938751220703125</LatitudeDegrees>
              <LongitudeDegrees>2.58685857988893985748291015625</LongitudeDegrees>
            </Position>
            <AltitudeMeters>533.5999755859375</AltitudeMeters>
            <DistanceMeters>NAN</DistanceMeters>
          </Trackpoint>
          <Trackpoint>
            <Time>2021-04-03T07:20:37.000Z</Time>
            <Position>
              <LatitudeDegrees>42.30845295824110507965087890625</LatitudeDegrees>
              <LongitudeDegrees>2.58686645887792110443115234375</LongitudeDegrees>
            </Position>
            <AltitudeMeters>533.79998779296875</AltitudeMeters>
            <DistanceMeters>NAN</DistanceMeters>
          </Trackpoint>
          <Trackpoint>
            <Time>2021-04-03T07:20:39.000Z</Time>
            <Position>
              <LatitudeDegrees>42.30844491161406040191650390625</LatitudeDegrees>
              <LongitudeDegrees>2.58688188157975673675537109375</LongitudeDegrees>
            </Position>
            <AltitudeMeters>534</AltitudeMeters>
            <DistanceMeters>NAN</DistanceMeters>
          </Trackpoint>
          <Trackpoint>
            <Time>2021-04-03T07:20:41.000Z</Time>
            <Position>
              <LatitudeDegrees>42.3084359429776668548583984375</LatitudeDegrees>
              <LongitudeDegrees>2.58688691072165966033935546875</LongitudeDegrees>
            </Position>
            <AltitudeMeters>534.4000244140625</AltitudeMeters>
            <DistanceMeters>NAN</DistanceMeters>
          </Trackpoint>
          <Trackpoint>
            <Time>2021-04-03T07:20:43.000Z</Time>
            <Position>
              <LatitudeDegrees>42.30842228047549724578857421875</LatitudeDegrees>
              <LongitudeDegrees>2.58688691072165966033935546875</LongitudeDegrees>
            </Position>
            <AltitudeMeters>534.5999755859375</AltitudeMeters>
            <DistanceMeters>NAN</DistanceMeters>
          </Trackpoint>
          <Trackpoint>
            <Time>2021-04-03T07:20:44.000Z</Time>
            <Position>
              <LatitudeDegrees>42.3084171675145626068115234375</LatitudeDegrees>
              <LongitudeDegrees>2.5868861563503742218017578125</LongitudeDegrees>
            </Position>
            <AltitudeMeters>534.5999755859375</AltitudeMeters>
            <DistanceMeters>NAN</DistanceMeters>
          </Trackpoint>
          <Trackpoint>
            <Time>2021-04-03T07:20:46.000Z</Time>
            <Position>
              <LatitudeDegrees>42.30841406621038913726806640625</LatitudeDegrees>
              <LongitudeDegrees>2.5868784449994564056396484375</LongitudeDegrees>
            </Position>
            <AltitudeMeters>534.79998779296875</AltitudeMeters>
            <DistanceMeters>NAN</DistanceMeters>
          </Trackpoint>
          <Trackpoint>
            <Time>2021-04-03T07:20:47.000Z</Time>
            <Position>
              <LatitudeDegrees>42.30841054581105709075927734375</LatitudeDegrees>
              <LongitudeDegrees>2.5868797861039638519287109375</LongitudeDegrees>
            </Position>
            <AltitudeMeters>534.79998779296875</AltitudeMeters>
            <DistanceMeters>NAN</DistanceMeters>
          </Trackpoint>
          <Trackpoint>
            <Time>2021-04-03T07:20:49.000Z</Time>
            <Position>
              <LatitudeDegrees>42.30840333737432956695556640625</LatitudeDegrees>
              <LongitudeDegrees>2.58687903173267841339111328125</LongitudeDegrees>
            </Position>
            <AltitudeMeters>535</AltitudeMeters>
            <DistanceMeters>NAN</DistanceMeters>
          </Trackpoint>
          <Trackpoint>
            <Time>2021-04-03T07:20:50.000Z</Time>
            <Position>
              <LatitudeDegrees>42.30839797295629978179931640625</LatitudeDegrees>
              <LongitudeDegrees>2.58688054047524929046630859375</LongitudeDegrees>
            </Position>
            <AltitudeMeters>535</AltitudeMeters>
            <DistanceMeters>NAN</DistanceMeters>
          </Trackpoint>
          <Trackpoint>
            <Time>2021-04-03T07:20:53.000Z</Time>
            <Position>
              <LatitudeDegrees>42.3083843104541301727294921875</LatitudeDegrees>
              <LongitudeDegrees>2.5868921913206577301025390625</LongitudeDegrees>
            </Position>
            <AltitudeMeters>535</AltitudeMeters>
            <DistanceMeters>NAN</DistanceMeters>
          </Trackpoint>
          <Trackpoint>
            <Time>2021-04-03T07:20:56.000Z</Time>
            <Position>
              <LatitudeDegrees>42.3083584941923618316650390625</LatitudeDegrees>
              <LongitudeDegrees>2.5869146548211574554443359375</LongitudeDegrees>
            </Position>
            <AltitudeMeters>535.20001220703125</AltitudeMeters>
            <DistanceMeters>NAN</DistanceMeters>
          </Trackpoint>
          <Trackpoint>
            <Time>2021-04-03T07:20:59.000Z</Time>
            <Position>
              <LatitudeDegrees>42.30833418667316436767578125</LatitudeDegrees>
              <LongitudeDegrees>2.58694239892065525054931640625</LongitudeDegrees>
            </Position>
            <AltitudeMeters>535.4000244140625</AltitudeMeters>
            <DistanceMeters>NAN</DistanceMeters>
          </Trackpoint>
          <Trackpoint>
            <Time>2021-04-03T07:21:01.000Z</Time>
            <Position>
              <LatitudeDegrees>42.30832488276064395904541015625</LatitudeDegrees>
              <LongitudeDegrees>2.58695681579411029815673828125</LongitudeDegrees>
            </Position>
            <AltitudeMeters>535.5999755859375</AltitudeMeters>
            <DistanceMeters>NAN</DistanceMeters>
          </Trackpoint>
          <Trackpoint>
            <Time>2021-04-03T07:21:03.000Z</Time>
            <Position>
              <LatitudeDegrees>42.308315746486186981201171875</LatitudeDegrees>
              <LongitudeDegrees>2.5869686342775821685791015625</LongitudeDegrees>
            </Position>
            <AltitudeMeters>535.79998779296875</AltitudeMeters>
            <DistanceMeters>NAN</DistanceMeters>
          </Trackpoint>
          <Trackpoint>
            <Time>2021-04-03T07:21:06.000Z</Time>
            <Position>
              <LatitudeDegrees>42.30829504318535327911376953125</LatitudeDegrees>
              <LongitudeDegrees>2.58697290904819965362548828125</LongitudeDegrees>
            </Position>
            <AltitudeMeters>536.4000244140625</AltitudeMeters>
            <DistanceMeters>NAN</DistanceMeters>
          </Trackpoint>
          <Trackpoint>
            <Time>2021-04-03T07:21:07.000Z</Time>
            <Position>
              <LatitudeDegrees>42.3082887567579746246337890625</LatitudeDegrees>
              <LongitudeDegrees>2.586977183818817138671875</LongitudeDegrees>
            </Position>
            <AltitudeMeters>536.5999755859375</AltitudeMeters>
            <DistanceMeters>NAN</DistanceMeters>
          </Trackpoint>
          <Trackpoint>
            <Time>2021-04-03T07:21:09.000Z</Time>
            <Position>
              <LatitudeDegrees>42.30827241204679012298583984375</LatitudeDegrees>
              <LongitudeDegrees>2.58697994984686374664306640625</LongitudeDegrees>
            </Position>
            <AltitudeMeters>536.79998779296875</AltitudeMeters>
            <DistanceMeters>NAN</DistanceMeters>
          </Trackpoint>
          <Trackpoint>
            <Time>2021-04-03T07:21:10.000Z</Time>
            <Position>
              <LatitudeDegrees>42.30826520361006259918212890625</LatitudeDegrees>
              <LongitudeDegrees>2.58697559125721454620361328125</LongitudeDegrees>
            </Position>
            <AltitudeMeters>537</AltitudeMeters>
            <DistanceMeters>NAN</DistanceMeters>
          </Trackpoint>
          <Trackpoint>
            <Time>2021-04-03T07:21:13.000Z</Time>
            <Position>
              <LatitudeDegrees>42.30823636986315250396728515625</LatitudeDegrees>
              <LongitudeDegrees>2.5869615934789180755615234375</LongitudeDegrees>
            </Position>
            <AltitudeMeters>537.5999755859375</AltitudeMeters>
            <DistanceMeters>NAN</DistanceMeters>
          </Trackpoint>
          <Trackpoint>
            <Time>2021-04-03T07:21:16.000Z</Time>
            <Position>
              <LatitudeDegrees>42.3082106374204158782958984375</LatitudeDegrees>
              <LongitudeDegrees>2.586951367557048797607421875</LongitudeDegrees>
            </Position>
            <AltitudeMeters>537.79998779296875</AltitudeMeters>
            <DistanceMeters>NAN</DistanceMeters>
          </Trackpoint>
          <Trackpoint>
            <Time>2021-04-03T07:21:19.000Z</Time>
            <Position>
              <LatitudeDegrees>42.308187000453472137451171875</LatitudeDegrees>
              <LongitudeDegrees>2.58692865259945392608642578125</LongitudeDegrees>
            </Position>
            <AltitudeMeters>538.5999755859375</AltitudeMeters>
            <DistanceMeters>NAN</DistanceMeters>
          </Trackpoint>
          <Trackpoint>
            <Time>2021-04-03T07:21:20.000Z</Time>
            <Position>
              <LatitudeDegrees>42.30818322859704494476318359375</LatitudeDegrees>
              <LongitudeDegrees>2.58692496456205844879150390625</LongitudeDegrees>
            </Position>
            <AltitudeMeters>538.79998779296875</AltitudeMeters>
            <DistanceMeters>NAN</DistanceMeters>
          </Trackpoint>
          <Trackpoint>
            <Time>2021-04-03T07:21:23.000Z</Time>
            <Position>
              <LatitudeDegrees>42.30816923081874847412109375</LatitudeDegrees>
              <LongitudeDegrees>2.58691842667758464813232421875</LongitudeDegrees>
            </Position>
            <AltitudeMeters>539.20001220703125</AltitudeMeters>
            <DistanceMeters>NAN</DistanceMeters>
          </Trackpoint>
          <Trackpoint>
            <Time>2021-04-03T07:21:25.000Z</Time>
            <Position>
              <LatitudeDegrees>42.30814266018569469451904296875</LatitudeDegrees>
              <LongitudeDegrees>2.58691976778209209442138671875</LongitudeDegrees>
            </Position>
            <AltitudeMeters>539.5999755859375</AltitudeMeters>
            <DistanceMeters>NAN</DistanceMeters>
          </Trackpoint>
          <Trackpoint>
            <Time>2021-04-03T07:21:26.000Z</Time>
            <Position>
              <LatitudeDegrees>42.30813302099704742431640625</LatitudeDegrees>
              <LongitudeDegrees>2.5869143195450305938720703125</LongitudeDegrees>
            </Position>
            <AltitudeMeters>539.79998779296875</AltitudeMeters>
            <DistanceMeters>NAN</DistanceMeters>
          </Trackpoint>
          <Trackpoint>
            <Time>2021-04-03T07:21:28.000Z</Time>
            <Position>
              <LatitudeDegrees>42.3081181012094020843505859375</LatitudeDegrees>
              <LongitudeDegrees>2.58691574446856975555419921875</LongitudeDegrees>
            </Position>
            <AltitudeMeters>540.20001220703125</AltitudeMeters>
            <DistanceMeters>NAN</DistanceMeters>
          </Trackpoint>
          <Trackpoint>
            <Time>2021-04-03T07:21:31.000Z</Time>
            <Position>
              <LatitudeDegrees>42.30809748172760009765625</LatitudeDegrees>
              <LongitudeDegrees>2.5869047641754150390625</LongitudeDegrees>
            </Position>
            <AltitudeMeters>540.4000244140625</AltitudeMeters>
            <DistanceMeters>NAN</DistanceMeters>
          </Trackpoint>
          <Trackpoint>
            <Time>2021-04-03T07:21:33.000Z</Time>
            <Position>
              <LatitudeDegrees>42.30808197520673274993896484375</LatitudeDegrees>
              <LongitudeDegrees>2.5869012437760829925537109375</LongitudeDegrees>
            </Position>
            <AltitudeMeters>540.79998779296875</AltitudeMeters>
            <DistanceMeters>NAN</DistanceMeters>
          </Trackpoint>
          <Trackpoint>
            <Time>2021-04-03T07:21:34.000Z</Time>
            <Position>
              <LatitudeDegrees>42.30807443149387836456298828125</LatitudeDegrees>
              <LongitudeDegrees>2.586901746690273284912109375</LongitudeDegrees>
            </Position>
            <AltitudeMeters>541</AltitudeMeters>
            <DistanceMeters>NAN</DistanceMeters>
          </Trackpoint>
          <Trackpoint>
            <Time>2021-04-03T07:21:36.000Z</Time>
            <Position>
              <LatitudeDegrees>42.308057248592376708984375</LatitudeDegrees>
              <LongitudeDegrees>2.58690400980412960052490234375</LongitudeDegrees>
            </Position>
            <AltitudeMeters>541.20001220703125</AltitudeMeters>
            <DistanceMeters>NAN</DistanceMeters>
          </Trackpoint>
          <Trackpoint>
            <Time>2021-04-03T07:21:38.000Z</Time>
            <Position>
              <LatitudeDegrees>42.30804023332893848419189453125</LatitudeDegrees>
              <LongitudeDegrees>2.586904428899288177490234375</LongitudeDegrees>
            </Position>
            <AltitudeMeters>541.20001220703125</AltitudeMeters>
            <DistanceMeters>NAN</DistanceMeters>
          </Trackpoint>
          <Trackpoint>
            <Time>2021-04-03T07:21:39.000Z</Time>
            <Position>
              <LatitudeDegrees>42.30803051032125949859619140625</LatitudeDegrees>
              <LongitudeDegrees>2.586899735033512115478515625</LongitudeDegrees>
            </Position>
            <AltitudeMeters>541.20001220703125</AltitudeMeters>
            <DistanceMeters>NAN</DistanceMeters>
          </Trackpoint>
          <Trackpoint>
            <Time>2021-04-03T07:21:43.000Z</Time>
            <Position>
              <LatitudeDegrees>42.307998575270175933837890625</LatitudeDegrees>
              <LongitudeDegrees>2.5868838094174861907958984375</LongitudeDegrees>
            </Position>
            <AltitudeMeters>541.79998779296875</AltitudeMeters>
            <DistanceMeters>NAN</DistanceMeters>
          </Trackpoint>
          <Trackpoint>
            <Time>2021-04-03T07:21:44.000Z</Time>
            <Position>
              <LatitudeDegrees>42.3079913668334484100341796875</LatitudeDegrees>
              <LongitudeDegrees>2.58688020519912242889404296875</LongitudeDegrees>
            </Position>
            <AltitudeMeters>542</AltitudeMeters>
            <DistanceMeters>NAN</DistanceMeters>
          </Trackpoint>
          <Trackpoint>
            <Time>2021-04-03T07:21:48.000Z</Time>
            <Position>
              <LatitudeDegrees>42.30796446092426776885986328125</LatitudeDegrees>
              <LongitudeDegrees>2.5868445821106433868408203125</LongitudeDegrees>
            </Position>
            <AltitudeMeters>542.4000244140625</AltitudeMeters>
            <DistanceMeters>NAN</DistanceMeters>
          </Trackpoint>
          <Trackpoint>
            <Time>2021-04-03T07:21:51.000Z</Time>
            <Position>
              <LatitudeDegrees>42.30794526636600494384765625</LatitudeDegrees>
              <LongitudeDegrees>2.5868127308785915374755859375</LongitudeDegrees>
            </Position>
            <AltitudeMeters>542.79998779296875</AltitudeMeters>
            <DistanceMeters>NAN</DistanceMeters>
          </Trackpoint>
          <Trackpoint>
            <Time>2021-04-03T07:21:52.000Z</Time>
            <Position>
              <LatitudeDegrees>42.30794149450957775115966796875</LatitudeDegrees>
              <LongitudeDegrees>2.58680476807057857513427734375</LongitudeDegrees>
            </Position>
            <AltitudeMeters>542.79998779296875</AltitudeMeters>
            <DistanceMeters>NAN</DistanceMeters>
          </Trackpoint>
          <Trackpoint>
            <Time>2021-04-03T07:21:55.000Z</Time>
            <Position>
              <LatitudeDegrees>42.3079273290932178497314453125</LatitudeDegrees>
              <LongitudeDegrees>2.58678280748426914215087890625</LongitudeDegrees>
            </Position>
            <AltitudeMeters>543</AltitudeMeters>
            <DistanceMeters>NAN</DistanceMeters>
          </Trackpoint>
          <Trackpoint>
            <Time>2021-04-03T07:21:59.000Z</Time>
            <Position>
              <LatitudeDegrees>42.30790436267852783203125</LatitudeDegrees>
              <LongitudeDegrees>2.5867758505046367645263671875</LongitudeDegrees>
            </Position>
            <AltitudeMeters>543.5999755859375</AltitudeMeters>
            <DistanceMeters>NAN</DistanceMeters>
          </Trackpoint>
          <Trackpoint>
            <Time>2021-04-03T07:22:02.000Z</Time>
            <Position>
              <LatitudeDegrees>42.30789187364280223846435546875</LatitudeDegrees>
              <LongitudeDegrees>2.58675531484186649322509765625</LongitudeDegrees>
            </Position>
            <AltitudeMeters>544.20001220703125</AltitudeMeters>
            <DistanceMeters>NAN</DistanceMeters>
          </Trackpoint>
          <Trackpoint>
            <Time>2021-04-03T07:22:04.000Z</Time>
            <Position>
              <LatitudeDegrees>42.30788667686283588409423828125</LatitudeDegrees>
              <LongitudeDegrees>2.5867490284144878387451171875</LongitudeDegrees>
            </Position>
            <AltitudeMeters>544.4000244140625</AltitudeMeters>
            <DistanceMeters>NAN</DistanceMeters>
          </Trackpoint>
          <Trackpoint>
            <Time>2021-04-03T07:22:05.000Z</Time>
            <Position>
              <LatitudeDegrees>42.30788357555866241455078125</LatitudeDegrees>
              <LongitudeDegrees>2.5867480225861072540283203125</LongitudeDegrees>
            </Position>
            <AltitudeMeters>544.5999755859375</AltitudeMeters>
            <DistanceMeters>NAN</DistanceMeters>
          </Trackpoint>
          <Trackpoint>
            <Time>2021-04-03T07:22:07.000Z</Time>
            <Position>
              <LatitudeDegrees>42.307871170341968536376953125</LatitudeDegrees>
              <LongitudeDegrees>2.5867580808699131011962890625</LongitudeDegrees>
            </Position>
            <AltitudeMeters>545</AltitudeMeters>
            <DistanceMeters>NAN</DistanceMeters>
          </Trackpoint>
          <Trackpoint>
            <Time>2021-04-03T07:22:08.000Z</Time>
            <Position>
              <LatitudeDegrees>42.30787527747452259063720703125</LatitudeDegrees>
              <LongitudeDegrees>2.5867577455937862396240234375</LongitudeDegrees>
            </Position>
            <AltitudeMeters>545.20001220703125</AltitudeMeters>
            <DistanceMeters>NAN</DistanceMeters>
          </Trackpoint>
          <Trackpoint>
            <Time>2021-04-03T07:22:13.000Z</Time>
            <Position>
              <LatitudeDegrees>42.30784677900373935699462890625</LatitudeDegrees>
              <LongitudeDegrees>2.586718685925006866455078125</LongitudeDegrees>
            </Position>
            <AltitudeMeters>545.5999755859375</AltitudeMeters>
            <DistanceMeters>NAN</DistanceMeters>
          </Trackpoint>
          <Trackpoint>
            <Time>2021-04-03T07:22:18.000Z</Time>
            <Position>
              <LatitudeDegrees>42.3078357987105846405029296875</LatitudeDegrees>
              <LongitudeDegrees>2.58670250885188579559326171875</LongitudeDegrees>
            </Position>
            <AltitudeMeters>546.20001220703125</AltitudeMeters>
            <DistanceMeters>NAN</DistanceMeters>
          </Trackpoint>
          <Trackpoint>
            <Time>2021-04-03T07:22:19.000Z</Time>
            <Position>
              <LatitudeDegrees>42.307830937206745147705078125</LatitudeDegrees>
              <LongitudeDegrees>2.586700916290283203125</LongitudeDegrees>
            </Position>
            <AltitudeMeters>546.5999755859375</AltitudeMeters>
            <DistanceMeters>NAN</DistanceMeters>
          </Trackpoint>
          <Trackpoint>
            <Time>2021-04-03T07:22:21.000Z</Time>
            <Position>
              <LatitudeDegrees>42.30782590806484222412109375</LatitudeDegrees>
              <LongitudeDegrees>2.58669999428093433380126953125</LongitudeDegrees>
            </Position>
            <AltitudeMeters>546.79998779296875</AltitudeMeters>
            <DistanceMeters>NAN</DistanceMeters>
          </Trackpoint>
          <Trackpoint>
            <Time>2021-04-03T07:22:23.000Z</Time>
            <Position>
              <LatitudeDegrees>42.3078210465610027313232421875</LatitudeDegrees>
              <LongitudeDegrees>2.5866870023310184478759765625</LongitudeDegrees>
            </Position>
            <AltitudeMeters>547.20001220703125</AltitudeMeters>
            <DistanceMeters>NAN</DistanceMeters>
          </Trackpoint>
          <Trackpoint>
            <Time>2021-04-03T07:22:24.000Z</Time>
            <Position>
              <LatitudeDegrees>42.307819537818431854248046875</LatitudeDegrees>
              <LongitudeDegrees>2.5866863317787647247314453125</LongitudeDegrees>
            </Position>
            <AltitudeMeters>547.4000244140625</AltitudeMeters>
            <DistanceMeters>NAN</DistanceMeters>
          </Trackpoint>
          <Trackpoint>
            <Time>2021-04-03T07:22:28.000Z</Time>
            <Position>
              <LatitudeDegrees>42.30780721642076969146728515625</LatitudeDegrees>
              <LongitudeDegrees>2.5866943784058094024658203125</LongitudeDegrees>
            </Position>
            <AltitudeMeters>548</AltitudeMeters>
            <DistanceMeters>NAN</DistanceMeters>
          </Trackpoint>
          <Trackpoint>
            <Time>2021-04-03T07:22:30.000Z</Time>
            <Position>
              <LatitudeDegrees>42.3077999241650104522705078125</LatitudeDegrees>
              <LongitudeDegrees>2.5866968929767608642578125</LongitudeDegrees>
            </Position>
            <AltitudeMeters>548.5999755859375</AltitudeMeters>
            <DistanceMeters>NAN</DistanceMeters>
          </Trackpoint>
          <Trackpoint>
            <Time>2021-04-03T07:22:33.000Z</Time>
            <Position>
              <LatitudeDegrees>42.30779162608087062835693359375</LatitudeDegrees>
              <LongitudeDegrees>2.58669462986290454864501953125</LongitudeDegrees>
            </Position>
            <AltitudeMeters>549</AltitudeMeters>
            <DistanceMeters>NAN</DistanceMeters>
          </Trackpoint>
          <Trackpoint>
            <Time>2021-04-03T07:22:38.000Z</Time>
            <Position>
              <LatitudeDegrees>42.3077442683279514312744140625</LatitudeDegrees>
              <LongitudeDegrees>2.5866591744124889373779296875</LongitudeDegrees>
            </Position>
            <AltitudeMeters>549.79998779296875</AltitudeMeters>
            <DistanceMeters>NAN</DistanceMeters>
          </Trackpoint>
          <Trackpoint>
            <Time>2021-04-03T07:22:40.000Z</Time>
            <Position>
              <LatitudeDegrees>42.307730019092559814453125</LatitudeDegrees>
              <LongitudeDegrees>2.5866477750241756439208984375</LongitudeDegrees>
            </Position>
            <AltitudeMeters>550.20001220703125</AltitudeMeters>
            <DistanceMeters>NAN</DistanceMeters>
          </Trackpoint>
          <Trackpoint>
            <Time>2021-04-03T07:22:45.000Z</Time>
            <Position>
              <LatitudeDegrees>42.30772021226584911346435546875</LatitudeDegrees>
              <LongitudeDegrees>2.5866206176578998565673828125</LongitudeDegrees>
            </Position>
            <AltitudeMeters>550.79998779296875</AltitudeMeters>
            <DistanceMeters>NAN</DistanceMeters>
          </Trackpoint>
          <Trackpoint>
            <Time>2021-04-03T07:22:46.000Z</Time>
            <Position>
              <LatitudeDegrees>42.3077164404094219207763671875</LatitudeDegrees>
              <LongitudeDegrees>2.58662003092467784881591796875</LongitudeDegrees>
            </Position>
            <AltitudeMeters>551</AltitudeMeters>
            <DistanceMeters>NAN</DistanceMeters>
          </Trackpoint>
          <Trackpoint>
            <Time>2021-04-03T07:22:48.000Z</Time>
            <Position>
              <LatitudeDegrees>42.30771484784781932830810546875</LatitudeDegrees>
              <LongitudeDegrees>2.586612403392791748046875</LongitudeDegrees>
            </Position>
            <AltitudeMeters>551.20001220703125</AltitudeMeters>
            <DistanceMeters>NAN</DistanceMeters>
          </Trackpoint>
          <Trackpoint>
            <Time>2021-04-03T07:22:52.000Z</Time>
            <Position>
              <LatitudeDegrees>42.3077147640287876129150390625</LatitudeDegrees>
              <LongitudeDegrees>2.58659589104354381561279296875</LongitudeDegrees>
            </Position>
            <AltitudeMeters>552</AltitudeMeters>
            <DistanceMeters>NAN</DistanceMeters>
          </Trackpoint>
          <Trackpoint>
            <Time>2021-04-03T07:22:58.000Z</Time>
            <Position>
              <LatitudeDegrees>42.307693473994731903076171875</LatitudeDegrees>
              <LongitudeDegrees>2.58658767677843570709228515625</LongitudeDegrees>
            </Position>
            <AltitudeMeters>552.79998779296875</AltitudeMeters>
            <DistanceMeters>NAN</DistanceMeters>
          </Trackpoint>
          <Trackpoint>
            <Time>2021-04-03T07:22:59.000Z</Time>
            <Position>
              <LatitudeDegrees>42.3076919652521610260009765625</LatitudeDegrees>
              <LongitudeDegrees>2.5865850783884525299072265625</LongitudeDegrees>
            </Position>
            <AltitudeMeters>553</AltitudeMeters>
            <DistanceMeters>NAN</DistanceMeters>
          </Trackpoint>
          <Trackpoint>
            <Time>2021-04-03T07:23:05.000Z</Time>
            <Position>
              <LatitudeDegrees>42.3076483793556690216064453125</LatitudeDegrees>
              <LongitudeDegrees>2.58657309226691722869873046875</LongitudeDegrees>
            </Position>
            <AltitudeMeters>553.79998779296875</AltitudeMeters>
            <DistanceMeters>NAN</DistanceMeters>
          </Trackpoint>
          <Trackpoint>
            <Time>2021-04-03T07:23:07.000Z</Time>
            <Position>
              <LatitudeDegrees>42.30764142237603664398193359375</LatitudeDegrees>
              <LongitudeDegrees>2.58657661266624927520751953125</LongitudeDegrees>
            </Position>
            <AltitudeMeters>554</AltitudeMeters>
            <DistanceMeters>NAN</DistanceMeters>
          </Trackpoint>
          <Trackpoint>
            <Time>2021-04-03T07:23:12.000Z</Time>
            <Position>
              <LatitudeDegrees>42.30761879123747348785400390625</LatitudeDegrees>
              <LongitudeDegrees>2.5865720026195049285888671875</LongitudeDegrees>
            </Position>
            <AltitudeMeters>555</AltitudeMeters>
            <DistanceMeters>NAN</DistanceMeters>
          </Trackpoint>
          <Trackpoint>
            <Time>2021-04-03T07:23:14.000Z</Time>
            <Position>
              <LatitudeDegrees>42.3076158575713634490966796875</LatitudeDegrees>
              <LongitudeDegrees>2.58657141588628292083740234375</LongitudeDegrees>
            </Position>
            <AltitudeMeters>555</AltitudeMeters>
            <DistanceMeters>NAN</DistanceMeters>
          </Trackpoint>
          <Trackpoint>
            <Time>2021-04-03T07:23:17.000Z</Time>
            <Position>
              <LatitudeDegrees>42.30762071907520294189453125</LatitudeDegrees>
              <LongitudeDegrees>2.58656613528728485107421875</LongitudeDegrees>
            </Position>
            <AltitudeMeters>555.4000244140625</AltitudeMeters>
            <DistanceMeters>NAN</DistanceMeters>
          </Trackpoint>
          <Trackpoint>
            <Time>2021-04-03T07:23:21.000Z</Time>
            <Position>
              <LatitudeDegrees>42.30760722421109676361083984375</LatitudeDegrees>
              <LongitudeDegrees>2.5865770317614078521728515625</LongitudeDegrees>
            </Position>
            <AltitudeMeters>556.20001220703125</AltitudeMeters>
            <DistanceMeters>NAN</DistanceMeters>
          </Trackpoint>
          <Trackpoint>
            <Time>2021-04-03T07:23:25.000Z</Time>
            <Position>
              <LatitudeDegrees>42.30759163387119770050048828125</LatitudeDegrees>
              <LongitudeDegrees>2.5865693204104900360107421875</LongitudeDegrees>
            </Position>
            <AltitudeMeters>556.5999755859375</AltitudeMeters>
            <DistanceMeters>NAN</DistanceMeters>
          </Trackpoint>
          <Trackpoint>
            <Time>2021-04-03T07:23:28.000Z</Time>
            <Position>
              <LatitudeDegrees>42.30757738463580608367919921875</LatitudeDegrees>
              <LongitudeDegrees>2.586550377309322357177734375</LongitudeDegrees>
            </Position>
            <AltitudeMeters>557.20001220703125</AltitudeMeters>
            <DistanceMeters>NAN</DistanceMeters>
          </Trackpoint>
          <Trackpoint>
            <Time>2021-04-03T07:23:32.000Z</Time>
            <Position>
              <LatitudeDegrees>42.30755290947854518890380859375</LatitudeDegrees>
              <LongitudeDegrees>2.58653637953102588653564453125</LongitudeDegrees>
            </Position>
            <AltitudeMeters>557.79998779296875</AltitudeMeters>
            <DistanceMeters>NAN</DistanceMeters>
          </Trackpoint>
          <Trackpoint>
            <Time>2021-04-03T07:23:34.000Z</Time>
            <Position>
              <LatitudeDegrees>42.3075424320995807647705078125</LatitudeDegrees>
              <LongitudeDegrees>2.586538307368755340576171875</LongitudeDegrees>
            </Position>
            <AltitudeMeters>558.20001220703125</AltitudeMeters>
            <DistanceMeters>NAN</DistanceMeters>
          </Trackpoint>
          <Trackpoint>
            <Time>2021-04-03T07:23:40.000Z</Time>
            <Position>
              <LatitudeDegrees>42.30751602910459041595458984375</LatitudeDegrees>
              <LongitudeDegrees>2.58652858436107635498046875</LongitudeDegrees>
            </Position>
            <AltitudeMeters>559.4000244140625</AltitudeMeters>
            <DistanceMeters>NAN</DistanceMeters>
          </Trackpoint>
          <Trackpoint>
            <Time>2021-04-03T07:23:48.000Z</Time>
            <Position>
              <LatitudeDegrees>42.3074897937476634979248046875</LatitudeDegrees>
              <LongitudeDegrees>2.58655766956508159637451171875</LongitudeDegrees>
            </Position>
            <AltitudeMeters>560.4000244140625</AltitudeMeters>
            <DistanceMeters>NAN</DistanceMeters>
          </Trackpoint>
          <Trackpoint>
            <Time>2021-04-03T07:23:49.000Z</Time>
            <Position>
              <LatitudeDegrees>42.30748526751995086669921875</LatitudeDegrees>
              <LongitudeDegrees>2.58656085468828678131103515625</LongitudeDegrees>
            </Position>
            <AltitudeMeters>560.5999755859375</AltitudeMeters>
            <DistanceMeters>NAN</DistanceMeters>
          </Trackpoint>
          <Trackpoint>
            <Time>2021-04-03T07:23:57.000Z</Time>
            <Position>
              <LatitudeDegrees>42.3074522428214550018310546875</LatitudeDegrees>
              <LongitudeDegrees>2.58661181665956974029541015625</LongitudeDegrees>
            </Position>
            <AltitudeMeters>560.5999755859375</AltitudeMeters>
            <DistanceMeters>NAN</DistanceMeters>
          </Trackpoint>
          <Trackpoint>
            <Time>2021-04-03T07:23:58.000Z</Time>
            <Position>
              <LatitudeDegrees>42.307445369660854339599609375</LatitudeDegrees>
              <LongitudeDegrees>2.58661684580147266387939453125</LongitudeDegrees>
            </Position>
            <AltitudeMeters>560.5999755859375</AltitudeMeters>
            <DistanceMeters>NAN</DistanceMeters>
          </Trackpoint>
          <Trackpoint>
            <Time>2021-04-03T07:24:08.000Z</Time>
            <Position>
              <LatitudeDegrees>42.30736590921878814697265625</LatitudeDegrees>
              <LongitudeDegrees>2.586627490818500518798828125</LongitudeDegrees>
            </Position>
            <AltitudeMeters>560.4000244140625</AltitudeMeters>
            <DistanceMeters>NAN</DistanceMeters>
          </Trackpoint>
          <Trackpoint>
            <Time>2021-04-03T07:24:14.000Z</Time>
            <Position>
              <LatitudeDegrees>42.307356186211109161376953125</LatitudeDegrees>
              <LongitudeDegrees>2.5866474397480487823486328125</LongitudeDegrees>
            </Position>
            <AltitudeMeters>560.5999755859375</AltitudeMeters>
            <DistanceMeters>NAN</DistanceMeters>
          </Trackpoint>
          <Trackpoint>
            <Time>2021-04-03T07:24:18.000Z</Time>
            <Position>
              <LatitudeDegrees>42.3073412664234638214111328125</LatitudeDegrees>
              <LongitudeDegrees>2.58664266206324100494384765625</LongitudeDegrees>
            </Position>
            <AltitudeMeters>560.79998779296875</AltitudeMeters>
            <DistanceMeters>NAN</DistanceMeters>
          </Trackpoint>
          <Trackpoint>
            <Time>2021-04-03T07:24:21.000Z</Time>
            <Position>
              <LatitudeDegrees>42.30734570883214473724365234375</LatitudeDegrees>
              <LongitudeDegrees>2.58664123713970184326171875</LongitudeDegrees>
            </Position>
            <AltitudeMeters>560.79998779296875</AltitudeMeters>
            <DistanceMeters>NAN</DistanceMeters>
          </Trackpoint>
          <Trackpoint>
            <Time>2021-04-03T07:24:24.000Z</Time>
            <Position>
              <LatitudeDegrees>42.307342104613780975341796875</LatitudeDegrees>
              <LongitudeDegrees>2.58663293905556201934814453125</LongitudeDegrees>
            </Position>
            <AltitudeMeters>560.79998779296875</AltitudeMeters>
            <DistanceMeters>NAN</DistanceMeters>
          </Trackpoint>
          <Trackpoint>
            <Time>2021-04-03T07:24:27.000Z</Time>
            <Position>
              <LatitudeDegrees>42.30734487064182758331298828125</LatitudeDegrees>
              <LongitudeDegrees>2.5866367109119892120361328125</LongitudeDegrees>
            </Position>
            <AltitudeMeters>560.79998779296875</AltitudeMeters>
            <DistanceMeters>NAN</DistanceMeters>
          </Trackpoint>
          <Trackpoint>
            <Time>2021-04-03T07:24:32.000Z</Time>
            <Position>
              <LatitudeDegrees>42.3073318786919116973876953125</LatitudeDegrees>
              <LongitudeDegrees>2.586642913520336151123046875</LongitudeDegrees>
            </Position>
            <AltitudeMeters>560.79998779296875</AltitudeMeters>
            <DistanceMeters>NAN</DistanceMeters>
          </Trackpoint>
          <Trackpoint>
            <Time>2021-04-03T07:24:36.000Z</Time>
            <Position>
              <LatitudeDegrees>42.3073318786919116973876953125</LatitudeDegrees>
              <LongitudeDegrees>2.586642913520336151123046875</LongitudeDegrees>
            </Position>
            <AltitudeMeters>560.79998779296875</AltitudeMeters>
            <DistanceMeters>NAN</DistanceMeters>
          </Trackpoint>
          <Trackpoint>
            <Time>2021-04-03T07:24:45.000Z</Time>
            <Position>
              <LatitudeDegrees>42.3073318786919116973876953125</LatitudeDegrees>
              <LongitudeDegrees>2.586642913520336151123046875</LongitudeDegrees>
            </Position>
            <AltitudeMeters>560.79998779296875</AltitudeMeters>
            <DistanceMeters>NAN</DistanceMeters>
          </Trackpoint>
          <Trackpoint>
            <Time>2021-04-03T07:24:47.000Z</Time>
            <Position>
              <LatitudeDegrees>42.3073236644268035888671875</LatitudeDegrees>
              <LongitudeDegrees>2.58664031513035297393798828125</LongitudeDegrees>
            </Position>
            <AltitudeMeters>560.79998779296875</AltitudeMeters>
            <DistanceMeters>NAN</DistanceMeters>
          </Trackpoint>
          <Trackpoint>
            <Time>2021-04-03T07:24:49.000Z</Time>
            <Position>
              <LatitudeDegrees>42.3073221556842327117919921875</LatitudeDegrees>
              <LongitudeDegrees>2.58663729764521121978759765625</LongitudeDegrees>
            </Position>
            <AltitudeMeters>560.79998779296875</AltitudeMeters>
            <DistanceMeters>NAN</DistanceMeters>
          </Trackpoint>
          <Trackpoint>
            <Time>2021-04-03T07:24:52.000Z</Time>
            <Position>
              <LatitudeDegrees>42.3073208145797252655029296875</LatitudeDegrees>
              <LongitudeDegrees>2.586636878550052642822265625</LongitudeDegrees>
            </Position>
            <AltitudeMeters>560.79998779296875</AltitudeMeters>
            <DistanceMeters>NAN</DistanceMeters>
          </Trackpoint>
          <Trackpoint>
            <Time>2021-04-03T07:25:17.000Z</Time>
            <Position>
              <LatitudeDegrees>42.30730824172496795654296875</LatitudeDegrees>
              <LongitudeDegrees>2.586591951549053192138671875</LongitudeDegrees>
            </Position>
            <AltitudeMeters>560.4000244140625</AltitudeMeters>
            <DistanceMeters>NAN</DistanceMeters>
          </Trackpoint>
          <Trackpoint>
            <Time>2021-04-03T07:25:25.000Z</Time>
            <Position>
              <LatitudeDegrees>42.307300530374050140380859375</LatitudeDegrees>
              <LongitudeDegrees>2.58659371174871921539306640625</LongitudeDegrees>
            </Position>
            <AltitudeMeters>560.4000244140625</AltitudeMeters>
            <DistanceMeters>NAN</DistanceMeters>
          </Trackpoint>
          <Trackpoint>
            <Time>2021-04-03T07:25:56.000Z</Time>
            <Position>
              <LatitudeDegrees>42.30726088397204875946044921875</LatitudeDegrees>
              <LongitudeDegrees>2.58658130653202533721923828125</LongitudeDegrees>
            </Position>
            <AltitudeMeters>560.4000244140625</AltitudeMeters>
            <DistanceMeters>NAN</DistanceMeters>
          </Trackpoint>
          <Trackpoint>
            <Time>2021-04-03T07:25:58.000Z</Time>
            <Position>
              <LatitudeDegrees>42.3072584532201290130615234375</LatitudeDegrees>
              <LongitudeDegrees>2.586578540503978729248046875</LongitudeDegrees>
            </Position>
            <AltitudeMeters>560.4000244140625</AltitudeMeters>
            <DistanceMeters>NAN</DistanceMeters>
          </Trackpoint>
          <Trackpoint>
            <Time>2021-04-03T07:26:01.000Z</Time>
            <Position>
              <LatitudeDegrees>42.30725736357271671295166015625</LatitudeDegrees>
              <LongitudeDegrees>2.58657644502818584442138671875</LongitudeDegrees>
            </Position>
            <AltitudeMeters>560.4000244140625</AltitudeMeters>
            <DistanceMeters>NAN</DistanceMeters>
          </Trackpoint>
          <Trackpoint>
            <Time>2021-04-03T07:26:14.000Z</Time>
            <Position>
              <LatitudeDegrees>42.30726138688623905181884765625</LatitudeDegrees>
              <LongitudeDegrees>2.5865679793059825897216796875</LongitudeDegrees>
            </Position>
            <AltitudeMeters>560.4000244140625</AltitudeMeters>
            <DistanceMeters>NAN</DistanceMeters>
          </Trackpoint>
          <Trackpoint>
            <Time>2021-04-03T07:26:35.000Z</Time>
            <Position>
              <LatitudeDegrees>42.30726423673331737518310546875</LatitudeDegrees>
              <LongitudeDegrees>2.58655096404254436492919921875</LongitudeDegrees>
            </Position>
            <AltitudeMeters>560.4000244140625</AltitudeMeters>
            <DistanceMeters>NAN</DistanceMeters>
          </Trackpoint>
          <Trackpoint>
            <Time>2021-04-03T07:26:55.000Z</Time>
            <Position>
              <LatitudeDegrees>42.307258956134319305419921875</LatitudeDegrees>
              <LongitudeDegrees>2.58655750192701816558837890625</LongitudeDegrees>
            </Position>
            <AltitudeMeters>560.4000244140625</AltitudeMeters>
            <DistanceMeters>NAN</DistanceMeters>
          </Trackpoint>
          <Trackpoint>
            <Time>2021-04-03T07:27:00.000Z</Time>
            <Position>
              <LatitudeDegrees>42.30726239271461963653564453125</LatitudeDegrees>
              <LongitudeDegrees>2.58656353689730167388916015625</LongitudeDegrees>
            </Position>
            <AltitudeMeters>560.4000244140625</AltitudeMeters>
            <DistanceMeters>NAN</DistanceMeters>
          </Trackpoint>
          <Trackpoint>
            <Time>2021-04-03T07:27:12.000Z</Time>
            <Position>
              <LatitudeDegrees>42.307259626686573028564453125</LatitudeDegrees>
              <LongitudeDegrees>2.58657091297209262847900390625</LongitudeDegrees>
            </Position>
            <AltitudeMeters>560.4000244140625</AltitudeMeters>
            <DistanceMeters>NAN</DistanceMeters>
          </Trackpoint>
          <Trackpoint>
            <Time>2021-04-03T07:27:21.000Z</Time>
            <Position>
              <LatitudeDegrees>42.30725870467722415924072265625</LatitudeDegrees>
              <LongitudeDegrees>2.5865723378956317901611328125</LongitudeDegrees>
            </Position>
            <AltitudeMeters>560.4000244140625</AltitudeMeters>
            <DistanceMeters>NAN</DistanceMeters>
          </Trackpoint>
          <Trackpoint>
            <Time>2021-04-03T07:27:22.000Z</Time>
            <Position>
              <LatitudeDegrees>42.30725870467722415924072265625</LatitudeDegrees>
              <LongitudeDegrees>2.5865726731717586517333984375</LongitudeDegrees>
            </Position>
            <AltitudeMeters>560.4000244140625</AltitudeMeters>
            <DistanceMeters>NAN</DistanceMeters>
          </Trackpoint>
          <Trackpoint>
            <Time>2021-04-03T07:27:23.000Z</Time>
            <Position>
              <LatitudeDegrees>42.30725870467722415924072265625</LatitudeDegrees>
              <LongitudeDegrees>2.58657292462885379791259765625</LongitudeDegrees>
            </Position>
            <AltitudeMeters>560.4000244140625</AltitudeMeters>
            <DistanceMeters>NAN</DistanceMeters>
          </Trackpoint>
          <Trackpoint>
            <Time>2021-04-03T07:27:27.000Z</Time>
            <Position>
              <LatitudeDegrees>42.30725719593465328216552734375</LatitudeDegrees>
              <LongitudeDegrees>2.58657359518110752105712890625</LongitudeDegrees>
            </Position>
            <AltitudeMeters>560.4000244140625</AltitudeMeters>
            <DistanceMeters>NAN</DistanceMeters>
          </Trackpoint>
          <Trackpoint>
            <Time>2021-04-03T07:27:30.000Z</Time>
            <Position>
              <LatitudeDegrees>42.3072551004588603973388671875</LatitudeDegrees>
              <LongitudeDegrees>2.586573846638202667236328125</LongitudeDegrees>
            </Position>
            <AltitudeMeters>560.4000244140625</AltitudeMeters>
            <DistanceMeters>NAN</DistanceMeters>
          </Trackpoint>
          <Trackpoint>
            <Time>2021-04-03T07:27:36.000Z</Time>
            <Position>
              <LatitudeDegrees>42.307250909507274627685546875</LatitudeDegrees>
              <LongitudeDegrees>2.5865770317614078521728515625</LongitudeDegrees>
            </Position>
            <AltitudeMeters>560.4000244140625</AltitudeMeters>
            <DistanceMeters>NAN</DistanceMeters>
          </Trackpoint>
          <Trackpoint>
            <Time>2021-04-03T07:27:47.000Z</Time>
            <Position>
              <LatitudeDegrees>42.30724814347922801971435546875</LatitudeDegrees>
              <LongitudeDegrees>2.58658532984554767608642578125</LongitudeDegrees>
            </Position>
            <AltitudeMeters>560.4000244140625</AltitudeMeters>
            <DistanceMeters>NAN</DistanceMeters>
          </Trackpoint>
          <Trackpoint>
            <Time>2021-04-03T07:27:52.000Z</Time>
            <Position>
              <LatitudeDegrees>42.30724789202213287353515625</LatitudeDegrees>
              <LongitudeDegrees>2.58658633567392826080322265625</LongitudeDegrees>
            </Position>
            <AltitudeMeters>560.4000244140625</AltitudeMeters>
            <DistanceMeters>NAN</DistanceMeters>
          </Trackpoint>
          <Trackpoint>
            <Time>2021-04-03T07:28:11.000Z</Time>
            <Position>
              <LatitudeDegrees>42.3071934096515178680419921875</LatitudeDegrees>
              <LongitudeDegrees>2.586644589900970458984375</LongitudeDegrees>
            </Position>
            <AltitudeMeters>560.4000244140625</AltitudeMeters>
            <DistanceMeters>NAN</DistanceMeters>
          </Trackpoint>
          <Trackpoint>
            <Time>2021-04-03T07:28:12.000Z</Time>
            <Position>
              <LatitudeDegrees>42.30718083679676055908203125</LatitudeDegrees>
              <LongitudeDegrees>2.58665288798511028289794921875</LongitudeDegrees>
            </Position>
            <AltitudeMeters>560.4000244140625</AltitudeMeters>
            <DistanceMeters>NAN</DistanceMeters>
          </Trackpoint>
          <Trackpoint>
            <Time>2021-04-03T07:28:21.000Z</Time>
            <Position>
              <LatitudeDegrees>42.30710506439208984375</LatitudeDegrees>
              <LongitudeDegrees>2.58671097457408905029296875</LongitudeDegrees>
            </Position>
            <AltitudeMeters>560.5999755859375</AltitudeMeters>
            <DistanceMeters>NAN</DistanceMeters>
          </Trackpoint>
          <Trackpoint>
            <Time>2021-04-03T07:28:24.000Z</Time>
            <Position>
              <LatitudeDegrees>42.30708419345319271087646484375</LatitudeDegrees>
              <LongitudeDegrees>2.58672798983752727508544921875</LongitudeDegrees>
            </Position>
            <AltitudeMeters>561</AltitudeMeters>
            <DistanceMeters>NAN</DistanceMeters>
          </Trackpoint>
          <Trackpoint>
            <Time>2021-04-03T07:28:27.000Z</Time>
            <Position>
              <LatitudeDegrees>42.30707078240811824798583984375</LatitudeDegrees>
              <LongitudeDegrees>2.5867342762649059295654296875</LongitudeDegrees>
            </Position>
            <AltitudeMeters>561.20001220703125</AltitudeMeters>
            <DistanceMeters>NAN</DistanceMeters>
          </Trackpoint>
          <Trackpoint>
            <Time>2021-04-03T07:28:31.000Z</Time>
            <Position>
              <LatitudeDegrees>42.30705586262047290802001953125</LatitudeDegrees>
              <LongitudeDegrees>2.5867621041834354400634765625</LongitudeDegrees>
            </Position>
            <AltitudeMeters>561.4000244140625</AltitudeMeters>
            <DistanceMeters>NAN</DistanceMeters>
          </Trackpoint>
          <Trackpoint>
            <Time>2021-04-03T07:28:34.000Z</Time>
            <Position>
              <LatitudeDegrees>42.30704161338508129119873046875</LatitudeDegrees>
              <LongitudeDegrees>2.58678582496941089630126953125</LongitudeDegrees>
            </Position>
            <AltitudeMeters>561.5999755859375</AltitudeMeters>
            <DistanceMeters>NAN</DistanceMeters>
          </Trackpoint>
          <Trackpoint>
            <Time>2021-04-03T07:28:38.000Z</Time>
            <Position>
              <LatitudeDegrees>42.30702585540711879730224609375</LatitudeDegrees>
              <LongitudeDegrees>2.58680225349962711334228515625</LongitudeDegrees>
            </Position>
            <AltitudeMeters>561.5999755859375</AltitudeMeters>
            <DistanceMeters>NAN</DistanceMeters>
          </Trackpoint>
          <Trackpoint>
            <Time>2021-04-03T07:28:40.000Z</Time>
            <Position>
              <LatitudeDegrees>42.30701328255236148834228515625</LatitudeDegrees>
              <LongitudeDegrees>2.58680057711899280548095703125</LongitudeDegrees>
            </Position>
            <AltitudeMeters>561.4000244140625</AltitudeMeters>
            <DistanceMeters>NAN</DistanceMeters>
          </Trackpoint>
          <Trackpoint>
            <Time>2021-04-03T07:28:41.000Z</Time>
            <Position>
              <LatitudeDegrees>42.30701453983783721923828125</LatitudeDegrees>
              <LongitudeDegrees>2.58680677972733974456787109375</LongitudeDegrees>
            </Position>
            <AltitudeMeters>561.79998779296875</AltitudeMeters>
            <DistanceMeters>NAN</DistanceMeters>
          </Trackpoint>
          <Trackpoint>
            <Time>2021-04-03T07:28:43.000Z</Time>
            <Position>
              <LatitudeDegrees>42.30701831169426441192626953125</LatitudeDegrees>
              <LongitudeDegrees>2.58682857267558574676513671875</LongitudeDegrees>
            </Position>
            <AltitudeMeters>561.79998779296875</AltitudeMeters>
            <DistanceMeters>NAN</DistanceMeters>
          </Trackpoint>
          <Trackpoint>
            <Time>2021-04-03T07:28:44.000Z</Time>
            <Position>
              <LatitudeDegrees>42.30701914988458156585693359375</LatitudeDegrees>
              <LongitudeDegrees>2.58683569729328155517578125</LongitudeDegrees>
            </Position>
            <AltitudeMeters>561.79998779296875</AltitudeMeters>
            <DistanceMeters>NAN</DistanceMeters>
          </Trackpoint>
          <Trackpoint>
            <Time>2021-04-03T07:28:52.000Z</Time>
            <Position>
              <LatitudeDegrees>42.30700892396271228790283203125</LatitudeDegrees>
              <LongitudeDegrees>2.58694290183484554290771484375</LongitudeDegrees>
            </Position>
            <AltitudeMeters>561.5999755859375</AltitudeMeters>
            <DistanceMeters>NAN</DistanceMeters>
          </Trackpoint>
          <Trackpoint>
            <Time>2021-04-03T07:28:58.000Z</Time>
            <Position>
              <LatitudeDegrees>42.3069878853857517242431640625</LatitudeDegrees>
              <LongitudeDegrees>2.58703493513166904449462890625</LongitudeDegrees>
            </Position>
            <AltitudeMeters>561.20001220703125</AltitudeMeters>
            <DistanceMeters>NAN</DistanceMeters>
          </Trackpoint>
          <Trackpoint>
            <Time>2021-04-03T07:29:05.000Z</Time>
            <Position>
              <LatitudeDegrees>42.3069535195827484130859375</LatitudeDegrees>
              <LongitudeDegrees>2.58709318935871124267578125</LongitudeDegrees>
            </Position>
            <AltitudeMeters>561.79998779296875</AltitudeMeters>
            <DistanceMeters>NAN</DistanceMeters>
          </Trackpoint>
          <Trackpoint>
            <Time>2021-04-03T07:29:06.000Z</Time>
            <Position>
              <LatitudeDegrees>42.306953184306621551513671875</LatitudeDegrees>
              <LongitudeDegrees>2.587100565433502197265625</LongitudeDegrees>
            </Position>
            <AltitudeMeters>561.79998779296875</AltitudeMeters>
            <DistanceMeters>NAN</DistanceMeters>
          </Trackpoint>
          <Trackpoint>
            <Time>2021-04-03T07:29:08.000Z</Time>
            <Position>
              <LatitudeDegrees>42.30695343576371669769287109375</LatitudeDegrees>
              <LongitudeDegrees>2.58711288683116436004638671875</LongitudeDegrees>
            </Position>
            <AltitudeMeters>561.79998779296875</AltitudeMeters>
            <DistanceMeters>NAN</DistanceMeters>
          </Trackpoint>
          <Trackpoint>
            <Time>2021-04-03T07:29:11.000Z</Time>
            <Position>
              <LatitudeDegrees>42.306938432157039642333984375</LatitudeDegrees>
              <LongitudeDegrees>2.58715085685253143310546875</LongitudeDegrees>
            </Position>
            <AltitudeMeters>561.79998779296875</AltitudeMeters>
            <DistanceMeters>NAN</DistanceMeters>
          </Trackpoint>
          <Trackpoint>
            <Time>2021-04-03T07:29:14.000Z</Time>
            <Position>
              <LatitudeDegrees>42.3069292120635509490966796875</LatitudeDegrees>
              <LongitudeDegrees>2.587167955935001373291015625</LongitudeDegrees>
            </Position>
            <AltitudeMeters>562</AltitudeMeters>
            <DistanceMeters>NAN</DistanceMeters>
          </Trackpoint>
          <Trackpoint>
            <Time>2021-04-03T07:29:21.000Z</Time>
            <Position>
              <LatitudeDegrees>42.30692711658775806427001953125</LatitudeDegrees>
              <LongitudeDegrees>2.5872291438281536102294921875</LongitudeDegrees>
            </Position>
            <AltitudeMeters>561.4000244140625</AltitudeMeters>
            <DistanceMeters>NAN</DistanceMeters>
          </Trackpoint>
          <Trackpoint>
            <Time>2021-04-03T07:29:24.000Z</Time>
            <Position>
              <LatitudeDegrees>42.30692476965487003326416015625</LatitudeDegrees>
              <LongitudeDegrees>2.58725923486053943634033203125</LongitudeDegrees>
            </Position>
            <AltitudeMeters>561.4000244140625</AltitudeMeters>
            <DistanceMeters>NAN</DistanceMeters>
          </Trackpoint>
          <Trackpoint>
            <Time>2021-04-03T07:29:31.000Z</Time>
            <Position>
              <LatitudeDegrees>42.30692426674067974090576171875</LatitudeDegrees>
              <LongitudeDegrees>2.5873344205319881439208984375</LongitudeDegrees>
            </Position>
            <AltitudeMeters>561.4000244140625</AltitudeMeters>
            <DistanceMeters>NAN</DistanceMeters>
          </Trackpoint>
          <Trackpoint>
            <Time>2021-04-03T07:29:33.000Z</Time>
            <Position>
              <LatitudeDegrees>42.30692275799810886383056640625</LatitudeDegrees>
              <LongitudeDegrees>2.5873582251369953155517578125</LongitudeDegrees>
            </Position>
            <AltitudeMeters>561.4000244140625</AltitudeMeters>
            <DistanceMeters>NAN</DistanceMeters>
          </Trackpoint>
          <Trackpoint>
            <Time>2021-04-03T07:29:39.000Z</Time>
            <Position>
              <LatitudeDegrees>42.30689828284084796905517578125</LatitudeDegrees>
              <LongitudeDegrees>2.5874182395637035369873046875</LongitudeDegrees>
            </Position>
            <AltitudeMeters>561.5999755859375</AltitudeMeters>
            <DistanceMeters>NAN</DistanceMeters>
          </Trackpoint>
          <Trackpoint>
            <Time>2021-04-03T07:29:40.000Z</Time>
            <Position>
              <LatitudeDegrees>42.30689459480345249176025390625</LatitudeDegrees>
              <LongitudeDegrees>2.587427459657192230224609375</LongitudeDegrees>
            </Position>
            <AltitudeMeters>561.5999755859375</AltitudeMeters>
            <DistanceMeters>NAN</DistanceMeters>
          </Trackpoint>
          <Trackpoint>
            <Time>2021-04-03T07:29:47.000Z</Time>
            <Position>
              <LatitudeDegrees>42.3068849556148052215576171875</LatitudeDegrees>
              <LongitudeDegrees>2.5874742306768894195556640625</LongitudeDegrees>
            </Position>
            <AltitudeMeters>562.20001220703125</AltitudeMeters>
            <DistanceMeters>NAN</DistanceMeters>
          </Trackpoint>
          <Trackpoint>
            <Time>2021-04-03T07:29:49.000Z</Time>
            <Position>
              <LatitudeDegrees>42.30687950737774372100830078125</LatitudeDegrees>
              <LongitudeDegrees>2.58749124594032764434814453125</LongitudeDegrees>
            </Position>
            <AltitudeMeters>562.5999755859375</AltitudeMeters>
            <DistanceMeters>NAN</DistanceMeters>
          </Trackpoint>
          <Trackpoint>
            <Time>2021-04-03T07:29:54.000Z</Time>
            <Position>
              <LatitudeDegrees>42.306874729692935943603515625</LatitudeDegrees>
              <LongitudeDegrees>2.5875382684171199798583984375</LongitudeDegrees>
            </Position>
            <AltitudeMeters>563.20001220703125</AltitudeMeters>
            <DistanceMeters>NAN</DistanceMeters>
          </Trackpoint>
          <Trackpoint>
            <Time>2021-04-03T07:29:56.000Z</Time>
            <Position>
              <LatitudeDegrees>42.30687104165554046630859375</LatitudeDegrees>
              <LongitudeDegrees>2.58755050599575042724609375</LongitudeDegrees>
            </Position>
            <AltitudeMeters>563.4000244140625</AltitudeMeters>
            <DistanceMeters>NAN</DistanceMeters>
          </Trackpoint>
          <Trackpoint>
            <Time>2021-04-03T07:29:59.000Z</Time>
            <Position>
              <LatitudeDegrees>42.306863330304622650146484375</LatitudeDegrees>
              <LongitudeDegrees>2.5875785015523433685302734375</LongitudeDegrees>
            </Position>
            <AltitudeMeters>563.79998779296875</AltitudeMeters>
            <DistanceMeters>NAN</DistanceMeters>
          </Trackpoint>
          <Trackpoint>
            <Time>2021-04-03T07:30:02.000Z</Time>
            <Position>
              <LatitudeDegrees>42.30685000307857990264892578125</LatitudeDegrees>
              <LongitudeDegrees>2.58760088123381137847900390625</LongitudeDegrees>
            </Position>
            <AltitudeMeters>564</AltitudeMeters>
            <DistanceMeters>NAN</DistanceMeters>
          </Trackpoint>
          <Trackpoint>
            <Time>2021-04-03T07:30:05.000Z</Time>
            <Position>
              <LatitudeDegrees>42.30684715323150157928466796875</LatitudeDegrees>
              <LongitudeDegrees>2.587621249258518218994140625</LongitudeDegrees>
            </Position>
            <AltitudeMeters>564.4000244140625</AltitudeMeters>
            <DistanceMeters>NAN</DistanceMeters>
          </Trackpoint>
          <Trackpoint>
            <Time>2021-04-03T07:30:09.000Z</Time>
            <Position>
              <LatitudeDegrees>42.30683307163417339324951171875</LatitudeDegrees>
              <LongitudeDegrees>2.5876624882221221923828125</LongitudeDegrees>
            </Position>
            <AltitudeMeters>564.79998779296875</AltitudeMeters>
            <DistanceMeters>NAN</DistanceMeters>
          </Trackpoint>
          <Trackpoint>
            <Time>2021-04-03T07:30:12.000Z</Time>
            <Position>
              <LatitudeDegrees>42.3068202473223209381103515625</LatitudeDegrees>
              <LongitudeDegrees>2.58769006468355655670166015625</LongitudeDegrees>
            </Position>
            <AltitudeMeters>565</AltitudeMeters>
            <DistanceMeters>NAN</DistanceMeters>
          </Trackpoint>
          <Trackpoint>
            <Time>2021-04-03T07:30:15.000Z</Time>
            <Position>
              <LatitudeDegrees>42.30681002140045166015625</LatitudeDegrees>
              <LongitudeDegrees>2.58770783431828022003173828125</LongitudeDegrees>
            </Position>
            <AltitudeMeters>565.4000244140625</AltitudeMeters>
            <DistanceMeters>NAN</DistanceMeters>
          </Trackpoint>
          <Trackpoint>
            <Time>2021-04-03T07:30:27.000Z</Time>
            <Position>
              <LatitudeDegrees>42.3067575506865978240966796875</LatitudeDegrees>
              <LongitudeDegrees>2.58782736025750637054443359375</LongitudeDegrees>
            </Position>
            <AltitudeMeters>565.5999755859375</AltitudeMeters>
            <DistanceMeters>NAN</DistanceMeters>
          </Trackpoint>
          <Trackpoint>
            <Time>2021-04-03T07:30:30.000Z</Time>
            <Position>
              <LatitudeDegrees>42.30674137361347675323486328125</LatitudeDegrees>
              <LongitudeDegrees>2.58785317651927471160888671875</LongitudeDegrees>
            </Position>
            <AltitudeMeters>565.5999755859375</AltitudeMeters>
            <DistanceMeters>NAN</DistanceMeters>
          </Trackpoint>
          <Trackpoint>
            <Time>2021-04-03T07:30:33.000Z</Time>
            <Position>
              <LatitudeDegrees>42.30671639554202556610107421875</LatitudeDegrees>
              <LongitudeDegrees>2.58787505328655242919921875</LongitudeDegrees>
            </Position>
            <AltitudeMeters>565.5999755859375</AltitudeMeters>
            <DistanceMeters>NAN</DistanceMeters>
          </Trackpoint>
          <Trackpoint>
            <Time>2021-04-03T07:30:35.000Z</Time>
            <Position>
              <LatitudeDegrees>42.3067099414765834808349609375</LatitudeDegrees>
              <LongitudeDegrees>2.58788720704615116119384765625</LongitudeDegrees>
            </Position>
            <AltitudeMeters>565.79998779296875</AltitudeMeters>
            <DistanceMeters>NAN</DistanceMeters>
          </Trackpoint>
          <Trackpoint>
            <Time>2021-04-03T07:30:36.000Z</Time>
            <Position>
              <LatitudeDegrees>42.306703738868236541748046875</LatitudeDegrees>
              <LongitudeDegrees>2.58789542131125926971435546875</LongitudeDegrees>
            </Position>
            <AltitudeMeters>565.79998779296875</AltitudeMeters>
            <DistanceMeters>NAN</DistanceMeters>
          </Trackpoint>
          <Trackpoint>
            <Time>2021-04-03T07:30:37.000Z</Time>
            <Position>
              <LatitudeDegrees>42.30669745244085788726806640625</LatitudeDegrees>
              <LongitudeDegrees>2.58790028281509876251220703125</LongitudeDegrees>
            </Position>
            <AltitudeMeters>565.79998779296875</AltitudeMeters>
            <DistanceMeters>NAN</DistanceMeters>
          </Trackpoint>
          <Trackpoint>
            <Time>2021-04-03T07:30:43.000Z</Time>
            <Position>
              <LatitudeDegrees>42.30666023679077625274658203125</LatitudeDegrees>
              <LongitudeDegrees>2.58794554509222507476806640625</LongitudeDegrees>
            </Position>
            <AltitudeMeters>566.20001220703125</AltitudeMeters>
            <DistanceMeters>NAN</DistanceMeters>
          </Trackpoint>
          <Trackpoint>
            <Time>2021-04-03T07:30:46.000Z</Time>
            <Position>
              <LatitudeDegrees>42.30663693509995937347412109375</LatitudeDegrees>
              <LongitudeDegrees>2.58795711211860179901123046875</LongitudeDegrees>
            </Position>
            <AltitudeMeters>566.20001220703125</AltitudeMeters>
            <DistanceMeters>NAN</DistanceMeters>
          </Trackpoint>
          <Trackpoint>
            <Time>2021-04-03T07:30:48.000Z</Time>
            <Position>
              <LatitudeDegrees>42.306623943150043487548828125</LatitudeDegrees>
              <LongitudeDegrees>2.58796666748821735382080078125</LongitudeDegrees>
            </Position>
            <AltitudeMeters>566.4000244140625</AltitudeMeters>
            <DistanceMeters>NAN</DistanceMeters>
          </Trackpoint>
          <Trackpoint>
            <Time>2021-04-03T07:30:50.000Z</Time>
            <Position>
              <LatitudeDegrees>42.30661086738109588623046875</LatitudeDegrees>
              <LongitudeDegrees>2.58797387592494487762451171875</LongitudeDegrees>
            </Position>
            <AltitudeMeters>566.5999755859375</AltitudeMeters>
            <DistanceMeters>NAN</DistanceMeters>
          </Trackpoint>
          <Trackpoint>
            <Time>2021-04-03T07:30:52.000Z</Time>
            <Position>
              <LatitudeDegrees>42.3065967857837677001953125</LatitudeDegrees>
              <LongitudeDegrees>2.587985359132289886474609375</LongitudeDegrees>
            </Position>
            <AltitudeMeters>566.79998779296875</AltitudeMeters>
            <DistanceMeters>NAN</DistanceMeters>
          </Trackpoint>
          <Trackpoint>
            <Time>2021-04-03T07:30:53.000Z</Time>
            <Position>
              <LatitudeDegrees>42.306592427194118499755859375</LatitudeDegrees>
              <LongitudeDegrees>2.5879962556064128875732421875</LongitudeDegrees>
            </Position>
            <AltitudeMeters>566.79998779296875</AltitudeMeters>
            <DistanceMeters>NAN</DistanceMeters>
          </Trackpoint>
          <Trackpoint>
            <Time>2021-04-03T07:30:56.000Z</Time>
            <Position>
              <LatitudeDegrees>42.306570969521999359130859375</LatitudeDegrees>
              <LongitudeDegrees>2.588022910058498382568359375</LongitudeDegrees>
            </Position>
            <AltitudeMeters>567</AltitudeMeters>
            <DistanceMeters>NAN</DistanceMeters>
          </Trackpoint>
          <Trackpoint>
            <Time>2021-04-03T07:30:59.000Z</Time>
            <Position>
              <LatitudeDegrees>42.306542135775089263916015625</LatitudeDegrees>
              <LongitudeDegrees>2.58802668191492557525634765625</LongitudeDegrees>
            </Position>
            <AltitudeMeters>567.20001220703125</AltitudeMeters>
            <DistanceMeters>NAN</DistanceMeters>
          </Trackpoint>
          <Trackpoint>
            <Time>2021-04-03T07:31:05.000Z</Time>
            <Position>
              <LatitudeDegrees>42.30650014244019985198974609375</LatitudeDegrees>
              <LongitudeDegrees>2.588007487356662750244140625</LongitudeDegrees>
            </Position>
            <AltitudeMeters>568</AltitudeMeters>
            <DistanceMeters>NAN</DistanceMeters>
          </Trackpoint>
          <Trackpoint>
            <Time>2021-04-03T07:31:08.000Z</Time>
            <Position>
              <LatitudeDegrees>42.30648103170096874237060546875</LatitudeDegrees>
              <LongitudeDegrees>2.58800648152828216552734375</LongitudeDegrees>
            </Position>
            <AltitudeMeters>568.20001220703125</AltitudeMeters>
            <DistanceMeters>NAN</DistanceMeters>
          </Trackpoint>
          <Trackpoint>
            <Time>2021-04-03T07:31:10.000Z</Time>
            <Position>
              <LatitudeDegrees>42.30646577663719654083251953125</LatitudeDegrees>
              <LongitudeDegrees>2.58800472132861614227294921875</LongitudeDegrees>
            </Position>
            <AltitudeMeters>568.4000244140625</AltitudeMeters>
            <DistanceMeters>NAN</DistanceMeters>
          </Trackpoint>
          <Trackpoint>
            <Time>2021-04-03T07:31:16.000Z</Time>
            <Position>
              <LatitudeDegrees>42.30642051436007022857666015625</LatitudeDegrees>
              <LongitudeDegrees>2.58798778988420963287353515625</LongitudeDegrees>
            </Position>
            <AltitudeMeters>568.5999755859375</AltitudeMeters>
            <DistanceMeters>NAN</DistanceMeters>
          </Trackpoint>
          <Trackpoint>
            <Time>2021-04-03T07:31:19.000Z</Time>
            <Position>
              <LatitudeDegrees>42.3064021579921245574951171875</LatitudeDegrees>
              <LongitudeDegrees>2.5879788212478160858154296875</LongitudeDegrees>
            </Position>
            <AltitudeMeters>568.5999755859375</AltitudeMeters>
            <DistanceMeters>NAN</DistanceMeters>
          </Trackpoint>
          <Trackpoint>
            <Time>2021-04-03T07:31:22.000Z</Time>
            <Position>
              <LatitudeDegrees>42.30637961067259311676025390625</LatitudeDegrees>
              <LongitudeDegrees>2.58796222507953643798828125</LongitudeDegrees>
            </Position>
            <AltitudeMeters>568.5999755859375</AltitudeMeters>
            <DistanceMeters>NAN</DistanceMeters>
          </Trackpoint>
          <Trackpoint>
            <Time>2021-04-03T07:31:31.000Z</Time>
            <Position>
              <LatitudeDegrees>42.30634055100381374359130859375</LatitudeDegrees>
              <LongitudeDegrees>2.58791084401309490203857421875</LongitudeDegrees>
            </Position>
            <AltitudeMeters>568.5999755859375</AltitudeMeters>
            <DistanceMeters>NAN</DistanceMeters>
          </Trackpoint>
          <Trackpoint>
            <Time>2021-04-03T07:31:35.000Z</Time>
            <Position>
              <LatitudeDegrees>42.30631448328495025634765625</LatitudeDegrees>
              <LongitudeDegrees>2.5878958404064178466796875</LongitudeDegrees>
            </Position>
            <AltitudeMeters>568.5999755859375</AltitudeMeters>
            <DistanceMeters>NAN</DistanceMeters>
          </Trackpoint>
          <Trackpoint>
            <Time>2021-04-03T07:31:38.000Z</Time>
            <Position>
              <LatitudeDegrees>42.306291349232196807861328125</LatitudeDegrees>
              <LongitudeDegrees>2.58787781931459903717041015625</LongitudeDegrees>
            </Position>
            <AltitudeMeters>568.4000244140625</AltitudeMeters>
            <DistanceMeters>NAN</DistanceMeters>
          </Trackpoint>
          <Trackpoint>
            <Time>2021-04-03T07:31:45.000Z</Time>
            <Position>
              <LatitudeDegrees>42.3062486015260219573974609375</LatitudeDegrees>
              <LongitudeDegrees>2.58783859200775623321533203125</LongitudeDegrees>
            </Position>
            <AltitudeMeters>568.4000244140625</AltitudeMeters>
            <DistanceMeters>NAN</DistanceMeters>
          </Trackpoint>
          <Trackpoint>
            <Time>2021-04-03T07:31:51.000Z</Time>
            <Position>
              <LatitudeDegrees>42.30620442889630794525146484375</LatitudeDegrees>
              <LongitudeDegrees>2.5878048129379749298095703125</LongitudeDegrees>
            </Position>
            <AltitudeMeters>568.5999755859375</AltitudeMeters>
            <DistanceMeters>NAN</DistanceMeters>
          </Trackpoint>
          <Trackpoint>
            <Time>2021-04-03T07:31:54.000Z</Time>
            <Position>
              <LatitudeDegrees>42.30619185604155063629150390625</LatitudeDegrees>
              <LongitudeDegrees>2.58778025396168231964111328125</LongitudeDegrees>
            </Position>
            <AltitudeMeters>569</AltitudeMeters>
            <DistanceMeters>NAN</DistanceMeters>
          </Trackpoint>
          <Trackpoint>
            <Time>2021-04-03T07:31:56.000Z</Time>
            <Position>
              <LatitudeDegrees>42.30618498288094997406005859375</LatitudeDegrees>
              <LongitudeDegrees>2.58776617236435413360595703125</LongitudeDegrees>
            </Position>
            <AltitudeMeters>569</AltitudeMeters>
            <DistanceMeters>NAN</DistanceMeters>
          </Trackpoint>
          <Trackpoint>
            <Time>2021-04-03T07:32:00.000Z</Time>
            <Position>
              <LatitudeDegrees>42.3061560653150081634521484375</LatitudeDegrees>
              <LongitudeDegrees>2.58775980211794376373291015625</LongitudeDegrees>
            </Position>
            <AltitudeMeters>569.5999755859375</AltitudeMeters>
            <DistanceMeters>NAN</DistanceMeters>
          </Trackpoint>
          <Trackpoint>
            <Time>2021-04-03T07:32:12.000Z</Time>
            <Position>
              <LatitudeDegrees>42.30607400648295879364013671875</LatitudeDegrees>
              <LongitudeDegrees>2.5877402722835540771484375</LongitudeDegrees>
            </Position>
            <AltitudeMeters>570</AltitudeMeters>
            <DistanceMeters>NAN</DistanceMeters>
          </Trackpoint>
          <Trackpoint>
            <Time>2021-04-03T07:32:19.000Z</Time>
            <Position>
              <LatitudeDegrees>42.3060266487300395965576171875</LatitudeDegrees>
              <LongitudeDegrees>2.58774857036769390106201171875</LongitudeDegrees>
            </Position>
            <AltitudeMeters>570</AltitudeMeters>
            <DistanceMeters>NAN</DistanceMeters>
          </Trackpoint>
          <Trackpoint>
            <Time>2021-04-03T07:32:21.000Z</Time>
            <Position>
              <LatitudeDegrees>42.30601315386593341827392578125</LatitudeDegrees>
              <LongitudeDegrees>2.58774764835834503173828125</LongitudeDegrees>
            </Position>
            <AltitudeMeters>570</AltitudeMeters>
            <DistanceMeters>NAN</DistanceMeters>
          </Trackpoint>
          <Trackpoint>
            <Time>2021-04-03T07:32:29.000Z</Time>
            <Position>
              <LatitudeDegrees>42.30596252717077732086181640625</LatitudeDegrees>
              <LongitudeDegrees>2.5877826847136020660400390625</LongitudeDegrees>
            </Position>
            <AltitudeMeters>570.20001220703125</AltitudeMeters>
            <DistanceMeters>NAN</DistanceMeters>
          </Trackpoint>
          <Trackpoint>
            <Time>2021-04-03T07:32:33.000Z</Time>
            <Position>
              <LatitudeDegrees>42.3059381358325481414794921875</LatitudeDegrees>
              <LongitudeDegrees>2.5878044776618480682373046875</LongitudeDegrees>
            </Position>
            <AltitudeMeters>570.20001220703125</AltitudeMeters>
            <DistanceMeters>NAN</DistanceMeters>
          </Trackpoint>
          <Trackpoint>
            <Time>2021-04-03T07:32:34.000Z</Time>
            <Position>
              <LatitudeDegrees>42.30593067593872547149658203125</LatitudeDegrees>
              <LongitudeDegrees>2.587813027203083038330078125</LongitudeDegrees>
            </Position>
            <AltitudeMeters>570.20001220703125</AltitudeMeters>
            <DistanceMeters>NAN</DistanceMeters>
          </Trackpoint>
          <Trackpoint>
            <Time>2021-04-03T07:32:36.000Z</Time>
            <Position>
              <LatitudeDegrees>42.30592061765491962432861328125</LatitudeDegrees>
              <LongitudeDegrees>2.58783574216067790985107421875</LongitudeDegrees>
            </Position>
            <AltitudeMeters>570.4000244140625</AltitudeMeters>
            <DistanceMeters>NAN</DistanceMeters>
          </Trackpoint>
          <Trackpoint>
            <Time>2021-04-03T07:32:39.000Z</Time>
            <Position>
              <LatitudeDegrees>42.30591223575174808502197265625</LatitudeDegrees>
              <LongitudeDegrees>2.587857954204082489013671875</LongitudeDegrees>
            </Position>
            <AltitudeMeters>570.79998779296875</AltitudeMeters>
            <DistanceMeters>NAN</DistanceMeters>
          </Trackpoint>
          <Trackpoint>
            <Time>2021-04-03T07:32:40.000Z</Time>
            <Position>
              <LatitudeDegrees>42.30591005645692348480224609375</LatitudeDegrees>
              <LongitudeDegrees>2.58787312544882297515869140625</LongitudeDegrees>
            </Position>
            <AltitudeMeters>570.79998779296875</AltitudeMeters>
            <DistanceMeters>NAN</DistanceMeters>
          </Trackpoint>
          <Trackpoint>
            <Time>2021-04-03T07:32:43.000Z</Time>
            <Position>
              <LatitudeDegrees>42.3059096373617649078369140625</LatitudeDegrees>
              <LongitudeDegrees>2.58789089508354663848876953125</LongitudeDegrees>
            </Position>
            <AltitudeMeters>571.20001220703125</AltitudeMeters>
            <DistanceMeters>NAN</DistanceMeters>
          </Trackpoint>
          <Trackpoint>
            <Time>2021-04-03T07:32:48.000Z</Time>
            <Position>
              <LatitudeDegrees>42.30589597485959529876708984375</LatitudeDegrees>
              <LongitudeDegrees>2.58790899999439716339111328125</LongitudeDegrees>
            </Position>
            <AltitudeMeters>571.79998779296875</AltitudeMeters>
            <DistanceMeters>NAN</DistanceMeters>
          </Trackpoint>
          <Trackpoint>
            <Time>2021-04-03T07:32:51.000Z</Time>
            <Position>
              <LatitudeDegrees>42.3059019260108470916748046875</LatitudeDegrees>
              <LongitudeDegrees>2.5879281945526599884033203125</LongitudeDegrees>
            </Position>
            <AltitudeMeters>572</AltitudeMeters>
            <DistanceMeters>NAN</DistanceMeters>
          </Trackpoint>
          <Trackpoint>
            <Time>2021-04-03T07:32:52.000Z</Time>
            <Position>
              <LatitudeDegrees>42.30590008199214935302734375</LatitudeDegrees>
              <LongitudeDegrees>2.58793381042778491973876953125</LongitudeDegrees>
            </Position>
            <AltitudeMeters>572.20001220703125</AltitudeMeters>
            <DistanceMeters>NAN</DistanceMeters>
          </Trackpoint>
          <Trackpoint>
            <Time>2021-04-03T07:32:57.000Z</Time>
            <Position>
              <LatitudeDegrees>42.3058888502418994903564453125</LatitudeDegrees>
              <LongitudeDegrees>2.58797203190624713897705078125</LongitudeDegrees>
            </Position>
            <AltitudeMeters>572.5999755859375</AltitudeMeters>
            <DistanceMeters>NAN</DistanceMeters>
          </Trackpoint>
          <Trackpoint>
            <Time>2021-04-03T07:32:58.000Z</Time>
            <Position>
              <LatitudeDegrees>42.30588667094707489013671875</LatitudeDegrees>
              <LongitudeDegrees>2.5879763066768646240234375</LongitudeDegrees>
            </Position>
            <AltitudeMeters>572.79998779296875</AltitudeMeters>
            <DistanceMeters>NAN</DistanceMeters>
          </Trackpoint>
          <Trackpoint>
            <Time>2021-04-03T07:33:05.000Z</Time>
            <Position>
              <LatitudeDegrees>42.3058593459427356719970703125</LatitudeDegrees>
              <LongitudeDegrees>2.588001787662506103515625</LongitudeDegrees>
            </Position>
            <AltitudeMeters>572.5999755859375</AltitudeMeters>
            <DistanceMeters>NAN</DistanceMeters>
          </Trackpoint>
          <Trackpoint>
            <Time>2021-04-03T07:33:10.000Z</Time>
            <Position>
              <LatitudeDegrees>42.30585339479148387908935546875</LatitudeDegrees>
              <LongitudeDegrees>2.58800572715699672698974609375</LongitudeDegrees>
            </Position>
            <AltitudeMeters>572.4000244140625</AltitudeMeters>
            <DistanceMeters>NAN</DistanceMeters>
          </Trackpoint>
          <Trackpoint>
            <Time>2021-04-03T07:33:13.000Z</Time>
            <Position>
              <LatitudeDegrees>42.30584786273539066314697265625</LatitudeDegrees>
              <LongitudeDegrees>2.588016875088214874267578125</LongitudeDegrees>
            </Position>
            <AltitudeMeters>572.4000244140625</AltitudeMeters>
            <DistanceMeters>NAN</DistanceMeters>
          </Trackpoint>
          <Trackpoint>
            <Time>2021-04-03T07:33:14.000Z</Time>
            <Position>
              <LatitudeDegrees>42.3058455996215343475341796875</LatitudeDegrees>
              <LongitudeDegrees>2.58801679126918315887451171875</LongitudeDegrees>
            </Position>
            <AltitudeMeters>572.4000244140625</AltitudeMeters>
            <DistanceMeters>NAN</DistanceMeters>
          </Trackpoint>
          <Trackpoint>
            <Time>2021-04-03T07:33:19.000Z</Time>
            <Position>
              <LatitudeDegrees>42.3058321885764598846435546875</LatitudeDegrees>
              <LongitudeDegrees>2.588032968342304229736328125</LongitudeDegrees>
            </Position>
            <AltitudeMeters>571.79998779296875</AltitudeMeters>
            <DistanceMeters>NAN</DistanceMeters>
          </Trackpoint>
          <Trackpoint>
            <Time>2021-04-03T07:33:21.000Z</Time>
            <Position>
              <LatitudeDegrees>42.305830009281635284423828125</LatitudeDegrees>
              <LongitudeDegrees>2.5880321301519870758056640625</LongitudeDegrees>
            </Position>
            <AltitudeMeters>571.5999755859375</AltitudeMeters>
            <DistanceMeters>NAN</DistanceMeters>
          </Trackpoint>
          <Trackpoint>
            <Time>2021-04-03T07:33:24.000Z</Time>
            <Position>
              <LatitudeDegrees>42.305823974311351776123046875</LatitudeDegrees>
              <LongitudeDegrees>2.58804596029222011566162109375</LongitudeDegrees>
            </Position>
            <AltitudeMeters>571.20001220703125</AltitudeMeters>
            <DistanceMeters>NAN</DistanceMeters>
          </Trackpoint>
          <Trackpoint>
            <Time>2021-04-03T07:33:28.000Z</Time>
            <Position>
              <LatitudeDegrees>42.3058244772255420684814453125</LatitudeDegrees>
              <LongitudeDegrees>2.58804579265415668487548828125</LongitudeDegrees>
            </Position>
            <AltitudeMeters>571.20001220703125</AltitudeMeters>
            <DistanceMeters>NAN</DistanceMeters>
          </Trackpoint>
          <Trackpoint>
            <Time>2021-04-03T07:33:30.000Z</Time>
            <Position>
              <LatitudeDegrees>42.3058244772255420684814453125</LatitudeDegrees>
              <LongitudeDegrees>2.58804579265415668487548828125</LongitudeDegrees>
            </Position>
            <AltitudeMeters>571</AltitudeMeters>
            <DistanceMeters>NAN</DistanceMeters>
          </Trackpoint>
          <Trackpoint>
            <Time>2021-04-03T07:33:37.000Z</Time>
            <Position>
              <LatitudeDegrees>42.3058244772255420684814453125</LatitudeDegrees>
              <LongitudeDegrees>2.58804579265415668487548828125</LongitudeDegrees>
            </Position>
            <AltitudeMeters>570.20001220703125</AltitudeMeters>
            <DistanceMeters>NAN</DistanceMeters>
          </Trackpoint>
          <Trackpoint>
            <Time>2021-04-03T07:33:48.000Z</Time>
            <Position>
              <LatitudeDegrees>42.305823974311351776123046875</LatitudeDegrees>
              <LongitudeDegrees>2.5880487263202667236328125</LongitudeDegrees>
            </Position>
            <AltitudeMeters>569.79998779296875</AltitudeMeters>
            <DistanceMeters>NAN</DistanceMeters>
          </Trackpoint>
          <Trackpoint>
            <Time>2021-04-03T07:33:49.000Z</Time>
            <Position>
              <LatitudeDegrees>42.30582254938781261444091796875</LatitudeDegrees>
              <LongitudeDegrees>2.5880487263202667236328125</LongitudeDegrees>
            </Position>
            <AltitudeMeters>569.79998779296875</AltitudeMeters>
            <DistanceMeters>NAN</DistanceMeters>
          </Trackpoint>
          <Trackpoint>
            <Time>2021-04-03T07:33:53.000Z</Time>
            <Position>
              <LatitudeDegrees>42.30580084025859832763671875</LatitudeDegrees>
              <LongitudeDegrees>2.5880487263202667236328125</LongitudeDegrees>
            </Position>
            <AltitudeMeters>569.79998779296875</AltitudeMeters>
            <DistanceMeters>NAN</DistanceMeters>
          </Trackpoint>
          <Trackpoint>
            <Time>2021-04-03T07:33:55.000Z</Time>
            <Position>
              <LatitudeDegrees>42.30579941533505916595458984375</LatitudeDegrees>
              <LongitudeDegrees>2.5880487263202667236328125</LongitudeDegrees>
            </Position>
            <AltitudeMeters>569.79998779296875</AltitudeMeters>
            <DistanceMeters>NAN</DistanceMeters>
          </Trackpoint>
          <Trackpoint>
            <Time>2021-04-03T07:33:59.000Z</Time>
            <Position>
              <LatitudeDegrees>42.30579807423055171966552734375</LatitudeDegrees>
              <LongitudeDegrees>2.58803657256066799163818359375</LongitudeDegrees>
            </Position>
            <AltitudeMeters>569.79998779296875</AltitudeMeters>
            <DistanceMeters>NAN</DistanceMeters>
          </Trackpoint>
          <Trackpoint>
            <Time>2021-04-03T07:34:01.000Z</Time>
            <Position>
              <LatitudeDegrees>42.30579304508864879608154296875</LatitudeDegrees>
              <LongitudeDegrees>2.5880304537713527679443359375</LongitudeDegrees>
            </Position>
            <AltitudeMeters>569.5999755859375</AltitudeMeters>
            <DistanceMeters>NAN</DistanceMeters>
          </Trackpoint>
          <Trackpoint>
            <Time>2021-04-03T07:34:04.000Z</Time>
            <Position>
              <LatitudeDegrees>42.30578231625258922576904296875</LatitudeDegrees>
              <LongitudeDegrees>2.58802617900073528289794921875</LongitudeDegrees>
            </Position>
            <AltitudeMeters>569.4000244140625</AltitudeMeters>
            <DistanceMeters>NAN</DistanceMeters>
          </Trackpoint>
          <Trackpoint>
            <Time>2021-04-03T07:34:07.000Z</Time>
            <Position>
              <LatitudeDegrees>42.3057761974632740020751953125</LatitudeDegrees>
              <LongitudeDegrees>2.588023245334625244140625</LongitudeDegrees>
            </Position>
            <AltitudeMeters>569</AltitudeMeters>
            <DistanceMeters>NAN</DistanceMeters>
          </Trackpoint>
          <Trackpoint>
            <Time>2021-04-03T07:34:12.000Z</Time>
            <Position>
              <LatitudeDegrees>42.30575549416244029998779296875</LatitudeDegrees>
              <LongitudeDegrees>2.58802081458270549774169921875</LongitudeDegrees>
            </Position>
            <AltitudeMeters>568</AltitudeMeters>
            <DistanceMeters>NAN</DistanceMeters>
          </Trackpoint>
          <Trackpoint>
            <Time>2021-04-03T07:34:17.000Z</Time>
            <Position>
              <LatitudeDegrees>42.30571961961686611175537109375</LatitudeDegrees>
              <LongitudeDegrees>2.58801595307886600494384765625</LongitudeDegrees>
            </Position>
            <AltitudeMeters>567</AltitudeMeters>
            <DistanceMeters>NAN</DistanceMeters>
          </Trackpoint>
          <Trackpoint>
            <Time>2021-04-03T07:34:20.000Z</Time>
            <Position>
              <LatitudeDegrees>42.30567536316812038421630859375</LatitudeDegrees>
              <LongitudeDegrees>2.58799952454864978790283203125</LongitudeDegrees>
            </Position>
            <AltitudeMeters>566.4000244140625</AltitudeMeters>
            <DistanceMeters>NAN</DistanceMeters>
          </Trackpoint>
          <Trackpoint>
            <Time>2021-04-03T07:34:25.000Z</Time>
            <Position>
              <LatitudeDegrees>42.3055958189070224761962890625</LatitudeDegrees>
              <LongitudeDegrees>2.58801226504147052764892578125</LongitudeDegrees>
            </Position>
            <AltitudeMeters>565.79998779296875</AltitudeMeters>
            <DistanceMeters>NAN</DistanceMeters>
          </Trackpoint>
          <Trackpoint>
            <Time>2021-04-03T07:34:27.000Z</Time>
            <Position>
              <LatitudeDegrees>42.305581234395503997802734375</LatitudeDegrees>
              <LongitudeDegrees>2.58801343850791454315185546875</LongitudeDegrees>
            </Position>
            <AltitudeMeters>565.5999755859375</AltitudeMeters>
            <DistanceMeters>NAN</DistanceMeters>
          </Trackpoint>
          <Trackpoint>
            <Time>2021-04-03T07:34:32.000Z</Time>
            <Position>
              <LatitudeDegrees>42.3055435158312320709228515625</LatitudeDegrees>
              <LongitudeDegrees>2.58802634663879871368408203125</LongitudeDegrees>
            </Position>
            <AltitudeMeters>564.79998779296875</AltitudeMeters>
            <DistanceMeters>NAN</DistanceMeters>
          </Trackpoint>
          <Trackpoint>
            <Time>2021-04-03T07:34:35.000Z</Time>
            <Position>
              <LatitudeDegrees>42.3055227287113666534423828125</LatitudeDegrees>
              <LongitudeDegrees>2.58803875185549259185791015625</LongitudeDegrees>
            </Position>
            <AltitudeMeters>564.4000244140625</AltitudeMeters>
            <DistanceMeters>NAN</DistanceMeters>
          </Trackpoint>
          <Trackpoint>
            <Time>2021-04-03T07:34:36.000Z</Time>
            <Position>
              <LatitudeDegrees>42.30551292188465595245361328125</LatitudeDegrees>
              <LongitudeDegrees>2.58803405798971652984619140625</LongitudeDegrees>
            </Position>
            <AltitudeMeters>564.20001220703125</AltitudeMeters>
            <DistanceMeters>NAN</DistanceMeters>
          </Trackpoint>
          <Trackpoint>
            <Time>2021-04-03T07:34:39.000Z</Time>
            <Position>
              <LatitudeDegrees>42.30548928491771221160888671875</LatitudeDegrees>
              <LongitudeDegrees>2.5880348123610019683837890625</LongitudeDegrees>
            </Position>
            <AltitudeMeters>563.79998779296875</AltitudeMeters>
            <DistanceMeters>NAN</DistanceMeters>
          </Trackpoint>
          <Trackpoint>
            <Time>2021-04-03T07:34:40.000Z</Time>
            <Position>
              <LatitudeDegrees>42.3054845072329044342041015625</LatitudeDegrees>
              <LongitudeDegrees>2.588030956685543060302734375</LongitudeDegrees>
            </Position>
            <AltitudeMeters>563.5999755859375</AltitudeMeters>
            <DistanceMeters>NAN</DistanceMeters>
          </Trackpoint>
          <Trackpoint>
            <Time>2021-04-03T07:34:46.000Z</Time>
            <Position>
              <LatitudeDegrees>42.30544704012572765350341796875</LatitudeDegrees>
              <LongitudeDegrees>2.5880388356745243072509765625</LongitudeDegrees>
            </Position>
            <AltitudeMeters>562.5999755859375</AltitudeMeters>
            <DistanceMeters>NAN</DistanceMeters>
          </Trackpoint>
          <Trackpoint>
            <Time>2021-04-03T07:34:50.000Z</Time>
            <Position>
              <LatitudeDegrees>42.305423319339752197265625</LatitudeDegrees>
              <LongitudeDegrees>2.58804780431091785430908203125</LongitudeDegrees>
            </Position>
            <AltitudeMeters>561.5999755859375</AltitudeMeters>
            <DistanceMeters>NAN</DistanceMeters>
          </Trackpoint>
          <Trackpoint>
            <Time>2021-04-03T07:34:51.000Z</Time>
            <Position>
              <LatitudeDegrees>42.30541418306529521942138671875</LatitudeDegrees>
              <LongitudeDegrees>2.588049061596393585205078125</LongitudeDegrees>
            </Position>
            <AltitudeMeters>561.4000244140625</AltitudeMeters>
            <DistanceMeters>NAN</DistanceMeters>
          </Trackpoint>
          <Trackpoint>
            <Time>2021-04-03T07:34:54.000Z</Time>
            <Position>
              <LatitudeDegrees>42.30539540760219097137451171875</LatitudeDegrees>
              <LongitudeDegrees>2.58805065415799617767333984375</LongitudeDegrees>
            </Position>
            <AltitudeMeters>560.4000244140625</AltitudeMeters>
            <DistanceMeters>NAN</DistanceMeters>
          </Trackpoint>
          <Trackpoint>
            <Time>2021-04-03T07:34:56.000Z</Time>
            <Position>
              <LatitudeDegrees>42.30538216419517993927001953125</LatitudeDegrees>
              <LongitudeDegrees>2.58805400691926479339599609375</LongitudeDegrees>
            </Position>
            <AltitudeMeters>559.79998779296875</AltitudeMeters>
            <DistanceMeters>NAN</DistanceMeters>
          </Trackpoint>
          <Trackpoint>
            <Time>2021-04-03T07:35:01.000Z</Time>
            <Position>
              <LatitudeDegrees>42.305342517793178558349609375</LatitudeDegrees>
              <LongitudeDegrees>2.58808317594230175018310546875</LongitudeDegrees>
            </Position>
            <AltitudeMeters>559.4000244140625</AltitudeMeters>
            <DistanceMeters>NAN</DistanceMeters>
          </Trackpoint>
          <Trackpoint>
            <Time>2021-04-03T07:35:04.000Z</Time>
            <Position>
              <LatitudeDegrees>42.3053225688636302947998046875</LatitudeDegrees>
              <LongitudeDegrees>2.588100023567676544189453125</LongitudeDegrees>
            </Position>
            <AltitudeMeters>559.20001220703125</AltitudeMeters>
            <DistanceMeters>NAN</DistanceMeters>
          </Trackpoint>
          <Trackpoint>
            <Time>2021-04-03T07:35:06.000Z</Time>
            <Position>
              <LatitudeDegrees>42.30530329048633575439453125</LatitudeDegrees>
              <LongitudeDegrees>2.5880951620638370513916015625</LongitudeDegrees>
            </Position>
            <AltitudeMeters>559.20001220703125</AltitudeMeters>
            <DistanceMeters>NAN</DistanceMeters>
          </Trackpoint>
          <Trackpoint>
            <Time>2021-04-03T07:35:08.000Z</Time>
            <Position>
              <LatitudeDegrees>42.3052944056689739227294921875</LatitudeDegrees>
              <LongitudeDegrees>2.58810848928987979888916015625</LongitudeDegrees>
            </Position>
            <AltitudeMeters>559.20001220703125</AltitudeMeters>
            <DistanceMeters>NAN</DistanceMeters>
          </Trackpoint>
          <Trackpoint>
            <Time>2021-04-03T07:35:10.000Z</Time>
            <Position>
              <LatitudeDegrees>42.30528853833675384521484375</LatitudeDegrees>
              <LongitudeDegrees>2.5881213136017322540283203125</LongitudeDegrees>
            </Position>
            <AltitudeMeters>559</AltitudeMeters>
            <DistanceMeters>NAN</DistanceMeters>
          </Trackpoint>
          <Trackpoint>
            <Time>2021-04-03T07:35:12.000Z</Time>
            <Position>
              <LatitudeDegrees>42.30527940206229686737060546875</LatitudeDegrees>
              <LongitudeDegrees>2.588152326643466949462890625</LongitudeDegrees>
            </Position>
            <AltitudeMeters>558.4000244140625</AltitudeMeters>
            <DistanceMeters>NAN</DistanceMeters>
          </Trackpoint>
          <Trackpoint>
            <Time>2021-04-03T07:35:18.000Z</Time>
            <Position>
              <LatitudeDegrees>42.30524252168834209442138671875</LatitudeDegrees>
              <LongitudeDegrees>2.5881855189800262451171875</LongitudeDegrees>
            </Position>
            <AltitudeMeters>557.5999755859375</AltitudeMeters>
            <DistanceMeters>NAN</DistanceMeters>
          </Trackpoint>
          <Trackpoint>
            <Time>2021-04-03T07:35:21.000Z</Time>
            <Position>
              <LatitudeDegrees>42.30522894300520420074462890625</LatitudeDegrees>
              <LongitudeDegrees>2.58820789866149425506591796875</LongitudeDegrees>
            </Position>
            <AltitudeMeters>557.4000244140625</AltitudeMeters>
            <DistanceMeters>NAN</DistanceMeters>
          </Trackpoint>
          <Trackpoint>
            <Time>2021-04-03T07:35:24.000Z</Time>
            <Position>
              <LatitudeDegrees>42.30521402321755886077880859375</LatitudeDegrees>
              <LongitudeDegrees>2.58822181262075901031494140625</LongitudeDegrees>
            </Position>
            <AltitudeMeters>557.20001220703125</AltitudeMeters>
            <DistanceMeters>NAN</DistanceMeters>
          </Trackpoint>
          <Trackpoint>
            <Time>2021-04-03T07:35:26.000Z</Time>
            <Position>
              <LatitudeDegrees>42.30520564131438732147216796875</LatitudeDegrees>
              <LongitudeDegrees>2.5882284343242645263671875</LongitudeDegrees>
            </Position>
            <AltitudeMeters>557</AltitudeMeters>
            <DistanceMeters>NAN</DistanceMeters>
          </Trackpoint>
          <Trackpoint>
            <Time>2021-04-03T07:35:28.000Z</Time>
            <Position>
              <LatitudeDegrees>42.30519457720220088958740234375</LatitudeDegrees>
              <LongitudeDegrees>2.5882311165332794189453125</LongitudeDegrees>
            </Position>
            <AltitudeMeters>556.79998779296875</AltitudeMeters>
            <DistanceMeters>NAN</DistanceMeters>
          </Trackpoint>
          <Trackpoint>
            <Time>2021-04-03T07:35:32.000Z</Time>
            <Position>
              <LatitudeDegrees>42.30517990887165069580078125</LatitudeDegrees>
              <LongitudeDegrees>2.58822281844913959503173828125</LongitudeDegrees>
            </Position>
            <AltitudeMeters>556.4000244140625</AltitudeMeters>
            <DistanceMeters>NAN</DistanceMeters>
          </Trackpoint>
          <Trackpoint>
            <Time>2021-04-03T07:35:34.000Z</Time>
            <Position>
              <LatitudeDegrees>42.30517747811973094940185546875</LatitudeDegrees>
              <LongitudeDegrees>2.58821980096399784088134765625</LongitudeDegrees>
            </Position>
            <AltitudeMeters>556.20001220703125</AltitudeMeters>
            <DistanceMeters>NAN</DistanceMeters>
          </Trackpoint>
          <Trackpoint>
            <Time>2021-04-03T07:35:37.000Z</Time>
            <Position>
              <LatitudeDegrees>42.30517052114009857177734375</LatitudeDegrees>
              <LongitudeDegrees>2.588210999965667724609375</LongitudeDegrees>
            </Position>
            <AltitudeMeters>556.20001220703125</AltitudeMeters>
            <DistanceMeters>NAN</DistanceMeters>
          </Trackpoint>
          <Trackpoint>
            <Time>2021-04-03T07:35:39.000Z</Time>
            <Position>
              <LatitudeDegrees>42.305166162550449371337890625</LatitudeDegrees>
              <LongitudeDegrees>2.58819264359772205352783203125</LongitudeDegrees>
            </Position>
            <AltitudeMeters>556</AltitudeMeters>
            <DistanceMeters>NAN</DistanceMeters>
          </Trackpoint>
          <Trackpoint>
            <Time>2021-04-03T07:35:45.000Z</Time>
            <Position>
              <LatitudeDegrees>42.30516306124627590179443359375</LatitudeDegrees>
              <LongitudeDegrees>2.5881545059382915496826171875</LongitudeDegrees>
            </Position>
            <AltitudeMeters>556.20001220703125</AltitudeMeters>
            <DistanceMeters>NAN</DistanceMeters>
          </Trackpoint>
          <Trackpoint>
            <Time>2021-04-03T07:35:46.000Z</Time>
            <Position>
              <LatitudeDegrees>42.30516306124627590179443359375</LatitudeDegrees>
              <LongitudeDegrees>2.5881545059382915496826171875</LongitudeDegrees>
            </Position>
            <AltitudeMeters>556</AltitudeMeters>
            <DistanceMeters>NAN</DistanceMeters>
          </Trackpoint>
          <Trackpoint>
            <Time>2021-04-03T07:36:05.000Z</Time>
            <Position>
              <LatitudeDegrees>42.30515669099986553192138671875</LatitudeDegrees>
              <LongitudeDegrees>2.5881437771022319793701171875</LongitudeDegrees>
            </Position>
            <AltitudeMeters>555.79998779296875</AltitudeMeters>
            <DistanceMeters>NAN</DistanceMeters>
          </Trackpoint>
          <Trackpoint>
            <Time>2021-04-03T07:36:09.000Z</Time>
            <Position>
              <LatitudeDegrees>42.30514881201088428497314453125</LatitudeDegrees>
              <LongitudeDegrees>2.58807412348687648773193359375</LongitudeDegrees>
            </Position>
            <AltitudeMeters>555.5999755859375</AltitudeMeters>
            <DistanceMeters>NAN</DistanceMeters>
          </Trackpoint>
          <Trackpoint>
            <Time>2021-04-03T07:36:13.000Z</Time>
            <Position>
              <LatitudeDegrees>42.30513288639485836029052734375</LatitudeDegrees>
              <LongitudeDegrees>2.58801494725048542022705078125</LongitudeDegrees>
            </Position>
            <AltitudeMeters>555</AltitudeMeters>
            <DistanceMeters>NAN</DistanceMeters>
          </Trackpoint>
          <Trackpoint>
            <Time>2021-04-03T07:36:17.000Z</Time>
            <Position>
              <LatitudeDegrees>42.3051086626946926116943359375</LatitudeDegrees>
              <LongitudeDegrees>2.58797965943813323974609375</LongitudeDegrees>
            </Position>
            <AltitudeMeters>554.79998779296875</AltitudeMeters>
            <DistanceMeters>NAN</DistanceMeters>
          </Trackpoint>
          <Trackpoint>
            <Time>2021-04-03T07:36:23.000Z</Time>
            <Position>
              <LatitudeDegrees>42.30510002933442592620849609375</LatitudeDegrees>
              <LongitudeDegrees>2.58797354064881801605224609375</LongitudeDegrees>
            </Position>
            <AltitudeMeters>554.4000244140625</AltitudeMeters>
            <DistanceMeters>NAN</DistanceMeters>
          </Trackpoint>
          <Trackpoint>
            <Time>2021-04-03T07:36:25.000Z</Time>
            <Position>
              <LatitudeDegrees>42.3050920665264129638671875</LatitudeDegrees>
              <LongitudeDegrees>2.58797421120107173919677734375</LongitudeDegrees>
            </Position>
            <AltitudeMeters>554.20001220703125</AltitudeMeters>
            <DistanceMeters>NAN</DistanceMeters>
          </Trackpoint>
          <Trackpoint>
            <Time>2021-04-03T07:36:26.000Z</Time>
            <Position>
              <LatitudeDegrees>42.30508930049836635589599609375</LatitudeDegrees>
              <LongitudeDegrees>2.58797488175332546234130859375</LongitudeDegrees>
            </Position>
            <AltitudeMeters>554.20001220703125</AltitudeMeters>
            <DistanceMeters>NAN</DistanceMeters>
          </Trackpoint>
          <Trackpoint>
            <Time>2021-04-03T07:36:31.000Z</Time>
            <Position>
              <LatitudeDegrees>42.3050811700522899627685546875</LatitudeDegrees>
              <LongitudeDegrees>2.58797873742878437042236328125</LongitudeDegrees>
            </Position>
            <AltitudeMeters>554.20001220703125</AltitudeMeters>
            <DistanceMeters>NAN</DistanceMeters>
          </Trackpoint>
          <Trackpoint>
            <Time>2021-04-03T07:36:35.000Z</Time>
            <Position>
              <LatitudeDegrees>42.3050811700522899627685546875</LatitudeDegrees>
              <LongitudeDegrees>2.58797873742878437042236328125</LongitudeDegrees>
            </Position>
            <AltitudeMeters>554.20001220703125</AltitudeMeters>
            <DistanceMeters>NAN</DistanceMeters>
          </Trackpoint>
          <Trackpoint>
            <Time>2021-04-03T07:36:41.000Z</Time>
            <Position>
              <LatitudeDegrees>42.3050811700522899627685546875</LatitudeDegrees>
              <LongitudeDegrees>2.58797873742878437042236328125</LongitudeDegrees>
            </Position>
            <AltitudeMeters>554.20001220703125</AltitudeMeters>
            <DistanceMeters>NAN</DistanceMeters>
          </Trackpoint>
          <Trackpoint>
            <Time>2021-04-03T07:36:45.000Z</Time>
            <Position>
              <LatitudeDegrees>42.30507823638617992401123046875</LatitudeDegrees>
              <LongitudeDegrees>2.58797873742878437042236328125</LongitudeDegrees>
            </Position>
            <AltitudeMeters>553.79998779296875</AltitudeMeters>
            <DistanceMeters>NAN</DistanceMeters>
          </Trackpoint>
          <Trackpoint>
            <Time>2021-04-03T07:36:50.000Z</Time>
            <Position>
              <LatitudeDegrees>42.30504320003092288970947265625</LatitudeDegrees>
              <LongitudeDegrees>2.58795258589088916778564453125</LongitudeDegrees>
            </Position>
            <AltitudeMeters>553.4000244140625</AltitudeMeters>
            <DistanceMeters>NAN</DistanceMeters>
          </Trackpoint>
          <Trackpoint>
            <Time>2021-04-03T07:36:57.000Z</Time>
            <Position>
              <LatitudeDegrees>42.30498100630939006805419921875</LatitudeDegrees>
              <LongitudeDegrees>2.58791436441242694854736328125</LongitudeDegrees>
            </Position>
            <AltitudeMeters>553.5999755859375</AltitudeMeters>
            <DistanceMeters>NAN</DistanceMeters>
          </Trackpoint>
          <Trackpoint>
            <Time>2021-04-03T07:37:05.000Z</Time>
            <Position>
              <LatitudeDegrees>42.30492535047233104705810546875</LatitudeDegrees>
              <LongitudeDegrees>2.5878748856484889984130859375</LongitudeDegrees>
            </Position>
            <AltitudeMeters>553.4000244140625</AltitudeMeters>
            <DistanceMeters>NAN</DistanceMeters>
          </Trackpoint>
          <Trackpoint>
            <Time>2021-04-03T07:37:12.000Z</Time>
            <Position>
              <LatitudeDegrees>42.3049056529998779296875</LatitudeDegrees>
              <LongitudeDegrees>2.58781545795500278472900390625</LongitudeDegrees>
            </Position>
            <AltitudeMeters>554</AltitudeMeters>
            <DistanceMeters>NAN</DistanceMeters>
          </Trackpoint>
          <Trackpoint>
            <Time>2021-04-03T07:37:20.000Z</Time>
            <Position>
              <LatitudeDegrees>42.30490137822926044464111328125</LatitudeDegrees>
              <LongitudeDegrees>2.58773046545684337615966796875</LongitudeDegrees>
            </Position>
            <AltitudeMeters>554.79998779296875</AltitudeMeters>
            <DistanceMeters>NAN</DistanceMeters>
          </Trackpoint>
          <Trackpoint>
            <Time>2021-04-03T07:37:21.000Z</Time>
            <Position>
              <LatitudeDegrees>42.30489970184862613677978515625</LatitudeDegrees>
              <LongitudeDegrees>2.58772158063948154449462890625</LongitudeDegrees>
            </Position>
            <AltitudeMeters>555</AltitudeMeters>
            <DistanceMeters>NAN</DistanceMeters>
          </Trackpoint>
          <Trackpoint>
            <Time>2021-04-03T07:37:23.000Z</Time>
            <Position>
              <LatitudeDegrees>42.304897271096706390380859375</LatitudeDegrees>
              <LongitudeDegrees>2.58769668638706207275390625</LongitudeDegrees>
            </Position>
            <AltitudeMeters>555</AltitudeMeters>
            <DistanceMeters>NAN</DistanceMeters>
          </Trackpoint>
          <Trackpoint>
            <Time>2021-04-03T07:37:27.000Z</Time>
            <Position>
              <LatitudeDegrees>42.30489031411707401275634765625</LatitudeDegrees>
              <LongitudeDegrees>2.58764748461544513702392578125</LongitudeDegrees>
            </Position>
            <AltitudeMeters>555.20001220703125</AltitudeMeters>
            <DistanceMeters>NAN</DistanceMeters>
          </Trackpoint>
          <Trackpoint>
            <Time>2021-04-03T07:37:31.000Z</Time>
            <Position>
              <LatitudeDegrees>42.3048873804509639739990234375</LatitudeDegrees>
              <LongitudeDegrees>2.58759744465351104736328125</LongitudeDegrees>
            </Position>
            <AltitudeMeters>555.4000244140625</AltitudeMeters>
            <DistanceMeters>NAN</DistanceMeters>
          </Trackpoint>
          <Trackpoint>
            <Time>2021-04-03T07:37:34.000Z</Time>
            <Position>
              <LatitudeDegrees>42.3048873804509639739990234375</LatitudeDegrees>
              <LongitudeDegrees>2.5875624082982540130615234375</LongitudeDegrees>
            </Position>
            <AltitudeMeters>555.79998779296875</AltitudeMeters>
            <DistanceMeters>NAN</DistanceMeters>
          </Trackpoint>
          <Trackpoint>
            <Time>2021-04-03T07:37:37.000Z</Time>
            <Position>
              <LatitudeDegrees>42.304884530603885650634765625</LatitudeDegrees>
              <LongitudeDegrees>2.587535083293914794921875</LongitudeDegrees>
            </Position>
            <AltitudeMeters>555.79998779296875</AltitudeMeters>
            <DistanceMeters>NAN</DistanceMeters>
          </Trackpoint>
          <Trackpoint>
            <Time>2021-04-03T07:37:39.000Z</Time>
            <Position>
              <LatitudeDegrees>42.3048840276896953582763671875</LatitudeDegrees>
              <LongitudeDegrees>2.58751773275434970855712890625</LongitudeDegrees>
            </Position>
            <AltitudeMeters>556.20001220703125</AltitudeMeters>
            <DistanceMeters>NAN</DistanceMeters>
          </Trackpoint>
          <Trackpoint>
            <Time>2021-04-03T07:37:41.000Z</Time>
            <Position>
              <LatitudeDegrees>42.30488176457583904266357421875</LatitudeDegrees>
              <LongitudeDegrees>2.58750130422413349151611328125</LongitudeDegrees>
            </Position>
            <AltitudeMeters>556.4000244140625</AltitudeMeters>
            <DistanceMeters>NAN</DistanceMeters>
          </Trackpoint>
          <Trackpoint>
            <Time>2021-04-03T07:37:44.000Z</Time>
            <Position>
              <LatitudeDegrees>42.3048833571374416351318359375</LatitudeDegrees>
              <LongitudeDegrees>2.58748202584683895111083984375</LongitudeDegrees>
            </Position>
            <AltitudeMeters>556.79998779296875</AltitudeMeters>
            <DistanceMeters>NAN</DistanceMeters>
          </Trackpoint>
          <Trackpoint>
            <Time>2021-04-03T07:37:45.000Z</Time>
            <Position>
              <LatitudeDegrees>42.3048828542232513427734375</LatitudeDegrees>
              <LongitudeDegrees>2.58747599087655544281005859375</LongitudeDegrees>
            </Position>
            <AltitudeMeters>556.79998779296875</AltitudeMeters>
            <DistanceMeters>NAN</DistanceMeters>
          </Trackpoint>
          <Trackpoint>
            <Time>2021-04-03T07:37:47.000Z</Time>
            <Position>
              <LatitudeDegrees>42.30488176457583904266357421875</LatitudeDegrees>
              <LongitudeDegrees>2.58746425621211528778076171875</LongitudeDegrees>
            </Position>
            <AltitudeMeters>557</AltitudeMeters>
            <DistanceMeters>NAN</DistanceMeters>
          </Trackpoint>
          <Trackpoint>
            <Time>2021-04-03T07:37:50.000Z</Time>
            <Position>
              <LatitudeDegrees>42.3048857040703296661376953125</LatitudeDegrees>
              <LongitudeDegrees>2.5874467380344867706298828125</LongitudeDegrees>
            </Position>
            <AltitudeMeters>557.4000244140625</AltitudeMeters>
            <DistanceMeters>NAN</DistanceMeters>
          </Trackpoint>
          <Trackpoint>
            <Time>2021-04-03T07:37:52.000Z</Time>
            <Position>
              <LatitudeDegrees>42.30488578788936138153076171875</LatitudeDegrees>
              <LongitudeDegrees>2.5874360091984272003173828125</LongitudeDegrees>
            </Position>
            <AltitudeMeters>557.5999755859375</AltitudeMeters>
            <DistanceMeters>NAN</DistanceMeters>
          </Trackpoint>
          <Trackpoint>
            <Time>2021-04-03T07:37:53.000Z</Time>
            <Position>
              <LatitudeDegrees>42.30488494969904422760009765625</LatitudeDegrees>
              <LongitudeDegrees>2.5874346680939197540283203125</LongitudeDegrees>
            </Position>
            <AltitudeMeters>557.79998779296875</AltitudeMeters>
            <DistanceMeters>NAN</DistanceMeters>
          </Trackpoint>
          <Trackpoint>
            <Time>2021-04-03T07:37:55.000Z</Time>
            <Position>
              <LatitudeDegrees>42.30488352477550506591796875</LatitudeDegrees>
              <LongitudeDegrees>2.5874229334294795989990234375</LongitudeDegrees>
            </Position>
            <AltitudeMeters>558</AltitudeMeters>
            <DistanceMeters>NAN</DistanceMeters>
          </Trackpoint>
          <Trackpoint>
            <Time>2021-04-03T07:37:58.000Z</Time>
            <Position>
              <LatitudeDegrees>42.30487857945263385772705078125</LatitudeDegrees>
              <LongitudeDegrees>2.58740189485251903533935546875</LongitudeDegrees>
            </Position>
            <AltitudeMeters>558</AltitudeMeters>
            <DistanceMeters>NAN</DistanceMeters>
          </Trackpoint>
          <Trackpoint>
            <Time>2021-04-03T07:38:07.000Z</Time>
            <Position>
              <LatitudeDegrees>42.30486868880689144134521484375</LatitudeDegrees>
              <LongitudeDegrees>2.5873661041259765625</LongitudeDegrees>
            </Position>
            <AltitudeMeters>558.5999755859375</AltitudeMeters>
            <DistanceMeters>NAN</DistanceMeters>
          </Trackpoint>
          <Trackpoint>
            <Time>2021-04-03T07:38:13.000Z</Time>
            <Position>
              <LatitudeDegrees>42.30486583895981311798095703125</LatitudeDegrees>
              <LongitudeDegrees>2.58736685849726200103759765625</LongitudeDegrees>
            </Position>
            <AltitudeMeters>558.4000244140625</AltitudeMeters>
            <DistanceMeters>NAN</DistanceMeters>
          </Trackpoint>
          <Trackpoint>
            <Time>2021-04-03T07:38:32.000Z</Time>
            <Position>
              <LatitudeDegrees>42.3048585467040538787841796875</LatitudeDegrees>
              <LongitudeDegrees>2.58735763840377330780029296875</LongitudeDegrees>
            </Position>
            <AltitudeMeters>558.5999755859375</AltitudeMeters>
            <DistanceMeters>NAN</DistanceMeters>
          </Trackpoint>
          <Trackpoint>
            <Time>2021-04-03T07:38:40.000Z</Time>
            <Position>
              <LatitudeDegrees>42.3048558644950389862060546875</LatitudeDegrees>
              <LongitudeDegrees>2.58733517490327358245849609375</LongitudeDegrees>
            </Position>
            <AltitudeMeters>558.4000244140625</AltitudeMeters>
            <DistanceMeters>NAN</DistanceMeters>
          </Trackpoint>
          <Trackpoint>
            <Time>2021-04-03T07:38:46.000Z</Time>
            <Position>
              <LatitudeDegrees>42.3048548586666584014892578125</LatitudeDegrees>
              <LongitudeDegrees>2.58733064867556095123291015625</LongitudeDegrees>
            </Position>
            <AltitudeMeters>559.20001220703125</AltitudeMeters>
            <DistanceMeters>NAN</DistanceMeters>
          </Trackpoint>
          <Trackpoint>
            <Time>2021-04-03T07:38:58.000Z</Time>
            <Position>
              <LatitudeDegrees>42.30485402047634124755859375</LatitudeDegrees>
              <LongitudeDegrees>2.5873149745166301727294921875</LongitudeDegrees>
            </Position>
            <AltitudeMeters>560.4000244140625</AltitudeMeters>
            <DistanceMeters>NAN</DistanceMeters>
          </Trackpoint>
          <Trackpoint>
            <Time>2021-04-03T07:39:05.000Z</Time>
            <Position>
              <LatitudeDegrees>42.30485075153410434722900390625</LatitudeDegrees>
              <LongitudeDegrees>2.587275914847850799560546875</LongitudeDegrees>
            </Position>
            <AltitudeMeters>561.4000244140625</AltitudeMeters>
            <DistanceMeters>NAN</DistanceMeters>
          </Trackpoint>
          <Trackpoint>
            <Time>2021-04-03T07:39:09.000Z</Time>
            <Position>
              <LatitudeDegrees>42.3048265278339385986328125</LatitudeDegrees>
              <LongitudeDegrees>2.58719511330127716064453125</LongitudeDegrees>
            </Position>
            <AltitudeMeters>562.20001220703125</AltitudeMeters>
            <DistanceMeters>NAN</DistanceMeters>
          </Trackpoint>
          <Trackpoint>
            <Time>2021-04-03T07:39:12.000Z</Time>
            <Position>
              <LatitudeDegrees>42.30481320060789585113525390625</LatitudeDegrees>
              <LongitudeDegrees>2.58713333867490291595458984375</LongitudeDegrees>
            </Position>
            <AltitudeMeters>562.5999755859375</AltitudeMeters>
            <DistanceMeters>NAN</DistanceMeters>
          </Trackpoint>
          <Trackpoint>
            <Time>2021-04-03T07:39:22.000Z</Time>
            <Position>
              <LatitudeDegrees>42.304800041019916534423828125</LatitudeDegrees>
              <LongitudeDegrees>2.58699570782482624053955078125</LongitudeDegrees>
            </Position>
            <AltitudeMeters>563.79998779296875</AltitudeMeters>
            <DistanceMeters>NAN</DistanceMeters>
          </Trackpoint>
          <Trackpoint>
            <Time>2021-04-03T07:39:23.000Z</Time>
            <Position>
              <LatitudeDegrees>42.30479828082025051116943359375</LatitudeDegrees>
              <LongitudeDegrees>2.58698313497006893157958984375</LongitudeDegrees>
            </Position>
            <AltitudeMeters>563.79998779296875</AltitudeMeters>
            <DistanceMeters>NAN</DistanceMeters>
          </Trackpoint>
          <Trackpoint>
            <Time>2021-04-03T07:39:31.000Z</Time>
            <Position>
              <LatitudeDegrees>42.304797358810901641845703125</LatitudeDegrees>
              <LongitudeDegrees>2.5869061052799224853515625</LongitudeDegrees>
            </Position>
            <AltitudeMeters>564.79998779296875</AltitudeMeters>
            <DistanceMeters>NAN</DistanceMeters>
          </Trackpoint>
          <Trackpoint>
            <Time>2021-04-03T07:39:32.000Z</Time>
            <Position>
              <LatitudeDegrees>42.3047968558967113494873046875</LatitudeDegrees>
              <LongitudeDegrees>2.58689629845321178436279296875</LongitudeDegrees>
            </Position>
            <AltitudeMeters>564.79998779296875</AltitudeMeters>
            <DistanceMeters>NAN</DistanceMeters>
          </Trackpoint>
          <Trackpoint>
            <Time>2021-04-03T07:39:33.000Z</Time>
            <Position>
              <LatitudeDegrees>42.30479861609637737274169921875</LatitudeDegrees>
              <LongitudeDegrees>2.58688640780746936798095703125</LongitudeDegrees>
            </Position>
            <AltitudeMeters>564.79998779296875</AltitudeMeters>
            <DistanceMeters>NAN</DistanceMeters>
          </Trackpoint>
          <Trackpoint>
            <Time>2021-04-03T07:39:34.000Z</Time>
            <Position>
              <LatitudeDegrees>42.30479895137250423431396484375</LatitudeDegrees>
              <LongitudeDegrees>2.58687869645655155181884765625</LongitudeDegrees>
            </Position>
            <AltitudeMeters>564.79998779296875</AltitudeMeters>
            <DistanceMeters>NAN</DistanceMeters>
          </Trackpoint>
          <Trackpoint>
            <Time>2021-04-03T07:39:39.000Z</Time>
            <Position>
              <LatitudeDegrees>42.30480263940989971160888671875</LatitudeDegrees>
              <LongitudeDegrees>2.58683167397975921630859375</LongitudeDegrees>
            </Position>
            <AltitudeMeters>565.5999755859375</AltitudeMeters>
            <DistanceMeters>NAN</DistanceMeters>
          </Trackpoint>
          <Trackpoint>
            <Time>2021-04-03T07:39:42.000Z</Time>
            <Position>
              <LatitudeDegrees>42.30480842292308807373046875</LatitudeDegrees>
              <LongitudeDegrees>2.5868046842515468597412109375</LongitudeDegrees>
            </Position>
            <AltitudeMeters>565.79998779296875</AltitudeMeters>
            <DistanceMeters>NAN</DistanceMeters>
          </Trackpoint>
          <Trackpoint>
            <Time>2021-04-03T07:39:43.000Z</Time>
            <Position>
              <LatitudeDegrees>42.3048077523708343505859375</LatitudeDegrees>
              <LongitudeDegrees>2.5867946259677410125732421875</LongitudeDegrees>
            </Position>
            <AltitudeMeters>565.79998779296875</AltitudeMeters>
            <DistanceMeters>NAN</DistanceMeters>
          </Trackpoint>
          <Trackpoint>
            <Time>2021-04-03T07:39:47.000Z</Time>
            <Position>
              <LatitudeDegrees>42.30481353588402271270751953125</LatitudeDegrees>
              <LongitudeDegrees>2.58676034398376941680908203125</LongitudeDegrees>
            </Position>
            <AltitudeMeters>566.20001220703125</AltitudeMeters>
            <DistanceMeters>NAN</DistanceMeters>
          </Trackpoint>
          <Trackpoint>
            <Time>2021-04-03T07:39:52.000Z</Time>
            <Position>
              <LatitudeDegrees>42.3048050701618194580078125</LatitudeDegrees>
              <LongitudeDegrees>2.58671625517308712005615234375</LongitudeDegrees>
            </Position>
            <AltitudeMeters>566.5999755859375</AltitudeMeters>
            <DistanceMeters>NAN</DistanceMeters>
          </Trackpoint>
          <Trackpoint>
            <Time>2021-04-03T07:40:03.000Z</Time>
            <Position>
              <LatitudeDegrees>42.3047938384115695953369140625</LatitudeDegrees>
              <LongitudeDegrees>2.586606033146381378173828125</LongitudeDegrees>
            </Position>
            <AltitudeMeters>566.5999755859375</AltitudeMeters>
            <DistanceMeters>NAN</DistanceMeters>
          </Trackpoint>
          <Trackpoint>
            <Time>2021-04-03T07:40:06.000Z</Time>
            <Position>
              <LatitudeDegrees>42.3047928325831890106201171875</LatitudeDegrees>
              <LongitudeDegrees>2.58657552301883697509765625</LongitudeDegrees>
            </Position>
            <AltitudeMeters>566.79998779296875</AltitudeMeters>
            <DistanceMeters>NAN</DistanceMeters>
          </Trackpoint>
          <Trackpoint>
            <Time>2021-04-03T07:40:07.000Z</Time>
            <Position>
              <LatitudeDegrees>42.30479098856449127197265625</LatitudeDegrees>
              <LongitudeDegrees>2.586569152772426605224609375</LongitudeDegrees>
            </Position>
            <AltitudeMeters>567</AltitudeMeters>
            <DistanceMeters>NAN</DistanceMeters>
          </Trackpoint>
          <Trackpoint>
            <Time>2021-04-03T07:40:10.000Z</Time>
            <Position>
              <LatitudeDegrees>42.30478537268936634063720703125</LatitudeDegrees>
              <LongitudeDegrees>2.58656387217342853546142578125</LongitudeDegrees>
            </Position>
            <AltitudeMeters>567</AltitudeMeters>
            <DistanceMeters>NAN</DistanceMeters>
          </Trackpoint>
          <Trackpoint>
            <Time>2021-04-03T07:40:12.000Z</Time>
            <Position>
              <LatitudeDegrees>42.30478554032742977142333984375</LatitudeDegrees>
              <LongitudeDegrees>2.58655196987092494964599609375</LongitudeDegrees>
            </Position>
            <AltitudeMeters>567</AltitudeMeters>
            <DistanceMeters>NAN</DistanceMeters>
          </Trackpoint>
          <Trackpoint>
            <Time>2021-04-03T07:40:21.000Z</Time>
            <Position>
              <LatitudeDegrees>42.30480465106666088104248046875</LatitudeDegrees>
              <LongitudeDegrees>2.586478628218173980712890625</LongitudeDegrees>
            </Position>
            <AltitudeMeters>568</AltitudeMeters>
            <DistanceMeters>NAN</DistanceMeters>
          </Trackpoint>
          <Trackpoint>
            <Time>2021-04-03T07:40:23.000Z</Time>
            <Position>
              <LatitudeDegrees>42.30480733327567577362060546875</LatitudeDegrees>
              <LongitudeDegrees>2.58646613918244838714599609375</LongitudeDegrees>
            </Position>
            <AltitudeMeters>568.20001220703125</AltitudeMeters>
            <DistanceMeters>NAN</DistanceMeters>
          </Trackpoint>
          <Trackpoint>
            <Time>2021-04-03T07:40:28.000Z</Time>
            <Position>
              <LatitudeDegrees>42.30481638573110103607177734375</LatitudeDegrees>
              <LongitudeDegrees>2.5864402391016483306884765625</LongitudeDegrees>
            </Position>
            <AltitudeMeters>568.79998779296875</AltitudeMeters>
            <DistanceMeters>NAN</DistanceMeters>
          </Trackpoint>
          <Trackpoint>
            <Time>2021-04-03T07:40:29.000Z</Time>
            <Position>
              <LatitudeDegrees>42.3048169724643230438232421875</LatitudeDegrees>
              <LongitudeDegrees>2.58643344976007938385009765625</LongitudeDegrees>
            </Position>
            <AltitudeMeters>568.79998779296875</AltitudeMeters>
            <DistanceMeters>NAN</DistanceMeters>
          </Trackpoint>
          <Trackpoint>
            <Time>2021-04-03T07:40:33.000Z</Time>
            <Position>
              <LatitudeDegrees>42.304822504520416259765625</LatitudeDegrees>
              <LongitudeDegrees>2.586408555507659912109375</LongitudeDegrees>
            </Position>
            <AltitudeMeters>569.20001220703125</AltitudeMeters>
            <DistanceMeters>NAN</DistanceMeters>
          </Trackpoint>
          <Trackpoint>
            <Time>2021-04-03T07:40:36.000Z</Time>
            <Position>
              <LatitudeDegrees>42.304823510348796844482421875</LatitudeDegrees>
              <LongitudeDegrees>2.5863902829587459564208984375</LongitudeDegrees>
            </Position>
            <AltitudeMeters>569.4000244140625</AltitudeMeters>
            <DistanceMeters>NAN</DistanceMeters>
          </Trackpoint>
          <Trackpoint>
            <Time>2021-04-03T07:40:43.000Z</Time>
            <Position>
              <LatitudeDegrees>42.30481739155948162078857421875</LatitudeDegrees>
              <LongitudeDegrees>2.586357258260250091552734375</LongitudeDegrees>
            </Position>
            <AltitudeMeters>570.20001220703125</AltitudeMeters>
            <DistanceMeters>NAN</DistanceMeters>
          </Trackpoint>
          <Trackpoint>
            <Time>2021-04-03T07:40:44.000Z</Time>
            <Position>
              <LatitudeDegrees>42.3048209957778453826904296875</LatitudeDegrees>
              <LongitudeDegrees>2.58635449223220348358154296875</LongitudeDegrees>
            </Position>
            <AltitudeMeters>570.4000244140625</AltitudeMeters>
            <DistanceMeters>NAN</DistanceMeters>
          </Trackpoint>
          <Trackpoint>
            <Time>2021-04-03T07:40:48.000Z</Time>
            <Position>
              <LatitudeDegrees>42.30482853949069976806640625</LatitudeDegrees>
              <LongitudeDegrees>2.5863352976739406585693359375</LongitudeDegrees>
            </Position>
            <AltitudeMeters>571</AltitudeMeters>
            <DistanceMeters>NAN</DistanceMeters>
          </Trackpoint>
          <Trackpoint>
            <Time>2021-04-03T07:40:50.000Z</Time>
            <Position>
              <LatitudeDegrees>42.304830886423587799072265625</LatitudeDegrees>
              <LongitudeDegrees>2.58632616139948368072509765625</LongitudeDegrees>
            </Position>
            <AltitudeMeters>571.4000244140625</AltitudeMeters>
            <DistanceMeters>NAN</DistanceMeters>
          </Trackpoint>
          <Trackpoint>
            <Time>2021-04-03T07:40:56.000Z</Time>
            <Position>
              <LatitudeDegrees>42.30482543818652629852294921875</LatitudeDegrees>
              <LongitudeDegrees>2.5862940587103366851806640625</LongitudeDegrees>
            </Position>
            <AltitudeMeters>572.20001220703125</AltitudeMeters>
            <DistanceMeters>NAN</DistanceMeters>
          </Trackpoint>
          <Trackpoint>
            <Time>2021-04-03T07:40:57.000Z</Time>
            <Position>
              <LatitudeDegrees>42.30482510291039943695068359375</LatitudeDegrees>
              <LongitudeDegrees>2.5862880237400531768798828125</LongitudeDegrees>
            </Position>
            <AltitudeMeters>572.4000244140625</AltitudeMeters>
            <DistanceMeters>NAN</DistanceMeters>
          </Trackpoint>
          <Trackpoint>
            <Time>2021-04-03T07:41:03.000Z</Time>
            <Position>
              <LatitudeDegrees>42.30482342652976512908935546875</LatitudeDegrees>
              <LongitudeDegrees>2.5862648896872997283935546875</LongitudeDegrees>
            </Position>
            <AltitudeMeters>573</AltitudeMeters>
            <DistanceMeters>NAN</DistanceMeters>
          </Trackpoint>
          <Trackpoint>
            <Time>2021-04-03T07:41:04.000Z</Time>
            <Position>
              <LatitudeDegrees>42.30482577346265316009521484375</LatitudeDegrees>
              <LongitudeDegrees>2.58625826798379421234130859375</LongitudeDegrees>
            </Position>
            <AltitudeMeters>573.20001220703125</AltitudeMeters>
            <DistanceMeters>NAN</DistanceMeters>
          </Trackpoint>
          <Trackpoint>
            <Time>2021-04-03T07:41:05.000Z</Time>
            <Position>
              <LatitudeDegrees>42.3048266954720020294189453125</LatitudeDegrees>
              <LongitudeDegrees>2.58625290356576442718505859375</LongitudeDegrees>
            </Position>
            <AltitudeMeters>573.4000244140625</AltitudeMeters>
            <DistanceMeters>NAN</DistanceMeters>
          </Trackpoint>
          <Trackpoint>
            <Time>2021-04-03T07:41:12.000Z</Time>
            <Position>
              <LatitudeDegrees>42.30482242070138454437255859375</LatitudeDegrees>
              <LongitudeDegrees>2.5862172804772853851318359375</LongitudeDegrees>
            </Position>
            <AltitudeMeters>574.5999755859375</AltitudeMeters>
            <DistanceMeters>NAN</DistanceMeters>
          </Trackpoint>
          <Trackpoint>
            <Time>2021-04-03T07:41:13.000Z</Time>
            <Position>
              <LatitudeDegrees>42.30482225306332111358642578125</LatitudeDegrees>
              <LongitudeDegrees>2.58621267043054103851318359375</LongitudeDegrees>
            </Position>
            <AltitudeMeters>574.79998779296875</AltitudeMeters>
            <DistanceMeters>NAN</DistanceMeters>
          </Trackpoint>
          <Trackpoint>
            <Time>2021-04-03T07:41:24.000Z</Time>
            <Position>
              <LatitudeDegrees>42.30481772683560848236083984375</LatitudeDegrees>
              <LongitudeDegrees>2.58615911006927490234375</LongitudeDegrees>
            </Position>
            <AltitudeMeters>575.4000244140625</AltitudeMeters>
            <DistanceMeters>NAN</DistanceMeters>
          </Trackpoint>
          <Trackpoint>
            <Time>2021-04-03T07:41:27.000Z</Time>
            <Position>
              <LatitudeDegrees>42.3048089258372783660888671875</LatitudeDegrees>
              <LongitudeDegrees>2.586144022643566131591796875</LongitudeDegrees>
            </Position>
            <AltitudeMeters>575.79998779296875</AltitudeMeters>
            <DistanceMeters>NAN</DistanceMeters>
          </Trackpoint>
          <Trackpoint>
            <Time>2021-04-03T07:41:34.000Z</Time>
            <Position>
              <LatitudeDegrees>42.30480196885764598846435546875</LatitudeDegrees>
              <LongitudeDegrees>2.58610546588897705078125</LongitudeDegrees>
            </Position>
            <AltitudeMeters>576.5999755859375</AltitudeMeters>
            <DistanceMeters>NAN</DistanceMeters>
          </Trackpoint>
          <Trackpoint>
            <Time>2021-04-03T07:41:36.000Z</Time>
            <Position>
              <LatitudeDegrees>42.3047978617250919342041015625</LatitudeDegrees>
              <LongitudeDegrees>2.586095072329044342041015625</LongitudeDegrees>
            </Position>
            <AltitudeMeters>576.79998779296875</AltitudeMeters>
            <DistanceMeters>NAN</DistanceMeters>
          </Trackpoint>
          <Trackpoint>
            <Time>2021-04-03T07:41:38.000Z</Time>
            <Position>
              <LatitudeDegrees>42.30479677207767963409423828125</LatitudeDegrees>
              <LongitudeDegrees>2.58608526550233364105224609375</LongitudeDegrees>
            </Position>
            <AltitudeMeters>577</AltitudeMeters>
            <DistanceMeters>NAN</DistanceMeters>
          </Trackpoint>
          <Trackpoint>
            <Time>2021-04-03T07:41:42.000Z</Time>
            <Position>
              <LatitudeDegrees>42.304789312183856964111328125</LatitudeDegrees>
              <LongitudeDegrees>2.58606531657278537750244140625</LongitudeDegrees>
            </Position>
            <AltitudeMeters>577.5999755859375</AltitudeMeters>
            <DistanceMeters>NAN</DistanceMeters>
          </Trackpoint>
          <Trackpoint>
            <Time>2021-04-03T07:41:45.000Z</Time>
            <Position>
              <LatitudeDegrees>42.30478855781257152557373046875</LatitudeDegrees>
              <LongitudeDegrees>2.58604855276644229888916015625</LongitudeDegrees>
            </Position>
            <AltitudeMeters>577.79998779296875</AltitudeMeters>
            <DistanceMeters>NAN</DistanceMeters>
          </Trackpoint>
          <Trackpoint>
            <Time>2021-04-03T07:41:50.000Z</Time>
            <Position>
              <LatitudeDegrees>42.3047951795160770416259765625</LatitudeDegrees>
              <LongitudeDegrees>2.58603011257946491241455078125</LongitudeDegrees>
            </Position>
            <AltitudeMeters>578.4000244140625</AltitudeMeters>
            <DistanceMeters>NAN</DistanceMeters>
          </Trackpoint>
          <Trackpoint>
            <Time>2021-04-03T07:41:54.000Z</Time>
            <Position>
              <LatitudeDegrees>42.3047807626426219940185546875</LatitudeDegrees>
              <LongitudeDegrees>2.58602701127529144287109375</LongitudeDegrees>
            </Position>
            <AltitudeMeters>578.79998779296875</AltitudeMeters>
            <DistanceMeters>NAN</DistanceMeters>
          </Trackpoint>
          <Trackpoint>
            <Time>2021-04-03T07:41:55.000Z</Time>
            <Position>
              <LatitudeDegrees>42.30478168465197086334228515625</LatitudeDegrees>
              <LongitudeDegrees>2.58602323941886425018310546875</LongitudeDegrees>
            </Position>
            <AltitudeMeters>579</AltitudeMeters>
            <DistanceMeters>NAN</DistanceMeters>
          </Trackpoint>
          <Trackpoint>
            <Time>2021-04-03T07:41:58.000Z</Time>
            <Position>
              <LatitudeDegrees>42.30478696525096893310546875</LatitudeDegrees>
              <LongitudeDegrees>2.586000524461269378662109375</LongitudeDegrees>
            </Position>
            <AltitudeMeters>579.20001220703125</AltitudeMeters>
            <DistanceMeters>NAN</DistanceMeters>
          </Trackpoint>
          <Trackpoint>
            <Time>2021-04-03T07:42:04.000Z</Time>
            <Position>
              <LatitudeDegrees>42.304791323840618133544921875</LatitudeDegrees>
              <LongitudeDegrees>2.5859721936285495758056640625</LongitudeDegrees>
            </Position>
            <AltitudeMeters>579.79998779296875</AltitudeMeters>
            <DistanceMeters>NAN</DistanceMeters>
          </Trackpoint>
          <Trackpoint>
            <Time>2021-04-03T07:42:06.000Z</Time>
            <Position>
              <LatitudeDegrees>42.30478688143193721771240234375</LatitudeDegrees>
              <LongitudeDegrees>2.58596406318247318267822265625</LongitudeDegrees>
            </Position>
            <AltitudeMeters>580</AltitudeMeters>
            <DistanceMeters>NAN</DistanceMeters>
          </Trackpoint>
          <Trackpoint>
            <Time>2021-04-03T07:42:09.000Z</Time>
            <Position>
              <LatitudeDegrees>42.30478252284228801727294921875</LatitudeDegrees>
              <LongitudeDegrees>2.58595325052738189697265625</LongitudeDegrees>
            </Position>
            <AltitudeMeters>580.4000244140625</AltitudeMeters>
            <DistanceMeters>NAN</DistanceMeters>
          </Trackpoint>
          <Trackpoint>
            <Time>2021-04-03T07:42:13.000Z</Time>
            <Position>
              <LatitudeDegrees>42.304769866168498992919921875</LatitudeDegrees>
              <LongitudeDegrees>2.5859369896352291107177734375</LongitudeDegrees>
            </Position>
            <AltitudeMeters>580.79998779296875</AltitudeMeters>
            <DistanceMeters>NAN</DistanceMeters>
          </Trackpoint>
          <Trackpoint>
            <Time>2021-04-03T07:42:15.000Z</Time>
            <Position>
              <LatitudeDegrees>42.30476810596883296966552734375</LatitudeDegrees>
              <LongitudeDegrees>2.585921399295330047607421875</LongitudeDegrees>
            </Position>
            <AltitudeMeters>581</AltitudeMeters>
            <DistanceMeters>NAN</DistanceMeters>
          </Trackpoint>
          <Trackpoint>
            <Time>2021-04-03T07:42:18.000Z</Time>
            <Position>
              <LatitudeDegrees>42.3047636635601520538330078125</LatitudeDegrees>
              <LongitudeDegrees>2.5859007798135280609130859375</LongitudeDegrees>
            </Position>
            <AltitudeMeters>581.4000244140625</AltitudeMeters>
            <DistanceMeters>NAN</DistanceMeters>
          </Trackpoint>
          <Trackpoint>
            <Time>2021-04-03T07:42:26.000Z</Time>
            <Position>
              <LatitudeDegrees>42.3047512583434581756591796875</LatitudeDegrees>
              <LongitudeDegrees>2.5858471356332302093505859375</LongitudeDegrees>
            </Position>
            <AltitudeMeters>582</AltitudeMeters>
            <DistanceMeters>NAN</DistanceMeters>
          </Trackpoint>
          <Trackpoint>
            <Time>2021-04-03T07:42:28.000Z</Time>
            <Position>
              <LatitudeDegrees>42.3047452233731746673583984375</LatitudeDegrees>
              <LongitudeDegrees>2.585834898054599761962890625</LongitudeDegrees>
            </Position>
            <AltitudeMeters>582</AltitudeMeters>
            <DistanceMeters>NAN</DistanceMeters>
          </Trackpoint>
          <Trackpoint>
            <Time>2021-04-03T07:42:32.000Z</Time>
            <Position>
              <LatitudeDegrees>42.30473809875547885894775390625</LatitudeDegrees>
              <LongitudeDegrees>2.58581352420151233673095703125</LongitudeDegrees>
            </Position>
            <AltitudeMeters>582.4000244140625</AltitudeMeters>
            <DistanceMeters>NAN</DistanceMeters>
          </Trackpoint>
          <Trackpoint>
            <Time>2021-04-03T07:42:35.000Z</Time>
            <Position>
              <LatitudeDegrees>42.3047274537384510040283203125</LatitudeDegrees>
              <LongitudeDegrees>2.58579826913774013519287109375</LongitudeDegrees>
            </Position>
            <AltitudeMeters>583</AltitudeMeters>
            <DistanceMeters>NAN</DistanceMeters>
          </Trackpoint>
          <Trackpoint>
            <Time>2021-04-03T07:42:37.000Z</Time>
            <Position>
              <LatitudeDegrees>42.30472502298653125762939453125</LatitudeDegrees>
              <LongitudeDegrees>2.5857911445200443267822265625</LongitudeDegrees>
            </Position>
            <AltitudeMeters>583.20001220703125</AltitudeMeters>
            <DistanceMeters>NAN</DistanceMeters>
          </Trackpoint>
          <Trackpoint>
            <Time>2021-04-03T07:42:41.000Z</Time>
            <Position>
              <LatitudeDegrees>42.30471664108335971832275390625</LatitudeDegrees>
              <LongitudeDegrees>2.585767842829227447509765625</LongitudeDegrees>
            </Position>
            <AltitudeMeters>583.5999755859375</AltitudeMeters>
            <DistanceMeters>NAN</DistanceMeters>
          </Trackpoint>
          <Trackpoint>
            <Time>2021-04-03T07:42:46.000Z</Time>
            <Position>
              <LatitudeDegrees>42.30470121838152408599853515625</LatitudeDegrees>
              <LongitudeDegrees>2.585735321044921875</LongitudeDegrees>
            </Position>
            <AltitudeMeters>584.20001220703125</AltitudeMeters>
            <DistanceMeters>NAN</DistanceMeters>
          </Trackpoint>
          <Trackpoint>
            <Time>2021-04-03T07:42:47.000Z</Time>
            <Position>
              <LatitudeDegrees>42.3046977818012237548828125</LatitudeDegrees>
              <LongitudeDegrees>2.5857304595410823822021484375</LongitudeDegrees>
            </Position>
            <AltitudeMeters>584.4000244140625</AltitudeMeters>
            <DistanceMeters>NAN</DistanceMeters>
          </Trackpoint>
          <Trackpoint>
            <Time>2021-04-03T07:42:49.000Z</Time>
            <Position>
              <LatitudeDegrees>42.30469116009771823883056640625</LatitudeDegrees>
              <LongitudeDegrees>2.5857220776379108428955078125</LongitudeDegrees>
            </Position>
            <AltitudeMeters>584.5999755859375</AltitudeMeters>
            <DistanceMeters>NAN</DistanceMeters>
          </Trackpoint>
          <Trackpoint>
            <Time>2021-04-03T07:42:52.000Z</Time>
            <Position>
              <LatitudeDegrees>42.3046868853271007537841796875</LatitudeDegrees>
              <LongitudeDegrees>2.585706152021884918212890625</LongitudeDegrees>
            </Position>
            <AltitudeMeters>585</AltitudeMeters>
            <DistanceMeters>NAN</DistanceMeters>
          </Trackpoint>
          <Trackpoint>
            <Time>2021-04-03T07:42:55.000Z</Time>
            <Position>
              <LatitudeDegrees>42.3046734742820262908935546875</LatitudeDegrees>
              <LongitudeDegrees>2.5856908969581127166748046875</LongitudeDegrees>
            </Position>
            <AltitudeMeters>585.20001220703125</AltitudeMeters>
            <DistanceMeters>NAN</DistanceMeters>
          </Trackpoint>
          <Trackpoint>
            <Time>2021-04-03T07:42:56.000Z</Time>
            <Position>
              <LatitudeDegrees>42.304670624434947967529296875</LatitudeDegrees>
              <LongitudeDegrees>2.5856857001781463623046875</LongitudeDegrees>
            </Position>
            <AltitudeMeters>585.4000244140625</AltitudeMeters>
            <DistanceMeters>NAN</DistanceMeters>
          </Trackpoint>
          <Trackpoint>
            <Time>2021-04-03T07:42:59.000Z</Time>
            <Position>
              <LatitudeDegrees>42.30466224253177642822265625</LatitudeDegrees>
              <LongitudeDegrees>2.58567203767597675323486328125</LongitudeDegrees>
            </Position>
            <AltitudeMeters>585.79998779296875</AltitudeMeters>
            <DistanceMeters>NAN</DistanceMeters>
          </Trackpoint>
          <Trackpoint>
            <Time>2021-04-03T07:43:05.000Z</Time>
            <Position>
              <LatitudeDegrees>42.3046513460576534271240234375</LatitudeDegrees>
              <LongitudeDegrees>2.58563700132071971893310546875</LongitudeDegrees>
            </Position>
            <AltitudeMeters>586.4000244140625</AltitudeMeters>
            <DistanceMeters>NAN</DistanceMeters>
          </Trackpoint>
          <Trackpoint>
            <Time>2021-04-03T07:43:08.000Z</Time>
            <Position>
              <LatitudeDegrees>42.304642461240291595458984375</LatitudeDegrees>
              <LongitudeDegrees>2.58562711067497730255126953125</LongitudeDegrees>
            </Position>
            <AltitudeMeters>586.5999755859375</AltitudeMeters>
            <DistanceMeters>NAN</DistanceMeters>
          </Trackpoint>
          <Trackpoint>
            <Time>2021-04-03T07:43:16.000Z</Time>
            <Position>
              <LatitudeDegrees>42.30463231913745403289794921875</LatitudeDegrees>
              <LongitudeDegrees>2.5855638273060321807861328125</LongitudeDegrees>
            </Position>
            <AltitudeMeters>587.4000244140625</AltitudeMeters>
            <DistanceMeters>NAN</DistanceMeters>
          </Trackpoint>
          <Trackpoint>
            <Time>2021-04-03T07:43:18.000Z</Time>
            <Position>
              <LatitudeDegrees>42.30462779290974140167236328125</LatitudeDegrees>
              <LongitudeDegrees>2.585552595555782318115234375</LongitudeDegrees>
            </Position>
            <AltitudeMeters>587.5999755859375</AltitudeMeters>
            <DistanceMeters>NAN</DistanceMeters>
          </Trackpoint>
          <Trackpoint>
            <Time>2021-04-03T07:43:23.000Z</Time>
            <Position>
              <LatitudeDegrees>42.30462091974914073944091796875</LatitudeDegrees>
              <LongitudeDegrees>2.585521079599857330322265625</LongitudeDegrees>
            </Position>
            <AltitudeMeters>588</AltitudeMeters>
            <DistanceMeters>NAN</DistanceMeters>
          </Trackpoint>
          <Trackpoint>
            <Time>2021-04-03T07:43:25.000Z</Time>
            <Position>
              <LatitudeDegrees>42.3046174831688404083251953125</LatitudeDegrees>
              <LongitudeDegrees>2.58550071157515048980712890625</LongitudeDegrees>
            </Position>
            <AltitudeMeters>588.20001220703125</AltitudeMeters>
            <DistanceMeters>NAN</DistanceMeters>
          </Trackpoint>
          <Trackpoint>
            <Time>2021-04-03T07:43:26.000Z</Time>
            <Position>
              <LatitudeDegrees>42.30461798608303070068359375</LatitudeDegrees>
              <LongitudeDegrees>2.58549266494810581207275390625</LongitudeDegrees>
            </Position>
            <AltitudeMeters>588.20001220703125</AltitudeMeters>
            <DistanceMeters>NAN</DistanceMeters>
          </Trackpoint>
          <Trackpoint>
            <Time>2021-04-03T07:43:29.000Z</Time>
            <Position>
              <LatitudeDegrees>42.3046144656836986541748046875</LatitudeDegrees>
              <LongitudeDegrees>2.5854630768299102783203125</LongitudeDegrees>
            </Position>
            <AltitudeMeters>588.5999755859375</AltitudeMeters>
            <DistanceMeters>NAN</DistanceMeters>
          </Trackpoint>
          <Trackpoint>
            <Time>2021-04-03T07:43:35.000Z</Time>
            <Position>
              <LatitudeDegrees>42.30460323393344879150390625</LatitudeDegrees>
              <LongitudeDegrees>2.58541806600987911224365234375</LongitudeDegrees>
            </Position>
            <AltitudeMeters>589</AltitudeMeters>
            <DistanceMeters>NAN</DistanceMeters>
          </Trackpoint>
          <Trackpoint>
            <Time>2021-04-03T07:43:38.000Z</Time>
            <Position>
              <LatitudeDegrees>42.30460164137184619903564453125</LatitudeDegrees>
              <LongitudeDegrees>2.58539459668099880218505859375</LongitudeDegrees>
            </Position>
            <AltitudeMeters>589.20001220703125</AltitudeMeters>
            <DistanceMeters>NAN</DistanceMeters>
          </Trackpoint>
          <Trackpoint>
            <Time>2021-04-03T07:43:41.000Z</Time>
            <Position>
              <LatitudeDegrees>42.304599545896053314208984375</LatitudeDegrees>
              <LongitudeDegrees>2.5853700377047061920166015625</LongitudeDegrees>
            </Position>
            <AltitudeMeters>589.5999755859375</AltitudeMeters>
            <DistanceMeters>NAN</DistanceMeters>
          </Trackpoint>
          <Trackpoint>
            <Time>2021-04-03T07:43:42.000Z</Time>
            <Position>
              <LatitudeDegrees>42.304597534239292144775390625</LatitudeDegrees>
              <LongitudeDegrees>2.58536475710570812225341796875</LongitudeDegrees>
            </Position>
            <AltitudeMeters>589.5999755859375</AltitudeMeters>
            <DistanceMeters>NAN</DistanceMeters>
          </Trackpoint>
          <Trackpoint>
            <Time>2021-04-03T07:43:45.000Z</Time>
            <Position>
              <LatitudeDegrees>42.30459527112543582916259765625</LatitudeDegrees>
              <LongitudeDegrees>2.585338689386844635009765625</LongitudeDegrees>
            </Position>
            <AltitudeMeters>589.79998779296875</AltitudeMeters>
            <DistanceMeters>NAN</DistanceMeters>
          </Trackpoint>
          <Trackpoint>
            <Time>2021-04-03T07:43:49.000Z</Time>
            <Position>
              <LatitudeDegrees>42.30458236299455165863037109375</LatitudeDegrees>
              <LongitudeDegrees>2.58532066829502582550048828125</LongitudeDegrees>
            </Position>
            <AltitudeMeters>590</AltitudeMeters>
            <DistanceMeters>NAN</DistanceMeters>
          </Trackpoint>
          <Trackpoint>
            <Time>2021-04-03T07:43:50.000Z</Time>
            <Position>
              <LatitudeDegrees>42.304580770432949066162109375</LatitudeDegrees>
              <LongitudeDegrees>2.58531622588634490966796875</LongitudeDegrees>
            </Position>
            <AltitudeMeters>590</AltitudeMeters>
            <DistanceMeters>NAN</DistanceMeters>
          </Trackpoint>
          <Trackpoint>
            <Time>2021-04-03T07:43:56.000Z</Time>
            <Position>
              <LatitudeDegrees>42.3045742325484752655029296875</LatitudeDegrees>
              <LongitudeDegrees>2.585286386311054229736328125</LongitudeDegrees>
            </Position>
            <AltitudeMeters>590.5999755859375</AltitudeMeters>
            <DistanceMeters>NAN</DistanceMeters>
          </Trackpoint>
          <Trackpoint>
            <Time>2021-04-03T07:43:57.000Z</Time>
            <Position>
              <LatitudeDegrees>42.30457146652042865753173828125</LatitudeDegrees>
              <LongitudeDegrees>2.5852832011878490447998046875</LongitudeDegrees>
            </Position>
            <AltitudeMeters>590.79998779296875</AltitudeMeters>
            <DistanceMeters>NAN</DistanceMeters>
          </Trackpoint>
          <Trackpoint>
            <Time>2021-04-03T07:44:02.000Z</Time>
            <Position>
              <LatitudeDegrees>42.30457431636750698089599609375</LatitudeDegrees>
              <LongitudeDegrees>2.5852711312472820281982421875</LongitudeDegrees>
            </Position>
            <AltitudeMeters>591.20001220703125</AltitudeMeters>
            <DistanceMeters>NAN</DistanceMeters>
          </Trackpoint>
          <Trackpoint>
            <Time>2021-04-03T07:44:04.000Z</Time>
            <Position>
              <LatitudeDegrees>42.304563336074352264404296875</LatitudeDegrees>
              <LongitudeDegrees>2.5852614082396030426025390625</LongitudeDegrees>
            </Position>
            <AltitudeMeters>591.20001220703125</AltitudeMeters>
            <DistanceMeters>NAN</DistanceMeters>
          </Trackpoint>
          <Trackpoint>
            <Time>2021-04-03T07:44:10.000Z</Time>
            <Position>
              <LatitudeDegrees>42.30456911958754062652587890625</LatitudeDegrees>
              <LongitudeDegrees>2.58524623699486255645751953125</LongitudeDegrees>
            </Position>
            <AltitudeMeters>591.5999755859375</AltitudeMeters>
            <DistanceMeters>NAN</DistanceMeters>
          </Trackpoint>
          <Trackpoint>
            <Time>2021-04-03T07:44:15.000Z</Time>
            <Position>
              <LatitudeDegrees>42.30456911958754062652587890625</LatitudeDegrees>
              <LongitudeDegrees>2.58524623699486255645751953125</LongitudeDegrees>
            </Position>
            <AltitudeMeters>591.4000244140625</AltitudeMeters>
            <DistanceMeters>NAN</DistanceMeters>
          </Trackpoint>
          <Trackpoint>
            <Time>2021-04-03T07:44:18.000Z</Time>
            <Position>
              <LatitudeDegrees>42.30456911958754062652587890625</LatitudeDegrees>
              <LongitudeDegrees>2.58524623699486255645751953125</LongitudeDegrees>
            </Position>
            <AltitudeMeters>591.4000244140625</AltitudeMeters>
            <DistanceMeters>NAN</DistanceMeters>
          </Trackpoint>
          <Trackpoint>
            <Time>2021-04-03T07:44:22.000Z</Time>
            <Position>
              <LatitudeDegrees>42.30456895194947719573974609375</LatitudeDegrees>
              <LongitudeDegrees>2.58524623699486255645751953125</LongitudeDegrees>
            </Position>
            <AltitudeMeters>591.20001220703125</AltitudeMeters>
            <DistanceMeters>NAN</DistanceMeters>
          </Trackpoint>
          <Trackpoint>
            <Time>2021-04-03T07:44:42.000Z</Time>
            <Position>
              <LatitudeDegrees>42.30454749427735805511474609375</LatitudeDegrees>
              <LongitudeDegrees>2.5852426327764987945556640625</LongitudeDegrees>
            </Position>
            <AltitudeMeters>592.4000244140625</AltitudeMeters>
            <DistanceMeters>NAN</DistanceMeters>
          </Trackpoint>
          <Trackpoint>
            <Time>2021-04-03T07:44:43.000Z</Time>
            <Position>
              <LatitudeDegrees>42.3045470751821994781494140625</LatitudeDegrees>
              <LongitudeDegrees>2.58524221368134021759033203125</LongitudeDegrees>
            </Position>
            <AltitudeMeters>592.79998779296875</AltitudeMeters>
            <DistanceMeters>NAN</DistanceMeters>
          </Trackpoint>
          <Trackpoint>
            <Time>2021-04-03T07:44:50.000Z</Time>
            <Position>
              <LatitudeDegrees>42.30453592725098133087158203125</LatitudeDegrees>
              <LongitudeDegrees>2.58522880263626575469970703125</LongitudeDegrees>
            </Position>
            <AltitudeMeters>593.79998779296875</AltitudeMeters>
            <DistanceMeters>NAN</DistanceMeters>
          </Trackpoint>
          <Trackpoint>
            <Time>2021-04-03T07:44:56.000Z</Time>
            <Position>
              <LatitudeDegrees>42.30447473935782909393310546875</LatitudeDegrees>
              <LongitudeDegrees>2.58525311015546321868896484375</LongitudeDegrees>
            </Position>
            <AltitudeMeters>594.79998779296875</AltitudeMeters>
            <DistanceMeters>NAN</DistanceMeters>
          </Trackpoint>
          <Trackpoint>
            <Time>2021-04-03T07:44:57.000Z</Time>
            <Position>
              <LatitudeDegrees>42.30446317233145236968994140625</LatitudeDegrees>
              <LongitudeDegrees>2.58525076322257518768310546875</LongitudeDegrees>
            </Position>
            <AltitudeMeters>595</AltitudeMeters>
            <DistanceMeters>NAN</DistanceMeters>
          </Trackpoint>
          <Trackpoint>
            <Time>2021-04-03T07:45:07.000Z</Time>
            <Position>
              <LatitudeDegrees>42.30437901802361011505126953125</LatitudeDegrees>
              <LongitudeDegrees>2.58519292809069156646728515625</LongitudeDegrees>
            </Position>
            <AltitudeMeters>595.79998779296875</AltitudeMeters>
            <DistanceMeters>NAN</DistanceMeters>
          </Trackpoint>
          <Trackpoint>
            <Time>2021-04-03T07:45:08.000Z</Time>
            <Position>
              <LatitudeDegrees>42.30437700636684894561767578125</LatitudeDegrees>
              <LongitudeDegrees>2.5851853005588054656982421875</LongitudeDegrees>
            </Position>
            <AltitudeMeters>595.79998779296875</AltitudeMeters>
            <DistanceMeters>NAN</DistanceMeters>
          </Trackpoint>
          <Trackpoint>
            <Time>2021-04-03T07:45:13.000Z</Time>
            <Position>
              <LatitudeDegrees>42.30437390506267547607421875</LatitudeDegrees>
              <LongitudeDegrees>2.58514456450939178466796875</LongitudeDegrees>
            </Position>
            <AltitudeMeters>596.20001220703125</AltitudeMeters>
            <DistanceMeters>NAN</DistanceMeters>
          </Trackpoint>
          <Trackpoint>
            <Time>2021-04-03T07:45:14.000Z</Time>
            <Position>
              <LatitudeDegrees>42.30437256395816802978515625</LatitudeDegrees>
              <LongitudeDegrees>2.58513559587299823760986328125</LongitudeDegrees>
            </Position>
            <AltitudeMeters>596.20001220703125</AltitudeMeters>
            <DistanceMeters>NAN</DistanceMeters>
          </Trackpoint>
          <Trackpoint>
            <Time>2021-04-03T07:45:16.000Z</Time>
            <Position>
              <LatitudeDegrees>42.3043703846633434295654296875</LatitudeDegrees>
              <LongitudeDegrees>2.585115730762481689453125</LongitudeDegrees>
            </Position>
            <AltitudeMeters>596.4000244140625</AltitudeMeters>
            <DistanceMeters>NAN</DistanceMeters>
          </Trackpoint>
          <Trackpoint>
            <Time>2021-04-03T07:45:17.000Z</Time>
            <Position>
              <LatitudeDegrees>42.30437130667269229888916015625</LatitudeDegrees>
              <LongitudeDegrees>2.58510701358318328857421875</LongitudeDegrees>
            </Position>
            <AltitudeMeters>596.5999755859375</AltitudeMeters>
            <DistanceMeters>NAN</DistanceMeters>
          </Trackpoint>
          <Trackpoint>
            <Time>2021-04-03T07:45:20.000Z</Time>
            <Position>
              <LatitudeDegrees>42.30436946265399456024169921875</LatitudeDegrees>
              <LongitudeDegrees>2.5850870646536350250244140625</LongitudeDegrees>
            </Position>
            <AltitudeMeters>597</AltitudeMeters>
            <DistanceMeters>NAN</DistanceMeters>
          </Trackpoint>
          <Trackpoint>
            <Time>2021-04-03T07:45:25.000Z</Time>
            <Position>
              <LatitudeDegrees>42.30436745099723339080810546875</LatitudeDegrees>
              <LongitudeDegrees>2.5850421376526355743408203125</LongitudeDegrees>
            </Position>
            <AltitudeMeters>597.4000244140625</AltitudeMeters>
            <DistanceMeters>NAN</DistanceMeters>
          </Trackpoint>
          <Trackpoint>
            <Time>2021-04-03T07:45:28.000Z</Time>
            <Position>
              <LatitudeDegrees>42.30436451733112335205078125</LatitudeDegrees>
              <LongitudeDegrees>2.5850231945514678955078125</LongitudeDegrees>
            </Position>
            <AltitudeMeters>597.5999755859375</AltitudeMeters>
            <DistanceMeters>NAN</DistanceMeters>
          </Trackpoint>
          <Trackpoint>
            <Time>2021-04-03T07:45:32.000Z</Time>
            <Position>
              <LatitudeDegrees>42.3043563030660152435302734375</LatitudeDegrees>
              <LongitudeDegrees>2.58500634692609310150146484375</LongitudeDegrees>
            </Position>
            <AltitudeMeters>597.5999755859375</AltitudeMeters>
            <DistanceMeters>NAN</DistanceMeters>
          </Trackpoint>
          <Trackpoint>
            <Time>2021-04-03T07:45:35.000Z</Time>
            <Position>
              <LatitudeDegrees>42.30435244739055633544921875</LatitudeDegrees>
              <LongitudeDegrees>2.58498690091073513031005859375</LongitudeDegrees>
            </Position>
            <AltitudeMeters>597.79998779296875</AltitudeMeters>
            <DistanceMeters>NAN</DistanceMeters>
          </Trackpoint>
          <Trackpoint>
            <Time>2021-04-03T07:45:36.000Z</Time>
            <Position>
              <LatitudeDegrees>42.3043532855808734893798828125</LatitudeDegrees>
              <LongitudeDegrees>2.5849801115691661834716796875</LongitudeDegrees>
            </Position>
            <AltitudeMeters>598</AltitudeMeters>
            <DistanceMeters>NAN</DistanceMeters>
          </Trackpoint>
          <Trackpoint>
            <Time>2021-04-03T07:45:39.000Z</Time>
            <Position>
              <LatitudeDegrees>42.30435303412377834320068359375</LatitudeDegrees>
              <LongitudeDegrees>2.5849596597254276275634765625</LongitudeDegrees>
            </Position>
            <AltitudeMeters>598.4000244140625</AltitudeMeters>
            <DistanceMeters>NAN</DistanceMeters>
          </Trackpoint>
          <Trackpoint>
            <Time>2021-04-03T07:45:41.000Z</Time>
            <Position>
              <LatitudeDegrees>42.3043479211628437042236328125</LatitudeDegrees>
              <LongitudeDegrees>2.58494230918586254119873046875</LongitudeDegrees>
            </Position>
            <AltitudeMeters>598.5999755859375</AltitudeMeters>
            <DistanceMeters>NAN</DistanceMeters>
          </Trackpoint>
          <Trackpoint>
            <Time>2021-04-03T07:45:42.000Z</Time>
            <Position>
              <LatitudeDegrees>42.3043442331254482269287109375</LatitudeDegrees>
              <LongitudeDegrees>2.58493401110172271728515625</LongitudeDegrees>
            </Position>
            <AltitudeMeters>598.5999755859375</AltitudeMeters>
            <DistanceMeters>NAN</DistanceMeters>
          </Trackpoint>
          <Trackpoint>
            <Time>2021-04-03T07:45:45.000Z</Time>
            <Position>
              <LatitudeDegrees>42.304339371621608734130859375</LatitudeDegrees>
              <LongitudeDegrees>2.584908194839954376220703125</LongitudeDegrees>
            </Position>
            <AltitudeMeters>599</AltitudeMeters>
            <DistanceMeters>NAN</DistanceMeters>
          </Trackpoint>
          <Trackpoint>
            <Time>2021-04-03T07:45:53.000Z</Time>
            <Position>
              <LatitudeDegrees>42.3043197579681873321533203125</LatitudeDegrees>
              <LongitudeDegrees>2.58486318401992321014404296875</LongitudeDegrees>
            </Position>
            <AltitudeMeters>599.5999755859375</AltitudeMeters>
            <DistanceMeters>NAN</DistanceMeters>
          </Trackpoint>
          <Trackpoint>
            <Time>2021-04-03T07:45:59.000Z</Time>
            <Position>
              <LatitudeDegrees>42.30431715957820415496826171875</LatitudeDegrees>
              <LongitudeDegrees>2.584827728569507598876953125</LongitudeDegrees>
            </Position>
            <AltitudeMeters>599.79998779296875</AltitudeMeters>
            <DistanceMeters>NAN</DistanceMeters>
          </Trackpoint>
          <Trackpoint>
            <Time>2021-04-03T07:46:01.000Z</Time>
            <Position>
              <LatitudeDegrees>42.3043147288262844085693359375</LatitudeDegrees>
              <LongitudeDegrees>2.58481406606733798980712890625</LongitudeDegrees>
            </Position>
            <AltitudeMeters>600</AltitudeMeters>
            <DistanceMeters>NAN</DistanceMeters>
          </Trackpoint>
          <Trackpoint>
            <Time>2021-04-03T07:46:02.000Z</Time>
            <Position>
              <LatitudeDegrees>42.30431221425533294677734375</LatitudeDegrees>
              <LongitudeDegrees>2.5848104618489742279052734375</LongitudeDegrees>
            </Position>
            <AltitudeMeters>600</AltitudeMeters>
            <DistanceMeters>NAN</DistanceMeters>
          </Trackpoint>
          <Trackpoint>
            <Time>2021-04-03T07:46:03.000Z</Time>
            <Position>
              <LatitudeDegrees>42.30431296862661838531494140625</LatitudeDegrees>
              <LongitudeDegrees>2.58480719290673732757568359375</LongitudeDegrees>
            </Position>
            <AltitudeMeters>600.20001220703125</AltitudeMeters>
            <DistanceMeters>NAN</DistanceMeters>
          </Trackpoint>
          <Trackpoint>
            <Time>2021-04-03T07:46:08.000Z</Time>
            <Position>
              <LatitudeDegrees>42.30430307798087596893310546875</LatitudeDegrees>
              <LongitudeDegrees>2.58480258285999298095703125</LongitudeDegrees>
            </Position>
            <AltitudeMeters>600.20001220703125</AltitudeMeters>
            <DistanceMeters>NAN</DistanceMeters>
          </Trackpoint>
          <Trackpoint>
            <Time>2021-04-03T07:46:11.000Z</Time>
            <Position>
              <LatitudeDegrees>42.3042922653257846832275390625</LatitudeDegrees>
              <LongitudeDegrees>2.584794871509075164794921875</LongitudeDegrees>
            </Position>
            <AltitudeMeters>600.20001220703125</AltitudeMeters>
            <DistanceMeters>NAN</DistanceMeters>
          </Trackpoint>
          <Trackpoint>
            <Time>2021-04-03T07:46:13.000Z</Time>
            <Position>
              <LatitudeDegrees>42.30429234914481639862060546875</LatitudeDegrees>
              <LongitudeDegrees>2.584788836538791656494140625</LongitudeDegrees>
            </Position>
            <AltitudeMeters>600.20001220703125</AltitudeMeters>
            <DistanceMeters>NAN</DistanceMeters>
          </Trackpoint>
          <Trackpoint>
            <Time>2021-04-03T07:46:15.000Z</Time>
            <Position>
              <LatitudeDegrees>42.3042912594974040985107421875</LatitudeDegrees>
              <LongitudeDegrees>2.58477886207401752471923828125</LongitudeDegrees>
            </Position>
            <AltitudeMeters>600.20001220703125</AltitudeMeters>
            <DistanceMeters>NAN</DistanceMeters>
          </Trackpoint>
          <Trackpoint>
            <Time>2021-04-03T07:46:17.000Z</Time>
            <Position>
              <LatitudeDegrees>42.3042899183928966522216796875</LatitudeDegrees>
              <LongitudeDegrees>2.58476461283862590789794921875</LongitudeDegrees>
            </Position>
            <AltitudeMeters>600.4000244140625</AltitudeMeters>
            <DistanceMeters>NAN</DistanceMeters>
          </Trackpoint>
          <Trackpoint>
            <Time>2021-04-03T07:46:18.000Z</Time>
            <Position>
              <LatitudeDegrees>42.30428882874548435211181640625</LatitudeDegrees>
              <LongitudeDegrees>2.58475773967802524566650390625</LongitudeDegrees>
            </Position>
            <AltitudeMeters>600.4000244140625</AltitudeMeters>
            <DistanceMeters>NAN</DistanceMeters>
          </Trackpoint>
          <Trackpoint>
            <Time>2021-04-03T07:46:24.000Z</Time>
            <Position>
              <LatitudeDegrees>42.3042691312730312347412109375</LatitudeDegrees>
              <LongitudeDegrees>2.58469604887068271636962890625</LongitudeDegrees>
            </Position>
            <AltitudeMeters>600.79998779296875</AltitudeMeters>
            <DistanceMeters>NAN</DistanceMeters>
          </Trackpoint>
          <Trackpoint>
            <Time>2021-04-03T07:46:26.000Z</Time>
            <Position>
              <LatitudeDegrees>42.30426586233079433441162109375</LatitudeDegrees>
              <LongitudeDegrees>2.5846723280847072601318359375</LongitudeDegrees>
            </Position>
            <AltitudeMeters>600.79998779296875</AltitudeMeters>
            <DistanceMeters>NAN</DistanceMeters>
          </Trackpoint>
          <Trackpoint>
            <Time>2021-04-03T07:46:28.000Z</Time>
            <Position>
              <LatitudeDegrees>42.30426653288304805755615234375</LatitudeDegrees>
              <LongitudeDegrees>2.58465212769806385040283203125</LongitudeDegrees>
            </Position>
            <AltitudeMeters>600.79998779296875</AltitudeMeters>
            <DistanceMeters>NAN</DistanceMeters>
          </Trackpoint>
          <Trackpoint>
            <Time>2021-04-03T07:46:30.000Z</Time>
            <Position>
              <LatitudeDegrees>42.30426938273012638092041015625</LatitudeDegrees>
              <LongitudeDegrees>2.5846334360539913177490234375</LongitudeDegrees>
            </Position>
            <AltitudeMeters>601</AltitudeMeters>
            <DistanceMeters>NAN</DistanceMeters>
          </Trackpoint>
          <Trackpoint>
            <Time>2021-04-03T07:46:31.000Z</Time>
            <Position>
              <LatitudeDegrees>42.30426904745399951934814453125</LatitudeDegrees>
              <LongitudeDegrees>2.58462597616016864776611328125</LongitudeDegrees>
            </Position>
            <AltitudeMeters>601</AltitudeMeters>
            <DistanceMeters>NAN</DistanceMeters>
          </Trackpoint>
          <Trackpoint>
            <Time>2021-04-03T07:46:32.000Z</Time>
            <Position>
              <LatitudeDegrees>42.304268963634967803955078125</LatitudeDegrees>
              <LongitudeDegrees>2.58461692370474338531494140625</LongitudeDegrees>
            </Position>
            <AltitudeMeters>601</AltitudeMeters>
            <DistanceMeters>NAN</DistanceMeters>
          </Trackpoint>
          <Trackpoint>
            <Time>2021-04-03T07:46:33.000Z</Time>
            <Position>
              <LatitudeDegrees>42.30426837690174579620361328125</LatitudeDegrees>
              <LongitudeDegrees>2.58460837416350841522216796875</LongitudeDegrees>
            </Position>
            <AltitudeMeters>601.20001220703125</AltitudeMeters>
            <DistanceMeters>NAN</DistanceMeters>
          </Trackpoint>
          <Trackpoint>
            <Time>2021-04-03T07:46:34.000Z</Time>
            <Position>
              <LatitudeDegrees>42.304268963634967803955078125</LatitudeDegrees>
              <LongitudeDegrees>2.58460007607936859130859375</LongitudeDegrees>
            </Position>
            <AltitudeMeters>601.20001220703125</AltitudeMeters>
            <DistanceMeters>NAN</DistanceMeters>
          </Trackpoint>
          <Trackpoint>
            <Time>2021-04-03T07:46:36.000Z</Time>
            <Position>
              <LatitudeDegrees>42.30426703579723834991455078125</LatitudeDegrees>
              <LongitudeDegrees>2.58458666503429412841796875</LongitudeDegrees>
            </Position>
            <AltitudeMeters>601.5999755859375</AltitudeMeters>
            <DistanceMeters>NAN</DistanceMeters>
          </Trackpoint>
          <Trackpoint>
            <Time>2021-04-03T07:46:38.000Z</Time>
            <Position>
              <LatitudeDegrees>42.30426435358822345733642578125</LatitudeDegrees>
              <LongitudeDegrees>2.5845699012279510498046875</LongitudeDegrees>
            </Position>
            <AltitudeMeters>601.5999755859375</AltitudeMeters>
            <DistanceMeters>NAN</DistanceMeters>
          </Trackpoint>
          <Trackpoint>
            <Time>2021-04-03T07:46:40.000Z</Time>
            <Position>
              <LatitudeDegrees>42.3042590729892253875732421875</LatitudeDegrees>
              <LongitudeDegrees>2.58455690927803516387939453125</LongitudeDegrees>
            </Position>
            <AltitudeMeters>601.5999755859375</AltitudeMeters>
            <DistanceMeters>NAN</DistanceMeters>
          </Trackpoint>
          <Trackpoint>
            <Time>2021-04-03T07:46:41.000Z</Time>
            <Position>
              <LatitudeDegrees>42.304257564246654510498046875</LatitudeDegrees>
              <LongitudeDegrees>2.584548778831958770751953125</LongitudeDegrees>
            </Position>
            <AltitudeMeters>601.79998779296875</AltitudeMeters>
            <DistanceMeters>NAN</DistanceMeters>
          </Trackpoint>
          <Trackpoint>
            <Time>2021-04-03T07:46:44.000Z</Time>
            <Position>
              <LatitudeDegrees>42.30425228364765644073486328125</LatitudeDegrees>
              <LongitudeDegrees>2.58452975191175937652587890625</LongitudeDegrees>
            </Position>
            <AltitudeMeters>602</AltitudeMeters>
            <DistanceMeters>NAN</DistanceMeters>
          </Trackpoint>
          <Trackpoint>
            <Time>2021-04-03T07:46:46.000Z</Time>
            <Position>
              <LatitudeDegrees>42.3042439855635166168212890625</LatitudeDegrees>
              <LongitudeDegrees>2.584522627294063568115234375</LongitudeDegrees>
            </Position>
            <AltitudeMeters>602.20001220703125</AltitudeMeters>
            <DistanceMeters>NAN</DistanceMeters>
          </Trackpoint>
          <Trackpoint>
            <Time>2021-04-03T07:46:47.000Z</Time>
            <Position>
              <LatitudeDegrees>42.30424189008772373199462890625</LatitudeDegrees>
              <LongitudeDegrees>2.5845154188573360443115234375</LongitudeDegrees>
            </Position>
            <AltitudeMeters>602.20001220703125</AltitudeMeters>
            <DistanceMeters>NAN</DistanceMeters>
          </Trackpoint>
          <Trackpoint>
            <Time>2021-04-03T07:46:52.000Z</Time>
            <Position>
              <LatitudeDegrees>42.304229736328125</LatitudeDegrees>
              <LongitudeDegrees>2.58449614048004150390625</LongitudeDegrees>
            </Position>
            <AltitudeMeters>602.4000244140625</AltitudeMeters>
            <DistanceMeters>NAN</DistanceMeters>
          </Trackpoint>
          <Trackpoint>
            <Time>2021-04-03T07:46:57.000Z</Time>
            <Position>
              <LatitudeDegrees>42.30422646738588809967041015625</LatitudeDegrees>
              <LongitudeDegrees>2.5844661332666873931884765625</LongitudeDegrees>
            </Position>
            <AltitudeMeters>602.5999755859375</AltitudeMeters>
            <DistanceMeters>NAN</DistanceMeters>
          </Trackpoint>
          <Trackpoint>
            <Time>2021-04-03T07:47:01.000Z</Time>
            <Position>
              <LatitudeDegrees>42.3042248748242855072021484375</LatitudeDegrees>
              <LongitudeDegrees>2.584438137710094451904296875</LongitudeDegrees>
            </Position>
            <AltitudeMeters>603</AltitudeMeters>
            <DistanceMeters>NAN</DistanceMeters>
          </Trackpoint>
          <Trackpoint>
            <Time>2021-04-03T07:47:03.000Z</Time>
            <Position>
              <LatitudeDegrees>42.30422747321426868438720703125</LatitudeDegrees>
              <LongitudeDegrees>2.58442028425633907318115234375</LongitudeDegrees>
            </Position>
            <AltitudeMeters>603.4000244140625</AltitudeMeters>
            <DistanceMeters>NAN</DistanceMeters>
          </Trackpoint>
          <Trackpoint>
            <Time>2021-04-03T07:47:05.000Z</Time>
            <Position>
              <LatitudeDegrees>42.30422898195683956146240234375</LatitudeDegrees>
              <LongitudeDegrees>2.5844101421535015106201171875</LongitudeDegrees>
            </Position>
            <AltitudeMeters>603.5999755859375</AltitudeMeters>
            <DistanceMeters>NAN</DistanceMeters>
          </Trackpoint>
          <Trackpoint>
            <Time>2021-04-03T07:47:13.000Z</Time>
            <Position>
              <LatitudeDegrees>42.304208613932132720947265625</LatitudeDegrees>
              <LongitudeDegrees>2.584365718066692352294921875</LongitudeDegrees>
            </Position>
            <AltitudeMeters>604</AltitudeMeters>
            <DistanceMeters>NAN</DistanceMeters>
          </Trackpoint>
          <Trackpoint>
            <Time>2021-04-03T07:47:18.000Z</Time>
            <Position>
              <LatitudeDegrees>42.304201237857341766357421875</LatitudeDegrees>
              <LongitudeDegrees>2.58432674221694469451904296875</LongitudeDegrees>
            </Position>
            <AltitudeMeters>604.4000244140625</AltitudeMeters>
            <DistanceMeters>NAN</DistanceMeters>
          </Trackpoint>
          <Trackpoint>
            <Time>2021-04-03T07:47:21.000Z</Time>
            <Position>
              <LatitudeDegrees>42.30419729836285114288330078125</LatitudeDegrees>
              <LongitudeDegrees>2.584295980632305145263671875</LongitudeDegrees>
            </Position>
            <AltitudeMeters>604.4000244140625</AltitudeMeters>
            <DistanceMeters>NAN</DistanceMeters>
          </Trackpoint>
          <Trackpoint>
            <Time>2021-04-03T07:47:29.000Z</Time>
            <Position>
              <LatitudeDegrees>42.304194867610931396484375</LatitudeDegrees>
              <LongitudeDegrees>2.58423420600593090057373046875</LongitudeDegrees>
            </Position>
            <AltitudeMeters>604.79998779296875</AltitudeMeters>
            <DistanceMeters>NAN</DistanceMeters>
          </Trackpoint>
          <Trackpoint>
            <Time>2021-04-03T07:47:36.000Z</Time>
            <Position>
              <LatitudeDegrees>42.30417944490909576416015625</LatitudeDegrees>
              <LongitudeDegrees>2.58419296704232692718505859375</LongitudeDegrees>
            </Position>
            <AltitudeMeters>605</AltitudeMeters>
            <DistanceMeters>NAN</DistanceMeters>
          </Trackpoint>
          <Trackpoint>
            <Time>2021-04-03T07:47:37.000Z</Time>
            <Position>
              <LatitudeDegrees>42.30417617596685886383056640625</LatitudeDegrees>
              <LongitudeDegrees>2.58418626151978969573974609375</LongitudeDegrees>
            </Position>
            <AltitudeMeters>605</AltitudeMeters>
            <DistanceMeters>NAN</DistanceMeters>
          </Trackpoint>
          <Trackpoint>
            <Time>2021-04-03T07:47:45.000Z</Time>
            <Position>
              <LatitudeDegrees>42.30416326783597469329833984375</LatitudeDegrees>
              <LongitudeDegrees>2.58412591181695461273193359375</LongitudeDegrees>
            </Position>
            <AltitudeMeters>604.5999755859375</AltitudeMeters>
            <DistanceMeters>NAN</DistanceMeters>
          </Trackpoint>
          <Trackpoint>
            <Time>2021-04-03T07:47:47.000Z</Time>
            <Position>
              <LatitudeDegrees>42.30416142381727695465087890625</LatitudeDegrees>
              <LongitudeDegrees>2.5841100700199604034423828125</LongitudeDegrees>
            </Position>
            <AltitudeMeters>605.20001220703125</AltitudeMeters>
            <DistanceMeters>NAN</DistanceMeters>
          </Trackpoint>
          <Trackpoint>
            <Time>2021-04-03T07:47:49.000Z</Time>
            <Position>
              <LatitudeDegrees>42.30415656231343746185302734375</LatitudeDegrees>
              <LongitudeDegrees>2.58409724570810794830322265625</LongitudeDegrees>
            </Position>
            <AltitudeMeters>605.4000244140625</AltitudeMeters>
            <DistanceMeters>NAN</DistanceMeters>
          </Trackpoint>
          <Trackpoint>
            <Time>2021-04-03T07:47:50.000Z</Time>
            <Position>
              <LatitudeDegrees>42.3041537962853908538818359375</LatitudeDegrees>
              <LongitudeDegrees>2.58409121073782444000244140625</LongitudeDegrees>
            </Position>
            <AltitudeMeters>605.5999755859375</AltitudeMeters>
            <DistanceMeters>NAN</DistanceMeters>
          </Trackpoint>
          <Trackpoint>
            <Time>2021-04-03T07:47:56.000Z</Time>
            <Position>
              <LatitudeDegrees>42.30415270663797855377197265625</LatitudeDegrees>
              <LongitudeDegrees>2.5840490497648715972900390625</LongitudeDegrees>
            </Position>
            <AltitudeMeters>605.79998779296875</AltitudeMeters>
            <DistanceMeters>NAN</DistanceMeters>
          </Trackpoint>
          <Trackpoint>
            <Time>2021-04-03T07:48:01.000Z</Time>
            <Position>
              <LatitudeDegrees>42.3041407205164432525634765625</LatitudeDegrees>
              <LongitudeDegrees>2.58400856517255306243896484375</LongitudeDegrees>
            </Position>
            <AltitudeMeters>606.4000244140625</AltitudeMeters>
            <DistanceMeters>NAN</DistanceMeters>
          </Trackpoint>
          <Trackpoint>
            <Time>2021-04-03T07:48:02.000Z</Time>
            <Position>
              <LatitudeDegrees>42.30413778685033321380615234375</LatitudeDegrees>
              <LongitudeDegrees>2.584003619849681854248046875</LongitudeDegrees>
            </Position>
            <AltitudeMeters>606.5999755859375</AltitudeMeters>
            <DistanceMeters>NAN</DistanceMeters>
          </Trackpoint>
          <Trackpoint>
            <Time>2021-04-03T07:48:03.000Z</Time>
            <Position>
              <LatitudeDegrees>42.304135523736476898193359375</LatitudeDegrees>
              <LongitudeDegrees>2.583998925983905792236328125</LongitudeDegrees>
            </Position>
            <AltitudeMeters>606.5999755859375</AltitudeMeters>
            <DistanceMeters>NAN</DistanceMeters>
          </Trackpoint>
          <Trackpoint>
            <Time>2021-04-03T07:48:09.000Z</Time>
            <Position>
              <LatitudeDegrees>42.304134182631969451904296875</LatitudeDegrees>
              <LongitudeDegrees>2.5839659012854099273681640625</LongitudeDegrees>
            </Position>
            <AltitudeMeters>606.79998779296875</AltitudeMeters>
            <DistanceMeters>NAN</DistanceMeters>
          </Trackpoint>
          <Trackpoint>
            <Time>2021-04-03T07:48:13.000Z</Time>
            <Position>
              <LatitudeDegrees>42.30413409881293773651123046875</LatitudeDegrees>
              <LongitudeDegrees>2.5839420966804027557373046875</LongitudeDegrees>
            </Position>
            <AltitudeMeters>607.5999755859375</AltitudeMeters>
            <DistanceMeters>NAN</DistanceMeters>
          </Trackpoint>
          <Trackpoint>
            <Time>2021-04-03T07:48:14.000Z</Time>
            <Position>
              <LatitudeDegrees>42.30413518846035003662109375</LatitudeDegrees>
              <LongitudeDegrees>2.58393446914851665496826171875</LongitudeDegrees>
            </Position>
            <AltitudeMeters>607.5999755859375</AltitudeMeters>
            <DistanceMeters>NAN</DistanceMeters>
          </Trackpoint>
          <Trackpoint>
            <Time>2021-04-03T07:48:22.000Z</Time>
            <Position>
              <LatitudeDegrees>42.30412974022328853607177734375</LatitudeDegrees>
              <LongitudeDegrees>2.5838961638510227203369140625</LongitudeDegrees>
            </Position>
            <AltitudeMeters>608.5999755859375</AltitudeMeters>
            <DistanceMeters>NAN</DistanceMeters>
          </Trackpoint>
          <Trackpoint>
            <Time>2021-04-03T07:48:31.000Z</Time>
            <Position>
              <LatitudeDegrees>42.30413611046969890594482421875</LatitudeDegrees>
              <LongitudeDegrees>2.583844698965549468994140625</LongitudeDegrees>
            </Position>
            <AltitudeMeters>609.5999755859375</AltitudeMeters>
            <DistanceMeters>NAN</DistanceMeters>
          </Trackpoint>
          <Trackpoint>
            <Time>2021-04-03T07:48:32.000Z</Time>
            <Position>
              <LatitudeDegrees>42.30412957258522510528564453125</LatitudeDegrees>
              <LongitudeDegrees>2.583838663995265960693359375</LongitudeDegrees>
            </Position>
            <AltitudeMeters>609.79998779296875</AltitudeMeters>
            <DistanceMeters>NAN</DistanceMeters>
          </Trackpoint>
          <Trackpoint>
            <Time>2021-04-03T07:48:37.000Z</Time>
            <Position>
              <LatitudeDegrees>42.30412588454782962799072265625</LatitudeDegrees>
              <LongitudeDegrees>2.58380186744034290313720703125</LongitudeDegrees>
            </Position>
            <AltitudeMeters>610.4000244140625</AltitudeMeters>
            <DistanceMeters>NAN</DistanceMeters>
          </Trackpoint>
          <Trackpoint>
            <Time>2021-04-03T07:48:39.000Z</Time>
            <Position>
              <LatitudeDegrees>42.30412085540592670440673828125</LatitudeDegrees>
              <LongitudeDegrees>2.5837932340800762176513671875</LongitudeDegrees>
            </Position>
            <AltitudeMeters>610.5999755859375</AltitudeMeters>
            <DistanceMeters>NAN</DistanceMeters>
          </Trackpoint>
          <Trackpoint>
            <Time>2021-04-03T07:48:40.000Z</Time>
            <Position>
              <LatitudeDegrees>42.30411750264465808868408203125</LatitudeDegrees>
              <LongitudeDegrees>2.5837888754904270172119140625</LongitudeDegrees>
            </Position>
            <AltitudeMeters>610.79998779296875</AltitudeMeters>
            <DistanceMeters>NAN</DistanceMeters>
          </Trackpoint>
          <Trackpoint>
            <Time>2021-04-03T07:48:42.000Z</Time>
            <Position>
              <LatitudeDegrees>42.30411297641694545745849609375</LatitudeDegrees>
              <LongitudeDegrees>2.5837764702737331390380859375</LongitudeDegrees>
            </Position>
            <AltitudeMeters>611</AltitudeMeters>
            <DistanceMeters>NAN</DistanceMeters>
          </Trackpoint>
          <Trackpoint>
            <Time>2021-04-03T07:48:48.000Z</Time>
            <Position>
              <LatitudeDegrees>42.30410845018923282623291015625</LatitudeDegrees>
              <LongitudeDegrees>2.583743445575237274169921875</LongitudeDegrees>
            </Position>
            <AltitudeMeters>611.4000244140625</AltitudeMeters>
            <DistanceMeters>NAN</DistanceMeters>
          </Trackpoint>
          <Trackpoint>
            <Time>2021-04-03T07:48:50.000Z</Time>
            <Position>
              <LatitudeDegrees>42.30410828255116939544677734375</LatitudeDegrees>
              <LongitudeDegrees>2.583731710910797119140625</LongitudeDegrees>
            </Position>
            <AltitudeMeters>611.5999755859375</AltitudeMeters>
            <DistanceMeters>NAN</DistanceMeters>
          </Trackpoint>
          <Trackpoint>
            <Time>2021-04-03T07:48:54.000Z</Time>
            <Position>
              <LatitudeDegrees>42.30410560034215450286865234375</LatitudeDegrees>
              <LongitudeDegrees>2.58370782248675823211669921875</LongitudeDegrees>
            </Position>
            <AltitudeMeters>612</AltitudeMeters>
            <DistanceMeters>NAN</DistanceMeters>
          </Trackpoint>
          <Trackpoint>
            <Time>2021-04-03T07:49:00.000Z</Time>
            <Position>
              <LatitudeDegrees>42.304106019437313079833984375</LatitudeDegrees>
              <LongitudeDegrees>2.58367999456822872161865234375</LongitudeDegrees>
            </Position>
            <AltitudeMeters>612.5999755859375</AltitudeMeters>
            <DistanceMeters>NAN</DistanceMeters>
          </Trackpoint>
          <Trackpoint>
            <Time>2021-04-03T07:49:07.000Z</Time>
            <Position>
              <LatitudeDegrees>42.30409822426736354827880859375</LatitudeDegrees>
              <LongitudeDegrees>2.58363758213818073272705078125</LongitudeDegrees>
            </Position>
            <AltitudeMeters>613</AltitudeMeters>
            <DistanceMeters>NAN</DistanceMeters>
          </Trackpoint>
          <Trackpoint>
            <Time>2021-04-03T07:49:12.000Z</Time>
            <Position>
              <LatitudeDegrees>42.304083220660686492919921875</LatitudeDegrees>
              <LongitudeDegrees>2.58360455743968486785888671875</LongitudeDegrees>
            </Position>
            <AltitudeMeters>613.5999755859375</AltitudeMeters>
            <DistanceMeters>NAN</DistanceMeters>
          </Trackpoint>
          <Trackpoint>
            <Time>2021-04-03T07:49:16.000Z</Time>
            <Position>
              <LatitudeDegrees>42.3040793649852275848388671875</LatitudeDegrees>
              <LongitudeDegrees>2.5835920684039592742919921875</LongitudeDegrees>
            </Position>
            <AltitudeMeters>613.79998779296875</AltitudeMeters>
            <DistanceMeters>NAN</DistanceMeters>
          </Trackpoint>
          <Trackpoint>
            <Time>2021-04-03T07:49:21.000Z</Time>
            <Position>
              <LatitudeDegrees>42.304077856242656707763671875</LatitudeDegrees>
              <LongitudeDegrees>2.58356851525604724884033203125</LongitudeDegrees>
            </Position>
            <AltitudeMeters>614.20001220703125</AltitudeMeters>
            <DistanceMeters>NAN</DistanceMeters>
          </Trackpoint>
          <Trackpoint>
            <Time>2021-04-03T07:49:25.000Z</Time>
            <Position>
              <LatitudeDegrees>42.304074503481388092041015625</LatitudeDegrees>
              <LongitudeDegrees>2.58354269899427890777587890625</LongitudeDegrees>
            </Position>
            <AltitudeMeters>615</AltitudeMeters>
            <DistanceMeters>NAN</DistanceMeters>
          </Trackpoint>
          <Trackpoint>
            <Time>2021-04-03T07:49:29.000Z</Time>
            <Position>
              <LatitudeDegrees>42.304063104093074798583984375</LatitudeDegrees>
              <LongitudeDegrees>2.58352543227374553680419921875</LongitudeDegrees>
            </Position>
            <AltitudeMeters>615.20001220703125</AltitudeMeters>
            <DistanceMeters>NAN</DistanceMeters>
          </Trackpoint>
          <Trackpoint>
            <Time>2021-04-03T07:49:34.000Z</Time>
            <Position>
              <LatitudeDegrees>42.30405178852379322052001953125</LatitudeDegrees>
              <LongitudeDegrees>2.5835077464580535888671875</LongitudeDegrees>
            </Position>
            <AltitudeMeters>615.4000244140625</AltitudeMeters>
            <DistanceMeters>NAN</DistanceMeters>
          </Trackpoint>
          <Trackpoint>
            <Time>2021-04-03T07:49:41.000Z</Time>
            <Position>
              <LatitudeDegrees>42.3040352761745452880859375</LatitudeDegrees>
              <LongitudeDegrees>2.58346642367541790008544921875</LongitudeDegrees>
            </Position>
            <AltitudeMeters>616.20001220703125</AltitudeMeters>
            <DistanceMeters>NAN</DistanceMeters>
          </Trackpoint>
          <Trackpoint>
            <Time>2021-04-03T07:49:43.000Z</Time>
            <Position>
              <LatitudeDegrees>42.30403033085167407989501953125</LatitudeDegrees>
              <LongitudeDegrees>2.58345083333551883697509765625</LongitudeDegrees>
            </Position>
            <AltitudeMeters>616.4000244140625</AltitudeMeters>
            <DistanceMeters>NAN</DistanceMeters>
          </Trackpoint>
          <Trackpoint>
            <Time>2021-04-03T07:49:51.000Z</Time>
            <Position>
              <LatitudeDegrees>42.30400635860860347747802734375</LatitudeDegrees>
              <LongitudeDegrees>2.58339978754520416259765625</LongitudeDegrees>
            </Position>
            <AltitudeMeters>617.4000244140625</AltitudeMeters>
            <DistanceMeters>NAN</DistanceMeters>
          </Trackpoint>
          <Trackpoint>
            <Time>2021-04-03T07:49:52.000Z</Time>
            <Position>
              <LatitudeDegrees>42.30400434695184230804443359375</LatitudeDegrees>
              <LongitudeDegrees>2.5833905674517154693603515625</LongitudeDegrees>
            </Position>
            <AltitudeMeters>617.5999755859375</AltitudeMeters>
            <DistanceMeters>NAN</DistanceMeters>
          </Trackpoint>
          <Trackpoint>
            <Time>2021-04-03T07:49:53.000Z</Time>
            <Position>
              <LatitudeDegrees>42.3040045984089374542236328125</LatitudeDegrees>
              <LongitudeDegrees>2.58337958715856075286865234375</LongitudeDegrees>
            </Position>
            <AltitudeMeters>617.79998779296875</AltitudeMeters>
            <DistanceMeters>NAN</DistanceMeters>
          </Trackpoint>
          <Trackpoint>
            <Time>2021-04-03T07:49:56.000Z</Time>
            <Position>
              <LatitudeDegrees>42.30400518514215946197509765625</LatitudeDegrees>
              <LongitudeDegrees>2.583345808088779449462890625</LongitudeDegrees>
            </Position>
            <AltitudeMeters>618</AltitudeMeters>
            <DistanceMeters>NAN</DistanceMeters>
          </Trackpoint>
          <Trackpoint>
            <Time>2021-04-03T07:49:57.000Z</Time>
            <Position>
              <LatitudeDegrees>42.30400510132312774658203125</LatitudeDegrees>
              <LongitudeDegrees>2.58333767764270305633544921875</LongitudeDegrees>
            </Position>
            <AltitudeMeters>618</AltitudeMeters>
            <DistanceMeters>NAN</DistanceMeters>
          </Trackpoint>
          <Trackpoint>
            <Time>2021-04-03T07:50:03.000Z</Time>
            <Position>
              <LatitudeDegrees>42.30398121289908885955810546875</LatitudeDegrees>
              <LongitudeDegrees>2.583288140594959259033203125</LongitudeDegrees>
            </Position>
            <AltitudeMeters>618.4000244140625</AltitudeMeters>
            <DistanceMeters>NAN</DistanceMeters>
          </Trackpoint>
          <Trackpoint>
            <Time>2021-04-03T07:50:04.000Z</Time>
            <Position>
              <LatitudeDegrees>42.30397735722362995147705078125</LatitudeDegrees>
              <LongitudeDegrees>2.5832785852253437042236328125</LongitudeDegrees>
            </Position>
            <AltitudeMeters>618.4000244140625</AltitudeMeters>
            <DistanceMeters>NAN</DistanceMeters>
          </Trackpoint>
          <Trackpoint>
            <Time>2021-04-03T07:50:07.000Z</Time>
            <Position>
              <LatitudeDegrees>42.3039569891989231109619140625</LatitudeDegrees>
              <LongitudeDegrees>2.58325519971549510955810546875</LongitudeDegrees>
            </Position>
            <AltitudeMeters>618.79998779296875</AltitudeMeters>
            <DistanceMeters>NAN</DistanceMeters>
          </Trackpoint>
          <Trackpoint>
            <Time>2021-04-03T07:50:10.000Z</Time>
            <Position>
              <LatitudeDegrees>42.30393997393548488616943359375</LatitudeDegrees>
              <LongitudeDegrees>2.58323307149112224578857421875</LongitudeDegrees>
            </Position>
            <AltitudeMeters>618.79998779296875</AltitudeMeters>
            <DistanceMeters>NAN</DistanceMeters>
          </Trackpoint>
          <Trackpoint>
            <Time>2021-04-03T07:50:12.000Z</Time>
            <Position>
              <LatitudeDegrees>42.30393561534583568572998046875</LatitudeDegrees>
              <LongitudeDegrees>2.58322100155055522918701171875</LongitudeDegrees>
            </Position>
            <AltitudeMeters>618.79998779296875</AltitudeMeters>
            <DistanceMeters>NAN</DistanceMeters>
          </Trackpoint>
          <Trackpoint>
            <Time>2021-04-03T07:50:13.000Z</Time>
            <Position>
              <LatitudeDegrees>42.30393025092780590057373046875</LatitudeDegrees>
              <LongitudeDegrees>2.58321194909512996673583984375</LongitudeDegrees>
            </Position>
            <AltitudeMeters>618.79998779296875</AltitudeMeters>
            <DistanceMeters>NAN</DistanceMeters>
          </Trackpoint>
          <Trackpoint>
            <Time>2021-04-03T07:50:15.000Z</Time>
            <Position>
              <LatitudeDegrees>42.30392186902463436126708984375</LatitudeDegrees>
              <LongitudeDegrees>2.58320130407810211181640625</LongitudeDegrees>
            </Position>
            <AltitudeMeters>618.79998779296875</AltitudeMeters>
            <DistanceMeters>NAN</DistanceMeters>
          </Trackpoint>
          <Trackpoint>
            <Time>2021-04-03T07:50:18.000Z</Time>
            <Position>
              <LatitudeDegrees>42.3039177618920803070068359375</LatitudeDegrees>
              <LongitudeDegrees>2.583172135055065155029296875</LongitudeDegrees>
            </Position>
            <AltitudeMeters>618.79998779296875</AltitudeMeters>
            <DistanceMeters>NAN</DistanceMeters>
          </Trackpoint>
          <Trackpoint>
            <Time>2021-04-03T07:50:19.000Z</Time>
            <Position>
              <LatitudeDegrees>42.30391298420727252960205078125</LatitudeDegrees>
              <LongitudeDegrees>2.58316509425640106201171875</LongitudeDegrees>
            </Position>
            <AltitudeMeters>618.79998779296875</AltitudeMeters>
            <DistanceMeters>NAN</DistanceMeters>
          </Trackpoint>
          <Trackpoint>
            <Time>2021-04-03T07:50:22.000Z</Time>
            <Position>
              <LatitudeDegrees>42.303899824619293212890625</LatitudeDegrees>
              <LongitudeDegrees>2.583152018487453460693359375</LongitudeDegrees>
            </Position>
            <AltitudeMeters>619</AltitudeMeters>
            <DistanceMeters>NAN</DistanceMeters>
          </Trackpoint>
          <Trackpoint>
            <Time>2021-04-03T07:50:26.000Z</Time>
            <Position>
              <LatitudeDegrees>42.3038775287568569183349609375</LatitudeDegrees>
              <LongitudeDegrees>2.58314254693686962127685546875</LongitudeDegrees>
            </Position>
            <AltitudeMeters>619.4000244140625</AltitudeMeters>
            <DistanceMeters>NAN</DistanceMeters>
          </Trackpoint>
          <Trackpoint>
            <Time>2021-04-03T07:50:27.000Z</Time>
            <Position>
              <LatitudeDegrees>42.30387509800493717193603515625</LatitudeDegrees>
              <LongitudeDegrees>2.5831357575953006744384765625</LongitudeDegrees>
            </Position>
            <AltitudeMeters>619.5999755859375</AltitudeMeters>
            <DistanceMeters>NAN</DistanceMeters>
          </Trackpoint>
          <Trackpoint>
            <Time>2021-04-03T07:50:29.000Z</Time>
            <Position>
              <LatitudeDegrees>42.3038704879581928253173828125</LatitudeDegrees>
              <LongitudeDegrees>2.58313299156725406646728515625</LongitudeDegrees>
            </Position>
            <AltitudeMeters>619.79998779296875</AltitudeMeters>
            <DistanceMeters>NAN</DistanceMeters>
          </Trackpoint>
          <Trackpoint>
            <Time>2021-04-03T07:50:31.000Z</Time>
            <Position>
              <LatitudeDegrees>42.3038607649505138397216796875</LatitudeDegrees>
              <LongitudeDegrees>2.58312611840665340423583984375</LongitudeDegrees>
            </Position>
            <AltitudeMeters>620</AltitudeMeters>
            <DistanceMeters>NAN</DistanceMeters>
          </Trackpoint>
          <Trackpoint>
            <Time>2021-04-03T07:50:33.000Z</Time>
            <Position>
              <LatitudeDegrees>42.3038480244576930999755859375</LatitudeDegrees>
              <LongitudeDegrees>2.583116479218006134033203125</LongitudeDegrees>
            </Position>
            <AltitudeMeters>620.20001220703125</AltitudeMeters>
            <DistanceMeters>NAN</DistanceMeters>
          </Trackpoint>
          <Trackpoint>
            <Time>2021-04-03T07:50:34.000Z</Time>
            <Position>
              <LatitudeDegrees>42.30384794063866138458251953125</LatitudeDegrees>
              <LongitudeDegrees>2.58311589248478412628173828125</LongitudeDegrees>
            </Position>
            <AltitudeMeters>620.4000244140625</AltitudeMeters>
            <DistanceMeters>NAN</DistanceMeters>
          </Trackpoint>
          <Trackpoint>
            <Time>2021-04-03T07:50:36.000Z</Time>
            <Position>
              <LatitudeDegrees>42.30384374968707561492919921875</LatitudeDegrees>
              <LongitudeDegrees>2.583119161427021026611328125</LongitudeDegrees>
            </Position>
            <AltitudeMeters>620.5999755859375</AltitudeMeters>
            <DistanceMeters>NAN</DistanceMeters>
          </Trackpoint>
          <Trackpoint>
            <Time>2021-04-03T07:50:37.000Z</Time>
            <Position>
              <LatitudeDegrees>42.3038406483829021453857421875</LatitudeDegrees>
              <LongitudeDegrees>2.583121173083782196044921875</LongitudeDegrees>
            </Position>
            <AltitudeMeters>620.79998779296875</AltitudeMeters>
            <DistanceMeters>NAN</DistanceMeters>
          </Trackpoint>
          <Trackpoint>
            <Time>2021-04-03T07:50:39.000Z</Time>
            <Position>
              <LatitudeDegrees>42.30383469723165035247802734375</LatitudeDegrees>
              <LongitudeDegrees>2.5831287167966365814208984375</LongitudeDegrees>
            </Position>
            <AltitudeMeters>621</AltitudeMeters>
            <DistanceMeters>NAN</DistanceMeters>
          </Trackpoint>
          <Trackpoint>
            <Time>2021-04-03T07:50:40.000Z</Time>
            <Position>
              <LatitudeDegrees>42.30382832698523998260498046875</LatitudeDegrees>
              <LongitudeDegrees>2.583131901919841766357421875</LongitudeDegrees>
            </Position>
            <AltitudeMeters>621</AltitudeMeters>
            <DistanceMeters>NAN</DistanceMeters>
          </Trackpoint>
          <Trackpoint>
            <Time>2021-04-03T07:50:43.000Z</Time>
            <Position>
              <LatitudeDegrees>42.30382329784333705902099609375</LatitudeDegrees>
              <LongitudeDegrees>2.5831173174083232879638671875</LongitudeDegrees>
            </Position>
            <AltitudeMeters>621.5999755859375</AltitudeMeters>
            <DistanceMeters>NAN</DistanceMeters>
          </Trackpoint>
          <Trackpoint>
            <Time>2021-04-03T07:50:45.000Z</Time>
            <Position>
              <LatitudeDegrees>42.30382547713816165924072265625</LatitudeDegrees>
              <LongitudeDegrees>2.58310818113386631011962890625</LongitudeDegrees>
            </Position>
            <AltitudeMeters>621.79998779296875</AltitudeMeters>
            <DistanceMeters>NAN</DistanceMeters>
          </Trackpoint>
          <Trackpoint>
            <Time>2021-04-03T07:50:52.000Z</Time>
            <Position>
              <LatitudeDegrees>42.30382262729108333587646484375</LatitudeDegrees>
              <LongitudeDegrees>2.58308119140565395355224609375</LongitudeDegrees>
            </Position>
            <AltitudeMeters>622.4000244140625</AltitudeMeters>
            <DistanceMeters>NAN</DistanceMeters>
          </Trackpoint>
          <Trackpoint>
            <Time>2021-04-03T07:51:00.000Z</Time>
            <Position>
              <LatitudeDegrees>42.30382262729108333587646484375</LatitudeDegrees>
              <LongitudeDegrees>2.58308119140565395355224609375</LongitudeDegrees>
            </Position>
            <AltitudeMeters>622.20001220703125</AltitudeMeters>
            <DistanceMeters>NAN</DistanceMeters>
          </Trackpoint>
          <Trackpoint>
            <Time>2021-04-03T07:51:07.000Z</Time>
            <Position>
              <LatitudeDegrees>42.30381458066403865814208984375</LatitudeDegrees>
              <LongitudeDegrees>2.58307549171149730682373046875</LongitudeDegrees>
            </Position>
            <AltitudeMeters>622.4000244140625</AltitudeMeters>
            <DistanceMeters>NAN</DistanceMeters>
          </Trackpoint>
          <Trackpoint>
            <Time>2021-04-03T07:51:08.000Z</Time>
            <Position>
              <LatitudeDegrees>42.30381424538791179656982421875</LatitudeDegrees>
              <LongitudeDegrees>2.5830744020640850067138671875</LongitudeDegrees>
            </Position>
            <AltitudeMeters>622.5999755859375</AltitudeMeters>
            <DistanceMeters>NAN</DistanceMeters>
          </Trackpoint>
          <Trackpoint>
            <Time>2021-04-03T07:51:10.000Z</Time>
            <Position>
              <LatitudeDegrees>42.3038131557404994964599609375</LatitudeDegrees>
              <LongitudeDegrees>2.58307012729346752166748046875</LongitudeDegrees>
            </Position>
            <AltitudeMeters>623</AltitudeMeters>
            <DistanceMeters>NAN</DistanceMeters>
          </Trackpoint>
          <Trackpoint>
            <Time>2021-04-03T07:51:15.000Z</Time>
            <Position>
              <LatitudeDegrees>42.3038114793598651885986328125</LatitudeDegrees>
              <LongitudeDegrees>2.58306048810482025146484375</LongitudeDegrees>
            </Position>
            <AltitudeMeters>624</AltitudeMeters>
            <DistanceMeters>NAN</DistanceMeters>
          </Trackpoint>
          <Trackpoint>
            <Time>2021-04-03T07:51:21.000Z</Time>
            <Position>
              <LatitudeDegrees>42.303807623684406280517578125</LatitudeDegrees>
              <LongitudeDegrees>2.58305537514388561248779296875</LongitudeDegrees>
            </Position>
            <AltitudeMeters>624.79998779296875</AltitudeMeters>
            <DistanceMeters>NAN</DistanceMeters>
          </Trackpoint>
          <Trackpoint>
            <Time>2021-04-03T07:51:25.000Z</Time>
            <Position>
              <LatitudeDegrees>42.30379865504801273345947265625</LatitudeDegrees>
              <LongitudeDegrees>2.58303232491016387939453125</LongitudeDegrees>
            </Position>
            <AltitudeMeters>625</AltitudeMeters>
            <DistanceMeters>NAN</DistanceMeters>
          </Trackpoint>
          <Trackpoint>
            <Time>2021-04-03T07:51:27.000Z</Time>
            <Position>
              <LatitudeDegrees>42.3037938773632049560546875</LatitudeDegrees>
              <LongitudeDegrees>2.58301631547510623931884765625</LongitudeDegrees>
            </Position>
            <AltitudeMeters>625.20001220703125</AltitudeMeters>
            <DistanceMeters>NAN</DistanceMeters>
          </Trackpoint>
          <Trackpoint>
            <Time>2021-04-03T07:51:33.000Z</Time>
            <Position>
              <LatitudeDegrees>42.30379312299191951751708984375</LatitudeDegrees>
              <LongitudeDegrees>2.58297256194055080413818359375</LongitudeDegrees>
            </Position>
            <AltitudeMeters>625.4000244140625</AltitudeMeters>
            <DistanceMeters>NAN</DistanceMeters>
          </Trackpoint>
          <Trackpoint>
            <Time>2021-04-03T07:51:38.000Z</Time>
            <Position>
              <LatitudeDegrees>42.30379312299191951751708984375</LatitudeDegrees>
              <LongitudeDegrees>2.58293014951050281524658203125</LongitudeDegrees>
            </Position>
            <AltitudeMeters>626</AltitudeMeters>
            <DistanceMeters>NAN</DistanceMeters>
          </Trackpoint>
          <Trackpoint>
            <Time>2021-04-03T07:51:40.000Z</Time>
            <Position>
              <LatitudeDegrees>42.30379312299191951751708984375</LatitudeDegrees>
              <LongitudeDegrees>2.58292243815958499908447265625</LongitudeDegrees>
            </Position>
            <AltitudeMeters>626.20001220703125</AltitudeMeters>
            <DistanceMeters>NAN</DistanceMeters>
          </Trackpoint>
          <Trackpoint>
            <Time>2021-04-03T07:51:50.000Z</Time>
            <Position>
              <LatitudeDegrees>42.3037927038967609405517578125</LatitudeDegrees>
              <LongitudeDegrees>2.582856975495815277099609375</LongitudeDegrees>
            </Position>
            <AltitudeMeters>626.79998779296875</AltitudeMeters>
            <DistanceMeters>NAN</DistanceMeters>
          </Trackpoint>
          <Trackpoint>
            <Time>2021-04-03T07:51:58.000Z</Time>
            <Position>
              <LatitudeDegrees>42.3037927038967609405517578125</LatitudeDegrees>
              <LongitudeDegrees>2.5827910937368869781494140625</LongitudeDegrees>
            </Position>
            <AltitudeMeters>627.20001220703125</AltitudeMeters>
            <DistanceMeters>NAN</DistanceMeters>
          </Trackpoint>
          <Trackpoint>
            <Time>2021-04-03T07:52:01.000Z</Time>
            <Position>
              <LatitudeDegrees>42.3037938773632049560546875</LatitudeDegrees>
              <LongitudeDegrees>2.58277357555925846099853515625</LongitudeDegrees>
            </Position>
            <AltitudeMeters>627.79998779296875</AltitudeMeters>
            <DistanceMeters>NAN</DistanceMeters>
          </Trackpoint>
          <Trackpoint>
            <Time>2021-04-03T07:52:04.000Z</Time>
            <Position>
              <LatitudeDegrees>42.3037940450012683868408203125</LatitudeDegrees>
              <LongitudeDegrees>2.58274532854557037353515625</LongitudeDegrees>
            </Position>
            <AltitudeMeters>628.20001220703125</AltitudeMeters>
            <DistanceMeters>NAN</DistanceMeters>
          </Trackpoint>
          <Trackpoint>
            <Time>2021-04-03T07:52:16.000Z</Time>
            <Position>
              <LatitudeDegrees>42.30379044078290462493896484375</LatitudeDegrees>
              <LongitudeDegrees>2.5825791992247104644775390625</LongitudeDegrees>
            </Position>
            <AltitudeMeters>629</AltitudeMeters>
            <DistanceMeters>NAN</DistanceMeters>
          </Trackpoint>
          <Trackpoint>
            <Time>2021-04-03T07:52:19.000Z</Time>
            <Position>
              <LatitudeDegrees>42.30378675274550914764404296875</LatitudeDegrees>
              <LongitudeDegrees>2.58250258862972259521484375</LongitudeDegrees>
            </Position>
            <AltitudeMeters>629.20001220703125</AltitudeMeters>
            <DistanceMeters>NAN</DistanceMeters>
          </Trackpoint>
          <Trackpoint>
            <Time>2021-04-03T07:52:21.000Z</Time>
            <Position>
              <LatitudeDegrees>42.3037849925458431243896484375</LatitudeDegrees>
              <LongitudeDegrees>2.5824554823338985443115234375</LongitudeDegrees>
            </Position>
            <AltitudeMeters>629.5999755859375</AltitudeMeters>
            <DistanceMeters>NAN</DistanceMeters>
          </Trackpoint>
          <Trackpoint>
            <Time>2021-04-03T07:52:24.000Z</Time>
            <Position>
              <LatitudeDegrees>42.30378339998424053192138671875</LatitudeDegrees>
              <LongitudeDegrees>2.5824348628520965576171875</LongitudeDegrees>
            </Position>
            <AltitudeMeters>629.79998779296875</AltitudeMeters>
            <DistanceMeters>NAN</DistanceMeters>
          </Trackpoint>
          <Trackpoint>
            <Time>2021-04-03T07:52:26.000Z</Time>
            <Position>
              <LatitudeDegrees>42.30378448963165283203125</LatitudeDegrees>
              <LongitudeDegrees>2.5824202783405780792236328125</LongitudeDegrees>
            </Position>
            <AltitudeMeters>630</AltitudeMeters>
            <DistanceMeters>NAN</DistanceMeters>
          </Trackpoint>
          <Trackpoint>
            <Time>2021-04-03T07:52:30.000Z</Time>
            <Position>
              <LatitudeDegrees>42.30378541164100170135498046875</LatitudeDegrees>
              <LongitudeDegrees>2.58239119313657283782958984375</LongitudeDegrees>
            </Position>
            <AltitudeMeters>630.20001220703125</AltitudeMeters>
            <DistanceMeters>NAN</DistanceMeters>
          </Trackpoint>
          <Trackpoint>
            <Time>2021-04-03T07:52:31.000Z</Time>
            <Position>
              <LatitudeDegrees>42.30378524400293827056884765625</LatitudeDegrees>
              <LongitudeDegrees>2.5823833979666233062744140625</LongitudeDegrees>
            </Position>
            <AltitudeMeters>630.20001220703125</AltitudeMeters>
            <DistanceMeters>NAN</DistanceMeters>
          </Trackpoint>
          <Trackpoint>
            <Time>2021-04-03T07:52:32.000Z</Time>
            <Position>
              <LatitudeDegrees>42.30378339998424053192138671875</LatitudeDegrees>
              <LongitudeDegrees>2.58237359113991260528564453125</LongitudeDegrees>
            </Position>
            <AltitudeMeters>630.4000244140625</AltitudeMeters>
            <DistanceMeters>NAN</DistanceMeters>
          </Trackpoint>
          <Trackpoint>
            <Time>2021-04-03T07:52:34.000Z</Time>
            <Position>
              <LatitudeDegrees>42.3037819750607013702392578125</LatitudeDegrees>
              <LongitudeDegrees>2.582353055477142333984375</LongitudeDegrees>
            </Position>
            <AltitudeMeters>630.5999755859375</AltitudeMeters>
            <DistanceMeters>NAN</DistanceMeters>
          </Trackpoint>
          <Trackpoint>
            <Time>2021-04-03T07:52:41.000Z</Time>
            <Position>
              <LatitudeDegrees>42.30378088541328907012939453125</LatitudeDegrees>
              <LongitudeDegrees>2.582299411296844482421875</LongitudeDegrees>
            </Position>
            <AltitudeMeters>631.20001220703125</AltitudeMeters>
            <DistanceMeters>NAN</DistanceMeters>
          </Trackpoint>
          <Trackpoint>
            <Time>2021-04-03T07:52:45.000Z</Time>
            <Position>
              <LatitudeDegrees>42.3037890158593654632568359375</LatitudeDegrees>
              <LongitudeDegrees>2.582262866199016571044921875</LongitudeDegrees>
            </Position>
            <AltitudeMeters>631.4000244140625</AltitudeMeters>
            <DistanceMeters>NAN</DistanceMeters>
          </Trackpoint>
          <Trackpoint>
            <Time>2021-04-03T07:52:46.000Z</Time>
            <Position>
              <LatitudeDegrees>42.30379077605903148651123046875</LatitudeDegrees>
              <LongitudeDegrees>2.5822549872100353240966796875</LongitudeDegrees>
            </Position>
            <AltitudeMeters>631.4000244140625</AltitudeMeters>
            <DistanceMeters>NAN</DistanceMeters>
          </Trackpoint>
          <Trackpoint>
            <Time>2021-04-03T07:52:52.000Z</Time>
            <Position>
              <LatitudeDegrees>42.30379588901996612548828125</LatitudeDegrees>
              <LongitudeDegrees>2.58219287730753421783447265625</LongitudeDegrees>
            </Position>
            <AltitudeMeters>631.79998779296875</AltitudeMeters>
            <DistanceMeters>NAN</DistanceMeters>
          </Trackpoint>
          <Trackpoint>
            <Time>2021-04-03T07:52:53.000Z</Time>
            <Position>
              <LatitudeDegrees>42.30379530228674411773681640625</LatitudeDegrees>
              <LongitudeDegrees>2.5821839086711406707763671875</LongitudeDegrees>
            </Position>
            <AltitudeMeters>631.79998779296875</AltitudeMeters>
            <DistanceMeters>NAN</DistanceMeters>
          </Trackpoint>
          <Trackpoint>
            <Time>2021-04-03T07:52:58.000Z</Time>
            <Position>
              <LatitudeDegrees>42.30379815213382244110107421875</LatitudeDegrees>
              <LongitudeDegrees>2.58214359171688556671142578125</LongitudeDegrees>
            </Position>
            <AltitudeMeters>632</AltitudeMeters>
            <DistanceMeters>NAN</DistanceMeters>
          </Trackpoint>
          <Trackpoint>
            <Time>2021-04-03T07:52:59.000Z</Time>
            <Position>
              <LatitudeDegrees>42.30379848740994930267333984375</LatitudeDegrees>
              <LongitudeDegrees>2.58213646709918975830078125</LongitudeDegrees>
            </Position>
            <AltitudeMeters>632.20001220703125</AltitudeMeters>
            <DistanceMeters>NAN</DistanceMeters>
          </Trackpoint>
          <Trackpoint>
            <Time>2021-04-03T07:53:00.000Z</Time>
            <Position>
              <LatitudeDegrees>42.30380033142864704132080078125</LatitudeDegrees>
              <LongitudeDegrees>2.5821299292147159576416015625</LongitudeDegrees>
            </Position>
            <AltitudeMeters>632.20001220703125</AltitudeMeters>
            <DistanceMeters>NAN</DistanceMeters>
          </Trackpoint>
          <Trackpoint>
            <Time>2021-04-03T07:53:02.000Z</Time>
            <Position>
              <LatitudeDegrees>42.3038020916283130645751953125</LatitudeDegrees>
              <LongitudeDegrees>2.58211358450353145599365234375</LongitudeDegrees>
            </Position>
            <AltitudeMeters>632.4000244140625</AltitudeMeters>
            <DistanceMeters>NAN</DistanceMeters>
          </Trackpoint>
          <Trackpoint>
            <Time>2021-04-03T07:53:04.000Z</Time>
            <Position>
              <LatitudeDegrees>42.3038064502179622650146484375</LatitudeDegrees>
              <LongitudeDegrees>2.5820917077362537384033203125</LongitudeDegrees>
            </Position>
            <AltitudeMeters>632.5999755859375</AltitudeMeters>
            <DistanceMeters>NAN</DistanceMeters>
          </Trackpoint>
          <Trackpoint>
            <Time>2021-04-03T07:53:08.000Z</Time>
            <Position>
              <LatitudeDegrees>42.3038126528263092041015625</LatitudeDegrees>
              <LongitudeDegrees>2.58206195197999477386474609375</LongitudeDegrees>
            </Position>
            <AltitudeMeters>633.20001220703125</AltitudeMeters>
            <DistanceMeters>NAN</DistanceMeters>
          </Trackpoint>
          <Trackpoint>
            <Time>2021-04-03T07:53:11.000Z</Time>
            <Position>
              <LatitudeDegrees>42.30382564477622509002685546875</LatitudeDegrees>
              <LongitudeDegrees>2.58204552344977855682373046875</LongitudeDegrees>
            </Position>
            <AltitudeMeters>633.4000244140625</AltitudeMeters>
            <DistanceMeters>NAN</DistanceMeters>
          </Trackpoint>
          <Trackpoint>
            <Time>2021-04-03T07:53:12.000Z</Time>
            <Position>
              <LatitudeDegrees>42.30382715351879596710205078125</LatitudeDegrees>
              <LongitudeDegrees>2.58203999139368534088134765625</LongitudeDegrees>
            </Position>
            <AltitudeMeters>633.4000244140625</AltitudeMeters>
            <DistanceMeters>NAN</DistanceMeters>
          </Trackpoint>
          <Trackpoint>
            <Time>2021-04-03T07:53:14.000Z</Time>
            <Position>
              <LatitudeDegrees>42.3038322664797306060791015625</LatitudeDegrees>
              <LongitudeDegrees>2.5820300169289112091064453125</LongitudeDegrees>
            </Position>
            <AltitudeMeters>633.4000244140625</AltitudeMeters>
            <DistanceMeters>NAN</DistanceMeters>
          </Trackpoint>
          <Trackpoint>
            <Time>2021-04-03T07:53:15.000Z</Time>
            <Position>
              <LatitudeDegrees>42.30383335612714290618896484375</LatitudeDegrees>
              <LongitudeDegrees>2.58202557452023029327392578125</LongitudeDegrees>
            </Position>
            <AltitudeMeters>633.4000244140625</AltitudeMeters>
            <DistanceMeters>NAN</DistanceMeters>
          </Trackpoint>
          <Trackpoint>
            <Time>2021-04-03T07:53:17.000Z</Time>
            <Position>
              <LatitudeDegrees>42.30383235029876232147216796875</LatitudeDegrees>
              <LongitudeDegrees>2.5820110738277435302734375</LongitudeDegrees>
            </Position>
            <AltitudeMeters>633.5999755859375</AltitudeMeters>
            <DistanceMeters>NAN</DistanceMeters>
          </Trackpoint>
          <Trackpoint>
            <Time>2021-04-03T07:53:18.000Z</Time>
            <Position>
              <LatitudeDegrees>42.3038352839648723602294921875</LatitudeDegrees>
              <LongitudeDegrees>2.58200545795261859893798828125</LongitudeDegrees>
            </Position>
            <AltitudeMeters>633.5999755859375</AltitudeMeters>
            <DistanceMeters>NAN</DistanceMeters>
          </Trackpoint>
          <Trackpoint>
            <Time>2021-04-03T07:53:19.000Z</Time>
            <Position>
              <LatitudeDegrees>42.3038366250693798065185546875</LatitudeDegrees>
              <LongitudeDegrees>2.58200126700103282928466796875</LongitudeDegrees>
            </Position>
            <AltitudeMeters>633.79998779296875</AltitudeMeters>
            <DistanceMeters>NAN</DistanceMeters>
          </Trackpoint>
          <Trackpoint>
            <Time>2021-04-03T07:53:20.000Z</Time>
            <Position>
              <LatitudeDegrees>42.303841151297092437744140625</LatitudeDegrees>
              <LongitudeDegrees>2.58200545795261859893798828125</LongitudeDegrees>
            </Position>
            <AltitudeMeters>634</AltitudeMeters>
            <DistanceMeters>NAN</DistanceMeters>
          </Trackpoint>
          <Trackpoint>
            <Time>2021-04-03T07:53:21.000Z</Time>
            <Position>
              <LatitudeDegrees>42.3038440011441707611083984375</LatitudeDegrees>
              <LongitudeDegrees>2.58200428448617458343505859375</LongitudeDegrees>
            </Position>
            <AltitudeMeters>634.20001220703125</AltitudeMeters>
            <DistanceMeters>NAN</DistanceMeters>
          </Trackpoint>
          <Trackpoint>
            <Time>2021-04-03T07:53:22.000Z</Time>
            <Position>
              <LatitudeDegrees>42.303845845162868499755859375</LatitudeDegrees>
              <LongitudeDegrees>2.58200042881071567535400390625</LongitudeDegrees>
            </Position>
            <AltitudeMeters>634.4000244140625</AltitudeMeters>
            <DistanceMeters>NAN</DistanceMeters>
          </Trackpoint>
          <Trackpoint>
            <Time>2021-04-03T07:53:23.000Z</Time>
            <Position>
              <LatitudeDegrees>42.30384961701929569244384765625</LatitudeDegrees>
              <LongitudeDegrees>2.58199623785912990570068359375</LongitudeDegrees>
            </Position>
            <AltitudeMeters>634.4000244140625</AltitudeMeters>
            <DistanceMeters>NAN</DistanceMeters>
          </Trackpoint>
          <Trackpoint>
            <Time>2021-04-03T07:53:25.000Z</Time>
            <Position>
              <LatitudeDegrees>42.3038466833531856536865234375</LatitudeDegrees>
              <LongitudeDegrees>2.58198701776564121246337890625</LongitudeDegrees>
            </Position>
            <AltitudeMeters>634.5999755859375</AltitudeMeters>
            <DistanceMeters>NAN</DistanceMeters>
          </Trackpoint>
          <Trackpoint>
            <Time>2021-04-03T07:53:27.000Z</Time>
            <Position>
              <LatitudeDegrees>42.30385431088507175445556640625</LatitudeDegrees>
              <LongitudeDegrees>2.5819780491292476654052734375</LongitudeDegrees>
            </Position>
            <AltitudeMeters>634.5999755859375</AltitudeMeters>
            <DistanceMeters>NAN</DistanceMeters>
          </Trackpoint>
          <Trackpoint>
            <Time>2021-04-03T07:53:31.000Z</Time>
            <Position>
              <LatitudeDegrees>42.30385816656053066253662109375</LatitudeDegrees>
              <LongitudeDegrees>2.5819602794945240020751953125</LongitudeDegrees>
            </Position>
            <AltitudeMeters>634.79998779296875</AltitudeMeters>
            <DistanceMeters>NAN</DistanceMeters>
          </Trackpoint>
          <Trackpoint>
            <Time>2021-04-03T07:53:37.000Z</Time>
            <Position>
              <LatitudeDegrees>42.30385757982730865478515625</LatitudeDegrees>
              <LongitudeDegrees>2.58192121982574462890625</LongitudeDegrees>
            </Position>
            <AltitudeMeters>635.4000244140625</AltitudeMeters>
            <DistanceMeters>NAN</DistanceMeters>
          </Trackpoint>
          <Trackpoint>
            <Time>2021-04-03T07:53:39.000Z</Time>
            <Position>
              <LatitudeDegrees>42.30385514907538890838623046875</LatitudeDegrees>
              <LongitudeDegrees>2.5819133408367633819580078125</LongitudeDegrees>
            </Position>
            <AltitudeMeters>635.5999755859375</AltitudeMeters>
            <DistanceMeters>NAN</DistanceMeters>
          </Trackpoint>
          <Trackpoint>
            <Time>2021-04-03T07:53:43.000Z</Time>
            <Position>
              <LatitudeDegrees>42.303848527371883392333984375</LatitudeDegrees>
              <LongitudeDegrees>2.58189599029719829559326171875</LongitudeDegrees>
            </Position>
            <AltitudeMeters>636</AltitudeMeters>
            <DistanceMeters>NAN</DistanceMeters>
          </Trackpoint>
          <Trackpoint>
            <Time>2021-04-03T07:53:50.000Z</Time>
            <Position>
              <LatitudeDegrees>42.3038540594279766082763671875</LatitudeDegrees>
              <LongitudeDegrees>2.581845112144947052001953125</LongitudeDegrees>
            </Position>
            <AltitudeMeters>636.5999755859375</AltitudeMeters>
            <DistanceMeters>NAN</DistanceMeters>
          </Trackpoint>
          <Trackpoint>
            <Time>2021-04-03T07:53:52.000Z</Time>
            <Position>
              <LatitudeDegrees>42.3038627766072750091552734375</LatitudeDegrees>
              <LongitudeDegrees>2.58183396421372890472412109375</LongitudeDegrees>
            </Position>
            <AltitudeMeters>636.5999755859375</AltitudeMeters>
            <DistanceMeters>NAN</DistanceMeters>
          </Trackpoint>
          <Trackpoint>
            <Time>2021-04-03T07:53:57.000Z</Time>
            <Position>
              <LatitudeDegrees>42.30387778021395206451416015625</LatitudeDegrees>
              <LongitudeDegrees>2.58180781267583370208740234375</LongitudeDegrees>
            </Position>
            <AltitudeMeters>637.20001220703125</AltitudeMeters>
            <DistanceMeters>NAN</DistanceMeters>
          </Trackpoint>
          <Trackpoint>
            <Time>2021-04-03T07:54:06.000Z</Time>
            <Position>
              <LatitudeDegrees>42.3039046861231327056884765625</LatitudeDegrees>
              <LongitudeDegrees>2.581751234829425811767578125</LongitudeDegrees>
            </Position>
            <AltitudeMeters>637.79998779296875</AltitudeMeters>
            <DistanceMeters>NAN</DistanceMeters>
          </Trackpoint>
          <Trackpoint>
            <Time>2021-04-03T07:54:11.000Z</Time>
            <Position>
              <LatitudeDegrees>42.30392036028206348419189453125</LatitudeDegrees>
              <LongitudeDegrees>2.58171879686415195465087890625</LongitudeDegrees>
            </Position>
            <AltitudeMeters>638</AltitudeMeters>
            <DistanceMeters>NAN</DistanceMeters>
          </Trackpoint>
          <Trackpoint>
            <Time>2021-04-03T07:54:20.000Z</Time>
            <Position>
              <LatitudeDegrees>42.30392329394817352294921875</LatitudeDegrees>
              <LongitudeDegrees>2.5816333852708339691162109375</LongitudeDegrees>
            </Position>
            <AltitudeMeters>638.5999755859375</AltitudeMeters>
            <DistanceMeters>NAN</DistanceMeters>
          </Trackpoint>
          <Trackpoint>
            <Time>2021-04-03T07:54:21.000Z</Time>
            <Position>
              <LatitudeDegrees>42.3039244674146175384521484375</LatitudeDegrees>
              <LongitudeDegrees>2.5816229917109012603759765625</LongitudeDegrees>
            </Position>
            <AltitudeMeters>638.5999755859375</AltitudeMeters>
            <DistanceMeters>NAN</DistanceMeters>
          </Trackpoint>
          <Trackpoint>
            <Time>2021-04-03T07:54:23.000Z</Time>
            <Position>
              <LatitudeDegrees>42.30393377132713794708251953125</LatitudeDegrees>
              <LongitudeDegrees>2.5816001929342746734619140625</LongitudeDegrees>
            </Position>
            <AltitudeMeters>638.5999755859375</AltitudeMeters>
            <DistanceMeters>NAN</DistanceMeters>
          </Trackpoint>
          <Trackpoint>
            <Time>2021-04-03T07:54:26.000Z</Time>
            <Position>
              <LatitudeDegrees>42.3039469309151172637939453125</LatitudeDegrees>
              <LongitudeDegrees>2.581576220691204071044921875</LongitudeDegrees>
            </Position>
            <AltitudeMeters>638.79998779296875</AltitudeMeters>
            <DistanceMeters>NAN</DistanceMeters>
          </Trackpoint>
          <Trackpoint>
            <Time>2021-04-03T07:54:27.000Z</Time>
            <Position>
              <LatitudeDegrees>42.30394818820059299468994140625</LatitudeDegrees>
              <LongitudeDegrees>2.58157052099704742431640625</LongitudeDegrees>
            </Position>
            <AltitudeMeters>638.79998779296875</AltitudeMeters>
            <DistanceMeters>NAN</DistanceMeters>
          </Trackpoint>
          <Trackpoint>
            <Time>2021-04-03T07:54:28.000Z</Time>
            <Position>
              <LatitudeDegrees>42.3039512895047664642333984375</LatitudeDegrees>
              <LongitudeDegrees>2.58156725205481052398681640625</LongitudeDegrees>
            </Position>
            <AltitudeMeters>639</AltitudeMeters>
            <DistanceMeters>NAN</DistanceMeters>
          </Trackpoint>
          <Trackpoint>
            <Time>2021-04-03T07:54:29.000Z</Time>
            <Position>
              <LatitudeDegrees>42.303953133523464202880859375</LatitudeDegrees>
              <LongitudeDegrees>2.5815643183887004852294921875</LongitudeDegrees>
            </Position>
            <AltitudeMeters>639</AltitudeMeters>
            <DistanceMeters>NAN</DistanceMeters>
          </Trackpoint>
          <Trackpoint>
            <Time>2021-04-03T07:54:32.000Z</Time>
            <Position>
              <LatitudeDegrees>42.3039548099040985107421875</LatitudeDegrees>
              <LongitudeDegrees>2.58153975941240787506103515625</LongitudeDegrees>
            </Position>
            <AltitudeMeters>639.20001220703125</AltitudeMeters>
            <DistanceMeters>NAN</DistanceMeters>
          </Trackpoint>
          <Trackpoint>
            <Time>2021-04-03T07:54:34.000Z</Time>
            <Position>
              <LatitudeDegrees>42.30395439080893993377685546875</LatitudeDegrees>
              <LongitudeDegrees>2.58152903057634830474853515625</LongitudeDegrees>
            </Position>
            <AltitudeMeters>639.4000244140625</AltitudeMeters>
            <DistanceMeters>NAN</DistanceMeters>
          </Trackpoint>
          <Trackpoint>
            <Time>2021-04-03T07:54:36.000Z</Time>
            <Position>
              <LatitudeDegrees>42.30395288206636905670166015625</LatitudeDegrees>
              <LongitudeDegrees>2.58151193149387836456298828125</LongitudeDegrees>
            </Position>
            <AltitudeMeters>639.5999755859375</AltitudeMeters>
            <DistanceMeters>NAN</DistanceMeters>
          </Trackpoint>
          <Trackpoint>
            <Time>2021-04-03T07:54:38.000Z</Time>
            <Position>
              <LatitudeDegrees>42.303949780762195587158203125</LatitudeDegrees>
              <LongitudeDegrees>2.58149676024913787841796875</LongitudeDegrees>
            </Position>
            <AltitudeMeters>639.79998779296875</AltitudeMeters>
            <DistanceMeters>NAN</DistanceMeters>
          </Trackpoint>
          <Trackpoint>
            <Time>2021-04-03T07:54:41.000Z</Time>
            <Position>
              <LatitudeDegrees>42.30394768528640270233154296875</LatitudeDegrees>
              <LongitudeDegrees>2.5814761407673358917236328125</LongitudeDegrees>
            </Position>
            <AltitudeMeters>639.79998779296875</AltitudeMeters>
            <DistanceMeters>NAN</DistanceMeters>
          </Trackpoint>
          <Trackpoint>
            <Time>2021-04-03T07:54:48.000Z</Time>
            <Position>
              <LatitudeDegrees>42.30395304970443248748779296875</LatitudeDegrees>
              <LongitudeDegrees>2.5814228318631649017333984375</LongitudeDegrees>
            </Position>
            <AltitudeMeters>640.20001220703125</AltitudeMeters>
            <DistanceMeters>NAN</DistanceMeters>
          </Trackpoint>
          <Trackpoint>
            <Time>2021-04-03T07:54:49.000Z</Time>
            <Position>
              <LatitudeDegrees>42.30395304970443248748779296875</LatitudeDegrees>
              <LongitudeDegrees>2.5814154557883739471435546875</LongitudeDegrees>
            </Position>
            <AltitudeMeters>640.20001220703125</AltitudeMeters>
            <DistanceMeters>NAN</DistanceMeters>
          </Trackpoint>
          <Trackpoint>
            <Time>2021-04-03T07:54:51.000Z</Time>
            <Position>
              <LatitudeDegrees>42.3039526306092739105224609375</LatitudeDegrees>
              <LongitudeDegrees>2.58140162564814090728759765625</LongitudeDegrees>
            </Position>
            <AltitudeMeters>640.20001220703125</AltitudeMeters>
            <DistanceMeters>NAN</DistanceMeters>
          </Trackpoint>
          <Trackpoint>
            <Time>2021-04-03T07:54:52.000Z</Time>
            <Position>
              <LatitudeDegrees>42.3039566539227962493896484375</LatitudeDegrees>
              <LongitudeDegrees>2.5813956744968891143798828125</LongitudeDegrees>
            </Position>
            <AltitudeMeters>640.20001220703125</AltitudeMeters>
            <DistanceMeters>NAN</DistanceMeters>
          </Trackpoint>
          <Trackpoint>
            <Time>2021-04-03T07:54:54.000Z</Time>
            <Position>
              <LatitudeDegrees>42.3039655387401580810546875</LatitudeDegrees>
              <LongitudeDegrees>2.5813805870711803436279296875</LongitudeDegrees>
            </Position>
            <AltitudeMeters>640.20001220703125</AltitudeMeters>
            <DistanceMeters>NAN</DistanceMeters>
          </Trackpoint>
          <Trackpoint>
            <Time>2021-04-03T07:54:55.000Z</Time>
            <Position>
              <LatitudeDegrees>42.30396830476820468902587890625</LatitudeDegrees>
              <LongitudeDegrees>2.58137379772961139678955078125</LongitudeDegrees>
            </Position>
            <AltitudeMeters>640.4000244140625</AltitudeMeters>
            <DistanceMeters>NAN</DistanceMeters>
          </Trackpoint>
          <Trackpoint>
            <Time>2021-04-03T07:55:01.000Z</Time>
            <Position>
              <LatitudeDegrees>42.30396461673080921173095703125</LatitudeDegrees>
              <LongitudeDegrees>2.58133389987051486968994140625</LongitudeDegrees>
            </Position>
            <AltitudeMeters>641</AltitudeMeters>
            <DistanceMeters>NAN</DistanceMeters>
          </Trackpoint>
          <Trackpoint>
            <Time>2021-04-03T07:55:04.000Z</Time>
            <Position>
              <LatitudeDegrees>42.30396109633147716522216796875</LatitudeDegrees>
              <LongitudeDegrees>2.5813155435025691986083984375</LongitudeDegrees>
            </Position>
            <AltitudeMeters>641.4000244140625</AltitudeMeters>
            <DistanceMeters>NAN</DistanceMeters>
          </Trackpoint>
          <Trackpoint>
            <Time>2021-04-03T07:55:12.000Z</Time>
            <Position>
              <LatitudeDegrees>42.30396193452179431915283203125</LatitudeDegrees>
              <LongitudeDegrees>2.5812602229416370391845703125</LongitudeDegrees>
            </Position>
            <AltitudeMeters>642</AltitudeMeters>
            <DistanceMeters>NAN</DistanceMeters>
          </Trackpoint>
          <Trackpoint>
            <Time>2021-04-03T07:55:15.000Z</Time>
            <Position>
              <LatitudeDegrees>42.30396947823464870452880859375</LatitudeDegrees>
              <LongitudeDegrees>2.5812399387359619140625</LongitudeDegrees>
            </Position>
            <AltitudeMeters>642.4000244140625</AltitudeMeters>
            <DistanceMeters>NAN</DistanceMeters>
          </Trackpoint>
          <Trackpoint>
            <Time>2021-04-03T07:55:21.000Z</Time>
            <Position>
              <LatitudeDegrees>42.3039667122066020965576171875</LatitudeDegrees>
              <LongitudeDegrees>2.5812032260000705718994140625</LongitudeDegrees>
            </Position>
            <AltitudeMeters>643</AltitudeMeters>
            <DistanceMeters>NAN</DistanceMeters>
          </Trackpoint>
          <Trackpoint>
            <Time>2021-04-03T07:55:26.000Z</Time>
            <Position>
              <LatitudeDegrees>42.303968556225299835205078125</LatitudeDegrees>
              <LongitudeDegrees>2.58117732591927051544189453125</LongitudeDegrees>
            </Position>
            <AltitudeMeters>643.4000244140625</AltitudeMeters>
            <DistanceMeters>NAN</DistanceMeters>
          </Trackpoint>
          <Trackpoint>
            <Time>2021-04-03T07:55:31.000Z</Time>
            <Position>
              <LatitudeDegrees>42.30397936888039112091064453125</LatitudeDegrees>
              <LongitudeDegrees>2.5811468996107578277587890625</LongitudeDegrees>
            </Position>
            <AltitudeMeters>644</AltitudeMeters>
            <DistanceMeters>NAN</DistanceMeters>
          </Trackpoint>
          <Trackpoint>
            <Time>2021-04-03T07:55:32.000Z</Time>
            <Position>
              <LatitudeDegrees>42.3039811290800571441650390625</LatitudeDegrees>
              <LongitudeDegrees>2.5811381824314594268798828125</LongitudeDegrees>
            </Position>
            <AltitudeMeters>644.20001220703125</AltitudeMeters>
            <DistanceMeters>NAN</DistanceMeters>
          </Trackpoint>
          <Trackpoint>
            <Time>2021-04-03T07:55:40.000Z</Time>
            <Position>
              <LatitudeDegrees>42.30398741550743579864501953125</LatitudeDegrees>
              <LongitudeDegrees>2.5810882262885570526123046875</LongitudeDegrees>
            </Position>
            <AltitudeMeters>645</AltitudeMeters>
            <DistanceMeters>NAN</DistanceMeters>
          </Trackpoint>
          <Trackpoint>
            <Time>2021-04-03T07:55:41.000Z</Time>
            <Position>
              <LatitudeDegrees>42.3039843142032623291015625</LatitudeDegrees>
              <LongitudeDegrees>2.581082023680210113525390625</LongitudeDegrees>
            </Position>
            <AltitudeMeters>645.20001220703125</AltitudeMeters>
            <DistanceMeters>NAN</DistanceMeters>
          </Trackpoint>
          <Trackpoint>
            <Time>2021-04-03T07:55:49.000Z</Time>
            <Position>
              <LatitudeDegrees>42.30398724786937236785888671875</LatitudeDegrees>
              <LongitudeDegrees>2.58102108724415302276611328125</LongitudeDegrees>
            </Position>
            <AltitudeMeters>645.5999755859375</AltitudeMeters>
            <DistanceMeters>NAN</DistanceMeters>
          </Trackpoint>
          <Trackpoint>
            <Time>2021-04-03T07:55:58.000Z</Time>
            <Position>
              <LatitudeDegrees>42.30399395339190959930419921875</LatitudeDegrees>
              <LongitudeDegrees>2.5809504278004169464111328125</LongitudeDegrees>
            </Position>
            <AltitudeMeters>646.20001220703125</AltitudeMeters>
            <DistanceMeters>NAN</DistanceMeters>
          </Trackpoint>
          <Trackpoint>
            <Time>2021-04-03T07:55:59.000Z</Time>
            <Position>
              <LatitudeDegrees>42.30399034917354583740234375</LatitudeDegrees>
              <LongitudeDegrees>2.58094682358205318450927734375</LongitudeDegrees>
            </Position>
            <AltitudeMeters>646.4000244140625</AltitudeMeters>
            <DistanceMeters>NAN</DistanceMeters>
          </Trackpoint>
          <Trackpoint>
            <Time>2021-04-03T07:56:08.000Z</Time>
            <Position>
              <LatitudeDegrees>42.30397936888039112091064453125</LatitudeDegrees>
              <LongitudeDegrees>2.58088328875601291656494140625</LongitudeDegrees>
            </Position>
            <AltitudeMeters>647</AltitudeMeters>
            <DistanceMeters>NAN</DistanceMeters>
          </Trackpoint>
          <Trackpoint>
            <Time>2021-04-03T07:56:10.000Z</Time>
            <Position>
              <LatitudeDegrees>42.3039720766246318817138671875</LatitudeDegrees>
              <LongitudeDegrees>2.580866776406764984130859375</LongitudeDegrees>
            </Position>
            <AltitudeMeters>647.20001220703125</AltitudeMeters>
            <DistanceMeters>NAN</DistanceMeters>
          </Trackpoint>
          <Trackpoint>
            <Time>2021-04-03T07:56:17.000Z</Time>
            <Position>
              <LatitudeDegrees>42.30396352708339691162109375</LatitudeDegrees>
              <LongitudeDegrees>2.58081355132162570953369140625</LongitudeDegrees>
            </Position>
            <AltitudeMeters>648</AltitudeMeters>
            <DistanceMeters>NAN</DistanceMeters>
          </Trackpoint>
          <Trackpoint>
            <Time>2021-04-03T07:56:22.000Z</Time>
            <Position>
              <LatitudeDegrees>42.30394936166703701019287109375</LatitudeDegrees>
              <LongitudeDegrees>2.5807713903486728668212890625</LongitudeDegrees>
            </Position>
            <AltitudeMeters>648.4000244140625</AltitudeMeters>
            <DistanceMeters>NAN</DistanceMeters>
          </Trackpoint>
          <Trackpoint>
            <Time>2021-04-03T07:56:25.000Z</Time>
            <Position>
              <LatitudeDegrees>42.3039385490119457244873046875</LatitudeDegrees>
              <LongitudeDegrees>2.5807418860495090484619140625</LongitudeDegrees>
            </Position>
            <AltitudeMeters>648.4000244140625</AltitudeMeters>
            <DistanceMeters>NAN</DistanceMeters>
          </Trackpoint>
          <Trackpoint>
            <Time>2021-04-03T07:56:33.000Z</Time>
            <Position>
              <LatitudeDegrees>42.30391566641628742218017578125</LatitudeDegrees>
              <LongitudeDegrees>2.58065848611295223236083984375</LongitudeDegrees>
            </Position>
            <AltitudeMeters>648.4000244140625</AltitudeMeters>
            <DistanceMeters>NAN</DistanceMeters>
          </Trackpoint>
          <Trackpoint>
            <Time>2021-04-03T07:56:34.000Z</Time>
            <Position>
              <LatitudeDegrees>42.3039137385785579681396484375</LatitudeDegrees>
              <LongitudeDegrees>2.58064926601946353912353515625</LongitudeDegrees>
            </Position>
            <AltitudeMeters>648.4000244140625</AltitudeMeters>
            <DistanceMeters>NAN</DistanceMeters>
          </Trackpoint>
          <Trackpoint>
            <Time>2021-04-03T07:56:41.000Z</Time>
            <Position>
              <LatitudeDegrees>42.30388884432613849639892578125</LatitudeDegrees>
              <LongitudeDegrees>2.58062839508056640625</LongitudeDegrees>
            </Position>
            <AltitudeMeters>648.79998779296875</AltitudeMeters>
            <DistanceMeters>NAN</DistanceMeters>
          </Trackpoint>
          <Trackpoint>
            <Time>2021-04-03T07:56:44.000Z</Time>
            <Position>
              <LatitudeDegrees>42.3038808815181255340576171875</LatitudeDegrees>
              <LongitudeDegrees>2.58061104454100131988525390625</LongitudeDegrees>
            </Position>
            <AltitudeMeters>649</AltitudeMeters>
            <DistanceMeters>NAN</DistanceMeters>
          </Trackpoint>
          <Trackpoint>
            <Time>2021-04-03T07:56:48.000Z</Time>
            <Position>
              <LatitudeDegrees>42.3038574121892452239990234375</LatitudeDegrees>
              <LongitudeDegrees>2.58058086968958377838134765625</LongitudeDegrees>
            </Position>
            <AltitudeMeters>649.20001220703125</AltitudeMeters>
            <DistanceMeters>NAN</DistanceMeters>
          </Trackpoint>
          <Trackpoint>
            <Time>2021-04-03T07:56:49.000Z</Time>
            <Position>
              <LatitudeDegrees>42.3038582503795623779296875</LatitudeDegrees>
              <LongitudeDegrees>2.5805707275867462158203125</LongitudeDegrees>
            </Position>
            <AltitudeMeters>649.4000244140625</AltitudeMeters>
            <DistanceMeters>NAN</DistanceMeters>
          </Trackpoint>
          <Trackpoint>
            <Time>2021-04-03T07:56:56.000Z</Time>
            <Position>
              <LatitudeDegrees>42.3038476891815662384033203125</LatitudeDegrees>
              <LongitudeDegrees>2.58051565848290920257568359375</LongitudeDegrees>
            </Position>
            <AltitudeMeters>649.79998779296875</AltitudeMeters>
            <DistanceMeters>NAN</DistanceMeters>
          </Trackpoint>
          <Trackpoint>
            <Time>2021-04-03T07:57:01.000Z</Time>
            <Position>
              <LatitudeDegrees>42.3038475215435028076171875</LatitudeDegrees>
              <LongitudeDegrees>2.58049051277339458465576171875</LongitudeDegrees>
            </Position>
            <AltitudeMeters>650</AltitudeMeters>
            <DistanceMeters>NAN</DistanceMeters>
          </Trackpoint>
          <Trackpoint>
            <Time>2021-04-03T07:57:16.000Z</Time>
            <Position>
              <LatitudeDegrees>42.3038550652563571929931640625</LatitudeDegrees>
              <LongitudeDegrees>2.58049218915402889251708984375</LongitudeDegrees>
            </Position>
            <AltitudeMeters>650.20001220703125</AltitudeMeters>
            <DistanceMeters>NAN</DistanceMeters>
          </Trackpoint>
          <Trackpoint>
            <Time>2021-04-03T07:57:22.000Z</Time>
            <Position>
              <LatitudeDegrees>42.3038537241518497467041015625</LatitudeDegrees>
              <LongitudeDegrees>2.58049218915402889251708984375</LongitudeDegrees>
            </Position>
            <AltitudeMeters>650.4000244140625</AltitudeMeters>
            <DistanceMeters>NAN</DistanceMeters>
          </Trackpoint>
          <Trackpoint>
            <Time>2021-04-03T07:57:24.000Z</Time>
            <Position>
              <LatitudeDegrees>42.303851209580898284912109375</LatitudeDegrees>
              <LongitudeDegrees>2.580490596592426300048828125</LongitudeDegrees>
            </Position>
            <AltitudeMeters>650.79998779296875</AltitudeMeters>
            <DistanceMeters>NAN</DistanceMeters>
          </Trackpoint>
          <Trackpoint>
            <Time>2021-04-03T07:57:29.000Z</Time>
            <Position>
              <LatitudeDegrees>42.3038108088076114654541015625</LatitudeDegrees>
              <LongitudeDegrees>2.5804803706705570220947265625</LongitudeDegrees>
            </Position>
            <AltitudeMeters>651.5999755859375</AltitudeMeters>
            <DistanceMeters>NAN</DistanceMeters>
          </Trackpoint>
          <Trackpoint>
            <Time>2021-04-03T07:57:32.000Z</Time>
            <Position>
              <LatitudeDegrees>42.3037920333445072174072265625</LatitudeDegrees>
              <LongitudeDegrees>2.580463774502277374267578125</LongitudeDegrees>
            </Position>
            <AltitudeMeters>652</AltitudeMeters>
            <DistanceMeters>NAN</DistanceMeters>
          </Trackpoint>
          <Trackpoint>
            <Time>2021-04-03T07:57:36.000Z</Time>
            <Position>
              <LatitudeDegrees>42.3037709109485149383544921875</LatitudeDegrees>
              <LongitudeDegrees>2.58044307120144367218017578125</LongitudeDegrees>
            </Position>
            <AltitudeMeters>652.79998779296875</AltitudeMeters>
            <DistanceMeters>NAN</DistanceMeters>
          </Trackpoint>
          <Trackpoint>
            <Time>2021-04-03T07:57:42.000Z</Time>
            <Position>
              <LatitudeDegrees>42.30376110412180423736572265625</LatitudeDegrees>
              <LongitudeDegrees>2.5803945399820804595947265625</LongitudeDegrees>
            </Position>
            <AltitudeMeters>653.20001220703125</AltitudeMeters>
            <DistanceMeters>NAN</DistanceMeters>
          </Trackpoint>
          <Trackpoint>
            <Time>2021-04-03T07:57:47.000Z</Time>
            <Position>
              <LatitudeDegrees>42.30376630090177059173583984375</LatitudeDegrees>
              <LongitudeDegrees>2.58034684695303440093994140625</LongitudeDegrees>
            </Position>
            <AltitudeMeters>653.79998779296875</AltitudeMeters>
            <DistanceMeters>NAN</DistanceMeters>
          </Trackpoint>
          <Trackpoint>
            <Time>2021-04-03T07:57:52.000Z</Time>
            <Position>
              <LatitudeDegrees>42.3037752695381641387939453125</LatitudeDegrees>
              <LongitudeDegrees>2.58030426688492298126220703125</LongitudeDegrees>
            </Position>
            <AltitudeMeters>654.4000244140625</AltitudeMeters>
            <DistanceMeters>NAN</DistanceMeters>
          </Trackpoint>
          <Trackpoint>
            <Time>2021-04-03T07:57:55.000Z</Time>
            <Position>
              <LatitudeDegrees>42.30377552099525928497314453125</LatitudeDegrees>
              <LongitudeDegrees>2.58028850890696048736572265625</LongitudeDegrees>
            </Position>
            <AltitudeMeters>654.79998779296875</AltitudeMeters>
            <DistanceMeters>NAN</DistanceMeters>
          </Trackpoint>
          <Trackpoint>
            <Time>2021-04-03T07:57:59.000Z</Time>
            <Position>
              <LatitudeDegrees>42.30377174913883209228515625</LatitudeDegrees>
              <LongitudeDegrees>2.58026503957808017730712890625</LongitudeDegrees>
            </Position>
            <AltitudeMeters>655.20001220703125</AltitudeMeters>
            <DistanceMeters>NAN</DistanceMeters>
          </Trackpoint>
          <Trackpoint>
            <Time>2021-04-03T07:58:05.000Z</Time>
            <Position>
              <LatitudeDegrees>42.30378205887973308563232421875</LatitudeDegrees>
              <LongitudeDegrees>2.5802461802959442138671875</LongitudeDegrees>
            </Position>
            <AltitudeMeters>655.79998779296875</AltitudeMeters>
            <DistanceMeters>NAN</DistanceMeters>
          </Trackpoint>
          <Trackpoint>
            <Time>2021-04-03T07:58:06.000Z</Time>
            <Position>
              <LatitudeDegrees>42.303781807422637939453125</LatitudeDegrees>
              <LongitudeDegrees>2.580244503915309906005859375</LongitudeDegrees>
            </Position>
            <AltitudeMeters>655.79998779296875</AltitudeMeters>
            <DistanceMeters>NAN</DistanceMeters>
          </Trackpoint>
          <Trackpoint>
            <Time>2021-04-03T07:58:07.000Z</Time>
            <Position>
              <LatitudeDegrees>42.30378055013716220855712890625</LatitudeDegrees>
              <LongitudeDegrees>2.5802433304488658905029296875</LongitudeDegrees>
            </Position>
            <AltitudeMeters>656</AltitudeMeters>
            <DistanceMeters>NAN</DistanceMeters>
          </Trackpoint>
          <Trackpoint>
            <Time>2021-04-03T07:58:15.000Z</Time>
            <Position>
              <LatitudeDegrees>42.3037833161652088165283203125</LatitudeDegrees>
              <LongitudeDegrees>2.58020971901714801788330078125</LongitudeDegrees>
            </Position>
            <AltitudeMeters>656.4000244140625</AltitudeMeters>
            <DistanceMeters>NAN</DistanceMeters>
          </Trackpoint>
          <Trackpoint>
            <Time>2021-04-03T07:58:20.000Z</Time>
            <Position>
              <LatitudeDegrees>42.30379982851445674896240234375</LatitudeDegrees>
              <LongitudeDegrees>2.58018784224987030029296875</LongitudeDegrees>
            </Position>
            <AltitudeMeters>657</AltitudeMeters>
            <DistanceMeters>NAN</DistanceMeters>
          </Trackpoint>
          <Trackpoint>
            <Time>2021-04-03T07:58:23.000Z</Time>
            <Position>
              <LatitudeDegrees>42.30378742329776287078857421875</LatitudeDegrees>
              <LongitudeDegrees>2.58016680367290973663330078125</LongitudeDegrees>
            </Position>
            <AltitudeMeters>657.4000244140625</AltitudeMeters>
            <DistanceMeters>NAN</DistanceMeters>
          </Trackpoint>
          <Trackpoint>
            <Time>2021-04-03T07:58:30.000Z</Time>
            <Position>
              <LatitudeDegrees>42.30378205887973308563232421875</LatitudeDegrees>
              <LongitudeDegrees>2.58011081255972385406494140625</LongitudeDegrees>
            </Position>
            <AltitudeMeters>658.20001220703125</AltitudeMeters>
            <DistanceMeters>NAN</DistanceMeters>
          </Trackpoint>
          <Trackpoint>
            <Time>2021-04-03T07:58:37.000Z</Time>
            <Position>
              <LatitudeDegrees>42.30377443134784698486328125</LatitudeDegrees>
              <LongitudeDegrees>2.5800723396241664886474609375</LongitudeDegrees>
            </Position>
            <AltitudeMeters>659</AltitudeMeters>
            <DistanceMeters>NAN</DistanceMeters>
          </Trackpoint>
          <Trackpoint>
            <Time>2021-04-03T07:58:39.000Z</Time>
            <Position>
              <LatitudeDegrees>42.303775437176227569580078125</LatitudeDegrees>
              <LongitudeDegrees>2.5800636224448680877685546875</LongitudeDegrees>
            </Position>
            <AltitudeMeters>659.20001220703125</AltitudeMeters>
            <DistanceMeters>NAN</DistanceMeters>
          </Trackpoint>
          <Trackpoint>
            <Time>2021-04-03T07:58:45.000Z</Time>
            <Position>
              <LatitudeDegrees>42.30376906692981719970703125</LatitudeDegrees>
              <LongitudeDegrees>2.5800391472876071929931640625</LongitudeDegrees>
            </Position>
            <AltitudeMeters>659.4000244140625</AltitudeMeters>
            <DistanceMeters>NAN</DistanceMeters>
          </Trackpoint>
          <Trackpoint>
            <Time>2021-04-03T07:58:48.000Z</Time>
            <Position>
              <LatitudeDegrees>42.303758673369884490966796875</LatitudeDegrees>
              <LongitudeDegrees>2.58002422749996185302734375</LongitudeDegrees>
            </Position>
            <AltitudeMeters>659.4000244140625</AltitudeMeters>
            <DistanceMeters>NAN</DistanceMeters>
          </Trackpoint>
          <Trackpoint>
            <Time>2021-04-03T07:58:51.000Z</Time>
            <Position>
              <LatitudeDegrees>42.30376747436821460723876953125</LatitudeDegrees>
              <LongitudeDegrees>2.5799999199807643890380859375</LongitudeDegrees>
            </Position>
            <AltitudeMeters>659.4000244140625</AltitudeMeters>
            <DistanceMeters>NAN</DistanceMeters>
          </Trackpoint>
          <Trackpoint>
            <Time>2021-04-03T07:58:56.000Z</Time>
            <Position>
              <LatitudeDegrees>42.303772754967212677001953125</LatitudeDegrees>
              <LongitudeDegrees>2.5799794681370258331298828125</LongitudeDegrees>
            </Position>
            <AltitudeMeters>659.79998779296875</AltitudeMeters>
            <DistanceMeters>NAN</DistanceMeters>
          </Trackpoint>
          <Trackpoint>
            <Time>2021-04-03T07:59:00.000Z</Time>
            <Position>
              <LatitudeDegrees>42.30377183295786380767822265625</LatitudeDegrees>
              <LongitudeDegrees>2.57996513508260250091552734375</LongitudeDegrees>
            </Position>
            <AltitudeMeters>660.20001220703125</AltitudeMeters>
            <DistanceMeters>NAN</DistanceMeters>
          </Trackpoint>
          <Trackpoint>
            <Time>2021-04-03T07:59:10.000Z</Time>
            <Position>
              <LatitudeDegrees>42.30380586348474025726318359375</LatitudeDegrees>
              <LongitudeDegrees>2.5799157656729221343994140625</LongitudeDegrees>
            </Position>
            <AltitudeMeters>661.20001220703125</AltitudeMeters>
            <DistanceMeters>NAN</DistanceMeters>
          </Trackpoint>
          <Trackpoint>
            <Time>2021-04-03T07:59:15.000Z</Time>
            <Position>
              <LatitudeDegrees>42.3038232140243053436279296875</LatitudeDegrees>
              <LongitudeDegrees>2.5798916257917881011962890625</LongitudeDegrees>
            </Position>
            <AltitudeMeters>661.79998779296875</AltitudeMeters>
            <DistanceMeters>NAN</DistanceMeters>
          </Trackpoint>
          <Trackpoint>
            <Time>2021-04-03T07:59:18.000Z</Time>
            <Position>
              <LatitudeDegrees>42.30382815934717655181884765625</LatitudeDegrees>
              <LongitudeDegrees>2.5798808969557285308837890625</LongitudeDegrees>
            </Position>
            <AltitudeMeters>662</AltitudeMeters>
            <DistanceMeters>NAN</DistanceMeters>
          </Trackpoint>
          <Trackpoint>
            <Time>2021-04-03T07:59:23.000Z</Time>
            <Position>
              <LatitudeDegrees>42.30384324677288532257080078125</LatitudeDegrees>
              <LongitudeDegrees>2.5798572599887847900390625</LongitudeDegrees>
            </Position>
            <AltitudeMeters>662.4000244140625</AltitudeMeters>
            <DistanceMeters>NAN</DistanceMeters>
          </Trackpoint>
          <Trackpoint>
            <Time>2021-04-03T07:59:24.000Z</Time>
            <Position>
              <LatitudeDegrees>42.3038463480770587921142578125</LatitudeDegrees>
              <LongitudeDegrees>2.57985047064721584320068359375</LongitudeDegrees>
            </Position>
            <AltitudeMeters>662.4000244140625</AltitudeMeters>
            <DistanceMeters>NAN</DistanceMeters>
          </Trackpoint>
          <Trackpoint>
            <Time>2021-04-03T07:59:31.000Z</Time>
            <Position>
              <LatitudeDegrees>42.30385464616119861602783203125</LatitudeDegrees>
              <LongitudeDegrees>2.57979380898177623748779296875</LongitudeDegrees>
            </Position>
            <AltitudeMeters>662.5999755859375</AltitudeMeters>
            <DistanceMeters>NAN</DistanceMeters>
          </Trackpoint>
          <Trackpoint>
            <Time>2021-04-03T07:59:39.000Z</Time>
            <Position>
              <LatitudeDegrees>42.3038641177117824554443359375</LatitudeDegrees>
              <LongitudeDegrees>2.5797124207019805908203125</LongitudeDegrees>
            </Position>
            <AltitudeMeters>663</AltitudeMeters>
            <DistanceMeters>NAN</DistanceMeters>
          </Trackpoint>
          <Trackpoint>
            <Time>2021-04-03T07:59:43.000Z</Time>
            <Position>
              <LatitudeDegrees>42.30387124232947826385498046875</LatitudeDegrees>
              <LongitudeDegrees>2.57967193610966205596923828125</LongitudeDegrees>
            </Position>
            <AltitudeMeters>663.4000244140625</AltitudeMeters>
            <DistanceMeters>NAN</DistanceMeters>
          </Trackpoint>
          <Trackpoint>
            <Time>2021-04-03T07:59:45.000Z</Time>
            <Position>
              <LatitudeDegrees>42.3038694821298122406005859375</LatitudeDegrees>
              <LongitudeDegrees>2.57964829914271831512451171875</LongitudeDegrees>
            </Position>
            <AltitudeMeters>663.4000244140625</AltitudeMeters>
            <DistanceMeters>NAN</DistanceMeters>
          </Trackpoint>
          <Trackpoint>
            <Time>2021-04-03T07:59:46.000Z</Time>
            <Position>
              <LatitudeDegrees>42.30386772193014621734619140625</LatitudeDegrees>
              <LongitudeDegrees>2.5796368159353733062744140625</LongitudeDegrees>
            </Position>
            <AltitudeMeters>663.4000244140625</AltitudeMeters>
            <DistanceMeters>NAN</DistanceMeters>
          </Trackpoint>
          <Trackpoint>
            <Time>2021-04-03T07:59:49.000Z</Time>
            <Position>
              <LatitudeDegrees>42.303874008357524871826171875</LatitudeDegrees>
              <LongitudeDegrees>2.579612173140048980712890625</LongitudeDegrees>
            </Position>
            <AltitudeMeters>663.5999755859375</AltitudeMeters>
            <DistanceMeters>NAN</DistanceMeters>
          </Trackpoint>
          <Trackpoint>
            <Time>2021-04-03T07:59:51.000Z</Time>
            <Position>
              <LatitudeDegrees>42.3038770258426666259765625</LatitudeDegrees>
              <LongitudeDegrees>2.57959851063787937164306640625</LongitudeDegrees>
            </Position>
            <AltitudeMeters>663.79998779296875</AltitudeMeters>
            <DistanceMeters>NAN</DistanceMeters>
          </Trackpoint>
          <Trackpoint>
            <Time>2021-04-03T07:59:54.000Z</Time>
            <Position>
              <LatitudeDegrees>42.30388482101261615753173828125</LatitudeDegrees>
              <LongitudeDegrees>2.5795778073370456695556640625</LongitudeDegrees>
            </Position>
            <AltitudeMeters>664</AltitudeMeters>
            <DistanceMeters>NAN</DistanceMeters>
          </Trackpoint>
          <Trackpoint>
            <Time>2021-04-03T07:59:58.000Z</Time>
            <Position>
              <LatitudeDegrees>42.3038919456303119659423828125</LatitudeDegrees>
              <LongitudeDegrees>2.57955056615173816680908203125</LongitudeDegrees>
            </Position>
            <AltitudeMeters>664.4000244140625</AltitudeMeters>
            <DistanceMeters>NAN</DistanceMeters>
          </Trackpoint>
          <Trackpoint>
            <Time>2021-04-03T08:00:00.000Z</Time>
            <Position>
              <LatitudeDegrees>42.30389672331511974334716796875</LatitudeDegrees>
              <LongitudeDegrees>2.57953916676342487335205078125</LongitudeDegrees>
            </Position>
            <AltitudeMeters>664.5999755859375</AltitudeMeters>
            <DistanceMeters>NAN</DistanceMeters>
          </Trackpoint>
          <Trackpoint>
            <Time>2021-04-03T08:00:02.000Z</Time>
            <Position>
              <LatitudeDegrees>42.3038956336677074432373046875</LatitudeDegrees>
              <LongitudeDegrees>2.5795375742018222808837890625</LongitudeDegrees>
            </Position>
            <AltitudeMeters>664.79998779296875</AltitudeMeters>
            <DistanceMeters>NAN</DistanceMeters>
          </Trackpoint>
          <Trackpoint>
            <Time>2021-04-03T08:00:03.000Z</Time>
            <Position>
              <LatitudeDegrees>42.30389244854450225830078125</LatitudeDegrees>
              <LongitudeDegrees>2.5795365683734416961669921875</LongitudeDegrees>
            </Position>
            <AltitudeMeters>664.79998779296875</AltitudeMeters>
            <DistanceMeters>NAN</DistanceMeters>
          </Trackpoint>
          <Trackpoint>
            <Time>2021-04-03T08:00:06.000Z</Time>
            <Position>
              <LatitudeDegrees>42.30388264171779155731201171875</LatitudeDegrees>
              <LongitudeDegrees>2.57951569743454456329345703125</LongitudeDegrees>
            </Position>
            <AltitudeMeters>664.5999755859375</AltitudeMeters>
            <DistanceMeters>NAN</DistanceMeters>
          </Trackpoint>
          <Trackpoint>
            <Time>2021-04-03T08:00:11.000Z</Time>
            <Position>
              <LatitudeDegrees>42.30387912131845951080322265625</LatitudeDegrees>
              <LongitudeDegrees>2.5794825889170169830322265625</LongitudeDegrees>
            </Position>
            <AltitudeMeters>664.79998779296875</AltitudeMeters>
            <DistanceMeters>NAN</DistanceMeters>
          </Trackpoint>
          <Trackpoint>
            <Time>2021-04-03T08:00:16.000Z</Time>
            <Position>
              <LatitudeDegrees>42.30389110743999481201171875</LatitudeDegrees>
              <LongitudeDegrees>2.57944931276142597198486328125</LongitudeDegrees>
            </Position>
            <AltitudeMeters>665.5999755859375</AltitudeMeters>
            <DistanceMeters>NAN</DistanceMeters>
          </Trackpoint>
          <Trackpoint>
            <Time>2021-04-03T08:00:18.000Z</Time>
            <Position>
              <LatitudeDegrees>42.3038932867348194122314453125</LatitudeDegrees>
              <LongitudeDegrees>2.57943908683955669403076171875</LongitudeDegrees>
            </Position>
            <AltitudeMeters>665.79998779296875</AltitudeMeters>
            <DistanceMeters>NAN</DistanceMeters>
          </Trackpoint>
          <Trackpoint>
            <Time>2021-04-03T08:00:26.000Z</Time>
            <Position>
              <LatitudeDegrees>42.30392455123364925384521484375</LatitudeDegrees>
              <LongitudeDegrees>2.5793494842946529388427734375</LongitudeDegrees>
            </Position>
            <AltitudeMeters>665.79998779296875</AltitudeMeters>
            <DistanceMeters>NAN</DistanceMeters>
          </Trackpoint>
          <Trackpoint>
            <Time>2021-04-03T08:00:29.000Z</Time>
            <Position>
              <LatitudeDegrees>42.303931005299091339111328125</LatitudeDegrees>
              <LongitudeDegrees>2.57931319065392017364501953125</LongitudeDegrees>
            </Position>
            <AltitudeMeters>665.5999755859375</AltitudeMeters>
            <DistanceMeters>NAN</DistanceMeters>
          </Trackpoint>
          <Trackpoint>
            <Time>2021-04-03T08:00:30.000Z</Time>
            <Position>
              <LatitudeDegrees>42.30392932891845703125</LatitudeDegrees>
              <LongitudeDegrees>2.579300366342067718505859375</LongitudeDegrees>
            </Position>
            <AltitudeMeters>665.5999755859375</AltitudeMeters>
            <DistanceMeters>NAN</DistanceMeters>
          </Trackpoint>
          <Trackpoint>
            <Time>2021-04-03T08:00:33.000Z</Time>
            <Position>
              <LatitudeDegrees>42.30393108911812305450439453125</LatitudeDegrees>
              <LongitudeDegrees>2.57926608435809612274169921875</LongitudeDegrees>
            </Position>
            <AltitudeMeters>665.5999755859375</AltitudeMeters>
            <DistanceMeters>NAN</DistanceMeters>
          </Trackpoint>
          <Trackpoint>
            <Time>2021-04-03T08:00:39.000Z</Time>
            <Position>
              <LatitudeDegrees>42.30393444187939167022705078125</LatitudeDegrees>
              <LongitudeDegrees>2.57923658005893230438232421875</LongitudeDegrees>
            </Position>
            <AltitudeMeters>665.5999755859375</AltitudeMeters>
            <DistanceMeters>NAN</DistanceMeters>
          </Trackpoint>
          <Trackpoint>
            <Time>2021-04-03T08:00:44.000Z</Time>
            <Position>
              <LatitudeDegrees>42.3039449192583560943603515625</LatitudeDegrees>
              <LongitudeDegrees>2.5792133621871471405029296875</LongitudeDegrees>
            </Position>
            <AltitudeMeters>664.4000244140625</AltitudeMeters>
            <DistanceMeters>NAN</DistanceMeters>
          </Trackpoint>
          <Trackpoint>
            <Time>2021-04-03T08:00:46.000Z</Time>
            <Position>
              <LatitudeDegrees>42.30394081212580204010009765625</LatitudeDegrees>
              <LongitudeDegrees>2.579217217862606048583984375</LongitudeDegrees>
            </Position>
            <AltitudeMeters>665.5999755859375</AltitudeMeters>
            <DistanceMeters>NAN</DistanceMeters>
          </Trackpoint>
          <Trackpoint>
            <Time>2021-04-03T08:00:50.000Z</Time>
            <Position>
              <LatitudeDegrees>42.30393796227872371673583984375</LatitudeDegrees>
              <LongitudeDegrees>2.5791939161717891693115234375</LongitudeDegrees>
            </Position>
            <AltitudeMeters>665.5999755859375</AltitudeMeters>
            <DistanceMeters>NAN</DistanceMeters>
          </Trackpoint>
          <Trackpoint>
            <Time>2021-04-03T08:00:51.000Z</Time>
            <Position>
              <LatitudeDegrees>42.303937375545501708984375</LatitudeDegrees>
              <LongitudeDegrees>2.5791892223060131072998046875</LongitudeDegrees>
            </Position>
            <AltitudeMeters>665.4000244140625</AltitudeMeters>
            <DistanceMeters>NAN</DistanceMeters>
          </Trackpoint>
          <Trackpoint>
            <Time>2021-04-03T08:00:54.000Z</Time>
            <Position>
              <LatitudeDegrees>42.303942404687404632568359375</LatitudeDegrees>
              <LongitudeDegrees>2.5791679322719573974609375</LongitudeDegrees>
            </Position>
            <AltitudeMeters>665.4000244140625</AltitudeMeters>
            <DistanceMeters>NAN</DistanceMeters>
          </Trackpoint>
          <Trackpoint>
            <Time>2021-04-03T08:00:55.000Z</Time>
            <Position>
              <LatitudeDegrees>42.303943075239658355712890625</LatitudeDegrees>
              <LongitudeDegrees>2.57916164584457874298095703125</LongitudeDegrees>
            </Position>
            <AltitudeMeters>665.4000244140625</AltitudeMeters>
            <DistanceMeters>NAN</DistanceMeters>
          </Trackpoint>
          <Trackpoint>
            <Time>2021-04-03T08:01:01.000Z</Time>
            <Position>
              <LatitudeDegrees>42.30393829755485057830810546875</LatitudeDegrees>
              <LongitudeDegrees>2.579097859561443328857421875</LongitudeDegrees>
            </Position>
            <AltitudeMeters>664.4000244140625</AltitudeMeters>
            <DistanceMeters>NAN</DistanceMeters>
          </Trackpoint>
          <Trackpoint>
            <Time>2021-04-03T08:01:03.000Z</Time>
            <Position>
              <LatitudeDegrees>42.3039375431835651397705078125</LatitudeDegrees>
              <LongitudeDegrees>2.57907145656645298004150390625</LongitudeDegrees>
            </Position>
            <AltitudeMeters>664.4000244140625</AltitudeMeters>
            <DistanceMeters>NAN</DistanceMeters>
          </Trackpoint>
          <Trackpoint>
            <Time>2021-04-03T08:01:06.000Z</Time>
            <Position>
              <LatitudeDegrees>42.3039348609745502471923828125</LatitudeDegrees>
              <LongitudeDegrees>2.57903625257313251495361328125</LongitudeDegrees>
            </Position>
            <AltitudeMeters>664.5999755859375</AltitudeMeters>
            <DistanceMeters>NAN</DistanceMeters>
          </Trackpoint>
          <Trackpoint>
            <Time>2021-04-03T08:01:09.000Z</Time>
            <Position>
              <LatitudeDegrees>42.30394030921161174774169921875</LatitudeDegrees>
              <LongitudeDegrees>2.57899702526628971099853515625</LongitudeDegrees>
            </Position>
            <AltitudeMeters>664.79998779296875</AltitudeMeters>
            <DistanceMeters>NAN</DistanceMeters>
          </Trackpoint>
          <Trackpoint>
            <Time>2021-04-03T08:01:11.000Z</Time>
            <Position>
              <LatitudeDegrees>42.30394332669675350189208984375</LatitudeDegrees>
              <LongitudeDegrees>2.57897757925093173980712890625</LongitudeDegrees>
            </Position>
            <AltitudeMeters>665</AltitudeMeters>
            <DistanceMeters>NAN</DistanceMeters>
          </Trackpoint>
          <Trackpoint>
            <Time>2021-04-03T08:01:18.000Z</Time>
            <Position>
              <LatitudeDegrees>42.303955145180225372314453125</LatitudeDegrees>
              <LongitudeDegrees>2.57891672663390636444091796875</LongitudeDegrees>
            </Position>
            <AltitudeMeters>665.5999755859375</AltitudeMeters>
            <DistanceMeters>NAN</DistanceMeters>
          </Trackpoint>
          <Trackpoint>
            <Time>2021-04-03T08:01:24.000Z</Time>
            <Position>
              <LatitudeDegrees>42.30397886596620082855224609375</LatitudeDegrees>
              <LongitudeDegrees>2.5788697041571140289306640625</LongitudeDegrees>
            </Position>
            <AltitudeMeters>664.4000244140625</AltitudeMeters>
            <DistanceMeters>NAN</DistanceMeters>
          </Trackpoint>
          <Trackpoint>
            <Time>2021-04-03T08:01:25.000Z</Time>
            <Position>
              <LatitudeDegrees>42.30398339219391345977783203125</LatitudeDegrees>
              <LongitudeDegrees>2.57886425592005252838134765625</LongitudeDegrees>
            </Position>
            <AltitudeMeters>665.5999755859375</AltitudeMeters>
            <DistanceMeters>NAN</DistanceMeters>
          </Trackpoint>
          <Trackpoint>
            <Time>2021-04-03T08:01:28.000Z</Time>
            <Position>
              <LatitudeDegrees>42.3039952106773853302001953125</LatitudeDegrees>
              <LongitudeDegrees>2.57884263060986995697021484375</LongitudeDegrees>
            </Position>
            <AltitudeMeters>665.79998779296875</AltitudeMeters>
            <DistanceMeters>NAN</DistanceMeters>
          </Trackpoint>
          <Trackpoint>
            <Time>2021-04-03T08:01:29.000Z</Time>
            <Position>
              <LatitudeDegrees>42.30399814434349536895751953125</LatitudeDegrees>
              <LongitudeDegrees>2.5788331590592861175537109375</LongitudeDegrees>
            </Position>
            <AltitudeMeters>666</AltitudeMeters>
            <DistanceMeters>NAN</DistanceMeters>
          </Trackpoint>
          <Trackpoint>
            <Time>2021-04-03T08:01:33.000Z</Time>
            <Position>
              <LatitudeDegrees>42.304010801017284393310546875</LatitudeDegrees>
              <LongitudeDegrees>2.57880172692239284515380859375</LongitudeDegrees>
            </Position>
            <AltitudeMeters>666.5999755859375</AltitudeMeters>
            <DistanceMeters>NAN</DistanceMeters>
          </Trackpoint>
          <Trackpoint>
            <Time>2021-04-03T08:01:39.000Z</Time>
            <Position>
              <LatitudeDegrees>42.30403385125100612640380859375</LatitudeDegrees>
              <LongitudeDegrees>2.578747160732746124267578125</LongitudeDegrees>
            </Position>
            <AltitudeMeters>667.5999755859375</AltitudeMeters>
            <DistanceMeters>NAN</DistanceMeters>
          </Trackpoint>
          <Trackpoint>
            <Time>2021-04-03T08:01:40.000Z</Time>
            <Position>
              <LatitudeDegrees>42.30403753928840160369873046875</LatitudeDegrees>
              <LongitudeDegrees>2.57873483933508396148681640625</LongitudeDegrees>
            </Position>
            <AltitudeMeters>667.79998779296875</AltitudeMeters>
            <DistanceMeters>NAN</DistanceMeters>
          </Trackpoint>
          <Trackpoint>
            <Time>2021-04-03T08:01:44.000Z</Time>
            <Position>
              <LatitudeDegrees>42.30404374189674854278564453125</LatitudeDegrees>
              <LongitudeDegrees>2.57869477383792400360107421875</LongitudeDegrees>
            </Position>
            <AltitudeMeters>668.4000244140625</AltitudeMeters>
            <DistanceMeters>NAN</DistanceMeters>
          </Trackpoint>
          <Trackpoint>
            <Time>2021-04-03T08:01:46.000Z</Time>
            <Position>
              <LatitudeDegrees>42.30404575355350971221923828125</LatitudeDegrees>
              <LongitudeDegrees>2.57867801003158092498779296875</LongitudeDegrees>
            </Position>
            <AltitudeMeters>669</AltitudeMeters>
            <DistanceMeters>NAN</DistanceMeters>
          </Trackpoint>
          <Trackpoint>
            <Time>2021-04-03T08:01:50.000Z</Time>
            <Position>
              <LatitudeDegrees>42.30405011214315891265869140625</LatitudeDegrees>
              <LongitudeDegrees>2.57865185849368572235107421875</LongitudeDegrees>
            </Position>
            <AltitudeMeters>669.4000244140625</AltitudeMeters>
            <DistanceMeters>NAN</DistanceMeters>
          </Trackpoint>
          <Trackpoint>
            <Time>2021-04-03T08:01:53.000Z</Time>
            <Position>
              <LatitudeDegrees>42.304059080779552459716796875</LatitudeDegrees>
              <LongitudeDegrees>2.57863325066864490509033203125</LongitudeDegrees>
            </Position>
            <AltitudeMeters>669.79998779296875</AltitudeMeters>
            <DistanceMeters>NAN</DistanceMeters>
          </Trackpoint>
          <Trackpoint>
            <Time>2021-04-03T08:01:54.000Z</Time>
            <Position>
              <LatitudeDegrees>42.30406352318823337554931640625</LatitudeDegrees>
              <LongitudeDegrees>2.5786249525845050811767578125</LongitudeDegrees>
            </Position>
            <AltitudeMeters>669.79998779296875</AltitudeMeters>
            <DistanceMeters>NAN</DistanceMeters>
          </Trackpoint>
          <Trackpoint>
            <Time>2021-04-03T08:01:55.000Z</Time>
            <Position>
              <LatitudeDegrees>42.30406788177788257598876953125</LatitudeDegrees>
              <LongitudeDegrees>2.578614056110382080078125</LongitudeDegrees>
            </Position>
            <AltitudeMeters>670</AltitudeMeters>
            <DistanceMeters>NAN</DistanceMeters>
          </Trackpoint>
          <Trackpoint>
            <Time>2021-04-03T08:01:57.000Z</Time>
            <Position>
              <LatitudeDegrees>42.3040713183581829071044921875</LatitudeDegrees>
              <LongitudeDegrees>2.57858932949602603912353515625</LongitudeDegrees>
            </Position>
            <AltitudeMeters>670.4000244140625</AltitudeMeters>
            <DistanceMeters>NAN</DistanceMeters>
          </Trackpoint>
          <Trackpoint>
            <Time>2021-04-03T08:02:01.000Z</Time>
            <Position>
              <LatitudeDegrees>42.30406972579658031463623046875</LatitudeDegrees>
              <LongitudeDegrees>2.57855043746531009674072265625</LongitudeDegrees>
            </Position>
            <AltitudeMeters>670.5999755859375</AltitudeMeters>
            <DistanceMeters>NAN</DistanceMeters>
          </Trackpoint>
          <Trackpoint>
            <Time>2021-04-03T08:02:07.000Z</Time>
            <Position>
              <LatitudeDegrees>42.30406603775918483734130859375</LatitudeDegrees>
              <LongitudeDegrees>2.5784888304769992828369140625</LongitudeDegrees>
            </Position>
            <AltitudeMeters>671</AltitudeMeters>
            <DistanceMeters>NAN</DistanceMeters>
          </Trackpoint>
          <Trackpoint>
            <Time>2021-04-03T08:02:08.000Z</Time>
            <Position>
              <LatitudeDegrees>42.3040669597685337066650390625</LatitudeDegrees>
              <LongitudeDegrees>2.57848086766898632049560546875</LongitudeDegrees>
            </Position>
            <AltitudeMeters>671</AltitudeMeters>
            <DistanceMeters>NAN</DistanceMeters>
          </Trackpoint>
          <Trackpoint>
            <Time>2021-04-03T08:02:09.000Z</Time>
            <Position>
              <LatitudeDegrees>42.30406771413981914520263671875</LatitudeDegrees>
              <LongitudeDegrees>2.57847726345062255859375</LongitudeDegrees>
            </Position>
            <AltitudeMeters>671.20001220703125</AltitudeMeters>
            <DistanceMeters>NAN</DistanceMeters>
          </Trackpoint>
          <Trackpoint>
            <Time>2021-04-03T08:02:15.000Z</Time>
            <Position>
              <LatitudeDegrees>42.3040688037872314453125</LatitudeDegrees>
              <LongitudeDegrees>2.5784328393638134002685546875</LongitudeDegrees>
            </Position>
            <AltitudeMeters>670.5999755859375</AltitudeMeters>
            <DistanceMeters>NAN</DistanceMeters>
          </Trackpoint>
          <Trackpoint>
            <Time>2021-04-03T08:02:18.000Z</Time>
            <Position>
              <LatitudeDegrees>42.3040709830820560455322265625</LatitudeDegrees>
              <LongitudeDegrees>2.57841356098651885986328125</LongitudeDegrees>
            </Position>
            <AltitudeMeters>671.5999755859375</AltitudeMeters>
            <DistanceMeters>NAN</DistanceMeters>
          </Trackpoint>
          <Trackpoint>
            <Time>2021-04-03T08:02:27.000Z</Time>
            <Position>
              <LatitudeDegrees>42.304086573421955108642578125</LatitudeDegrees>
              <LongitudeDegrees>2.57834390737116336822509765625</LongitudeDegrees>
            </Position>
            <AltitudeMeters>671.5999755859375</AltitudeMeters>
            <DistanceMeters>NAN</DistanceMeters>
          </Trackpoint>
          <Trackpoint>
            <Time>2021-04-03T08:02:36.000Z</Time>
            <Position>
              <LatitudeDegrees>42.30407978408038616180419921875</LatitudeDegrees>
              <LongitudeDegrees>2.57825271226465702056884765625</LongitudeDegrees>
            </Position>
            <AltitudeMeters>670.5999755859375</AltitudeMeters>
            <DistanceMeters>NAN</DistanceMeters>
          </Trackpoint>
          <Trackpoint>
            <Time>2021-04-03T08:02:43.000Z</Time>
            <Position>
              <LatitudeDegrees>42.30406151153147220611572265625</LatitudeDegrees>
              <LongitudeDegrees>2.57819957099854946136474609375</LongitudeDegrees>
            </Position>
            <AltitudeMeters>670.79998779296875</AltitudeMeters>
            <DistanceMeters>NAN</DistanceMeters>
          </Trackpoint>
          <Trackpoint>
            <Time>2021-04-03T08:02:45.000Z</Time>
            <Position>
              <LatitudeDegrees>42.30406017042696475982666015625</LatitudeDegrees>
              <LongitudeDegrees>2.57818096317350864410400390625</LongitudeDegrees>
            </Position>
            <AltitudeMeters>670.79998779296875</AltitudeMeters>
            <DistanceMeters>NAN</DistanceMeters>
          </Trackpoint>
          <Trackpoint>
            <Time>2021-04-03T08:02:52.000Z</Time>
            <Position>
              <LatitudeDegrees>42.30403837747871875762939453125</LatitudeDegrees>
              <LongitudeDegrees>2.57810552604496479034423828125</LongitudeDegrees>
            </Position>
            <AltitudeMeters>670.4000244140625</AltitudeMeters>
            <DistanceMeters>NAN</DistanceMeters>
          </Trackpoint>
          <Trackpoint>
            <Time>2021-04-03T08:02:55.000Z</Time>
            <Position>
              <LatitudeDegrees>42.3040327616035938262939453125</LatitudeDegrees>
              <LongitudeDegrees>2.57807685993611812591552734375</LongitudeDegrees>
            </Position>
            <AltitudeMeters>671.5999755859375</AltitudeMeters>
            <DistanceMeters>NAN</DistanceMeters>
          </Trackpoint>
          <Trackpoint>
            <Time>2021-04-03T08:02:57.000Z</Time>
            <Position>
              <LatitudeDegrees>42.30403401888906955718994140625</LatitudeDegrees>
              <LongitudeDegrees>2.57805841974914073944091796875</LongitudeDegrees>
            </Position>
            <AltitudeMeters>671.5999755859375</AltitudeMeters>
            <DistanceMeters>NAN</DistanceMeters>
          </Trackpoint>
          <Trackpoint>
            <Time>2021-04-03T08:02:59.000Z</Time>
            <Position>
              <LatitudeDegrees>42.30402932502329349517822265625</LatitudeDegrees>
              <LongitudeDegrees>2.578038387000560760498046875</LongitudeDegrees>
            </Position>
            <AltitudeMeters>670.5999755859375</AltitudeMeters>
            <DistanceMeters>NAN</DistanceMeters>
          </Trackpoint>
          <Trackpoint>
            <Time>2021-04-03T08:03:02.000Z</Time>
            <Position>
              <LatitudeDegrees>42.3040299117565155029296875</LatitudeDegrees>
              <LongitudeDegrees>2.57801399566233158111572265625</LongitudeDegrees>
            </Position>
            <AltitudeMeters>671.5999755859375</AltitudeMeters>
            <DistanceMeters>NAN</DistanceMeters>
          </Trackpoint>
          <Trackpoint>
            <Time>2021-04-03T08:03:07.000Z</Time>
            <Position>
              <LatitudeDegrees>42.3040086217224597930908203125</LatitudeDegrees>
              <LongitudeDegrees>2.5779473595321178436279296875</LongitudeDegrees>
            </Position>
            <AltitudeMeters>670.20001220703125</AltitudeMeters>
            <DistanceMeters>NAN</DistanceMeters>
          </Trackpoint>
          <Trackpoint>
            <Time>2021-04-03T08:03:10.000Z</Time>
            <Position>
              <LatitudeDegrees>42.30399378575384616851806640625</LatitudeDegrees>
              <LongitudeDegrees>2.57791894488036632537841796875</LongitudeDegrees>
            </Position>
            <AltitudeMeters>670</AltitudeMeters>
            <DistanceMeters>NAN</DistanceMeters>
          </Trackpoint>
          <Trackpoint>
            <Time>2021-04-03T08:03:11.000Z</Time>
            <Position>
              <LatitudeDegrees>42.30398775078356266021728515625</LatitudeDegrees>
              <LongitudeDegrees>2.57790888659656047821044921875</LongitudeDegrees>
            </Position>
            <AltitudeMeters>670</AltitudeMeters>
            <DistanceMeters>NAN</DistanceMeters>
          </Trackpoint>
          <Trackpoint>
            <Time>2021-04-03T08:03:18.000Z</Time>
            <Position>
              <LatitudeDegrees>42.30398305691778659820556640625</LatitudeDegrees>
              <LongitudeDegrees>2.5778430886566638946533203125</LongitudeDegrees>
            </Position>
            <AltitudeMeters>670.5999755859375</AltitudeMeters>
            <DistanceMeters>NAN</DistanceMeters>
          </Trackpoint>
          <Trackpoint>
            <Time>2021-04-03T08:03:19.000Z</Time>
            <Position>
              <LatitudeDegrees>42.303983978927135467529296875</LatitudeDegrees>
              <LongitudeDegrees>2.57783646695315837860107421875</LongitudeDegrees>
            </Position>
            <AltitudeMeters>671.5999755859375</AltitudeMeters>
            <DistanceMeters>NAN</DistanceMeters>
          </Trackpoint>
          <Trackpoint>
            <Time>2021-04-03T08:03:23.000Z</Time>
            <Position>
              <LatitudeDegrees>42.3039727471768856048583984375</LatitudeDegrees>
              <LongitudeDegrees>2.57780042476952075958251953125</LongitudeDegrees>
            </Position>
            <AltitudeMeters>670.5999755859375</AltitudeMeters>
            <DistanceMeters>NAN</DistanceMeters>
          </Trackpoint>
          <Trackpoint>
            <Time>2021-04-03T08:03:26.000Z</Time>
            <Position>
              <LatitudeDegrees>42.30396612547338008880615234375</LatitudeDegrees>
              <LongitudeDegrees>2.5777710042893886566162109375</LongitudeDegrees>
            </Position>
            <AltitudeMeters>670.5999755859375</AltitudeMeters>
            <DistanceMeters>NAN</DistanceMeters>
          </Trackpoint>
          <Trackpoint>
            <Time>2021-04-03T08:03:27.000Z</Time>
            <Position>
              <LatitudeDegrees>42.30396352708339691162109375</LatitudeDegrees>
              <LongitudeDegrees>2.577758766710758209228515625</LongitudeDegrees>
            </Position>
            <AltitudeMeters>670.5999755859375</AltitudeMeters>
            <DistanceMeters>NAN</DistanceMeters>
          </Trackpoint>
          <Trackpoint>
            <Time>2021-04-03T08:03:32.000Z</Time>
            <Position>
              <LatitudeDegrees>42.3039506189525127410888671875</LatitudeDegrees>
              <LongitudeDegrees>2.57770814001560211181640625</LongitudeDegrees>
            </Position>
            <AltitudeMeters>670.20001220703125</AltitudeMeters>
            <DistanceMeters>NAN</DistanceMeters>
          </Trackpoint>
          <Trackpoint>
            <Time>2021-04-03T08:03:38.000Z</Time>
            <Position>
              <LatitudeDegrees>42.303938381373882293701171875</LatitudeDegrees>
              <LongitudeDegrees>2.57764385081827640533447265625</LongitudeDegrees>
            </Position>
            <AltitudeMeters>669.5999755859375</AltitudeMeters>
            <DistanceMeters>NAN</DistanceMeters>
          </Trackpoint>
          <Trackpoint>
            <Time>2021-04-03T08:03:39.000Z</Time>
            <Position>
              <LatitudeDegrees>42.30393528006970882415771484375</LatitudeDegrees>
              <LongitudeDegrees>2.57763396017253398895263671875</LongitudeDegrees>
            </Position>
            <AltitudeMeters>670.5999755859375</AltitudeMeters>
            <DistanceMeters>NAN</DistanceMeters>
          </Trackpoint>
          <Trackpoint>
            <Time>2021-04-03T08:03:42.000Z</Time>
            <Position>
              <LatitudeDegrees>42.30393243022263050079345703125</LatitudeDegrees>
              <LongitudeDegrees>2.57760613225400447845458984375</LongitudeDegrees>
            </Position>
            <AltitudeMeters>670.5999755859375</AltitudeMeters>
            <DistanceMeters>NAN</DistanceMeters>
          </Trackpoint>
          <Trackpoint>
            <Time>2021-04-03T08:03:43.000Z</Time>
            <Position>
              <LatitudeDegrees>42.3039318434894084930419921875</LatitudeDegrees>
              <LongitudeDegrees>2.5775980018079280853271484375</LongitudeDegrees>
            </Position>
            <AltitudeMeters>670.5999755859375</AltitudeMeters>
            <DistanceMeters>NAN</DistanceMeters>
          </Trackpoint>
          <Trackpoint>
            <Time>2021-04-03T08:03:51.000Z</Time>
            <Position>
              <LatitudeDegrees>42.303923629224300384521484375</LatitudeDegrees>
              <LongitudeDegrees>2.5775121711194515228271484375</LongitudeDegrees>
            </Position>
            <AltitudeMeters>670.5999755859375</AltitudeMeters>
            <DistanceMeters>NAN</DistanceMeters>
          </Trackpoint>
          <Trackpoint>
            <Time>2021-04-03T08:03:58.000Z</Time>
            <Position>
              <LatitudeDegrees>42.303899824619293212890625</LatitudeDegrees>
              <LongitudeDegrees>2.57743195630609989166259765625</LongitudeDegrees>
            </Position>
            <AltitudeMeters>669.5999755859375</AltitudeMeters>
            <DistanceMeters>NAN</DistanceMeters>
          </Trackpoint>
          <Trackpoint>
            <Time>2021-04-03T08:03:59.000Z</Time>
            <Position>
              <LatitudeDegrees>42.30389571748673915863037109375</LatitudeDegrees>
              <LongitudeDegrees>2.57742173038423061370849609375</LongitudeDegrees>
            </Position>
            <AltitudeMeters>669.4000244140625</AltitudeMeters>
            <DistanceMeters>NAN</DistanceMeters>
          </Trackpoint>
          <Trackpoint>
            <Time>2021-04-03T08:04:04.000Z</Time>
            <Position>
              <LatitudeDegrees>42.30386772193014621734619140625</LatitudeDegrees>
              <LongitudeDegrees>2.57736188359558582305908203125</LongitudeDegrees>
            </Position>
            <AltitudeMeters>668.4000244140625</AltitudeMeters>
            <DistanceMeters>NAN</DistanceMeters>
          </Trackpoint>
          <Trackpoint>
            <Time>2021-04-03T08:04:05.000Z</Time>
            <Position>
              <LatitudeDegrees>42.30386436916887760162353515625</LatitudeDegrees>
              <LongitudeDegrees>2.57735216058790683746337890625</LongitudeDegrees>
            </Position>
            <AltitudeMeters>668.4000244140625</AltitudeMeters>
            <DistanceMeters>NAN</DistanceMeters>
          </Trackpoint>
          <Trackpoint>
            <Time>2021-04-03T08:04:09.000Z</Time>
            <Position>
              <LatitudeDegrees>42.3038416542112827301025390625</LatitudeDegrees>
              <LongitudeDegrees>2.5773093290627002716064453125</LongitudeDegrees>
            </Position>
            <AltitudeMeters>668.20001220703125</AltitudeMeters>
            <DistanceMeters>NAN</DistanceMeters>
          </Trackpoint>
          <Trackpoint>
            <Time>2021-04-03T08:04:19.000Z</Time>
            <Position>
              <LatitudeDegrees>42.303782813251018524169921875</LatitudeDegrees>
              <LongitudeDegrees>2.57721520029008388519287109375</LongitudeDegrees>
            </Position>
            <AltitudeMeters>668</AltitudeMeters>
            <DistanceMeters>NAN</DistanceMeters>
          </Trackpoint>
          <Trackpoint>
            <Time>2021-04-03T08:04:28.000Z</Time>
            <Position>
              <LatitudeDegrees>42.303726486861705780029296875</LatitudeDegrees>
              <LongitudeDegrees>2.577112019062042236328125</LongitudeDegrees>
            </Position>
            <AltitudeMeters>668.20001220703125</AltitudeMeters>
            <DistanceMeters>NAN</DistanceMeters>
          </Trackpoint>
          <Trackpoint>
            <Time>2021-04-03T08:04:30.000Z</Time>
            <Position>
              <LatitudeDegrees>42.3037189431488513946533203125</LatitudeDegrees>
              <LongitudeDegrees>2.57708863355219364166259765625</LongitudeDegrees>
            </Position>
            <AltitudeMeters>668.20001220703125</AltitudeMeters>
            <DistanceMeters>NAN</DistanceMeters>
          </Trackpoint>
          <Trackpoint>
            <Time>2021-04-03T08:04:41.000Z</Time>
            <Position>
              <LatitudeDegrees>42.30366068892180919647216796875</LatitudeDegrees>
              <LongitudeDegrees>2.57696474902331829071044921875</LongitudeDegrees>
            </Position>
            <AltitudeMeters>667.79998779296875</AltitudeMeters>
            <DistanceMeters>NAN</DistanceMeters>
          </Trackpoint>
          <Trackpoint>
            <Time>2021-04-03T08:04:48.000Z</Time>
            <Position>
              <LatitudeDegrees>42.3036351241171360015869140625</LatitudeDegrees>
              <LongitudeDegrees>2.57689652033150196075439453125</LongitudeDegrees>
            </Position>
            <AltitudeMeters>668</AltitudeMeters>
            <DistanceMeters>NAN</DistanceMeters>
          </Trackpoint>
          <Trackpoint>
            <Time>2021-04-03T08:04:51.000Z</Time>
            <Position>
              <LatitudeDegrees>42.3036461882293224334716796875</LatitudeDegrees>
              <LongitudeDegrees>2.576881349086761474609375</LongitudeDegrees>
            </Position>
            <AltitudeMeters>668.5999755859375</AltitudeMeters>
            <DistanceMeters>NAN</DistanceMeters>
          </Trackpoint>
          <Trackpoint>
            <Time>2021-04-03T08:04:54.000Z</Time>
            <Position>
              <LatitudeDegrees>42.30365649797022342681884765625</LatitudeDegrees>
              <LongitudeDegrees>2.576872967183589935302734375</LongitudeDegrees>
            </Position>
            <AltitudeMeters>669.4000244140625</AltitudeMeters>
            <DistanceMeters>NAN</DistanceMeters>
          </Trackpoint>
          <Trackpoint>
            <Time>2021-04-03T08:04:55.000Z</Time>
            <Position>
              <LatitudeDegrees>42.30365599505603313446044921875</LatitudeDegrees>
              <LongitudeDegrees>2.5768691115081310272216796875</LongitudeDegrees>
            </Position>
            <AltitudeMeters>669.5999755859375</AltitudeMeters>
            <DistanceMeters>NAN</DistanceMeters>
          </Trackpoint>
          <Trackpoint>
            <Time>2021-04-03T08:04:58.000Z</Time>
            <Position>
              <LatitudeDegrees>42.30365775525569915771484375</LatitudeDegrees>
              <LongitudeDegrees>2.576846145093441009521484375</LongitudeDegrees>
            </Position>
            <AltitudeMeters>669.79998779296875</AltitudeMeters>
            <DistanceMeters>NAN</DistanceMeters>
          </Trackpoint>
          <Trackpoint>
            <Time>2021-04-03T08:04:59.000Z</Time>
            <Position>
              <LatitudeDegrees>42.30365934781730175018310546875</LatitudeDegrees>
              <LongitudeDegrees>2.57684069685637950897216796875</LongitudeDegrees>
            </Position>
            <AltitudeMeters>670</AltitudeMeters>
            <DistanceMeters>NAN</DistanceMeters>
          </Trackpoint>
          <Trackpoint>
            <Time>2021-04-03T08:05:01.000Z</Time>
            <Position>
              <LatitudeDegrees>42.3036651313304901123046875</LatitudeDegrees>
              <LongitudeDegrees>2.57683097384870052337646484375</LongitudeDegrees>
            </Position>
            <AltitudeMeters>670.4000244140625</AltitudeMeters>
            <DistanceMeters>NAN</DistanceMeters>
          </Trackpoint>
          <Trackpoint>
            <Time>2021-04-03T08:05:02.000Z</Time>
            <Position>
              <LatitudeDegrees>42.30366571806371212005615234375</LatitudeDegrees>
              <LongitudeDegrees>2.5768236815929412841796875</LongitudeDegrees>
            </Position>
            <AltitudeMeters>670.5999755859375</AltitudeMeters>
            <DistanceMeters>NAN</DistanceMeters>
          </Trackpoint>
          <Trackpoint>
            <Time>2021-04-03T08:05:05.000Z</Time>
            <Position>
              <LatitudeDegrees>42.3036659695208072662353515625</LatitudeDegrees>
              <LongitudeDegrees>2.57680163718760013580322265625</LongitudeDegrees>
            </Position>
            <AltitudeMeters>670.79998779296875</AltitudeMeters>
            <DistanceMeters>NAN</DistanceMeters>
          </Trackpoint>
          <Trackpoint>
            <Time>2021-04-03T08:05:10.000Z</Time>
            <Position>
              <LatitudeDegrees>42.3036538995802402496337890625</LatitudeDegrees>
              <LongitudeDegrees>2.57677297107875347137451171875</LongitudeDegrees>
            </Position>
            <AltitudeMeters>671.4000244140625</AltitudeMeters>
            <DistanceMeters>NAN</DistanceMeters>
          </Trackpoint>
          <Trackpoint>
            <Time>2021-04-03T08:05:16.000Z</Time>
            <Position>
              <LatitudeDegrees>42.30365666560828685760498046875</LatitudeDegrees>
              <LongitudeDegrees>2.576705999672412872314453125</LongitudeDegrees>
            </Position>
            <AltitudeMeters>671.5999755859375</AltitudeMeters>
            <DistanceMeters>NAN</DistanceMeters>
          </Trackpoint>
          <Trackpoint>
            <Time>2021-04-03T08:05:18.000Z</Time>
            <Position>
              <LatitudeDegrees>42.30365817435085773468017578125</LatitudeDegrees>
              <LongitudeDegrees>2.5766877271234989166259765625</LongitudeDegrees>
            </Position>
            <AltitudeMeters>671.5999755859375</AltitudeMeters>
            <DistanceMeters>NAN</DistanceMeters>
          </Trackpoint>
          <Trackpoint>
            <Time>2021-04-03T08:05:22.000Z</Time>
            <Position>
              <LatitudeDegrees>42.30366001836955547332763671875</LatitudeDegrees>
              <LongitudeDegrees>2.57664866745471954345703125</LongitudeDegrees>
            </Position>
            <AltitudeMeters>671.79998779296875</AltitudeMeters>
            <DistanceMeters>NAN</DistanceMeters>
          </Trackpoint>
          <Trackpoint>
            <Time>2021-04-03T08:05:25.000Z</Time>
            <Position>
              <LatitudeDegrees>42.30366454459726810455322265625</LatitudeDegrees>
              <LongitudeDegrees>2.5766183249652385711669921875</LongitudeDegrees>
            </Position>
            <AltitudeMeters>672.20001220703125</AltitudeMeters>
            <DistanceMeters>NAN</DistanceMeters>
          </Trackpoint>
          <Trackpoint>
            <Time>2021-04-03T08:05:27.000Z</Time>
            <Position>
              <LatitudeDegrees>42.303669489920139312744140625</LatitudeDegrees>
              <LongitudeDegrees>2.57660449482500553131103515625</LongitudeDegrees>
            </Position>
            <AltitudeMeters>672.4000244140625</AltitudeMeters>
            <DistanceMeters>NAN</DistanceMeters>
          </Trackpoint>
          <Trackpoint>
            <Time>2021-04-03T08:05:28.000Z</Time>
            <Position>
              <LatitudeDegrees>42.3036743514239788055419921875</LatitudeDegrees>
              <LongitudeDegrees>2.57659661583602428436279296875</LongitudeDegrees>
            </Position>
            <AltitudeMeters>672.5999755859375</AltitudeMeters>
            <DistanceMeters>NAN</DistanceMeters>
          </Trackpoint>
          <Trackpoint>
            <Time>2021-04-03T08:05:29.000Z</Time>
            <Position>
              <LatitudeDegrees>42.303678207099437713623046875</LatitudeDegrees>
              <LongitudeDegrees>2.57658605463802814483642578125</LongitudeDegrees>
            </Position>
            <AltitudeMeters>672.5999755859375</AltitudeMeters>
            <DistanceMeters>NAN</DistanceMeters>
          </Trackpoint>
          <Trackpoint>
            <Time>2021-04-03T08:05:32.000Z</Time>
            <Position>
              <LatitudeDegrees>42.30368047021329402923583984375</LatitudeDegrees>
              <LongitudeDegrees>2.57656610570847988128662109375</LongitudeDegrees>
            </Position>
            <AltitudeMeters>673</AltitudeMeters>
            <DistanceMeters>NAN</DistanceMeters>
          </Trackpoint>
          <Trackpoint>
            <Time>2021-04-03T08:05:35.000Z</Time>
            <Position>
              <LatitudeDegrees>42.3036746867001056671142578125</LatitudeDegrees>
              <LongitudeDegrees>2.57655479013919830322265625</LongitudeDegrees>
            </Position>
            <AltitudeMeters>673.20001220703125</AltitudeMeters>
            <DistanceMeters>NAN</DistanceMeters>
          </Trackpoint>
          <Trackpoint>
            <Time>2021-04-03T08:05:36.000Z</Time>
            <Position>
              <LatitudeDegrees>42.3036699928343296051025390625</LatitudeDegrees>
              <LongitudeDegrees>2.57654498331248760223388671875</LongitudeDegrees>
            </Position>
            <AltitudeMeters>673.20001220703125</AltitudeMeters>
            <DistanceMeters>NAN</DistanceMeters>
          </Trackpoint>
          <Trackpoint>
            <Time>2021-04-03T08:05:37.000Z</Time>
            <Position>
              <LatitudeDegrees>42.30366471223533153533935546875</LatitudeDegrees>
              <LongitudeDegrees>2.57653743959963321685791015625</LongitudeDegrees>
            </Position>
            <AltitudeMeters>673.20001220703125</AltitudeMeters>
            <DistanceMeters>NAN</DistanceMeters>
          </Trackpoint>
          <Trackpoint>
            <Time>2021-04-03T08:05:39.000Z</Time>
            <Position>
              <LatitudeDegrees>42.30365666560828685760498046875</LatitudeDegrees>
              <LongitudeDegrees>2.5765231065452098846435546875</LongitudeDegrees>
            </Position>
            <AltitudeMeters>673.20001220703125</AltitudeMeters>
            <DistanceMeters>NAN</DistanceMeters>
          </Trackpoint>
          <Trackpoint>
            <Time>2021-04-03T08:05:40.000Z</Time>
            <Position>
              <LatitudeDegrees>42.3036542348563671112060546875</LatitudeDegrees>
              <LongitudeDegrees>2.576516903936862945556640625</LongitudeDegrees>
            </Position>
            <AltitudeMeters>673.20001220703125</AltitudeMeters>
            <DistanceMeters>NAN</DistanceMeters>
          </Trackpoint>
          <Trackpoint>
            <Time>2021-04-03T08:05:44.000Z</Time>
            <Position>
              <LatitudeDegrees>42.30364928953349590301513671875</LatitudeDegrees>
              <LongitudeDegrees>2.5764889083802700042724609375</LongitudeDegrees>
            </Position>
            <AltitudeMeters>673.4000244140625</AltitudeMeters>
            <DistanceMeters>NAN</DistanceMeters>
          </Trackpoint>
          <Trackpoint>
            <Time>2021-04-03T08:05:45.000Z</Time>
            <Position>
              <LatitudeDegrees>42.303644679486751556396484375</LatitudeDegrees>
              <LongitudeDegrees>2.5764845497906208038330078125</LongitudeDegrees>
            </Position>
            <AltitudeMeters>673.5999755859375</AltitudeMeters>
            <DistanceMeters>NAN</DistanceMeters>
          </Trackpoint>
          <Trackpoint>
            <Time>2021-04-03T08:05:50.000Z</Time>
            <Position>
              <LatitudeDegrees>42.3036103136837482452392578125</LatitudeDegrees>
              <LongitudeDegrees>2.5764788500964641571044921875</LongitudeDegrees>
            </Position>
            <AltitudeMeters>673.5999755859375</AltitudeMeters>
            <DistanceMeters>NAN</DistanceMeters>
          </Trackpoint>
          <Trackpoint>
            <Time>2021-04-03T08:05:51.000Z</Time>
            <Position>
              <LatitudeDegrees>42.30360721237957477569580078125</LatitudeDegrees>
              <LongitudeDegrees>2.5764763355255126953125</LongitudeDegrees>
            </Position>
            <AltitudeMeters>673.5999755859375</AltitudeMeters>
            <DistanceMeters>NAN</DistanceMeters>
          </Trackpoint>
          <Trackpoint>
            <Time>2021-04-03T08:05:52.000Z</Time>
            <Position>
              <LatitudeDegrees>42.30359983630478382110595703125</LatitudeDegrees>
              <LongitudeDegrees>2.57647742517292499542236328125</LongitudeDegrees>
            </Position>
            <AltitudeMeters>673.5999755859375</AltitudeMeters>
            <DistanceMeters>NAN</DistanceMeters>
          </Trackpoint>
          <Trackpoint>
            <Time>2021-04-03T08:05:58.000Z</Time>
            <Position>
              <LatitudeDegrees>42.30357234366238117218017578125</LatitudeDegrees>
              <LongitudeDegrees>2.57651589810848236083984375</LongitudeDegrees>
            </Position>
            <AltitudeMeters>674</AltitudeMeters>
            <DistanceMeters>NAN</DistanceMeters>
          </Trackpoint>
          <Trackpoint>
            <Time>2021-04-03T08:06:05.000Z</Time>
            <Position>
              <LatitudeDegrees>42.30354451574385166168212890625</LatitudeDegrees>
              <LongitudeDegrees>2.57655822671949863433837890625</LongitudeDegrees>
            </Position>
            <AltitudeMeters>674.5999755859375</AltitudeMeters>
            <DistanceMeters>NAN</DistanceMeters>
          </Trackpoint>
          <Trackpoint>
            <Time>2021-04-03T08:06:07.000Z</Time>
            <Position>
              <LatitudeDegrees>42.30352875776588916778564453125</LatitudeDegrees>
              <LongitudeDegrees>2.576561830937862396240234375</LongitudeDegrees>
            </Position>
            <AltitudeMeters>674.79998779296875</AltitudeMeters>
            <DistanceMeters>NAN</DistanceMeters>
          </Trackpoint>
          <Trackpoint>
            <Time>2021-04-03T08:06:08.000Z</Time>
            <Position>
              <LatitudeDegrees>42.30351962149143218994140625</LatitudeDegrees>
              <LongitudeDegrees>2.57655889727175235748291015625</LongitudeDegrees>
            </Position>
            <AltitudeMeters>675</AltitudeMeters>
            <DistanceMeters>NAN</DistanceMeters>
          </Trackpoint>
          <Trackpoint>
            <Time>2021-04-03T08:06:18.000Z</Time>
            <Position>
              <LatitudeDegrees>42.30346404947340488433837890625</LatitudeDegrees>
              <LongitudeDegrees>2.5764734856784343719482421875</LongitudeDegrees>
            </Position>
            <AltitudeMeters>674.5999755859375</AltitudeMeters>
            <DistanceMeters>NAN</DistanceMeters>
          </Trackpoint>
          <Trackpoint>
            <Time>2021-04-03T08:06:24.000Z</Time>
            <Position>
              <LatitudeDegrees>42.30345482937991619110107421875</LatitudeDegrees>
              <LongitudeDegrees>2.57640785537660121917724609375</LongitudeDegrees>
            </Position>
            <AltitudeMeters>674.20001220703125</AltitudeMeters>
            <DistanceMeters>NAN</DistanceMeters>
          </Trackpoint>
          <Trackpoint>
            <Time>2021-04-03T08:06:28.000Z</Time>
            <Position>
              <LatitudeDegrees>42.3034473694860935211181640625</LatitudeDegrees>
              <LongitudeDegrees>2.5763725675642490386962890625</LongitudeDegrees>
            </Position>
            <AltitudeMeters>673.79998779296875</AltitudeMeters>
            <DistanceMeters>NAN</DistanceMeters>
          </Trackpoint>
          <Trackpoint>
            <Time>2021-04-03T08:06:29.000Z</Time>
            <Position>
              <LatitudeDegrees>42.30344678275287151336669921875</LatitudeDegrees>
              <LongitudeDegrees>2.5763568095862865447998046875</LongitudeDegrees>
            </Position>
            <AltitudeMeters>673.5999755859375</AltitudeMeters>
            <DistanceMeters>NAN</DistanceMeters>
          </Trackpoint>
          <Trackpoint>
            <Time>2021-04-03T08:06:34.000Z</Time>
            <Position>
              <LatitudeDegrees>42.3034285940229892730712890625</LatitudeDegrees>
              <LongitudeDegrees>2.57630526088178157806396484375</LongitudeDegrees>
            </Position>
            <AltitudeMeters>673.20001220703125</AltitudeMeters>
            <DistanceMeters>NAN</DistanceMeters>
          </Trackpoint>
          <Trackpoint>
            <Time>2021-04-03T08:06:40.000Z</Time>
            <Position>
              <LatitudeDegrees>42.3034156858921051025390625</LatitudeDegrees>
              <LongitudeDegrees>2.5762501917779445648193359375</LongitudeDegrees>
            </Position>
            <AltitudeMeters>672.79998779296875</AltitudeMeters>
            <DistanceMeters>NAN</DistanceMeters>
          </Trackpoint>
          <Trackpoint>
            <Time>2021-04-03T08:06:42.000Z</Time>
            <Position>
              <LatitudeDegrees>42.30340805836021900177001953125</LatitudeDegrees>
              <LongitudeDegrees>2.5762362778186798095703125</LongitudeDegrees>
            </Position>
            <AltitudeMeters>672.79998779296875</AltitudeMeters>
            <DistanceMeters>NAN</DistanceMeters>
          </Trackpoint>
          <Trackpoint>
            <Time>2021-04-03T08:06:45.000Z</Time>
            <Position>
              <LatitudeDegrees>42.30339699424803256988525390625</LatitudeDegrees>
              <LongitudeDegrees>2.5762089528143405914306640625</LongitudeDegrees>
            </Position>
            <AltitudeMeters>672.4000244140625</AltitudeMeters>
            <DistanceMeters>NAN</DistanceMeters>
          </Trackpoint>
          <Trackpoint>
            <Time>2021-04-03T08:06:48.000Z</Time>
            <Position>
              <LatitudeDegrees>42.303381823003292083740234375</LatitudeDegrees>
              <LongitudeDegrees>2.57617450319230556488037109375</LongitudeDegrees>
            </Position>
            <AltitudeMeters>672.20001220703125</AltitudeMeters>
            <DistanceMeters>NAN</DistanceMeters>
          </Trackpoint>
          <Trackpoint>
            <Time>2021-04-03T08:06:50.000Z</Time>
            <Position>
              <LatitudeDegrees>42.30338090099394321441650390625</LatitudeDegrees>
              <LongitudeDegrees>2.57615740410983562469482421875</LongitudeDegrees>
            </Position>
            <AltitudeMeters>672.20001220703125</AltitudeMeters>
            <DistanceMeters>NAN</DistanceMeters>
          </Trackpoint>
          <Trackpoint>
            <Time>2021-04-03T08:06:59.000Z</Time>
            <Position>
              <LatitudeDegrees>42.3033593595027923583984375</LatitudeDegrees>
              <LongitudeDegrees>2.5760969705879688262939453125</LongitudeDegrees>
            </Position>
            <AltitudeMeters>673</AltitudeMeters>
            <DistanceMeters>NAN</DistanceMeters>
          </Trackpoint>
          <Trackpoint>
            <Time>2021-04-03T08:07:03.000Z</Time>
            <Position>
              <LatitudeDegrees>42.3033467866480350494384765625</LatitudeDegrees>
              <LongitudeDegrees>2.57607928477227687835693359375</LongitudeDegrees>
            </Position>
            <AltitudeMeters>673.4000244140625</AltitudeMeters>
            <DistanceMeters>NAN</DistanceMeters>
          </Trackpoint>
          <Trackpoint>
            <Time>2021-04-03T08:07:08.000Z</Time>
            <Position>
              <LatitudeDegrees>42.303317449986934661865234375</LatitudeDegrees>
              <LongitudeDegrees>2.57604743354022502899169921875</LongitudeDegrees>
            </Position>
            <AltitudeMeters>673.79998779296875</AltitudeMeters>
            <DistanceMeters>NAN</DistanceMeters>
          </Trackpoint>
          <Trackpoint>
            <Time>2021-04-03T08:07:14.000Z</Time>
            <Position>
              <LatitudeDegrees>42.3032797314226627349853515625</LatitudeDegrees>
              <LongitudeDegrees>2.57602547295391559600830078125</LongitudeDegrees>
            </Position>
            <AltitudeMeters>674.4000244140625</AltitudeMeters>
            <DistanceMeters>NAN</DistanceMeters>
          </Trackpoint>
          <Trackpoint>
            <Time>2021-04-03T08:07:15.000Z</Time>
            <Position>
              <LatitudeDegrees>42.30327143333852291107177734375</LatitudeDegrees>
              <LongitudeDegrees>2.57602312602102756500244140625</LongitudeDegrees>
            </Position>
            <AltitudeMeters>674.5999755859375</AltitudeMeters>
            <DistanceMeters>NAN</DistanceMeters>
          </Trackpoint>
          <Trackpoint>
            <Time>2021-04-03T08:07:22.000Z</Time>
            <Position>
              <LatitudeDegrees>42.3032592795789241790771484375</LatitudeDegrees>
              <LongitudeDegrees>2.57596512325108051300048828125</LongitudeDegrees>
            </Position>
            <AltitudeMeters>675.20001220703125</AltitudeMeters>
            <DistanceMeters>NAN</DistanceMeters>
          </Trackpoint>
          <Trackpoint>
            <Time>2021-04-03T08:07:24.000Z</Time>
            <Position>
              <LatitudeDegrees>42.30325802229344844818115234375</LatitudeDegrees>
              <LongitudeDegrees>2.575951628386974334716796875</LongitudeDegrees>
            </Position>
            <AltitudeMeters>675.5999755859375</AltitudeMeters>
            <DistanceMeters>NAN</DistanceMeters>
          </Trackpoint>
          <Trackpoint>
            <Time>2021-04-03T08:07:30.000Z</Time>
            <Position>
              <LatitudeDegrees>42.30325684882700443267822265625</LatitudeDegrees>
              <LongitudeDegrees>2.57590703666210174560546875</LongitudeDegrees>
            </Position>
            <AltitudeMeters>676.20001220703125</AltitudeMeters>
            <DistanceMeters>NAN</DistanceMeters>
          </Trackpoint>
          <Trackpoint>
            <Time>2021-04-03T08:07:32.000Z</Time>
            <Position>
              <LatitudeDegrees>42.30324469506740570068359375</LatitudeDegrees>
              <LongitudeDegrees>2.57588448934257030487060546875</LongitudeDegrees>
            </Position>
            <AltitudeMeters>676.5999755859375</AltitudeMeters>
            <DistanceMeters>NAN</DistanceMeters>
          </Trackpoint>
          <Trackpoint>
            <Time>2021-04-03T08:07:37.000Z</Time>
            <Position>
              <LatitudeDegrees>42.3032163642346858978271484375</LatitudeDegrees>
              <LongitudeDegrees>2.5758304260671138763427734375</LongitudeDegrees>
            </Position>
            <AltitudeMeters>677</AltitudeMeters>
            <DistanceMeters>NAN</DistanceMeters>
          </Trackpoint>
          <Trackpoint>
            <Time>2021-04-03T08:07:40.000Z</Time>
            <Position>
              <LatitudeDegrees>42.3032156936824321746826171875</LatitudeDegrees>
              <LongitudeDegrees>2.57580888457596302032470703125</LongitudeDegrees>
            </Position>
            <AltitudeMeters>677.4000244140625</AltitudeMeters>
            <DistanceMeters>NAN</DistanceMeters>
          </Trackpoint>
          <Trackpoint>
            <Time>2021-04-03T08:07:41.000Z</Time>
            <Position>
              <LatitudeDegrees>42.30321787297725677490234375</LatitudeDegrees>
              <LongitudeDegrees>2.57580435834825038909912109375</LongitudeDegrees>
            </Position>
            <AltitudeMeters>677.5999755859375</AltitudeMeters>
            <DistanceMeters>NAN</DistanceMeters>
          </Trackpoint>
          <Trackpoint>
            <Time>2021-04-03T08:07:44.000Z</Time>
            <Position>
              <LatitudeDegrees>42.303228266537189483642578125</LatitudeDegrees>
              <LongitudeDegrees>2.5757901929318904876708984375</LongitudeDegrees>
            </Position>
            <AltitudeMeters>678.20001220703125</AltitudeMeters>
            <DistanceMeters>NAN</DistanceMeters>
          </Trackpoint>
          <Trackpoint>
            <Time>2021-04-03T08:07:46.000Z</Time>
            <Position>
              <LatitudeDegrees>42.30322667397558689117431640625</LatitudeDegrees>
              <LongitudeDegrees>2.5757808052003383636474609375</LongitudeDegrees>
            </Position>
            <AltitudeMeters>678.5999755859375</AltitudeMeters>
            <DistanceMeters>NAN</DistanceMeters>
          </Trackpoint>
          <Trackpoint>
            <Time>2021-04-03T08:07:47.000Z</Time>
            <Position>
              <LatitudeDegrees>42.30322298593819141387939453125</LatitudeDegrees>
              <LongitudeDegrees>2.57577267475426197052001953125</LongitudeDegrees>
            </Position>
            <AltitudeMeters>678.5999755859375</AltitudeMeters>
            <DistanceMeters>NAN</DistanceMeters>
          </Trackpoint>
          <Trackpoint>
            <Time>2021-04-03T08:07:50.000Z</Time>
            <Position>
              <LatitudeDegrees>42.303209491074085235595703125</LatitudeDegrees>
              <LongitudeDegrees>2.57574903778731822967529296875</LongitudeDegrees>
            </Position>
            <AltitudeMeters>679</AltitudeMeters>
            <DistanceMeters>NAN</DistanceMeters>
          </Trackpoint>
          <Trackpoint>
            <Time>2021-04-03T08:07:56.000Z</Time>
            <Position>
              <LatitudeDegrees>42.303229607641696929931640625</LatitudeDegrees>
              <LongitudeDegrees>2.575707547366619110107421875</LongitudeDegrees>
            </Position>
            <AltitudeMeters>679.5999755859375</AltitudeMeters>
            <DistanceMeters>NAN</DistanceMeters>
          </Trackpoint>
          <Trackpoint>
            <Time>2021-04-03T08:07:57.000Z</Time>
            <Position>
              <LatitudeDegrees>42.3032319545745849609375</LatitudeDegrees>
              <LongitudeDegrees>2.57570243440568447113037109375</LongitudeDegrees>
            </Position>
            <AltitudeMeters>679.79998779296875</AltitudeMeters>
            <DistanceMeters>NAN</DistanceMeters>
          </Trackpoint>
          <Trackpoint>
            <Time>2021-04-03T08:08:02.000Z</Time>
            <Position>
              <LatitudeDegrees>42.303245030343532562255859375</LatitudeDegrees>
              <LongitudeDegrees>2.5756715051829814910888671875</LongitudeDegrees>
            </Position>
            <AltitudeMeters>680.5999755859375</AltitudeMeters>
            <DistanceMeters>NAN</DistanceMeters>
          </Trackpoint>
          <Trackpoint>
            <Time>2021-04-03T08:08:04.000Z</Time>
            <Position>
              <LatitudeDegrees>42.30324729345738887786865234375</LatitudeDegrees>
              <LongitudeDegrees>2.5756577588617801666259765625</LongitudeDegrees>
            </Position>
            <AltitudeMeters>680.79998779296875</AltitudeMeters>
            <DistanceMeters>NAN</DistanceMeters>
          </Trackpoint>
          <Trackpoint>
            <Time>2021-04-03T08:08:09.000Z</Time>
            <Position>
              <LatitudeDegrees>42.30323974974453449249267578125</LatitudeDegrees>
              <LongitudeDegrees>2.575612328946590423583984375</LongitudeDegrees>
            </Position>
            <AltitudeMeters>681.4000244140625</AltitudeMeters>
            <DistanceMeters>NAN</DistanceMeters>
          </Trackpoint>
          <Trackpoint>
            <Time>2021-04-03T08:08:14.000Z</Time>
            <Position>
              <LatitudeDegrees>42.3032118380069732666015625</LatitudeDegrees>
              <LongitudeDegrees>2.57553731091320514678955078125</LongitudeDegrees>
            </Position>
            <AltitudeMeters>681.79998779296875</AltitudeMeters>
            <DistanceMeters>NAN</DistanceMeters>
          </Trackpoint>
          <Trackpoint>
            <Time>2021-04-03T08:08:16.000Z</Time>
            <Position>
              <LatitudeDegrees>42.30320974253118038177490234375</LatitudeDegrees>
              <LongitudeDegrees>2.5755129195749759674072265625</LongitudeDegrees>
            </Position>
            <AltitudeMeters>682</AltitudeMeters>
            <DistanceMeters>NAN</DistanceMeters>
          </Trackpoint>
          <Trackpoint>
            <Time>2021-04-03T08:08:21.000Z</Time>
            <Position>
              <LatitudeDegrees>42.3031957447528839111328125</LatitudeDegrees>
              <LongitudeDegrees>2.57546992041170597076416015625</LongitudeDegrees>
            </Position>
            <AltitudeMeters>682.5999755859375</AltitudeMeters>
            <DistanceMeters>NAN</DistanceMeters>
          </Trackpoint>
          <Trackpoint>
            <Time>2021-04-03T08:08:22.000Z</Time>
            <Position>
              <LatitudeDegrees>42.30319281108677387237548828125</LatitudeDegrees>
              <LongitudeDegrees>2.5754589401185512542724609375</LongitudeDegrees>
            </Position>
            <AltitudeMeters>682.79998779296875</AltitudeMeters>
            <DistanceMeters>NAN</DistanceMeters>
          </Trackpoint>
          <Trackpoint>
            <Time>2021-04-03T08:08:24.000Z</Time>
            <Position>
              <LatitudeDegrees>42.3032037913799285888671875</LatitudeDegrees>
              <LongitudeDegrees>2.57543756626546382904052734375</LongitudeDegrees>
            </Position>
            <AltitudeMeters>682.79998779296875</AltitudeMeters>
            <DistanceMeters>NAN</DistanceMeters>
          </Trackpoint>
          <Trackpoint>
            <Time>2021-04-03T08:08:28.000Z</Time>
            <Position>
              <LatitudeDegrees>42.30319834314286708831787109375</LatitudeDegrees>
              <LongitudeDegrees>2.57541158236563205718994140625</LongitudeDegrees>
            </Position>
            <AltitudeMeters>683</AltitudeMeters>
            <DistanceMeters>NAN</DistanceMeters>
          </Trackpoint>
          <Trackpoint>
            <Time>2021-04-03T08:08:34.000Z</Time>
            <Position>
              <LatitudeDegrees>42.30320270173251628875732421875</LatitudeDegrees>
              <LongitudeDegrees>2.575357519090175628662109375</LongitudeDegrees>
            </Position>
            <AltitudeMeters>683.4000244140625</AltitudeMeters>
            <DistanceMeters>NAN</DistanceMeters>
          </Trackpoint>
          <Trackpoint>
            <Time>2021-04-03T08:08:36.000Z</Time>
            <Position>
              <LatitudeDegrees>42.30319968424737453460693359375</LatitudeDegrees>
              <LongitudeDegrees>2.57534167729318141937255859375</LongitudeDegrees>
            </Position>
            <AltitudeMeters>683.4000244140625</AltitudeMeters>
            <DistanceMeters>NAN</DistanceMeters>
          </Trackpoint>
          <Trackpoint>
            <Time>2021-04-03T08:08:41.000Z</Time>
            <Position>
              <LatitudeDegrees>42.30320421047508716583251953125</LatitudeDegrees>
              <LongitudeDegrees>2.5752970017492771148681640625</LongitudeDegrees>
            </Position>
            <AltitudeMeters>683.5999755859375</AltitudeMeters>
            <DistanceMeters>NAN</DistanceMeters>
          </Trackpoint>
          <Trackpoint>
            <Time>2021-04-03T08:08:42.000Z</Time>
            <Position>
              <LatitudeDegrees>42.30320739559829235076904296875</LatitudeDegrees>
              <LongitudeDegrees>2.57528836838901042938232421875</LongitudeDegrees>
            </Position>
            <AltitudeMeters>683.79998779296875</AltitudeMeters>
            <DistanceMeters>NAN</DistanceMeters>
          </Trackpoint>
          <Trackpoint>
            <Time>2021-04-03T08:08:45.000Z</Time>
            <Position>
              <LatitudeDegrees>42.3032163642346858978271484375</LatitudeDegrees>
              <LongitudeDegrees>2.57526171393692493438720703125</LongitudeDegrees>
            </Position>
            <AltitudeMeters>683.79998779296875</AltitudeMeters>
            <DistanceMeters>NAN</DistanceMeters>
          </Trackpoint>
          <Trackpoint>
            <Time>2021-04-03T08:08:46.000Z</Time>
            <Position>
              <LatitudeDegrees>42.30321862734854221343994140625</LatitudeDegrees>
              <LongitudeDegrees>2.575252242386341094970703125</LongitudeDegrees>
            </Position>
            <AltitudeMeters>684</AltitudeMeters>
            <DistanceMeters>NAN</DistanceMeters>
          </Trackpoint>
          <Trackpoint>
            <Time>2021-04-03T08:08:51.000Z</Time>
            <Position>
              <LatitudeDegrees>42.303196750581264495849609375</LatitudeDegrees>
              <LongitudeDegrees>2.575213350355625152587890625</LongitudeDegrees>
            </Position>
            <AltitudeMeters>684.20001220703125</AltitudeMeters>
            <DistanceMeters>NAN</DistanceMeters>
          </Trackpoint>
          <Trackpoint>
            <Time>2021-04-03T08:08:54.000Z</Time>
            <Position>
              <LatitudeDegrees>42.3031949065625667572021484375</LatitudeDegrees>
              <LongitudeDegrees>2.57518979720771312713623046875</LongitudeDegrees>
            </Position>
            <AltitudeMeters>684.20001220703125</AltitudeMeters>
            <DistanceMeters>NAN</DistanceMeters>
          </Trackpoint>
          <Trackpoint>
            <Time>2021-04-03T08:08:58.000Z</Time>
            <Position>
              <LatitudeDegrees>42.3031850159168243408203125</LatitudeDegrees>
              <LongitudeDegrees>2.57515157572925090789794921875</LongitudeDegrees>
            </Position>
            <AltitudeMeters>684.4000244140625</AltitudeMeters>
            <DistanceMeters>NAN</DistanceMeters>
          </Trackpoint>
          <Trackpoint>
            <Time>2021-04-03T08:09:00.000Z</Time>
            <Position>
              <LatitudeDegrees>42.30317302979528903961181640625</LatitudeDegrees>
              <LongitudeDegrees>2.57513456046581268310546875</LongitudeDegrees>
            </Position>
            <AltitudeMeters>684.5999755859375</AltitudeMeters>
            <DistanceMeters>NAN</DistanceMeters>
          </Trackpoint>
          <Trackpoint>
            <Time>2021-04-03T08:09:04.000Z</Time>
            <Position>
              <LatitudeDegrees>42.30315123684704303741455078125</LatitudeDegrees>
              <LongitudeDegrees>2.57509910501539707183837890625</LongitudeDegrees>
            </Position>
            <AltitudeMeters>684.79998779296875</AltitudeMeters>
            <DistanceMeters>NAN</DistanceMeters>
          </Trackpoint>
          <Trackpoint>
            <Time>2021-04-03T08:09:07.000Z</Time>
            <Position>
              <LatitudeDegrees>42.30315324850380420684814453125</LatitudeDegrees>
              <LongitudeDegrees>2.5750753842294216156005859375</LongitudeDegrees>
            </Position>
            <AltitudeMeters>685</AltitudeMeters>
            <DistanceMeters>NAN</DistanceMeters>
          </Trackpoint>
          <Trackpoint>
            <Time>2021-04-03T08:09:09.000Z</Time>
            <Position>
              <LatitudeDegrees>42.303145118057727813720703125</LatitudeDegrees>
              <LongitudeDegrees>2.57505283690989017486572265625</LongitudeDegrees>
            </Position>
            <AltitudeMeters>685</AltitudeMeters>
            <DistanceMeters>NAN</DistanceMeters>
          </Trackpoint>
          <Trackpoint>
            <Time>2021-04-03T08:09:11.000Z</Time>
            <Position>
              <LatitudeDegrees>42.3031221516430377960205078125</LatitudeDegrees>
              <LongitudeDegrees>2.57500858046114444732666015625</LongitudeDegrees>
            </Position>
            <AltitudeMeters>685.20001220703125</AltitudeMeters>
            <DistanceMeters>NAN</DistanceMeters>
          </Trackpoint>
          <Trackpoint>
            <Time>2021-04-03T08:09:19.000Z</Time>
            <Position>
              <LatitudeDegrees>42.3031087405979633331298828125</LatitudeDegrees>
              <LongitudeDegrees>2.57491252385079860687255859375</LongitudeDegrees>
            </Position>
            <AltitudeMeters>685.5999755859375</AltitudeMeters>
            <DistanceMeters>NAN</DistanceMeters>
          </Trackpoint>
          <Trackpoint>
            <Time>2021-04-03T08:09:22.000Z</Time>
            <Position>
              <LatitudeDegrees>42.30309658683836460113525390625</LatitudeDegrees>
              <LongitudeDegrees>2.5748909823596477508544921875</LongitudeDegrees>
            </Position>
            <AltitudeMeters>685.79998779296875</AltitudeMeters>
            <DistanceMeters>NAN</DistanceMeters>
          </Trackpoint>
          <Trackpoint>
            <Time>2021-04-03T08:09:24.000Z</Time>
            <Position>
              <LatitudeDegrees>42.30308854021131992340087890625</LatitudeDegrees>
              <LongitudeDegrees>2.57486910559237003326416015625</LongitudeDegrees>
            </Position>
            <AltitudeMeters>685.79998779296875</AltitudeMeters>
            <DistanceMeters>NAN</DistanceMeters>
          </Trackpoint>
          <Trackpoint>
            <Time>2021-04-03T08:09:26.000Z</Time>
            <Position>
              <LatitudeDegrees>42.30309105478227138519287109375</LatitudeDegrees>
              <LongitudeDegrees>2.574848234653472900390625</LongitudeDegrees>
            </Position>
            <AltitudeMeters>686</AltitudeMeters>
            <DistanceMeters>NAN</DistanceMeters>
          </Trackpoint>
          <Trackpoint>
            <Time>2021-04-03T08:09:35.000Z</Time>
            <Position>
              <LatitudeDegrees>42.30308183468878269195556640625</LatitudeDegrees>
              <LongitudeDegrees>2.57474522106349468231201171875</LongitudeDegrees>
            </Position>
            <AltitudeMeters>686.4000244140625</AltitudeMeters>
            <DistanceMeters>NAN</DistanceMeters>
          </Trackpoint>
          <Trackpoint>
            <Time>2021-04-03T08:09:48.000Z</Time>
            <Position>
              <LatitudeDegrees>42.30309038423001766204833984375</LatitudeDegrees>
              <LongitudeDegrees>2.57459007203578948974609375</LongitudeDegrees>
            </Position>
            <AltitudeMeters>686.5999755859375</AltitudeMeters>
            <DistanceMeters>NAN</DistanceMeters>
          </Trackpoint>
          <Trackpoint>
            <Time>2021-04-03T08:09:56.000Z</Time>
            <Position>
              <LatitudeDegrees>42.30310413055121898651123046875</LatitudeDegrees>
              <LongitudeDegrees>2.5745057500898838043212890625</LongitudeDegrees>
            </Position>
            <AltitudeMeters>686.79998779296875</AltitudeMeters>
            <DistanceMeters>NAN</DistanceMeters>
          </Trackpoint>
          <Trackpoint>
            <Time>2021-04-03T08:10:03.000Z</Time>
            <Position>
              <LatitudeDegrees>42.30311603285372257232666015625</LatitudeDegrees>
              <LongitudeDegrees>2.5744338333606719970703125</LongitudeDegrees>
            </Position>
            <AltitudeMeters>687.20001220703125</AltitudeMeters>
            <DistanceMeters>NAN</DistanceMeters>
          </Trackpoint>
          <Trackpoint>
            <Time>2021-04-03T08:10:06.000Z</Time>
            <Position>
              <LatitudeDegrees>42.30311335064470767974853515625</LatitudeDegrees>
              <LongitudeDegrees>2.57440441288053989410400390625</LongitudeDegrees>
            </Position>
            <AltitudeMeters>687.20001220703125</AltitudeMeters>
            <DistanceMeters>NAN</DistanceMeters>
          </Trackpoint>
          <Trackpoint>
            <Time>2021-04-03T08:10:07.000Z</Time>
            <Position>
              <LatitudeDegrees>42.30311385355889797210693359375</LatitudeDegrees>
              <LongitudeDegrees>2.574392259120941162109375</LongitudeDegrees>
            </Position>
            <AltitudeMeters>687.20001220703125</AltitudeMeters>
            <DistanceMeters>NAN</DistanceMeters>
          </Trackpoint>
          <Trackpoint>
            <Time>2021-04-03T08:10:10.000Z</Time>
            <Position>
              <LatitudeDegrees>42.3031174577772617340087890625</LatitudeDegrees>
              <LongitudeDegrees>2.57436300627887248992919921875</LongitudeDegrees>
            </Position>
            <AltitudeMeters>687.4000244140625</AltitudeMeters>
            <DistanceMeters>NAN</DistanceMeters>
          </Trackpoint>
          <Trackpoint>
            <Time>2021-04-03T08:10:11.000Z</Time>
            <Position>
              <LatitudeDegrees>42.30311955325305461883544921875</LatitudeDegrees>
              <LongitudeDegrees>2.57435479201376438140869140625</LongitudeDegrees>
            </Position>
            <AltitudeMeters>687.5999755859375</AltitudeMeters>
            <DistanceMeters>NAN</DistanceMeters>
          </Trackpoint>
          <Trackpoint>
            <Time>2021-04-03T08:10:16.000Z</Time>
            <Position>
              <LatitudeDegrees>42.30312592349946498870849609375</LatitudeDegrees>
              <LongitudeDegrees>2.57431170903146266937255859375</LongitudeDegrees>
            </Position>
            <AltitudeMeters>688</AltitudeMeters>
            <DistanceMeters>NAN</DistanceMeters>
          </Trackpoint>
          <Trackpoint>
            <Time>2021-04-03T08:10:17.000Z</Time>
            <Position>
              <LatitudeDegrees>42.30312609113752841949462890625</LatitudeDegrees>
              <LongitudeDegrees>2.5743024051189422607421875</LongitudeDegrees>
            </Position>
            <AltitudeMeters>688</AltitudeMeters>
            <DistanceMeters>NAN</DistanceMeters>
          </Trackpoint>
          <Trackpoint>
            <Time>2021-04-03T08:10:19.000Z</Time>
            <Position>
              <LatitudeDegrees>42.3031275160610675811767578125</LatitudeDegrees>
              <LongitudeDegrees>2.57428505457937717437744140625</LongitudeDegrees>
            </Position>
            <AltitudeMeters>688.20001220703125</AltitudeMeters>
            <DistanceMeters>NAN</DistanceMeters>
          </Trackpoint>
          <Trackpoint>
            <Time>2021-04-03T08:10:20.000Z</Time>
            <Position>
              <LatitudeDegrees>42.30312801897525787353515625</LatitudeDegrees>
              <LongitudeDegrees>2.5742767564952373504638671875</LongitudeDegrees>
            </Position>
            <AltitudeMeters>688.20001220703125</AltitudeMeters>
            <DistanceMeters>NAN</DistanceMeters>
          </Trackpoint>
          <Trackpoint>
            <Time>2021-04-03T08:10:22.000Z</Time>
            <Position>
              <LatitudeDegrees>42.3031260073184967041015625</LatitudeDegrees>
              <LongitudeDegrees>2.574261166155338287353515625</LongitudeDegrees>
            </Position>
            <AltitudeMeters>688.20001220703125</AltitudeMeters>
            <DistanceMeters>NAN</DistanceMeters>
          </Trackpoint>
          <Trackpoint>
            <Time>2021-04-03T08:10:25.000Z</Time>
            <Position>
              <LatitudeDegrees>42.30312977917492389678955078125</LatitudeDegrees>
              <LongitudeDegrees>2.5742341764271259307861328125</LongitudeDegrees>
            </Position>
            <AltitudeMeters>688.4000244140625</AltitudeMeters>
            <DistanceMeters>NAN</DistanceMeters>
          </Trackpoint>
          <Trackpoint>
            <Time>2021-04-03T08:10:27.000Z</Time>
            <Position>
              <LatitudeDegrees>42.30313070118427276611328125</LatitudeDegrees>
              <LongitudeDegrees>2.57422135211527347564697265625</LongitudeDegrees>
            </Position>
            <AltitudeMeters>688.5999755859375</AltitudeMeters>
            <DistanceMeters>NAN</DistanceMeters>
          </Trackpoint>
          <Trackpoint>
            <Time>2021-04-03T08:10:29.000Z</Time>
            <Position>
              <LatitudeDegrees>42.30312810279428958892822265625</LatitudeDegrees>
              <LongitudeDegrees>2.5742120482027530670166015625</LongitudeDegrees>
            </Position>
            <AltitudeMeters>689</AltitudeMeters>
            <DistanceMeters>NAN</DistanceMeters>
          </Trackpoint>
          <Trackpoint>
            <Time>2021-04-03T08:10:31.000Z</Time>
            <Position>
              <LatitudeDegrees>42.3031167872250080108642578125</LatitudeDegrees>
              <LongitudeDegrees>2.5741966255009174346923828125</LongitudeDegrees>
            </Position>
            <AltitudeMeters>689.20001220703125</AltitudeMeters>
            <DistanceMeters>NAN</DistanceMeters>
          </Trackpoint>
          <Trackpoint>
            <Time>2021-04-03T08:10:33.000Z</Time>
            <Position>
              <LatitudeDegrees>42.30311703868210315704345703125</LatitudeDegrees>
              <LongitudeDegrees>2.57418103516101837158203125</LongitudeDegrees>
            </Position>
            <AltitudeMeters>689.4000244140625</AltitudeMeters>
            <DistanceMeters>NAN</DistanceMeters>
          </Trackpoint>
          <Trackpoint>
            <Time>2021-04-03T08:10:34.000Z</Time>
            <Position>
              <LatitudeDegrees>42.30312022380530834197998046875</LatitudeDegrees>
              <LongitudeDegrees>2.574178017675876617431640625</LongitudeDegrees>
            </Position>
            <AltitudeMeters>689.4000244140625</AltitudeMeters>
            <DistanceMeters>NAN</DistanceMeters>
          </Trackpoint>
          <Trackpoint>
            <Time>2021-04-03T08:10:35.000Z</Time>
            <Position>
              <LatitudeDegrees>42.30312139727175235748291015625</LatitudeDegrees>
              <LongitudeDegrees>2.57417298853397369384765625</LongitudeDegrees>
            </Position>
            <AltitudeMeters>689.4000244140625</AltitudeMeters>
            <DistanceMeters>NAN</DistanceMeters>
          </Trackpoint>
          <Trackpoint>
            <Time>2021-04-03T08:10:36.000Z</Time>
            <Position>
              <LatitudeDegrees>42.3031221516430377960205078125</LatitudeDegrees>
              <LongitudeDegrees>2.57417072542011737823486328125</LongitudeDegrees>
            </Position>
            <AltitudeMeters>689.4000244140625</AltitudeMeters>
            <DistanceMeters>NAN</DistanceMeters>
          </Trackpoint>
          <Trackpoint>
            <Time>2021-04-03T08:10:39.000Z</Time>
            <Position>
              <LatitudeDegrees>42.30312525294721126556396484375</LatitudeDegrees>
              <LongitudeDegrees>2.574142478406429290771484375</LongitudeDegrees>
            </Position>
            <AltitudeMeters>689.4000244140625</AltitudeMeters>
            <DistanceMeters>NAN</DistanceMeters>
          </Trackpoint>
          <Trackpoint>
            <Time>2021-04-03T08:10:44.000Z</Time>
            <Position>
              <LatitudeDegrees>42.3031255044043064117431640625</LatitudeDegrees>
              <LongitudeDegrees>2.5741010718047618865966796875</LongitudeDegrees>
            </Position>
            <AltitudeMeters>689.5999755859375</AltitudeMeters>
            <DistanceMeters>NAN</DistanceMeters>
          </Trackpoint>
          <Trackpoint>
            <Time>2021-04-03T08:10:52.000Z</Time>
            <Position>
              <LatitudeDegrees>42.30312391184270381927490234375</LatitudeDegrees>
              <LongitudeDegrees>2.57402420975267887115478515625</LongitudeDegrees>
            </Position>
            <AltitudeMeters>690.20001220703125</AltitudeMeters>
            <DistanceMeters>NAN</DistanceMeters>
          </Trackpoint>
          <Trackpoint>
            <Time>2021-04-03T08:10:53.000Z</Time>
            <Position>
              <LatitudeDegrees>42.30312542058527469635009765625</LatitudeDegrees>
              <LongitudeDegrees>2.57401742041110992431640625</LongitudeDegrees>
            </Position>
            <AltitudeMeters>690.20001220703125</AltitudeMeters>
            <DistanceMeters>NAN</DistanceMeters>
          </Trackpoint>
          <Trackpoint>
            <Time>2021-04-03T08:10:59.000Z</Time>
            <Position>
              <LatitudeDegrees>42.30312223546206951141357421875</LatitudeDegrees>
              <LongitudeDegrees>2.57397207431495189666748046875</LongitudeDegrees>
            </Position>
            <AltitudeMeters>690.79998779296875</AltitudeMeters>
            <DistanceMeters>NAN</DistanceMeters>
          </Trackpoint>
          <Trackpoint>
            <Time>2021-04-03T08:11:04.000Z</Time>
            <Position>
              <LatitudeDegrees>42.3031261749565601348876953125</LatitudeDegrees>
              <LongitudeDegrees>2.57392731495201587677001953125</LongitudeDegrees>
            </Position>
            <AltitudeMeters>691.20001220703125</AltitudeMeters>
            <DistanceMeters>NAN</DistanceMeters>
          </Trackpoint>
          <Trackpoint>
            <Time>2021-04-03T08:11:09.000Z</Time>
            <Position>
              <LatitudeDegrees>42.3031221516430377960205078125</LatitudeDegrees>
              <LongitudeDegrees>2.573876269161701202392578125</LongitudeDegrees>
            </Position>
            <AltitudeMeters>691.5999755859375</AltitudeMeters>
            <DistanceMeters>NAN</DistanceMeters>
          </Trackpoint>
          <Trackpoint>
            <Time>2021-04-03T08:11:16.000Z</Time>
            <Position>
              <LatitudeDegrees>42.30312265455722808837890625</LatitudeDegrees>
              <LongitudeDegrees>2.57380577735602855682373046875</LongitudeDegrees>
            </Position>
            <AltitudeMeters>692.4000244140625</AltitudeMeters>
            <DistanceMeters>NAN</DistanceMeters>
          </Trackpoint>
          <Trackpoint>
            <Time>2021-04-03T08:11:20.000Z</Time>
            <Position>
              <LatitudeDegrees>42.3031211458146572113037109375</LatitudeDegrees>
              <LongitudeDegrees>2.5737654604017734527587890625</LongitudeDegrees>
            </Position>
            <AltitudeMeters>692.4000244140625</AltitudeMeters>
            <DistanceMeters>NAN</DistanceMeters>
          </Trackpoint>
          <Trackpoint>
            <Time>2021-04-03T08:11:26.000Z</Time>
            <Position>
              <LatitudeDegrees>42.3030929826200008392333984375</LatitudeDegrees>
              <LongitudeDegrees>2.5737466849386692047119140625</LongitudeDegrees>
            </Position>
            <AltitudeMeters>692.5999755859375</AltitudeMeters>
            <DistanceMeters>NAN</DistanceMeters>
          </Trackpoint>
          <Trackpoint>
            <Time>2021-04-03T08:11:36.000Z</Time>
            <Position>
              <LatitudeDegrees>42.30301536619663238525390625</LatitudeDegrees>
              <LongitudeDegrees>2.57374827750027179718017578125</LongitudeDegrees>
            </Position>
            <AltitudeMeters>693.20001220703125</AltitudeMeters>
            <DistanceMeters>NAN</DistanceMeters>
          </Trackpoint>
          <Trackpoint>
            <Time>2021-04-03T08:11:43.000Z</Time>
            <Position>
              <LatitudeDegrees>42.3029659129679203033447265625</LatitudeDegrees>
              <LongitudeDegrees>2.57378113456070423126220703125</LongitudeDegrees>
            </Position>
            <AltitudeMeters>693.4000244140625</AltitudeMeters>
            <DistanceMeters>NAN</DistanceMeters>
          </Trackpoint>
          <Trackpoint>
            <Time>2021-04-03T08:11:46.000Z</Time>
            <Position>
              <LatitudeDegrees>42.30294319801032543182373046875</LatitudeDegrees>
              <LongitudeDegrees>2.5737748481333255767822265625</LongitudeDegrees>
            </Position>
            <AltitudeMeters>693.5999755859375</AltitudeMeters>
            <DistanceMeters>NAN</DistanceMeters>
          </Trackpoint>
          <Trackpoint>
            <Time>2021-04-03T08:11:52.000Z</Time>
            <Position>
              <LatitudeDegrees>42.30290673673152923583984375</LatitudeDegrees>
              <LongitudeDegrees>2.57375112734735012054443359375</LongitudeDegrees>
            </Position>
            <AltitudeMeters>693.79998779296875</AltitudeMeters>
            <DistanceMeters>NAN</DistanceMeters>
          </Trackpoint>
          <Trackpoint>
            <Time>2021-04-03T08:12:01.000Z</Time>
            <Position>
              <LatitudeDegrees>42.3028202354907989501953125</LatitudeDegrees>
              <LongitudeDegrees>2.57372916676104068756103515625</LongitudeDegrees>
            </Position>
            <AltitudeMeters>694</AltitudeMeters>
            <DistanceMeters>NAN</DistanceMeters>
          </Trackpoint>
          <Trackpoint>
            <Time>2021-04-03T08:12:07.000Z</Time>
            <Position>
              <LatitudeDegrees>42.30278410948812961578369140625</LatitudeDegrees>
              <LongitudeDegrees>2.57366429083049297332763671875</LongitudeDegrees>
            </Position>
            <AltitudeMeters>693.79998779296875</AltitudeMeters>
            <DistanceMeters>NAN</DistanceMeters>
          </Trackpoint>
          <Trackpoint>
            <Time>2021-04-03T08:12:10.000Z</Time>
            <Position>
              <LatitudeDegrees>42.3027717880904674530029296875</LatitudeDegrees>
              <LongitudeDegrees>2.57362891919910907745361328125</LongitudeDegrees>
            </Position>
            <AltitudeMeters>693.79998779296875</AltitudeMeters>
            <DistanceMeters>NAN</DistanceMeters>
          </Trackpoint>
          <Trackpoint>
            <Time>2021-04-03T08:12:20.000Z</Time>
            <Position>
              <LatitudeDegrees>42.3027385957539081573486328125</LatitudeDegrees>
              <LongitudeDegrees>2.57350604049861431121826171875</LongitudeDegrees>
            </Position>
            <AltitudeMeters>693.4000244140625</AltitudeMeters>
            <DistanceMeters>NAN</DistanceMeters>
          </Trackpoint>
          <Trackpoint>
            <Time>2021-04-03T08:12:22.000Z</Time>
            <Position>
              <LatitudeDegrees>42.3027290403842926025390625</LatitudeDegrees>
              <LongitudeDegrees>2.573495395481586456298828125</LongitudeDegrees>
            </Position>
            <AltitudeMeters>693</AltitudeMeters>
            <DistanceMeters>NAN</DistanceMeters>
          </Trackpoint>
          <Trackpoint>
            <Time>2021-04-03T08:12:26.000Z</Time>
            <Position>
              <LatitudeDegrees>42.30270029045641422271728515625</LatitudeDegrees>
              <LongitudeDegrees>2.57349933497607707977294921875</LongitudeDegrees>
            </Position>
            <AltitudeMeters>693</AltitudeMeters>
            <DistanceMeters>NAN</DistanceMeters>
          </Trackpoint>
          <Trackpoint>
            <Time>2021-04-03T08:12:30.000Z</Time>
            <Position>
              <LatitudeDegrees>42.30266793631017208099365234375</LatitudeDegrees>
              <LongitudeDegrees>2.5735314376652240753173828125</LongitudeDegrees>
            </Position>
            <AltitudeMeters>693</AltitudeMeters>
            <DistanceMeters>NAN</DistanceMeters>
          </Trackpoint>
          <Trackpoint>
            <Time>2021-04-03T08:12:39.000Z</Time>
            <Position>
              <LatitudeDegrees>42.302637510001659393310546875</LatitudeDegrees>
              <LongitudeDegrees>2.5736028514802455902099609375</LongitudeDegrees>
            </Position>
            <AltitudeMeters>693.5999755859375</AltitudeMeters>
            <DistanceMeters>NAN</DistanceMeters>
          </Trackpoint>
          <Trackpoint>
            <Time>2021-04-03T08:12:48.000Z</Time>
            <Position>
              <LatitudeDegrees>42.30257146060466766357421875</LatitudeDegrees>
              <LongitudeDegrees>2.5736987404525279998779296875</LongitudeDegrees>
            </Position>
            <AltitudeMeters>693.5999755859375</AltitudeMeters>
            <DistanceMeters>NAN</DistanceMeters>
          </Trackpoint>
          <Trackpoint>
            <Time>2021-04-03T08:12:57.000Z</Time>
            <Position>
              <LatitudeDegrees>42.30250331573188304901123046875</LatitudeDegrees>
              <LongitudeDegrees>2.57376034744083881378173828125</LongitudeDegrees>
            </Position>
            <AltitudeMeters>694.20001220703125</AltitudeMeters>
            <DistanceMeters>NAN</DistanceMeters>
          </Trackpoint>
          <Trackpoint>
            <Time>2021-04-03T08:13:02.000Z</Time>
            <Position>
              <LatitudeDegrees>42.302489988505840301513671875</LatitudeDegrees>
              <LongitudeDegrees>2.573795132339000701904296875</LongitudeDegrees>
            </Position>
            <AltitudeMeters>694.4000244140625</AltitudeMeters>
            <DistanceMeters>NAN</DistanceMeters>
          </Trackpoint>
          <Trackpoint>
            <Time>2021-04-03T08:13:06.000Z</Time>
            <Position>
              <LatitudeDegrees>42.3024904914200305938720703125</LatitudeDegrees>
              <LongitudeDegrees>2.57383905351161956787109375</LongitudeDegrees>
            </Position>
            <AltitudeMeters>694.79998779296875</AltitudeMeters>
            <DistanceMeters>NAN</DistanceMeters>
          </Trackpoint>
          <Trackpoint>
            <Time>2021-04-03T08:13:08.000Z</Time>
            <Position>
              <LatitudeDegrees>42.302497364580631256103515625</LatitudeDegrees>
              <LongitudeDegrees>2.57385891862213611602783203125</LongitudeDegrees>
            </Position>
            <AltitudeMeters>695</AltitudeMeters>
            <DistanceMeters>NAN</DistanceMeters>
          </Trackpoint>
          <Trackpoint>
            <Time>2021-04-03T08:13:12.000Z</Time>
            <Position>
              <LatitudeDegrees>42.3024968616664409637451171875</LatitudeDegrees>
              <LongitudeDegrees>2.5738885067403316497802734375</LongitudeDegrees>
            </Position>
            <AltitudeMeters>695.4000244140625</AltitudeMeters>
            <DistanceMeters>NAN</DistanceMeters>
          </Trackpoint>
          <Trackpoint>
            <Time>2021-04-03T08:13:13.000Z</Time>
            <Position>
              <LatitudeDegrees>42.30249811895191669464111328125</LatitudeDegrees>
              <LongitudeDegrees>2.57389806210994720458984375</LongitudeDegrees>
            </Position>
            <AltitudeMeters>695.5999755859375</AltitudeMeters>
            <DistanceMeters>NAN</DistanceMeters>
          </Trackpoint>
          <Trackpoint>
            <Time>2021-04-03T08:13:20.000Z</Time>
            <Position>
              <LatitudeDegrees>42.30247079394757747650146484375</LatitudeDegrees>
              <LongitudeDegrees>2.5739719904959201812744140625</LongitudeDegrees>
            </Position>
            <AltitudeMeters>696.4000244140625</AltitudeMeters>
            <DistanceMeters>NAN</DistanceMeters>
          </Trackpoint>
          <Trackpoint>
            <Time>2021-04-03T08:13:21.000Z</Time>
            <Position>
              <LatitudeDegrees>42.30246484279632568359375</LatitudeDegrees>
              <LongitudeDegrees>2.57398657500743865966796875</LongitudeDegrees>
            </Position>
            <AltitudeMeters>696.5999755859375</AltitudeMeters>
            <DistanceMeters>NAN</DistanceMeters>
          </Trackpoint>
          <Trackpoint>
            <Time>2021-04-03T08:13:24.000Z</Time>
            <Position>
              <LatitudeDegrees>42.3024562932550907135009765625</LatitudeDegrees>
              <LongitudeDegrees>2.5740155763924121856689453125</LongitudeDegrees>
            </Position>
            <AltitudeMeters>696.79998779296875</AltitudeMeters>
            <DistanceMeters>NAN</DistanceMeters>
          </Trackpoint>
          <Trackpoint>
            <Time>2021-04-03T08:13:26.000Z</Time>
            <Position>
              <LatitudeDegrees>42.30245050974190235137939453125</LatitudeDegrees>
              <LongitudeDegrees>2.5740315020084381103515625</LongitudeDegrees>
            </Position>
            <AltitudeMeters>697</AltitudeMeters>
            <DistanceMeters>NAN</DistanceMeters>
          </Trackpoint>
          <Trackpoint>
            <Time>2021-04-03T08:13:30.000Z</Time>
            <Position>
              <LatitudeDegrees>42.302430979907512664794921875</LatitudeDegrees>
              <LongitudeDegrees>2.57406746037304401397705078125</LongitudeDegrees>
            </Position>
            <AltitudeMeters>697.5999755859375</AltitudeMeters>
            <DistanceMeters>NAN</DistanceMeters>
          </Trackpoint>
          <Trackpoint>
            <Time>2021-04-03T08:13:31.000Z</Time>
            <Position>
              <LatitudeDegrees>42.30242720805108547210693359375</LatitudeDegrees>
              <LongitudeDegrees>2.57407718338072299957275390625</LongitudeDegrees>
            </Position>
            <AltitudeMeters>697.5999755859375</AltitudeMeters>
            <DistanceMeters>NAN</DistanceMeters>
          </Trackpoint>
          <Trackpoint>
            <Time>2021-04-03T08:13:37.000Z</Time>
            <Position>
              <LatitudeDegrees>42.3024127073585987091064453125</LatitudeDegrees>
              <LongitudeDegrees>2.574128396809101104736328125</LongitudeDegrees>
            </Position>
            <AltitudeMeters>698.20001220703125</AltitudeMeters>
            <DistanceMeters>NAN</DistanceMeters>
          </Trackpoint>
          <Trackpoint>
            <Time>2021-04-03T08:13:39.000Z</Time>
            <Position>
              <LatitudeDegrees>42.3024073429405689239501953125</LatitudeDegrees>
              <LongitudeDegrees>2.574151866137981414794921875</LongitudeDegrees>
            </Position>
            <AltitudeMeters>698.4000244140625</AltitudeMeters>
            <DistanceMeters>NAN</DistanceMeters>
          </Trackpoint>
          <Trackpoint>
            <Time>2021-04-03T08:13:42.000Z</Time>
            <Position>
              <LatitudeDegrees>42.30240122415125370025634765625</LatitudeDegrees>
              <LongitudeDegrees>2.57418329827487468719482421875</LongitudeDegrees>
            </Position>
            <AltitudeMeters>698.5999755859375</AltitudeMeters>
            <DistanceMeters>NAN</DistanceMeters>
          </Trackpoint>
          <Trackpoint>
            <Time>2021-04-03T08:13:49.000Z</Time>
            <Position>
              <LatitudeDegrees>42.302375324070453643798828125</LatitudeDegrees>
              <LongitudeDegrees>2.5742341764271259307861328125</LongitudeDegrees>
            </Position>
            <AltitudeMeters>699.4000244140625</AltitudeMeters>
            <DistanceMeters>NAN</DistanceMeters>
          </Trackpoint>
          <Trackpoint>
            <Time>2021-04-03T08:13:50.000Z</Time>
            <Position>
              <LatitudeDegrees>42.302371300756931304931640625</LatitudeDegrees>
              <LongitudeDegrees>2.57424096576869487762451171875</LongitudeDegrees>
            </Position>
            <AltitudeMeters>699.5999755859375</AltitudeMeters>
            <DistanceMeters>NAN</DistanceMeters>
          </Trackpoint>
          <Trackpoint>
            <Time>2021-04-03T08:13:51.000Z</Time>
            <Position>
              <LatitudeDegrees>42.30236895382404327392578125</LatitudeDegrees>
              <LongitudeDegrees>2.57424809038639068603515625</LongitudeDegrees>
            </Position>
            <AltitudeMeters>699.5999755859375</AltitudeMeters>
            <DistanceMeters>NAN</DistanceMeters>
          </Trackpoint>
          <Trackpoint>
            <Time>2021-04-03T08:13:57.000Z</Time>
            <Position>
              <LatitudeDegrees>42.30233685113489627838134765625</LatitudeDegrees>
              <LongitudeDegrees>2.574290335178375244140625</LongitudeDegrees>
            </Position>
            <AltitudeMeters>700</AltitudeMeters>
            <DistanceMeters>NAN</DistanceMeters>
          </Trackpoint>
          <Trackpoint>
            <Time>2021-04-03T08:14:06.000Z</Time>
            <Position>
              <LatitudeDegrees>42.302284128963947296142578125</LatitudeDegrees>
              <LongitudeDegrees>2.5743230246007442474365234375</LongitudeDegrees>
            </Position>
            <AltitudeMeters>700.79998779296875</AltitudeMeters>
            <DistanceMeters>NAN</DistanceMeters>
          </Trackpoint>
          <Trackpoint>
            <Time>2021-04-03T08:14:07.000Z</Time>
            <Position>
              <LatitudeDegrees>42.30228169821202754974365234375</LatitudeDegrees>
              <LongitudeDegrees>2.5743273831903934478759765625</LongitudeDegrees>
            </Position>
            <AltitudeMeters>701</AltitudeMeters>
            <DistanceMeters>NAN</DistanceMeters>
          </Trackpoint>
          <Trackpoint>
            <Time>2021-04-03T08:14:15.000Z</Time>
            <Position>
              <LatitudeDegrees>42.30222118087112903594970703125</LatitudeDegrees>
              <LongitudeDegrees>2.57433668710291385650634765625</LongitudeDegrees>
            </Position>
            <AltitudeMeters>701.79998779296875</AltitudeMeters>
            <DistanceMeters>NAN</DistanceMeters>
          </Trackpoint>
          <Trackpoint>
            <Time>2021-04-03T08:14:17.000Z</Time>
            <Position>
              <LatitudeDegrees>42.30220994912087917327880859375</LatitudeDegrees>
              <LongitudeDegrees>2.57432092912495136260986328125</LongitudeDegrees>
            </Position>
            <AltitudeMeters>701.79998779296875</AltitudeMeters>
            <DistanceMeters>NAN</DistanceMeters>
          </Trackpoint>
          <Trackpoint>
            <Time>2021-04-03T08:14:22.000Z</Time>
            <Position>
              <LatitudeDegrees>42.302170135080814361572265625</LatitudeDegrees>
              <LongitudeDegrees>2.574301399290561676025390625</LongitudeDegrees>
            </Position>
            <AltitudeMeters>702.20001220703125</AltitudeMeters>
            <DistanceMeters>NAN</DistanceMeters>
          </Trackpoint>
          <Trackpoint>
            <Time>2021-04-03T08:14:26.000Z</Time>
            <Position>
              <LatitudeDegrees>42.30215010233223438262939453125</LatitudeDegrees>
              <LongitudeDegrees>2.57426879368722438812255859375</LongitudeDegrees>
            </Position>
            <AltitudeMeters>702.5999755859375</AltitudeMeters>
            <DistanceMeters>NAN</DistanceMeters>
          </Trackpoint>
          <Trackpoint>
            <Time>2021-04-03T08:14:30.000Z</Time>
            <Position>
              <LatitudeDegrees>42.30213568545877933502197265625</LatitudeDegrees>
              <LongitudeDegrees>2.57423509843647480010986328125</LongitudeDegrees>
            </Position>
            <AltitudeMeters>703</AltitudeMeters>
            <DistanceMeters>NAN</DistanceMeters>
          </Trackpoint>
          <Trackpoint>
            <Time>2021-04-03T08:14:38.000Z</Time>
            <Position>
              <LatitudeDegrees>42.30207198299467563629150390625</LatitudeDegrees>
              <LongitudeDegrees>2.57421012036502361297607421875</LongitudeDegrees>
            </Position>
            <AltitudeMeters>703.5999755859375</AltitudeMeters>
            <DistanceMeters>NAN</DistanceMeters>
          </Trackpoint>
          <Trackpoint>
            <Time>2021-04-03T08:14:41.000Z</Time>
            <Position>
              <LatitudeDegrees>42.30205706320703029632568359375</LatitudeDegrees>
              <LongitudeDegrees>2.574212551116943359375</LongitudeDegrees>
            </Position>
            <AltitudeMeters>703.79998779296875</AltitudeMeters>
            <DistanceMeters>NAN</DistanceMeters>
          </Trackpoint>
          <Trackpoint>
            <Time>2021-04-03T08:14:44.000Z</Time>
            <Position>
              <LatitudeDegrees>42.30203845538198947906494140625</LatitudeDegrees>
              <LongitudeDegrees>2.5742261298000812530517578125</LongitudeDegrees>
            </Position>
            <AltitudeMeters>704</AltitudeMeters>
            <DistanceMeters>NAN</DistanceMeters>
          </Trackpoint>
          <Trackpoint>
            <Time>2021-04-03T08:14:45.000Z</Time>
            <Position>
              <LatitudeDegrees>42.30202906765043735504150390625</LatitudeDegrees>
              <LongitudeDegrees>2.5742271356284618377685546875</LongitudeDegrees>
            </Position>
            <AltitudeMeters>704</AltitudeMeters>
            <DistanceMeters>NAN</DistanceMeters>
          </Trackpoint>
          <Trackpoint>
            <Time>2021-04-03T08:14:54.000Z</Time>
            <Position>
              <LatitudeDegrees>42.30197441764175891876220703125</LatitudeDegrees>
              <LongitudeDegrees>2.57422554306685924530029296875</LongitudeDegrees>
            </Position>
            <AltitudeMeters>704.79998779296875</AltitudeMeters>
            <DistanceMeters>NAN</DistanceMeters>
          </Trackpoint>
          <Trackpoint>
            <Time>2021-04-03T08:14:56.000Z</Time>
            <Position>
              <LatitudeDegrees>42.3019607551395893096923828125</LatitudeDegrees>
              <LongitudeDegrees>2.5742217712104320526123046875</LongitudeDegrees>
            </Position>
            <AltitudeMeters>705</AltitudeMeters>
            <DistanceMeters>NAN</DistanceMeters>
          </Trackpoint>
          <Trackpoint>
            <Time>2021-04-03T08:15:02.000Z</Time>
            <Position>
              <LatitudeDegrees>42.3019178397953510284423828125</LatitudeDegrees>
              <LongitudeDegrees>2.57422403432428836822509765625</LongitudeDegrees>
            </Position>
            <AltitudeMeters>705.20001220703125</AltitudeMeters>
            <DistanceMeters>NAN</DistanceMeters>
          </Trackpoint>
          <Trackpoint>
            <Time>2021-04-03T08:15:11.000Z</Time>
            <Position>
              <LatitudeDegrees>42.3018695600330829620361328125</LatitudeDegrees>
              <LongitudeDegrees>2.574249096214771270751953125</LongitudeDegrees>
            </Position>
            <AltitudeMeters>706</AltitudeMeters>
            <DistanceMeters>NAN</DistanceMeters>
          </Trackpoint>
          <Trackpoint>
            <Time>2021-04-03T08:15:12.000Z</Time>
            <Position>
              <LatitudeDegrees>42.30186402797698974609375</LatitudeDegrees>
              <LongitudeDegrees>2.57425152696669101715087890625</LongitudeDegrees>
            </Position>
            <AltitudeMeters>706.20001220703125</AltitudeMeters>
            <DistanceMeters>NAN</DistanceMeters>
          </Trackpoint>
          <Trackpoint>
            <Time>2021-04-03T08:15:17.000Z</Time>
            <Position>
              <LatitudeDegrees>42.301833517849445343017578125</LatitudeDegrees>
              <LongitudeDegrees>2.5742594897747039794921875</LongitudeDegrees>
            </Position>
            <AltitudeMeters>706.79998779296875</AltitudeMeters>
            <DistanceMeters>NAN</DistanceMeters>
          </Trackpoint>
          <Trackpoint>
            <Time>2021-04-03T08:15:19.000Z</Time>
            <Position>
              <LatitudeDegrees>42.30183091945946216583251953125</LatitudeDegrees>
              <LongitudeDegrees>2.57425001822412014007568359375</LongitudeDegrees>
            </Position>
            <AltitudeMeters>707.20001220703125</AltitudeMeters>
            <DistanceMeters>NAN</DistanceMeters>
          </Trackpoint>
          <Trackpoint>
            <Time>2021-04-03T08:15:24.000Z</Time>
            <Position>
              <LatitudeDegrees>42.30182136408984661102294921875</LatitudeDegrees>
              <LongitudeDegrees>2.57422554306685924530029296875</LongitudeDegrees>
            </Position>
            <AltitudeMeters>708</AltitudeMeters>
            <DistanceMeters>NAN</DistanceMeters>
          </Trackpoint>
          <Trackpoint>
            <Time>2021-04-03T08:15:26.000Z</Time>
            <Position>
              <LatitudeDegrees>42.30180258862674236297607421875</LatitudeDegrees>
              <LongitudeDegrees>2.5742294825613498687744140625</LongitudeDegrees>
            </Position>
            <AltitudeMeters>708.20001220703125</AltitudeMeters>
            <DistanceMeters>NAN</DistanceMeters>
          </Trackpoint>
          <Trackpoint>
            <Time>2021-04-03T08:15:29.000Z</Time>
            <Position>
              <LatitudeDegrees>42.3017822206020355224609375</LatitudeDegrees>
              <LongitudeDegrees>2.57425253279507160186767578125</LongitudeDegrees>
            </Position>
            <AltitudeMeters>708.79998779296875</AltitudeMeters>
            <DistanceMeters>NAN</DistanceMeters>
          </Trackpoint>
          <Trackpoint>
            <Time>2021-04-03T08:15:31.000Z</Time>
            <Position>
              <LatitudeDegrees>42.301778532564640045166015625</LatitudeDegrees>
              <LongitudeDegrees>2.574263513088226318359375</LongitudeDegrees>
            </Position>
            <AltitudeMeters>709</AltitudeMeters>
            <DistanceMeters>NAN</DistanceMeters>
          </Trackpoint>
          <Trackpoint>
            <Time>2021-04-03T08:15:35.000Z</Time>
            <Position>
              <LatitudeDegrees>42.30176746845245361328125</LatitudeDegrees>
              <LongitudeDegrees>2.5742804445326328277587890625</LongitudeDegrees>
            </Position>
            <AltitudeMeters>709.20001220703125</AltitudeMeters>
            <DistanceMeters>NAN</DistanceMeters>
          </Trackpoint>
          <Trackpoint>
            <Time>2021-04-03T08:15:40.000Z</Time>
            <Position>
              <LatitudeDegrees>42.301741652190685272216796875</LatitudeDegrees>
              <LongitudeDegrees>2.57429729215800762176513671875</LongitudeDegrees>
            </Position>
            <AltitudeMeters>710</AltitudeMeters>
            <DistanceMeters>NAN</DistanceMeters>
          </Trackpoint>
          <Trackpoint>
            <Time>2021-04-03T08:15:44.000Z</Time>
            <Position>
              <LatitudeDegrees>42.30173268355429172515869140625</LatitudeDegrees>
              <LongitudeDegrees>2.57431925274431705474853515625</LongitudeDegrees>
            </Position>
            <AltitudeMeters>710.4000244140625</AltitudeMeters>
            <DistanceMeters>NAN</DistanceMeters>
          </Trackpoint>
          <Trackpoint>
            <Time>2021-04-03T08:15:46.000Z</Time>
            <Position>
              <LatitudeDegrees>42.30172279290854930877685546875</LatitudeDegrees>
              <LongitudeDegrees>2.57433199323713779449462890625</LongitudeDegrees>
            </Position>
            <AltitudeMeters>710.5999755859375</AltitudeMeters>
            <DistanceMeters>NAN</DistanceMeters>
          </Trackpoint>
          <Trackpoint>
            <Time>2021-04-03T08:15:53.000Z</Time>
            <Position>
              <LatitudeDegrees>42.30168775655329227447509765625</LatitudeDegrees>
              <LongitudeDegrees>2.57437574677169322967529296875</LongitudeDegrees>
            </Position>
            <AltitudeMeters>711</AltitudeMeters>
            <DistanceMeters>NAN</DistanceMeters>
          </Trackpoint>
          <Trackpoint>
            <Time>2021-04-03T08:15:57.000Z</Time>
            <Position>
              <LatitudeDegrees>42.30167233385145664215087890625</LatitudeDegrees>
              <LongitudeDegrees>2.574405334889888763427734375</LongitudeDegrees>
            </Position>
            <AltitudeMeters>711.4000244140625</AltitudeMeters>
            <DistanceMeters>NAN</DistanceMeters>
          </Trackpoint>
          <Trackpoint>
            <Time>2021-04-03T08:16:00.000Z</Time>
            <Position>
              <LatitudeDegrees>42.3016546480357646942138671875</LatitudeDegrees>
              <LongitudeDegrees>2.57442285306751728057861328125</LongitudeDegrees>
            </Position>
            <AltitudeMeters>711.79998779296875</AltitudeMeters>
            <DistanceMeters>NAN</DistanceMeters>
          </Trackpoint>
          <Trackpoint>
            <Time>2021-04-03T08:16:06.000Z</Time>
            <Position>
              <LatitudeDegrees>42.30163193307816982269287109375</LatitudeDegrees>
              <LongitudeDegrees>2.5744785927236080169677734375</LongitudeDegrees>
            </Position>
            <AltitudeMeters>712.4000244140625</AltitudeMeters>
            <DistanceMeters>NAN</DistanceMeters>
          </Trackpoint>
          <Trackpoint>
            <Time>2021-04-03T08:16:11.000Z</Time>
            <Position>
              <LatitudeDegrees>42.3016197793185710906982421875</LatitudeDegrees>
              <LongitudeDegrees>2.5745057500898838043212890625</LongitudeDegrees>
            </Position>
            <AltitudeMeters>713</AltitudeMeters>
            <DistanceMeters>NAN</DistanceMeters>
          </Trackpoint>
          <Trackpoint>
            <Time>2021-04-03T08:16:16.000Z</Time>
            <Position>
              <LatitudeDegrees>42.30158566497266292572021484375</LatitudeDegrees>
              <LongitudeDegrees>2.5745597295463085174560546875</LongitudeDegrees>
            </Position>
            <AltitudeMeters>713.5999755859375</AltitudeMeters>
            <DistanceMeters>NAN</DistanceMeters>
          </Trackpoint>
          <Trackpoint>
            <Time>2021-04-03T08:16:18.000Z</Time>
            <Position>
              <LatitudeDegrees>42.3015756905078887939453125</LatitudeDegrees>
              <LongitudeDegrees>2.57457657717168331146240234375</LongitudeDegrees>
            </Position>
            <AltitudeMeters>714</AltitudeMeters>
            <DistanceMeters>NAN</DistanceMeters>
          </Trackpoint>
          <Trackpoint>
            <Time>2021-04-03T08:16:19.000Z</Time>
            <Position>
              <LatitudeDegrees>42.30156973935663700103759765625</LatitudeDegrees>
              <LongitudeDegrees>2.57457791827619075775146484375</LongitudeDegrees>
            </Position>
            <AltitudeMeters>714.20001220703125</AltitudeMeters>
            <DistanceMeters>NAN</DistanceMeters>
          </Trackpoint>
          <Trackpoint>
            <Time>2021-04-03T08:16:24.000Z</Time>
            <Position>
              <LatitudeDegrees>42.301555238664150238037109375</LatitudeDegrees>
              <LongitudeDegrees>2.57458873093128204345703125</LongitudeDegrees>
            </Position>
            <AltitudeMeters>714.79998779296875</AltitudeMeters>
            <DistanceMeters>NAN</DistanceMeters>
          </Trackpoint>
          <Trackpoint>
            <Time>2021-04-03T08:16:30.000Z</Time>
            <Position>
              <LatitudeDegrees>42.30153436772525310516357421875</LatitudeDegrees>
              <LongitudeDegrees>2.5746066682040691375732421875</LongitudeDegrees>
            </Position>
            <AltitudeMeters>715.5999755859375</AltitudeMeters>
            <DistanceMeters>NAN</DistanceMeters>
          </Trackpoint>
          <Trackpoint>
            <Time>2021-04-03T08:16:32.000Z</Time>
            <Position>
              <LatitudeDegrees>42.301525063812732696533203125</LatitudeDegrees>
              <LongitudeDegrees>2.57461496628820896148681640625</LongitudeDegrees>
            </Position>
            <AltitudeMeters>715.79998779296875</AltitudeMeters>
            <DistanceMeters>NAN</DistanceMeters>
          </Trackpoint>
          <Trackpoint>
            <Time>2021-04-03T08:16:36.000Z</Time>
            <Position>
              <LatitudeDegrees>42.30148575268685817718505859375</LatitudeDegrees>
              <LongitudeDegrees>2.57464195601642131805419921875</LongitudeDegrees>
            </Position>
            <AltitudeMeters>716</AltitudeMeters>
            <DistanceMeters>NAN</DistanceMeters>
          </Trackpoint>
          <Trackpoint>
            <Time>2021-04-03T08:16:38.000Z</Time>
            <Position>
              <LatitudeDegrees>42.301468737423419952392578125</LatitudeDegrees>
              <LongitudeDegrees>2.57464949972927570343017578125</LongitudeDegrees>
            </Position>
            <AltitudeMeters>716.20001220703125</AltitudeMeters>
            <DistanceMeters>NAN</DistanceMeters>
          </Trackpoint>
          <Trackpoint>
            <Time>2021-04-03T08:16:45.000Z</Time>
            <Position>
              <LatitudeDegrees>42.30143160559237003326416015625</LatitudeDegrees>
              <LongitudeDegrees>2.57468202151358127593994140625</LongitudeDegrees>
            </Position>
            <AltitudeMeters>716.4000244140625</AltitudeMeters>
            <DistanceMeters>NAN</DistanceMeters>
          </Trackpoint>
          <Trackpoint>
            <Time>2021-04-03T08:16:46.000Z</Time>
            <Position>
              <LatitudeDegrees>42.301426827907562255859375</LatitudeDegrees>
              <LongitudeDegrees>2.57468663156032562255859375</LongitudeDegrees>
            </Position>
            <AltitudeMeters>716.4000244140625</AltitudeMeters>
            <DistanceMeters>NAN</DistanceMeters>
          </Trackpoint>
          <Trackpoint>
            <Time>2021-04-03T08:16:51.000Z</Time>
            <Position>
              <LatitudeDegrees>42.3013907857239246368408203125</LatitudeDegrees>
              <LongitudeDegrees>2.574681602418422698974609375</LongitudeDegrees>
            </Position>
            <AltitudeMeters>716.5999755859375</AltitudeMeters>
            <DistanceMeters>NAN</DistanceMeters>
          </Trackpoint>
          <Trackpoint>
            <Time>2021-04-03T08:16:53.000Z</Time>
            <Position>
              <LatitudeDegrees>42.301373183727264404296875</LatitudeDegrees>
              <LongitudeDegrees>2.57467992603778839111328125</LongitudeDegrees>
            </Position>
            <AltitudeMeters>716.79998779296875</AltitudeMeters>
            <DistanceMeters>NAN</DistanceMeters>
          </Trackpoint>
          <Trackpoint>
            <Time>2021-04-03T08:16:59.000Z</Time>
            <Position>
              <LatitudeDegrees>42.3013294301927089691162109375</LatitudeDegrees>
              <LongitudeDegrees>2.574685625731945037841796875</LongitudeDegrees>
            </Position>
            <AltitudeMeters>717.20001220703125</AltitudeMeters>
            <DistanceMeters>NAN</DistanceMeters>
          </Trackpoint>
          <Trackpoint>
            <Time>2021-04-03T08:17:05.000Z</Time>
            <Position>
              <LatitudeDegrees>42.30128844268620014190673828125</LatitudeDegrees>
              <LongitudeDegrees>2.574727535247802734375</LongitudeDegrees>
            </Position>
            <AltitudeMeters>717.79998779296875</AltitudeMeters>
            <DistanceMeters>NAN</DistanceMeters>
          </Trackpoint>
          <Trackpoint>
            <Time>2021-04-03T08:17:08.000Z</Time>
            <Position>
              <LatitudeDegrees>42.30127352289855480194091796875</LatitudeDegrees>
              <LongitudeDegrees>2.574749998748302459716796875</LongitudeDegrees>
            </Position>
            <AltitudeMeters>717.79998779296875</AltitudeMeters>
            <DistanceMeters>NAN</DistanceMeters>
          </Trackpoint>
          <Trackpoint>
            <Time>2021-04-03T08:17:09.000Z</Time>
            <Position>
              <LatitudeDegrees>42.30126732029020786285400390625</LatitudeDegrees>
              <LongitudeDegrees>2.5747545249760150909423828125</LongitudeDegrees>
            </Position>
            <AltitudeMeters>717.79998779296875</AltitudeMeters>
            <DistanceMeters>NAN</DistanceMeters>
          </Trackpoint>
          <Trackpoint>
            <Time>2021-04-03T08:17:17.000Z</Time>
            <Position>
              <LatitudeDegrees>42.30121023952960968017578125</LatitudeDegrees>
              <LongitudeDegrees>2.574790231883525848388671875</LongitudeDegrees>
            </Position>
            <AltitudeMeters>718.4000244140625</AltitudeMeters>
            <DistanceMeters>NAN</DistanceMeters>
          </Trackpoint>
          <Trackpoint>
            <Time>2021-04-03T08:17:25.000Z</Time>
            <Position>
              <LatitudeDegrees>42.30117780156433582305908203125</LatitudeDegrees>
              <LongitudeDegrees>2.5747116096317768096923828125</LongitudeDegrees>
            </Position>
            <AltitudeMeters>718.79998779296875</AltitudeMeters>
            <DistanceMeters>NAN</DistanceMeters>
          </Trackpoint>
          <Trackpoint>
            <Time>2021-04-03T08:17:26.000Z</Time>
            <Position>
              <LatitudeDegrees>42.30117738246917724609375</LatitudeDegrees>
              <LongitudeDegrees>2.57470431737601757049560546875</LongitudeDegrees>
            </Position>
            <AltitudeMeters>719</AltitudeMeters>
            <DistanceMeters>NAN</DistanceMeters>
          </Trackpoint>
          <Trackpoint>
            <Time>2021-04-03T08:17:30.000Z</Time>
            <Position>
              <LatitudeDegrees>42.301169671118259429931640625</LatitudeDegrees>
              <LongitudeDegrees>2.57467724382877349853515625</LongitudeDegrees>
            </Position>
            <AltitudeMeters>719.5999755859375</AltitudeMeters>
            <DistanceMeters>NAN</DistanceMeters>
          </Trackpoint>
          <Trackpoint>
            <Time>2021-04-03T08:17:31.000Z</Time>
            <Position>
              <LatitudeDegrees>42.30116640217602252960205078125</LatitudeDegrees>
              <LongitudeDegrees>2.57467129267752170562744140625</LongitudeDegrees>
            </Position>
            <AltitudeMeters>719.5999755859375</AltitudeMeters>
            <DistanceMeters>NAN</DistanceMeters>
          </Trackpoint>
          <Trackpoint>
            <Time>2021-04-03T08:17:35.000Z</Time>
            <Position>
              <LatitudeDegrees>42.3011520691215991973876953125</LatitudeDegrees>
              <LongitudeDegrees>2.57464698515832424163818359375</LongitudeDegrees>
            </Position>
            <AltitudeMeters>720</AltitudeMeters>
            <DistanceMeters>NAN</DistanceMeters>
          </Trackpoint>
          <Trackpoint>
            <Time>2021-04-03T08:17:43.000Z</Time>
            <Position>
              <LatitudeDegrees>42.30114460922777652740478515625</LatitudeDegrees>
              <LongitudeDegrees>2.57458378560841083526611328125</LongitudeDegrees>
            </Position>
            <AltitudeMeters>720.79998779296875</AltitudeMeters>
            <DistanceMeters>NAN</DistanceMeters>
          </Trackpoint>
          <Trackpoint>
            <Time>2021-04-03T08:17:45.000Z</Time>
            <Position>
              <LatitudeDegrees>42.3011433519423007965087890625</LatitudeDegrees>
              <LongitudeDegrees>2.5745677761733531951904296875</LongitudeDegrees>
            </Position>
            <AltitudeMeters>721</AltitudeMeters>
            <DistanceMeters>NAN</DistanceMeters>
          </Trackpoint>
          <Trackpoint>
            <Time>2021-04-03T08:17:50.000Z</Time>
            <Position>
              <LatitudeDegrees>42.3011223971843719482421875</LatitudeDegrees>
              <LongitudeDegrees>2.57454019971191883087158203125</LongitudeDegrees>
            </Position>
            <AltitudeMeters>721.5999755859375</AltitudeMeters>
            <DistanceMeters>NAN</DistanceMeters>
          </Trackpoint>
          <Trackpoint>
            <Time>2021-04-03T08:17:57.000Z</Time>
            <Position>
              <LatitudeDegrees>42.30114184319972991943359375</LatitudeDegrees>
              <LongitudeDegrees>2.5744806043803691864013671875</LongitudeDegrees>
            </Position>
            <AltitudeMeters>722.20001220703125</AltitudeMeters>
            <DistanceMeters>NAN</DistanceMeters>
          </Trackpoint>
          <Trackpoint>
            <Time>2021-04-03T08:18:05.000Z</Time>
            <Position>
              <LatitudeDegrees>42.3011225648224353790283203125</LatitudeDegrees>
              <LongitudeDegrees>2.57441882975399494171142578125</LongitudeDegrees>
            </Position>
            <AltitudeMeters>722.79998779296875</AltitudeMeters>
            <DistanceMeters>NAN</DistanceMeters>
          </Trackpoint>
          <Trackpoint>
            <Time>2021-04-03T08:18:08.000Z</Time>
            <Position>
              <LatitudeDegrees>42.3011104948818683624267578125</LatitudeDegrees>
              <LongitudeDegrees>2.57439251057803630828857421875</LongitudeDegrees>
            </Position>
            <AltitudeMeters>723.20001220703125</AltitudeMeters>
            <DistanceMeters>NAN</DistanceMeters>
          </Trackpoint>
          <Trackpoint>
            <Time>2021-04-03T08:18:14.000Z</Time>
            <Position>
              <LatitudeDegrees>42.3010907135903835296630859375</LatitudeDegrees>
              <LongitudeDegrees>2.574349679052829742431640625</LongitudeDegrees>
            </Position>
            <AltitudeMeters>723.5999755859375</AltitudeMeters>
            <DistanceMeters>NAN</DistanceMeters>
          </Trackpoint>
          <Trackpoint>
            <Time>2021-04-03T08:18:18.000Z</Time>
            <Position>
              <LatitudeDegrees>42.301075458526611328125</LatitudeDegrees>
              <LongitudeDegrees>2.57433216087520122528076171875</LongitudeDegrees>
            </Position>
            <AltitudeMeters>724.20001220703125</AltitudeMeters>
            <DistanceMeters>NAN</DistanceMeters>
          </Trackpoint>
          <Trackpoint>
            <Time>2021-04-03T08:18:23.000Z</Time>
            <Position>
              <LatitudeDegrees>42.30105961672961711883544921875</LatitudeDegrees>
              <LongitudeDegrees>2.57428622804582118988037109375</LongitudeDegrees>
            </Position>
            <AltitudeMeters>724.5999755859375</AltitudeMeters>
            <DistanceMeters>NAN</DistanceMeters>
          </Trackpoint>
          <Trackpoint>
            <Time>2021-04-03T08:18:33.000Z</Time>
            <Position>
              <LatitudeDegrees>42.301011420786380767822265625</LatitudeDegrees>
              <LongitudeDegrees>2.57421196438372135162353515625</LongitudeDegrees>
            </Position>
            <AltitudeMeters>725.20001220703125</AltitudeMeters>
            <DistanceMeters>NAN</DistanceMeters>
          </Trackpoint>
          <Trackpoint>
            <Time>2021-04-03T08:18:35.000Z</Time>
            <Position>
              <LatitudeDegrees>42.301003374159336090087890625</LatitudeDegrees>
              <LongitudeDegrees>2.5741801969707012176513671875</LongitudeDegrees>
            </Position>
            <AltitudeMeters>725.4000244140625</AltitudeMeters>
            <DistanceMeters>NAN</DistanceMeters>
          </Trackpoint>
          <Trackpoint>
            <Time>2021-04-03T08:18:42.000Z</Time>
            <Position>
              <LatitudeDegrees>42.30097663588821887969970703125</LatitudeDegrees>
              <LongitudeDegrees>2.5741146504878997802734375</LongitudeDegrees>
            </Position>
            <AltitudeMeters>726.20001220703125</AltitudeMeters>
            <DistanceMeters>NAN</DistanceMeters>
          </Trackpoint>
          <Trackpoint>
            <Time>2021-04-03T08:18:44.000Z</Time>
            <Position>
              <LatitudeDegrees>42.3009693436324596405029296875</LatitudeDegrees>
              <LongitudeDegrees>2.57410266436636447906494140625</LongitudeDegrees>
            </Position>
            <AltitudeMeters>726.4000244140625</AltitudeMeters>
            <DistanceMeters>NAN</DistanceMeters>
          </Trackpoint>
          <Trackpoint>
            <Time>2021-04-03T08:18:53.000Z</Time>
            <Position>
              <LatitudeDegrees>42.30092735029757022857666015625</LatitudeDegrees>
              <LongitudeDegrees>2.574046589434146881103515625</LongitudeDegrees>
            </Position>
            <AltitudeMeters>727.4000244140625</AltitudeMeters>
            <DistanceMeters>NAN</DistanceMeters>
          </Trackpoint>
          <Trackpoint>
            <Time>2021-04-03T08:19:02.000Z</Time>
            <Position>
              <LatitudeDegrees>42.300871945917606353759765625</LatitudeDegrees>
              <LongitudeDegrees>2.5739790312945842742919921875</LongitudeDegrees>
            </Position>
            <AltitudeMeters>727.4000244140625</AltitudeMeters>
            <DistanceMeters>NAN</DistanceMeters>
          </Trackpoint>
          <Trackpoint>
            <Time>2021-04-03T08:19:04.000Z</Time>
            <Position>
              <LatitudeDegrees>42.3008568584918975830078125</LatitudeDegrees>
              <LongitudeDegrees>2.5739696435630321502685546875</LongitudeDegrees>
            </Position>
            <AltitudeMeters>727.4000244140625</AltitudeMeters>
            <DistanceMeters>NAN</DistanceMeters>
          </Trackpoint>
          <Trackpoint>
            <Time>2021-04-03T08:19:11.000Z</Time>
            <Position>
              <LatitudeDegrees>42.3008072376251220703125</LatitudeDegrees>
              <LongitudeDegrees>2.57393955253064632415771484375</LongitudeDegrees>
            </Position>
            <AltitudeMeters>727.5999755859375</AltitudeMeters>
            <DistanceMeters>NAN</DistanceMeters>
          </Trackpoint>
          <Trackpoint>
            <Time>2021-04-03T08:19:21.000Z</Time>
            <Position>
              <LatitudeDegrees>42.30074160732328891754150390625</LatitudeDegrees>
              <LongitudeDegrees>2.57385858334600925445556640625</LongitudeDegrees>
            </Position>
            <AltitudeMeters>727.79998779296875</AltitudeMeters>
            <DistanceMeters>NAN</DistanceMeters>
          </Trackpoint>
          <Trackpoint>
            <Time>2021-04-03T08:19:30.000Z</Time>
            <Position>
              <LatitudeDegrees>42.30068980716168880462646484375</LatitudeDegrees>
              <LongitudeDegrees>2.57379236631095409393310546875</LongitudeDegrees>
            </Position>
            <AltitudeMeters>727.79998779296875</AltitudeMeters>
            <DistanceMeters>NAN</DistanceMeters>
          </Trackpoint>
          <Trackpoint>
            <Time>2021-04-03T08:19:33.000Z</Time>
            <Position>
              <LatitudeDegrees>42.30067186988890171051025390625</LatitudeDegrees>
              <LongitudeDegrees>2.573776356875896453857421875</LongitudeDegrees>
            </Position>
            <AltitudeMeters>728</AltitudeMeters>
            <DistanceMeters>NAN</DistanceMeters>
          </Trackpoint>
          <Trackpoint>
            <Time>2021-04-03T08:19:37.000Z</Time>
            <Position>
              <LatitudeDegrees>42.30066030286252498626708984375</LatitudeDegrees>
              <LongitudeDegrees>2.573749534785747528076171875</LongitudeDegrees>
            </Position>
            <AltitudeMeters>728.4000244140625</AltitudeMeters>
            <DistanceMeters>NAN</DistanceMeters>
          </Trackpoint>
          <Trackpoint>
            <Time>2021-04-03T08:19:38.000Z</Time>
            <Position>
              <LatitudeDegrees>42.3006575368344783782958984375</LatitudeDegrees>
              <LongitudeDegrees>2.57374249398708343505859375</LongitudeDegrees>
            </Position>
            <AltitudeMeters>728.4000244140625</AltitudeMeters>
            <DistanceMeters>NAN</DistanceMeters>
          </Trackpoint>
          <Trackpoint>
            <Time>2021-04-03T08:19:43.000Z</Time>
            <Position>
              <LatitudeDegrees>42.30062711052596569061279296875</LatitudeDegrees>
              <LongitudeDegrees>2.5737069547176361083984375</LongitudeDegrees>
            </Position>
            <AltitudeMeters>728.79998779296875</AltitudeMeters>
            <DistanceMeters>NAN</DistanceMeters>
          </Trackpoint>
          <Trackpoint>
            <Time>2021-04-03T08:19:45.000Z</Time>
            <Position>
              <LatitudeDegrees>42.30061587877571582794189453125</LatitudeDegrees>
              <LongitudeDegrees>2.5736989080905914306640625</LongitudeDegrees>
            </Position>
            <AltitudeMeters>729</AltitudeMeters>
            <DistanceMeters>NAN</DistanceMeters>
          </Trackpoint>
          <Trackpoint>
            <Time>2021-04-03T08:19:48.000Z</Time>
            <Position>
              <LatitudeDegrees>42.3005975224077701568603515625</LatitudeDegrees>
              <LongitudeDegrees>2.57367468439042568206787109375</LongitudeDegrees>
            </Position>
            <AltitudeMeters>729.4000244140625</AltitudeMeters>
            <DistanceMeters>NAN</DistanceMeters>
          </Trackpoint>
          <Trackpoint>
            <Time>2021-04-03T08:19:50.000Z</Time>
            <Position>
              <LatitudeDegrees>42.300584949553012847900390625</LatitudeDegrees>
              <LongitudeDegrees>2.57366202771663665771484375</LongitudeDegrees>
            </Position>
            <AltitudeMeters>729.5999755859375</AltitudeMeters>
            <DistanceMeters>NAN</DistanceMeters>
          </Trackpoint>
          <Trackpoint>
            <Time>2021-04-03T08:19:51.000Z</Time>
            <Position>
              <LatitudeDegrees>42.3005800880491733551025390625</LatitudeDegrees>
              <LongitudeDegrees>2.573654651641845703125</LongitudeDegrees>
            </Position>
            <AltitudeMeters>729.79998779296875</AltitudeMeters>
            <DistanceMeters>NAN</DistanceMeters>
          </Trackpoint>
          <Trackpoint>
            <Time>2021-04-03T08:19:55.000Z</Time>
            <Position>
              <LatitudeDegrees>42.3005579598248004913330078125</LatitudeDegrees>
              <LongitudeDegrees>2.5736336968839168548583984375</LongitudeDegrees>
            </Position>
            <AltitudeMeters>730.20001220703125</AltitudeMeters>
            <DistanceMeters>NAN</DistanceMeters>
          </Trackpoint>
          <Trackpoint>
            <Time>2021-04-03T08:19:57.000Z</Time>
            <Position>
              <LatitudeDegrees>42.30054547078907489776611328125</LatitudeDegrees>
              <LongitudeDegrees>2.573624812066555023193359375</LongitudeDegrees>
            </Position>
            <AltitudeMeters>730.5999755859375</AltitudeMeters>
            <DistanceMeters>NAN</DistanceMeters>
          </Trackpoint>
          <Trackpoint>
            <Time>2021-04-03T08:20:02.000Z</Time>
            <Position>
              <LatitudeDegrees>42.30051479302346706390380859375</LatitudeDegrees>
              <LongitudeDegrees>2.5736078806221485137939453125</LongitudeDegrees>
            </Position>
            <AltitudeMeters>730.5999755859375</AltitudeMeters>
            <DistanceMeters>NAN</DistanceMeters>
          </Trackpoint>
          <Trackpoint>
            <Time>2021-04-03T08:20:03.000Z</Time>
            <Position>
              <LatitudeDegrees>42.300505824387073516845703125</LatitudeDegrees>
              <LongitudeDegrees>2.57360477931797504425048828125</LongitudeDegrees>
            </Position>
            <AltitudeMeters>730.5999755859375</AltitudeMeters>
            <DistanceMeters>NAN</DistanceMeters>
          </Trackpoint>
          <Trackpoint>
            <Time>2021-04-03T08:20:05.000Z</Time>
            <Position>
              <LatitudeDegrees>42.30048998259007930755615234375</LatitudeDegrees>
              <LongitudeDegrees>2.5735958106815814971923828125</LongitudeDegrees>
            </Position>
            <AltitudeMeters>730.5999755859375</AltitudeMeters>
            <DistanceMeters>NAN</DistanceMeters>
          </Trackpoint>
          <Trackpoint>
            <Time>2021-04-03T08:20:08.000Z</Time>
            <Position>
              <LatitudeDegrees>42.30047036893665790557861328125</LatitudeDegrees>
              <LongitudeDegrees>2.5735706649720668792724609375</LongitudeDegrees>
            </Position>
            <AltitudeMeters>730.5999755859375</AltitudeMeters>
            <DistanceMeters>NAN</DistanceMeters>
          </Trackpoint>
          <Trackpoint>
            <Time>2021-04-03T08:20:12.000Z</Time>
            <Position>
              <LatitudeDegrees>42.30044589377939701080322265625</LatitudeDegrees>
              <LongitudeDegrees>2.57353328168392181396484375</LongitudeDegrees>
            </Position>
            <AltitudeMeters>730.79998779296875</AltitudeMeters>
            <DistanceMeters>NAN</DistanceMeters>
          </Trackpoint>
          <Trackpoint>
            <Time>2021-04-03T08:20:23.000Z</Time>
            <Position>
              <LatitudeDegrees>42.30038009583950042724609375</LatitudeDegrees>
              <LongitudeDegrees>2.5734503008425235748291015625</LongitudeDegrees>
            </Position>
            <AltitudeMeters>731.20001220703125</AltitudeMeters>
            <DistanceMeters>NAN</DistanceMeters>
          </Trackpoint>
          <Trackpoint>
            <Time>2021-04-03T08:20:28.000Z</Time>
            <Position>
              <LatitudeDegrees>42.30035067535936832427978515625</LatitudeDegrees>
              <LongitudeDegrees>2.5734164379537105560302734375</LongitudeDegrees>
            </Position>
            <AltitudeMeters>731.5999755859375</AltitudeMeters>
            <DistanceMeters>NAN</DistanceMeters>
          </Trackpoint>
          <Trackpoint>
            <Time>2021-04-03T08:20:32.000Z</Time>
            <Position>
              <LatitudeDegrees>42.30031915940344333648681640625</LatitudeDegrees>
              <LongitudeDegrees>2.57340679876506328582763671875</LongitudeDegrees>
            </Position>
            <AltitudeMeters>732.20001220703125</AltitudeMeters>
            <DistanceMeters>NAN</DistanceMeters>
          </Trackpoint>
          <Trackpoint>
            <Time>2021-04-03T08:20:40.000Z</Time>
            <Position>
              <LatitudeDegrees>42.300281524658203125</LatitudeDegrees>
              <LongitudeDegrees>2.57335164584219455718994140625</LongitudeDegrees>
            </Position>
            <AltitudeMeters>732.5999755859375</AltitudeMeters>
            <DistanceMeters>NAN</DistanceMeters>
          </Trackpoint>
          <Trackpoint>
            <Time>2021-04-03T08:20:42.000Z</Time>
            <Position>
              <LatitudeDegrees>42.3002729751169681549072265625</LatitudeDegrees>
              <LongitudeDegrees>2.573340833187103271484375</LongitudeDegrees>
            </Position>
            <AltitudeMeters>732.79998779296875</AltitudeMeters>
            <DistanceMeters>NAN</DistanceMeters>
          </Trackpoint>
          <Trackpoint>
            <Time>2021-04-03T08:20:48.000Z</Time>
            <Position>
              <LatitudeDegrees>42.30023332871496677398681640625</LatitudeDegrees>
              <LongitudeDegrees>2.57330772466957569122314453125</LongitudeDegrees>
            </Position>
            <AltitudeMeters>733.5999755859375</AltitudeMeters>
            <DistanceMeters>NAN</DistanceMeters>
          </Trackpoint>
          <Trackpoint>
            <Time>2021-04-03T08:20:51.000Z</Time>
            <Position>
              <LatitudeDegrees>42.30022327043116092681884765625</LatitudeDegrees>
              <LongitudeDegrees>2.5732876919209957122802734375</LongitudeDegrees>
            </Position>
            <AltitudeMeters>733.79998779296875</AltitudeMeters>
            <DistanceMeters>NAN</DistanceMeters>
          </Trackpoint>
          <Trackpoint>
            <Time>2021-04-03T08:20:54.000Z</Time>
            <Position>
              <LatitudeDegrees>42.30020952410995960235595703125</LatitudeDegrees>
              <LongitudeDegrees>2.57326480932533740997314453125</LongitudeDegrees>
            </Position>
            <AltitudeMeters>734.20001220703125</AltitudeMeters>
            <DistanceMeters>NAN</DistanceMeters>
          </Trackpoint>
          <Trackpoint>
            <Time>2021-04-03T08:20:59.000Z</Time>
            <Position>
              <LatitudeDegrees>42.3001908324658870697021484375</LatitudeDegrees>
              <LongitudeDegrees>2.57322273217141628265380859375</LongitudeDegrees>
            </Position>
            <AltitudeMeters>735</AltitudeMeters>
            <DistanceMeters>NAN</DistanceMeters>
          </Trackpoint>
          <Trackpoint>
            <Time>2021-04-03T08:21:02.000Z</Time>
            <Position>
              <LatitudeDegrees>42.30018270201981067657470703125</LatitudeDegrees>
              <LongitudeDegrees>2.5731877796351909637451171875</LongitudeDegrees>
            </Position>
            <AltitudeMeters>735.4000244140625</AltitudeMeters>
            <DistanceMeters>NAN</DistanceMeters>
          </Trackpoint>
          <Trackpoint>
            <Time>2021-04-03T08:21:06.000Z</Time>
            <Position>
              <LatitudeDegrees>42.3001596517860889434814453125</LatitudeDegrees>
              <LongitudeDegrees>2.573182582855224609375</LongitudeDegrees>
            </Position>
            <AltitudeMeters>736</AltitudeMeters>
            <DistanceMeters>NAN</DistanceMeters>
          </Trackpoint>
          <Trackpoint>
            <Time>2021-04-03T08:21:08.000Z</Time>
            <Position>
              <LatitudeDegrees>42.3001465760171413421630859375</LatitudeDegrees>
              <LongitudeDegrees>2.57317277602851390838623046875</LongitudeDegrees>
            </Position>
            <AltitudeMeters>736.4000244140625</AltitudeMeters>
            <DistanceMeters>NAN</DistanceMeters>
          </Trackpoint>
          <Trackpoint>
            <Time>2021-04-03T08:21:13.000Z</Time>
            <Position>
              <LatitudeDegrees>42.3001294769346714019775390625</LatitudeDegrees>
              <LongitudeDegrees>2.5731542520225048065185546875</LongitudeDegrees>
            </Position>
            <AltitudeMeters>737.20001220703125</AltitudeMeters>
            <DistanceMeters>NAN</DistanceMeters>
          </Trackpoint>
          <Trackpoint>
            <Time>2021-04-03T08:21:17.000Z</Time>
            <Position>
              <LatitudeDegrees>42.30010391212999820709228515625</LatitudeDegrees>
              <LongitudeDegrees>2.5731582753360271453857421875</LongitudeDegrees>
            </Position>
            <AltitudeMeters>737.79998779296875</AltitudeMeters>
            <DistanceMeters>NAN</DistanceMeters>
          </Trackpoint>
          <Trackpoint>
            <Time>2021-04-03T08:21:19.000Z</Time>
            <Position>
              <LatitudeDegrees>42.30009033344686031341552734375</LatitudeDegrees>
              <LongitudeDegrees>2.5731539167463779449462890625</LongitudeDegrees>
            </Position>
            <AltitudeMeters>738.20001220703125</AltitudeMeters>
            <DistanceMeters>NAN</DistanceMeters>
          </Trackpoint>
          <Trackpoint>
            <Time>2021-04-03T08:21:24.000Z</Time>
            <Position>
              <LatitudeDegrees>42.300069294869899749755859375</LatitudeDegrees>
              <LongitudeDegrees>2.57311217486858367919921875</LongitudeDegrees>
            </Position>
            <AltitudeMeters>739</AltitudeMeters>
            <DistanceMeters>NAN</DistanceMeters>
          </Trackpoint>
          <Trackpoint>
            <Time>2021-04-03T08:21:26.000Z</Time>
            <Position>
              <LatitudeDegrees>42.3000567220151424407958984375</LatitudeDegrees>
              <LongitudeDegrees>2.57308862172067165374755859375</LongitudeDegrees>
            </Position>
            <AltitudeMeters>739.4000244140625</AltitudeMeters>
            <DistanceMeters>NAN</DistanceMeters>
          </Trackpoint>
          <Trackpoint>
            <Time>2021-04-03T08:21:30.000Z</Time>
            <Position>
              <LatitudeDegrees>42.30003467760980129241943359375</LatitudeDegrees>
              <LongitudeDegrees>2.573035396635532379150390625</LongitudeDegrees>
            </Position>
            <AltitudeMeters>739.79998779296875</AltitudeMeters>
            <DistanceMeters>NAN</DistanceMeters>
          </Trackpoint>
          <Trackpoint>
            <Time>2021-04-03T08:21:34.000Z</Time>
            <Position>
              <LatitudeDegrees>42.3000164888799190521240234375</LatitudeDegrees>
              <LongitudeDegrees>2.5729903019964694976806640625</LongitudeDegrees>
            </Position>
            <AltitudeMeters>740.4000244140625</AltitudeMeters>
            <DistanceMeters>NAN</DistanceMeters>
          </Trackpoint>
          <Trackpoint>
            <Time>2021-04-03T08:21:35.000Z</Time>
            <Position>
              <LatitudeDegrees>42.300010286271572113037109375</LatitudeDegrees>
              <LongitudeDegrees>2.57298879325389862060546875</LongitudeDegrees>
            </Position>
            <AltitudeMeters>740.5999755859375</AltitudeMeters>
            <DistanceMeters>NAN</DistanceMeters>
          </Trackpoint>
          <Trackpoint>
            <Time>2021-04-03T08:21:42.000Z</Time>
            <Position>
              <LatitudeDegrees>42.299988828599452972412109375</LatitudeDegrees>
              <LongitudeDegrees>2.5729460455477237701416015625</LongitudeDegrees>
            </Position>
            <AltitudeMeters>741.5999755859375</AltitudeMeters>
            <DistanceMeters>NAN</DistanceMeters>
          </Trackpoint>
          <Trackpoint>
            <Time>2021-04-03T08:21:45.000Z</Time>
            <Position>
              <LatitudeDegrees>42.2999832965433597564697265625</LatitudeDegrees>
              <LongitudeDegrees>2.572930790483951568603515625</LongitudeDegrees>
            </Position>
            <AltitudeMeters>742.20001220703125</AltitudeMeters>
            <DistanceMeters>NAN</DistanceMeters>
          </Trackpoint>
          <Trackpoint>
            <Time>2021-04-03T08:21:47.000Z</Time>
            <Position>
              <LatitudeDegrees>42.29997985996305942535400390625</LatitudeDegrees>
              <LongitudeDegrees>2.572909332811832427978515625</LongitudeDegrees>
            </Position>
            <AltitudeMeters>742.5999755859375</AltitudeMeters>
            <DistanceMeters>NAN</DistanceMeters>
          </Trackpoint>
          <Trackpoint>
            <Time>2021-04-03T08:21:53.000Z</Time>
            <Position>
              <LatitudeDegrees>42.299968712031841278076171875</LatitudeDegrees>
              <LongitudeDegrees>2.57285107858479022979736328125</LongitudeDegrees>
            </Position>
            <AltitudeMeters>743.4000244140625</AltitudeMeters>
            <DistanceMeters>NAN</DistanceMeters>
          </Trackpoint>
          <Trackpoint>
            <Time>2021-04-03T08:21:54.000Z</Time>
            <Position>
              <LatitudeDegrees>42.29996628127992153167724609375</LatitudeDegrees>
              <LongitudeDegrees>2.57284722290933132171630859375</LongitudeDegrees>
            </Position>
            <AltitudeMeters>743.5999755859375</AltitudeMeters>
            <DistanceMeters>NAN</DistanceMeters>
          </Trackpoint>
          <Trackpoint>
            <Time>2021-04-03T08:21:59.000Z</Time>
            <Position>
              <LatitudeDegrees>42.2999636828899383544921875</LatitudeDegrees>
              <LongitudeDegrees>2.57278838194906711578369140625</LongitudeDegrees>
            </Position>
            <AltitudeMeters>744.20001220703125</AltitudeMeters>
            <DistanceMeters>NAN</DistanceMeters>
          </Trackpoint>
          <Trackpoint>
            <Time>2021-04-03T08:22:01.000Z</Time>
            <Position>
              <LatitudeDegrees>42.2999635152518749237060546875</LatitudeDegrees>
              <LongitudeDegrees>2.572779245674610137939453125</LongitudeDegrees>
            </Position>
            <AltitudeMeters>744.79998779296875</AltitudeMeters>
            <DistanceMeters>NAN</DistanceMeters>
          </Trackpoint>
          <Trackpoint>
            <Time>2021-04-03T08:22:06.000Z</Time>
            <Position>
              <LatitudeDegrees>42.2999433986842632293701171875</LatitudeDegrees>
              <LongitudeDegrees>2.572750411927700042724609375</LongitudeDegrees>
            </Position>
            <AltitudeMeters>745.20001220703125</AltitudeMeters>
            <DistanceMeters>NAN</DistanceMeters>
          </Trackpoint>
          <Trackpoint>
            <Time>2021-04-03T08:22:09.000Z</Time>
            <Position>
              <LatitudeDegrees>42.29993007145822048187255859375</LatitudeDegrees>
              <LongitudeDegrees>2.57275284267961978912353515625</LongitudeDegrees>
            </Position>
            <AltitudeMeters>745.79998779296875</AltitudeMeters>
            <DistanceMeters>NAN</DistanceMeters>
          </Trackpoint>
          <Trackpoint>
            <Time>2021-04-03T08:22:11.000Z</Time>
            <Position>
              <LatitudeDegrees>42.29992772452533245086669921875</LatitudeDegrees>
              <LongitudeDegrees>2.57273507304489612579345703125</LongitudeDegrees>
            </Position>
            <AltitudeMeters>746</AltitudeMeters>
            <DistanceMeters>NAN</DistanceMeters>
          </Trackpoint>
          <Trackpoint>
            <Time>2021-04-03T08:22:12.000Z</Time>
            <Position>
              <LatitudeDegrees>42.29992554523050785064697265625</LatitudeDegrees>
              <LongitudeDegrees>2.57272669114172458648681640625</LongitudeDegrees>
            </Position>
            <AltitudeMeters>746.20001220703125</AltitudeMeters>
            <DistanceMeters>NAN</DistanceMeters>
          </Trackpoint>
          <Trackpoint>
            <Time>2021-04-03T08:22:13.000Z</Time>
            <Position>
              <LatitudeDegrees>42.29992202483117580413818359375</LatitudeDegrees>
              <LongitudeDegrees>2.57271763868629932403564453125</LongitudeDegrees>
            </Position>
            <AltitudeMeters>746.4000244140625</AltitudeMeters>
            <DistanceMeters>NAN</DistanceMeters>
          </Trackpoint>
          <Trackpoint>
            <Time>2021-04-03T08:22:15.000Z</Time>
            <Position>
              <LatitudeDegrees>42.2999102063477039337158203125</LatitudeDegrees>
              <LongitudeDegrees>2.57270716130733489990234375</LongitudeDegrees>
            </Position>
            <AltitudeMeters>746.5999755859375</AltitudeMeters>
            <DistanceMeters>NAN</DistanceMeters>
          </Trackpoint>
          <Trackpoint>
            <Time>2021-04-03T08:22:17.000Z</Time>
            <Position>
              <LatitudeDegrees>42.2999138943850994110107421875</LatitudeDegrees>
              <LongitudeDegrees>2.57268193177878856658935546875</LongitudeDegrees>
            </Position>
            <AltitudeMeters>747</AltitudeMeters>
            <DistanceMeters>NAN</DistanceMeters>
          </Trackpoint>
          <Trackpoint>
            <Time>2021-04-03T08:22:21.000Z</Time>
            <Position>
              <LatitudeDegrees>42.29990023188292980194091796875</LatitudeDegrees>
              <LongitudeDegrees>2.57265075109899044036865234375</LongitudeDegrees>
            </Position>
            <AltitudeMeters>747.5999755859375</AltitudeMeters>
            <DistanceMeters>NAN</DistanceMeters>
          </Trackpoint>
          <Trackpoint>
            <Time>2021-04-03T08:22:25.000Z</Time>
            <Position>
              <LatitudeDegrees>42.29989386163651943206787109375</LatitudeDegrees>
              <LongitudeDegrees>2.57263231091201305389404296875</LongitudeDegrees>
            </Position>
            <AltitudeMeters>748</AltitudeMeters>
            <DistanceMeters>NAN</DistanceMeters>
          </Trackpoint>
          <Trackpoint>
            <Time>2021-04-03T08:22:31.000Z</Time>
            <Position>
              <LatitudeDegrees>42.29987558908760547637939453125</LatitudeDegrees>
              <LongitudeDegrees>2.57260062731802463531494140625</LongitudeDegrees>
            </Position>
            <AltitudeMeters>748.79998779296875</AltitudeMeters>
            <DistanceMeters>NAN</DistanceMeters>
          </Trackpoint>
          <Trackpoint>
            <Time>2021-04-03T08:22:33.000Z</Time>
            <Position>
              <LatitudeDegrees>42.29987257160246372222900390625</LatitudeDegrees>
              <LongitudeDegrees>2.5725886411964893341064453125</LongitudeDegrees>
            </Position>
            <AltitudeMeters>749.20001220703125</AltitudeMeters>
            <DistanceMeters>NAN</DistanceMeters>
          </Trackpoint>
          <Trackpoint>
            <Time>2021-04-03T08:22:39.000Z</Time>
            <Position>
              <LatitudeDegrees>42.29986779391765594482421875</LatitudeDegrees>
              <LongitudeDegrees>2.57253977470099925994873046875</LongitudeDegrees>
            </Position>
            <AltitudeMeters>750</AltitudeMeters>
            <DistanceMeters>NAN</DistanceMeters>
          </Trackpoint>
          <Trackpoint>
            <Time>2021-04-03T08:22:41.000Z</Time>
            <Position>
              <LatitudeDegrees>42.299857400357723236083984375</LatitudeDegrees>
              <LongitudeDegrees>2.57252208888530731201171875</LongitudeDegrees>
            </Position>
            <AltitudeMeters>750.4000244140625</AltitudeMeters>
            <DistanceMeters>NAN</DistanceMeters>
          </Trackpoint>
          <Trackpoint>
            <Time>2021-04-03T08:22:45.000Z</Time>
            <Position>
              <LatitudeDegrees>42.29984239675104618072509765625</LatitudeDegrees>
              <LongitudeDegrees>2.5724843703210353851318359375</LongitudeDegrees>
            </Position>
            <AltitudeMeters>750.79998779296875</AltitudeMeters>
            <DistanceMeters>NAN</DistanceMeters>
          </Trackpoint>
          <Trackpoint>
            <Time>2021-04-03T08:22:46.000Z</Time>
            <Position>
              <LatitudeDegrees>42.29983719997107982635498046875</LatitudeDegrees>
              <LongitudeDegrees>2.572482191026210784912109375</LongitudeDegrees>
            </Position>
            <AltitudeMeters>750.79998779296875</AltitudeMeters>
            <DistanceMeters>NAN</DistanceMeters>
          </Trackpoint>
          <Trackpoint>
            <Time>2021-04-03T08:22:50.000Z</Time>
            <Position>
              <LatitudeDegrees>42.299817837774753570556640625</LatitudeDegrees>
              <LongitudeDegrees>2.57245578803122043609619140625</LongitudeDegrees>
            </Position>
            <AltitudeMeters>751.4000244140625</AltitudeMeters>
            <DistanceMeters>NAN</DistanceMeters>
          </Trackpoint>
          <Trackpoint>
            <Time>2021-04-03T08:22:54.000Z</Time>
            <Position>
              <LatitudeDegrees>42.2998149879276752471923828125</LatitudeDegrees>
              <LongitudeDegrees>2.57243265397846698760986328125</LongitudeDegrees>
            </Position>
            <AltitudeMeters>751.4000244140625</AltitudeMeters>
            <DistanceMeters>NAN</DistanceMeters>
          </Trackpoint>
          <Trackpoint>
            <Time>2021-04-03T08:22:55.000Z</Time>
            <Position>
              <LatitudeDegrees>42.29981674812734127044677734375</LatitudeDegrees>
              <LongitudeDegrees>2.5724297203123569488525390625</LongitudeDegrees>
            </Position>
            <AltitudeMeters>751.5999755859375</AltitudeMeters>
            <DistanceMeters>NAN</DistanceMeters>
          </Trackpoint>
          <Trackpoint>
            <Time>2021-04-03T08:23:01.000Z</Time>
            <Position>
              <LatitudeDegrees>42.29979109950363636016845703125</LatitudeDegrees>
              <LongitudeDegrees>2.57239409722387790679931640625</LongitudeDegrees>
            </Position>
            <AltitudeMeters>751.79998779296875</AltitudeMeters>
            <DistanceMeters>NAN</DistanceMeters>
          </Trackpoint>
          <Trackpoint>
            <Time>2021-04-03T08:23:09.000Z</Time>
            <Position>
              <LatitudeDegrees>42.29982563294470310211181640625</LatitudeDegrees>
              <LongitudeDegrees>2.57236442528665065765380859375</LongitudeDegrees>
            </Position>
            <AltitudeMeters>752.4000244140625</AltitudeMeters>
            <DistanceMeters>NAN</DistanceMeters>
          </Trackpoint>
          <Trackpoint>
            <Time>2021-04-03T08:23:11.000Z</Time>
            <Position>
              <LatitudeDegrees>42.2998294048011302947998046875</LatitudeDegrees>
              <LongitudeDegrees>2.57235906086862087249755859375</LongitudeDegrees>
            </Position>
            <AltitudeMeters>752.4000244140625</AltitudeMeters>
            <DistanceMeters>NAN</DistanceMeters>
          </Trackpoint>
          <Trackpoint>
            <Time>2021-04-03T08:23:17.000Z</Time>
            <Position>
              <LatitudeDegrees>42.29983418248593807220458984375</LatitudeDegrees>
              <LongitudeDegrees>2.57237599231302738189697265625</LongitudeDegrees>
            </Position>
            <AltitudeMeters>752.5999755859375</AltitudeMeters>
            <DistanceMeters>NAN</DistanceMeters>
          </Trackpoint>
          <Trackpoint>
            <Time>2021-04-03T08:23:18.000Z</Time>
            <Position>
              <LatitudeDegrees>42.29983418248593807220458984375</LatitudeDegrees>
              <LongitudeDegrees>2.57237599231302738189697265625</LongitudeDegrees>
            </Position>
            <AltitudeMeters>752.5999755859375</AltitudeMeters>
            <DistanceMeters>NAN</DistanceMeters>
          </Trackpoint>
          <Trackpoint>
            <Time>2021-04-03T09:00:46.000Z</Time>
            <Position>
              <LatitudeDegrees>42.29982747696340084075927734375</LatitudeDegrees>
              <LongitudeDegrees>2.5723073445260524749755859375</LongitudeDegrees>
            </Position>
            <AltitudeMeters>757.5999755859375</AltitudeMeters>
            <DistanceMeters>NAN</DistanceMeters>
          </Trackpoint>
          <Trackpoint>
            <Time>2021-04-03T09:00:47.000Z</Time>
            <Position>
              <LatitudeDegrees>42.29979210533201694488525390625</LatitudeDegrees>
              <LongitudeDegrees>2.5723130442202091217041015625</LongitudeDegrees>
            </Position>
            <AltitudeMeters>757.5999755859375</AltitudeMeters>
            <DistanceMeters>NAN</DistanceMeters>
          </Trackpoint>
          <Trackpoint>
            <Time>2021-04-03T09:00:58.000Z</Time>
            <Position>
              <LatitudeDegrees>42.29983267374336719512939453125</LatitudeDegrees>
              <LongitudeDegrees>2.57233676500618457794189453125</LongitudeDegrees>
            </Position>
            <AltitudeMeters>758</AltitudeMeters>
            <DistanceMeters>NAN</DistanceMeters>
          </Trackpoint>
          <Trackpoint>
            <Time>2021-04-03T09:01:08.000Z</Time>
            <Position>
              <LatitudeDegrees>42.29982890188694000244140625</LatitudeDegrees>
              <LongitudeDegrees>2.5723412074148654937744140625</LongitudeDegrees>
            </Position>
            <AltitudeMeters>757.79998779296875</AltitudeMeters>
            <DistanceMeters>NAN</DistanceMeters>
          </Trackpoint>
          <Trackpoint>
            <Time>2021-04-03T09:01:10.000Z</Time>
            <Position>
              <LatitudeDegrees>42.29982865042984485626220703125</LatitudeDegrees>
              <LongitudeDegrees>2.57234447635710239410400390625</LongitudeDegrees>
            </Position>
            <AltitudeMeters>757.79998779296875</AltitudeMeters>
            <DistanceMeters>NAN</DistanceMeters>
          </Trackpoint>
          <Trackpoint>
            <Time>2021-04-03T09:01:11.000Z</Time>
            <Position>
              <LatitudeDegrees>42.2998304106295108795166015625</LatitudeDegrees>
              <LongitudeDegrees>2.57234640419483184814453125</LongitudeDegrees>
            </Position>
            <AltitudeMeters>757.79998779296875</AltitudeMeters>
            <DistanceMeters>NAN</DistanceMeters>
          </Trackpoint>
          <Trackpoint>
            <Time>2021-04-03T09:01:15.000Z</Time>
            <Position>
              <LatitudeDegrees>42.29982462711632251739501953125</LatitudeDegrees>
              <LongitudeDegrees>2.57232838310301303863525390625</LongitudeDegrees>
            </Position>
            <AltitudeMeters>757.79998779296875</AltitudeMeters>
            <DistanceMeters>NAN</DistanceMeters>
          </Trackpoint>
          <Trackpoint>
            <Time>2021-04-03T09:01:19.000Z</Time>
            <Position>
              <LatitudeDegrees>42.2998102940618991851806640625</LatitudeDegrees>
              <LongitudeDegrees>2.572303824126720428466796875</LongitudeDegrees>
            </Position>
            <AltitudeMeters>757.5999755859375</AltitudeMeters>
            <DistanceMeters>NAN</DistanceMeters>
          </Trackpoint>
          <Trackpoint>
            <Time>2021-04-03T09:01:32.000Z</Time>
            <Position>
              <LatitudeDegrees>42.29981322772800922393798828125</LatitudeDegrees>
              <LongitudeDegrees>2.5723016448318958282470703125</LongitudeDegrees>
            </Position>
            <AltitudeMeters>756.4000244140625</AltitudeMeters>
            <DistanceMeters>NAN</DistanceMeters>
          </Trackpoint>
          <Trackpoint>
            <Time>2021-04-03T09:01:38.000Z</Time>
            <Position>
              <LatitudeDegrees>42.299810461699962615966796875</LatitudeDegrees>
              <LongitudeDegrees>2.5723016448318958282470703125</LongitudeDegrees>
            </Position>
            <AltitudeMeters>755.79998779296875</AltitudeMeters>
            <DistanceMeters>NAN</DistanceMeters>
          </Trackpoint>
          <Trackpoint>
            <Time>2021-04-03T09:01:45.000Z</Time>
            <Position>
              <LatitudeDegrees>42.2997812926769256591796875</LatitudeDegrees>
              <LongitudeDegrees>2.57229083217680454254150390625</LongitudeDegrees>
            </Position>
            <AltitudeMeters>755.4000244140625</AltitudeMeters>
            <DistanceMeters>NAN</DistanceMeters>
          </Trackpoint>
          <Trackpoint>
            <Time>2021-04-03T09:01:57.000Z</Time>
            <Position>
              <LatitudeDegrees>42.29974248446524143218994140625</LatitudeDegrees>
              <LongitudeDegrees>2.57223702035844326019287109375</LongitudeDegrees>
            </Position>
            <AltitudeMeters>754.4000244140625</AltitudeMeters>
            <DistanceMeters>NAN</DistanceMeters>
          </Trackpoint>
          <Trackpoint>
            <Time>2021-04-03T09:02:01.000Z</Time>
            <Position>
              <LatitudeDegrees>42.299697138369083404541015625</LatitudeDegrees>
              <LongitudeDegrees>2.5721863098442554473876953125</LongitudeDegrees>
            </Position>
            <AltitudeMeters>753.5999755859375</AltitudeMeters>
            <DistanceMeters>NAN</DistanceMeters>
          </Trackpoint>
          <Trackpoint>
            <Time>2021-04-03T09:02:02.000Z</Time>
            <Position>
              <LatitudeDegrees>42.29968615807592868804931640625</LatitudeDegrees>
              <LongitudeDegrees>2.57217281498014926910400390625</LongitudeDegrees>
            </Position>
            <AltitudeMeters>753.5999755859375</AltitudeMeters>
            <DistanceMeters>NAN</DistanceMeters>
          </Trackpoint>
          <Trackpoint>
            <Time>2021-04-03T09:02:04.000Z</Time>
            <Position>
              <LatitudeDegrees>42.299662269651889801025390625</LatitudeDegrees>
              <LongitudeDegrees>2.57215621881186962127685546875</LongitudeDegrees>
            </Position>
            <AltitudeMeters>753.20001220703125</AltitudeMeters>
            <DistanceMeters>NAN</DistanceMeters>
          </Trackpoint>
          <Trackpoint>
            <Time>2021-04-03T09:02:05.000Z</Time>
            <Position>
              <LatitudeDegrees>42.29965313337743282318115234375</LatitudeDegrees>
              <LongitudeDegrees>2.57214750163257122039794921875</LongitudeDegrees>
            </Position>
            <AltitudeMeters>753.20001220703125</AltitudeMeters>
            <DistanceMeters>NAN</DistanceMeters>
          </Trackpoint>
          <Trackpoint>
            <Time>2021-04-03T09:02:10.000Z</Time>
            <Position>
              <LatitudeDegrees>42.29961843229830265045166015625</LatitudeDegrees>
              <LongitudeDegrees>2.572126798331737518310546875</LongitudeDegrees>
            </Position>
            <AltitudeMeters>752.79998779296875</AltitudeMeters>
            <DistanceMeters>NAN</DistanceMeters>
          </Trackpoint>
          <Trackpoint>
            <Time>2021-04-03T09:02:12.000Z</Time>
            <Position>
              <LatitudeDegrees>42.2996037639677524566650390625</LatitudeDegrees>
              <LongitudeDegrees>2.57210693322122097015380859375</LongitudeDegrees>
            </Position>
            <AltitudeMeters>752.4000244140625</AltitudeMeters>
            <DistanceMeters>NAN</DistanceMeters>
          </Trackpoint>
          <Trackpoint>
            <Time>2021-04-03T09:02:13.000Z</Time>
            <Position>
              <LatitudeDegrees>42.29959546588361263275146484375</LatitudeDegrees>
              <LongitudeDegrees>2.572101652622222900390625</LongitudeDegrees>
            </Position>
            <AltitudeMeters>752.4000244140625</AltitudeMeters>
            <DistanceMeters>NAN</DistanceMeters>
          </Trackpoint>
          <Trackpoint>
            <Time>2021-04-03T09:02:16.000Z</Time>
            <Position>
              <LatitudeDegrees>42.299581803381443023681640625</LatitudeDegrees>
              <LongitudeDegrees>2.57205546833574771881103515625</LongitudeDegrees>
            </Position>
            <AltitudeMeters>752.20001220703125</AltitudeMeters>
            <DistanceMeters>NAN</DistanceMeters>
          </Trackpoint>
          <Trackpoint>
            <Time>2021-04-03T09:02:18.000Z</Time>
            <Position>
              <LatitudeDegrees>42.29957836680114269256591796875</LatitudeDegrees>
              <LongitudeDegrees>2.5720317475497722625732421875</LongitudeDegrees>
            </Position>
            <AltitudeMeters>752.20001220703125</AltitudeMeters>
            <DistanceMeters>NAN</DistanceMeters>
          </Trackpoint>
          <Trackpoint>
            <Time>2021-04-03T09:02:21.000Z</Time>
            <Position>
              <LatitudeDegrees>42.29955942369997501373291015625</LatitudeDegrees>
              <LongitudeDegrees>2.57202277891337871551513671875</LongitudeDegrees>
            </Position>
            <AltitudeMeters>752</AltitudeMeters>
            <DistanceMeters>NAN</DistanceMeters>
          </Trackpoint>
          <Trackpoint>
            <Time>2021-04-03T09:02:23.000Z</Time>
            <Position>
              <LatitudeDegrees>42.29955070652067661285400390625</LatitudeDegrees>
              <LongitudeDegrees>2.57200567983090877532958984375</LongitudeDegrees>
            </Position>
            <AltitudeMeters>751.79998779296875</AltitudeMeters>
            <DistanceMeters>NAN</DistanceMeters>
          </Trackpoint>
          <Trackpoint>
            <Time>2021-04-03T09:02:24.000Z</Time>
            <Position>
              <LatitudeDegrees>42.29954651556909084320068359375</LatitudeDegrees>
              <LongitudeDegrees>2.57199830375611782073974609375</LongitudeDegrees>
            </Position>
            <AltitudeMeters>751.5999755859375</AltitudeMeters>
            <DistanceMeters>NAN</DistanceMeters>
          </Trackpoint>
          <Trackpoint>
            <Time>2021-04-03T09:02:25.000Z</Time>
            <Position>
              <LatitudeDegrees>42.29954383336007595062255859375</LatitudeDegrees>
              <LongitudeDegrees>2.5719895027577877044677734375</LongitudeDegrees>
            </Position>
            <AltitudeMeters>751.4000244140625</AltitudeMeters>
            <DistanceMeters>NAN</DistanceMeters>
          </Trackpoint>
          <Trackpoint>
            <Time>2021-04-03T09:02:27.000Z</Time>
            <Position>
              <LatitudeDegrees>42.2995397262275218963623046875</LatitudeDegrees>
              <LongitudeDegrees>2.57197332568466663360595703125</LongitudeDegrees>
            </Position>
            <AltitudeMeters>751.20001220703125</AltitudeMeters>
            <DistanceMeters>NAN</DistanceMeters>
          </Trackpoint>
          <Trackpoint>
            <Time>2021-04-03T09:02:31.000Z</Time>
            <Position>
              <LatitudeDegrees>42.29950301349163055419921875</LatitudeDegrees>
              <LongitudeDegrees>2.57196896709501743316650390625</LongitudeDegrees>
            </Position>
            <AltitudeMeters>750.79998779296875</AltitudeMeters>
            <DistanceMeters>NAN</DistanceMeters>
          </Trackpoint>
          <Trackpoint>
            <Time>2021-04-03T09:02:36.000Z</Time>
            <Position>
              <LatitudeDegrees>42.29950125329196453094482421875</LatitudeDegrees>
              <LongitudeDegrees>2.571958489716053009033203125</LongitudeDegrees>
            </Position>
            <AltitudeMeters>750.20001220703125</AltitudeMeters>
            <DistanceMeters>NAN</DistanceMeters>
          </Trackpoint>
          <Trackpoint>
            <Time>2021-04-03T09:02:41.000Z</Time>
            <Position>
              <LatitudeDegrees>42.29946403764188289642333984375</LatitudeDegrees>
              <LongitudeDegrees>2.5719076953828334808349609375</LongitudeDegrees>
            </Position>
            <AltitudeMeters>749.5999755859375</AltitudeMeters>
            <DistanceMeters>NAN</DistanceMeters>
          </Trackpoint>
          <Trackpoint>
            <Time>2021-04-03T09:02:45.000Z</Time>
            <Position>
              <LatitudeDegrees>42.2994549013674259185791015625</LatitudeDegrees>
              <LongitudeDegrees>2.57188078947365283966064453125</LongitudeDegrees>
            </Position>
            <AltitudeMeters>749</AltitudeMeters>
            <DistanceMeters>NAN</DistanceMeters>
          </Trackpoint>
          <Trackpoint>
            <Time>2021-04-03T09:02:47.000Z</Time>
            <Position>
              <LatitudeDegrees>42.29946705512702465057373046875</LatitudeDegrees>
              <LongitudeDegrees>2.5718812085688114166259765625</LongitudeDegrees>
            </Position>
            <AltitudeMeters>748.5999755859375</AltitudeMeters>
            <DistanceMeters>NAN</DistanceMeters>
          </Trackpoint>
          <Trackpoint>
            <Time>2021-04-03T09:02:53.000Z</Time>
            <Position>
              <LatitudeDegrees>42.2994964756071567535400390625</LatitudeDegrees>
              <LongitudeDegrees>2.5719117186963558197021484375</LongitudeDegrees>
            </Position>
            <AltitudeMeters>747.79998779296875</AltitudeMeters>
            <DistanceMeters>NAN</DistanceMeters>
          </Trackpoint>
          <Trackpoint>
            <Time>2021-04-03T09:02:56.000Z</Time>
            <Position>
              <LatitudeDegrees>42.2995182685554027557373046875</LatitudeDegrees>
              <LongitudeDegrees>2.57190627045929431915283203125</LongitudeDegrees>
            </Position>
            <AltitudeMeters>747.4000244140625</AltitudeMeters>
            <DistanceMeters>NAN</DistanceMeters>
          </Trackpoint>
          <Trackpoint>
            <Time>2021-04-03T09:02:57.000Z</Time>
            <Position>
              <LatitudeDegrees>42.29952572844922542572021484375</LatitudeDegrees>
              <LongitudeDegrees>2.57189386524260044097900390625</LongitudeDegrees>
            </Position>
            <AltitudeMeters>747.4000244140625</AltitudeMeters>
            <DistanceMeters>NAN</DistanceMeters>
          </Trackpoint>
          <Trackpoint>
            <Time>2021-04-03T09:03:00.000Z</Time>
            <Position>
              <LatitudeDegrees>42.2995269857347011566162109375</LatitudeDegrees>
              <LongitudeDegrees>2.57185162045061588287353515625</LongitudeDegrees>
            </Position>
            <AltitudeMeters>746.79998779296875</AltitudeMeters>
            <DistanceMeters>NAN</DistanceMeters>
          </Trackpoint>
          <Trackpoint>
            <Time>2021-04-03T09:03:02.000Z</Time>
            <Position>
              <LatitudeDegrees>42.29951717890799045562744140625</LatitudeDegrees>
              <LongitudeDegrees>2.57183703593909740447998046875</LongitudeDegrees>
            </Position>
            <AltitudeMeters>746.4000244140625</AltitudeMeters>
            <DistanceMeters>NAN</DistanceMeters>
          </Trackpoint>
          <Trackpoint>
            <Time>2021-04-03T09:03:03.000Z</Time>
            <Position>
              <LatitudeDegrees>42.29951248504221439361572265625</LatitudeDegrees>
              <LongitudeDegrees>2.57183074951171875</LongitudeDegrees>
            </Position>
            <AltitudeMeters>746.20001220703125</AltitudeMeters>
            <DistanceMeters>NAN</DistanceMeters>
          </Trackpoint>
          <Trackpoint>
            <Time>2021-04-03T09:03:06.000Z</Time>
            <Position>
              <LatitudeDegrees>42.29949505068361759185791015625</LatitudeDegrees>
              <LongitudeDegrees>2.571825049817562103271484375</LongitudeDegrees>
            </Position>
            <AltitudeMeters>745.79998779296875</AltitudeMeters>
            <DistanceMeters>NAN</DistanceMeters>
          </Trackpoint>
          <Trackpoint>
            <Time>2021-04-03T09:03:10.000Z</Time>
            <Position>
              <LatitudeDegrees>42.2994770295917987823486328125</LatitudeDegrees>
              <LongitudeDegrees>2.5718213617801666259765625</LongitudeDegrees>
            </Position>
            <AltitudeMeters>744.79998779296875</AltitudeMeters>
            <DistanceMeters>NAN</DistanceMeters>
          </Trackpoint>
          <Trackpoint>
            <Time>2021-04-03T09:03:11.000Z</Time>
            <Position>
              <LatitudeDegrees>42.29946973733603954315185546875</LatitudeDegrees>
              <LongitudeDegrees>2.571824379265308380126953125</LongitudeDegrees>
            </Position>
            <AltitudeMeters>744.79998779296875</AltitudeMeters>
            <DistanceMeters>NAN</DistanceMeters>
          </Trackpoint>
          <Trackpoint>
            <Time>2021-04-03T09:03:16.000Z</Time>
            <Position>
              <LatitudeDegrees>42.2994505427777767181396484375</LatitudeDegrees>
              <LongitudeDegrees>2.57178640924394130706787109375</LongitudeDegrees>
            </Position>
            <AltitudeMeters>744</AltitudeMeters>
            <DistanceMeters>NAN</DistanceMeters>
          </Trackpoint>
          <Trackpoint>
            <Time>2021-04-03T09:03:19.000Z</Time>
            <Position>
              <LatitudeDegrees>42.2994354553520679473876953125</LatitudeDegrees>
              <LongitudeDegrees>2.5717623531818389892578125</LongitudeDegrees>
            </Position>
            <AltitudeMeters>743.5999755859375</AltitudeMeters>
            <DistanceMeters>NAN</DistanceMeters>
          </Trackpoint>
          <Trackpoint>
            <Time>2021-04-03T09:03:21.000Z</Time>
            <Position>
              <LatitudeDegrees>42.2994339466094970703125</LatitudeDegrees>
              <LongitudeDegrees>2.57175874896347522735595703125</LongitudeDegrees>
            </Position>
            <AltitudeMeters>743.4000244140625</AltitudeMeters>
            <DistanceMeters>NAN</DistanceMeters>
          </Trackpoint>
          <Trackpoint>
            <Time>2021-04-03T09:03:24.000Z</Time>
            <Position>
              <LatitudeDegrees>42.29942522943019866943359375</LatitudeDegrees>
              <LongitudeDegrees>2.57174198515713214874267578125</LongitudeDegrees>
            </Position>
            <AltitudeMeters>742.79998779296875</AltitudeMeters>
            <DistanceMeters>NAN</DistanceMeters>
          </Trackpoint>
          <Trackpoint>
            <Time>2021-04-03T09:03:26.000Z</Time>
            <Position>
              <LatitudeDegrees>42.29940871708095073699951171875</LatitudeDegrees>
              <LongitudeDegrees>2.57174315862357616424560546875</LongitudeDegrees>
            </Position>
            <AltitudeMeters>742.5999755859375</AltitudeMeters>
            <DistanceMeters>NAN</DistanceMeters>
          </Trackpoint>
          <Trackpoint>
            <Time>2021-04-03T09:03:30.000Z</Time>
            <Position>
              <LatitudeDegrees>42.29938675649464130401611328125</LatitudeDegrees>
              <LongitudeDegrees>2.5717440806329250335693359375</LongitudeDegrees>
            </Position>
            <AltitudeMeters>742.20001220703125</AltitudeMeters>
            <DistanceMeters>NAN</DistanceMeters>
          </Trackpoint>
          <Trackpoint>
            <Time>2021-04-03T09:03:36.000Z</Time>
            <Position>
              <LatitudeDegrees>42.29933805763721466064453125</LatitudeDegrees>
              <LongitudeDegrees>2.5717033445835113525390625</LongitudeDegrees>
            </Position>
            <AltitudeMeters>741.4000244140625</AltitudeMeters>
            <DistanceMeters>NAN</DistanceMeters>
          </Trackpoint>
          <Trackpoint>
            <Time>2021-04-03T09:03:38.000Z</Time>
            <Position>
              <LatitudeDegrees>42.29932188056409358978271484375</LatitudeDegrees>
              <LongitudeDegrees>2.5717048533260822296142578125</LongitudeDegrees>
            </Position>
            <AltitudeMeters>741</AltitudeMeters>
            <DistanceMeters>NAN</DistanceMeters>
          </Trackpoint>
          <Trackpoint>
            <Time>2021-04-03T09:03:43.000Z</Time>
            <Position>
              <LatitudeDegrees>42.29931668378412723541259765625</LatitudeDegrees>
              <LongitudeDegrees>2.57171968929469585418701171875</LongitudeDegrees>
            </Position>
            <AltitudeMeters>740.4000244140625</AltitudeMeters>
            <DistanceMeters>NAN</DistanceMeters>
          </Trackpoint>
          <Trackpoint>
            <Time>2021-04-03T09:03:44.000Z</Time>
            <Position>
              <LatitudeDegrees>42.29931970126926898956298828125</LatitudeDegrees>
              <LongitudeDegrees>2.571715749800205230712890625</LongitudeDegrees>
            </Position>
            <AltitudeMeters>740.4000244140625</AltitudeMeters>
            <DistanceMeters>NAN</DistanceMeters>
          </Trackpoint>
          <Trackpoint>
            <Time>2021-04-03T09:03:47.000Z</Time>
            <Position>
              <LatitudeDegrees>42.29931701906025409698486328125</LatitudeDegrees>
              <LongitudeDegrees>2.57169856689870357513427734375</LongitudeDegrees>
            </Position>
            <AltitudeMeters>740</AltitudeMeters>
            <DistanceMeters>NAN</DistanceMeters>
          </Trackpoint>
          <Trackpoint>
            <Time>2021-04-03T09:03:53.000Z</Time>
            <Position>
              <LatitudeDegrees>42.29929170571267604827880859375</LatitudeDegrees>
              <LongitudeDegrees>2.57159404456615447998046875</LongitudeDegrees>
            </Position>
            <AltitudeMeters>739.20001220703125</AltitudeMeters>
            <DistanceMeters>NAN</DistanceMeters>
          </Trackpoint>
          <Trackpoint>
            <Time>2021-04-03T09:03:54.000Z</Time>
            <Position>
              <LatitudeDegrees>42.2992869280278682708740234375</LatitudeDegrees>
              <LongitudeDegrees>2.57158373482525348663330078125</LongitudeDegrees>
            </Position>
            <AltitudeMeters>739.20001220703125</AltitudeMeters>
            <DistanceMeters>NAN</DistanceMeters>
          </Trackpoint>
          <Trackpoint>
            <Time>2021-04-03T09:03:55.000Z</Time>
            <Position>
              <LatitudeDegrees>42.29928332380950450897216796875</LatitudeDegrees>
              <LongitudeDegrees>2.5715734250843524932861328125</LongitudeDegrees>
            </Position>
            <AltitudeMeters>739.20001220703125</AltitudeMeters>
            <DistanceMeters>NAN</DistanceMeters>
          </Trackpoint>
          <Trackpoint>
            <Time>2021-04-03T09:03:56.000Z</Time>
            <Position>
              <LatitudeDegrees>42.29927762411534786224365234375</LatitudeDegrees>
              <LongitudeDegrees>2.5715637020766735076904296875</LongitudeDegrees>
            </Position>
            <AltitudeMeters>739.20001220703125</AltitudeMeters>
            <DistanceMeters>NAN</DistanceMeters>
          </Trackpoint>
          <Trackpoint>
            <Time>2021-04-03T09:03:57.000Z</Time>
            <Position>
              <LatitudeDegrees>42.29927108623087406158447265625</LatitudeDegrees>
              <LongitudeDegrees>2.57155322469770908355712890625</LongitudeDegrees>
            </Position>
            <AltitudeMeters>739.20001220703125</AltitudeMeters>
            <DistanceMeters>NAN</DistanceMeters>
          </Trackpoint>
          <Trackpoint>
            <Time>2021-04-03T09:04:00.000Z</Time>
            <Position>
              <LatitudeDegrees>42.299262620508670806884765625</LatitudeDegrees>
              <LongitudeDegrees>2.57152338512241840362548828125</LongitudeDegrees>
            </Position>
            <AltitudeMeters>738.79998779296875</AltitudeMeters>
            <DistanceMeters>NAN</DistanceMeters>
          </Trackpoint>
          <Trackpoint>
            <Time>2021-04-03T09:04:03.000Z</Time>
            <Position>
              <LatitudeDegrees>42.299257926642894744873046875</LatitudeDegrees>
              <LongitudeDegrees>2.57147829048335552215576171875</LongitudeDegrees>
            </Position>
            <AltitudeMeters>738.5999755859375</AltitudeMeters>
            <DistanceMeters>NAN</DistanceMeters>
          </Trackpoint>
          <Trackpoint>
            <Time>2021-04-03T09:04:06.000Z</Time>
            <Position>
              <LatitudeDegrees>42.29924795217812061309814453125</LatitudeDegrees>
              <LongitudeDegrees>2.57141877897083759307861328125</LongitudeDegrees>
            </Position>
            <AltitudeMeters>738</AltitudeMeters>
            <DistanceMeters>NAN</DistanceMeters>
          </Trackpoint>
          <Trackpoint>
            <Time>2021-04-03T09:04:09.000Z</Time>
            <Position>
              <LatitudeDegrees>42.299241833388805389404296875</LatitudeDegrees>
              <LongitudeDegrees>2.57140167988836765289306640625</LongitudeDegrees>
            </Position>
            <AltitudeMeters>737.4000244140625</AltitudeMeters>
            <DistanceMeters>NAN</DistanceMeters>
          </Trackpoint>
          <Trackpoint>
            <Time>2021-04-03T09:04:11.000Z</Time>
            <Position>
              <LatitudeDegrees>42.29924208484590053558349609375</LatitudeDegrees>
              <LongitudeDegrees>2.57138659246265888214111328125</LongitudeDegrees>
            </Position>
            <AltitudeMeters>736.79998779296875</AltitudeMeters>
            <DistanceMeters>NAN</DistanceMeters>
          </Trackpoint>
          <Trackpoint>
            <Time>2021-04-03T09:04:16.000Z</Time>
            <Position>
              <LatitudeDegrees>42.299230434000492095947265625</LatitudeDegrees>
              <LongitudeDegrees>2.57133412174880504608154296875</LongitudeDegrees>
            </Position>
            <AltitudeMeters>736.20001220703125</AltitudeMeters>
            <DistanceMeters>NAN</DistanceMeters>
          </Trackpoint>
          <Trackpoint>
            <Time>2021-04-03T09:04:18.000Z</Time>
            <Position>
              <LatitudeDegrees>42.2992262430489063262939453125</LatitudeDegrees>
              <LongitudeDegrees>2.57130729965865612030029296875</LongitudeDegrees>
            </Position>
            <AltitudeMeters>735.5999755859375</AltitudeMeters>
            <DistanceMeters>NAN</DistanceMeters>
          </Trackpoint>
          <Trackpoint>
            <Time>2021-04-03T09:04:22.000Z</Time>
            <Position>
              <LatitudeDegrees>42.29922213591635227203369140625</LatitudeDegrees>
              <LongitudeDegrees>2.57125415839254856109619140625</LongitudeDegrees>
            </Position>
            <AltitudeMeters>734.4000244140625</AltitudeMeters>
            <DistanceMeters>NAN</DistanceMeters>
          </Trackpoint>
          <Trackpoint>
            <Time>2021-04-03T09:04:23.000Z</Time>
            <Position>
              <LatitudeDegrees>42.29921735823154449462890625</LatitudeDegrees>
              <LongitudeDegrees>2.5712492130696773529052734375</LongitudeDegrees>
            </Position>
            <AltitudeMeters>734.20001220703125</AltitudeMeters>
            <DistanceMeters>NAN</DistanceMeters>
          </Trackpoint>
          <Trackpoint>
            <Time>2021-04-03T09:04:26.000Z</Time>
            <Position>
              <LatitudeDegrees>42.29920327663421630859375</LatitudeDegrees>
              <LongitudeDegrees>2.571229599416255950927734375</LongitudeDegrees>
            </Position>
            <AltitudeMeters>733.79998779296875</AltitudeMeters>
            <DistanceMeters>NAN</DistanceMeters>
          </Trackpoint>
          <Trackpoint>
            <Time>2021-04-03T09:04:28.000Z</Time>
            <Position>
              <LatitudeDegrees>42.299198918044567108154296875</LatitudeDegrees>
              <LongitudeDegrees>2.57121074013411998748779296875</LongitudeDegrees>
            </Position>
            <AltitudeMeters>733.20001220703125</AltitudeMeters>
            <DistanceMeters>NAN</DistanceMeters>
          </Trackpoint>
          <Trackpoint>
            <Time>2021-04-03T09:04:30.000Z</Time>
            <Position>
              <LatitudeDegrees>42.2991900332272052764892578125</LatitudeDegrees>
              <LongitudeDegrees>2.57120118476450443267822265625</LongitudeDegrees>
            </Position>
            <AltitudeMeters>733</AltitudeMeters>
            <DistanceMeters>NAN</DistanceMeters>
          </Trackpoint>
          <Trackpoint>
            <Time>2021-04-03T09:04:35.000Z</Time>
            <Position>
              <LatitudeDegrees>42.2991672344505786895751953125</LatitudeDegrees>
              <LongitudeDegrees>2.571141421794891357421875</LongitudeDegrees>
            </Position>
            <AltitudeMeters>732.20001220703125</AltitudeMeters>
            <DistanceMeters>NAN</DistanceMeters>
          </Trackpoint>
          <Trackpoint>
            <Time>2021-04-03T09:04:38.000Z</Time>
            <Position>
              <LatitudeDegrees>42.29916103184223175048828125</LatitudeDegrees>
              <LongitudeDegrees>2.5711151026189327239990234375</LongitudeDegrees>
            </Position>
            <AltitudeMeters>731.4000244140625</AltitudeMeters>
            <DistanceMeters>NAN</DistanceMeters>
          </Trackpoint>
          <Trackpoint>
            <Time>2021-04-03T09:04:40.000Z</Time>
            <Position>
              <LatitudeDegrees>42.29914636351168155670166015625</LatitudeDegrees>
              <LongitudeDegrees>2.5711080618202686309814453125</LongitudeDegrees>
            </Position>
            <AltitudeMeters>731</AltitudeMeters>
            <DistanceMeters>NAN</DistanceMeters>
          </Trackpoint>
          <Trackpoint>
            <Time>2021-04-03T09:04:44.000Z</Time>
            <Position>
              <LatitudeDegrees>42.29911250062286853790283203125</LatitudeDegrees>
              <LongitudeDegrees>2.5710990093648433685302734375</LongitudeDegrees>
            </Position>
            <AltitudeMeters>730.20001220703125</AltitudeMeters>
            <DistanceMeters>NAN</DistanceMeters>
          </Trackpoint>
          <Trackpoint>
            <Time>2021-04-03T09:04:45.000Z</Time>
            <Position>
              <LatitudeDegrees>42.29910428635776042938232421875</LatitudeDegrees>
              <LongitudeDegrees>2.5710969977080821990966796875</LongitudeDegrees>
            </Position>
            <AltitudeMeters>730</AltitudeMeters>
            <DistanceMeters>NAN</DistanceMeters>
          </Trackpoint>
          <Trackpoint>
            <Time>2021-04-03T09:04:48.000Z</Time>
            <Position>
              <LatitudeDegrees>42.29908534325659275054931640625</LatitudeDegrees>
              <LongitudeDegrees>2.571090124547481536865234375</LongitudeDegrees>
            </Position>
            <AltitudeMeters>729.4000244140625</AltitudeMeters>
            <DistanceMeters>NAN</DistanceMeters>
          </Trackpoint>
          <Trackpoint>
            <Time>2021-04-03T09:04:50.000Z</Time>
            <Position>
              <LatitudeDegrees>42.29906606487929821014404296875</LatitudeDegrees>
              <LongitudeDegrees>2.5710735283792018890380859375</LongitudeDegrees>
            </Position>
            <AltitudeMeters>729</AltitudeMeters>
            <DistanceMeters>NAN</DistanceMeters>
          </Trackpoint>
          <Trackpoint>
            <Time>2021-04-03T09:04:51.000Z</Time>
            <Position>
              <LatitudeDegrees>42.29904578067362308502197265625</LatitudeDegrees>
              <LongitudeDegrees>2.57106757722795009613037109375</LongitudeDegrees>
            </Position>
            <AltitudeMeters>728.79998779296875</AltitudeMeters>
            <DistanceMeters>NAN</DistanceMeters>
          </Trackpoint>
          <Trackpoint>
            <Time>2021-04-03T09:04:54.000Z</Time>
            <Position>
              <LatitudeDegrees>42.2990213893353939056396484375</LatitudeDegrees>
              <LongitudeDegrees>2.5710255838930606842041015625</LongitudeDegrees>
            </Position>
            <AltitudeMeters>728.20001220703125</AltitudeMeters>
            <DistanceMeters>NAN</DistanceMeters>
          </Trackpoint>
          <Trackpoint>
            <Time>2021-04-03T09:04:57.000Z</Time>
            <Position>
              <LatitudeDegrees>42.29901376180350780487060546875</LatitudeDegrees>
              <LongitudeDegrees>2.57099281065165996551513671875</LongitudeDegrees>
            </Position>
            <AltitudeMeters>728</AltitudeMeters>
            <DistanceMeters>NAN</DistanceMeters>
          </Trackpoint>
          <Trackpoint>
            <Time>2021-04-03T09:04:58.000Z</Time>
            <Position>
              <LatitudeDegrees>42.29901342652738094329833984375</LatitudeDegrees>
              <LongitudeDegrees>2.57098794914782047271728515625</LongitudeDegrees>
            </Position>
            <AltitudeMeters>727.79998779296875</AltitudeMeters>
            <DistanceMeters>NAN</DistanceMeters>
          </Trackpoint>
          <Trackpoint>
            <Time>2021-04-03T09:05:01.000Z</Time>
            <Position>
              <LatitudeDegrees>42.29898023419082164764404296875</LatitudeDegrees>
              <LongitudeDegrees>2.570964395999908447265625</LongitudeDegrees>
            </Position>
            <AltitudeMeters>727.5999755859375</AltitudeMeters>
            <DistanceMeters>NAN</DistanceMeters>
          </Trackpoint>
          <Trackpoint>
            <Time>2021-04-03T09:05:02.000Z</Time>
            <Position>
              <LatitudeDegrees>42.29897000826895236968994140625</LatitudeDegrees>
              <LongitudeDegrees>2.57095391862094402313232421875</LongitudeDegrees>
            </Position>
            <AltitudeMeters>727.5999755859375</AltitudeMeters>
            <DistanceMeters>NAN</DistanceMeters>
          </Trackpoint>
          <Trackpoint>
            <Time>2021-04-03T09:05:09.000Z</Time>
            <Position>
              <LatitudeDegrees>42.29893178679049015045166015625</LatitudeDegrees>
              <LongitudeDegrees>2.5708757154643535614013671875</LongitudeDegrees>
            </Position>
            <AltitudeMeters>726.4000244140625</AltitudeMeters>
            <DistanceMeters>NAN</DistanceMeters>
          </Trackpoint>
          <Trackpoint>
            <Time>2021-04-03T09:05:10.000Z</Time>
            <Position>
              <LatitudeDegrees>42.298925332725048065185546875</LatitudeDegrees>
              <LongitudeDegrees>2.570874877274036407470703125</LongitudeDegrees>
            </Position>
            <AltitudeMeters>726.4000244140625</AltitudeMeters>
            <DistanceMeters>NAN</DistanceMeters>
          </Trackpoint>
          <Trackpoint>
            <Time>2021-04-03T09:05:14.000Z</Time>
            <Position>
              <LatitudeDegrees>42.29889054782688617706298828125</LatitudeDegrees>
              <LongitudeDegrees>2.5708730332553386688232421875</LongitudeDegrees>
            </Position>
            <AltitudeMeters>725.79998779296875</AltitudeMeters>
            <DistanceMeters>NAN</DistanceMeters>
          </Trackpoint>
          <Trackpoint>
            <Time>2021-04-03T09:05:16.000Z</Time>
            <Position>
              <LatitudeDegrees>42.2988715209066867828369140625</LatitudeDegrees>
              <LongitudeDegrees>2.57087613455951213836669921875</LongitudeDegrees>
            </Position>
            <AltitudeMeters>725.20001220703125</AltitudeMeters>
            <DistanceMeters>NAN</DistanceMeters>
          </Trackpoint>
          <Trackpoint>
            <Time>2021-04-03T09:05:20.000Z</Time>
            <Position>
              <LatitudeDegrees>42.2988507337868213653564453125</LatitudeDegrees>
              <LongitudeDegrees>2.57087714038789272308349609375</LongitudeDegrees>
            </Position>
            <AltitudeMeters>724.5999755859375</AltitudeMeters>
            <DistanceMeters>NAN</DistanceMeters>
          </Trackpoint>
          <Trackpoint>
            <Time>2021-04-03T09:05:22.000Z</Time>
            <Position>
              <LatitudeDegrees>42.2988403402268886566162109375</LatitudeDegrees>
              <LongitudeDegrees>2.57086222060024738311767578125</LongitudeDegrees>
            </Position>
            <AltitudeMeters>724.20001220703125</AltitudeMeters>
            <DistanceMeters>NAN</DistanceMeters>
          </Trackpoint>
          <Trackpoint>
            <Time>2021-04-03T09:05:23.000Z</Time>
            <Position>
              <LatitudeDegrees>42.29883648455142974853515625</LatitudeDegrees>
              <LongitudeDegrees>2.57085769437253475189208984375</LongitudeDegrees>
            </Position>
            <AltitudeMeters>724</AltitudeMeters>
            <DistanceMeters>NAN</DistanceMeters>
          </Trackpoint>
          <Trackpoint>
            <Time>2021-04-03T09:05:27.000Z</Time>
            <Position>
              <LatitudeDegrees>42.29881343431770801544189453125</LatitudeDegrees>
              <LongitudeDegrees>2.57082735188305377960205078125</LongitudeDegrees>
            </Position>
            <AltitudeMeters>723.4000244140625</AltitudeMeters>
            <DistanceMeters>NAN</DistanceMeters>
          </Trackpoint>
          <Trackpoint>
            <Time>2021-04-03T09:05:28.000Z</Time>
            <Position>
              <LatitudeDegrees>42.29880706407129764556884765625</LatitudeDegrees>
              <LongitudeDegrees>2.57082265801727771759033203125</LongitudeDegrees>
            </Position>
            <AltitudeMeters>723.20001220703125</AltitudeMeters>
            <DistanceMeters>NAN</DistanceMeters>
          </Trackpoint>
          <Trackpoint>
            <Time>2021-04-03T09:05:29.000Z</Time>
            <Position>
              <LatitudeDegrees>42.2987970896065235137939453125</LatitudeDegrees>
              <LongitudeDegrees>2.5708187185227870941162109375</LongitudeDegrees>
            </Position>
            <AltitudeMeters>723.20001220703125</AltitudeMeters>
            <DistanceMeters>NAN</DistanceMeters>
          </Trackpoint>
          <Trackpoint>
            <Time>2021-04-03T09:05:30.000Z</Time>
            <Position>
              <LatitudeDegrees>42.298790551722049713134765625</LatitudeDegrees>
              <LongitudeDegrees>2.5708150304853916168212890625</LongitudeDegrees>
            </Position>
            <AltitudeMeters>723</AltitudeMeters>
            <DistanceMeters>NAN</DistanceMeters>
          </Trackpoint>
          <Trackpoint>
            <Time>2021-04-03T09:05:32.000Z</Time>
            <Position>
              <LatitudeDegrees>42.29877102188766002655029296875</LatitudeDegrees>
              <LongitudeDegrees>2.57079566828906536102294921875</LongitudeDegrees>
            </Position>
            <AltitudeMeters>722.79998779296875</AltitudeMeters>
            <DistanceMeters>NAN</DistanceMeters>
          </Trackpoint>
          <Trackpoint>
            <Time>2021-04-03T09:05:36.000Z</Time>
            <Position>
              <LatitudeDegrees>42.29875157587230205535888671875</LatitudeDegrees>
              <LongitudeDegrees>2.5707499869167804718017578125</LongitudeDegrees>
            </Position>
            <AltitudeMeters>722.20001220703125</AltitudeMeters>
            <DistanceMeters>NAN</DistanceMeters>
          </Trackpoint>
          <Trackpoint>
            <Time>2021-04-03T09:05:37.000Z</Time>
            <Position>
              <LatitudeDegrees>42.2987486422061920166015625</LatitudeDegrees>
              <LongitudeDegrees>2.57073699496686458587646484375</LongitudeDegrees>
            </Position>
            <AltitudeMeters>722</AltitudeMeters>
            <DistanceMeters>NAN</DistanceMeters>
          </Trackpoint>
          <Trackpoint>
            <Time>2021-04-03T09:05:41.000Z</Time>
            <Position>
              <LatitudeDegrees>42.29874369688332080841064453125</LatitudeDegrees>
              <LongitudeDegrees>2.570679746568202972412109375</LongitudeDegrees>
            </Position>
            <AltitudeMeters>721.4000244140625</AltitudeMeters>
            <DistanceMeters>NAN</DistanceMeters>
          </Trackpoint>
          <Trackpoint>
            <Time>2021-04-03T09:05:42.000Z</Time>
            <Position>
              <LatitudeDegrees>42.29874168522655963897705078125</LatitudeDegrees>
              <LongitudeDegrees>2.5706577859818935394287109375</LongitudeDegrees>
            </Position>
            <AltitudeMeters>721.20001220703125</AltitudeMeters>
            <DistanceMeters>NAN</DistanceMeters>
          </Trackpoint>
          <Trackpoint>
            <Time>2021-04-03T09:05:45.000Z</Time>
            <Position>
              <LatitudeDegrees>42.298733554780483245849609375</LatitudeDegrees>
              <LongitudeDegrees>2.57062786258757114410400390625</LongitudeDegrees>
            </Position>
            <AltitudeMeters>721</AltitudeMeters>
            <DistanceMeters>NAN</DistanceMeters>
          </Trackpoint>
          <Trackpoint>
            <Time>2021-04-03T09:05:52.000Z</Time>
            <Position>
              <LatitudeDegrees>42.29867815040051937103271484375</LatitudeDegrees>
              <LongitudeDegrees>2.57056684233248233795166015625</LongitudeDegrees>
            </Position>
            <AltitudeMeters>720.20001220703125</AltitudeMeters>
            <DistanceMeters>NAN</DistanceMeters>
          </Trackpoint>
          <Trackpoint>
            <Time>2021-04-03T09:05:53.000Z</Time>
            <Position>
              <LatitudeDegrees>42.29867680929601192474365234375</LatitudeDegrees>
              <LongitudeDegrees>2.5705481506884098052978515625</LongitudeDegrees>
            </Position>
            <AltitudeMeters>720</AltitudeMeters>
            <DistanceMeters>NAN</DistanceMeters>
          </Trackpoint>
          <Trackpoint>
            <Time>2021-04-03T09:05:59.000Z</Time>
            <Position>
              <LatitudeDegrees>42.29865551926195621490478515625</LatitudeDegrees>
              <LongitudeDegrees>2.57050372660160064697265625</LongitudeDegrees>
            </Position>
            <AltitudeMeters>719</AltitudeMeters>
            <DistanceMeters>NAN</DistanceMeters>
          </Trackpoint>
          <Trackpoint>
            <Time>2021-04-03T09:06:00.000Z</Time>
            <Position>
              <LatitudeDegrees>42.298652417957782745361328125</LatitudeDegrees>
              <LongitudeDegrees>2.57049660198390483856201171875</LongitudeDegrees>
            </Position>
            <AltitudeMeters>718.79998779296875</AltitudeMeters>
            <DistanceMeters>NAN</DistanceMeters>
          </Trackpoint>
          <Trackpoint>
            <Time>2021-04-03T09:06:06.000Z</Time>
            <Position>
              <LatitudeDegrees>42.29861746542155742645263671875</LatitudeDegrees>
              <LongitudeDegrees>2.5704556144773960113525390625</LongitudeDegrees>
            </Position>
            <AltitudeMeters>718</AltitudeMeters>
            <DistanceMeters>NAN</DistanceMeters>
          </Trackpoint>
          <Trackpoint>
            <Time>2021-04-03T09:06:07.000Z</Time>
            <Position>
              <LatitudeDegrees>42.29861780069768428802490234375</LatitudeDegrees>
              <LongitudeDegrees>2.57043801248073577880859375</LongitudeDegrees>
            </Position>
            <AltitudeMeters>717.79998779296875</AltitudeMeters>
            <DistanceMeters>NAN</DistanceMeters>
          </Trackpoint>
          <Trackpoint>
            <Time>2021-04-03T09:06:10.000Z</Time>
            <Position>
              <LatitudeDegrees>42.29864127002656459808349609375</LatitudeDegrees>
              <LongitudeDegrees>2.57040406577289104461669921875</LongitudeDegrees>
            </Position>
            <AltitudeMeters>716.79998779296875</AltitudeMeters>
            <DistanceMeters>NAN</DistanceMeters>
          </Trackpoint>
          <Trackpoint>
            <Time>2021-04-03T09:06:13.000Z</Time>
            <Position>
              <LatitudeDegrees>42.29867781512439250946044921875</LatitudeDegrees>
              <LongitudeDegrees>2.5703966058790683746337890625</LongitudeDegrees>
            </Position>
            <AltitudeMeters>716.4000244140625</AltitudeMeters>
            <DistanceMeters>NAN</DistanceMeters>
          </Trackpoint>
          <Trackpoint>
            <Time>2021-04-03T09:06:14.000Z</Time>
            <Position>
              <LatitudeDegrees>42.29868770577013492584228515625</LatitudeDegrees>
              <LongitudeDegrees>2.57037858478724956512451171875</LongitudeDegrees>
            </Position>
            <AltitudeMeters>716.20001220703125</AltitudeMeters>
            <DistanceMeters>NAN</DistanceMeters>
          </Trackpoint>
          <Trackpoint>
            <Time>2021-04-03T09:06:18.000Z</Time>
            <Position>
              <LatitudeDegrees>42.298728525638580322265625</LatitudeDegrees>
              <LongitudeDegrees>2.57038948126137256622314453125</LongitudeDegrees>
            </Position>
            <AltitudeMeters>715.79998779296875</AltitudeMeters>
            <DistanceMeters>NAN</DistanceMeters>
          </Trackpoint>
          <Trackpoint>
            <Time>2021-04-03T09:06:22.000Z</Time>
            <Position>
              <LatitudeDegrees>42.298777140676975250244140625</LatitudeDegrees>
              <LongitudeDegrees>2.57039769552648067474365234375</LongitudeDegrees>
            </Position>
            <AltitudeMeters>715.20001220703125</AltitudeMeters>
            <DistanceMeters>NAN</DistanceMeters>
          </Trackpoint>
          <Trackpoint>
            <Time>2021-04-03T09:06:26.000Z</Time>
            <Position>
              <LatitudeDegrees>42.29880832135677337646484375</LatitudeDegrees>
              <LongitudeDegrees>2.57042166776955127716064453125</LongitudeDegrees>
            </Position>
            <AltitudeMeters>714.79998779296875</AltitudeMeters>
            <DistanceMeters>NAN</DistanceMeters>
          </Trackpoint>
          <Trackpoint>
            <Time>2021-04-03T09:06:29.000Z</Time>
            <Position>
              <LatitudeDegrees>42.2988195531070232391357421875</LatitudeDegrees>
              <LongitudeDegrees>2.570443041622638702392578125</LongitudeDegrees>
            </Position>
            <AltitudeMeters>714.4000244140625</AltitudeMeters>
            <DistanceMeters>NAN</DistanceMeters>
          </Trackpoint>
          <Trackpoint>
            <Time>2021-04-03T09:06:34.000Z</Time>
            <Position>
              <LatitudeDegrees>42.29884830303490161895751953125</LatitudeDegrees>
              <LongitudeDegrees>2.5704546086490154266357421875</LongitudeDegrees>
            </Position>
            <AltitudeMeters>713.79998779296875</AltitudeMeters>
            <DistanceMeters>NAN</DistanceMeters>
          </Trackpoint>
          <Trackpoint>
            <Time>2021-04-03T09:06:36.000Z</Time>
            <Position>
              <LatitudeDegrees>42.298856936395168304443359375</LatitudeDegrees>
              <LongitudeDegrees>2.57044295780360698699951171875</LongitudeDegrees>
            </Position>
            <AltitudeMeters>713.4000244140625</AltitudeMeters>
            <DistanceMeters>NAN</DistanceMeters>
          </Trackpoint>
          <Trackpoint>
            <Time>2021-04-03T09:06:40.000Z</Time>
            <Position>
              <LatitudeDegrees>42.29886070825159549713134765625</LatitudeDegrees>
              <LongitudeDegrees>2.57044916041195392608642578125</LongitudeDegrees>
            </Position>
            <AltitudeMeters>712.79998779296875</AltitudeMeters>
            <DistanceMeters>NAN</DistanceMeters>
          </Trackpoint>
          <Trackpoint>
            <Time>2021-04-03T09:06:53.000Z</Time>
            <Position>
              <LatitudeDegrees>42.298860289156436920166015625</LatitudeDegrees>
              <LongitudeDegrees>2.5704428739845752716064453125</LongitudeDegrees>
            </Position>
            <AltitudeMeters>713.20001220703125</AltitudeMeters>
            <DistanceMeters>NAN</DistanceMeters>
          </Trackpoint>
          <Trackpoint>
            <Time>2021-04-03T09:06:57.000Z</Time>
            <Position>
              <LatitudeDegrees>42.298860289156436920166015625</LatitudeDegrees>
              <LongitudeDegrees>2.5704428739845752716064453125</LongitudeDegrees>
            </Position>
            <AltitudeMeters>713.20001220703125</AltitudeMeters>
            <DistanceMeters>NAN</DistanceMeters>
          </Trackpoint>
          <Trackpoint>
            <Time>2021-04-03T09:06:59.000Z</Time>
            <Position>
              <LatitudeDegrees>42.298860289156436920166015625</LatitudeDegrees>
              <LongitudeDegrees>2.5704428739845752716064453125</LongitudeDegrees>
            </Position>
            <AltitudeMeters>713.20001220703125</AltitudeMeters>
            <DistanceMeters>NAN</DistanceMeters>
          </Trackpoint>
          <Trackpoint>
            <Time>2021-04-03T09:07:22.000Z</Time>
            <Position>
              <LatitudeDegrees>42.298917956650257110595703125</LatitudeDegrees>
              <LongitudeDegrees>2.5704515911638736724853515625</LongitudeDegrees>
            </Position>
            <AltitudeMeters>712.79998779296875</AltitudeMeters>
            <DistanceMeters>NAN</DistanceMeters>
          </Trackpoint>
          <Trackpoint>
            <Time>2021-04-03T09:07:23.000Z</Time>
            <Position>
              <LatitudeDegrees>42.29892767965793609619140625</LatitudeDegrees>
              <LongitudeDegrees>2.570453770458698272705078125</LongitudeDegrees>
            </Position>
            <AltitudeMeters>712.5999755859375</AltitudeMeters>
            <DistanceMeters>NAN</DistanceMeters>
          </Trackpoint>
          <Trackpoint>
            <Time>2021-04-03T09:07:25.000Z</Time>
            <Position>
              <LatitudeDegrees>42.29894771240651607513427734375</LatitudeDegrees>
              <LongitudeDegrees>2.57045703940093517303466796875</LongitudeDegrees>
            </Position>
            <AltitudeMeters>712.4000244140625</AltitudeMeters>
            <DistanceMeters>NAN</DistanceMeters>
          </Trackpoint>
          <Trackpoint>
            <Time>2021-04-03T09:07:27.000Z</Time>
            <Position>
              <LatitudeDegrees>42.29897537268698215484619140625</LatitudeDegrees>
              <LongitudeDegrees>2.5704566203057765960693359375</LongitudeDegrees>
            </Position>
            <AltitudeMeters>712.20001220703125</AltitudeMeters>
            <DistanceMeters>NAN</DistanceMeters>
          </Trackpoint>
          <Trackpoint>
            <Time>2021-04-03T09:07:29.000Z</Time>
            <Position>
              <LatitudeDegrees>42.2989942319691181182861328125</LatitudeDegrees>
              <LongitudeDegrees>2.57045410573482513427734375</LongitudeDegrees>
            </Position>
            <AltitudeMeters>712.20001220703125</AltitudeMeters>
            <DistanceMeters>NAN</DistanceMeters>
          </Trackpoint>
          <Trackpoint>
            <Time>2021-04-03T09:07:32.000Z</Time>
            <Position>
              <LatitudeDegrees>42.2990240715444087982177734375</LatitudeDegrees>
              <LongitudeDegrees>2.57046139799058437347412109375</LongitudeDegrees>
            </Position>
            <AltitudeMeters>711.4000244140625</AltitudeMeters>
            <DistanceMeters>NAN</DistanceMeters>
          </Trackpoint>
          <Trackpoint>
            <Time>2021-04-03T09:07:37.000Z</Time>
            <Position>
              <LatitudeDegrees>42.29906874708831310272216796875</LatitudeDegrees>
              <LongitudeDegrees>2.57046282291412353515625</LongitudeDegrees>
            </Position>
            <AltitudeMeters>710.5999755859375</AltitudeMeters>
            <DistanceMeters>NAN</DistanceMeters>
          </Trackpoint>
          <Trackpoint>
            <Time>2021-04-03T09:07:38.000Z</Time>
            <Position>
              <LatitudeDegrees>42.29908056557178497314453125</LatitudeDegrees>
              <LongitudeDegrees>2.57046760059893131256103515625</LongitudeDegrees>
            </Position>
            <AltitudeMeters>710.5999755859375</AltitudeMeters>
            <DistanceMeters>NAN</DistanceMeters>
          </Trackpoint>
          <Trackpoint>
            <Time>2021-04-03T09:07:40.000Z</Time>
            <Position>
              <LatitudeDegrees>42.29909942485392093658447265625</LatitudeDegrees>
              <LongitudeDegrees>2.5704753957688808441162109375</LongitudeDegrees>
            </Position>
            <AltitudeMeters>710.4000244140625</AltitudeMeters>
            <DistanceMeters>NAN</DistanceMeters>
          </Trackpoint>
          <Trackpoint>
            <Time>2021-04-03T09:07:45.000Z</Time>
            <Position>
              <LatitudeDegrees>42.2991494648158550262451171875</LatitudeDegrees>
              <LongitudeDegrees>2.570495344698429107666015625</LongitudeDegrees>
            </Position>
            <AltitudeMeters>710</AltitudeMeters>
            <DistanceMeters>NAN</DistanceMeters>
          </Trackpoint>
          <Trackpoint>
            <Time>2021-04-03T09:07:53.000Z</Time>
            <Position>
              <LatitudeDegrees>42.2992027737200260162353515625</LatitudeDegrees>
              <LongitudeDegrees>2.57055594585835933685302734375</LongitudeDegrees>
            </Position>
            <AltitudeMeters>709.4000244140625</AltitudeMeters>
            <DistanceMeters>NAN</DistanceMeters>
          </Trackpoint>
          <Trackpoint>
            <Time>2021-04-03T09:07:54.000Z</Time>
            <Position>
              <LatitudeDegrees>42.29920906014740467071533203125</LatitudeDegrees>
              <LongitudeDegrees>2.5705642439424991607666015625</LongitudeDegrees>
            </Position>
            <AltitudeMeters>709.20001220703125</AltitudeMeters>
            <DistanceMeters>NAN</DistanceMeters>
          </Trackpoint>
          <Trackpoint>
            <Time>2021-04-03T09:07:58.000Z</Time>
            <Position>
              <LatitudeDegrees>42.2992463596165180206298828125</LatitudeDegrees>
              <LongitudeDegrees>2.57061260752379894256591796875</LongitudeDegrees>
            </Position>
            <AltitudeMeters>709</AltitudeMeters>
            <DistanceMeters>NAN</DistanceMeters>
          </Trackpoint>
          <Trackpoint>
            <Time>2021-04-03T09:07:59.000Z</Time>
            <Position>
              <LatitudeDegrees>42.29926236905157566070556640625</LatitudeDegrees>
              <LongitudeDegrees>2.57061696611344814300537109375</LongitudeDegrees>
            </Position>
            <AltitudeMeters>709</AltitudeMeters>
            <DistanceMeters>NAN</DistanceMeters>
          </Trackpoint>
          <Trackpoint>
            <Time>2021-04-03T09:08:02.000Z</Time>
            <Position>
              <LatitudeDegrees>42.2992896102368831634521484375</LatitudeDegrees>
              <LongitudeDegrees>2.57061243988573551177978515625</LongitudeDegrees>
            </Position>
            <AltitudeMeters>708.79998779296875</AltitudeMeters>
            <DistanceMeters>NAN</DistanceMeters>
          </Trackpoint>
          <Trackpoint>
            <Time>2021-04-03T09:08:04.000Z</Time>
            <Position>
              <LatitudeDegrees>42.299302183091640472412109375</LatitudeDegrees>
              <LongitudeDegrees>2.57059886120259761810302734375</LongitudeDegrees>
            </Position>
            <AltitudeMeters>708.4000244140625</AltitudeMeters>
            <DistanceMeters>NAN</DistanceMeters>
          </Trackpoint>
          <Trackpoint>
            <Time>2021-04-03T09:08:06.000Z</Time>
            <Position>
              <LatitudeDegrees>42.29929707013070583343505859375</LatitudeDegrees>
              <LongitudeDegrees>2.57059450261294841766357421875</LongitudeDegrees>
            </Position>
            <AltitudeMeters>708.20001220703125</AltitudeMeters>
            <DistanceMeters>NAN</DistanceMeters>
          </Trackpoint>
          <Trackpoint>
            <Time>2021-04-03T09:08:08.000Z</Time>
            <Position>
              <LatitudeDegrees>42.29928868822753429412841796875</LatitudeDegrees>
              <LongitudeDegrees>2.57059802301228046417236328125</LongitudeDegrees>
            </Position>
            <AltitudeMeters>708.20001220703125</AltitudeMeters>
            <DistanceMeters>NAN</DistanceMeters>
          </Trackpoint>
          <Trackpoint>
            <Time>2021-04-03T09:08:09.000Z</Time>
            <Position>
              <LatitudeDegrees>42.29929246008396148681640625</LatitudeDegrees>
              <LongitudeDegrees>2.5705974362790584564208984375</LongitudeDegrees>
            </Position>
            <AltitudeMeters>708.4000244140625</AltitudeMeters>
            <DistanceMeters>NAN</DistanceMeters>
          </Trackpoint>
          <Trackpoint>
            <Time>2021-04-03T09:08:11.000Z</Time>
            <Position>
              <LatitudeDegrees>42.299297489225864410400390625</LatitudeDegrees>
              <LongitudeDegrees>2.57059223949909210205078125</LongitudeDegrees>
            </Position>
            <AltitudeMeters>708.5999755859375</AltitudeMeters>
            <DistanceMeters>NAN</DistanceMeters>
          </Trackpoint>
          <Trackpoint>
            <Time>2021-04-03T09:08:13.000Z</Time>
            <Position>
              <LatitudeDegrees>42.29930587112903594970703125</LatitudeDegrees>
              <LongitudeDegrees>2.5705821812152862548828125</LongitudeDegrees>
            </Position>
            <AltitudeMeters>708.79998779296875</AltitudeMeters>
            <DistanceMeters>NAN</DistanceMeters>
          </Trackpoint>
          <Trackpoint>
            <Time>2021-04-03T09:08:15.000Z</Time>
            <Position>
              <LatitudeDegrees>42.29931014589965343475341796875</LatitudeDegrees>
              <LongitudeDegrees>2.57057237438857555389404296875</LongitudeDegrees>
            </Position>
            <AltitudeMeters>709</AltitudeMeters>
            <DistanceMeters>NAN</DistanceMeters>
          </Trackpoint>
          <Trackpoint>
            <Time>2021-04-03T09:08:18.000Z</Time>
            <Position>
              <LatitudeDegrees>42.2993038594722747802734375</LatitudeDegrees>
              <LongitudeDegrees>2.570561058819293975830078125</LongitudeDegrees>
            </Position>
            <AltitudeMeters>709.20001220703125</AltitudeMeters>
            <DistanceMeters>NAN</DistanceMeters>
          </Trackpoint>
          <Trackpoint>
            <Time>2021-04-03T09:08:21.000Z</Time>
            <Position>
              <LatitudeDegrees>42.2993030212819576263427734375</LatitudeDegrees>
              <LongitudeDegrees>2.5705471448600292205810546875</LongitudeDegrees>
            </Position>
            <AltitudeMeters>709.5999755859375</AltitudeMeters>
            <DistanceMeters>NAN</DistanceMeters>
          </Trackpoint>
          <Trackpoint>
            <Time>2021-04-03T09:08:22.000Z</Time>
            <Position>
              <LatitudeDegrees>42.29930008761584758758544921875</LatitudeDegrees>
              <LongitudeDegrees>2.570540606975555419921875</LongitudeDegrees>
            </Position>
            <AltitudeMeters>709.5999755859375</AltitudeMeters>
            <DistanceMeters>NAN</DistanceMeters>
          </Trackpoint>
          <Trackpoint>
            <Time>2021-04-03T09:08:29.000Z</Time>
            <Position>
              <LatitudeDegrees>42.29927008040249347686767578125</LatitudeDegrees>
              <LongitudeDegrees>2.57050029002130031585693359375</LongitudeDegrees>
            </Position>
            <AltitudeMeters>710.20001220703125</AltitudeMeters>
            <DistanceMeters>NAN</DistanceMeters>
          </Trackpoint>
          <Trackpoint>
            <Time>2021-04-03T09:08:31.000Z</Time>
            <Position>
              <LatitudeDegrees>42.2992611117660999298095703125</LatitudeDegrees>
              <LongitudeDegrees>2.57048419676721096038818359375</LongitudeDegrees>
            </Position>
            <AltitudeMeters>710.4000244140625</AltitudeMeters>
            <DistanceMeters>NAN</DistanceMeters>
          </Trackpoint>
          <Trackpoint>
            <Time>2021-04-03T09:08:32.000Z</Time>
            <Position>
              <LatitudeDegrees>42.29925616644322872161865234375</LatitudeDegrees>
              <LongitudeDegrees>2.57047556340694427490234375</LongitudeDegrees>
            </Position>
            <AltitudeMeters>710.4000244140625</AltitudeMeters>
            <DistanceMeters>NAN</DistanceMeters>
          </Trackpoint>
          <Trackpoint>
            <Time>2021-04-03T09:08:38.000Z</Time>
            <Position>
              <LatitudeDegrees>42.299237139523029327392578125</LatitudeDegrees>
              <LongitudeDegrees>2.5704239308834075927734375</LongitudeDegrees>
            </Position>
            <AltitudeMeters>711</AltitudeMeters>
            <DistanceMeters>NAN</DistanceMeters>
          </Trackpoint>
          <Trackpoint>
            <Time>2021-04-03T09:08:43.000Z</Time>
            <Position>
              <LatitudeDegrees>42.29923755861818790435791015625</LatitudeDegrees>
              <LongitudeDegrees>2.57037439383566379547119140625</LongitudeDegrees>
            </Position>
            <AltitudeMeters>711.4000244140625</AltitudeMeters>
            <DistanceMeters>NAN</DistanceMeters>
          </Trackpoint>
          <Trackpoint>
            <Time>2021-04-03T09:08:46.000Z</Time>
            <Position>
              <LatitudeDegrees>42.299225740134716033935546875</LatitudeDegrees>
              <LongitudeDegrees>2.57034220732748508453369140625</LongitudeDegrees>
            </Position>
            <AltitudeMeters>711.5999755859375</AltitudeMeters>
            <DistanceMeters>NAN</DistanceMeters>
          </Trackpoint>
          <Trackpoint>
            <Time>2021-04-03T09:08:50.000Z</Time>
            <Position>
              <LatitudeDegrees>42.29921911843121051788330078125</LatitudeDegrees>
              <LongitudeDegrees>2.5703054107725620269775390625</LongitudeDegrees>
            </Position>
            <AltitudeMeters>711.79998779296875</AltitudeMeters>
            <DistanceMeters>NAN</DistanceMeters>
          </Trackpoint>
          <Trackpoint>
            <Time>2021-04-03T09:08:52.000Z</Time>
            <Position>
              <LatitudeDegrees>42.29920989833772182464599609375</LatitudeDegrees>
              <LongitudeDegrees>2.57028780877590179443359375</LongitudeDegrees>
            </Position>
            <AltitudeMeters>711.79998779296875</AltitudeMeters>
            <DistanceMeters>NAN</DistanceMeters>
          </Trackpoint>
          <Trackpoint>
            <Time>2021-04-03T09:08:53.000Z</Time>
            <Position>
              <LatitudeDegrees>42.2992037795484066009521484375</LatitudeDegrees>
              <LongitudeDegrees>2.5702769123017787933349609375</LongitudeDegrees>
            </Position>
            <AltitudeMeters>712</AltitudeMeters>
            <DistanceMeters>NAN</DistanceMeters>
          </Trackpoint>
          <Trackpoint>
            <Time>2021-04-03T09:08:58.000Z</Time>
            <Position>
              <LatitudeDegrees>42.29919414035975933074951171875</LatitudeDegrees>
              <LongitudeDegrees>2.57022083736956119537353515625</LongitudeDegrees>
            </Position>
            <AltitudeMeters>712.20001220703125</AltitudeMeters>
            <DistanceMeters>NAN</DistanceMeters>
          </Trackpoint>
          <Trackpoint>
            <Time>2021-04-03T09:09:00.000Z</Time>
            <Position>
              <LatitudeDegrees>42.29919028468430042266845703125</LatitudeDegrees>
              <LongitudeDegrees>2.57019937969744205474853515625</LongitudeDegrees>
            </Position>
            <AltitudeMeters>712.4000244140625</AltitudeMeters>
            <DistanceMeters>NAN</DistanceMeters>
          </Trackpoint>
          <Trackpoint>
            <Time>2021-04-03T09:09:01.000Z</Time>
            <Position>
              <LatitudeDegrees>42.2991863451898097991943359375</LatitudeDegrees>
              <LongitudeDegrees>2.57018680684268474578857421875</LongitudeDegrees>
            </Position>
            <AltitudeMeters>712.4000244140625</AltitudeMeters>
            <DistanceMeters>NAN</DistanceMeters>
          </Trackpoint>
          <Trackpoint>
            <Time>2021-04-03T09:09:05.000Z</Time>
            <Position>
              <LatitudeDegrees>42.29917804710566997528076171875</LatitudeDegrees>
              <LongitudeDegrees>2.57013450376689434051513671875</LongitudeDegrees>
            </Position>
            <AltitudeMeters>712.79998779296875</AltitudeMeters>
            <DistanceMeters>NAN</DistanceMeters>
          </Trackpoint>
          <Trackpoint>
            <Time>2021-04-03T09:09:08.000Z</Time>
            <Position>
              <LatitudeDegrees>42.29917083866894245147705078125</LatitudeDegrees>
              <LongitudeDegrees>2.57010181434452533721923828125</LongitudeDegrees>
            </Position>
            <AltitudeMeters>713.20001220703125</AltitudeMeters>
            <DistanceMeters>NAN</DistanceMeters>
          </Trackpoint>
          <Trackpoint>
            <Time>2021-04-03T09:09:10.000Z</Time>
            <Position>
              <LatitudeDegrees>42.29915927164256572723388671875</LatitudeDegrees>
              <LongitudeDegrees>2.57008924148976802825927734375</LongitudeDegrees>
            </Position>
            <AltitudeMeters>713.20001220703125</AltitudeMeters>
            <DistanceMeters>NAN</DistanceMeters>
          </Trackpoint>
          <Trackpoint>
            <Time>2021-04-03T09:09:13.000Z</Time>
            <Position>
              <LatitudeDegrees>42.2991536557674407958984375</LatitudeDegrees>
              <LongitudeDegrees>2.57004079408943653106689453125</LongitudeDegrees>
            </Position>
            <AltitudeMeters>713.20001220703125</AltitudeMeters>
            <DistanceMeters>NAN</DistanceMeters>
          </Trackpoint>
          <Trackpoint>
            <Time>2021-04-03T09:09:15.000Z</Time>
            <Position>
              <LatitudeDegrees>42.29914401657879352569580078125</LatitudeDegrees>
              <LongitudeDegrees>2.5700033269822597503662109375</LongitudeDegrees>
            </Position>
            <AltitudeMeters>713.20001220703125</AltitudeMeters>
            <DistanceMeters>NAN</DistanceMeters>
          </Trackpoint>
          <Trackpoint>
            <Time>2021-04-03T09:09:18.000Z</Time>
            <Position>
              <LatitudeDegrees>42.29912809096276760101318359375</LatitudeDegrees>
              <LongitudeDegrees>2.5699748285114765167236328125</LongitudeDegrees>
            </Position>
            <AltitudeMeters>713.20001220703125</AltitudeMeters>
            <DistanceMeters>NAN</DistanceMeters>
          </Trackpoint>
          <Trackpoint>
            <Time>2021-04-03T09:09:20.000Z</Time>
            <Position>
              <LatitudeDegrees>42.2991219721734523773193359375</LatitudeDegrees>
              <LongitudeDegrees>2.5699590705335140228271484375</LongitudeDegrees>
            </Position>
            <AltitudeMeters>713.4000244140625</AltitudeMeters>
            <DistanceMeters>NAN</DistanceMeters>
          </Trackpoint>
          <Trackpoint>
            <Time>2021-04-03T09:09:22.000Z</Time>
            <Position>
              <LatitudeDegrees>42.29910981841385364532470703125</LatitudeDegrees>
              <LongitudeDegrees>2.56994339637458324432373046875</LongitudeDegrees>
            </Position>
            <AltitudeMeters>713.4000244140625</AltitudeMeters>
            <DistanceMeters>NAN</DistanceMeters>
          </Trackpoint>
          <Trackpoint>
            <Time>2021-04-03T09:09:27.000Z</Time>
            <Position>
              <LatitudeDegrees>42.2990866005420684814453125</LatitudeDegrees>
              <LongitudeDegrees>2.56990182213485240936279296875</LongitudeDegrees>
            </Position>
            <AltitudeMeters>713.79998779296875</AltitudeMeters>
            <DistanceMeters>NAN</DistanceMeters>
          </Trackpoint>
          <Trackpoint>
            <Time>2021-04-03T09:09:34.000Z</Time>
            <Position>
              <LatitudeDegrees>42.299065478146076202392578125</LatitudeDegrees>
              <LongitudeDegrees>2.56982521153986454010009765625</LongitudeDegrees>
            </Position>
            <AltitudeMeters>714</AltitudeMeters>
            <DistanceMeters>NAN</DistanceMeters>
          </Trackpoint>
          <Trackpoint>
            <Time>2021-04-03T09:09:35.000Z</Time>
            <Position>
              <LatitudeDegrees>42.29906405322253704071044921875</LatitudeDegrees>
              <LongitudeDegrees>2.56981381215155124664306640625</LongitudeDegrees>
            </Position>
            <AltitudeMeters>714.20001220703125</AltitudeMeters>
            <DistanceMeters>NAN</DistanceMeters>
          </Trackpoint>
          <Trackpoint>
            <Time>2021-04-03T09:09:37.000Z</Time>
            <Position>
              <LatitudeDegrees>42.29906237684190273284912109375</LatitudeDegrees>
              <LongitudeDegrees>2.569799311459064483642578125</LongitudeDegrees>
            </Position>
            <AltitudeMeters>714.4000244140625</AltitudeMeters>
            <DistanceMeters>NAN</DistanceMeters>
          </Trackpoint>
          <Trackpoint>
            <Time>2021-04-03T09:09:39.000Z</Time>
            <Position>
              <LatitudeDegrees>42.2990575991570949554443359375</LatitudeDegrees>
              <LongitudeDegrees>2.56979185156524181365966796875</LongitudeDegrees>
            </Position>
            <AltitudeMeters>714.5999755859375</AltitudeMeters>
            <DistanceMeters>NAN</DistanceMeters>
          </Trackpoint>
          <Trackpoint>
            <Time>2021-04-03T09:09:41.000Z</Time>
            <Position>
              <LatitudeDegrees>42.29905801825225353240966796875</LatitudeDegrees>
              <LongitudeDegrees>2.56977089680731296539306640625</LongitudeDegrees>
            </Position>
            <AltitudeMeters>714.79998779296875</AltitudeMeters>
            <DistanceMeters>NAN</DistanceMeters>
          </Trackpoint>
          <Trackpoint>
            <Time>2021-04-03T09:09:43.000Z</Time>
            <Position>
              <LatitudeDegrees>42.29906044900417327880859375</LatitudeDegrees>
              <LongitudeDegrees>2.56974776275455951690673828125</LongitudeDegrees>
            </Position>
            <AltitudeMeters>714.79998779296875</AltitudeMeters>
            <DistanceMeters>NAN</DistanceMeters>
          </Trackpoint>
          <Trackpoint>
            <Time>2021-04-03T09:09:45.000Z</Time>
            <Position>
              <LatitudeDegrees>42.29906271211802959442138671875</LatitudeDegrees>
              <LongitudeDegrees>2.56972798146307468414306640625</LongitudeDegrees>
            </Position>
            <AltitudeMeters>715</AltitudeMeters>
            <DistanceMeters>NAN</DistanceMeters>
          </Trackpoint>
          <Trackpoint>
            <Time>2021-04-03T09:09:49.000Z</Time>
            <Position>
              <LatitudeDegrees>42.29906254447996616363525390625</LatitudeDegrees>
              <LongitudeDegrees>2.569706439971923828125</LongitudeDegrees>
            </Position>
            <AltitudeMeters>715.4000244140625</AltitudeMeters>
            <DistanceMeters>NAN</DistanceMeters>
          </Trackpoint>
          <Trackpoint>
            <Time>2021-04-03T09:09:52.000Z</Time>
            <Position>
              <LatitudeDegrees>42.29906271211802959442138671875</LatitudeDegrees>
              <LongitudeDegrees>2.5696757622063159942626953125</LongitudeDegrees>
            </Position>
            <AltitudeMeters>715</AltitudeMeters>
            <DistanceMeters>NAN</DistanceMeters>
          </Trackpoint>
          <Trackpoint>
            <Time>2021-04-03T09:09:55.000Z</Time>
            <Position>
              <LatitudeDegrees>42.2990636341273784637451171875</LatitudeDegrees>
              <LongitudeDegrees>2.5696435756981372833251953125</LongitudeDegrees>
            </Position>
            <AltitudeMeters>714.5999755859375</AltitudeMeters>
            <DistanceMeters>NAN</DistanceMeters>
          </Trackpoint>
          <Trackpoint>
            <Time>2021-04-03T09:10:00.000Z</Time>
            <Position>
              <LatitudeDegrees>42.2990555875003337860107421875</LatitudeDegrees>
              <LongitudeDegrees>2.56961164064705371856689453125</LongitudeDegrees>
            </Position>
            <AltitudeMeters>713.79998779296875</AltitudeMeters>
            <DistanceMeters>NAN</DistanceMeters>
          </Trackpoint>
          <Trackpoint>
            <Time>2021-04-03T09:10:01.000Z</Time>
            <Position>
              <LatitudeDegrees>42.29905240237712860107421875</LatitudeDegrees>
              <LongitudeDegrees>2.56960107944905757904052734375</LongitudeDegrees>
            </Position>
            <AltitudeMeters>713.5999755859375</AltitudeMeters>
            <DistanceMeters>NAN</DistanceMeters>
          </Trackpoint>
          <Trackpoint>
            <Time>2021-04-03T09:10:09.000Z</Time>
            <Position>
              <LatitudeDegrees>42.29905650950968265533447265625</LatitudeDegrees>
              <LongitudeDegrees>2.569526731967926025390625</LongitudeDegrees>
            </Position>
            <AltitudeMeters>713</AltitudeMeters>
            <DistanceMeters>NAN</DistanceMeters>
          </Trackpoint>
          <Trackpoint>
            <Time>2021-04-03T09:10:16.000Z</Time>
            <Position>
              <LatitudeDegrees>42.2990435175597667694091796875</LatitudeDegrees>
              <LongitudeDegrees>2.5694330222904682159423828125</LongitudeDegrees>
            </Position>
            <AltitudeMeters>712.4000244140625</AltitudeMeters>
            <DistanceMeters>NAN</DistanceMeters>
          </Trackpoint>
          <Trackpoint>
            <Time>2021-04-03T09:10:19.000Z</Time>
            <Position>
              <LatitudeDegrees>42.299039661884307861328125</LatitudeDegrees>
              <LongitudeDegrees>2.5694075413048267364501953125</LongitudeDegrees>
            </Position>
            <AltitudeMeters>712.20001220703125</AltitudeMeters>
            <DistanceMeters>NAN</DistanceMeters>
          </Trackpoint>
          <Trackpoint>
            <Time>2021-04-03T09:10:20.000Z</Time>
            <Position>
              <LatitudeDegrees>42.2990354709327220916748046875</LatitudeDegrees>
              <LongitudeDegrees>2.56939371116459369659423828125</LongitudeDegrees>
            </Position>
            <AltitudeMeters>712</AltitudeMeters>
            <DistanceMeters>NAN</DistanceMeters>
          </Trackpoint>
          <Trackpoint>
            <Time>2021-04-03T09:10:23.000Z</Time>
            <Position>
              <LatitudeDegrees>42.29901962913572788238525390625</LatitudeDegrees>
              <LongitudeDegrees>2.5693537294864654541015625</LongitudeDegrees>
            </Position>
            <AltitudeMeters>711.5999755859375</AltitudeMeters>
            <DistanceMeters>NAN</DistanceMeters>
          </Trackpoint>
          <Trackpoint>
            <Time>2021-04-03T09:10:26.000Z</Time>
            <Position>
              <LatitudeDegrees>42.2990143485367298126220703125</LatitudeDegrees>
              <LongitudeDegrees>2.5693046115338802337646484375</LongitudeDegrees>
            </Position>
            <AltitudeMeters>711.5999755859375</AltitudeMeters>
            <DistanceMeters>NAN</DistanceMeters>
          </Trackpoint>
          <Trackpoint>
            <Time>2021-04-03T09:10:32.000Z</Time>
            <Position>
              <LatitudeDegrees>42.2990237362682819366455078125</LatitudeDegrees>
              <LongitudeDegrees>2.56923814304172992706298828125</LongitudeDegrees>
            </Position>
            <AltitudeMeters>711.4000244140625</AltitudeMeters>
            <DistanceMeters>NAN</DistanceMeters>
          </Trackpoint>
          <Trackpoint>
            <Time>2021-04-03T09:10:35.000Z</Time>
            <Position>
              <LatitudeDegrees>42.29903094470500946044921875</LatitudeDegrees>
              <LongitudeDegrees>2.56920712999999523162841796875</LongitudeDegrees>
            </Position>
            <AltitudeMeters>711.20001220703125</AltitudeMeters>
            <DistanceMeters>NAN</DistanceMeters>
          </Trackpoint>
          <Trackpoint>
            <Time>2021-04-03T09:10:37.000Z</Time>
            <Position>
              <LatitudeDegrees>42.29903739877045154571533203125</LatitudeDegrees>
              <LongitudeDegrees>2.5691721774637699127197265625</LongitudeDegrees>
            </Position>
            <AltitudeMeters>711.20001220703125</AltitudeMeters>
            <DistanceMeters>NAN</DistanceMeters>
          </Trackpoint>
          <Trackpoint>
            <Time>2021-04-03T09:10:38.000Z</Time>
            <Position>
              <LatitudeDegrees>42.2990425117313861846923828125</LatitudeDegrees>
              <LongitudeDegrees>2.5691560842096805572509765625</LongitudeDegrees>
            </Position>
            <AltitudeMeters>711</AltitudeMeters>
            <DistanceMeters>NAN</DistanceMeters>
          </Trackpoint>
          <Trackpoint>
            <Time>2021-04-03T09:10:40.000Z</Time>
            <Position>
              <LatitudeDegrees>42.29904527775943279266357421875</LatitudeDegrees>
              <LongitudeDegrees>2.5691319443285465240478515625</LongitudeDegrees>
            </Position>
            <AltitudeMeters>711</AltitudeMeters>
            <DistanceMeters>NAN</DistanceMeters>
          </Trackpoint>
          <Trackpoint>
            <Time>2021-04-03T09:10:41.000Z</Time>
            <Position>
              <LatitudeDegrees>42.2990478761494159698486328125</LatitudeDegrees>
              <LongitudeDegrees>2.56912708282470703125</LongitudeDegrees>
            </Position>
            <AltitudeMeters>711</AltitudeMeters>
            <DistanceMeters>NAN</DistanceMeters>
          </Trackpoint>
          <Trackpoint>
            <Time>2021-04-03T09:10:42.000Z</Time>
            <Position>
              <LatitudeDegrees>42.29904628358781337738037109375</LatitudeDegrees>
              <LongitudeDegrees>2.56912297569215297698974609375</LongitudeDegrees>
            </Position>
            <AltitudeMeters>710.79998779296875</AltitudeMeters>
            <DistanceMeters>NAN</DistanceMeters>
          </Trackpoint>
          <Trackpoint>
            <Time>2021-04-03T09:10:44.000Z</Time>
            <Position>
              <LatitudeDegrees>42.299046032130718231201171875</LatitudeDegrees>
              <LongitudeDegrees>2.56910361349582672119140625</LongitudeDegrees>
            </Position>
            <AltitudeMeters>710.79998779296875</AltitudeMeters>
            <DistanceMeters>NAN</DistanceMeters>
          </Trackpoint>
          <Trackpoint>
            <Time>2021-04-03T09:10:48.000Z</Time>
            <Position>
              <LatitudeDegrees>42.29903706349432468414306640625</LatitudeDegrees>
              <LongitudeDegrees>2.5690783001482486724853515625</LongitudeDegrees>
            </Position>
            <AltitudeMeters>710.4000244140625</AltitudeMeters>
            <DistanceMeters>NAN</DistanceMeters>
          </Trackpoint>
          <Trackpoint>
            <Time>2021-04-03T09:10:53.000Z</Time>
            <Position>
              <LatitudeDegrees>42.29902834631502628326416015625</LatitudeDegrees>
              <LongitudeDegrees>2.56904519163072109222412109375</LongitudeDegrees>
            </Position>
            <AltitudeMeters>709.5999755859375</AltitudeMeters>
            <DistanceMeters>NAN</DistanceMeters>
          </Trackpoint>
          <Trackpoint>
            <Time>2021-04-03T09:10:56.000Z</Time>
            <Position>
              <LatitudeDegrees>42.29903002269566059112548828125</LatitudeDegrees>
              <LongitudeDegrees>2.5690249912440776824951171875</LongitudeDegrees>
            </Position>
            <AltitudeMeters>709.20001220703125</AltitudeMeters>
            <DistanceMeters>NAN</DistanceMeters>
          </Trackpoint>
          <Trackpoint>
            <Time>2021-04-03T09:11:01.000Z</Time>
            <Position>
              <LatitudeDegrees>42.29901426471769809722900390625</LatitudeDegrees>
              <LongitudeDegrees>2.568982578814029693603515625</LongitudeDegrees>
            </Position>
            <AltitudeMeters>708.4000244140625</AltitudeMeters>
            <DistanceMeters>NAN</DistanceMeters>
          </Trackpoint>
          <Trackpoint>
            <Time>2021-04-03T09:11:02.000Z</Time>
            <Position>
              <LatitudeDegrees>42.29900814592838287353515625</LatitudeDegrees>
              <LongitudeDegrees>2.5689740292727947235107421875</LongitudeDegrees>
            </Position>
            <AltitudeMeters>708.20001220703125</AltitudeMeters>
            <DistanceMeters>NAN</DistanceMeters>
          </Trackpoint>
          <Trackpoint>
            <Time>2021-04-03T09:11:07.000Z</Time>
            <Position>
              <LatitudeDegrees>42.29898425750434398651123046875</LatitudeDegrees>
              <LongitudeDegrees>2.5689187087118625640869140625</LongitudeDegrees>
            </Position>
            <AltitudeMeters>707.5999755859375</AltitudeMeters>
            <DistanceMeters>NAN</DistanceMeters>
          </Trackpoint>
          <Trackpoint>
            <Time>2021-04-03T09:11:12.000Z</Time>
            <Position>
              <LatitudeDegrees>42.29896816425025463104248046875</LatitudeDegrees>
              <LongitudeDegrees>2.568873278796672821044921875</LongitudeDegrees>
            </Position>
            <AltitudeMeters>707.20001220703125</AltitudeMeters>
            <DistanceMeters>NAN</DistanceMeters>
          </Trackpoint>
          <Trackpoint>
            <Time>2021-04-03T09:11:15.000Z</Time>
            <Position>
              <LatitudeDegrees>42.298972271382808685302734375</LatitudeDegrees>
              <LongitudeDegrees>2.5688362307846546173095703125</LongitudeDegrees>
            </Position>
            <AltitudeMeters>706.79998779296875</AltitudeMeters>
            <DistanceMeters>NAN</DistanceMeters>
          </Trackpoint>
          <Trackpoint>
            <Time>2021-04-03T09:11:22.000Z</Time>
            <Position>
              <LatitudeDegrees>42.29896497912704944610595703125</LatitudeDegrees>
              <LongitudeDegrees>2.568765319883823394775390625</LongitudeDegrees>
            </Position>
            <AltitudeMeters>706.20001220703125</AltitudeMeters>
            <DistanceMeters>NAN</DistanceMeters>
          </Trackpoint>
          <Trackpoint>
            <Time>2021-04-03T09:11:23.000Z</Time>
            <Position>
              <LatitudeDegrees>42.29896129108965396881103515625</LatitudeDegrees>
              <LongitudeDegrees>2.56875249557197093963623046875</LongitudeDegrees>
            </Position>
            <AltitudeMeters>706</AltitudeMeters>
            <DistanceMeters>NAN</DistanceMeters>
          </Trackpoint>
          <Trackpoint>
            <Time>2021-04-03T09:11:29.000Z</Time>
            <Position>
              <LatitudeDegrees>42.2989404201507568359375</LatitudeDegrees>
              <LongitudeDegrees>2.568659372627735137939453125</LongitudeDegrees>
            </Position>
            <AltitudeMeters>705.20001220703125</AltitudeMeters>
            <DistanceMeters>NAN</DistanceMeters>
          </Trackpoint>
          <Trackpoint>
            <Time>2021-04-03T09:11:31.000Z</Time>
            <Position>
              <LatitudeDegrees>42.298932373523712158203125</LatitudeDegrees>
              <LongitudeDegrees>2.56864671595394611358642578125</LongitudeDegrees>
            </Position>
            <AltitudeMeters>705</AltitudeMeters>
            <DistanceMeters>NAN</DistanceMeters>
          </Trackpoint>
          <Trackpoint>
            <Time>2021-04-03T09:11:35.000Z</Time>
            <Position>
              <LatitudeDegrees>42.298916280269622802734375</LatitudeDegrees>
              <LongitudeDegrees>2.56861201487481594085693359375</LongitudeDegrees>
            </Position>
            <AltitudeMeters>704</AltitudeMeters>
            <DistanceMeters>NAN</DistanceMeters>
          </Trackpoint>
          <Trackpoint>
            <Time>2021-04-03T09:11:36.000Z</Time>
            <Position>
              <LatitudeDegrees>42.2989114187657833099365234375</LatitudeDegrees>
              <LongitudeDegrees>2.56859994493424892425537109375</LongitudeDegrees>
            </Position>
            <AltitudeMeters>704</AltitudeMeters>
            <DistanceMeters>NAN</DistanceMeters>
          </Trackpoint>
          <Trackpoint>
            <Time>2021-04-03T09:11:42.000Z</Time>
            <Position>
              <LatitudeDegrees>42.298900522291660308837890625</LatitudeDegrees>
              <LongitudeDegrees>2.56853691302239894866943359375</LongitudeDegrees>
            </Position>
            <AltitudeMeters>702.79998779296875</AltitudeMeters>
            <DistanceMeters>NAN</DistanceMeters>
          </Trackpoint>
          <Trackpoint>
            <Time>2021-04-03T09:11:43.000Z</Time>
            <Position>
              <LatitudeDegrees>42.29890110902488231658935546875</LatitudeDegrees>
              <LongitudeDegrees>2.56852216087281703948974609375</LongitudeDegrees>
            </Position>
            <AltitudeMeters>702.79998779296875</AltitudeMeters>
            <DistanceMeters>NAN</DistanceMeters>
          </Trackpoint>
          <Trackpoint>
            <Time>2021-04-03T09:11:50.000Z</Time>
            <Position>
              <LatitudeDegrees>42.29889524169266223907470703125</LatitudeDegrees>
              <LongitudeDegrees>2.5684328936040401458740234375</LongitudeDegrees>
            </Position>
            <AltitudeMeters>701.79998779296875</AltitudeMeters>
            <DistanceMeters>NAN</DistanceMeters>
          </Trackpoint>
          <Trackpoint>
            <Time>2021-04-03T09:11:51.000Z</Time>
            <Position>
              <LatitudeDegrees>42.29889339767396450042724609375</LatitudeDegrees>
              <LongitudeDegrees>2.5684198178350925445556640625</LongitudeDegrees>
            </Position>
            <AltitudeMeters>701.79998779296875</AltitudeMeters>
            <DistanceMeters>NAN</DistanceMeters>
          </Trackpoint>
          <Trackpoint>
            <Time>2021-04-03T09:11:53.000Z</Time>
            <Position>
              <LatitudeDegrees>42.298885770142078399658203125</LatitudeDegrees>
              <LongitudeDegrees>2.5684017129242420196533203125</LongitudeDegrees>
            </Position>
            <AltitudeMeters>701.5999755859375</AltitudeMeters>
            <DistanceMeters>NAN</DistanceMeters>
          </Trackpoint>
          <Trackpoint>
            <Time>2021-04-03T09:11:56.000Z</Time>
            <Position>
              <LatitudeDegrees>42.29887663386762142181396484375</LatitudeDegrees>
              <LongitudeDegrees>2.5683611445128917694091796875</LongitudeDegrees>
            </Position>
            <AltitudeMeters>701.20001220703125</AltitudeMeters>
            <DistanceMeters>NAN</DistanceMeters>
          </Trackpoint>
          <Trackpoint>
            <Time>2021-04-03T09:12:00.000Z</Time>
            <Position>
              <LatitudeDegrees>42.29887579567730426788330078125</LatitudeDegrees>
              <LongitudeDegrees>2.5683128647506237030029296875</LongitudeDegrees>
            </Position>
            <AltitudeMeters>700.79998779296875</AltitudeMeters>
            <DistanceMeters>NAN</DistanceMeters>
          </Trackpoint>
          <Trackpoint>
            <Time>2021-04-03T09:12:03.000Z</Time>
            <Position>
              <LatitudeDegrees>42.29887780733406543731689453125</LatitudeDegrees>
              <LongitudeDegrees>2.56827388890087604522705078125</LongitudeDegrees>
            </Position>
            <AltitudeMeters>700.5999755859375</AltitudeMeters>
            <DistanceMeters>NAN</DistanceMeters>
          </Trackpoint>
          <Trackpoint>
            <Time>2021-04-03T09:12:06.000Z</Time>
            <Position>
              <LatitudeDegrees>42.29887646622955799102783203125</LatitudeDegrees>
              <LongitudeDegrees>2.56823122501373291015625</LongitudeDegrees>
            </Position>
            <AltitudeMeters>700.4000244140625</AltitudeMeters>
            <DistanceMeters>NAN</DistanceMeters>
          </Trackpoint>
          <Trackpoint>
            <Time>2021-04-03T09:12:10.000Z</Time>
            <Position>
              <LatitudeDegrees>42.2988666594028472900390625</LatitudeDegrees>
              <LongitudeDegrees>2.5681559555232524871826171875</LongitudeDegrees>
            </Position>
            <AltitudeMeters>700.20001220703125</AltitudeMeters>
            <DistanceMeters>NAN</DistanceMeters>
          </Trackpoint>
          <Trackpoint>
            <Time>2021-04-03T09:12:12.000Z</Time>
            <Position>
              <LatitudeDegrees>42.29886104352772235870361328125</LatitudeDegrees>
              <LongitudeDegrees>2.56814396940171718597412109375</LongitudeDegrees>
            </Position>
            <AltitudeMeters>700.20001220703125</AltitudeMeters>
            <DistanceMeters>NAN</DistanceMeters>
          </Trackpoint>
          <Trackpoint>
            <Time>2021-04-03T09:12:13.000Z</Time>
            <Position>
              <LatitudeDegrees>42.29885995388031005859375</LatitudeDegrees>
              <LongitudeDegrees>2.5681301392614841461181640625</LongitudeDegrees>
            </Position>
            <AltitudeMeters>700.20001220703125</AltitudeMeters>
            <DistanceMeters>NAN</DistanceMeters>
          </Trackpoint>
          <Trackpoint>
            <Time>2021-04-03T09:12:15.000Z</Time>
            <Position>
              <LatitudeDegrees>42.2988557629287242889404296875</LatitudeDegrees>
              <LongitudeDegrees>2.56808965466916561126708984375</LongitudeDegrees>
            </Position>
            <AltitudeMeters>700.20001220703125</AltitudeMeters>
            <DistanceMeters>NAN</DistanceMeters>
          </Trackpoint>
          <Trackpoint>
            <Time>2021-04-03T09:12:18.000Z</Time>
            <Position>
              <LatitudeDegrees>42.2988628037273883819580078125</LatitudeDegrees>
              <LongitudeDegrees>2.56806015037000179290771484375</LongitudeDegrees>
            </Position>
            <AltitudeMeters>700.4000244140625</AltitudeMeters>
            <DistanceMeters>NAN</DistanceMeters>
          </Trackpoint>
          <Trackpoint>
            <Time>2021-04-03T09:12:26.000Z</Time>
            <Position>
              <LatitudeDegrees>42.2988463751971721649169921875</LatitudeDegrees>
              <LongitudeDegrees>2.56795386783778667449951171875</LongitudeDegrees>
            </Position>
            <AltitudeMeters>700.5999755859375</AltitudeMeters>
            <DistanceMeters>NAN</DistanceMeters>
          </Trackpoint>
          <Trackpoint>
            <Time>2021-04-03T09:12:28.000Z</Time>
            <Position>
              <LatitudeDegrees>42.2988326288759708404541015625</LatitudeDegrees>
              <LongitudeDegrees>2.56792989559471607208251953125</LongitudeDegrees>
            </Position>
            <AltitudeMeters>700.5999755859375</AltitudeMeters>
            <DistanceMeters>NAN</DistanceMeters>
          </Trackpoint>
          <Trackpoint>
            <Time>2021-04-03T09:12:31.000Z</Time>
            <Position>
              <LatitudeDegrees>42.2988245822489261627197265625</LatitudeDegrees>
              <LongitudeDegrees>2.567880190908908843994140625</LongitudeDegrees>
            </Position>
            <AltitudeMeters>700.5999755859375</AltitudeMeters>
            <DistanceMeters>NAN</DistanceMeters>
          </Trackpoint>
          <Trackpoint>
            <Time>2021-04-03T09:12:34.000Z</Time>
            <Position>
              <LatitudeDegrees>42.29881636798381805419921875</LatitudeDegrees>
              <LongitudeDegrees>2.56783895194530487060546875</LongitudeDegrees>
            </Position>
            <AltitudeMeters>700.79998779296875</AltitudeMeters>
            <DistanceMeters>NAN</DistanceMeters>
          </Trackpoint>
          <Trackpoint>
            <Time>2021-04-03T09:12:44.000Z</Time>
            <Position>
              <LatitudeDegrees>42.298795245587825775146484375</LatitudeDegrees>
              <LongitudeDegrees>2.5677023269236087799072265625</LongitudeDegrees>
            </Position>
            <AltitudeMeters>700.79998779296875</AltitudeMeters>
            <DistanceMeters>NAN</DistanceMeters>
          </Trackpoint>
          <Trackpoint>
            <Time>2021-04-03T09:12:48.000Z</Time>
            <Position>
              <LatitudeDegrees>42.29877940379083156585693359375</LatitudeDegrees>
              <LongitudeDegrees>2.5676557235419750213623046875</LongitudeDegrees>
            </Position>
            <AltitudeMeters>700.79998779296875</AltitudeMeters>
            <DistanceMeters>NAN</DistanceMeters>
          </Trackpoint>
          <Trackpoint>
            <Time>2021-04-03T09:12:52.000Z</Time>
            <Position>
              <LatitudeDegrees>42.29879382066428661346435546875</LatitudeDegrees>
              <LongitudeDegrees>2.567611299455165863037109375</LongitudeDegrees>
            </Position>
            <AltitudeMeters>700.5999755859375</AltitudeMeters>
            <DistanceMeters>NAN</DistanceMeters>
          </Trackpoint>
          <Trackpoint>
            <Time>2021-04-03T09:12:53.000Z</Time>
            <Position>
              <LatitudeDegrees>42.29879315011203289031982421875</LatitudeDegrees>
              <LongitudeDegrees>2.56760668940842151641845703125</LongitudeDegrees>
            </Position>
            <AltitudeMeters>700.5999755859375</AltitudeMeters>
            <DistanceMeters>NAN</DistanceMeters>
          </Trackpoint>
          <Trackpoint>
            <Time>2021-04-03T09:12:58.000Z</Time>
            <Position>
              <LatitudeDegrees>42.29877688921988010406494140625</LatitudeDegrees>
              <LongitudeDegrees>2.56754164583981037139892578125</LongitudeDegrees>
            </Position>
            <AltitudeMeters>700</AltitudeMeters>
            <DistanceMeters>NAN</DistanceMeters>
          </Trackpoint>
          <Trackpoint>
            <Time>2021-04-03T09:12:59.000Z</Time>
            <Position>
              <LatitudeDegrees>42.2987752966582775115966796875</LatitudeDegrees>
              <LongitudeDegrees>2.56753460504114627838134765625</LongitudeDegrees>
            </Position>
            <AltitudeMeters>699.79998779296875</AltitudeMeters>
            <DistanceMeters>NAN</DistanceMeters>
          </Trackpoint>
          <Trackpoint>
            <Time>2021-04-03T09:13:00.000Z</Time>
            <Position>
              <LatitudeDegrees>42.2987773083150386810302734375</LatitudeDegrees>
              <LongitudeDegrees>2.56752739660441875457763671875</LongitudeDegrees>
            </Position>
            <AltitudeMeters>699.5999755859375</AltitudeMeters>
            <DistanceMeters>NAN</DistanceMeters>
          </Trackpoint>
          <Trackpoint>
            <Time>2021-04-03T09:13:03.000Z</Time>
            <Position>
              <LatitudeDegrees>42.2987746261060237884521484375</LatitudeDegrees>
              <LongitudeDegrees>2.56751398555934429168701171875</LongitudeDegrees>
            </Position>
            <AltitudeMeters>699.20001220703125</AltitudeMeters>
            <DistanceMeters>NAN</DistanceMeters>
          </Trackpoint>
          <Trackpoint>
            <Time>2021-04-03T09:13:07.000Z</Time>
            <Position>
              <LatitudeDegrees>42.29874989949166774749755859375</LatitudeDegrees>
              <LongitudeDegrees>2.56749772466719150543212890625</LongitudeDegrees>
            </Position>
            <AltitudeMeters>698.5999755859375</AltitudeMeters>
            <DistanceMeters>NAN</DistanceMeters>
          </Trackpoint>
          <Trackpoint>
            <Time>2021-04-03T09:13:09.000Z</Time>
            <Position>
              <LatitudeDegrees>42.2987407632172107696533203125</LatitudeDegrees>
              <LongitudeDegrees>2.5674847327172756195068359375</LongitudeDegrees>
            </Position>
            <AltitudeMeters>698.4000244140625</AltitudeMeters>
            <DistanceMeters>NAN</DistanceMeters>
          </Trackpoint>
          <Trackpoint>
            <Time>2021-04-03T09:13:10.000Z</Time>
            <Position>
              <LatitudeDegrees>42.29873858392238616943359375</LatitudeDegrees>
              <LongitudeDegrees>2.56747643463313579559326171875</LongitudeDegrees>
            </Position>
            <AltitudeMeters>698.20001220703125</AltitudeMeters>
            <DistanceMeters>NAN</DistanceMeters>
          </Trackpoint>
          <Trackpoint>
            <Time>2021-04-03T09:13:11.000Z</Time>
            <Position>
              <LatitudeDegrees>42.29873766191303730010986328125</LatitudeDegrees>
              <LongitudeDegrees>2.5674686394631862640380859375</LongitudeDegrees>
            </Position>
            <AltitudeMeters>697.79998779296875</AltitudeMeters>
            <DistanceMeters>NAN</DistanceMeters>
          </Trackpoint>
          <Trackpoint>
            <Time>2021-04-03T09:13:12.000Z</Time>
            <Position>
              <LatitudeDegrees>42.298734225332736968994140625</LatitudeDegrees>
              <LongitudeDegrees>2.56745874881744384765625</LongitudeDegrees>
            </Position>
            <AltitudeMeters>697.5999755859375</AltitudeMeters>
            <DistanceMeters>NAN</DistanceMeters>
          </Trackpoint>
          <Trackpoint>
            <Time>2021-04-03T09:13:14.000Z</Time>
            <Position>
              <LatitudeDegrees>42.29872307740151882171630859375</LatitudeDegrees>
              <LongitudeDegrees>2.56743871606886386871337890625</LongitudeDegrees>
            </Position>
            <AltitudeMeters>697.20001220703125</AltitudeMeters>
            <DistanceMeters>NAN</DistanceMeters>
          </Trackpoint>
          <Trackpoint>
            <Time>2021-04-03T09:13:17.000Z</Time>
            <Position>
              <LatitudeDegrees>42.29870983399450778961181640625</LatitudeDegrees>
              <LongitudeDegrees>2.56742547266185283660888671875</LongitudeDegrees>
            </Position>
            <AltitudeMeters>696.4000244140625</AltitudeMeters>
            <DistanceMeters>NAN</DistanceMeters>
          </Trackpoint>
          <Trackpoint>
            <Time>2021-04-03T09:13:18.000Z</Time>
            <Position>
              <LatitudeDegrees>42.2987058945000171661376953125</LatitudeDegrees>
              <LongitudeDegrees>2.5674274004995822906494140625</LongitudeDegrees>
            </Position>
            <AltitudeMeters>696.20001220703125</AltitudeMeters>
            <DistanceMeters>NAN</DistanceMeters>
          </Trackpoint>
          <Trackpoint>
            <Time>2021-04-03T09:13:23.000Z</Time>
            <Position>
              <LatitudeDegrees>42.298686616122722625732421875</LatitudeDegrees>
              <LongitudeDegrees>2.5674144923686981201171875</LongitudeDegrees>
            </Position>
            <AltitudeMeters>695.5999755859375</AltitudeMeters>
            <DistanceMeters>NAN</DistanceMeters>
          </Trackpoint>
          <Trackpoint>
            <Time>2021-04-03T09:13:24.000Z</Time>
            <Position>
              <LatitudeDegrees>42.29868334718048572540283203125</LatitudeDegrees>
              <LongitudeDegrees>2.5674091279506683349609375</LongitudeDegrees>
            </Position>
            <AltitudeMeters>695.4000244140625</AltitudeMeters>
            <DistanceMeters>NAN</DistanceMeters>
          </Trackpoint>
          <Trackpoint>
            <Time>2021-04-03T09:13:25.000Z</Time>
            <Position>
              <LatitudeDegrees>42.29868016205728054046630859375</LatitudeDegrees>
              <LongitudeDegrees>2.56740099750459194183349609375</LongitudeDegrees>
            </Position>
            <AltitudeMeters>695.4000244140625</AltitudeMeters>
            <DistanceMeters>NAN</DistanceMeters>
          </Trackpoint>
          <Trackpoint>
            <Time>2021-04-03T09:13:30.000Z</Time>
            <Position>
              <LatitudeDegrees>42.29865618981420993804931640625</LatitudeDegrees>
              <LongitudeDegrees>2.56737249903380870819091796875</LongitudeDegrees>
            </Position>
            <AltitudeMeters>694.20001220703125</AltitudeMeters>
            <DistanceMeters>NAN</DistanceMeters>
          </Trackpoint>
          <Trackpoint>
            <Time>2021-04-03T09:13:33.000Z</Time>
            <Position>
              <LatitudeDegrees>42.29866423644125461578369140625</LatitudeDegrees>
              <LongitudeDegrees>2.56733310408890247344970703125</LongitudeDegrees>
            </Position>
            <AltitudeMeters>693.20001220703125</AltitudeMeters>
            <DistanceMeters>NAN</DistanceMeters>
          </Trackpoint>
          <Trackpoint>
            <Time>2021-04-03T09:13:34.000Z</Time>
            <Position>
              <LatitudeDegrees>42.29866641573607921600341796875</LatitudeDegrees>
              <LongitudeDegrees>2.56732463836669921875</LongitudeDegrees>
            </Position>
            <AltitudeMeters>693</AltitudeMeters>
            <DistanceMeters>NAN</DistanceMeters>
          </Trackpoint>
          <Trackpoint>
            <Time>2021-04-03T09:13:37.000Z</Time>
            <Position>
              <LatitudeDegrees>42.2986619733273983001708984375</LatitudeDegrees>
              <LongitudeDegrees>2.5672966428101062774658203125</LongitudeDegrees>
            </Position>
            <AltitudeMeters>692.4000244140625</AltitudeMeters>
            <DistanceMeters>NAN</DistanceMeters>
          </Trackpoint>
          <Trackpoint>
            <Time>2021-04-03T09:13:39.000Z</Time>
            <Position>
              <LatitudeDegrees>42.29865786619484424591064453125</LatitudeDegrees>
              <LongitudeDegrees>2.56727443076670169830322265625</LongitudeDegrees>
            </Position>
            <AltitudeMeters>692.20001220703125</AltitudeMeters>
            <DistanceMeters>NAN</DistanceMeters>
          </Trackpoint>
          <Trackpoint>
            <Time>2021-04-03T09:13:41.000Z</Time>
            <Position>
              <LatitudeDegrees>42.2986512444913387298583984375</LatitudeDegrees>
              <LongitudeDegrees>2.56724660284817218780517578125</LongitudeDegrees>
            </Position>
            <AltitudeMeters>691.79998779296875</AltitudeMeters>
            <DistanceMeters>NAN</DistanceMeters>
          </Trackpoint>
          <Trackpoint>
            <Time>2021-04-03T09:13:46.000Z</Time>
            <Position>
              <LatitudeDegrees>42.29863020591437816619873046875</LatitudeDegrees>
              <LongitudeDegrees>2.5671695731580257415771484375</LongitudeDegrees>
            </Position>
            <AltitudeMeters>691.20001220703125</AltitudeMeters>
            <DistanceMeters>NAN</DistanceMeters>
          </Trackpoint>
          <Trackpoint>
            <Time>2021-04-03T09:13:48.000Z</Time>
            <Position>
              <LatitudeDegrees>42.29862433858215808868408203125</LatitudeDegrees>
              <LongitudeDegrees>2.5671461038291454315185546875</LongitudeDegrees>
            </Position>
            <AltitudeMeters>691</AltitudeMeters>
            <DistanceMeters>NAN</DistanceMeters>
          </Trackpoint>
          <Trackpoint>
            <Time>2021-04-03T09:13:50.000Z</Time>
            <Position>
              <LatitudeDegrees>42.29861377738416194915771484375</LatitudeDegrees>
              <LongitudeDegrees>2.56712925620377063751220703125</LongitudeDegrees>
            </Position>
            <AltitudeMeters>690.79998779296875</AltitudeMeters>
            <DistanceMeters>NAN</DistanceMeters>
          </Trackpoint>
          <Trackpoint>
            <Time>2021-04-03T09:13:51.000Z</Time>
            <Position>
              <LatitudeDegrees>42.29860807769000530242919921875</LatitudeDegrees>
              <LongitudeDegrees>2.5671249814331531524658203125</LongitudeDegrees>
            </Position>
            <AltitudeMeters>690.5999755859375</AltitudeMeters>
            <DistanceMeters>NAN</DistanceMeters>
          </Trackpoint>
          <Trackpoint>
            <Time>2021-04-03T09:13:52.000Z</Time>
            <Position>
              <LatitudeDegrees>42.29860288091003894805908203125</LatitudeDegrees>
              <LongitudeDegrees>2.5671189464628696441650390625</LongitudeDegrees>
            </Position>
            <AltitudeMeters>690.4000244140625</AltitudeMeters>
            <DistanceMeters>NAN</DistanceMeters>
          </Trackpoint>
          <Trackpoint>
            <Time>2021-04-03T09:13:56.000Z</Time>
            <Position>
              <LatitudeDegrees>42.2985796630382537841796875</LatitudeDegrees>
              <LongitudeDegrees>2.56708198226988315582275390625</LongitudeDegrees>
            </Position>
            <AltitudeMeters>689.4000244140625</AltitudeMeters>
            <DistanceMeters>NAN</DistanceMeters>
          </Trackpoint>
          <Trackpoint>
            <Time>2021-04-03T09:13:57.000Z</Time>
            <Position>
              <LatitudeDegrees>42.29857404716312885284423828125</LatitudeDegrees>
              <LongitudeDegrees>2.5670686550438404083251953125</LongitudeDegrees>
            </Position>
            <AltitudeMeters>689.20001220703125</AltitudeMeters>
            <DistanceMeters>NAN</DistanceMeters>
          </Trackpoint>
          <Trackpoint>
            <Time>2021-04-03T09:13:59.000Z</Time>
            <Position>
              <LatitudeDegrees>42.29855694808065891265869140625</LatitudeDegrees>
              <LongitudeDegrees>2.56704325787723064422607421875</LongitudeDegrees>
            </Position>
            <AltitudeMeters>688.5999755859375</AltitudeMeters>
            <DistanceMeters>NAN</DistanceMeters>
          </Trackpoint>
          <Trackpoint>
            <Time>2021-04-03T09:14:00.000Z</Time>
            <Position>
              <LatitudeDegrees>42.29854973964393138885498046875</LatitudeDegrees>
              <LongitudeDegrees>2.5670374743640422821044921875</LongitudeDegrees>
            </Position>
            <AltitudeMeters>688.4000244140625</AltitudeMeters>
            <DistanceMeters>NAN</DistanceMeters>
          </Trackpoint>
          <Trackpoint>
            <Time>2021-04-03T09:14:01.000Z</Time>
            <Position>
              <LatitudeDegrees>42.29853808879852294921875</LatitudeDegrees>
              <LongitudeDegrees>2.56703303195536136627197265625</LongitudeDegrees>
            </Position>
            <AltitudeMeters>688</AltitudeMeters>
            <DistanceMeters>NAN</DistanceMeters>
          </Trackpoint>
          <Trackpoint>
            <Time>2021-04-03T09:14:05.000Z</Time>
            <Position>
              <LatitudeDegrees>42.29850145988166332244873046875</LatitudeDegrees>
              <LongitudeDegrees>2.56700671277940273284912109375</LongitudeDegrees>
            </Position>
            <AltitudeMeters>687.20001220703125</AltitudeMeters>
            <DistanceMeters>NAN</DistanceMeters>
          </Trackpoint>
          <Trackpoint>
            <Time>2021-04-03T09:14:09.000Z</Time>
            <Position>
              <LatitudeDegrees>42.29849995113909244537353515625</LatitudeDegrees>
              <LongitudeDegrees>2.56697930395603179931640625</LongitudeDegrees>
            </Position>
            <AltitudeMeters>686.20001220703125</AltitudeMeters>
            <DistanceMeters>NAN</DistanceMeters>
          </Trackpoint>
          <Trackpoint>
            <Time>2021-04-03T09:14:10.000Z</Time>
            <Position>
              <LatitudeDegrees>42.29849911294877529144287109375</LatitudeDegrees>
              <LongitudeDegrees>2.56697301752865314483642578125</LongitudeDegrees>
            </Position>
            <AltitudeMeters>686</AltitudeMeters>
            <DistanceMeters>NAN</DistanceMeters>
          </Trackpoint>
          <Trackpoint>
            <Time>2021-04-03T09:14:15.000Z</Time>
            <Position>
              <LatitudeDegrees>42.29847581125795841217041015625</LatitudeDegrees>
              <LongitudeDegrees>2.56694619543850421905517578125</LongitudeDegrees>
            </Position>
            <AltitudeMeters>685.20001220703125</AltitudeMeters>
            <DistanceMeters>NAN</DistanceMeters>
          </Trackpoint>
          <Trackpoint>
            <Time>2021-04-03T09:14:16.000Z</Time>
            <Position>
              <LatitudeDegrees>42.29846491478383541107177734375</LatitudeDegrees>
              <LongitudeDegrees>2.56694468669593334197998046875</LongitudeDegrees>
            </Position>
            <AltitudeMeters>685</AltitudeMeters>
            <DistanceMeters>NAN</DistanceMeters>
          </Trackpoint>
          <Trackpoint>
            <Time>2021-04-03T09:14:17.000Z</Time>
            <Position>
              <LatitudeDegrees>42.2984577901661396026611328125</LatitudeDegrees>
              <LongitudeDegrees>2.56694099865853786468505859375</LongitudeDegrees>
            </Position>
            <AltitudeMeters>684.79998779296875</AltitudeMeters>
            <DistanceMeters>NAN</DistanceMeters>
          </Trackpoint>
          <Trackpoint>
            <Time>2021-04-03T09:14:20.000Z</Time>
            <Position>
              <LatitudeDegrees>42.29844144545495510101318359375</LatitudeDegrees>
              <LongitudeDegrees>2.566911242902278900146484375</LongitudeDegrees>
            </Position>
            <AltitudeMeters>684.20001220703125</AltitudeMeters>
            <DistanceMeters>NAN</DistanceMeters>
          </Trackpoint>
          <Trackpoint>
            <Time>2021-04-03T09:14:21.000Z</Time>
            <Position>
              <LatitudeDegrees>42.2984353266656398773193359375</LatitudeDegrees>
              <LongitudeDegrees>2.56689707748591899871826171875</LongitudeDegrees>
            </Position>
            <AltitudeMeters>683.79998779296875</AltitudeMeters>
            <DistanceMeters>NAN</DistanceMeters>
          </Trackpoint>
          <Trackpoint>
            <Time>2021-04-03T09:14:22.000Z</Time>
            <Position>
              <LatitudeDegrees>42.29843222536146640777587890625</LatitudeDegrees>
              <LongitudeDegrees>2.566885091364383697509765625</LongitudeDegrees>
            </Position>
            <AltitudeMeters>683.5999755859375</AltitudeMeters>
            <DistanceMeters>NAN</DistanceMeters>
          </Trackpoint>
          <Trackpoint>
            <Time>2021-04-03T09:14:24.000Z</Time>
            <Position>
              <LatitudeDegrees>42.29843205772340297698974609375</LatitudeDegrees>
              <LongitudeDegrees>2.5668550841510295867919921875</LongitudeDegrees>
            </Position>
            <AltitudeMeters>683.4000244140625</AltitudeMeters>
            <DistanceMeters>NAN</DistanceMeters>
          </Trackpoint>
          <Trackpoint>
            <Time>2021-04-03T09:14:33.000Z</Time>
            <Position>
              <LatitudeDegrees>42.29840037412941455841064453125</LatitudeDegrees>
              <LongitudeDegrees>2.5666834227740764617919921875</LongitudeDegrees>
            </Position>
            <AltitudeMeters>682.20001220703125</AltitudeMeters>
            <DistanceMeters>NAN</DistanceMeters>
          </Trackpoint>
          <Trackpoint>
            <Time>2021-04-03T09:14:39.000Z</Time>
            <Position>
              <LatitudeDegrees>42.29838277213275432586669921875</LatitudeDegrees>
              <LongitudeDegrees>2.56658594124019145965576171875</LongitudeDegrees>
            </Position>
            <AltitudeMeters>681.4000244140625</AltitudeMeters>
            <DistanceMeters>NAN</DistanceMeters>
          </Trackpoint>
          <Trackpoint>
            <Time>2021-04-03T09:14:41.000Z</Time>
            <Position>
              <LatitudeDegrees>42.298370786011219024658203125</LatitudeDegrees>
              <LongitudeDegrees>2.566561885178089141845703125</LongitudeDegrees>
            </Position>
            <AltitudeMeters>681.20001220703125</AltitudeMeters>
            <DistanceMeters>NAN</DistanceMeters>
          </Trackpoint>
          <Trackpoint>
            <Time>2021-04-03T09:14:50.000Z</Time>
            <Position>
              <LatitudeDegrees>42.2983253560960292816162109375</LatitudeDegrees>
              <LongitudeDegrees>2.56643087603151798248291015625</LongitudeDegrees>
            </Position>
            <AltitudeMeters>680.20001220703125</AltitudeMeters>
            <DistanceMeters>NAN</DistanceMeters>
          </Trackpoint>
          <Trackpoint>
            <Time>2021-04-03T09:14:54.000Z</Time>
            <Position>
              <LatitudeDegrees>42.298301719129085540771484375</LatitudeDegrees>
              <LongitudeDegrees>2.566410340368747711181640625</LongitudeDegrees>
            </Position>
            <AltitudeMeters>679</AltitudeMeters>
            <DistanceMeters>NAN</DistanceMeters>
          </Trackpoint>
          <Trackpoint>
            <Time>2021-04-03T09:14:57.000Z</Time>
            <Position>
              <LatitudeDegrees>42.29829090647399425506591796875</LatitudeDegrees>
              <LongitudeDegrees>2.56638393737375736236572265625</LongitudeDegrees>
            </Position>
            <AltitudeMeters>678.4000244140625</AltitudeMeters>
            <DistanceMeters>NAN</DistanceMeters>
          </Trackpoint>
          <Trackpoint>
            <Time>2021-04-03T09:14:58.000Z</Time>
            <Position>
              <LatitudeDegrees>42.29828470386564731597900390625</LatitudeDegrees>
              <LongitudeDegrees>2.566372454166412353515625</LongitudeDegrees>
            </Position>
            <AltitudeMeters>678</AltitudeMeters>
            <DistanceMeters>NAN</DistanceMeters>
          </Trackpoint>
          <Trackpoint>
            <Time>2021-04-03T09:14:59.000Z</Time>
            <Position>
              <LatitudeDegrees>42.29827850125730037689208984375</LatitudeDegrees>
              <LongitudeDegrees>2.56635996513068675994873046875</LongitudeDegrees>
            </Position>
            <AltitudeMeters>677.79998779296875</AltitudeMeters>
            <DistanceMeters>NAN</DistanceMeters>
          </Trackpoint>
          <Trackpoint>
            <Time>2021-04-03T09:15:03.000Z</Time>
            <Position>
              <LatitudeDegrees>42.298257462680339813232421875</LatitudeDegrees>
              <LongitudeDegrees>2.56631755270063877105712890625</LongitudeDegrees>
            </Position>
            <AltitudeMeters>676.79998779296875</AltitudeMeters>
            <DistanceMeters>NAN</DistanceMeters>
          </Trackpoint>
          <Trackpoint>
            <Time>2021-04-03T09:15:04.000Z</Time>
            <Position>
              <LatitudeDegrees>42.29825134389102458953857421875</LatitudeDegrees>
              <LongitudeDegrees>2.5663085840642452239990234375</LongitudeDegrees>
            </Position>
            <AltitudeMeters>676.5999755859375</AltitudeMeters>
            <DistanceMeters>NAN</DistanceMeters>
          </Trackpoint>
          <Trackpoint>
            <Time>2021-04-03T09:15:07.000Z</Time>
            <Position>
              <LatitudeDegrees>42.29822552762925624847412109375</LatitudeDegrees>
              <LongitudeDegrees>2.5662924908101558685302734375</LongitudeDegrees>
            </Position>
            <AltitudeMeters>675.79998779296875</AltitudeMeters>
            <DistanceMeters>NAN</DistanceMeters>
          </Trackpoint>
          <Trackpoint>
            <Time>2021-04-03T09:15:11.000Z</Time>
            <Position>
              <LatitudeDegrees>42.29820155538618564605712890625</LatitudeDegrees>
              <LongitudeDegrees>2.566270530223846435546875</LongitudeDegrees>
            </Position>
            <AltitudeMeters>675</AltitudeMeters>
            <DistanceMeters>NAN</DistanceMeters>
          </Trackpoint>
          <Trackpoint>
            <Time>2021-04-03T09:15:12.000Z</Time>
            <Position>
              <LatitudeDegrees>42.2981907427310943603515625</LatitudeDegrees>
              <LongitudeDegrees>2.5662653334438800811767578125</LongitudeDegrees>
            </Position>
            <AltitudeMeters>674.79998779296875</AltitudeMeters>
            <DistanceMeters>NAN</DistanceMeters>
          </Trackpoint>
          <Trackpoint>
            <Time>2021-04-03T09:15:17.000Z</Time>
            <Position>
              <LatitudeDegrees>42.298153527081012725830078125</LatitudeDegrees>
              <LongitudeDegrees>2.56622987799346446990966796875</LongitudeDegrees>
            </Position>
            <AltitudeMeters>673.5999755859375</AltitudeMeters>
            <DistanceMeters>NAN</DistanceMeters>
          </Trackpoint>
          <Trackpoint>
            <Time>2021-04-03T09:15:18.000Z</Time>
            <Position>
              <LatitudeDegrees>42.298145480453968048095703125</LatitudeDegrees>
              <LongitudeDegrees>2.56622367538511753082275390625</LongitudeDegrees>
            </Position>
            <AltitudeMeters>673.4000244140625</AltitudeMeters>
            <DistanceMeters>NAN</DistanceMeters>
          </Trackpoint>
          <Trackpoint>
            <Time>2021-04-03T09:15:23.000Z</Time>
            <Position>
              <LatitudeDegrees>42.2981183230876922607421875</LatitudeDegrees>
              <LongitudeDegrees>2.56617606617510318756103515625</LongitudeDegrees>
            </Position>
            <AltitudeMeters>672.5999755859375</AltitudeMeters>
            <DistanceMeters>NAN</DistanceMeters>
          </Trackpoint>
          <Trackpoint>
            <Time>2021-04-03T09:15:29.000Z</Time>
            <Position>
              <LatitudeDegrees>42.29808538220822811126708984375</LatitudeDegrees>
              <LongitudeDegrees>2.56608973257243633270263671875</LongitudeDegrees>
            </Position>
            <AltitudeMeters>671.4000244140625</AltitudeMeters>
            <DistanceMeters>NAN</DistanceMeters>
          </Trackpoint>
          <Trackpoint>
            <Time>2021-04-03T09:15:30.000Z</Time>
            <Position>
              <LatitudeDegrees>42.29808102361857891082763671875</LatitudeDegrees>
              <LongitudeDegrees>2.5660769082605838775634765625</LongitudeDegrees>
            </Position>
            <AltitudeMeters>671.20001220703125</AltitudeMeters>
            <DistanceMeters>NAN</DistanceMeters>
          </Trackpoint>
          <Trackpoint>
            <Time>2021-04-03T09:15:33.000Z</Time>
            <Position>
              <LatitudeDegrees>42.2980735637247562408447265625</LatitudeDegrees>
              <LongitudeDegrees>2.5660470686852931976318359375</LongitudeDegrees>
            </Position>
            <AltitudeMeters>670.79998779296875</AltitudeMeters>
            <DistanceMeters>NAN</DistanceMeters>
          </Trackpoint>
          <Trackpoint>
            <Time>2021-04-03T09:15:36.000Z</Time>
            <Position>
              <LatitudeDegrees>42.29806995950639247894287109375</LatitudeDegrees>
              <LongitudeDegrees>2.56599753163754940032958984375</LongitudeDegrees>
            </Position>
            <AltitudeMeters>670.4000244140625</AltitudeMeters>
            <DistanceMeters>NAN</DistanceMeters>
          </Trackpoint>
          <Trackpoint>
            <Time>2021-04-03T09:15:37.000Z</Time>
            <Position>
              <LatitudeDegrees>42.298067025840282440185546875</LatitudeDegrees>
              <LongitudeDegrees>2.56597942672669887542724609375</LongitudeDegrees>
            </Position>
            <AltitudeMeters>670</AltitudeMeters>
            <DistanceMeters>NAN</DistanceMeters>
          </Trackpoint>
          <Trackpoint>
            <Time>2021-04-03T09:15:41.000Z</Time>
            <Position>
              <LatitudeDegrees>42.2980668582022190093994140625</LatitudeDegrees>
              <LongitudeDegrees>2.5659206695854663848876953125</LongitudeDegrees>
            </Position>
            <AltitudeMeters>669.4000244140625</AltitudeMeters>
            <DistanceMeters>NAN</DistanceMeters>
          </Trackpoint>
          <Trackpoint>
            <Time>2021-04-03T09:15:43.000Z</Time>
            <Position>
              <LatitudeDegrees>42.29806266725063323974609375</LatitudeDegrees>
              <LongitudeDegrees>2.56589124910533428192138671875</LongitudeDegrees>
            </Position>
            <AltitudeMeters>669</AltitudeMeters>
            <DistanceMeters>NAN</DistanceMeters>
          </Trackpoint>
          <Trackpoint>
            <Time>2021-04-03T09:15:44.000Z</Time>
            <Position>
              <LatitudeDegrees>42.29806174524128437042236328125</LatitudeDegrees>
              <LongitudeDegrees>2.565877251327037811279296875</LongitudeDegrees>
            </Position>
            <AltitudeMeters>668.79998779296875</AltitudeMeters>
            <DistanceMeters>NAN</DistanceMeters>
          </Trackpoint>
          <Trackpoint>
            <Time>2021-04-03T09:15:47.000Z</Time>
            <Position>
              <LatitudeDegrees>42.29805135168135166168212890625</LatitudeDegrees>
              <LongitudeDegrees>2.56584548391401767730712890625</LongitudeDegrees>
            </Position>
            <AltitudeMeters>667.79998779296875</AltitudeMeters>
            <DistanceMeters>NAN</DistanceMeters>
          </Trackpoint>
          <Trackpoint>
            <Time>2021-04-03T09:15:52.000Z</Time>
            <Position>
              <LatitudeDegrees>42.2980316542088985443115234375</LatitudeDegrees>
              <LongitudeDegrees>2.56576652638614177703857421875</LongitudeDegrees>
            </Position>
            <AltitudeMeters>666.79998779296875</AltitudeMeters>
            <DistanceMeters>NAN</DistanceMeters>
          </Trackpoint>
          <Trackpoint>
            <Time>2021-04-03T09:15:53.000Z</Time>
            <Position>
              <LatitudeDegrees>42.29803383350372314453125</LatitudeDegrees>
              <LongitudeDegrees>2.5657550431787967681884765625</LongitudeDegrees>
            </Position>
            <AltitudeMeters>666.79998779296875</AltitudeMeters>
            <DistanceMeters>NAN</DistanceMeters>
          </Trackpoint>
          <Trackpoint>
            <Time>2021-04-03T09:15:58.000Z</Time>
            <Position>
              <LatitudeDegrees>42.29806392453610897064208984375</LatitudeDegrees>
              <LongitudeDegrees>2.565680444240570068359375</LongitudeDegrees>
            </Position>
            <AltitudeMeters>666</AltitudeMeters>
            <DistanceMeters>NAN</DistanceMeters>
          </Trackpoint>
          <Trackpoint>
            <Time>2021-04-03T09:15:59.000Z</Time>
            <Position>
              <LatitudeDegrees>42.2980745695531368255615234375</LatitudeDegrees>
              <LongitudeDegrees>2.5656764209270477294921875</LongitudeDegrees>
            </Position>
            <AltitudeMeters>666</AltitudeMeters>
            <DistanceMeters>NAN</DistanceMeters>
          </Trackpoint>
          <Trackpoint>
            <Time>2021-04-03T09:16:03.000Z</Time>
            <Position>
              <LatitudeDegrees>42.2981023974716663360595703125</LatitudeDegrees>
              <LongitudeDegrees>2.56566812284290790557861328125</LongitudeDegrees>
            </Position>
            <AltitudeMeters>665.79998779296875</AltitudeMeters>
            <DistanceMeters>NAN</DistanceMeters>
          </Trackpoint>
          <Trackpoint>
            <Time>2021-04-03T09:16:06.000Z</Time>
            <Position>
              <LatitudeDegrees>42.2981178201735019683837890625</LatitudeDegrees>
              <LongitudeDegrees>2.56564582698047161102294921875</LongitudeDegrees>
            </Position>
            <AltitudeMeters>665.5999755859375</AltitudeMeters>
            <DistanceMeters>NAN</DistanceMeters>
          </Trackpoint>
          <Trackpoint>
            <Time>2021-04-03T09:16:09.000Z</Time>
            <Position>
              <LatitudeDegrees>42.29813198558986186981201171875</LatitudeDegrees>
              <LongitudeDegrees>2.56563593633472919464111328125</LongitudeDegrees>
            </Position>
            <AltitudeMeters>665</AltitudeMeters>
            <DistanceMeters>NAN</DistanceMeters>
          </Trackpoint>
          <Trackpoint>
            <Time>2021-04-03T09:16:12.000Z</Time>
            <Position>
              <LatitudeDegrees>42.29814313352108001708984375</LatitudeDegrees>
              <LongitudeDegrees>2.56560911424458026885986328125</LongitudeDegrees>
            </Position>
            <AltitudeMeters>664.79998779296875</AltitudeMeters>
            <DistanceMeters>NAN</DistanceMeters>
          </Trackpoint>
          <Trackpoint>
            <Time>2021-04-03T09:16:13.000Z</Time>
            <Position>
              <LatitudeDegrees>42.298146151006221771240234375</LatitudeDegrees>
              <LongitudeDegrees>2.5655991397798061370849609375</LongitudeDegrees>
            </Position>
            <AltitudeMeters>664.4000244140625</AltitudeMeters>
            <DistanceMeters>NAN</DistanceMeters>
          </Trackpoint>
          <Trackpoint>
            <Time>2021-04-03T09:16:15.000Z</Time>
            <Position>
              <LatitudeDegrees>42.298158220946788787841796875</LatitudeDegrees>
              <LongitudeDegrees>2.56559193134307861328125</LongitudeDegrees>
            </Position>
            <AltitudeMeters>664.20001220703125</AltitudeMeters>
            <DistanceMeters>NAN</DistanceMeters>
          </Trackpoint>
          <Trackpoint>
            <Time>2021-04-03T09:16:17.000Z</Time>
            <Position>
              <LatitudeDegrees>42.29817473329603672027587890625</LatitudeDegrees>
              <LongitudeDegrees>2.56557960994541645050048828125</LongitudeDegrees>
            </Position>
            <AltitudeMeters>663.5999755859375</AltitudeMeters>
            <DistanceMeters>NAN</DistanceMeters>
          </Trackpoint>
          <Trackpoint>
            <Time>2021-04-03T09:16:18.000Z</Time>
            <Position>
              <LatitudeDegrees>42.29817959479987621307373046875</LatitudeDegrees>
              <LongitudeDegrees>2.56556888110935688018798828125</LongitudeDegrees>
            </Position>
            <AltitudeMeters>663.4000244140625</AltitudeMeters>
            <DistanceMeters>NAN</DistanceMeters>
          </Trackpoint>
          <Trackpoint>
            <Time>2021-04-03T09:16:22.000Z</Time>
            <Position>
              <LatitudeDegrees>42.2981932573020458221435546875</LatitudeDegrees>
              <LongitudeDegrees>2.5655367784202098846435546875</LongitudeDegrees>
            </Position>
            <AltitudeMeters>662.79998779296875</AltitudeMeters>
            <DistanceMeters>NAN</DistanceMeters>
          </Trackpoint>
          <Trackpoint>
            <Time>2021-04-03T09:16:23.000Z</Time>
            <Position>
              <LatitudeDegrees>42.2981905750930309295654296875</LatitudeDegrees>
              <LongitudeDegrees>2.56552512757480144500732421875</LongitudeDegrees>
            </Position>
            <AltitudeMeters>662.5999755859375</AltitudeMeters>
            <DistanceMeters>NAN</DistanceMeters>
          </Trackpoint>
          <Trackpoint>
            <Time>2021-04-03T09:16:24.000Z</Time>
            <Position>
              <LatitudeDegrees>42.29819200001657009124755859375</LatitudeDegrees>
              <LongitudeDegrees>2.56551842205226421356201171875</LongitudeDegrees>
            </Position>
            <AltitudeMeters>662.4000244140625</AltitudeMeters>
            <DistanceMeters>NAN</DistanceMeters>
          </Trackpoint>
          <Trackpoint>
            <Time>2021-04-03T09:16:26.000Z</Time>
            <Position>
              <LatitudeDegrees>42.29820256121456623077392578125</LatitudeDegrees>
              <LongitudeDegrees>2.56549411453306674957275390625</LongitudeDegrees>
            </Position>
            <AltitudeMeters>661.79998779296875</AltitudeMeters>
            <DistanceMeters>NAN</DistanceMeters>
          </Trackpoint>
          <Trackpoint>
            <Time>2021-04-03T09:16:28.000Z</Time>
            <Position>
              <LatitudeDegrees>42.29821563698351383209228515625</LatitudeDegrees>
              <LongitudeDegrees>2.56545983254909515380859375</LongitudeDegrees>
            </Position>
            <AltitudeMeters>661.20001220703125</AltitudeMeters>
            <DistanceMeters>NAN</DistanceMeters>
          </Trackpoint>
          <Trackpoint>
            <Time>2021-04-03T09:16:30.000Z</Time>
            <Position>
              <LatitudeDegrees>42.2982153855264186859130859375</LatitudeDegrees>
              <LongitudeDegrees>2.56543929688632488250732421875</LongitudeDegrees>
            </Position>
            <AltitudeMeters>661</AltitudeMeters>
            <DistanceMeters>NAN</DistanceMeters>
          </Trackpoint>
          <Trackpoint>
            <Time>2021-04-03T09:16:32.000Z</Time>
            <Position>
              <LatitudeDegrees>42.2982130385935306549072265625</LatitudeDegrees>
              <LongitudeDegrees>2.5654256343841552734375</LongitudeDegrees>
            </Position>
            <AltitudeMeters>660.79998779296875</AltitudeMeters>
            <DistanceMeters>NAN</DistanceMeters>
          </Trackpoint>
          <Trackpoint>
            <Time>2021-04-03T09:16:37.000Z</Time>
            <Position>
              <LatitudeDegrees>42.29823994450271129608154296875</LatitudeDegrees>
              <LongitudeDegrees>2.56534893997013568878173828125</LongitudeDegrees>
            </Position>
            <AltitudeMeters>660</AltitudeMeters>
            <DistanceMeters>NAN</DistanceMeters>
          </Trackpoint>
          <Trackpoint>
            <Time>2021-04-03T09:16:39.000Z</Time>
            <Position>
              <LatitudeDegrees>42.29826391674578189849853515625</LatitudeDegrees>
              <LongitudeDegrees>2.56531423889100551605224609375</LongitudeDegrees>
            </Position>
            <AltitudeMeters>659.5999755859375</AltitudeMeters>
            <DistanceMeters>NAN</DistanceMeters>
          </Trackpoint>
          <Trackpoint>
            <Time>2021-04-03T09:16:40.000Z</Time>
            <Position>
              <LatitudeDegrees>42.2982774116098880767822265625</LatitudeDegrees>
              <LongitudeDegrees>2.56529965437948703765869140625</LongitudeDegrees>
            </Position>
            <AltitudeMeters>659.5999755859375</AltitudeMeters>
            <DistanceMeters>NAN</DistanceMeters>
          </Trackpoint>
          <Trackpoint>
            <Time>2021-04-03T09:16:42.000Z</Time>
            <Position>
              <LatitudeDegrees>42.2982740588486194610595703125</LatitudeDegrees>
              <LongitudeDegrees>2.5652692280709743499755859375</LongitudeDegrees>
            </Position>
            <AltitudeMeters>659.4000244140625</AltitudeMeters>
            <DistanceMeters>NAN</DistanceMeters>
          </Trackpoint>
          <Trackpoint>
            <Time>2021-04-03T09:16:44.000Z</Time>
            <Position>
              <LatitudeDegrees>42.2982792556285858154296875</LatitudeDegrees>
              <LongitudeDegrees>2.565239556133747100830078125</LongitudeDegrees>
            </Position>
            <AltitudeMeters>659.4000244140625</AltitudeMeters>
            <DistanceMeters>NAN</DistanceMeters>
          </Trackpoint>
          <Trackpoint>
            <Time>2021-04-03T09:16:47.000Z</Time>
            <Position>
              <LatitudeDegrees>42.29828000999987125396728515625</LatitudeDegrees>
              <LongitudeDegrees>2.5651860795915126800537109375</LongitudeDegrees>
            </Position>
            <AltitudeMeters>659.20001220703125</AltitudeMeters>
            <DistanceMeters>NAN</DistanceMeters>
          </Trackpoint>
          <Trackpoint>
            <Time>2021-04-03T09:16:48.000Z</Time>
            <Position>
              <LatitudeDegrees>42.29828353039920330047607421875</LatitudeDegrees>
              <LongitudeDegrees>2.5651723332703113555908203125</LongitudeDegrees>
            </Position>
            <AltitudeMeters>659</AltitudeMeters>
            <DistanceMeters>NAN</DistanceMeters>
          </Trackpoint>
          <Trackpoint>
            <Time>2021-04-03T09:16:50.000Z</Time>
            <Position>
              <LatitudeDegrees>42.2982958517968654632568359375</LatitudeDegrees>
              <LongitudeDegrees>2.5651525519788265228271484375</LongitudeDegrees>
            </Position>
            <AltitudeMeters>658.79998779296875</AltitudeMeters>
            <DistanceMeters>NAN</DistanceMeters>
          </Trackpoint>
          <Trackpoint>
            <Time>2021-04-03T09:16:55.000Z</Time>
            <Position>
              <LatitudeDegrees>42.2982985340058803558349609375</LatitudeDegrees>
              <LongitudeDegrees>2.56508926860988140106201171875</LongitudeDegrees>
            </Position>
            <AltitudeMeters>658.20001220703125</AltitudeMeters>
            <DistanceMeters>NAN</DistanceMeters>
          </Trackpoint>
          <Trackpoint>
            <Time>2021-04-03T09:16:56.000Z</Time>
            <Position>
              <LatitudeDegrees>42.29829375632107257843017578125</LatitudeDegrees>
              <LongitudeDegrees>2.56508708931505680084228515625</LongitudeDegrees>
            </Position>
            <AltitudeMeters>658</AltitudeMeters>
            <DistanceMeters>NAN</DistanceMeters>
          </Trackpoint>
          <Trackpoint>
            <Time>2021-04-03T09:16:57.000Z</Time>
            <Position>
              <LatitudeDegrees>42.29828671552240848541259765625</LatitudeDegrees>
              <LongitudeDegrees>2.5650828145444393157958984375</LongitudeDegrees>
            </Position>
            <AltitudeMeters>657.79998779296875</AltitudeMeters>
            <DistanceMeters>NAN</DistanceMeters>
          </Trackpoint>
          <Trackpoint>
            <Time>2021-04-03T09:17:02.000Z</Time>
            <Position>
              <LatitudeDegrees>42.2982586361467838287353515625</LatitudeDegrees>
              <LongitudeDegrees>2.56507200188934803009033203125</LongitudeDegrees>
            </Position>
            <AltitudeMeters>657.20001220703125</AltitudeMeters>
            <DistanceMeters>NAN</DistanceMeters>
          </Trackpoint>
          <Trackpoint>
            <Time>2021-04-03T09:17:03.000Z</Time>
            <Position>
              <LatitudeDegrees>42.29825536720454692840576171875</LatitudeDegrees>
              <LongitudeDegrees>2.56506814621388912200927734375</LongitudeDegrees>
            </Position>
            <AltitudeMeters>657</AltitudeMeters>
            <DistanceMeters>NAN</DistanceMeters>
          </Trackpoint>
          <Trackpoint>
            <Time>2021-04-03T09:17:07.000Z</Time>
            <Position>
              <LatitudeDegrees>42.29824162088334560394287109375</LatitudeDegrees>
              <LongitudeDegrees>2.5650348700582981109619140625</LongitudeDegrees>
            </Position>
            <AltitudeMeters>656.5999755859375</AltitudeMeters>
            <DistanceMeters>NAN</DistanceMeters>
          </Trackpoint>
          <Trackpoint>
            <Time>2021-04-03T09:17:09.000Z</Time>
            <Position>
              <LatitudeDegrees>42.29824773967266082763671875</LatitudeDegrees>
              <LongitudeDegrees>2.56500544957816600799560546875</LongitudeDegrees>
            </Position>
            <AltitudeMeters>656</AltitudeMeters>
            <DistanceMeters>NAN</DistanceMeters>
          </Trackpoint>
          <Trackpoint>
            <Time>2021-04-03T09:17:11.000Z</Time>
            <Position>
              <LatitudeDegrees>42.2982497513294219970703125</LatitudeDegrees>
              <LongitudeDegrees>2.56498382426798343658447265625</LongitudeDegrees>
            </Position>
            <AltitudeMeters>655.4000244140625</AltitudeMeters>
            <DistanceMeters>NAN</DistanceMeters>
          </Trackpoint>
          <Trackpoint>
            <Time>2021-04-03T09:17:14.000Z</Time>
            <Position>
              <LatitudeDegrees>42.29824949987232685089111328125</LatitudeDegrees>
              <LongitudeDegrees>2.56493009626865386962890625</LongitudeDegrees>
            </Position>
            <AltitudeMeters>654.79998779296875</AltitudeMeters>
            <DistanceMeters>NAN</DistanceMeters>
          </Trackpoint>
          <Trackpoint>
            <Time>2021-04-03T09:17:16.000Z</Time>
            <Position>
              <LatitudeDegrees>42.29824564419686794281005859375</LatitudeDegrees>
              <LongitudeDegrees>2.564899921417236328125</LongitudeDegrees>
            </Position>
            <AltitudeMeters>654.4000244140625</AltitudeMeters>
            <DistanceMeters>NAN</DistanceMeters>
          </Trackpoint>
          <Trackpoint>
            <Time>2021-04-03T09:17:20.000Z</Time>
            <Position>
              <LatitudeDegrees>42.29824581183493137359619140625</LatitudeDegrees>
              <LongitudeDegrees>2.56483345292508602142333984375</LongitudeDegrees>
            </Position>
            <AltitudeMeters>653.20001220703125</AltitudeMeters>
            <DistanceMeters>NAN</DistanceMeters>
          </Trackpoint>
          <Trackpoint>
            <Time>2021-04-03T09:17:23.000Z</Time>
            <Position>
              <LatitudeDegrees>42.29825436137616634368896484375</LatitudeDegrees>
              <LongitudeDegrees>2.56479120813310146331787109375</LongitudeDegrees>
            </Position>
            <AltitudeMeters>652.4000244140625</AltitudeMeters>
            <DistanceMeters>NAN</DistanceMeters>
          </Trackpoint>
          <Trackpoint>
            <Time>2021-04-03T09:17:26.000Z</Time>
            <Position>
              <LatitudeDegrees>42.2982712090015411376953125</LatitudeDegrees>
              <LongitudeDegrees>2.56475851871073246002197265625</LongitudeDegrees>
            </Position>
            <AltitudeMeters>652</AltitudeMeters>
            <DistanceMeters>NAN</DistanceMeters>
          </Trackpoint>
          <Trackpoint>
            <Time>2021-04-03T09:17:29.000Z</Time>
            <Position>
              <LatitudeDegrees>42.29827146045863628387451171875</LatitudeDegrees>
              <LongitudeDegrees>2.56472566165030002593994140625</LongitudeDegrees>
            </Position>
            <AltitudeMeters>651</AltitudeMeters>
            <DistanceMeters>NAN</DistanceMeters>
          </Trackpoint>
          <Trackpoint>
            <Time>2021-04-03T09:17:30.000Z</Time>
            <Position>
              <LatitudeDegrees>42.2982713766396045684814453125</LatitudeDegrees>
              <LongitudeDegrees>2.564712502062320709228515625</LongitudeDegrees>
            </Position>
            <AltitudeMeters>650.79998779296875</AltitudeMeters>
            <DistanceMeters>NAN</DistanceMeters>
          </Trackpoint>
          <Trackpoint>
            <Time>2021-04-03T09:17:31.000Z</Time>
            <Position>
              <LatitudeDegrees>42.2982723824679851531982421875</LatitudeDegrees>
              <LongitudeDegrees>2.564701102674007415771484375</LongitudeDegrees>
            </Position>
            <AltitudeMeters>650.5999755859375</AltitudeMeters>
            <DistanceMeters>NAN</DistanceMeters>
          </Trackpoint>
          <Trackpoint>
            <Time>2021-04-03T09:17:35.000Z</Time>
            <Position>
              <LatitudeDegrees>42.2982747294008731842041015625</LatitudeDegrees>
              <LongitudeDegrees>2.56463731639087200164794921875</LongitudeDegrees>
            </Position>
            <AltitudeMeters>649.5999755859375</AltitudeMeters>
            <DistanceMeters>NAN</DistanceMeters>
          </Trackpoint>
          <Trackpoint>
            <Time>2021-04-03T09:17:36.000Z</Time>
            <Position>
              <LatitudeDegrees>42.29828260838985443115234375</LatitudeDegrees>
              <LongitudeDegrees>2.56462591700255870819091796875</LongitudeDegrees>
            </Position>
            <AltitudeMeters>649.4000244140625</AltitudeMeters>
            <DistanceMeters>NAN</DistanceMeters>
          </Trackpoint>
          <Trackpoint>
            <Time>2021-04-03T09:17:38.000Z</Time>
            <Position>
              <LatitudeDegrees>42.2982980310916900634765625</LatitudeDegrees>
              <LongitudeDegrees>2.56459750235080718994140625</LongitudeDegrees>
            </Position>
            <AltitudeMeters>649.20001220703125</AltitudeMeters>
            <DistanceMeters>NAN</DistanceMeters>
          </Trackpoint>
          <Trackpoint>
            <Time>2021-04-03T09:17:41.000Z</Time>
            <Position>
              <LatitudeDegrees>42.29830934666097164154052734375</LatitudeDegrees>
              <LongitudeDegrees>2.5645458698272705078125</LongitudeDegrees>
            </Position>
            <AltitudeMeters>648.5999755859375</AltitudeMeters>
            <DistanceMeters>NAN</DistanceMeters>
          </Trackpoint>
          <Trackpoint>
            <Time>2021-04-03T09:17:42.000Z</Time>
            <Position>
              <LatitudeDegrees>42.29831353761255741119384765625</LatitudeDegrees>
              <LongitudeDegrees>2.56453304551541805267333984375</LongitudeDegrees>
            </Position>
            <AltitudeMeters>648.5999755859375</AltitudeMeters>
            <DistanceMeters>NAN</DistanceMeters>
          </Trackpoint>
          <Trackpoint>
            <Time>2021-04-03T09:17:43.000Z</Time>
            <Position>
              <LatitudeDegrees>42.2983146272599697113037109375</LatitudeDegrees>
              <LongitudeDegrees>2.56451929919421672821044921875</LongitudeDegrees>
            </Position>
            <AltitudeMeters>648.5999755859375</AltitudeMeters>
            <DistanceMeters>NAN</DistanceMeters>
          </Trackpoint>
          <Trackpoint>
            <Time>2021-04-03T09:17:46.000Z</Time>
            <Position>
              <LatitudeDegrees>42.2983142919838428497314453125</LatitudeDegrees>
              <LongitudeDegrees>2.56448275409638881683349609375</LongitudeDegrees>
            </Position>
            <AltitudeMeters>648.20001220703125</AltitudeMeters>
            <DistanceMeters>NAN</DistanceMeters>
          </Trackpoint>
          <Trackpoint>
            <Time>2021-04-03T09:17:48.000Z</Time>
            <Position>
              <LatitudeDegrees>42.29831504635512828826904296875</LatitudeDegrees>
              <LongitudeDegrees>2.56444419734179973602294921875</LongitudeDegrees>
            </Position>
            <AltitudeMeters>647.79998779296875</AltitudeMeters>
            <DistanceMeters>NAN</DistanceMeters>
          </Trackpoint>
          <Trackpoint>
            <Time>2021-04-03T09:17:49.000Z</Time>
            <Position>
              <LatitudeDegrees>42.29831739328801631927490234375</LatitudeDegrees>
              <LongitudeDegrees>2.56442718207836151123046875</LongitudeDegrees>
            </Position>
            <AltitudeMeters>647.4000244140625</AltitudeMeters>
            <DistanceMeters>NAN</DistanceMeters>
          </Trackpoint>
          <Trackpoint>
            <Time>2021-04-03T09:17:53.000Z</Time>
            <Position>
              <LatitudeDegrees>42.29832426644861698150634765625</LatitudeDegrees>
              <LongitudeDegrees>2.56437848322093486785888671875</LongitudeDegrees>
            </Position>
            <AltitudeMeters>646.5999755859375</AltitudeMeters>
            <DistanceMeters>NAN</DistanceMeters>
          </Trackpoint>
          <Trackpoint>
            <Time>2021-04-03T09:17:55.000Z</Time>
            <Position>
              <LatitudeDegrees>42.298337258398532867431640625</LatitudeDegrees>
              <LongitudeDegrees>2.56435937248170375823974609375</LongitudeDegrees>
            </Position>
            <AltitudeMeters>646.20001220703125</AltitudeMeters>
            <DistanceMeters>NAN</DistanceMeters>
          </Trackpoint>
          <Trackpoint>
            <Time>2021-04-03T09:18:00.000Z</Time>
            <Position>
              <LatitudeDegrees>42.29831990785896778106689453125</LatitudeDegrees>
              <LongitudeDegrees>2.5643012858927249908447265625</LongitudeDegrees>
            </Position>
            <AltitudeMeters>645.20001220703125</AltitudeMeters>
            <DistanceMeters>NAN</DistanceMeters>
          </Trackpoint>
          <Trackpoint>
            <Time>2021-04-03T09:18:01.000Z</Time>
            <Position>
              <LatitudeDegrees>42.29832015931606292724609375</LatitudeDegrees>
              <LongitudeDegrees>2.5642902217805385589599609375</LongitudeDegrees>
            </Position>
            <AltitudeMeters>645.20001220703125</AltitudeMeters>
            <DistanceMeters>NAN</DistanceMeters>
          </Trackpoint>
          <Trackpoint>
            <Time>2021-04-03T09:18:07.000Z</Time>
            <Position>
              <LatitudeDegrees>42.29831211268901824951171875</LatitudeDegrees>
              <LongitudeDegrees>2.56420187652111053466796875</LongitudeDegrees>
            </Position>
            <AltitudeMeters>644.4000244140625</AltitudeMeters>
            <DistanceMeters>NAN</DistanceMeters>
          </Trackpoint>
          <Trackpoint>
            <Time>2021-04-03T09:18:10.000Z</Time>
            <Position>
              <LatitudeDegrees>42.29830917902290821075439453125</LatitudeDegrees>
              <LongitudeDegrees>2.5641400180757045745849609375</LongitudeDegrees>
            </Position>
            <AltitudeMeters>644.20001220703125</AltitudeMeters>
            <DistanceMeters>NAN</DistanceMeters>
          </Trackpoint>
          <Trackpoint>
            <Time>2021-04-03T09:18:11.000Z</Time>
            <Position>
              <LatitudeDegrees>42.29830943048000335693359375</LatitudeDegrees>
              <LongitudeDegrees>2.5641249306499958038330078125</LongitudeDegrees>
            </Position>
            <AltitudeMeters>644</AltitudeMeters>
            <DistanceMeters>NAN</DistanceMeters>
          </Trackpoint>
          <Trackpoint>
            <Time>2021-04-03T09:18:12.000Z</Time>
            <Position>
              <LatitudeDegrees>42.29830917902290821075439453125</LatitudeDegrees>
              <LongitudeDegrees>2.5641105137765407562255859375</LongitudeDegrees>
            </Position>
            <AltitudeMeters>643.79998779296875</AltitudeMeters>
            <DistanceMeters>NAN</DistanceMeters>
          </Trackpoint>
          <Trackpoint>
            <Time>2021-04-03T09:18:13.000Z</Time>
            <Position>
              <LatitudeDegrees>42.29830515570938587188720703125</LatitudeDegrees>
              <LongitudeDegrees>2.56409416906535625457763671875</LongitudeDegrees>
            </Position>
            <AltitudeMeters>643.79998779296875</AltitudeMeters>
            <DistanceMeters>NAN</DistanceMeters>
          </Trackpoint>
          <Trackpoint>
            <Time>2021-04-03T09:18:15.000Z</Time>
            <Position>
              <LatitudeDegrees>42.29831152595579624176025390625</LatitudeDegrees>
              <LongitudeDegrees>2.56406248547136783599853515625</LongitudeDegrees>
            </Position>
            <AltitudeMeters>643.5999755859375</AltitudeMeters>
            <DistanceMeters>NAN</DistanceMeters>
          </Trackpoint>
          <Trackpoint>
            <Time>2021-04-03T09:18:18.000Z</Time>
            <Position>
              <LatitudeDegrees>42.298323847353458404541015625</LatitudeDegrees>
              <LongitudeDegrees>2.56401487626135349273681640625</LongitudeDegrees>
            </Position>
            <AltitudeMeters>643.4000244140625</AltitudeMeters>
            <DistanceMeters>NAN</DistanceMeters>
          </Trackpoint>
          <Trackpoint>
            <Time>2021-04-03T09:18:27.000Z</Time>
            <Position>
              <LatitudeDegrees>42.2983112744987010955810546875</LatitudeDegrees>
              <LongitudeDegrees>2.56385587155818939208984375</LongitudeDegrees>
            </Position>
            <AltitudeMeters>643.4000244140625</AltitudeMeters>
            <DistanceMeters>NAN</DistanceMeters>
          </Trackpoint>
          <Trackpoint>
            <Time>2021-04-03T09:18:31.000Z</Time>
            <Position>
              <LatitudeDegrees>42.29833315126597881317138671875</LatitudeDegrees>
              <LongitudeDegrees>2.56381086073815822601318359375</LongitudeDegrees>
            </Position>
            <AltitudeMeters>643</AltitudeMeters>
            <DistanceMeters>NAN</DistanceMeters>
          </Trackpoint>
          <Trackpoint>
            <Time>2021-04-03T09:18:33.000Z</Time>
            <Position>
              <LatitudeDegrees>42.298345305025577545166015625</LatitudeDegrees>
              <LongitudeDegrees>2.56379158236086368560791015625</LongitudeDegrees>
            </Position>
            <AltitudeMeters>643</AltitudeMeters>
            <DistanceMeters>NAN</DistanceMeters>
          </Trackpoint>
          <Trackpoint>
            <Time>2021-04-03T09:18:36.000Z</Time>
            <Position>
              <LatitudeDegrees>42.29836684651672840118408203125</LatitudeDegrees>
              <LongitudeDegrees>2.563754953444004058837890625</LongitudeDegrees>
            </Position>
            <AltitudeMeters>642.79998779296875</AltitudeMeters>
            <DistanceMeters>NAN</DistanceMeters>
          </Trackpoint>
          <Trackpoint>
            <Time>2021-04-03T09:18:38.000Z</Time>
            <Position>
              <LatitudeDegrees>42.2983783297240734100341796875</LatitudeDegrees>
              <LongitudeDegrees>2.56373324431478977203369140625</LongitudeDegrees>
            </Position>
            <AltitudeMeters>642.79998779296875</AltitudeMeters>
            <DistanceMeters>NAN</DistanceMeters>
          </Trackpoint>
          <Trackpoint>
            <Time>2021-04-03T09:18:39.000Z</Time>
            <Position>
              <LatitudeDegrees>42.298380844295024871826171875</LatitudeDegrees>
              <LongitudeDegrees>2.56372117437422275543212890625</LongitudeDegrees>
            </Position>
            <AltitudeMeters>642.79998779296875</AltitudeMeters>
            <DistanceMeters>NAN</DistanceMeters>
          </Trackpoint>
          <Trackpoint>
            <Time>2021-04-03T09:18:43.000Z</Time>
            <Position>
              <LatitudeDegrees>42.29838293977081775665283203125</LatitudeDegrees>
              <LongitudeDegrees>2.563641630113124847412109375</LongitudeDegrees>
            </Position>
            <AltitudeMeters>642.20001220703125</AltitudeMeters>
            <DistanceMeters>NAN</DistanceMeters>
          </Trackpoint>
          <Trackpoint>
            <Time>2021-04-03T09:18:46.000Z</Time>
            <Position>
              <LatitudeDegrees>42.29839534498751163482666015625</LatitudeDegrees>
              <LongitudeDegrees>2.56360709667205810546875</LongitudeDegrees>
            </Position>
            <AltitudeMeters>641.79998779296875</AltitudeMeters>
            <DistanceMeters>NAN</DistanceMeters>
          </Trackpoint>
          <Trackpoint>
            <Time>2021-04-03T09:18:48.000Z</Time>
            <Position>
              <LatitudeDegrees>42.29839098639786243438720703125</LatitudeDegrees>
              <LongitudeDegrees>2.56358270533382892608642578125</LongitudeDegrees>
            </Position>
            <AltitudeMeters>641.5999755859375</AltitudeMeters>
            <DistanceMeters>NAN</DistanceMeters>
          </Trackpoint>
          <Trackpoint>
            <Time>2021-04-03T09:18:49.000Z</Time>
            <Position>
              <LatitudeDegrees>42.2983914054930210113525390625</LatitudeDegrees>
              <LongitudeDegrees>2.56356862373650074005126953125</LongitudeDegrees>
            </Position>
            <AltitudeMeters>641.5999755859375</AltitudeMeters>
            <DistanceMeters>NAN</DistanceMeters>
          </Trackpoint>
          <Trackpoint>
            <Time>2021-04-03T09:18:50.000Z</Time>
            <Position>
              <LatitudeDegrees>42.29839417152106761932373046875</LatitudeDegrees>
              <LongitudeDegrees>2.56355487741529941558837890625</LongitudeDegrees>
            </Position>
            <AltitudeMeters>641.4000244140625</AltitudeMeters>
            <DistanceMeters>NAN</DistanceMeters>
          </Trackpoint>
          <Trackpoint>
            <Time>2021-04-03T09:18:51.000Z</Time>
            <Position>
              <LatitudeDegrees>42.29840137995779514312744140625</LatitudeDegrees>
              <LongitudeDegrees>2.5635385327041149139404296875</LongitudeDegrees>
            </Position>
            <AltitudeMeters>641.4000244140625</AltitudeMeters>
            <DistanceMeters>NAN</DistanceMeters>
          </Trackpoint>
          <Trackpoint>
            <Time>2021-04-03T09:18:52.000Z</Time>
            <Position>
              <LatitudeDegrees>42.29840557090938091278076171875</LatitudeDegrees>
              <LongitudeDegrees>2.56351967342197895050048828125</LongitudeDegrees>
            </Position>
            <AltitudeMeters>641.20001220703125</AltitudeMeters>
            <DistanceMeters>NAN</DistanceMeters>
          </Trackpoint>
          <Trackpoint>
            <Time>2021-04-03T09:18:56.000Z</Time>
            <Position>
              <LatitudeDegrees>42.29842652566730976104736328125</LatitudeDegrees>
              <LongitudeDegrees>2.563459910452365875244140625</LongitudeDegrees>
            </Position>
            <AltitudeMeters>640.5999755859375</AltitudeMeters>
            <DistanceMeters>NAN</DistanceMeters>
          </Trackpoint>
          <Trackpoint>
            <Time>2021-04-03T09:19:01.000Z</Time>
            <Position>
              <LatitudeDegrees>42.29842266999185085296630859375</LatitudeDegrees>
              <LongitudeDegrees>2.56338824518024921417236328125</LongitudeDegrees>
            </Position>
            <AltitudeMeters>640.20001220703125</AltitudeMeters>
            <DistanceMeters>NAN</DistanceMeters>
          </Trackpoint>
          <Trackpoint>
            <Time>2021-04-03T09:19:06.000Z</Time>
            <Position>
              <LatitudeDegrees>42.29842535220086574554443359375</LatitudeDegrees>
              <LongitudeDegrees>2.5633189268410205841064453125</LongitudeDegrees>
            </Position>
            <AltitudeMeters>639.5999755859375</AltitudeMeters>
            <DistanceMeters>NAN</DistanceMeters>
          </Trackpoint>
          <Trackpoint>
            <Time>2021-04-03T09:19:07.000Z</Time>
            <Position>
              <LatitudeDegrees>42.2984254360198974609375</LatitudeDegrees>
              <LongitudeDegrees>2.563309371471405029296875</LongitudeDegrees>
            </Position>
            <AltitudeMeters>639.4000244140625</AltitudeMeters>
            <DistanceMeters>NAN</DistanceMeters>
          </Trackpoint>
          <Trackpoint>
            <Time>2021-04-03T09:19:14.000Z</Time>
            <Position>
              <LatitudeDegrees>42.29844496585428714752197265625</LatitudeDegrees>
              <LongitudeDegrees>2.563227899372577667236328125</LongitudeDegrees>
            </Position>
            <AltitudeMeters>638.4000244140625</AltitudeMeters>
            <DistanceMeters>NAN</DistanceMeters>
          </Trackpoint>
          <Trackpoint>
            <Time>2021-04-03T09:19:20.000Z</Time>
            <Position>
              <LatitudeDegrees>42.2984589636325836181640625</LatitudeDegrees>
              <LongitudeDegrees>2.563188336789608001708984375</LongitudeDegrees>
            </Position>
            <AltitudeMeters>637.79998779296875</AltitudeMeters>
            <DistanceMeters>NAN</DistanceMeters>
          </Trackpoint>
          <Trackpoint>
            <Time>2021-04-03T09:19:22.000Z</Time>
            <Position>
              <LatitudeDegrees>42.29844848625361919403076171875</LatitudeDegrees>
              <LongitudeDegrees>2.56317635066807270050048828125</LongitudeDegrees>
            </Position>
            <AltitudeMeters>637.4000244140625</AltitudeMeters>
            <DistanceMeters>NAN</DistanceMeters>
          </Trackpoint>
          <Trackpoint>
            <Time>2021-04-03T09:19:25.000Z</Time>
            <Position>
              <LatitudeDegrees>42.29844085872173309326171875</LatitudeDegrees>
              <LongitudeDegrees>2.56317903287708759307861328125</LongitudeDegrees>
            </Position>
            <AltitudeMeters>636.79998779296875</AltitudeMeters>
            <DistanceMeters>NAN</DistanceMeters>
          </Trackpoint>
          <Trackpoint>
            <Time>2021-04-03T09:19:26.000Z</Time>
            <Position>
              <LatitudeDegrees>42.298433147370815277099609375</LatitudeDegrees>
              <LongitudeDegrees>2.56318557076156139373779296875</LongitudeDegrees>
            </Position>
            <AltitudeMeters>636.5999755859375</AltitudeMeters>
            <DistanceMeters>NAN</DistanceMeters>
          </Trackpoint>
          <Trackpoint>
            <Time>2021-04-03T09:19:28.000Z</Time>
            <Position>
              <LatitudeDegrees>42.29841931723058223724365234375</LatitudeDegrees>
              <LongitudeDegrees>2.56319579668343067169189453125</LongitudeDegrees>
            </Position>
            <AltitudeMeters>636.20001220703125</AltitudeMeters>
            <DistanceMeters>NAN</DistanceMeters>
          </Trackpoint>
          <Trackpoint>
            <Time>2021-04-03T09:19:30.000Z</Time>
            <Position>
              <LatitudeDegrees>42.29840330779552459716796875</LatitudeDegrees>
              <LongitudeDegrees>2.56321004591882228851318359375</LongitudeDegrees>
            </Position>
            <AltitudeMeters>635.79998779296875</AltitudeMeters>
            <DistanceMeters>NAN</DistanceMeters>
          </Trackpoint>
          <Trackpoint>
            <Time>2021-04-03T09:19:33.000Z</Time>
            <Position>
              <LatitudeDegrees>42.2983944229781627655029296875</LatitudeDegrees>
              <LongitudeDegrees>2.56319160573184490203857421875</LongitudeDegrees>
            </Position>
            <AltitudeMeters>635.20001220703125</AltitudeMeters>
            <DistanceMeters>NAN</DistanceMeters>
          </Trackpoint>
          <Trackpoint>
            <Time>2021-04-03T09:19:35.000Z</Time>
            <Position>
              <LatitudeDegrees>42.29839132167398929595947265625</LatitudeDegrees>
              <LongitudeDegrees>2.56317551247775554656982421875</LongitudeDegrees>
            </Position>
            <AltitudeMeters>635.20001220703125</AltitudeMeters>
            <DistanceMeters>NAN</DistanceMeters>
          </Trackpoint>
          <Trackpoint>
            <Time>2021-04-03T09:19:36.000Z</Time>
            <Position>
              <LatitudeDegrees>42.2983920760452747344970703125</LatitudeDegrees>
              <LongitudeDegrees>2.5631680525839328765869140625</LongitudeDegrees>
            </Position>
            <AltitudeMeters>635</AltitudeMeters>
            <DistanceMeters>NAN</DistanceMeters>
          </Trackpoint>
          <Trackpoint>
            <Time>2021-04-03T09:19:39.000Z</Time>
            <Position>
              <LatitudeDegrees>42.298406325280666351318359375</LatitudeDegrees>
              <LongitudeDegrees>2.56313444115221500396728515625</LongitudeDegrees>
            </Position>
            <AltitudeMeters>634.79998779296875</AltitudeMeters>
            <DistanceMeters>NAN</DistanceMeters>
          </Trackpoint>
          <Trackpoint>
            <Time>2021-04-03T09:19:40.000Z</Time>
            <Position>
              <LatitudeDegrees>42.29840707965195178985595703125</LatitudeDegrees>
              <LongitudeDegrees>2.563126645982265472412109375</LongitudeDegrees>
            </Position>
            <AltitudeMeters>634.5999755859375</AltitudeMeters>
            <DistanceMeters>NAN</DistanceMeters>
          </Trackpoint>
          <Trackpoint>
            <Time>2021-04-03T09:19:45.000Z</Time>
            <Position>
              <LatitudeDegrees>42.29843004606664180755615234375</LatitudeDegrees>
              <LongitudeDegrees>2.5630724988877773284912109375</LongitudeDegrees>
            </Position>
            <AltitudeMeters>634</AltitudeMeters>
            <DistanceMeters>NAN</DistanceMeters>
          </Trackpoint>
          <Trackpoint>
            <Time>2021-04-03T09:19:46.000Z</Time>
            <Position>
              <LatitudeDegrees>42.2984319739043712615966796875</LatitudeDegrees>
              <LongitudeDegrees>2.5630584172904491424560546875</LongitudeDegrees>
            </Position>
            <AltitudeMeters>633.79998779296875</AltitudeMeters>
            <DistanceMeters>NAN</DistanceMeters>
          </Trackpoint>
          <Trackpoint>
            <Time>2021-04-03T09:19:52.000Z</Time>
            <Position>
              <LatitudeDegrees>42.2984530963003635406494140625</LatitudeDegrees>
              <LongitudeDegrees>2.56298088468611240386962890625</LongitudeDegrees>
            </Position>
            <AltitudeMeters>633</AltitudeMeters>
            <DistanceMeters>NAN</DistanceMeters>
          </Trackpoint>
          <Trackpoint>
            <Time>2021-04-03T09:19:53.000Z</Time>
            <Position>
              <LatitudeDegrees>42.29845804162323474884033203125</LatitudeDegrees>
              <LongitudeDegrees>2.5629705749452114105224609375</LongitudeDegrees>
            </Position>
            <AltitudeMeters>632.79998779296875</AltitudeMeters>
            <DistanceMeters>NAN</DistanceMeters>
          </Trackpoint>
          <Trackpoint>
            <Time>2021-04-03T09:19:54.000Z</Time>
            <Position>
              <LatitudeDegrees>42.2984641604125499725341796875</LatitudeDegrees>
              <LongitudeDegrees>2.56296043284237384796142578125</LongitudeDegrees>
            </Position>
            <AltitudeMeters>632.5999755859375</AltitudeMeters>
            <DistanceMeters>NAN</DistanceMeters>
          </Trackpoint>
          <Trackpoint>
            <Time>2021-04-03T09:19:55.000Z</Time>
            <Position>
              <LatitudeDegrees>42.2984708659350872039794921875</LatitudeDegrees>
              <LongitudeDegrees>2.56295054219663143157958984375</LongitudeDegrees>
            </Position>
            <AltitudeMeters>632.4000244140625</AltitudeMeters>
            <DistanceMeters>NAN</DistanceMeters>
          </Trackpoint>
          <Trackpoint>
            <Time>2021-04-03T09:19:58.000Z</Time>
            <Position>
              <LatitudeDegrees>42.29849441908299922943115234375</LatitudeDegrees>
              <LongitudeDegrees>2.56292992271482944488525390625</LongitudeDegrees>
            </Position>
            <AltitudeMeters>632</AltitudeMeters>
            <DistanceMeters>NAN</DistanceMeters>
          </Trackpoint>
          <Trackpoint>
            <Time>2021-04-03T09:20:00.000Z</Time>
            <Position>
              <LatitudeDegrees>42.29851101525127887725830078125</LatitudeDegrees>
              <LongitudeDegrees>2.56291617639362812042236328125</LongitudeDegrees>
            </Position>
            <AltitudeMeters>631.79998779296875</AltitudeMeters>
            <DistanceMeters>NAN</DistanceMeters>
          </Trackpoint>
          <Trackpoint>
            <Time>2021-04-03T09:20:01.000Z</Time>
            <Position>
              <LatitudeDegrees>42.298517636954784393310546875</LatitudeDegrees>
              <LongitudeDegrees>2.56290435791015625</LongitudeDegrees>
            </Position>
            <AltitudeMeters>631.5999755859375</AltitudeMeters>
            <DistanceMeters>NAN</DistanceMeters>
          </Trackpoint>
          <Trackpoint>
            <Time>2021-04-03T09:20:04.000Z</Time>
            <Position>
              <LatitudeDegrees>42.298537082970142364501953125</LatitudeDegrees>
              <LongitudeDegrees>2.5628723390400409698486328125</LongitudeDegrees>
            </Position>
            <AltitudeMeters>631.4000244140625</AltitudeMeters>
            <DistanceMeters>NAN</DistanceMeters>
          </Trackpoint>
          <Trackpoint>
            <Time>2021-04-03T09:20:05.000Z</Time>
            <Position>
              <LatitudeDegrees>42.29854219593107700347900390625</LatitudeDegrees>
              <LongitudeDegrees>2.56286337040364742279052734375</LongitudeDegrees>
            </Position>
            <AltitudeMeters>631.4000244140625</AltitudeMeters>
            <DistanceMeters>NAN</DistanceMeters>
          </Trackpoint>
          <Trackpoint>
            <Time>2021-04-03T09:20:07.000Z</Time>
            <Position>
              <LatitudeDegrees>42.298545129597187042236328125</LatitudeDegrees>
              <LongitudeDegrees>2.56283788941800594329833984375</LongitudeDegrees>
            </Position>
            <AltitudeMeters>631.20001220703125</AltitudeMeters>
            <DistanceMeters>NAN</DistanceMeters>
          </Trackpoint>
          <Trackpoint>
            <Time>2021-04-03T09:20:09.000Z</Time>
            <Position>
              <LatitudeDegrees>42.29855954647064208984375</LatitudeDegrees>
              <LongitudeDegrees>2.5628129951655864715576171875</LongitudeDegrees>
            </Position>
            <AltitudeMeters>630.5999755859375</AltitudeMeters>
            <DistanceMeters>NAN</DistanceMeters>
          </Trackpoint>
          <Trackpoint>
            <Time>2021-04-03T09:20:12.000Z</Time>
            <Position>
              <LatitudeDegrees>42.298580668866634368896484375</LatitudeDegrees>
              <LongitudeDegrees>2.56277586333453655242919921875</LongitudeDegrees>
            </Position>
            <AltitudeMeters>629.79998779296875</AltitudeMeters>
            <DistanceMeters>NAN</DistanceMeters>
          </Trackpoint>
          <Trackpoint>
            <Time>2021-04-03T09:20:14.000Z</Time>
            <Position>
              <LatitudeDegrees>42.298602126538753509521484375</LatitudeDegrees>
              <LongitudeDegrees>2.562759853899478912353515625</LongitudeDegrees>
            </Position>
            <AltitudeMeters>629.4000244140625</AltitudeMeters>
            <DistanceMeters>NAN</DistanceMeters>
          </Trackpoint>
          <Trackpoint>
            <Time>2021-04-03T09:20:15.000Z</Time>
            <Position>
              <LatitudeDegrees>42.29860723949968814849853515625</LatitudeDegrees>
              <LongitudeDegrees>2.562745772302150726318359375</LongitudeDegrees>
            </Position>
            <AltitudeMeters>629.20001220703125</AltitudeMeters>
            <DistanceMeters>NAN</DistanceMeters>
          </Trackpoint>
          <Trackpoint>
            <Time>2021-04-03T09:20:17.000Z</Time>
            <Position>
              <LatitudeDegrees>42.29861763305962085723876953125</LatitudeDegrees>
              <LongitudeDegrees>2.5627097301185131072998046875</LongitudeDegrees>
            </Position>
            <AltitudeMeters>629</AltitudeMeters>
            <DistanceMeters>NAN</DistanceMeters>
          </Trackpoint>
          <Trackpoint>
            <Time>2021-04-03T09:20:22.000Z</Time>
            <Position>
              <LatitudeDegrees>42.29863758198916912078857421875</LatitudeDegrees>
              <LongitudeDegrees>2.56261660717427730560302734375</LongitudeDegrees>
            </Position>
            <AltitudeMeters>628.4000244140625</AltitudeMeters>
            <DistanceMeters>NAN</DistanceMeters>
          </Trackpoint>
          <Trackpoint>
            <Time>2021-04-03T09:20:24.000Z</Time>
            <Position>
              <LatitudeDegrees>42.29866289533674716949462890625</LatitudeDegrees>
              <LongitudeDegrees>2.5625833310186862945556640625</LongitudeDegrees>
            </Position>
            <AltitudeMeters>628.4000244140625</AltitudeMeters>
            <DistanceMeters>NAN</DistanceMeters>
          </Trackpoint>
          <Trackpoint>
            <Time>2021-04-03T09:20:25.000Z</Time>
            <Position>
              <LatitudeDegrees>42.2986757196485996246337890625</LatitudeDegrees>
              <LongitudeDegrees>2.5625705905258655548095703125</LongitudeDegrees>
            </Position>
            <AltitudeMeters>628.20001220703125</AltitudeMeters>
            <DistanceMeters>NAN</DistanceMeters>
          </Trackpoint>
          <Trackpoint>
            <Time>2021-04-03T09:20:27.000Z</Time>
            <Position>
              <LatitudeDegrees>42.2986918129026889801025390625</LatitudeDegrees>
              <LongitudeDegrees>2.56253756582736968994140625</LongitudeDegrees>
            </Position>
            <AltitudeMeters>628</AltitudeMeters>
            <DistanceMeters>NAN</DistanceMeters>
          </Trackpoint>
          <Trackpoint>
            <Time>2021-04-03T09:20:30.000Z</Time>
            <Position>
              <LatitudeDegrees>42.29871201328933238983154296875</LatitudeDegrees>
              <LongitudeDegrees>2.56249423138797283172607421875</LongitudeDegrees>
            </Position>
            <AltitudeMeters>627.79998779296875</AltitudeMeters>
            <DistanceMeters>NAN</DistanceMeters>
          </Trackpoint>
          <Trackpoint>
            <Time>2021-04-03T09:20:32.000Z</Time>
            <Position>
              <LatitudeDegrees>42.29871151037514209747314453125</LatitudeDegrees>
              <LongitudeDegrees>2.56246238015592098236083984375</LongitudeDegrees>
            </Position>
            <AltitudeMeters>627.5999755859375</AltitudeMeters>
            <DistanceMeters>NAN</DistanceMeters>
          </Trackpoint>
          <Trackpoint>
            <Time>2021-04-03T09:20:33.000Z</Time>
            <Position>
              <LatitudeDegrees>42.2987169586122035980224609375</LatitudeDegrees>
              <LongitudeDegrees>2.56244637072086334228515625</LongitudeDegrees>
            </Position>
            <AltitudeMeters>627.4000244140625</AltitudeMeters>
            <DistanceMeters>NAN</DistanceMeters>
          </Trackpoint>
          <Trackpoint>
            <Time>2021-04-03T09:20:36.000Z</Time>
            <Position>
              <LatitudeDegrees>42.29873992502689361572265625</LatitudeDegrees>
              <LongitudeDegrees>2.5624146871268749237060546875</LongitudeDegrees>
            </Position>
            <AltitudeMeters>627.4000244140625</AltitudeMeters>
            <DistanceMeters>NAN</DistanceMeters>
          </Trackpoint>
          <Trackpoint>
            <Time>2021-04-03T09:20:37.000Z</Time>
            <Position>
              <LatitudeDegrees>42.29875065386295318603515625</LatitudeDegrees>
              <LongitudeDegrees>2.56240747869014739990234375</LongitudeDegrees>
            </Position>
            <AltitudeMeters>627.4000244140625</AltitudeMeters>
            <DistanceMeters>NAN</DistanceMeters>
          </Trackpoint>
          <Trackpoint>
            <Time>2021-04-03T09:20:39.000Z</Time>
            <Position>
              <LatitudeDegrees>42.2987659089267253875732421875</LatitudeDegrees>
              <LongitudeDegrees>2.56239951588213443756103515625</LongitudeDegrees>
            </Position>
            <AltitudeMeters>627.20001220703125</AltitudeMeters>
            <DistanceMeters>NAN</DistanceMeters>
          </Trackpoint>
          <Trackpoint>
            <Time>2021-04-03T09:20:42.000Z</Time>
            <Position>
              <LatitudeDegrees>42.29879088699817657470703125</LatitudeDegrees>
              <LongitudeDegrees>2.56237068213522434234619140625</LongitudeDegrees>
            </Position>
            <AltitudeMeters>627.20001220703125</AltitudeMeters>
            <DistanceMeters>NAN</DistanceMeters>
          </Trackpoint>
          <Trackpoint>
            <Time>2021-04-03T09:20:44.000Z</Time>
            <Position>
              <LatitudeDegrees>42.29880354367196559906005859375</LatitudeDegrees>
              <LongitudeDegrees>2.5623365677893161773681640625</LongitudeDegrees>
            </Position>
            <AltitudeMeters>627.20001220703125</AltitudeMeters>
            <DistanceMeters>NAN</DistanceMeters>
          </Trackpoint>
          <Trackpoint>
            <Time>2021-04-03T09:20:47.000Z</Time>
            <Position>
              <LatitudeDegrees>42.29884193278849124908447265625</LatitudeDegrees>
              <LongitudeDegrees>2.56229189224541187286376953125</LongitudeDegrees>
            </Position>
            <AltitudeMeters>626.79998779296875</AltitudeMeters>
            <DistanceMeters>NAN</DistanceMeters>
          </Trackpoint>
          <Trackpoint>
            <Time>2021-04-03T09:20:48.000Z</Time>
            <Position>
              <LatitudeDegrees>42.29884453117847442626953125</LatitudeDegrees>
              <LongitudeDegrees>2.562277726829051971435546875</LongitudeDegrees>
            </Position>
            <AltitudeMeters>626.79998779296875</AltitudeMeters>
            <DistanceMeters>NAN</DistanceMeters>
          </Trackpoint>
          <Trackpoint>
            <Time>2021-04-03T09:20:52.000Z</Time>
            <Position>
              <LatitudeDegrees>42.29886439628899097442626953125</LatitudeDegrees>
              <LongitudeDegrees>2.56221947260200977325439453125</LongitudeDegrees>
            </Position>
            <AltitudeMeters>626.20001220703125</AltitudeMeters>
            <DistanceMeters>NAN</DistanceMeters>
          </Trackpoint>
          <Trackpoint>
            <Time>2021-04-03T09:20:53.000Z</Time>
            <Position>
              <LatitudeDegrees>42.29887194000184535980224609375</LatitudeDegrees>
              <LongitudeDegrees>2.56221326999366283416748046875</LongitudeDegrees>
            </Position>
            <AltitudeMeters>626</AltitudeMeters>
            <DistanceMeters>NAN</DistanceMeters>
          </Trackpoint>
          <Trackpoint>
            <Time>2021-04-03T09:20:58.000Z</Time>
            <Position>
              <LatitudeDegrees>42.29892994277179241180419921875</LatitudeDegrees>
              <LongitudeDegrees>2.5621706061065196990966796875</LongitudeDegrees>
            </Position>
            <AltitudeMeters>626</AltitudeMeters>
            <DistanceMeters>NAN</DistanceMeters>
          </Trackpoint>
          <Trackpoint>
            <Time>2021-04-03T09:21:00.000Z</Time>
            <Position>
              <LatitudeDegrees>42.29895114898681640625</LatitudeDegrees>
              <LongitudeDegrees>2.5621602125465869903564453125</LongitudeDegrees>
            </Position>
            <AltitudeMeters>625.79998779296875</AltitudeMeters>
            <DistanceMeters>NAN</DistanceMeters>
          </Trackpoint>
          <Trackpoint>
            <Time>2021-04-03T09:21:01.000Z</Time>
            <Position>
              <LatitudeDegrees>42.29895777069032192230224609375</LatitudeDegrees>
              <LongitudeDegrees>2.56215241737663745880126953125</LongitudeDegrees>
            </Position>
            <AltitudeMeters>625.79998779296875</AltitudeMeters>
            <DistanceMeters>NAN</DistanceMeters>
          </Trackpoint>
          <Trackpoint>
            <Time>2021-04-03T09:21:04.000Z</Time>
            <Position>
              <LatitudeDegrees>42.29897000826895236968994140625</LatitudeDegrees>
              <LongitudeDegrees>2.56212475709617137908935546875</LongitudeDegrees>
            </Position>
            <AltitudeMeters>625.79998779296875</AltitudeMeters>
            <DistanceMeters>NAN</DistanceMeters>
          </Trackpoint>
          <Trackpoint>
            <Time>2021-04-03T09:21:06.000Z</Time>
            <Position>
              <LatitudeDegrees>42.29897151701152324676513671875</LatitudeDegrees>
              <LongitudeDegrees>2.562090642750263214111328125</LongitudeDegrees>
            </Position>
            <AltitudeMeters>625.5999755859375</AltitudeMeters>
            <DistanceMeters>NAN</DistanceMeters>
          </Trackpoint>
          <Trackpoint>
            <Time>2021-04-03T09:21:08.000Z</Time>
            <Position>
              <LatitudeDegrees>42.29897101409733295440673828125</LatitudeDegrees>
              <LongitudeDegrees>2.56205736659467220306396484375</LongitudeDegrees>
            </Position>
            <AltitudeMeters>625.20001220703125</AltitudeMeters>
            <DistanceMeters>NAN</DistanceMeters>
          </Trackpoint>
          <Trackpoint>
            <Time>2021-04-03T09:21:10.000Z</Time>
            <Position>
              <LatitudeDegrees>42.29897067882120609283447265625</LatitudeDegrees>
              <LongitudeDegrees>2.56203138269484043121337890625</LongitudeDegrees>
            </Position>
            <AltitudeMeters>624.79998779296875</AltitudeMeters>
            <DistanceMeters>NAN</DistanceMeters>
          </Trackpoint>
          <Trackpoint>
            <Time>2021-04-03T09:21:12.000Z</Time>
            <Position>
              <LatitudeDegrees>42.29897218756377696990966796875</LatitudeDegrees>
              <LongitudeDegrees>2.56201126612722873687744140625</LongitudeDegrees>
            </Position>
            <AltitudeMeters>624.5999755859375</AltitudeMeters>
            <DistanceMeters>NAN</DistanceMeters>
          </Trackpoint>
          <Trackpoint>
            <Time>2021-04-03T09:21:14.000Z</Time>
            <Position>
              <LatitudeDegrees>42.29896900244057178497314453125</LatitudeDegrees>
              <LongitudeDegrees>2.56199466995894908905029296875</LongitudeDegrees>
            </Position>
            <AltitudeMeters>624</AltitudeMeters>
            <DistanceMeters>NAN</DistanceMeters>
          </Trackpoint>
          <Trackpoint>
            <Time>2021-04-03T09:21:16.000Z</Time>
            <Position>
              <LatitudeDegrees>42.29897989891469478607177734375</LatitudeDegrees>
              <LongitudeDegrees>2.5619811750948429107666015625</LongitudeDegrees>
            </Position>
            <AltitudeMeters>623.5999755859375</AltitudeMeters>
            <DistanceMeters>NAN</DistanceMeters>
          </Trackpoint>
          <Trackpoint>
            <Time>2021-04-03T09:21:17.000Z</Time>
            <Position>
              <LatitudeDegrees>42.2989855147898197174072265625</LatitudeDegrees>
              <LongitudeDegrees>2.5619794987142086029052734375</LongitudeDegrees>
            </Position>
            <AltitudeMeters>623.4000244140625</AltitudeMeters>
            <DistanceMeters>NAN</DistanceMeters>
          </Trackpoint>
          <Trackpoint>
            <Time>2021-04-03T09:21:18.000Z</Time>
            <Position>
              <LatitudeDegrees>42.2989927232265472412109375</LatitudeDegrees>
              <LongitudeDegrees>2.5619684346020221710205078125</LongitudeDegrees>
            </Position>
            <AltitudeMeters>623.20001220703125</AltitudeMeters>
            <DistanceMeters>NAN</DistanceMeters>
          </Trackpoint>
          <Trackpoint>
            <Time>2021-04-03T09:21:20.000Z</Time>
            <Position>
              <LatitudeDegrees>42.29902021586894989013671875</LatitudeDegrees>
              <LongitudeDegrees>2.561951167881488800048828125</LongitudeDegrees>
            </Position>
            <AltitudeMeters>623</AltitudeMeters>
            <DistanceMeters>NAN</DistanceMeters>
          </Trackpoint>
          <Trackpoint>
            <Time>2021-04-03T09:21:23.000Z</Time>
            <Position>
              <LatitudeDegrees>42.2990436851978302001953125</LatitudeDegrees>
              <LongitudeDegrees>2.56192945875227451324462890625</LongitudeDegrees>
            </Position>
            <AltitudeMeters>622.20001220703125</AltitudeMeters>
            <DistanceMeters>NAN</DistanceMeters>
          </Trackpoint>
          <Trackpoint>
            <Time>2021-04-03T09:21:24.000Z</Time>
            <Position>
              <LatitudeDegrees>42.2990529052913188934326171875</LatitudeDegrees>
              <LongitudeDegrees>2.56191638298332691192626953125</LongitudeDegrees>
            </Position>
            <AltitudeMeters>622</AltitudeMeters>
            <DistanceMeters>NAN</DistanceMeters>
          </Trackpoint>
          <Trackpoint>
            <Time>2021-04-03T09:21:28.000Z</Time>
            <Position>
              <LatitudeDegrees>42.2990723513066768646240234375</LatitudeDegrees>
              <LongitudeDegrees>2.56186123006045818328857421875</LongitudeDegrees>
            </Position>
            <AltitudeMeters>621.79998779296875</AltitudeMeters>
            <DistanceMeters>NAN</DistanceMeters>
          </Trackpoint>
          <Trackpoint>
            <Time>2021-04-03T09:21:29.000Z</Time>
            <Position>
              <LatitudeDegrees>42.29906908236443996429443359375</LatitudeDegrees>
              <LongitudeDegrees>2.56184614263474941253662109375</LongitudeDegrees>
            </Position>
            <AltitudeMeters>621.5999755859375</AltitudeMeters>
            <DistanceMeters>NAN</DistanceMeters>
          </Trackpoint>
          <Trackpoint>
            <Time>2021-04-03T09:21:33.000Z</Time>
            <Position>
              <LatitudeDegrees>42.2990619577467441558837890625</LatitudeDegrees>
              <LongitudeDegrees>2.5617738068103790283203125</LongitudeDegrees>
            </Position>
            <AltitudeMeters>621</AltitudeMeters>
            <DistanceMeters>NAN</DistanceMeters>
          </Trackpoint>
          <Trackpoint>
            <Time>2021-04-03T09:21:34.000Z</Time>
            <Position>
              <LatitudeDegrees>42.2990710102021694183349609375</LatitudeDegrees>
              <LongitudeDegrees>2.56176768802106380462646484375</LongitudeDegrees>
            </Position>
            <AltitudeMeters>620.79998779296875</AltitudeMeters>
            <DistanceMeters>NAN</DistanceMeters>
          </Trackpoint>
          <Trackpoint>
            <Time>2021-04-03T09:21:35.000Z</Time>
            <Position>
              <LatitudeDegrees>42.29908014647662639617919921875</LatitudeDegrees>
              <LongitudeDegrees>2.5617595575749874114990234375</LongitudeDegrees>
            </Position>
            <AltitudeMeters>620.5999755859375</AltitudeMeters>
            <DistanceMeters>NAN</DistanceMeters>
          </Trackpoint>
          <Trackpoint>
            <Time>2021-04-03T09:21:37.000Z</Time>
            <Position>
              <LatitudeDegrees>42.299101017415523529052734375</LatitudeDegrees>
              <LongitudeDegrees>2.561738602817058563232421875</LongitudeDegrees>
            </Position>
            <AltitudeMeters>620.4000244140625</AltitudeMeters>
            <DistanceMeters>NAN</DistanceMeters>
          </Trackpoint>
          <Trackpoint>
            <Time>2021-04-03T09:21:39.000Z</Time>
            <Position>
              <LatitudeDegrees>42.2991241514682769775390625</LatitudeDegrees>
              <LongitudeDegrees>2.56171069107949733734130859375</LongitudeDegrees>
            </Position>
            <AltitudeMeters>619.79998779296875</AltitudeMeters>
            <DistanceMeters>NAN</DistanceMeters>
          </Trackpoint>
          <Trackpoint>
            <Time>2021-04-03T09:21:42.000Z</Time>
            <Position>
              <LatitudeDegrees>42.2991402447223663330078125</LatitudeDegrees>
              <LongitudeDegrees>2.5616760738193988800048828125</LongitudeDegrees>
            </Position>
            <AltitudeMeters>619.4000244140625</AltitudeMeters>
            <DistanceMeters>NAN</DistanceMeters>
          </Trackpoint>
          <Trackpoint>
            <Time>2021-04-03T09:21:43.000Z</Time>
            <Position>
              <LatitudeDegrees>42.2991498000919818878173828125</LatitudeDegrees>
              <LongitudeDegrees>2.5616703741252422332763671875</LongitudeDegrees>
            </Position>
            <AltitudeMeters>619.20001220703125</AltitudeMeters>
            <DistanceMeters>NAN</DistanceMeters>
          </Trackpoint>
          <Trackpoint>
            <Time>2021-04-03T09:21:44.000Z</Time>
            <Position>
              <LatitudeDegrees>42.2991670668125152587890625</LatitudeDegrees>
              <LongitudeDegrees>2.56167749874293804168701171875</LongitudeDegrees>
            </Position>
            <AltitudeMeters>619</AltitudeMeters>
            <DistanceMeters>NAN</DistanceMeters>
          </Trackpoint>
          <Trackpoint>
            <Time>2021-04-03T09:21:45.000Z</Time>
            <Position>
              <LatitudeDegrees>42.29918458499014377593994140625</LatitudeDegrees>
              <LongitudeDegrees>2.56168269552290439605712890625</LongitudeDegrees>
            </Position>
            <AltitudeMeters>618.79998779296875</AltitudeMeters>
            <DistanceMeters>NAN</DistanceMeters>
          </Trackpoint>
          <Trackpoint>
            <Time>2021-04-03T09:21:46.000Z</Time>
            <Position>
              <LatitudeDegrees>42.299203611910343170166015625</LatitudeDegrees>
              <LongitudeDegrees>2.56167548708617687225341796875</LongitudeDegrees>
            </Position>
            <AltitudeMeters>618.5999755859375</AltitudeMeters>
            <DistanceMeters>NAN</DistanceMeters>
          </Trackpoint>
          <Trackpoint>
            <Time>2021-04-03T09:21:49.000Z</Time>
            <Position>
              <LatitudeDegrees>42.299235127866268157958984375</LatitudeDegrees>
              <LongitudeDegrees>2.5616586394608020782470703125</LongitudeDegrees>
            </Position>
            <AltitudeMeters>618.4000244140625</AltitudeMeters>
            <DistanceMeters>NAN</DistanceMeters>
          </Trackpoint>
          <Trackpoint>
            <Time>2021-04-03T09:21:52.000Z</Time>
            <Position>
              <LatitudeDegrees>42.29926438070833683013916015625</LatitudeDegrees>
              <LongitudeDegrees>2.561648078262805938720703125</LongitudeDegrees>
            </Position>
            <AltitudeMeters>617.5999755859375</AltitudeMeters>
            <DistanceMeters>NAN</DistanceMeters>
          </Trackpoint>
          <Trackpoint>
            <Time>2021-04-03T09:21:56.000Z</Time>
            <Position>
              <LatitudeDegrees>42.299310229718685150146484375</LatitudeDegrees>
              <LongitudeDegrees>2.561643384397029876708984375</LongitudeDegrees>
            </Position>
            <AltitudeMeters>617</AltitudeMeters>
            <DistanceMeters>NAN</DistanceMeters>
          </Trackpoint>
          <Trackpoint>
            <Time>2021-04-03T09:21:58.000Z</Time>
            <Position>
              <LatitudeDegrees>42.29933009482920169830322265625</LatitudeDegrees>
              <LongitudeDegrees>2.56164371967315673828125</LongitudeDegrees>
            </Position>
            <AltitudeMeters>616.5999755859375</AltitudeMeters>
            <DistanceMeters>NAN</DistanceMeters>
          </Trackpoint>
          <Trackpoint>
            <Time>2021-04-03T09:21:59.000Z</Time>
            <Position>
              <LatitudeDegrees>42.2993345372378826141357421875</LatitudeDegrees>
              <LongitudeDegrees>2.5616371817886829376220703125</LongitudeDegrees>
            </Position>
            <AltitudeMeters>616.4000244140625</AltitudeMeters>
            <DistanceMeters>NAN</DistanceMeters>
          </Trackpoint>
          <Trackpoint>
            <Time>2021-04-03T09:22:00.000Z</Time>
            <Position>
              <LatitudeDegrees>42.29933981783688068389892578125</LatitudeDegrees>
              <LongitudeDegrees>2.56163642741739749908447265625</LongitudeDegrees>
            </Position>
            <AltitudeMeters>616.4000244140625</AltitudeMeters>
            <DistanceMeters>NAN</DistanceMeters>
          </Trackpoint>
          <Trackpoint>
            <Time>2021-04-03T09:22:02.000Z</Time>
            <Position>
              <LatitudeDegrees>42.29934878647327423095703125</LatitudeDegrees>
              <LongitudeDegrees>2.561608850955963134765625</LongitudeDegrees>
            </Position>
            <AltitudeMeters>616.20001220703125</AltitudeMeters>
            <DistanceMeters>NAN</DistanceMeters>
          </Trackpoint>
          <Trackpoint>
            <Time>2021-04-03T09:22:05.000Z</Time>
            <Position>
              <LatitudeDegrees>42.29935205541551113128662109375</LatitudeDegrees>
              <LongitudeDegrees>2.56157792173326015472412109375</LongitudeDegrees>
            </Position>
            <AltitudeMeters>615.4000244140625</AltitudeMeters>
            <DistanceMeters>NAN</DistanceMeters>
          </Trackpoint>
          <Trackpoint>
            <Time>2021-04-03T09:22:07.000Z</Time>
            <Position>
              <LatitudeDegrees>42.29936127550899982452392578125</LatitudeDegrees>
              <LongitudeDegrees>2.56157389841973781585693359375</LongitudeDegrees>
            </Position>
            <AltitudeMeters>614.79998779296875</AltitudeMeters>
            <DistanceMeters>NAN</DistanceMeters>
          </Trackpoint>
          <Trackpoint>
            <Time>2021-04-03T09:22:09.000Z</Time>
            <Position>
              <LatitudeDegrees>42.2993613593280315399169921875</LatitudeDegrees>
              <LongitudeDegrees>2.56155646406114101409912109375</LongitudeDegrees>
            </Position>
            <AltitudeMeters>614.4000244140625</AltitudeMeters>
            <DistanceMeters>NAN</DistanceMeters>
          </Trackpoint>
          <Trackpoint>
            <Time>2021-04-03T09:22:11.000Z</Time>
            <Position>
              <LatitudeDegrees>42.29936948977410793304443359375</LatitudeDegrees>
              <LongitudeDegrees>2.5615453161299228668212890625</LongitudeDegrees>
            </Position>
            <AltitudeMeters>614</AltitudeMeters>
            <DistanceMeters>NAN</DistanceMeters>
          </Trackpoint>
          <Trackpoint>
            <Time>2021-04-03T09:22:12.000Z</Time>
            <Position>
              <LatitudeDegrees>42.29937384836375713348388671875</LatitudeDegrees>
              <LongitudeDegrees>2.5615402869880199432373046875</LongitudeDegrees>
            </Position>
            <AltitudeMeters>613.79998779296875</AltitudeMeters>
            <DistanceMeters>NAN</DistanceMeters>
          </Trackpoint>
          <Trackpoint>
            <Time>2021-04-03T09:22:14.000Z</Time>
            <Position>
              <LatitudeDegrees>42.2993684001266956329345703125</LatitudeDegrees>
              <LongitudeDegrees>2.56152545101940631866455078125</LongitudeDegrees>
            </Position>
            <AltitudeMeters>613.20001220703125</AltitudeMeters>
            <DistanceMeters>NAN</DistanceMeters>
          </Trackpoint>
          <Trackpoint>
            <Time>2021-04-03T09:22:16.000Z</Time>
            <Position>
              <LatitudeDegrees>42.2993580065667629241943359375</LatitudeDegrees>
              <LongitudeDegrees>2.56150265224277973175048828125</LongitudeDegrees>
            </Position>
            <AltitudeMeters>612.5999755859375</AltitudeMeters>
            <DistanceMeters>NAN</DistanceMeters>
          </Trackpoint>
          <Trackpoint>
            <Time>2021-04-03T09:22:18.000Z</Time>
            <Position>
              <LatitudeDegrees>42.29937016032636165618896484375</LatitudeDegrees>
              <LongitudeDegrees>2.5614765845239162445068359375</LongitudeDegrees>
            </Position>
            <AltitudeMeters>612.20001220703125</AltitudeMeters>
            <DistanceMeters>NAN</DistanceMeters>
          </Trackpoint>
          <Trackpoint>
            <Time>2021-04-03T09:22:21.000Z</Time>
            <Position>
              <LatitudeDegrees>42.29938474483788013458251953125</LatitudeDegrees>
              <LongitudeDegrees>2.5614524446427822113037109375</LongitudeDegrees>
            </Position>
            <AltitudeMeters>611.5999755859375</AltitudeMeters>
            <DistanceMeters>NAN</DistanceMeters>
          </Trackpoint>
          <Trackpoint>
            <Time>2021-04-03T09:22:24.000Z</Time>
            <Position>
              <LatitudeDegrees>42.29940033517777919769287109375</LatitudeDegrees>
              <LongitudeDegrees>2.5614165700972080230712890625</LongitudeDegrees>
            </Position>
            <AltitudeMeters>611</AltitudeMeters>
            <DistanceMeters>NAN</DistanceMeters>
          </Trackpoint>
          <Trackpoint>
            <Time>2021-04-03T09:22:27.000Z</Time>
            <Position>
              <LatitudeDegrees>42.29942497797310352325439453125</LatitudeDegrees>
              <LongitudeDegrees>2.561392597854137420654296875</LongitudeDegrees>
            </Position>
            <AltitudeMeters>610.4000244140625</AltitudeMeters>
            <DistanceMeters>NAN</DistanceMeters>
          </Trackpoint>
          <Trackpoint>
            <Time>2021-04-03T09:22:29.000Z</Time>
            <Position>
              <LatitudeDegrees>42.29943939484655857086181640625</LatitudeDegrees>
              <LongitudeDegrees>2.5613749958574771881103515625</LongitudeDegrees>
            </Position>
            <AltitudeMeters>610.20001220703125</AltitudeMeters>
            <DistanceMeters>NAN</DistanceMeters>
          </Trackpoint>
          <Trackpoint>
            <Time>2021-04-03T09:22:31.000Z</Time>
            <Position>
              <LatitudeDegrees>42.29945163242518901824951171875</LatitudeDegrees>
              <LongitudeDegrees>2.56136083044111728668212890625</LongitudeDegrees>
            </Position>
            <AltitudeMeters>609.79998779296875</AltitudeMeters>
            <DistanceMeters>NAN</DistanceMeters>
          </Trackpoint>
          <Trackpoint>
            <Time>2021-04-03T09:22:35.000Z</Time>
            <Position>
              <LatitudeDegrees>42.29949220083653926849365234375</LatitudeDegrees>
              <LongitudeDegrees>2.5613508559763431549072265625</LongitudeDegrees>
            </Position>
            <AltitudeMeters>609.4000244140625</AltitudeMeters>
            <DistanceMeters>NAN</DistanceMeters>
          </Trackpoint>
          <Trackpoint>
            <Time>2021-04-03T09:22:36.000Z</Time>
            <Position>
              <LatitudeDegrees>42.299499996006488800048828125</LatitudeDegrees>
              <LongitudeDegrees>2.5613431446254253387451171875</LongitudeDegrees>
            </Position>
            <AltitudeMeters>609.4000244140625</AltitudeMeters>
            <DistanceMeters>NAN</DistanceMeters>
          </Trackpoint>
          <Trackpoint>
            <Time>2021-04-03T09:22:37.000Z</Time>
            <Position>
              <LatitudeDegrees>42.299509383738040924072265625</LatitudeDegrees>
              <LongitudeDegrees>2.56134071387350559234619140625</LongitudeDegrees>
            </Position>
            <AltitudeMeters>609.4000244140625</AltitudeMeters>
            <DistanceMeters>NAN</DistanceMeters>
          </Trackpoint>
          <Trackpoint>
            <Time>2021-04-03T09:22:41.000Z</Time>
            <Position>
              <LatitudeDegrees>42.29953712783753871917724609375</LatitudeDegrees>
              <LongitudeDegrees>2.561316825449466705322265625</LongitudeDegrees>
            </Position>
            <AltitudeMeters>609</AltitudeMeters>
            <DistanceMeters>NAN</DistanceMeters>
          </Trackpoint>
          <Trackpoint>
            <Time>2021-04-03T09:22:42.000Z</Time>
            <Position>
              <LatitudeDegrees>42.29953997768461704254150390625</LatitudeDegrees>
              <LongitudeDegrees>2.5613126344978809356689453125</LongitudeDegrees>
            </Position>
            <AltitudeMeters>609</AltitudeMeters>
            <DistanceMeters>NAN</DistanceMeters>
          </Trackpoint>
          <Trackpoint>
            <Time>2021-04-03T09:22:43.000Z</Time>
            <Position>
              <LatitudeDegrees>42.2995427437126636505126953125</LatitudeDegrees>
              <LongitudeDegrees>2.561304084956645965576171875</LongitudeDegrees>
            </Position>
            <AltitudeMeters>609</AltitudeMeters>
            <DistanceMeters>NAN</DistanceMeters>
          </Trackpoint>
          <Trackpoint>
            <Time>2021-04-03T09:22:45.000Z</Time>
            <Position>
              <LatitudeDegrees>42.29955892078578472137451171875</LatitudeDegrees>
              <LongitudeDegrees>2.56129436194896697998046875</LongitudeDegrees>
            </Position>
            <AltitudeMeters>608.79998779296875</AltitudeMeters>
            <DistanceMeters>NAN</DistanceMeters>
          </Trackpoint>
          <Trackpoint>
            <Time>2021-04-03T09:22:48.000Z</Time>
            <Position>
              <LatitudeDegrees>42.2995799593627452850341796875</LatitudeDegrees>
              <LongitudeDegrees>2.561301402747631072998046875</LongitudeDegrees>
            </Position>
            <AltitudeMeters>608.5999755859375</AltitudeMeters>
            <DistanceMeters>NAN</DistanceMeters>
          </Trackpoint>
          <Trackpoint>
            <Time>2021-04-03T09:22:50.000Z</Time>
            <Position>
              <LatitudeDegrees>42.29957652278244495391845703125</LatitudeDegrees>
              <LongitudeDegrees>2.561306767165660858154296875</LongitudeDegrees>
            </Position>
            <AltitudeMeters>608.4000244140625</AltitudeMeters>
            <DistanceMeters>NAN</DistanceMeters>
          </Trackpoint>
          <Trackpoint>
            <Time>2021-04-03T09:22:52.000Z</Time>
            <Position>
              <LatitudeDegrees>42.29958255775272846221923828125</LatitudeDegrees>
              <LongitudeDegrees>2.56129838526248931884765625</LongitudeDegrees>
            </Position>
            <AltitudeMeters>608.4000244140625</AltitudeMeters>
            <DistanceMeters>NAN</DistanceMeters>
          </Trackpoint>
          <Trackpoint>
            <Time>2021-04-03T09:22:54.000Z</Time>
            <Position>
              <LatitudeDegrees>42.29959823191165924072265625</LatitudeDegrees>
              <LongitudeDegrees>2.56129746325314044952392578125</LongitudeDegrees>
            </Position>
            <AltitudeMeters>608.20001220703125</AltitudeMeters>
            <DistanceMeters>NAN</DistanceMeters>
          </Trackpoint>
          <Trackpoint>
            <Time>2021-04-03T09:23:00.000Z</Time>
            <Position>
              <LatitudeDegrees>42.29966386221349239349365234375</LatitudeDegrees>
              <LongitudeDegrees>2.5612549670040607452392578125</LongitudeDegrees>
            </Position>
            <AltitudeMeters>607.4000244140625</AltitudeMeters>
            <DistanceMeters>NAN</DistanceMeters>
          </Trackpoint>
          <Trackpoint>
            <Time>2021-04-03T09:23:01.000Z</Time>
            <Position>
              <LatitudeDegrees>42.29967040009796619415283203125</LatitudeDegrees>
              <LongitudeDegrees>2.56124683655798435211181640625</LongitudeDegrees>
            </Position>
            <AltitudeMeters>607.20001220703125</AltitudeMeters>
            <DistanceMeters>NAN</DistanceMeters>
          </Trackpoint>
          <Trackpoint>
            <Time>2021-04-03T09:23:03.000Z</Time>
            <Position>
              <LatitudeDegrees>42.299674339592456817626953125</LatitudeDegrees>
              <LongitudeDegrees>2.56123602390289306640625</LongitudeDegrees>
            </Position>
            <AltitudeMeters>606.79998779296875</AltitudeMeters>
            <DistanceMeters>NAN</DistanceMeters>
          </Trackpoint>
          <Trackpoint>
            <Time>2021-04-03T09:23:06.000Z</Time>
            <Position>
              <LatitudeDegrees>42.29967727325856685638427734375</LatitudeDegrees>
              <LongitudeDegrees>2.56119235418736934661865234375</LongitudeDegrees>
            </Position>
            <AltitudeMeters>606.4000244140625</AltitudeMeters>
            <DistanceMeters>NAN</DistanceMeters>
          </Trackpoint>
          <Trackpoint>
            <Time>2021-04-03T09:23:07.000Z</Time>
            <Position>
              <LatitudeDegrees>42.29968096129596233367919921875</LatitudeDegrees>
              <LongitudeDegrees>2.56117257289588451385498046875</LongitudeDegrees>
            </Position>
            <AltitudeMeters>606.20001220703125</AltitudeMeters>
            <DistanceMeters>NAN</DistanceMeters>
          </Trackpoint>
          <Trackpoint>
            <Time>2021-04-03T09:23:10.000Z</Time>
            <Position>
              <LatitudeDegrees>42.29971088469028472900390625</LatitudeDegrees>
              <LongitudeDegrees>2.5611439906060695648193359375</LongitudeDegrees>
            </Position>
            <AltitudeMeters>605.79998779296875</AltitudeMeters>
            <DistanceMeters>NAN</DistanceMeters>
          </Trackpoint>
          <Trackpoint>
            <Time>2021-04-03T09:23:12.000Z</Time>
            <Position>
              <LatitudeDegrees>42.29972940869629383087158203125</LatitudeDegrees>
              <LongitudeDegrees>2.56113368086516857147216796875</LongitudeDegrees>
            </Position>
            <AltitudeMeters>605.5999755859375</AltitudeMeters>
            <DistanceMeters>NAN</DistanceMeters>
          </Trackpoint>
          <Trackpoint>
            <Time>2021-04-03T09:23:15.000Z</Time>
            <Position>
              <LatitudeDegrees>42.29975455440580844879150390625</LatitudeDegrees>
              <LongitudeDegrees>2.561109960079193115234375</LongitudeDegrees>
            </Position>
            <AltitudeMeters>605.4000244140625</AltitudeMeters>
            <DistanceMeters>NAN</DistanceMeters>
          </Trackpoint>
          <Trackpoint>
            <Time>2021-04-03T09:23:16.000Z</Time>
            <Position>
              <LatitudeDegrees>42.29976947419345378875732421875</LatitudeDegrees>
              <LongitudeDegrees>2.56110048852860927581787109375</LongitudeDegrees>
            </Position>
            <AltitudeMeters>605.4000244140625</AltitudeMeters>
            <DistanceMeters>NAN</DistanceMeters>
          </Trackpoint>
          <Trackpoint>
            <Time>2021-04-03T09:23:18.000Z</Time>
            <Position>
              <LatitudeDegrees>42.2997839748859405517578125</LatitudeDegrees>
              <LongitudeDegrees>2.5610766001045703887939453125</LongitudeDegrees>
            </Position>
            <AltitudeMeters>605.4000244140625</AltitudeMeters>
            <DistanceMeters>NAN</DistanceMeters>
          </Trackpoint>
          <Trackpoint>
            <Time>2021-04-03T09:23:22.000Z</Time>
            <Position>
              <LatitudeDegrees>42.29978322051465511322021484375</LatitudeDegrees>
              <LongitudeDegrees>2.56101851351559162139892578125</LongitudeDegrees>
            </Position>
            <AltitudeMeters>605.4000244140625</AltitudeMeters>
            <DistanceMeters>NAN</DistanceMeters>
          </Trackpoint>
          <Trackpoint>
            <Time>2021-04-03T09:23:24.000Z</Time>
            <Position>
              <LatitudeDegrees>42.2997811250388622283935546875</LatitudeDegrees>
              <LongitudeDegrees>2.56100577302277088165283203125</LongitudeDegrees>
            </Position>
            <AltitudeMeters>605.4000244140625</AltitudeMeters>
            <DistanceMeters>NAN</DistanceMeters>
          </Trackpoint>
          <Trackpoint>
            <Time>2021-04-03T09:23:29.000Z</Time>
            <Position>
              <LatitudeDegrees>42.2997499443590641021728515625</LatitudeDegrees>
              <LongitudeDegrees>2.56095481105148792266845703125</LongitudeDegrees>
            </Position>
            <AltitudeMeters>604.4000244140625</AltitudeMeters>
            <DistanceMeters>NAN</DistanceMeters>
          </Trackpoint>
          <Trackpoint>
            <Time>2021-04-03T09:23:31.000Z</Time>
            <Position>
              <LatitudeDegrees>42.29974114336073398590087890625</LatitudeDegrees>
              <LongitudeDegrees>2.56094274111092090606689453125</LongitudeDegrees>
            </Position>
            <AltitudeMeters>604</AltitudeMeters>
            <DistanceMeters>NAN</DistanceMeters>
          </Trackpoint>
          <Trackpoint>
            <Time>2021-04-03T09:23:33.000Z</Time>
            <Position>
              <LatitudeDegrees>42.2997321747243404388427734375</LatitudeDegrees>
              <LongitudeDegrees>2.56092580966651439666748046875</LongitudeDegrees>
            </Position>
            <AltitudeMeters>603.20001220703125</AltitudeMeters>
            <DistanceMeters>NAN</DistanceMeters>
          </Trackpoint>
          <Trackpoint>
            <Time>2021-04-03T09:23:37.000Z</Time>
            <Position>
              <LatitudeDegrees>42.299699150025844573974609375</LatitudeDegrees>
              <LongitudeDegrees>2.56090904586017131805419921875</LongitudeDegrees>
            </Position>
            <AltitudeMeters>602.4000244140625</AltitudeMeters>
            <DistanceMeters>NAN</DistanceMeters>
          </Trackpoint>
          <Trackpoint>
            <Time>2021-04-03T09:23:38.000Z</Time>
            <Position>
              <LatitudeDegrees>42.2996926121413707733154296875</LatitudeDegrees>
              <LongitudeDegrees>2.5608995743095874786376953125</LongitudeDegrees>
            </Position>
            <AltitudeMeters>602.20001220703125</AltitudeMeters>
            <DistanceMeters>NAN</DistanceMeters>
          </Trackpoint>
          <Trackpoint>
            <Time>2021-04-03T09:23:41.000Z</Time>
            <Position>
              <LatitudeDegrees>42.29968129657208919525146484375</LatitudeDegrees>
              <LongitudeDegrees>2.56087451241910457611083984375</LongitudeDegrees>
            </Position>
            <AltitudeMeters>601.5999755859375</AltitudeMeters>
            <DistanceMeters>NAN</DistanceMeters>
          </Trackpoint>
          <Trackpoint>
            <Time>2021-04-03T09:23:43.000Z</Time>
            <Position>
              <LatitudeDegrees>42.29967199265956878662109375</LatitudeDegrees>
              <LongitudeDegrees>2.56086110137403011322021484375</LongitudeDegrees>
            </Position>
            <AltitudeMeters>601</AltitudeMeters>
            <DistanceMeters>NAN</DistanceMeters>
          </Trackpoint>
          <Trackpoint>
            <Time>2021-04-03T09:23:45.000Z</Time>
            <Position>
              <LatitudeDegrees>42.29966872371733188629150390625</LatitudeDegrees>
              <LongitudeDegrees>2.56084081716835498809814453125</LongitudeDegrees>
            </Position>
            <AltitudeMeters>600.5999755859375</AltitudeMeters>
            <DistanceMeters>NAN</DistanceMeters>
          </Trackpoint>
          <Trackpoint>
            <Time>2021-04-03T09:23:46.000Z</Time>
            <Position>
              <LatitudeDegrees>42.29966838844120502471923828125</LatitudeDegrees>
              <LongitudeDegrees>2.56082925014197826385498046875</LongitudeDegrees>
            </Position>
            <AltitudeMeters>600.4000244140625</AltitudeMeters>
            <DistanceMeters>NAN</DistanceMeters>
          </Trackpoint>
          <Trackpoint>
            <Time>2021-04-03T09:23:49.000Z</Time>
            <Position>
              <LatitudeDegrees>42.29966151528060436248779296875</LatitudeDegrees>
              <LongitudeDegrees>2.56080879829823970794677734375</LongitudeDegrees>
            </Position>
            <AltitudeMeters>600</AltitudeMeters>
            <DistanceMeters>NAN</DistanceMeters>
          </Trackpoint>
          <Trackpoint>
            <Time>2021-04-03T09:23:52.000Z</Time>
            <Position>
              <LatitudeDegrees>42.299644835293292999267578125</LatitudeDegrees>
              <LongitudeDegrees>2.56080393679440021514892578125</LongitudeDegrees>
            </Position>
            <AltitudeMeters>599</AltitudeMeters>
            <DistanceMeters>NAN</DistanceMeters>
          </Trackpoint>
          <Trackpoint>
            <Time>2021-04-03T09:23:53.000Z</Time>
            <Position>
              <LatitudeDegrees>42.29964114725589752197265625</LatitudeDegrees>
              <LongitudeDegrees>2.5607907772064208984375</LongitudeDegrees>
            </Position>
            <AltitudeMeters>598.79998779296875</AltitudeMeters>
            <DistanceMeters>NAN</DistanceMeters>
          </Trackpoint>
          <Trackpoint>
            <Time>2021-04-03T09:23:54.000Z</Time>
            <Position>
              <LatitudeDegrees>42.2996386326849460601806640625</LatitudeDegrees>
              <LongitudeDegrees>2.56077795289456844329833984375</LongitudeDegrees>
            </Position>
            <AltitudeMeters>598.4000244140625</AltitudeMeters>
            <DistanceMeters>NAN</DistanceMeters>
          </Trackpoint>
          <Trackpoint>
            <Time>2021-04-03T09:23:56.000Z</Time>
            <Position>
              <LatitudeDegrees>42.29962245561182498931884765625</LatitudeDegrees>
              <LongitudeDegrees>2.5607530586421489715576171875</LongitudeDegrees>
            </Position>
            <AltitudeMeters>597.79998779296875</AltitudeMeters>
            <DistanceMeters>NAN</DistanceMeters>
          </Trackpoint>
          <Trackpoint>
            <Time>2021-04-03T09:23:57.000Z</Time>
            <Position>
              <LatitudeDegrees>42.29961290024220943450927734375</LatitudeDegrees>
              <LongitudeDegrees>2.5607406534254550933837890625</LongitudeDegrees>
            </Position>
            <AltitudeMeters>597.79998779296875</AltitudeMeters>
            <DistanceMeters>NAN</DistanceMeters>
          </Trackpoint>
          <Trackpoint>
            <Time>2021-04-03T09:23:59.000Z</Time>
            <Position>
              <LatitudeDegrees>42.29960535652935504913330078125</LatitudeDegrees>
              <LongitudeDegrees>2.5607275776565074920654296875</LongitudeDegrees>
            </Position>
            <AltitudeMeters>597.5999755859375</AltitudeMeters>
            <DistanceMeters>NAN</DistanceMeters>
          </Trackpoint>
          <Trackpoint>
            <Time>2021-04-03T09:24:02.000Z</Time>
            <Position>
              <LatitudeDegrees>42.2995816357433795928955078125</LatitudeDegrees>
              <LongitudeDegrees>2.5607054494321346282958984375</LongitudeDegrees>
            </Position>
            <AltitudeMeters>597</AltitudeMeters>
            <DistanceMeters>NAN</DistanceMeters>
          </Trackpoint>
          <Trackpoint>
            <Time>2021-04-03T09:24:05.000Z</Time>
            <Position>
              <LatitudeDegrees>42.29956763796508312225341796875</LatitudeDegrees>
              <LongitudeDegrees>2.56067468784749507904052734375</LongitudeDegrees>
            </Position>
            <AltitudeMeters>596.5999755859375</AltitudeMeters>
            <DistanceMeters>NAN</DistanceMeters>
          </Trackpoint>
          <Trackpoint>
            <Time>2021-04-03T09:24:07.000Z</Time>
            <Position>
              <LatitudeDegrees>42.29955439455807209014892578125</LatitudeDegrees>
              <LongitudeDegrees>2.56065390072762966156005859375</LongitudeDegrees>
            </Position>
            <AltitudeMeters>596.4000244140625</AltitudeMeters>
            <DistanceMeters>NAN</DistanceMeters>
          </Trackpoint>
          <Trackpoint>
            <Time>2021-04-03T09:24:08.000Z</Time>
            <Position>
              <LatitudeDegrees>42.2995491139590740203857421875</LatitudeDegrees>
              <LongitudeDegrees>2.56064853630959987640380859375</LongitudeDegrees>
            </Position>
            <AltitudeMeters>596.20001220703125</AltitudeMeters>
            <DistanceMeters>NAN</DistanceMeters>
          </Trackpoint>
          <Trackpoint>
            <Time>2021-04-03T09:24:10.000Z</Time>
            <Position>
              <LatitudeDegrees>42.29953788220882415771484375</LatitudeDegrees>
              <LongitudeDegrees>2.5606343708932399749755859375</LongitudeDegrees>
            </Position>
            <AltitudeMeters>596</AltitudeMeters>
            <DistanceMeters>NAN</DistanceMeters>
          </Trackpoint>
          <Trackpoint>
            <Time>2021-04-03T09:24:13.000Z</Time>
            <Position>
              <LatitudeDegrees>42.29951986111700534820556640625</LatitudeDegrees>
              <LongitudeDegrees>2.56060712970793247222900390625</LongitudeDegrees>
            </Position>
            <AltitudeMeters>595.5999755859375</AltitudeMeters>
            <DistanceMeters>NAN</DistanceMeters>
          </Trackpoint>
          <Trackpoint>
            <Time>2021-04-03T09:24:15.000Z</Time>
            <Position>
              <LatitudeDegrees>42.29950661770999431610107421875</LatitudeDegrees>
              <LongitudeDegrees>2.56059740670025348663330078125</LongitudeDegrees>
            </Position>
            <AltitudeMeters>595.4000244140625</AltitudeMeters>
            <DistanceMeters>NAN</DistanceMeters>
          </Trackpoint>
          <Trackpoint>
            <Time>2021-04-03T09:24:17.000Z</Time>
            <Position>
              <LatitudeDegrees>42.29949907399713993072509765625</LatitudeDegrees>
              <LongitudeDegrees>2.560577206313610076904296875</LongitudeDegrees>
            </Position>
            <AltitudeMeters>595.20001220703125</AltitudeMeters>
            <DistanceMeters>NAN</DistanceMeters>
          </Trackpoint>
          <Trackpoint>
            <Time>2021-04-03T09:24:19.000Z</Time>
            <Position>
              <LatitudeDegrees>42.29948423802852630615234375</LatitudeDegrees>
              <LongitudeDegrees>2.56055549718439579010009765625</LongitudeDegrees>
            </Position>
            <AltitudeMeters>595</AltitudeMeters>
            <DistanceMeters>NAN</DistanceMeters>
          </Trackpoint>
          <Trackpoint>
            <Time>2021-04-03T09:24:20.000Z</Time>
            <Position>
              <LatitudeDegrees>42.29947292245924472808837890625</LatitudeDegrees>
              <LongitudeDegrees>2.56053529679775238037109375</LongitudeDegrees>
            </Position>
            <AltitudeMeters>594.79998779296875</AltitudeMeters>
            <DistanceMeters>NAN</DistanceMeters>
          </Trackpoint>
          <Trackpoint>
            <Time>2021-04-03T09:24:22.000Z</Time>
            <Position>
              <LatitudeDegrees>42.29945339262485504150390625</LatitudeDegrees>
              <LongitudeDegrees>2.56050654686987400054931640625</LongitudeDegrees>
            </Position>
            <AltitudeMeters>594.5999755859375</AltitudeMeters>
            <DistanceMeters>NAN</DistanceMeters>
          </Trackpoint>
          <Trackpoint>
            <Time>2021-04-03T09:24:23.000Z</Time>
            <Position>
              <LatitudeDegrees>42.2994418255984783172607421875</LatitudeDegrees>
              <LongitudeDegrees>2.56048877723515033721923828125</LongitudeDegrees>
            </Position>
            <AltitudeMeters>594.5999755859375</AltitudeMeters>
            <DistanceMeters>NAN</DistanceMeters>
          </Trackpoint>
          <Trackpoint>
            <Time>2021-04-03T09:24:27.000Z</Time>
            <Position>
              <LatitudeDegrees>42.2994109801948070526123046875</LatitudeDegrees>
              <LongitudeDegrees>2.5604613684117794036865234375</LongitudeDegrees>
            </Position>
            <AltitudeMeters>594.4000244140625</AltitudeMeters>
            <DistanceMeters>NAN</DistanceMeters>
          </Trackpoint>
          <Trackpoint>
            <Time>2021-04-03T09:24:31.000Z</Time>
            <Position>
              <LatitudeDegrees>42.29938927106559276580810546875</LatitudeDegrees>
              <LongitudeDegrees>2.5604192912578582763671875</LongitudeDegrees>
            </Position>
            <AltitudeMeters>593.79998779296875</AltitudeMeters>
            <DistanceMeters>NAN</DistanceMeters>
          </Trackpoint>
          <Trackpoint>
            <Time>2021-04-03T09:24:32.000Z</Time>
            <Position>
              <LatitudeDegrees>42.29938943870365619659423828125</LatitudeDegrees>
              <LongitudeDegrees>2.5604077242314815521240234375</LongitudeDegrees>
            </Position>
            <AltitudeMeters>593.4000244140625</AltitudeMeters>
            <DistanceMeters>NAN</DistanceMeters>
          </Trackpoint>
          <Trackpoint>
            <Time>2021-04-03T09:24:33.000Z</Time>
            <Position>
              <LatitudeDegrees>42.29938876815140247344970703125</LatitudeDegrees>
              <LongitudeDegrees>2.560397498309612274169921875</LongitudeDegrees>
            </Position>
            <AltitudeMeters>593.20001220703125</AltitudeMeters>
            <DistanceMeters>NAN</DistanceMeters>
          </Trackpoint>
          <Trackpoint>
            <Time>2021-04-03T09:24:35.000Z</Time>
            <Position>
              <LatitudeDegrees>42.2993844933807849884033203125</LatitudeDegrees>
              <LongitudeDegrees>2.56035869009792804718017578125</LongitudeDegrees>
            </Position>
            <AltitudeMeters>592.5999755859375</AltitudeMeters>
            <DistanceMeters>NAN</DistanceMeters>
          </Trackpoint>
          <Trackpoint>
            <Time>2021-04-03T09:24:37.000Z</Time>
            <Position>
              <LatitudeDegrees>42.29938725940883159637451171875</LatitudeDegrees>
              <LongitudeDegrees>2.56032197736203670501708984375</LongitudeDegrees>
            </Position>
            <AltitudeMeters>592.4000244140625</AltitudeMeters>
            <DistanceMeters>NAN</DistanceMeters>
          </Trackpoint>
          <Trackpoint>
            <Time>2021-04-03T09:24:39.000Z</Time>
            <Position>
              <LatitudeDegrees>42.29938407428562641143798828125</LatitudeDegrees>
              <LongitudeDegrees>2.5602897070348262786865234375</LongitudeDegrees>
            </Position>
            <AltitudeMeters>592.20001220703125</AltitudeMeters>
            <DistanceMeters>NAN</DistanceMeters>
          </Trackpoint>
          <Trackpoint>
            <Time>2021-04-03T09:24:44.000Z</Time>
            <Position>
              <LatitudeDegrees>42.299361526966094970703125</LatitudeDegrees>
              <LongitudeDegrees>2.560224495828151702880859375</LongitudeDegrees>
            </Position>
            <AltitudeMeters>591.20001220703125</AltitudeMeters>
            <DistanceMeters>NAN</DistanceMeters>
          </Trackpoint>
          <Trackpoint>
            <Time>2021-04-03T09:24:48.000Z</Time>
            <Position>
              <LatitudeDegrees>42.29936898685991764068603515625</LatitudeDegrees>
              <LongitudeDegrees>2.5601804070174694061279296875</LongitudeDegrees>
            </Position>
            <AltitudeMeters>590.79998779296875</AltitudeMeters>
            <DistanceMeters>NAN</DistanceMeters>
          </Trackpoint>
          <Trackpoint>
            <Time>2021-04-03T09:24:55.000Z</Time>
            <Position>
              <LatitudeDegrees>42.29934400878846645355224609375</LatitudeDegrees>
              <LongitudeDegrees>2.56004386581480503082275390625</LongitudeDegrees>
            </Position>
            <AltitudeMeters>590.20001220703125</AltitudeMeters>
            <DistanceMeters>NAN</DistanceMeters>
          </Trackpoint>
          <Trackpoint>
            <Time>2021-04-03T09:24:59.000Z</Time>
            <Position>
              <LatitudeDegrees>42.29932338930666446685791015625</LatitudeDegrees>
              <LongitudeDegrees>2.55997261963784694671630859375</LongitudeDegrees>
            </Position>
            <AltitudeMeters>589.79998779296875</AltitudeMeters>
            <DistanceMeters>NAN</DistanceMeters>
          </Trackpoint>
          <Trackpoint>
            <Time>2021-04-03T09:25:01.000Z</Time>
            <Position>
              <LatitudeDegrees>42.29931282810866832733154296875</LatitudeDegrees>
              <LongitudeDegrees>2.55994386970996856689453125</LongitudeDegrees>
            </Position>
            <AltitudeMeters>589.5999755859375</AltitudeMeters>
            <DistanceMeters>NAN</DistanceMeters>
          </Trackpoint>
          <Trackpoint>
            <Time>2021-04-03T09:25:03.000Z</Time>
            <Position>
              <LatitudeDegrees>42.29929069988429546356201171875</LatitudeDegrees>
              <LongitudeDegrees>2.559918053448200225830078125</LongitudeDegrees>
            </Position>
            <AltitudeMeters>589.20001220703125</AltitudeMeters>
            <DistanceMeters>NAN</DistanceMeters>
          </Trackpoint>
          <Trackpoint>
            <Time>2021-04-03T09:25:08.000Z</Time>
            <Position>
              <LatitudeDegrees>42.29926697909832000732421875</LatitudeDegrees>
              <LongitudeDegrees>2.5598466396331787109375</LongitudeDegrees>
            </Position>
            <AltitudeMeters>588</AltitudeMeters>
            <DistanceMeters>NAN</DistanceMeters>
          </Trackpoint>
          <Trackpoint>
            <Time>2021-04-03T09:25:11.000Z</Time>
            <Position>
              <LatitudeDegrees>42.299261949956417083740234375</LatitudeDegrees>
              <LongitudeDegrees>2.559802047908306121826171875</LongitudeDegrees>
            </Position>
            <AltitudeMeters>587.79998779296875</AltitudeMeters>
            <DistanceMeters>NAN</DistanceMeters>
          </Trackpoint>
          <Trackpoint>
            <Time>2021-04-03T09:25:14.000Z</Time>
            <Position>
              <LatitudeDegrees>42.299257256090641021728515625</LatitudeDegrees>
              <LongitudeDegrees>2.55975234322249889373779296875</LongitudeDegrees>
            </Position>
            <AltitudeMeters>587.79998779296875</AltitudeMeters>
            <DistanceMeters>NAN</DistanceMeters>
          </Trackpoint>
          <Trackpoint>
            <Time>2021-04-03T09:25:18.000Z</Time>
            <Position>
              <LatitudeDegrees>42.2992691583931446075439453125</LatitudeDegrees>
              <LongitudeDegrees>2.5596942566335201263427734375</LongitudeDegrees>
            </Position>
            <AltitudeMeters>587.5999755859375</AltitudeMeters>
            <DistanceMeters>NAN</DistanceMeters>
          </Trackpoint>
          <Trackpoint>
            <Time>2021-04-03T09:25:19.000Z</Time>
            <Position>
              <LatitudeDegrees>42.29927427135407924652099609375</LatitudeDegrees>
              <LongitudeDegrees>2.55968193523585796356201171875</LongitudeDegrees>
            </Position>
            <AltitudeMeters>587.5999755859375</AltitudeMeters>
            <DistanceMeters>NAN</DistanceMeters>
          </Trackpoint>
          <Trackpoint>
            <Time>2021-04-03T09:25:22.000Z</Time>
            <Position>
              <LatitudeDegrees>42.29927594773471355438232421875</LatitudeDegrees>
              <LongitudeDegrees>2.55964857526123523712158203125</LongitudeDegrees>
            </Position>
            <AltitudeMeters>587.20001220703125</AltitudeMeters>
            <DistanceMeters>NAN</DistanceMeters>
          </Trackpoint>
          <Trackpoint>
            <Time>2021-04-03T09:25:24.000Z</Time>
            <Position>
              <LatitudeDegrees>42.29927108623087406158447265625</LatitudeDegrees>
              <LongitudeDegrees>2.559633739292621612548828125</LongitudeDegrees>
            </Position>
            <AltitudeMeters>587</AltitudeMeters>
            <DistanceMeters>NAN</DistanceMeters>
          </Trackpoint>
          <Trackpoint>
            <Time>2021-04-03T09:25:25.000Z</Time>
            <Position>
              <LatitudeDegrees>42.2992644645273685455322265625</LatitudeDegrees>
              <LongitudeDegrees>2.5596235133707523345947265625</LongitudeDegrees>
            </Position>
            <AltitudeMeters>586.79998779296875</AltitudeMeters>
            <DistanceMeters>NAN</DistanceMeters>
          </Trackpoint>
          <Trackpoint>
            <Time>2021-04-03T09:25:27.000Z</Time>
            <Position>
              <LatitudeDegrees>42.299253903329372406005859375</LatitudeDegrees>
              <LongitudeDegrees>2.5596092641353607177734375</LongitudeDegrees>
            </Position>
            <AltitudeMeters>586</AltitudeMeters>
            <DistanceMeters>NAN</DistanceMeters>
          </Trackpoint>
          <Trackpoint>
            <Time>2021-04-03T09:25:28.000Z</Time>
            <Position>
              <LatitudeDegrees>42.2992493771016597747802734375</LatitudeDegrees>
              <LongitudeDegrees>2.5595976971089839935302734375</LongitudeDegrees>
            </Position>
            <AltitudeMeters>585.79998779296875</AltitudeMeters>
            <DistanceMeters>NAN</DistanceMeters>
          </Trackpoint>
          <Trackpoint>
            <Time>2021-04-03T09:25:29.000Z</Time>
            <Position>
              <LatitudeDegrees>42.29924376122653484344482421875</LatitudeDegrees>
              <LongitudeDegrees>2.55958705209195613861083984375</LongitudeDegrees>
            </Position>
            <AltitudeMeters>585.5999755859375</AltitudeMeters>
            <DistanceMeters>NAN</DistanceMeters>
          </Trackpoint>
          <Trackpoint>
            <Time>2021-04-03T09:25:31.000Z</Time>
            <Position>
              <LatitudeDegrees>42.29922867380082607269287109375</LatitudeDegrees>
              <LongitudeDegrees>2.5595755688846111297607421875</LongitudeDegrees>
            </Position>
            <AltitudeMeters>585.20001220703125</AltitudeMeters>
            <DistanceMeters>NAN</DistanceMeters>
          </Trackpoint>
          <Trackpoint>
            <Time>2021-04-03T09:25:32.000Z</Time>
            <Position>
              <LatitudeDegrees>42.2992207109928131103515625</LatitudeDegrees>
              <LongitudeDegrees>2.55957632325589656829833984375</LongitudeDegrees>
            </Position>
            <AltitudeMeters>584.79998779296875</AltitudeMeters>
            <DistanceMeters>NAN</DistanceMeters>
          </Trackpoint>
          <Trackpoint>
            <Time>2021-04-03T09:25:35.000Z</Time>
            <Position>
              <LatitudeDegrees>42.29918709956109523773193359375</LatitudeDegrees>
              <LongitudeDegrees>2.559570036828517913818359375</LongitudeDegrees>
            </Position>
            <AltitudeMeters>583.79998779296875</AltitudeMeters>
            <DistanceMeters>NAN</DistanceMeters>
          </Trackpoint>
          <Trackpoint>
            <Time>2021-04-03T09:25:39.000Z</Time>
            <Position>
              <LatitudeDegrees>42.29915591888129711151123046875</LatitudeDegrees>
              <LongitudeDegrees>2.55955352447926998138427734375</LongitudeDegrees>
            </Position>
            <AltitudeMeters>582.79998779296875</AltitudeMeters>
            <DistanceMeters>NAN</DistanceMeters>
          </Trackpoint>
          <Trackpoint>
            <Time>2021-04-03T09:25:40.000Z</Time>
            <Position>
              <LatitudeDegrees>42.29914418421685695648193359375</LatitudeDegrees>
              <LongitudeDegrees>2.55955151282250881195068359375</LongitudeDegrees>
            </Position>
            <AltitudeMeters>582.5999755859375</AltitudeMeters>
            <DistanceMeters>NAN</DistanceMeters>
          </Trackpoint>
          <Trackpoint>
            <Time>2021-04-03T09:25:46.000Z</Time>
            <Position>
              <LatitudeDegrees>42.2991095669567584991455078125</LatitudeDegrees>
              <LongitudeDegrees>2.55952234379947185516357421875</LongitudeDegrees>
            </Position>
            <AltitudeMeters>581.5999755859375</AltitudeMeters>
            <DistanceMeters>NAN</DistanceMeters>
          </Trackpoint>
          <Trackpoint>
            <Time>2021-04-03T09:25:47.000Z</Time>
            <Position>
              <LatitudeDegrees>42.29910579510033130645751953125</LatitudeDegrees>
              <LongitudeDegrees>2.55951832048594951629638671875</LongitudeDegrees>
            </Position>
            <AltitudeMeters>581.5999755859375</AltitudeMeters>
            <DistanceMeters>NAN</DistanceMeters>
          </Trackpoint>
          <Trackpoint>
            <Time>2021-04-03T09:25:48.000Z</Time>
            <Position>
              <LatitudeDegrees>42.2991015203297138214111328125</LatitudeDegrees>
              <LongitudeDegrees>2.55951966159045696258544921875</LongitudeDegrees>
            </Position>
            <AltitudeMeters>581.4000244140625</AltitudeMeters>
            <DistanceMeters>NAN</DistanceMeters>
          </Trackpoint>
          <Trackpoint>
            <Time>2021-04-03T09:25:50.000Z</Time>
            <Position>
              <LatitudeDegrees>42.2990906238555908203125</LatitudeDegrees>
              <LongitudeDegrees>2.55952083505690097808837890625</LongitudeDegrees>
            </Position>
            <AltitudeMeters>581.4000244140625</AltitudeMeters>
            <DistanceMeters>NAN</DistanceMeters>
          </Trackpoint>
          <Trackpoint>
            <Time>2021-04-03T09:25:52.000Z</Time>
            <Position>
              <LatitudeDegrees>42.29907461442053318023681640625</LatitudeDegrees>
              <LongitudeDegrees>2.55950801074504852294921875</LongitudeDegrees>
            </Position>
            <AltitudeMeters>581.20001220703125</AltitudeMeters>
            <DistanceMeters>NAN</DistanceMeters>
          </Trackpoint>
          <Trackpoint>
            <Time>2021-04-03T09:25:53.000Z</Time>
            <Position>
              <LatitudeDegrees>42.29906220920383930206298828125</LatitudeDegrees>
              <LongitudeDegrees>2.5594940967857837677001953125</LongitudeDegrees>
            </Position>
            <AltitudeMeters>581.20001220703125</AltitudeMeters>
            <DistanceMeters>NAN</DistanceMeters>
          </Trackpoint>
          <Trackpoint>
            <Time>2021-04-03T09:25:55.000Z</Time>
            <Position>
              <LatitudeDegrees>42.2990544140338897705078125</LatitudeDegrees>
              <LongitudeDegrees>2.5594438053667545318603515625</LongitudeDegrees>
            </Position>
            <AltitudeMeters>580.4000244140625</AltitudeMeters>
            <DistanceMeters>NAN</DistanceMeters>
          </Trackpoint>
          <Trackpoint>
            <Time>2021-04-03T09:25:59.000Z</Time>
            <Position>
              <LatitudeDegrees>42.2990408353507518768310546875</LatitudeDegrees>
              <LongitudeDegrees>2.5593866407871246337890625</LongitudeDegrees>
            </Position>
            <AltitudeMeters>579.20001220703125</AltitudeMeters>
            <DistanceMeters>NAN</DistanceMeters>
          </Trackpoint>
          <Trackpoint>
            <Time>2021-04-03T09:26:02.000Z</Time>
            <Position>
              <LatitudeDegrees>42.29905768297612667083740234375</LatitudeDegrees>
              <LongitudeDegrees>2.5593324936926364898681640625</LongitudeDegrees>
            </Position>
            <AltitudeMeters>578.4000244140625</AltitudeMeters>
            <DistanceMeters>NAN</DistanceMeters>
          </Trackpoint>
          <Trackpoint>
            <Time>2021-04-03T09:26:05.000Z</Time>
            <Position>
              <LatitudeDegrees>42.29904837906360626220703125</LatitudeDegrees>
              <LongitudeDegrees>2.55930810235440731048583984375</LongitudeDegrees>
            </Position>
            <AltitudeMeters>578</AltitudeMeters>
            <DistanceMeters>NAN</DistanceMeters>
          </Trackpoint>
          <Trackpoint>
            <Time>2021-04-03T09:26:07.000Z</Time>
            <Position>
              <LatitudeDegrees>42.29902734048664569854736328125</LatitudeDegrees>
              <LongitudeDegrees>2.55929318256676197052001953125</LongitudeDegrees>
            </Position>
            <AltitudeMeters>577.4000244140625</AltitudeMeters>
            <DistanceMeters>NAN</DistanceMeters>
          </Trackpoint>
          <Trackpoint>
            <Time>2021-04-03T09:26:08.000Z</Time>
            <Position>
              <LatitudeDegrees>42.29901929385960102081298828125</LatitudeDegrees>
              <LongitudeDegrees>2.5592868961393833160400390625</LongitudeDegrees>
            </Position>
            <AltitudeMeters>577.4000244140625</AltitudeMeters>
            <DistanceMeters>NAN</DistanceMeters>
          </Trackpoint>
          <Trackpoint>
            <Time>2021-04-03T09:26:11.000Z</Time>
            <Position>
              <LatitudeDegrees>42.299001105129718780517578125</LatitudeDegrees>
              <LongitudeDegrees>2.559272982180118560791015625</LongitudeDegrees>
            </Position>
            <AltitudeMeters>576.79998779296875</AltitudeMeters>
            <DistanceMeters>NAN</DistanceMeters>
          </Trackpoint>
          <Trackpoint>
            <Time>2021-04-03T09:26:15.000Z</Time>
            <Position>
              <LatitudeDegrees>42.29895927943289279937744140625</LatitudeDegrees>
              <LongitudeDegrees>2.55927138961851596832275390625</LongitudeDegrees>
            </Position>
            <AltitudeMeters>576.20001220703125</AltitudeMeters>
            <DistanceMeters>NAN</DistanceMeters>
          </Trackpoint>
          <Trackpoint>
            <Time>2021-04-03T09:26:18.000Z</Time>
            <Position>
              <LatitudeDegrees>42.2989305295050144195556640625</LatitudeDegrees>
              <LongitudeDegrees>2.559270299971103668212890625</LongitudeDegrees>
            </Position>
            <AltitudeMeters>575.79998779296875</AltitudeMeters>
            <DistanceMeters>NAN</DistanceMeters>
          </Trackpoint>
          <Trackpoint>
            <Time>2021-04-03T09:26:22.000Z</Time>
            <Position>
              <LatitudeDegrees>42.29889146983623504638671875</LatitudeDegrees>
              <LongitudeDegrees>2.559268958866596221923828125</LongitudeDegrees>
            </Position>
            <AltitudeMeters>575</AltitudeMeters>
            <DistanceMeters>NAN</DistanceMeters>
          </Trackpoint>
          <Trackpoint>
            <Time>2021-04-03T09:26:23.000Z</Time>
            <Position>
              <LatitudeDegrees>42.29888618923723697662353515625</LatitudeDegrees>
              <LongitudeDegrees>2.5592634268105030059814453125</LongitudeDegrees>
            </Position>
            <AltitudeMeters>574.5999755859375</AltitudeMeters>
            <DistanceMeters>NAN</DistanceMeters>
          </Trackpoint>
          <Trackpoint>
            <Time>2021-04-03T09:26:26.000Z</Time>
            <Position>
              <LatitudeDegrees>42.29885132052004337310791015625</LatitudeDegrees>
              <LongitudeDegrees>2.559256218373775482177734375</LongitudeDegrees>
            </Position>
            <AltitudeMeters>574</AltitudeMeters>
            <DistanceMeters>NAN</DistanceMeters>
          </Trackpoint>
          <Trackpoint>
            <Time>2021-04-03T09:26:28.000Z</Time>
            <Position>
              <LatitudeDegrees>42.29882315732538700103759765625</LatitudeDegrees>
              <LongitudeDegrees>2.55924641154706478118896484375</LongitudeDegrees>
            </Position>
            <AltitudeMeters>573.79998779296875</AltitudeMeters>
            <DistanceMeters>NAN</DistanceMeters>
          </Trackpoint>
          <Trackpoint>
            <Time>2021-04-03T09:26:30.000Z</Time>
            <Position>
              <LatitudeDegrees>42.29880304075777530670166015625</LatitudeDegrees>
              <LongitudeDegrees>2.55922679789364337921142578125</LongitudeDegrees>
            </Position>
            <AltitudeMeters>573.5999755859375</AltitudeMeters>
            <DistanceMeters>NAN</DistanceMeters>
          </Trackpoint>
          <Trackpoint>
            <Time>2021-04-03T09:26:36.000Z</Time>
            <Position>
              <LatitudeDegrees>42.298753671348094940185546875</LatitudeDegrees>
              <LongitudeDegrees>2.55917080678045749664306640625</LongitudeDegrees>
            </Position>
            <AltitudeMeters>573</AltitudeMeters>
            <DistanceMeters>NAN</DistanceMeters>
          </Trackpoint>
          <Trackpoint>
            <Time>2021-04-03T09:26:41.000Z</Time>
            <Position>
              <LatitudeDegrees>42.2987193055450916290283203125</LatitudeDegrees>
              <LongitudeDegrees>2.55913157947361469268798828125</LongitudeDegrees>
            </Position>
            <AltitudeMeters>572.4000244140625</AltitudeMeters>
            <DistanceMeters>NAN</DistanceMeters>
          </Trackpoint>
          <Trackpoint>
            <Time>2021-04-03T09:26:42.000Z</Time>
            <Position>
              <LatitudeDegrees>42.2987172938883304595947265625</LatitudeDegrees>
              <LongitudeDegrees>2.559119760990142822265625</LongitudeDegrees>
            </Position>
            <AltitudeMeters>572.20001220703125</AltitudeMeters>
            <DistanceMeters>NAN</DistanceMeters>
          </Trackpoint>
          <Trackpoint>
            <Time>2021-04-03T09:26:49.000Z</Time>
            <Position>
              <LatitudeDegrees>42.29867580346763134002685546875</LatitudeDegrees>
              <LongitudeDegrees>2.55905748344957828521728515625</LongitudeDegrees>
            </Position>
            <AltitudeMeters>571.20001220703125</AltitudeMeters>
            <DistanceMeters>NAN</DistanceMeters>
          </Trackpoint>
          <Trackpoint>
            <Time>2021-04-03T09:26:50.000Z</Time>
            <Position>
              <LatitudeDegrees>42.298667840659618377685546875</LatitudeDegrees>
              <LongitudeDegrees>2.55904474295675754547119140625</LongitudeDegrees>
            </Position>
            <AltitudeMeters>571</AltitudeMeters>
            <DistanceMeters>NAN</DistanceMeters>
          </Trackpoint>
          <Trackpoint>
            <Time>2021-04-03T09:26:57.000Z</Time>
            <Position>
              <LatitudeDegrees>42.29861897416412830352783203125</LatitudeDegrees>
              <LongitudeDegrees>2.5590035878121852874755859375</LongitudeDegrees>
            </Position>
            <AltitudeMeters>570.4000244140625</AltitudeMeters>
            <DistanceMeters>NAN</DistanceMeters>
          </Trackpoint>
          <Trackpoint>
            <Time>2021-04-03T09:26:59.000Z</Time>
            <Position>
              <LatitudeDegrees>42.29860606603324413299560546875</LatitudeDegrees>
              <LongitudeDegrees>2.558987326920032501220703125</LongitudeDegrees>
            </Position>
            <AltitudeMeters>570</AltitudeMeters>
            <DistanceMeters>NAN</DistanceMeters>
          </Trackpoint>
          <Trackpoint>
            <Time>2021-04-03T09:27:01.000Z</Time>
            <Position>
              <LatitudeDegrees>42.29857899248600006103515625</LatitudeDegrees>
              <LongitudeDegrees>2.5589757598936557769775390625</LongitudeDegrees>
            </Position>
            <AltitudeMeters>569.79998779296875</AltitudeMeters>
            <DistanceMeters>NAN</DistanceMeters>
          </Trackpoint>
          <Trackpoint>
            <Time>2021-04-03T09:27:03.000Z</Time>
            <Position>
              <LatitudeDegrees>42.29855895973742008209228515625</LatitudeDegrees>
              <LongitudeDegrees>2.558955810964107513427734375</LongitudeDegrees>
            </Position>
            <AltitudeMeters>569.5999755859375</AltitudeMeters>
            <DistanceMeters>NAN</DistanceMeters>
          </Trackpoint>
          <Trackpoint>
            <Time>2021-04-03T09:27:07.000Z</Time>
            <Position>
              <LatitudeDegrees>42.2985161282122135162353515625</LatitudeDegrees>
              <LongitudeDegrees>2.55890719592571258544921875</LongitudeDegrees>
            </Position>
            <AltitudeMeters>569</AltitudeMeters>
            <DistanceMeters>NAN</DistanceMeters>
          </Trackpoint>
          <Trackpoint>
            <Time>2021-04-03T09:27:08.000Z</Time>
            <Position>
              <LatitudeDegrees>42.2985084168612957000732421875</LatitudeDegrees>
              <LongitudeDegrees>2.5588986463844776153564453125</LongitudeDegrees>
            </Position>
            <AltitudeMeters>569</AltitudeMeters>
            <DistanceMeters>NAN</DistanceMeters>
          </Trackpoint>
          <Trackpoint>
            <Time>2021-04-03T09:27:09.000Z</Time>
            <Position>
              <LatitudeDegrees>42.2985077463090419769287109375</LatitudeDegrees>
              <LongitudeDegrees>2.55888297222554683685302734375</LongitudeDegrees>
            </Position>
            <AltitudeMeters>568.79998779296875</AltitudeMeters>
            <DistanceMeters>NAN</DistanceMeters>
          </Trackpoint>
          <Trackpoint>
            <Time>2021-04-03T09:27:10.000Z</Time>
            <Position>
              <LatitudeDegrees>42.29850129224359989166259765625</LatitudeDegrees>
              <LongitudeDegrees>2.558867298066616058349609375</LongitudeDegrees>
            </Position>
            <AltitudeMeters>568.5999755859375</AltitudeMeters>
            <DistanceMeters>NAN</DistanceMeters>
          </Trackpoint>
          <Trackpoint>
            <Time>2021-04-03T09:27:16.000Z</Time>
            <Position>
              <LatitudeDegrees>42.29846055619418621063232421875</LatitudeDegrees>
              <LongitudeDegrees>2.55882346071302890777587890625</LongitudeDegrees>
            </Position>
            <AltitudeMeters>568.20001220703125</AltitudeMeters>
            <DistanceMeters>NAN</DistanceMeters>
          </Trackpoint>
          <Trackpoint>
            <Time>2021-04-03T09:27:18.000Z</Time>
            <Position>
              <LatitudeDegrees>42.2984450496733188629150390625</LatitudeDegrees>
              <LongitudeDegrees>2.5588205270469188690185546875</LongitudeDegrees>
            </Position>
            <AltitudeMeters>568</AltitudeMeters>
            <DistanceMeters>NAN</DistanceMeters>
          </Trackpoint>
          <Trackpoint>
            <Time>2021-04-03T09:27:20.000Z</Time>
            <Position>
              <LatitudeDegrees>42.29843591339886188507080078125</LatitudeDegrees>
              <LongitudeDegrees>2.55881340242922306060791015625</LongitudeDegrees>
            </Position>
            <AltitudeMeters>567.79998779296875</AltitudeMeters>
            <DistanceMeters>NAN</DistanceMeters>
          </Trackpoint>
          <Trackpoint>
            <Time>2021-04-03T09:27:22.000Z</Time>
            <Position>
              <LatitudeDegrees>42.298421077430248260498046875</LatitudeDegrees>
              <LongitudeDegrees>2.5587967224419116973876953125</LongitudeDegrees>
            </Position>
            <AltitudeMeters>567.79998779296875</AltitudeMeters>
            <DistanceMeters>NAN</DistanceMeters>
          </Trackpoint>
          <Trackpoint>
            <Time>2021-04-03T09:27:24.000Z</Time>
            <Position>
              <LatitudeDegrees>42.2984064929187297821044921875</LatitudeDegrees>
              <LongitudeDegrees>2.55877308547496795654296875</LongitudeDegrees>
            </Position>
            <AltitudeMeters>567.5999755859375</AltitudeMeters>
            <DistanceMeters>NAN</DistanceMeters>
          </Trackpoint>
          <Trackpoint>
            <Time>2021-04-03T09:27:28.000Z</Time>
            <Position>
              <LatitudeDegrees>42.298363409936428070068359375</LatitudeDegrees>
              <LongitudeDegrees>2.558746598660945892333984375</LongitudeDegrees>
            </Position>
            <AltitudeMeters>566.79998779296875</AltitudeMeters>
            <DistanceMeters>NAN</DistanceMeters>
          </Trackpoint>
          <Trackpoint>
            <Time>2021-04-03T09:27:34.000Z</Time>
            <Position>
              <LatitudeDegrees>42.2983193211257457733154296875</LatitudeDegrees>
              <LongitudeDegrees>2.5586817227303981781005859375</LongitudeDegrees>
            </Position>
            <AltitudeMeters>565.79998779296875</AltitudeMeters>
            <DistanceMeters>NAN</DistanceMeters>
          </Trackpoint>
          <Trackpoint>
            <Time>2021-04-03T09:27:35.000Z</Time>
            <Position>
              <LatitudeDegrees>42.29831345379352569580078125</LatitudeDegrees>
              <LongitudeDegrees>2.558675520122051239013671875</LongitudeDegrees>
            </Position>
            <AltitudeMeters>565.79998779296875</AltitudeMeters>
            <DistanceMeters>NAN</DistanceMeters>
          </Trackpoint>
          <Trackpoint>
            <Time>2021-04-03T09:27:38.000Z</Time>
            <Position>
              <LatitudeDegrees>42.2983015514910221099853515625</LatitudeDegrees>
              <LongitudeDegrees>2.55865230225026607513427734375</LongitudeDegrees>
            </Position>
            <AltitudeMeters>565.4000244140625</AltitudeMeters>
            <DistanceMeters>NAN</DistanceMeters>
          </Trackpoint>
          <Trackpoint>
            <Time>2021-04-03T09:27:41.000Z</Time>
            <Position>
              <LatitudeDegrees>42.2982846200466156005859375</LatitudeDegrees>
              <LongitudeDegrees>2.55862581543624401092529296875</LongitudeDegrees>
            </Position>
            <AltitudeMeters>564.79998779296875</AltitudeMeters>
            <DistanceMeters>NAN</DistanceMeters>
          </Trackpoint>
          <Trackpoint>
            <Time>2021-04-03T09:27:42.000Z</Time>
            <Position>
              <LatitudeDegrees>42.29827749542891979217529296875</LatitudeDegrees>
              <LongitudeDegrees>2.558617182075977325439453125</LongitudeDegrees>
            </Position>
            <AltitudeMeters>564.4000244140625</AltitudeMeters>
            <DistanceMeters>NAN</DistanceMeters>
          </Trackpoint>
          <Trackpoint>
            <Time>2021-04-03T09:27:46.000Z</Time>
            <Position>
              <LatitudeDegrees>42.298256456851959228515625</LatitudeDegrees>
              <LongitudeDegrees>2.5585814751684665679931640625</LongitudeDegrees>
            </Position>
            <AltitudeMeters>563.5999755859375</AltitudeMeters>
            <DistanceMeters>NAN</DistanceMeters>
          </Trackpoint>
          <Trackpoint>
            <Time>2021-04-03T09:27:47.000Z</Time>
            <Position>
              <LatitudeDegrees>42.29825017042458057403564453125</LatitudeDegrees>
              <LongitudeDegrees>2.55857099778950214385986328125</LongitudeDegrees>
            </Position>
            <AltitudeMeters>563.4000244140625</AltitudeMeters>
            <DistanceMeters>NAN</DistanceMeters>
          </Trackpoint>
          <Trackpoint>
            <Time>2021-04-03T09:27:50.000Z</Time>
            <Position>
              <LatitudeDegrees>42.29823340661823749542236328125</LatitudeDegrees>
              <LongitudeDegrees>2.558535039424896240234375</LongitudeDegrees>
            </Position>
            <AltitudeMeters>562.4000244140625</AltitudeMeters>
            <DistanceMeters>NAN</DistanceMeters>
          </Trackpoint>
          <Trackpoint>
            <Time>2021-04-03T09:27:52.000Z</Time>
            <Position>
              <LatitudeDegrees>42.29822016321122646331787109375</LatitudeDegrees>
              <LongitudeDegrees>2.5585127435624599456787109375</LongitudeDegrees>
            </Position>
            <AltitudeMeters>561.79998779296875</AltitudeMeters>
            <DistanceMeters>NAN</DistanceMeters>
          </Trackpoint>
          <Trackpoint>
            <Time>2021-04-03T09:27:54.000Z</Time>
            <Position>
              <LatitudeDegrees>42.2982053272426128387451171875</LatitudeDegrees>
              <LongitudeDegrees>2.55848885513842105865478515625</LongitudeDegrees>
            </Position>
            <AltitudeMeters>561.5999755859375</AltitudeMeters>
            <DistanceMeters>NAN</DistanceMeters>
          </Trackpoint>
          <Trackpoint>
            <Time>2021-04-03T09:27:56.000Z</Time>
            <Position>
              <LatitudeDegrees>42.29818764142692089080810546875</LatitudeDegrees>
              <LongitudeDegrees>2.5584785453975200653076171875</LongitudeDegrees>
            </Position>
            <AltitudeMeters>561.20001220703125</AltitudeMeters>
            <DistanceMeters>NAN</DistanceMeters>
          </Trackpoint>
          <Trackpoint>
            <Time>2021-04-03T09:27:57.000Z</Time>
            <Position>
              <LatitudeDegrees>42.29817322455346584320068359375</LatitudeDegrees>
              <LongitudeDegrees>2.55848072469234466552734375</LongitudeDegrees>
            </Position>
            <AltitudeMeters>561.20001220703125</AltitudeMeters>
            <DistanceMeters>NAN</DistanceMeters>
          </Trackpoint>
          <Trackpoint>
            <Time>2021-04-03T09:27:59.000Z</Time>
            <Position>
              <LatitudeDegrees>42.2981443069875240325927734375</LatitudeDegrees>
              <LongitudeDegrees>2.558483071625232696533203125</LongitudeDegrees>
            </Position>
            <AltitudeMeters>560</AltitudeMeters>
            <DistanceMeters>NAN</DistanceMeters>
          </Trackpoint>
          <Trackpoint>
            <Time>2021-04-03T09:28:02.000Z</Time>
            <Position>
              <LatitudeDegrees>42.29810549877583980560302734375</LatitudeDegrees>
              <LongitudeDegrees>2.5584601052105426788330078125</LongitudeDegrees>
            </Position>
            <AltitudeMeters>559.20001220703125</AltitudeMeters>
            <DistanceMeters>NAN</DistanceMeters>
          </Trackpoint>
          <Trackpoint>
            <Time>2021-04-03T09:28:04.000Z</Time>
            <Position>
              <LatitudeDegrees>42.29808722622692584991455078125</LatitudeDegrees>
              <LongitudeDegrees>2.5584285892546176910400390625</LongitudeDegrees>
            </Position>
            <AltitudeMeters>559</AltitudeMeters>
            <DistanceMeters>NAN</DistanceMeters>
          </Trackpoint>
          <Trackpoint>
            <Time>2021-04-03T09:28:05.000Z</Time>
            <Position>
              <LatitudeDegrees>42.29808202944695949554443359375</LatitudeDegrees>
              <LongitudeDegrees>2.5584108196198940277099609375</LongitudeDegrees>
            </Position>
            <AltitudeMeters>559</AltitudeMeters>
            <DistanceMeters>NAN</DistanceMeters>
          </Trackpoint>
          <Trackpoint>
            <Time>2021-04-03T09:28:10.000Z</Time>
            <Position>
              <LatitudeDegrees>42.29804523289203643798828125</LatitudeDegrees>
              <LongitudeDegrees>2.55830529145896434783935546875</LongitudeDegrees>
            </Position>
            <AltitudeMeters>558</AltitudeMeters>
            <DistanceMeters>NAN</DistanceMeters>
          </Trackpoint>
          <Trackpoint>
            <Time>2021-04-03T09:28:16.000Z</Time>
            <Position>
              <LatitudeDegrees>42.298020087182521820068359375</LatitudeDegrees>
              <LongitudeDegrees>2.55819817073643207550048828125</LongitudeDegrees>
            </Position>
            <AltitudeMeters>556.79998779296875</AltitudeMeters>
            <DistanceMeters>NAN</DistanceMeters>
          </Trackpoint>
          <Trackpoint>
            <Time>2021-04-03T09:28:17.000Z</Time>
            <Position>
              <LatitudeDegrees>42.29801882989704608917236328125</LatitudeDegrees>
              <LongitudeDegrees>2.55818174220621585845947265625</LongitudeDegrees>
            </Position>
            <AltitudeMeters>556.5999755859375</AltitudeMeters>
            <DistanceMeters>NAN</DistanceMeters>
          </Trackpoint>
          <Trackpoint>
            <Time>2021-04-03T09:28:19.000Z</Time>
            <Position>
              <LatitudeDegrees>42.2980137169361114501953125</LatitudeDegrees>
              <LongitudeDegrees>2.5581546686589717864990234375</LongitudeDegrees>
            </Position>
            <AltitudeMeters>556.4000244140625</AltitudeMeters>
            <DistanceMeters>NAN</DistanceMeters>
          </Trackpoint>
          <Trackpoint>
            <Time>2021-04-03T09:28:24.000Z</Time>
            <Position>
              <LatitudeDegrees>42.29798060841858386993408203125</LatitudeDegrees>
              <LongitudeDegrees>2.5581000186502933502197265625</LongitudeDegrees>
            </Position>
            <AltitudeMeters>556</AltitudeMeters>
            <DistanceMeters>NAN</DistanceMeters>
          </Trackpoint>
          <Trackpoint>
            <Time>2021-04-03T09:28:26.000Z</Time>
            <Position>
              <LatitudeDegrees>42.29796208441257476806640625</LatitudeDegrees>
              <LongitudeDegrees>2.5580819137394428253173828125</LongitudeDegrees>
            </Position>
            <AltitudeMeters>555.5999755859375</AltitudeMeters>
            <DistanceMeters>NAN</DistanceMeters>
          </Trackpoint>
          <Trackpoint>
            <Time>2021-04-03T09:28:29.000Z</Time>
            <Position>
              <LatitudeDegrees>42.2979441471397876739501953125</LatitudeDegrees>
              <LongitudeDegrees>2.55804612301290035247802734375</LongitudeDegrees>
            </Position>
            <AltitudeMeters>555.20001220703125</AltitudeMeters>
            <DistanceMeters>NAN</DistanceMeters>
          </Trackpoint>
          <Trackpoint>
            <Time>2021-04-03T09:28:32.000Z</Time>
            <Position>
              <LatitudeDegrees>42.297923862934112548828125</LatitudeDegrees>
              <LongitudeDegrees>2.5580011121928691864013671875</LongitudeDegrees>
            </Position>
            <AltitudeMeters>554.5999755859375</AltitudeMeters>
            <DistanceMeters>NAN</DistanceMeters>
          </Trackpoint>
          <Trackpoint>
            <Time>2021-04-03T09:28:34.000Z</Time>
            <Position>
              <LatitudeDegrees>42.29790701530873775482177734375</LatitudeDegrees>
              <LongitudeDegrees>2.5579809956252574920654296875</LongitudeDegrees>
            </Position>
            <AltitudeMeters>554.4000244140625</AltitudeMeters>
            <DistanceMeters>NAN</DistanceMeters>
          </Trackpoint>
          <Trackpoint>
            <Time>2021-04-03T09:28:35.000Z</Time>
            <Position>
              <LatitudeDegrees>42.2978995554149150848388671875</LatitudeDegrees>
              <LongitudeDegrees>2.55797504447400569915771484375</LongitudeDegrees>
            </Position>
            <AltitudeMeters>554.4000244140625</AltitudeMeters>
            <DistanceMeters>NAN</DistanceMeters>
          </Trackpoint>
          <Trackpoint>
            <Time>2021-04-03T09:28:38.000Z</Time>
            <Position>
              <LatitudeDegrees>42.297875583171844482421875</LatitudeDegrees>
              <LongitudeDegrees>2.557956688106060028076171875</LongitudeDegrees>
            </Position>
            <AltitudeMeters>554</AltitudeMeters>
            <DistanceMeters>NAN</DistanceMeters>
          </Trackpoint>
          <Trackpoint>
            <Time>2021-04-03T09:28:40.000Z</Time>
            <Position>
              <LatitudeDegrees>42.29786644689738750457763671875</LatitudeDegrees>
              <LongitudeDegrees>2.5579369068145751953125</LongitudeDegrees>
            </Position>
            <AltitudeMeters>553.79998779296875</AltitudeMeters>
            <DistanceMeters>NAN</DistanceMeters>
          </Trackpoint>
          <Trackpoint>
            <Time>2021-04-03T09:28:43.000Z</Time>
            <Position>
              <LatitudeDegrees>42.2978432290256023406982421875</LatitudeDegrees>
              <LongitudeDegrees>2.5579055584967136383056640625</LongitudeDegrees>
            </Position>
            <AltitudeMeters>553.5999755859375</AltitudeMeters>
            <DistanceMeters>NAN</DistanceMeters>
          </Trackpoint>
          <Trackpoint>
            <Time>2021-04-03T09:28:45.000Z</Time>
            <Position>
              <LatitudeDegrees>42.2978328354656696319580078125</LatitudeDegrees>
              <LongitudeDegrees>2.5578827597200870513916015625</LongitudeDegrees>
            </Position>
            <AltitudeMeters>553.5999755859375</AltitudeMeters>
            <DistanceMeters>NAN</DistanceMeters>
          </Trackpoint>
          <Trackpoint>
            <Time>2021-04-03T09:28:46.000Z</Time>
            <Position>
              <LatitudeDegrees>42.2978278063237667083740234375</LatitudeDegrees>
              <LongitudeDegrees>2.557868175208568572998046875</LongitudeDegrees>
            </Position>
            <AltitudeMeters>553.4000244140625</AltitudeMeters>
            <DistanceMeters>NAN</DistanceMeters>
          </Trackpoint>
          <Trackpoint>
            <Time>2021-04-03T09:28:47.000Z</Time>
            <Position>
              <LatitudeDegrees>42.29782671667635440826416015625</LatitudeDegrees>
              <LongitudeDegrees>2.5578462146222591400146484375</LongitudeDegrees>
            </Position>
            <AltitudeMeters>553.4000244140625</AltitudeMeters>
            <DistanceMeters>NAN</DistanceMeters>
          </Trackpoint>
          <Trackpoint>
            <Time>2021-04-03T09:28:48.000Z</Time>
            <Position>
              <LatitudeDegrees>42.297826968133449554443359375</LatitudeDegrees>
              <LongitudeDegrees>2.5578227452933788299560546875</LongitudeDegrees>
            </Position>
            <AltitudeMeters>553.20001220703125</AltitudeMeters>
            <DistanceMeters>NAN</DistanceMeters>
          </Trackpoint>
          <Trackpoint>
            <Time>2021-04-03T09:28:53.000Z</Time>
            <Position>
              <LatitudeDegrees>42.29781799949705600738525390625</LatitudeDegrees>
              <LongitudeDegrees>2.5577399320900440216064453125</LongitudeDegrees>
            </Position>
            <AltitudeMeters>553.20001220703125</AltitudeMeters>
            <DistanceMeters>NAN</DistanceMeters>
          </Trackpoint>
          <Trackpoint>
            <Time>2021-04-03T09:28:56.000Z</Time>
            <Position>
              <LatitudeDegrees>42.2978066839277744293212890625</LatitudeDegrees>
              <LongitudeDegrees>2.5577003695070743560791015625</LongitudeDegrees>
            </Position>
            <AltitudeMeters>553</AltitudeMeters>
            <DistanceMeters>NAN</DistanceMeters>
          </Trackpoint>
          <Trackpoint>
            <Time>2021-04-03T09:28:57.000Z</Time>
            <Position>
              <LatitudeDegrees>42.297804839909076690673828125</LatitudeDegrees>
              <LongitudeDegrees>2.55768637172877788543701171875</LongitudeDegrees>
            </Position>
            <AltitudeMeters>552.79998779296875</AltitudeMeters>
            <DistanceMeters>NAN</DistanceMeters>
          </Trackpoint>
          <Trackpoint>
            <Time>2021-04-03T09:28:59.000Z</Time>
            <Position>
              <LatitudeDegrees>42.29780324734747409820556640625</LatitudeDegrees>
              <LongitudeDegrees>2.55766307003796100616455078125</LongitudeDegrees>
            </Position>
            <AltitudeMeters>552.5999755859375</AltitudeMeters>
            <DistanceMeters>NAN</DistanceMeters>
          </Trackpoint>
          <Trackpoint>
            <Time>2021-04-03T09:29:00.000Z</Time>
            <Position>
              <LatitudeDegrees>42.297801487147808074951171875</LatitudeDegrees>
              <LongitudeDegrees>2.5576507486402988433837890625</LongitudeDegrees>
            </Position>
            <AltitudeMeters>552.4000244140625</AltitudeMeters>
            <DistanceMeters>NAN</DistanceMeters>
          </Trackpoint>
          <Trackpoint>
            <Time>2021-04-03T09:29:04.000Z</Time>
            <Position>
              <LatitudeDegrees>42.29779033921658992767333984375</LatitudeDegrees>
              <LongitudeDegrees>2.55758545361459255218505859375</LongitudeDegrees>
            </Position>
            <AltitudeMeters>552.20001220703125</AltitudeMeters>
            <DistanceMeters>NAN</DistanceMeters>
          </Trackpoint>
          <Trackpoint>
            <Time>2021-04-03T09:29:11.000Z</Time>
            <Position>
              <LatitudeDegrees>42.297783382236957550048828125</LatitudeDegrees>
              <LongitudeDegrees>2.55749006755650043487548828125</LongitudeDegrees>
            </Position>
            <AltitudeMeters>551.79998779296875</AltitudeMeters>
            <DistanceMeters>NAN</DistanceMeters>
          </Trackpoint>
          <Trackpoint>
            <Time>2021-04-03T09:29:12.000Z</Time>
            <Position>
              <LatitudeDegrees>42.29777994565665721893310546875</LatitudeDegrees>
              <LongitudeDegrees>2.557473219931125640869140625</LongitudeDegrees>
            </Position>
            <AltitudeMeters>551.79998779296875</AltitudeMeters>
            <DistanceMeters>NAN</DistanceMeters>
          </Trackpoint>
          <Trackpoint>
            <Time>2021-04-03T09:29:13.000Z</Time>
            <Position>
              <LatitudeDegrees>42.29778547771275043487548828125</LatitudeDegrees>
              <LongitudeDegrees>2.55745117552578449249267578125</LongitudeDegrees>
            </Position>
            <AltitudeMeters>551.79998779296875</AltitudeMeters>
            <DistanceMeters>NAN</DistanceMeters>
          </Trackpoint>
          <Trackpoint>
            <Time>2021-04-03T09:29:18.000Z</Time>
            <Position>
              <LatitudeDegrees>42.2977926023304462432861328125</LatitudeDegrees>
              <LongitudeDegrees>2.5573258660733699798583984375</LongitudeDegrees>
            </Position>
            <AltitudeMeters>551.4000244140625</AltitudeMeters>
            <DistanceMeters>NAN</DistanceMeters>
          </Trackpoint>
          <Trackpoint>
            <Time>2021-04-03T09:29:19.000Z</Time>
            <Position>
              <LatitudeDegrees>42.29779872111976146697998046875</LatitudeDegrees>
              <LongitudeDegrees>2.557306587696075439453125</LongitudeDegrees>
            </Position>
            <AltitudeMeters>551.4000244140625</AltitudeMeters>
            <DistanceMeters>NAN</DistanceMeters>
          </Trackpoint>
          <Trackpoint>
            <Time>2021-04-03T09:29:29.000Z</Time>
            <Position>
              <LatitudeDegrees>42.297807522118091583251953125</LatitudeDegrees>
              <LongitudeDegrees>2.5571711361408233642578125</LongitudeDegrees>
            </Position>
            <AltitudeMeters>550.5999755859375</AltitudeMeters>
            <DistanceMeters>NAN</DistanceMeters>
          </Trackpoint>
          <Trackpoint>
            <Time>2021-04-03T09:29:31.000Z</Time>
            <Position>
              <LatitudeDegrees>42.29780073277652263641357421875</LatitudeDegrees>
              <LongitudeDegrees>2.55714054219424724578857421875</LongitudeDegrees>
            </Position>
            <AltitudeMeters>550.5999755859375</AltitudeMeters>
            <DistanceMeters>NAN</DistanceMeters>
          </Trackpoint>
          <Trackpoint>
            <Time>2021-04-03T09:29:34.000Z</Time>
            <Position>
              <LatitudeDegrees>42.297781370580196380615234375</LatitudeDegrees>
              <LongitudeDegrees>2.55709578283131122589111328125</LongitudeDegrees>
            </Position>
            <AltitudeMeters>550.4000244140625</AltitudeMeters>
            <DistanceMeters>NAN</DistanceMeters>
          </Trackpoint>
          <Trackpoint>
            <Time>2021-04-03T09:29:37.000Z</Time>
            <Position>
              <LatitudeDegrees>42.29776360094547271728515625</LatitudeDegrees>
              <LongitudeDegrees>2.55706510506570339202880859375</LongitudeDegrees>
            </Position>
            <AltitudeMeters>550.20001220703125</AltitudeMeters>
            <DistanceMeters>NAN</DistanceMeters>
          </Trackpoint>
          <Trackpoint>
            <Time>2021-04-03T09:29:42.000Z</Time>
            <Position>
              <LatitudeDegrees>42.2977567277848720550537109375</LatitudeDegrees>
              <LongitudeDegrees>2.556979358196258544921875</LongitudeDegrees>
            </Position>
            <AltitudeMeters>549.79998779296875</AltitudeMeters>
            <DistanceMeters>NAN</DistanceMeters>
          </Trackpoint>
          <Trackpoint>
            <Time>2021-04-03T09:29:44.000Z</Time>
            <Position>
              <LatitudeDegrees>42.29775127954781055450439453125</LatitudeDegrees>
              <LongitudeDegrees>2.55694725550711154937744140625</LongitudeDegrees>
            </Position>
            <AltitudeMeters>549.79998779296875</AltitudeMeters>
            <DistanceMeters>NAN</DistanceMeters>
          </Trackpoint>
          <Trackpoint>
            <Time>2021-04-03T09:29:50.000Z</Time>
            <Position>
              <LatitudeDegrees>42.2977285645902156829833984375</LatitudeDegrees>
              <LongitudeDegrees>2.55686310119926929473876953125</LongitudeDegrees>
            </Position>
            <AltitudeMeters>549.4000244140625</AltitudeMeters>
            <DistanceMeters>NAN</DistanceMeters>
          </Trackpoint>
          <Trackpoint>
            <Time>2021-04-03T09:29:51.000Z</Time>
            <Position>
              <LatitudeDegrees>42.29772512800991535186767578125</LatitudeDegrees>
              <LongitudeDegrees>2.5568541325628757476806640625</LongitudeDegrees>
            </Position>
            <AltitudeMeters>549.20001220703125</AltitudeMeters>
            <DistanceMeters>NAN</DistanceMeters>
          </Trackpoint>
          <Trackpoint>
            <Time>2021-04-03T09:29:52.000Z</Time>
            <Position>
              <LatitudeDegrees>42.2977201826870441436767578125</LatitudeDegrees>
              <LongitudeDegrees>2.55684767849743366241455078125</LongitudeDegrees>
            </Position>
            <AltitudeMeters>549.20001220703125</AltitudeMeters>
            <DistanceMeters>NAN</DistanceMeters>
          </Trackpoint>
          <Trackpoint>
            <Time>2021-04-03T09:29:56.000Z</Time>
            <Position>
              <LatitudeDegrees>42.29770987294614315032958984375</LatitudeDegrees>
              <LongitudeDegrees>2.55679537542164325714111328125</LongitudeDegrees>
            </Position>
            <AltitudeMeters>548.79998779296875</AltitudeMeters>
            <DistanceMeters>NAN</DistanceMeters>
          </Trackpoint>
          <Trackpoint>
            <Time>2021-04-03T09:30:04.000Z</Time>
            <Position>
              <LatitudeDegrees>42.29769160039722919464111328125</LatitudeDegrees>
              <LongitudeDegrees>2.55669345147907733917236328125</LongitudeDegrees>
            </Position>
            <AltitudeMeters>548.5999755859375</AltitudeMeters>
            <DistanceMeters>NAN</DistanceMeters>
          </Trackpoint>
          <Trackpoint>
            <Time>2021-04-03T09:30:10.000Z</Time>
            <Position>
              <LatitudeDegrees>42.297672741115093231201171875</LatitudeDegrees>
              <LongitudeDegrees>2.55661164410412311553955078125</LongitudeDegrees>
            </Position>
            <AltitudeMeters>548.4000244140625</AltitudeMeters>
            <DistanceMeters>NAN</DistanceMeters>
          </Trackpoint>
          <Trackpoint>
            <Time>2021-04-03T09:30:11.000Z</Time>
            <Position>
              <LatitudeDegrees>42.29766645468771457672119140625</LatitudeDegrees>
              <LongitudeDegrees>2.5565979816019535064697265625</LongitudeDegrees>
            </Position>
            <AltitudeMeters>548</AltitudeMeters>
            <DistanceMeters>NAN</DistanceMeters>
          </Trackpoint>
          <Trackpoint>
            <Time>2021-04-03T09:30:14.000Z</Time>
            <Position>
              <LatitudeDegrees>42.2976457513868808746337890625</LatitudeDegrees>
              <LongitudeDegrees>2.556559257209300994873046875</LongitudeDegrees>
            </Position>
            <AltitudeMeters>547.5999755859375</AltitudeMeters>
            <DistanceMeters>NAN</DistanceMeters>
          </Trackpoint>
          <Trackpoint>
            <Time>2021-04-03T09:30:16.000Z</Time>
            <Position>
              <LatitudeDegrees>42.2976373694837093353271484375</LatitudeDegrees>
              <LongitudeDegrees>2.5565295852720737457275390625</LongitudeDegrees>
            </Position>
            <AltitudeMeters>547.4000244140625</AltitudeMeters>
            <DistanceMeters>NAN</DistanceMeters>
          </Trackpoint>
          <Trackpoint>
            <Time>2021-04-03T09:30:17.000Z</Time>
            <Position>
              <LatitudeDegrees>42.29763410054147243499755859375</LatitudeDegrees>
              <LongitudeDegrees>2.55650921724736690521240234375</LongitudeDegrees>
            </Position>
            <AltitudeMeters>547.4000244140625</AltitudeMeters>
            <DistanceMeters>NAN</DistanceMeters>
          </Trackpoint>
          <Trackpoint>
            <Time>2021-04-03T09:30:19.000Z</Time>
            <Position>
              <LatitudeDegrees>42.29762689210474491119384765625</LatitudeDegrees>
              <LongitudeDegrees>2.55647711455821990966796875</LongitudeDegrees>
            </Position>
            <AltitudeMeters>547.4000244140625</AltitudeMeters>
            <DistanceMeters>NAN</DistanceMeters>
          </Trackpoint>
          <Trackpoint>
            <Time>2021-04-03T09:30:21.000Z</Time>
            <Position>
              <LatitudeDegrees>42.29761465452611446380615234375</LatitudeDegrees>
              <LongitudeDegrees>2.5564504601061344146728515625</LongitudeDegrees>
            </Position>
            <AltitudeMeters>547</AltitudeMeters>
            <DistanceMeters>NAN</DistanceMeters>
          </Trackpoint>
          <Trackpoint>
            <Time>2021-04-03T09:30:22.000Z</Time>
            <Position>
              <LatitudeDegrees>42.29761197231709957122802734375</LatitudeDegrees>
              <LongitudeDegrees>2.5564373843371868133544921875</LongitudeDegrees>
            </Position>
            <AltitudeMeters>546.79998779296875</AltitudeMeters>
            <DistanceMeters>NAN</DistanceMeters>
          </Trackpoint>
          <Trackpoint>
            <Time>2021-04-03T09:30:27.000Z</Time>
            <Position>
              <LatitudeDegrees>42.2975776903331279754638671875</LatitudeDegrees>
              <LongitudeDegrees>2.55640964023768901824951171875</LongitudeDegrees>
            </Position>
            <AltitudeMeters>546.4000244140625</AltitudeMeters>
            <DistanceMeters>NAN</DistanceMeters>
          </Trackpoint>
          <Trackpoint>
            <Time>2021-04-03T09:30:30.000Z</Time>
            <Position>
              <LatitudeDegrees>42.29754810221493244171142578125</LatitudeDegrees>
              <LongitudeDegrees>2.55639019422233104705810546875</LongitudeDegrees>
            </Position>
            <AltitudeMeters>546.20001220703125</AltitudeMeters>
            <DistanceMeters>NAN</DistanceMeters>
          </Trackpoint>
          <Trackpoint>
            <Time>2021-04-03T09:30:31.000Z</Time>
            <Position>
              <LatitudeDegrees>42.29753418825566768646240234375</LatitudeDegrees>
              <LongitudeDegrees>2.5563961453735828399658203125</LongitudeDegrees>
            </Position>
            <AltitudeMeters>546.20001220703125</AltitudeMeters>
            <DistanceMeters>NAN</DistanceMeters>
          </Trackpoint>
          <Trackpoint>
            <Time>2021-04-03T09:30:32.000Z</Time>
            <Position>
              <LatitudeDegrees>42.2975243814289569854736328125</LatitudeDegrees>
              <LongitudeDegrees>2.5563951395452022552490234375</LongitudeDegrees>
            </Position>
            <AltitudeMeters>546</AltitudeMeters>
            <DistanceMeters>NAN</DistanceMeters>
          </Trackpoint>
          <Trackpoint>
            <Time>2021-04-03T09:30:34.000Z</Time>
            <Position>
              <LatitudeDegrees>42.2975139878690242767333984375</LatitudeDegrees>
              <LongitudeDegrees>2.55638533271849155426025390625</LongitudeDegrees>
            </Position>
            <AltitudeMeters>545.5999755859375</AltitudeMeters>
            <DistanceMeters>NAN</DistanceMeters>
          </Trackpoint>
          <Trackpoint>
            <Time>2021-04-03T09:30:37.000Z</Time>
            <Position>
              <LatitudeDegrees>42.2974888421595096588134765625</LatitudeDegrees>
              <LongitudeDegrees>2.55635482259094715118408203125</LongitudeDegrees>
            </Position>
            <AltitudeMeters>545.20001220703125</AltitudeMeters>
            <DistanceMeters>NAN</DistanceMeters>
          </Trackpoint>
          <Trackpoint>
            <Time>2021-04-03T09:30:41.000Z</Time>
            <Position>
              <LatitudeDegrees>42.29744969867169857025146484375</LatitudeDegrees>
              <LongitudeDegrees>2.55633168853819370269775390625</LongitudeDegrees>
            </Position>
            <AltitudeMeters>544.4000244140625</AltitudeMeters>
            <DistanceMeters>NAN</DistanceMeters>
          </Trackpoint>
          <Trackpoint>
            <Time>2021-04-03T09:30:42.000Z</Time>
            <Position>
              <LatitudeDegrees>42.29744668118655681610107421875</LatitudeDegrees>
              <LongitudeDegrees>2.55633034743368625640869140625</LongitudeDegrees>
            </Position>
            <AltitudeMeters>544</AltitudeMeters>
            <DistanceMeters>NAN</DistanceMeters>
          </Trackpoint>
          <Trackpoint>
            <Time>2021-04-03T09:30:45.000Z</Time>
            <Position>
              <LatitudeDegrees>42.2974241338670253753662109375</LatitudeDegrees>
              <LongitudeDegrees>2.55632448010146617889404296875</LongitudeDegrees>
            </Position>
            <AltitudeMeters>543.20001220703125</AltitudeMeters>
            <DistanceMeters>NAN</DistanceMeters>
          </Trackpoint>
          <Trackpoint>
            <Time>2021-04-03T09:30:46.000Z</Time>
            <Position>
              <LatitudeDegrees>42.29741063900291919708251953125</LatitudeDegrees>
              <LongitudeDegrees>2.55632129497826099395751953125</LongitudeDegrees>
            </Position>
            <AltitudeMeters>543</AltitudeMeters>
            <DistanceMeters>NAN</DistanceMeters>
          </Trackpoint>
          <Trackpoint>
            <Time>2021-04-03T09:30:47.000Z</Time>
            <Position>
              <LatitudeDegrees>42.297393120825290679931640625</LatitudeDegrees>
              <LongitudeDegrees>2.55631341598927974700927734375</LongitudeDegrees>
            </Position>
            <AltitudeMeters>542.79998779296875</AltitudeMeters>
            <DistanceMeters>NAN</DistanceMeters>
          </Trackpoint>
          <Trackpoint>
            <Time>2021-04-03T09:30:51.000Z</Time>
            <Position>
              <LatitudeDegrees>42.2973351180553436279296875</LatitudeDegrees>
              <LongitudeDegrees>2.55627787671983242034912109375</LongitudeDegrees>
            </Position>
            <AltitudeMeters>542.20001220703125</AltitudeMeters>
            <DistanceMeters>NAN</DistanceMeters>
          </Trackpoint>
          <Trackpoint>
            <Time>2021-04-03T09:30:53.000Z</Time>
            <Position>
              <LatitudeDegrees>42.2973302565515041351318359375</LatitudeDegrees>
              <LongitudeDegrees>2.55624719895422458648681640625</LongitudeDegrees>
            </Position>
            <AltitudeMeters>541.5999755859375</AltitudeMeters>
            <DistanceMeters>NAN</DistanceMeters>
          </Trackpoint>
          <Trackpoint>
            <Time>2021-04-03T09:30:58.000Z</Time>
            <Position>
              <LatitudeDegrees>42.297339141368865966796875</LatitudeDegrees>
              <LongitudeDegrees>2.55618014372885227203369140625</LongitudeDegrees>
            </Position>
            <AltitudeMeters>540.79998779296875</AltitudeMeters>
            <DistanceMeters>NAN</DistanceMeters>
          </Trackpoint>
          <Trackpoint>
            <Time>2021-04-03T09:30:59.000Z</Time>
            <Position>
              <LatitudeDegrees>42.2973429970443248748779296875</LatitudeDegrees>
              <LongitudeDegrees>2.55616237409412860870361328125</LongitudeDegrees>
            </Position>
            <AltitudeMeters>540.5999755859375</AltitudeMeters>
            <DistanceMeters>NAN</DistanceMeters>
          </Trackpoint>
          <Trackpoint>
            <Time>2021-04-03T09:31:00.000Z</Time>
            <Position>
              <LatitudeDegrees>42.29734743945300579071044921875</LatitudeDegrees>
              <LongitudeDegrees>2.55614292807877063751220703125</LongitudeDegrees>
            </Position>
            <AltitudeMeters>540.4000244140625</AltitudeMeters>
            <DistanceMeters>NAN</DistanceMeters>
          </Trackpoint>
          <Trackpoint>
            <Time>2021-04-03T09:31:04.000Z</Time>
            <Position>
              <LatitudeDegrees>42.297360599040985107421875</LatitudeDegrees>
              <LongitudeDegrees>2.556078471243381500244140625</LongitudeDegrees>
            </Position>
            <AltitudeMeters>539.4000244140625</AltitudeMeters>
            <DistanceMeters>NAN</DistanceMeters>
          </Trackpoint>
          <Trackpoint>
            <Time>2021-04-03T09:31:07.000Z</Time>
            <Position>
              <LatitudeDegrees>42.297383733093738555908203125</LatitudeDegrees>
              <LongitudeDegrees>2.55603312514722347259521484375</LongitudeDegrees>
            </Position>
            <AltitudeMeters>539</AltitudeMeters>
            <DistanceMeters>NAN</DistanceMeters>
          </Trackpoint>
          <Trackpoint>
            <Time>2021-04-03T09:31:09.000Z</Time>
            <Position>
              <LatitudeDegrees>42.2973845712840557098388671875</LatitudeDegrees>
              <LongitudeDegrees>2.5560095719993114471435546875</LongitudeDegrees>
            </Position>
            <AltitudeMeters>538.20001220703125</AltitudeMeters>
            <DistanceMeters>NAN</DistanceMeters>
          </Trackpoint>
          <Trackpoint>
            <Time>2021-04-03T09:31:12.000Z</Time>
            <Position>
              <LatitudeDegrees>42.29736872948706150054931640625</LatitudeDegrees>
              <LongitudeDegrees>2.5559834204614162445068359375</LongitudeDegrees>
            </Position>
            <AltitudeMeters>537.20001220703125</AltitudeMeters>
            <DistanceMeters>NAN</DistanceMeters>
          </Trackpoint>
          <Trackpoint>
            <Time>2021-04-03T09:31:13.000Z</Time>
            <Position>
              <LatitudeDegrees>42.29736839421093463897705078125</LatitudeDegrees>
              <LongitudeDegrees>2.55596749484539031982421875</LongitudeDegrees>
            </Position>
            <AltitudeMeters>537</AltitudeMeters>
            <DistanceMeters>NAN</DistanceMeters>
          </Trackpoint>
          <Trackpoint>
            <Time>2021-04-03T09:31:15.000Z</Time>
            <Position>
              <LatitudeDegrees>42.2973755188286304473876953125</LatitudeDegrees>
              <LongitudeDegrees>2.5559388287365436553955078125</LongitudeDegrees>
            </Position>
            <AltitudeMeters>536.20001220703125</AltitudeMeters>
            <DistanceMeters>NAN</DistanceMeters>
          </Trackpoint>
          <Trackpoint>
            <Time>2021-04-03T09:31:18.000Z</Time>
            <Position>
              <LatitudeDegrees>42.29738465510308742523193359375</LatitudeDegrees>
              <LongitudeDegrees>2.55590052343904972076416015625</LongitudeDegrees>
            </Position>
            <AltitudeMeters>535.20001220703125</AltitudeMeters>
            <DistanceMeters>NAN</DistanceMeters>
          </Trackpoint>
          <Trackpoint>
            <Time>2021-04-03T09:31:19.000Z</Time>
            <Position>
              <LatitudeDegrees>42.2973872534930706024169921875</LatitudeDegrees>
              <LongitudeDegrees>2.55588233470916748046875</LongitudeDegrees>
            </Position>
            <AltitudeMeters>535</AltitudeMeters>
            <DistanceMeters>NAN</DistanceMeters>
          </Trackpoint>
          <Trackpoint>
            <Time>2021-04-03T09:31:21.000Z</Time>
            <Position>
              <LatitudeDegrees>42.29740443639457225799560546875</LatitudeDegrees>
              <LongitudeDegrees>2.555848471820354461669921875</LongitudeDegrees>
            </Position>
            <AltitudeMeters>534.5999755859375</AltitudeMeters>
            <DistanceMeters>NAN</DistanceMeters>
          </Trackpoint>
          <Trackpoint>
            <Time>2021-04-03T09:31:23.000Z</Time>
            <Position>
              <LatitudeDegrees>42.29741935618221759796142578125</LatitudeDegrees>
              <LongitudeDegrees>2.55583229474723339080810546875</LongitudeDegrees>
            </Position>
            <AltitudeMeters>534</AltitudeMeters>
            <DistanceMeters>NAN</DistanceMeters>
          </Trackpoint>
          <Trackpoint>
            <Time>2021-04-03T09:31:24.000Z</Time>
            <Position>
              <LatitudeDegrees>42.29742388240993022918701171875</LatitudeDegrees>
              <LongitudeDegrees>2.5558201409876346588134765625</LongitudeDegrees>
            </Position>
            <AltitudeMeters>533.79998779296875</AltitudeMeters>
            <DistanceMeters>NAN</DistanceMeters>
          </Trackpoint>
          <Trackpoint>
            <Time>2021-04-03T09:31:27.000Z</Time>
            <Position>
              <LatitudeDegrees>42.29744617827236652374267578125</LatitudeDegrees>
              <LongitudeDegrees>2.5557815842330455780029296875</LongitudeDegrees>
            </Position>
            <AltitudeMeters>533.5999755859375</AltitudeMeters>
            <DistanceMeters>NAN</DistanceMeters>
          </Trackpoint>
          <Trackpoint>
            <Time>2021-04-03T09:31:31.000Z</Time>
            <Position>
              <LatitudeDegrees>42.29746663011610507965087890625</LatitudeDegrees>
              <LongitudeDegrees>2.55574084818363189697265625</LongitudeDegrees>
            </Position>
            <AltitudeMeters>532.5999755859375</AltitudeMeters>
            <DistanceMeters>NAN</DistanceMeters>
          </Trackpoint>
          <Trackpoint>
            <Time>2021-04-03T09:31:33.000Z</Time>
            <Position>
              <LatitudeDegrees>42.297466211020946502685546875</LatitudeDegrees>
              <LongitudeDegrees>2.55571226589381694793701171875</LongitudeDegrees>
            </Position>
            <AltitudeMeters>532.20001220703125</AltitudeMeters>
            <DistanceMeters>NAN</DistanceMeters>
          </Trackpoint>
          <Trackpoint>
            <Time>2021-04-03T09:31:36.000Z</Time>
            <Position>
              <LatitudeDegrees>42.2974576614797115325927734375</LatitudeDegrees>
              <LongitudeDegrees>2.55567689426243305206298828125</LongitudeDegrees>
            </Position>
            <AltitudeMeters>531.5999755859375</AltitudeMeters>
            <DistanceMeters>NAN</DistanceMeters>
          </Trackpoint>
          <Trackpoint>
            <Time>2021-04-03T09:31:41.000Z</Time>
            <Position>
              <LatitudeDegrees>42.29744835756719112396240234375</LatitudeDegrees>
              <LongitudeDegrees>2.55561470054090023040771484375</LongitudeDegrees>
            </Position>
            <AltitudeMeters>530.5999755859375</AltitudeMeters>
            <DistanceMeters>NAN</DistanceMeters>
          </Trackpoint>
          <Trackpoint>
            <Time>2021-04-03T09:31:46.000Z</Time>
            <Position>
              <LatitudeDegrees>42.2974665462970733642578125</LatitudeDegrees>
              <LongitudeDegrees>2.55554412491619586944580078125</LongitudeDegrees>
            </Position>
            <AltitudeMeters>529.20001220703125</AltitudeMeters>
            <DistanceMeters>NAN</DistanceMeters>
          </Trackpoint>
          <Trackpoint>
            <Time>2021-04-03T09:31:49.000Z</Time>
            <Position>
              <LatitudeDegrees>42.29746361263096332550048828125</LatitudeDegrees>
              <LongitudeDegrees>2.555510513484477996826171875</LongitudeDegrees>
            </Position>
            <AltitudeMeters>528.5999755859375</AltitudeMeters>
            <DistanceMeters>NAN</DistanceMeters>
          </Trackpoint>
          <Trackpoint>
            <Time>2021-04-03T09:31:51.000Z</Time>
            <Position>
              <LatitudeDegrees>42.297466881573200225830078125</LatitudeDegrees>
              <LongitudeDegrees>2.5554848648607730865478515625</LongitudeDegrees>
            </Position>
            <AltitudeMeters>528.20001220703125</AltitudeMeters>
            <DistanceMeters>NAN</DistanceMeters>
          </Trackpoint>
          <Trackpoint>
            <Time>2021-04-03T09:31:54.000Z</Time>
            <Position>
              <LatitudeDegrees>42.297457493841648101806640625</LatitudeDegrees>
              <LongitudeDegrees>2.55543834529817104339599609375</LongitudeDegrees>
            </Position>
            <AltitudeMeters>527.20001220703125</AltitudeMeters>
            <DistanceMeters>NAN</DistanceMeters>
          </Trackpoint>
          <Trackpoint>
            <Time>2021-04-03T09:31:56.000Z</Time>
            <Position>
              <LatitudeDegrees>42.29745405726134777069091796875</LatitudeDegrees>
              <LongitudeDegrees>2.55540766753256320953369140625</LongitudeDegrees>
            </Position>
            <AltitudeMeters>526.5999755859375</AltitudeMeters>
            <DistanceMeters>NAN</DistanceMeters>
          </Trackpoint>
          <Trackpoint>
            <Time>2021-04-03T09:31:58.000Z</Time>
            <Position>
              <LatitudeDegrees>42.29745053686201572418212890625</LatitudeDegrees>
              <LongitudeDegrees>2.555375397205352783203125</LongitudeDegrees>
            </Position>
            <AltitudeMeters>525.79998779296875</AltitudeMeters>
            <DistanceMeters>NAN</DistanceMeters>
          </Trackpoint>
          <Trackpoint>
            <Time>2021-04-03T09:32:02.000Z</Time>
            <Position>
              <LatitudeDegrees>42.29743477888405323028564453125</LatitudeDegrees>
              <LongitudeDegrees>2.55532083101570606231689453125</LongitudeDegrees>
            </Position>
            <AltitudeMeters>524.79998779296875</AltitudeMeters>
            <DistanceMeters>NAN</DistanceMeters>
          </Trackpoint>
          <Trackpoint>
            <Time>2021-04-03T09:32:04.000Z</Time>
            <Position>
              <LatitudeDegrees>42.29743008501827716827392578125</LatitudeDegrees>
              <LongitudeDegrees>2.55529132671654224395751953125</LongitudeDegrees>
            </Position>
            <AltitudeMeters>524.4000244140625</AltitudeMeters>
            <DistanceMeters>NAN</DistanceMeters>
          </Trackpoint>
          <Trackpoint>
            <Time>2021-04-03T09:32:07.000Z</Time>
            <Position>
              <LatitudeDegrees>42.2974236309528350830078125</LatitudeDegrees>
              <LongitudeDegrees>2.5552414543926715850830078125</LongitudeDegrees>
            </Position>
            <AltitudeMeters>523.5999755859375</AltitudeMeters>
            <DistanceMeters>NAN</DistanceMeters>
          </Trackpoint>
          <Trackpoint>
            <Time>2021-04-03T09:32:10.000Z</Time>
            <Position>
              <LatitudeDegrees>42.29740292765200138092041015625</LatitudeDegrees>
              <LongitudeDegrees>2.5551945157349109649658203125</LongitudeDegrees>
            </Position>
            <AltitudeMeters>523.20001220703125</AltitudeMeters>
            <DistanceMeters>NAN</DistanceMeters>
          </Trackpoint>
          <Trackpoint>
            <Time>2021-04-03T09:32:14.000Z</Time>
            <Position>
              <LatitudeDegrees>42.29738163761794567108154296875</LatitudeDegrees>
              <LongitudeDegrees>2.5551526062190532684326171875</LongitudeDegrees>
            </Position>
            <AltitudeMeters>522.5999755859375</AltitudeMeters>
            <DistanceMeters>NAN</DistanceMeters>
          </Trackpoint>
          <Trackpoint>
            <Time>2021-04-03T09:32:15.000Z</Time>
            <Position>
              <LatitudeDegrees>42.2973782010376453399658203125</LatitudeDegrees>
              <LongitudeDegrees>2.555141709744930267333984375</LongitudeDegrees>
            </Position>
            <AltitudeMeters>522.4000244140625</AltitudeMeters>
            <DistanceMeters>NAN</DistanceMeters>
          </Trackpoint>
          <Trackpoint>
            <Time>2021-04-03T09:32:16.000Z</Time>
            <Position>
              <LatitudeDegrees>42.2973731718957424163818359375</LatitudeDegrees>
              <LongitudeDegrees>2.5551267899572849273681640625</LongitudeDegrees>
            </Position>
            <AltitudeMeters>521.79998779296875</AltitudeMeters>
            <DistanceMeters>NAN</DistanceMeters>
          </Trackpoint>
          <Trackpoint>
            <Time>2021-04-03T09:32:18.000Z</Time>
            <Position>
              <LatitudeDegrees>42.297373004257678985595703125</LatitudeDegrees>
              <LongitudeDegrees>2.5550996325910091400146484375</LongitudeDegrees>
            </Position>
            <AltitudeMeters>521.4000244140625</AltitudeMeters>
            <DistanceMeters>NAN</DistanceMeters>
          </Trackpoint>
          <Trackpoint>
            <Time>2021-04-03T09:32:19.000Z</Time>
            <Position>
              <LatitudeDegrees>42.29737342335283756256103515625</LatitudeDegrees>
              <LongitudeDegrees>2.55508613772690296173095703125</LongitudeDegrees>
            </Position>
            <AltitudeMeters>521.20001220703125</AltitudeMeters>
            <DistanceMeters>NAN</DistanceMeters>
          </Trackpoint>
          <Trackpoint>
            <Time>2021-04-03T09:32:20.000Z</Time>
            <Position>
              <LatitudeDegrees>42.29736940003931522369384765625</LatitudeDegrees>
              <LongitudeDegrees>2.55507222376763820648193359375</LongitudeDegrees>
            </Position>
            <AltitudeMeters>520.79998779296875</AltitudeMeters>
            <DistanceMeters>NAN</DistanceMeters>
          </Trackpoint>
          <Trackpoint>
            <Time>2021-04-03T09:32:23.000Z</Time>
            <Position>
              <LatitudeDegrees>42.29735448025166988372802734375</LatitudeDegrees>
              <LongitudeDegrees>2.5550295598804950714111328125</LongitudeDegrees>
            </Position>
            <AltitudeMeters>520</AltitudeMeters>
            <DistanceMeters>NAN</DistanceMeters>
          </Trackpoint>
          <Trackpoint>
            <Time>2021-04-03T09:32:24.000Z</Time>
            <Position>
              <LatitudeDegrees>42.29734978638589382171630859375</LatitudeDegrees>
              <LongitudeDegrees>2.55501556210219860076904296875</LongitudeDegrees>
            </Position>
            <AltitudeMeters>519.5999755859375</AltitudeMeters>
            <DistanceMeters>NAN</DistanceMeters>
          </Trackpoint>
          <Trackpoint>
            <Time>2021-04-03T09:32:26.000Z</Time>
            <Position>
              <LatitudeDegrees>42.2973440028727054595947265625</LatitudeDegrees>
              <LongitudeDegrees>2.5549842976033687591552734375</LongitudeDegrees>
            </Position>
            <AltitudeMeters>519</AltitudeMeters>
            <DistanceMeters>NAN</DistanceMeters>
          </Trackpoint>
          <Trackpoint>
            <Time>2021-04-03T09:32:28.000Z</Time>
            <Position>
              <LatitudeDegrees>42.29735196568071842193603515625</LatitudeDegrees>
              <LongitudeDegrees>2.5549561344087123870849609375</LongitudeDegrees>
            </Position>
            <AltitudeMeters>518.5999755859375</AltitudeMeters>
            <DistanceMeters>NAN</DistanceMeters>
          </Trackpoint>
          <Trackpoint>
            <Time>2021-04-03T09:32:30.000Z</Time>
            <Position>
              <LatitudeDegrees>42.2973500378429889678955078125</LatitudeDegrees>
              <LongitudeDegrees>2.554921768605709075927734375</LongitudeDegrees>
            </Position>
            <AltitudeMeters>518.4000244140625</AltitudeMeters>
            <DistanceMeters>NAN</DistanceMeters>
          </Trackpoint>
          <Trackpoint>
            <Time>2021-04-03T09:32:32.000Z</Time>
            <Position>
              <LatitudeDegrees>42.2973409853875637054443359375</LatitudeDegrees>
              <LongitudeDegrees>2.5548850558698177337646484375</LongitudeDegrees>
            </Position>
            <AltitudeMeters>517.79998779296875</AltitudeMeters>
            <DistanceMeters>NAN</DistanceMeters>
          </Trackpoint>
          <Trackpoint>
            <Time>2021-04-03T09:32:34.000Z</Time>
            <Position>
              <LatitudeDegrees>42.29734945110976696014404296875</LatitudeDegrees>
              <LongitudeDegrees>2.5548589043319225311279296875</LongitudeDegrees>
            </Position>
            <AltitudeMeters>517.4000244140625</AltitudeMeters>
            <DistanceMeters>NAN</DistanceMeters>
          </Trackpoint>
          <Trackpoint>
            <Time>2021-04-03T09:32:36.000Z</Time>
            <Position>
              <LatitudeDegrees>42.297344170510768890380859375</LatitudeDegrees>
              <LongitudeDegrees>2.55482529290020465850830078125</LongitudeDegrees>
            </Position>
            <AltitudeMeters>516.79998779296875</AltitudeMeters>
            <DistanceMeters>NAN</DistanceMeters>
          </Trackpoint>
          <Trackpoint>
            <Time>2021-04-03T09:32:37.000Z</Time>
            <Position>
              <LatitudeDegrees>42.29733905754983425140380859375</LatitudeDegrees>
              <LongitudeDegrees>2.55481707863509654998779296875</LongitudeDegrees>
            </Position>
            <AltitudeMeters>516.5999755859375</AltitudeMeters>
            <DistanceMeters>NAN</DistanceMeters>
          </Trackpoint>
          <Trackpoint>
            <Time>2021-04-03T09:32:40.000Z</Time>
            <Position>
              <LatitudeDegrees>42.29732774198055267333984375</LatitudeDegrees>
              <LongitudeDegrees>2.55478237755596637725830078125</LongitudeDegrees>
            </Position>
            <AltitudeMeters>515.79998779296875</AltitudeMeters>
            <DistanceMeters>NAN</DistanceMeters>
          </Trackpoint>
          <Trackpoint>
            <Time>2021-04-03T09:32:42.000Z</Time>
            <Position>
              <LatitudeDegrees>42.29733369313180446624755859375</LatitudeDegrees>
              <LongitudeDegrees>2.5547489337623119354248046875</LongitudeDegrees>
            </Position>
            <AltitudeMeters>515.5999755859375</AltitudeMeters>
            <DistanceMeters>NAN</DistanceMeters>
          </Trackpoint>
          <Trackpoint>
            <Time>2021-04-03T09:32:46.000Z</Time>
            <Position>
              <LatitudeDegrees>42.29737660847604274749755859375</LatitudeDegrees>
              <LongitudeDegrees>2.554722614586353302001953125</LongitudeDegrees>
            </Position>
            <AltitudeMeters>514.79998779296875</AltitudeMeters>
            <DistanceMeters>NAN</DistanceMeters>
          </Trackpoint>
          <Trackpoint>
            <Time>2021-04-03T09:32:49.000Z</Time>
            <Position>
              <LatitudeDegrees>42.2973887622356414794921875</LatitudeDegrees>
              <LongitudeDegrees>2.55469017662107944488525390625</LongitudeDegrees>
            </Position>
            <AltitudeMeters>514.4000244140625</AltitudeMeters>
            <DistanceMeters>NAN</DistanceMeters>
          </Trackpoint>
          <Trackpoint>
            <Time>2021-04-03T09:32:51.000Z</Time>
            <Position>
              <LatitudeDegrees>42.29740326292812824249267578125</LatitudeDegrees>
              <LongitudeDegrees>2.55467492155730724334716796875</LongitudeDegrees>
            </Position>
            <AltitudeMeters>513.79998779296875</AltitudeMeters>
            <DistanceMeters>NAN</DistanceMeters>
          </Trackpoint>
          <Trackpoint>
            <Time>2021-04-03T09:32:53.000Z</Time>
            <Position>
              <LatitudeDegrees>42.29742036201059818267822265625</LatitudeDegrees>
              <LongitudeDegrees>2.5546681322157382965087890625</LongitudeDegrees>
            </Position>
            <AltitudeMeters>513.4000244140625</AltitudeMeters>
            <DistanceMeters>NAN</DistanceMeters>
          </Trackpoint>
          <Trackpoint>
            <Time>2021-04-03T09:32:55.000Z</Time>
            <Position>
              <LatitudeDegrees>42.29743561707437038421630859375</LatitudeDegrees>
              <LongitudeDegrees>2.5546547211706638336181640625</LongitudeDegrees>
            </Position>
            <AltitudeMeters>512.5999755859375</AltitudeMeters>
            <DistanceMeters>NAN</DistanceMeters>
          </Trackpoint>
          <Trackpoint>
            <Time>2021-04-03T09:32:57.000Z</Time>
            <Position>
              <LatitudeDegrees>42.29744835756719112396240234375</LatitudeDegrees>
              <LongitudeDegrees>2.554630748927593231201171875</LongitudeDegrees>
            </Position>
            <AltitudeMeters>512</AltitudeMeters>
            <DistanceMeters>NAN</DistanceMeters>
          </Trackpoint>
          <Trackpoint>
            <Time>2021-04-03T09:32:58.000Z</Time>
            <Position>
              <LatitudeDegrees>42.29745020158588886260986328125</LatitudeDegrees>
              <LongitudeDegrees>2.55461993627250194549560546875</LongitudeDegrees>
            </Position>
            <AltitudeMeters>511.600006103515625</AltitudeMeters>
            <DistanceMeters>NAN</DistanceMeters>
          </Trackpoint>
          <Trackpoint>
            <Time>2021-04-03T09:33:01.000Z</Time>
            <Position>
              <LatitudeDegrees>42.29744936339557170867919921875</LatitudeDegrees>
              <LongitudeDegrees>2.55459797568619251251220703125</LongitudeDegrees>
            </Position>
            <AltitudeMeters>511</AltitudeMeters>
            <DistanceMeters>NAN</DistanceMeters>
          </Trackpoint>
          <Trackpoint>
            <Time>2021-04-03T09:33:03.000Z</Time>
            <Position>
              <LatitudeDegrees>42.2974499501287937164306640625</LatitudeDegrees>
              <LongitudeDegrees>2.5545799545943737030029296875</LongitudeDegrees>
            </Position>
            <AltitudeMeters>509.79998779296875</AltitudeMeters>
            <DistanceMeters>NAN</DistanceMeters>
          </Trackpoint>
          <Trackpoint>
            <Time>2021-04-03T09:33:05.000Z</Time>
            <Position>
              <LatitudeDegrees>42.29744684882462024688720703125</LatitudeDegrees>
              <LongitudeDegrees>2.55455707199871540069580078125</LongitudeDegrees>
            </Position>
            <AltitudeMeters>509.20001220703125</AltitudeMeters>
            <DistanceMeters>NAN</DistanceMeters>
          </Trackpoint>
          <Trackpoint>
            <Time>2021-04-03T09:33:07.000Z</Time>
            <Position>
              <LatitudeDegrees>42.297446094453334808349609375</LatitudeDegrees>
              <LongitudeDegrees>2.55453175865113735198974609375</LongitudeDegrees>
            </Position>
            <AltitudeMeters>509</AltitudeMeters>
            <DistanceMeters>NAN</DistanceMeters>
          </Trackpoint>
          <Trackpoint>
            <Time>2021-04-03T09:33:09.000Z</Time>
            <Position>
              <LatitudeDegrees>42.29743980802595615386962890625</LatitudeDegrees>
              <LongitudeDegrees>2.55450879223644733428955078125</LongitudeDegrees>
            </Position>
            <AltitudeMeters>508.600006103515625</AltitudeMeters>
            <DistanceMeters>NAN</DistanceMeters>
          </Trackpoint>
          <Trackpoint>
            <Time>2021-04-03T09:33:14.000Z</Time>
            <Position>
              <LatitudeDegrees>42.29742572642862796783447265625</LatitudeDegrees>
              <LongitudeDegrees>2.55446855910122394561767578125</LongitudeDegrees>
            </Position>
            <AltitudeMeters>507.20001220703125</AltitudeMeters>
            <DistanceMeters>NAN</DistanceMeters>
          </Trackpoint>
          <Trackpoint>
            <Time>2021-04-03T09:33:18.000Z</Time>
            <Position>
              <LatitudeDegrees>42.29741902090609073638916015625</LatitudeDegrees>
              <LongitudeDegrees>2.55442061461508274078369140625</LongitudeDegrees>
            </Position>
            <AltitudeMeters>506.600006103515625</AltitudeMeters>
            <DistanceMeters>NAN</DistanceMeters>
          </Trackpoint>
          <Trackpoint>
            <Time>2021-04-03T09:33:20.000Z</Time>
            <Position>
              <LatitudeDegrees>42.29741717688739299774169921875</LatitudeDegrees>
              <LongitudeDegrees>2.55439597181975841522216796875</LongitudeDegrees>
            </Position>
            <AltitudeMeters>506</AltitudeMeters>
            <DistanceMeters>NAN</DistanceMeters>
          </Trackpoint>
          <Trackpoint>
            <Time>2021-04-03T09:33:24.000Z</Time>
            <Position>
              <LatitudeDegrees>42.2974063642323017120361328125</LatitudeDegrees>
              <LongitudeDegrees>2.55435540340840816497802734375</LongitudeDegrees>
            </Position>
            <AltitudeMeters>505.600006103515625</AltitudeMeters>
            <DistanceMeters>NAN</DistanceMeters>
          </Trackpoint>
          <Trackpoint>
            <Time>2021-04-03T09:33:28.000Z</Time>
            <Position>
              <LatitudeDegrees>42.297379039227962493896484375</LatitudeDegrees>
              <LongitudeDegrees>2.5543201155960559844970703125</LongitudeDegrees>
            </Position>
            <AltitudeMeters>504.79998779296875</AltitudeMeters>
            <DistanceMeters>NAN</DistanceMeters>
          </Trackpoint>
          <Trackpoint>
            <Time>2021-04-03T09:33:29.000Z</Time>
            <Position>
              <LatitudeDegrees>42.29736931622028350830078125</LatitudeDegrees>
              <LongitudeDegrees>2.55431164987385272979736328125</LongitudeDegrees>
            </Position>
            <AltitudeMeters>504.79998779296875</AltitudeMeters>
            <DistanceMeters>NAN</DistanceMeters>
          </Trackpoint>
          <Trackpoint>
            <Time>2021-04-03T09:33:33.000Z</Time>
            <Position>
              <LatitudeDegrees>42.29733888991177082061767578125</LatitudeDegrees>
              <LongitudeDegrees>2.55428348667919635772705078125</LongitudeDegrees>
            </Position>
            <AltitudeMeters>503.79998779296875</AltitudeMeters>
            <DistanceMeters>NAN</DistanceMeters>
          </Trackpoint>
          <Trackpoint>
            <Time>2021-04-03T09:33:40.000Z</Time>
            <Position>
              <LatitudeDegrees>42.29726881720125675201416015625</LatitudeDegrees>
              <LongitudeDegrees>2.5542770326137542724609375</LongitudeDegrees>
            </Position>
            <AltitudeMeters>502.79998779296875</AltitudeMeters>
            <DistanceMeters>NAN</DistanceMeters>
          </Trackpoint>
          <Trackpoint>
            <Time>2021-04-03T09:33:42.000Z</Time>
            <Position>
              <LatitudeDegrees>42.2972477786242961883544921875</LatitudeDegrees>
              <LongitudeDegrees>2.55427108146250247955322265625</LongitudeDegrees>
            </Position>
            <AltitudeMeters>502.79998779296875</AltitudeMeters>
            <DistanceMeters>NAN</DistanceMeters>
          </Trackpoint>
          <Trackpoint>
            <Time>2021-04-03T09:33:44.000Z</Time>
            <Position>
              <LatitudeDegrees>42.297232858836650848388671875</LatitudeDegrees>
              <LongitudeDegrees>2.55427342839539051055908203125</LongitudeDegrees>
            </Position>
            <AltitudeMeters>502.399993896484375</AltitudeMeters>
            <DistanceMeters>NAN</DistanceMeters>
          </Trackpoint>
          <Trackpoint>
            <Time>2021-04-03T09:33:46.000Z</Time>
            <Position>
              <LatitudeDegrees>42.29721902869641780853271484375</LatitudeDegrees>
              <LongitudeDegrees>2.554276026785373687744140625</LongitudeDegrees>
            </Position>
            <AltitudeMeters>502</AltitudeMeters>
            <DistanceMeters>NAN</DistanceMeters>
          </Trackpoint>
          <Trackpoint>
            <Time>2021-04-03T09:33:47.000Z</Time>
            <Position>
              <LatitudeDegrees>42.29721215553581714630126953125</LatitudeDegrees>
              <LongitudeDegrees>2.5542738474905490875244140625</LongitudeDegrees>
            </Position>
            <AltitudeMeters>501.79998779296875</AltitudeMeters>
            <DistanceMeters>NAN</DistanceMeters>
          </Trackpoint>
          <Trackpoint>
            <Time>2021-04-03T09:33:48.000Z</Time>
            <Position>
              <LatitudeDegrees>42.29720477946102619171142578125</LatitudeDegrees>
              <LongitudeDegrees>2.554275356233119964599609375</LongitudeDegrees>
            </Position>
            <AltitudeMeters>501.600006103515625</AltitudeMeters>
            <DistanceMeters>NAN</DistanceMeters>
          </Trackpoint>
          <Trackpoint>
            <Time>2021-04-03T09:33:52.000Z</Time>
            <Position>
              <LatitudeDegrees>42.2971649654209613800048828125</LatitudeDegrees>
              <LongitudeDegrees>2.55427393130958080291748046875</LongitudeDegrees>
            </Position>
            <AltitudeMeters>500.399993896484375</AltitudeMeters>
            <DistanceMeters>NAN</DistanceMeters>
          </Trackpoint>
          <Trackpoint>
            <Time>2021-04-03T09:33:55.000Z</Time>
            <Position>
              <LatitudeDegrees>42.2971327789127826690673828125</LatitudeDegrees>
              <LongitudeDegrees>2.55427342839539051055908203125</LongitudeDegrees>
            </Position>
            <AltitudeMeters>500</AltitudeMeters>
            <DistanceMeters>NAN</DistanceMeters>
          </Trackpoint>
          <Trackpoint>
            <Time>2021-04-03T09:33:56.000Z</Time>
            <Position>
              <LatitudeDegrees>42.2971183620393276214599609375</LatitudeDegrees>
              <LongitudeDegrees>2.554269991815090179443359375</LongitudeDegrees>
            </Position>
            <AltitudeMeters>499.20001220703125</AltitudeMeters>
            <DistanceMeters>NAN</DistanceMeters>
          </Trackpoint>
          <Trackpoint>
            <Time>2021-04-03T09:33:59.000Z</Time>
            <Position>
              <LatitudeDegrees>42.2970838285982608795166015625</LatitudeDegrees>
              <LongitudeDegrees>2.55427326075732707977294921875</LongitudeDegrees>
            </Position>
            <AltitudeMeters>498.20001220703125</AltitudeMeters>
            <DistanceMeters>NAN</DistanceMeters>
          </Trackpoint>
          <Trackpoint>
            <Time>2021-04-03T09:34:01.000Z</Time>
            <Position>
              <LatitudeDegrees>42.29706287384033203125</LatitudeDegrees>
              <LongitudeDegrees>2.55427476949989795684814453125</LongitudeDegrees>
            </Position>
            <AltitudeMeters>497.79998779296875</AltitudeMeters>
            <DistanceMeters>NAN</DistanceMeters>
          </Trackpoint>
          <Trackpoint>
            <Time>2021-04-03T09:34:03.000Z</Time>
            <Position>
              <LatitudeDegrees>42.2970454394817352294921875</LatitudeDegrees>
              <LongitudeDegrees>2.55427275784313678741455078125</LongitudeDegrees>
            </Position>
            <AltitudeMeters>497</AltitudeMeters>
            <DistanceMeters>NAN</DistanceMeters>
          </Trackpoint>
          <Trackpoint>
            <Time>2021-04-03T09:34:06.000Z</Time>
            <Position>
              <LatitudeDegrees>42.29702976532280445098876953125</LatitudeDegrees>
              <LongitudeDegrees>2.55426471121609210968017578125</LongitudeDegrees>
            </Position>
            <AltitudeMeters>496.20001220703125</AltitudeMeters>
            <DistanceMeters>NAN</DistanceMeters>
          </Trackpoint>
          <Trackpoint>
            <Time>2021-04-03T09:34:07.000Z</Time>
            <Position>
              <LatitudeDegrees>42.2970212996006011962890625</LatitudeDegrees>
              <LongitudeDegrees>2.55426320247352123260498046875</LongitudeDegrees>
            </Position>
            <AltitudeMeters>496</AltitudeMeters>
            <DistanceMeters>NAN</DistanceMeters>
          </Trackpoint>
          <Trackpoint>
            <Time>2021-04-03T09:34:08.000Z</Time>
            <Position>
              <LatitudeDegrees>42.29700864292681217193603515625</LatitudeDegrees>
              <LongitudeDegrees>2.55426102317869663238525390625</LongitudeDegrees>
            </Position>
            <AltitudeMeters>495.79998779296875</AltitudeMeters>
            <DistanceMeters>NAN</DistanceMeters>
          </Trackpoint>
          <Trackpoint>
            <Time>2021-04-03T09:34:15.000Z</Time>
            <Position>
              <LatitudeDegrees>42.29698517359793186187744140625</LatitudeDegrees>
              <LongitudeDegrees>2.554300166666507720947265625</LongitudeDegrees>
            </Position>
            <AltitudeMeters>494.79998779296875</AltitudeMeters>
            <DistanceMeters>NAN</DistanceMeters>
          </Trackpoint>
          <Trackpoint>
            <Time>2021-04-03T09:34:16.000Z</Time>
            <Position>
              <LatitudeDegrees>42.296976707875728607177734375</LatitudeDegrees>
              <LongitudeDegrees>2.55429287441074848175048828125</LongitudeDegrees>
            </Position>
            <AltitudeMeters>494.79998779296875</AltitudeMeters>
            <DistanceMeters>NAN</DistanceMeters>
          </Trackpoint>
          <Trackpoint>
            <Time>2021-04-03T09:34:21.000Z</Time>
            <Position>
              <LatitudeDegrees>42.29693152941763401031494140625</LatitudeDegrees>
              <LongitudeDegrees>2.55423001013696193695068359375</LongitudeDegrees>
            </Position>
            <AltitudeMeters>494.20001220703125</AltitudeMeters>
            <DistanceMeters>NAN</DistanceMeters>
          </Trackpoint>
          <Trackpoint>
            <Time>2021-04-03T09:34:23.000Z</Time>
            <Position>
              <LatitudeDegrees>42.296920381486415863037109375</LatitudeDegrees>
              <LongitudeDegrees>2.5542088039219379425048828125</LongitudeDegrees>
            </Position>
            <AltitudeMeters>493.79998779296875</AltitudeMeters>
            <DistanceMeters>NAN</DistanceMeters>
          </Trackpoint>
          <Trackpoint>
            <Time>2021-04-03T09:34:28.000Z</Time>
            <Position>
              <LatitudeDegrees>42.29689850471913814544677734375</LatitudeDegrees>
              <LongitudeDegrees>2.55414350889623165130615234375</LongitudeDegrees>
            </Position>
            <AltitudeMeters>493</AltitudeMeters>
            <DistanceMeters>NAN</DistanceMeters>
          </Trackpoint>
          <Trackpoint>
            <Time>2021-04-03T09:34:31.000Z</Time>
            <Position>
              <LatitudeDegrees>42.29688249528408050537109375</LatitudeDegrees>
              <LongitudeDegrees>2.55411140620708465576171875</LongitudeDegrees>
            </Position>
            <AltitudeMeters>492.600006103515625</AltitudeMeters>
            <DistanceMeters>NAN</DistanceMeters>
          </Trackpoint>
          <Trackpoint>
            <Time>2021-04-03T09:34:34.000Z</Time>
            <Position>
              <LatitudeDegrees>42.2968856804072856903076171875</LatitudeDegrees>
              <LongitudeDegrees>2.5540740229189395904541015625</LongitudeDegrees>
            </Position>
            <AltitudeMeters>492.399993896484375</AltitudeMeters>
            <DistanceMeters>NAN</DistanceMeters>
          </Trackpoint>
          <Trackpoint>
            <Time>2021-04-03T09:34:35.000Z</Time>
            <Position>
              <LatitudeDegrees>42.296885512769222259521484375</LatitudeDegrees>
              <LongitudeDegrees>2.55407159216701984405517578125</LongitudeDegrees>
            </Position>
            <AltitudeMeters>492.20001220703125</AltitudeMeters>
            <DistanceMeters>NAN</DistanceMeters>
          </Trackpoint>
          <Trackpoint>
            <Time>2021-04-03T09:34:37.000Z</Time>
            <Position>
              <LatitudeDegrees>42.29689012281596660614013671875</LatitudeDegrees>
              <LongitudeDegrees>2.5540569238364696502685546875</LongitudeDegrees>
            </Position>
            <AltitudeMeters>492.20001220703125</AltitudeMeters>
            <DistanceMeters>NAN</DistanceMeters>
          </Trackpoint>
          <Trackpoint>
            <Time>2021-04-03T09:34:41.000Z</Time>
            <Position>
              <LatitudeDegrees>42.296872101724147796630859375</LatitudeDegrees>
              <LongitudeDegrees>2.5540016032755374908447265625</LongitudeDegrees>
            </Position>
            <AltitudeMeters>492</AltitudeMeters>
            <DistanceMeters>NAN</DistanceMeters>
          </Trackpoint>
          <Trackpoint>
            <Time>2021-04-03T09:34:44.000Z</Time>
            <Position>
              <LatitudeDegrees>42.296867072582244873046875</LatitudeDegrees>
              <LongitudeDegrees>2.5539704225957393646240234375</LongitudeDegrees>
            </Position>
            <AltitudeMeters>491.79998779296875</AltitudeMeters>
            <DistanceMeters>NAN</DistanceMeters>
          </Trackpoint>
          <Trackpoint>
            <Time>2021-04-03T09:34:45.000Z</Time>
            <Position>
              <LatitudeDegrees>42.29686363600194454193115234375</LatitudeDegrees>
              <LongitudeDegrees>2.5539606995880603790283203125</LongitudeDegrees>
            </Position>
            <AltitudeMeters>491.79998779296875</AltitudeMeters>
            <DistanceMeters>NAN</DistanceMeters>
          </Trackpoint>
          <Trackpoint>
            <Time>2021-04-03T09:34:46.000Z</Time>
            <Position>
              <LatitudeDegrees>42.29686371982097625732421875</LatitudeDegrees>
              <LongitudeDegrees>2.55394720472395420074462890625</LongitudeDegrees>
            </Position>
            <AltitudeMeters>491.600006103515625</AltitudeMeters>
            <DistanceMeters>NAN</DistanceMeters>
          </Trackpoint>
          <Trackpoint>
            <Time>2021-04-03T09:34:48.000Z</Time>
            <Position>
              <LatitudeDegrees>42.29685927741229534149169921875</LatitudeDegrees>
              <LongitudeDegrees>2.5539224781095981597900390625</LongitudeDegrees>
            </Position>
            <AltitudeMeters>491.399993896484375</AltitudeMeters>
            <DistanceMeters>NAN</DistanceMeters>
          </Trackpoint>
          <Trackpoint>
            <Time>2021-04-03T09:34:51.000Z</Time>
            <Position>
              <LatitudeDegrees>42.2968442738056182861328125</LatitudeDegrees>
              <LongitudeDegrees>2.5538988411426544189453125</LongitudeDegrees>
            </Position>
            <AltitudeMeters>491.399993896484375</AltitudeMeters>
            <DistanceMeters>NAN</DistanceMeters>
          </Trackpoint>
          <Trackpoint>
            <Time>2021-04-03T09:34:54.000Z</Time>
            <Position>
              <LatitudeDegrees>42.2968229837715625762939453125</LatitudeDegrees>
              <LongitudeDegrees>2.5538827478885650634765625</LongitudeDegrees>
            </Position>
            <AltitudeMeters>491.20001220703125</AltitudeMeters>
            <DistanceMeters>NAN</DistanceMeters>
          </Trackpoint>
          <Trackpoint>
            <Time>2021-04-03T09:34:56.000Z</Time>
            <Position>
              <LatitudeDegrees>42.29681686498224735260009765625</LatitudeDegrees>
              <LongitudeDegrees>2.55386841483414173126220703125</LongitudeDegrees>
            </Position>
            <AltitudeMeters>491</AltitudeMeters>
            <DistanceMeters>NAN</DistanceMeters>
          </Trackpoint>
          <Trackpoint>
            <Time>2021-04-03T09:34:58.000Z</Time>
            <Position>
              <LatitudeDegrees>42.296799011528491973876953125</LatitudeDegrees>
              <LongitudeDegrees>2.55386305041611194610595703125</LongitudeDegrees>
            </Position>
            <AltitudeMeters>490.600006103515625</AltitudeMeters>
            <DistanceMeters>NAN</DistanceMeters>
          </Trackpoint>
          <Trackpoint>
            <Time>2021-04-03T09:34:59.000Z</Time>
            <Position>
              <LatitudeDegrees>42.29678886942565441131591796875</LatitudeDegrees>
              <LongitudeDegrees>2.5538587756454944610595703125</LongitudeDegrees>
            </Position>
            <AltitudeMeters>490.600006103515625</AltitudeMeters>
            <DistanceMeters>NAN</DistanceMeters>
          </Trackpoint>
          <Trackpoint>
            <Time>2021-04-03T09:35:00.000Z</Time>
            <Position>
              <LatitudeDegrees>42.29678300209343433380126953125</LatitudeDegrees>
              <LongitudeDegrees>2.55385366268455982208251953125</LongitudeDegrees>
            </Position>
            <AltitudeMeters>490.20001220703125</AltitudeMeters>
            <DistanceMeters>NAN</DistanceMeters>
          </Trackpoint>
          <Trackpoint>
            <Time>2021-04-03T09:35:01.000Z</Time>
            <Position>
              <LatitudeDegrees>42.29677797295153141021728515625</LatitudeDegrees>
              <LongitudeDegrees>2.553852908313274383544921875</LongitudeDegrees>
            </Position>
            <AltitudeMeters>490.20001220703125</AltitudeMeters>
            <DistanceMeters>NAN</DistanceMeters>
          </Trackpoint>
          <Trackpoint>
            <Time>2021-04-03T09:35:02.000Z</Time>
            <Position>
              <LatitudeDegrees>42.29677042923867702484130859375</LatitudeDegrees>
              <LongitudeDegrees>2.55385232158005237579345703125</LongitudeDegrees>
            </Position>
            <AltitudeMeters>490</AltitudeMeters>
            <DistanceMeters>NAN</DistanceMeters>
          </Trackpoint>
          <Trackpoint>
            <Time>2021-04-03T09:35:04.000Z</Time>
            <Position>
              <LatitudeDegrees>42.29675115086138248443603515625</LatitudeDegrees>
              <LongitudeDegrees>2.5538373179733753204345703125</LongitudeDegrees>
            </Position>
            <AltitudeMeters>489.79998779296875</AltitudeMeters>
            <DistanceMeters>NAN</DistanceMeters>
          </Trackpoint>
          <Trackpoint>
            <Time>2021-04-03T09:35:07.000Z</Time>
            <Position>
              <LatitudeDegrees>42.2966994345188140869140625</LatitudeDegrees>
              <LongitudeDegrees>2.55381594412028789520263671875</LongitudeDegrees>
            </Position>
            <AltitudeMeters>489.399993896484375</AltitudeMeters>
            <DistanceMeters>NAN</DistanceMeters>
          </Trackpoint>
          <Trackpoint>
            <Time>2021-04-03T09:35:08.000Z</Time>
            <Position>
              <LatitudeDegrees>42.29668912477791309356689453125</LatitudeDegrees>
              <LongitudeDegrees>2.5538185425102710723876953125</LongitudeDegrees>
            </Position>
            <AltitudeMeters>489.20001220703125</AltitudeMeters>
            <DistanceMeters>NAN</DistanceMeters>
          </Trackpoint>
          <Trackpoint>
            <Time>2021-04-03T09:35:10.000Z</Time>
            <Position>
              <LatitudeDegrees>42.296671606600284576416015625</LatitudeDegrees>
              <LongitudeDegrees>2.55381233990192413330078125</LongitudeDegrees>
            </Position>
            <AltitudeMeters>489.20001220703125</AltitudeMeters>
            <DistanceMeters>NAN</DistanceMeters>
          </Trackpoint>
          <Trackpoint>
            <Time>2021-04-03T09:35:13.000Z</Time>
            <Position>
              <LatitudeDegrees>42.29664704762399196624755859375</LatitudeDegrees>
              <LongitudeDegrees>2.55380135960876941680908203125</LongitudeDegrees>
            </Position>
            <AltitudeMeters>489</AltitudeMeters>
            <DistanceMeters>NAN</DistanceMeters>
          </Trackpoint>
          <Trackpoint>
            <Time>2021-04-03T09:35:17.000Z</Time>
            <Position>
              <LatitudeDegrees>42.2966137714684009552001953125</LatitudeDegrees>
              <LongitudeDegrees>2.55376917310059070587158203125</LongitudeDegrees>
            </Position>
            <AltitudeMeters>488</AltitudeMeters>
            <DistanceMeters>NAN</DistanceMeters>
          </Trackpoint>
          <Trackpoint>
            <Time>2021-04-03T09:35:19.000Z</Time>
            <Position>
              <LatitudeDegrees>42.296593822538852691650390625</LatitudeDegrees>
              <LongitudeDegrees>2.5537635572254657745361328125</LongitudeDegrees>
            </Position>
            <AltitudeMeters>487.600006103515625</AltitudeMeters>
            <DistanceMeters>NAN</DistanceMeters>
          </Trackpoint>
          <Trackpoint>
            <Time>2021-04-03T09:35:21.000Z</Time>
            <Position>
              <LatitudeDegrees>42.29655928909778594970703125</LatitudeDegrees>
              <LongitudeDegrees>2.5537555105984210968017578125</LongitudeDegrees>
            </Position>
            <AltitudeMeters>487.20001220703125</AltitudeMeters>
            <DistanceMeters>NAN</DistanceMeters>
          </Trackpoint>
          <Trackpoint>
            <Time>2021-04-03T09:35:22.000Z</Time>
            <Position>
              <LatitudeDegrees>42.29654478840529918670654296875</LatitudeDegrees>
              <LongitudeDegrees>2.5537513196468353271484375</LongitudeDegrees>
            </Position>
            <AltitudeMeters>487</AltitudeMeters>
            <DistanceMeters>NAN</DistanceMeters>
          </Trackpoint>
          <Trackpoint>
            <Time>2021-04-03T09:35:24.000Z</Time>
            <Position>
              <LatitudeDegrees>42.29651930741965770721435546875</LatitudeDegrees>
              <LongitudeDegrees>2.55375064909458160400390625</LongitudeDegrees>
            </Position>
            <AltitudeMeters>486.600006103515625</AltitudeMeters>
            <DistanceMeters>NAN</DistanceMeters>
          </Trackpoint>
          <Trackpoint>
            <Time>2021-04-03T09:35:25.000Z</Time>
            <Position>
              <LatitudeDegrees>42.29650740511715412139892578125</LatitudeDegrees>
              <LongitudeDegrees>2.55375358276069164276123046875</LongitudeDegrees>
            </Position>
            <AltitudeMeters>486.399993896484375</AltitudeMeters>
            <DistanceMeters>NAN</DistanceMeters>
          </Trackpoint>
          <Trackpoint>
            <Time>2021-04-03T09:35:28.000Z</Time>
            <Position>
              <LatitudeDegrees>42.296470440924167633056640625</LatitudeDegrees>
              <LongitudeDegrees>2.55372491665184497833251953125</LongitudeDegrees>
            </Position>
            <AltitudeMeters>485.79998779296875</AltitudeMeters>
            <DistanceMeters>NAN</DistanceMeters>
          </Trackpoint>
          <Trackpoint>
            <Time>2021-04-03T09:35:31.000Z</Time>
            <Position>
              <LatitudeDegrees>42.296427190303802490234375</LatitudeDegrees>
              <LongitudeDegrees>2.55370530299842357635498046875</LongitudeDegrees>
            </Position>
            <AltitudeMeters>485.20001220703125</AltitudeMeters>
            <DistanceMeters>NAN</DistanceMeters>
          </Trackpoint>
          <Trackpoint>
            <Time>2021-04-03T09:35:33.000Z</Time>
            <Position>
              <LatitudeDegrees>42.296389304101467132568359375</LatitudeDegrees>
              <LongitudeDegrees>2.55370882339775562286376953125</LongitudeDegrees>
            </Position>
            <AltitudeMeters>484.600006103515625</AltitudeMeters>
            <DistanceMeters>NAN</DistanceMeters>
          </Trackpoint>
          <Trackpoint>
            <Time>2021-04-03T09:35:36.000Z</Time>
            <Position>
              <LatitudeDegrees>42.29635418392717838287353515625</LatitudeDegrees>
              <LongitudeDegrees>2.553700692951679229736328125</LongitudeDegrees>
            </Position>
            <AltitudeMeters>484.20001220703125</AltitudeMeters>
            <DistanceMeters>NAN</DistanceMeters>
          </Trackpoint>
          <Trackpoint>
            <Time>2021-04-03T09:35:37.000Z</Time>
            <Position>
              <LatitudeDegrees>42.29634580202400684356689453125</LatitudeDegrees>
              <LongitudeDegrees>2.55368820391595363616943359375</LongitudeDegrees>
            </Position>
            <AltitudeMeters>484.20001220703125</AltitudeMeters>
            <DistanceMeters>NAN</DistanceMeters>
          </Trackpoint>
          <Trackpoint>
            <Time>2021-04-03T09:35:41.000Z</Time>
            <Position>
              <LatitudeDegrees>42.29628629051148891448974609375</LatitudeDegrees>
              <LongitudeDegrees>2.55364411510527133941650390625</LongitudeDegrees>
            </Position>
            <AltitudeMeters>483.600006103515625</AltitudeMeters>
            <DistanceMeters>NAN</DistanceMeters>
          </Trackpoint>
          <Trackpoint>
            <Time>2021-04-03T09:35:45.000Z</Time>
            <Position>
              <LatitudeDegrees>42.29624941013753414154052734375</LatitudeDegrees>
              <LongitudeDegrees>2.55361595191061496734619140625</LongitudeDegrees>
            </Position>
            <AltitudeMeters>482.79998779296875</AltitudeMeters>
            <DistanceMeters>NAN</DistanceMeters>
          </Trackpoint>
          <Trackpoint>
            <Time>2021-04-03T09:35:47.000Z</Time>
            <Position>
              <LatitudeDegrees>42.2962295450270175933837890625</LatitudeDegrees>
              <LongitudeDegrees>2.5536207295954227447509765625</LongitudeDegrees>
            </Position>
            <AltitudeMeters>482.399993896484375</AltitudeMeters>
            <DistanceMeters>NAN</DistanceMeters>
          </Trackpoint>
          <Trackpoint>
            <Time>2021-04-03T09:35:53.000Z</Time>
            <Position>
              <LatitudeDegrees>42.296188138425350189208984375</LatitudeDegrees>
              <LongitudeDegrees>2.55360572598874568939208984375</LongitudeDegrees>
            </Position>
            <AltitudeMeters>482</AltitudeMeters>
            <DistanceMeters>NAN</DistanceMeters>
          </Trackpoint>
          <Trackpoint>
            <Time>2021-04-03T09:35:55.000Z</Time>
            <Position>
              <LatitudeDegrees>42.29616391472518444061279296875</LatitudeDegrees>
              <LongitudeDegrees>2.5536049716174602508544921875</LongitudeDegrees>
            </Position>
            <AltitudeMeters>481.399993896484375</AltitudeMeters>
            <DistanceMeters>NAN</DistanceMeters>
          </Trackpoint>
          <Trackpoint>
            <Time>2021-04-03T09:35:57.000Z</Time>
            <Position>
              <LatitudeDegrees>42.29613424278795719146728515625</LatitudeDegrees>
              <LongitudeDegrees>2.55358569324016571044921875</LongitudeDegrees>
            </Position>
            <AltitudeMeters>480.79998779296875</AltitudeMeters>
            <DistanceMeters>NAN</DistanceMeters>
          </Trackpoint>
          <Trackpoint>
            <Time>2021-04-03T09:35:58.000Z</Time>
            <Position>
              <LatitudeDegrees>42.29612074792385101318359375</LatitudeDegrees>
              <LongitudeDegrees>2.55358527414500713348388671875</LongitudeDegrees>
            </Position>
            <AltitudeMeters>480.600006103515625</AltitudeMeters>
            <DistanceMeters>NAN</DistanceMeters>
          </Trackpoint>
          <Trackpoint>
            <Time>2021-04-03T09:36:00.000Z</Time>
            <Position>
              <LatitudeDegrees>42.29609191417694091796875</LatitudeDegrees>
              <LongitudeDegrees>2.55358703434467315673828125</LongitudeDegrees>
            </Position>
            <AltitudeMeters>480.399993896484375</AltitudeMeters>
            <DistanceMeters>NAN</DistanceMeters>
          </Trackpoint>
          <Trackpoint>
            <Time>2021-04-03T09:36:01.000Z</Time>
            <Position>
              <LatitudeDegrees>42.296078838407993316650390625</LatitudeDegrees>
              <LongitudeDegrees>2.553589046001434326171875</LongitudeDegrees>
            </Position>
            <AltitudeMeters>480.20001220703125</AltitudeMeters>
            <DistanceMeters>NAN</DistanceMeters>
          </Trackpoint>
          <Trackpoint>
            <Time>2021-04-03T09:36:06.000Z</Time>
            <Position>
              <LatitudeDegrees>42.2960270382463932037353515625</LatitudeDegrees>
              <LongitudeDegrees>2.5535798259079456329345703125</LongitudeDegrees>
            </Position>
            <AltitudeMeters>478.79998779296875</AltitudeMeters>
            <DistanceMeters>NAN</DistanceMeters>
          </Trackpoint>
          <Trackpoint>
            <Time>2021-04-03T09:36:08.000Z</Time>
            <Position>
              <LatitudeDegrees>42.29601211845874786376953125</LatitudeDegrees>
              <LongitudeDegrees>2.55357236601412296295166015625</LongitudeDegrees>
            </Position>
            <AltitudeMeters>478.399993896484375</AltitudeMeters>
            <DistanceMeters>NAN</DistanceMeters>
          </Trackpoint>
          <Trackpoint>
            <Time>2021-04-03T09:36:10.000Z</Time>
            <Position>
              <LatitudeDegrees>42.2959854640066623687744140625</LatitudeDegrees>
              <LongitudeDegrees>2.55355325527489185333251953125</LongitudeDegrees>
            </Position>
            <AltitudeMeters>478</AltitudeMeters>
            <DistanceMeters>NAN</DistanceMeters>
          </Trackpoint>
          <Trackpoint>
            <Time>2021-04-03T09:36:12.000Z</Time>
            <Position>
              <LatitudeDegrees>42.29596358723938465118408203125</LatitudeDegrees>
              <LongitudeDegrees>2.5535258464515209197998046875</LongitudeDegrees>
            </Position>
            <AltitudeMeters>477.600006103515625</AltitudeMeters>
            <DistanceMeters>NAN</DistanceMeters>
          </Trackpoint>
          <Trackpoint>
            <Time>2021-04-03T09:36:14.000Z</Time>
            <Position>
              <LatitudeDegrees>42.29595101438462734222412109375</LatitudeDegrees>
              <LongitudeDegrees>2.5535141117870807647705078125</LongitudeDegrees>
            </Position>
            <AltitudeMeters>477</AltitudeMeters>
            <DistanceMeters>NAN</DistanceMeters>
          </Trackpoint>
          <Trackpoint>
            <Time>2021-04-03T09:36:16.000Z</Time>
            <Position>
              <LatitudeDegrees>42.29594196192920207977294921875</LatitudeDegrees>
              <LongitudeDegrees>2.5535151176154613494873046875</LongitudeDegrees>
            </Position>
            <AltitudeMeters>476.399993896484375</AltitudeMeters>
            <DistanceMeters>NAN</DistanceMeters>
          </Trackpoint>
          <Trackpoint>
            <Time>2021-04-03T09:36:17.000Z</Time>
            <Position>
              <LatitudeDegrees>42.29593492113053798675537109375</LatitudeDegrees>
              <LongitudeDegrees>2.5535184703767299652099609375</LongitudeDegrees>
            </Position>
            <AltitudeMeters>476.20001220703125</AltitudeMeters>
            <DistanceMeters>NAN</DistanceMeters>
          </Trackpoint>
          <Trackpoint>
            <Time>2021-04-03T09:36:19.000Z</Time>
            <Position>
              <LatitudeDegrees>42.29591547511518001556396484375</LatitudeDegrees>
              <LongitudeDegrees>2.553523667156696319580078125</LongitudeDegrees>
            </Position>
            <AltitudeMeters>476</AltitudeMeters>
            <DistanceMeters>NAN</DistanceMeters>
          </Trackpoint>
          <Trackpoint>
            <Time>2021-04-03T09:36:21.000Z</Time>
            <Position>
              <LatitudeDegrees>42.29589234106242656707763671875</LatitudeDegrees>
              <LongitudeDegrees>2.55352777428925037384033203125</LongitudeDegrees>
            </Position>
            <AltitudeMeters>475.600006103515625</AltitudeMeters>
            <DistanceMeters>NAN</DistanceMeters>
          </Trackpoint>
          <Trackpoint>
            <Time>2021-04-03T09:36:22.000Z</Time>
            <Position>
              <LatitudeDegrees>42.29588412679731845855712890625</LatitudeDegrees>
              <LongitudeDegrees>2.55353917367756366729736328125</LongitudeDegrees>
            </Position>
            <AltitudeMeters>475.399993896484375</AltitudeMeters>
            <DistanceMeters>NAN</DistanceMeters>
          </Trackpoint>
          <Trackpoint>
            <Time>2021-04-03T09:36:23.000Z</Time>
            <Position>
              <LatitudeDegrees>42.29587540961802005767822265625</LatitudeDegrees>
              <LongitudeDegrees>2.55354437045753002166748046875</LongitudeDegrees>
            </Position>
            <AltitudeMeters>475.399993896484375</AltitudeMeters>
            <DistanceMeters>NAN</DistanceMeters>
          </Trackpoint>
          <Trackpoint>
            <Time>2021-04-03T09:36:25.000Z</Time>
            <Position>
              <LatitudeDegrees>42.295858561992645263671875</LatitudeDegrees>
              <LongitudeDegrees>2.55354051478207111358642578125</LongitudeDegrees>
            </Position>
            <AltitudeMeters>474.79998779296875</AltitudeMeters>
            <DistanceMeters>NAN</DistanceMeters>
          </Trackpoint>
          <Trackpoint>
            <Time>2021-04-03T09:36:27.000Z</Time>
            <Position>
              <LatitudeDegrees>42.2958359308540821075439453125</LatitudeDegrees>
              <LongitudeDegrees>2.5535338930785655975341796875</LongitudeDegrees>
            </Position>
            <AltitudeMeters>474.20001220703125</AltitudeMeters>
            <DistanceMeters>NAN</DistanceMeters>
          </Trackpoint>
          <Trackpoint>
            <Time>2021-04-03T09:36:28.000Z</Time>
            <Position>
              <LatitudeDegrees>42.29582704603672027587890625</LatitudeDegrees>
              <LongitudeDegrees>2.5535315461456775665283203125</LongitudeDegrees>
            </Position>
            <AltitudeMeters>474.20001220703125</AltitudeMeters>
            <DistanceMeters>NAN</DistanceMeters>
          </Trackpoint>
          <Trackpoint>
            <Time>2021-04-03T09:36:29.000Z</Time>
            <Position>
              <LatitudeDegrees>42.295824028551578521728515625</LatitudeDegrees>
              <LongitudeDegrees>2.5535340607166290283203125</LongitudeDegrees>
            </Position>
            <AltitudeMeters>474</AltitudeMeters>
            <DistanceMeters>NAN</DistanceMeters>
          </Trackpoint>
          <Trackpoint>
            <Time>2021-04-03T09:36:32.000Z</Time>
            <Position>
              <LatitudeDegrees>42.2958035767078399658203125</LatitudeDegrees>
              <LongitudeDegrees>2.5535295344889163970947265625</LongitudeDegrees>
            </Position>
            <AltitudeMeters>473.20001220703125</AltitudeMeters>
            <DistanceMeters>NAN</DistanceMeters>
          </Trackpoint>
          <Trackpoint>
            <Time>2021-04-03T09:36:35.000Z</Time>
            <Position>
              <LatitudeDegrees>42.29577365331351757049560546875</LatitudeDegrees>
              <LongitudeDegrees>2.5535533390939235687255859375</LongitudeDegrees>
            </Position>
            <AltitudeMeters>472.79998779296875</AltitudeMeters>
            <DistanceMeters>NAN</DistanceMeters>
          </Trackpoint>
          <Trackpoint>
            <Time>2021-04-03T09:36:36.000Z</Time>
            <Position>
              <LatitudeDegrees>42.2957547940313816070556640625</LatitudeDegrees>
              <LongitudeDegrees>2.55355350673198699951171875</LongitudeDegrees>
            </Position>
            <AltitudeMeters>472.600006103515625</AltitudeMeters>
            <DistanceMeters>NAN</DistanceMeters>
          </Trackpoint>
          <Trackpoint>
            <Time>2021-04-03T09:36:38.000Z</Time>
            <Position>
              <LatitudeDegrees>42.2957286424934864044189453125</LatitudeDegrees>
              <LongitudeDegrees>2.55353230051696300506591796875</LongitudeDegrees>
            </Position>
            <AltitudeMeters>472</AltitudeMeters>
            <DistanceMeters>NAN</DistanceMeters>
          </Trackpoint>
          <Trackpoint>
            <Time>2021-04-03T09:36:42.000Z</Time>
            <Position>
              <LatitudeDegrees>42.295684553682804107666015625</LatitudeDegrees>
              <LongitudeDegrees>2.5535080768167972564697265625</LongitudeDegrees>
            </Position>
            <AltitudeMeters>471.20001220703125</AltitudeMeters>
            <DistanceMeters>NAN</DistanceMeters>
          </Trackpoint>
          <Trackpoint>
            <Time>2021-04-03T09:36:43.000Z</Time>
            <Position>
              <LatitudeDegrees>42.29567424394190311431884765625</LatitudeDegrees>
              <LongitudeDegrees>2.55349542014300823211669921875</LongitudeDegrees>
            </Position>
            <AltitudeMeters>470.79998779296875</AltitudeMeters>
            <DistanceMeters>NAN</DistanceMeters>
          </Trackpoint>
          <Trackpoint>
            <Time>2021-04-03T09:36:47.000Z</Time>
            <Position>
              <LatitudeDegrees>42.295638956129550933837890625</LatitudeDegrees>
              <LongitudeDegrees>2.55347966216504573822021484375</LongitudeDegrees>
            </Position>
            <AltitudeMeters>469.79998779296875</AltitudeMeters>
            <DistanceMeters>NAN</DistanceMeters>
          </Trackpoint>
          <Trackpoint>
            <Time>2021-04-03T09:36:48.000Z</Time>
            <Position>
              <LatitudeDegrees>42.29563057422637939453125</LatitudeDegrees>
              <LongitudeDegrees>2.55346901714801788330078125</LongitudeDegrees>
            </Position>
            <AltitudeMeters>469.600006103515625</AltitudeMeters>
            <DistanceMeters>NAN</DistanceMeters>
          </Trackpoint>
          <Trackpoint>
            <Time>2021-04-03T09:36:49.000Z</Time>
            <Position>
              <LatitudeDegrees>42.29562244378030300140380859375</LatitudeDegrees>
              <LongitudeDegrees>2.55346189253032207489013671875</LongitudeDegrees>
            </Position>
            <AltitudeMeters>469.20001220703125</AltitudeMeters>
            <DistanceMeters>NAN</DistanceMeters>
          </Trackpoint>
          <Trackpoint>
            <Time>2021-04-03T09:36:51.000Z</Time>
            <Position>
              <LatitudeDegrees>42.2956082783639430999755859375</LatitudeDegrees>
              <LongitudeDegrees>2.553459964692592620849609375</LongitudeDegrees>
            </Position>
            <AltitudeMeters>468.600006103515625</AltitudeMeters>
            <DistanceMeters>NAN</DistanceMeters>
          </Trackpoint>
          <Trackpoint>
            <Time>2021-04-03T09:36:55.000Z</Time>
            <Position>
              <LatitudeDegrees>42.29557936079800128936767578125</LatitudeDegrees>
              <LongitudeDegrees>2.55345870740711688995361328125</LongitudeDegrees>
            </Position>
            <AltitudeMeters>467.20001220703125</AltitudeMeters>
            <DistanceMeters>NAN</DistanceMeters>
          </Trackpoint>
          <Trackpoint>
            <Time>2021-04-03T09:36:59.000Z</Time>
            <Position>
              <LatitudeDegrees>42.2955727390944957733154296875</LatitudeDegrees>
              <LongitudeDegrees>2.553411684930324554443359375</LongitudeDegrees>
            </Position>
            <AltitudeMeters>466</AltitudeMeters>
            <DistanceMeters>NAN</DistanceMeters>
          </Trackpoint>
          <Trackpoint>
            <Time>2021-04-03T09:37:00.000Z</Time>
            <Position>
              <LatitudeDegrees>42.2955670394003391265869140625</LatitudeDegrees>
              <LongitudeDegrees>2.553398609161376953125</LongitudeDegrees>
            </Position>
            <AltitudeMeters>465.79998779296875</AltitudeMeters>
            <DistanceMeters>NAN</DistanceMeters>
          </Trackpoint>
          <Trackpoint>
            <Time>2021-04-03T09:37:03.000Z</Time>
            <Position>
              <LatitudeDegrees>42.2955442406237125396728515625</LatitudeDegrees>
              <LongitudeDegrees>2.553386874496936798095703125</LongitudeDegrees>
            </Position>
            <AltitudeMeters>465</AltitudeMeters>
            <DistanceMeters>NAN</DistanceMeters>
          </Trackpoint>
          <Trackpoint>
            <Time>2021-04-03T09:37:04.000Z</Time>
            <Position>
              <LatitudeDegrees>42.29553342796862125396728515625</LatitudeDegrees>
              <LongitudeDegrees>2.5533743016421794891357421875</LongitudeDegrees>
            </Position>
            <AltitudeMeters>464.79998779296875</AltitudeMeters>
            <DistanceMeters>NAN</DistanceMeters>
          </Trackpoint>
          <Trackpoint>
            <Time>2021-04-03T09:37:05.000Z</Time>
            <Position>
              <LatitudeDegrees>42.295524291694164276123046875</LatitudeDegrees>
              <LongitudeDegrees>2.55336499772965908050537109375</LongitudeDegrees>
            </Position>
            <AltitudeMeters>464.20001220703125</AltitudeMeters>
            <DistanceMeters>NAN</DistanceMeters>
          </Trackpoint>
          <Trackpoint>
            <Time>2021-04-03T09:37:07.000Z</Time>
            <Position>
              <LatitudeDegrees>42.29552018456161022186279296875</LatitudeDegrees>
              <LongitudeDegrees>2.5533387623727321624755859375</LongitudeDegrees>
            </Position>
            <AltitudeMeters>463.600006103515625</AltitudeMeters>
            <DistanceMeters>NAN</DistanceMeters>
          </Trackpoint>
          <Trackpoint>
            <Time>2021-04-03T09:37:10.000Z</Time>
            <Position>
              <LatitudeDegrees>42.2955103777348995208740234375</LatitudeDegrees>
              <LongitudeDegrees>2.55332543514668941497802734375</LongitudeDegrees>
            </Position>
            <AltitudeMeters>462.399993896484375</AltitudeMeters>
            <DistanceMeters>NAN</DistanceMeters>
          </Trackpoint>
          <Trackpoint>
            <Time>2021-04-03T09:37:12.000Z</Time>
            <Position>
              <LatitudeDegrees>42.29548640549182891845703125</LatitudeDegrees>
              <LongitudeDegrees>2.55331940017640590667724609375</LongitudeDegrees>
            </Position>
            <AltitudeMeters>462.20001220703125</AltitudeMeters>
            <DistanceMeters>NAN</DistanceMeters>
          </Trackpoint>
          <Trackpoint>
            <Time>2021-04-03T09:37:15.000Z</Time>
            <Position>
              <LatitudeDegrees>42.2954647801816463470458984375</LatitudeDegrees>
              <LongitudeDegrees>2.553278915584087371826171875</LongitudeDegrees>
            </Position>
            <AltitudeMeters>461.399993896484375</AltitudeMeters>
            <DistanceMeters>NAN</DistanceMeters>
          </Trackpoint>
          <Trackpoint>
            <Time>2021-04-03T09:37:16.000Z</Time>
            <Position>
              <LatitudeDegrees>42.295456230640411376953125</LatitudeDegrees>
              <LongitudeDegrees>2.55326223559677600860595703125</LongitudeDegrees>
            </Position>
            <AltitudeMeters>461</AltitudeMeters>
            <DistanceMeters>NAN</DistanceMeters>
          </Trackpoint>
          <Trackpoint>
            <Time>2021-04-03T09:37:19.000Z</Time>
            <Position>
              <LatitudeDegrees>42.2954305820167064666748046875</LatitudeDegrees>
              <LongitudeDegrees>2.55325200967490673065185546875</LongitudeDegrees>
            </Position>
            <AltitudeMeters>460.20001220703125</AltitudeMeters>
            <DistanceMeters>NAN</DistanceMeters>
          </Trackpoint>
          <Trackpoint>
            <Time>2021-04-03T09:37:20.000Z</Time>
            <Position>
              <LatitudeDegrees>42.29542178101837635040283203125</LatitudeDegrees>
              <LongitudeDegrees>2.55325452424585819244384765625</LongitudeDegrees>
            </Position>
            <AltitudeMeters>460</AltitudeMeters>
            <DistanceMeters>NAN</DistanceMeters>
          </Trackpoint>
          <Trackpoint>
            <Time>2021-04-03T09:37:22.000Z</Time>
            <Position>
              <LatitudeDegrees>42.29539881460368633270263671875</LatitudeDegrees>
              <LongitudeDegrees>2.55324077792465686798095703125</LongitudeDegrees>
            </Position>
            <AltitudeMeters>459.399993896484375</AltitudeMeters>
            <DistanceMeters>NAN</DistanceMeters>
          </Trackpoint>
          <Trackpoint>
            <Time>2021-04-03T09:37:23.000Z</Time>
            <Position>
              <LatitudeDegrees>42.29538490064442157745361328125</LatitudeDegrees>
              <LongitudeDegrees>2.55324505269527435302734375</LongitudeDegrees>
            </Position>
            <AltitudeMeters>459.20001220703125</AltitudeMeters>
            <DistanceMeters>NAN</DistanceMeters>
          </Trackpoint>
          <Trackpoint>
            <Time>2021-04-03T09:37:25.000Z</Time>
            <Position>
              <LatitudeDegrees>42.29536528699100017547607421875</LatitudeDegrees>
              <LongitudeDegrees>2.5532375089824199676513671875</LongitudeDegrees>
            </Position>
            <AltitudeMeters>458.79998779296875</AltitudeMeters>
            <DistanceMeters>NAN</DistanceMeters>
          </Trackpoint>
          <Trackpoint>
            <Time>2021-04-03T09:37:28.000Z</Time>
            <Position>
              <LatitudeDegrees>42.29534265585243701934814453125</LatitudeDegrees>
              <LongitudeDegrees>2.5532160513103008270263671875</LongitudeDegrees>
            </Position>
            <AltitudeMeters>458</AltitudeMeters>
            <DistanceMeters>NAN</DistanceMeters>
          </Trackpoint>
          <Trackpoint>
            <Time>2021-04-03T09:37:29.000Z</Time>
            <Position>
              <LatitudeDegrees>42.29533444158732891082763671875</LatitudeDegrees>
              <LongitudeDegrees>2.55320808850228786468505859375</LongitudeDegrees>
            </Position>
            <AltitudeMeters>457.600006103515625</AltitudeMeters>
            <DistanceMeters>NAN</DistanceMeters>
          </Trackpoint>
          <Trackpoint>
            <Time>2021-04-03T09:37:32.000Z</Time>
            <Position>
              <LatitudeDegrees>42.29531818069517612457275390625</LatitudeDegrees>
              <LongitudeDegrees>2.55318294279277324676513671875</LongitudeDegrees>
            </Position>
            <AltitudeMeters>456.600006103515625</AltitudeMeters>
            <DistanceMeters>NAN</DistanceMeters>
          </Trackpoint>
          <Trackpoint>
            <Time>2021-04-03T09:37:35.000Z</Time>
            <Position>
              <LatitudeDegrees>42.2953102178871631622314453125</LatitudeDegrees>
              <LongitudeDegrees>2.5531479902565479278564453125</LongitudeDegrees>
            </Position>
            <AltitudeMeters>455.79998779296875</AltitudeMeters>
            <DistanceMeters>NAN</DistanceMeters>
          </Trackpoint>
          <Trackpoint>
            <Time>2021-04-03T09:37:37.000Z</Time>
            <Position>
              <LatitudeDegrees>42.295309044420719146728515625</LatitudeDegrees>
              <LongitudeDegrees>2.5531308911740779876708984375</LongitudeDegrees>
            </Position>
            <AltitudeMeters>455.399993896484375</AltitudeMeters>
            <DistanceMeters>NAN</DistanceMeters>
          </Trackpoint>
          <Trackpoint>
            <Time>2021-04-03T09:37:42.000Z</Time>
            <Position>
              <LatitudeDegrees>42.29534081183373928070068359375</LatitudeDegrees>
              <LongitudeDegrees>2.55306190811097621917724609375</LongitudeDegrees>
            </Position>
            <AltitudeMeters>454.600006103515625</AltitudeMeters>
            <DistanceMeters>NAN</DistanceMeters>
          </Trackpoint>
          <Trackpoint>
            <Time>2021-04-03T09:37:43.000Z</Time>
            <Position>
              <LatitudeDegrees>42.29534466750919818878173828125</LatitudeDegrees>
              <LongitudeDegrees>2.55304832942783832550048828125</LongitudeDegrees>
            </Position>
            <AltitudeMeters>454.399993896484375</AltitudeMeters>
            <DistanceMeters>NAN</DistanceMeters>
          </Trackpoint>
          <Trackpoint>
            <Time>2021-04-03T09:37:45.000Z</Time>
            <Position>
              <LatitudeDegrees>42.29534634388983249664306640625</LatitudeDegrees>
              <LongitudeDegrees>2.55302402190864086151123046875</LongitudeDegrees>
            </Position>
            <AltitudeMeters>453.600006103515625</AltitudeMeters>
            <DistanceMeters>NAN</DistanceMeters>
          </Trackpoint>
          <Trackpoint>
            <Time>2021-04-03T09:37:47.000Z</Time>
            <Position>
              <LatitudeDegrees>42.295337207615375518798828125</LatitudeDegrees>
              <LongitudeDegrees>2.5530016422271728515625</LongitudeDegrees>
            </Position>
            <AltitudeMeters>453.20001220703125</AltitudeMeters>
            <DistanceMeters>NAN</DistanceMeters>
          </Trackpoint>
          <Trackpoint>
            <Time>2021-04-03T09:37:48.000Z</Time>
            <Position>
              <LatitudeDegrees>42.2953310050070285797119140625</LatitudeDegrees>
              <LongitudeDegrees>2.5529883988201618194580078125</LongitudeDegrees>
            </Position>
            <AltitudeMeters>453</AltitudeMeters>
            <DistanceMeters>NAN</DistanceMeters>
          </Trackpoint>
          <Trackpoint>
            <Time>2021-04-03T09:37:52.000Z</Time>
            <Position>
              <LatitudeDegrees>42.295307032763957977294921875</LatitudeDegrees>
              <LongitudeDegrees>2.5529468245804309844970703125</LongitudeDegrees>
            </Position>
            <AltitudeMeters>452.20001220703125</AltitudeMeters>
            <DistanceMeters>NAN</DistanceMeters>
          </Trackpoint>
          <Trackpoint>
            <Time>2021-04-03T09:37:55.000Z</Time>
            <Position>
              <LatitudeDegrees>42.2952917777001857757568359375</LatitudeDegrees>
              <LongitudeDegrees>2.5529354251921176910400390625</LongitudeDegrees>
            </Position>
            <AltitudeMeters>451.20001220703125</AltitudeMeters>
            <DistanceMeters>NAN</DistanceMeters>
          </Trackpoint>
          <Trackpoint>
            <Time>2021-04-03T09:37:56.000Z</Time>
            <Position>
              <LatitudeDegrees>42.29528666473925113677978515625</LatitudeDegrees>
              <LongitudeDegrees>2.552929222583770751953125</LongitudeDegrees>
            </Position>
            <AltitudeMeters>450.79998779296875</AltitudeMeters>
            <DistanceMeters>NAN</DistanceMeters>
          </Trackpoint>
          <Trackpoint>
            <Time>2021-04-03T09:37:58.000Z</Time>
            <Position>
              <LatitudeDegrees>42.29527442716062068939208984375</LatitudeDegrees>
              <LongitudeDegrees>2.55291790701448917388916015625</LongitudeDegrees>
            </Position>
            <AltitudeMeters>450.20001220703125</AltitudeMeters>
            <DistanceMeters>NAN</DistanceMeters>
          </Trackpoint>
          <Trackpoint>
            <Time>2021-04-03T09:37:59.000Z</Time>
            <Position>
              <LatitudeDegrees>42.2952632792294025421142578125</LatitudeDegrees>
              <LongitudeDegrees>2.552916146814823150634765625</LongitudeDegrees>
            </Position>
            <AltitudeMeters>450</AltitudeMeters>
            <DistanceMeters>NAN</DistanceMeters>
          </Trackpoint>
          <Trackpoint>
            <Time>2021-04-03T09:38:03.000Z</Time>
            <Position>
              <LatitudeDegrees>42.295233272016048431396484375</LatitudeDegrees>
              <LongitudeDegrees>2.55291740410029888153076171875</LongitudeDegrees>
            </Position>
            <AltitudeMeters>449.20001220703125</AltitudeMeters>
            <DistanceMeters>NAN</DistanceMeters>
          </Trackpoint>
          <Trackpoint>
            <Time>2021-04-03T09:38:05.000Z</Time>
            <Position>
              <LatitudeDegrees>42.29522229172289371490478515625</LatitudeDegrees>
              <LongitudeDegrees>2.55291287787258625030517578125</LongitudeDegrees>
            </Position>
            <AltitudeMeters>449</AltitudeMeters>
            <DistanceMeters>NAN</DistanceMeters>
          </Trackpoint>
          <Trackpoint>
            <Time>2021-04-03T09:38:09.000Z</Time>
            <Position>
              <LatitudeDegrees>42.295197062194347381591796875</LatitudeDegrees>
              <LongitudeDegrees>2.55291514098644256591796875</LongitudeDegrees>
            </Position>
            <AltitudeMeters>448.399993896484375</AltitudeMeters>
            <DistanceMeters>NAN</DistanceMeters>
          </Trackpoint>
          <Trackpoint>
            <Time>2021-04-03T09:38:10.000Z</Time>
            <Position>
              <LatitudeDegrees>42.29519077576696872711181640625</LatitudeDegrees>
              <LongitudeDegrees>2.5529216788709163665771484375</LongitudeDegrees>
            </Position>
            <AltitudeMeters>448.20001220703125</AltitudeMeters>
            <DistanceMeters>NAN</DistanceMeters>
          </Trackpoint>
          <Trackpoint>
            <Time>2021-04-03T09:38:11.000Z</Time>
            <Position>
              <LatitudeDegrees>42.29518189094960689544677734375</LatitudeDegrees>
              <LongitudeDegrees>2.55293047986924648284912109375</LongitudeDegrees>
            </Position>
            <AltitudeMeters>448.20001220703125</AltitudeMeters>
            <DistanceMeters>NAN</DistanceMeters>
          </Trackpoint>
          <Trackpoint>
            <Time>2021-04-03T09:38:12.000Z</Time>
            <Position>
              <LatitudeDegrees>42.29517602361738681793212890625</LatitudeDegrees>
              <LongitudeDegrees>2.55293265916407108306884765625</LongitudeDegrees>
            </Position>
            <AltitudeMeters>447.79998779296875</AltitudeMeters>
            <DistanceMeters>NAN</DistanceMeters>
          </Trackpoint>
          <Trackpoint>
            <Time>2021-04-03T09:38:15.000Z</Time>
            <Position>
              <LatitudeDegrees>42.2951526381075382232666015625</LatitudeDegrees>
              <LongitudeDegrees>2.55292964167892932891845703125</LongitudeDegrees>
            </Position>
            <AltitudeMeters>447</AltitudeMeters>
            <DistanceMeters>NAN</DistanceMeters>
          </Trackpoint>
          <Trackpoint>
            <Time>2021-04-03T09:38:16.000Z</Time>
            <Position>
              <LatitudeDegrees>42.2951405681669712066650390625</LatitudeDegrees>
              <LongitudeDegrees>2.55292293615639209747314453125</LongitudeDegrees>
            </Position>
            <AltitudeMeters>446.600006103515625</AltitudeMeters>
            <DistanceMeters>NAN</DistanceMeters>
          </Trackpoint>
          <Trackpoint>
            <Time>2021-04-03T09:38:18.000Z</Time>
            <Position>
              <LatitudeDegrees>42.29511718265712261199951171875</LatitudeDegrees>
              <LongitudeDegrees>2.55291455425322055816650390625</LongitudeDegrees>
            </Position>
            <AltitudeMeters>445.600006103515625</AltitudeMeters>
            <DistanceMeters>NAN</DistanceMeters>
          </Trackpoint>
          <Trackpoint>
            <Time>2021-04-03T09:38:19.000Z</Time>
            <Position>
              <LatitudeDegrees>42.29511047713458538055419921875</LatitudeDegrees>
              <LongitudeDegrees>2.552912123501300811767578125</LongitudeDegrees>
            </Position>
            <AltitudeMeters>445.399993896484375</AltitudeMeters>
            <DistanceMeters>NAN</DistanceMeters>
          </Trackpoint>
          <Trackpoint>
            <Time>2021-04-03T09:38:24.000Z</Time>
            <Position>
              <LatitudeDegrees>42.295072339475154876708984375</LatitudeDegrees>
              <LongitudeDegrees>2.5529163144528865814208984375</LongitudeDegrees>
            </Position>
            <AltitudeMeters>444.399993896484375</AltitudeMeters>
            <DistanceMeters>NAN</DistanceMeters>
          </Trackpoint>
          <Trackpoint>
            <Time>2021-04-03T09:38:26.000Z</Time>
            <Position>
              <LatitudeDegrees>42.29505993425846099853515625</LatitudeDegrees>
              <LongitudeDegrees>2.55291991867125034332275390625</LongitudeDegrees>
            </Position>
            <AltitudeMeters>444</AltitudeMeters>
            <DistanceMeters>NAN</DistanceMeters>
          </Trackpoint>
          <Trackpoint>
            <Time>2021-04-03T09:38:30.000Z</Time>
            <Position>
              <LatitudeDegrees>42.29504509828984737396240234375</LatitudeDegrees>
              <LongitudeDegrees>2.55294590257108211517333984375</LongitudeDegrees>
            </Position>
            <AltitudeMeters>443.20001220703125</AltitudeMeters>
            <DistanceMeters>NAN</DistanceMeters>
          </Trackpoint>
          <Trackpoint>
            <Time>2021-04-03T09:38:34.000Z</Time>
            <Position>
              <LatitudeDegrees>42.29502431116998195648193359375</LatitudeDegrees>
              <LongitudeDegrees>2.55296786315739154815673828125</LongitudeDegrees>
            </Position>
            <AltitudeMeters>443</AltitudeMeters>
            <DistanceMeters>NAN</DistanceMeters>
          </Trackpoint>
          <Trackpoint>
            <Time>2021-04-03T09:38:39.000Z</Time>
            <Position>
              <LatitudeDegrees>42.29497351683676242828369140625</LatitudeDegrees>
              <LongitudeDegrees>2.5530034862458705902099609375</LongitudeDegrees>
            </Position>
            <AltitudeMeters>442.20001220703125</AltitudeMeters>
            <DistanceMeters>NAN</DistanceMeters>
          </Trackpoint>
          <Trackpoint>
            <Time>2021-04-03T09:38:41.000Z</Time>
            <Position>
              <LatitudeDegrees>42.2949645482003688812255859375</LatitudeDegrees>
              <LongitudeDegrees>2.553016059100627899169921875</LongitudeDegrees>
            </Position>
            <AltitudeMeters>441.79998779296875</AltitudeMeters>
            <DistanceMeters>NAN</DistanceMeters>
          </Trackpoint>
          <Trackpoint>
            <Time>2021-04-03T09:38:43.000Z</Time>
            <Position>
              <LatitudeDegrees>42.29495893232524394989013671875</LatitudeDegrees>
              <LongitudeDegrees>2.553038857877254486083984375</LongitudeDegrees>
            </Position>
            <AltitudeMeters>441.399993896484375</AltitudeMeters>
            <DistanceMeters>NAN</DistanceMeters>
          </Trackpoint>
          <Trackpoint>
            <Time>2021-04-03T09:38:44.000Z</Time>
            <Position>
              <LatitudeDegrees>42.29495909996330738067626953125</LatitudeDegrees>
              <LongitudeDegrees>2.5530484132468700408935546875</LongitudeDegrees>
            </Position>
            <AltitudeMeters>441.20001220703125</AltitudeMeters>
            <DistanceMeters>NAN</DistanceMeters>
          </Trackpoint>
          <Trackpoint>
            <Time>2021-04-03T09:38:46.000Z</Time>
            <Position>
              <LatitudeDegrees>42.2949461080133914947509765625</LatitudeDegrees>
              <LongitudeDegrees>2.5530702061951160430908203125</LongitudeDegrees>
            </Position>
            <AltitudeMeters>441.20001220703125</AltitudeMeters>
            <DistanceMeters>NAN</DistanceMeters>
          </Trackpoint>
          <Trackpoint>
            <Time>2021-04-03T09:38:48.000Z</Time>
            <Position>
              <LatitudeDegrees>42.2949238121509552001953125</LatitudeDegrees>
              <LongitudeDegrees>2.553064338862895965576171875</LongitudeDegrees>
            </Position>
            <AltitudeMeters>440.600006103515625</AltitudeMeters>
            <DistanceMeters>NAN</DistanceMeters>
          </Trackpoint>
          <Trackpoint>
            <Time>2021-04-03T09:38:49.000Z</Time>
            <Position>
              <LatitudeDegrees>42.2949149273335933685302734375</LatitudeDegrees>
              <LongitudeDegrees>2.55305050872266292572021484375</LongitudeDegrees>
            </Position>
            <AltitudeMeters>440.20001220703125</AltitudeMeters>
            <DistanceMeters>NAN</DistanceMeters>
          </Trackpoint>
          <Trackpoint>
            <Time>2021-04-03T09:38:52.000Z</Time>
            <Position>
              <LatitudeDegrees>42.29489497840404510498046875</LatitudeDegrees>
              <LongitudeDegrees>2.5530137121677398681640625</LongitudeDegrees>
            </Position>
            <AltitudeMeters>438.79998779296875</AltitudeMeters>
            <DistanceMeters>NAN</DistanceMeters>
          </Trackpoint>
          <Trackpoint>
            <Time>2021-04-03T09:38:53.000Z</Time>
            <Position>
              <LatitudeDegrees>42.2948850877583026885986328125</LatitudeDegrees>
              <LongitudeDegrees>2.553001977503299713134765625</LongitudeDegrees>
            </Position>
            <AltitudeMeters>438.600006103515625</AltitudeMeters>
            <DistanceMeters>NAN</DistanceMeters>
          </Trackpoint>
          <Trackpoint>
            <Time>2021-04-03T09:38:54.000Z</Time>
            <Position>
              <LatitudeDegrees>42.29487243108451366424560546875</LatitudeDegrees>
              <LongitudeDegrees>2.55298898555338382720947265625</LongitudeDegrees>
            </Position>
            <AltitudeMeters>438.399993896484375</AltitudeMeters>
            <DistanceMeters>NAN</DistanceMeters>
          </Trackpoint>
          <Trackpoint>
            <Time>2021-04-03T09:38:55.000Z</Time>
            <Position>
              <LatitudeDegrees>42.2948666475713253021240234375</LatitudeDegrees>
              <LongitudeDegrees>2.5529761612415313720703125</LongitudeDegrees>
            </Position>
            <AltitudeMeters>438</AltitudeMeters>
            <DistanceMeters>NAN</DistanceMeters>
          </Trackpoint>
          <Trackpoint>
            <Time>2021-04-03T09:38:56.000Z</Time>
            <Position>
              <LatitudeDegrees>42.29486522264778614044189453125</LatitudeDegrees>
              <LongitudeDegrees>2.5529599003493785858154296875</LongitudeDegrees>
            </Position>
            <AltitudeMeters>437.600006103515625</AltitudeMeters>
            <DistanceMeters>NAN</DistanceMeters>
          </Trackpoint>
          <Trackpoint>
            <Time>2021-04-03T09:38:57.000Z</Time>
            <Position>
              <LatitudeDegrees>42.2948629595339298248291015625</LatitudeDegrees>
              <LongitudeDegrees>2.55294330418109893798828125</LongitudeDegrees>
            </Position>
            <AltitudeMeters>437.20001220703125</AltitudeMeters>
            <DistanceMeters>NAN</DistanceMeters>
          </Trackpoint>
          <Trackpoint>
            <Time>2021-04-03T09:39:01.000Z</Time>
            <Position>
              <LatitudeDegrees>42.29485767893493175506591796875</LatitudeDegrees>
              <LongitudeDegrees>2.55290013737976551055908203125</LongitudeDegrees>
            </Position>
            <AltitudeMeters>436.600006103515625</AltitudeMeters>
            <DistanceMeters>NAN</DistanceMeters>
          </Trackpoint>
          <Trackpoint>
            <Time>2021-04-03T09:39:02.000Z</Time>
            <Position>
              <LatitudeDegrees>42.29485650546848773956298828125</LatitudeDegrees>
              <LongitudeDegrees>2.55288722924888134002685546875</LongitudeDegrees>
            </Position>
            <AltitudeMeters>436.399993896484375</AltitudeMeters>
            <DistanceMeters>NAN</DistanceMeters>
          </Trackpoint>
          <Trackpoint>
            <Time>2021-04-03T09:39:04.000Z</Time>
            <Position>
              <LatitudeDegrees>42.29484929703176021575927734375</LatitudeDegrees>
              <LongitudeDegrees>2.55285772494971752166748046875</LongitudeDegrees>
            </Position>
            <AltitudeMeters>435.600006103515625</AltitudeMeters>
            <DistanceMeters>NAN</DistanceMeters>
          </Trackpoint>
          <Trackpoint>
            <Time>2021-04-03T09:39:05.000Z</Time>
            <Position>
              <LatitudeDegrees>42.294844686985015869140625</LatitudeDegrees>
              <LongitudeDegrees>2.5528489239513874053955078125</LongitudeDegrees>
            </Position>
            <AltitudeMeters>435.399993896484375</AltitudeMeters>
            <DistanceMeters>NAN</DistanceMeters>
          </Trackpoint>
          <Trackpoint>
            <Time>2021-04-03T09:39:10.000Z</Time>
            <Position>
              <LatitudeDegrees>42.2948220558464527130126953125</LatitudeDegrees>
              <LongitudeDegrees>2.5527885742485523223876953125</LongitudeDegrees>
            </Position>
            <AltitudeMeters>434.399993896484375</AltitudeMeters>
            <DistanceMeters>NAN</DistanceMeters>
          </Trackpoint>
          <Trackpoint>
            <Time>2021-04-03T09:39:11.000Z</Time>
            <Position>
              <LatitudeDegrees>42.29481543414294719696044921875</LatitudeDegrees>
              <LongitudeDegrees>2.55277373827993869781494140625</LongitudeDegrees>
            </Position>
            <AltitudeMeters>434.399993896484375</AltitudeMeters>
            <DistanceMeters>NAN</DistanceMeters>
          </Trackpoint>
          <Trackpoint>
            <Time>2021-04-03T09:39:12.000Z</Time>
            <Position>
              <LatitudeDegrees>42.29480956681072711944580078125</LatitudeDegrees>
              <LongitudeDegrees>2.552755214273929595947265625</LongitudeDegrees>
            </Position>
            <AltitudeMeters>434.20001220703125</AltitudeMeters>
            <DistanceMeters>NAN</DistanceMeters>
          </Trackpoint>
          <Trackpoint>
            <Time>2021-04-03T09:39:16.000Z</Time>
            <Position>
              <LatitudeDegrees>42.29482121765613555908203125</LatitudeDegrees>
              <LongitudeDegrees>2.55270835943520069122314453125</LongitudeDegrees>
            </Position>
            <AltitudeMeters>433.20001220703125</AltitudeMeters>
            <DistanceMeters>NAN</DistanceMeters>
          </Trackpoint>
          <Trackpoint>
            <Time>2021-04-03T09:39:17.000Z</Time>
            <Position>
              <LatitudeDegrees>42.29482130147516727447509765625</LatitudeDegrees>
              <LongitudeDegrees>2.55269343964755535125732421875</LongitudeDegrees>
            </Position>
            <AltitudeMeters>433</AltitudeMeters>
            <DistanceMeters>NAN</DistanceMeters>
          </Trackpoint>
          <Trackpoint>
            <Time>2021-04-03T09:39:22.000Z</Time>
            <Position>
              <LatitudeDegrees>42.29481727816164493560791015625</LatitudeDegrees>
              <LongitudeDegrees>2.55262688733637332916259765625</LongitudeDegrees>
            </Position>
            <AltitudeMeters>432.20001220703125</AltitudeMeters>
            <DistanceMeters>NAN</DistanceMeters>
          </Trackpoint>
          <Trackpoint>
            <Time>2021-04-03T09:39:25.000Z</Time>
            <Position>
              <LatitudeDegrees>42.29481627233326435089111328125</LatitudeDegrees>
              <LongitudeDegrees>2.552576847374439239501953125</LongitudeDegrees>
            </Position>
            <AltitudeMeters>431.79998779296875</AltitudeMeters>
            <DistanceMeters>NAN</DistanceMeters>
          </Trackpoint>
          <Trackpoint>
            <Time>2021-04-03T09:39:31.000Z</Time>
            <Position>
              <LatitudeDegrees>42.29483488015830516815185546875</LatitudeDegrees>
              <LongitudeDegrees>2.552500404417514801025390625</LongitudeDegrees>
            </Position>
            <AltitudeMeters>431</AltitudeMeters>
            <DistanceMeters>NAN</DistanceMeters>
          </Trackpoint>
          <Trackpoint>
            <Time>2021-04-03T09:39:34.000Z</Time>
            <Position>
              <LatitudeDegrees>42.2948460280895233154296875</LatitudeDegrees>
              <LongitudeDegrees>2.55247232504189014434814453125</LongitudeDegrees>
            </Position>
            <AltitudeMeters>430.79998779296875</AltitudeMeters>
            <DistanceMeters>NAN</DistanceMeters>
          </Trackpoint>
          <Trackpoint>
            <Time>2021-04-03T09:39:35.000Z</Time>
            <Position>
              <LatitudeDegrees>42.29484745301306247711181640625</LatitudeDegrees>
              <LongitudeDegrees>2.55246813409030437469482421875</LongitudeDegrees>
            </Position>
            <AltitudeMeters>430.600006103515625</AltitudeMeters>
            <DistanceMeters>NAN</DistanceMeters>
          </Trackpoint>
          <Trackpoint>
            <Time>2021-04-03T09:39:39.000Z</Time>
            <Position>
              <LatitudeDegrees>42.29486455209553241729736328125</LatitudeDegrees>
              <LongitudeDegrees>2.55246587097644805908203125</LongitudeDegrees>
            </Position>
            <AltitudeMeters>430</AltitudeMeters>
            <DistanceMeters>NAN</DistanceMeters>
          </Trackpoint>
          <Trackpoint>
            <Time>2021-04-03T09:39:40.000Z</Time>
            <Position>
              <LatitudeDegrees>42.29487477801740169525146484375</LatitudeDegrees>
              <LongitudeDegrees>2.55245438776910305023193359375</LongitudeDegrees>
            </Position>
            <AltitudeMeters>429.79998779296875</AltitudeMeters>
            <DistanceMeters>NAN</DistanceMeters>
          </Trackpoint>
          <Trackpoint>
            <Time>2021-04-03T09:39:41.000Z</Time>
            <Position>
              <LatitudeDegrees>42.2948867641389369964599609375</LatitudeDegrees>
              <LongitudeDegrees>2.55244131200015544891357421875</LongitudeDegrees>
            </Position>
            <AltitudeMeters>429.399993896484375</AltitudeMeters>
            <DistanceMeters>NAN</DistanceMeters>
          </Trackpoint>
          <Trackpoint>
            <Time>2021-04-03T09:39:44.000Z</Time>
            <Position>
              <LatitudeDegrees>42.29491434060037136077880859375</LatitudeDegrees>
              <LongitudeDegrees>2.55238917656242847442626953125</LongitudeDegrees>
            </Position>
            <AltitudeMeters>428.79998779296875</AltitudeMeters>
            <DistanceMeters>NAN</DistanceMeters>
          </Trackpoint>
          <Trackpoint>
            <Time>2021-04-03T09:39:45.000Z</Time>
            <Position>
              <LatitudeDegrees>42.29492221958935260772705078125</LatitudeDegrees>
              <LongitudeDegrees>2.55237861536443233489990234375</LongitudeDegrees>
            </Position>
            <AltitudeMeters>428.600006103515625</AltitudeMeters>
            <DistanceMeters>NAN</DistanceMeters>
          </Trackpoint>
          <Trackpoint>
            <Time>2021-04-03T09:39:49.000Z</Time>
            <Position>
              <LatitudeDegrees>42.2949202917516231536865234375</LatitudeDegrees>
              <LongitudeDegrees>2.55233980715274810791015625</LongitudeDegrees>
            </Position>
            <AltitudeMeters>427.79998779296875</AltitudeMeters>
            <DistanceMeters>NAN</DistanceMeters>
          </Trackpoint>
          <Trackpoint>
            <Time>2021-04-03T09:39:52.000Z</Time>
            <Position>
              <LatitudeDegrees>42.29489925317466259002685546875</LatitudeDegrees>
              <LongitudeDegrees>2.5523265637457370758056640625</LongitudeDegrees>
            </Position>
            <AltitudeMeters>427.600006103515625</AltitudeMeters>
            <DistanceMeters>NAN</DistanceMeters>
          </Trackpoint>
          <Trackpoint>
            <Time>2021-04-03T09:39:58.000Z</Time>
            <Position>
              <LatitudeDegrees>42.29486606083810329437255859375</LatitudeDegrees>
              <LongitudeDegrees>2.55229949019849300384521484375</LongitudeDegrees>
            </Position>
            <AltitudeMeters>426.79998779296875</AltitudeMeters>
            <DistanceMeters>NAN</DistanceMeters>
          </Trackpoint>
          <Trackpoint>
            <Time>2021-04-03T09:40:01.000Z</Time>
            <Position>
              <LatitudeDegrees>42.29484426788985729217529296875</LatitudeDegrees>
              <LongitudeDegrees>2.55226361565291881561279296875</LongitudeDegrees>
            </Position>
            <AltitudeMeters>426.399993896484375</AltitudeMeters>
            <DistanceMeters>NAN</DistanceMeters>
          </Trackpoint>
          <Trackpoint>
            <Time>2021-04-03T09:40:05.000Z</Time>
            <Position>
              <LatitudeDegrees>42.2948237322270870208740234375</LatitudeDegrees>
              <LongitudeDegrees>2.55223444662988185882568359375</LongitudeDegrees>
            </Position>
            <AltitudeMeters>425.399993896484375</AltitudeMeters>
            <DistanceMeters>NAN</DistanceMeters>
          </Trackpoint>
          <Trackpoint>
            <Time>2021-04-03T09:40:07.000Z</Time>
            <Position>
              <LatitudeDegrees>42.29482130147516727447509765625</LatitudeDegrees>
              <LongitudeDegrees>2.55222522653639316558837890625</LongitudeDegrees>
            </Position>
            <AltitudeMeters>425</AltitudeMeters>
            <DistanceMeters>NAN</DistanceMeters>
          </Trackpoint>
          <Trackpoint>
            <Time>2021-04-03T09:40:10.000Z</Time>
            <Position>
              <LatitudeDegrees>42.29480621404945850372314453125</LatitudeDegrees>
              <LongitudeDegrees>2.552175186574459075927734375</LongitudeDegrees>
            </Position>
            <AltitudeMeters>424.20001220703125</AltitudeMeters>
            <DistanceMeters>NAN</DistanceMeters>
          </Trackpoint>
          <Trackpoint>
            <Time>2021-04-03T09:40:16.000Z</Time>
            <Position>
              <LatitudeDegrees>42.29478006251156330108642578125</LatitudeDegrees>
              <LongitudeDegrees>2.5521046109497547149658203125</LongitudeDegrees>
            </Position>
            <AltitudeMeters>423.399993896484375</AltitudeMeters>
            <DistanceMeters>NAN</DistanceMeters>
          </Trackpoint>
          <Trackpoint>
            <Time>2021-04-03T09:40:19.000Z</Time>
            <Position>
              <LatitudeDegrees>42.29477402754127979278564453125</LatitudeDegrees>
              <LongitudeDegrees>2.552096061408519744873046875</LongitudeDegrees>
            </Position>
            <AltitudeMeters>423.20001220703125</AltitudeMeters>
            <DistanceMeters>NAN</DistanceMeters>
          </Trackpoint>
          <Trackpoint>
            <Time>2021-04-03T09:40:20.000Z</Time>
            <Position>
              <LatitudeDegrees>42.294771932065486907958984375</LatitudeDegrees>
              <LongitudeDegrees>2.55209580995142459869384765625</LongitudeDegrees>
            </Position>
            <AltitudeMeters>423.20001220703125</AltitudeMeters>
            <DistanceMeters>NAN</DistanceMeters>
          </Trackpoint>
          <Trackpoint>
            <Time>2021-04-03T09:40:21.000Z</Time>
            <Position>
              <LatitudeDegrees>42.2947761230170726776123046875</LatitudeDegrees>
              <LongitudeDegrees>2.55209832452237606048583984375</LongitudeDegrees>
            </Position>
            <AltitudeMeters>423.20001220703125</AltitudeMeters>
            <DistanceMeters>NAN</DistanceMeters>
          </Trackpoint>
          <Trackpoint>
            <Time>2021-04-03T09:40:32.000Z</Time>
            <Position>
              <LatitudeDegrees>42.2947717644274234771728515625</LatitudeDegrees>
              <LongitudeDegrees>2.552110143005847930908203125</LongitudeDegrees>
            </Position>
            <AltitudeMeters>423</AltitudeMeters>
            <DistanceMeters>NAN</DistanceMeters>
          </Trackpoint>
          <Trackpoint>
            <Time>2021-04-03T09:40:39.000Z</Time>
            <Position>
              <LatitudeDegrees>42.294774949550628662109375</LatitudeDegrees>
              <LongitudeDegrees>2.552110143005847930908203125</LongitudeDegrees>
            </Position>
            <AltitudeMeters>423</AltitudeMeters>
            <DistanceMeters>NAN</DistanceMeters>
          </Trackpoint>
          <Trackpoint>
            <Time>2021-04-03T09:40:46.000Z</Time>
            <Position>
              <LatitudeDegrees>42.29476279579102993011474609375</LatitudeDegrees>
              <LongitudeDegrees>2.55204400978982448577880859375</LongitudeDegrees>
            </Position>
            <AltitudeMeters>422</AltitudeMeters>
            <DistanceMeters>NAN</DistanceMeters>
          </Trackpoint>
          <Trackpoint>
            <Time>2021-04-03T09:40:47.000Z</Time>
            <Position>
              <LatitudeDegrees>42.29476011358201503753662109375</LatitudeDegrees>
              <LongitudeDegrees>2.5520251505076885223388671875</LongitudeDegrees>
            </Position>
            <AltitudeMeters>422</AltitudeMeters>
            <DistanceMeters>NAN</DistanceMeters>
          </Trackpoint>
          <Trackpoint>
            <Time>2021-04-03T09:40:52.000Z</Time>
            <Position>
              <LatitudeDegrees>42.29474234394729137420654296875</LatitudeDegrees>
              <LongitudeDegrees>2.55191844888031482696533203125</LongitudeDegrees>
            </Position>
            <AltitudeMeters>421</AltitudeMeters>
            <DistanceMeters>NAN</DistanceMeters>
          </Trackpoint>
          <Trackpoint>
            <Time>2021-04-03T09:40:54.000Z</Time>
            <Position>
              <LatitudeDegrees>42.29473806917667388916015625</LatitudeDegrees>
              <LongitudeDegrees>2.55189833231270313262939453125</LongitudeDegrees>
            </Position>
            <AltitudeMeters>420.600006103515625</AltitudeMeters>
            <DistanceMeters>NAN</DistanceMeters>
          </Trackpoint>
          <Trackpoint>
            <Time>2021-04-03T09:40:56.000Z</Time>
            <Position>
              <LatitudeDegrees>42.2947365604341030120849609375</LatitudeDegrees>
              <LongitudeDegrees>2.55187670700252056121826171875</LongitudeDegrees>
            </Position>
            <AltitudeMeters>420.20001220703125</AltitudeMeters>
            <DistanceMeters>NAN</DistanceMeters>
          </Trackpoint>
          <Trackpoint>
            <Time>2021-04-03T09:40:57.000Z</Time>
            <Position>
              <LatitudeDegrees>42.2947335429489612579345703125</LatitudeDegrees>
              <LongitudeDegrees>2.5518645532429218292236328125</LongitudeDegrees>
            </Position>
            <AltitudeMeters>420.20001220703125</AltitudeMeters>
            <DistanceMeters>NAN</DistanceMeters>
          </Trackpoint>
          <Trackpoint>
            <Time>2021-04-03T09:40:59.000Z</Time>
            <Position>
              <LatitudeDegrees>42.29472876526415348052978515625</LatitudeDegrees>
              <LongitudeDegrees>2.55183747969567775726318359375</LongitudeDegrees>
            </Position>
            <AltitudeMeters>419.600006103515625</AltitudeMeters>
            <DistanceMeters>NAN</DistanceMeters>
          </Trackpoint>
          <Trackpoint>
            <Time>2021-04-03T09:41:02.000Z</Time>
            <Position>
              <LatitudeDegrees>42.2947181202471256256103515625</LatitudeDegrees>
              <LongitudeDegrees>2.55179422907531261444091796875</LongitudeDegrees>
            </Position>
            <AltitudeMeters>419</AltitudeMeters>
            <DistanceMeters>NAN</DistanceMeters>
          </Trackpoint>
          <Trackpoint>
            <Time>2021-04-03T09:41:03.000Z</Time>
            <Position>
              <LatitudeDegrees>42.2947140969336032867431640625</LatitudeDegrees>
              <LongitudeDegrees>2.551780901849269866943359375</LongitudeDegrees>
            </Position>
            <AltitudeMeters>418.600006103515625</AltitudeMeters>
            <DistanceMeters>NAN</DistanceMeters>
          </Trackpoint>
          <Trackpoint>
            <Time>2021-04-03T09:41:07.000Z</Time>
            <Position>
              <LatitudeDegrees>42.29470227845013141632080078125</LatitudeDegrees>
              <LongitudeDegrees>2.55172180943191051483154296875</LongitudeDegrees>
            </Position>
            <AltitudeMeters>417.600006103515625</AltitudeMeters>
            <DistanceMeters>NAN</DistanceMeters>
          </Trackpoint>
          <Trackpoint>
            <Time>2021-04-03T09:41:11.000Z</Time>
            <Position>
              <LatitudeDegrees>42.2946983389556407928466796875</LatitudeDegrees>
              <LongitudeDegrees>2.551658190786838531494140625</LongitudeDegrees>
            </Position>
            <AltitudeMeters>416.600006103515625</AltitudeMeters>
            <DistanceMeters>NAN</DistanceMeters>
          </Trackpoint>
          <Trackpoint>
            <Time>2021-04-03T09:41:12.000Z</Time>
            <Position>
              <LatitudeDegrees>42.29469523765146732330322265625</LatitudeDegrees>
              <LongitudeDegrees>2.55164285190403461456298828125</LongitudeDegrees>
            </Position>
            <AltitudeMeters>416.20001220703125</AltitudeMeters>
            <DistanceMeters>NAN</DistanceMeters>
          </Trackpoint>
          <Trackpoint>
            <Time>2021-04-03T09:41:15.000Z</Time>
            <Position>
              <LatitudeDegrees>42.2946929745376110076904296875</LatitudeDegrees>
              <LongitudeDegrees>2.55159205757081508636474609375</LongitudeDegrees>
            </Position>
            <AltitudeMeters>415.399993896484375</AltitudeMeters>
            <DistanceMeters>NAN</DistanceMeters>
          </Trackpoint>
          <Trackpoint>
            <Time>2021-04-03T09:41:17.000Z</Time>
            <Position>
              <LatitudeDegrees>42.2947006858885288238525390625</LatitudeDegrees>
              <LongitudeDegrees>2.55156598985195159912109375</LongitudeDegrees>
            </Position>
            <AltitudeMeters>414.79998779296875</AltitudeMeters>
            <DistanceMeters>NAN</DistanceMeters>
          </Trackpoint>
          <Trackpoint>
            <Time>2021-04-03T09:41:19.000Z</Time>
            <Position>
              <LatitudeDegrees>42.2947026975452899932861328125</LatitudeDegrees>
              <LongitudeDegrees>2.551544867455959320068359375</LongitudeDegrees>
            </Position>
            <AltitudeMeters>414.399993896484375</AltitudeMeters>
            <DistanceMeters>NAN</DistanceMeters>
          </Trackpoint>
          <Trackpoint>
            <Time>2021-04-03T09:41:24.000Z</Time>
            <Position>
              <LatitudeDegrees>42.2946983389556407928466796875</LatitudeDegrees>
              <LongitudeDegrees>2.55147487856447696685791015625</LongitudeDegrees>
            </Position>
            <AltitudeMeters>413.600006103515625</AltitudeMeters>
            <DistanceMeters>NAN</DistanceMeters>
          </Trackpoint>
          <Trackpoint>
            <Time>2021-04-03T09:41:28.000Z</Time>
            <Position>
              <LatitudeDegrees>42.294712923467159271240234375</LatitudeDegrees>
              <LongitudeDegrees>2.55141955800354480743408203125</LongitudeDegrees>
            </Position>
            <AltitudeMeters>412.79998779296875</AltitudeMeters>
            <DistanceMeters>NAN</DistanceMeters>
          </Trackpoint>
          <Trackpoint>
            <Time>2021-04-03T09:41:29.000Z</Time>
            <Position>
              <LatitudeDegrees>42.2947130911052227020263671875</LatitudeDegrees>
              <LongitudeDegrees>2.55140966735780239105224609375</LongitudeDegrees>
            </Position>
            <AltitudeMeters>412.20001220703125</AltitudeMeters>
            <DistanceMeters>NAN</DistanceMeters>
          </Trackpoint>
          <Trackpoint>
            <Time>2021-04-03T09:41:35.000Z</Time>
            <Position>
              <LatitudeDegrees>42.29472155682742595672607421875</LatitudeDegrees>
              <LongitudeDegrees>2.55132920108735561370849609375</LongitudeDegrees>
            </Position>
            <AltitudeMeters>411.20001220703125</AltitudeMeters>
            <DistanceMeters>NAN</DistanceMeters>
          </Trackpoint>
          <Trackpoint>
            <Time>2021-04-03T09:41:36.000Z</Time>
            <Position>
              <LatitudeDegrees>42.2947226464748382568359375</LatitudeDegrees>
              <LongitudeDegrees>2.55131386220455169677734375</LongitudeDegrees>
            </Position>
            <AltitudeMeters>411.20001220703125</AltitudeMeters>
            <DistanceMeters>NAN</DistanceMeters>
          </Trackpoint>
          <Trackpoint>
            <Time>2021-04-03T09:41:39.000Z</Time>
            <Position>
              <LatitudeDegrees>42.29472599923610687255859375</LatitudeDegrees>
              <LongitudeDegrees>2.5513029657304286956787109375</LongitudeDegrees>
            </Position>
            <AltitudeMeters>410.600006103515625</AltitudeMeters>
            <DistanceMeters>NAN</DistanceMeters>
          </Trackpoint>
          <Trackpoint>
            <Time>2021-04-03T09:41:41.000Z</Time>
            <Position>
              <LatitudeDegrees>42.29472465813159942626953125</LatitudeDegrees>
              <LongitudeDegrees>2.55131025798618793487548828125</LongitudeDegrees>
            </Position>
            <AltitudeMeters>410.600006103515625</AltitudeMeters>
            <DistanceMeters>NAN</DistanceMeters>
          </Trackpoint>
          <Trackpoint>
            <Time>2021-04-03T09:41:42.000Z</Time>
            <Position>
              <LatitudeDegrees>42.294726334512233734130859375</LatitudeDegrees>
              <LongitudeDegrees>2.551310844719409942626953125</LongitudeDegrees>
            </Position>
            <AltitudeMeters>410.399993896484375</AltitudeMeters>
            <DistanceMeters>NAN</DistanceMeters>
          </Trackpoint>
          <Trackpoint>
            <Time>2021-04-03T09:41:53.000Z</Time>
            <Position>
              <LatitudeDegrees>42.2947226464748382568359375</LatitudeDegrees>
              <LongitudeDegrees>2.55131176672875881195068359375</LongitudeDegrees>
            </Position>
            <AltitudeMeters>410.20001220703125</AltitudeMeters>
            <DistanceMeters>NAN</DistanceMeters>
          </Trackpoint>
          <Trackpoint>
            <Time>2021-04-03T09:42:00.000Z</Time>
            <Position>
              <LatitudeDegrees>42.2947226464748382568359375</LatitudeDegrees>
              <LongitudeDegrees>2.55131210200488567352294921875</LongitudeDegrees>
            </Position>
            <AltitudeMeters>410.20001220703125</AltitudeMeters>
            <DistanceMeters>NAN</DistanceMeters>
          </Trackpoint>
          <Trackpoint>
            <Time>2021-04-03T09:42:11.000Z</Time>
            <Position>
              <LatitudeDegrees>42.294727005064487457275390625</LatitudeDegrees>
              <LongitudeDegrees>2.55133523605763912200927734375</LongitudeDegrees>
            </Position>
            <AltitudeMeters>410.20001220703125</AltitudeMeters>
            <DistanceMeters>NAN</DistanceMeters>
          </Trackpoint>
          <Trackpoint>
            <Time>2021-04-03T09:42:12.000Z</Time>
            <Position>
              <LatitudeDegrees>42.29472708888351917266845703125</LatitudeDegrees>
              <LongitudeDegrees>2.5513391755521297454833984375</LongitudeDegrees>
            </Position>
            <AltitudeMeters>410.20001220703125</AltitudeMeters>
            <DistanceMeters>NAN</DistanceMeters>
          </Trackpoint>
          <Trackpoint>
            <Time>2021-04-03T09:42:26.000Z</Time>
            <Position>
              <LatitudeDegrees>42.29473672807216644287109375</LatitudeDegrees>
              <LongitudeDegrees>2.551341019570827484130859375</LongitudeDegrees>
            </Position>
            <AltitudeMeters>410.399993896484375</AltitudeMeters>
            <DistanceMeters>NAN</DistanceMeters>
          </Trackpoint>
          <Trackpoint>
            <Time>2021-04-03T09:42:32.000Z</Time>
            <Position>
              <LatitudeDegrees>42.294741757214069366455078125</LatitudeDegrees>
              <LongitudeDegrees>2.55133121274411678314208984375</LongitudeDegrees>
            </Position>
            <AltitudeMeters>410.399993896484375</AltitudeMeters>
            <DistanceMeters>NAN</DistanceMeters>
          </Trackpoint>
          <Trackpoint>
            <Time>2021-04-03T09:42:43.000Z</Time>
            <Position>
              <LatitudeDegrees>42.2947536595165729522705078125</LatitudeDegrees>
              <LongitudeDegrees>2.55130908451974391937255859375</LongitudeDegrees>
            </Position>
            <AltitudeMeters>410.20001220703125</AltitudeMeters>
            <DistanceMeters>NAN</DistanceMeters>
          </Trackpoint>
          <Trackpoint>
            <Time>2021-04-03T09:43:03.000Z</Time>
            <Position>
              <LatitudeDegrees>42.29476279579102993011474609375</LatitudeDegrees>
              <LongitudeDegrees>2.5512784905731678009033203125</LongitudeDegrees>
            </Position>
            <AltitudeMeters>410.20001220703125</AltitudeMeters>
            <DistanceMeters>NAN</DistanceMeters>
          </Trackpoint>
          <Trackpoint>
            <Time>2021-04-03T09:43:16.000Z</Time>
            <Position>
              <LatitudeDegrees>42.294769920408725738525390625</LatitudeDegrees>
              <LongitudeDegrees>2.551266588270664215087890625</LongitudeDegrees>
            </Position>
            <AltitudeMeters>410.20001220703125</AltitudeMeters>
            <DistanceMeters>NAN</DistanceMeters>
          </Trackpoint>
          <Trackpoint>
            <Time>2021-04-03T09:43:27.000Z</Time>
            <Position>
              <LatitudeDegrees>42.29478224180638790130615234375</LatitudeDegrees>
              <LongitudeDegrees>2.55126918666064739227294921875</LongitudeDegrees>
            </Position>
            <AltitudeMeters>410.20001220703125</AltitudeMeters>
            <DistanceMeters>NAN</DistanceMeters>
          </Trackpoint>
          <Trackpoint>
            <Time>2021-04-03T09:43:45.000Z</Time>
            <Position>
              <LatitudeDegrees>42.29480118490755558013916015625</LatitudeDegrees>
              <LongitudeDegrees>2.55128963850438594818115234375</LongitudeDegrees>
            </Position>
            <AltitudeMeters>410.20001220703125</AltitudeMeters>
            <DistanceMeters>NAN</DistanceMeters>
          </Trackpoint>
          <Trackpoint>
            <Time>2021-04-03T09:43:46.000Z</Time>
            <Position>
              <LatitudeDegrees>42.29480118490755558013916015625</LatitudeDegrees>
              <LongitudeDegrees>2.55128963850438594818115234375</LongitudeDegrees>
            </Position>
            <AltitudeMeters>410.20001220703125</AltitudeMeters>
            <DistanceMeters>NAN</DistanceMeters>
          </Trackpoint>
          <Trackpoint>
            <Time>2021-04-03T09:44:02.000Z</Time>
            <Position>
              <LatitudeDegrees>42.29480185545980930328369140625</LatitudeDegrees>
              <LongitudeDegrees>2.5512885488569736480712890625</LongitudeDegrees>
            </Position>
            <AltitudeMeters>410.20001220703125</AltitudeMeters>
            <DistanceMeters>NAN</DistanceMeters>
          </Trackpoint>
          <Trackpoint>
            <Time>2021-04-03T09:44:06.000Z</Time>
            <Position>
              <LatitudeDegrees>42.29479900561273097991943359375</LatitudeDegrees>
              <LongitudeDegrees>2.551287710666656494140625</LongitudeDegrees>
            </Position>
            <AltitudeMeters>410.20001220703125</AltitudeMeters>
            <DistanceMeters>NAN</DistanceMeters>
          </Trackpoint>
          <Trackpoint>
            <Time>2021-04-03T09:44:07.000Z</Time>
            <Position>
              <LatitudeDegrees>42.29479841887950897216796875</LatitudeDegrees>
              <LongitudeDegrees>2.55128745920956134796142578125</LongitudeDegrees>
            </Position>
            <AltitudeMeters>410.20001220703125</AltitudeMeters>
            <DistanceMeters>NAN</DistanceMeters>
          </Trackpoint>
          <Trackpoint>
            <Time>2021-04-03T09:44:15.000Z</Time>
            <Position>
              <LatitudeDegrees>42.2947898693382740020751953125</LatitudeDegrees>
              <LongitudeDegrees>2.55128410644829273223876953125</LongitudeDegrees>
            </Position>
            <AltitudeMeters>410.20001220703125</AltitudeMeters>
            <DistanceMeters>NAN</DistanceMeters>
          </Trackpoint>
          <Trackpoint>
            <Time>2021-04-03T09:44:20.000Z</Time>
            <Position>
              <LatitudeDegrees>42.2947761230170726776123046875</LatitudeDegrees>
              <LongitudeDegrees>2.55128108896315097808837890625</LongitudeDegrees>
            </Position>
            <AltitudeMeters>410.20001220703125</AltitudeMeters>
            <DistanceMeters>NAN</DistanceMeters>
          </Trackpoint>
          <Trackpoint>
            <Time>2021-04-03T09:44:32.000Z</Time>
            <Position>
              <LatitudeDegrees>42.2947519831359386444091796875</LatitudeDegrees>
              <LongitudeDegrees>2.5512741319835186004638671875</LongitudeDegrees>
            </Position>
            <AltitudeMeters>410.20001220703125</AltitudeMeters>
            <DistanceMeters>NAN</DistanceMeters>
          </Trackpoint>
          <Trackpoint>
            <Time>2021-04-03T09:44:38.000Z</Time>
            <Position>
              <LatitudeDegrees>42.2947436012327671051025390625</LatitudeDegrees>
              <LongitudeDegrees>2.5512737967073917388916015625</LongitudeDegrees>
            </Position>
            <AltitudeMeters>410.20001220703125</AltitudeMeters>
            <DistanceMeters>NAN</DistanceMeters>
          </Trackpoint>
          <Trackpoint>
            <Time>2021-04-03T09:44:40.000Z</Time>
            <Position>
              <LatitudeDegrees>42.294741086661815643310546875</LatitudeDegrees>
              <LongitudeDegrees>2.5512734614312648773193359375</LongitudeDegrees>
            </Position>
            <AltitudeMeters>410.20001220703125</AltitudeMeters>
            <DistanceMeters>NAN</DistanceMeters>
          </Trackpoint>
          <Trackpoint>
            <Time>2021-04-03T09:44:43.000Z</Time>
            <Position>
              <LatitudeDegrees>42.29473806917667388916015625</LatitudeDegrees>
              <LongitudeDegrees>2.55127304233610630035400390625</LongitudeDegrees>
            </Position>
            <AltitudeMeters>410.20001220703125</AltitudeMeters>
            <DistanceMeters>NAN</DistanceMeters>
          </Trackpoint>
          <Trackpoint>
            <Time>2021-04-03T09:44:47.000Z</Time>
            <Position>
              <LatitudeDegrees>42.294735051691532135009765625</LatitudeDegrees>
              <LongitudeDegrees>2.55127304233610630035400390625</LongitudeDegrees>
            </Position>
            <AltitudeMeters>410.20001220703125</AltitudeMeters>
            <DistanceMeters>NAN</DistanceMeters>
          </Trackpoint>
          <Trackpoint>
            <Time>2021-04-03T09:44:51.000Z</Time>
            <Position>
              <LatitudeDegrees>42.29472993873059749603271484375</LatitudeDegrees>
              <LongitudeDegrees>2.55127270705997943878173828125</LongitudeDegrees>
            </Position>
            <AltitudeMeters>406.79998779296875</AltitudeMeters>
            <DistanceMeters>NAN</DistanceMeters>
          </Trackpoint>
          <Trackpoint>
            <Time>2021-04-03T09:44:54.000Z</Time>
            <Position>
              <LatitudeDegrees>42.29467361234128475189208984375</LatitudeDegrees>
              <LongitudeDegrees>2.55126197822391986846923828125</LongitudeDegrees>
            </Position>
            <AltitudeMeters>406.79998779296875</AltitudeMeters>
            <DistanceMeters>NAN</DistanceMeters>
          </Trackpoint>
          <Trackpoint>
            <Time>2021-04-03T09:44:59.000Z</Time>
            <Position>
              <LatitudeDegrees>42.2946161963045597076416015625</LatitudeDegrees>
              <LongitudeDegrees>2.55123674869537353515625</LongitudeDegrees>
            </Position>
            <AltitudeMeters>405.79998779296875</AltitudeMeters>
            <DistanceMeters>NAN</DistanceMeters>
          </Trackpoint>
          <Trackpoint>
            <Time>2021-04-03T09:45:00.000Z</Time>
            <Position>
              <LatitudeDegrees>42.29460890404880046844482421875</LatitudeDegrees>
              <LongitudeDegrees>2.55123314447700977325439453125</LongitudeDegrees>
            </Position>
            <AltitudeMeters>405.79998779296875</AltitudeMeters>
            <DistanceMeters>NAN</DistanceMeters>
          </Trackpoint>
          <Trackpoint>
            <Time>2021-04-03T09:45:06.000Z</Time>
            <Position>
              <LatitudeDegrees>42.294554002583026885986328125</LatitudeDegrees>
              <LongitudeDegrees>2.55123984999954700469970703125</LongitudeDegrees>
            </Position>
            <AltitudeMeters>404.79998779296875</AltitudeMeters>
            <DistanceMeters>NAN</DistanceMeters>
          </Trackpoint>
          <Trackpoint>
            <Time>2021-04-03T09:45:07.000Z</Time>
            <Position>
              <LatitudeDegrees>42.2945457883179187774658203125</LatitudeDegrees>
              <LongitudeDegrees>2.5512385927140712738037109375</LongitudeDegrees>
            </Position>
            <AltitudeMeters>404.79998779296875</AltitudeMeters>
            <DistanceMeters>NAN</DistanceMeters>
          </Trackpoint>
          <Trackpoint>
            <Time>2021-04-03T09:45:09.000Z</Time>
            <Position>
              <LatitudeDegrees>42.294531874358654022216796875</LatitudeDegrees>
              <LongitudeDegrees>2.5512488186359405517578125</LongitudeDegrees>
            </Position>
            <AltitudeMeters>404.399993896484375</AltitudeMeters>
            <DistanceMeters>NAN</DistanceMeters>
          </Trackpoint>
          <Trackpoint>
            <Time>2021-04-03T09:45:11.000Z</Time>
            <Position>
              <LatitudeDegrees>42.2945162840187549591064453125</LatitudeDegrees>
              <LongitudeDegrees>2.55126155912876129150390625</LongitudeDegrees>
            </Position>
            <AltitudeMeters>404</AltitudeMeters>
            <DistanceMeters>NAN</DistanceMeters>
          </Trackpoint>
          <Trackpoint>
            <Time>2021-04-03T09:45:12.000Z</Time>
            <Position>
              <LatitudeDegrees>42.29450932703912258148193359375</LatitudeDegrees>
              <LongitudeDegrees>2.55127086304128170013427734375</LongitudeDegrees>
            </Position>
            <AltitudeMeters>404</AltitudeMeters>
            <DistanceMeters>NAN</DistanceMeters>
          </Trackpoint>
          <Trackpoint>
            <Time>2021-04-03T09:45:14.000Z</Time>
            <Position>
              <LatitudeDegrees>42.294490970671176910400390625</LatitudeDegrees>
              <LongitudeDegrees>2.55127857439219951629638671875</LongitudeDegrees>
            </Position>
            <AltitudeMeters>403.79998779296875</AltitudeMeters>
            <DistanceMeters>NAN</DistanceMeters>
          </Trackpoint>
          <Trackpoint>
            <Time>2021-04-03T09:45:15.000Z</Time>
            <Position>
              <LatitudeDegrees>42.29447227902710437774658203125</LatitudeDegrees>
              <LongitudeDegrees>2.55128159187734127044677734375</LongitudeDegrees>
            </Position>
            <AltitudeMeters>403.399993896484375</AltitudeMeters>
            <DistanceMeters>NAN</DistanceMeters>
          </Trackpoint>
          <Trackpoint>
            <Time>2021-04-03T09:45:16.000Z</Time>
            <Position>
              <LatitudeDegrees>42.29445786215364933013916015625</LatitudeDegrees>
              <LongitudeDegrees>2.5512895546853542327880859375</LongitudeDegrees>
            </Position>
            <AltitudeMeters>403.20001220703125</AltitudeMeters>
            <DistanceMeters>NAN</DistanceMeters>
          </Trackpoint>
          <Trackpoint>
            <Time>2021-04-03T09:45:19.000Z</Time>
            <Position>
              <LatitudeDegrees>42.294420562684535980224609375</LatitudeDegrees>
              <LongitudeDegrees>2.551304809749126434326171875</LongitudeDegrees>
            </Position>
            <AltitudeMeters>402.79998779296875</AltitudeMeters>
            <DistanceMeters>NAN</DistanceMeters>
          </Trackpoint>
          <Trackpoint>
            <Time>2021-04-03T09:45:20.000Z</Time>
            <Position>
              <LatitudeDegrees>42.29441444389522075653076171875</LatitudeDegrees>
              <LongitudeDegrees>2.55130673758685588836669921875</LongitudeDegrees>
            </Position>
            <AltitudeMeters>402.79998779296875</AltitudeMeters>
            <DistanceMeters>NAN</DistanceMeters>
          </Trackpoint>
          <Trackpoint>
            <Time>2021-04-03T09:45:21.000Z</Time>
            <Position>
              <LatitudeDegrees>42.2944115102291107177734375</LatitudeDegrees>
              <LongitudeDegrees>2.55131210200488567352294921875</LongitudeDegrees>
            </Position>
            <AltitudeMeters>402.79998779296875</AltitudeMeters>
            <DistanceMeters>NAN</DistanceMeters>
          </Trackpoint>
          <Trackpoint>
            <Time>2021-04-03T09:45:23.000Z</Time>
            <Position>
              <LatitudeDegrees>42.29440572671592235565185546875</LatitudeDegrees>
              <LongitudeDegrees>2.5513271056115627288818359375</LongitudeDegrees>
            </Position>
            <AltitudeMeters>402.399993896484375</AltitudeMeters>
            <DistanceMeters>NAN</DistanceMeters>
          </Trackpoint>
          <Trackpoint>
            <Time>2021-04-03T09:45:24.000Z</Time>
            <Position>
              <LatitudeDegrees>42.294399105012416839599609375</LatitudeDegrees>
              <LongitudeDegrees>2.55133330821990966796875</LongitudeDegrees>
            </Position>
            <AltitudeMeters>402.399993896484375</AltitudeMeters>
            <DistanceMeters>NAN</DistanceMeters>
          </Trackpoint>
          <Trackpoint>
            <Time>2021-04-03T09:45:25.000Z</Time>
            <Position>
              <LatitudeDegrees>42.2943905554711818695068359375</LatitudeDegrees>
              <LongitudeDegrees>2.5513415224850177764892578125</LongitudeDegrees>
            </Position>
            <AltitudeMeters>402.20001220703125</AltitudeMeters>
            <DistanceMeters>NAN</DistanceMeters>
          </Trackpoint>
          <Trackpoint>
            <Time>2021-04-03T09:45:27.000Z</Time>
            <Position>
              <LatitudeDegrees>42.294364236295223236083984375</LatitudeDegrees>
              <LongitudeDegrees>2.551364488899707794189453125</LongitudeDegrees>
            </Position>
            <AltitudeMeters>402.20001220703125</AltitudeMeters>
            <DistanceMeters>NAN</DistanceMeters>
          </Trackpoint>
          <Trackpoint>
            <Time>2021-04-03T09:45:30.000Z</Time>
            <Position>
              <LatitudeDegrees>42.29435275308787822723388671875</LatitudeDegrees>
              <LongitudeDegrees>2.55140279419720172882080078125</LongitudeDegrees>
            </Position>
            <AltitudeMeters>402</AltitudeMeters>
            <DistanceMeters>NAN</DistanceMeters>
          </Trackpoint>
          <Trackpoint>
            <Time>2021-04-03T09:45:34.000Z</Time>
            <Position>
              <LatitudeDegrees>42.2943214885890483856201171875</LatitudeDegrees>
              <LongitudeDegrees>2.55144755356013774871826171875</LongitudeDegrees>
            </Position>
            <AltitudeMeters>401.600006103515625</AltitudeMeters>
            <DistanceMeters>NAN</DistanceMeters>
          </Trackpoint>
          <Trackpoint>
            <Time>2021-04-03T09:45:37.000Z</Time>
            <Position>
              <LatitudeDegrees>42.29430514387786388397216796875</LatitudeDegrees>
              <LongitudeDegrees>2.55149214528501033782958984375</LongitudeDegrees>
            </Position>
            <AltitudeMeters>401.399993896484375</AltitudeMeters>
            <DistanceMeters>NAN</DistanceMeters>
          </Trackpoint>
          <Trackpoint>
            <Time>2021-04-03T09:45:38.000Z</Time>
            <Position>
              <LatitudeDegrees>42.2943055629730224609375</LatitudeDegrees>
              <LongitudeDegrees>2.5514996051788330078125</LongitudeDegrees>
            </Position>
            <AltitudeMeters>401.399993896484375</AltitudeMeters>
            <DistanceMeters>NAN</DistanceMeters>
          </Trackpoint>
          <Trackpoint>
            <Time>2021-04-03T09:45:44.000Z</Time>
            <Position>
              <LatitudeDegrees>42.29427614249289035797119140625</LatitudeDegrees>
              <LongitudeDegrees>2.5515564344823360443115234375</LongitudeDegrees>
            </Position>
            <AltitudeMeters>401</AltitudeMeters>
            <DistanceMeters>NAN</DistanceMeters>
          </Trackpoint>
          <Trackpoint>
            <Time>2021-04-03T09:45:46.000Z</Time>
            <Position>
              <LatitudeDegrees>42.294269688427448272705078125</LatitudeDegrees>
              <LongitudeDegrees>2.55157059989869594573974609375</LongitudeDegrees>
            </Position>
            <AltitudeMeters>401</AltitudeMeters>
            <DistanceMeters>NAN</DistanceMeters>
          </Trackpoint>
          <Trackpoint>
            <Time>2021-04-03T09:45:50.000Z</Time>
            <Position>
              <LatitudeDegrees>42.294249571859836578369140625</LatitudeDegrees>
              <LongitudeDegrees>2.55161100067198276519775390625</LongitudeDegrees>
            </Position>
            <AltitudeMeters>400.399993896484375</AltitudeMeters>
            <DistanceMeters>NAN</DistanceMeters>
          </Trackpoint>
          <Trackpoint>
            <Time>2021-04-03T09:45:51.000Z</Time>
            <Position>
              <LatitudeDegrees>42.29424127377569675445556640625</LatitudeDegrees>
              <LongitudeDegrees>2.5516301952302455902099609375</LongitudeDegrees>
            </Position>
            <AltitudeMeters>400.20001220703125</AltitudeMeters>
            <DistanceMeters>NAN</DistanceMeters>
          </Trackpoint>
          <Trackpoint>
            <Time>2021-04-03T09:45:52.000Z</Time>
            <Position>
              <LatitudeDegrees>42.29423113167285919189453125</LatitudeDegrees>
              <LongitudeDegrees>2.5516489706933498382568359375</LongitudeDegrees>
            </Position>
            <AltitudeMeters>400.20001220703125</AltitudeMeters>
            <DistanceMeters>NAN</DistanceMeters>
          </Trackpoint>
          <Trackpoint>
            <Time>2021-04-03T09:45:55.000Z</Time>
            <Position>
              <LatitudeDegrees>42.29417623020708560943603515625</LatitudeDegrees>
              <LongitudeDegrees>2.55169414915144443511962890625</LongitudeDegrees>
            </Position>
            <AltitudeMeters>399</AltitudeMeters>
            <DistanceMeters>NAN</DistanceMeters>
          </Trackpoint>
          <Trackpoint>
            <Time>2021-04-03T09:45:56.000Z</Time>
            <Position>
              <LatitudeDegrees>42.29415996931493282318115234375</LatitudeDegrees>
              <LongitudeDegrees>2.551701776683330535888671875</LongitudeDegrees>
            </Position>
            <AltitudeMeters>398.600006103515625</AltitudeMeters>
            <DistanceMeters>NAN</DistanceMeters>
          </Trackpoint>
          <Trackpoint>
            <Time>2021-04-03T09:46:00.000Z</Time>
            <Position>
              <LatitudeDegrees>42.29413733817636966705322265625</LatitudeDegrees>
              <LongitudeDegrees>2.55172700621187686920166015625</LongitudeDegrees>
            </Position>
            <AltitudeMeters>398.20001220703125</AltitudeMeters>
            <DistanceMeters>NAN</DistanceMeters>
          </Trackpoint>
          <Trackpoint>
            <Time>2021-04-03T09:46:02.000Z</Time>
            <Position>
              <LatitudeDegrees>42.2941347397863864898681640625</LatitudeDegrees>
              <LongitudeDegrees>2.55173320882022380828857421875</LongitudeDegrees>
            </Position>
            <AltitudeMeters>398</AltitudeMeters>
            <DistanceMeters>NAN</DistanceMeters>
          </Trackpoint>
          <Trackpoint>
            <Time>2021-04-03T09:46:05.000Z</Time>
            <Position>
              <LatitudeDegrees>42.29411738924682140350341796875</LatitudeDegrees>
              <LongitudeDegrees>2.55176103673875331878662109375</LongitudeDegrees>
            </Position>
            <AltitudeMeters>397.600006103515625</AltitudeMeters>
            <DistanceMeters>NAN</DistanceMeters>
          </Trackpoint>
          <Trackpoint>
            <Time>2021-04-03T09:46:08.000Z</Time>
            <Position>
              <LatitudeDegrees>42.2940924949944019317626953125</LatitudeDegrees>
              <LongitudeDegrees>2.5517780520021915435791015625</LongitudeDegrees>
            </Position>
            <AltitudeMeters>397.20001220703125</AltitudeMeters>
            <DistanceMeters>NAN</DistanceMeters>
          </Trackpoint>
          <Trackpoint>
            <Time>2021-04-03T09:46:11.000Z</Time>
            <Position>
              <LatitudeDegrees>42.29407154023647308349609375</LatitudeDegrees>
              <LongitudeDegrees>2.55179339088499546051025390625</LongitudeDegrees>
            </Position>
            <AltitudeMeters>397.20001220703125</AltitudeMeters>
            <DistanceMeters>NAN</DistanceMeters>
          </Trackpoint>
          <Trackpoint>
            <Time>2021-04-03T09:46:15.000Z</Time>
            <Position>
              <LatitudeDegrees>42.29403206147253513336181640625</LatitudeDegrees>
              <LongitudeDegrees>2.55181333981454372406005859375</LongitudeDegrees>
            </Position>
            <AltitudeMeters>396.79998779296875</AltitudeMeters>
            <DistanceMeters>NAN</DistanceMeters>
          </Trackpoint>
          <Trackpoint>
            <Time>2021-04-03T09:46:17.000Z</Time>
            <Position>
              <LatitudeDegrees>42.2940073348581790924072265625</LatitudeDegrees>
              <LongitudeDegrees>2.55180479027330875396728515625</LongitudeDegrees>
            </Position>
            <AltitudeMeters>396.600006103515625</AltitudeMeters>
            <DistanceMeters>NAN</DistanceMeters>
          </Trackpoint>
          <Trackpoint>
            <Time>2021-04-03T09:46:18.000Z</Time>
            <Position>
              <LatitudeDegrees>42.29399434290826320648193359375</LatitudeDegrees>
              <LongitudeDegrees>2.55180730484426021575927734375</LongitudeDegrees>
            </Position>
            <AltitudeMeters>396.399993896484375</AltitudeMeters>
            <DistanceMeters>NAN</DistanceMeters>
          </Trackpoint>
          <Trackpoint>
            <Time>2021-04-03T09:46:19.000Z</Time>
            <Position>
              <LatitudeDegrees>42.2939877212047576904296875</LatitudeDegrees>
              <LongitudeDegrees>2.55181300453841686248779296875</LongitudeDegrees>
            </Position>
            <AltitudeMeters>396.399993896484375</AltitudeMeters>
            <DistanceMeters>NAN</DistanceMeters>
          </Trackpoint>
          <Trackpoint>
            <Time>2021-04-03T09:46:22.000Z</Time>
            <Position>
              <LatitudeDegrees>42.29396685026586055755615234375</LatitudeDegrees>
              <LongitudeDegrees>2.5518233142793178558349609375</LongitudeDegrees>
            </Position>
            <AltitudeMeters>395.79998779296875</AltitudeMeters>
            <DistanceMeters>NAN</DistanceMeters>
          </Trackpoint>
          <Trackpoint>
            <Time>2021-04-03T09:46:23.000Z</Time>
            <Position>
              <LatitudeDegrees>42.29395679198205471038818359375</LatitudeDegrees>
              <LongitudeDegrees>2.55182876251637935638427734375</LongitudeDegrees>
            </Position>
            <AltitudeMeters>395.600006103515625</AltitudeMeters>
            <DistanceMeters>NAN</DistanceMeters>
          </Trackpoint>
          <Trackpoint>
            <Time>2021-04-03T09:46:25.000Z</Time>
            <Position>
              <LatitudeDegrees>42.2939312271773815155029296875</LatitudeDegrees>
              <LongitudeDegrees>2.5518377311527729034423828125</LongitudeDegrees>
            </Position>
            <AltitudeMeters>395.600006103515625</AltitudeMeters>
            <DistanceMeters>NAN</DistanceMeters>
          </Trackpoint>
          <Trackpoint>
            <Time>2021-04-03T09:46:27.000Z</Time>
            <Position>
              <LatitudeDegrees>42.2939087636768817901611328125</LatitudeDegrees>
              <LongitudeDegrees>2.55184737034142017364501953125</LongitudeDegrees>
            </Position>
            <AltitudeMeters>395.20001220703125</AltitudeMeters>
            <DistanceMeters>NAN</DistanceMeters>
          </Trackpoint>
          <Trackpoint>
            <Time>2021-04-03T09:46:29.000Z</Time>
            <Position>
              <LatitudeDegrees>42.29388118721544742584228515625</LatitudeDegrees>
              <LongitudeDegrees>2.55185826681554317474365234375</LongitudeDegrees>
            </Position>
            <AltitudeMeters>394.79998779296875</AltitudeMeters>
            <DistanceMeters>NAN</DistanceMeters>
          </Trackpoint>
          <Trackpoint>
            <Time>2021-04-03T09:46:30.000Z</Time>
            <Position>
              <LatitudeDegrees>42.29386425577104091644287109375</LatitudeDegrees>
              <LongitudeDegrees>2.55186296068131923675537109375</LongitudeDegrees>
            </Position>
            <AltitudeMeters>394.600006103515625</AltitudeMeters>
            <DistanceMeters>NAN</DistanceMeters>
          </Trackpoint>
          <Trackpoint>
            <Time>2021-04-03T09:46:31.000Z</Time>
            <Position>
              <LatitudeDegrees>42.29385419748723506927490234375</LatitudeDegrees>
              <LongitudeDegrees>2.5518618710339069366455078125</LongitudeDegrees>
            </Position>
            <AltitudeMeters>394.399993896484375</AltitudeMeters>
            <DistanceMeters>NAN</DistanceMeters>
          </Trackpoint>
          <Trackpoint>
            <Time>2021-04-03T09:46:34.000Z</Time>
            <Position>
              <LatitudeDegrees>42.29381966404616832733154296875</LatitudeDegrees>
              <LongitudeDegrees>2.55186111666262149810791015625</LongitudeDegrees>
            </Position>
            <AltitudeMeters>394.20001220703125</AltitudeMeters>
            <DistanceMeters>NAN</DistanceMeters>
          </Trackpoint>
          <Trackpoint>
            <Time>2021-04-03T09:46:38.000Z</Time>
            <Position>
              <LatitudeDegrees>42.293798625469207763671875</LatitudeDegrees>
              <LongitudeDegrees>2.551872096955776214599609375</LongitudeDegrees>
            </Position>
            <AltitudeMeters>393.600006103515625</AltitudeMeters>
            <DistanceMeters>NAN</DistanceMeters>
          </Trackpoint>
          <Trackpoint>
            <Time>2021-04-03T09:46:39.000Z</Time>
            <Position>
              <LatitudeDegrees>42.2937927581369876861572265625</LatitudeDegrees>
              <LongitudeDegrees>2.551878131926059722900390625</LongitudeDegrees>
            </Position>
            <AltitudeMeters>393.600006103515625</AltitudeMeters>
            <DistanceMeters>NAN</DistanceMeters>
          </Trackpoint>
          <Trackpoint>
            <Time>2021-04-03T09:46:41.000Z</Time>
            <Position>
              <LatitudeDegrees>42.29376635514199733734130859375</LatitudeDegrees>
              <LongitudeDegrees>2.55189263261854648590087890625</LongitudeDegrees>
            </Position>
            <AltitudeMeters>393.600006103515625</AltitudeMeters>
            <DistanceMeters>NAN</DistanceMeters>
          </Trackpoint>
          <Trackpoint>
            <Time>2021-04-03T09:46:42.000Z</Time>
            <Position>
              <LatitudeDegrees>42.2937505133450031280517578125</LatitudeDegrees>
              <LongitudeDegrees>2.55189321935176849365234375</LongitudeDegrees>
            </Position>
            <AltitudeMeters>393.600006103515625</AltitudeMeters>
            <DistanceMeters>NAN</DistanceMeters>
          </Trackpoint>
          <Trackpoint>
            <Time>2021-04-03T09:46:44.000Z</Time>
            <Position>
              <LatitudeDegrees>42.29372419416904449462890625</LatitudeDegrees>
              <LongitudeDegrees>2.55188114941120147705078125</LongitudeDegrees>
            </Position>
            <AltitudeMeters>393.399993896484375</AltitudeMeters>
            <DistanceMeters>NAN</DistanceMeters>
          </Trackpoint>
          <Trackpoint>
            <Time>2021-04-03T09:46:46.000Z</Time>
            <Position>
              <LatitudeDegrees>42.2937092743813991546630859375</LatitudeDegrees>
              <LongitudeDegrees>2.5518880225718021392822265625</LongitudeDegrees>
            </Position>
            <AltitudeMeters>393.20001220703125</AltitudeMeters>
            <DistanceMeters>NAN</DistanceMeters>
          </Trackpoint>
          <Trackpoint>
            <Time>2021-04-03T09:46:48.000Z</Time>
            <Position>
              <LatitudeDegrees>42.29369795881211757659912109375</LatitudeDegrees>
              <LongitudeDegrees>2.5518826581537723541259765625</LongitudeDegrees>
            </Position>
            <AltitudeMeters>393</AltitudeMeters>
            <DistanceMeters>NAN</DistanceMeters>
          </Trackpoint>
          <Trackpoint>
            <Time>2021-04-03T09:46:49.000Z</Time>
            <Position>
              <LatitudeDegrees>42.29368387721478939056396484375</LatitudeDegrees>
              <LongitudeDegrees>2.55188240669667720794677734375</LongitudeDegrees>
            </Position>
            <AltitudeMeters>393</AltitudeMeters>
            <DistanceMeters>NAN</DistanceMeters>
          </Trackpoint>
          <Trackpoint>
            <Time>2021-04-03T09:46:52.000Z</Time>
            <Position>
              <LatitudeDegrees>42.29364498518407344818115234375</LatitudeDegrees>
              <LongitudeDegrees>2.55187578499317169189453125</LongitudeDegrees>
            </Position>
            <AltitudeMeters>392.600006103515625</AltitudeMeters>
            <DistanceMeters>NAN</DistanceMeters>
          </Trackpoint>
          <Trackpoint>
            <Time>2021-04-03T09:46:53.000Z</Time>
            <Position>
              <LatitudeDegrees>42.29363526217639446258544921875</LatitudeDegrees>
              <LongitudeDegrees>2.55187536589801311492919921875</LongitudeDegrees>
            </Position>
            <AltitudeMeters>392.399993896484375</AltitudeMeters>
            <DistanceMeters>NAN</DistanceMeters>
          </Trackpoint>
          <Trackpoint>
            <Time>2021-04-03T09:46:54.000Z</Time>
            <Position>
              <LatitudeDegrees>42.29361422359943389892578125</LatitudeDegrees>
              <LongitudeDegrees>2.55186639726161956787109375</LongitudeDegrees>
            </Position>
            <AltitudeMeters>392.399993896484375</AltitudeMeters>
            <DistanceMeters>NAN</DistanceMeters>
          </Trackpoint>
          <Trackpoint>
            <Time>2021-04-03T09:47:00.000Z</Time>
            <Position>
              <LatitudeDegrees>42.29353032074868679046630859375</LatitudeDegrees>
              <LongitudeDegrees>2.55185608752071857452392578125</LongitudeDegrees>
            </Position>
            <AltitudeMeters>392</AltitudeMeters>
            <DistanceMeters>NAN</DistanceMeters>
          </Trackpoint>
          <Trackpoint>
            <Time>2021-04-03T09:47:02.000Z</Time>
            <Position>
              <LatitudeDegrees>42.29351640678942203521728515625</LatitudeDegrees>
              <LongitudeDegrees>2.55185206420719623565673828125</LongitudeDegrees>
            </Position>
            <AltitudeMeters>391.600006103515625</AltitudeMeters>
            <DistanceMeters>NAN</DistanceMeters>
          </Trackpoint>
          <Trackpoint>
            <Time>2021-04-03T09:47:03.000Z</Time>
            <Position>
              <LatitudeDegrees>42.2935076057910919189453125</LatitudeDegrees>
              <LongitudeDegrees>2.55185105837881565093994140625</LongitudeDegrees>
            </Position>
            <AltitudeMeters>391.399993896484375</AltitudeMeters>
            <DistanceMeters>NAN</DistanceMeters>
          </Trackpoint>
          <Trackpoint>
            <Time>2021-04-03T09:47:06.000Z</Time>
            <Position>
              <LatitudeDegrees>42.29348187334835529327392578125</LatitudeDegrees>
              <LongitudeDegrees>2.55185474641621112823486328125</LongitudeDegrees>
            </Position>
            <AltitudeMeters>391.20001220703125</AltitudeMeters>
            <DistanceMeters>NAN</DistanceMeters>
          </Trackpoint>
          <Trackpoint>
            <Time>2021-04-03T09:47:09.000Z</Time>
            <Position>
              <LatitudeDegrees>42.2934511117637157440185546875</LatitudeDegrees>
              <LongitudeDegrees>2.55185902118682861328125</LongitudeDegrees>
            </Position>
            <AltitudeMeters>391</AltitudeMeters>
            <DistanceMeters>NAN</DistanceMeters>
          </Trackpoint>
          <Trackpoint>
            <Time>2021-04-03T09:47:11.000Z</Time>
            <Position>
              <LatitudeDegrees>42.2934249602258205413818359375</LatitudeDegrees>
              <LongitudeDegrees>2.5518684089183807373046875</LongitudeDegrees>
            </Position>
            <AltitudeMeters>391</AltitudeMeters>
            <DistanceMeters>NAN</DistanceMeters>
          </Trackpoint>
          <Trackpoint>
            <Time>2021-04-03T09:47:14.000Z</Time>
            <Position>
              <LatitudeDegrees>42.293397970497608184814453125</LatitudeDegrees>
              <LongitudeDegrees>2.55188944749534130096435546875</LongitudeDegrees>
            </Position>
            <AltitudeMeters>390.79998779296875</AltitudeMeters>
            <DistanceMeters>NAN</DistanceMeters>
          </Trackpoint>
          <Trackpoint>
            <Time>2021-04-03T09:47:15.000Z</Time>
            <Position>
              <LatitudeDegrees>42.293390929698944091796875</LatitudeDegrees>
              <LongitudeDegrees>2.55189724266529083251953125</LongitudeDegrees>
            </Position>
            <AltitudeMeters>390.79998779296875</AltitudeMeters>
            <DistanceMeters>NAN</DistanceMeters>
          </Trackpoint>
          <Trackpoint>
            <Time>2021-04-03T09:47:20.000Z</Time>
            <Position>
              <LatitudeDegrees>42.29333150200545787811279296875</LatitudeDegrees>
              <LongitudeDegrees>2.55193747580051422119140625</LongitudeDegrees>
            </Position>
            <AltitudeMeters>390.600006103515625</AltitudeMeters>
            <DistanceMeters>NAN</DistanceMeters>
          </Trackpoint>
          <Trackpoint>
            <Time>2021-04-03T09:47:21.000Z</Time>
            <Position>
              <LatitudeDegrees>42.29331943206489086151123046875</LatitudeDegrees>
              <LongitudeDegrees>2.551938481628894805908203125</LongitudeDegrees>
            </Position>
            <AltitudeMeters>390.600006103515625</AltitudeMeters>
            <DistanceMeters>NAN</DistanceMeters>
          </Trackpoint>
          <Trackpoint>
            <Time>2021-04-03T09:47:27.000Z</Time>
            <Position>
              <LatitudeDegrees>42.29326545260846614837646484375</LatitudeDegrees>
              <LongitudeDegrees>2.5519507192075252532958984375</LongitudeDegrees>
            </Position>
            <AltitudeMeters>390.399993896484375</AltitudeMeters>
            <DistanceMeters>NAN</DistanceMeters>
          </Trackpoint>
          <Trackpoint>
            <Time>2021-04-03T09:47:28.000Z</Time>
            <Position>
              <LatitudeDegrees>42.2932556457817554473876953125</LatitudeDegrees>
              <LongitudeDegrees>2.55195516161620616912841796875</LongitudeDegrees>
            </Position>
            <AltitudeMeters>390.20001220703125</AltitudeMeters>
            <DistanceMeters>NAN</DistanceMeters>
          </Trackpoint>
          <Trackpoint>
            <Time>2021-04-03T09:47:30.000Z</Time>
            <Position>
              <LatitudeDegrees>42.2932452522218227386474609375</LatitudeDegrees>
              <LongitudeDegrees>2.55197234451770782470703125</LongitudeDegrees>
            </Position>
            <AltitudeMeters>389.79998779296875</AltitudeMeters>
            <DistanceMeters>NAN</DistanceMeters>
          </Trackpoint>
          <Trackpoint>
            <Time>2021-04-03T09:47:34.000Z</Time>
            <Position>
              <LatitudeDegrees>42.2932278178632259368896484375</LatitudeDegrees>
              <LongitudeDegrees>2.55201936699450016021728515625</LongitudeDegrees>
            </Position>
            <AltitudeMeters>389.399993896484375</AltitudeMeters>
            <DistanceMeters>NAN</DistanceMeters>
          </Trackpoint>
          <Trackpoint>
            <Time>2021-04-03T09:47:35.000Z</Time>
            <Position>
              <LatitudeDegrees>42.2932241298258304595947265625</LatitudeDegrees>
              <LongitudeDegrees>2.55202523432672023773193359375</LongitudeDegrees>
            </Position>
            <AltitudeMeters>389</AltitudeMeters>
            <DistanceMeters>NAN</DistanceMeters>
          </Trackpoint>
          <Trackpoint>
            <Time>2021-04-03T09:47:36.000Z</Time>
            <Position>
              <LatitudeDegrees>42.29322454892098903656005859375</LatitudeDegrees>
              <LongitudeDegrees>2.55202741362154483795166015625</LongitudeDegrees>
            </Position>
            <AltitudeMeters>389</AltitudeMeters>
            <DistanceMeters>NAN</DistanceMeters>
          </Trackpoint>
          <Trackpoint>
            <Time>2021-04-03T09:47:38.000Z</Time>
            <Position>
              <LatitudeDegrees>42.2932174243032932281494140625</LatitudeDegrees>
              <LongitudeDegrees>2.552030347287654876708984375</LongitudeDegrees>
            </Position>
            <AltitudeMeters>388.79998779296875</AltitudeMeters>
            <DistanceMeters>NAN</DistanceMeters>
          </Trackpoint>
          <Trackpoint>
            <Time>2021-04-03T09:47:42.000Z</Time>
            <Position>
              <LatitudeDegrees>42.29320929385721683502197265625</LatitudeDegrees>
              <LongitudeDegrees>2.552046440541744232177734375</LongitudeDegrees>
            </Position>
            <AltitudeMeters>388</AltitudeMeters>
            <DistanceMeters>NAN</DistanceMeters>
          </Trackpoint>
          <Trackpoint>
            <Time>2021-04-03T09:47:43.000Z</Time>
            <Position>
              <LatitudeDegrees>42.29320426471531391143798828125</LatitudeDegrees>
              <LongitudeDegrees>2.552047111093997955322265625</LongitudeDegrees>
            </Position>
            <AltitudeMeters>387.79998779296875</AltitudeMeters>
            <DistanceMeters>NAN</DistanceMeters>
          </Trackpoint>
          <Trackpoint>
            <Time>2021-04-03T09:47:45.000Z</Time>
            <Position>
              <LatitudeDegrees>42.2931991517543792724609375</LatitudeDegrees>
              <LongitudeDegrees>2.55204451270401477813720703125</LongitudeDegrees>
            </Position>
            <AltitudeMeters>387.600006103515625</AltitudeMeters>
            <DistanceMeters>NAN</DistanceMeters>
          </Trackpoint>
          <Trackpoint>
            <Time>2021-04-03T09:47:47.000Z</Time>
            <Position>
              <LatitudeDegrees>42.293196134269237518310546875</LatitudeDegrees>
              <LongitudeDegrees>2.55204937420785427093505859375</LongitudeDegrees>
            </Position>
            <AltitudeMeters>387.399993896484375</AltitudeMeters>
            <DistanceMeters>NAN</DistanceMeters>
          </Trackpoint>
          <Trackpoint>
            <Time>2021-04-03T09:47:50.000Z</Time>
            <Position>
              <LatitudeDegrees>42.29318968020379543304443359375</LatitudeDegrees>
              <LongitudeDegrees>2.55206110887229442596435546875</LongitudeDegrees>
            </Position>
            <AltitudeMeters>386.79998779296875</AltitudeMeters>
            <DistanceMeters>NAN</DistanceMeters>
          </Trackpoint>
          <Trackpoint>
            <Time>2021-04-03T09:47:51.000Z</Time>
            <Position>
              <LatitudeDegrees>42.29318775236606597900390625</LatitudeDegrees>
              <LongitudeDegrees>2.55206597037613391876220703125</LongitudeDegrees>
            </Position>
            <AltitudeMeters>386.79998779296875</AltitudeMeters>
            <DistanceMeters>NAN</DistanceMeters>
          </Trackpoint>
          <Trackpoint>
            <Time>2021-04-03T09:47:52.000Z</Time>
            <Position>
              <LatitudeDegrees>42.293187081813812255859375</LatitudeDegrees>
              <LongitudeDegrees>2.5520730949938297271728515625</LongitudeDegrees>
            </Position>
            <AltitudeMeters>386.20001220703125</AltitudeMeters>
            <DistanceMeters>NAN</DistanceMeters>
          </Trackpoint>
          <Trackpoint>
            <Time>2021-04-03T09:47:54.000Z</Time>
            <Position>
              <LatitudeDegrees>42.2931849025189876556396484375</LatitudeDegrees>
              <LongitudeDegrees>2.5520814768970012664794921875</LongitudeDegrees>
            </Position>
            <AltitudeMeters>385.79998779296875</AltitudeMeters>
            <DistanceMeters>NAN</DistanceMeters>
          </Trackpoint>
          <Trackpoint>
            <Time>2021-04-03T09:47:58.000Z</Time>
            <Position>
              <LatitudeDegrees>42.29317174293100833892822265625</LatitudeDegrees>
              <LongitudeDegrees>2.55210150964558124542236328125</LongitudeDegrees>
            </Position>
            <AltitudeMeters>384.600006103515625</AltitudeMeters>
            <DistanceMeters>NAN</DistanceMeters>
          </Trackpoint>
          <Trackpoint>
            <Time>2021-04-03T09:48:03.000Z</Time>
            <Position>
              <LatitudeDegrees>42.29313218034803867340087890625</LatitudeDegrees>
              <LongitudeDegrees>2.55211911164224147796630859375</LongitudeDegrees>
            </Position>
            <AltitudeMeters>383.600006103515625</AltitudeMeters>
            <DistanceMeters>NAN</DistanceMeters>
          </Trackpoint>
          <Trackpoint>
            <Time>2021-04-03T09:48:05.000Z</Time>
            <Position>
              <LatitudeDegrees>42.2931228764355182647705078125</LatitudeDegrees>
              <LongitudeDegrees>2.55212347023189067840576171875</LongitudeDegrees>
            </Position>
            <AltitudeMeters>383.20001220703125</AltitudeMeters>
            <DistanceMeters>NAN</DistanceMeters>
          </Trackpoint>
          <Trackpoint>
            <Time>2021-04-03T09:48:09.000Z</Time>
            <Position>
              <LatitudeDegrees>42.29308985173702239990234375</LatitudeDegrees>
              <LongitudeDegrees>2.55210150964558124542236328125</LongitudeDegrees>
            </Position>
            <AltitudeMeters>382.399993896484375</AltitudeMeters>
            <DistanceMeters>NAN</DistanceMeters>
          </Trackpoint>
          <Trackpoint>
            <Time>2021-04-03T09:48:11.000Z</Time>
            <Position>
              <LatitudeDegrees>42.29306143708527088165283203125</LatitudeDegrees>
              <LongitudeDegrees>2.55208206363022327423095703125</LongitudeDegrees>
            </Position>
            <AltitudeMeters>382</AltitudeMeters>
            <DistanceMeters>NAN</DistanceMeters>
          </Trackpoint>
          <Trackpoint>
            <Time>2021-04-03T09:48:13.000Z</Time>
            <Position>
              <LatitudeDegrees>42.29303813539445400238037109375</LatitudeDegrees>
              <LongitudeDegrees>2.55207099951803684234619140625</LongitudeDegrees>
            </Position>
            <AltitudeMeters>381.79998779296875</AltitudeMeters>
            <DistanceMeters>NAN</DistanceMeters>
          </Trackpoint>
          <Trackpoint>
            <Time>2021-04-03T09:48:15.000Z</Time>
            <Position>
              <LatitudeDegrees>42.29302681982517242431640625</LatitudeDegrees>
              <LongitudeDegrees>2.55206244997680187225341796875</LongitudeDegrees>
            </Position>
            <AltitudeMeters>381.399993896484375</AltitudeMeters>
            <DistanceMeters>NAN</DistanceMeters>
          </Trackpoint>
          <Trackpoint>
            <Time>2021-04-03T09:48:17.000Z</Time>
            <Position>
              <LatitudeDegrees>42.29301969520747661590576171875</LatitudeDegrees>
              <LongitudeDegrees>2.55206362344324588775634765625</LongitudeDegrees>
            </Position>
            <AltitudeMeters>381</AltitudeMeters>
            <DistanceMeters>NAN</DistanceMeters>
          </Trackpoint>
          <Trackpoint>
            <Time>2021-04-03T09:48:18.000Z</Time>
            <Position>
              <LatitudeDegrees>42.29301567189395427703857421875</LatitudeDegrees>
              <LongitudeDegrees>2.552061863243579864501953125</LongitudeDegrees>
            </Position>
            <AltitudeMeters>380.79998779296875</AltitudeMeters>
            <DistanceMeters>NAN</DistanceMeters>
          </Trackpoint>
          <Trackpoint>
            <Time>2021-04-03T09:48:25.000Z</Time>
            <Position>
              <LatitudeDegrees>42.29298331774771213531494140625</LatitudeDegrees>
              <LongitudeDegrees>2.55201257765293121337890625</LongitudeDegrees>
            </Position>
            <AltitudeMeters>380.399993896484375</AltitudeMeters>
            <DistanceMeters>NAN</DistanceMeters>
          </Trackpoint>
          <Trackpoint>
            <Time>2021-04-03T09:48:30.000Z</Time>
            <Position>
              <LatitudeDegrees>42.29298465885221958160400390625</LatitudeDegrees>
              <LongitudeDegrees>2.551960609853267669677734375</LongitudeDegrees>
            </Position>
            <AltitudeMeters>379.79998779296875</AltitudeMeters>
            <DistanceMeters>NAN</DistanceMeters>
          </Trackpoint>
          <Trackpoint>
            <Time>2021-04-03T09:48:31.000Z</Time>
            <Position>
              <LatitudeDegrees>42.29298465885221958160400390625</LatitudeDegrees>
              <LongitudeDegrees>2.55195566453039646148681640625</LongitudeDegrees>
            </Position>
            <AltitudeMeters>379.600006103515625</AltitudeMeters>
            <DistanceMeters>NAN</DistanceMeters>
          </Trackpoint>
          <Trackpoint>
            <Time>2021-04-03T09:48:39.000Z</Time>
            <Position>
              <LatitudeDegrees>42.2929948009550571441650390625</LatitudeDegrees>
              <LongitudeDegrees>2.55196823738515377044677734375</LongitudeDegrees>
            </Position>
            <AltitudeMeters>379.600006103515625</AltitudeMeters>
            <DistanceMeters>NAN</DistanceMeters>
          </Trackpoint>
          <Trackpoint>
            <Time>2021-04-03T09:48:41.000Z</Time>
            <Position>
              <LatitudeDegrees>42.2929984889924526214599609375</LatitudeDegrees>
              <LongitudeDegrees>2.55194292403757572174072265625</LongitudeDegrees>
            </Position>
            <AltitudeMeters>379.399993896484375</AltitudeMeters>
            <DistanceMeters>NAN</DistanceMeters>
          </Trackpoint>
          <Trackpoint>
            <Time>2021-04-03T09:48:44.000Z</Time>
            <Position>
              <LatitudeDegrees>42.2930005006492137908935546875</LatitudeDegrees>
              <LongitudeDegrees>2.55194149911403656005859375</LongitudeDegrees>
            </Position>
            <AltitudeMeters>379.600006103515625</AltitudeMeters>
            <DistanceMeters>NAN</DistanceMeters>
          </Trackpoint>
          <Trackpoint>
            <Time>2021-04-03T09:48:51.000Z</Time>
            <Position>
              <LatitudeDegrees>42.29300309903919696807861328125</LatitudeDegrees>
              <LongitudeDegrees>2.55194024182856082916259765625</LongitudeDegrees>
            </Position>
            <AltitudeMeters>379.600006103515625</AltitudeMeters>
            <DistanceMeters>NAN</DistanceMeters>
          </Trackpoint>
          <Trackpoint>
            <Time>2021-04-03T09:49:03.000Z</Time>
            <Position>
              <LatitudeDegrees>42.29300804436206817626953125</LatitudeDegrees>
              <LongitudeDegrees>2.55192683078348636627197265625</LongitudeDegrees>
            </Position>
            <AltitudeMeters>379.600006103515625</AltitudeMeters>
            <DistanceMeters>NAN</DistanceMeters>
          </Trackpoint>
          <Trackpoint>
            <Time>2021-04-03T09:49:07.000Z</Time>
            <Position>
              <LatitudeDegrees>42.2930142469704151153564453125</LatitudeDegrees>
              <LongitudeDegrees>2.55190688185393810272216796875</LongitudeDegrees>
            </Position>
            <AltitudeMeters>379.600006103515625</AltitudeMeters>
            <DistanceMeters>NAN</DistanceMeters>
          </Trackpoint>
          <Trackpoint>
            <Time>2021-04-03T09:49:11.000Z</Time>
            <Position>
              <LatitudeDegrees>42.2930162586271762847900390625</LatitudeDegrees>
              <LongitudeDegrees>2.55190671421587467193603515625</LongitudeDegrees>
            </Position>
            <AltitudeMeters>379.79998779296875</AltitudeMeters>
            <DistanceMeters>NAN</DistanceMeters>
          </Trackpoint>
          <Trackpoint>
            <Time>2021-04-03T09:49:13.000Z</Time>
            <Position>
              <LatitudeDegrees>42.2930165939033031463623046875</LatitudeDegrees>
              <LongitudeDegrees>2.55190671421587467193603515625</LongitudeDegrees>
            </Position>
            <AltitudeMeters>379.79998779296875</AltitudeMeters>
            <DistanceMeters>NAN</DistanceMeters>
          </Trackpoint>
          <Trackpoint>
            <Time>2021-04-03T09:49:18.000Z</Time>
            <Position>
              <LatitudeDegrees>42.29302237741649150848388671875</LatitudeDegrees>
              <LongitudeDegrees>2.55190671421587467193603515625</LongitudeDegrees>
            </Position>
            <AltitudeMeters>379.79998779296875</AltitudeMeters>
            <DistanceMeters>NAN</DistanceMeters>
          </Trackpoint>
          <Trackpoint>
            <Time>2021-04-03T09:49:21.000Z</Time>
            <Position>
              <LatitudeDegrees>42.29302455671131610870361328125</LatitudeDegrees>
              <LongitudeDegrees>2.55190671421587467193603515625</LongitudeDegrees>
            </Position>
            <AltitudeMeters>379.79998779296875</AltitudeMeters>
            <DistanceMeters>NAN</DistanceMeters>
          </Trackpoint>
          <Trackpoint>
            <Time>2021-04-03T09:49:31.000Z</Time>
            <Position>
              <LatitudeDegrees>42.2930464334785938262939453125</LatitudeDegrees>
              <LongitudeDegrees>2.55194929428398609161376953125</LongitudeDegrees>
            </Position>
            <AltitudeMeters>379.600006103515625</AltitudeMeters>
            <DistanceMeters>NAN</DistanceMeters>
          </Trackpoint>
          <Trackpoint>
            <Time>2021-04-03T09:49:37.000Z</Time>
            <Position>
              <LatitudeDegrees>42.2930464334785938262939453125</LatitudeDegrees>
              <LongitudeDegrees>2.55194929428398609161376953125</LongitudeDegrees>
            </Position>
            <AltitudeMeters>379.399993896484375</AltitudeMeters>
            <DistanceMeters>NAN</DistanceMeters>
          </Trackpoint>
          <Trackpoint>
            <Time>2021-04-03T09:49:41.000Z</Time>
            <Position>
              <LatitudeDegrees>42.29306613095104694366455078125</LatitudeDegrees>
              <LongitudeDegrees>2.55190797150135040283203125</LongitudeDegrees>
            </Position>
            <AltitudeMeters>379.20001220703125</AltitudeMeters>
            <DistanceMeters>NAN</DistanceMeters>
          </Trackpoint>
          <Trackpoint>
            <Time>2021-04-03T09:49:44.000Z</Time>
            <Position>
              <LatitudeDegrees>42.29307618923485279083251953125</LatitudeDegrees>
              <LongitudeDegrees>2.55187804810702800750732421875</LongitudeDegrees>
            </Position>
            <AltitudeMeters>379.399993896484375</AltitudeMeters>
            <DistanceMeters>NAN</DistanceMeters>
          </Trackpoint>
          <Trackpoint>
            <Time>2021-04-03T09:49:46.000Z</Time>
            <Position>
              <LatitudeDegrees>42.2930752672255039215087890625</LatitudeDegrees>
              <LongitudeDegrees>2.551851980388164520263671875</LongitudeDegrees>
            </Position>
            <AltitudeMeters>379.399993896484375</AltitudeMeters>
            <DistanceMeters>NAN</DistanceMeters>
          </Trackpoint>
          <Trackpoint>
            <Time>2021-04-03T09:49:48.000Z</Time>
            <Position>
              <LatitudeDegrees>42.29307266883552074432373046875</LatitudeDegrees>
              <LongitudeDegrees>2.5518362224102020263671875</LongitudeDegrees>
            </Position>
            <AltitudeMeters>379.600006103515625</AltitudeMeters>
            <DistanceMeters>NAN</DistanceMeters>
          </Trackpoint>
          <Trackpoint>
            <Time>2021-04-03T09:49:49.000Z</Time>
            <Position>
              <LatitudeDegrees>42.29306696914136409759521484375</LatitudeDegrees>
              <LongitudeDegrees>2.5518290139734745025634765625</LongitudeDegrees>
            </Position>
            <AltitudeMeters>379.600006103515625</AltitudeMeters>
            <DistanceMeters>NAN</DistanceMeters>
          </Trackpoint>
          <Trackpoint>
            <Time>2021-04-03T09:49:52.000Z</Time>
            <Position>
              <LatitudeDegrees>42.2930504567921161651611328125</LatitudeDegrees>
              <LongitudeDegrees>2.55179473198950290679931640625</LongitudeDegrees>
            </Position>
            <AltitudeMeters>379.600006103515625</AltitudeMeters>
            <DistanceMeters>NAN</DistanceMeters>
          </Trackpoint>
          <Trackpoint>
            <Time>2021-04-03T09:49:54.000Z</Time>
            <Position>
              <LatitudeDegrees>42.293043918907642364501953125</LatitudeDegrees>
              <LongitudeDegrees>2.55178316496312618255615234375</LongitudeDegrees>
            </Position>
            <AltitudeMeters>379.79998779296875</AltitudeMeters>
            <DistanceMeters>NAN</DistanceMeters>
          </Trackpoint>
          <Trackpoint>
            <Time>2021-04-03T09:49:57.000Z</Time>
            <Position>
              <LatitudeDegrees>42.29303696192800998687744140625</LatitudeDegrees>
              <LongitudeDegrees>2.551766820251941680908203125</LongitudeDegrees>
            </Position>
            <AltitudeMeters>380.20001220703125</AltitudeMeters>
            <DistanceMeters>NAN</DistanceMeters>
          </Trackpoint>
          <Trackpoint>
            <Time>2021-04-03T09:49:59.000Z</Time>
            <Position>
              <LatitudeDegrees>42.2930279932916164398193359375</LatitudeDegrees>
              <LongitudeDegrees>2.55174159072339534759521484375</LongitudeDegrees>
            </Position>
            <AltitudeMeters>380</AltitudeMeters>
            <DistanceMeters>NAN</DistanceMeters>
          </Trackpoint>
          <Trackpoint>
            <Time>2021-04-03T09:50:01.000Z</Time>
            <Position>
              <LatitudeDegrees>42.29302011430263519287109375</LatitudeDegrees>
              <LongitudeDegrees>2.55172231234610080718994140625</LongitudeDegrees>
            </Position>
            <AltitudeMeters>380</AltitudeMeters>
            <DistanceMeters>NAN</DistanceMeters>
          </Trackpoint>
          <Trackpoint>
            <Time>2021-04-03T09:50:03.000Z</Time>
            <Position>
              <LatitudeDegrees>42.29302011430263519287109375</LatitudeDegrees>
              <LongitudeDegrees>2.55171325989067554473876953125</LongitudeDegrees>
            </Position>
            <AltitudeMeters>380.20001220703125</AltitudeMeters>
            <DistanceMeters>NAN</DistanceMeters>
          </Trackpoint>
          <Trackpoint>
            <Time>2021-04-03T09:50:07.000Z</Time>
            <Position>
              <LatitudeDegrees>42.2930172644555568695068359375</LatitudeDegrees>
              <LongitudeDegrees>2.5516821630299091339111328125</LongitudeDegrees>
            </Position>
            <AltitudeMeters>380.20001220703125</AltitudeMeters>
            <DistanceMeters>NAN</DistanceMeters>
          </Trackpoint>
          <Trackpoint>
            <Time>2021-04-03T09:50:09.000Z</Time>
            <Position>
              <LatitudeDegrees>42.29301449842751026153564453125</LatitudeDegrees>
              <LongitudeDegrees>2.55167420022189617156982421875</LongitudeDegrees>
            </Position>
            <AltitudeMeters>380.20001220703125</AltitudeMeters>
            <DistanceMeters>NAN</DistanceMeters>
          </Trackpoint>
          <Trackpoint>
            <Time>2021-04-03T09:50:12.000Z</Time>
            <Position>
              <LatitudeDegrees>42.29300427250564098358154296875</LatitudeDegrees>
              <LongitudeDegrees>2.55165475420653820037841796875</LongitudeDegrees>
            </Position>
            <AltitudeMeters>380.20001220703125</AltitudeMeters>
            <DistanceMeters>NAN</DistanceMeters>
          </Trackpoint>
          <Trackpoint>
            <Time>2021-04-03T09:50:13.000Z</Time>
            <Position>
              <LatitudeDegrees>42.2930008359253406524658203125</LatitudeDegrees>
              <LongitudeDegrees>2.55164771340787410736083984375</LongitudeDegrees>
            </Position>
            <AltitudeMeters>380.20001220703125</AltitudeMeters>
            <DistanceMeters>NAN</DistanceMeters>
          </Trackpoint>
          <Trackpoint>
            <Time>2021-04-03T09:50:17.000Z</Time>
            <Position>
              <LatitudeDegrees>42.2929864190518856048583984375</LatitudeDegrees>
              <LongitudeDegrees>2.55162776447832584381103515625</LongitudeDegrees>
            </Position>
            <AltitudeMeters>380</AltitudeMeters>
            <DistanceMeters>NAN</DistanceMeters>
          </Trackpoint>
          <Trackpoint>
            <Time>2021-04-03T09:50:19.000Z</Time>
            <Position>
              <LatitudeDegrees>42.2929818928241729736328125</LatitudeDegrees>
              <LongitudeDegrees>2.5516109168529510498046875</LongitudeDegrees>
            </Position>
            <AltitudeMeters>380</AltitudeMeters>
            <DistanceMeters>NAN</DistanceMeters>
          </Trackpoint>
          <Trackpoint>
            <Time>2021-04-03T09:50:20.000Z</Time>
            <Position>
              <LatitudeDegrees>42.29297912679612636566162109375</LatitudeDegrees>
              <LongitudeDegrees>2.5516033731400966644287109375</LongitudeDegrees>
            </Position>
            <AltitudeMeters>380</AltitudeMeters>
            <DistanceMeters>NAN</DistanceMeters>
          </Trackpoint>
          <Trackpoint>
            <Time>2021-04-03T09:50:22.000Z</Time>
            <Position>
              <LatitudeDegrees>42.29297208599746227264404296875</LatitudeDegrees>
              <LongitudeDegrees>2.55158769898116588592529296875</LongitudeDegrees>
            </Position>
            <AltitudeMeters>380.20001220703125</AltitudeMeters>
            <DistanceMeters>NAN</DistanceMeters>
          </Trackpoint>
          <Trackpoint>
            <Time>2021-04-03T09:50:23.000Z</Time>
            <Position>
              <LatitudeDegrees>42.29297007434070110321044921875</LatitudeDegrees>
              <LongitudeDegrees>2.551578395068645477294921875</LongitudeDegrees>
            </Position>
            <AltitudeMeters>380.20001220703125</AltitudeMeters>
            <DistanceMeters>NAN</DistanceMeters>
          </Trackpoint>
          <Trackpoint>
            <Time>2021-04-03T09:50:24.000Z</Time>
            <Position>
              <LatitudeDegrees>42.29296789504587650299072265625</LatitudeDegrees>
              <LongitudeDegrees>2.55157026462256908416748046875</LongitudeDegrees>
            </Position>
            <AltitudeMeters>380.20001220703125</AltitudeMeters>
            <DistanceMeters>NAN</DistanceMeters>
          </Trackpoint>
          <Trackpoint>
            <Time>2021-04-03T09:50:27.000Z</Time>
            <Position>
              <LatitudeDegrees>42.292969487607479095458984375</LatitudeDegrees>
              <LongitudeDegrees>2.55156062543392181396484375</LongitudeDegrees>
            </Position>
            <AltitudeMeters>380.20001220703125</AltitudeMeters>
            <DistanceMeters>NAN</DistanceMeters>
          </Trackpoint>
          <Trackpoint>
            <Time>2021-04-03T09:50:28.000Z</Time>
            <Position>
              <LatitudeDegrees>42.29297175072133541107177734375</LatitudeDegrees>
              <LongitudeDegrees>2.55156355910003185272216796875</LongitudeDegrees>
            </Position>
            <AltitudeMeters>380.20001220703125</AltitudeMeters>
            <DistanceMeters>NAN</DistanceMeters>
          </Trackpoint>
          <Trackpoint>
            <Time>2021-04-03T09:50:33.000Z</Time>
            <Position>
              <LatitudeDegrees>42.29297543875873088836669921875</LatitudeDegrees>
              <LongitudeDegrees>2.551568336784839630126953125</LongitudeDegrees>
            </Position>
            <AltitudeMeters>380.20001220703125</AltitudeMeters>
            <DistanceMeters>NAN</DistanceMeters>
          </Trackpoint>
          <Trackpoint>
            <Time>2021-04-03T09:50:34.000Z</Time>
            <Position>
              <LatitudeDegrees>42.2929736785590648651123046875</LatitudeDegrees>
              <LongitudeDegrees>2.55156439729034900665283203125</LongitudeDegrees>
            </Position>
            <AltitudeMeters>380.20001220703125</AltitudeMeters>
            <DistanceMeters>NAN</DistanceMeters>
          </Trackpoint>
          <Trackpoint>
            <Time>2021-04-03T09:50:35.000Z</Time>
            <Position>
              <LatitudeDegrees>42.2929711639881134033203125</LatitudeDegrees>
              <LongitudeDegrees>2.55156640894711017608642578125</LongitudeDegrees>
            </Position>
            <AltitudeMeters>380.20001220703125</AltitudeMeters>
            <DistanceMeters>NAN</DistanceMeters>
          </Trackpoint>
          <Trackpoint>
            <Time>2021-04-03T09:50:41.000Z</Time>
            <Position>
              <LatitudeDegrees>42.292952053248882293701171875</LatitudeDegrees>
              <LongitudeDegrees>2.55156330764293670654296875</LongitudeDegrees>
            </Position>
            <AltitudeMeters>379.79998779296875</AltitudeMeters>
            <DistanceMeters>NAN</DistanceMeters>
          </Trackpoint>
          <Trackpoint>
            <Time>2021-04-03T09:50:44.000Z</Time>
            <Position>
              <LatitudeDegrees>42.292937971651554107666015625</LatitudeDegrees>
              <LongitudeDegrees>2.55155098624527454376220703125</LongitudeDegrees>
            </Position>
            <AltitudeMeters>379.600006103515625</AltitudeMeters>
            <DistanceMeters>NAN</DistanceMeters>
          </Trackpoint>
          <Trackpoint>
            <Time>2021-04-03T09:50:52.000Z</Time>
            <Position>
              <LatitudeDegrees>42.29285591281950473785400390625</LatitudeDegrees>
              <LongitudeDegrees>2.55148644559085369110107421875</LongitudeDegrees>
            </Position>
            <AltitudeMeters>379.600006103515625</AltitudeMeters>
            <DistanceMeters>NAN</DistanceMeters>
          </Trackpoint>
          <Trackpoint>
            <Time>2021-04-03T09:50:55.000Z</Time>
            <Position>
              <LatitudeDegrees>42.2928388975560665130615234375</LatitudeDegrees>
              <LongitudeDegrees>2.551479153335094451904296875</LongitudeDegrees>
            </Position>
            <AltitudeMeters>379.79998779296875</AltitudeMeters>
            <DistanceMeters>NAN</DistanceMeters>
          </Trackpoint>
          <Trackpoint>
            <Time>2021-04-03T09:50:58.000Z</Time>
            <Position>
              <LatitudeDegrees>42.2928241454064846038818359375</LatitudeDegrees>
              <LongitudeDegrees>2.5514521636068820953369140625</LongitudeDegrees>
            </Position>
            <AltitudeMeters>380.399993896484375</AltitudeMeters>
            <DistanceMeters>NAN</DistanceMeters>
          </Trackpoint>
          <Trackpoint>
            <Time>2021-04-03T09:50:59.000Z</Time>
            <Position>
              <LatitudeDegrees>42.29281936772167682647705078125</LatitudeDegrees>
              <LongitudeDegrees>2.55144453607499599456787109375</LongitudeDegrees>
            </Position>
            <AltitudeMeters>380.600006103515625</AltitudeMeters>
            <DistanceMeters>NAN</DistanceMeters>
          </Trackpoint>
          <Trackpoint>
            <Time>2021-04-03T09:51:02.000Z</Time>
            <Position>
              <LatitudeDegrees>42.292809225618839263916015625</LatitudeDegrees>
              <LongitudeDegrees>2.55141369067132472991943359375</LongitudeDegrees>
            </Position>
            <AltitudeMeters>381</AltitudeMeters>
            <DistanceMeters>NAN</DistanceMeters>
          </Trackpoint>
          <Trackpoint>
            <Time>2021-04-03T09:51:04.000Z</Time>
            <Position>
              <LatitudeDegrees>42.2927983291447162628173828125</LatitudeDegrees>
              <LongitudeDegrees>2.551389969885349273681640625</LongitudeDegrees>
            </Position>
            <AltitudeMeters>381.399993896484375</AltitudeMeters>
            <DistanceMeters>NAN</DistanceMeters>
          </Trackpoint>
          <Trackpoint>
            <Time>2021-04-03T09:51:06.000Z</Time>
            <Position>
              <LatitudeDegrees>42.29278868995606899261474609375</LatitudeDegrees>
              <LongitudeDegrees>2.55135987885296344757080078125</LongitudeDegrees>
            </Position>
            <AltitudeMeters>381.399993896484375</AltitudeMeters>
            <DistanceMeters>NAN</DistanceMeters>
          </Trackpoint>
          <Trackpoint>
            <Time>2021-04-03T09:51:08.000Z</Time>
            <Position>
              <LatitudeDegrees>42.29277058504521846771240234375</LatitudeDegrees>
              <LongitudeDegrees>2.55133909173309803009033203125</LongitudeDegrees>
            </Position>
            <AltitudeMeters>381.600006103515625</AltitudeMeters>
            <DistanceMeters>NAN</DistanceMeters>
          </Trackpoint>
          <Trackpoint>
            <Time>2021-04-03T09:51:10.000Z</Time>
            <Position>
              <LatitudeDegrees>42.2927711717784404754638671875</LatitudeDegrees>
              <LongitudeDegrees>2.551311515271663665771484375</LongitudeDegrees>
            </Position>
            <AltitudeMeters>381.79998779296875</AltitudeMeters>
            <DistanceMeters>NAN</DistanceMeters>
          </Trackpoint>
          <Trackpoint>
            <Time>2021-04-03T09:51:13.000Z</Time>
            <Position>
              <LatitudeDegrees>42.29276505298912525177001953125</LatitudeDegrees>
              <LongitudeDegrees>2.551275976002216339111328125</LongitudeDegrees>
            </Position>
            <AltitudeMeters>381.79998779296875</AltitudeMeters>
            <DistanceMeters>NAN</DistanceMeters>
          </Trackpoint>
          <Trackpoint>
            <Time>2021-04-03T09:51:15.000Z</Time>
            <Position>
              <LatitudeDegrees>42.29275985620915889739990234375</LatitudeDegrees>
              <LongitudeDegrees>2.55125074647367000579833984375</LongitudeDegrees>
            </Position>
            <AltitudeMeters>382</AltitudeMeters>
            <DistanceMeters>NAN</DistanceMeters>
          </Trackpoint>
          <Trackpoint>
            <Time>2021-04-03T09:51:17.000Z</Time>
            <Position>
              <LatitudeDegrees>42.2927570901811122894287109375</LatitudeDegrees>
              <LongitudeDegrees>2.55122811533510684967041015625</LongitudeDegrees>
            </Position>
            <AltitudeMeters>382.20001220703125</AltitudeMeters>
            <DistanceMeters>NAN</DistanceMeters>
          </Trackpoint>
          <Trackpoint>
            <Time>2021-04-03T09:51:18.000Z</Time>
            <Position>
              <LatitudeDegrees>42.2927604429423809051513671875</LatitudeDegrees>
              <LongitudeDegrees>2.55122040398418903350830078125</LongitudeDegrees>
            </Position>
            <AltitudeMeters>382.20001220703125</AltitudeMeters>
            <DistanceMeters>NAN</DistanceMeters>
          </Trackpoint>
          <Trackpoint>
            <Time>2021-04-03T09:51:21.000Z</Time>
            <Position>
              <LatitudeDegrees>42.292748205363750457763671875</LatitudeDegrees>
              <LongitudeDegrees>2.55121721886098384857177734375</LongitudeDegrees>
            </Position>
            <AltitudeMeters>382.600006103515625</AltitudeMeters>
            <DistanceMeters>NAN</DistanceMeters>
          </Trackpoint>
          <Trackpoint>
            <Time>2021-04-03T09:51:25.000Z</Time>
            <Position>
              <LatitudeDegrees>42.29274359531700611114501953125</LatitudeDegrees>
              <LongitudeDegrees>2.551210261881351470947265625</LongitudeDegrees>
            </Position>
            <AltitudeMeters>382.79998779296875</AltitudeMeters>
            <DistanceMeters>NAN</DistanceMeters>
          </Trackpoint>
          <Trackpoint>
            <Time>2021-04-03T09:51:27.000Z</Time>
            <Position>
              <LatitudeDegrees>42.2927497141063213348388671875</LatitudeDegrees>
              <LongitudeDegrees>2.551213614642620086669921875</LongitudeDegrees>
            </Position>
            <AltitudeMeters>382.79998779296875</AltitudeMeters>
            <DistanceMeters>NAN</DistanceMeters>
          </Trackpoint>
          <Trackpoint>
            <Time>2021-04-03T09:51:29.000Z</Time>
            <Position>
              <LatitudeDegrees>42.292740829288959503173828125</LatitudeDegrees>
              <LongitudeDegrees>2.5512040592730045318603515625</LongitudeDegrees>
            </Position>
            <AltitudeMeters>382.79998779296875</AltitudeMeters>
            <DistanceMeters>NAN</DistanceMeters>
          </Trackpoint>
          <Trackpoint>
            <Time>2021-04-03T09:51:32.000Z</Time>
            <Position>
              <LatitudeDegrees>42.29270336218178272247314453125</LatitudeDegrees>
              <LongitudeDegrees>2.551207579672336578369140625</LongitudeDegrees>
            </Position>
            <AltitudeMeters>382.79998779296875</AltitudeMeters>
            <DistanceMeters>NAN</DistanceMeters>
          </Trackpoint>
          <Trackpoint>
            <Time>2021-04-03T09:51:39.000Z</Time>
            <Position>
              <LatitudeDegrees>42.29270168580114841461181640625</LatitudeDegrees>
              <LongitudeDegrees>2.55120548419654369354248046875</LongitudeDegrees>
            </Position>
            <AltitudeMeters>382.79998779296875</AltitudeMeters>
            <DistanceMeters>NAN</DistanceMeters>
          </Trackpoint>
          <Trackpoint>
            <Time>2021-04-03T09:51:42.000Z</Time>
            <Position>
              <LatitudeDegrees>42.292712666094303131103515625</LatitudeDegrees>
              <LongitudeDegrees>2.551201879978179931640625</LongitudeDegrees>
            </Position>
            <AltitudeMeters>382.79998779296875</AltitudeMeters>
            <DistanceMeters>NAN</DistanceMeters>
          </Trackpoint>
          <Trackpoint>
            <Time>2021-04-03T09:51:47.000Z</Time>
            <Position>
              <LatitudeDegrees>42.29271912015974521636962890625</LatitudeDegrees>
              <LongitudeDegrees>2.55122979171574115753173828125</LongitudeDegrees>
            </Position>
            <AltitudeMeters>382.79998779296875</AltitudeMeters>
            <DistanceMeters>NAN</DistanceMeters>
          </Trackpoint>
          <Trackpoint>
            <Time>2021-04-03T09:51:54.000Z</Time>
            <Position>
              <LatitudeDegrees>42.29269162751734256744384765625</LatitudeDegrees>
              <LongitudeDegrees>2.55128243006765842437744140625</LongitudeDegrees>
            </Position>
            <AltitudeMeters>382.399993896484375</AltitudeMeters>
            <DistanceMeters>NAN</DistanceMeters>
          </Trackpoint>
          <Trackpoint>
            <Time>2021-04-03T09:52:02.000Z</Time>
            <Position>
              <LatitudeDegrees>42.29265022091567516326904296875</LatitudeDegrees>
              <LongitudeDegrees>2.5513059832155704498291015625</LongitudeDegrees>
            </Position>
            <AltitudeMeters>382.399993896484375</AltitudeMeters>
            <DistanceMeters>NAN</DistanceMeters>
          </Trackpoint>
          <Trackpoint>
            <Time>2021-04-03T09:52:07.000Z</Time>
            <Position>
              <LatitudeDegrees>42.29266145266592502593994140625</LatitudeDegrees>
              <LongitudeDegrees>2.5513147003948688507080078125</LongitudeDegrees>
            </Position>
            <AltitudeMeters>382.399993896484375</AltitudeMeters>
            <DistanceMeters>NAN</DistanceMeters>
          </Trackpoint>
          <Trackpoint>
            <Time>2021-04-03T09:52:13.000Z</Time>
            <Position>
              <LatitudeDegrees>42.2926658950746059417724609375</LatitudeDegrees>
              <LongitudeDegrees>2.5513391755521297454833984375</LongitudeDegrees>
            </Position>
            <AltitudeMeters>382.399993896484375</AltitudeMeters>
            <DistanceMeters>NAN</DistanceMeters>
          </Trackpoint>
          <Trackpoint>
            <Time>2021-04-03T09:52:14.000Z</Time>
            <Position>
              <LatitudeDegrees>42.2926658950746059417724609375</LatitudeDegrees>
              <LongitudeDegrees>2.5513391755521297454833984375</LongitudeDegrees>
            </Position>
            <AltitudeMeters>382.399993896484375</AltitudeMeters>
            <DistanceMeters>NAN</DistanceMeters>
          </Trackpoint>
          <Trackpoint>
            <Time>2021-04-03T09:52:28.000Z</Time>
            <Position>
              <LatitudeDegrees>42.2926841676235198974609375</LatitudeDegrees>
              <LongitudeDegrees>2.55131210200488567352294921875</LongitudeDegrees>
            </Position>
            <AltitudeMeters>381.79998779296875</AltitudeMeters>
            <DistanceMeters>NAN</DistanceMeters>
          </Trackpoint>
          <Trackpoint>
            <Time>2021-04-03T09:52:36.000Z</Time>
            <Position>
              <LatitudeDegrees>42.2927289269864559173583984375</LatitudeDegrees>
              <LongitudeDegrees>2.55124370567500591278076171875</LongitudeDegrees>
            </Position>
            <AltitudeMeters>381.79998779296875</AltitudeMeters>
            <DistanceMeters>NAN</DistanceMeters>
          </Trackpoint>
          <Trackpoint>
            <Time>2021-04-03T09:52:42.000Z</Time>
            <Position>
              <LatitudeDegrees>42.2927788831293582916259765625</LatitudeDegrees>
              <LongitudeDegrees>2.55117380060255527496337890625</LongitudeDegrees>
            </Position>
            <AltitudeMeters>382</AltitudeMeters>
            <DistanceMeters>NAN</DistanceMeters>
          </Trackpoint>
          <Trackpoint>
            <Time>2021-04-03T09:52:44.000Z</Time>
            <Position>
              <LatitudeDegrees>42.29280109517276287078857421875</LatitudeDegrees>
              <LongitudeDegrees>2.55115653388202190399169921875</LongitudeDegrees>
            </Position>
            <AltitudeMeters>382</AltitudeMeters>
            <DistanceMeters>NAN</DistanceMeters>
          </Trackpoint>
          <Trackpoint>
            <Time>2021-04-03T09:52:48.000Z</Time>
            <Position>
              <LatitudeDegrees>42.29280419647693634033203125</LatitudeDegrees>
              <LongitudeDegrees>2.55114756524562835693359375</LongitudeDegrees>
            </Position>
            <AltitudeMeters>381.79998779296875</AltitudeMeters>
            <DistanceMeters>NAN</DistanceMeters>
          </Trackpoint>
          <Trackpoint>
            <Time>2021-04-03T09:52:55.000Z</Time>
            <Position>
              <LatitudeDegrees>42.29276932775974273681640625</LatitudeDegrees>
              <LongitudeDegrees>2.5511463917791843414306640625</LongitudeDegrees>
            </Position>
            <AltitudeMeters>382</AltitudeMeters>
            <DistanceMeters>NAN</DistanceMeters>
          </Trackpoint>
          <Trackpoint>
            <Time>2021-04-03T09:52:59.000Z</Time>
            <Position>
              <LatitudeDegrees>42.29276932775974273681640625</LatitudeDegrees>
              <LongitudeDegrees>2.5511463917791843414306640625</LongitudeDegrees>
            </Position>
            <AltitudeMeters>382</AltitudeMeters>
            <DistanceMeters>NAN</DistanceMeters>
          </Trackpoint>
          <Trackpoint>
            <Time>2021-04-03T09:53:11.000Z</Time>
            <Position>
              <LatitudeDegrees>42.2927731834352016448974609375</LatitudeDegrees>
              <LongitudeDegrees>2.55114220082759857177734375</LongitudeDegrees>
            </Position>
            <AltitudeMeters>381.79998779296875</AltitudeMeters>
            <DistanceMeters>NAN</DistanceMeters>
          </Trackpoint>
          <Trackpoint>
            <Time>2021-04-03T09:53:14.000Z</Time>
            <Position>
              <LatitudeDegrees>42.2927795536816120147705078125</LatitudeDegrees>
              <LongitudeDegrees>2.55113809369504451751708984375</LongitudeDegrees>
            </Position>
            <AltitudeMeters>381.79998779296875</AltitudeMeters>
            <DistanceMeters>NAN</DistanceMeters>
          </Trackpoint>
          <Trackpoint>
            <Time>2021-04-03T09:53:16.000Z</Time>
            <Position>
              <LatitudeDegrees>42.29277796112000942230224609375</LatitudeDegrees>
              <LongitudeDegrees>2.5511346571147441864013671875</LongitudeDegrees>
            </Position>
            <AltitudeMeters>381.79998779296875</AltitudeMeters>
            <DistanceMeters>NAN</DistanceMeters>
          </Trackpoint>
          <Trackpoint>
            <Time>2021-04-03T09:53:18.000Z</Time>
            <Position>
              <LatitudeDegrees>42.292773686349391937255859375</LatitudeDegrees>
              <LongitudeDegrees>2.55113189108669757843017578125</LongitudeDegrees>
            </Position>
            <AltitudeMeters>381.79998779296875</AltitudeMeters>
            <DistanceMeters>NAN</DistanceMeters>
          </Trackpoint>
          <Trackpoint>
            <Time>2021-04-03T09:53:20.000Z</Time>
            <Position>
              <LatitudeDegrees>42.29277125559747219085693359375</LatitudeDegrees>
              <LongitudeDegrees>2.55112887360155582427978515625</LongitudeDegrees>
            </Position>
            <AltitudeMeters>381.79998779296875</AltitudeMeters>
            <DistanceMeters>NAN</DistanceMeters>
          </Trackpoint>
          <Trackpoint>
            <Time>2021-04-03T09:53:23.000Z</Time>
            <Position>
              <LatitudeDegrees>42.29277075268328189849853515625</LatitudeDegrees>
              <LongitudeDegrees>2.5511262752115726470947265625</LongitudeDegrees>
            </Position>
            <AltitudeMeters>381.79998779296875</AltitudeMeters>
            <DistanceMeters>NAN</DistanceMeters>
          </Trackpoint>
          <Trackpoint>
            <Time>2021-04-03T09:53:52.000Z</Time>
            <Position>
              <LatitudeDegrees>42.29275767691433429718017578125</LatitudeDegrees>
              <LongitudeDegrees>2.551111020147800445556640625</LongitudeDegrees>
            </Position>
            <AltitudeMeters>382</AltitudeMeters>
            <DistanceMeters>NAN</DistanceMeters>
          </Trackpoint>
          <Trackpoint>
            <Time>2021-04-03T09:54:02.000Z</Time>
            <Position>
              <LatitudeDegrees>42.292756922543048858642578125</LatitudeDegrees>
              <LongitudeDegrees>2.55107170902192592620849609375</LongitudeDegrees>
            </Position>
            <AltitudeMeters>382</AltitudeMeters>
            <DistanceMeters>NAN</DistanceMeters>
          </Trackpoint>
          <Trackpoint>
            <Time>2021-04-03T09:54:06.000Z</Time>
            <Position>
              <LatitudeDegrees>42.29275591671466827392578125</LatitudeDegrees>
              <LongitudeDegrees>2.5510699488222599029541015625</LongitudeDegrees>
            </Position>
            <AltitudeMeters>382</AltitudeMeters>
            <DistanceMeters>NAN</DistanceMeters>
          </Trackpoint>
          <Trackpoint>
            <Time>2021-04-03T09:54:12.000Z</Time>
            <Position>
              <LatitudeDegrees>42.29275516234338283538818359375</LatitudeDegrees>
              <LongitudeDegrees>2.55106986500322818756103515625</LongitudeDegrees>
            </Position>
            <AltitudeMeters>382</AltitudeMeters>
            <DistanceMeters>NAN</DistanceMeters>
          </Trackpoint>
          <Trackpoint>
            <Time>2021-04-03T09:54:15.000Z</Time>
            <Position>
              <LatitudeDegrees>42.29275516234338283538818359375</LatitudeDegrees>
              <LongitudeDegrees>2.5510704517364501953125</LongitudeDegrees>
            </Position>
            <AltitudeMeters>382</AltitudeMeters>
            <DistanceMeters>NAN</DistanceMeters>
          </Trackpoint>
          <Trackpoint>
            <Time>2021-04-03T09:54:19.000Z</Time>
            <Position>
              <LatitudeDegrees>42.29275516234338283538818359375</LatitudeDegrees>
              <LongitudeDegrees>2.55107581615447998046875</LongitudeDegrees>
            </Position>
            <AltitudeMeters>382</AltitudeMeters>
            <DistanceMeters>NAN</DistanceMeters>
          </Trackpoint>
          <Trackpoint>
            <Time>2021-04-03T09:54:26.000Z</Time>
            <Position>
              <LatitudeDegrees>42.29275851510465145111083984375</LatitudeDegrees>
              <LongitudeDegrees>2.5510820187628269195556640625</LongitudeDegrees>
            </Position>
            <AltitudeMeters>382</AltitudeMeters>
            <DistanceMeters>NAN</DistanceMeters>
          </Trackpoint>
          <Trackpoint>
            <Time>2021-04-03T09:54:34.000Z</Time>
            <Position>
              <LatitudeDegrees>42.2927678190171718597412109375</LatitudeDegrees>
              <LongitudeDegrees>2.5510904006659984588623046875</LongitudeDegrees>
            </Position>
            <AltitudeMeters>382</AltitudeMeters>
            <DistanceMeters>NAN</DistanceMeters>
          </Trackpoint>
          <Trackpoint>
            <Time>2021-04-03T09:54:48.000Z</Time>
            <Position>
              <LatitudeDegrees>42.29279606603085994720458984375</LatitudeDegrees>
              <LongitudeDegrees>2.5510937534272670745849609375</LongitudeDegrees>
            </Position>
            <AltitudeMeters>382</AltitudeMeters>
            <DistanceMeters>NAN</DistanceMeters>
          </Trackpoint>
          <Trackpoint>
            <Time>2021-04-03T09:54:56.000Z</Time>
            <Position>
              <LatitudeDegrees>42.292800508439540863037109375</LatitudeDegrees>
              <LongitudeDegrees>2.55108981393277645111083984375</LongitudeDegrees>
            </Position>
            <AltitudeMeters>382</AltitudeMeters>
            <DistanceMeters>NAN</DistanceMeters>
          </Trackpoint>
          <Trackpoint>
            <Time>2021-04-03T09:55:05.000Z</Time>
            <Position>
              <LatitudeDegrees>42.292822636663913726806640625</LatitudeDegrees>
              <LongitudeDegrees>2.55108696408569812774658203125</LongitudeDegrees>
            </Position>
            <AltitudeMeters>382</AltitudeMeters>
            <DistanceMeters>NAN</DistanceMeters>
          </Trackpoint>
          <Trackpoint>
            <Time>2021-04-03T09:55:14.000Z</Time>
            <Position>
              <LatitudeDegrees>42.29282875545322895050048828125</LatitudeDegrees>
              <LongitudeDegrees>2.55108009092509746551513671875</LongitudeDegrees>
            </Position>
            <AltitudeMeters>382</AltitudeMeters>
            <DistanceMeters>NAN</DistanceMeters>
          </Trackpoint>
          <Trackpoint>
            <Time>2021-04-03T09:55:27.000Z</Time>
            <Position>
              <LatitudeDegrees>42.29282791726291179656982421875</LatitudeDegrees>
              <LongitudeDegrees>2.55107707343995571136474609375</LongitudeDegrees>
            </Position>
            <AltitudeMeters>382</AltitudeMeters>
            <DistanceMeters>NAN</DistanceMeters>
          </Trackpoint>
          <Trackpoint>
            <Time>2021-04-03T09:55:43.000Z</Time>
            <Position>
              <LatitudeDegrees>42.29282774962484836578369140625</LatitudeDegrees>
              <LongitudeDegrees>2.55107740871608257293701171875</LongitudeDegrees>
            </Position>
            <AltitudeMeters>382</AltitudeMeters>
            <DistanceMeters>NAN</DistanceMeters>
          </Trackpoint>
          <Trackpoint>
            <Time>2021-04-03T09:55:45.000Z</Time>
            <Position>
              <LatitudeDegrees>42.29282741434872150421142578125</LatitudeDegrees>
              <LongitudeDegrees>2.55107690580189228057861328125</LongitudeDegrees>
            </Position>
            <AltitudeMeters>382</AltitudeMeters>
            <DistanceMeters>NAN</DistanceMeters>
          </Trackpoint>
          <Trackpoint>
            <Time>2021-04-03T09:55:54.000Z</Time>
            <Position>
              <LatitudeDegrees>42.29285675100982189178466796875</LatitudeDegrees>
              <LongitudeDegrees>2.55097179673612117767333984375</LongitudeDegrees>
            </Position>
            <AltitudeMeters>382</AltitudeMeters>
            <DistanceMeters>NAN</DistanceMeters>
          </Trackpoint>
          <Trackpoint>
            <Time>2021-04-03T09:56:02.000Z</Time>
            <Position>
              <LatitudeDegrees>42.29290922172367572784423828125</LatitudeDegrees>
              <LongitudeDegrees>2.5508516840636730194091796875</LongitudeDegrees>
            </Position>
            <AltitudeMeters>381.79998779296875</AltitudeMeters>
            <DistanceMeters>NAN</DistanceMeters>
          </Trackpoint>
          <Trackpoint>
            <Time>2021-04-03T09:56:05.000Z</Time>
            <Position>
              <LatitudeDegrees>42.2929290868341922760009765625</LatitudeDegrees>
              <LongitudeDegrees>2.55081572569906711578369140625</LongitudeDegrees>
            </Position>
            <AltitudeMeters>381.79998779296875</AltitudeMeters>
            <DistanceMeters>NAN</DistanceMeters>
          </Trackpoint>
          <Trackpoint>
            <Time>2021-04-03T09:56:07.000Z</Time>
            <Position>
              <LatitudeDegrees>42.2929394803941249847412109375</LatitudeDegrees>
              <LongitudeDegrees>2.550790496170520782470703125</LongitudeDegrees>
            </Position>
            <AltitudeMeters>382</AltitudeMeters>
            <DistanceMeters>NAN</DistanceMeters>
          </Trackpoint>
          <Trackpoint>
            <Time>2021-04-03T09:56:09.000Z</Time>
            <Position>
              <LatitudeDegrees>42.292952053248882293701171875</LatitudeDegrees>
              <LongitudeDegrees>2.5507671944797039031982421875</LongitudeDegrees>
            </Position>
            <AltitudeMeters>382.20001220703125</AltitudeMeters>
            <DistanceMeters>NAN</DistanceMeters>
          </Trackpoint>
          <Trackpoint>
            <Time>2021-04-03T09:56:16.000Z</Time>
            <Position>
              <LatitudeDegrees>42.2929917834699153900146484375</LatitudeDegrees>
              <LongitudeDegrees>2.55071036517620086669921875</LongitudeDegrees>
            </Position>
            <AltitudeMeters>382.600006103515625</AltitudeMeters>
            <DistanceMeters>NAN</DistanceMeters>
          </Trackpoint>
          <Trackpoint>
            <Time>2021-04-03T09:56:17.000Z</Time>
            <Position>
              <LatitudeDegrees>42.2929897718131542205810546875</LatitudeDegrees>
              <LongitudeDegrees>2.55070189945399761199951171875</LongitudeDegrees>
            </Position>
            <AltitudeMeters>382.600006103515625</AltitudeMeters>
            <DistanceMeters>NAN</DistanceMeters>
          </Trackpoint>
          <Trackpoint>
            <Time>2021-04-03T09:56:20.000Z</Time>
            <Position>
              <LatitudeDegrees>42.29302003048360347747802734375</LatitudeDegrees>
              <LongitudeDegrees>2.55067474208772182464599609375</LongitudeDegrees>
            </Position>
            <AltitudeMeters>382.600006103515625</AltitudeMeters>
            <DistanceMeters>NAN</DistanceMeters>
          </Trackpoint>
          <Trackpoint>
            <Time>2021-04-03T09:56:21.000Z</Time>
            <Position>
              <LatitudeDegrees>42.29302841238677501678466796875</LatitudeDegrees>
              <LongitudeDegrees>2.5506659410893917083740234375</LongitudeDegrees>
            </Position>
            <AltitudeMeters>382.79998779296875</AltitudeMeters>
            <DistanceMeters>NAN</DistanceMeters>
          </Trackpoint>
          <Trackpoint>
            <Time>2021-04-03T09:56:27.000Z</Time>
            <Position>
              <LatitudeDegrees>42.2930776141583919525146484375</LatitudeDegrees>
              <LongitudeDegrees>2.55061103962361812591552734375</LongitudeDegrees>
            </Position>
            <AltitudeMeters>383</AltitudeMeters>
            <DistanceMeters>NAN</DistanceMeters>
          </Trackpoint>
          <Trackpoint>
            <Time>2021-04-03T09:56:28.000Z</Time>
            <Position>
              <LatitudeDegrees>42.293088845908641815185546875</LatitudeDegrees>
              <LongitudeDegrees>2.550604082643985748291015625</LongitudeDegrees>
            </Position>
            <AltitudeMeters>383</AltitudeMeters>
            <DistanceMeters>NAN</DistanceMeters>
          </Trackpoint>
          <Trackpoint>
            <Time>2021-04-03T09:56:33.000Z</Time>
            <Position>
              <LatitudeDegrees>42.2931131534278392791748046875</LatitudeDegrees>
              <LongitudeDegrees>2.55056820809841156005859375</LongitudeDegrees>
            </Position>
            <AltitudeMeters>383.20001220703125</AltitudeMeters>
            <DistanceMeters>NAN</DistanceMeters>
          </Trackpoint>
          <Trackpoint>
            <Time>2021-04-03T09:56:44.000Z</Time>
            <Position>
              <LatitudeDegrees>42.2931106388568878173828125</LatitudeDegrees>
              <LongitudeDegrees>2.5505884923040866851806640625</LongitudeDegrees>
            </Position>
            <AltitudeMeters>383.20001220703125</AltitudeMeters>
            <DistanceMeters>NAN</DistanceMeters>
          </Trackpoint>
          <Trackpoint>
            <Time>2021-04-03T09:56:51.000Z</Time>
            <Position>
              <LatitudeDegrees>42.29311508126556873321533203125</LatitudeDegrees>
              <LongitudeDegrees>2.5505884923040866851806640625</LongitudeDegrees>
            </Position>
            <AltitudeMeters>383.20001220703125</AltitudeMeters>
            <DistanceMeters>NAN</DistanceMeters>
          </Trackpoint>
          <Trackpoint>
            <Time>2021-04-03T09:57:01.000Z</Time>
            <Position>
              <LatitudeDegrees>42.29320828802883625030517578125</LatitudeDegrees>
              <LongitudeDegrees>2.55046435631811618804931640625</LongitudeDegrees>
            </Position>
            <AltitudeMeters>383.20001220703125</AltitudeMeters>
            <DistanceMeters>NAN</DistanceMeters>
          </Trackpoint>
          <Trackpoint>
            <Time>2021-04-03T09:57:07.000Z</Time>
            <Position>
              <LatitudeDegrees>42.29330535046756267547607421875</LatitudeDegrees>
              <LongitudeDegrees>2.55030124448239803314208984375</LongitudeDegrees>
            </Position>
            <AltitudeMeters>383.399993896484375</AltitudeMeters>
            <DistanceMeters>NAN</DistanceMeters>
          </Trackpoint>
          <Trackpoint>
            <Time>2021-04-03T09:57:09.000Z</Time>
            <Position>
              <LatitudeDegrees>42.29329847730696201324462890625</LatitudeDegrees>
              <LongitudeDegrees>2.55027559585869312286376953125</LongitudeDegrees>
            </Position>
            <AltitudeMeters>383.399993896484375</AltitudeMeters>
            <DistanceMeters>NAN</DistanceMeters>
          </Trackpoint>
          <Trackpoint>
            <Time>2021-04-03T09:57:13.000Z</Time>
            <Position>
              <LatitudeDegrees>42.29333954863250255584716796875</LatitudeDegrees>
              <LongitudeDegrees>2.55021750926971435546875</LongitudeDegrees>
            </Position>
            <AltitudeMeters>383.399993896484375</AltitudeMeters>
            <DistanceMeters>NAN</DistanceMeters>
          </Trackpoint>
          <Trackpoint>
            <Time>2021-04-03T09:57:15.000Z</Time>
            <Position>
              <LatitudeDegrees>42.2933659516274929046630859375</LatitudeDegrees>
              <LongitudeDegrees>2.55019965581595897674560546875</LongitudeDegrees>
            </Position>
            <AltitudeMeters>383.399993896484375</AltitudeMeters>
            <DistanceMeters>NAN</DistanceMeters>
          </Trackpoint>
          <Trackpoint>
            <Time>2021-04-03T09:57:16.000Z</Time>
            <Position>
              <LatitudeDegrees>42.29337818920612335205078125</LatitudeDegrees>
              <LongitudeDegrees>2.55019010044634342193603515625</LongitudeDegrees>
            </Position>
            <AltitudeMeters>383.399993896484375</AltitudeMeters>
            <DistanceMeters>NAN</DistanceMeters>
          </Trackpoint>
          <Trackpoint>
            <Time>2021-04-03T09:57:18.000Z</Time>
            <Position>
              <LatitudeDegrees>42.2933991439640522003173828125</LatitudeDegrees>
              <LongitudeDegrees>2.55016210488975048065185546875</LongitudeDegrees>
            </Position>
            <AltitudeMeters>383.399993896484375</AltitudeMeters>
            <DistanceMeters>NAN</DistanceMeters>
          </Trackpoint>
          <Trackpoint>
            <Time>2021-04-03T09:57:20.000Z</Time>
            <Position>
              <LatitudeDegrees>42.29341465048491954803466796875</LatitudeDegrees>
              <LongitudeDegrees>2.5501341931521892547607421875</LongitudeDegrees>
            </Position>
            <AltitudeMeters>383.600006103515625</AltitudeMeters>
            <DistanceMeters>NAN</DistanceMeters>
          </Trackpoint>
          <Trackpoint>
            <Time>2021-04-03T09:57:23.000Z</Time>
            <Position>
              <LatitudeDegrees>42.29343962855637073516845703125</LatitudeDegrees>
              <LongitudeDegrees>2.55009471438825130462646484375</LongitudeDegrees>
            </Position>
            <AltitudeMeters>383.600006103515625</AltitudeMeters>
            <DistanceMeters>NAN</DistanceMeters>
          </Trackpoint>
          <Trackpoint>
            <Time>2021-04-03T09:57:25.000Z</Time>
            <Position>
              <LatitudeDegrees>42.29346460662782192230224609375</LatitudeDegrees>
              <LongitudeDegrees>2.550064288079738616943359375</LongitudeDegrees>
            </Position>
            <AltitudeMeters>383.79998779296875</AltitudeMeters>
            <DistanceMeters>NAN</DistanceMeters>
          </Trackpoint>
          <Trackpoint>
            <Time>2021-04-03T09:57:29.000Z</Time>
            <Position>
              <LatitudeDegrees>42.293492518365383148193359375</LatitudeDegrees>
              <LongitudeDegrees>2.5500034354627132415771484375</LongitudeDegrees>
            </Position>
            <AltitudeMeters>383.79998779296875</AltitudeMeters>
            <DistanceMeters>NAN</DistanceMeters>
          </Trackpoint>
          <Trackpoint>
            <Time>2021-04-03T09:57:33.000Z</Time>
            <Position>
              <LatitudeDegrees>42.2935299016535282135009765625</LatitudeDegrees>
              <LongitudeDegrees>2.54996513016521930694580078125</LongitudeDegrees>
            </Position>
            <AltitudeMeters>384.20001220703125</AltitudeMeters>
            <DistanceMeters>NAN</DistanceMeters>
          </Trackpoint>
          <Trackpoint>
            <Time>2021-04-03T09:57:35.000Z</Time>
            <Position>
              <LatitudeDegrees>42.2935319133102893829345703125</LatitudeDegrees>
              <LongitudeDegrees>2.54995523951947689056396484375</LongitudeDegrees>
            </Position>
            <AltitudeMeters>384.399993896484375</AltitudeMeters>
            <DistanceMeters>NAN</DistanceMeters>
          </Trackpoint>
          <Trackpoint>
            <Time>2021-04-03T09:57:37.000Z</Time>
            <Position>
              <LatitudeDegrees>42.293544150888919830322265625</LatitudeDegrees>
              <LongitudeDegrees>2.54994350485503673553466796875</LongitudeDegrees>
            </Position>
            <AltitudeMeters>384.600006103515625</AltitudeMeters>
            <DistanceMeters>NAN</DistanceMeters>
          </Trackpoint>
          <Trackpoint>
            <Time>2021-04-03T09:57:38.000Z</Time>
            <Position>
              <LatitudeDegrees>42.2935453243553638458251953125</LatitudeDegrees>
              <LongitudeDegrees>2.54993788897991180419921875</LongitudeDegrees>
            </Position>
            <AltitudeMeters>384.600006103515625</AltitudeMeters>
            <DistanceMeters>NAN</DistanceMeters>
          </Trackpoint>
          <Trackpoint>
            <Time>2021-04-03T09:57:41.000Z</Time>
            <Position>
              <LatitudeDegrees>42.2935765050351619720458984375</LatitudeDegrees>
              <LongitudeDegrees>2.5499202869832515716552734375</LongitudeDegrees>
            </Position>
            <AltitudeMeters>384.79998779296875</AltitudeMeters>
            <DistanceMeters>NAN</DistanceMeters>
          </Trackpoint>
          <Trackpoint>
            <Time>2021-04-03T09:57:44.000Z</Time>
            <Position>
              <LatitudeDegrees>42.29358882643282413482666015625</LatitudeDegrees>
              <LongitudeDegrees>2.54988600499927997589111328125</LongitudeDegrees>
            </Position>
            <AltitudeMeters>385</AltitudeMeters>
            <DistanceMeters>NAN</DistanceMeters>
          </Trackpoint>
          <Trackpoint>
            <Time>2021-04-03T09:57:45.000Z</Time>
            <Position>
              <LatitudeDegrees>42.29358740150928497314453125</LatitudeDegrees>
              <LongitudeDegrees>2.54987460561096668243408203125</LongitudeDegrees>
            </Position>
            <AltitudeMeters>385</AltitudeMeters>
            <DistanceMeters>NAN</DistanceMeters>
          </Trackpoint>
          <Trackpoint>
            <Time>2021-04-03T09:57:46.000Z</Time>
            <Position>
              <LatitudeDegrees>42.29359670542180538177490234375</LatitudeDegrees>
              <LongitudeDegrees>2.5498726777732372283935546875</LongitudeDegrees>
            </Position>
            <AltitudeMeters>385</AltitudeMeters>
            <DistanceMeters>NAN</DistanceMeters>
          </Trackpoint>
          <Trackpoint>
            <Time>2021-04-03T09:57:48.000Z</Time>
            <Position>
              <LatitudeDegrees>42.293621599674224853515625</LatitudeDegrees>
              <LongitudeDegrees>2.549843676388263702392578125</LongitudeDegrees>
            </Position>
            <AltitudeMeters>385</AltitudeMeters>
            <DistanceMeters>NAN</DistanceMeters>
          </Trackpoint>
          <Trackpoint>
            <Time>2021-04-03T09:57:50.000Z</Time>
            <Position>
              <LatitudeDegrees>42.2936348430812358856201171875</LatitudeDegrees>
              <LongitudeDegrees>2.54982565529644489288330078125</LongitudeDegrees>
            </Position>
            <AltitudeMeters>385</AltitudeMeters>
            <DistanceMeters>NAN</DistanceMeters>
          </Trackpoint>
          <Trackpoint>
            <Time>2021-04-03T09:57:56.000Z</Time>
            <Position>
              <LatitudeDegrees>42.29369963519275188446044921875</LatitudeDegrees>
              <LongitudeDegrees>2.54976756870746612548828125</LongitudeDegrees>
            </Position>
            <AltitudeMeters>385.600006103515625</AltitudeMeters>
            <DistanceMeters>NAN</DistanceMeters>
          </Trackpoint>
          <Trackpoint>
            <Time>2021-04-03T09:58:02.000Z</Time>
            <Position>
              <LatitudeDegrees>42.29376149363815784454345703125</LatitudeDegrees>
              <LongitudeDegrees>2.54970562644302845001220703125</LongitudeDegrees>
            </Position>
            <AltitudeMeters>386</AltitudeMeters>
            <DistanceMeters>NAN</DistanceMeters>
          </Trackpoint>
          <Trackpoint>
            <Time>2021-04-03T09:58:08.000Z</Time>
            <Position>
              <LatitudeDegrees>42.29382033459842205047607421875</LatitudeDegrees>
              <LongitudeDegrees>2.54964594729244709014892578125</LongitudeDegrees>
            </Position>
            <AltitudeMeters>386.600006103515625</AltitudeMeters>
            <DistanceMeters>NAN</DistanceMeters>
          </Trackpoint>
          <Trackpoint>
            <Time>2021-04-03T09:58:10.000Z</Time>
            <Position>
              <LatitudeDegrees>42.29384011588990688323974609375</LatitudeDegrees>
              <LongitudeDegrees>2.549635134637355804443359375</LongitudeDegrees>
            </Position>
            <AltitudeMeters>386.79998779296875</AltitudeMeters>
            <DistanceMeters>NAN</DistanceMeters>
          </Trackpoint>
          <Trackpoint>
            <Time>2021-04-03T09:58:13.000Z</Time>
            <Position>
              <LatitudeDegrees>42.29386501014232635498046875</LatitudeDegrees>
              <LongitudeDegrees>2.5496051274240016937255859375</LongitudeDegrees>
            </Position>
            <AltitudeMeters>387</AltitudeMeters>
            <DistanceMeters>NAN</DistanceMeters>
          </Trackpoint>
          <Trackpoint>
            <Time>2021-04-03T09:58:16.000Z</Time>
            <Position>
              <LatitudeDegrees>42.29390331543982028961181640625</LatitudeDegrees>
              <LongitudeDegrees>2.54956279881298542022705078125</LongitudeDegrees>
            </Position>
            <AltitudeMeters>387.600006103515625</AltitudeMeters>
            <DistanceMeters>NAN</DistanceMeters>
          </Trackpoint>
          <Trackpoint>
            <Time>2021-04-03T09:58:17.000Z</Time>
            <Position>
              <LatitudeDegrees>42.2939154691994190216064453125</LatitudeDegrees>
              <LongitudeDegrees>2.54955123178660869598388671875</LongitudeDegrees>
            </Position>
            <AltitudeMeters>387.600006103515625</AltitudeMeters>
            <DistanceMeters>NAN</DistanceMeters>
          </Trackpoint>
          <Trackpoint>
            <Time>2021-04-03T09:58:19.000Z</Time>
            <Position>
              <LatitudeDegrees>42.29392963461577892303466796875</LatitudeDegrees>
              <LongitudeDegrees>2.5495327077805995941162109375</LongitudeDegrees>
            </Position>
            <AltitudeMeters>387.79998779296875</AltitudeMeters>
            <DistanceMeters>NAN</DistanceMeters>
          </Trackpoint>
          <Trackpoint>
            <Time>2021-04-03T09:58:23.000Z</Time>
            <Position>
              <LatitudeDegrees>42.2939543612301349639892578125</LatitudeDegrees>
              <LongitudeDegrees>2.54949289374053478240966796875</LongitudeDegrees>
            </Position>
            <AltitudeMeters>388.399993896484375</AltitudeMeters>
            <DistanceMeters>NAN</DistanceMeters>
          </Trackpoint>
          <Trackpoint>
            <Time>2021-04-03T09:58:24.000Z</Time>
            <Position>
              <LatitudeDegrees>42.2939681075513362884521484375</LatitudeDegrees>
              <LongitudeDegrees>2.54948350600898265838623046875</LongitudeDegrees>
            </Position>
            <AltitudeMeters>388.600006103515625</AltitudeMeters>
            <DistanceMeters>NAN</DistanceMeters>
          </Trackpoint>
          <Trackpoint>
            <Time>2021-04-03T09:58:25.000Z</Time>
            <Position>
              <LatitudeDegrees>42.29398109950125217437744140625</LatitudeDegrees>
              <LongitudeDegrees>2.5494753755629062652587890625</LongitudeDegrees>
            </Position>
            <AltitudeMeters>388.79998779296875</AltitudeMeters>
            <DistanceMeters>NAN</DistanceMeters>
          </Trackpoint>
          <Trackpoint>
            <Time>2021-04-03T09:58:26.000Z</Time>
            <Position>
              <LatitudeDegrees>42.29398864321410655975341796875</LatitudeDegrees>
              <LongitudeDegrees>2.54946456290781497955322265625</LongitudeDegrees>
            </Position>
            <AltitudeMeters>388.79998779296875</AltitudeMeters>
            <DistanceMeters>NAN</DistanceMeters>
          </Trackpoint>
          <Trackpoint>
            <Time>2021-04-03T09:58:27.000Z</Time>
            <Position>
              <LatitudeDegrees>42.2939912416040897369384765625</LatitudeDegrees>
              <LongitudeDegrees>2.54944930784404277801513671875</LongitudeDegrees>
            </Position>
            <AltitudeMeters>388.79998779296875</AltitudeMeters>
            <DistanceMeters>NAN</DistanceMeters>
          </Trackpoint>
          <Trackpoint>
            <Time>2021-04-03T09:58:30.000Z</Time>
            <Position>
              <LatitudeDegrees>42.29400238953530788421630859375</LatitudeDegrees>
              <LongitudeDegrees>2.5494113378226757049560546875</LongitudeDegrees>
            </Position>
            <AltitudeMeters>389.20001220703125</AltitudeMeters>
            <DistanceMeters>NAN</DistanceMeters>
          </Trackpoint>
          <Trackpoint>
            <Time>2021-04-03T09:58:34.000Z</Time>
            <Position>
              <LatitudeDegrees>42.2940167225897312164306640625</LatitudeDegrees>
              <LongitudeDegrees>2.5493583641946315765380859375</LongitudeDegrees>
            </Position>
            <AltitudeMeters>389.600006103515625</AltitudeMeters>
            <DistanceMeters>NAN</DistanceMeters>
          </Trackpoint>
          <Trackpoint>
            <Time>2021-04-03T09:58:37.000Z</Time>
            <Position>
              <LatitudeDegrees>42.29403910227119922637939453125</LatitudeDegrees>
              <LongitudeDegrees>2.5493171252310276031494140625</LongitudeDegrees>
            </Position>
            <AltitudeMeters>389.79998779296875</AltitudeMeters>
            <DistanceMeters>NAN</DistanceMeters>
          </Trackpoint>
          <Trackpoint>
            <Time>2021-04-03T09:58:40.000Z</Time>
            <Position>
              <LatitudeDegrees>42.29404513724148273468017578125</LatitudeDegrees>
              <LongitudeDegrees>2.5492654927074909210205078125</LongitudeDegrees>
            </Position>
            <AltitudeMeters>390</AltitudeMeters>
            <DistanceMeters>NAN</DistanceMeters>
          </Trackpoint>
          <Trackpoint>
            <Time>2021-04-03T09:58:43.000Z</Time>
            <Position>
              <LatitudeDegrees>42.29405217804014682769775390625</LatitudeDegrees>
              <LongitudeDegrees>2.5492299534380435943603515625</LongitudeDegrees>
            </Position>
            <AltitudeMeters>390.20001220703125</AltitudeMeters>
            <DistanceMeters>NAN</DistanceMeters>
          </Trackpoint>
          <Trackpoint>
            <Time>2021-04-03T09:58:51.000Z</Time>
            <Position>
              <LatitudeDegrees>42.29411202482879161834716796875</LatitudeDegrees>
              <LongitudeDegrees>2.54910866729915142059326171875</LongitudeDegrees>
            </Position>
            <AltitudeMeters>390.79998779296875</AltitudeMeters>
            <DistanceMeters>NAN</DistanceMeters>
          </Trackpoint>
          <Trackpoint>
            <Time>2021-04-03T09:58:52.000Z</Time>
            <Position>
              <LatitudeDegrees>42.29411805979907512664794921875</LatitudeDegrees>
              <LongitudeDegrees>2.54909760318696498870849609375</LongitudeDegrees>
            </Position>
            <AltitudeMeters>391</AltitudeMeters>
            <DistanceMeters>NAN</DistanceMeters>
          </Trackpoint>
          <Trackpoint>
            <Time>2021-04-03T09:58:57.000Z</Time>
            <Position>
              <LatitudeDegrees>42.2941635735332965850830078125</LatitudeDegrees>
              <LongitudeDegrees>2.549041695892810821533203125</LongitudeDegrees>
            </Position>
            <AltitudeMeters>391.20001220703125</AltitudeMeters>
            <DistanceMeters>NAN</DistanceMeters>
          </Trackpoint>
          <Trackpoint>
            <Time>2021-04-03T09:59:00.000Z</Time>
            <Position>
              <LatitudeDegrees>42.29418846778571605682373046875</LatitudeDegrees>
              <LongitudeDegrees>2.54901562817394733428955078125</LongitudeDegrees>
            </Position>
            <AltitudeMeters>391.20001220703125</AltitudeMeters>
            <DistanceMeters>NAN</DistanceMeters>
          </Trackpoint>
          <Trackpoint>
            <Time>2021-04-03T09:59:09.000Z</Time>
            <Position>
              <LatitudeDegrees>42.2942661680281162261962890625</LatitudeDegrees>
              <LongitudeDegrees>2.5489258579909801483154296875</LongitudeDegrees>
            </Position>
            <AltitudeMeters>391.20001220703125</AltitudeMeters>
            <DistanceMeters>NAN</DistanceMeters>
          </Trackpoint>
          <Trackpoint>
            <Time>2021-04-03T09:59:11.000Z</Time>
            <Position>
              <LatitudeDegrees>42.29427597485482692718505859375</LatitudeDegrees>
              <LongitudeDegrees>2.54891688935458660125732421875</LongitudeDegrees>
            </Position>
            <AltitudeMeters>391</AltitudeMeters>
            <DistanceMeters>NAN</DistanceMeters>
          </Trackpoint>
          <Trackpoint>
            <Time>2021-04-03T09:59:15.000Z</Time>
            <Position>
              <LatitudeDegrees>42.29429173283278942108154296875</LatitudeDegrees>
              <LongitudeDegrees>2.548879422247409820556640625</LongitudeDegrees>
            </Position>
            <AltitudeMeters>390.79998779296875</AltitudeMeters>
            <DistanceMeters>NAN</DistanceMeters>
          </Trackpoint>
          <Trackpoint>
            <Time>2021-04-03T09:59:22.000Z</Time>
            <Position>
              <LatitudeDegrees>42.29434722103178501129150390625</LatitudeDegrees>
              <LongitudeDegrees>2.5488239340484142303466796875</LongitudeDegrees>
            </Position>
            <AltitudeMeters>390</AltitudeMeters>
            <DistanceMeters>NAN</DistanceMeters>
          </Trackpoint>
          <Trackpoint>
            <Time>2021-04-03T09:59:24.000Z</Time>
            <Position>
              <LatitudeDegrees>42.29436750523746013641357421875</LatitudeDegrees>
              <LongitudeDegrees>2.54879635758697986602783203125</LongitudeDegrees>
            </Position>
            <AltitudeMeters>390</AltitudeMeters>
            <DistanceMeters>NAN</DistanceMeters>
          </Trackpoint>
          <Trackpoint>
            <Time>2021-04-03T09:59:26.000Z</Time>
            <Position>
              <LatitudeDegrees>42.294387035071849822998046875</LatitudeDegrees>
              <LongitudeDegrees>2.5487712956964969635009765625</LongitudeDegrees>
            </Position>
            <AltitudeMeters>389.79998779296875</AltitudeMeters>
            <DistanceMeters>NAN</DistanceMeters>
          </Trackpoint>
          <Trackpoint>
            <Time>2021-04-03T09:59:28.000Z</Time>
            <Position>
              <LatitudeDegrees>42.29440505616366863250732421875</LatitudeDegrees>
              <LongitudeDegrees>2.548741959035396575927734375</LongitudeDegrees>
            </Position>
            <AltitudeMeters>389.79998779296875</AltitudeMeters>
            <DistanceMeters>NAN</DistanceMeters>
          </Trackpoint>
          <Trackpoint>
            <Time>2021-04-03T09:59:30.000Z</Time>
            <Position>
              <LatitudeDegrees>42.2944123484194278717041015625</LatitudeDegrees>
              <LongitudeDegrees>2.5487186573445796966552734375</LongitudeDegrees>
            </Position>
            <AltitudeMeters>389.600006103515625</AltitudeMeters>
            <DistanceMeters>NAN</DistanceMeters>
          </Trackpoint>
          <Trackpoint>
            <Time>2021-04-03T09:59:33.000Z</Time>
            <Position>
              <LatitudeDegrees>42.29441511444747447967529296875</LatitudeDegrees>
              <LongitudeDegrees>2.54868756048381328582763671875</LongitudeDegrees>
            </Position>
            <AltitudeMeters>389.600006103515625</AltitudeMeters>
            <DistanceMeters>NAN</DistanceMeters>
          </Trackpoint>
          <Trackpoint>
            <Time>2021-04-03T09:59:34.000Z</Time>
            <Position>
              <LatitudeDegrees>42.29441863484680652618408203125</LatitudeDegrees>
              <LongitudeDegrees>2.5486787594854831695556640625</LongitudeDegrees>
            </Position>
            <AltitudeMeters>389.600006103515625</AltitudeMeters>
            <DistanceMeters>NAN</DistanceMeters>
          </Trackpoint>
          <Trackpoint>
            <Time>2021-04-03T09:59:39.000Z</Time>
            <Position>
              <LatitudeDegrees>42.294423244893550872802734375</LatitudeDegrees>
              <LongitudeDegrees>2.54861480556428432464599609375</LongitudeDegrees>
            </Position>
            <AltitudeMeters>389.79998779296875</AltitudeMeters>
            <DistanceMeters>NAN</DistanceMeters>
          </Trackpoint>
          <Trackpoint>
            <Time>2021-04-03T09:59:40.000Z</Time>
            <Position>
              <LatitudeDegrees>42.29443573392927646636962890625</LatitudeDegrees>
              <LongitudeDegrees>2.5485999695956707000732421875</LongitudeDegrees>
            </Position>
            <AltitudeMeters>389.79998779296875</AltitudeMeters>
            <DistanceMeters>NAN</DistanceMeters>
          </Trackpoint>
          <Trackpoint>
            <Time>2021-04-03T09:59:44.000Z</Time>
            <Position>
              <LatitudeDegrees>42.2944633103907108306884765625</LatitudeDegrees>
              <LongitudeDegrees>2.54856267012655735015869140625</LongitudeDegrees>
            </Position>
            <AltitudeMeters>390</AltitudeMeters>
            <DistanceMeters>NAN</DistanceMeters>
          </Trackpoint>
          <Trackpoint>
            <Time>2021-04-03T09:59:49.000Z</Time>
            <Position>
              <LatitudeDegrees>42.29450094513595104217529296875</LatitudeDegrees>
              <LongitudeDegrees>2.54852528683841228485107421875</LongitudeDegrees>
            </Position>
            <AltitudeMeters>390.399993896484375</AltitudeMeters>
            <DistanceMeters>NAN</DistanceMeters>
          </Trackpoint>
          <Trackpoint>
            <Time>2021-04-03T09:59:51.000Z</Time>
            <Position>
              <LatitudeDegrees>42.2945179603993892669677734375</LatitudeDegrees>
              <LongitudeDegrees>2.54851321689784526824951171875</LongitudeDegrees>
            </Position>
            <AltitudeMeters>390.600006103515625</AltitudeMeters>
            <DistanceMeters>NAN</DistanceMeters>
          </Trackpoint>
          <Trackpoint>
            <Time>2021-04-03T09:59:53.000Z</Time>
            <Position>
              <LatitudeDegrees>42.29455676861107349395751953125</LatitudeDegrees>
              <LongitudeDegrees>2.54850466735661029815673828125</LongitudeDegrees>
            </Position>
            <AltitudeMeters>390.79998779296875</AltitudeMeters>
            <DistanceMeters>NAN</DistanceMeters>
          </Trackpoint>
          <Trackpoint>
            <Time>2021-04-03T09:59:54.000Z</Time>
            <Position>
              <LatitudeDegrees>42.29457219131290912628173828125</LatitudeDegrees>
              <LongitudeDegrees>2.5484936870634555816650390625</LongitudeDegrees>
            </Position>
            <AltitudeMeters>390.79998779296875</AltitudeMeters>
            <DistanceMeters>NAN</DistanceMeters>
          </Trackpoint>
          <Trackpoint>
            <Time>2021-04-03T09:59:56.000Z</Time>
            <Position>
              <LatitudeDegrees>42.29460261762142181396484375</LatitudeDegrees>
              <LongitudeDegrees>2.54847315140068531036376953125</LongitudeDegrees>
            </Position>
            <AltitudeMeters>391</AltitudeMeters>
            <DistanceMeters>NAN</DistanceMeters>
          </Trackpoint>
          <Trackpoint>
            <Time>2021-04-03T10:00:01.000Z</Time>
            <Position>
              <LatitudeDegrees>42.29465768672525882720947265625</LatitudeDegrees>
              <LongitudeDegrees>2.548429481685161590576171875</LongitudeDegrees>
            </Position>
            <AltitudeMeters>391.399993896484375</AltitudeMeters>
            <DistanceMeters>NAN</DistanceMeters>
          </Trackpoint>
          <Trackpoint>
            <Time>2021-04-03T10:00:03.000Z</Time>
            <Position>
              <LatitudeDegrees>42.29467310942709445953369140625</LatitudeDegrees>
              <LongitudeDegrees>2.5484128855168819427490234375</LongitudeDegrees>
            </Position>
            <AltitudeMeters>391.600006103515625</AltitudeMeters>
            <DistanceMeters>NAN</DistanceMeters>
          </Trackpoint>
          <Trackpoint>
            <Time>2021-04-03T10:00:07.000Z</Time>
            <Position>
              <LatitudeDegrees>42.2946904599666595458984375</LatitudeDegrees>
              <LongitudeDegrees>2.548378519713878631591796875</LongitudeDegrees>
            </Position>
            <AltitudeMeters>391.79998779296875</AltitudeMeters>
            <DistanceMeters>NAN</DistanceMeters>
          </Trackpoint>
          <Trackpoint>
            <Time>2021-04-03T10:00:09.000Z</Time>
            <Position>
              <LatitudeDegrees>42.29471384547650814056396484375</LatitudeDegrees>
              <LongitudeDegrees>2.54835932515561580657958984375</LongitudeDegrees>
            </Position>
            <AltitudeMeters>392</AltitudeMeters>
            <DistanceMeters>NAN</DistanceMeters>
          </Trackpoint>
          <Trackpoint>
            <Time>2021-04-03T10:00:12.000Z</Time>
            <Position>
              <LatitudeDegrees>42.29476883076131343841552734375</LatitudeDegrees>
              <LongitudeDegrees>2.54830501042306423187255859375</LongitudeDegrees>
            </Position>
            <AltitudeMeters>392.399993896484375</AltitudeMeters>
            <DistanceMeters>NAN</DistanceMeters>
          </Trackpoint>
          <Trackpoint>
            <Time>2021-04-03T10:00:15.000Z</Time>
            <Position>
              <LatitudeDegrees>42.29481241665780544281005859375</LatitudeDegrees>
              <LongitudeDegrees>2.5482573173940181732177734375</LongitudeDegrees>
            </Position>
            <AltitudeMeters>392.600006103515625</AltitudeMeters>
            <DistanceMeters>NAN</DistanceMeters>
          </Trackpoint>
          <Trackpoint>
            <Time>2021-04-03T10:00:16.000Z</Time>
            <Position>
              <LatitudeDegrees>42.29482130147516727447509765625</LatitudeDegrees>
              <LongitudeDegrees>2.548251450061798095703125</LongitudeDegrees>
            </Position>
            <AltitudeMeters>392.79998779296875</AltitudeMeters>
            <DistanceMeters>NAN</DistanceMeters>
          </Trackpoint>
          <Trackpoint>
            <Time>2021-04-03T10:00:18.000Z</Time>
            <Position>
              <LatitudeDegrees>42.2948415018618106842041015625</LatitudeDegrees>
              <LongitudeDegrees>2.54823845811188220977783203125</LongitudeDegrees>
            </Position>
            <AltitudeMeters>393</AltitudeMeters>
            <DistanceMeters>NAN</DistanceMeters>
          </Trackpoint>
          <Trackpoint>
            <Time>2021-04-03T10:00:22.000Z</Time>
            <Position>
              <LatitudeDegrees>42.2949041984975337982177734375</LatitudeDegrees>
              <LongitudeDegrees>2.54820358939468860626220703125</LongitudeDegrees>
            </Position>
            <AltitudeMeters>393.399993896484375</AltitudeMeters>
            <DistanceMeters>NAN</DistanceMeters>
          </Trackpoint>
          <Trackpoint>
            <Time>2021-04-03T10:00:25.000Z</Time>
            <Position>
              <LatitudeDegrees>42.29491283185780048370361328125</LatitudeDegrees>
              <LongitudeDegrees>2.54816603846848011016845703125</LongitudeDegrees>
            </Position>
            <AltitudeMeters>393.600006103515625</AltitudeMeters>
            <DistanceMeters>NAN</DistanceMeters>
          </Trackpoint>
          <Trackpoint>
            <Time>2021-04-03T10:00:27.000Z</Time>
            <Position>
              <LatitudeDegrees>42.29491752572357654571533203125</LatitudeDegrees>
              <LongitudeDegrees>2.54814240150153636932373046875</LongitudeDegrees>
            </Position>
            <AltitudeMeters>393.79998779296875</AltitudeMeters>
            <DistanceMeters>NAN</DistanceMeters>
          </Trackpoint>
          <Trackpoint>
            <Time>2021-04-03T10:00:28.000Z</Time>
            <Position>
              <LatitudeDegrees>42.2949372231960296630859375</LatitudeDegrees>
              <LongitudeDegrees>2.54813552834093570709228515625</LongitudeDegrees>
            </Position>
            <AltitudeMeters>394</AltitudeMeters>
            <DistanceMeters>NAN</DistanceMeters>
          </Trackpoint>
          <Trackpoint>
            <Time>2021-04-03T10:00:33.000Z</Time>
            <Position>
              <LatitudeDegrees>42.29498684406280517578125</LatitudeDegrees>
              <LongitudeDegrees>2.5480930320918560028076171875</LongitudeDegrees>
            </Position>
            <AltitudeMeters>394.399993896484375</AltitudeMeters>
            <DistanceMeters>NAN</DistanceMeters>
          </Trackpoint>
          <Trackpoint>
            <Time>2021-04-03T10:00:37.000Z</Time>
            <Position>
              <LatitudeDegrees>42.2950061224400997161865234375</LatitudeDegrees>
              <LongitudeDegrees>2.54809697158634662628173828125</LongitudeDegrees>
            </Position>
            <AltitudeMeters>394.600006103515625</AltitudeMeters>
            <DistanceMeters>NAN</DistanceMeters>
          </Trackpoint>
          <Trackpoint>
            <Time>2021-04-03T10:00:40.000Z</Time>
            <Position>
              <LatitudeDegrees>42.2950091399252414703369140625</LatitudeDegrees>
              <LongitudeDegrees>2.54810099489986896514892578125</LongitudeDegrees>
            </Position>
            <AltitudeMeters>394.600006103515625</AltitudeMeters>
            <DistanceMeters>NAN</DistanceMeters>
          </Trackpoint>
          <Trackpoint>
            <Time>2021-04-03T10:00:42.000Z</Time>
            <Position>
              <LatitudeDegrees>42.29501106776297092437744140625</LatitudeDegrees>
              <LongitudeDegrees>2.54810166545212268829345703125</LongitudeDegrees>
            </Position>
            <AltitudeMeters>394.600006103515625</AltitudeMeters>
            <DistanceMeters>NAN</DistanceMeters>
          </Trackpoint>
          <Trackpoint>
            <Time>2021-04-03T10:00:43.000Z</Time>
            <Position>
              <LatitudeDegrees>42.2950136661529541015625</LatitudeDegrees>
              <LongitudeDegrees>2.54810133017599582672119140625</LongitudeDegrees>
            </Position>
            <AltitudeMeters>394.600006103515625</AltitudeMeters>
            <DistanceMeters>NAN</DistanceMeters>
          </Trackpoint>
          <Trackpoint>
            <Time>2021-04-03T10:00:47.000Z</Time>
            <Position>
              <LatitudeDegrees>42.29501291178166866302490234375</LatitudeDegrees>
              <LongitudeDegrees>2.54810317419469356536865234375</LongitudeDegrees>
            </Position>
            <AltitudeMeters>394.600006103515625</AltitudeMeters>
            <DistanceMeters>NAN</DistanceMeters>
          </Trackpoint>
          <Trackpoint>
            <Time>2021-04-03T10:00:50.000Z</Time>
            <Position>
              <LatitudeDegrees>42.29502104222774505615234375</LatitudeDegrees>
              <LongitudeDegrees>2.548111639916896820068359375</LongitudeDegrees>
            </Position>
            <AltitudeMeters>394.600006103515625</AltitudeMeters>
            <DistanceMeters>NAN</DistanceMeters>
          </Trackpoint>
          <Trackpoint>
            <Time>2021-04-03T10:00:58.000Z</Time>
            <Position>
              <LatitudeDegrees>42.29502104222774505615234375</LatitudeDegrees>
              <LongitudeDegrees>2.548111639916896820068359375</LongitudeDegrees>
            </Position>
            <AltitudeMeters>394.600006103515625</AltitudeMeters>
            <DistanceMeters>NAN</DistanceMeters>
          </Trackpoint>
          <Trackpoint>
            <Time>2021-04-03T10:01:05.000Z</Time>
            <Position>
              <LatitudeDegrees>42.29502632282674312591552734375</LatitudeDegrees>
              <LongitudeDegrees>2.548122704029083251953125</LongitudeDegrees>
            </Position>
            <AltitudeMeters>394.600006103515625</AltitudeMeters>
            <DistanceMeters>NAN</DistanceMeters>
          </Trackpoint>
          <Trackpoint>
            <Time>2021-04-03T10:01:11.000Z</Time>
            <Position>
              <LatitudeDegrees>42.29504358954727649688720703125</LatitudeDegrees>
              <LongitudeDegrees>2.5481426529586315155029296875</LongitudeDegrees>
            </Position>
            <AltitudeMeters>394.600006103515625</AltitudeMeters>
            <DistanceMeters>NAN</DistanceMeters>
          </Trackpoint>
          <Trackpoint>
            <Time>2021-04-03T10:01:15.000Z</Time>
            <Position>
              <LatitudeDegrees>42.2950993292033672332763671875</LatitudeDegrees>
              <LongitudeDegrees>2.54808389581739902496337890625</LongitudeDegrees>
            </Position>
            <AltitudeMeters>394.20001220703125</AltitudeMeters>
            <DistanceMeters>NAN</DistanceMeters>
          </Trackpoint>
          <Trackpoint>
            <Time>2021-04-03T10:01:16.000Z</Time>
            <Position>
              <LatitudeDegrees>42.29511450044810771942138671875</LatitudeDegrees>
              <LongitudeDegrees>2.54807165823876857757568359375</LongitudeDegrees>
            </Position>
            <AltitudeMeters>394.20001220703125</AltitudeMeters>
            <DistanceMeters>NAN</DistanceMeters>
          </Trackpoint>
          <Trackpoint>
            <Time>2021-04-03T10:01:22.000Z</Time>
            <Position>
              <LatitudeDegrees>42.29518063366413116455078125</LatitudeDegrees>
              <LongitudeDegrees>2.547986246645450592041015625</LongitudeDegrees>
            </Position>
            <AltitudeMeters>394</AltitudeMeters>
            <DistanceMeters>NAN</DistanceMeters>
          </Trackpoint>
          <Trackpoint>
            <Time>2021-04-03T10:01:28.000Z</Time>
            <Position>
              <LatitudeDegrees>42.2952498681843280792236328125</LatitudeDegrees>
              <LongitudeDegrees>2.54791927523910999298095703125</LongitudeDegrees>
            </Position>
            <AltitudeMeters>393</AltitudeMeters>
            <DistanceMeters>NAN</DistanceMeters>
          </Trackpoint>
          <Trackpoint>
            <Time>2021-04-03T10:01:32.000Z</Time>
            <Position>
              <LatitudeDegrees>42.2953152470290660858154296875</LatitudeDegrees>
              <LongitudeDegrees>2.54787485115230083465576171875</LongitudeDegrees>
            </Position>
            <AltitudeMeters>391.79998779296875</AltitudeMeters>
            <DistanceMeters>NAN</DistanceMeters>
          </Trackpoint>
          <Trackpoint>
            <Time>2021-04-03T10:01:36.000Z</Time>
            <Position>
              <LatitudeDegrees>42.2953447513282299041748046875</LatitudeDegrees>
              <LongitudeDegrees>2.5478439219295978546142578125</LongitudeDegrees>
            </Position>
            <AltitudeMeters>390.600006103515625</AltitudeMeters>
            <DistanceMeters>NAN</DistanceMeters>
          </Trackpoint>
          <Trackpoint>
            <Time>2021-04-03T10:01:37.000Z</Time>
            <Position>
              <LatitudeDegrees>42.2953504510223865509033203125</LatitudeDegrees>
              <LongitudeDegrees>2.5478316843509674072265625</LongitudeDegrees>
            </Position>
            <AltitudeMeters>390.399993896484375</AltitudeMeters>
            <DistanceMeters>NAN</DistanceMeters>
          </Trackpoint>
          <Trackpoint>
            <Time>2021-04-03T10:01:39.000Z</Time>
            <Position>
              <LatitudeDegrees>42.2953514568507671356201171875</LatitudeDegrees>
              <LongitudeDegrees>2.547801174223423004150390625</LongitudeDegrees>
            </Position>
            <AltitudeMeters>390</AltitudeMeters>
            <DistanceMeters>NAN</DistanceMeters>
          </Trackpoint>
          <Trackpoint>
            <Time>2021-04-03T10:01:41.000Z</Time>
            <Position>
              <LatitudeDegrees>42.2953595034778118133544921875</LatitudeDegrees>
              <LongitudeDegrees>2.547757923603057861328125</LongitudeDegrees>
            </Position>
            <AltitudeMeters>389.600006103515625</AltitudeMeters>
            <DistanceMeters>NAN</DistanceMeters>
          </Trackpoint>
          <Trackpoint>
            <Time>2021-04-03T10:01:43.000Z</Time>
            <Position>
              <LatitudeDegrees>42.2953695617616176605224609375</LatitudeDegrees>
              <LongitudeDegrees>2.5477124936878681182861328125</LongitudeDegrees>
            </Position>
            <AltitudeMeters>389</AltitudeMeters>
            <DistanceMeters>NAN</DistanceMeters>
          </Trackpoint>
          <Trackpoint>
            <Time>2021-04-03T10:01:46.000Z</Time>
            <Position>
              <LatitudeDegrees>42.2953880019485950469970703125</LatitudeDegrees>
              <LongitudeDegrees>2.54768483340740203857421875</LongitudeDegrees>
            </Position>
            <AltitudeMeters>388.399993896484375</AltitudeMeters>
            <DistanceMeters>NAN</DistanceMeters>
          </Trackpoint>
          <Trackpoint>
            <Time>2021-04-03T10:01:48.000Z</Time>
            <Position>
              <LatitudeDegrees>42.29539562948048114776611328125</LatitudeDegrees>
              <LongitudeDegrees>2.54767276346683502197265625</LongitudeDegrees>
            </Position>
            <AltitudeMeters>388</AltitudeMeters>
            <DistanceMeters>NAN</DistanceMeters>
          </Trackpoint>
          <Trackpoint>
            <Time>2021-04-03T10:01:49.000Z</Time>
            <Position>
              <LatitudeDegrees>42.295402921736240386962890625</LatitudeDegrees>
              <LongitudeDegrees>2.5476561672985553741455078125</LongitudeDegrees>
            </Position>
            <AltitudeMeters>387.79998779296875</AltitudeMeters>
            <DistanceMeters>NAN</DistanceMeters>
          </Trackpoint>
          <Trackpoint>
            <Time>2021-04-03T10:01:51.000Z</Time>
            <Position>
              <LatitudeDegrees>42.2954092919826507568359375</LatitudeDegrees>
              <LongitudeDegrees>2.54763077013194561004638671875</LongitudeDegrees>
            </Position>
            <AltitudeMeters>387.399993896484375</AltitudeMeters>
            <DistanceMeters>NAN</DistanceMeters>
          </Trackpoint>
          <Trackpoint>
            <Time>2021-04-03T10:01:52.000Z</Time>
            <Position>
              <LatitudeDegrees>42.2954092919826507568359375</LatitudeDegrees>
              <LongitudeDegrees>2.5476171076297760009765625</LongitudeDegrees>
            </Position>
            <AltitudeMeters>387.399993896484375</AltitudeMeters>
            <DistanceMeters>NAN</DistanceMeters>
          </Trackpoint>
          <Trackpoint>
            <Time>2021-04-03T10:01:54.000Z</Time>
            <Position>
              <LatitudeDegrees>42.2954245470464229583740234375</LatitudeDegrees>
              <LongitudeDegrees>2.54759489558637142181396484375</LongitudeDegrees>
            </Position>
            <AltitudeMeters>387</AltitudeMeters>
            <DistanceMeters>NAN</DistanceMeters>
          </Trackpoint>
          <Trackpoint>
            <Time>2021-04-03T10:01:57.000Z</Time>
            <Position>
              <LatitudeDegrees>42.29544944129884243011474609375</LatitudeDegrees>
              <LongitudeDegrees>2.54755130968987941741943359375</LongitudeDegrees>
            </Position>
            <AltitudeMeters>386.20001220703125</AltitudeMeters>
            <DistanceMeters>NAN</DistanceMeters>
          </Trackpoint>
          <Trackpoint>
            <Time>2021-04-03T10:01:59.000Z</Time>
            <Position>
              <LatitudeDegrees>42.29547701776027679443359375</LatitudeDegrees>
              <LongitudeDegrees>2.54753320477902889251708984375</LongitudeDegrees>
            </Position>
            <AltitudeMeters>386</AltitudeMeters>
            <DistanceMeters>NAN</DistanceMeters>
          </Trackpoint>
          <Trackpoint>
            <Time>2021-04-03T10:02:01.000Z</Time>
            <Position>
              <LatitudeDegrees>42.2955033369362354278564453125</LatitudeDegrees>
              <LongitudeDegrees>2.54751007072627544403076171875</LongitudeDegrees>
            </Position>
            <AltitudeMeters>385.600006103515625</AltitudeMeters>
            <DistanceMeters>NAN</DistanceMeters>
          </Trackpoint>
          <Trackpoint>
            <Time>2021-04-03T10:02:02.000Z</Time>
            <Position>
              <LatitudeDegrees>42.2955167479813098907470703125</LatitudeDegrees>
              <LongitudeDegrees>2.5474965758621692657470703125</LongitudeDegrees>
            </Position>
            <AltitudeMeters>385.399993896484375</AltitudeMeters>
            <DistanceMeters>NAN</DistanceMeters>
          </Trackpoint>
          <Trackpoint>
            <Time>2021-04-03T10:02:09.000Z</Time>
            <Position>
              <LatitudeDegrees>42.29558221064507961273193359375</LatitudeDegrees>
              <LongitudeDegrees>2.54739892669022083282470703125</LongitudeDegrees>
            </Position>
            <AltitudeMeters>385.20001220703125</AltitudeMeters>
            <DistanceMeters>NAN</DistanceMeters>
          </Trackpoint>
          <Trackpoint>
            <Time>2021-04-03T10:02:10.000Z</Time>
            <Position>
              <LatitudeDegrees>42.2955804504454135894775390625</LatitudeDegrees>
              <LongitudeDegrees>2.54738040268421173095703125</LongitudeDegrees>
            </Position>
            <AltitudeMeters>385.20001220703125</AltitudeMeters>
            <DistanceMeters>NAN</DistanceMeters>
          </Trackpoint>
          <Trackpoint>
            <Time>2021-04-03T10:02:12.000Z</Time>
            <Position>
              <LatitudeDegrees>42.29557852260768413543701171875</LatitudeDegrees>
              <LongitudeDegrees>2.54735358059406280517578125</LongitudeDegrees>
            </Position>
            <AltitudeMeters>385.20001220703125</AltitudeMeters>
            <DistanceMeters>NAN</DistanceMeters>
          </Trackpoint>
          <Trackpoint>
            <Time>2021-04-03T10:02:14.000Z</Time>
            <Position>
              <LatitudeDegrees>42.29559109546244144439697265625</LatitudeDegrees>
              <LongitudeDegrees>2.54732541739940643310546875</LongitudeDegrees>
            </Position>
            <AltitudeMeters>385.20001220703125</AltitudeMeters>
            <DistanceMeters>NAN</DistanceMeters>
          </Trackpoint>
          <Trackpoint>
            <Time>2021-04-03T10:02:15.000Z</Time>
            <Position>
              <LatitudeDegrees>42.29559838771820068359375</LatitudeDegrees>
              <LongitudeDegrees>2.5473131798207759857177734375</LongitudeDegrees>
            </Position>
            <AltitudeMeters>385.20001220703125</AltitudeMeters>
            <DistanceMeters>NAN</DistanceMeters>
          </Trackpoint>
          <Trackpoint>
            <Time>2021-04-03T10:02:16.000Z</Time>
            <Position>
              <LatitudeDegrees>42.2956072725355625152587890625</LatitudeDegrees>
              <LongitudeDegrees>2.547305636107921600341796875</LongitudeDegrees>
            </Position>
            <AltitudeMeters>385.20001220703125</AltitudeMeters>
            <DistanceMeters>NAN</DistanceMeters>
          </Trackpoint>
          <Trackpoint>
            <Time>2021-04-03T10:02:23.000Z</Time>
            <Position>
              <LatitudeDegrees>42.2956773452460765838623046875</LatitudeDegrees>
              <LongitudeDegrees>2.54722508601844310760498046875</LongitudeDegrees>
            </Position>
            <AltitudeMeters>385.20001220703125</AltitudeMeters>
            <DistanceMeters>NAN</DistanceMeters>
          </Trackpoint>
          <Trackpoint>
            <Time>2021-04-03T10:02:27.000Z</Time>
            <Position>
              <LatitudeDegrees>42.29569989256560802459716796875</LatitudeDegrees>
              <LongitudeDegrees>2.5471499003469944000244140625</LongitudeDegrees>
            </Position>
            <AltitudeMeters>385.20001220703125</AltitudeMeters>
            <DistanceMeters>NAN</DistanceMeters>
          </Trackpoint>
          <Trackpoint>
            <Time>2021-04-03T10:02:29.000Z</Time>
            <Position>
              <LatitudeDegrees>42.2957212664186954498291015625</LatitudeDegrees>
              <LongitudeDegrees>2.54712349735200405120849609375</LongitudeDegrees>
            </Position>
            <AltitudeMeters>385.399993896484375</AltitudeMeters>
            <DistanceMeters>NAN</DistanceMeters>
          </Trackpoint>
          <Trackpoint>
            <Time>2021-04-03T10:02:35.000Z</Time>
            <Position>
              <LatitudeDegrees>42.29575839824974536895751953125</LatitudeDegrees>
              <LongitudeDegrees>2.54705124534666538238525390625</LongitudeDegrees>
            </Position>
            <AltitudeMeters>385.399993896484375</AltitudeMeters>
            <DistanceMeters>NAN</DistanceMeters>
          </Trackpoint>
          <Trackpoint>
            <Time>2021-04-03T10:02:36.000Z</Time>
            <Position>
              <LatitudeDegrees>42.295764349400997161865234375</LatitudeDegrees>
              <LongitudeDegrees>2.54704135470092296600341796875</LongitudeDegrees>
            </Position>
            <AltitudeMeters>385.399993896484375</AltitudeMeters>
            <DistanceMeters>NAN</DistanceMeters>
          </Trackpoint>
          <Trackpoint>
            <Time>2021-04-03T10:02:38.000Z</Time>
            <Position>
              <LatitudeDegrees>42.29577315039932727813720703125</LatitudeDegrees>
              <LongitudeDegrees>2.5470151193439960479736328125</LongitudeDegrees>
            </Position>
            <AltitudeMeters>385.399993896484375</AltitudeMeters>
            <DistanceMeters>NAN</DistanceMeters>
          </Trackpoint>
          <Trackpoint>
            <Time>2021-04-03T10:02:40.000Z</Time>
            <Position>
              <LatitudeDegrees>42.29578572325408458709716796875</LatitudeDegrees>
              <LongitudeDegrees>2.54699173383414745330810546875</LongitudeDegrees>
            </Position>
            <AltitudeMeters>385.399993896484375</AltitudeMeters>
            <DistanceMeters>NAN</DistanceMeters>
          </Trackpoint>
          <Trackpoint>
            <Time>2021-04-03T10:02:42.000Z</Time>
            <Position>
              <LatitudeDegrees>42.295816652476787567138671875</LatitudeDegrees>
              <LongitudeDegrees>2.54695703275501728057861328125</LongitudeDegrees>
            </Position>
            <AltitudeMeters>385.399993896484375</AltitudeMeters>
            <DistanceMeters>NAN</DistanceMeters>
          </Trackpoint>
          <Trackpoint>
            <Time>2021-04-03T10:02:43.000Z</Time>
            <Position>
              <LatitudeDegrees>42.29582277126610279083251953125</LatitudeDegrees>
              <LongitudeDegrees>2.54693188704550266265869140625</LongitudeDegrees>
            </Position>
            <AltitudeMeters>385.399993896484375</AltitudeMeters>
            <DistanceMeters>NAN</DistanceMeters>
          </Trackpoint>
          <Trackpoint>
            <Time>2021-04-03T10:02:44.000Z</Time>
            <Position>
              <LatitudeDegrees>42.29582880623638629913330078125</LatitudeDegrees>
              <LongitudeDegrees>2.5469116866588592529296875</LongitudeDegrees>
            </Position>
            <AltitudeMeters>385.399993896484375</AltitudeMeters>
            <DistanceMeters>NAN</DistanceMeters>
          </Trackpoint>
          <Trackpoint>
            <Time>2021-04-03T10:02:45.000Z</Time>
            <Position>
              <LatitudeDegrees>42.2958433069288730621337890625</LatitudeDegrees>
              <LongitudeDegrees>2.546898610889911651611328125</LongitudeDegrees>
            </Position>
            <AltitudeMeters>385.399993896484375</AltitudeMeters>
            <DistanceMeters>NAN</DistanceMeters>
          </Trackpoint>
          <Trackpoint>
            <Time>2021-04-03T10:02:50.000Z</Time>
            <Position>
              <LatitudeDegrees>42.29589368216693401336669921875</LatitudeDegrees>
              <LongitudeDegrees>2.54684739746153354644775390625</LongitudeDegrees>
            </Position>
            <AltitudeMeters>385</AltitudeMeters>
            <DistanceMeters>NAN</DistanceMeters>
          </Trackpoint>
          <Trackpoint>
            <Time>2021-04-03T10:02:52.000Z</Time>
            <Position>
              <LatitudeDegrees>42.29592134244740009307861328125</LatitudeDegrees>
              <LongitudeDegrees>2.546836920082569122314453125</LongitudeDegrees>
            </Position>
            <AltitudeMeters>384.20001220703125</AltitudeMeters>
            <DistanceMeters>NAN</DistanceMeters>
          </Trackpoint>
          <Trackpoint>
            <Time>2021-04-03T10:02:55.000Z</Time>
            <Position>
              <LatitudeDegrees>42.29592804796993732452392578125</LatitudeDegrees>
              <LongitudeDegrees>2.5468189828097820281982421875</LongitudeDegrees>
            </Position>
            <AltitudeMeters>383.600006103515625</AltitudeMeters>
            <DistanceMeters>NAN</DistanceMeters>
          </Trackpoint>
          <Trackpoint>
            <Time>2021-04-03T10:02:56.000Z</Time>
            <Position>
              <LatitudeDegrees>42.29593492113053798675537109375</LatitudeDegrees>
              <LongitudeDegrees>2.54681269638240337371826171875</LongitudeDegrees>
            </Position>
            <AltitudeMeters>383.600006103515625</AltitudeMeters>
            <DistanceMeters>NAN</DistanceMeters>
          </Trackpoint>
          <Trackpoint>
            <Time>2021-04-03T10:03:03.000Z</Time>
            <Position>
              <LatitudeDegrees>42.29601672850549221038818359375</LatitudeDegrees>
              <LongitudeDegrees>2.54673809744417667388916015625</LongitudeDegrees>
            </Position>
            <AltitudeMeters>383.399993896484375</AltitudeMeters>
            <DistanceMeters>NAN</DistanceMeters>
          </Trackpoint>
          <Trackpoint>
            <Time>2021-04-03T10:03:08.000Z</Time>
            <Position>
              <LatitudeDegrees>42.2960454784333705902099609375</LatitudeDegrees>
              <LongitudeDegrees>2.54663164727389812469482421875</LongitudeDegrees>
            </Position>
            <AltitudeMeters>383.399993896484375</AltitudeMeters>
            <DistanceMeters>NAN</DistanceMeters>
          </Trackpoint>
          <Trackpoint>
            <Time>2021-04-03T10:03:09.000Z</Time>
            <Position>
              <LatitudeDegrees>42.29605562053620815277099609375</LatitudeDegrees>
              <LongitudeDegrees>2.5466168113052845001220703125</LongitudeDegrees>
            </Position>
            <AltitudeMeters>383.399993896484375</AltitudeMeters>
            <DistanceMeters>NAN</DistanceMeters>
          </Trackpoint>
          <Trackpoint>
            <Time>2021-04-03T10:03:10.000Z</Time>
            <Position>
              <LatitudeDegrees>42.29606316424906253814697265625</LatitudeDegrees>
              <LongitudeDegrees>2.5466054119169712066650390625</LongitudeDegrees>
            </Position>
            <AltitudeMeters>383.399993896484375</AltitudeMeters>
            <DistanceMeters>NAN</DistanceMeters>
          </Trackpoint>
          <Trackpoint>
            <Time>2021-04-03T10:03:18.000Z</Time>
            <Position>
              <LatitudeDegrees>42.29609526693820953369140625</LatitudeDegrees>
              <LongitudeDegrees>2.54649988375604152679443359375</LongitudeDegrees>
            </Position>
            <AltitudeMeters>383.600006103515625</AltitudeMeters>
            <DistanceMeters>NAN</DistanceMeters>
          </Trackpoint>
          <Trackpoint>
            <Time>2021-04-03T10:03:25.000Z</Time>
            <Position>
              <LatitudeDegrees>42.2961725480854511260986328125</LatitudeDegrees>
              <LongitudeDegrees>2.54639041610062122344970703125</LongitudeDegrees>
            </Position>
            <AltitudeMeters>383.79998779296875</AltitudeMeters>
            <DistanceMeters>NAN</DistanceMeters>
          </Trackpoint>
          <Trackpoint>
            <Time>2021-04-03T10:03:26.000Z</Time>
            <Position>
              <LatitudeDegrees>42.2961859591305255889892578125</LatitudeDegrees>
              <LongitudeDegrees>2.5463804416358470916748046875</LongitudeDegrees>
            </Position>
            <AltitudeMeters>383.79998779296875</AltitudeMeters>
            <DistanceMeters>NAN</DistanceMeters>
          </Trackpoint>
          <Trackpoint>
            <Time>2021-04-03T10:03:31.000Z</Time>
            <Position>
              <LatitudeDegrees>42.296225018799304962158203125</LatitudeDegrees>
              <LongitudeDegrees>2.54632218740880489349365234375</LongitudeDegrees>
            </Position>
            <AltitudeMeters>384</AltitudeMeters>
            <DistanceMeters>NAN</DistanceMeters>
          </Trackpoint>
          <Trackpoint>
            <Time>2021-04-03T10:03:32.000Z</Time>
            <Position>
              <LatitudeDegrees>42.29622845537960529327392578125</LatitudeDegrees>
              <LongitudeDegrees>2.54630894400179386138916015625</LongitudeDegrees>
            </Position>
            <AltitudeMeters>384</AltitudeMeters>
            <DistanceMeters>NAN</DistanceMeters>
          </Trackpoint>
          <Trackpoint>
            <Time>2021-04-03T10:03:33.000Z</Time>
            <Position>
              <LatitudeDegrees>42.29623449034988880157470703125</LatitudeDegrees>
              <LongitudeDegrees>2.54629804752767086029052734375</LongitudeDegrees>
            </Position>
            <AltitudeMeters>384.20001220703125</AltitudeMeters>
            <DistanceMeters>NAN</DistanceMeters>
          </Trackpoint>
          <Trackpoint>
            <Time>2021-04-03T10:03:37.000Z</Time>
            <Position>
              <LatitudeDegrees>42.29626148007810115814208984375</LatitudeDegrees>
              <LongitudeDegrees>2.54624557681381702423095703125</LongitudeDegrees>
            </Position>
            <AltitudeMeters>384.20001220703125</AltitudeMeters>
            <DistanceMeters>NAN</DistanceMeters>
          </Trackpoint>
          <Trackpoint>
            <Time>2021-04-03T10:03:39.000Z</Time>
            <Position>
              <LatitudeDegrees>42.2962778247892856597900390625</LatitudeDegrees>
              <LongitudeDegrees>2.5462262146174907684326171875</LongitudeDegrees>
            </Position>
            <AltitudeMeters>384.20001220703125</AltitudeMeters>
            <DistanceMeters>NAN</DistanceMeters>
          </Trackpoint>
          <Trackpoint>
            <Time>2021-04-03T10:03:46.000Z</Time>
            <Position>
              <LatitudeDegrees>42.29631495662033557891845703125</LatitudeDegrees>
              <LongitudeDegrees>2.5461494363844394683837890625</LongitudeDegrees>
            </Position>
            <AltitudeMeters>384.20001220703125</AltitudeMeters>
            <DistanceMeters>NAN</DistanceMeters>
          </Trackpoint>
          <Trackpoint>
            <Time>2021-04-03T10:03:48.000Z</Time>
            <Position>
              <LatitudeDegrees>42.2963440418243408203125</LatitudeDegrees>
              <LongitudeDegrees>2.54612068645656108856201171875</LongitudeDegrees>
            </Position>
            <AltitudeMeters>384.20001220703125</AltitudeMeters>
            <DistanceMeters>NAN</DistanceMeters>
          </Trackpoint>
          <Trackpoint>
            <Time>2021-04-03T10:03:49.000Z</Time>
            <Position>
              <LatitudeDegrees>42.29634932242333889007568359375</LatitudeDegrees>
              <LongitudeDegrees>2.5461071915924549102783203125</LongitudeDegrees>
            </Position>
            <AltitudeMeters>384.20001220703125</AltitudeMeters>
            <DistanceMeters>NAN</DistanceMeters>
          </Trackpoint>
          <Trackpoint>
            <Time>2021-04-03T10:03:50.000Z</Time>
            <Position>
              <LatitudeDegrees>42.296354770660400390625</LatitudeDegrees>
              <LongitudeDegrees>2.5460971333086490631103515625</LongitudeDegrees>
            </Position>
            <AltitudeMeters>384.20001220703125</AltitudeMeters>
            <DistanceMeters>NAN</DistanceMeters>
          </Trackpoint>
          <Trackpoint>
            <Time>2021-04-03T10:03:56.000Z</Time>
            <Position>
              <LatitudeDegrees>42.29640698991715908050537109375</LatitudeDegrees>
              <LongitudeDegrees>2.54601272754371166229248046875</LongitudeDegrees>
            </Position>
            <AltitudeMeters>384.20001220703125</AltitudeMeters>
            <DistanceMeters>NAN</DistanceMeters>
          </Trackpoint>
          <Trackpoint>
            <Time>2021-04-03T10:04:01.000Z</Time>
            <Position>
              <LatitudeDegrees>42.2964444570243358612060546875</LatitudeDegrees>
              <LongitudeDegrees>2.54593041725456714630126953125</LongitudeDegrees>
            </Position>
            <AltitudeMeters>384.399993896484375</AltitudeMeters>
            <DistanceMeters>NAN</DistanceMeters>
          </Trackpoint>
          <Trackpoint>
            <Time>2021-04-03T10:04:06.000Z</Time>
            <Position>
              <LatitudeDegrees>42.29646985419094562530517578125</LatitudeDegrees>
              <LongitudeDegrees>2.54587031900882720947265625</LongitudeDegrees>
            </Position>
            <AltitudeMeters>384.399993896484375</AltitudeMeters>
            <DistanceMeters>NAN</DistanceMeters>
          </Trackpoint>
          <Trackpoint>
            <Time>2021-04-03T10:04:07.000Z</Time>
            <Position>
              <LatitudeDegrees>42.29647873900830745697021484375</LatitudeDegrees>
              <LongitudeDegrees>2.54586160182952880859375</LongitudeDegrees>
            </Position>
            <AltitudeMeters>384.399993896484375</AltitudeMeters>
            <DistanceMeters>NAN</DistanceMeters>
          </Trackpoint>
          <Trackpoint>
            <Time>2021-04-03T10:04:13.000Z</Time>
            <Position>
              <LatitudeDegrees>42.296539843082427978515625</LatitudeDegrees>
              <LongitudeDegrees>2.545805610716342926025390625</LongitudeDegrees>
            </Position>
            <AltitudeMeters>384.79998779296875</AltitudeMeters>
            <DistanceMeters>NAN</DistanceMeters>
          </Trackpoint>
          <Trackpoint>
            <Time>2021-04-03T10:04:17.000Z</Time>
            <Position>
              <LatitudeDegrees>42.296553589403629302978515625</LatitudeDegrees>
              <LongitudeDegrees>2.54574903286993503570556640625</LongitudeDegrees>
            </Position>
            <AltitudeMeters>385.20001220703125</AltitudeMeters>
            <DistanceMeters>NAN</DistanceMeters>
          </Trackpoint>
          <Trackpoint>
            <Time>2021-04-03T10:04:20.000Z</Time>
            <Position>
              <LatitudeDegrees>42.29656557552516460418701171875</LatitudeDegrees>
              <LongitudeDegrees>2.54570561461150646209716796875</LongitudeDegrees>
            </Position>
            <AltitudeMeters>385.600006103515625</AltitudeMeters>
            <DistanceMeters>NAN</DistanceMeters>
          </Trackpoint>
          <Trackpoint>
            <Time>2021-04-03T10:04:23.000Z</Time>
            <Position>
              <LatitudeDegrees>42.29658435098826885223388671875</LatitudeDegrees>
              <LongitudeDegrees>2.54567854106426239013671875</LongitudeDegrees>
            </Position>
            <AltitudeMeters>386.20001220703125</AltitudeMeters>
            <DistanceMeters>NAN</DistanceMeters>
          </Trackpoint>
          <Trackpoint>
            <Time>2021-04-03T10:04:25.000Z</Time>
            <Position>
              <LatitudeDegrees>42.29659256525337696075439453125</LatitudeDegrees>
              <LongitudeDegrees>2.545657418668270111083984375</LongitudeDegrees>
            </Position>
            <AltitudeMeters>386.399993896484375</AltitudeMeters>
            <DistanceMeters>NAN</DistanceMeters>
          </Trackpoint>
          <Trackpoint>
            <Time>2021-04-03T10:04:26.000Z</Time>
            <Position>
              <LatitudeDegrees>42.2965946607291698455810546875</LatitudeDegrees>
              <LongitudeDegrees>2.5456475280225276947021484375</LongitudeDegrees>
            </Position>
            <AltitudeMeters>386.399993896484375</AltitudeMeters>
            <DistanceMeters>NAN</DistanceMeters>
          </Trackpoint>
          <Trackpoint>
            <Time>2021-04-03T10:04:29.000Z</Time>
            <Position>
              <LatitudeDegrees>42.29660798795521259307861328125</LatitudeDegrees>
              <LongitudeDegrees>2.5456143356859683990478515625</LongitudeDegrees>
            </Position>
            <AltitudeMeters>386.399993896484375</AltitudeMeters>
            <DistanceMeters>NAN</DistanceMeters>
          </Trackpoint>
          <Trackpoint>
            <Time>2021-04-03T10:04:31.000Z</Time>
            <Position>
              <LatitudeDegrees>42.29661804623901844024658203125</LatitudeDegrees>
              <LongitudeDegrees>2.54558776505291461944580078125</LongitudeDegrees>
            </Position>
            <AltitudeMeters>386.399993896484375</AltitudeMeters>
            <DistanceMeters>NAN</DistanceMeters>
          </Trackpoint>
          <Trackpoint>
            <Time>2021-04-03T10:04:37.000Z</Time>
            <Position>
              <LatitudeDegrees>42.2966261766850948333740234375</LatitudeDegrees>
              <LongitudeDegrees>2.54550545476377010345458984375</LongitudeDegrees>
            </Position>
            <AltitudeMeters>386.600006103515625</AltitudeMeters>
            <DistanceMeters>NAN</DistanceMeters>
          </Trackpoint>
          <Trackpoint>
            <Time>2021-04-03T10:04:38.000Z</Time>
            <Position>
              <LatitudeDegrees>42.2966270148754119873046875</LatitudeDegrees>
              <LongitudeDegrees>2.5454889424145221710205078125</LongitudeDegrees>
            </Position>
            <AltitudeMeters>386.600006103515625</AltitudeMeters>
            <DistanceMeters>NAN</DistanceMeters>
          </Trackpoint>
          <Trackpoint>
            <Time>2021-04-03T10:04:45.000Z</Time>
            <Position>
              <LatitudeDegrees>42.2966296970844268798828125</LatitudeDegrees>
              <LongitudeDegrees>2.5454171933233737945556640625</LongitudeDegrees>
            </Position>
            <AltitudeMeters>387</AltitudeMeters>
            <DistanceMeters>NAN</DistanceMeters>
          </Trackpoint>
          <Trackpoint>
            <Time>2021-04-03T10:04:46.000Z</Time>
            <Position>
              <LatitudeDegrees>42.296634055674076080322265625</LatitudeDegrees>
              <LongitudeDegrees>2.54541140981018543243408203125</LongitudeDegrees>
            </Position>
            <AltitudeMeters>387.20001220703125</AltitudeMeters>
            <DistanceMeters>NAN</DistanceMeters>
          </Trackpoint>
          <Trackpoint>
            <Time>2021-04-03T10:04:50.000Z</Time>
            <Position>
              <LatitudeDegrees>42.2966027073562145233154296875</LatitudeDegrees>
              <LongitudeDegrees>2.5453558377921581268310546875</LongitudeDegrees>
            </Position>
            <AltitudeMeters>387.20001220703125</AltitudeMeters>
            <DistanceMeters>NAN</DistanceMeters>
          </Trackpoint>
          <Trackpoint>
            <Time>2021-04-03T10:04:51.000Z</Time>
            <Position>
              <LatitudeDegrees>42.296604216098785400390625</LatitudeDegrees>
              <LongitudeDegrees>2.54534200765192508697509765625</LongitudeDegrees>
            </Position>
            <AltitudeMeters>387.399993896484375</AltitudeMeters>
            <DistanceMeters>NAN</DistanceMeters>
          </Trackpoint>
          <Trackpoint>
            <Time>2021-04-03T10:04:55.000Z</Time>
            <Position>
              <LatitudeDegrees>42.2966251708567142486572265625</LatitudeDegrees>
              <LongitudeDegrees>2.545287609100341796875</LongitudeDegrees>
            </Position>
            <AltitudeMeters>387.600006103515625</AltitudeMeters>
            <DistanceMeters>NAN</DistanceMeters>
          </Trackpoint>
          <Trackpoint>
            <Time>2021-04-03T10:04:57.000Z</Time>
            <Position>
              <LatitudeDegrees>42.2966295294463634490966796875</LatitudeDegrees>
              <LongitudeDegrees>2.5452545844018459320068359375</LongitudeDegrees>
            </Position>
            <AltitudeMeters>387.79998779296875</AltitudeMeters>
            <DistanceMeters>NAN</DistanceMeters>
          </Trackpoint>
          <Trackpoint>
            <Time>2021-04-03T10:05:00.000Z</Time>
            <Position>
              <LatitudeDegrees>42.2966659069061279296875</LatitudeDegrees>
              <LongitudeDegrees>2.545210830867290496826171875</LongitudeDegrees>
            </Position>
            <AltitudeMeters>388</AltitudeMeters>
            <DistanceMeters>NAN</DistanceMeters>
          </Trackpoint>
          <Trackpoint>
            <Time>2021-04-03T10:05:04.000Z</Time>
            <Position>
              <LatitudeDegrees>42.2967076487839221954345703125</LatitudeDegrees>
              <LongitudeDegrees>2.54516112618148326873779296875</LongitudeDegrees>
            </Position>
            <AltitudeMeters>388.399993896484375</AltitudeMeters>
            <DistanceMeters>NAN</DistanceMeters>
          </Trackpoint>
          <Trackpoint>
            <Time>2021-04-03T10:05:05.000Z</Time>
            <Position>
              <LatitudeDegrees>42.2967106662690639495849609375</LatitudeDegrees>
              <LongitudeDegrees>2.54513866268098354339599609375</LongitudeDegrees>
            </Position>
            <AltitudeMeters>388.399993896484375</AltitudeMeters>
            <DistanceMeters>NAN</DistanceMeters>
          </Trackpoint>
          <Trackpoint>
            <Time>2021-04-03T10:05:09.000Z</Time>
            <Position>
              <LatitudeDegrees>42.2967415116727352142333984375</LatitudeDegrees>
              <LongitudeDegrees>2.5450664944946765899658203125</LongitudeDegrees>
            </Position>
            <AltitudeMeters>389</AltitudeMeters>
            <DistanceMeters>NAN</DistanceMeters>
          </Trackpoint>
          <Trackpoint>
            <Time>2021-04-03T10:05:13.000Z</Time>
            <Position>
              <LatitudeDegrees>42.2967820800840854644775390625</LatitudeDegrees>
              <LongitudeDegrees>2.54498921334743499755859375</LongitudeDegrees>
            </Position>
            <AltitudeMeters>389.399993896484375</AltitudeMeters>
            <DistanceMeters>NAN</DistanceMeters>
          </Trackpoint>
          <Trackpoint>
            <Time>2021-04-03T10:05:14.000Z</Time>
            <Position>
              <LatitudeDegrees>42.29679356329143047332763671875</LatitudeDegrees>
              <LongitudeDegrees>2.54497404210269451141357421875</LongitudeDegrees>
            </Position>
            <AltitudeMeters>389.399993896484375</AltitudeMeters>
            <DistanceMeters>NAN</DistanceMeters>
          </Trackpoint>
          <Trackpoint>
            <Time>2021-04-03T10:05:22.000Z</Time>
            <Position>
              <LatitudeDegrees>42.2969161905348300933837890625</LatitudeDegrees>
              <LongitudeDegrees>2.54482115618884563446044921875</LongitudeDegrees>
            </Position>
            <AltitudeMeters>390</AltitudeMeters>
            <DistanceMeters>NAN</DistanceMeters>
          </Trackpoint>
          <Trackpoint>
            <Time>2021-04-03T10:05:28.000Z</Time>
            <Position>
              <LatitudeDegrees>42.297021634876728057861328125</LatitudeDegrees>
              <LongitudeDegrees>2.5447573699057102203369140625</LongitudeDegrees>
            </Position>
            <AltitudeMeters>390.399993896484375</AltitudeMeters>
            <DistanceMeters>NAN</DistanceMeters>
          </Trackpoint>
          <Trackpoint>
            <Time>2021-04-03T10:05:29.000Z</Time>
            <Position>
              <LatitudeDegrees>42.297037057578563690185546875</LatitudeDegrees>
              <LongitudeDegrees>2.544742114841938018798828125</LongitudeDegrees>
            </Position>
            <AltitudeMeters>390.399993896484375</AltitudeMeters>
            <DistanceMeters>NAN</DistanceMeters>
          </Trackpoint>
          <Trackpoint>
            <Time>2021-04-03T10:05:32.000Z</Time>
            <Position>
              <LatitudeDegrees>42.2970808111131191253662109375</LatitudeDegrees>
              <LongitudeDegrees>2.54471437074244022369384765625</LongitudeDegrees>
            </Position>
            <AltitudeMeters>390.600006103515625</AltitudeMeters>
            <DistanceMeters>NAN</DistanceMeters>
          </Trackpoint>
          <Trackpoint>
            <Time>2021-04-03T10:05:39.000Z</Time>
            <Position>
              <LatitudeDegrees>42.29717292822897434234619140625</LatitudeDegrees>
              <LongitudeDegrees>2.5447168014943599700927734375</LongitudeDegrees>
            </Position>
            <AltitudeMeters>391</AltitudeMeters>
            <DistanceMeters>NAN</DistanceMeters>
          </Trackpoint>
          <Trackpoint>
            <Time>2021-04-03T10:05:44.000Z</Time>
            <Position>
              <LatitudeDegrees>42.2972283326089382171630859375</LatitudeDegrees>
              <LongitudeDegrees>2.5446581281721591949462890625</LongitudeDegrees>
            </Position>
            <AltitudeMeters>391.20001220703125</AltitudeMeters>
            <DistanceMeters>NAN</DistanceMeters>
          </Trackpoint>
          <Trackpoint>
            <Time>2021-04-03T10:05:49.000Z</Time>
            <Position>
              <LatitudeDegrees>42.29725272394716739654541015625</LatitudeDegrees>
              <LongitudeDegrees>2.544600628316402435302734375</LongitudeDegrees>
            </Position>
            <AltitudeMeters>391.399993896484375</AltitudeMeters>
            <DistanceMeters>NAN</DistanceMeters>
          </Trackpoint>
          <Trackpoint>
            <Time>2021-04-03T10:05:53.000Z</Time>
            <Position>
              <LatitudeDegrees>42.297290861606597900390625</LatitudeDegrees>
              <LongitudeDegrees>2.54458026029169559478759765625</LongitudeDegrees>
            </Position>
            <AltitudeMeters>391.399993896484375</AltitudeMeters>
            <DistanceMeters>NAN</DistanceMeters>
          </Trackpoint>
          <Trackpoint>
            <Time>2021-04-03T10:05:55.000Z</Time>
            <Position>
              <LatitudeDegrees>42.29729983024299144744873046875</LatitudeDegrees>
              <LongitudeDegrees>2.54455897025763988494873046875</LongitudeDegrees>
            </Position>
            <AltitudeMeters>391.399993896484375</AltitudeMeters>
            <DistanceMeters>NAN</DistanceMeters>
          </Trackpoint>
          <Trackpoint>
            <Time>2021-04-03T10:06:02.000Z</Time>
            <Position>
              <LatitudeDegrees>42.29731659404933452606201171875</LatitudeDegrees>
              <LongitudeDegrees>2.54451152868568897247314453125</LongitudeDegrees>
            </Position>
            <AltitudeMeters>391.600006103515625</AltitudeMeters>
            <DistanceMeters>NAN</DistanceMeters>
          </Trackpoint>
          <Trackpoint>
            <Time>2021-04-03T10:06:06.000Z</Time>
            <Position>
              <LatitudeDegrees>42.29730301536619663238525390625</LatitudeDegrees>
              <LongitudeDegrees>2.544458471238613128662109375</LongitudeDegrees>
            </Position>
            <AltitudeMeters>391.600006103515625</AltitudeMeters>
            <DistanceMeters>NAN</DistanceMeters>
          </Trackpoint>
          <Trackpoint>
            <Time>2021-04-03T10:06:08.000Z</Time>
            <Position>
              <LatitudeDegrees>42.29729983024299144744873046875</LatitudeDegrees>
              <LongitudeDegrees>2.5444331578910350799560546875</LongitudeDegrees>
            </Position>
            <AltitudeMeters>391.600006103515625</AltitudeMeters>
            <DistanceMeters>NAN</DistanceMeters>
          </Trackpoint>
          <Trackpoint>
            <Time>2021-04-03T10:06:09.000Z</Time>
            <Position>
              <LatitudeDegrees>42.29730871506035327911376953125</LatitudeDegrees>
              <LongitudeDegrees>2.5444190762937068939208984375</LongitudeDegrees>
            </Position>
            <AltitudeMeters>391.600006103515625</AltitudeMeters>
            <DistanceMeters>NAN</DistanceMeters>
          </Trackpoint>
          <Trackpoint>
            <Time>2021-04-03T10:06:14.000Z</Time>
            <Position>
              <LatitudeDegrees>42.29729211889207363128662109375</LatitudeDegrees>
              <LongitudeDegrees>2.54435193724930286407470703125</LongitudeDegrees>
            </Position>
            <AltitudeMeters>391.600006103515625</AltitudeMeters>
            <DistanceMeters>NAN</DistanceMeters>
          </Trackpoint>
          <Trackpoint>
            <Time>2021-04-03T10:06:16.000Z</Time>
            <Position>
              <LatitudeDegrees>42.29728859849274158477783203125</LatitudeDegrees>
              <LongitudeDegrees>2.54432712681591510772705078125</LongitudeDegrees>
            </Position>
            <AltitudeMeters>391.600006103515625</AltitudeMeters>
            <DistanceMeters>NAN</DistanceMeters>
          </Trackpoint>
          <Trackpoint>
            <Time>2021-04-03T10:06:24.000Z</Time>
            <Position>
              <LatitudeDegrees>42.29727351106703281402587890625</LatitudeDegrees>
              <LongitudeDegrees>2.5442402064800262451171875</LongitudeDegrees>
            </Position>
            <AltitudeMeters>391.79998779296875</AltitudeMeters>
            <DistanceMeters>NAN</DistanceMeters>
          </Trackpoint>
          <Trackpoint>
            <Time>2021-04-03T10:06:25.000Z</Time>
            <Position>
              <LatitudeDegrees>42.29727451689541339874267578125</LatitudeDegrees>
              <LongitudeDegrees>2.54423308186233043670654296875</LongitudeDegrees>
            </Position>
            <AltitudeMeters>392</AltitudeMeters>
            <DistanceMeters>NAN</DistanceMeters>
          </Trackpoint>
          <Trackpoint>
            <Time>2021-04-03T10:06:32.000Z</Time>
            <Position>
              <LatitudeDegrees>42.2972514666616916656494140625</LatitudeDegrees>
              <LongitudeDegrees>2.54416577517986297607421875</LongitudeDegrees>
            </Position>
            <AltitudeMeters>392</AltitudeMeters>
            <DistanceMeters>NAN</DistanceMeters>
          </Trackpoint>
          <Trackpoint>
            <Time>2021-04-03T10:06:33.000Z</Time>
            <Position>
              <LatitudeDegrees>42.2972519695758819580078125</LatitudeDegrees>
              <LongitudeDegrees>2.54415714181959629058837890625</LongitudeDegrees>
            </Position>
            <AltitudeMeters>391.79998779296875</AltitudeMeters>
            <DistanceMeters>NAN</DistanceMeters>
          </Trackpoint>
          <Trackpoint>
            <Time>2021-04-03T10:06:39.000Z</Time>
            <Position>
              <LatitudeDegrees>42.29717745445668697357177734375</LatitudeDegrees>
              <LongitudeDegrees>2.54408656619489192962646484375</LongitudeDegrees>
            </Position>
            <AltitudeMeters>391.399993896484375</AltitudeMeters>
            <DistanceMeters>NAN</DistanceMeters>
          </Trackpoint>
          <Trackpoint>
            <Time>2021-04-03T10:06:40.000Z</Time>
            <Position>
              <LatitudeDegrees>42.29717728681862354278564453125</LatitudeDegrees>
              <LongitudeDegrees>2.5440744124352931976318359375</LongitudeDegrees>
            </Position>
            <AltitudeMeters>391.399993896484375</AltitudeMeters>
            <DistanceMeters>NAN</DistanceMeters>
          </Trackpoint>
          <Trackpoint>
            <Time>2021-04-03T10:06:44.000Z</Time>
            <Position>
              <LatitudeDegrees>42.297159768640995025634765625</LatitudeDegrees>
              <LongitudeDegrees>2.54402521066367626190185546875</LongitudeDegrees>
            </Position>
            <AltitudeMeters>391.20001220703125</AltitudeMeters>
            <DistanceMeters>NAN</DistanceMeters>
          </Trackpoint>
          <Trackpoint>
            <Time>2021-04-03T10:06:45.000Z</Time>
            <Position>
              <LatitudeDegrees>42.29715297929942607879638671875</LatitudeDegrees>
              <LongitudeDegrees>2.544015236198902130126953125</LongitudeDegrees>
            </Position>
            <AltitudeMeters>391.20001220703125</AltitudeMeters>
            <DistanceMeters>NAN</DistanceMeters>
          </Trackpoint>
          <Trackpoint>
            <Time>2021-04-03T10:06:49.000Z</Time>
            <Position>
              <LatitudeDegrees>42.2971294261515140533447265625</LatitudeDegrees>
              <LongitudeDegrees>2.5439478456974029541015625</LongitudeDegrees>
            </Position>
            <AltitudeMeters>390.79998779296875</AltitudeMeters>
            <DistanceMeters>NAN</DistanceMeters>
          </Trackpoint>
          <Trackpoint>
            <Time>2021-04-03T10:06:51.000Z</Time>
            <Position>
              <LatitudeDegrees>42.29714266955852508544921875</LatitudeDegrees>
              <LongitudeDegrees>2.54391171969473361968994140625</LongitudeDegrees>
            </Position>
            <AltitudeMeters>391</AltitudeMeters>
            <DistanceMeters>NAN</DistanceMeters>
          </Trackpoint>
          <Trackpoint>
            <Time>2021-04-03T10:06:53.000Z</Time>
            <Position>
              <LatitudeDegrees>42.29712263680994510650634765625</LatitudeDegrees>
              <LongitudeDegrees>2.5438685528934001922607421875</LongitudeDegrees>
            </Position>
            <AltitudeMeters>391.20001220703125</AltitudeMeters>
            <DistanceMeters>NAN</DistanceMeters>
          </Trackpoint>
          <Trackpoint>
            <Time>2021-04-03T10:06:54.000Z</Time>
            <Position>
              <LatitudeDegrees>42.2971232235431671142578125</LatitudeDegrees>
              <LongitudeDegrees>2.543849609792232513427734375</LongitudeDegrees>
            </Position>
            <AltitudeMeters>391.20001220703125</AltitudeMeters>
            <DistanceMeters>NAN</DistanceMeters>
          </Trackpoint>
          <Trackpoint>
            <Time>2021-04-03T10:06:56.000Z</Time>
            <Position>
              <LatitudeDegrees>42.29713805951178073883056640625</LatitudeDegrees>
              <LongitudeDegrees>2.54380426369607448577880859375</LongitudeDegrees>
            </Position>
            <AltitudeMeters>391.20001220703125</AltitudeMeters>
            <DistanceMeters>NAN</DistanceMeters>
          </Trackpoint>
          <Trackpoint>
            <Time>2021-04-03T10:06:57.000Z</Time>
            <Position>
              <LatitudeDegrees>42.2971418313682079315185546875</LatitudeDegrees>
              <LongitudeDegrees>2.5437857396900653839111328125</LongitudeDegrees>
            </Position>
            <AltitudeMeters>391.399993896484375</AltitudeMeters>
            <DistanceMeters>NAN</DistanceMeters>
          </Trackpoint>
          <Trackpoint>
            <Time>2021-04-03T10:07:00.000Z</Time>
            <Position>
              <LatitudeDegrees>42.29712364263832569122314453125</LatitudeDegrees>
              <LongitudeDegrees>2.543730922043323516845703125</LongitudeDegrees>
            </Position>
            <AltitudeMeters>391.600006103515625</AltitudeMeters>
            <DistanceMeters>NAN</DistanceMeters>
          </Trackpoint>
          <Trackpoint>
            <Time>2021-04-03T10:07:03.000Z</Time>
            <Position>
              <LatitudeDegrees>42.2971086390316486358642578125</LatitudeDegrees>
              <LongitudeDegrees>2.5436821393668651580810546875</LongitudeDegrees>
            </Position>
            <AltitudeMeters>391.600006103515625</AltitudeMeters>
            <DistanceMeters>NAN</DistanceMeters>
          </Trackpoint>
          <Trackpoint>
            <Time>2021-04-03T10:07:04.000Z</Time>
            <Position>
              <LatitudeDegrees>42.29710838757455348968505859375</LatitudeDegrees>
              <LongitudeDegrees>2.5436675548553466796875</LongitudeDegrees>
            </Position>
            <AltitudeMeters>391.600006103515625</AltitudeMeters>
            <DistanceMeters>NAN</DistanceMeters>
          </Trackpoint>
          <Trackpoint>
            <Time>2021-04-03T10:07:10.000Z</Time>
            <Position>
              <LatitudeDegrees>42.2970908693969249725341796875</LatitudeDegrees>
              <LongitudeDegrees>2.5435654632747173309326171875</LongitudeDegrees>
            </Position>
            <AltitudeMeters>391.399993896484375</AltitudeMeters>
            <DistanceMeters>NAN</DistanceMeters>
          </Trackpoint>
          <Trackpoint>
            <Time>2021-04-03T10:07:12.000Z</Time>
            <Position>
              <LatitudeDegrees>42.2971039451658725738525390625</LatitudeDegrees>
              <LongitudeDegrees>2.5435463525354862213134765625</LongitudeDegrees>
            </Position>
            <AltitudeMeters>391.20001220703125</AltitudeMeters>
            <DistanceMeters>NAN</DistanceMeters>
          </Trackpoint>
          <Trackpoint>
            <Time>2021-04-03T10:07:16.000Z</Time>
            <Position>
              <LatitudeDegrees>42.2970985807478427886962890625</LatitudeDegrees>
              <LongitudeDegrees>2.54347502253949642181396484375</LongitudeDegrees>
            </Position>
            <AltitudeMeters>391</AltitudeMeters>
            <DistanceMeters>NAN</DistanceMeters>
          </Trackpoint>
          <Trackpoint>
            <Time>2021-04-03T10:07:19.000Z</Time>
            <Position>
              <LatitudeDegrees>42.2970871813595294952392578125</LatitudeDegrees>
              <LongitudeDegrees>2.543420456349849700927734375</LongitudeDegrees>
            </Position>
            <AltitudeMeters>390.600006103515625</AltitudeMeters>
            <DistanceMeters>NAN</DistanceMeters>
          </Trackpoint>
          <Trackpoint>
            <Time>2021-04-03T10:07:20.000Z</Time>
            <Position>
              <LatitudeDegrees>42.2970804758369922637939453125</LatitudeDegrees>
              <LongitudeDegrees>2.54340536892414093017578125</LongitudeDegrees>
            </Position>
            <AltitudeMeters>390.399993896484375</AltitudeMeters>
            <DistanceMeters>NAN</DistanceMeters>
          </Trackpoint>
          <Trackpoint>
            <Time>2021-04-03T10:07:25.000Z</Time>
            <Position>
              <LatitudeDegrees>42.297054491937160491943359375</LatitudeDegrees>
              <LongitudeDegrees>2.54333705641329288482666015625</LongitudeDegrees>
            </Position>
            <AltitudeMeters>390</AltitudeMeters>
            <DistanceMeters>NAN</DistanceMeters>
          </Trackpoint>
          <Trackpoint>
            <Time>2021-04-03T10:07:27.000Z</Time>
            <Position>
              <LatitudeDegrees>42.2970546595752239227294921875</LatitudeDegrees>
              <LongitudeDegrees>2.54329766146838665008544921875</LongitudeDegrees>
            </Position>
            <AltitudeMeters>390</AltitudeMeters>
            <DistanceMeters>NAN</DistanceMeters>
          </Trackpoint>
          <Trackpoint>
            <Time>2021-04-03T10:07:30.000Z</Time>
            <Position>
              <LatitudeDegrees>42.29703395627439022064208984375</LatitudeDegrees>
              <LongitudeDegrees>2.54323110915720462799072265625</LongitudeDegrees>
            </Position>
            <AltitudeMeters>390</AltitudeMeters>
            <DistanceMeters>NAN</DistanceMeters>
          </Trackpoint>
          <Trackpoint>
            <Time>2021-04-03T10:07:35.000Z</Time>
            <Position>
              <LatitudeDegrees>42.29702406562864780426025390625</LatitudeDegrees>
              <LongitudeDegrees>2.5431446917355060577392578125</LongitudeDegrees>
            </Position>
            <AltitudeMeters>390.399993896484375</AltitudeMeters>
            <DistanceMeters>NAN</DistanceMeters>
          </Trackpoint>
          <Trackpoint>
            <Time>2021-04-03T10:07:37.000Z</Time>
            <Position>
              <LatitudeDegrees>42.2970144264400005340576171875</LatitudeDegrees>
              <LongitudeDegrees>2.54311359487473964691162109375</LongitudeDegrees>
            </Position>
            <AltitudeMeters>390.79998779296875</AltitudeMeters>
            <DistanceMeters>NAN</DistanceMeters>
          </Trackpoint>
          <Trackpoint>
            <Time>2021-04-03T10:07:39.000Z</Time>
            <Position>
              <LatitudeDegrees>42.29700981639325618743896484375</LatitudeDegrees>
              <LongitudeDegrees>2.54308626987040042877197265625</LongitudeDegrees>
            </Position>
            <AltitudeMeters>391</AltitudeMeters>
            <DistanceMeters>NAN</DistanceMeters>
          </Trackpoint>
          <Trackpoint>
            <Time>2021-04-03T10:07:40.000Z</Time>
            <Position>
              <LatitudeDegrees>42.297012247145175933837890625</LatitudeDegrees>
              <LongitudeDegrees>2.5430575199425220489501953125</LongitudeDegrees>
            </Position>
            <AltitudeMeters>391.399993896484375</AltitudeMeters>
            <DistanceMeters>NAN</DistanceMeters>
          </Trackpoint>
          <Trackpoint>
            <Time>2021-04-03T10:07:42.000Z</Time>
            <Position>
              <LatitudeDegrees>42.29701459407806396484375</LatitudeDegrees>
              <LongitudeDegrees>2.5430082343518733978271484375</LongitudeDegrees>
            </Position>
            <AltitudeMeters>391.79998779296875</AltitudeMeters>
            <DistanceMeters>NAN</DistanceMeters>
          </Trackpoint>
          <Trackpoint>
            <Time>2021-04-03T10:07:45.000Z</Time>
            <Position>
              <LatitudeDegrees>42.29699506424367427825927734375</LatitudeDegrees>
              <LongitudeDegrees>2.54294411279261112213134765625</LongitudeDegrees>
            </Position>
            <AltitudeMeters>392</AltitudeMeters>
            <DistanceMeters>NAN</DistanceMeters>
          </Trackpoint>
          <Trackpoint>
            <Time>2021-04-03T10:07:46.000Z</Time>
            <Position>
              <LatitudeDegrees>42.29699372313916683197021484375</LatitudeDegrees>
              <LongitudeDegrees>2.5429259240627288818359375</LongitudeDegrees>
            </Position>
            <AltitudeMeters>392.20001220703125</AltitudeMeters>
            <DistanceMeters>NAN</DistanceMeters>
          </Trackpoint>
          <Trackpoint>
            <Time>2021-04-03T10:07:47.000Z</Time>
            <Position>
              <LatitudeDegrees>42.29699221439659595489501953125</LatitudeDegrees>
              <LongitudeDegrees>2.542908824980258941650390625</LongitudeDegrees>
            </Position>
            <AltitudeMeters>392.399993896484375</AltitudeMeters>
            <DistanceMeters>NAN</DistanceMeters>
          </Trackpoint>
          <Trackpoint>
            <Time>2021-04-03T10:07:48.000Z</Time>
            <Position>
              <LatitudeDegrees>42.29699824936687946319580078125</LatitudeDegrees>
              <LongitudeDegrees>2.54289038479328155517578125</LongitudeDegrees>
            </Position>
            <AltitudeMeters>392.600006103515625</AltitudeMeters>
            <DistanceMeters>NAN</DistanceMeters>
          </Trackpoint>
          <Trackpoint>
            <Time>2021-04-03T10:07:50.000Z</Time>
            <Position>
              <LatitudeDegrees>42.29698332957923412322998046875</LatitudeDegrees>
              <LongitudeDegrees>2.5428519956767559051513671875</LongitudeDegrees>
            </Position>
            <AltitudeMeters>392.600006103515625</AltitudeMeters>
            <DistanceMeters>NAN</DistanceMeters>
          </Trackpoint>
          <Trackpoint>
            <Time>2021-04-03T10:07:52.000Z</Time>
            <Position>
              <LatitudeDegrees>42.2969614528119564056396484375</LatitudeDegrees>
              <LongitudeDegrees>2.54282156936824321746826171875</LongitudeDegrees>
            </Position>
            <AltitudeMeters>392.79998779296875</AltitudeMeters>
            <DistanceMeters>NAN</DistanceMeters>
          </Trackpoint>
          <Trackpoint>
            <Time>2021-04-03T10:07:55.000Z</Time>
            <Position>
              <LatitudeDegrees>42.2969461977481842041015625</LatitudeDegrees>
              <LongitudeDegrees>2.54277530126273632049560546875</LongitudeDegrees>
            </Position>
            <AltitudeMeters>393</AltitudeMeters>
            <DistanceMeters>NAN</DistanceMeters>
          </Trackpoint>
          <Trackpoint>
            <Time>2021-04-03T10:08:02.000Z</Time>
            <Position>
              <LatitudeDegrees>42.29694443754851818084716796875</LatitudeDegrees>
              <LongitudeDegrees>2.54265460185706615447998046875</LongitudeDegrees>
            </Position>
            <AltitudeMeters>393.399993896484375</AltitudeMeters>
            <DistanceMeters>NAN</DistanceMeters>
          </Trackpoint>
          <Trackpoint>
            <Time>2021-04-03T10:08:04.000Z</Time>
            <Position>
              <LatitudeDegrees>42.29694418609142303466796875</LatitudeDegrees>
              <LongitudeDegrees>2.54262241534888744354248046875</LongitudeDegrees>
            </Position>
            <AltitudeMeters>393.399993896484375</AltitudeMeters>
            <DistanceMeters>NAN</DistanceMeters>
          </Trackpoint>
          <Trackpoint>
            <Time>2021-04-03T10:08:08.000Z</Time>
            <Position>
              <LatitudeDegrees>42.296945862472057342529296875</LatitudeDegrees>
              <LongitudeDegrees>2.5425626523792743682861328125</LongitudeDegrees>
            </Position>
            <AltitudeMeters>393.600006103515625</AltitudeMeters>
            <DistanceMeters>NAN</DistanceMeters>
          </Trackpoint>
          <Trackpoint>
            <Time>2021-04-03T10:08:11.000Z</Time>
            <Position>
              <LatitudeDegrees>42.29695047251880168914794921875</LatitudeDegrees>
              <LongitudeDegrees>2.5425180606544017791748046875</LongitudeDegrees>
            </Position>
            <AltitudeMeters>393.600006103515625</AltitudeMeters>
            <DistanceMeters>NAN</DistanceMeters>
          </Trackpoint>
          <Trackpoint>
            <Time>2021-04-03T10:08:14.000Z</Time>
            <Position>
              <LatitudeDegrees>42.29695047251880168914794921875</LatitudeDegrees>
              <LongitudeDegrees>2.54246600903570652008056640625</LongitudeDegrees>
            </Position>
            <AltitudeMeters>393.600006103515625</AltitudeMeters>
            <DistanceMeters>NAN</DistanceMeters>
          </Trackpoint>
          <Trackpoint>
            <Time>2021-04-03T10:08:16.000Z</Time>
            <Position>
              <LatitudeDegrees>42.2969569265842437744140625</LatitudeDegrees>
              <LongitudeDegrees>2.54243197850883007049560546875</LongitudeDegrees>
            </Position>
            <AltitudeMeters>393.600006103515625</AltitudeMeters>
            <DistanceMeters>NAN</DistanceMeters>
          </Trackpoint>
          <Trackpoint>
            <Time>2021-04-03T10:08:21.000Z</Time>
            <Position>
              <LatitudeDegrees>42.2969748638570308685302734375</LatitudeDegrees>
              <LongitudeDegrees>2.542339526116847991943359375</LongitudeDegrees>
            </Position>
            <AltitudeMeters>393.399993896484375</AltitudeMeters>
            <DistanceMeters>NAN</DistanceMeters>
          </Trackpoint>
          <Trackpoint>
            <Time>2021-04-03T10:08:28.000Z</Time>
            <Position>
              <LatitudeDegrees>42.29697612114250659942626953125</LatitudeDegrees>
              <LongitudeDegrees>2.54222452640533447265625</LongitudeDegrees>
            </Position>
            <AltitudeMeters>393.399993896484375</AltitudeMeters>
            <DistanceMeters>NAN</DistanceMeters>
          </Trackpoint>
          <Trackpoint>
            <Time>2021-04-03T10:08:29.000Z</Time>
            <Position>
              <LatitudeDegrees>42.29697125963866710662841796875</LatitudeDegrees>
              <LongitudeDegrees>2.54220818169414997100830078125</LongitudeDegrees>
            </Position>
            <AltitudeMeters>393.399993896484375</AltitudeMeters>
            <DistanceMeters>NAN</DistanceMeters>
          </Trackpoint>
          <Trackpoint>
            <Time>2021-04-03T10:08:31.000Z</Time>
            <Position>
              <LatitudeDegrees>42.296959944069385528564453125</LatitudeDegrees>
              <LongitudeDegrees>2.54217557609081268310546875</LongitudeDegrees>
            </Position>
            <AltitudeMeters>393.399993896484375</AltitudeMeters>
            <DistanceMeters>NAN</DistanceMeters>
          </Trackpoint>
          <Trackpoint>
            <Time>2021-04-03T10:08:34.000Z</Time>
            <Position>
              <LatitudeDegrees>42.2969567589461803436279296875</LatitudeDegrees>
              <LongitudeDegrees>2.54212595522403717041015625</LongitudeDegrees>
            </Position>
            <AltitudeMeters>393.399993896484375</AltitudeMeters>
            <DistanceMeters>NAN</DistanceMeters>
          </Trackpoint>
          <Trackpoint>
            <Time>2021-04-03T10:08:36.000Z</Time>
            <Position>
              <LatitudeDegrees>42.29696706868708133697509765625</LatitudeDegrees>
              <LongitudeDegrees>2.54210055805742740631103515625</LongitudeDegrees>
            </Position>
            <AltitudeMeters>393.399993896484375</AltitudeMeters>
            <DistanceMeters>NAN</DistanceMeters>
          </Trackpoint>
          <Trackpoint>
            <Time>2021-04-03T10:08:38.000Z</Time>
            <Position>
              <LatitudeDegrees>42.29695550166070461273193359375</LatitudeDegrees>
              <LongitudeDegrees>2.542071640491485595703125</LongitudeDegrees>
            </Position>
            <AltitudeMeters>393.20001220703125</AltitudeMeters>
            <DistanceMeters>NAN</DistanceMeters>
          </Trackpoint>
          <Trackpoint>
            <Time>2021-04-03T10:08:40.000Z</Time>
            <Position>
              <LatitudeDegrees>42.29695047251880168914794921875</LatitudeDegrees>
              <LongitudeDegrees>2.54204708151519298553466796875</LongitudeDegrees>
            </Position>
            <AltitudeMeters>393.20001220703125</AltitudeMeters>
            <DistanceMeters>NAN</DistanceMeters>
          </Trackpoint>
          <Trackpoint>
            <Time>2021-04-03T10:08:41.000Z</Time>
            <Position>
              <LatitudeDegrees>42.29694862850010395050048828125</LatitudeDegrees>
              <LongitudeDegrees>2.5420354306697845458984375</LongitudeDegrees>
            </Position>
            <AltitudeMeters>393.20001220703125</AltitudeMeters>
            <DistanceMeters>NAN</DistanceMeters>
          </Trackpoint>
          <Trackpoint>
            <Time>2021-04-03T10:08:44.000Z</Time>
            <Position>
              <LatitudeDegrees>42.296934463083744049072265625</LatitudeDegrees>
              <LongitudeDegrees>2.5420101173222064971923828125</LongitudeDegrees>
            </Position>
            <AltitudeMeters>393.20001220703125</AltitudeMeters>
            <DistanceMeters>NAN</DistanceMeters>
          </Trackpoint>
          <Trackpoint>
            <Time>2021-04-03T10:08:46.000Z</Time>
            <Position>
              <LatitudeDegrees>42.296929098665714263916015625</LatitudeDegrees>
              <LongitudeDegrees>2.54199863411486148834228515625</LongitudeDegrees>
            </Position>
            <AltitudeMeters>393.399993896484375</AltitudeMeters>
            <DistanceMeters>NAN</DistanceMeters>
          </Trackpoint>
          <Trackpoint>
            <Time>2021-04-03T10:08:52.000Z</Time>
            <Position>
              <LatitudeDegrees>42.29688794352114200592041015625</LatitudeDegrees>
              <LongitudeDegrees>2.54192705266177654266357421875</LongitudeDegrees>
            </Position>
            <AltitudeMeters>394.20001220703125</AltitudeMeters>
            <DistanceMeters>NAN</DistanceMeters>
          </Trackpoint>
          <Trackpoint>
            <Time>2021-04-03T10:08:54.000Z</Time>
            <Position>
              <LatitudeDegrees>42.2968840040266513824462890625</LatitudeDegrees>
              <LongitudeDegrees>2.5419034995138645172119140625</LongitudeDegrees>
            </Position>
            <AltitudeMeters>394.399993896484375</AltitudeMeters>
            <DistanceMeters>NAN</DistanceMeters>
          </Trackpoint>
          <Trackpoint>
            <Time>2021-04-03T10:08:57.000Z</Time>
            <Position>
              <LatitudeDegrees>42.296887524425983428955078125</LatitudeDegrees>
              <LongitudeDegrees>2.54190006293356418609619140625</LongitudeDegrees>
            </Position>
            <AltitudeMeters>394.600006103515625</AltitudeMeters>
            <DistanceMeters>NAN</DistanceMeters>
          </Trackpoint>
          <Trackpoint>
            <Time>2021-04-03T10:09:01.000Z</Time>
            <Position>
              <LatitudeDegrees>42.29690127074718475341796875</LatitudeDegrees>
              <LongitudeDegrees>2.54190274514257907867431640625</LongitudeDegrees>
            </Position>
            <AltitudeMeters>394.399993896484375</AltitudeMeters>
            <DistanceMeters>NAN</DistanceMeters>
          </Trackpoint>
          <Trackpoint>
            <Time>2021-04-03T10:09:10.000Z</Time>
            <Position>
              <LatitudeDegrees>42.2969232313334941864013671875</LatitudeDegrees>
              <LongitudeDegrees>2.541906349360942840576171875</LongitudeDegrees>
            </Position>
            <AltitudeMeters>394.399993896484375</AltitudeMeters>
            <DistanceMeters>NAN</DistanceMeters>
          </Trackpoint>
          <Trackpoint>
            <Time>2021-04-03T10:09:15.000Z</Time>
            <Position>
              <LatitudeDegrees>42.29692532680928707122802734375</LatitudeDegrees>
              <LongitudeDegrees>2.54190609790384769439697265625</LongitudeDegrees>
            </Position>
            <AltitudeMeters>394.399993896484375</AltitudeMeters>
            <DistanceMeters>NAN</DistanceMeters>
          </Trackpoint>
          <Trackpoint>
            <Time>2021-04-03T10:09:23.000Z</Time>
            <Position>
              <LatitudeDegrees>42.2968937270343303680419921875</LatitudeDegrees>
              <LongitudeDegrees>2.5418817065656185150146484375</LongitudeDegrees>
            </Position>
            <AltitudeMeters>394.399993896484375</AltitudeMeters>
            <DistanceMeters>NAN</DistanceMeters>
          </Trackpoint>
          <Trackpoint>
            <Time>2021-04-03T10:09:24.000Z</Time>
            <Position>
              <LatitudeDegrees>42.29688517749309539794921875</LatitudeDegrees>
              <LongitudeDegrees>2.5418713130056858062744140625</LongitudeDegrees>
            </Position>
            <AltitudeMeters>394.399993896484375</AltitudeMeters>
            <DistanceMeters>NAN</DistanceMeters>
          </Trackpoint>
          <Trackpoint>
            <Time>2021-04-03T10:09:25.000Z</Time>
            <Position>
              <LatitudeDegrees>42.29687285609543323516845703125</LatitudeDegrees>
              <LongitudeDegrees>2.54185899160802364349365234375</LongitudeDegrees>
            </Position>
            <AltitudeMeters>394.399993896484375</AltitudeMeters>
            <DistanceMeters>NAN</DistanceMeters>
          </Trackpoint>
          <Trackpoint>
            <Time>2021-04-03T10:09:30.000Z</Time>
            <Position>
              <LatitudeDegrees>42.29684083722531795501708984375</LatitudeDegrees>
              <LongitudeDegrees>2.54180434159934520721435546875</LongitudeDegrees>
            </Position>
            <AltitudeMeters>394.600006103515625</AltitudeMeters>
            <DistanceMeters>NAN</DistanceMeters>
          </Trackpoint>
          <Trackpoint>
            <Time>2021-04-03T10:09:32.000Z</Time>
            <Position>
              <LatitudeDegrees>42.2968360595405101776123046875</LatitudeDegrees>
              <LongitudeDegrees>2.54179696552455425262451171875</LongitudeDegrees>
            </Position>
            <AltitudeMeters>395</AltitudeMeters>
            <DistanceMeters>NAN</DistanceMeters>
          </Trackpoint>
          <Trackpoint>
            <Time>2021-04-03T10:09:36.000Z</Time>
            <Position>
              <LatitudeDegrees>42.2968045435845851898193359375</LatitudeDegrees>
              <LongitudeDegrees>2.54177316091954708099365234375</LongitudeDegrees>
            </Position>
            <AltitudeMeters>395.399993896484375</AltitudeMeters>
            <DistanceMeters>NAN</DistanceMeters>
          </Trackpoint>
          <Trackpoint>
            <Time>2021-04-03T10:09:38.000Z</Time>
            <Position>
              <LatitudeDegrees>42.2967958264052867889404296875</LatitudeDegrees>
              <LongitudeDegrees>2.541754133999347686767578125</LongitudeDegrees>
            </Position>
            <AltitudeMeters>395.399993896484375</AltitudeMeters>
            <DistanceMeters>NAN</DistanceMeters>
          </Trackpoint>
          <Trackpoint>
            <Time>2021-04-03T10:09:43.000Z</Time>
            <Position>
              <LatitudeDegrees>42.29677386581897735595703125</LatitudeDegrees>
              <LongitudeDegrees>2.54170954227447509765625</LongitudeDegrees>
            </Position>
            <AltitudeMeters>396</AltitudeMeters>
            <DistanceMeters>NAN</DistanceMeters>
          </Trackpoint>
          <Trackpoint>
            <Time>2021-04-03T10:09:47.000Z</Time>
            <Position>
              <LatitudeDegrees>42.29673824273049831390380859375</LatitudeDegrees>
              <LongitudeDegrees>2.54165380261838436126708984375</LongitudeDegrees>
            </Position>
            <AltitudeMeters>396.600006103515625</AltitudeMeters>
            <DistanceMeters>NAN</DistanceMeters>
          </Trackpoint>
          <Trackpoint>
            <Time>2021-04-03T10:09:49.000Z</Time>
            <Position>
              <LatitudeDegrees>42.296723239123821258544921875</LatitudeDegrees>
              <LongitudeDegrees>2.541620023548603057861328125</LongitudeDegrees>
            </Position>
            <AltitudeMeters>396.79998779296875</AltitudeMeters>
            <DistanceMeters>NAN</DistanceMeters>
          </Trackpoint>
          <Trackpoint>
            <Time>2021-04-03T10:09:55.000Z</Time>
            <Position>
              <LatitudeDegrees>42.29666867293417453765869140625</LatitudeDegrees>
              <LongitudeDegrees>2.54152715206146240234375</LongitudeDegrees>
            </Position>
            <AltitudeMeters>397.20001220703125</AltitudeMeters>
            <DistanceMeters>NAN</DistanceMeters>
          </Trackpoint>
          <Trackpoint>
            <Time>2021-04-03T10:09:58.000Z</Time>
            <Position>
              <LatitudeDegrees>42.296658866107463836669921875</LatitudeDegrees>
              <LongitudeDegrees>2.54148331470787525177001953125</LongitudeDegrees>
            </Position>
            <AltitudeMeters>397.399993896484375</AltitudeMeters>
            <DistanceMeters>NAN</DistanceMeters>
          </Trackpoint>
          <Trackpoint>
            <Time>2021-04-03T10:10:00.000Z</Time>
            <Position>
              <LatitudeDegrees>42.2966248355805873870849609375</LatitudeDegrees>
              <LongitudeDegrees>2.54142832942306995391845703125</LongitudeDegrees>
            </Position>
            <AltitudeMeters>397.600006103515625</AltitudeMeters>
            <DistanceMeters>NAN</DistanceMeters>
          </Trackpoint>
          <Trackpoint>
            <Time>2021-04-03T10:10:01.000Z</Time>
            <Position>
              <LatitudeDegrees>42.2966161184012889862060546875</LatitudeDegrees>
              <LongitudeDegrees>2.54141525365412235260009765625</LongitudeDegrees>
            </Position>
            <AltitudeMeters>397.600006103515625</AltitudeMeters>
            <DistanceMeters>NAN</DistanceMeters>
          </Trackpoint>
          <Trackpoint>
            <Time>2021-04-03T10:10:03.000Z</Time>
            <Position>
              <LatitudeDegrees>42.29660027660429477691650390625</LatitudeDegrees>
              <LongitudeDegrees>2.54139094613492488861083984375</LongitudeDegrees>
            </Position>
            <AltitudeMeters>397.79998779296875</AltitudeMeters>
            <DistanceMeters>NAN</DistanceMeters>
          </Trackpoint>
          <Trackpoint>
            <Time>2021-04-03T10:10:09.000Z</Time>
            <Position>
              <LatitudeDegrees>42.29655803181231021881103515625</LatitudeDegrees>
              <LongitudeDegrees>2.54133378155529499053955078125</LongitudeDegrees>
            </Position>
            <AltitudeMeters>398.399993896484375</AltitudeMeters>
            <DistanceMeters>NAN</DistanceMeters>
          </Trackpoint>
          <Trackpoint>
            <Time>2021-04-03T10:10:10.000Z</Time>
            <Position>
              <LatitudeDegrees>42.29655325412750244140625</LatitudeDegrees>
              <LongitudeDegrees>2.54133143462240695953369140625</LongitudeDegrees>
            </Position>
            <AltitudeMeters>398.600006103515625</AltitudeMeters>
            <DistanceMeters>NAN</DistanceMeters>
          </Trackpoint>
          <Trackpoint>
            <Time>2021-04-03T10:10:14.000Z</Time>
            <Position>
              <LatitudeDegrees>42.296549566090106964111328125</LatitudeDegrees>
              <LongitudeDegrees>2.54130779765546321868896484375</LongitudeDegrees>
            </Position>
            <AltitudeMeters>398.79998779296875</AltitudeMeters>
            <DistanceMeters>NAN</DistanceMeters>
          </Trackpoint>
          <Trackpoint>
            <Time>2021-04-03T10:10:16.000Z</Time>
            <Position>
              <LatitudeDegrees>42.29653623886406421661376953125</LatitudeDegrees>
              <LongitudeDegrees>2.54128642380237579345703125</LongitudeDegrees>
            </Position>
            <AltitudeMeters>398.79998779296875</AltitudeMeters>
            <DistanceMeters>NAN</DistanceMeters>
          </Trackpoint>
          <Trackpoint>
            <Time>2021-04-03T10:10:20.000Z</Time>
            <Position>
              <LatitudeDegrees>42.29652282781898975372314453125</LatitudeDegrees>
              <LongitudeDegrees>2.54124619066715240478515625</LongitudeDegrees>
            </Position>
            <AltitudeMeters>398.79998779296875</AltitudeMeters>
            <DistanceMeters>NAN</DistanceMeters>
          </Trackpoint>
          <Trackpoint>
            <Time>2021-04-03T10:10:25.000Z</Time>
            <Position>
              <LatitudeDegrees>42.2964981012046337127685546875</LatitudeDegrees>
              <LongitudeDegrees>2.5411826558411121368408203125</LongitudeDegrees>
            </Position>
            <AltitudeMeters>398.600006103515625</AltitudeMeters>
            <DistanceMeters>NAN</DistanceMeters>
          </Trackpoint>
          <Trackpoint>
            <Time>2021-04-03T10:10:27.000Z</Time>
            <Position>
              <LatitudeDegrees>42.29647538624703884124755859375</LatitudeDegrees>
              <LongitudeDegrees>2.54114535637199878692626953125</LongitudeDegrees>
            </Position>
            <AltitudeMeters>398.399993896484375</AltitudeMeters>
            <DistanceMeters>NAN</DistanceMeters>
          </Trackpoint>
          <Trackpoint>
            <Time>2021-04-03T10:10:29.000Z</Time>
            <Position>
              <LatitudeDegrees>42.296471111476421356201171875</LatitudeDegrees>
              <LongitudeDegrees>2.54112641327083110809326171875</LongitudeDegrees>
            </Position>
            <AltitudeMeters>398.600006103515625</AltitudeMeters>
            <DistanceMeters>NAN</DistanceMeters>
          </Trackpoint>
          <Trackpoint>
            <Time>2021-04-03T10:10:30.000Z</Time>
            <Position>
              <LatitudeDegrees>42.2964732907712459564208984375</LatitudeDegrees>
              <LongitudeDegrees>2.54111400805413722991943359375</LongitudeDegrees>
            </Position>
            <AltitudeMeters>398.79998779296875</AltitudeMeters>
            <DistanceMeters>NAN</DistanceMeters>
          </Trackpoint>
          <Trackpoint>
            <Time>2021-04-03T10:10:31.000Z</Time>
            <Position>
              <LatitudeDegrees>42.2964702732861042022705078125</LatitudeDegrees>
              <LongitudeDegrees>2.54110269248485565185546875</LongitudeDegrees>
            </Position>
            <AltitudeMeters>398.79998779296875</AltitudeMeters>
            <DistanceMeters>NAN</DistanceMeters>
          </Trackpoint>
          <Trackpoint>
            <Time>2021-04-03T10:10:32.000Z</Time>
            <Position>
              <LatitudeDegrees>42.29646541178226470947265625</LatitudeDegrees>
              <LongitudeDegrees>2.54108768887817859649658203125</LongitudeDegrees>
            </Position>
            <AltitudeMeters>398.79998779296875</AltitudeMeters>
            <DistanceMeters>NAN</DistanceMeters>
          </Trackpoint>
          <Trackpoint>
            <Time>2021-04-03T10:10:37.000Z</Time>
            <Position>
              <LatitudeDegrees>42.29642450809478759765625</LatitudeDegrees>
              <LongitudeDegrees>2.5409922190010547637939453125</LongitudeDegrees>
            </Position>
            <AltitudeMeters>399.399993896484375</AltitudeMeters>
            <DistanceMeters>NAN</DistanceMeters>
          </Trackpoint>
          <Trackpoint>
            <Time>2021-04-03T10:10:40.000Z</Time>
            <Position>
              <LatitudeDegrees>42.29642878286540508270263671875</LatitudeDegrees>
              <LongitudeDegrees>2.54094134084880352020263671875</LongitudeDegrees>
            </Position>
            <AltitudeMeters>399.600006103515625</AltitudeMeters>
            <DistanceMeters>NAN</DistanceMeters>
          </Trackpoint>
          <Trackpoint>
            <Time>2021-04-03T10:10:41.000Z</Time>
            <Position>
              <LatitudeDegrees>42.29642794467508792877197265625</LatitudeDegrees>
              <LongitudeDegrees>2.5409379042685031890869140625</LongitudeDegrees>
            </Position>
            <AltitudeMeters>399.600006103515625</AltitudeMeters>
            <DistanceMeters>NAN</DistanceMeters>
          </Trackpoint>
          <Trackpoint>
            <Time>2021-04-03T10:10:43.000Z</Time>
            <Position>
              <LatitudeDegrees>42.29643196798861026763916015625</LatitudeDegrees>
              <LongitudeDegrees>2.54090286791324615478515625</LongitudeDegrees>
            </Position>
            <AltitudeMeters>400</AltitudeMeters>
            <DistanceMeters>NAN</DistanceMeters>
          </Trackpoint>
          <Trackpoint>
            <Time>2021-04-03T10:10:47.000Z</Time>
            <Position>
              <LatitudeDegrees>42.29642115533351898193359375</LatitudeDegrees>
              <LongitudeDegrees>2.5408525764942169189453125</LongitudeDegrees>
            </Position>
            <AltitudeMeters>400.20001220703125</AltitudeMeters>
            <DistanceMeters>NAN</DistanceMeters>
          </Trackpoint>
          <Trackpoint>
            <Time>2021-04-03T10:10:51.000Z</Time>
            <Position>
              <LatitudeDegrees>42.296388633549213409423828125</LatitudeDegrees>
              <LongitudeDegrees>2.54079516045749187469482421875</LongitudeDegrees>
            </Position>
            <AltitudeMeters>400.600006103515625</AltitudeMeters>
            <DistanceMeters>NAN</DistanceMeters>
          </Trackpoint>
          <Trackpoint>
            <Time>2021-04-03T10:10:55.000Z</Time>
            <Position>
              <LatitudeDegrees>42.2963757254183292388916015625</LatitudeDegrees>
              <LongitudeDegrees>2.5407457910478115081787109375</LongitudeDegrees>
            </Position>
            <AltitudeMeters>401</AltitudeMeters>
            <DistanceMeters>NAN</DistanceMeters>
          </Trackpoint>
          <Trackpoint>
            <Time>2021-04-03T10:10:57.000Z</Time>
            <Position>
              <LatitudeDegrees>42.29632861912250518798828125</LatitudeDegrees>
              <LongitudeDegrees>2.54069902002811431884765625</LongitudeDegrees>
            </Position>
            <AltitudeMeters>401</AltitudeMeters>
            <DistanceMeters>NAN</DistanceMeters>
          </Trackpoint>
          <Trackpoint>
            <Time>2021-04-03T10:11:00.000Z</Time>
            <Position>
              <LatitudeDegrees>42.29627455584704875946044921875</LatitudeDegrees>
              <LongitudeDegrees>2.54061427898705005645751953125</LongitudeDegrees>
            </Position>
            <AltitudeMeters>401</AltitudeMeters>
            <DistanceMeters>NAN</DistanceMeters>
          </Trackpoint>
          <Trackpoint>
            <Time>2021-04-03T10:11:01.000Z</Time>
            <Position>
              <LatitudeDegrees>42.29626349173486232757568359375</LatitudeDegrees>
              <LongitudeDegrees>2.54058427177369594573974609375</LongitudeDegrees>
            </Position>
            <AltitudeMeters>401</AltitudeMeters>
            <DistanceMeters>NAN</DistanceMeters>
          </Trackpoint>
          <Trackpoint>
            <Time>2021-04-03T10:11:03.000Z</Time>
            <Position>
              <LatitudeDegrees>42.29626558721065521240234375</LatitudeDegrees>
              <LongitudeDegrees>2.54055594094097614288330078125</LongitudeDegrees>
            </Position>
            <AltitudeMeters>401</AltitudeMeters>
            <DistanceMeters>NAN</DistanceMeters>
          </Trackpoint>
          <Trackpoint>
            <Time>2021-04-03T10:11:05.000Z</Time>
            <Position>
              <LatitudeDegrees>42.29627355001866817474365234375</LatitudeDegrees>
              <LongitudeDegrees>2.5405459664762020111083984375</LongitudeDegrees>
            </Position>
            <AltitudeMeters>401</AltitudeMeters>
            <DistanceMeters>NAN</DistanceMeters>
          </Trackpoint>
          <Trackpoint>
            <Time>2021-04-03T10:11:08.000Z</Time>
            <Position>
              <LatitudeDegrees>42.29627740569412708282470703125</LatitudeDegrees>
              <LongitudeDegrees>2.54051621071994304656982421875</LongitudeDegrees>
            </Position>
            <AltitudeMeters>401</AltitudeMeters>
            <DistanceMeters>NAN</DistanceMeters>
          </Trackpoint>
          <Trackpoint>
            <Time>2021-04-03T10:11:11.000Z</Time>
            <Position>
              <LatitudeDegrees>42.2962617315351963043212890625</LatitudeDegrees>
              <LongitudeDegrees>2.540480755269527435302734375</LongitudeDegrees>
            </Position>
            <AltitudeMeters>401.20001220703125</AltitudeMeters>
            <DistanceMeters>NAN</DistanceMeters>
          </Trackpoint>
          <Trackpoint>
            <Time>2021-04-03T10:11:12.000Z</Time>
            <Position>
              <LatitudeDegrees>42.29625443927943706512451171875</LatitudeDegrees>
              <LongitudeDegrees>2.5404658354818820953369140625</LongitudeDegrees>
            </Position>
            <AltitudeMeters>401.20001220703125</AltitudeMeters>
            <DistanceMeters>NAN</DistanceMeters>
          </Trackpoint>
          <Trackpoint>
            <Time>2021-04-03T10:11:15.000Z</Time>
            <Position>
              <LatitudeDegrees>42.29624371044337749481201171875</LatitudeDegrees>
              <LongitudeDegrees>2.5404256023466587066650390625</LongitudeDegrees>
            </Position>
            <AltitudeMeters>401.399993896484375</AltitudeMeters>
            <DistanceMeters>NAN</DistanceMeters>
          </Trackpoint>
          <Trackpoint>
            <Time>2021-04-03T10:11:16.000Z</Time>
            <Position>
              <LatitudeDegrees>42.296243123710155487060546875</LatitudeDegrees>
              <LongitudeDegrees>2.5404073297977447509765625</LongitudeDegrees>
            </Position>
            <AltitudeMeters>401.399993896484375</AltitudeMeters>
            <DistanceMeters>NAN</DistanceMeters>
          </Trackpoint>
          <Trackpoint>
            <Time>2021-04-03T10:11:19.000Z</Time>
            <Position>
              <LatitudeDegrees>42.2962325625121593475341796875</LatitudeDegrees>
              <LongitudeDegrees>2.540343292057514190673828125</LongitudeDegrees>
            </Position>
            <AltitudeMeters>401.399993896484375</AltitudeMeters>
            <DistanceMeters>NAN</DistanceMeters>
          </Trackpoint>
          <Trackpoint>
            <Time>2021-04-03T10:11:22.000Z</Time>
            <Position>
              <LatitudeDegrees>42.29621957056224346160888671875</LatitudeDegrees>
              <LongitudeDegrees>2.54028637893497943878173828125</LongitudeDegrees>
            </Position>
            <AltitudeMeters>401.399993896484375</AltitudeMeters>
            <DistanceMeters>NAN</DistanceMeters>
          </Trackpoint>
          <Trackpoint>
            <Time>2021-04-03T10:11:25.000Z</Time>
            <Position>
              <LatitudeDegrees>42.296223007142543792724609375</LatitudeDegrees>
              <LongitudeDegrees>2.54022871144115924835205078125</LongitudeDegrees>
            </Position>
            <AltitudeMeters>400.79998779296875</AltitudeMeters>
            <DistanceMeters>NAN</DistanceMeters>
          </Trackpoint>
          <Trackpoint>
            <Time>2021-04-03T10:11:28.000Z</Time>
            <Position>
              <LatitudeDegrees>42.29621462523937225341796875</LatitudeDegrees>
              <LongitudeDegrees>2.540168277919292449951171875</LongitudeDegrees>
            </Position>
            <AltitudeMeters>400.79998779296875</AltitudeMeters>
            <DistanceMeters>NAN</DistanceMeters>
          </Trackpoint>
          <Trackpoint>
            <Time>2021-04-03T10:11:35.000Z</Time>
            <Position>
              <LatitudeDegrees>42.296196185052394866943359375</LatitudeDegrees>
              <LongitudeDegrees>2.54001949913799762725830078125</LongitudeDegrees>
            </Position>
            <AltitudeMeters>400.600006103515625</AltitudeMeters>
            <DistanceMeters>NAN</DistanceMeters>
          </Trackpoint>
          <Trackpoint>
            <Time>2021-04-03T10:11:39.000Z</Time>
            <Position>
              <LatitudeDegrees>42.29619123972952365875244140625</LatitudeDegrees>
              <LongitudeDegrees>2.53994909115135669708251953125</LongitudeDegrees>
            </Position>
            <AltitudeMeters>400.600006103515625</AltitudeMeters>
            <DistanceMeters>NAN</DistanceMeters>
          </Trackpoint>
          <Trackpoint>
            <Time>2021-04-03T10:11:41.000Z</Time>
            <Position>
              <LatitudeDegrees>42.29619828052818775177001953125</LatitudeDegrees>
              <LongitudeDegrees>2.5399236939847469329833984375</LongitudeDegrees>
            </Position>
            <AltitudeMeters>400.600006103515625</AltitudeMeters>
            <DistanceMeters>NAN</DistanceMeters>
          </Trackpoint>
          <Trackpoint>
            <Time>2021-04-03T10:11:48.000Z</Time>
            <Position>
              <LatitudeDegrees>42.2962335683405399322509765625</LatitudeDegrees>
              <LongitudeDegrees>2.5398569740355014801025390625</LongitudeDegrees>
            </Position>
            <AltitudeMeters>401</AltitudeMeters>
            <DistanceMeters>NAN</DistanceMeters>
          </Trackpoint>
          <Trackpoint>
            <Time>2021-04-03T10:11:54.000Z</Time>
            <Position>
              <LatitudeDegrees>42.2962054051458835601806640625</LatitudeDegrees>
              <LongitudeDegrees>2.5397781841456890106201171875</LongitudeDegrees>
            </Position>
            <AltitudeMeters>401.399993896484375</AltitudeMeters>
            <DistanceMeters>NAN</DistanceMeters>
          </Trackpoint>
          <Trackpoint>
            <Time>2021-04-03T10:11:59.000Z</Time>
            <Position>
              <LatitudeDegrees>42.2962166368961334228515625</LatitudeDegrees>
              <LongitudeDegrees>2.5397126376628875732421875</LongitudeDegrees>
            </Position>
            <AltitudeMeters>401.600006103515625</AltitudeMeters>
            <DistanceMeters>NAN</DistanceMeters>
          </Trackpoint>
          <Trackpoint>
            <Time>2021-04-03T10:12:00.000Z</Time>
            <Position>
              <LatitudeDegrees>42.29622325859963893890380859375</LatitudeDegrees>
              <LongitudeDegrees>2.53970031626522541046142578125</LongitudeDegrees>
            </Position>
            <AltitudeMeters>401.79998779296875</AltitudeMeters>
            <DistanceMeters>NAN</DistanceMeters>
          </Trackpoint>
          <Trackpoint>
            <Time>2021-04-03T10:12:05.000Z</Time>
            <Position>
              <LatitudeDegrees>42.29623080231249332427978515625</LatitudeDegrees>
              <LongitudeDegrees>2.53964097239077091217041015625</LongitudeDegrees>
            </Position>
            <AltitudeMeters>401.79998779296875</AltitudeMeters>
            <DistanceMeters>NAN</DistanceMeters>
          </Trackpoint>
          <Trackpoint>
            <Time>2021-04-03T10:12:11.000Z</Time>
            <Position>
              <LatitudeDegrees>42.29618914425373077392578125</LatitudeDegrees>
              <LongitudeDegrees>2.5395639427006244659423828125</LongitudeDegrees>
            </Position>
            <AltitudeMeters>402</AltitudeMeters>
            <DistanceMeters>NAN</DistanceMeters>
          </Trackpoint>
          <Trackpoint>
            <Time>2021-04-03T10:12:13.000Z</Time>
            <Position>
              <LatitudeDegrees>42.29618755169212818145751953125</LatitudeDegrees>
              <LongitudeDegrees>2.5395408086478710174560546875</LongitudeDegrees>
            </Position>
            <AltitudeMeters>402</AltitudeMeters>
            <DistanceMeters>NAN</DistanceMeters>
          </Trackpoint>
          <Trackpoint>
            <Time>2021-04-03T10:12:17.000Z</Time>
            <Position>
              <LatitudeDegrees>42.2961849533021450042724609375</LatitudeDegrees>
              <LongitudeDegrees>2.5395052693784236907958984375</LongitudeDegrees>
            </Position>
            <AltitudeMeters>402</AltitudeMeters>
            <DistanceMeters>NAN</DistanceMeters>
          </Trackpoint>
          <Trackpoint>
            <Time>2021-04-03T10:12:21.000Z</Time>
            <Position>
              <LatitudeDegrees>42.29615150950849056243896484375</LatitudeDegrees>
              <LongitudeDegrees>2.53948372788727283477783203125</LongitudeDegrees>
            </Position>
            <AltitudeMeters>402</AltitudeMeters>
            <DistanceMeters>NAN</DistanceMeters>
          </Trackpoint>
          <Trackpoint>
            <Time>2021-04-03T10:12:24.000Z</Time>
            <Position>
              <LatitudeDegrees>42.29614849202334880828857421875</LatitudeDegrees>
              <LongitudeDegrees>2.539469897747039794921875</LongitudeDegrees>
            </Position>
            <AltitudeMeters>402</AltitudeMeters>
            <DistanceMeters>NAN</DistanceMeters>
          </Trackpoint>
          <Trackpoint>
            <Time>2021-04-03T10:12:25.000Z</Time>
            <Position>
              <LatitudeDegrees>42.29614815674722194671630859375</LatitudeDegrees>
              <LongitudeDegrees>2.53946729935705661773681640625</LongitudeDegrees>
            </Position>
            <AltitudeMeters>402.20001220703125</AltitudeMeters>
            <DistanceMeters>NAN</DistanceMeters>
          </Trackpoint>
          <Trackpoint>
            <Time>2021-04-03T10:12:26.000Z</Time>
            <Position>
              <LatitudeDegrees>42.29614161886274814605712890625</LatitudeDegrees>
              <LongitudeDegrees>2.539460174739360809326171875</LongitudeDegrees>
            </Position>
            <AltitudeMeters>402.20001220703125</AltitudeMeters>
            <DistanceMeters>NAN</DistanceMeters>
          </Trackpoint>
          <Trackpoint>
            <Time>2021-04-03T10:12:28.000Z</Time>
            <Position>
              <LatitudeDegrees>42.296124435961246490478515625</LatitudeDegrees>
              <LongitudeDegrees>2.53943628631532192230224609375</LongitudeDegrees>
            </Position>
            <AltitudeMeters>402.399993896484375</AltitudeMeters>
            <DistanceMeters>NAN</DistanceMeters>
          </Trackpoint>
          <Trackpoint>
            <Time>2021-04-03T10:12:30.000Z</Time>
            <Position>
              <LatitudeDegrees>42.29611404240131378173828125</LatitudeDegrees>
              <LongitudeDegrees>2.53941734321415424346923828125</LongitudeDegrees>
            </Position>
            <AltitudeMeters>402.600006103515625</AltitudeMeters>
            <DistanceMeters>NAN</DistanceMeters>
          </Trackpoint>
          <Trackpoint>
            <Time>2021-04-03T10:12:31.000Z</Time>
            <Position>
              <LatitudeDegrees>42.29610943235456943511962890625</LatitudeDegrees>
              <LongitudeDegrees>2.53940409980714321136474609375</LongitudeDegrees>
            </Position>
            <AltitudeMeters>402.600006103515625</AltitudeMeters>
            <DistanceMeters>NAN</DistanceMeters>
          </Trackpoint>
          <Trackpoint>
            <Time>2021-04-03T10:12:32.000Z</Time>
            <Position>
              <LatitudeDegrees>42.2960986196994781494140625</LatitudeDegrees>
              <LongitudeDegrees>2.539396472275257110595703125</LongitudeDegrees>
            </Position>
            <AltitudeMeters>402.79998779296875</AltitudeMeters>
            <DistanceMeters>NAN</DistanceMeters>
          </Trackpoint>
          <Trackpoint>
            <Time>2021-04-03T10:12:35.000Z</Time>
            <Position>
              <LatitudeDegrees>42.29607112705707550048828125</LatitudeDegrees>
              <LongitudeDegrees>2.53934693522751331329345703125</LongitudeDegrees>
            </Position>
            <AltitudeMeters>403.20001220703125</AltitudeMeters>
            <DistanceMeters>NAN</DistanceMeters>
          </Trackpoint>
          <Trackpoint>
            <Time>2021-04-03T10:12:37.000Z</Time>
            <Position>
              <LatitudeDegrees>42.29605444706976413726806640625</LatitudeDegrees>
              <LongitudeDegrees>2.539319358766078948974609375</LongitudeDegrees>
            </Position>
            <AltitudeMeters>403.20001220703125</AltitudeMeters>
            <DistanceMeters>NAN</DistanceMeters>
          </Trackpoint>
          <Trackpoint>
            <Time>2021-04-03T10:12:40.000Z</Time>
            <Position>
              <LatitudeDegrees>42.29604438878595829010009765625</LatitudeDegrees>
              <LongitudeDegrees>2.5392859987914562225341796875</LongitudeDegrees>
            </Position>
            <AltitudeMeters>403.79998779296875</AltitudeMeters>
            <DistanceMeters>NAN</DistanceMeters>
          </Trackpoint>
          <Trackpoint>
            <Time>2021-04-03T10:12:41.000Z</Time>
            <Position>
              <LatitudeDegrees>42.29603550396859645843505859375</LatitudeDegrees>
              <LongitudeDegrees>2.53926831297576427459716796875</LongitudeDegrees>
            </Position>
            <AltitudeMeters>403.79998779296875</AltitudeMeters>
            <DistanceMeters>NAN</DistanceMeters>
          </Trackpoint>
          <Trackpoint>
            <Time>2021-04-03T10:12:42.000Z</Time>
            <Position>
              <LatitudeDegrees>42.29602997191250324249267578125</LatitudeDegrees>
              <LongitudeDegrees>2.53925138153135776519775390625</LongitudeDegrees>
            </Position>
            <AltitudeMeters>404</AltitudeMeters>
            <DistanceMeters>NAN</DistanceMeters>
          </Trackpoint>
          <Trackpoint>
            <Time>2021-04-03T10:12:45.000Z</Time>
            <Position>
              <LatitudeDegrees>42.29602896608412265777587890625</LatitudeDegrees>
              <LongitudeDegrees>2.539211399853229522705078125</LongitudeDegrees>
            </Position>
            <AltitudeMeters>404.20001220703125</AltitudeMeters>
            <DistanceMeters>NAN</DistanceMeters>
          </Trackpoint>
          <Trackpoint>
            <Time>2021-04-03T10:12:48.000Z</Time>
            <Position>
              <LatitudeDegrees>42.296019494533538818359375</LatitudeDegrees>
              <LongitudeDegrees>2.5391790457069873809814453125</LongitudeDegrees>
            </Position>
            <AltitudeMeters>404.79998779296875</AltitudeMeters>
            <DistanceMeters>NAN</DistanceMeters>
          </Trackpoint>
          <Trackpoint>
            <Time>2021-04-03T10:12:50.000Z</Time>
            <Position>
              <LatitudeDegrees>42.29601002298295497894287109375</LatitudeDegrees>
              <LongitudeDegrees>2.5391592644155025482177734375</LongitudeDegrees>
            </Position>
            <AltitudeMeters>405</AltitudeMeters>
            <DistanceMeters>NAN</DistanceMeters>
          </Trackpoint>
          <Trackpoint>
            <Time>2021-04-03T10:12:51.000Z</Time>
            <Position>
              <LatitudeDegrees>42.29600549675524234771728515625</LatitudeDegrees>
              <LongitudeDegrees>2.53915004432201385498046875</LongitudeDegrees>
            </Position>
            <AltitudeMeters>405.20001220703125</AltitudeMeters>
            <DistanceMeters>NAN</DistanceMeters>
          </Trackpoint>
          <Trackpoint>
            <Time>2021-04-03T10:12:53.000Z</Time>
            <Position>
              <LatitudeDegrees>42.2960002161562442779541015625</LatitudeDegrees>
              <LongitudeDegrees>2.5391351245343685150146484375</LongitudeDegrees>
            </Position>
            <AltitudeMeters>405.600006103515625</AltitudeMeters>
            <DistanceMeters>NAN</DistanceMeters>
          </Trackpoint>
          <Trackpoint>
            <Time>2021-04-03T10:12:55.000Z</Time>
            <Position>
              <LatitudeDegrees>42.29600314982235431671142578125</LatitudeDegrees>
              <LongitudeDegrees>2.5391180254518985748291015625</LongitudeDegrees>
            </Position>
            <AltitudeMeters>406</AltitudeMeters>
            <DistanceMeters>NAN</DistanceMeters>
          </Trackpoint>
          <Trackpoint>
            <Time>2021-04-03T10:12:56.000Z</Time>
            <Position>
              <LatitudeDegrees>42.29600499384105205535888671875</LatitudeDegrees>
              <LongitudeDegrees>2.5391093082726001739501953125</LongitudeDegrees>
            </Position>
            <AltitudeMeters>406</AltitudeMeters>
            <DistanceMeters>NAN</DistanceMeters>
          </Trackpoint>
          <Trackpoint>
            <Time>2021-04-03T10:13:01.000Z</Time>
            <Position>
              <LatitudeDegrees>42.29598823003470897674560546875</LatitudeDegrees>
              <LongitudeDegrees>2.53905558027327060699462890625</LongitudeDegrees>
            </Position>
            <AltitudeMeters>406.600006103515625</AltitudeMeters>
            <DistanceMeters>NAN</DistanceMeters>
          </Trackpoint>
          <Trackpoint>
            <Time>2021-04-03T10:13:02.000Z</Time>
            <Position>
              <LatitudeDegrees>42.29598370380699634552001953125</LatitudeDegrees>
              <LongitudeDegrees>2.53903797827661037445068359375</LongitudeDegrees>
            </Position>
            <AltitudeMeters>407</AltitudeMeters>
            <DistanceMeters>NAN</DistanceMeters>
          </Trackpoint>
          <Trackpoint>
            <Time>2021-04-03T10:13:03.000Z</Time>
            <Position>
              <LatitudeDegrees>42.2959881462156772613525390625</LatitudeDegrees>
              <LongitudeDegrees>2.539027668535709381103515625</LongitudeDegrees>
            </Position>
            <AltitudeMeters>407</AltitudeMeters>
            <DistanceMeters>NAN</DistanceMeters>
          </Trackpoint>
          <Trackpoint>
            <Time>2021-04-03T10:13:05.000Z</Time>
            <Position>
              <LatitudeDegrees>42.29598085395991802215576171875</LatitudeDegrees>
              <LongitudeDegrees>2.53900210373103618621826171875</LongitudeDegrees>
            </Position>
            <AltitudeMeters>407.399993896484375</AltitudeMeters>
            <DistanceMeters>NAN</DistanceMeters>
          </Trackpoint>
          <Trackpoint>
            <Time>2021-04-03T10:13:07.000Z</Time>
            <Position>
              <LatitudeDegrees>42.2959680296480655670166015625</LatitudeDegrees>
              <LongitudeDegrees>2.53898098133504390716552734375</LongitudeDegrees>
            </Position>
            <AltitudeMeters>407.600006103515625</AltitudeMeters>
            <DistanceMeters>NAN</DistanceMeters>
          </Trackpoint>
          <Trackpoint>
            <Time>2021-04-03T10:13:09.000Z</Time>
            <Position>
              <LatitudeDegrees>42.29596610181033611297607421875</LatitudeDegrees>
              <LongitudeDegrees>2.53896899521350860595703125</LongitudeDegrees>
            </Position>
            <AltitudeMeters>407.79998779296875</AltitudeMeters>
            <DistanceMeters>NAN</DistanceMeters>
          </Trackpoint>
          <Trackpoint>
            <Time>2021-04-03T10:13:10.000Z</Time>
            <Position>
              <LatitudeDegrees>42.29595503769814968109130859375</LatitudeDegrees>
              <LongitudeDegrees>2.5389527343213558197021484375</LongitudeDegrees>
            </Position>
            <AltitudeMeters>408</AltitudeMeters>
            <DistanceMeters>NAN</DistanceMeters>
          </Trackpoint>
          <Trackpoint>
            <Time>2021-04-03T10:13:14.000Z</Time>
            <Position>
              <LatitudeDegrees>42.29595872573554515838623046875</LatitudeDegrees>
              <LongitudeDegrees>2.53890822641551494598388671875</LongitudeDegrees>
            </Position>
            <AltitudeMeters>408.399993896484375</AltitudeMeters>
            <DistanceMeters>NAN</DistanceMeters>
          </Trackpoint>
          <Trackpoint>
            <Time>2021-04-03T10:13:16.000Z</Time>
            <Position>
              <LatitudeDegrees>42.2959676943719387054443359375</LatitudeDegrees>
              <LongitudeDegrees>2.53889850340783596038818359375</LongitudeDegrees>
            </Position>
            <AltitudeMeters>408.600006103515625</AltitudeMeters>
            <DistanceMeters>NAN</DistanceMeters>
          </Trackpoint>
          <Trackpoint>
            <Time>2021-04-03T10:13:17.000Z</Time>
            <Position>
              <LatitudeDegrees>42.29597364552319049835205078125</LatitudeDegrees>
              <LongitudeDegrees>2.538889534771442413330078125</LongitudeDegrees>
            </Position>
            <AltitudeMeters>408.600006103515625</AltitudeMeters>
            <DistanceMeters>NAN</DistanceMeters>
          </Trackpoint>
          <Trackpoint>
            <Time>2021-04-03T10:13:19.000Z</Time>
            <Position>
              <LatitudeDegrees>42.295978255569934844970703125</LatitudeDegrees>
              <LongitudeDegrees>2.53887319006025791168212890625</LongitudeDegrees>
            </Position>
            <AltitudeMeters>409.20001220703125</AltitudeMeters>
            <DistanceMeters>NAN</DistanceMeters>
          </Trackpoint>
          <Trackpoint>
            <Time>2021-04-03T10:13:21.000Z</Time>
            <Position>
              <LatitudeDegrees>42.2959767468273639678955078125</LatitudeDegrees>
              <LongitudeDegrees>2.53886044956743717193603515625</LongitudeDegrees>
            </Position>
            <AltitudeMeters>409.399993896484375</AltitudeMeters>
            <DistanceMeters>NAN</DistanceMeters>
          </Trackpoint>
          <Trackpoint>
            <Time>2021-04-03T10:13:23.000Z</Time>
            <Position>
              <LatitudeDegrees>42.29595579206943511962890625</LatitudeDegrees>
              <LongitudeDegrees>2.53884385339915752410888671875</LongitudeDegrees>
            </Position>
            <AltitudeMeters>409.79998779296875</AltitudeMeters>
            <DistanceMeters>NAN</DistanceMeters>
          </Trackpoint>
          <Trackpoint>
            <Time>2021-04-03T10:13:24.000Z</Time>
            <Position>
              <LatitudeDegrees>42.29594665579497814178466796875</LatitudeDegrees>
              <LongitudeDegrees>2.53883312456309795379638671875</LongitudeDegrees>
            </Position>
            <AltitudeMeters>410</AltitudeMeters>
            <DistanceMeters>NAN</DistanceMeters>
          </Trackpoint>
          <Trackpoint>
            <Time>2021-04-03T10:13:26.000Z</Time>
            <Position>
              <LatitudeDegrees>42.295936010777950286865234375</LatitudeDegrees>
              <LongitudeDegrees>2.5388142652809619903564453125</LongitudeDegrees>
            </Position>
            <AltitudeMeters>410.20001220703125</AltitudeMeters>
            <DistanceMeters>NAN</DistanceMeters>
          </Trackpoint>
          <Trackpoint>
            <Time>2021-04-03T10:13:27.000Z</Time>
            <Position>
              <LatitudeDegrees>42.295939028263092041015625</LatitudeDegrees>
              <LongitudeDegrees>2.5388060510158538818359375</LongitudeDegrees>
            </Position>
            <AltitudeMeters>410.399993896484375</AltitudeMeters>
            <DistanceMeters>NAN</DistanceMeters>
          </Trackpoint>
          <Trackpoint>
            <Time>2021-04-03T10:13:28.000Z</Time>
            <Position>
              <LatitudeDegrees>42.29594062082469463348388671875</LatitudeDegrees>
              <LongitudeDegrees>2.53879859112203121185302734375</LongitudeDegrees>
            </Position>
            <AltitudeMeters>410.600006103515625</AltitudeMeters>
            <DistanceMeters>NAN</DistanceMeters>
          </Trackpoint>
          <Trackpoint>
            <Time>2021-04-03T10:13:29.000Z</Time>
            <Position>
              <LatitudeDegrees>42.295938022434711456298828125</LatitudeDegrees>
              <LongitudeDegrees>2.53878903575241565704345703125</LongitudeDegrees>
            </Position>
            <AltitudeMeters>410.600006103515625</AltitudeMeters>
            <DistanceMeters>NAN</DistanceMeters>
          </Trackpoint>
          <Trackpoint>
            <Time>2021-04-03T10:13:32.000Z</Time>
            <Position>
              <LatitudeDegrees>42.2959375195205211639404296875</LatitudeDegrees>
              <LongitudeDegrees>2.538760788738727569580078125</LongitudeDegrees>
            </Position>
            <AltitudeMeters>411.20001220703125</AltitudeMeters>
            <DistanceMeters>NAN</DistanceMeters>
          </Trackpoint>
          <Trackpoint>
            <Time>2021-04-03T10:13:35.000Z</Time>
            <Position>
              <LatitudeDegrees>42.295929975807666778564453125</LatitudeDegrees>
              <LongitudeDegrees>2.53873606212437152862548828125</LongitudeDegrees>
            </Position>
            <AltitudeMeters>411.600006103515625</AltitudeMeters>
            <DistanceMeters>NAN</DistanceMeters>
          </Trackpoint>
          <Trackpoint>
            <Time>2021-04-03T10:13:36.000Z</Time>
            <Position>
              <LatitudeDegrees>42.2959301434457302093505859375</LatitudeDegrees>
              <LongitudeDegrees>2.53873723559081554412841796875</LongitudeDegrees>
            </Position>
            <AltitudeMeters>411.600006103515625</AltitudeMeters>
            <DistanceMeters>NAN</DistanceMeters>
          </Trackpoint>
          <Trackpoint>
            <Time>2021-04-03T10:13:41.000Z</Time>
            <Position>
              <LatitudeDegrees>42.29592218063771724700927734375</LatitudeDegrees>
              <LongitudeDegrees>2.53871041350066661834716796875</LongitudeDegrees>
            </Position>
            <AltitudeMeters>412.20001220703125</AltitudeMeters>
            <DistanceMeters>NAN</DistanceMeters>
          </Trackpoint>
          <Trackpoint>
            <Time>2021-04-03T10:13:44.000Z</Time>
            <Position>
              <LatitudeDegrees>42.29591824114322662353515625</LatitudeDegrees>
              <LongitudeDegrees>2.53869163803756237030029296875</LongitudeDegrees>
            </Position>
            <AltitudeMeters>412.79998779296875</AltitudeMeters>
            <DistanceMeters>NAN</DistanceMeters>
          </Trackpoint>
          <Trackpoint>
            <Time>2021-04-03T10:13:49.000Z</Time>
            <Position>
              <LatitudeDegrees>42.295937351882457733154296875</LatitudeDegrees>
              <LongitudeDegrees>2.5386640615761280059814453125</LongitudeDegrees>
            </Position>
            <AltitudeMeters>413.399993896484375</AltitudeMeters>
            <DistanceMeters>NAN</DistanceMeters>
          </Trackpoint>
          <Trackpoint>
            <Time>2021-04-03T10:13:53.000Z</Time>
            <Position>
              <LatitudeDegrees>42.29594129137694835662841796875</LatitudeDegrees>
              <LongitudeDegrees>2.53863246180117130279541015625</LongitudeDegrees>
            </Position>
            <AltitudeMeters>413.79998779296875</AltitudeMeters>
            <DistanceMeters>NAN</DistanceMeters>
          </Trackpoint>
          <Trackpoint>
            <Time>2021-04-03T10:13:57.000Z</Time>
            <Position>
              <LatitudeDegrees>42.29593693278729915618896484375</LatitudeDegrees>
              <LongitudeDegrees>2.53860161639750003814697265625</LongitudeDegrees>
            </Position>
            <AltitudeMeters>414.399993896484375</AltitudeMeters>
            <DistanceMeters>NAN</DistanceMeters>
          </Trackpoint>
          <Trackpoint>
            <Time>2021-04-03T10:13:59.000Z</Time>
            <Position>
              <LatitudeDegrees>42.29593978263437747955322265625</LatitudeDegrees>
              <LongitudeDegrees>2.538580410182476043701171875</LongitudeDegrees>
            </Position>
            <AltitudeMeters>414.600006103515625</AltitudeMeters>
            <DistanceMeters>NAN</DistanceMeters>
          </Trackpoint>
          <Trackpoint>
            <Time>2021-04-03T10:14:04.000Z</Time>
            <Position>
              <LatitudeDegrees>42.29593190364539623260498046875</LatitudeDegrees>
              <LongitudeDegrees>2.5385326333343982696533203125</LongitudeDegrees>
            </Position>
            <AltitudeMeters>415.20001220703125</AltitudeMeters>
            <DistanceMeters>NAN</DistanceMeters>
          </Trackpoint>
          <Trackpoint>
            <Time>2021-04-03T10:14:06.000Z</Time>
            <Position>
              <LatitudeDegrees>42.295924611389636993408203125</LatitudeDegrees>
              <LongitudeDegrees>2.53850723616778850555419921875</LongitudeDegrees>
            </Position>
            <AltitudeMeters>415.399993896484375</AltitudeMeters>
            <DistanceMeters>NAN</DistanceMeters>
          </Trackpoint>
          <Trackpoint>
            <Time>2021-04-03T10:14:13.000Z</Time>
            <Position>
              <LatitudeDegrees>42.29586459696292877197265625</LatitudeDegrees>
              <LongitudeDegrees>2.538397349417209625244140625</LongitudeDegrees>
            </Position>
            <AltitudeMeters>416.399993896484375</AltitudeMeters>
            <DistanceMeters>NAN</DistanceMeters>
          </Trackpoint>
          <Trackpoint>
            <Time>2021-04-03T10:14:14.000Z</Time>
            <Position>
              <LatitudeDegrees>42.2958607412874698638916015625</LatitudeDegrees>
              <LongitudeDegrees>2.53839240409433841705322265625</LongitudeDegrees>
            </Position>
            <AltitudeMeters>416.399993896484375</AltitudeMeters>
            <DistanceMeters>NAN</DistanceMeters>
          </Trackpoint>
          <Trackpoint>
            <Time>2021-04-03T10:14:19.000Z</Time>
            <Position>
              <LatitudeDegrees>42.29584473185241222381591796875</LatitudeDegrees>
              <LongitudeDegrees>2.53833322785794734954833984375</LongitudeDegrees>
            </Position>
            <AltitudeMeters>417</AltitudeMeters>
            <DistanceMeters>NAN</DistanceMeters>
          </Trackpoint>
          <Trackpoint>
            <Time>2021-04-03T10:14:21.000Z</Time>
            <Position>
              <LatitudeDegrees>42.29587725363671779632568359375</LatitudeDegrees>
              <LongitudeDegrees>2.538316883146762847900390625</LongitudeDegrees>
            </Position>
            <AltitudeMeters>417.399993896484375</AltitudeMeters>
            <DistanceMeters>NAN</DistanceMeters>
          </Trackpoint>
          <Trackpoint>
            <Time>2021-04-03T10:14:23.000Z</Time>
            <Position>
              <LatitudeDegrees>42.29588379152119159698486328125</LatitudeDegrees>
              <LongitudeDegrees>2.538296096026897430419921875</LongitudeDegrees>
            </Position>
            <AltitudeMeters>417.600006103515625</AltitudeMeters>
            <DistanceMeters>NAN</DistanceMeters>
          </Trackpoint>
          <Trackpoint>
            <Time>2021-04-03T10:14:26.000Z</Time>
            <Position>
              <LatitudeDegrees>42.29588873684406280517578125</LatitudeDegrees>
              <LongitudeDegrees>2.53827321343123912811279296875</LongitudeDegrees>
            </Position>
            <AltitudeMeters>417.79998779296875</AltitudeMeters>
            <DistanceMeters>NAN</DistanceMeters>
          </Trackpoint>
          <Trackpoint>
            <Time>2021-04-03T10:14:35.000Z</Time>
            <Position>
              <LatitudeDegrees>42.295907177031040191650390625</LatitudeDegrees>
              <LongitudeDegrees>2.53817698918282985687255859375</LongitudeDegrees>
            </Position>
            <AltitudeMeters>418.399993896484375</AltitudeMeters>
            <DistanceMeters>NAN</DistanceMeters>
          </Trackpoint>
          <Trackpoint>
            <Time>2021-04-03T10:14:39.000Z</Time>
            <Position>
              <LatitudeDegrees>42.29590608738362789154052734375</LatitudeDegrees>
              <LongitudeDegrees>2.5381665118038654327392578125</LongitudeDegrees>
            </Position>
            <AltitudeMeters>418.600006103515625</AltitudeMeters>
            <DistanceMeters>NAN</DistanceMeters>
          </Trackpoint>
          <Trackpoint>
            <Time>2021-04-03T10:14:40.000Z</Time>
            <Position>
              <LatitudeDegrees>42.29589988477528095245361328125</LatitudeDegrees>
              <LongitudeDegrees>2.53815905191004276275634765625</LongitudeDegrees>
            </Position>
            <AltitudeMeters>418.600006103515625</AltitudeMeters>
            <DistanceMeters>NAN</DistanceMeters>
          </Trackpoint>
          <Trackpoint>
            <Time>2021-04-03T10:14:47.000Z</Time>
            <Position>
              <LatitudeDegrees>42.2959009744226932525634765625</LatitudeDegrees>
              <LongitudeDegrees>2.53807959146797657012939453125</LongitudeDegrees>
            </Position>
            <AltitudeMeters>419.399993896484375</AltitudeMeters>
            <DistanceMeters>NAN</DistanceMeters>
          </Trackpoint>
          <Trackpoint>
            <Time>2021-04-03T10:14:50.000Z</Time>
            <Position>
              <LatitudeDegrees>42.29587608017027378082275390625</LatitudeDegrees>
              <LongitudeDegrees>2.53802209161221981048583984375</LongitudeDegrees>
            </Position>
            <AltitudeMeters>419.600006103515625</AltitudeMeters>
            <DistanceMeters>NAN</DistanceMeters>
          </Trackpoint>
          <Trackpoint>
            <Time>2021-04-03T10:14:53.000Z</Time>
            <Position>
              <LatitudeDegrees>42.2958738170564174652099609375</LatitudeDegrees>
              <LongitudeDegrees>2.537955455482006072998046875</LongitudeDegrees>
            </Position>
            <AltitudeMeters>420</AltitudeMeters>
            <DistanceMeters>NAN</DistanceMeters>
          </Trackpoint>
          <Trackpoint>
            <Time>2021-04-03T10:14:57.000Z</Time>
            <Position>
              <LatitudeDegrees>42.29588144458830356597900390625</LatitudeDegrees>
              <LongitudeDegrees>2.53789552487432956695556640625</LongitudeDegrees>
            </Position>
            <AltitudeMeters>420.399993896484375</AltitudeMeters>
            <DistanceMeters>NAN</DistanceMeters>
          </Trackpoint>
          <Trackpoint>
            <Time>2021-04-03T10:15:00.000Z</Time>
            <Position>
              <LatitudeDegrees>42.2958679497241973876953125</LatitudeDegrees>
              <LongitudeDegrees>2.53785110078752040863037109375</LongitudeDegrees>
            </Position>
            <AltitudeMeters>420.600006103515625</AltitudeMeters>
            <DistanceMeters>NAN</DistanceMeters>
          </Trackpoint>
          <Trackpoint>
            <Time>2021-04-03T10:15:02.000Z</Time>
            <Position>
              <LatitudeDegrees>42.295860908925533294677734375</LatitudeDegrees>
              <LongitudeDegrees>2.53782863728702068328857421875</LongitudeDegrees>
            </Position>
            <AltitudeMeters>420.79998779296875</AltitudeMeters>
            <DistanceMeters>NAN</DistanceMeters>
          </Trackpoint>
          <Trackpoint>
            <Time>2021-04-03T10:15:04.000Z</Time>
            <Position>
              <LatitudeDegrees>42.2958503477275371551513671875</LatitudeDegrees>
              <LongitudeDegrees>2.537806592881679534912109375</LongitudeDegrees>
            </Position>
            <AltitudeMeters>421</AltitudeMeters>
            <DistanceMeters>NAN</DistanceMeters>
          </Trackpoint>
          <Trackpoint>
            <Time>2021-04-03T10:15:11.000Z</Time>
            <Position>
              <LatitudeDegrees>42.2958469949662685394287109375</LatitudeDegrees>
              <LongitudeDegrees>2.53776007331907749176025390625</LongitudeDegrees>
            </Position>
            <AltitudeMeters>421.79998779296875</AltitudeMeters>
            <DistanceMeters>NAN</DistanceMeters>
          </Trackpoint>
          <Trackpoint>
            <Time>2021-04-03T10:15:12.000Z</Time>
            <Position>
              <LatitudeDegrees>42.2958456538617610931396484375</LatitudeDegrees>
              <LongitudeDegrees>2.53775202669203281402587890625</LongitudeDegrees>
            </Position>
            <AltitudeMeters>421.79998779296875</AltitudeMeters>
            <DistanceMeters>NAN</DistanceMeters>
          </Trackpoint>
          <Trackpoint>
            <Time>2021-04-03T10:15:17.000Z</Time>
            <Position>
              <LatitudeDegrees>42.29583266191184520721435546875</LatitudeDegrees>
              <LongitudeDegrees>2.5376870669424533843994140625</LongitudeDegrees>
            </Position>
            <AltitudeMeters>422.20001220703125</AltitudeMeters>
            <DistanceMeters>NAN</DistanceMeters>
          </Trackpoint>
          <Trackpoint>
            <Time>2021-04-03T10:15:21.000Z</Time>
            <Position>
              <LatitudeDegrees>42.2958201728761196136474609375</LatitudeDegrees>
              <LongitudeDegrees>2.53762763924896717071533203125</LongitudeDegrees>
            </Position>
            <AltitudeMeters>422.20001220703125</AltitudeMeters>
            <DistanceMeters>NAN</DistanceMeters>
          </Trackpoint>
          <Trackpoint>
            <Time>2021-04-03T10:15:23.000Z</Time>
            <Position>
              <LatitudeDegrees>42.29582243598997592926025390625</LatitudeDegrees>
              <LongitudeDegrees>2.53761112689971923828125</LongitudeDegrees>
            </Position>
            <AltitudeMeters>422.399993896484375</AltitudeMeters>
            <DistanceMeters>NAN</DistanceMeters>
          </Trackpoint>
          <Trackpoint>
            <Time>2021-04-03T10:15:25.000Z</Time>
            <Position>
              <LatitudeDegrees>42.29582126252353191375732421875</LatitudeDegrees>
              <LongitudeDegrees>2.53759478218853473663330078125</LongitudeDegrees>
            </Position>
            <AltitudeMeters>422.79998779296875</AltitudeMeters>
            <DistanceMeters>NAN</DistanceMeters>
          </Trackpoint>
          <Trackpoint>
            <Time>2021-04-03T10:15:28.000Z</Time>
            <Position>
              <LatitudeDegrees>42.29582436382770538330078125</LatitudeDegrees>
              <LongitudeDegrees>2.53756309859454631805419921875</LongitudeDegrees>
            </Position>
            <AltitudeMeters>423.399993896484375</AltitudeMeters>
            <DistanceMeters>NAN</DistanceMeters>
          </Trackpoint>
          <Trackpoint>
            <Time>2021-04-03T10:15:30.000Z</Time>
            <Position>
              <LatitudeDegrees>42.295818328857421875</LatitudeDegrees>
              <LongitudeDegrees>2.5375338457524776458740234375</LongitudeDegrees>
            </Position>
            <AltitudeMeters>423.79998779296875</AltitudeMeters>
            <DistanceMeters>NAN</DistanceMeters>
          </Trackpoint>
          <Trackpoint>
            <Time>2021-04-03T10:15:31.000Z</Time>
            <Position>
              <LatitudeDegrees>42.2958154790103435516357421875</LatitudeDegrees>
              <LongitudeDegrees>2.53751750104129314422607421875</LongitudeDegrees>
            </Position>
            <AltitudeMeters>424</AltitudeMeters>
            <DistanceMeters>NAN</DistanceMeters>
          </Trackpoint>
          <Trackpoint>
            <Time>2021-04-03T10:15:35.000Z</Time>
            <Position>
              <LatitudeDegrees>42.2958131320774555206298828125</LatitudeDegrees>
              <LongitudeDegrees>2.53745463676750659942626953125</LongitudeDegrees>
            </Position>
            <AltitudeMeters>424.399993896484375</AltitudeMeters>
            <DistanceMeters>NAN</DistanceMeters>
          </Trackpoint>
          <Trackpoint>
            <Time>2021-04-03T10:15:36.000Z</Time>
            <Position>
              <LatitudeDegrees>42.2958107851445674896240234375</LatitudeDegrees>
              <LongitudeDegrees>2.53744189627468585968017578125</LongitudeDegrees>
            </Position>
            <AltitudeMeters>424.399993896484375</AltitudeMeters>
            <DistanceMeters>NAN</DistanceMeters>
          </Trackpoint>
          <Trackpoint>
            <Time>2021-04-03T10:15:39.000Z</Time>
            <Position>
              <LatitudeDegrees>42.2958366014063358306884765625</LatitudeDegrees>
              <LongitudeDegrees>2.537406273186206817626953125</LongitudeDegrees>
            </Position>
            <AltitudeMeters>424.600006103515625</AltitudeMeters>
            <DistanceMeters>NAN</DistanceMeters>
          </Trackpoint>
          <Trackpoint>
            <Time>2021-04-03T10:15:41.000Z</Time>
            <Position>
              <LatitudeDegrees>42.295837104320526123046875</LatitudeDegrees>
              <LongitudeDegrees>2.53736997954547405242919921875</LongitudeDegrees>
            </Position>
            <AltitudeMeters>424.79998779296875</AltitudeMeters>
            <DistanceMeters>NAN</DistanceMeters>
          </Trackpoint>
          <Trackpoint>
            <Time>2021-04-03T10:15:43.000Z</Time>
            <Position>
              <LatitudeDegrees>42.29584045708179473876953125</LatitudeDegrees>
              <LongitudeDegrees>2.5373454205691814422607421875</LongitudeDegrees>
            </Position>
            <AltitudeMeters>424.79998779296875</AltitudeMeters>
            <DistanceMeters>NAN</DistanceMeters>
          </Trackpoint>
          <Trackpoint>
            <Time>2021-04-03T10:15:44.000Z</Time>
            <Position>
              <LatitudeDegrees>42.29583785869181156158447265625</LatitudeDegrees>
              <LongitudeDegrees>2.53733552992343902587890625</LongitudeDegrees>
            </Position>
            <AltitudeMeters>425</AltitudeMeters>
            <DistanceMeters>NAN</DistanceMeters>
          </Trackpoint>
          <Trackpoint>
            <Time>2021-04-03T10:15:45.000Z</Time>
            <Position>
              <LatitudeDegrees>42.295834086835384368896484375</LatitudeDegrees>
              <LongitudeDegrees>2.53732387907803058624267578125</LongitudeDegrees>
            </Position>
            <AltitudeMeters>425</AltitudeMeters>
            <DistanceMeters>NAN</DistanceMeters>
          </Trackpoint>
          <Trackpoint>
            <Time>2021-04-03T10:15:46.000Z</Time>
            <Position>
              <LatitudeDegrees>42.29583634994924068450927734375</LatitudeDegrees>
              <LongitudeDegrees>2.53730979748070240020751953125</LongitudeDegrees>
            </Position>
            <AltitudeMeters>425</AltitudeMeters>
            <DistanceMeters>NAN</DistanceMeters>
          </Trackpoint>
          <Trackpoint>
            <Time>2021-04-03T10:15:48.000Z</Time>
            <Position>
              <LatitudeDegrees>42.2958349250257015228271484375</LatitudeDegrees>
              <LongitudeDegrees>2.53728414885699748992919921875</LongitudeDegrees>
            </Position>
            <AltitudeMeters>425.20001220703125</AltitudeMeters>
            <DistanceMeters>NAN</DistanceMeters>
          </Trackpoint>
          <Trackpoint>
            <Time>2021-04-03T10:15:50.000Z</Time>
            <Position>
              <LatitudeDegrees>42.2958476655185222625732421875</LatitudeDegrees>
              <LongitudeDegrees>2.5372582487761974334716796875</LongitudeDegrees>
            </Position>
            <AltitudeMeters>425.20001220703125</AltitudeMeters>
            <DistanceMeters>NAN</DistanceMeters>
          </Trackpoint>
          <Trackpoint>
            <Time>2021-04-03T10:15:51.000Z</Time>
            <Position>
              <LatitudeDegrees>42.29585428722202777862548828125</LatitudeDegrees>
              <LongitudeDegrees>2.5372450053691864013671875</LongitudeDegrees>
            </Position>
            <AltitudeMeters>425.20001220703125</AltitudeMeters>
            <DistanceMeters>NAN</DistanceMeters>
          </Trackpoint>
          <Trackpoint>
            <Time>2021-04-03T10:15:59.000Z</Time>
            <Position>
              <LatitudeDegrees>42.29591396637260913848876953125</LatitudeDegrees>
              <LongitudeDegrees>2.5370999984443187713623046875</LongitudeDegrees>
            </Position>
            <AltitudeMeters>425.79998779296875</AltitudeMeters>
            <DistanceMeters>NAN</DistanceMeters>
          </Trackpoint>
          <Trackpoint>
            <Time>2021-04-03T10:16:05.000Z</Time>
            <Position>
              <LatitudeDegrees>42.29594816453754901885986328125</LatitudeDegrees>
              <LongitudeDegrees>2.53703109920024871826171875</LongitudeDegrees>
            </Position>
            <AltitudeMeters>426.20001220703125</AltitudeMeters>
            <DistanceMeters>NAN</DistanceMeters>
          </Trackpoint>
          <Trackpoint>
            <Time>2021-04-03T10:16:07.000Z</Time>
            <Position>
              <LatitudeDegrees>42.29594732634723186492919921875</LatitudeDegrees>
              <LongitudeDegrees>2.5370116531848907470703125</LongitudeDegrees>
            </Position>
            <AltitudeMeters>426.20001220703125</AltitudeMeters>
            <DistanceMeters>NAN</DistanceMeters>
          </Trackpoint>
          <Trackpoint>
            <Time>2021-04-03T10:16:09.000Z</Time>
            <Position>
              <LatitudeDegrees>42.29594699107110500335693359375</LatitudeDegrees>
              <LongitudeDegrees>2.53699011169373989105224609375</LongitudeDegrees>
            </Position>
            <AltitudeMeters>426.399993896484375</AltitudeMeters>
            <DistanceMeters>NAN</DistanceMeters>
          </Trackpoint>
          <Trackpoint>
            <Time>2021-04-03T10:16:14.000Z</Time>
            <Position>
              <LatitudeDegrees>42.29596786201000213623046875</LatitudeDegrees>
              <LongitudeDegrees>2.5369285047054290771484375</LongitudeDegrees>
            </Position>
            <AltitudeMeters>426.399993896484375</AltitudeMeters>
            <DistanceMeters>NAN</DistanceMeters>
          </Trackpoint>
          <Trackpoint>
            <Time>2021-04-03T10:16:21.000Z</Time>
            <Position>
              <LatitudeDegrees>42.29595319367945194244384765625</LatitudeDegrees>
              <LongitudeDegrees>2.53686388023197650909423828125</LongitudeDegrees>
            </Position>
            <AltitudeMeters>427</AltitudeMeters>
            <DistanceMeters>NAN</DistanceMeters>
          </Trackpoint>
          <Trackpoint>
            <Time>2021-04-03T10:16:23.000Z</Time>
            <Position>
              <LatitudeDegrees>42.2959469072520732879638671875</LatitudeDegrees>
              <LongitudeDegrees>2.53684393130242824554443359375</LongitudeDegrees>
            </Position>
            <AltitudeMeters>427.20001220703125</AltitudeMeters>
            <DistanceMeters>NAN</DistanceMeters>
          </Trackpoint>
          <Trackpoint>
            <Time>2021-04-03T10:16:27.000Z</Time>
            <Position>
              <LatitudeDegrees>42.29597498662769794464111328125</LatitudeDegrees>
              <LongitudeDegrees>2.53680923022329807281494140625</LongitudeDegrees>
            </Position>
            <AltitudeMeters>427.399993896484375</AltitudeMeters>
            <DistanceMeters>NAN</DistanceMeters>
          </Trackpoint>
          <Trackpoint>
            <Time>2021-04-03T10:16:30.000Z</Time>
            <Position>
              <LatitudeDegrees>42.29596861638128757476806640625</LatitudeDegrees>
              <LongitudeDegrees>2.5367603637278079986572265625</LongitudeDegrees>
            </Position>
            <AltitudeMeters>427.600006103515625</AltitudeMeters>
            <DistanceMeters>NAN</DistanceMeters>
          </Trackpoint>
          <Trackpoint>
            <Time>2021-04-03T10:16:33.000Z</Time>
            <Position>
              <LatitudeDegrees>42.29598051868379116058349609375</LatitudeDegrees>
              <LongitudeDegrees>2.536718957126140594482421875</LongitudeDegrees>
            </Position>
            <AltitudeMeters>428</AltitudeMeters>
            <DistanceMeters>NAN</DistanceMeters>
          </Trackpoint>
          <Trackpoint>
            <Time>2021-04-03T10:16:34.000Z</Time>
            <Position>
              <LatitudeDegrees>42.29597280733287334442138671875</LatitudeDegrees>
              <LongitudeDegrees>2.53670898266136646270751953125</LongitudeDegrees>
            </Position>
            <AltitudeMeters>428</AltitudeMeters>
            <DistanceMeters>NAN</DistanceMeters>
          </Trackpoint>
          <Trackpoint>
            <Time>2021-04-03T10:16:35.000Z</Time>
            <Position>
              <LatitudeDegrees>42.29597431607544422149658203125</LatitudeDegrees>
              <LongitudeDegrees>2.53670412115752696990966796875</LongitudeDegrees>
            </Position>
            <AltitudeMeters>428.20001220703125</AltitudeMeters>
            <DistanceMeters>NAN</DistanceMeters>
          </Trackpoint>
          <Trackpoint>
            <Time>2021-04-03T10:16:36.000Z</Time>
            <Position>
              <LatitudeDegrees>42.29597465135157108306884765625</LatitudeDegrees>
              <LongitudeDegrees>2.53669892437756061553955078125</LongitudeDegrees>
            </Position>
            <AltitudeMeters>428.20001220703125</AltitudeMeters>
            <DistanceMeters>NAN</DistanceMeters>
          </Trackpoint>
          <Trackpoint>
            <Time>2021-04-03T10:16:38.000Z</Time>
            <Position>
              <LatitudeDegrees>42.2959687002003192901611328125</LatitudeDegrees>
              <LongitudeDegrees>2.536675371229648590087890625</LongitudeDegrees>
            </Position>
            <AltitudeMeters>428.399993896484375</AltitudeMeters>
            <DistanceMeters>NAN</DistanceMeters>
          </Trackpoint>
          <Trackpoint>
            <Time>2021-04-03T10:16:39.000Z</Time>
            <Position>
              <LatitudeDegrees>42.295976579189300537109375</LatitudeDegrees>
              <LongitudeDegrees>2.53666657023131847381591796875</LongitudeDegrees>
            </Position>
            <AltitudeMeters>428.399993896484375</AltitudeMeters>
            <DistanceMeters>NAN</DistanceMeters>
          </Trackpoint>
          <Trackpoint>
            <Time>2021-04-03T10:16:43.000Z</Time>
            <Position>
              <LatitudeDegrees>42.29599225334823131561279296875</LatitudeDegrees>
              <LongitudeDegrees>2.5366161949932575225830078125</LongitudeDegrees>
            </Position>
            <AltitudeMeters>429</AltitudeMeters>
            <DistanceMeters>NAN</DistanceMeters>
          </Trackpoint>
          <Trackpoint>
            <Time>2021-04-03T10:16:45.000Z</Time>
            <Position>
              <LatitudeDegrees>42.29599074460566043853759765625</LatitudeDegrees>
              <LongitudeDegrees>2.5365959107875823974609375</LongitudeDegrees>
            </Position>
            <AltitudeMeters>429</AltitudeMeters>
            <DistanceMeters>NAN</DistanceMeters>
          </Trackpoint>
          <Trackpoint>
            <Time>2021-04-03T10:16:46.000Z</Time>
            <Position>
              <LatitudeDegrees>42.2959884814918041229248046875</LatitudeDegrees>
              <LongitudeDegrees>2.5365846790373325347900390625</LongitudeDegrees>
            </Position>
            <AltitudeMeters>429.20001220703125</AltitudeMeters>
            <DistanceMeters>NAN</DistanceMeters>
          </Trackpoint>
          <Trackpoint>
            <Time>2021-04-03T10:16:48.000Z</Time>
            <Position>
              <LatitudeDegrees>42.29598470963537693023681640625</LatitudeDegrees>
              <LongitudeDegrees>2.53655903041362762451171875</LongitudeDegrees>
            </Position>
            <AltitudeMeters>429.399993896484375</AltitudeMeters>
            <DistanceMeters>NAN</DistanceMeters>
          </Trackpoint>
          <Trackpoint>
            <Time>2021-04-03T10:16:50.000Z</Time>
            <Position>
              <LatitudeDegrees>42.2959779202938079833984375</LatitudeDegrees>
              <LongitudeDegrees>2.536531202495098114013671875</LongitudeDegrees>
            </Position>
            <AltitudeMeters>429.600006103515625</AltitudeMeters>
            <DistanceMeters>NAN</DistanceMeters>
          </Trackpoint>
          <Trackpoint>
            <Time>2021-04-03T10:16:51.000Z</Time>
            <Position>
              <LatitudeDegrees>42.29597766883671283721923828125</LatitudeDegrees>
              <LongitudeDegrees>2.536523155868053436279296875</LongitudeDegrees>
            </Position>
            <AltitudeMeters>429.600006103515625</AltitudeMeters>
            <DistanceMeters>NAN</DistanceMeters>
          </Trackpoint>
          <Trackpoint>
            <Time>2021-04-03T10:16:52.000Z</Time>
            <Position>
              <LatitudeDegrees>42.29598068632185459136962890625</LatitudeDegrees>
              <LongitudeDegrees>2.5365179590880870819091796875</LongitudeDegrees>
            </Position>
            <AltitudeMeters>429.79998779296875</AltitudeMeters>
            <DistanceMeters>NAN</DistanceMeters>
          </Trackpoint>
          <Trackpoint>
            <Time>2021-04-03T10:16:56.000Z</Time>
            <Position>
              <LatitudeDegrees>42.295980267226696014404296875</LatitudeDegrees>
              <LongitudeDegrees>2.5364644825458526611328125</LongitudeDegrees>
            </Position>
            <AltitudeMeters>430</AltitudeMeters>
            <DistanceMeters>NAN</DistanceMeters>
          </Trackpoint>
          <Trackpoint>
            <Time>2021-04-03T10:17:00.000Z</Time>
            <Position>
              <LatitudeDegrees>42.29597917757928371429443359375</LatitudeDegrees>
              <LongitudeDegrees>2.53641410730779170989990234375</LongitudeDegrees>
            </Position>
            <AltitudeMeters>430.20001220703125</AltitudeMeters>
            <DistanceMeters>NAN</DistanceMeters>
          </Trackpoint>
          <Trackpoint>
            <Time>2021-04-03T10:17:03.000Z</Time>
            <Position>
              <LatitudeDegrees>42.295977585017681121826171875</LatitudeDegrees>
              <LongitudeDegrees>2.53637974150478839874267578125</LongitudeDegrees>
            </Position>
            <AltitudeMeters>430.600006103515625</AltitudeMeters>
            <DistanceMeters>NAN</DistanceMeters>
          </Trackpoint>
          <Trackpoint>
            <Time>2021-04-03T10:17:05.000Z</Time>
            <Position>
              <LatitudeDegrees>42.2959790937602519989013671875</LatitudeDegrees>
              <LongitudeDegrees>2.536338753998279571533203125</LongitudeDegrees>
            </Position>
            <AltitudeMeters>430.79998779296875</AltitudeMeters>
            <DistanceMeters>NAN</DistanceMeters>
          </Trackpoint>
          <Trackpoint>
            <Time>2021-04-03T10:17:08.000Z</Time>
            <Position>
              <LatitudeDegrees>42.2959965281188488006591796875</LatitudeDegrees>
              <LongitudeDegrees>2.53631553612649440765380859375</LongitudeDegrees>
            </Position>
            <AltitudeMeters>431.20001220703125</AltitudeMeters>
            <DistanceMeters>NAN</DistanceMeters>
          </Trackpoint>
          <Trackpoint>
            <Time>2021-04-03T10:17:09.000Z</Time>
            <Position>
              <LatitudeDegrees>42.29600482620298862457275390625</LatitudeDegrees>
              <LongitudeDegrees>2.53630581311881542205810546875</LongitudeDegrees>
            </Position>
            <AltitudeMeters>431.399993896484375</AltitudeMeters>
            <DistanceMeters>NAN</DistanceMeters>
          </Trackpoint>
          <Trackpoint>
            <Time>2021-04-03T10:17:11.000Z</Time>
            <Position>
              <LatitudeDegrees>42.296007759869098663330078125</LatitudeDegrees>
              <LongitudeDegrees>2.5362825952470302581787109375</LongitudeDegrees>
            </Position>
            <AltitudeMeters>431.600006103515625</AltitudeMeters>
            <DistanceMeters>NAN</DistanceMeters>
          </Trackpoint>
          <Trackpoint>
            <Time>2021-04-03T10:17:15.000Z</Time>
            <Position>
              <LatitudeDegrees>42.29602125473320484161376953125</LatitudeDegrees>
              <LongitudeDegrees>2.53622199408710002899169921875</LongitudeDegrees>
            </Position>
            <AltitudeMeters>432</AltitudeMeters>
            <DistanceMeters>NAN</DistanceMeters>
          </Trackpoint>
          <Trackpoint>
            <Time>2021-04-03T10:17:16.000Z</Time>
            <Position>
              <LatitudeDegrees>42.29603164829313755035400390625</LatitudeDegrees>
              <LongitudeDegrees>2.53621838986873626708984375</LongitudeDegrees>
            </Position>
            <AltitudeMeters>432.20001220703125</AltitudeMeters>
            <DistanceMeters>NAN</DistanceMeters>
          </Trackpoint>
          <Trackpoint>
            <Time>2021-04-03T10:17:19.000Z</Time>
            <Position>
              <LatitudeDegrees>42.29604019783437252044677734375</LatitudeDegrees>
              <LongitudeDegrees>2.536180503666400909423828125</LongitudeDegrees>
            </Position>
            <AltitudeMeters>432.399993896484375</AltitudeMeters>
            <DistanceMeters>NAN</DistanceMeters>
          </Trackpoint>
          <Trackpoint>
            <Time>2021-04-03T10:17:20.000Z</Time>
            <Position>
              <LatitudeDegrees>42.2960545308887958526611328125</LatitudeDegrees>
              <LongitudeDegrees>2.53617321141064167022705078125</LongitudeDegrees>
            </Position>
            <AltitudeMeters>432.399993896484375</AltitudeMeters>
            <DistanceMeters>NAN</DistanceMeters>
          </Trackpoint>
          <Trackpoint>
            <Time>2021-04-03T10:17:22.000Z</Time>
            <Position>
              <LatitudeDegrees>42.29606417007744312286376953125</LatitudeDegrees>
              <LongitudeDegrees>2.5361555255949497222900390625</LongitudeDegrees>
            </Position>
            <AltitudeMeters>432.600006103515625</AltitudeMeters>
            <DistanceMeters>NAN</DistanceMeters>
          </Trackpoint>
          <Trackpoint>
            <Time>2021-04-03T10:17:26.000Z</Time>
            <Position>
              <LatitudeDegrees>42.2960592247545719146728515625</LatitudeDegrees>
              <LongitudeDegrees>2.53610732965171337127685546875</LongitudeDegrees>
            </Position>
            <AltitudeMeters>433</AltitudeMeters>
            <DistanceMeters>NAN</DistanceMeters>
          </Trackpoint>
          <Trackpoint>
            <Time>2021-04-03T10:17:27.000Z</Time>
            <Position>
              <LatitudeDegrees>42.29605763219296932220458984375</LatitudeDegrees>
              <LongitudeDegrees>2.53609525971114635467529296875</LongitudeDegrees>
            </Position>
            <AltitudeMeters>433</AltitudeMeters>
            <DistanceMeters>NAN</DistanceMeters>
          </Trackpoint>
          <Trackpoint>
            <Time>2021-04-03T10:17:28.000Z</Time>
            <Position>
              <LatitudeDegrees>42.29605159722268581390380859375</LatitudeDegrees>
              <LongitudeDegrees>2.5360877998173236846923828125</LongitudeDegrees>
            </Position>
            <AltitudeMeters>433.20001220703125</AltitudeMeters>
            <DistanceMeters>NAN</DistanceMeters>
          </Trackpoint>
          <Trackpoint>
            <Time>2021-04-03T10:17:29.000Z</Time>
            <Position>
              <LatitudeDegrees>42.29604707099497318267822265625</LatitudeDegrees>
              <LongitudeDegrees>2.53608017228543758392333984375</LongitudeDegrees>
            </Position>
            <AltitudeMeters>433.20001220703125</AltitudeMeters>
            <DistanceMeters>NAN</DistanceMeters>
          </Trackpoint>
          <Trackpoint>
            <Time>2021-04-03T10:17:31.000Z</Time>
            <Position>
              <LatitudeDegrees>42.29604899883270263671875</LatitudeDegrees>
              <LongitudeDegrees>2.53605209290981292724609375</LongitudeDegrees>
            </Position>
            <AltitudeMeters>433.20001220703125</AltitudeMeters>
            <DistanceMeters>NAN</DistanceMeters>
          </Trackpoint>
          <Trackpoint>
            <Time>2021-04-03T10:17:35.000Z</Time>
            <Position>
              <LatitudeDegrees>42.29605830274522304534912109375</LatitudeDegrees>
              <LongitudeDegrees>2.53600892610847949981689453125</LongitudeDegrees>
            </Position>
            <AltitudeMeters>433.399993896484375</AltitudeMeters>
            <DistanceMeters>NAN</DistanceMeters>
          </Trackpoint>
          <Trackpoint>
            <Time>2021-04-03T10:17:38.000Z</Time>
            <Position>
              <LatitudeDegrees>42.29606802575290203094482421875</LatitudeDegrees>
              <LongitudeDegrees>2.53596760332584381103515625</LongitudeDegrees>
            </Position>
            <AltitudeMeters>433.600006103515625</AltitudeMeters>
            <DistanceMeters>NAN</DistanceMeters>
          </Trackpoint>
          <Trackpoint>
            <Time>2021-04-03T10:17:43.000Z</Time>
            <Position>
              <LatitudeDegrees>42.296078503131866455078125</LatitudeDegrees>
              <LongitudeDegrees>2.53588068298995494842529296875</LongitudeDegrees>
            </Position>
            <AltitudeMeters>434</AltitudeMeters>
            <DistanceMeters>NAN</DistanceMeters>
          </Trackpoint>
          <Trackpoint>
            <Time>2021-04-03T10:17:45.000Z</Time>
            <Position>
              <LatitudeDegrees>42.29609602130949497222900390625</LatitudeDegrees>
              <LongitudeDegrees>2.5358395278453826904296875</LongitudeDegrees>
            </Position>
            <AltitudeMeters>434.20001220703125</AltitudeMeters>
            <DistanceMeters>NAN</DistanceMeters>
          </Trackpoint>
          <Trackpoint>
            <Time>2021-04-03T10:17:50.000Z</Time>
            <Position>
              <LatitudeDegrees>42.29609199799597263336181640625</LatitudeDegrees>
              <LongitudeDegrees>2.535742633044719696044921875</LongitudeDegrees>
            </Position>
            <AltitudeMeters>434.399993896484375</AltitudeMeters>
            <DistanceMeters>NAN</DistanceMeters>
          </Trackpoint>
          <Trackpoint>
            <Time>2021-04-03T10:17:52.000Z</Time>
            <Position>
              <LatitudeDegrees>42.29610121808946132659912109375</LatitudeDegrees>
              <LongitudeDegrees>2.535719834268093109130859375</LongitudeDegrees>
            </Position>
            <AltitudeMeters>434.79998779296875</AltitudeMeters>
            <DistanceMeters>NAN</DistanceMeters>
          </Trackpoint>
          <Trackpoint>
            <Time>2021-04-03T10:17:53.000Z</Time>
            <Position>
              <LatitudeDegrees>42.2961118631064891815185546875</LatitudeDegrees>
              <LongitudeDegrees>2.53571170382201671600341796875</LongitudeDegrees>
            </Position>
            <AltitudeMeters>434.79998779296875</AltitudeMeters>
            <DistanceMeters>NAN</DistanceMeters>
          </Trackpoint>
          <Trackpoint>
            <Time>2021-04-03T10:17:54.000Z</Time>
            <Position>
              <LatitudeDegrees>42.2961192391812801361083984375</LatitudeDegrees>
              <LongitudeDegrees>2.5357022322714328765869140625</LongitudeDegrees>
            </Position>
            <AltitudeMeters>435</AltitudeMeters>
            <DistanceMeters>NAN</DistanceMeters>
          </Trackpoint>
          <Trackpoint>
            <Time>2021-04-03T10:17:56.000Z</Time>
            <Position>
              <LatitudeDegrees>42.2961299680173397064208984375</LatitudeDegrees>
              <LongitudeDegrees>2.53568622283637523651123046875</LongitudeDegrees>
            </Position>
            <AltitudeMeters>435.399993896484375</AltitudeMeters>
            <DistanceMeters>NAN</DistanceMeters>
          </Trackpoint>
          <Trackpoint>
            <Time>2021-04-03T10:17:58.000Z</Time>
            <Position>
              <LatitudeDegrees>42.29613340459764003753662109375</LatitudeDegrees>
              <LongitudeDegrees>2.53566392697393894195556640625</LongitudeDegrees>
            </Position>
            <AltitudeMeters>435.399993896484375</AltitudeMeters>
            <DistanceMeters>NAN</DistanceMeters>
          </Trackpoint>
          <Trackpoint>
            <Time>2021-04-03T10:18:00.000Z</Time>
            <Position>
              <LatitudeDegrees>42.2961380146443843841552734375</LatitudeDegrees>
              <LongitudeDegrees>2.53564045764505863189697265625</LongitudeDegrees>
            </Position>
            <AltitudeMeters>435.600006103515625</AltitudeMeters>
            <DistanceMeters>NAN</DistanceMeters>
          </Trackpoint>
          <Trackpoint>
            <Time>2021-04-03T10:18:05.000Z</Time>
            <Position>
              <LatitudeDegrees>42.29616357944905757904052734375</LatitudeDegrees>
              <LongitudeDegrees>2.53556585870683193206787109375</LongitudeDegrees>
            </Position>
            <AltitudeMeters>436.20001220703125</AltitudeMeters>
            <DistanceMeters>NAN</DistanceMeters>
          </Trackpoint>
          <Trackpoint>
            <Time>2021-04-03T10:18:08.000Z</Time>
            <Position>
              <LatitudeDegrees>42.2961725480854511260986328125</LatitudeDegrees>
              <LongitudeDegrees>2.53552059642970561981201171875</LongitudeDegrees>
            </Position>
            <AltitudeMeters>436.600006103515625</AltitudeMeters>
            <DistanceMeters>NAN</DistanceMeters>
          </Trackpoint>
          <Trackpoint>
            <Time>2021-04-03T10:18:12.000Z</Time>
            <Position>
              <LatitudeDegrees>42.29617380537092685699462890625</LatitudeDegrees>
              <LongitudeDegrees>2.5354765914380550384521484375</LongitudeDegrees>
            </Position>
            <AltitudeMeters>436.79998779296875</AltitudeMeters>
            <DistanceMeters>NAN</DistanceMeters>
          </Trackpoint>
          <Trackpoint>
            <Time>2021-04-03T10:18:18.000Z</Time>
            <Position>
              <LatitudeDegrees>42.29615033604204654693603515625</LatitudeDegrees>
              <LongitudeDegrees>2.5353803671896457672119140625</LongitudeDegrees>
            </Position>
            <AltitudeMeters>437</AltitudeMeters>
            <DistanceMeters>NAN</DistanceMeters>
          </Trackpoint>
          <Trackpoint>
            <Time>2021-04-03T10:18:19.000Z</Time>
            <Position>
              <LatitudeDegrees>42.29615771211683750152587890625</LatitudeDegrees>
              <LongitudeDegrees>2.5353716500103473663330078125</LongitudeDegrees>
            </Position>
            <AltitudeMeters>437</AltitudeMeters>
            <DistanceMeters>NAN</DistanceMeters>
          </Trackpoint>
          <Trackpoint>
            <Time>2021-04-03T10:18:26.000Z</Time>
            <Position>
              <LatitudeDegrees>42.29616768658161163330078125</LatitudeDegrees>
              <LongitudeDegrees>2.535287328064441680908203125</LongitudeDegrees>
            </Position>
            <AltitudeMeters>437.399993896484375</AltitudeMeters>
            <DistanceMeters>NAN</DistanceMeters>
          </Trackpoint>
          <Trackpoint>
            <Time>2021-04-03T10:18:31.000Z</Time>
            <Position>
              <LatitudeDegrees>42.29616743512451648712158203125</LatitudeDegrees>
              <LongitudeDegrees>2.53521935082972049713134765625</LongitudeDegrees>
            </Position>
            <AltitudeMeters>437.399993896484375</AltitudeMeters>
            <DistanceMeters>NAN</DistanceMeters>
          </Trackpoint>
          <Trackpoint>
            <Time>2021-04-03T10:18:32.000Z</Time>
            <Position>
              <LatitudeDegrees>42.2961698658764362335205078125</LatitudeDegrees>
              <LongitudeDegrees>2.53520946018397808074951171875</LongitudeDegrees>
            </Position>
            <AltitudeMeters>437.600006103515625</AltitudeMeters>
            <DistanceMeters>NAN</DistanceMeters>
          </Trackpoint>
          <Trackpoint>
            <Time>2021-04-03T10:18:33.000Z</Time>
            <Position>
              <LatitudeDegrees>42.29617615230381488800048828125</LatitudeDegrees>
              <LongitudeDegrees>2.53519915044307708740234375</LongitudeDegrees>
            </Position>
            <AltitudeMeters>437.600006103515625</AltitudeMeters>
            <DistanceMeters>NAN</DistanceMeters>
          </Trackpoint>
          <Trackpoint>
            <Time>2021-04-03T10:18:35.000Z</Time>
            <Position>
              <LatitudeDegrees>42.29619375430047512054443359375</LatitudeDegrees>
              <LongitudeDegrees>2.53518062643706798553466796875</LongitudeDegrees>
            </Position>
            <AltitudeMeters>437.600006103515625</AltitudeMeters>
            <DistanceMeters>NAN</DistanceMeters>
          </Trackpoint>
          <Trackpoint>
            <Time>2021-04-03T10:18:37.000Z</Time>
            <Position>
              <LatitudeDegrees>42.29621437378227710723876953125</LatitudeDegrees>
              <LongitudeDegrees>2.53516570664942264556884765625</LongitudeDegrees>
            </Position>
            <AltitudeMeters>437.600006103515625</AltitudeMeters>
            <DistanceMeters>NAN</DistanceMeters>
          </Trackpoint>
          <Trackpoint>
            <Time>2021-04-03T10:18:39.000Z</Time>
            <Position>
              <LatitudeDegrees>42.29622929356992244720458984375</LatitudeDegrees>
              <LongitudeDegrees>2.53515196032822132110595703125</LongitudeDegrees>
            </Position>
            <AltitudeMeters>437.600006103515625</AltitudeMeters>
            <DistanceMeters>NAN</DistanceMeters>
          </Trackpoint>
          <Trackpoint>
            <Time>2021-04-03T10:18:42.000Z</Time>
            <Position>
              <LatitudeDegrees>42.29623013176023960113525390625</LatitudeDegrees>
              <LongitudeDegrees>2.53513251431286334991455078125</LongitudeDegrees>
            </Position>
            <AltitudeMeters>437.600006103515625</AltitudeMeters>
            <DistanceMeters>NAN</DistanceMeters>
          </Trackpoint>
          <Trackpoint>
            <Time>2021-04-03T10:18:46.000Z</Time>
            <Position>
              <LatitudeDegrees>42.29623340070247650146484375</LatitudeDegrees>
              <LongitudeDegrees>2.535096220672130584716796875</LongitudeDegrees>
            </Position>
            <AltitudeMeters>438</AltitudeMeters>
            <DistanceMeters>NAN</DistanceMeters>
          </Trackpoint>
          <Trackpoint>
            <Time>2021-04-03T10:18:49.000Z</Time>
            <Position>
              <LatitudeDegrees>42.29621906764805316925048828125</LatitudeDegrees>
              <LongitudeDegrees>2.5350585021078586578369140625</LongitudeDegrees>
            </Position>
            <AltitudeMeters>438.399993896484375</AltitudeMeters>
            <DistanceMeters>NAN</DistanceMeters>
          </Trackpoint>
          <Trackpoint>
            <Time>2021-04-03T10:18:50.000Z</Time>
            <Position>
              <LatitudeDegrees>42.29621957056224346160888671875</LatitudeDegrees>
              <LongitudeDegrees>2.5350471027195453643798828125</LongitudeDegrees>
            </Position>
            <AltitudeMeters>438.399993896484375</AltitudeMeters>
            <DistanceMeters>NAN</DistanceMeters>
          </Trackpoint>
          <Trackpoint>
            <Time>2021-04-03T10:18:51.000Z</Time>
            <Position>
              <LatitudeDegrees>42.29622242040932178497314453125</LatitudeDegrees>
              <LongitudeDegrees>2.53503553569316864013671875</LongitudeDegrees>
            </Position>
            <AltitudeMeters>438.399993896484375</AltitudeMeters>
            <DistanceMeters>NAN</DistanceMeters>
          </Trackpoint>
          <Trackpoint>
            <Time>2021-04-03T10:18:54.000Z</Time>
            <Position>
              <LatitudeDegrees>42.296239100396633148193359375</LatitudeDegrees>
              <LongitudeDegrees>2.535003684461116790771484375</LongitudeDegrees>
            </Position>
            <AltitudeMeters>438.600006103515625</AltitudeMeters>
            <DistanceMeters>NAN</DistanceMeters>
          </Trackpoint>
          <Trackpoint>
            <Time>2021-04-03T10:18:57.000Z</Time>
            <Position>
              <LatitudeDegrees>42.29624169878661632537841796875</LatitudeDegrees>
              <LongitudeDegrees>2.53497518599033355712890625</LongitudeDegrees>
            </Position>
            <AltitudeMeters>438.79998779296875</AltitudeMeters>
            <DistanceMeters>NAN</DistanceMeters>
          </Trackpoint>
          <Trackpoint>
            <Time>2021-04-03T10:18:59.000Z</Time>
            <Position>
              <LatitudeDegrees>42.2962354123592376708984375</LatitudeDegrees>
              <LongitudeDegrees>2.534956745803356170654296875</LongitudeDegrees>
            </Position>
            <AltitudeMeters>438.79998779296875</AltitudeMeters>
            <DistanceMeters>NAN</DistanceMeters>
          </Trackpoint>
          <Trackpoint>
            <Time>2021-04-03T10:19:01.000Z</Time>
            <Position>
              <LatitudeDegrees>42.29624756611883640289306640625</LatitudeDegrees>
              <LongitudeDegrees>2.534945011138916015625</LongitudeDegrees>
            </Position>
            <AltitudeMeters>439</AltitudeMeters>
            <DistanceMeters>NAN</DistanceMeters>
          </Trackpoint>
          <Trackpoint>
            <Time>2021-04-03T10:19:03.000Z</Time>
            <Position>
              <LatitudeDegrees>42.29624320752918720245361328125</LatitudeDegrees>
              <LongitudeDegrees>2.5349207036197185516357421875</LongitudeDegrees>
            </Position>
            <AltitudeMeters>439</AltitudeMeters>
            <DistanceMeters>NAN</DistanceMeters>
          </Trackpoint>
          <Trackpoint>
            <Time>2021-04-03T10:19:04.000Z</Time>
            <Position>
              <LatitudeDegrees>42.29624102823436260223388671875</LatitudeDegrees>
              <LongitudeDegrees>2.53491408191621303558349609375</LongitudeDegrees>
            </Position>
            <AltitudeMeters>439</AltitudeMeters>
            <DistanceMeters>NAN</DistanceMeters>
          </Trackpoint>
          <Trackpoint>
            <Time>2021-04-03T10:19:06.000Z</Time>
            <Position>
              <LatitudeDegrees>42.29624773375689983367919921875</LatitudeDegrees>
              <LongitudeDegrees>2.53487669862806797027587890625</LongitudeDegrees>
            </Position>
            <AltitudeMeters>439.20001220703125</AltitudeMeters>
            <DistanceMeters>NAN</DistanceMeters>
          </Trackpoint>
          <Trackpoint>
            <Time>2021-04-03T10:19:10.000Z</Time>
            <Position>
              <LatitudeDegrees>42.2962593846023082733154296875</LatitudeDegrees>
              <LongitudeDegrees>2.53483847714960575103759765625</LongitudeDegrees>
            </Position>
            <AltitudeMeters>439.20001220703125</AltitudeMeters>
            <DistanceMeters>NAN</DistanceMeters>
          </Trackpoint>
          <Trackpoint>
            <Time>2021-04-03T10:19:11.000Z</Time>
            <Position>
              <LatitudeDegrees>42.2962630726397037506103515625</LatitudeDegrees>
              <LongitudeDegrees>2.53482992760837078094482421875</LongitudeDegrees>
            </Position>
            <AltitudeMeters>439.399993896484375</AltitudeMeters>
            <DistanceMeters>NAN</DistanceMeters>
          </Trackpoint>
          <Trackpoint>
            <Time>2021-04-03T10:19:13.000Z</Time>
            <Position>
              <LatitudeDegrees>42.29628033936023712158203125</LatitudeDegrees>
              <LongitudeDegrees>2.534815259277820587158203125</LongitudeDegrees>
            </Position>
            <AltitudeMeters>439.399993896484375</AltitudeMeters>
            <DistanceMeters>NAN</DistanceMeters>
          </Trackpoint>
          <Trackpoint>
            <Time>2021-04-03T10:19:16.000Z</Time>
            <Position>
              <LatitudeDegrees>42.29626332409679889678955078125</LatitudeDegrees>
              <LongitudeDegrees>2.5348043628036975860595703125</LongitudeDegrees>
            </Position>
            <AltitudeMeters>439.399993896484375</AltitudeMeters>
            <DistanceMeters>NAN</DistanceMeters>
          </Trackpoint>
          <Trackpoint>
            <Time>2021-04-03T10:19:22.000Z</Time>
            <Position>
              <LatitudeDegrees>42.29626315645873546600341796875</LatitudeDegrees>
              <LongitudeDegrees>2.534773685038089752197265625</LongitudeDegrees>
            </Position>
            <AltitudeMeters>439.399993896484375</AltitudeMeters>
            <DistanceMeters>NAN</DistanceMeters>
          </Trackpoint>
          <Trackpoint>
            <Time>2021-04-03T10:19:32.000Z</Time>
            <Position>
              <LatitudeDegrees>42.29625477455556392669677734375</LatitudeDegrees>
              <LongitudeDegrees>2.53472347743809223175048828125</LongitudeDegrees>
            </Position>
            <AltitudeMeters>439.600006103515625</AltitudeMeters>
            <DistanceMeters>NAN</DistanceMeters>
          </Trackpoint>
          <Trackpoint>
            <Time>2021-04-03T10:19:33.000Z</Time>
            <Position>
              <LatitudeDegrees>42.296247147023677825927734375</LatitudeDegrees>
              <LongitudeDegrees>2.534705288708209991455078125</LongitudeDegrees>
            </Position>
            <AltitudeMeters>439.79998779296875</AltitudeMeters>
            <DistanceMeters>NAN</DistanceMeters>
          </Trackpoint>
          <Trackpoint>
            <Time>2021-04-03T10:19:35.000Z</Time>
            <Position>
              <LatitudeDegrees>42.2962328977882862091064453125</LatitudeDegrees>
              <LongitudeDegrees>2.534671761095523834228515625</LongitudeDegrees>
            </Position>
            <AltitudeMeters>439.79998779296875</AltitudeMeters>
            <DistanceMeters>NAN</DistanceMeters>
          </Trackpoint>
          <Trackpoint>
            <Time>2021-04-03T10:19:36.000Z</Time>
            <Position>
              <LatitudeDegrees>42.29623331688344478607177734375</LatitudeDegrees>
              <LongitudeDegrees>2.53465541638433933258056640625</LongitudeDegrees>
            </Position>
            <AltitudeMeters>439.79998779296875</AltitudeMeters>
            <DistanceMeters>NAN</DistanceMeters>
          </Trackpoint>
          <Trackpoint>
            <Time>2021-04-03T10:19:40.000Z</Time>
            <Position>
              <LatitudeDegrees>42.29623683728277683258056640625</LatitudeDegrees>
              <LongitudeDegrees>2.534612081944942474365234375</LongitudeDegrees>
            </Position>
            <AltitudeMeters>440</AltitudeMeters>
            <DistanceMeters>NAN</DistanceMeters>
          </Trackpoint>
          <Trackpoint>
            <Time>2021-04-03T10:19:42.000Z</Time>
            <Position>
              <LatitudeDegrees>42.29623734019696712493896484375</LatitudeDegrees>
              <LongitudeDegrees>2.53458936698734760284423828125</LongitudeDegrees>
            </Position>
            <AltitudeMeters>440.20001220703125</AltitudeMeters>
            <DistanceMeters>NAN</DistanceMeters>
          </Trackpoint>
          <Trackpoint>
            <Time>2021-04-03T10:19:45.000Z</Time>
            <Position>
              <LatitudeDegrees>42.29622895829379558563232421875</LatitudeDegrees>
              <LongitudeDegrees>2.53455835394561290740966796875</LongitudeDegrees>
            </Position>
            <AltitudeMeters>440.399993896484375</AltitudeMeters>
            <DistanceMeters>NAN</DistanceMeters>
          </Trackpoint>
          <Trackpoint>
            <Time>2021-04-03T10:19:48.000Z</Time>
            <Position>
              <LatitudeDegrees>42.29623180814087390899658203125</LatitudeDegrees>
              <LongitudeDegrees>2.5345210544764995574951171875</LongitudeDegrees>
            </Position>
            <AltitudeMeters>440.600006103515625</AltitudeMeters>
            <DistanceMeters>NAN</DistanceMeters>
          </Trackpoint>
          <Trackpoint>
            <Time>2021-04-03T10:19:49.000Z</Time>
            <Position>
              <LatitudeDegrees>42.29623566381633281707763671875</LatitudeDegrees>
              <LongitudeDegrees>2.5345069728791713714599609375</LongitudeDegrees>
            </Position>
            <AltitudeMeters>441</AltitudeMeters>
            <DistanceMeters>NAN</DistanceMeters>
          </Trackpoint>
          <Trackpoint>
            <Time>2021-04-03T10:19:50.000Z</Time>
            <Position>
              <LatitudeDegrees>42.2962439619004726409912109375</LatitudeDegrees>
              <LongitudeDegrees>2.5344984233379364013671875</LongitudeDegrees>
            </Position>
            <AltitudeMeters>441</AltitudeMeters>
            <DistanceMeters>NAN</DistanceMeters>
          </Trackpoint>
          <Trackpoint>
            <Time>2021-04-03T10:19:54.000Z</Time>
            <Position>
              <LatitudeDegrees>42.2962318919599056243896484375</LatitudeDegrees>
              <LongitudeDegrees>2.53443832509219646453857421875</LongitudeDegrees>
            </Position>
            <AltitudeMeters>441.600006103515625</AltitudeMeters>
            <DistanceMeters>NAN</DistanceMeters>
          </Trackpoint>
          <Trackpoint>
            <Time>2021-04-03T10:19:56.000Z</Time>
            <Position>
              <LatitudeDegrees>42.29622493498027324676513671875</LatitudeDegrees>
              <LongitudeDegrees>2.53440278582274913787841796875</LongitudeDegrees>
            </Position>
            <AltitudeMeters>441.79998779296875</AltitudeMeters>
            <DistanceMeters>NAN</DistanceMeters>
          </Trackpoint>
          <Trackpoint>
            <Time>2021-04-03T10:19:57.000Z</Time>
            <Position>
              <LatitudeDegrees>42.29621890000998973846435546875</LatitudeDegrees>
              <LongitudeDegrees>2.53438903950154781341552734375</LongitudeDegrees>
            </Position>
            <AltitudeMeters>442.20001220703125</AltitudeMeters>
            <DistanceMeters>NAN</DistanceMeters>
          </Trackpoint>
          <Trackpoint>
            <Time>2021-04-03T10:20:00.000Z</Time>
            <Position>
              <LatitudeDegrees>42.29621252976357936859130859375</LatitudeDegrees>
              <LongitudeDegrees>2.53434830345213413238525390625</LongitudeDegrees>
            </Position>
            <AltitudeMeters>442.79998779296875</AltitudeMeters>
            <DistanceMeters>NAN</DistanceMeters>
          </Trackpoint>
          <Trackpoint>
            <Time>2021-04-03T10:20:02.000Z</Time>
            <Position>
              <LatitudeDegrees>42.29619492776691913604736328125</LatitudeDegrees>
              <LongitudeDegrees>2.5343182124197483062744140625</LongitudeDegrees>
            </Position>
            <AltitudeMeters>443</AltitudeMeters>
            <DistanceMeters>NAN</DistanceMeters>
          </Trackpoint>
          <Trackpoint>
            <Time>2021-04-03T10:20:05.000Z</Time>
            <Position>
              <LatitudeDegrees>42.296201884746551513671875</LatitudeDegrees>
              <LongitudeDegrees>2.53429683856666088104248046875</LongitudeDegrees>
            </Position>
            <AltitudeMeters>443.20001220703125</AltitudeMeters>
            <DistanceMeters>NAN</DistanceMeters>
          </Trackpoint>
          <Trackpoint>
            <Time>2021-04-03T10:20:11.000Z</Time>
            <Position>
              <LatitudeDegrees>42.29622141458094120025634765625</LatitudeDegrees>
              <LongitudeDegrees>2.534227184951305389404296875</LongitudeDegrees>
            </Position>
            <AltitudeMeters>443.600006103515625</AltitudeMeters>
            <DistanceMeters>NAN</DistanceMeters>
          </Trackpoint>
          <Trackpoint>
            <Time>2021-04-03T10:20:18.000Z</Time>
            <Position>
              <LatitudeDegrees>42.2962389327585697174072265625</LatitudeDegrees>
              <LongitudeDegrees>2.5341334752738475799560546875</LongitudeDegrees>
            </Position>
            <AltitudeMeters>443.20001220703125</AltitudeMeters>
            <DistanceMeters>NAN</DistanceMeters>
          </Trackpoint>
          <Trackpoint>
            <Time>2021-04-03T10:20:25.000Z</Time>
            <Position>
              <LatitudeDegrees>42.296307496726512908935546875</LatitudeDegrees>
              <LongitudeDegrees>2.5340436212718486785888671875</LongitudeDegrees>
            </Position>
            <AltitudeMeters>443.399993896484375</AltitudeMeters>
            <DistanceMeters>NAN</DistanceMeters>
          </Trackpoint>
          <Trackpoint>
            <Time>2021-04-03T10:20:32.000Z</Time>
            <Position>
              <LatitudeDegrees>42.29637362994253635406494140625</LatitudeDegrees>
              <LongitudeDegrees>2.53392887301743030548095703125</LongitudeDegrees>
            </Position>
            <AltitudeMeters>443.600006103515625</AltitudeMeters>
            <DistanceMeters>NAN</DistanceMeters>
          </Trackpoint>
          <Trackpoint>
            <Time>2021-04-03T10:20:38.000Z</Time>
            <Position>
              <LatitudeDegrees>42.29639165103435516357421875</LatitudeDegrees>
              <LongitudeDegrees>2.533857040107250213623046875</LongitudeDegrees>
            </Position>
            <AltitudeMeters>443.79998779296875</AltitudeMeters>
            <DistanceMeters>NAN</DistanceMeters>
          </Trackpoint>
          <Trackpoint>
            <Time>2021-04-03T10:20:39.000Z</Time>
            <Position>
              <LatitudeDegrees>42.296400703489780426025390625</LatitudeDegrees>
              <LongitudeDegrees>2.533842623233795166015625</LongitudeDegrees>
            </Position>
            <AltitudeMeters>444</AltitudeMeters>
            <DistanceMeters>NAN</DistanceMeters>
          </Trackpoint>
          <Trackpoint>
            <Time>2021-04-03T10:20:41.000Z</Time>
            <Position>
              <LatitudeDegrees>42.296405397355556488037109375</LatitudeDegrees>
              <LongitudeDegrees>2.53380767069756984710693359375</LongitudeDegrees>
            </Position>
            <AltitudeMeters>444.20001220703125</AltitudeMeters>
            <DistanceMeters>NAN</DistanceMeters>
          </Trackpoint>
          <Trackpoint>
            <Time>2021-04-03T10:20:45.000Z</Time>
            <Position>
              <LatitudeDegrees>42.29640648700296878814697265625</LatitudeDegrees>
              <LongitudeDegrees>2.5337375141680240631103515625</LongitudeDegrees>
            </Position>
            <AltitudeMeters>444.20001220703125</AltitudeMeters>
            <DistanceMeters>NAN</DistanceMeters>
          </Trackpoint>
          <Trackpoint>
            <Time>2021-04-03T10:20:48.000Z</Time>
            <Position>
              <LatitudeDegrees>42.29641051031649112701416015625</LatitudeDegrees>
              <LongitudeDegrees>2.5336842052638530731201171875</LongitudeDegrees>
            </Position>
            <AltitudeMeters>444.20001220703125</AltitudeMeters>
            <DistanceMeters>NAN</DistanceMeters>
          </Trackpoint>
          <Trackpoint>
            <Time>2021-04-03T10:20:50.000Z</Time>
            <Position>
              <LatitudeDegrees>42.29642115533351898193359375</LatitudeDegrees>
              <LongitudeDegrees>2.53364573232829570770263671875</LongitudeDegrees>
            </Position>
            <AltitudeMeters>444.20001220703125</AltitudeMeters>
            <DistanceMeters>NAN</DistanceMeters>
          </Trackpoint>
          <Trackpoint>
            <Time>2021-04-03T10:20:51.000Z</Time>
            <Position>
              <LatitudeDegrees>42.29642258025705814361572265625</LatitudeDegrees>
              <LongitudeDegrees>2.533630393445491790771484375</LongitudeDegrees>
            </Position>
            <AltitudeMeters>444.20001220703125</AltitudeMeters>
            <DistanceMeters>NAN</DistanceMeters>
          </Trackpoint>
          <Trackpoint>
            <Time>2021-04-03T10:20:53.000Z</Time>
            <Position>
              <LatitudeDegrees>42.2964333929121494293212890625</LatitudeDegrees>
              <LongitudeDegrees>2.5336047448217868804931640625</LongitudeDegrees>
            </Position>
            <AltitudeMeters>444</AltitudeMeters>
            <DistanceMeters>NAN</DistanceMeters>
          </Trackpoint>
          <Trackpoint>
            <Time>2021-04-03T10:20:57.000Z</Time>
            <Position>
              <LatitudeDegrees>42.296486534178256988525390625</LatitudeDegrees>
              <LongitudeDegrees>2.53355562686920166015625</LongitudeDegrees>
            </Position>
            <AltitudeMeters>443.79998779296875</AltitudeMeters>
            <DistanceMeters>NAN</DistanceMeters>
          </Trackpoint>
          <Trackpoint>
            <Time>2021-04-03T10:20:59.000Z</Time>
            <Position>
              <LatitudeDegrees>42.29650556109845638275146484375</LatitudeDegrees>
              <LongitudeDegrees>2.53352369181811809539794921875</LongitudeDegrees>
            </Position>
            <AltitudeMeters>444</AltitudeMeters>
            <DistanceMeters>NAN</DistanceMeters>
          </Trackpoint>
          <Trackpoint>
            <Time>2021-04-03T10:21:03.000Z</Time>
            <Position>
              <LatitudeDegrees>42.29651243425905704498291015625</LatitudeDegrees>
              <LongitudeDegrees>2.53343031741678714752197265625</LongitudeDegrees>
            </Position>
            <AltitudeMeters>444</AltitudeMeters>
            <DistanceMeters>NAN</DistanceMeters>
          </Trackpoint>
          <Trackpoint>
            <Time>2021-04-03T10:21:04.000Z</Time>
            <Position>
              <LatitudeDegrees>42.2965095005929470062255859375</LatitudeDegrees>
              <LongitudeDegrees>2.533412463963031768798828125</LongitudeDegrees>
            </Position>
            <AltitudeMeters>444.20001220703125</AltitudeMeters>
            <DistanceMeters>NAN</DistanceMeters>
          </Trackpoint>
          <Trackpoint>
            <Time>2021-04-03T10:21:08.000Z</Time>
            <Position>
              <LatitudeDegrees>42.29650698602199554443359375</LatitudeDegrees>
              <LongitudeDegrees>2.5333526171743869781494140625</LongitudeDegrees>
            </Position>
            <AltitudeMeters>444.20001220703125</AltitudeMeters>
            <DistanceMeters>NAN</DistanceMeters>
          </Trackpoint>
          <Trackpoint>
            <Time>2021-04-03T10:21:11.000Z</Time>
            <Position>
              <LatitudeDegrees>42.29652735404670238494873046875</LatitudeDegrees>
              <LongitudeDegrees>2.53331531770527362823486328125</LongitudeDegrees>
            </Position>
            <AltitudeMeters>444.399993896484375</AltitudeMeters>
            <DistanceMeters>NAN</DistanceMeters>
          </Trackpoint>
          <Trackpoint>
            <Time>2021-04-03T10:21:16.000Z</Time>
            <Position>
              <LatitudeDegrees>42.2965369932353496551513671875</LatitudeDegrees>
              <LongitudeDegrees>2.5332624278962612152099609375</LongitudeDegrees>
            </Position>
            <AltitudeMeters>444.600006103515625</AltitudeMeters>
            <DistanceMeters>NAN</DistanceMeters>
          </Trackpoint>
          <Trackpoint>
            <Time>2021-04-03T10:21:20.000Z</Time>
            <Position>
              <LatitudeDegrees>42.29656867682933807373046875</LatitudeDegrees>
              <LongitudeDegrees>2.53322026692330837249755859375</LongitudeDegrees>
            </Position>
            <AltitudeMeters>444.79998779296875</AltitudeMeters>
            <DistanceMeters>NAN</DistanceMeters>
          </Trackpoint>
          <Trackpoint>
            <Time>2021-04-03T10:21:22.000Z</Time>
            <Position>
              <LatitudeDegrees>42.2965859435498714447021484375</LatitudeDegrees>
              <LongitudeDegrees>2.5331983901560306549072265625</LongitudeDegrees>
            </Position>
            <AltitudeMeters>445</AltitudeMeters>
            <DistanceMeters>NAN</DistanceMeters>
          </Trackpoint>
          <Trackpoint>
            <Time>2021-04-03T10:21:25.000Z</Time>
            <Position>
              <LatitudeDegrees>42.2966120950877666473388671875</LatitudeDegrees>
              <LongitudeDegrees>2.5331653654575347900390625</LongitudeDegrees>
            </Position>
            <AltitudeMeters>445.20001220703125</AltitudeMeters>
            <DistanceMeters>NAN</DistanceMeters>
          </Trackpoint>
          <Trackpoint>
            <Time>2021-04-03T10:21:26.000Z</Time>
            <Position>
              <LatitudeDegrees>42.296625673770904541015625</LatitudeDegrees>
              <LongitudeDegrees>2.533154971897602081298828125</LongitudeDegrees>
            </Position>
            <AltitudeMeters>445.20001220703125</AltitudeMeters>
            <DistanceMeters>NAN</DistanceMeters>
          </Trackpoint>
          <Trackpoint>
            <Time>2021-04-03T10:21:27.000Z</Time>
            <Position>
              <LatitudeDegrees>42.2966372407972812652587890625</LatitudeDegrees>
              <LongitudeDegrees>2.53314399160444736480712890625</LongitudeDegrees>
            </Position>
            <AltitudeMeters>445.399993896484375</AltitudeMeters>
            <DistanceMeters>NAN</DistanceMeters>
          </Trackpoint>
          <Trackpoint>
            <Time>2021-04-03T10:21:34.000Z</Time>
            <Position>
              <LatitudeDegrees>42.29668669402599334716796875</LatitudeDegrees>
              <LongitudeDegrees>2.53307827748358249664306640625</LongitudeDegrees>
            </Position>
            <AltitudeMeters>446</AltitudeMeters>
            <DistanceMeters>NAN</DistanceMeters>
          </Trackpoint>
          <Trackpoint>
            <Time>2021-04-03T10:21:36.000Z</Time>
            <Position>
              <LatitudeDegrees>42.296698093414306640625</LatitudeDegrees>
              <LongitudeDegrees>2.53305916674435138702392578125</LongitudeDegrees>
            </Position>
            <AltitudeMeters>446.20001220703125</AltitudeMeters>
            <DistanceMeters>NAN</DistanceMeters>
          </Trackpoint>
          <Trackpoint>
            <Time>2021-04-03T10:21:38.000Z</Time>
            <Position>
              <LatitudeDegrees>42.29669784195721149444580078125</LatitudeDegrees>
              <LongitudeDegrees>2.5330257229506969451904296875</LongitudeDegrees>
            </Position>
            <AltitudeMeters>446.399993896484375</AltitudeMeters>
            <DistanceMeters>NAN</DistanceMeters>
          </Trackpoint>
          <Trackpoint>
            <Time>2021-04-03T10:21:40.000Z</Time>
            <Position>
              <LatitudeDegrees>42.2966945730149745941162109375</LatitudeDegrees>
              <LongitudeDegrees>2.53300535492599010467529296875</LongitudeDegrees>
            </Position>
            <AltitudeMeters>446.600006103515625</AltitudeMeters>
            <DistanceMeters>NAN</DistanceMeters>
          </Trackpoint>
          <Trackpoint>
            <Time>2021-04-03T10:21:45.000Z</Time>
            <Position>
              <LatitudeDegrees>42.2967284359037876129150390625</LatitudeDegrees>
              <LongitudeDegrees>2.5329212844371795654296875</LongitudeDegrees>
            </Position>
            <AltitudeMeters>447.20001220703125</AltitudeMeters>
            <DistanceMeters>NAN</DistanceMeters>
          </Trackpoint>
          <Trackpoint>
            <Time>2021-04-03T10:21:46.000Z</Time>
            <Position>
              <LatitudeDegrees>42.2967338003218173980712890625</LatitudeDegrees>
              <LongitudeDegrees>2.53290611319243907928466796875</LongitudeDegrees>
            </Position>
            <AltitudeMeters>447.399993896484375</AltitudeMeters>
            <DistanceMeters>NAN</DistanceMeters>
          </Trackpoint>
          <Trackpoint>
            <Time>2021-04-03T10:21:50.000Z</Time>
            <Position>
              <LatitudeDegrees>42.29676037095487117767333984375</LatitudeDegrees>
              <LongitudeDegrees>2.5328557379543781280517578125</LongitudeDegrees>
            </Position>
            <AltitudeMeters>447.79998779296875</AltitudeMeters>
            <DistanceMeters>NAN</DistanceMeters>
          </Trackpoint>
          <Trackpoint>
            <Time>2021-04-03T10:21:52.000Z</Time>
            <Position>
              <LatitudeDegrees>42.2967643104493618011474609375</LatitudeDegrees>
              <LongitudeDegrees>2.532818354666233062744140625</LongitudeDegrees>
            </Position>
            <AltitudeMeters>447.79998779296875</AltitudeMeters>
            <DistanceMeters>NAN</DistanceMeters>
          </Trackpoint>
          <Trackpoint>
            <Time>2021-04-03T10:21:53.000Z</Time>
            <Position>
              <LatitudeDegrees>42.29676305316388607025146484375</LatitudeDegrees>
              <LongitudeDegrees>2.53279455006122589111328125</LongitudeDegrees>
            </Position>
            <AltitudeMeters>448</AltitudeMeters>
            <DistanceMeters>NAN</DistanceMeters>
          </Trackpoint>
          <Trackpoint>
            <Time>2021-04-03T10:22:01.000Z</Time>
            <Position>
              <LatitudeDegrees>42.29679624550044536590576171875</LatitudeDegrees>
              <LongitudeDegrees>2.5326937995851039886474609375</LongitudeDegrees>
            </Position>
            <AltitudeMeters>448</AltitudeMeters>
            <DistanceMeters>NAN</DistanceMeters>
          </Trackpoint>
          <Trackpoint>
            <Time>2021-04-03T10:22:06.000Z</Time>
            <Position>
              <LatitudeDegrees>42.2968122549355030059814453125</LatitudeDegrees>
              <LongitudeDegrees>2.5326316058635711669921875</LongitudeDegrees>
            </Position>
            <AltitudeMeters>448.20001220703125</AltitudeMeters>
            <DistanceMeters>NAN</DistanceMeters>
          </Trackpoint>
          <Trackpoint>
            <Time>2021-04-03T10:22:11.000Z</Time>
            <Position>
              <LatitudeDegrees>42.29679423384368419647216796875</LatitudeDegrees>
              <LongitudeDegrees>2.53255088813602924346923828125</LongitudeDegrees>
            </Position>
            <AltitudeMeters>448.399993896484375</AltitudeMeters>
            <DistanceMeters>NAN</DistanceMeters>
          </Trackpoint>
          <Trackpoint>
            <Time>2021-04-03T10:22:12.000Z</Time>
            <Position>
              <LatitudeDegrees>42.29679607786238193511962890625</LatitudeDegrees>
              <LongitudeDegrees>2.53254250623285770416259765625</LongitudeDegrees>
            </Position>
            <AltitudeMeters>448.600006103515625</AltitudeMeters>
            <DistanceMeters>NAN</DistanceMeters>
          </Trackpoint>
          <Trackpoint>
            <Time>2021-04-03T10:22:15.000Z</Time>
            <Position>
              <LatitudeDegrees>42.29680337011814117431640625</LatitudeDegrees>
              <LongitudeDegrees>2.5325010158121585845947265625</LongitudeDegrees>
            </Position>
            <AltitudeMeters>448.79998779296875</AltitudeMeters>
            <DistanceMeters>NAN</DistanceMeters>
          </Trackpoint>
          <Trackpoint>
            <Time>2021-04-03T10:22:17.000Z</Time>
            <Position>
              <LatitudeDegrees>42.29681837372481822967529296875</LatitudeDegrees>
              <LongitudeDegrees>2.5324733555316925048828125</LongitudeDegrees>
            </Position>
            <AltitudeMeters>448.79998779296875</AltitudeMeters>
            <DistanceMeters>NAN</DistanceMeters>
          </Trackpoint>
          <Trackpoint>
            <Time>2021-04-03T10:22:18.000Z</Time>
            <Position>
              <LatitudeDegrees>42.29683295823633670806884765625</LatitudeDegrees>
              <LongitudeDegrees>2.53246254287660121917724609375</LongitudeDegrees>
            </Position>
            <AltitudeMeters>448.79998779296875</AltitudeMeters>
            <DistanceMeters>NAN</DistanceMeters>
          </Trackpoint>
          <Trackpoint>
            <Time>2021-04-03T10:22:26.000Z</Time>
            <Position>
              <LatitudeDegrees>42.29687620885670185089111328125</LatitudeDegrees>
              <LongitudeDegrees>2.53235600888729095458984375</LongitudeDegrees>
            </Position>
            <AltitudeMeters>449.20001220703125</AltitudeMeters>
            <DistanceMeters>NAN</DistanceMeters>
          </Trackpoint>
          <Trackpoint>
            <Time>2021-04-03T10:22:28.000Z</Time>
            <Position>
              <LatitudeDegrees>42.2968846745789051055908203125</LatitudeDegrees>
              <LongitudeDegrees>2.5323303602635860443115234375</LongitudeDegrees>
            </Position>
            <AltitudeMeters>449.399993896484375</AltitudeMeters>
            <DistanceMeters>NAN</DistanceMeters>
          </Trackpoint>
          <Trackpoint>
            <Time>2021-04-03T10:22:30.000Z</Time>
            <Position>
              <LatitudeDegrees>42.2968913801014423370361328125</LatitudeDegrees>
              <LongitudeDegrees>2.532305382192134857177734375</LongitudeDegrees>
            </Position>
            <AltitudeMeters>449.600006103515625</AltitudeMeters>
            <DistanceMeters>NAN</DistanceMeters>
          </Trackpoint>
          <Trackpoint>
            <Time>2021-04-03T10:22:31.000Z</Time>
            <Position>
              <LatitudeDegrees>42.2968950681388378143310546875</LatitudeDegrees>
              <LongitudeDegrees>2.5322928093373775482177734375</LongitudeDegrees>
            </Position>
            <AltitudeMeters>449.79998779296875</AltitudeMeters>
            <DistanceMeters>NAN</DistanceMeters>
          </Trackpoint>
          <Trackpoint>
            <Time>2021-04-03T10:22:35.000Z</Time>
            <Position>
              <LatitudeDegrees>42.29688844643533229827880859375</LatitudeDegrees>
              <LongitudeDegrees>2.53223187290132045745849609375</LongitudeDegrees>
            </Position>
            <AltitudeMeters>450.399993896484375</AltitudeMeters>
            <DistanceMeters>NAN</DistanceMeters>
          </Trackpoint>
          <Trackpoint>
            <Time>2021-04-03T10:22:37.000Z</Time>
            <Position>
              <LatitudeDegrees>42.29689230211079120635986328125</LatitudeDegrees>
              <LongitudeDegrees>2.5322083197534084320068359375</LongitudeDegrees>
            </Position>
            <AltitudeMeters>450.600006103515625</AltitudeMeters>
            <DistanceMeters>NAN</DistanceMeters>
          </Trackpoint>
          <Trackpoint>
            <Time>2021-04-03T10:22:38.000Z</Time>
            <Position>
              <LatitudeDegrees>42.2968987561762332916259765625</LatitudeDegrees>
              <LongitudeDegrees>2.53220605663955211639404296875</LongitudeDegrees>
            </Position>
            <AltitudeMeters>450.600006103515625</AltitudeMeters>
            <DistanceMeters>NAN</DistanceMeters>
          </Trackpoint>
          <Trackpoint>
            <Time>2021-04-03T10:22:40.000Z</Time>
            <Position>
              <LatitudeDegrees>42.29691023938357830047607421875</LatitudeDegrees>
              <LongitudeDegrees>2.5321835093200206756591796875</LongitudeDegrees>
            </Position>
            <AltitudeMeters>450.600006103515625</AltitudeMeters>
            <DistanceMeters>NAN</DistanceMeters>
          </Trackpoint>
          <Trackpoint>
            <Time>2021-04-03T10:22:42.000Z</Time>
            <Position>
              <LatitudeDegrees>42.2969032824039459228515625</LatitudeDegrees>
              <LongitudeDegrees>2.53215760923922061920166015625</LongitudeDegrees>
            </Position>
            <AltitudeMeters>450.600006103515625</AltitudeMeters>
            <DistanceMeters>NAN</DistanceMeters>
          </Trackpoint>
          <Trackpoint>
            <Time>2021-04-03T10:22:43.000Z</Time>
            <Position>
              <LatitudeDegrees>42.29689858853816986083984375</LatitudeDegrees>
              <LongitudeDegrees>2.5321472994983196258544921875</LongitudeDegrees>
            </Position>
            <AltitudeMeters>450.79998779296875</AltitudeMeters>
            <DistanceMeters>NAN</DistanceMeters>
          </Trackpoint>
          <Trackpoint>
            <Time>2021-04-03T10:22:49.000Z</Time>
            <Position>
              <LatitudeDegrees>42.29690001346170902252197265625</LatitudeDegrees>
              <LongitudeDegrees>2.532071359455585479736328125</LongitudeDegrees>
            </Position>
            <AltitudeMeters>450.600006103515625</AltitudeMeters>
            <DistanceMeters>NAN</DistanceMeters>
          </Trackpoint>
          <Trackpoint>
            <Time>2021-04-03T10:22:58.000Z</Time>
            <Position>
              <LatitudeDegrees>42.29693077504634857177734375</LatitudeDegrees>
              <LongitudeDegrees>2.5319484807550907135009765625</LongitudeDegrees>
            </Position>
            <AltitudeMeters>450.79998779296875</AltitudeMeters>
            <DistanceMeters>NAN</DistanceMeters>
          </Trackpoint>
          <Trackpoint>
            <Time>2021-04-03T10:23:04.000Z</Time>
            <Position>
              <LatitudeDegrees>42.29701719246804714202880859375</LatitudeDegrees>
              <LongitudeDegrees>2.53192258067429065704345703125</LongitudeDegrees>
            </Position>
            <AltitudeMeters>451.79998779296875</AltitudeMeters>
            <DistanceMeters>NAN</DistanceMeters>
          </Trackpoint>
          <Trackpoint>
            <Time>2021-04-03T10:23:05.000Z</Time>
            <Position>
              <LatitudeDegrees>42.29702825658023357391357421875</LatitudeDegrees>
              <LongitudeDegrees>2.53190984018146991729736328125</LongitudeDegrees>
            </Position>
            <AltitudeMeters>452</AltitudeMeters>
            <DistanceMeters>NAN</DistanceMeters>
          </Trackpoint>
          <Trackpoint>
            <Time>2021-04-03T10:23:10.000Z</Time>
            <Position>
              <LatitudeDegrees>42.29704971425235271453857421875</LatitudeDegrees>
              <LongitudeDegrees>2.5318495742976665496826171875</LongitudeDegrees>
            </Position>
            <AltitudeMeters>453</AltitudeMeters>
            <DistanceMeters>NAN</DistanceMeters>
          </Trackpoint>
          <Trackpoint>
            <Time>2021-04-03T10:23:14.000Z</Time>
            <Position>
              <LatitudeDegrees>42.29707737453281879425048828125</LatitudeDegrees>
              <LongitudeDegrees>2.53181361593306064605712890625</LongitudeDegrees>
            </Position>
            <AltitudeMeters>453.20001220703125</AltitudeMeters>
            <DistanceMeters>NAN</DistanceMeters>
          </Trackpoint>
          <Trackpoint>
            <Time>2021-04-03T10:23:17.000Z</Time>
            <Position>
              <LatitudeDegrees>42.29708743281662464141845703125</LatitudeDegrees>
              <LongitudeDegrees>2.5317768193781375885009765625</LongitudeDegrees>
            </Position>
            <AltitudeMeters>453.399993896484375</AltitudeMeters>
            <DistanceMeters>NAN</DistanceMeters>
          </Trackpoint>
          <Trackpoint>
            <Time>2021-04-03T10:23:22.000Z</Time>
            <Position>
              <LatitudeDegrees>42.29710788466036319732666015625</LatitudeDegrees>
              <LongitudeDegrees>2.531726360321044921875</LongitudeDegrees>
            </Position>
            <AltitudeMeters>453.79998779296875</AltitudeMeters>
            <DistanceMeters>NAN</DistanceMeters>
          </Trackpoint>
          <Trackpoint>
            <Time>2021-04-03T10:23:23.000Z</Time>
            <Position>
              <LatitudeDegrees>42.2971156798303127288818359375</LatitudeDegrees>
              <LongitudeDegrees>2.5317181460559368133544921875</LongitudeDegrees>
            </Position>
            <AltitudeMeters>454</AltitudeMeters>
            <DistanceMeters>NAN</DistanceMeters>
          </Trackpoint>
          <Trackpoint>
            <Time>2021-04-03T10:23:27.000Z</Time>
            <Position>
              <LatitudeDegrees>42.29714929126203060150146484375</LatitudeDegrees>
              <LongitudeDegrees>2.53167564980685710906982421875</LongitudeDegrees>
            </Position>
            <AltitudeMeters>454.20001220703125</AltitudeMeters>
            <DistanceMeters>NAN</DistanceMeters>
          </Trackpoint>
          <Trackpoint>
            <Time>2021-04-03T10:23:30.000Z</Time>
            <Position>
              <LatitudeDegrees>42.297145687043666839599609375</LatitudeDegrees>
              <LongitudeDegrees>2.53163139335811138153076171875</LongitudeDegrees>
            </Position>
            <AltitudeMeters>454.79998779296875</AltitudeMeters>
            <DistanceMeters>NAN</DistanceMeters>
          </Trackpoint>
          <Trackpoint>
            <Time>2021-04-03T10:23:32.000Z</Time>
            <Position>
              <LatitudeDegrees>42.2971446812152862548828125</LatitudeDegrees>
              <LongitudeDegrees>2.53159015439450740814208984375</LongitudeDegrees>
            </Position>
            <AltitudeMeters>455</AltitudeMeters>
            <DistanceMeters>NAN</DistanceMeters>
          </Trackpoint>
          <Trackpoint>
            <Time>2021-04-03T10:23:35.000Z</Time>
            <Position>
              <LatitudeDegrees>42.29715742170810699462890625</LatitudeDegrees>
              <LongitudeDegrees>2.53155562095344066619873046875</LongitudeDegrees>
            </Position>
            <AltitudeMeters>455.399993896484375</AltitudeMeters>
            <DistanceMeters>NAN</DistanceMeters>
          </Trackpoint>
          <Trackpoint>
            <Time>2021-04-03T10:23:39.000Z</Time>
            <Position>
              <LatitudeDegrees>42.29717644862830638885498046875</LatitudeDegrees>
              <LongitudeDegrees>2.53152594901621341705322265625</LongitudeDegrees>
            </Position>
            <AltitudeMeters>456</AltitudeMeters>
            <DistanceMeters>NAN</DistanceMeters>
          </Trackpoint>
          <Trackpoint>
            <Time>2021-04-03T10:23:40.000Z</Time>
            <Position>
              <LatitudeDegrees>42.29718063957989215850830078125</LatitudeDegrees>
              <LongitudeDegrees>2.5315136276185512542724609375</LongitudeDegrees>
            </Position>
            <AltitudeMeters>456.20001220703125</AltitudeMeters>
            <DistanceMeters>NAN</DistanceMeters>
          </Trackpoint>
          <Trackpoint>
            <Time>2021-04-03T10:23:42.000Z</Time>
            <Position>
              <LatitudeDegrees>42.2971875965595245361328125</LatitudeDegrees>
              <LongitudeDegrees>2.5314965285360813140869140625</LongitudeDegrees>
            </Position>
            <AltitudeMeters>456.20001220703125</AltitudeMeters>
            <DistanceMeters>NAN</DistanceMeters>
          </Trackpoint>
          <Trackpoint>
            <Time>2021-04-03T10:23:47.000Z</Time>
            <Position>
              <LatitudeDegrees>42.29721617884933948516845703125</LatitudeDegrees>
              <LongitudeDegrees>2.53145285882055759429931640625</LongitudeDegrees>
            </Position>
            <AltitudeMeters>457.20001220703125</AltitudeMeters>
            <DistanceMeters>NAN</DistanceMeters>
          </Trackpoint>
          <Trackpoint>
            <Time>2021-04-03T10:23:49.000Z</Time>
            <Position>
              <LatitudeDegrees>42.29722338728606700897216796875</LatitudeDegrees>
              <LongitudeDegrees>2.5314284674823284149169921875</LongitudeDegrees>
            </Position>
            <AltitudeMeters>457.399993896484375</AltitudeMeters>
            <DistanceMeters>NAN</DistanceMeters>
          </Trackpoint>
          <Trackpoint>
            <Time>2021-04-03T10:23:55.000Z</Time>
            <Position>
              <LatitudeDegrees>42.29728356935083866119384765625</LatitudeDegrees>
              <LongitudeDegrees>2.531385384500026702880859375</LongitudeDegrees>
            </Position>
            <AltitudeMeters>457.600006103515625</AltitudeMeters>
            <DistanceMeters>NAN</DistanceMeters>
          </Trackpoint>
          <Trackpoint>
            <Time>2021-04-03T10:23:57.000Z</Time>
            <Position>
              <LatitudeDegrees>42.29728222824633121490478515625</LatitudeDegrees>
              <LongitudeDegrees>2.531359232962131500244140625</LongitudeDegrees>
            </Position>
            <AltitudeMeters>457.79998779296875</AltitudeMeters>
            <DistanceMeters>NAN</DistanceMeters>
          </Trackpoint>
          <Trackpoint>
            <Time>2021-04-03T10:24:02.000Z</Time>
            <Position>
              <LatitudeDegrees>42.29728021658957004547119140625</LatitudeDegrees>
              <LongitudeDegrees>2.531301565468311309814453125</LongitudeDegrees>
            </Position>
            <AltitudeMeters>458.20001220703125</AltitudeMeters>
            <DistanceMeters>NAN</DistanceMeters>
          </Trackpoint>
          <Trackpoint>
            <Time>2021-04-03T10:24:06.000Z</Time>
            <Position>
              <LatitudeDegrees>42.29728641919791698455810546875</LatitudeDegrees>
              <LongitudeDegrees>2.53126342780888080596923828125</LongitudeDegrees>
            </Position>
            <AltitudeMeters>458.79998779296875</AltitudeMeters>
            <DistanceMeters>NAN</DistanceMeters>
          </Trackpoint>
          <Trackpoint>
            <Time>2021-04-03T10:24:08.000Z</Time>
            <Position>
              <LatitudeDegrees>42.2972933761775493621826171875</LatitudeDegrees>
              <LongitudeDegrees>2.5312403775751590728759765625</LongitudeDegrees>
            </Position>
            <AltitudeMeters>459.20001220703125</AltitudeMeters>
            <DistanceMeters>NAN</DistanceMeters>
          </Trackpoint>
          <Trackpoint>
            <Time>2021-04-03T10:24:09.000Z</Time>
            <Position>
              <LatitudeDegrees>42.29729765094816684722900390625</LatitudeDegrees>
              <LongitudeDegrees>2.531226463615894317626953125</LongitudeDegrees>
            </Position>
            <AltitudeMeters>459.399993896484375</AltitudeMeters>
            <DistanceMeters>NAN</DistanceMeters>
          </Trackpoint>
          <Trackpoint>
            <Time>2021-04-03T10:24:12.000Z</Time>
            <Position>
              <LatitudeDegrees>42.297295220196247100830078125</LatitudeDegrees>
              <LongitudeDegrees>2.5311780162155628204345703125</LongitudeDegrees>
            </Position>
            <AltitudeMeters>459.600006103515625</AltitudeMeters>
            <DistanceMeters>NAN</DistanceMeters>
          </Trackpoint>
          <Trackpoint>
            <Time>2021-04-03T10:24:13.000Z</Time>
            <Position>
              <LatitudeDegrees>42.29729429818689823150634765625</LatitudeDegrees>
              <LongitudeDegrees>2.53116510808467864990234375</LongitudeDegrees>
            </Position>
            <AltitudeMeters>460</AltitudeMeters>
            <DistanceMeters>NAN</DistanceMeters>
          </Trackpoint>
          <Trackpoint>
            <Time>2021-04-03T10:24:15.000Z</Time>
            <Position>
              <LatitudeDegrees>42.29729379527270793914794921875</LatitudeDegrees>
              <LongitudeDegrees>2.5311418063938617706298828125</LongitudeDegrees>
            </Position>
            <AltitudeMeters>460.399993896484375</AltitudeMeters>
            <DistanceMeters>NAN</DistanceMeters>
          </Trackpoint>
          <Trackpoint>
            <Time>2021-04-03T10:24:17.000Z</Time>
            <Position>
              <LatitudeDegrees>42.29729781858623027801513671875</LatitudeDegrees>
              <LongitudeDegrees>2.5311268866062164306640625</LongitudeDegrees>
            </Position>
            <AltitudeMeters>460.79998779296875</AltitudeMeters>
            <DistanceMeters>NAN</DistanceMeters>
          </Trackpoint>
          <Trackpoint>
            <Time>2021-04-03T10:24:20.000Z</Time>
            <Position>
              <LatitudeDegrees>42.29730251245200634002685546875</LatitudeDegrees>
              <LongitudeDegrees>2.53110148943960666656494140625</LongitudeDegrees>
            </Position>
            <AltitudeMeters>461.20001220703125</AltitudeMeters>
            <DistanceMeters>NAN</DistanceMeters>
          </Trackpoint>
          <Trackpoint>
            <Time>2021-04-03T10:24:22.000Z</Time>
            <Position>
              <LatitudeDegrees>42.29732229374349117279052734375</LatitudeDegrees>
              <LongitudeDegrees>2.53108807839453220367431640625</LongitudeDegrees>
            </Position>
            <AltitudeMeters>461.600006103515625</AltitudeMeters>
            <DistanceMeters>NAN</DistanceMeters>
          </Trackpoint>
          <Trackpoint>
            <Time>2021-04-03T10:24:27.000Z</Time>
            <Position>
              <LatitudeDegrees>42.2973212040960788726806640625</LatitudeDegrees>
              <LongitudeDegrees>2.5310452468693256378173828125</LongitudeDegrees>
            </Position>
            <AltitudeMeters>462.399993896484375</AltitudeMeters>
            <DistanceMeters>NAN</DistanceMeters>
          </Trackpoint>
          <Trackpoint>
            <Time>2021-04-03T10:24:29.000Z</Time>
            <Position>
              <LatitudeDegrees>42.29730905033648014068603515625</LatitudeDegrees>
              <LongitudeDegrees>2.5310177542269229888916015625</LongitudeDegrees>
            </Position>
            <AltitudeMeters>462.79998779296875</AltitudeMeters>
            <DistanceMeters>NAN</DistanceMeters>
          </Trackpoint>
          <Trackpoint>
            <Time>2021-04-03T10:24:30.000Z</Time>
            <Position>
              <LatitudeDegrees>42.2973098047077655792236328125</LatitudeDegrees>
              <LongitudeDegrees>2.5310083664953708648681640625</LongitudeDegrees>
            </Position>
            <AltitudeMeters>463</AltitudeMeters>
            <DistanceMeters>NAN</DistanceMeters>
          </Trackpoint>
          <Trackpoint>
            <Time>2021-04-03T10:24:33.000Z</Time>
            <Position>
              <LatitudeDegrees>42.29731625877320766448974609375</LatitudeDegrees>
              <LongitudeDegrees>2.53097333014011383056640625</LongitudeDegrees>
            </Position>
            <AltitudeMeters>463.399993896484375</AltitudeMeters>
            <DistanceMeters>NAN</DistanceMeters>
          </Trackpoint>
          <Trackpoint>
            <Time>2021-04-03T10:24:35.000Z</Time>
            <Position>
              <LatitudeDegrees>42.29732212610542774200439453125</LatitudeDegrees>
              <LongitudeDegrees>2.53096419386565685272216796875</LongitudeDegrees>
            </Position>
            <AltitudeMeters>463.600006103515625</AltitudeMeters>
            <DistanceMeters>NAN</DistanceMeters>
          </Trackpoint>
          <Trackpoint>
            <Time>2021-04-03T10:24:36.000Z</Time>
            <Position>
              <LatitudeDegrees>42.2973292507231235504150390625</LatitudeDegrees>
              <LongitudeDegrees>2.53095782361924648284912109375</LongitudeDegrees>
            </Position>
            <AltitudeMeters>463.79998779296875</AltitudeMeters>
            <DistanceMeters>NAN</DistanceMeters>
          </Trackpoint>
          <Trackpoint>
            <Time>2021-04-03T10:24:38.000Z</Time>
            <Position>
              <LatitudeDegrees>42.29734106920659542083740234375</LatitudeDegrees>
              <LongitudeDegrees>2.5309466756880283355712890625</LongitudeDegrees>
            </Position>
            <AltitudeMeters>464.20001220703125</AltitudeMeters>
            <DistanceMeters>NAN</DistanceMeters>
          </Trackpoint>
          <Trackpoint>
            <Time>2021-04-03T10:24:41.000Z</Time>
            <Position>
              <LatitudeDegrees>42.29736403562128543853759765625</LatitudeDegrees>
              <LongitudeDegrees>2.5309205241501331329345703125</LongitudeDegrees>
            </Position>
            <AltitudeMeters>464.600006103515625</AltitudeMeters>
            <DistanceMeters>NAN</DistanceMeters>
          </Trackpoint>
          <Trackpoint>
            <Time>2021-04-03T10:24:42.000Z</Time>
            <Position>
              <LatitudeDegrees>42.29736520908772945404052734375</LatitudeDegrees>
              <LongitudeDegrees>2.53090652637183666229248046875</LongitudeDegrees>
            </Position>
            <AltitudeMeters>464.600006103515625</AltitudeMeters>
            <DistanceMeters>NAN</DistanceMeters>
          </Trackpoint>
          <Trackpoint>
            <Time>2021-04-03T10:24:44.000Z</Time>
            <Position>
              <LatitudeDegrees>42.29737359099090099334716796875</LatitudeDegrees>
              <LongitudeDegrees>2.530881129205226898193359375</LongitudeDegrees>
            </Position>
            <AltitudeMeters>465</AltitudeMeters>
            <DistanceMeters>NAN</DistanceMeters>
          </Trackpoint>
          <Trackpoint>
            <Time>2021-04-03T10:24:46.000Z</Time>
            <Position>
              <LatitudeDegrees>42.297379039227962493896484375</LatitudeDegrees>
              <LongitudeDegrees>2.53086025826632976531982421875</LongitudeDegrees>
            </Position>
            <AltitudeMeters>465.399993896484375</AltitudeMeters>
            <DistanceMeters>NAN</DistanceMeters>
          </Trackpoint>
          <Trackpoint>
            <Time>2021-04-03T10:24:53.000Z</Time>
            <Position>
              <LatitudeDegrees>42.297411225736141204833984375</LatitudeDegrees>
              <LongitudeDegrees>2.53078498877584934234619140625</LongitudeDegrees>
            </Position>
            <AltitudeMeters>466.20001220703125</AltitudeMeters>
            <DistanceMeters>NAN</DistanceMeters>
          </Trackpoint>
          <Trackpoint>
            <Time>2021-04-03T10:24:54.000Z</Time>
            <Position>
              <LatitudeDegrees>42.29741566814482212066650390625</LatitudeDegrees>
              <LongitudeDegrees>2.5307716615498065948486328125</LongitudeDegrees>
            </Position>
            <AltitudeMeters>466.399993896484375</AltitudeMeters>
            <DistanceMeters>NAN</DistanceMeters>
          </Trackpoint>
          <Trackpoint>
            <Time>2021-04-03T10:24:59.000Z</Time>
            <Position>
              <LatitudeDegrees>42.2974351979792118072509765625</LatitudeDegrees>
              <LongitudeDegrees>2.530709803104400634765625</LongitudeDegrees>
            </Position>
            <AltitudeMeters>467.20001220703125</AltitudeMeters>
            <DistanceMeters>NAN</DistanceMeters>
          </Trackpoint>
          <Trackpoint>
            <Time>2021-04-03T10:25:00.000Z</Time>
            <Position>
              <LatitudeDegrees>42.29742606170475482940673828125</LatitudeDegrees>
              <LongitudeDegrees>2.530696727335453033447265625</LongitudeDegrees>
            </Position>
            <AltitudeMeters>467.20001220703125</AltitudeMeters>
            <DistanceMeters>NAN</DistanceMeters>
          </Trackpoint>
          <Trackpoint>
            <Time>2021-04-03T10:25:01.000Z</Time>
            <Position>
              <LatitudeDegrees>42.29741667397320270538330078125</LatitudeDegrees>
              <LongitudeDegrees>2.5306821428239345550537109375</LongitudeDegrees>
            </Position>
            <AltitudeMeters>467.20001220703125</AltitudeMeters>
            <DistanceMeters>NAN</DistanceMeters>
          </Trackpoint>
          <Trackpoint>
            <Time>2021-04-03T10:25:06.000Z</Time>
            <Position>
              <LatitudeDegrees>42.2974070347845554351806640625</LatitudeDegrees>
              <LongitudeDegrees>2.53063193522393703460693359375</LongitudeDegrees>
            </Position>
            <AltitudeMeters>467.79998779296875</AltitudeMeters>
            <DistanceMeters>NAN</DistanceMeters>
          </Trackpoint>
          <Trackpoint>
            <Time>2021-04-03T10:25:08.000Z</Time>
            <Position>
              <LatitudeDegrees>42.2974036820232868194580078125</LatitudeDegrees>
              <LongitudeDegrees>2.53061248920857906341552734375</LongitudeDegrees>
            </Position>
            <AltitudeMeters>468</AltitudeMeters>
            <DistanceMeters>NAN</DistanceMeters>
          </Trackpoint>
          <Trackpoint>
            <Time>2021-04-03T10:25:10.000Z</Time>
            <Position>
              <LatitudeDegrees>42.297403849661350250244140625</LatitudeDegrees>
              <LongitudeDegrees>2.5305889360606670379638671875</LongitudeDegrees>
            </Position>
            <AltitudeMeters>468.20001220703125</AltitudeMeters>
            <DistanceMeters>NAN</DistanceMeters>
          </Trackpoint>
          <Trackpoint>
            <Time>2021-04-03T10:25:13.000Z</Time>
            <Position>
              <LatitudeDegrees>42.29742891155183315277099609375</LatitudeDegrees>
              <LongitudeDegrees>2.5305611081421375274658203125</LongitudeDegrees>
            </Position>
            <AltitudeMeters>468.600006103515625</AltitudeMeters>
            <DistanceMeters>NAN</DistanceMeters>
          </Trackpoint>
          <Trackpoint>
            <Time>2021-04-03T10:25:18.000Z</Time>
            <Position>
              <LatitudeDegrees>42.29746780358254909515380859375</LatitudeDegrees>
              <LongitudeDegrees>2.530511654913425445556640625</LongitudeDegrees>
            </Position>
            <AltitudeMeters>468.79998779296875</AltitudeMeters>
            <DistanceMeters>NAN</DistanceMeters>
          </Trackpoint>
          <Trackpoint>
            <Time>2021-04-03T10:25:21.000Z</Time>
            <Position>
              <LatitudeDegrees>42.29749797843396663665771484375</LatitudeDegrees>
              <LongitudeDegrees>2.5304903648793697357177734375</LongitudeDegrees>
            </Position>
            <AltitudeMeters>469</AltitudeMeters>
            <DistanceMeters>NAN</DistanceMeters>
          </Trackpoint>
          <Trackpoint>
            <Time>2021-04-03T10:25:23.000Z</Time>
            <Position>
              <LatitudeDegrees>42.2975203581154346466064453125</LatitudeDegrees>
              <LongitudeDegrees>2.530479468405246734619140625</LongitudeDegrees>
            </Position>
            <AltitudeMeters>469.20001220703125</AltitudeMeters>
            <DistanceMeters>NAN</DistanceMeters>
          </Trackpoint>
          <Trackpoint>
            <Time>2021-04-03T10:25:25.000Z</Time>
            <Position>
              <LatitudeDegrees>42.29752697981894016265869140625</LatitudeDegrees>
              <LongitudeDegrees>2.53047485835850238800048828125</LongitudeDegrees>
            </Position>
            <AltitudeMeters>469.399993896484375</AltitudeMeters>
            <DistanceMeters>NAN</DistanceMeters>
          </Trackpoint>
          <Trackpoint>
            <Time>2021-04-03T10:25:27.000Z</Time>
            <Position>
              <LatitudeDegrees>42.29753284715116024017333984375</LatitudeDegrees>
              <LongitudeDegrees>2.53046563826501369476318359375</LongitudeDegrees>
            </Position>
            <AltitudeMeters>469.600006103515625</AltitudeMeters>
            <DistanceMeters>NAN</DistanceMeters>
          </Trackpoint>
          <Trackpoint>
            <Time>2021-04-03T10:25:31.000Z</Time>
            <Position>
              <LatitudeDegrees>42.29756285436451435089111328125</LatitudeDegrees>
              <LongitudeDegrees>2.53045977093279361724853515625</LongitudeDegrees>
            </Position>
            <AltitudeMeters>470.20001220703125</AltitudeMeters>
            <DistanceMeters>NAN</DistanceMeters>
          </Trackpoint>
          <Trackpoint>
            <Time>2021-04-03T10:25:32.000Z</Time>
            <Position>
              <LatitudeDegrees>42.29757593013346195220947265625</LatitudeDegrees>
              <LongitudeDegrees>2.5304581783711910247802734375</LongitudeDegrees>
            </Position>
            <AltitudeMeters>470.399993896484375</AltitudeMeters>
            <DistanceMeters>NAN</DistanceMeters>
          </Trackpoint>
          <Trackpoint>
            <Time>2021-04-03T10:25:33.000Z</Time>
            <Position>
              <LatitudeDegrees>42.29759084992110729217529296875</LatitudeDegrees>
              <LongitudeDegrees>2.53045440651476383209228515625</LongitudeDegrees>
            </Position>
            <AltitudeMeters>470.600006103515625</AltitudeMeters>
            <DistanceMeters>NAN</DistanceMeters>
          </Trackpoint>
          <Trackpoint>
            <Time>2021-04-03T10:25:35.000Z</Time>
            <Position>
              <LatitudeDegrees>42.29760627262294292449951171875</LatitudeDegrees>
              <LongitudeDegrees>2.53044426441192626953125</LongitudeDegrees>
            </Position>
            <AltitudeMeters>470.79998779296875</AltitudeMeters>
            <DistanceMeters>NAN</DistanceMeters>
          </Trackpoint>
          <Trackpoint>
            <Time>2021-04-03T10:25:37.000Z</Time>
            <Position>
              <LatitudeDegrees>42.297623120248317718505859375</LatitudeDegrees>
              <LongitudeDegrees>2.5304370559751987457275390625</LongitudeDegrees>
            </Position>
            <AltitudeMeters>471.20001220703125</AltitudeMeters>
            <DistanceMeters>NAN</DistanceMeters>
          </Trackpoint>
          <Trackpoint>
            <Time>2021-04-03T10:25:38.000Z</Time>
            <Position>
              <LatitudeDegrees>42.29762856848537921905517578125</LatitudeDegrees>
              <LongitudeDegrees>2.53042724914848804473876953125</LongitudeDegrees>
            </Position>
            <AltitudeMeters>471.399993896484375</AltitudeMeters>
            <DistanceMeters>NAN</DistanceMeters>
          </Trackpoint>
          <Trackpoint>
            <Time>2021-04-03T10:25:39.000Z</Time>
            <Position>
              <LatitudeDegrees>42.29764030314981937408447265625</LatitudeDegrees>
              <LongitudeDegrees>2.53042087890207767486572265625</LongitudeDegrees>
            </Position>
            <AltitudeMeters>471.399993896484375</AltitudeMeters>
            <DistanceMeters>NAN</DistanceMeters>
          </Trackpoint>
          <Trackpoint>
            <Time>2021-04-03T10:25:41.000Z</Time>
            <Position>
              <LatitudeDegrees>42.29766578413546085357666015625</LatitudeDegrees>
              <LongitudeDegrees>2.53041937015950679779052734375</LongitudeDegrees>
            </Position>
            <AltitudeMeters>471.600006103515625</AltitudeMeters>
            <DistanceMeters>NAN</DistanceMeters>
          </Trackpoint>
          <Trackpoint>
            <Time>2021-04-03T10:25:46.000Z</Time>
            <Position>
              <LatitudeDegrees>42.29770568199455738067626953125</LatitudeDegrees>
              <LongitudeDegrees>2.53037544898688793182373046875</LongitudeDegrees>
            </Position>
            <AltitudeMeters>472.20001220703125</AltitudeMeters>
            <DistanceMeters>NAN</DistanceMeters>
          </Trackpoint>
          <Trackpoint>
            <Time>2021-04-03T10:25:49.000Z</Time>
            <Position>
              <LatitudeDegrees>42.29774893261492252349853515625</LatitudeDegrees>
              <LongitudeDegrees>2.53036178648471832275390625</LongitudeDegrees>
            </Position>
            <AltitudeMeters>472.600006103515625</AltitudeMeters>
            <DistanceMeters>NAN</DistanceMeters>
          </Trackpoint>
          <Trackpoint>
            <Time>2021-04-03T10:25:51.000Z</Time>
            <Position>
              <LatitudeDegrees>42.2977803647518157958984375</LatitudeDegrees>
              <LongitudeDegrees>2.53035784699022769927978515625</LongitudeDegrees>
            </Position>
            <AltitudeMeters>472.79998779296875</AltitudeMeters>
            <DistanceMeters>NAN</DistanceMeters>
          </Trackpoint>
          <Trackpoint>
            <Time>2021-04-03T10:25:52.000Z</Time>
            <Position>
              <LatitudeDegrees>42.29779251851141452789306640625</LatitudeDegrees>
              <LongitudeDegrees>2.530355751514434814453125</LongitudeDegrees>
            </Position>
            <AltitudeMeters>472.79998779296875</AltitudeMeters>
            <DistanceMeters>NAN</DistanceMeters>
          </Trackpoint>
          <Trackpoint>
            <Time>2021-04-03T10:25:54.000Z</Time>
            <Position>
              <LatitudeDegrees>42.297811210155487060546875</LatitudeDegrees>
              <LongitudeDegrees>2.53033362329006195068359375</LongitudeDegrees>
            </Position>
            <AltitudeMeters>473</AltitudeMeters>
            <DistanceMeters>NAN</DistanceMeters>
          </Trackpoint>
          <Trackpoint>
            <Time>2021-04-03T10:25:58.000Z</Time>
            <Position>
              <LatitudeDegrees>42.2978415526449680328369140625</LatitudeDegrees>
              <LongitudeDegrees>2.53030403517186641693115234375</LongitudeDegrees>
            </Position>
            <AltitudeMeters>473.600006103515625</AltitudeMeters>
            <DistanceMeters>NAN</DistanceMeters>
          </Trackpoint>
          <Trackpoint>
            <Time>2021-04-03T10:25:59.000Z</Time>
            <Position>
              <LatitudeDegrees>42.29784834198653697967529296875</LatitudeDegrees>
              <LongitudeDegrees>2.53029967658221721649169921875</LongitudeDegrees>
            </Position>
            <AltitudeMeters>473.79998779296875</AltitudeMeters>
            <DistanceMeters>NAN</DistanceMeters>
          </Trackpoint>
          <Trackpoint>
            <Time>2021-04-03T10:26:02.000Z</Time>
            <Position>
              <LatitudeDegrees>42.2978697158396244049072265625</LatitudeDegrees>
              <LongitudeDegrees>2.53028157167136669158935546875</LongitudeDegrees>
            </Position>
            <AltitudeMeters>474.20001220703125</AltitudeMeters>
            <DistanceMeters>NAN</DistanceMeters>
          </Trackpoint>
          <Trackpoint>
            <Time>2021-04-03T10:26:06.000Z</Time>
            <Position>
              <LatitudeDegrees>42.297881282866001129150390625</LatitudeDegrees>
              <LongitudeDegrees>2.5302350521087646484375</LongitudeDegrees>
            </Position>
            <AltitudeMeters>474.399993896484375</AltitudeMeters>
            <DistanceMeters>NAN</DistanceMeters>
          </Trackpoint>
          <Trackpoint>
            <Time>2021-04-03T10:26:07.000Z</Time>
            <Position>
              <LatitudeDegrees>42.29787952266633510589599609375</LatitudeDegrees>
              <LongitudeDegrees>2.5302251614630222320556640625</LongitudeDegrees>
            </Position>
            <AltitudeMeters>474.399993896484375</AltitudeMeters>
            <DistanceMeters>NAN</DistanceMeters>
          </Trackpoint>
          <Trackpoint>
            <Time>2021-04-03T10:26:09.000Z</Time>
            <Position>
              <LatitudeDegrees>42.297892011702060699462890625</LatitudeDegrees>
              <LongitudeDegrees>2.5302202999591827392578125</LongitudeDegrees>
            </Position>
            <AltitudeMeters>474.600006103515625</AltitudeMeters>
            <DistanceMeters>NAN</DistanceMeters>
          </Trackpoint>
          <Trackpoint>
            <Time>2021-04-03T10:26:11.000Z</Time>
            <Position>
              <LatitudeDegrees>42.297875247895717620849609375</LatitudeDegrees>
              <LongitudeDegrees>2.53019875846803188323974609375</LongitudeDegrees>
            </Position>
            <AltitudeMeters>474.600006103515625</AltitudeMeters>
            <DistanceMeters>NAN</DistanceMeters>
          </Trackpoint>
          <Trackpoint>
            <Time>2021-04-03T10:26:12.000Z</Time>
            <Position>
              <LatitudeDegrees>42.29786686599254608154296875</LatitudeDegrees>
              <LongitudeDegrees>2.53018920309841632843017578125</LongitudeDegrees>
            </Position>
            <AltitudeMeters>474.600006103515625</AltitudeMeters>
            <DistanceMeters>NAN</DistanceMeters>
          </Trackpoint>
          <Trackpoint>
            <Time>2021-04-03T10:26:15.000Z</Time>
            <Position>
              <LatitudeDegrees>42.297856807708740234375</LatitudeDegrees>
              <LongitudeDegrees>2.53016556613147258758544921875</LongitudeDegrees>
            </Position>
            <AltitudeMeters>475</AltitudeMeters>
            <DistanceMeters>NAN</DistanceMeters>
          </Trackpoint>
          <Trackpoint>
            <Time>2021-04-03T10:26:17.000Z</Time>
            <Position>
              <LatitudeDegrees>42.297857142984867095947265625</LatitudeDegrees>
              <LongitudeDegrees>2.53016154281795024871826171875</LongitudeDegrees>
            </Position>
            <AltitudeMeters>475.20001220703125</AltitudeMeters>
            <DistanceMeters>NAN</DistanceMeters>
          </Trackpoint>
          <Trackpoint>
            <Time>2021-04-03T10:26:18.000Z</Time>
            <Position>
              <LatitudeDegrees>42.2978552989661693572998046875</LatitudeDegrees>
              <LongitudeDegrees>2.5301564298570156097412109375</LongitudeDegrees>
            </Position>
            <AltitudeMeters>475.20001220703125</AltitudeMeters>
            <DistanceMeters>NAN</DistanceMeters>
          </Trackpoint>
          <Trackpoint>
            <Time>2021-04-03T10:26:19.000Z</Time>
            <Position>
              <LatitudeDegrees>42.297855131328105926513671875</LatitudeDegrees>
              <LongitudeDegrees>2.53015123307704925537109375</LongitudeDegrees>
            </Position>
            <AltitudeMeters>475.399993896484375</AltitudeMeters>
            <DistanceMeters>NAN</DistanceMeters>
          </Trackpoint>
          <Trackpoint>
            <Time>2021-04-03T10:26:23.000Z</Time>
            <Position>
              <LatitudeDegrees>42.29787834919989109039306640625</LatitudeDegrees>
              <LongitudeDegrees>2.53014293499290943145751953125</LongitudeDegrees>
            </Position>
            <AltitudeMeters>475.79998779296875</AltitudeMeters>
            <DistanceMeters>NAN</DistanceMeters>
          </Trackpoint>
          <Trackpoint>
            <Time>2021-04-03T10:26:24.000Z</Time>
            <Position>
              <LatitudeDegrees>42.29788388125598430633544921875</LatitudeDegrees>
              <LongitudeDegrees>2.530138827860355377197265625</LongitudeDegrees>
            </Position>
            <AltitudeMeters>475.79998779296875</AltitudeMeters>
            <DistanceMeters>NAN</DistanceMeters>
          </Trackpoint>
          <Trackpoint>
            <Time>2021-04-03T10:26:27.000Z</Time>
            <Position>
              <LatitudeDegrees>42.29787684045732021331787109375</LatitudeDegrees>
              <LongitudeDegrees>2.53013136796653270721435546875</LongitudeDegrees>
            </Position>
            <AltitudeMeters>476.20001220703125</AltitudeMeters>
            <DistanceMeters>NAN</DistanceMeters>
          </Trackpoint>
          <Trackpoint>
            <Time>2021-04-03T10:26:33.000Z</Time>
            <Position>
              <LatitudeDegrees>42.2978474199771881103515625</LatitudeDegrees>
              <LongitudeDegrees>2.5301208905875682830810546875</LongitudeDegrees>
            </Position>
            <AltitudeMeters>476.600006103515625</AltitudeMeters>
            <DistanceMeters>NAN</DistanceMeters>
          </Trackpoint>
          <Trackpoint>
            <Time>2021-04-03T10:26:44.000Z</Time>
            <Position>
              <LatitudeDegrees>42.2977738268673419952392578125</LatitudeDegrees>
              <LongitudeDegrees>2.5300320424139499664306640625</LongitudeDegrees>
            </Position>
            <AltitudeMeters>476.600006103515625</AltitudeMeters>
            <DistanceMeters>NAN</DistanceMeters>
          </Trackpoint>
          <Trackpoint>
            <Time>2021-04-03T10:26:47.000Z</Time>
            <Position>
              <LatitudeDegrees>42.2977553866803646087646484375</LatitudeDegrees>
              <LongitudeDegrees>2.53002273850142955780029296875</LongitudeDegrees>
            </Position>
            <AltitudeMeters>476.600006103515625</AltitudeMeters>
            <DistanceMeters>NAN</DistanceMeters>
          </Trackpoint>
          <Trackpoint>
            <Time>2021-04-03T10:26:48.000Z</Time>
            <Position>
              <LatitudeDegrees>42.29775278829038143157958984375</LatitudeDegrees>
              <LongitudeDegrees>2.53001066856086254119873046875</LongitudeDegrees>
            </Position>
            <AltitudeMeters>476.79998779296875</AltitudeMeters>
            <DistanceMeters>NAN</DistanceMeters>
          </Trackpoint>
          <Trackpoint>
            <Time>2021-04-03T10:26:50.000Z</Time>
            <Position>
              <LatitudeDegrees>42.2977419756352901458740234375</LatitudeDegrees>
              <LongitudeDegrees>2.52999859862029552459716796875</LongitudeDegrees>
            </Position>
            <AltitudeMeters>476.79998779296875</AltitudeMeters>
            <DistanceMeters>NAN</DistanceMeters>
          </Trackpoint>
          <Trackpoint>
            <Time>2021-04-03T10:26:56.000Z</Time>
            <Position>
              <LatitudeDegrees>42.297685146331787109375</LatitudeDegrees>
              <LongitudeDegrees>2.529951743781566619873046875</LongitudeDegrees>
            </Position>
            <AltitudeMeters>477.20001220703125</AltitudeMeters>
            <DistanceMeters>NAN</DistanceMeters>
          </Trackpoint>
          <Trackpoint>
            <Time>2021-04-03T10:26:58.000Z</Time>
            <Position>
              <LatitudeDegrees>42.29766368865966796875</LatitudeDegrees>
              <LongitudeDegrees>2.529936991631984710693359375</LongitudeDegrees>
            </Position>
            <AltitudeMeters>477.399993896484375</AltitudeMeters>
            <DistanceMeters>NAN</DistanceMeters>
          </Trackpoint>
          <Trackpoint>
            <Time>2021-04-03T10:27:01.000Z</Time>
            <Position>
              <LatitudeDegrees>42.2976682148873805999755859375</LatitudeDegrees>
              <LongitudeDegrees>2.52992651425302028656005859375</LongitudeDegrees>
            </Position>
            <AltitudeMeters>477.600006103515625</AltitudeMeters>
            <DistanceMeters>NAN</DistanceMeters>
          </Trackpoint>
          <Trackpoint>
            <Time>2021-04-03T10:27:04.000Z</Time>
            <Position>
              <LatitudeDegrees>42.29763577692210674285888671875</LatitudeDegrees>
              <LongitudeDegrees>2.52990505658090114593505859375</LongitudeDegrees>
            </Position>
            <AltitudeMeters>477.600006103515625</AltitudeMeters>
            <DistanceMeters>NAN</DistanceMeters>
          </Trackpoint>
          <Trackpoint>
            <Time>2021-04-03T10:27:06.000Z</Time>
            <Position>
              <LatitudeDegrees>42.297622449696063995361328125</LatitudeDegrees>
              <LongitudeDegrees>2.5298949144780635833740234375</LongitudeDegrees>
            </Position>
            <AltitudeMeters>477.79998779296875</AltitudeMeters>
            <DistanceMeters>NAN</DistanceMeters>
          </Trackpoint>
          <Trackpoint>
            <Time>2021-04-03T10:27:07.000Z</Time>
            <Position>
              <LatitudeDegrees>42.2976182587444782257080078125</LatitudeDegrees>
              <LongitudeDegrees>2.52989030443131923675537109375</LongitudeDegrees>
            </Position>
            <AltitudeMeters>478</AltitudeMeters>
            <DistanceMeters>NAN</DistanceMeters>
          </Trackpoint>
          <Trackpoint>
            <Time>2021-04-03T10:27:09.000Z</Time>
            <Position>
              <LatitudeDegrees>42.29761381633579730987548828125</LatitudeDegrees>
              <LongitudeDegrees>2.52988510765135288238525390625</LongitudeDegrees>
            </Position>
            <AltitudeMeters>478.399993896484375</AltitudeMeters>
            <DistanceMeters>NAN</DistanceMeters>
          </Trackpoint>
          <Trackpoint>
            <Time>2021-04-03T10:27:13.000Z</Time>
            <Position>
              <LatitudeDegrees>42.29760057292878627777099609375</LatitudeDegrees>
              <LongitudeDegrees>2.52987370826303958892822265625</LongitudeDegrees>
            </Position>
            <AltitudeMeters>478.79998779296875</AltitudeMeters>
            <DistanceMeters>NAN</DistanceMeters>
          </Trackpoint>
          <Trackpoint>
            <Time>2021-04-03T10:27:14.000Z</Time>
            <Position>
              <LatitudeDegrees>42.2975921072065830230712890625</LatitudeDegrees>
              <LongitudeDegrees>2.5298701040446758270263671875</LongitudeDegrees>
            </Position>
            <AltitudeMeters>479</AltitudeMeters>
            <DistanceMeters>NAN</DistanceMeters>
          </Trackpoint>
          <Trackpoint>
            <Time>2021-04-03T10:27:15.000Z</Time>
            <Position>
              <LatitudeDegrees>42.29758598841726779937744140625</LatitudeDegrees>
              <LongitudeDegrees>2.52986784093081951141357421875</LongitudeDegrees>
            </Position>
            <AltitudeMeters>479.20001220703125</AltitudeMeters>
            <DistanceMeters>NAN</DistanceMeters>
          </Trackpoint>
          <Trackpoint>
            <Time>2021-04-03T10:27:23.000Z</Time>
            <Position>
              <LatitudeDegrees>42.2975726611912250518798828125</LatitudeDegrees>
              <LongitudeDegrees>2.529806904494762420654296875</LongitudeDegrees>
            </Position>
            <AltitudeMeters>479.600006103515625</AltitudeMeters>
            <DistanceMeters>NAN</DistanceMeters>
          </Trackpoint>
          <Trackpoint>
            <Time>2021-04-03T10:27:27.000Z</Time>
            <Position>
              <LatitudeDegrees>42.2975666262209415435791015625</LatitudeDegrees>
              <LongitudeDegrees>2.52976222895085811614990234375</LongitudeDegrees>
            </Position>
            <AltitudeMeters>480</AltitudeMeters>
            <DistanceMeters>NAN</DistanceMeters>
          </Trackpoint>
          <Trackpoint>
            <Time>2021-04-03T10:27:28.000Z</Time>
            <Position>
              <LatitudeDegrees>42.297566793859004974365234375</LatitudeDegrees>
              <LongitudeDegrees>2.5297547690570354461669921875</LongitudeDegrees>
            </Position>
            <AltitudeMeters>480</AltitudeMeters>
            <DistanceMeters>NAN</DistanceMeters>
          </Trackpoint>
          <Trackpoint>
            <Time>2021-04-03T10:27:31.000Z</Time>
            <Position>
              <LatitudeDegrees>42.2975716553628444671630859375</LatitudeDegrees>
              <LongitudeDegrees>2.5297383405268192291259765625</LongitudeDegrees>
            </Position>
            <AltitudeMeters>480.600006103515625</AltitudeMeters>
            <DistanceMeters>NAN</DistanceMeters>
          </Trackpoint>
          <Trackpoint>
            <Time>2021-04-03T10:27:35.000Z</Time>
            <Position>
              <LatitudeDegrees>42.2975870780646800994873046875</LatitudeDegrees>
              <LongitudeDegrees>2.5296947546303272247314453125</LongitudeDegrees>
            </Position>
            <AltitudeMeters>481.20001220703125</AltitudeMeters>
            <DistanceMeters>NAN</DistanceMeters>
          </Trackpoint>
          <Trackpoint>
            <Time>2021-04-03T10:27:38.000Z</Time>
            <Position>
              <LatitudeDegrees>42.29758523404598236083984375</LatitudeDegrees>
              <LongitudeDegrees>2.529658377170562744140625</LongitudeDegrees>
            </Position>
            <AltitudeMeters>481.600006103515625</AltitudeMeters>
            <DistanceMeters>NAN</DistanceMeters>
          </Trackpoint>
          <Trackpoint>
            <Time>2021-04-03T10:27:40.000Z</Time>
            <Position>
              <LatitudeDegrees>42.2975991480052471160888671875</LatitudeDegrees>
              <LongitudeDegrees>2.52964655868709087371826171875</LongitudeDegrees>
            </Position>
            <AltitudeMeters>482</AltitudeMeters>
            <DistanceMeters>NAN</DistanceMeters>
          </Trackpoint>
          <Trackpoint>
            <Time>2021-04-03T10:27:41.000Z</Time>
            <Position>
              <LatitudeDegrees>42.29759705252945423126220703125</LatitudeDegrees>
              <LongitudeDegrees>2.529636919498443603515625</LongitudeDegrees>
            </Position>
            <AltitudeMeters>482</AltitudeMeters>
            <DistanceMeters>NAN</DistanceMeters>
          </Trackpoint>
          <Trackpoint>
            <Time>2021-04-03T10:27:42.000Z</Time>
            <Position>
              <LatitudeDegrees>42.2975961305201053619384765625</LatitudeDegrees>
              <LongitudeDegrees>2.5296263583004474639892578125</LongitudeDegrees>
            </Position>
            <AltitudeMeters>482.20001220703125</AltitudeMeters>
            <DistanceMeters>NAN</DistanceMeters>
          </Trackpoint>
          <Trackpoint>
            <Time>2021-04-03T10:27:45.000Z</Time>
            <Position>
              <LatitudeDegrees>42.29761213995516300201416015625</LatitudeDegrees>
              <LongitudeDegrees>2.52959056757390499114990234375</LongitudeDegrees>
            </Position>
            <AltitudeMeters>482.79998779296875</AltitudeMeters>
            <DistanceMeters>NAN</DistanceMeters>
          </Trackpoint>
          <Trackpoint>
            <Time>2021-04-03T10:27:49.000Z</Time>
            <Position>
              <LatitudeDegrees>42.2976182587444782257080078125</LatitudeDegrees>
              <LongitudeDegrees>2.52955502830445766448974609375</LongitudeDegrees>
            </Position>
            <AltitudeMeters>483.20001220703125</AltitudeMeters>
            <DistanceMeters>NAN</DistanceMeters>
          </Trackpoint>
          <Trackpoint>
            <Time>2021-04-03T10:27:51.000Z</Time>
            <Position>
              <LatitudeDegrees>42.2976206056773662567138671875</LatitudeDegrees>
              <LongitudeDegrees>2.52952921204268932342529296875</LongitudeDegrees>
            </Position>
            <AltitudeMeters>483.399993896484375</AltitudeMeters>
            <DistanceMeters>NAN</DistanceMeters>
          </Trackpoint>
          <Trackpoint>
            <Time>2021-04-03T10:27:53.000Z</Time>
            <Position>
              <LatitudeDegrees>42.29762236587703227996826171875</LatitudeDegrees>
              <LongitudeDegrees>2.529502809047698974609375</LongitudeDegrees>
            </Position>
            <AltitudeMeters>483.79998779296875</AltitudeMeters>
            <DistanceMeters>NAN</DistanceMeters>
          </Trackpoint>
          <Trackpoint>
            <Time>2021-04-03T10:27:58.000Z</Time>
            <Position>
              <LatitudeDegrees>42.29762940667569637298583984375</LatitudeDegrees>
              <LongitudeDegrees>2.52946299500763416290283203125</LongitudeDegrees>
            </Position>
            <AltitudeMeters>484.600006103515625</AltitudeMeters>
            <DistanceMeters>NAN</DistanceMeters>
          </Trackpoint>
          <Trackpoint>
            <Time>2021-04-03T10:28:00.000Z</Time>
            <Position>
              <LatitudeDegrees>42.29764432646334171295166015625</LatitudeDegrees>
              <LongitudeDegrees>2.52943483181297779083251953125</LongitudeDegrees>
            </Position>
            <AltitudeMeters>484.79998779296875</AltitudeMeters>
            <DistanceMeters>NAN</DistanceMeters>
          </Trackpoint>
          <Trackpoint>
            <Time>2021-04-03T10:28:07.000Z</Time>
            <Position>
              <LatitudeDegrees>42.2976269759237766265869140625</LatitudeDegrees>
              <LongitudeDegrees>2.5293339975178241729736328125</LongitudeDegrees>
            </Position>
            <AltitudeMeters>485.79998779296875</AltitudeMeters>
            <DistanceMeters>NAN</DistanceMeters>
          </Trackpoint>
          <Trackpoint>
            <Time>2021-04-03T10:28:09.000Z</Time>
            <Position>
              <LatitudeDegrees>42.29763862676918506622314453125</LatitudeDegrees>
              <LongitudeDegrees>2.52931714989244937896728515625</LongitudeDegrees>
            </Position>
            <AltitudeMeters>486</AltitudeMeters>
            <DistanceMeters>NAN</DistanceMeters>
          </Trackpoint>
          <Trackpoint>
            <Time>2021-04-03T10:28:14.000Z</Time>
            <Position>
              <LatitudeDegrees>42.29761540889739990234375</LatitudeDegrees>
              <LongitudeDegrees>2.52926300279796123504638671875</LongitudeDegrees>
            </Position>
            <AltitudeMeters>486.79998779296875</AltitudeMeters>
            <DistanceMeters>NAN</DistanceMeters>
          </Trackpoint>
          <Trackpoint>
            <Time>2021-04-03T10:28:15.000Z</Time>
            <Position>
              <LatitudeDegrees>42.29761096648871898651123046875</LatitudeDegrees>
              <LongitudeDegrees>2.52924741245806217193603515625</LongitudeDegrees>
            </Position>
            <AltitudeMeters>487</AltitudeMeters>
            <DistanceMeters>NAN</DistanceMeters>
          </Trackpoint>
          <Trackpoint>
            <Time>2021-04-03T10:28:20.000Z</Time>
            <Position>
              <LatitudeDegrees>42.29761180467903614044189453125</LatitudeDegrees>
              <LongitudeDegrees>2.52919913269579410552978515625</LongitudeDegrees>
            </Position>
            <AltitudeMeters>487.600006103515625</AltitudeMeters>
            <DistanceMeters>NAN</DistanceMeters>
          </Trackpoint>
          <Trackpoint>
            <Time>2021-04-03T10:28:21.000Z</Time>
            <Position>
              <LatitudeDegrees>42.2976060211658477783203125</LatitudeDegrees>
              <LongitudeDegrees>2.52918555401265621185302734375</LongitudeDegrees>
            </Position>
            <AltitudeMeters>487.79998779296875</AltitudeMeters>
            <DistanceMeters>NAN</DistanceMeters>
          </Trackpoint>
          <Trackpoint>
            <Time>2021-04-03T10:28:23.000Z</Time>
            <Position>
              <LatitudeDegrees>42.29762001894414424896240234375</LatitudeDegrees>
              <LongitudeDegrees>2.5291780941188335418701171875</LongitudeDegrees>
            </Position>
            <AltitudeMeters>488</AltitudeMeters>
            <DistanceMeters>NAN</DistanceMeters>
          </Trackpoint>
          <Trackpoint>
            <Time>2021-04-03T10:28:25.000Z</Time>
            <Position>
              <LatitudeDegrees>42.29761767201125621795654296875</LatitudeDegrees>
              <LongitudeDegrees>2.5291583128273487091064453125</LongitudeDegrees>
            </Position>
            <AltitudeMeters>488.399993896484375</AltitudeMeters>
            <DistanceMeters>NAN</DistanceMeters>
          </Trackpoint>
          <Trackpoint>
            <Time>2021-04-03T10:28:27.000Z</Time>
            <Position>
              <LatitudeDegrees>42.29759336449205875396728515625</LatitudeDegrees>
              <LongitudeDegrees>2.529124282300472259521484375</LongitudeDegrees>
            </Position>
            <AltitudeMeters>488.600006103515625</AltitudeMeters>
            <DistanceMeters>NAN</DistanceMeters>
          </Trackpoint>
          <Trackpoint>
            <Time>2021-04-03T10:28:32.000Z</Time>
            <Position>
              <LatitudeDegrees>42.2975904308259487152099609375</LatitudeDegrees>
              <LongitudeDegrees>2.52908010967075824737548828125</LongitudeDegrees>
            </Position>
            <AltitudeMeters>489</AltitudeMeters>
            <DistanceMeters>NAN</DistanceMeters>
          </Trackpoint>
          <Trackpoint>
            <Time>2021-04-03T10:28:35.000Z</Time>
            <Position>
              <LatitudeDegrees>42.29758766479790210723876953125</LatitudeDegrees>
              <LongitudeDegrees>2.52905596978962421417236328125</LongitudeDegrees>
            </Position>
            <AltitudeMeters>489.399993896484375</AltitudeMeters>
            <DistanceMeters>NAN</DistanceMeters>
          </Trackpoint>
          <Trackpoint>
            <Time>2021-04-03T10:28:41.000Z</Time>
            <Position>
              <LatitudeDegrees>42.2976048476994037628173828125</LatitudeDegrees>
              <LongitudeDegrees>2.52899914048612117767333984375</LongitudeDegrees>
            </Position>
            <AltitudeMeters>489.79998779296875</AltitudeMeters>
            <DistanceMeters>NAN</DistanceMeters>
          </Trackpoint>
          <Trackpoint>
            <Time>2021-04-03T10:28:47.000Z</Time>
            <Position>
              <LatitudeDegrees>42.2976360283792018890380859375</LatitudeDegrees>
              <LongitudeDegrees>2.52893342636525630950927734375</LongitudeDegrees>
            </Position>
            <AltitudeMeters>490</AltitudeMeters>
            <DistanceMeters>NAN</DistanceMeters>
          </Trackpoint>
          <Trackpoint>
            <Time>2021-04-03T10:28:52.000Z</Time>
            <Position>
              <LatitudeDegrees>42.2976516187191009521484375</LatitudeDegrees>
              <LongitudeDegrees>2.52887827344238758087158203125</LongitudeDegrees>
            </Position>
            <AltitudeMeters>490.20001220703125</AltitudeMeters>
            <DistanceMeters>NAN</DistanceMeters>
          </Trackpoint>
          <Trackpoint>
            <Time>2021-04-03T10:28:53.000Z</Time>
            <Position>
              <LatitudeDegrees>42.29765899479389190673828125</LatitudeDegrees>
              <LongitudeDegrees>2.52887156791985034942626953125</LongitudeDegrees>
            </Position>
            <AltitudeMeters>490.20001220703125</AltitudeMeters>
            <DistanceMeters>NAN</DistanceMeters>
          </Trackpoint>
          <Trackpoint>
            <Time>2021-04-03T10:29:00.000Z</Time>
            <Position>
              <LatitudeDegrees>42.29773032478988170623779296875</LatitudeDegrees>
              <LongitudeDegrees>2.52878674305975437164306640625</LongitudeDegrees>
            </Position>
            <AltitudeMeters>490.20001220703125</AltitudeMeters>
            <DistanceMeters>NAN</DistanceMeters>
          </Trackpoint>
          <Trackpoint>
            <Time>2021-04-03T10:29:06.000Z</Time>
            <Position>
              <LatitudeDegrees>42.297757901251316070556640625</LatitudeDegrees>
              <LongitudeDegrees>2.52871633507311344146728515625</LongitudeDegrees>
            </Position>
            <AltitudeMeters>490.399993896484375</AltitudeMeters>
            <DistanceMeters>NAN</DistanceMeters>
          </Trackpoint>
          <Trackpoint>
            <Time>2021-04-03T10:29:08.000Z</Time>
            <Position>
              <LatitudeDegrees>42.297767288982868194580078125</LatitudeDegrees>
              <LongitudeDegrees>2.528682388365268707275390625</LongitudeDegrees>
            </Position>
            <AltitudeMeters>490.399993896484375</AltitudeMeters>
            <DistanceMeters>NAN</DistanceMeters>
          </Trackpoint>
          <Trackpoint>
            <Time>2021-04-03T10:29:11.000Z</Time>
            <Position>
              <LatitudeDegrees>42.297781370580196380615234375</LatitudeDegrees>
              <LongitudeDegrees>2.52865062095224857330322265625</LongitudeDegrees>
            </Position>
            <AltitudeMeters>490.600006103515625</AltitudeMeters>
            <DistanceMeters>NAN</DistanceMeters>
          </Trackpoint>
          <Trackpoint>
            <Time>2021-04-03T10:29:14.000Z</Time>
            <Position>
              <LatitudeDegrees>42.297785393893718719482421875</LatitudeDegrees>
              <LongitudeDegrees>2.52861625514924526214599609375</LongitudeDegrees>
            </Position>
            <AltitudeMeters>490.600006103515625</AltitudeMeters>
            <DistanceMeters>NAN</DistanceMeters>
          </Trackpoint>
          <Trackpoint>
            <Time>2021-04-03T10:29:18.000Z</Time>
            <Position>
              <LatitudeDegrees>42.2978274710476398468017578125</LatitudeDegrees>
              <LongitudeDegrees>2.5285906903445720672607421875</LongitudeDegrees>
            </Position>
            <AltitudeMeters>490.600006103515625</AltitudeMeters>
            <DistanceMeters>NAN</DistanceMeters>
          </Trackpoint>
          <Trackpoint>
            <Time>2021-04-03T10:29:22.000Z</Time>
            <Position>
              <LatitudeDegrees>42.2978589870035648345947265625</LatitudeDegrees>
              <LongitudeDegrees>2.52856395207345485687255859375</LongitudeDegrees>
            </Position>
            <AltitudeMeters>491</AltitudeMeters>
            <DistanceMeters>NAN</DistanceMeters>
          </Trackpoint>
          <Trackpoint>
            <Time>2021-04-03T10:29:23.000Z</Time>
            <Position>
              <LatitudeDegrees>42.2978687100112438201904296875</LatitudeDegrees>
              <LongitudeDegrees>2.52855540253221988677978515625</LongitudeDegrees>
            </Position>
            <AltitudeMeters>491.20001220703125</AltitudeMeters>
            <DistanceMeters>NAN</DistanceMeters>
          </Trackpoint>
          <Trackpoint>
            <Time>2021-04-03T10:29:24.000Z</Time>
            <Position>
              <LatitudeDegrees>42.29787952266633510589599609375</LatitudeDegrees>
              <LongitudeDegrees>2.528544925153255462646484375</LongitudeDegrees>
            </Position>
            <AltitudeMeters>491.20001220703125</AltitudeMeters>
            <DistanceMeters>NAN</DistanceMeters>
          </Trackpoint>
          <Trackpoint>
            <Time>2021-04-03T10:29:29.000Z</Time>
            <Position>
              <LatitudeDegrees>42.29789947159588336944580078125</LatitudeDegrees>
              <LongitudeDegrees>2.5284964777529239654541015625</LongitudeDegrees>
            </Position>
            <AltitudeMeters>491.79998779296875</AltitudeMeters>
            <DistanceMeters>NAN</DistanceMeters>
          </Trackpoint>
          <Trackpoint>
            <Time>2021-04-03T10:29:31.000Z</Time>
            <Position>
              <LatitudeDegrees>42.297915481030941009521484375</LatitudeDegrees>
              <LongitudeDegrees>2.5284877605736255645751953125</LongitudeDegrees>
            </Position>
            <AltitudeMeters>492</AltitudeMeters>
            <DistanceMeters>NAN</DistanceMeters>
          </Trackpoint>
          <Trackpoint>
            <Time>2021-04-03T10:29:33.000Z</Time>
            <Position>
              <LatitudeDegrees>42.297919504344463348388671875</LatitudeDegrees>
              <LongitudeDegrees>2.52847610972821712493896484375</LongitudeDegrees>
            </Position>
            <AltitudeMeters>492.20001220703125</AltitudeMeters>
            <DistanceMeters>NAN</DistanceMeters>
          </Trackpoint>
          <Trackpoint>
            <Time>2021-04-03T10:29:37.000Z</Time>
            <Position>
              <LatitudeDegrees>42.29794423095881938934326171875</LatitudeDegrees>
              <LongitudeDegrees>2.528443001210689544677734375</LongitudeDegrees>
            </Position>
            <AltitudeMeters>492.600006103515625</AltitudeMeters>
            <DistanceMeters>NAN</DistanceMeters>
          </Trackpoint>
          <Trackpoint>
            <Time>2021-04-03T10:29:38.000Z</Time>
            <Position>
              <LatitudeDegrees>42.2979501821100711822509765625</LatitudeDegrees>
              <LongitudeDegrees>2.5284378044307231903076171875</LongitudeDegrees>
            </Position>
            <AltitudeMeters>492.79998779296875</AltitudeMeters>
            <DistanceMeters>NAN</DistanceMeters>
          </Trackpoint>
          <Trackpoint>
            <Time>2021-04-03T10:29:39.000Z</Time>
            <Position>
              <LatitudeDegrees>42.2979582287371158599853515625</LatitudeDegrees>
              <LongitudeDegrees>2.5284334458410739898681640625</LongitudeDegrees>
            </Position>
            <AltitudeMeters>492.79998779296875</AltitudeMeters>
            <DistanceMeters>NAN</DistanceMeters>
          </Trackpoint>
          <Trackpoint>
            <Time>2021-04-03T10:29:41.000Z</Time>
            <Position>
              <LatitudeDegrees>42.2979686222970485687255859375</LatitudeDegrees>
              <LongitudeDegrees>2.528420872986316680908203125</LongitudeDegrees>
            </Position>
            <AltitudeMeters>493.20001220703125</AltitudeMeters>
            <DistanceMeters>NAN</DistanceMeters>
          </Trackpoint>
          <Trackpoint>
            <Time>2021-04-03T10:29:45.000Z</Time>
            <Position>
              <LatitudeDegrees>42.2979894094169139862060546875</LatitudeDegrees>
              <LongitudeDegrees>2.52837971784174442291259765625</LongitudeDegrees>
            </Position>
            <AltitudeMeters>493.79998779296875</AltitudeMeters>
            <DistanceMeters>NAN</DistanceMeters>
          </Trackpoint>
          <Trackpoint>
            <Time>2021-04-03T10:29:47.000Z</Time>
            <Position>
              <LatitudeDegrees>42.29799938388168811798095703125</LatitudeDegrees>
              <LongitudeDegrees>2.5283684022724628448486328125</LongitudeDegrees>
            </Position>
            <AltitudeMeters>494</AltitudeMeters>
            <DistanceMeters>NAN</DistanceMeters>
          </Trackpoint>
          <Trackpoint>
            <Time>2021-04-03T10:29:48.000Z</Time>
            <Position>
              <LatitudeDegrees>42.2980065084993839263916015625</LatitudeDegrees>
              <LongitudeDegrees>2.528365887701511383056640625</LongitudeDegrees>
            </Position>
            <AltitudeMeters>494.20001220703125</AltitudeMeters>
            <DistanceMeters>NAN</DistanceMeters>
          </Trackpoint>
          <Trackpoint>
            <Time>2021-04-03T10:29:52.000Z</Time>
            <Position>
              <LatitudeDegrees>42.29804389178752899169921875</LatitudeDegrees>
              <LongitudeDegrees>2.52834350802004337310791015625</LongitudeDegrees>
            </Position>
            <AltitudeMeters>495</AltitudeMeters>
            <DistanceMeters>NAN</DistanceMeters>
          </Trackpoint>
          <Trackpoint>
            <Time>2021-04-03T10:29:55.000Z</Time>
            <Position>
              <LatitudeDegrees>42.29805923067033290863037109375</LatitudeDegrees>
              <LongitudeDegrees>2.52833747304975986480712890625</LongitudeDegrees>
            </Position>
            <AltitudeMeters>495.399993896484375</AltitudeMeters>
            <DistanceMeters>NAN</DistanceMeters>
          </Trackpoint>
          <Trackpoint>
            <Time>2021-04-03T10:29:57.000Z</Time>
            <Position>
              <LatitudeDegrees>42.29806476272642612457275390625</LatitudeDegrees>
              <LongitudeDegrees>2.52832640893757343292236328125</LongitudeDegrees>
            </Position>
            <AltitudeMeters>495.600006103515625</AltitudeMeters>
            <DistanceMeters>NAN</DistanceMeters>
          </Trackpoint>
          <Trackpoint>
            <Time>2021-04-03T10:30:03.000Z</Time>
            <Position>
              <LatitudeDegrees>42.29809577576816082000732421875</LatitudeDegrees>
              <LongitudeDegrees>2.5282899476587772369384765625</LongitudeDegrees>
            </Position>
            <AltitudeMeters>496.399993896484375</AltitudeMeters>
            <DistanceMeters>NAN</DistanceMeters>
          </Trackpoint>
          <Trackpoint>
            <Time>2021-04-03T10:30:05.000Z</Time>
            <Position>
              <LatitudeDegrees>42.29809678159654140472412109375</LatitudeDegrees>
              <LongitudeDegrees>2.5282617844641208648681640625</LongitudeDegrees>
            </Position>
            <AltitudeMeters>496.79998779296875</AltitudeMeters>
            <DistanceMeters>NAN</DistanceMeters>
          </Trackpoint>
          <Trackpoint>
            <Time>2021-04-03T10:30:11.000Z</Time>
            <Position>
              <LatitudeDegrees>42.2981097735464572906494140625</LatitudeDegrees>
              <LongitudeDegrees>2.52820000983774662017822265625</LongitudeDegrees>
            </Position>
            <AltitudeMeters>497.20001220703125</AltitudeMeters>
            <DistanceMeters>NAN</DistanceMeters>
          </Trackpoint>
          <Trackpoint>
            <Time>2021-04-03T10:30:12.000Z</Time>
            <Position>
              <LatitudeDegrees>42.2981114499270915985107421875</LatitudeDegrees>
              <LongitudeDegrees>2.52819229848682880401611328125</LongitudeDegrees>
            </Position>
            <AltitudeMeters>497.399993896484375</AltitudeMeters>
            <DistanceMeters>NAN</DistanceMeters>
          </Trackpoint>
          <Trackpoint>
            <Time>2021-04-03T10:30:13.000Z</Time>
            <Position>
              <LatitudeDegrees>42.2981134615838527679443359375</LatitudeDegrees>
              <LongitudeDegrees>2.52818861044943332672119140625</LongitudeDegrees>
            </Position>
            <AltitudeMeters>497.399993896484375</AltitudeMeters>
            <DistanceMeters>NAN</DistanceMeters>
          </Trackpoint>
          <Trackpoint>
            <Time>2021-04-03T10:30:22.000Z</Time>
            <Position>
              <LatitudeDegrees>42.29811052791774272918701171875</LatitudeDegrees>
              <LongitudeDegrees>2.52812323160469532012939453125</LongitudeDegrees>
            </Position>
            <AltitudeMeters>498.399993896484375</AltitudeMeters>
            <DistanceMeters>NAN</DistanceMeters>
          </Trackpoint>
          <Trackpoint>
            <Time>2021-04-03T10:30:23.000Z</Time>
            <Position>
              <LatitudeDegrees>42.298109941184520721435546875</LatitudeDegrees>
              <LongitudeDegrees>2.5281142629683017730712890625</LongitudeDegrees>
            </Position>
            <AltitudeMeters>498.399993896484375</AltitudeMeters>
            <DistanceMeters>NAN</DistanceMeters>
          </Trackpoint>
          <Trackpoint>
            <Time>2021-04-03T10:30:27.000Z</Time>
            <Position>
              <LatitudeDegrees>42.2981134615838527679443359375</LatitudeDegrees>
              <LongitudeDegrees>2.52809791825711727142333984375</LongitudeDegrees>
            </Position>
            <AltitudeMeters>498.600006103515625</AltitudeMeters>
            <DistanceMeters>NAN</DistanceMeters>
          </Trackpoint>
          <Trackpoint>
            <Time>2021-04-03T10:30:33.000Z</Time>
            <Position>
              <LatitudeDegrees>42.298130057752132415771484375</LatitudeDegrees>
              <LongitudeDegrees>2.528069503605365753173828125</LongitudeDegrees>
            </Position>
            <AltitudeMeters>499.20001220703125</AltitudeMeters>
            <DistanceMeters>NAN</DistanceMeters>
          </Trackpoint>
          <Trackpoint>
            <Time>2021-04-03T10:30:34.000Z</Time>
            <Position>
              <LatitudeDegrees>42.298138104379177093505859375</LatitudeDegrees>
              <LongitudeDegrees>2.5280639715492725372314453125</LongitudeDegrees>
            </Position>
            <AltitudeMeters>499</AltitudeMeters>
            <DistanceMeters>NAN</DistanceMeters>
          </Trackpoint>
          <Trackpoint>
            <Time>2021-04-03T10:30:39.000Z</Time>
            <Position>
              <LatitudeDegrees>42.29814355261623859405517578125</LatitudeDegrees>
              <LongitudeDegrees>2.528016865253448486328125</LongitudeDegrees>
            </Position>
            <AltitudeMeters>499.20001220703125</AltitudeMeters>
            <DistanceMeters>NAN</DistanceMeters>
          </Trackpoint>
          <Trackpoint>
            <Time>2021-04-03T10:30:40.000Z</Time>
            <Position>
              <LatitudeDegrees>42.29814958758652210235595703125</LatitudeDegrees>
              <LongitudeDegrees>2.5280093215405941009521484375</LongitudeDegrees>
            </Position>
            <AltitudeMeters>499.399993896484375</AltitudeMeters>
            <DistanceMeters>NAN</DistanceMeters>
          </Trackpoint>
          <Trackpoint>
            <Time>2021-04-03T10:30:42.000Z</Time>
            <Position>
              <LatitudeDegrees>42.2981573827564716339111328125</LatitudeDegrees>
              <LongitudeDegrees>2.52798912115395069122314453125</LongitudeDegrees>
            </Position>
            <AltitudeMeters>499.399993896484375</AltitudeMeters>
            <DistanceMeters>NAN</DistanceMeters>
          </Trackpoint>
          <Trackpoint>
            <Time>2021-04-03T10:30:43.000Z</Time>
            <Position>
              <LatitudeDegrees>42.298159897327423095703125</LatitudeDegrees>
              <LongitudeDegrees>2.5279848463833332061767578125</LongitudeDegrees>
            </Position>
            <AltitudeMeters>499.600006103515625</AltitudeMeters>
            <DistanceMeters>NAN</DistanceMeters>
          </Trackpoint>
          <Trackpoint>
            <Time>2021-04-03T10:30:45.000Z</Time>
            <Position>
              <LatitudeDegrees>42.29817154817283153533935546875</LatitudeDegrees>
              <LongitudeDegrees>2.5279734469950199127197265625</LongitudeDegrees>
            </Position>
            <AltitudeMeters>499.600006103515625</AltitudeMeters>
            <DistanceMeters>NAN</DistanceMeters>
          </Trackpoint>
          <Trackpoint>
            <Time>2021-04-03T10:30:48.000Z</Time>
            <Position>
              <LatitudeDegrees>42.298187725245952606201171875</LatitudeDegrees>
              <LongitudeDegrees>2.5279484689235687255859375</LongitudeDegrees>
            </Position>
            <AltitudeMeters>499.79998779296875</AltitudeMeters>
            <DistanceMeters>NAN</DistanceMeters>
          </Trackpoint>
          <Trackpoint>
            <Time>2021-04-03T10:30:50.000Z</Time>
            <Position>
              <LatitudeDegrees>42.29819837026298046112060546875</LatitudeDegrees>
              <LongitudeDegrees>2.52793229185044765472412109375</LongitudeDegrees>
            </Position>
            <AltitudeMeters>499.79998779296875</AltitudeMeters>
            <DistanceMeters>NAN</DistanceMeters>
          </Trackpoint>
          <Trackpoint>
            <Time>2021-04-03T10:30:52.000Z</Time>
            <Position>
              <LatitudeDegrees>42.29820658452808856964111328125</LatitudeDegrees>
              <LongitudeDegrees>2.52791200764477252960205078125</LongitudeDegrees>
            </Position>
            <AltitudeMeters>500</AltitudeMeters>
            <DistanceMeters>NAN</DistanceMeters>
          </Trackpoint>
          <Trackpoint>
            <Time>2021-04-03T10:30:54.000Z</Time>
            <Position>
              <LatitudeDegrees>42.29821027256548404693603515625</LatitudeDegrees>
              <LongitudeDegrees>2.5278923101723194122314453125</LongitudeDegrees>
            </Position>
            <AltitudeMeters>500.20001220703125</AltitudeMeters>
            <DistanceMeters>NAN</DistanceMeters>
          </Trackpoint>
          <Trackpoint>
            <Time>2021-04-03T10:30:57.000Z</Time>
            <Position>
              <LatitudeDegrees>42.2982227616012096405029296875</LatitudeDegrees>
              <LongitudeDegrees>2.5278721936047077178955078125</LongitudeDegrees>
            </Position>
            <AltitudeMeters>500.399993896484375</AltitudeMeters>
            <DistanceMeters>NAN</DistanceMeters>
          </Trackpoint>
          <Trackpoint>
            <Time>2021-04-03T10:30:59.000Z</Time>
            <Position>
              <LatitudeDegrees>42.29824095033109188079833984375</LatitudeDegrees>
              <LongitudeDegrees>2.52786372788250446319580078125</LongitudeDegrees>
            </Position>
            <AltitudeMeters>500.79998779296875</AltitudeMeters>
            <DistanceMeters>NAN</DistanceMeters>
          </Trackpoint>
          <Trackpoint>
            <Time>2021-04-03T10:31:01.000Z</Time>
            <Position>
              <LatitudeDegrees>42.2982469014823436737060546875</LatitudeDegrees>
              <LongitudeDegrees>2.527847550809383392333984375</LongitudeDegrees>
            </Position>
            <AltitudeMeters>501.20001220703125</AltitudeMeters>
            <DistanceMeters>NAN</DistanceMeters>
          </Trackpoint>
          <Trackpoint>
            <Time>2021-04-03T10:31:04.000Z</Time>
            <Position>
              <LatitudeDegrees>42.29825452901422977447509765625</LatitudeDegrees>
              <LongitudeDegrees>2.52782332710921764373779296875</LongitudeDegrees>
            </Position>
            <AltitudeMeters>501.399993896484375</AltitudeMeters>
            <DistanceMeters>NAN</DistanceMeters>
          </Trackpoint>
          <Trackpoint>
            <Time>2021-04-03T10:31:06.000Z</Time>
            <Position>
              <LatitudeDegrees>42.29824799112975597381591796875</LatitudeDegrees>
              <LongitudeDegrees>2.52779985778033733367919921875</LongitudeDegrees>
            </Position>
            <AltitudeMeters>501.399993896484375</AltitudeMeters>
            <DistanceMeters>NAN</DistanceMeters>
          </Trackpoint>
          <Trackpoint>
            <Time>2021-04-03T10:31:10.000Z</Time>
            <Position>
              <LatitudeDegrees>42.29825503192842006683349609375</LatitudeDegrees>
              <LongitudeDegrees>2.5277662463486194610595703125</LongitudeDegrees>
            </Position>
            <AltitudeMeters>502</AltitudeMeters>
            <DistanceMeters>NAN</DistanceMeters>
          </Trackpoint>
          <Trackpoint>
            <Time>2021-04-03T10:31:12.000Z</Time>
            <Position>
              <LatitudeDegrees>42.29826156981289386749267578125</LatitudeDegrees>
              <LongitudeDegrees>2.52774973399937152862548828125</LongitudeDegrees>
            </Position>
            <AltitudeMeters>502.399993896484375</AltitudeMeters>
            <DistanceMeters>NAN</DistanceMeters>
          </Trackpoint>
          <Trackpoint>
            <Time>2021-04-03T10:31:16.000Z</Time>
            <Position>
              <LatitudeDegrees>42.298268862068653106689453125</LatitudeDegrees>
              <LongitudeDegrees>2.5277397595345973968505859375</LongitudeDegrees>
            </Position>
            <AltitudeMeters>503</AltitudeMeters>
            <DistanceMeters>NAN</DistanceMeters>
          </Trackpoint>
          <Trackpoint>
            <Time>2021-04-03T10:31:18.000Z</Time>
            <Position>
              <LatitudeDegrees>42.2982693649828433990478515625</LatitudeDegrees>
              <LongitudeDegrees>2.52772291190922260284423828125</LongitudeDegrees>
            </Position>
            <AltitudeMeters>503.600006103515625</AltitudeMeters>
            <DistanceMeters>NAN</DistanceMeters>
          </Trackpoint>
          <Trackpoint>
            <Time>2021-04-03T10:31:23.000Z</Time>
            <Position>
              <LatitudeDegrees>42.29826626367866992950439453125</LatitudeDegrees>
              <LongitudeDegrees>2.527691982686519622802734375</LongitudeDegrees>
            </Position>
            <AltitudeMeters>504.20001220703125</AltitudeMeters>
            <DistanceMeters>NAN</DistanceMeters>
          </Trackpoint>
          <Trackpoint>
            <Time>2021-04-03T10:31:24.000Z</Time>
            <Position>
              <LatitudeDegrees>42.298265509307384490966796875</LatitudeDegrees>
              <LongitudeDegrees>2.52768904902040958404541015625</LongitudeDegrees>
            </Position>
            <AltitudeMeters>504.20001220703125</AltitudeMeters>
            <DistanceMeters>NAN</DistanceMeters>
          </Trackpoint>
          <Trackpoint>
            <Time>2021-04-03T10:31:27.000Z</Time>
            <Position>
              <LatitudeDegrees>42.2982676886022090911865234375</LatitudeDegrees>
              <LongitudeDegrees>2.52767865546047687530517578125</LongitudeDegrees>
            </Position>
            <AltitudeMeters>504.399993896484375</AltitudeMeters>
            <DistanceMeters>NAN</DistanceMeters>
          </Trackpoint>
          <Trackpoint>
            <Time>2021-04-03T10:31:34.000Z</Time>
            <Position>
              <LatitudeDegrees>42.29824178852140903472900390625</LatitudeDegrees>
              <LongitudeDegrees>2.52762836404144763946533203125</LongitudeDegrees>
            </Position>
            <AltitudeMeters>505.20001220703125</AltitudeMeters>
            <DistanceMeters>NAN</DistanceMeters>
          </Trackpoint>
          <Trackpoint>
            <Time>2021-04-03T10:31:38.000Z</Time>
            <Position>
              <LatitudeDegrees>42.298266179859638214111328125</LatitudeDegrees>
              <LongitudeDegrees>2.5276378355920314788818359375</LongitudeDegrees>
            </Position>
            <AltitudeMeters>505.79998779296875</AltitudeMeters>
            <DistanceMeters>NAN</DistanceMeters>
          </Trackpoint>
          <Trackpoint>
            <Time>2021-04-03T10:31:39.000Z</Time>
            <Position>
              <LatitudeDegrees>42.29826307855546474456787109375</LatitudeDegrees>
              <LongitudeDegrees>2.5276358239352703094482421875</LongitudeDegrees>
            </Position>
            <AltitudeMeters>506</AltitudeMeters>
            <DistanceMeters>NAN</DistanceMeters>
          </Trackpoint>
          <Trackpoint>
            <Time>2021-04-03T10:31:41.000Z</Time>
            <Position>
              <LatitudeDegrees>42.29826274327933788299560546875</LatitudeDegrees>
              <LongitudeDegrees>2.52762618474662303924560546875</LongitudeDegrees>
            </Position>
            <AltitudeMeters>506</AltitudeMeters>
            <DistanceMeters>NAN</DistanceMeters>
          </Trackpoint>
          <Trackpoint>
            <Time>2021-04-03T10:31:46.000Z</Time>
            <Position>
              <LatitudeDegrees>42.298223935067653656005859375</LatitudeDegrees>
              <LongitudeDegrees>2.52754789777100086212158203125</LongitudeDegrees>
            </Position>
            <AltitudeMeters>506.20001220703125</AltitudeMeters>
            <DistanceMeters>NAN</DistanceMeters>
          </Trackpoint>
          <Trackpoint>
            <Time>2021-04-03T10:31:50.000Z</Time>
            <Position>
              <LatitudeDegrees>42.29820876382291316986083984375</LatitudeDegrees>
              <LongitudeDegrees>2.52751101739704608917236328125</LongitudeDegrees>
            </Position>
            <AltitudeMeters>506.20001220703125</AltitudeMeters>
            <DistanceMeters>NAN</DistanceMeters>
          </Trackpoint>
          <Trackpoint>
            <Time>2021-04-03T10:31:52.000Z</Time>
            <Position>
              <LatitudeDegrees>42.29819769971072673797607421875</LatitudeDegrees>
              <LongitudeDegrees>2.527493499219417572021484375</LongitudeDegrees>
            </Position>
            <AltitudeMeters>506.20001220703125</AltitudeMeters>
            <DistanceMeters>NAN</DistanceMeters>
          </Trackpoint>
          <Trackpoint>
            <Time>2021-04-03T10:31:59.000Z</Time>
            <Position>
              <LatitudeDegrees>42.2981667704880237579345703125</LatitudeDegrees>
              <LongitudeDegrees>2.52744748257100582122802734375</LongitudeDegrees>
            </Position>
            <AltitudeMeters>506.399993896484375</AltitudeMeters>
            <DistanceMeters>NAN</DistanceMeters>
          </Trackpoint>
          <Trackpoint>
            <Time>2021-04-03T10:32:00.000Z</Time>
            <Position>
              <LatitudeDegrees>42.2981630824506282806396484375</LatitudeDegrees>
              <LongitudeDegrees>2.52744429744780063629150390625</LongitudeDegrees>
            </Position>
            <AltitudeMeters>506.399993896484375</AltitudeMeters>
            <DistanceMeters>NAN</DistanceMeters>
          </Trackpoint>
          <Trackpoint>
            <Time>2021-04-03T10:32:03.000Z</Time>
            <Position>
              <LatitudeDegrees>42.29815260507166385650634765625</LatitudeDegrees>
              <LongitudeDegrees>2.52742652781307697296142578125</LongitudeDegrees>
            </Position>
            <AltitudeMeters>506.399993896484375</AltitudeMeters>
            <DistanceMeters>NAN</DistanceMeters>
          </Trackpoint>
          <Trackpoint>
            <Time>2021-04-03T10:32:04.000Z</Time>
            <Position>
              <LatitudeDegrees>42.29814581573009490966796875</LatitudeDegrees>
              <LongitudeDegrees>2.52741546370089054107666015625</LongitudeDegrees>
            </Position>
            <AltitudeMeters>506.600006103515625</AltitudeMeters>
            <DistanceMeters>NAN</DistanceMeters>
          </Trackpoint>
          <Trackpoint>
            <Time>2021-04-03T10:32:07.000Z</Time>
            <Position>
              <LatitudeDegrees>42.2981322370469570159912109375</LatitudeDegrees>
              <LongitudeDegrees>2.52740138210356235504150390625</LongitudeDegrees>
            </Position>
            <AltitudeMeters>506.79998779296875</AltitudeMeters>
            <DistanceMeters>NAN</DistanceMeters>
          </Trackpoint>
          <Trackpoint>
            <Time>2021-04-03T10:32:08.000Z</Time>
            <Position>
              <LatitudeDegrees>42.2981225140392780303955078125</LatitudeDegrees>
              <LongitudeDegrees>2.52739794552326202392578125</LongitudeDegrees>
            </Position>
            <AltitudeMeters>506.79998779296875</AltitudeMeters>
            <DistanceMeters>NAN</DistanceMeters>
          </Trackpoint>
          <Trackpoint>
            <Time>2021-04-03T10:32:11.000Z</Time>
            <Position>
              <LatitudeDegrees>42.29811220429837703704833984375</LatitudeDegrees>
              <LongitudeDegrees>2.52739534713327884674072265625</LongitudeDegrees>
            </Position>
            <AltitudeMeters>507</AltitudeMeters>
            <DistanceMeters>NAN</DistanceMeters>
          </Trackpoint>
          <Trackpoint>
            <Time>2021-04-03T10:32:12.000Z</Time>
            <Position>
              <LatitudeDegrees>42.29810767807066440582275390625</LatitudeDegrees>
              <LongitudeDegrees>2.5273914076387882232666015625</LongitudeDegrees>
            </Position>
            <AltitudeMeters>507.20001220703125</AltitudeMeters>
            <DistanceMeters>NAN</DistanceMeters>
          </Trackpoint>
          <Trackpoint>
            <Time>2021-04-03T10:32:20.000Z</Time>
            <Position>
              <LatitudeDegrees>42.2980601526796817779541015625</LatitudeDegrees>
              <LongitudeDegrees>2.52735368907451629638671875</LongitudeDegrees>
            </Position>
            <AltitudeMeters>507.79998779296875</AltitudeMeters>
            <DistanceMeters>NAN</DistanceMeters>
          </Trackpoint>
          <Trackpoint>
            <Time>2021-04-03T10:32:21.000Z</Time>
            <Position>
              <LatitudeDegrees>42.29805151931941509246826171875</LatitudeDegrees>
              <LongitudeDegrees>2.527354024350643157958984375</LongitudeDegrees>
            </Position>
            <AltitudeMeters>507.79998779296875</AltitudeMeters>
            <DistanceMeters>NAN</DistanceMeters>
          </Trackpoint>
          <Trackpoint>
            <Time>2021-04-03T10:32:27.000Z</Time>
            <Position>
              <LatitudeDegrees>42.29807448573410511016845703125</LatitudeDegrees>
              <LongitudeDegrees>2.52733365632593631744384765625</LongitudeDegrees>
            </Position>
            <AltitudeMeters>508</AltitudeMeters>
            <DistanceMeters>NAN</DistanceMeters>
          </Trackpoint>
          <Trackpoint>
            <Time>2021-04-03T10:32:29.000Z</Time>
            <Position>
              <LatitudeDegrees>42.2980772517621517181396484375</LatitudeDegrees>
              <LongitudeDegrees>2.5273236818611621856689453125</LongitudeDegrees>
            </Position>
            <AltitudeMeters>508.20001220703125</AltitudeMeters>
            <DistanceMeters>NAN</DistanceMeters>
          </Trackpoint>
          <Trackpoint>
            <Time>2021-04-03T10:32:31.000Z</Time>
            <Position>
              <LatitudeDegrees>42.2980772517621517181396484375</LatitudeDegrees>
              <LongitudeDegrees>2.5273236818611621856689453125</LongitudeDegrees>
            </Position>
            <AltitudeMeters>508</AltitudeMeters>
            <DistanceMeters>NAN</DistanceMeters>
          </Trackpoint>
          <Trackpoint>
            <Time>2021-04-03T10:32:38.000Z</Time>
            <Position>
              <LatitudeDegrees>42.2980772517621517181396484375</LatitudeDegrees>
              <LongitudeDegrees>2.5273236818611621856689453125</LongitudeDegrees>
            </Position>
            <AltitudeMeters>508</AltitudeMeters>
            <DistanceMeters>NAN</DistanceMeters>
          </Trackpoint>
          <Trackpoint>
            <Time>2021-04-03T10:32:44.000Z</Time>
            <Position>
              <LatitudeDegrees>42.2980772517621517181396484375</LatitudeDegrees>
              <LongitudeDegrees>2.5273273698985576629638671875</LongitudeDegrees>
            </Position>
            <AltitudeMeters>508.399993896484375</AltitudeMeters>
            <DistanceMeters>NAN</DistanceMeters>
          </Trackpoint>
          <Trackpoint>
            <Time>2021-04-03T10:33:05.000Z</Time>
            <Position>
              <LatitudeDegrees>42.29807867668569087982177734375</LatitudeDegrees>
              <LongitudeDegrees>2.52732661552727222442626953125</LongitudeDegrees>
            </Position>
            <AltitudeMeters>507.79998779296875</AltitudeMeters>
            <DistanceMeters>NAN</DistanceMeters>
          </Trackpoint>
          <Trackpoint>
            <Time>2021-04-03T10:33:09.000Z</Time>
            <Position>
              <LatitudeDegrees>42.29807515628635883331298828125</LatitudeDegrees>
              <LongitudeDegrees>2.52731488086283206939697265625</LongitudeDegrees>
            </Position>
            <AltitudeMeters>507.79998779296875</AltitudeMeters>
            <DistanceMeters>NAN</DistanceMeters>
          </Trackpoint>
          <Trackpoint>
            <Time>2021-04-03T10:33:12.000Z</Time>
            <Position>
              <LatitudeDegrees>42.298074066638946533203125</LatitudeDegrees>
              <LongitudeDegrees>2.5273075886070728302001953125</LongitudeDegrees>
            </Position>
            <AltitudeMeters>507.600006103515625</AltitudeMeters>
            <DistanceMeters>NAN</DistanceMeters>
          </Trackpoint>
          <Trackpoint>
            <Time>2021-04-03T10:33:20.000Z</Time>
            <Position>
              <LatitudeDegrees>42.29807264171540737152099609375</LatitudeDegrees>
              <LongitudeDegrees>2.5273020565509796142578125</LongitudeDegrees>
            </Position>
            <AltitudeMeters>507.600006103515625</AltitudeMeters>
            <DistanceMeters>NAN</DistanceMeters>
          </Trackpoint>
          <Trackpoint>
            <Time>2021-04-03T10:33:23.000Z</Time>
            <Position>
              <LatitudeDegrees>42.2980727255344390869140625</LatitudeDegrees>
              <LongitudeDegrees>2.5273020565509796142578125</LongitudeDegrees>
            </Position>
            <AltitudeMeters>507.600006103515625</AltitudeMeters>
            <DistanceMeters>NAN</DistanceMeters>
          </Trackpoint>
          <Trackpoint>
            <Time>2021-04-03T10:33:27.000Z</Time>
            <Position>
              <LatitudeDegrees>42.298074401915073394775390625</LatitudeDegrees>
              <LongitudeDegrees>2.5273020565509796142578125</LongitudeDegrees>
            </Position>
            <AltitudeMeters>507.399993896484375</AltitudeMeters>
            <DistanceMeters>NAN</DistanceMeters>
          </Trackpoint>
          <Trackpoint>
            <Time>2021-04-03T10:33:33.000Z</Time>
            <Position>
              <LatitudeDegrees>42.29807448573410511016845703125</LatitudeDegrees>
              <LongitudeDegrees>2.52730415202677249908447265625</LongitudeDegrees>
            </Position>
            <AltitudeMeters>507.20001220703125</AltitudeMeters>
            <DistanceMeters>NAN</DistanceMeters>
          </Trackpoint>
          <Trackpoint>
            <Time>2021-04-03T10:33:36.000Z</Time>
            <Position>
              <LatitudeDegrees>42.29807515628635883331298828125</LatitudeDegrees>
              <LongitudeDegrees>2.527304403483867645263671875</LongitudeDegrees>
            </Position>
            <AltitudeMeters>507.399993896484375</AltitudeMeters>
            <DistanceMeters>NAN</DistanceMeters>
          </Trackpoint>
          <Trackpoint>
            <Time>2021-04-03T10:33:37.000Z</Time>
            <Position>
              <LatitudeDegrees>42.2980752401053905487060546875</LatitudeDegrees>
              <LongitudeDegrees>2.527304403483867645263671875</LongitudeDegrees>
            </Position>
            <AltitudeMeters>507.399993896484375</AltitudeMeters>
            <DistanceMeters>NAN</DistanceMeters>
          </Trackpoint>
          <Trackpoint>
            <Time>2021-04-03T10:33:44.000Z</Time>
            <Position>
              <LatitudeDegrees>42.298075743019580841064453125</LatitudeDegrees>
              <LongitudeDegrees>2.527304403483867645263671875</LongitudeDegrees>
            </Position>
            <AltitudeMeters>507.399993896484375</AltitudeMeters>
            <DistanceMeters>NAN</DistanceMeters>
          </Trackpoint>
          <Trackpoint>
            <Time>2021-04-03T10:33:49.000Z</Time>
            <Position>
              <LatitudeDegrees>42.2980754077434539794921875</LatitudeDegrees>
              <LongitudeDegrees>2.52730415202677249908447265625</LongitudeDegrees>
            </Position>
            <AltitudeMeters>507.600006103515625</AltitudeMeters>
            <DistanceMeters>NAN</DistanceMeters>
          </Trackpoint>
          <Trackpoint>
            <Time>2021-04-03T10:33:51.000Z</Time>
            <Position>
              <LatitudeDegrees>42.29807532392442226409912109375</LatitudeDegrees>
              <LongitudeDegrees>2.52730415202677249908447265625</LongitudeDegrees>
            </Position>
            <AltitudeMeters>507.600006103515625</AltitudeMeters>
            <DistanceMeters>NAN</DistanceMeters>
          </Trackpoint>
          <Trackpoint>
            <Time>2021-04-03T10:33:54.000Z</Time>
            <Position>
              <LatitudeDegrees>42.2980742342770099639892578125</LatitudeDegrees>
              <LongitudeDegrees>2.52730415202677249908447265625</LongitudeDegrees>
            </Position>
            <AltitudeMeters>507.600006103515625</AltitudeMeters>
            <DistanceMeters>NAN</DistanceMeters>
          </Trackpoint>
          <Trackpoint>
            <Time>2021-04-03T10:33:57.000Z</Time>
            <Position>
              <LatitudeDegrees>42.29807247407734394073486328125</LatitudeDegrees>
              <LongitudeDegrees>2.52730415202677249908447265625</LongitudeDegrees>
            </Position>
            <AltitudeMeters>507.399993896484375</AltitudeMeters>
            <DistanceMeters>NAN</DistanceMeters>
          </Trackpoint>
          <Trackpoint>
            <Time>2021-04-03T10:33:59.000Z</Time>
            <Position>
              <LatitudeDegrees>42.298071719706058502197265625</LatitudeDegrees>
              <LongitudeDegrees>2.52730406820774078369140625</LongitudeDegrees>
            </Position>
            <AltitudeMeters>507.20001220703125</AltitudeMeters>
            <DistanceMeters>NAN</DistanceMeters>
          </Trackpoint>
          <Trackpoint>
            <Time>2021-04-03T10:34:02.000Z</Time>
            <Position>
              <LatitudeDegrees>42.298071384429931640625</LatitudeDegrees>
              <LongitudeDegrees>2.52730364911258220672607421875</LongitudeDegrees>
            </Position>
            <AltitudeMeters>507.20001220703125</AltitudeMeters>
            <DistanceMeters>NAN</DistanceMeters>
          </Trackpoint>
          <Trackpoint>
            <Time>2021-04-03T10:34:07.000Z</Time>
            <Position>
              <LatitudeDegrees>42.2980712167918682098388671875</LatitudeDegrees>
              <LongitudeDegrees>2.527303062379360198974609375</LongitudeDegrees>
            </Position>
            <AltitudeMeters>507.399993896484375</AltitudeMeters>
            <DistanceMeters>NAN</DistanceMeters>
          </Trackpoint>
          <Trackpoint>
            <Time>2021-04-03T10:34:18.000Z</Time>
            <Position>
              <LatitudeDegrees>42.2980712167918682098388671875</LatitudeDegrees>
              <LongitudeDegrees>2.527306415140628814697265625</LongitudeDegrees>
            </Position>
            <AltitudeMeters>507.600006103515625</AltitudeMeters>
            <DistanceMeters>NAN</DistanceMeters>
          </Trackpoint>
          <Trackpoint>
            <Time>2021-04-03T10:34:24.000Z</Time>
            <Position>
              <LatitudeDegrees>42.29806912131607532501220703125</LatitudeDegrees>
              <LongitudeDegrees>2.5273183174431324005126953125</LongitudeDegrees>
            </Position>
            <AltitudeMeters>507.79998779296875</AltitudeMeters>
            <DistanceMeters>NAN</DistanceMeters>
          </Trackpoint>
          <Trackpoint>
            <Time>2021-04-03T10:34:37.000Z</Time>
            <Position>
              <LatitudeDegrees>42.298065014183521270751953125</LatitudeDegrees>
              <LongitudeDegrees>2.52733164466917514801025390625</LongitudeDegrees>
            </Position>
            <AltitudeMeters>508.20001220703125</AltitudeMeters>
            <DistanceMeters>NAN</DistanceMeters>
          </Trackpoint>
          <Trackpoint>
            <Time>2021-04-03T10:34:41.000Z</Time>
            <Position>
              <LatitudeDegrees>42.298063673079013824462890625</LatitudeDegrees>
              <LongitudeDegrees>2.52733650617301464080810546875</LongitudeDegrees>
            </Position>
            <AltitudeMeters>508.20001220703125</AltitudeMeters>
            <DistanceMeters>NAN</DistanceMeters>
          </Trackpoint>
          <Trackpoint>
            <Time>2021-04-03T10:34:42.000Z</Time>
            <Position>
              <LatitudeDegrees>42.2980635054409503936767578125</LatitudeDegrees>
              <LongitudeDegrees>2.52733751200139522552490234375</LongitudeDegrees>
            </Position>
            <AltitudeMeters>508.20001220703125</AltitudeMeters>
            <DistanceMeters>NAN</DistanceMeters>
          </Trackpoint>
          <Trackpoint>
            <Time>2021-04-03T10:34:43.000Z</Time>
            <Position>
              <LatitudeDegrees>42.29806342162191867828369140625</LatitudeDegrees>
              <LongitudeDegrees>2.52733868546783924102783203125</LongitudeDegrees>
            </Position>
            <AltitudeMeters>508.20001220703125</AltitudeMeters>
            <DistanceMeters>NAN</DistanceMeters>
          </Trackpoint>
          <Trackpoint>
            <Time>2021-04-03T10:34:48.000Z</Time>
            <Position>
              <LatitudeDegrees>42.29806308634579181671142578125</LatitudeDegrees>
              <LongitudeDegrees>2.5273478217422962188720703125</LongitudeDegrees>
            </Position>
            <AltitudeMeters>508.600006103515625</AltitudeMeters>
            <DistanceMeters>NAN</DistanceMeters>
          </Trackpoint>
          <Trackpoint>
            <Time>2021-04-03T10:34:57.000Z</Time>
            <Position>
              <LatitudeDegrees>42.29806375689804553985595703125</LatitudeDegrees>
              <LongitudeDegrees>2.52735477872192859649658203125</LongitudeDegrees>
            </Position>
            <AltitudeMeters>509</AltitudeMeters>
            <DistanceMeters>NAN</DistanceMeters>
          </Trackpoint>
          <Trackpoint>
            <Time>2021-04-03T10:35:01.000Z</Time>
            <Position>
              <LatitudeDegrees>42.29806459508836269378662109375</LatitudeDegrees>
              <LongitudeDegrees>2.5273557007312774658203125</LongitudeDegrees>
            </Position>
            <AltitudeMeters>508.79998779296875</AltitudeMeters>
            <DistanceMeters>NAN</DistanceMeters>
          </Trackpoint>
          <Trackpoint>
            <Time>2021-04-03T10:35:05.000Z</Time>
            <Position>
              <LatitudeDegrees>42.29806593619287014007568359375</LatitudeDegrees>
              <LongitudeDegrees>2.52735628746449947357177734375</LongitudeDegrees>
            </Position>
            <AltitudeMeters>508.79998779296875</AltitudeMeters>
            <DistanceMeters>NAN</DistanceMeters>
          </Trackpoint>
          <Trackpoint>
            <Time>2021-04-03T10:35:18.000Z</Time>
            <Position>
              <LatitudeDegrees>42.29806995950639247894287109375</LatitudeDegrees>
              <LongitudeDegrees>2.52737422473728656768798828125</LongitudeDegrees>
            </Position>
            <AltitudeMeters>508.79998779296875</AltitudeMeters>
            <DistanceMeters>NAN</DistanceMeters>
          </Trackpoint>
          <Trackpoint>
            <Time>2021-04-03T10:35:26.000Z</Time>
            <Position>
              <LatitudeDegrees>42.298075743019580841064453125</LatitudeDegrees>
              <LongitudeDegrees>2.527388222515583038330078125</LongitudeDegrees>
            </Position>
            <AltitudeMeters>509.20001220703125</AltitudeMeters>
            <DistanceMeters>NAN</DistanceMeters>
          </Trackpoint>
          <Trackpoint>
            <Time>2021-04-03T10:35:37.000Z</Time>
            <Position>
              <LatitudeDegrees>42.298081777989864349365234375</LatitudeDegrees>
              <LongitudeDegrees>2.52739434130489826202392578125</LongitudeDegrees>
            </Position>
            <AltitudeMeters>509.600006103515625</AltitudeMeters>
            <DistanceMeters>NAN</DistanceMeters>
          </Trackpoint>
          <Trackpoint>
            <Time>2021-04-03T10:35:39.000Z</Time>
            <Position>
              <LatitudeDegrees>42.2980821132659912109375</LatitudeDegrees>
              <LongitudeDegrees>2.527394592761993408203125</LongitudeDegrees>
            </Position>
            <AltitudeMeters>509.600006103515625</AltitudeMeters>
            <DistanceMeters>NAN</DistanceMeters>
          </Trackpoint>
          <Trackpoint>
            <Time>2021-04-03T10:35:41.000Z</Time>
            <Position>
              <LatitudeDegrees>42.29808236472308635711669921875</LatitudeDegrees>
              <LongitudeDegrees>2.5273947604000568389892578125</LongitudeDegrees>
            </Position>
            <AltitudeMeters>509.79998779296875</AltitudeMeters>
            <DistanceMeters>NAN</DistanceMeters>
          </Trackpoint>
          <Trackpoint>
            <Time>2021-04-03T10:35:46.000Z</Time>
            <Position>
              <LatitudeDegrees>42.2980809397995471954345703125</LatitudeDegrees>
              <LongitudeDegrees>2.52739484421908855438232421875</LongitudeDegrees>
            </Position>
            <AltitudeMeters>509.79998779296875</AltitudeMeters>
            <DistanceMeters>NAN</DistanceMeters>
          </Trackpoint>
          <Trackpoint>
            <Time>2021-04-03T10:35:52.000Z</Time>
            <Position>
              <LatitudeDegrees>42.29807951487600803375244140625</LatitudeDegrees>
              <LongitudeDegrees>2.52739484421908855438232421875</LongitudeDegrees>
            </Position>
            <AltitudeMeters>510</AltitudeMeters>
            <DistanceMeters>NAN</DistanceMeters>
          </Trackpoint>
          <Trackpoint>
            <Time>2021-04-03T10:35:59.000Z</Time>
            <Position>
              <LatitudeDegrees>42.2980785928666591644287109375</LatitudeDegrees>
              <LongitudeDegrees>2.52739484421908855438232421875</LongitudeDegrees>
            </Position>
            <AltitudeMeters>510.600006103515625</AltitudeMeters>
            <DistanceMeters>NAN</DistanceMeters>
          </Trackpoint>
          <Trackpoint>
            <Time>2021-04-03T10:36:00.000Z</Time>
            <Position>
              <LatitudeDegrees>42.2980581410229206085205078125</LatitudeDegrees>
              <LongitudeDegrees>2.5273986160755157470703125</LongitudeDegrees>
            </Position>
            <AltitudeMeters>510.600006103515625</AltitudeMeters>
            <DistanceMeters>NAN</DistanceMeters>
          </Trackpoint>
          <Trackpoint>
            <Time>2021-04-03T10:36:05.000Z</Time>
            <Position>
              <LatitudeDegrees>42.2979314066469669342041015625</LatitudeDegrees>
              <LongitudeDegrees>2.52747246064245700836181640625</LongitudeDegrees>
            </Position>
            <AltitudeMeters>510.600006103515625</AltitudeMeters>
            <DistanceMeters>NAN</DistanceMeters>
          </Trackpoint>
          <Trackpoint>
            <Time>2021-04-03T10:36:06.000Z</Time>
            <Position>
              <LatitudeDegrees>42.2979072667658329010009765625</LatitudeDegrees>
              <LongitudeDegrees>2.52747950144112110137939453125</LongitudeDegrees>
            </Position>
            <AltitudeMeters>510.600006103515625</AltitudeMeters>
            <DistanceMeters>NAN</DistanceMeters>
          </Trackpoint>
          <Trackpoint>
            <Time>2021-04-03T10:36:09.000Z</Time>
            <Position>
              <LatitudeDegrees>42.29782663285732269287109375</LatitudeDegrees>
              <LongitudeDegrees>2.52749978564679622650146484375</LongitudeDegrees>
            </Position>
            <AltitudeMeters>510.600006103515625</AltitudeMeters>
            <DistanceMeters>NAN</DistanceMeters>
          </Trackpoint>
          <Trackpoint>
            <Time>2021-04-03T10:36:12.000Z</Time>
            <Position>
              <LatitudeDegrees>42.29779989458620548248291015625</LatitudeDegrees>
              <LongitudeDegrees>2.5275188125669956207275390625</LongitudeDegrees>
            </Position>
            <AltitudeMeters>510.79998779296875</AltitudeMeters>
            <DistanceMeters>NAN</DistanceMeters>
          </Trackpoint>
          <Trackpoint>
            <Time>2021-04-03T10:36:16.000Z</Time>
            <Position>
              <LatitudeDegrees>42.29779310524463653564453125</LatitudeDegrees>
              <LongitudeDegrees>2.5275463052093982696533203125</LongitudeDegrees>
            </Position>
            <AltitudeMeters>511</AltitudeMeters>
            <DistanceMeters>NAN</DistanceMeters>
          </Trackpoint>
          <Trackpoint>
            <Time>2021-04-03T10:36:24.000Z</Time>
            <Position>
              <LatitudeDegrees>42.297736443579196929931640625</LatitudeDegrees>
              <LongitudeDegrees>2.52758980728685855865478515625</LongitudeDegrees>
            </Position>
            <AltitudeMeters>511.600006103515625</AltitudeMeters>
            <DistanceMeters>NAN</DistanceMeters>
          </Trackpoint>
          <Trackpoint>
            <Time>2021-04-03T10:36:26.000Z</Time>
            <Position>
              <LatitudeDegrees>42.29772278107702732086181640625</LatitudeDegrees>
              <LongitudeDegrees>2.5275962613523006439208984375</LongitudeDegrees>
            </Position>
            <AltitudeMeters>511.600006103515625</AltitudeMeters>
            <DistanceMeters>NAN</DistanceMeters>
          </Trackpoint>
          <Trackpoint>
            <Time>2021-04-03T10:36:27.000Z</Time>
            <Position>
              <LatitudeDegrees>42.29771423153579235076904296875</LatitudeDegrees>
              <LongitudeDegrees>2.5275992788374423980712890625</LongitudeDegrees>
            </Position>
            <AltitudeMeters>511.79998779296875</AltitudeMeters>
            <DistanceMeters>NAN</DistanceMeters>
          </Trackpoint>
          <Trackpoint>
            <Time>2021-04-03T10:36:30.000Z</Time>
            <Position>
              <LatitudeDegrees>42.29769864119589328765869140625</LatitudeDegrees>
              <LongitudeDegrees>2.52759533934295177459716796875</LongitudeDegrees>
            </Position>
            <AltitudeMeters>512</AltitudeMeters>
            <DistanceMeters>NAN</DistanceMeters>
          </Trackpoint>
          <Trackpoint>
            <Time>2021-04-03T10:36:31.000Z</Time>
            <Position>
              <LatitudeDegrees>42.29769445024430751800537109375</LatitudeDegrees>
              <LongitudeDegrees>2.52759634517133235931396484375</LongitudeDegrees>
            </Position>
            <AltitudeMeters>512.20001220703125</AltitudeMeters>
            <DistanceMeters>NAN</DistanceMeters>
          </Trackpoint>
          <Trackpoint>
            <Time>2021-04-03T10:36:33.000Z</Time>
            <Position>
              <LatitudeDegrees>42.29768179357051849365234375</LatitudeDegrees>
              <LongitudeDegrees>2.52758913673460483551025390625</LongitudeDegrees>
            </Position>
            <AltitudeMeters>512.20001220703125</AltitudeMeters>
            <DistanceMeters>NAN</DistanceMeters>
          </Trackpoint>
          <Trackpoint>
            <Time>2021-04-03T10:36:40.000Z</Time>
            <Position>
              <LatitudeDegrees>42.29765421710908412933349609375</LatitudeDegrees>
              <LongitudeDegrees>2.52761914394795894622802734375</LongitudeDegrees>
            </Position>
            <AltitudeMeters>512</AltitudeMeters>
            <DistanceMeters>NAN</DistanceMeters>
          </Trackpoint>
          <Trackpoint>
            <Time>2021-04-03T10:36:45.000Z</Time>
            <Position>
              <LatitudeDegrees>42.29764365591108798980712890625</LatitudeDegrees>
              <LongitudeDegrees>2.52763590775430202484130859375</LongitudeDegrees>
            </Position>
            <AltitudeMeters>512.4000244140625</AltitudeMeters>
            <DistanceMeters>NAN</DistanceMeters>
          </Trackpoint>
          <Trackpoint>
            <Time>2021-04-03T10:36:47.000Z</Time>
            <Position>
              <LatitudeDegrees>42.29763778857886791229248046875</LatitudeDegrees>
              <LongitudeDegrees>2.52764579840004444122314453125</LongitudeDegrees>
            </Position>
            <AltitudeMeters>512.5999755859375</AltitudeMeters>
            <DistanceMeters>NAN</DistanceMeters>
          </Trackpoint>
          <Trackpoint>
            <Time>2021-04-03T10:36:50.000Z</Time>
            <Position>
              <LatitudeDegrees>42.2976269759237766265869140625</LatitudeDegrees>
              <LongitudeDegrees>2.527658455073833465576171875</LongitudeDegrees>
            </Position>
            <AltitudeMeters>512.79998779296875</AltitudeMeters>
            <DistanceMeters>NAN</DistanceMeters>
          </Trackpoint>
          <Trackpoint>
            <Time>2021-04-03T10:36:52.000Z</Time>
            <Position>
              <LatitudeDegrees>42.29761046357452869415283203125</LatitudeDegrees>
              <LongitudeDegrees>2.527658455073833465576171875</LongitudeDegrees>
            </Position>
            <AltitudeMeters>513</AltitudeMeters>
            <DistanceMeters>NAN</DistanceMeters>
          </Trackpoint>
          <Trackpoint>
            <Time>2021-04-03T10:36:59.000Z</Time>
            <Position>
              <LatitudeDegrees>42.2975646145641803741455078125</LatitudeDegrees>
              <LongitudeDegrees>2.52768083475530147552490234375</LongitudeDegrees>
            </Position>
            <AltitudeMeters>513.79998779296875</AltitudeMeters>
            <DistanceMeters>NAN</DistanceMeters>
          </Trackpoint>
          <Trackpoint>
            <Time>2021-04-03T10:37:00.000Z</Time>
            <Position>
              <LatitudeDegrees>42.29756017215549945831298828125</LatitudeDegrees>
              <LongitudeDegrees>2.5276871211826801300048828125</LongitudeDegrees>
            </Position>
            <AltitudeMeters>513.79998779296875</AltitudeMeters>
            <DistanceMeters>NAN</DistanceMeters>
          </Trackpoint>
          <Trackpoint>
            <Time>2021-04-03T10:37:03.000Z</Time>
            <Position>
              <LatitudeDegrees>42.29754223488271236419677734375</LatitudeDegrees>
              <LongitudeDegrees>2.52769810147583484649658203125</LongitudeDegrees>
            </Position>
            <AltitudeMeters>514.5999755859375</AltitudeMeters>
            <DistanceMeters>NAN</DistanceMeters>
          </Trackpoint>
          <Trackpoint>
            <Time>2021-04-03T10:37:06.000Z</Time>
            <Position>
              <LatitudeDegrees>42.29753184132277965545654296875</LatitudeDegrees>
              <LongitudeDegrees>2.527698688209056854248046875</LongitudeDegrees>
            </Position>
            <AltitudeMeters>514.79998779296875</AltitudeMeters>
            <DistanceMeters>NAN</DistanceMeters>
          </Trackpoint>
          <Trackpoint>
            <Time>2021-04-03T10:37:07.000Z</Time>
            <Position>
              <LatitudeDegrees>42.2975253872573375701904296875</LatitudeDegrees>
              <LongitudeDegrees>2.52769860439002513885498046875</LongitudeDegrees>
            </Position>
            <AltitudeMeters>515</AltitudeMeters>
            <DistanceMeters>NAN</DistanceMeters>
          </Trackpoint>
          <Trackpoint>
            <Time>2021-04-03T10:37:09.000Z</Time>
            <Position>
              <LatitudeDegrees>42.2975146584212779998779296875</LatitudeDegrees>
              <LongitudeDegrees>2.52770505845546722412109375</LongitudeDegrees>
            </Position>
            <AltitudeMeters>515.20001220703125</AltitudeMeters>
            <DistanceMeters>NAN</DistanceMeters>
          </Trackpoint>
          <Trackpoint>
            <Time>2021-04-03T10:37:12.000Z</Time>
            <Position>
              <LatitudeDegrees>42.29750149883329868316650390625</LatitudeDegrees>
              <LongitudeDegrees>2.52769139595329761505126953125</LongitudeDegrees>
            </Position>
            <AltitudeMeters>515.4000244140625</AltitudeMeters>
            <DistanceMeters>NAN</DistanceMeters>
          </Trackpoint>
          <Trackpoint>
            <Time>2021-04-03T10:37:13.000Z</Time>
            <Position>
              <LatitudeDegrees>42.29749999009072780609130859375</LatitudeDegrees>
              <LongitudeDegrees>2.52768334932625293731689453125</LongitudeDegrees>
            </Position>
            <AltitudeMeters>515.4000244140625</AltitudeMeters>
            <DistanceMeters>NAN</DistanceMeters>
          </Trackpoint>
          <Trackpoint>
            <Time>2021-04-03T10:37:17.000Z</Time>
            <Position>
              <LatitudeDegrees>42.2974838130176067352294921875</LatitudeDegrees>
              <LongitudeDegrees>2.527629621326923370361328125</LongitudeDegrees>
            </Position>
            <AltitudeMeters>516</AltitudeMeters>
            <DistanceMeters>NAN</DistanceMeters>
          </Trackpoint>
          <Trackpoint>
            <Time>2021-04-03T10:37:19.000Z</Time>
            <Position>
              <LatitudeDegrees>42.297480963170528411865234375</LatitudeDegrees>
              <LongitudeDegrees>2.5276078283786773681640625</LongitudeDegrees>
            </Position>
            <AltitudeMeters>516.20001220703125</AltitudeMeters>
            <DistanceMeters>NAN</DistanceMeters>
          </Trackpoint>
          <Trackpoint>
            <Time>2021-04-03T10:37:22.000Z</Time>
            <Position>
              <LatitudeDegrees>42.29747015051543712615966796875</LatitudeDegrees>
              <LongitudeDegrees>2.52756399102509021759033203125</LongitudeDegrees>
            </Position>
            <AltitudeMeters>516.4000244140625</AltitudeMeters>
            <DistanceMeters>NAN</DistanceMeters>
          </Trackpoint>
          <Trackpoint>
            <Time>2021-04-03T10:37:23.000Z</Time>
            <Position>
              <LatitudeDegrees>42.29746813885867595672607421875</LatitudeDegrees>
              <LongitudeDegrees>2.52754949033260345458984375</LongitudeDegrees>
            </Position>
            <AltitudeMeters>516.79998779296875</AltitudeMeters>
            <DistanceMeters>NAN</DistanceMeters>
          </Trackpoint>
          <Trackpoint>
            <Time>2021-04-03T10:37:25.000Z</Time>
            <Position>
              <LatitudeDegrees>42.29746160097420215606689453125</LatitudeDegrees>
              <LongitudeDegrees>2.5275219976902008056640625</LongitudeDegrees>
            </Position>
            <AltitudeMeters>517</AltitudeMeters>
            <DistanceMeters>NAN</DistanceMeters>
          </Trackpoint>
          <Trackpoint>
            <Time>2021-04-03T10:37:30.000Z</Time>
            <Position>
              <LatitudeDegrees>42.29745808057487010955810546875</LatitudeDegrees>
              <LongitudeDegrees>2.527454607188701629638671875</LongitudeDegrees>
            </Position>
            <AltitudeMeters>517.5999755859375</AltitudeMeters>
            <DistanceMeters>NAN</DistanceMeters>
          </Trackpoint>
          <Trackpoint>
            <Time>2021-04-03T10:37:33.000Z</Time>
            <Position>
              <LatitudeDegrees>42.29745338670909404754638671875</LatitudeDegrees>
              <LongitudeDegrees>2.5274168886244297027587890625</LongitudeDegrees>
            </Position>
            <AltitudeMeters>517.79998779296875</AltitudeMeters>
            <DistanceMeters>NAN</DistanceMeters>
          </Trackpoint>
          <Trackpoint>
            <Time>2021-04-03T10:37:35.000Z</Time>
            <Position>
              <LatitudeDegrees>42.29744852520525455474853515625</LatitudeDegrees>
              <LongitudeDegrees>2.5273974426090717315673828125</LongitudeDegrees>
            </Position>
            <AltitudeMeters>518</AltitudeMeters>
            <DistanceMeters>NAN</DistanceMeters>
          </Trackpoint>
          <Trackpoint>
            <Time>2021-04-03T10:37:40.000Z</Time>
            <Position>
              <LatitudeDegrees>42.29743813164532184600830078125</LatitudeDegrees>
              <LongitudeDegrees>2.52734371460974216461181640625</LongitudeDegrees>
            </Position>
            <AltitudeMeters>518.4000244140625</AltitudeMeters>
            <DistanceMeters>NAN</DistanceMeters>
          </Trackpoint>
          <Trackpoint>
            <Time>2021-04-03T10:37:43.000Z</Time>
            <Position>
              <LatitudeDegrees>42.29742966592311859130859375</LatitudeDegrees>
              <LongitudeDegrees>2.5273132883012294769287109375</LongitudeDegrees>
            </Position>
            <AltitudeMeters>519.20001220703125</AltitudeMeters>
            <DistanceMeters>NAN</DistanceMeters>
          </Trackpoint>
          <Trackpoint>
            <Time>2021-04-03T10:37:48.000Z</Time>
            <Position>
              <LatitudeDegrees>42.29742555879056453704833984375</LatitudeDegrees>
              <LongitudeDegrees>2.5272586382925510406494140625</LongitudeDegrees>
            </Position>
            <AltitudeMeters>519.79998779296875</AltitudeMeters>
            <DistanceMeters>NAN</DistanceMeters>
          </Trackpoint>
          <Trackpoint>
            <Time>2021-04-03T10:37:52.000Z</Time>
            <Position>
              <LatitudeDegrees>42.29741281829774379730224609375</LatitudeDegrees>
              <LongitudeDegrees>2.527219243347644805908203125</LongitudeDegrees>
            </Position>
            <AltitudeMeters>520.20001220703125</AltitudeMeters>
            <DistanceMeters>NAN</DistanceMeters>
          </Trackpoint>
          <Trackpoint>
            <Time>2021-04-03T10:37:55.000Z</Time>
            <Position>
              <LatitudeDegrees>42.29741013608872890472412109375</LatitudeDegrees>
              <LongitudeDegrees>2.52718999050557613372802734375</LongitudeDegrees>
            </Position>
            <AltitudeMeters>520.5999755859375</AltitudeMeters>
            <DistanceMeters>NAN</DistanceMeters>
          </Trackpoint>
          <Trackpoint>
            <Time>2021-04-03T10:38:02.000Z</Time>
            <Position>
              <LatitudeDegrees>42.29740326292812824249267578125</LatitudeDegrees>
              <LongitudeDegrees>2.527111284434795379638671875</LongitudeDegrees>
            </Position>
            <AltitudeMeters>521.20001220703125</AltitudeMeters>
            <DistanceMeters>NAN</DistanceMeters>
          </Trackpoint>
          <Trackpoint>
            <Time>2021-04-03T10:38:04.000Z</Time>
            <Position>
              <LatitudeDegrees>42.2974026761949062347412109375</LatitudeDegrees>
              <LongitudeDegrees>2.52708789892494678497314453125</LongitudeDegrees>
            </Position>
            <AltitudeMeters>521.5999755859375</AltitudeMeters>
            <DistanceMeters>NAN</DistanceMeters>
          </Trackpoint>
          <Trackpoint>
            <Time>2021-04-03T10:38:10.000Z</Time>
            <Position>
              <LatitudeDegrees>42.2973872534930706024169921875</LatitudeDegrees>
              <LongitudeDegrees>2.52702805213630199432373046875</LongitudeDegrees>
            </Position>
            <AltitudeMeters>522.4000244140625</AltitudeMeters>
            <DistanceMeters>NAN</DistanceMeters>
          </Trackpoint>
          <Trackpoint>
            <Time>2021-04-03T10:38:13.000Z</Time>
            <Position>
              <LatitudeDegrees>42.29738482274115085601806640625</LatitudeDegrees>
              <LongitudeDegrees>2.52699695527553558349609375</LongitudeDegrees>
            </Position>
            <AltitudeMeters>522.79998779296875</AltitudeMeters>
            <DistanceMeters>NAN</DistanceMeters>
          </Trackpoint>
          <Trackpoint>
            <Time>2021-04-03T10:38:17.000Z</Time>
            <Position>
              <LatitudeDegrees>42.297386415302753448486328125</LatitudeDegrees>
              <LongitudeDegrees>2.5269640982151031494140625</LongitudeDegrees>
            </Position>
            <AltitudeMeters>523.4000244140625</AltitudeMeters>
            <DistanceMeters>NAN</DistanceMeters>
          </Trackpoint>
          <Trackpoint>
            <Time>2021-04-03T10:38:18.000Z</Time>
            <Position>
              <LatitudeDegrees>42.29738214053213596343994140625</LatitudeDegrees>
              <LongitudeDegrees>2.52695077098906040191650390625</LongitudeDegrees>
            </Position>
            <AltitudeMeters>523.4000244140625</AltitudeMeters>
            <DistanceMeters>NAN</DistanceMeters>
          </Trackpoint>
          <Trackpoint>
            <Time>2021-04-03T10:38:20.000Z</Time>
            <Position>
              <LatitudeDegrees>42.2973832301795482635498046875</LatitudeDegrees>
              <LongitudeDegrees>2.52692059613764286041259765625</LongitudeDegrees>
            </Position>
            <AltitudeMeters>523.5999755859375</AltitudeMeters>
            <DistanceMeters>NAN</DistanceMeters>
          </Trackpoint>
          <Trackpoint>
            <Time>2021-04-03T10:38:26.000Z</Time>
            <Position>
              <LatitudeDegrees>42.29736797511577606201171875</LatitudeDegrees>
              <LongitudeDegrees>2.52686418592929840087890625</LongitudeDegrees>
            </Position>
            <AltitudeMeters>524.5999755859375</AltitudeMeters>
            <DistanceMeters>NAN</DistanceMeters>
          </Trackpoint>
          <Trackpoint>
            <Time>2021-04-03T10:38:28.000Z</Time>
            <Position>
              <LatitudeDegrees>42.29737208224833011627197265625</LatitudeDegrees>
              <LongitudeDegrees>2.52684398554265499114990234375</LongitudeDegrees>
            </Position>
            <AltitudeMeters>524.79998779296875</AltitudeMeters>
            <DistanceMeters>NAN</DistanceMeters>
          </Trackpoint>
          <Trackpoint>
            <Time>2021-04-03T10:38:33.000Z</Time>
            <Position>
              <LatitudeDegrees>42.29735582135617733001708984375</LatitudeDegrees>
              <LongitudeDegrees>2.5267924368381500244140625</LongitudeDegrees>
            </Position>
            <AltitudeMeters>525.5999755859375</AltitudeMeters>
            <DistanceMeters>NAN</DistanceMeters>
          </Trackpoint>
          <Trackpoint>
            <Time>2021-04-03T10:38:35.000Z</Time>
            <Position>
              <LatitudeDegrees>42.29735716246068477630615234375</LatitudeDegrees>
              <LongitudeDegrees>2.52676955424249172210693359375</LongitudeDegrees>
            </Position>
            <AltitudeMeters>525.79998779296875</AltitudeMeters>
            <DistanceMeters>NAN</DistanceMeters>
          </Trackpoint>
          <Trackpoint>
            <Time>2021-04-03T10:38:42.000Z</Time>
            <Position>
              <LatitudeDegrees>42.29735263623297214508056640625</LatitudeDegrees>
              <LongitudeDegrees>2.52669411711394786834716796875</LongitudeDegrees>
            </Position>
            <AltitudeMeters>526.4000244140625</AltitudeMeters>
            <DistanceMeters>NAN</DistanceMeters>
          </Trackpoint>
          <Trackpoint>
            <Time>2021-04-03T10:38:45.000Z</Time>
            <Position>
              <LatitudeDegrees>42.29734274558722972869873046875</LatitudeDegrees>
              <LongitudeDegrees>2.5266578234732151031494140625</LongitudeDegrees>
            </Position>
            <AltitudeMeters>526.5999755859375</AltitudeMeters>
            <DistanceMeters>NAN</DistanceMeters>
          </Trackpoint>
          <Trackpoint>
            <Time>2021-04-03T10:38:50.000Z</Time>
            <Position>
              <LatitudeDegrees>42.29734375141561031341552734375</LatitudeDegrees>
              <LongitudeDegrees>2.52660945989191532135009765625</LongitudeDegrees>
            </Position>
            <AltitudeMeters>527.5999755859375</AltitudeMeters>
            <DistanceMeters>NAN</DistanceMeters>
          </Trackpoint>
          <Trackpoint>
            <Time>2021-04-03T10:38:51.000Z</Time>
            <Position>
              <LatitudeDegrees>42.2973393090069293975830078125</LatitudeDegrees>
              <LongitudeDegrees>2.5265968032181262969970703125</LongitudeDegrees>
            </Position>
            <AltitudeMeters>527.5999755859375</AltitudeMeters>
            <DistanceMeters>NAN</DistanceMeters>
          </Trackpoint>
          <Trackpoint>
            <Time>2021-04-03T10:38:57.000Z</Time>
            <Position>
              <LatitudeDegrees>42.29733134619891643524169921875</LatitudeDegrees>
              <LongitudeDegrees>2.52651440910995006561279296875</LongitudeDegrees>
            </Position>
            <AltitudeMeters>528.4000244140625</AltitudeMeters>
            <DistanceMeters>NAN</DistanceMeters>
          </Trackpoint>
          <Trackpoint>
            <Time>2021-04-03T10:39:00.000Z</Time>
            <Position>
              <LatitudeDegrees>42.29735456407070159912109375</LatitudeDegrees>
              <LongitudeDegrees>2.5264864973723888397216796875</LongitudeDegrees>
            </Position>
            <AltitudeMeters>528.5999755859375</AltitudeMeters>
            <DistanceMeters>NAN</DistanceMeters>
          </Trackpoint>
          <Trackpoint>
            <Time>2021-04-03T10:39:02.000Z</Time>
            <Position>
              <LatitudeDegrees>42.29734509252011775970458984375</LatitudeDegrees>
              <LongitudeDegrees>2.52645514905452728271484375</LongitudeDegrees>
            </Position>
            <AltitudeMeters>528.79998779296875</AltitudeMeters>
            <DistanceMeters>NAN</DistanceMeters>
          </Trackpoint>
          <Trackpoint>
            <Time>2021-04-03T10:39:08.000Z</Time>
            <Position>
              <LatitudeDegrees>42.29734643362462520599365234375</LatitudeDegrees>
              <LongitudeDegrees>2.5263828970491886138916015625</LongitudeDegrees>
            </Position>
            <AltitudeMeters>529.79998779296875</AltitudeMeters>
            <DistanceMeters>NAN</DistanceMeters>
          </Trackpoint>
          <Trackpoint>
            <Time>2021-04-03T10:39:09.000Z</Time>
            <Position>
              <LatitudeDegrees>42.297348193824291229248046875</LatitudeDegrees>
              <LongitudeDegrees>2.5263728387653827667236328125</LongitudeDegrees>
            </Position>
            <AltitudeMeters>530</AltitudeMeters>
            <DistanceMeters>NAN</DistanceMeters>
          </Trackpoint>
          <Trackpoint>
            <Time>2021-04-03T10:39:16.000Z</Time>
            <Position>
              <LatitudeDegrees>42.29738499037921428680419921875</LatitudeDegrees>
              <LongitudeDegrees>2.52627351321280002593994140625</LongitudeDegrees>
            </Position>
            <AltitudeMeters>530.5999755859375</AltitudeMeters>
            <DistanceMeters>NAN</DistanceMeters>
          </Trackpoint>
          <Trackpoint>
            <Time>2021-04-03T10:39:18.000Z</Time>
            <Position>
              <LatitudeDegrees>42.29738079942762851715087890625</LatitudeDegrees>
              <LongitudeDegrees>2.5262541510164737701416015625</LongitudeDegrees>
            </Position>
            <AltitudeMeters>531</AltitudeMeters>
            <DistanceMeters>NAN</DistanceMeters>
          </Trackpoint>
          <Trackpoint>
            <Time>2021-04-03T10:39:23.000Z</Time>
            <Position>
              <LatitudeDegrees>42.29739303700625896453857421875</LatitudeDegrees>
              <LongitudeDegrees>2.52620276995003223419189453125</LongitudeDegrees>
            </Position>
            <AltitudeMeters>531.20001220703125</AltitudeMeters>
            <DistanceMeters>NAN</DistanceMeters>
          </Trackpoint>
          <Trackpoint>
            <Time>2021-04-03T10:39:26.000Z</Time>
            <Position>
              <LatitudeDegrees>42.29739706031978130340576171875</LatitudeDegrees>
              <LongitudeDegrees>2.5261723436415195465087890625</LongitudeDegrees>
            </Position>
            <AltitudeMeters>531.4000244140625</AltitudeMeters>
            <DistanceMeters>NAN</DistanceMeters>
          </Trackpoint>
          <Trackpoint>
            <Time>2021-04-03T10:39:29.000Z</Time>
            <Position>
              <LatitudeDegrees>42.29739789851009845733642578125</LatitudeDegrees>
              <LongitudeDegrees>2.5261364690959453582763671875</LongitudeDegrees>
            </Position>
            <AltitudeMeters>531.79998779296875</AltitudeMeters>
            <DistanceMeters>NAN</DistanceMeters>
          </Trackpoint>
          <Trackpoint>
            <Time>2021-04-03T10:39:33.000Z</Time>
            <Position>
              <LatitudeDegrees>42.29739706031978130340576171875</LatitudeDegrees>
              <LongitudeDegrees>2.52607829868793487548828125</LongitudeDegrees>
            </Position>
            <AltitudeMeters>532</AltitudeMeters>
            <DistanceMeters>NAN</DistanceMeters>
          </Trackpoint>
          <Trackpoint>
            <Time>2021-04-03T10:39:34.000Z</Time>
            <Position>
              <LatitudeDegrees>42.2973979823291301727294921875</LatitudeDegrees>
              <LongitudeDegrees>2.5260643847286701202392578125</LongitudeDegrees>
            </Position>
            <AltitudeMeters>532</AltitudeMeters>
            <DistanceMeters>NAN</DistanceMeters>
          </Trackpoint>
          <Trackpoint>
            <Time>2021-04-03T10:39:35.000Z</Time>
            <Position>
              <LatitudeDegrees>42.29739689268171787261962890625</LatitudeDegrees>
              <LongitudeDegrees>2.526047788560390472412109375</LongitudeDegrees>
            </Position>
            <AltitudeMeters>532</AltitudeMeters>
            <DistanceMeters>NAN</DistanceMeters>
          </Trackpoint>
          <Trackpoint>
            <Time>2021-04-03T10:39:40.000Z</Time>
            <Position>
              <LatitudeDegrees>42.29741080664098262786865234375</LatitudeDegrees>
              <LongitudeDegrees>2.52598450519144535064697265625</LongitudeDegrees>
            </Position>
            <AltitudeMeters>532.4000244140625</AltitudeMeters>
            <DistanceMeters>NAN</DistanceMeters>
          </Trackpoint>
          <Trackpoint>
            <Time>2021-04-03T10:39:44.000Z</Time>
            <Position>
              <LatitudeDegrees>42.2974258102476596832275390625</LatitudeDegrees>
              <LongitudeDegrees>2.5259410031139850616455078125</LongitudeDegrees>
            </Position>
            <AltitudeMeters>532.79998779296875</AltitudeMeters>
            <DistanceMeters>NAN</DistanceMeters>
          </Trackpoint>
          <Trackpoint>
            <Time>2021-04-03T10:39:46.000Z</Time>
            <Position>
              <LatitudeDegrees>42.29743226431310176849365234375</LatitudeDegrees>
              <LongitudeDegrees>2.52592331729829311370849609375</LongitudeDegrees>
            </Position>
            <AltitudeMeters>533</AltitudeMeters>
            <DistanceMeters>NAN</DistanceMeters>
          </Trackpoint>
          <Trackpoint>
            <Time>2021-04-03T10:39:50.000Z</Time>
            <Position>
              <LatitudeDegrees>42.2974278219044208526611328125</LatitudeDegrees>
              <LongitudeDegrees>2.52586933784186840057373046875</LongitudeDegrees>
            </Position>
            <AltitudeMeters>533.5999755859375</AltitudeMeters>
            <DistanceMeters>NAN</DistanceMeters>
          </Trackpoint>
          <Trackpoint>
            <Time>2021-04-03T10:39:55.000Z</Time>
            <Position>
              <LatitudeDegrees>42.29744374752044677734375</LatitudeDegrees>
              <LongitudeDegrees>2.52579071559011936187744140625</LongitudeDegrees>
            </Position>
            <AltitudeMeters>534.20001220703125</AltitudeMeters>
            <DistanceMeters>NAN</DistanceMeters>
          </Trackpoint>
          <Trackpoint>
            <Time>2021-04-03T10:39:56.000Z</Time>
            <Position>
              <LatitudeDegrees>42.29745489545166492462158203125</LatitudeDegrees>
              <LongitudeDegrees>2.52577847801148891448974609375</LongitudeDegrees>
            </Position>
            <AltitudeMeters>534.20001220703125</AltitudeMeters>
            <DistanceMeters>NAN</DistanceMeters>
          </Trackpoint>
          <Trackpoint>
            <Time>2021-04-03T10:39:57.000Z</Time>
            <Position>
              <LatitudeDegrees>42.29746185243129730224609375</LatitudeDegrees>
              <LongitudeDegrees>2.52576406113803386688232421875</LongitudeDegrees>
            </Position>
            <AltitudeMeters>534.4000244140625</AltitudeMeters>
            <DistanceMeters>NAN</DistanceMeters>
          </Trackpoint>
          <Trackpoint>
            <Time>2021-04-03T10:40:01.000Z</Time>
            <Position>
              <LatitudeDegrees>42.297499738633632659912109375</LatitudeDegrees>
              <LongitudeDegrees>2.5257220678031444549560546875</LongitudeDegrees>
            </Position>
            <AltitudeMeters>534.79998779296875</AltitudeMeters>
            <DistanceMeters>NAN</DistanceMeters>
          </Trackpoint>
          <Trackpoint>
            <Time>2021-04-03T10:40:03.000Z</Time>
            <Position>
              <LatitudeDegrees>42.2975032590329647064208984375</LatitudeDegrees>
              <LongitudeDegrees>2.52570010721683502197265625</LongitudeDegrees>
            </Position>
            <AltitudeMeters>535.20001220703125</AltitudeMeters>
            <DistanceMeters>NAN</DistanceMeters>
          </Trackpoint>
          <Trackpoint>
            <Time>2021-04-03T10:40:05.000Z</Time>
            <Position>
              <LatitudeDegrees>42.29749579913914203643798828125</LatitudeDegrees>
              <LongitudeDegrees>2.52568108029663562774658203125</LongitudeDegrees>
            </Position>
            <AltitudeMeters>535.79998779296875</AltitudeMeters>
            <DistanceMeters>NAN</DistanceMeters>
          </Trackpoint>
          <Trackpoint>
            <Time>2021-04-03T10:40:08.000Z</Time>
            <Position>
              <LatitudeDegrees>42.2975067794322967529296875</LatitudeDegrees>
              <LongitudeDegrees>2.5256498157978057861328125</LongitudeDegrees>
            </Position>
            <AltitudeMeters>536.4000244140625</AltitudeMeters>
            <DistanceMeters>NAN</DistanceMeters>
          </Trackpoint>
          <Trackpoint>
            <Time>2021-04-03T10:40:09.000Z</Time>
            <Position>
              <LatitudeDegrees>42.297508455812931060791015625</LatitudeDegrees>
              <LongitudeDegrees>2.52563833259046077728271484375</LongitudeDegrees>
            </Position>
            <AltitudeMeters>536.4000244140625</AltitudeMeters>
            <DistanceMeters>NAN</DistanceMeters>
          </Trackpoint>
          <Trackpoint>
            <Time>2021-04-03T10:40:17.000Z</Time>
            <Position>
              <LatitudeDegrees>42.29753720574080944061279296875</LatitudeDegrees>
              <LongitudeDegrees>2.525549232959747314453125</LongitudeDegrees>
            </Position>
            <AltitudeMeters>537.4000244140625</AltitudeMeters>
            <DistanceMeters>NAN</DistanceMeters>
          </Trackpoint>
          <Trackpoint>
            <Time>2021-04-03T10:40:24.000Z</Time>
            <Position>
              <LatitudeDegrees>42.2975522093474864959716796875</LatitudeDegrees>
              <LongitudeDegrees>2.52546331845223903656005859375</LongitudeDegrees>
            </Position>
            <AltitudeMeters>537.79998779296875</AltitudeMeters>
            <DistanceMeters>NAN</DistanceMeters>
          </Trackpoint>
          <Trackpoint>
            <Time>2021-04-03T10:40:27.000Z</Time>
            <Position>
              <LatitudeDegrees>42.29757182300090789794921875</LatitudeDegrees>
              <LongitudeDegrees>2.52542677335441112518310546875</LongitudeDegrees>
            </Position>
            <AltitudeMeters>538</AltitudeMeters>
            <DistanceMeters>NAN</DistanceMeters>
          </Trackpoint>
          <Trackpoint>
            <Time>2021-04-03T10:40:31.000Z</Time>
            <Position>
              <LatitudeDegrees>42.29758196510374546051025390625</LatitudeDegrees>
              <LongitudeDegrees>2.5253623165190219879150390625</LongitudeDegrees>
            </Position>
            <AltitudeMeters>538</AltitudeMeters>
            <DistanceMeters>NAN</DistanceMeters>
          </Trackpoint>
          <Trackpoint>
            <Time>2021-04-03T10:40:33.000Z</Time>
            <Position>
              <LatitudeDegrees>42.29759889654815196990966796875</LatitudeDegrees>
              <LongitudeDegrees>2.5253519229590892791748046875</LongitudeDegrees>
            </Position>
            <AltitudeMeters>538.20001220703125</AltitudeMeters>
            <DistanceMeters>NAN</DistanceMeters>
          </Trackpoint>
          <Trackpoint>
            <Time>2021-04-03T10:40:35.000Z</Time>
            <Position>
              <LatitudeDegrees>42.297604344785213470458984375</LatitudeDegrees>
              <LongitudeDegrees>2.52533557824790477752685546875</LongitudeDegrees>
            </Position>
            <AltitudeMeters>538.20001220703125</AltitudeMeters>
            <DistanceMeters>NAN</DistanceMeters>
          </Trackpoint>
          <Trackpoint>
            <Time>2021-04-03T10:40:38.000Z</Time>
            <Position>
              <LatitudeDegrees>42.29762236587703227996826171875</LatitudeDegrees>
              <LongitudeDegrees>2.5253038108348846435546875</LongitudeDegrees>
            </Position>
            <AltitudeMeters>538</AltitudeMeters>
            <DistanceMeters>NAN</DistanceMeters>
          </Trackpoint>
          <Trackpoint>
            <Time>2021-04-03T10:40:40.000Z</Time>
            <Position>
              <LatitudeDegrees>42.29763259179890155792236328125</LatitudeDegrees>
              <LongitudeDegrees>2.52528226934373378753662109375</LongitudeDegrees>
            </Position>
            <AltitudeMeters>538</AltitudeMeters>
            <DistanceMeters>NAN</DistanceMeters>
          </Trackpoint>
          <Trackpoint>
            <Time>2021-04-03T10:40:44.000Z</Time>
            <Position>
              <LatitudeDegrees>42.29765807278454303741455078125</LatitudeDegrees>
              <LongitudeDegrees>2.525237090885639190673828125</LongitudeDegrees>
            </Position>
            <AltitudeMeters>538.20001220703125</AltitudeMeters>
            <DistanceMeters>NAN</DistanceMeters>
          </Trackpoint>
          <Trackpoint>
            <Time>2021-04-03T10:40:46.000Z</Time>
            <Position>
              <LatitudeDegrees>42.29766192846000194549560546875</LatitudeDegrees>
              <LongitudeDegrees>2.5251933373510837554931640625</LongitudeDegrees>
            </Position>
            <AltitudeMeters>538.4000244140625</AltitudeMeters>
            <DistanceMeters>NAN</DistanceMeters>
          </Trackpoint>
          <Trackpoint>
            <Time>2021-04-03T10:40:47.000Z</Time>
            <Position>
              <LatitudeDegrees>42.29766142554581165313720703125</LatitudeDegrees>
              <LongitudeDegrees>2.52516743727028369903564453125</LongitudeDegrees>
            </Position>
            <AltitudeMeters>538.4000244140625</AltitudeMeters>
            <DistanceMeters>NAN</DistanceMeters>
          </Trackpoint>
          <Trackpoint>
            <Time>2021-04-03T10:40:50.000Z</Time>
            <Position>
              <LatitudeDegrees>42.29765388183295726776123046875</LatitudeDegrees>
              <LongitudeDegrees>2.52511446364223957061767578125</LongitudeDegrees>
            </Position>
            <AltitudeMeters>538.79998779296875</AltitudeMeters>
            <DistanceMeters>NAN</DistanceMeters>
          </Trackpoint>
          <Trackpoint>
            <Time>2021-04-03T10:40:51.000Z</Time>
            <Position>
              <LatitudeDegrees>42.2976501099765300750732421875</LatitudeDegrees>
              <LongitudeDegrees>2.52510222606360912322998046875</LongitudeDegrees>
            </Position>
            <AltitudeMeters>538.79998779296875</AltitudeMeters>
            <DistanceMeters>NAN</DistanceMeters>
          </Trackpoint>
          <Trackpoint>
            <Time>2021-04-03T10:40:56.000Z</Time>
            <Position>
              <LatitudeDegrees>42.29764290153980255126953125</LatitudeDegrees>
              <LongitudeDegrees>2.52503332681953907012939453125</LongitudeDegrees>
            </Position>
            <AltitudeMeters>539.4000244140625</AltitudeMeters>
            <DistanceMeters>NAN</DistanceMeters>
          </Trackpoint>
          <Trackpoint>
            <Time>2021-04-03T10:40:57.000Z</Time>
            <Position>
              <LatitudeDegrees>42.2976380400359630584716796875</LatitudeDegrees>
              <LongitudeDegrees>2.52500985749065876007080078125</LongitudeDegrees>
            </Position>
            <AltitudeMeters>539.4000244140625</AltitudeMeters>
            <DistanceMeters>NAN</DistanceMeters>
          </Trackpoint>
          <Trackpoint>
            <Time>2021-04-03T10:41:00.000Z</Time>
            <Position>
              <LatitudeDegrees>42.29763426817953586578369140625</LatitudeDegrees>
              <LongitudeDegrees>2.52496006898581981658935546875</LongitudeDegrees>
            </Position>
            <AltitudeMeters>539.5999755859375</AltitudeMeters>
            <DistanceMeters>NAN</DistanceMeters>
          </Trackpoint>
          <Trackpoint>
            <Time>2021-04-03T10:41:02.000Z</Time>
            <Position>
              <LatitudeDegrees>42.2976380400359630584716796875</LatitudeDegrees>
              <LongitudeDegrees>2.52493794076144695281982421875</LongitudeDegrees>
            </Position>
            <AltitudeMeters>540</AltitudeMeters>
            <DistanceMeters>NAN</DistanceMeters>
          </Trackpoint>
          <Trackpoint>
            <Time>2021-04-03T10:41:03.000Z</Time>
            <Position>
              <LatitudeDegrees>42.297644577920436859130859375</LatitudeDegrees>
              <LongitudeDegrees>2.5249331630766391754150390625</LongitudeDegrees>
            </Position>
            <AltitudeMeters>540.20001220703125</AltitudeMeters>
            <DistanceMeters>NAN</DistanceMeters>
          </Trackpoint>
          <Trackpoint>
            <Time>2021-04-03T10:41:05.000Z</Time>
            <Position>
              <LatitudeDegrees>42.29765438474714756011962890625</LatitudeDegrees>
              <LongitudeDegrees>2.52491891384124755859375</LongitudeDegrees>
            </Position>
            <AltitudeMeters>540.4000244140625</AltitudeMeters>
            <DistanceMeters>NAN</DistanceMeters>
          </Trackpoint>
          <Trackpoint>
            <Time>2021-04-03T10:41:06.000Z</Time>
            <Position>
              <LatitudeDegrees>42.2976584918797016143798828125</LatitudeDegrees>
              <LongitudeDegrees>2.5249060057103633880615234375</LongitudeDegrees>
            </Position>
            <AltitudeMeters>540.4000244140625</AltitudeMeters>
            <DistanceMeters>NAN</DistanceMeters>
          </Trackpoint>
          <Trackpoint>
            <Time>2021-04-03T10:41:09.000Z</Time>
            <Position>
              <LatitudeDegrees>42.2976621799170970916748046875</LatitudeDegrees>
              <LongitudeDegrees>2.5248761661350727081298828125</LongitudeDegrees>
            </Position>
            <AltitudeMeters>540.79998779296875</AltitudeMeters>
            <DistanceMeters>NAN</DistanceMeters>
          </Trackpoint>
          <Trackpoint>
            <Time>2021-04-03T10:41:13.000Z</Time>
            <Position>
              <LatitudeDegrees>42.29766729287803173065185546875</LatitudeDegrees>
              <LongitudeDegrees>2.524852193892002105712890625</LongitudeDegrees>
            </Position>
            <AltitudeMeters>541.4000244140625</AltitudeMeters>
            <DistanceMeters>NAN</DistanceMeters>
          </Trackpoint>
          <Trackpoint>
            <Time>2021-04-03T10:41:14.000Z</Time>
            <Position>
              <LatitudeDegrees>42.297661341726779937744140625</LatitudeDegrees>
              <LongitudeDegrees>2.5248424708843231201171875</LongitudeDegrees>
            </Position>
            <AltitudeMeters>541.4000244140625</AltitudeMeters>
            <DistanceMeters>NAN</DistanceMeters>
          </Trackpoint>
          <Trackpoint>
            <Time>2021-04-03T10:41:17.000Z</Time>
            <Position>
              <LatitudeDegrees>42.2976477630436420440673828125</LatitudeDegrees>
              <LongitudeDegrees>2.52482838928699493408203125</LongitudeDegrees>
            </Position>
            <AltitudeMeters>541.79998779296875</AltitudeMeters>
            <DistanceMeters>NAN</DistanceMeters>
          </Trackpoint>
          <Trackpoint>
            <Time>2021-04-03T10:41:19.000Z</Time>
            <Position>
              <LatitudeDegrees>42.2976544685661792755126953125</LatitudeDegrees>
              <LongitudeDegrees>2.524818666279315948486328125</LongitudeDegrees>
            </Position>
            <AltitudeMeters>542.4000244140625</AltitudeMeters>
            <DistanceMeters>NAN</DistanceMeters>
          </Trackpoint>
          <Trackpoint>
            <Time>2021-04-03T10:41:21.000Z</Time>
            <Position>
              <LatitudeDegrees>42.297654636204242706298828125</LatitudeDegrees>
              <LongitudeDegrees>2.52481497824192047119140625</LongitudeDegrees>
            </Position>
            <AltitudeMeters>542.5999755859375</AltitudeMeters>
            <DistanceMeters>NAN</DistanceMeters>
          </Trackpoint>
          <Trackpoint>
            <Time>2021-04-03T10:41:23.000Z</Time>
            <Position>
              <LatitudeDegrees>42.29765337891876697540283203125</LatitudeDegrees>
              <LongitudeDegrees>2.524801902472972869873046875</LongitudeDegrees>
            </Position>
            <AltitudeMeters>542.79998779296875</AltitudeMeters>
            <DistanceMeters>NAN</DistanceMeters>
          </Trackpoint>
          <Trackpoint>
            <Time>2021-04-03T10:41:24.000Z</Time>
            <Position>
              <LatitudeDegrees>42.2976558096706867218017578125</LatitudeDegrees>
              <LongitudeDegrees>2.52479410730302333831787109375</LongitudeDegrees>
            </Position>
            <AltitudeMeters>543</AltitudeMeters>
            <DistanceMeters>NAN</DistanceMeters>
          </Trackpoint>
          <Trackpoint>
            <Time>2021-04-03T10:41:28.000Z</Time>
            <Position>
              <LatitudeDegrees>42.29765631258487701416015625</LatitudeDegrees>
              <LongitudeDegrees>2.52476275898516178131103515625</LongitudeDegrees>
            </Position>
            <AltitudeMeters>543.79998779296875</AltitudeMeters>
            <DistanceMeters>NAN</DistanceMeters>
          </Trackpoint>
          <Trackpoint>
            <Time>2021-04-03T10:41:32.000Z</Time>
            <Position>
              <LatitudeDegrees>42.29765991680324077606201171875</LatitudeDegrees>
              <LongitudeDegrees>2.52472587861120700836181640625</LongitudeDegrees>
            </Position>
            <AltitudeMeters>544.4000244140625</AltitudeMeters>
            <DistanceMeters>NAN</DistanceMeters>
          </Trackpoint>
          <Trackpoint>
            <Time>2021-04-03T10:41:34.000Z</Time>
            <Position>
              <LatitudeDegrees>42.29765899479389190673828125</LatitudeDegrees>
              <LongitudeDegrees>2.52470500767230987548828125</LongitudeDegrees>
            </Position>
            <AltitudeMeters>544.79998779296875</AltitudeMeters>
            <DistanceMeters>NAN</DistanceMeters>
          </Trackpoint>
          <Trackpoint>
            <Time>2021-04-03T10:41:38.000Z</Time>
            <Position>
              <LatitudeDegrees>42.2976715676486492156982421875</LatitudeDegrees>
              <LongitudeDegrees>2.52466871403157711029052734375</LongitudeDegrees>
            </Position>
            <AltitudeMeters>545.4000244140625</AltitudeMeters>
            <DistanceMeters>NAN</DistanceMeters>
          </Trackpoint>
          <Trackpoint>
            <Time>2021-04-03T10:41:39.000Z</Time>
            <Position>
              <LatitudeDegrees>42.29767366312444210052490234375</LatitudeDegrees>
              <LongitudeDegrees>2.52465681172907352447509765625</LongitudeDegrees>
            </Position>
            <AltitudeMeters>545.5999755859375</AltitudeMeters>
            <DistanceMeters>NAN</DistanceMeters>
          </Trackpoint>
          <Trackpoint>
            <Time>2021-04-03T10:41:40.000Z</Time>
            <Position>
              <LatitudeDegrees>42.2976739145815372467041015625</LatitudeDegrees>
              <LongitudeDegrees>2.52464340068399906158447265625</LongitudeDegrees>
            </Position>
            <AltitudeMeters>545.79998779296875</AltitudeMeters>
            <DistanceMeters>NAN</DistanceMeters>
          </Trackpoint>
          <Trackpoint>
            <Time>2021-04-03T10:41:41.000Z</Time>
            <Position>
              <LatitudeDegrees>42.29767466895282268524169921875</LatitudeDegrees>
              <LongitudeDegrees>2.524626553058624267578125</LongitudeDegrees>
            </Position>
            <AltitudeMeters>546</AltitudeMeters>
            <DistanceMeters>NAN</DistanceMeters>
          </Trackpoint>
          <Trackpoint>
            <Time>2021-04-03T10:41:45.000Z</Time>
            <Position>
              <LatitudeDegrees>42.29766528122127056121826171875</LatitudeDegrees>
              <LongitudeDegrees>2.52455656416714191436767578125</LongitudeDegrees>
            </Position>
            <AltitudeMeters>546.5999755859375</AltitudeMeters>
            <DistanceMeters>NAN</DistanceMeters>
          </Trackpoint>
          <Trackpoint>
            <Time>2021-04-03T10:41:48.000Z</Time>
            <Position>
              <LatitudeDegrees>42.297660671174526214599609375</LatitudeDegrees>
              <LongitudeDegrees>2.5245157442986965179443359375</LongitudeDegrees>
            </Position>
            <AltitudeMeters>547</AltitudeMeters>
            <DistanceMeters>NAN</DistanceMeters>
          </Trackpoint>
          <Trackpoint>
            <Time>2021-04-03T10:41:53.000Z</Time>
            <Position>
              <LatitudeDegrees>42.2976829670369625091552734375</LatitudeDegrees>
              <LongitudeDegrees>2.52444776706397533416748046875</LongitudeDegrees>
            </Position>
            <AltitudeMeters>547.5999755859375</AltitudeMeters>
            <DistanceMeters>NAN</DistanceMeters>
          </Trackpoint>
          <Trackpoint>
            <Time>2021-04-03T10:41:56.000Z</Time>
            <Position>
              <LatitudeDegrees>42.29769042693078517913818359375</LatitudeDegrees>
              <LongitudeDegrees>2.5244201906025409698486328125</LongitudeDegrees>
            </Position>
            <AltitudeMeters>548</AltitudeMeters>
            <DistanceMeters>NAN</DistanceMeters>
          </Trackpoint>
          <Trackpoint>
            <Time>2021-04-03T10:41:58.000Z</Time>
            <Position>
              <LatitudeDegrees>42.2976829670369625091552734375</LatitudeDegrees>
              <LongitudeDegrees>2.524401247501373291015625</LongitudeDegrees>
            </Position>
            <AltitudeMeters>548.20001220703125</AltitudeMeters>
            <DistanceMeters>NAN</DistanceMeters>
          </Trackpoint>
          <Trackpoint>
            <Time>2021-04-03T10:42:03.000Z</Time>
            <Position>
              <LatitudeDegrees>42.2976732440292835235595703125</LatitudeDegrees>
              <LongitudeDegrees>2.5243725813925266265869140625</LongitudeDegrees>
            </Position>
            <AltitudeMeters>549</AltitudeMeters>
            <DistanceMeters>NAN</DistanceMeters>
          </Trackpoint>
          <Trackpoint>
            <Time>2021-04-03T10:42:10.000Z</Time>
            <Position>
              <LatitudeDegrees>42.2976631857454776763916015625</LatitudeDegrees>
              <LongitudeDegrees>2.52436847425997257232666015625</LongitudeDegrees>
            </Position>
            <AltitudeMeters>550.20001220703125</AltitudeMeters>
            <DistanceMeters>NAN</DistanceMeters>
          </Trackpoint>
          <Trackpoint>
            <Time>2021-04-03T10:42:16.000Z</Time>
            <Position>
              <LatitudeDegrees>42.297645919024944305419921875</LatitudeDegrees>
              <LongitudeDegrees>2.52442379482090473175048828125</LongitudeDegrees>
            </Position>
            <AltitudeMeters>551.20001220703125</AltitudeMeters>
            <DistanceMeters>NAN</DistanceMeters>
          </Trackpoint>
          <Trackpoint>
            <Time>2021-04-03T10:42:17.000Z</Time>
            <Position>
              <LatitudeDegrees>42.2976408898830413818359375</LatitudeDegrees>
              <LongitudeDegrees>2.52442899160087108612060546875</LongitudeDegrees>
            </Position>
            <AltitudeMeters>551.20001220703125</AltitudeMeters>
            <DistanceMeters>NAN</DistanceMeters>
          </Trackpoint>
          <Trackpoint>
            <Time>2021-04-03T10:42:20.000Z</Time>
            <Position>
              <LatitudeDegrees>42.29762169532477855682373046875</LatitudeDegrees>
              <LongitudeDegrees>2.52443544566631317138671875</LongitudeDegrees>
            </Position>
            <AltitudeMeters>551.5999755859375</AltitudeMeters>
            <DistanceMeters>NAN</DistanceMeters>
          </Trackpoint>
          <Trackpoint>
            <Time>2021-04-03T10:42:26.000Z</Time>
            <Position>
              <LatitudeDegrees>42.29759034700691699981689453125</LatitudeDegrees>
              <LongitudeDegrees>2.52445019781589508056640625</LongitudeDegrees>
            </Position>
            <AltitudeMeters>552</AltitudeMeters>
            <DistanceMeters>NAN</DistanceMeters>
          </Trackpoint>
          <Trackpoint>
            <Time>2021-04-03T10:42:29.000Z</Time>
            <Position>
              <LatitudeDegrees>42.2975746728479862213134765625</LatitudeDegrees>
              <LongitudeDegrees>2.5244574062526226043701171875</LongitudeDegrees>
            </Position>
            <AltitudeMeters>552.20001220703125</AltitudeMeters>
            <DistanceMeters>NAN</DistanceMeters>
          </Trackpoint>
          <Trackpoint>
            <Time>2021-04-03T10:42:38.000Z</Time>
            <Position>
              <LatitudeDegrees>42.297523207962512969970703125</LatitudeDegrees>
              <LongitudeDegrees>2.524487078189849853515625</LongitudeDegrees>
            </Position>
            <AltitudeMeters>552.5999755859375</AltitudeMeters>
            <DistanceMeters>NAN</DistanceMeters>
          </Trackpoint>
          <Trackpoint>
            <Time>2021-04-03T10:42:44.000Z</Time>
            <Position>
              <LatitudeDegrees>42.29748607613146305084228515625</LatitudeDegrees>
              <LongitudeDegrees>2.52452068962156772613525390625</LongitudeDegrees>
            </Position>
            <AltitudeMeters>553.20001220703125</AltitudeMeters>
            <DistanceMeters>NAN</DistanceMeters>
          </Trackpoint>
          <Trackpoint>
            <Time>2021-04-03T10:42:45.000Z</Time>
            <Position>
              <LatitudeDegrees>42.29748004116117954254150390625</LatitudeDegrees>
              <LongitudeDegrees>2.52452806569635868072509765625</LongitudeDegrees>
            </Position>
            <AltitudeMeters>553.20001220703125</AltitudeMeters>
            <DistanceMeters>NAN</DistanceMeters>
          </Trackpoint>
          <Trackpoint>
            <Time>2021-04-03T10:42:52.000Z</Time>
            <Position>
              <LatitudeDegrees>42.29743712581694126129150390625</LatitudeDegrees>
              <LongitudeDegrees>2.5245742499828338623046875</LongitudeDegrees>
            </Position>
            <AltitudeMeters>554</AltitudeMeters>
            <DistanceMeters>NAN</DistanceMeters>
          </Trackpoint>
          <Trackpoint>
            <Time>2021-04-03T10:42:54.000Z</Time>
            <Position>
              <LatitudeDegrees>42.297427989542484283447265625</LatitudeDegrees>
              <LongitudeDegrees>2.52459931187331676483154296875</LongitudeDegrees>
            </Position>
            <AltitudeMeters>554.20001220703125</AltitudeMeters>
            <DistanceMeters>NAN</DistanceMeters>
          </Trackpoint>
          <Trackpoint>
            <Time>2021-04-03T10:43:01.000Z</Time>
            <Position>
              <LatitudeDegrees>42.297393791377544403076171875</LatitudeDegrees>
              <LongitudeDegrees>2.524648346006870269775390625</LongitudeDegrees>
            </Position>
            <AltitudeMeters>555</AltitudeMeters>
            <DistanceMeters>NAN</DistanceMeters>
          </Trackpoint>
          <Trackpoint>
            <Time>2021-04-03T10:43:03.000Z</Time>
            <Position>
              <LatitudeDegrees>42.2973889298737049102783203125</LatitudeDegrees>
              <LongitudeDegrees>2.52466678619384765625</LongitudeDegrees>
            </Position>
            <AltitudeMeters>555.20001220703125</AltitudeMeters>
            <DistanceMeters>NAN</DistanceMeters>
          </Trackpoint>
          <Trackpoint>
            <Time>2021-04-03T10:43:08.000Z</Time>
            <Position>
              <LatitudeDegrees>42.29736940003931522369384765625</LatitudeDegrees>
              <LongitudeDegrees>2.52468883059918880462646484375</LongitudeDegrees>
            </Position>
            <AltitudeMeters>556</AltitudeMeters>
            <DistanceMeters>NAN</DistanceMeters>
          </Trackpoint>
          <Trackpoint>
            <Time>2021-04-03T10:43:09.000Z</Time>
            <Position>
              <LatitudeDegrees>42.2973654605448246002197265625</LatitudeDegrees>
              <LongitudeDegrees>2.5246941111981868743896484375</LongitudeDegrees>
            </Position>
            <AltitudeMeters>556</AltitudeMeters>
            <DistanceMeters>NAN</DistanceMeters>
          </Trackpoint>
          <Trackpoint>
            <Time>2021-04-03T10:43:12.000Z</Time>
            <Position>
              <LatitudeDegrees>42.2973503731191158294677734375</LatitudeDegrees>
              <LongitudeDegrees>2.52470810897648334503173828125</LongitudeDegrees>
            </Position>
            <AltitudeMeters>556.4000244140625</AltitudeMeters>
            <DistanceMeters>NAN</DistanceMeters>
          </Trackpoint>
          <Trackpoint>
            <Time>2021-04-03T10:43:17.000Z</Time>
            <Position>
              <LatitudeDegrees>42.29733922518789768218994140625</LatitudeDegrees>
              <LongitudeDegrees>2.5247378647327423095703125</LongitudeDegrees>
            </Position>
            <AltitudeMeters>557.20001220703125</AltitudeMeters>
            <DistanceMeters>NAN</DistanceMeters>
          </Trackpoint>
          <Trackpoint>
            <Time>2021-04-03T10:43:20.000Z</Time>
            <Position>
              <LatitudeDegrees>42.29732749052345752716064453125</LatitudeDegrees>
              <LongitudeDegrees>2.5247459113597869873046875</LongitudeDegrees>
            </Position>
            <AltitudeMeters>557.5999755859375</AltitudeMeters>
            <DistanceMeters>NAN</DistanceMeters>
          </Trackpoint>
          <Trackpoint>
            <Time>2021-04-03T10:43:28.000Z</Time>
            <Position>
              <LatitudeDegrees>42.29726144112646579742431640625</LatitudeDegrees>
              <LongitudeDegrees>2.5247796066105365753173828125</LongitudeDegrees>
            </Position>
            <AltitudeMeters>558.5999755859375</AltitudeMeters>
            <DistanceMeters>NAN</DistanceMeters>
          </Trackpoint>
          <Trackpoint>
            <Time>2021-04-03T10:43:30.000Z</Time>
            <Position>
              <LatitudeDegrees>42.29724518023431301116943359375</LatitudeDegrees>
              <LongitudeDegrees>2.52479025162756443023681640625</LongitudeDegrees>
            </Position>
            <AltitudeMeters>559</AltitudeMeters>
            <DistanceMeters>NAN</DistanceMeters>
          </Trackpoint>
          <Trackpoint>
            <Time>2021-04-03T10:43:38.000Z</Time>
            <Position>
              <LatitudeDegrees>42.297195978462696075439453125</LatitudeDegrees>
              <LongitudeDegrees>2.52481774426996707916259765625</LongitudeDegrees>
            </Position>
            <AltitudeMeters>559.4000244140625</AltitudeMeters>
            <DistanceMeters>NAN</DistanceMeters>
          </Trackpoint>
          <Trackpoint>
            <Time>2021-04-03T10:43:42.000Z</Time>
            <Position>
              <LatitudeDegrees>42.2971763648092746734619140625</LatitudeDegrees>
              <LongitudeDegrees>2.5248382799327373504638671875</LongitudeDegrees>
            </Position>
            <AltitudeMeters>559.79998779296875</AltitudeMeters>
            <DistanceMeters>NAN</DistanceMeters>
          </Trackpoint>
          <Trackpoint>
            <Time>2021-04-03T10:43:45.000Z</Time>
            <Position>
              <LatitudeDegrees>42.29716286994516849517822265625</LatitudeDegrees>
              <LongitudeDegrees>2.52485194243490695953369140625</LongitudeDegrees>
            </Position>
            <AltitudeMeters>560.20001220703125</AltitudeMeters>
            <DistanceMeters>NAN</DistanceMeters>
          </Trackpoint>
          <Trackpoint>
            <Time>2021-04-03T10:43:46.000Z</Time>
            <Position>
              <LatitudeDegrees>42.29715432040393352508544921875</LatitudeDegrees>
              <LongitudeDegrees>2.5248540379106998443603515625</LongitudeDegrees>
            </Position>
            <AltitudeMeters>560.20001220703125</AltitudeMeters>
            <DistanceMeters>NAN</DistanceMeters>
          </Trackpoint>
          <Trackpoint>
            <Time>2021-04-03T10:43:53.000Z</Time>
            <Position>
              <LatitudeDegrees>42.297119535505771636962890625</LatitudeDegrees>
              <LongitudeDegrees>2.52488178201019763946533203125</LongitudeDegrees>
            </Position>
            <AltitudeMeters>560.79998779296875</AltitudeMeters>
            <DistanceMeters>NAN</DistanceMeters>
          </Trackpoint>
          <Trackpoint>
            <Time>2021-04-03T10:43:55.000Z</Time>
            <Position>
              <LatitudeDegrees>42.29710218496620655059814453125</LatitudeDegrees>
              <LongitudeDegrees>2.524878345429897308349609375</LongitudeDegrees>
            </Position>
            <AltitudeMeters>561</AltitudeMeters>
            <DistanceMeters>NAN</DistanceMeters>
          </Trackpoint>
          <Trackpoint>
            <Time>2021-04-03T10:44:01.000Z</Time>
            <Position>
              <LatitudeDegrees>42.297081649303436279296875</LatitudeDegrees>
              <LongitudeDegrees>2.524908520281314849853515625</LongitudeDegrees>
            </Position>
            <AltitudeMeters>561.4000244140625</AltitudeMeters>
            <DistanceMeters>NAN</DistanceMeters>
          </Trackpoint>
          <Trackpoint>
            <Time>2021-04-03T10:44:03.000Z</Time>
            <Position>
              <LatitudeDegrees>42.2970724292099475860595703125</LatitudeDegrees>
              <LongitudeDegrees>2.52492587082087993621826171875</LongitudeDegrees>
            </Position>
            <AltitudeMeters>561.5999755859375</AltitudeMeters>
            <DistanceMeters>NAN</DistanceMeters>
          </Trackpoint>
          <Trackpoint>
            <Time>2021-04-03T10:44:06.000Z</Time>
            <Position>
              <LatitudeDegrees>42.29705549776554107666015625</LatitudeDegrees>
              <LongitudeDegrees>2.5249336659908294677734375</LongitudeDegrees>
            </Position>
            <AltitudeMeters>562</AltitudeMeters>
            <DistanceMeters>NAN</DistanceMeters>
          </Trackpoint>
          <Trackpoint>
            <Time>2021-04-03T10:44:12.000Z</Time>
            <Position>
              <LatitudeDegrees>42.29703747667372226715087890625</LatitudeDegrees>
              <LongitudeDegrees>2.524964511394500732421875</LongitudeDegrees>
            </Position>
            <AltitudeMeters>562.5999755859375</AltitudeMeters>
            <DistanceMeters>NAN</DistanceMeters>
          </Trackpoint>
          <Trackpoint>
            <Time>2021-04-03T10:44:15.000Z</Time>
            <Position>
              <LatitudeDegrees>42.29700855910778045654296875</LatitudeDegrees>
              <LongitudeDegrees>2.52497465349733829498291015625</LongitudeDegrees>
            </Position>
            <AltitudeMeters>563</AltitudeMeters>
            <DistanceMeters>NAN</DistanceMeters>
          </Trackpoint>
          <Trackpoint>
            <Time>2021-04-03T10:44:23.000Z</Time>
            <Position>
              <LatitudeDegrees>42.29694359935820102691650390625</LatitudeDegrees>
              <LongitudeDegrees>2.5249455682933330535888671875</LongitudeDegrees>
            </Position>
            <AltitudeMeters>564</AltitudeMeters>
            <DistanceMeters>NAN</DistanceMeters>
          </Trackpoint>
          <Trackpoint>
            <Time>2021-04-03T10:44:24.000Z</Time>
            <Position>
              <LatitudeDegrees>42.2969386540353298187255859375</LatitudeDegrees>
              <LongitudeDegrees>2.52494196407496929168701171875</LongitudeDegrees>
            </Position>
            <AltitudeMeters>564</AltitudeMeters>
            <DistanceMeters>NAN</DistanceMeters>
          </Trackpoint>
          <Trackpoint>
            <Time>2021-04-03T10:44:29.000Z</Time>
            <Position>
              <LatitudeDegrees>42.29691258631646633148193359375</LatitudeDegrees>
              <LongitudeDegrees>2.52493240870535373687744140625</LongitudeDegrees>
            </Position>
            <AltitudeMeters>564.79998779296875</AltitudeMeters>
            <DistanceMeters>NAN</DistanceMeters>
          </Trackpoint>
          <Trackpoint>
            <Time>2021-04-03T10:44:31.000Z</Time>
            <Position>
              <LatitudeDegrees>42.29691057465970516204833984375</LatitudeDegrees>
              <LongitudeDegrees>2.52491530962288379669189453125</LongitudeDegrees>
            </Position>
            <AltitudeMeters>565.20001220703125</AltitudeMeters>
            <DistanceMeters>NAN</DistanceMeters>
          </Trackpoint>
          <Trackpoint>
            <Time>2021-04-03T10:44:36.000Z</Time>
            <Position>
              <LatitudeDegrees>42.29689858853816986083984375</LatitudeDegrees>
              <LongitudeDegrees>2.52486803568899631500244140625</LongitudeDegrees>
            </Position>
            <AltitudeMeters>565.79998779296875</AltitudeMeters>
            <DistanceMeters>NAN</DistanceMeters>
          </Trackpoint>
          <Trackpoint>
            <Time>2021-04-03T10:44:38.000Z</Time>
            <Position>
              <LatitudeDegrees>42.2969011031091213226318359375</LatitudeDegrees>
              <LongitudeDegrees>2.524848170578479766845703125</LongitudeDegrees>
            </Position>
            <AltitudeMeters>566.20001220703125</AltitudeMeters>
            <DistanceMeters>NAN</DistanceMeters>
          </Trackpoint>
          <Trackpoint>
            <Time>2021-04-03T10:44:44.000Z</Time>
            <Position>
              <LatitudeDegrees>42.29691334068775177001953125</LatitudeDegrees>
              <LongitudeDegrees>2.5247879885137081146240234375</LongitudeDegrees>
            </Position>
            <AltitudeMeters>566.79998779296875</AltitudeMeters>
            <DistanceMeters>NAN</DistanceMeters>
          </Trackpoint>
          <Trackpoint>
            <Time>2021-04-03T10:44:49.000Z</Time>
            <Position>
              <LatitudeDegrees>42.29690470732748508453369140625</LatitudeDegrees>
              <LongitudeDegrees>2.5247283093631267547607421875</LongitudeDegrees>
            </Position>
            <AltitudeMeters>567.20001220703125</AltitudeMeters>
            <DistanceMeters>NAN</DistanceMeters>
          </Trackpoint>
          <Trackpoint>
            <Time>2021-04-03T10:44:50.000Z</Time>
            <Position>
              <LatitudeDegrees>42.29690529406070709228515625</LatitudeDegrees>
              <LongitudeDegrees>2.52471531741321086883544921875</LongitudeDegrees>
            </Position>
            <AltitudeMeters>567.4000244140625</AltitudeMeters>
            <DistanceMeters>NAN</DistanceMeters>
          </Trackpoint>
          <Trackpoint>
            <Time>2021-04-03T10:44:58.000Z</Time>
            <Position>
              <LatitudeDegrees>42.29688785970211029052734375</LatitudeDegrees>
              <LongitudeDegrees>2.52463803626596927642822265625</LongitudeDegrees>
            </Position>
            <AltitudeMeters>568.20001220703125</AltitudeMeters>
            <DistanceMeters>NAN</DistanceMeters>
          </Trackpoint>
          <Trackpoint>
            <Time>2021-04-03T10:45:04.000Z</Time>
            <Position>
              <LatitudeDegrees>42.29690621607005596160888671875</LatitudeDegrees>
              <LongitudeDegrees>2.524592690169811248779296875</LongitudeDegrees>
            </Position>
            <AltitudeMeters>569.20001220703125</AltitudeMeters>
            <DistanceMeters>NAN</DistanceMeters>
          </Trackpoint>
          <Trackpoint>
            <Time>2021-04-03T10:45:05.000Z</Time>
            <Position>
              <LatitudeDegrees>42.2969017736613750457763671875</LatitudeDegrees>
              <LongitudeDegrees>2.52457760274410247802734375</LongitudeDegrees>
            </Position>
            <AltitudeMeters>569.4000244140625</AltitudeMeters>
            <DistanceMeters>NAN</DistanceMeters>
          </Trackpoint>
          <Trackpoint>
            <Time>2021-04-03T10:45:13.000Z</Time>
            <Position>
              <LatitudeDegrees>42.29691468179225921630859375</LatitudeDegrees>
              <LongitudeDegrees>2.52449202351272106170654296875</LongitudeDegrees>
            </Position>
            <AltitudeMeters>570.20001220703125</AltitudeMeters>
            <DistanceMeters>NAN</DistanceMeters>
          </Trackpoint>
          <Trackpoint>
            <Time>2021-04-03T10:45:15.000Z</Time>
            <Position>
              <LatitudeDegrees>42.2969128377735614776611328125</LatitudeDegrees>
              <LongitudeDegrees>2.524481713771820068359375</LongitudeDegrees>
            </Position>
            <AltitudeMeters>570.4000244140625</AltitudeMeters>
            <DistanceMeters>NAN</DistanceMeters>
          </Trackpoint>
          <Trackpoint>
            <Time>2021-04-03T10:45:20.000Z</Time>
            <Position>
              <LatitudeDegrees>42.29694108478724956512451171875</LatitudeDegrees>
              <LongitudeDegrees>2.52444257028400897979736328125</LongitudeDegrees>
            </Position>
            <AltitudeMeters>571.20001220703125</AltitudeMeters>
            <DistanceMeters>NAN</DistanceMeters>
          </Trackpoint>
          <Trackpoint>
            <Time>2021-04-03T10:45:21.000Z</Time>
            <Position>
              <LatitudeDegrees>42.29694829322397708892822265625</LatitudeDegrees>
              <LongitudeDegrees>2.5244322605431079864501953125</LongitudeDegrees>
            </Position>
            <AltitudeMeters>571.4000244140625</AltitudeMeters>
            <DistanceMeters>NAN</DistanceMeters>
          </Trackpoint>
          <Trackpoint>
            <Time>2021-04-03T10:45:28.000Z</Time>
            <Position>
              <LatitudeDegrees>42.2969540767371654510498046875</LatitudeDegrees>
              <LongitudeDegrees>2.52436361275613307952880859375</LongitudeDegrees>
            </Position>
            <AltitudeMeters>572</AltitudeMeters>
            <DistanceMeters>NAN</DistanceMeters>
          </Trackpoint>
          <Trackpoint>
            <Time>2021-04-03T10:45:32.000Z</Time>
            <Position>
              <LatitudeDegrees>42.2969564236700534820556640625</LatitudeDegrees>
              <LongitudeDegrees>2.52432706765830516815185546875</LongitudeDegrees>
            </Position>
            <AltitudeMeters>572.4000244140625</AltitudeMeters>
            <DistanceMeters>NAN</DistanceMeters>
          </Trackpoint>
          <Trackpoint>
            <Time>2021-04-03T10:45:34.000Z</Time>
            <Position>
              <LatitudeDegrees>42.296939827501773834228515625</LatitudeDegrees>
              <LongitudeDegrees>2.52430158667266368865966796875</LongitudeDegrees>
            </Position>
            <AltitudeMeters>572.5999755859375</AltitudeMeters>
            <DistanceMeters>NAN</DistanceMeters>
          </Trackpoint>
          <Trackpoint>
            <Time>2021-04-03T10:45:39.000Z</Time>
            <Position>
              <LatitudeDegrees>42.29692935012280941009521484375</LatitudeDegrees>
              <LongitudeDegrees>2.52425372600555419921875</LongitudeDegrees>
            </Position>
            <AltitudeMeters>573</AltitudeMeters>
            <DistanceMeters>NAN</DistanceMeters>
          </Trackpoint>
          <Trackpoint>
            <Time>2021-04-03T10:45:44.000Z</Time>
            <Position>
              <LatitudeDegrees>42.29692935012280941009521484375</LatitudeDegrees>
              <LongitudeDegrees>2.52421491779386997222900390625</LongitudeDegrees>
            </Position>
            <AltitudeMeters>573.4000244140625</AltitudeMeters>
            <DistanceMeters>NAN</DistanceMeters>
          </Trackpoint>
          <Trackpoint>
            <Time>2021-04-03T10:45:45.000Z</Time>
            <Position>
              <LatitudeDegrees>42.29692541062831878662109375</LatitudeDegrees>
              <LongitudeDegrees>2.5242072902619838714599609375</LongitudeDegrees>
            </Position>
            <AltitudeMeters>573.4000244140625</AltitudeMeters>
            <DistanceMeters>NAN</DistanceMeters>
          </Trackpoint>
          <Trackpoint>
            <Time>2021-04-03T10:45:48.000Z</Time>
            <Position>
              <LatitudeDegrees>42.29693924076855182647705078125</LatitudeDegrees>
              <LongitudeDegrees>2.52418407239019870758056640625</LongitudeDegrees>
            </Position>
            <AltitudeMeters>574</AltitudeMeters>
            <DistanceMeters>NAN</DistanceMeters>
          </Trackpoint>
          <Trackpoint>
            <Time>2021-04-03T10:45:49.000Z</Time>
            <Position>
              <LatitudeDegrees>42.29694276116788387298583984375</LatitudeDegrees>
              <LongitudeDegrees>2.5241767801344394683837890625</LongitudeDegrees>
            </Position>
            <AltitudeMeters>574</AltitudeMeters>
            <DistanceMeters>NAN</DistanceMeters>
          </Trackpoint>
          <Trackpoint>
            <Time>2021-04-03T10:45:54.000Z</Time>
            <Position>
              <LatitudeDegrees>42.2969301044940948486328125</LatitudeDegrees>
              <LongitudeDegrees>2.52413772046566009521484375</LongitudeDegrees>
            </Position>
            <AltitudeMeters>574.4000244140625</AltitudeMeters>
            <DistanceMeters>NAN</DistanceMeters>
          </Trackpoint>
          <Trackpoint>
            <Time>2021-04-03T10:45:57.000Z</Time>
            <Position>
              <LatitudeDegrees>42.29692046530544757843017578125</LatitudeDegrees>
              <LongitudeDegrees>2.52413528971374034881591796875</LongitudeDegrees>
            </Position>
            <AltitudeMeters>574.79998779296875</AltitudeMeters>
            <DistanceMeters>NAN</DistanceMeters>
          </Trackpoint>
          <Trackpoint>
            <Time>2021-04-03T10:46:03.000Z</Time>
            <Position>
              <LatitudeDegrees>42.296896241605281829833984375</LatitudeDegrees>
              <LongitudeDegrees>2.52414551563560962677001953125</LongitudeDegrees>
            </Position>
            <AltitudeMeters>575.5999755859375</AltitudeMeters>
            <DistanceMeters>NAN</DistanceMeters>
          </Trackpoint>
          <Trackpoint>
            <Time>2021-04-03T10:46:07.000Z</Time>
            <Position>
              <LatitudeDegrees>42.29689079336822032928466796875</LatitudeDegrees>
              <LongitudeDegrees>2.52417300827801227569580078125</LongitudeDegrees>
            </Position>
            <AltitudeMeters>576.20001220703125</AltitudeMeters>
            <DistanceMeters>NAN</DistanceMeters>
          </Trackpoint>
          <Trackpoint>
            <Time>2021-04-03T10:46:10.000Z</Time>
            <Position>
              <LatitudeDegrees>42.29688710533082485198974609375</LatitudeDegrees>
              <LongitudeDegrees>2.52419270575046539306640625</LongitudeDegrees>
            </Position>
            <AltitudeMeters>576.79998779296875</AltitudeMeters>
            <DistanceMeters>NAN</DistanceMeters>
          </Trackpoint>
          <Trackpoint>
            <Time>2021-04-03T10:46:11.000Z</Time>
            <Position>
              <LatitudeDegrees>42.29689934290945529937744140625</LatitudeDegrees>
              <LongitudeDegrees>2.5242009200155735015869140625</LongitudeDegrees>
            </Position>
            <AltitudeMeters>576.79998779296875</AltitudeMeters>
            <DistanceMeters>NAN</DistanceMeters>
          </Trackpoint>
          <Trackpoint>
            <Time>2021-04-03T10:46:15.000Z</Time>
            <Position>
              <LatitudeDegrees>42.29691359214484691619873046875</LatitudeDegrees>
              <LongitudeDegrees>2.52424173988401889801025390625</LongitudeDegrees>
            </Position>
            <AltitudeMeters>577.4000244140625</AltitudeMeters>
            <DistanceMeters>NAN</DistanceMeters>
          </Trackpoint>
          <Trackpoint>
            <Time>2021-04-03T10:46:18.000Z</Time>
            <Position>
              <LatitudeDegrees>42.29688961990177631378173828125</LatitudeDegrees>
              <LongitudeDegrees>2.52426571212708950042724609375</LongitudeDegrees>
            </Position>
            <AltitudeMeters>577.79998779296875</AltitudeMeters>
            <DistanceMeters>NAN</DistanceMeters>
          </Trackpoint>
          <Trackpoint>
            <Time>2021-04-03T10:46:23.000Z</Time>
            <Position>
              <LatitudeDegrees>42.29687989689409732818603515625</LatitudeDegrees>
              <LongitudeDegrees>2.52430309541523456573486328125</LongitudeDegrees>
            </Position>
            <AltitudeMeters>578.20001220703125</AltitudeMeters>
            <DistanceMeters>NAN</DistanceMeters>
          </Trackpoint>
          <Trackpoint>
            <Time>2021-04-03T10:46:29.000Z</Time>
            <Position>
              <LatitudeDegrees>42.29684821330010890960693359375</LatitudeDegrees>
              <LongitudeDegrees>2.52435573376715183258056640625</LongitudeDegrees>
            </Position>
            <AltitudeMeters>578.79998779296875</AltitudeMeters>
            <DistanceMeters>NAN</DistanceMeters>
          </Trackpoint>
          <Trackpoint>
            <Time>2021-04-03T10:46:31.000Z</Time>
            <Position>
              <LatitudeDegrees>42.2968394123017787933349609375</LatitudeDegrees>
              <LongitudeDegrees>2.52437987364828586578369140625</LongitudeDegrees>
            </Position>
            <AltitudeMeters>578.79998779296875</AltitudeMeters>
            <DistanceMeters>NAN</DistanceMeters>
          </Trackpoint>
          <Trackpoint>
            <Time>2021-04-03T10:46:39.000Z</Time>
            <Position>
              <LatitudeDegrees>42.29681988246738910675048828125</LatitudeDegrees>
              <LongitudeDegrees>2.52446637488901615142822265625</LongitudeDegrees>
            </Position>
            <AltitudeMeters>579</AltitudeMeters>
            <DistanceMeters>NAN</DistanceMeters>
          </Trackpoint>
          <Trackpoint>
            <Time>2021-04-03T10:46:42.000Z</Time>
            <Position>
              <LatitudeDegrees>42.29681250639259815216064453125</LatitudeDegrees>
              <LongitudeDegrees>2.524492777884006500244140625</LongitudeDegrees>
            </Position>
            <AltitudeMeters>578.79998779296875</AltitudeMeters>
            <DistanceMeters>NAN</DistanceMeters>
          </Trackpoint>
          <Trackpoint>
            <Time>2021-04-03T10:46:44.000Z</Time>
            <Position>
              <LatitudeDegrees>42.29680362157523632049560546875</LatitudeDegrees>
              <LongitudeDegrees>2.52450476400554180145263671875</LongitudeDegrees>
            </Position>
            <AltitudeMeters>579</AltitudeMeters>
            <DistanceMeters>NAN</DistanceMeters>
          </Trackpoint>
          <Trackpoint>
            <Time>2021-04-03T10:46:46.000Z</Time>
            <Position>
              <LatitudeDegrees>42.29679532349109649658203125</LatitudeDegrees>
              <LongitudeDegrees>2.52453493885695934295654296875</LongitudeDegrees>
            </Position>
            <AltitudeMeters>579</AltitudeMeters>
            <DistanceMeters>NAN</DistanceMeters>
          </Trackpoint>
          <Trackpoint>
            <Time>2021-04-03T10:46:53.000Z</Time>
            <Position>
              <LatitudeDegrees>42.29672198183834552764892578125</LatitudeDegrees>
              <LongitudeDegrees>2.5245930254459381103515625</LongitudeDegrees>
            </Position>
            <AltitudeMeters>579.4000244140625</AltitudeMeters>
            <DistanceMeters>NAN</DistanceMeters>
          </Trackpoint>
          <Trackpoint>
            <Time>2021-04-03T10:46:56.000Z</Time>
            <Position>
              <LatitudeDegrees>42.29671963490545749664306640625</LatitudeDegrees>
              <LongitudeDegrees>2.5245978869497776031494140625</LongitudeDegrees>
            </Position>
            <AltitudeMeters>579.5999755859375</AltitudeMeters>
            <DistanceMeters>NAN</DistanceMeters>
          </Trackpoint>
          <Trackpoint>
            <Time>2021-04-03T10:46:57.000Z</Time>
            <Position>
              <LatitudeDegrees>42.29671242646872997283935546875</LatitudeDegrees>
              <LongitudeDegrees>2.5245905108749866485595703125</LongitudeDegrees>
            </Position>
            <AltitudeMeters>579.79998779296875</AltitudeMeters>
            <DistanceMeters>NAN</DistanceMeters>
          </Trackpoint>
          <Trackpoint>
            <Time>2021-04-03T10:46:59.000Z</Time>
            <Position>
              <LatitudeDegrees>42.29669381864368915557861328125</LatitudeDegrees>
              <LongitudeDegrees>2.52455187030136585235595703125</LongitudeDegrees>
            </Position>
            <AltitudeMeters>580.20001220703125</AltitudeMeters>
            <DistanceMeters>NAN</DistanceMeters>
          </Trackpoint>
          <Trackpoint>
            <Time>2021-04-03T10:47:00.000Z</Time>
            <Position>
              <LatitudeDegrees>42.29668761603534221649169921875</LatitudeDegrees>
              <LongitudeDegrees>2.52454248256981372833251953125</LongitudeDegrees>
            </Position>
            <AltitudeMeters>580.4000244140625</AltitudeMeters>
            <DistanceMeters>NAN</DistanceMeters>
          </Trackpoint>
          <Trackpoint>
            <Time>2021-04-03T10:47:02.000Z</Time>
            <Position>
              <LatitudeDegrees>42.296689711511135101318359375</LatitudeDegrees>
              <LongitudeDegrees>2.52452932298183441162109375</LongitudeDegrees>
            </Position>
            <AltitudeMeters>580.4000244140625</AltitudeMeters>
            <DistanceMeters>NAN</DistanceMeters>
          </Trackpoint>
          <Trackpoint>
            <Time>2021-04-03T10:47:05.000Z</Time>
            <Position>
              <LatitudeDegrees>42.2966972552239894866943359375</LatitudeDegrees>
              <LongitudeDegrees>2.52449269406497478485107421875</LongitudeDegrees>
            </Position>
            <AltitudeMeters>581</AltitudeMeters>
            <DistanceMeters>NAN</DistanceMeters>
          </Trackpoint>
          <Trackpoint>
            <Time>2021-04-03T10:47:06.000Z</Time>
            <Position>
              <LatitudeDegrees>42.296702452003955841064453125</LatitudeDegrees>
              <LongitudeDegrees>2.52447903156280517578125</LongitudeDegrees>
            </Position>
            <AltitudeMeters>581</AltitudeMeters>
            <DistanceMeters>NAN</DistanceMeters>
          </Trackpoint>
          <Trackpoint>
            <Time>2021-04-03T10:47:11.000Z</Time>
            <Position>
              <LatitudeDegrees>42.29672114364802837371826171875</LatitudeDegrees>
              <LongitudeDegrees>2.52442513592541217803955078125</LongitudeDegrees>
            </Position>
            <AltitudeMeters>581.5999755859375</AltitudeMeters>
            <DistanceMeters>NAN</DistanceMeters>
          </Trackpoint>
          <Trackpoint>
            <Time>2021-04-03T10:47:14.000Z</Time>
            <Position>
              <LatitudeDegrees>42.2967056371271610260009765625</LatitudeDegrees>
              <LongitudeDegrees>2.524385489523410797119140625</LongitudeDegrees>
            </Position>
            <AltitudeMeters>582</AltitudeMeters>
            <DistanceMeters>NAN</DistanceMeters>
          </Trackpoint>
          <Trackpoint>
            <Time>2021-04-03T10:47:17.000Z</Time>
            <Position>
              <LatitudeDegrees>42.29669197462499141693115234375</LatitudeDegrees>
              <LongitudeDegrees>2.52433695830404758453369140625</LongitudeDegrees>
            </Position>
            <AltitudeMeters>582.20001220703125</AltitudeMeters>
            <DistanceMeters>NAN</DistanceMeters>
          </Trackpoint>
          <Trackpoint>
            <Time>2021-04-03T10:47:22.000Z</Time>
            <Position>
              <LatitudeDegrees>42.29669331572949886322021484375</LatitudeDegrees>
              <LongitudeDegrees>2.5242676399648189544677734375</LongitudeDegrees>
            </Position>
            <AltitudeMeters>582.5999755859375</AltitudeMeters>
            <DistanceMeters>NAN</DistanceMeters>
          </Trackpoint>
          <Trackpoint>
            <Time>2021-04-03T10:47:25.000Z</Time>
            <Position>
              <LatitudeDegrees>42.2967106662690639495849609375</LatitudeDegrees>
              <LongitudeDegrees>2.52423352561891078948974609375</LongitudeDegrees>
            </Position>
            <AltitudeMeters>582.79998779296875</AltitudeMeters>
            <DistanceMeters>NAN</DistanceMeters>
          </Trackpoint>
          <Trackpoint>
            <Time>2021-04-03T10:47:27.000Z</Time>
            <Position>
              <LatitudeDegrees>42.2967086546123027801513671875</LatitudeDegrees>
              <LongitudeDegrees>2.5242012552917003631591796875</LongitudeDegrees>
            </Position>
            <AltitudeMeters>583</AltitudeMeters>
            <DistanceMeters>NAN</DistanceMeters>
          </Trackpoint>
          <Trackpoint>
            <Time>2021-04-03T10:47:31.000Z</Time>
            <Position>
              <LatitudeDegrees>42.29672919027507305145263671875</LatitudeDegrees>
              <LongitudeDegrees>2.52417200244963169097900390625</LongitudeDegrees>
            </Position>
            <AltitudeMeters>583.4000244140625</AltitudeMeters>
            <DistanceMeters>NAN</DistanceMeters>
          </Trackpoint>
          <Trackpoint>
            <Time>2021-04-03T10:47:34.000Z</Time>
            <Position>
              <LatitudeDegrees>42.29673036374151706695556640625</LatitudeDegrees>
              <LongitudeDegrees>2.52413637936115264892578125</LongitudeDegrees>
            </Position>
            <AltitudeMeters>583.5999755859375</AltitudeMeters>
            <DistanceMeters>NAN</DistanceMeters>
          </Trackpoint>
          <Trackpoint>
            <Time>2021-04-03T10:47:37.000Z</Time>
            <Position>
              <LatitudeDegrees>42.2967302799224853515625</LatitudeDegrees>
              <LongitudeDegrees>2.5241114012897014617919921875</LongitudeDegrees>
            </Position>
            <AltitudeMeters>584</AltitudeMeters>
            <DistanceMeters>NAN</DistanceMeters>
          </Trackpoint>
          <Trackpoint>
            <Time>2021-04-03T10:47:38.000Z</Time>
            <Position>
              <LatitudeDegrees>42.29672835208475589752197265625</LatitudeDegrees>
              <LongitudeDegrees>2.5240959785878658294677734375</LongitudeDegrees>
            </Position>
            <AltitudeMeters>584</AltitudeMeters>
            <DistanceMeters>NAN</DistanceMeters>
          </Trackpoint>
          <Trackpoint>
            <Time>2021-04-03T10:47:42.000Z</Time>
            <Position>
              <LatitudeDegrees>42.29672156274318695068359375</LatitudeDegrees>
              <LongitudeDegrees>2.5240842439234256744384765625</LongitudeDegrees>
            </Position>
            <AltitudeMeters>584.4000244140625</AltitudeMeters>
            <DistanceMeters>NAN</DistanceMeters>
          </Trackpoint>
          <Trackpoint>
            <Time>2021-04-03T10:47:43.000Z</Time>
            <Position>
              <LatitudeDegrees>42.29671611450612545013427734375</LatitudeDegrees>
              <LongitudeDegrees>2.52408583648502826690673828125</LongitudeDegrees>
            </Position>
            <AltitudeMeters>584.5999755859375</AltitudeMeters>
            <DistanceMeters>NAN</DistanceMeters>
          </Trackpoint>
          <Trackpoint>
            <Time>2021-04-03T10:47:44.000Z</Time>
            <Position>
              <LatitudeDegrees>42.296713851392269134521484375</LatitudeDegrees>
              <LongitudeDegrees>2.52408944070339202880859375</LongitudeDegrees>
            </Position>
            <AltitudeMeters>584.79998779296875</AltitudeMeters>
            <DistanceMeters>NAN</DistanceMeters>
          </Trackpoint>
          <Trackpoint>
            <Time>2021-04-03T10:47:47.000Z</Time>
            <Position>
              <LatitudeDegrees>42.29669876396656036376953125</LatitudeDegrees>
              <LongitudeDegrees>2.5241013430058956146240234375</LongitudeDegrees>
            </Position>
            <AltitudeMeters>585.20001220703125</AltitudeMeters>
            <DistanceMeters>NAN</DistanceMeters>
          </Trackpoint>
          <Trackpoint>
            <Time>2021-04-03T10:47:48.000Z</Time>
            <Position>
              <LatitudeDegrees>42.2966918908059597015380859375</LatitudeDegrees>
              <LongitudeDegrees>2.52410209737718105316162109375</LongitudeDegrees>
            </Position>
            <AltitudeMeters>585.4000244140625</AltitudeMeters>
            <DistanceMeters>NAN</DistanceMeters>
          </Trackpoint>
          <Trackpoint>
            <Time>2021-04-03T10:47:50.000Z</Time>
            <Position>
              <LatitudeDegrees>42.2966791503131389617919921875</LatitudeDegrees>
              <LongitudeDegrees>2.52411215566098690032958984375</LongitudeDegrees>
            </Position>
            <AltitudeMeters>585.5999755859375</AltitudeMeters>
            <DistanceMeters>NAN</DistanceMeters>
          </Trackpoint>
          <Trackpoint>
            <Time>2021-04-03T10:47:52.000Z</Time>
            <Position>
              <LatitudeDegrees>42.29667521081864833831787109375</LatitudeDegrees>
              <LongitudeDegrees>2.52412120811641216278076171875</LongitudeDegrees>
            </Position>
            <AltitudeMeters>585.79998779296875</AltitudeMeters>
            <DistanceMeters>NAN</DistanceMeters>
          </Trackpoint>
          <Trackpoint>
            <Time>2021-04-03T10:47:55.000Z</Time>
            <Position>
              <LatitudeDegrees>42.2966677509248256683349609375</LatitudeDegrees>
              <LongitudeDegrees>2.524142749607563018798828125</LongitudeDegrees>
            </Position>
            <AltitudeMeters>586.4000244140625</AltitudeMeters>
            <DistanceMeters>NAN</DistanceMeters>
          </Trackpoint>
          <Trackpoint>
            <Time>2021-04-03T10:47:57.000Z</Time>
            <Position>
              <LatitudeDegrees>42.2966576926410198211669921875</LatitudeDegrees>
              <LongitudeDegrees>2.52416051924228668212890625</LongitudeDegrees>
            </Position>
            <AltitudeMeters>586.4000244140625</AltitudeMeters>
            <DistanceMeters>NAN</DistanceMeters>
          </Trackpoint>
          <Trackpoint>
            <Time>2021-04-03T10:48:00.000Z</Time>
            <Position>
              <LatitudeDegrees>42.29663631878793239593505859375</LatitudeDegrees>
              <LongitudeDegrees>2.52418139018118381500244140625</LongitudeDegrees>
            </Position>
            <AltitudeMeters>586.79998779296875</AltitudeMeters>
            <DistanceMeters>NAN</DistanceMeters>
          </Trackpoint>
          <Trackpoint>
            <Time>2021-04-03T10:48:02.000Z</Time>
            <Position>
              <LatitudeDegrees>42.2966278530657291412353515625</LatitudeDegrees>
              <LongitudeDegrees>2.524199075996875762939453125</LongitudeDegrees>
            </Position>
            <AltitudeMeters>587</AltitudeMeters>
            <DistanceMeters>NAN</DistanceMeters>
          </Trackpoint>
          <Trackpoint>
            <Time>2021-04-03T10:48:04.000Z</Time>
            <Position>
              <LatitudeDegrees>42.2966154478490352630615234375</LatitudeDegrees>
              <LongitudeDegrees>2.52421257086098194122314453125</LongitudeDegrees>
            </Position>
            <AltitudeMeters>587.4000244140625</AltitudeMeters>
            <DistanceMeters>NAN</DistanceMeters>
          </Trackpoint>
          <Trackpoint>
            <Time>2021-04-03T10:48:05.000Z</Time>
            <Position>
              <LatitudeDegrees>42.29660689830780029296875</LatitudeDegrees>
              <LongitudeDegrees>2.52421977929770946502685546875</LongitudeDegrees>
            </Position>
            <AltitudeMeters>587.5999755859375</AltitudeMeters>
            <DistanceMeters>NAN</DistanceMeters>
          </Trackpoint>
          <Trackpoint>
            <Time>2021-04-03T10:48:07.000Z</Time>
            <Position>
              <LatitudeDegrees>42.29659390635788440704345703125</LatitudeDegrees>
              <LongitudeDegrees>2.52423738129436969757080078125</LongitudeDegrees>
            </Position>
            <AltitudeMeters>587.79998779296875</AltitudeMeters>
            <DistanceMeters>NAN</DistanceMeters>
          </Trackpoint>
          <Trackpoint>
            <Time>2021-04-03T10:48:08.000Z</Time>
            <Position>
              <LatitudeDegrees>42.29659013450145721435546875</LatitudeDegrees>
              <LongitudeDegrees>2.524243332445621490478515625</LongitudeDegrees>
            </Position>
            <AltitudeMeters>587.79998779296875</AltitudeMeters>
            <DistanceMeters>NAN</DistanceMeters>
          </Trackpoint>
          <Trackpoint>
            <Time>2021-04-03T10:48:15.000Z</Time>
            <Position>
              <LatitudeDegrees>42.296579740941524505615234375</LatitudeDegrees>
              <LongitudeDegrees>2.5242994911968708038330078125</LongitudeDegrees>
            </Position>
            <AltitudeMeters>588.5999755859375</AltitudeMeters>
            <DistanceMeters>NAN</DistanceMeters>
          </Trackpoint>
          <Trackpoint>
            <Time>2021-04-03T10:48:23.000Z</Time>
            <Position>
              <LatitudeDegrees>42.29654344730079174041748046875</LatitudeDegrees>
              <LongitudeDegrees>2.5243709050118923187255859375</LongitudeDegrees>
            </Position>
            <AltitudeMeters>589.5999755859375</AltitudeMeters>
            <DistanceMeters>NAN</DistanceMeters>
          </Trackpoint>
          <Trackpoint>
            <Time>2021-04-03T10:48:31.000Z</Time>
            <Position>
              <LatitudeDegrees>42.296489216387271881103515625</LatitudeDegrees>
              <LongitudeDegrees>2.52442563883960247039794921875</LongitudeDegrees>
            </Position>
            <AltitudeMeters>590.79998779296875</AltitudeMeters>
            <DistanceMeters>NAN</DistanceMeters>
          </Trackpoint>
          <Trackpoint>
            <Time>2021-04-03T10:48:32.000Z</Time>
            <Position>
              <LatitudeDegrees>42.29648259468376636505126953125</LatitudeDegrees>
              <LongitudeDegrees>2.524423711001873016357421875</LongitudeDegrees>
            </Position>
            <AltitudeMeters>591</AltitudeMeters>
            <DistanceMeters>NAN</DistanceMeters>
          </Trackpoint>
          <Trackpoint>
            <Time>2021-04-03T10:48:37.000Z</Time>
            <Position>
              <LatitudeDegrees>42.296451665461063385009765625</LatitudeDegrees>
              <LongitudeDegrees>2.52437434159219264984130859375</LongitudeDegrees>
            </Position>
            <AltitudeMeters>591.79998779296875</AltitudeMeters>
            <DistanceMeters>NAN</DistanceMeters>
          </Trackpoint>
          <Trackpoint>
            <Time>2021-04-03T10:48:39.000Z</Time>
            <Position>
              <LatitudeDegrees>42.2964464686810970306396484375</LatitudeDegrees>
              <LongitudeDegrees>2.52436679787933826446533203125</LongitudeDegrees>
            </Position>
            <AltitudeMeters>592.20001220703125</AltitudeMeters>
            <DistanceMeters>NAN</DistanceMeters>
          </Trackpoint>
          <Trackpoint>
            <Time>2021-04-03T10:48:44.000Z</Time>
            <Position>
              <LatitudeDegrees>42.2964526712894439697265625</LatitudeDegrees>
              <LongitudeDegrees>2.52431809902191162109375</LongitudeDegrees>
            </Position>
            <AltitudeMeters>592.79998779296875</AltitudeMeters>
            <DistanceMeters>NAN</DistanceMeters>
          </Trackpoint>
          <Trackpoint>
            <Time>2021-04-03T10:48:45.000Z</Time>
            <Position>
              <LatitudeDegrees>42.29644889943301677703857421875</LatitudeDegrees>
              <LongitudeDegrees>2.52430393360555171966552734375</LongitudeDegrees>
            </Position>
            <AltitudeMeters>593</AltitudeMeters>
            <DistanceMeters>NAN</DistanceMeters>
          </Trackpoint>
          <Trackpoint>
            <Time>2021-04-03T10:48:54.000Z</Time>
            <Position>
              <LatitudeDegrees>42.296448983252048492431640625</LatitudeDegrees>
              <LongitudeDegrees>2.5241839885711669921875</LongitudeDegrees>
            </Position>
            <AltitudeMeters>594</AltitudeMeters>
            <DistanceMeters>NAN</DistanceMeters>
          </Trackpoint>
          <Trackpoint>
            <Time>2021-04-03T10:49:02.000Z</Time>
            <Position>
              <LatitudeDegrees>42.29644319973886013031005859375</LatitudeDegrees>
              <LongitudeDegrees>2.5240721739828586578369140625</LongitudeDegrees>
            </Position>
            <AltitudeMeters>595</AltitudeMeters>
            <DistanceMeters>NAN</DistanceMeters>
          </Trackpoint>
          <Trackpoint>
            <Time>2021-04-03T10:49:03.000Z</Time>
            <Position>
              <LatitudeDegrees>42.29644102044403553009033203125</LatitudeDegrees>
              <LongitudeDegrees>2.52406052313745021820068359375</LongitudeDegrees>
            </Position>
            <AltitudeMeters>595</AltitudeMeters>
            <DistanceMeters>NAN</DistanceMeters>
          </Trackpoint>
          <Trackpoint>
            <Time>2021-04-03T10:49:07.000Z</Time>
            <Position>
              <LatitudeDegrees>42.29645040817558765411376953125</LatitudeDegrees>
              <LongitudeDegrees>2.5240054540336132049560546875</LongitudeDegrees>
            </Position>
            <AltitudeMeters>595.4000244140625</AltitudeMeters>
            <DistanceMeters>NAN</DistanceMeters>
          </Trackpoint>
          <Trackpoint>
            <Time>2021-04-03T10:49:09.000Z</Time>
            <Position>
              <LatitudeDegrees>42.29645677842199802398681640625</LatitudeDegrees>
              <LongitudeDegrees>2.523990534245967864990234375</LongitudeDegrees>
            </Position>
            <AltitudeMeters>595.5999755859375</AltitudeMeters>
            <DistanceMeters>NAN</DistanceMeters>
          </Trackpoint>
          <Trackpoint>
            <Time>2021-04-03T10:49:13.000Z</Time>
            <Position>
              <LatitudeDegrees>42.29646532796323299407958984375</LatitudeDegrees>
              <LongitudeDegrees>2.52393647097051143646240234375</LongitudeDegrees>
            </Position>
            <AltitudeMeters>596</AltitudeMeters>
            <DistanceMeters>NAN</DistanceMeters>
          </Trackpoint>
          <Trackpoint>
            <Time>2021-04-03T10:49:14.000Z</Time>
            <Position>
              <LatitudeDegrees>42.29646700434386730194091796875</LatitudeDegrees>
              <LongitudeDegrees>2.52392071299254894256591796875</LongitudeDegrees>
            </Position>
            <AltitudeMeters>596</AltitudeMeters>
            <DistanceMeters>NAN</DistanceMeters>
          </Trackpoint>
          <Trackpoint>
            <Time>2021-04-03T10:49:19.000Z</Time>
            <Position>
              <LatitudeDegrees>42.29646205902099609375</LatitudeDegrees>
              <LongitudeDegrees>2.52386354841291904449462890625</LongitudeDegrees>
            </Position>
            <AltitudeMeters>596.4000244140625</AltitudeMeters>
            <DistanceMeters>NAN</DistanceMeters>
          </Trackpoint>
          <Trackpoint>
            <Time>2021-04-03T10:49:22.000Z</Time>
            <Position>
              <LatitudeDegrees>42.29650162160396575927734375</LatitudeDegrees>
              <LongitudeDegrees>2.5238441862165927886962890625</LongitudeDegrees>
            </Position>
            <AltitudeMeters>596.5999755859375</AltitudeMeters>
            <DistanceMeters>NAN</DistanceMeters>
          </Trackpoint>
          <Trackpoint>
            <Time>2021-04-03T10:49:25.000Z</Time>
            <Position>
              <LatitudeDegrees>42.29651193134486675262451171875</LatitudeDegrees>
              <LongitudeDegrees>2.52381744794547557830810546875</LongitudeDegrees>
            </Position>
            <AltitudeMeters>597</AltitudeMeters>
            <DistanceMeters>NAN</DistanceMeters>
          </Trackpoint>
          <Trackpoint>
            <Time>2021-04-03T10:49:27.000Z</Time>
            <Position>
              <LatitudeDegrees>42.29650891385972499847412109375</LatitudeDegrees>
              <LongitudeDegrees>2.52379934303462505340576171875</LongitudeDegrees>
            </Position>
            <AltitudeMeters>597</AltitudeMeters>
            <DistanceMeters>NAN</DistanceMeters>
          </Trackpoint>
          <Trackpoint>
            <Time>2021-04-03T10:49:33.000Z</Time>
            <Position>
              <LatitudeDegrees>42.2964974306523799896240234375</LatitudeDegrees>
              <LongitudeDegrees>2.52373865805566310882568359375</LongitudeDegrees>
            </Position>
            <AltitudeMeters>597.79998779296875</AltitudeMeters>
            <DistanceMeters>NAN</DistanceMeters>
          </Trackpoint>
          <Trackpoint>
            <Time>2021-04-03T10:49:35.000Z</Time>
            <Position>
              <LatitudeDegrees>42.29651293717324733734130859375</LatitudeDegrees>
              <LongitudeDegrees>2.52373002469539642333984375</LongitudeDegrees>
            </Position>
            <AltitudeMeters>598.20001220703125</AltitudeMeters>
            <DistanceMeters>NAN</DistanceMeters>
          </Trackpoint>
          <Trackpoint>
            <Time>2021-04-03T10:49:41.000Z</Time>
            <Position>
              <LatitudeDegrees>42.29651503264904022216796875</LatitudeDegrees>
              <LongitudeDegrees>2.5236775539815425872802734375</LongitudeDegrees>
            </Position>
            <AltitudeMeters>599</AltitudeMeters>
            <DistanceMeters>NAN</DistanceMeters>
          </Trackpoint>
          <Trackpoint>
            <Time>2021-04-03T10:49:42.000Z</Time>
            <Position>
              <LatitudeDegrees>42.296518050134181976318359375</LatitudeDegrees>
              <LongitudeDegrees>2.5236718542873859405517578125</LongitudeDegrees>
            </Position>
            <AltitudeMeters>599.20001220703125</AltitudeMeters>
            <DistanceMeters>NAN</DistanceMeters>
          </Trackpoint>
          <Trackpoint>
            <Time>2021-04-03T10:49:47.000Z</Time>
            <Position>
              <LatitudeDegrees>42.29651444591581821441650390625</LatitudeDegrees>
              <LongitudeDegrees>2.52363489009439945220947265625</LongitudeDegrees>
            </Position>
            <AltitudeMeters>600.20001220703125</AltitudeMeters>
            <DistanceMeters>NAN</DistanceMeters>
          </Trackpoint>
          <Trackpoint>
            <Time>2021-04-03T10:49:49.000Z</Time>
            <Position>
              <LatitudeDegrees>42.29651637375354766845703125</LatitudeDegrees>
              <LongitudeDegrees>2.52362701110541820526123046875</LongitudeDegrees>
            </Position>
            <AltitudeMeters>600.4000244140625</AltitudeMeters>
            <DistanceMeters>NAN</DistanceMeters>
          </Trackpoint>
          <Trackpoint>
            <Time>2021-04-03T10:49:56.000Z</Time>
            <Position>
              <LatitudeDegrees>42.2965078242123126983642578125</LatitudeDegrees>
              <LongitudeDegrees>2.5235752947628498077392578125</LongitudeDegrees>
            </Position>
            <AltitudeMeters>601.20001220703125</AltitudeMeters>
            <DistanceMeters>NAN</DistanceMeters>
          </Trackpoint>
          <Trackpoint>
            <Time>2021-04-03T10:49:57.000Z</Time>
            <Position>
              <LatitudeDegrees>42.296512685716152191162109375</LatitudeDegrees>
              <LongitudeDegrees>2.52357621677219867706298828125</LongitudeDegrees>
            </Position>
            <AltitudeMeters>601.4000244140625</AltitudeMeters>
            <DistanceMeters>NAN</DistanceMeters>
          </Trackpoint>
          <Trackpoint>
            <Time>2021-04-03T10:50:02.000Z</Time>
            <Position>
              <LatitudeDegrees>42.29650841094553470611572265625</LatitudeDegrees>
              <LongitudeDegrees>2.52355693839490413665771484375</LongitudeDegrees>
            </Position>
            <AltitudeMeters>602.20001220703125</AltitudeMeters>
            <DistanceMeters>NAN</DistanceMeters>
          </Trackpoint>
          <Trackpoint>
            <Time>2021-04-03T10:50:03.000Z</Time>
            <Position>
              <LatitudeDegrees>42.2965071536600589752197265625</LatitudeDegrees>
              <LongitudeDegrees>2.52354562282562255859375</LongitudeDegrees>
            </Position>
            <AltitudeMeters>602.4000244140625</AltitudeMeters>
            <DistanceMeters>NAN</DistanceMeters>
          </Trackpoint>
          <Trackpoint>
            <Time>2021-04-03T10:50:08.000Z</Time>
            <Position>
              <LatitudeDegrees>42.2965157032012939453125</LatitudeDegrees>
              <LongitudeDegrees>2.52350061200559139251708984375</LongitudeDegrees>
            </Position>
            <AltitudeMeters>603</AltitudeMeters>
            <DistanceMeters>NAN</DistanceMeters>
          </Trackpoint>
          <Trackpoint>
            <Time>2021-04-03T10:50:10.000Z</Time>
            <Position>
              <LatitudeDegrees>42.29651662521064281463623046875</LatitudeDegrees>
              <LongitudeDegrees>2.52348669804632663726806640625</LongitudeDegrees>
            </Position>
            <AltitudeMeters>603.4000244140625</AltitudeMeters>
            <DistanceMeters>NAN</DistanceMeters>
          </Trackpoint>
          <Trackpoint>
            <Time>2021-04-03T10:50:12.000Z</Time>
            <Position>
              <LatitudeDegrees>42.2965192236006259918212890625</LatitudeDegrees>
              <LongitudeDegrees>2.5234780646860599517822265625</LongitudeDegrees>
            </Position>
            <AltitudeMeters>603.79998779296875</AltitudeMeters>
            <DistanceMeters>NAN</DistanceMeters>
          </Trackpoint>
          <Trackpoint>
            <Time>2021-04-03T10:50:14.000Z</Time>
            <Position>
              <LatitudeDegrees>42.29651159606873989105224609375</LatitudeDegrees>
              <LongitudeDegrees>2.52346691675484180450439453125</LongitudeDegrees>
            </Position>
            <AltitudeMeters>604</AltitudeMeters>
            <DistanceMeters>NAN</DistanceMeters>
          </Trackpoint>
          <Trackpoint>
            <Time>2021-04-03T10:50:17.000Z</Time>
            <Position>
              <LatitudeDegrees>42.2965215705335140228271484375</LatitudeDegrees>
              <LongitudeDegrees>2.5234411843121051788330078125</LongitudeDegrees>
            </Position>
            <AltitudeMeters>604.4000244140625</AltitudeMeters>
            <DistanceMeters>NAN</DistanceMeters>
          </Trackpoint>
          <Trackpoint>
            <Time>2021-04-03T10:50:19.000Z</Time>
            <Position>
              <LatitudeDegrees>42.29652819223701953887939453125</LatitudeDegrees>
              <LongitudeDegrees>2.52341997809708118438720703125</LongitudeDegrees>
            </Position>
            <AltitudeMeters>604.79998779296875</AltitudeMeters>
            <DistanceMeters>NAN</DistanceMeters>
          </Trackpoint>
          <Trackpoint>
            <Time>2021-04-03T10:50:25.000Z</Time>
            <Position>
              <LatitudeDegrees>42.2965390048921108245849609375</LatitudeDegrees>
              <LongitudeDegrees>2.5233861990272998809814453125</LongitudeDegrees>
            </Position>
            <AltitudeMeters>605.5999755859375</AltitudeMeters>
            <DistanceMeters>NAN</DistanceMeters>
          </Trackpoint>
          <Trackpoint>
            <Time>2021-04-03T10:50:26.000Z</Time>
            <Position>
              <LatitudeDegrees>42.29654126800596714019775390625</LatitudeDegrees>
              <LongitudeDegrees>2.52337739802896976470947265625</LongitudeDegrees>
            </Position>
            <AltitudeMeters>605.79998779296875</AltitudeMeters>
            <DistanceMeters>NAN</DistanceMeters>
          </Trackpoint>
          <Trackpoint>
            <Time>2021-04-03T10:50:32.000Z</Time>
            <Position>
              <LatitudeDegrees>42.29654311202466487884521484375</LatitudeDegrees>
              <LongitudeDegrees>2.523328699171543121337890625</LongitudeDegrees>
            </Position>
            <AltitudeMeters>606.4000244140625</AltitudeMeters>
            <DistanceMeters>NAN</DistanceMeters>
          </Trackpoint>
          <Trackpoint>
            <Time>2021-04-03T10:50:33.000Z</Time>
            <Position>
              <LatitudeDegrees>42.2965443693101406097412109375</LatitudeDegrees>
              <LongitudeDegrees>2.5233134441077709197998046875</LongitudeDegrees>
            </Position>
            <AltitudeMeters>606.5999755859375</AltitudeMeters>
            <DistanceMeters>NAN</DistanceMeters>
          </Trackpoint>
          <Trackpoint>
            <Time>2021-04-03T10:50:38.000Z</Time>
            <Position>
              <LatitudeDegrees>42.2965490631759166717529296875</LatitudeDegrees>
              <LongitudeDegrees>2.52323758788406848907470703125</LongitudeDegrees>
            </Position>
            <AltitudeMeters>607.20001220703125</AltitudeMeters>
            <DistanceMeters>NAN</DistanceMeters>
          </Trackpoint>
          <Trackpoint>
            <Time>2021-04-03T10:50:44.000Z</Time>
            <Position>
              <LatitudeDegrees>42.29655803181231021881103515625</LatitudeDegrees>
              <LongitudeDegrees>2.5231753103435039520263671875</LongitudeDegrees>
            </Position>
            <AltitudeMeters>607.5999755859375</AltitudeMeters>
            <DistanceMeters>NAN</DistanceMeters>
          </Trackpoint>
          <Trackpoint>
            <Time>2021-04-03T10:50:45.000Z</Time>
            <Position>
              <LatitudeDegrees>42.29656741954386234283447265625</LatitudeDegrees>
              <LongitudeDegrees>2.52316785044968128204345703125</LongitudeDegrees>
            </Position>
            <AltitudeMeters>607.5999755859375</AltitudeMeters>
            <DistanceMeters>NAN</DistanceMeters>
          </Trackpoint>
          <Trackpoint>
            <Time>2021-04-03T10:50:50.000Z</Time>
            <Position>
              <LatitudeDegrees>42.29659021832048892974853515625</LatitudeDegrees>
              <LongitudeDegrees>2.52311320044100284576416015625</LongitudeDegrees>
            </Position>
            <AltitudeMeters>608</AltitudeMeters>
            <DistanceMeters>NAN</DistanceMeters>
          </Trackpoint>
          <Trackpoint>
            <Time>2021-04-03T10:50:54.000Z</Time>
            <Position>
              <LatitudeDegrees>42.29659021832048892974853515625</LatitudeDegrees>
              <LongitudeDegrees>2.523056454956531524658203125</LongitudeDegrees>
            </Position>
            <AltitudeMeters>608.5999755859375</AltitudeMeters>
            <DistanceMeters>NAN</DistanceMeters>
          </Trackpoint>
          <Trackpoint>
            <Time>2021-04-03T10:50:56.000Z</Time>
            <Position>
              <LatitudeDegrees>42.29658535681664943695068359375</LatitudeDegrees>
              <LongitudeDegrees>2.5230187363922595977783203125</LongitudeDegrees>
            </Position>
            <AltitudeMeters>609</AltitudeMeters>
            <DistanceMeters>NAN</DistanceMeters>
          </Trackpoint>
          <Trackpoint>
            <Time>2021-04-03T10:51:01.000Z</Time>
            <Position>
              <LatitudeDegrees>42.29657513089478015899658203125</LatitudeDegrees>
              <LongitudeDegrees>2.52295645885169506072998046875</LongitudeDegrees>
            </Position>
            <AltitudeMeters>609.79998779296875</AltitudeMeters>
            <DistanceMeters>NAN</DistanceMeters>
          </Trackpoint>
          <Trackpoint>
            <Time>2021-04-03T10:51:02.000Z</Time>
            <Position>
              <LatitudeDegrees>42.2965685091912746429443359375</LatitudeDegrees>
              <LongitudeDegrees>2.5229459814727306365966796875</LongitudeDegrees>
            </Position>
            <AltitudeMeters>609.79998779296875</AltitudeMeters>
            <DistanceMeters>NAN</DistanceMeters>
          </Trackpoint>
          <Trackpoint>
            <Time>2021-04-03T10:51:08.000Z</Time>
            <Position>
              <LatitudeDegrees>42.29658745229244232177734375</LatitudeDegrees>
              <LongitudeDegrees>2.5228849612176418304443359375</LongitudeDegrees>
            </Position>
            <AltitudeMeters>610.79998779296875</AltitudeMeters>
            <DistanceMeters>NAN</DistanceMeters>
          </Trackpoint>
          <Trackpoint>
            <Time>2021-04-03T10:51:09.000Z</Time>
            <Position>
              <LatitudeDegrees>42.29659457691013813018798828125</LatitudeDegrees>
              <LongitudeDegrees>2.5228769145905971527099609375</LongitudeDegrees>
            </Position>
            <AltitudeMeters>610.79998779296875</AltitudeMeters>
            <DistanceMeters>NAN</DistanceMeters>
          </Trackpoint>
          <Trackpoint>
            <Time>2021-04-03T10:51:15.000Z</Time>
            <Position>
              <LatitudeDegrees>42.29661888442933559417724609375</LatitudeDegrees>
              <LongitudeDegrees>2.522813715040683746337890625</LongitudeDegrees>
            </Position>
            <AltitudeMeters>611.79998779296875</AltitudeMeters>
            <DistanceMeters>NAN</DistanceMeters>
          </Trackpoint>
          <Trackpoint>
            <Time>2021-04-03T10:51:17.000Z</Time>
            <Position>
              <LatitudeDegrees>42.29661804623901844024658203125</LatitudeDegrees>
              <LongitudeDegrees>2.5227964483201503753662109375</LongitudeDegrees>
            </Position>
            <AltitudeMeters>612</AltitudeMeters>
            <DistanceMeters>NAN</DistanceMeters>
          </Trackpoint>
          <Trackpoint>
            <Time>2021-04-03T10:51:21.000Z</Time>
            <Position>
              <LatitudeDegrees>42.296642772853374481201171875</LatitudeDegrees>
              <LongitudeDegrees>2.522770799696445465087890625</LongitudeDegrees>
            </Position>
            <AltitudeMeters>612.4000244140625</AltitudeMeters>
            <DistanceMeters>NAN</DistanceMeters>
          </Trackpoint>
          <Trackpoint>
            <Time>2021-04-03T10:51:25.000Z</Time>
            <Position>
              <LatitudeDegrees>42.29666791856288909912109375</LatitudeDegrees>
              <LongitudeDegrees>2.52275261096656322479248046875</LongitudeDegrees>
            </Position>
            <AltitudeMeters>613</AltitudeMeters>
            <DistanceMeters>NAN</DistanceMeters>
          </Trackpoint>
          <Trackpoint>
            <Time>2021-04-03T10:51:28.000Z</Time>
            <Position>
              <LatitudeDegrees>42.2966704331338405609130859375</LatitudeDegrees>
              <LongitudeDegrees>2.5227250345051288604736328125</LongitudeDegrees>
            </Position>
            <AltitudeMeters>613.20001220703125</AltitudeMeters>
            <DistanceMeters>NAN</DistanceMeters>
          </Trackpoint>
          <Trackpoint>
            <Time>2021-04-03T10:51:34.000Z</Time>
            <Position>
              <LatitudeDegrees>42.29668803513050079345703125</LatitudeDegrees>
              <LongitudeDegrees>2.52267348580062389373779296875</LongitudeDegrees>
            </Position>
            <AltitudeMeters>613.79998779296875</AltitudeMeters>
            <DistanceMeters>NAN</DistanceMeters>
          </Trackpoint>
          <Trackpoint>
            <Time>2021-04-03T10:51:35.000Z</Time>
            <Position>
              <LatitudeDegrees>42.29670303873717784881591796875</LatitudeDegrees>
              <LongitudeDegrees>2.5226643495261669158935546875</LongitudeDegrees>
            </Position>
            <AltitudeMeters>614</AltitudeMeters>
            <DistanceMeters>NAN</DistanceMeters>
          </Trackpoint>
          <Trackpoint>
            <Time>2021-04-03T10:51:40.000Z</Time>
            <Position>
              <LatitudeDegrees>42.29674695990979671478271484375</LatitudeDegrees>
              <LongitudeDegrees>2.52263610251247882843017578125</LongitudeDegrees>
            </Position>
            <AltitudeMeters>614.4000244140625</AltitudeMeters>
            <DistanceMeters>NAN</DistanceMeters>
          </Trackpoint>
          <Trackpoint>
            <Time>2021-04-03T10:51:44.000Z</Time>
            <Position>
              <LatitudeDegrees>42.2967646457254886627197265625</LatitudeDegrees>
              <LongitudeDegrees>2.5226026587188243865966796875</LongitudeDegrees>
            </Position>
            <AltitudeMeters>615.20001220703125</AltitudeMeters>
            <DistanceMeters>NAN</DistanceMeters>
          </Trackpoint>
          <Trackpoint>
            <Time>2021-04-03T10:51:48.000Z</Time>
            <Position>
              <LatitudeDegrees>42.29678669013082981109619140625</LatitudeDegrees>
              <LongitudeDegrees>2.5225781835615634918212890625</LongitudeDegrees>
            </Position>
            <AltitudeMeters>615.5999755859375</AltitudeMeters>
            <DistanceMeters>NAN</DistanceMeters>
          </Trackpoint>
          <Trackpoint>
            <Time>2021-04-03T10:51:55.000Z</Time>
            <Position>
              <LatitudeDegrees>42.29682424105703830718994140625</LatitudeDegrees>
              <LongitudeDegrees>2.52250081859529018402099609375</LongitudeDegrees>
            </Position>
            <AltitudeMeters>616.20001220703125</AltitudeMeters>
            <DistanceMeters>NAN</DistanceMeters>
          </Trackpoint>
          <Trackpoint>
            <Time>2021-04-03T10:51:56.000Z</Time>
            <Position>
              <LatitudeDegrees>42.29682608507573604583740234375</LatitudeDegrees>
              <LongitudeDegrees>2.52248707227408885955810546875</LongitudeDegrees>
            </Position>
            <AltitudeMeters>616.4000244140625</AltitudeMeters>
            <DistanceMeters>NAN</DistanceMeters>
          </Trackpoint>
          <Trackpoint>
            <Time>2021-04-03T10:52:03.000Z</Time>
            <Position>
              <LatitudeDegrees>42.29685391299426555633544921875</LatitudeDegrees>
              <LongitudeDegrees>2.52242370508611202239990234375</LongitudeDegrees>
            </Position>
            <AltitudeMeters>616.79998779296875</AltitudeMeters>
            <DistanceMeters>NAN</DistanceMeters>
          </Trackpoint>
          <Trackpoint>
            <Time>2021-04-03T10:52:10.000Z</Time>
            <Position>
              <LatitudeDegrees>42.2968947328627109527587890625</LatitudeDegrees>
              <LongitudeDegrees>2.52236050553619861602783203125</LongitudeDegrees>
            </Position>
            <AltitudeMeters>617</AltitudeMeters>
            <DistanceMeters>NAN</DistanceMeters>
          </Trackpoint>
          <Trackpoint>
            <Time>2021-04-03T10:52:12.000Z</Time>
            <Position>
              <LatitudeDegrees>42.29690127074718475341796875</LatitudeDegrees>
              <LongitudeDegrees>2.52233661711215972900390625</LongitudeDegrees>
            </Position>
            <AltitudeMeters>617.20001220703125</AltitudeMeters>
            <DistanceMeters>NAN</DistanceMeters>
          </Trackpoint>
          <Trackpoint>
            <Time>2021-04-03T10:52:14.000Z</Time>
            <Position>
              <LatitudeDegrees>42.29691191576421260833740234375</LatitudeDegrees>
              <LongitudeDegrees>2.5223133154213428497314453125</LongitudeDegrees>
            </Position>
            <AltitudeMeters>617.4000244140625</AltitudeMeters>
            <DistanceMeters>NAN</DistanceMeters>
          </Trackpoint>
          <Trackpoint>
            <Time>2021-04-03T10:52:21.000Z</Time>
            <Position>
              <LatitudeDegrees>42.2969420067965984344482421875</LatitudeDegrees>
              <LongitudeDegrees>2.5222486071288585662841796875</LongitudeDegrees>
            </Position>
            <AltitudeMeters>618</AltitudeMeters>
            <DistanceMeters>NAN</DistanceMeters>
          </Trackpoint>
          <Trackpoint>
            <Time>2021-04-03T10:52:22.000Z</Time>
            <Position>
              <LatitudeDegrees>42.29694686830043792724609375</LatitudeDegrees>
              <LongitudeDegrees>2.52223796211183071136474609375</LongitudeDegrees>
            </Position>
            <AltitudeMeters>618.20001220703125</AltitudeMeters>
            <DistanceMeters>NAN</DistanceMeters>
          </Trackpoint>
          <Trackpoint>
            <Time>2021-04-03T10:52:24.000Z</Time>
            <Position>
              <LatitudeDegrees>42.2969617880880832672119140625</LatitudeDegrees>
              <LongitudeDegrees>2.5222219526767730712890625</LongitudeDegrees>
            </Position>
            <AltitudeMeters>618.4000244140625</AltitudeMeters>
            <DistanceMeters>NAN</DistanceMeters>
          </Trackpoint>
          <Trackpoint>
            <Time>2021-04-03T10:52:30.000Z</Time>
            <Position>
              <LatitudeDegrees>42.2969862632453441619873046875</LatitudeDegrees>
              <LongitudeDegrees>2.52217191271483898162841796875</LongitudeDegrees>
            </Position>
            <AltitudeMeters>619</AltitudeMeters>
            <DistanceMeters>NAN</DistanceMeters>
          </Trackpoint>
          <Trackpoint>
            <Time>2021-04-03T10:52:34.000Z</Time>
            <Position>
              <LatitudeDegrees>42.29700260795652866363525390625</LatitudeDegrees>
              <LongitudeDegrees>2.52213989384472370147705078125</LongitudeDegrees>
            </Position>
            <AltitudeMeters>619.4000244140625</AltitudeMeters>
            <DistanceMeters>NAN</DistanceMeters>
          </Trackpoint>
          <Trackpoint>
            <Time>2021-04-03T10:52:36.000Z</Time>
            <Position>
              <LatitudeDegrees>42.29700679890811443328857421875</LatitudeDegrees>
              <LongitudeDegrees>2.52212380059063434600830078125</LongitudeDegrees>
            </Position>
            <AltitudeMeters>619.5999755859375</AltitudeMeters>
            <DistanceMeters>NAN</DistanceMeters>
          </Trackpoint>
          <Trackpoint>
            <Time>2021-04-03T10:52:42.000Z</Time>
            <Position>
              <LatitudeDegrees>42.297022975981235504150390625</LatitudeDegrees>
              <LongitudeDegrees>2.5220675580203533172607421875</LongitudeDegrees>
            </Position>
            <AltitudeMeters>620</AltitudeMeters>
            <DistanceMeters>NAN</DistanceMeters>
          </Trackpoint>
          <Trackpoint>
            <Time>2021-04-03T10:52:45.000Z</Time>
            <Position>
              <LatitudeDegrees>42.29703806340694427490234375</LatitudeDegrees>
              <LongitudeDegrees>2.5220414064824581146240234375</LongitudeDegrees>
            </Position>
            <AltitudeMeters>620.5999755859375</AltitudeMeters>
            <DistanceMeters>NAN</DistanceMeters>
          </Trackpoint>
          <Trackpoint>
            <Time>2021-04-03T10:52:47.000Z</Time>
            <Position>
              <LatitudeDegrees>42.297051809728145599365234375</LatitudeDegrees>
              <LongitudeDegrees>2.52202271483838558197021484375</LongitudeDegrees>
            </Position>
            <AltitudeMeters>620.79998779296875</AltitudeMeters>
            <DistanceMeters>NAN</DistanceMeters>
          </Trackpoint>
          <Trackpoint>
            <Time>2021-04-03T10:52:54.000Z</Time>
            <Position>
              <LatitudeDegrees>42.29705792851746082305908203125</LatitudeDegrees>
              <LongitudeDegrees>2.52194501459598541259765625</LongitudeDegrees>
            </Position>
            <AltitudeMeters>621.4000244140625</AltitudeMeters>
            <DistanceMeters>NAN</DistanceMeters>
          </Trackpoint>
          <Trackpoint>
            <Time>2021-04-03T10:52:56.000Z</Time>
            <Position>
              <LatitudeDegrees>42.29706413112580776214599609375</LatitudeDegrees>
              <LongitudeDegrees>2.5219247303903102874755859375</LongitudeDegrees>
            </Position>
            <AltitudeMeters>621.5999755859375</AltitudeMeters>
            <DistanceMeters>NAN</DistanceMeters>
          </Trackpoint>
          <Trackpoint>
            <Time>2021-04-03T10:53:02.000Z</Time>
            <Position>
              <LatitudeDegrees>42.2970814816653728485107421875</LatitudeDegrees>
              <LongitudeDegrees>2.5218620337545871734619140625</LongitudeDegrees>
            </Position>
            <AltitudeMeters>622.4000244140625</AltitudeMeters>
            <DistanceMeters>NAN</DistanceMeters>
          </Trackpoint>
          <Trackpoint>
            <Time>2021-04-03T10:53:04.000Z</Time>
            <Position>
              <LatitudeDegrees>42.29709095321595668792724609375</LatitudeDegrees>
              <LongitudeDegrees>2.52184116281569004058837890625</LongitudeDegrees>
            </Position>
            <AltitudeMeters>622.5999755859375</AltitudeMeters>
            <DistanceMeters>NAN</DistanceMeters>
          </Trackpoint>
          <Trackpoint>
            <Time>2021-04-03T10:53:07.000Z</Time>
            <Position>
              <LatitudeDegrees>42.2971019335091114044189453125</LatitudeDegrees>
              <LongitudeDegrees>2.5218097306787967681884765625</LongitudeDegrees>
            </Position>
            <AltitudeMeters>623</AltitudeMeters>
            <DistanceMeters>NAN</DistanceMeters>
          </Trackpoint>
          <Trackpoint>
            <Time>2021-04-03T10:53:10.000Z</Time>
            <Position>
              <LatitudeDegrees>42.29711760766804218292236328125</LatitudeDegrees>
              <LongitudeDegrees>2.52178802154958248138427734375</LongitudeDegrees>
            </Position>
            <AltitudeMeters>623.20001220703125</AltitudeMeters>
            <DistanceMeters>NAN</DistanceMeters>
          </Trackpoint>
          <Trackpoint>
            <Time>2021-04-03T10:53:14.000Z</Time>
            <Position>
              <LatitudeDegrees>42.2971274144947528839111328125</LatitudeDegrees>
              <LongitudeDegrees>2.5217617861926555633544921875</LongitudeDegrees>
            </Position>
            <AltitudeMeters>623.4000244140625</AltitudeMeters>
            <DistanceMeters>NAN</DistanceMeters>
          </Trackpoint>
          <Trackpoint>
            <Time>2021-04-03T10:53:16.000Z</Time>
            <Position>
              <LatitudeDegrees>42.2971435077488422393798828125</LatitudeDegrees>
              <LongitudeDegrees>2.5217406637966632843017578125</LongitudeDegrees>
            </Position>
            <AltitudeMeters>623.5999755859375</AltitudeMeters>
            <DistanceMeters>NAN</DistanceMeters>
          </Trackpoint>
          <Trackpoint>
            <Time>2021-04-03T10:53:17.000Z</Time>
            <Position>
              <LatitudeDegrees>42.2971482016146183013916015625</LatitudeDegrees>
              <LongitudeDegrees>2.521730773150920867919921875</LongitudeDegrees>
            </Position>
            <AltitudeMeters>623.79998779296875</AltitudeMeters>
            <DistanceMeters>NAN</DistanceMeters>
          </Trackpoint>
          <Trackpoint>
            <Time>2021-04-03T10:53:25.000Z</Time>
            <Position>
              <LatitudeDegrees>42.2971877641975879669189453125</LatitudeDegrees>
              <LongitudeDegrees>2.52166514284908771514892578125</LongitudeDegrees>
            </Position>
            <AltitudeMeters>624.79998779296875</AltitudeMeters>
            <DistanceMeters>NAN</DistanceMeters>
          </Trackpoint>
          <Trackpoint>
            <Time>2021-04-03T10:53:29.000Z</Time>
            <Position>
              <LatitudeDegrees>42.2971984930336475372314453125</LatitudeDegrees>
              <LongitudeDegrees>2.52162273041903972625732421875</LongitudeDegrees>
            </Position>
            <AltitudeMeters>625.4000244140625</AltitudeMeters>
            <DistanceMeters>NAN</DistanceMeters>
          </Trackpoint>
          <Trackpoint>
            <Time>2021-04-03T10:53:30.000Z</Time>
            <Position>
              <LatitudeDegrees>42.29720243252813816070556640625</LatitudeDegrees>
              <LongitudeDegrees>2.521610744297504425048828125</LongitudeDegrees>
            </Position>
            <AltitudeMeters>625.4000244140625</AltitudeMeters>
            <DistanceMeters>NAN</DistanceMeters>
          </Trackpoint>
          <Trackpoint>
            <Time>2021-04-03T10:53:33.000Z</Time>
            <Position>
              <LatitudeDegrees>42.29721567593514919281005859375</LatitudeDegrees>
              <LongitudeDegrees>2.52157931216061115264892578125</LongitudeDegrees>
            </Position>
            <AltitudeMeters>625.79998779296875</AltitudeMeters>
            <DistanceMeters>NAN</DistanceMeters>
          </Trackpoint>
          <Trackpoint>
            <Time>2021-04-03T10:53:40.000Z</Time>
            <Position>
              <LatitudeDegrees>42.29722020216286182403564453125</LatitudeDegrees>
              <LongitudeDegrees>2.52150001935660839080810546875</LongitudeDegrees>
            </Position>
            <AltitudeMeters>626.79998779296875</AltitudeMeters>
            <DistanceMeters>NAN</DistanceMeters>
          </Trackpoint>
          <Trackpoint>
            <Time>2021-04-03T10:53:48.000Z</Time>
            <Position>
              <LatitudeDegrees>42.2972709126770496368408203125</LatitudeDegrees>
              <LongitudeDegrees>2.521430365741252899169921875</LongitudeDegrees>
            </Position>
            <AltitudeMeters>627.79998779296875</AltitudeMeters>
            <DistanceMeters>NAN</DistanceMeters>
          </Trackpoint>
          <Trackpoint>
            <Time>2021-04-03T10:53:53.000Z</Time>
            <Position>
              <LatitudeDegrees>42.29727233760058879852294921875</LatitudeDegrees>
              <LongitudeDegrees>2.52137370407581329345703125</LongitudeDegrees>
            </Position>
            <AltitudeMeters>628.5999755859375</AltitudeMeters>
            <DistanceMeters>NAN</DistanceMeters>
          </Trackpoint>
          <Trackpoint>
            <Time>2021-04-03T10:53:55.000Z</Time>
            <Position>
              <LatitudeDegrees>42.297273762524127960205078125</LatitudeDegrees>
              <LongitudeDegrees>2.52135937102138996124267578125</LongitudeDegrees>
            </Position>
            <AltitudeMeters>628.79998779296875</AltitudeMeters>
            <DistanceMeters>NAN</DistanceMeters>
          </Trackpoint>
          <Trackpoint>
            <Time>2021-04-03T10:54:00.000Z</Time>
            <Position>
              <LatitudeDegrees>42.2972937114536762237548828125</LatitudeDegrees>
              <LongitudeDegrees>2.52132182009518146514892578125</LongitudeDegrees>
            </Position>
            <AltitudeMeters>629.4000244140625</AltitudeMeters>
            <DistanceMeters>NAN</DistanceMeters>
          </Trackpoint>
          <Trackpoint>
            <Time>2021-04-03T10:54:01.000Z</Time>
            <Position>
              <LatitudeDegrees>42.297293208539485931396484375</LatitudeDegrees>
              <LongitudeDegrees>2.52130857668817043304443359375</LongitudeDegrees>
            </Position>
            <AltitudeMeters>629.5999755859375</AltitudeMeters>
            <DistanceMeters>NAN</DistanceMeters>
          </Trackpoint>
          <Trackpoint>
            <Time>2021-04-03T10:54:03.000Z</Time>
            <Position>
              <LatitudeDegrees>42.2972963936626911163330078125</LatitudeDegrees>
              <LongitudeDegrees>2.52129801549017429351806640625</LongitudeDegrees>
            </Position>
            <AltitudeMeters>630</AltitudeMeters>
            <DistanceMeters>NAN</DistanceMeters>
          </Trackpoint>
          <Trackpoint>
            <Time>2021-04-03T10:54:05.000Z</Time>
            <Position>
              <LatitudeDegrees>42.297297231853008270263671875</LatitudeDegrees>
              <LongitudeDegrees>2.5212858617305755615234375</LongitudeDegrees>
            </Position>
            <AltitudeMeters>630.20001220703125</AltitudeMeters>
            <DistanceMeters>NAN</DistanceMeters>
          </Trackpoint>
          <Trackpoint>
            <Time>2021-04-03T10:54:07.000Z</Time>
            <Position>
              <LatitudeDegrees>42.297295890748500823974609375</LatitudeDegrees>
              <LongitudeDegrees>2.5212672539055347442626953125</LongitudeDegrees>
            </Position>
            <AltitudeMeters>630.4000244140625</AltitudeMeters>
            <DistanceMeters>NAN</DistanceMeters>
          </Trackpoint>
          <Trackpoint>
            <Time>2021-04-03T10:54:08.000Z</Time>
            <Position>
              <LatitudeDegrees>42.2973004169762134552001953125</LatitudeDegrees>
              <LongitudeDegrees>2.5212618894875049591064453125</LongitudeDegrees>
            </Position>
            <AltitudeMeters>630.5999755859375</AltitudeMeters>
            <DistanceMeters>NAN</DistanceMeters>
          </Trackpoint>
          <Trackpoint>
            <Time>2021-04-03T10:54:12.000Z</Time>
            <Position>
              <LatitudeDegrees>42.29730066843330860137939453125</LatitudeDegrees>
              <LongitudeDegrees>2.52122894860804080963134765625</LongitudeDegrees>
            </Position>
            <AltitudeMeters>631</AltitudeMeters>
            <DistanceMeters>NAN</DistanceMeters>
          </Trackpoint>
          <Trackpoint>
            <Time>2021-04-03T10:54:13.000Z</Time>
            <Position>
              <LatitudeDegrees>42.29730033315718173980712890625</LatitudeDegrees>
              <LongitudeDegrees>2.52121746540069580078125</LongitudeDegrees>
            </Position>
            <AltitudeMeters>631.20001220703125</AltitudeMeters>
            <DistanceMeters>NAN</DistanceMeters>
          </Trackpoint>
          <Trackpoint>
            <Time>2021-04-03T10:54:16.000Z</Time>
            <Position>
              <LatitudeDegrees>42.29729798622429370880126953125</LatitudeDegrees>
              <LongitudeDegrees>2.5211867876350879669189453125</LongitudeDegrees>
            </Position>
            <AltitudeMeters>631.5999755859375</AltitudeMeters>
            <DistanceMeters>NAN</DistanceMeters>
          </Trackpoint>
          <Trackpoint>
            <Time>2021-04-03T10:54:19.000Z</Time>
            <Position>
              <LatitudeDegrees>42.2973071224987506866455078125</LatitudeDegrees>
              <LongitudeDegrees>2.52115904353559017181396484375</LongitudeDegrees>
            </Position>
            <AltitudeMeters>632.20001220703125</AltitudeMeters>
            <DistanceMeters>NAN</DistanceMeters>
          </Trackpoint>
          <Trackpoint>
            <Time>2021-04-03T10:54:21.000Z</Time>
            <Position>
              <LatitudeDegrees>42.29731977917253971099853515625</LatitudeDegrees>
              <LongitudeDegrees>2.521150410175323486328125</LongitudeDegrees>
            </Position>
            <AltitudeMeters>632.4000244140625</AltitudeMeters>
            <DistanceMeters>NAN</DistanceMeters>
          </Trackpoint>
          <Trackpoint>
            <Time>2021-04-03T10:54:25.000Z</Time>
            <Position>
              <LatitudeDegrees>42.2973329387605190277099609375</LatitudeDegrees>
              <LongitudeDegrees>2.52111646346747875213623046875</LongitudeDegrees>
            </Position>
            <AltitudeMeters>633</AltitudeMeters>
            <DistanceMeters>NAN</DistanceMeters>
          </Trackpoint>
          <Trackpoint>
            <Time>2021-04-03T10:54:26.000Z</Time>
            <Position>
              <LatitudeDegrees>42.297338806092739105224609375</LatitudeDegrees>
              <LongitudeDegrees>2.5211120210587978363037109375</LongitudeDegrees>
            </Position>
            <AltitudeMeters>633.20001220703125</AltitudeMeters>
            <DistanceMeters>NAN</DistanceMeters>
          </Trackpoint>
          <Trackpoint>
            <Time>2021-04-03T10:54:27.000Z</Time>
            <Position>
              <LatitudeDegrees>42.29734308086335659027099609375</LatitudeDegrees>
              <LongitudeDegrees>2.52110338769853115081787109375</LongitudeDegrees>
            </Position>
            <AltitudeMeters>633.4000244140625</AltitudeMeters>
            <DistanceMeters>NAN</DistanceMeters>
          </Trackpoint>
          <Trackpoint>
            <Time>2021-04-03T10:54:28.000Z</Time>
            <Position>
              <LatitudeDegrees>42.29734517633914947509765625</LatitudeDegrees>
              <LongitudeDegrees>2.5210955925285816192626953125</LongitudeDegrees>
            </Position>
            <AltitudeMeters>633.5999755859375</AltitudeMeters>
            <DistanceMeters>NAN</DistanceMeters>
          </Trackpoint>
          <Trackpoint>
            <Time>2021-04-03T10:54:33.000Z</Time>
            <Position>
              <LatitudeDegrees>42.29736772365868091583251953125</LatitudeDegrees>
              <LongitudeDegrees>2.52104437910020351409912109375</LongitudeDegrees>
            </Position>
            <AltitudeMeters>634.4000244140625</AltitudeMeters>
            <DistanceMeters>NAN</DistanceMeters>
          </Trackpoint>
          <Trackpoint>
            <Time>2021-04-03T10:54:35.000Z</Time>
            <Position>
              <LatitudeDegrees>42.2973726689815521240234375</LatitudeDegrees>
              <LongitudeDegrees>2.521021999418735504150390625</LongitudeDegrees>
            </Position>
            <AltitudeMeters>634.79998779296875</AltitudeMeters>
            <DistanceMeters>NAN</DistanceMeters>
          </Trackpoint>
          <Trackpoint>
            <Time>2021-04-03T10:54:36.000Z</Time>
            <Position>
              <LatitudeDegrees>42.297369651496410369873046875</LatitudeDegrees>
              <LongitudeDegrees>2.52101168967783451080322265625</LongitudeDegrees>
            </Position>
            <AltitudeMeters>634.79998779296875</AltitudeMeters>
            <DistanceMeters>NAN</DistanceMeters>
          </Trackpoint>
          <Trackpoint>
            <Time>2021-04-03T10:54:37.000Z</Time>
            <Position>
              <LatitudeDegrees>42.29737090878188610076904296875</LatitudeDegrees>
              <LongitudeDegrees>2.52100414596498012542724609375</LongitudeDegrees>
            </Position>
            <AltitudeMeters>635.20001220703125</AltitudeMeters>
            <DistanceMeters>NAN</DistanceMeters>
          </Trackpoint>
          <Trackpoint>
            <Time>2021-04-03T10:54:39.000Z</Time>
            <Position>
              <LatitudeDegrees>42.29739203117787837982177734375</LatitudeDegrees>
              <LongitudeDegrees>2.52099861390888690948486328125</LongitudeDegrees>
            </Position>
            <AltitudeMeters>635.5999755859375</AltitudeMeters>
            <DistanceMeters>NAN</DistanceMeters>
          </Trackpoint>
          <Trackpoint>
            <Time>2021-04-03T10:54:40.000Z</Time>
            <Position>
              <LatitudeDegrees>42.29739303700625896453857421875</LatitudeDegrees>
              <LongitudeDegrees>2.52098905853927135467529296875</LongitudeDegrees>
            </Position>
            <AltitudeMeters>635.5999755859375</AltitudeMeters>
            <DistanceMeters>NAN</DistanceMeters>
          </Trackpoint>
          <Trackpoint>
            <Time>2021-04-03T10:54:41.000Z</Time>
            <Position>
              <LatitudeDegrees>42.29739672504365444183349609375</LatitudeDegrees>
              <LongitudeDegrees>2.520984113216400146484375</LongitudeDegrees>
            </Position>
            <AltitudeMeters>635.79998779296875</AltitudeMeters>
            <DistanceMeters>NAN</DistanceMeters>
          </Trackpoint>
          <Trackpoint>
            <Time>2021-04-03T10:54:45.000Z</Time>
            <Position>
              <LatitudeDegrees>42.2973882593214511871337890625</LatitudeDegrees>
              <LongitudeDegrees>2.52094329334795475006103515625</LongitudeDegrees>
            </Position>
            <AltitudeMeters>636.20001220703125</AltitudeMeters>
            <DistanceMeters>NAN</DistanceMeters>
          </Trackpoint>
          <Trackpoint>
            <Time>2021-04-03T10:54:47.000Z</Time>
            <Position>
              <LatitudeDegrees>42.29739479720592498779296875</LatitudeDegrees>
              <LongitudeDegrees>2.5209406949579715728759765625</LongitudeDegrees>
            </Position>
            <AltitudeMeters>636.5999755859375</AltitudeMeters>
            <DistanceMeters>NAN</DistanceMeters>
          </Trackpoint>
          <Trackpoint>
            <Time>2021-04-03T10:54:48.000Z</Time>
            <Position>
              <LatitudeDegrees>42.29739856906235218048095703125</LatitudeDegrees>
              <LongitudeDegrees>2.52093222923576831817626953125</LongitudeDegrees>
            </Position>
            <AltitudeMeters>636.79998779296875</AltitudeMeters>
            <DistanceMeters>NAN</DistanceMeters>
          </Trackpoint>
          <Trackpoint>
            <Time>2021-04-03T10:54:49.000Z</Time>
            <Position>
              <LatitudeDegrees>42.29740125127136707305908203125</LatitudeDegrees>
              <LongitudeDegrees>2.52093248069286346435546875</LongitudeDegrees>
            </Position>
            <AltitudeMeters>636.79998779296875</AltitudeMeters>
            <DistanceMeters>NAN</DistanceMeters>
          </Trackpoint>
          <Trackpoint>
            <Time>2021-04-03T10:54:53.000Z</Time>
            <Position>
              <LatitudeDegrees>42.29741717688739299774169921875</LatitudeDegrees>
              <LongitudeDegrees>2.5209041498601436614990234375</LongitudeDegrees>
            </Position>
            <AltitudeMeters>637.4000244140625</AltitudeMeters>
            <DistanceMeters>NAN</DistanceMeters>
          </Trackpoint>
          <Trackpoint>
            <Time>2021-04-03T10:54:55.000Z</Time>
            <Position>
              <LatitudeDegrees>42.2974294982850551605224609375</LatitudeDegrees>
              <LongitudeDegrees>2.5208924151957035064697265625</LongitudeDegrees>
            </Position>
            <AltitudeMeters>637.79998779296875</AltitudeMeters>
            <DistanceMeters>NAN</DistanceMeters>
          </Trackpoint>
          <Trackpoint>
            <Time>2021-04-03T10:54:56.000Z</Time>
            <Position>
              <LatitudeDegrees>42.297434695065021514892578125</LatitudeDegrees>
              <LongitudeDegrees>2.52088361419737339019775390625</LongitudeDegrees>
            </Position>
            <AltitudeMeters>637.79998779296875</AltitudeMeters>
            <DistanceMeters>NAN</DistanceMeters>
          </Trackpoint>
          <Trackpoint>
            <Time>2021-04-03T10:55:03.000Z</Time>
            <Position>
              <LatitudeDegrees>42.29747048579156398773193359375</LatitudeDegrees>
              <LongitudeDegrees>2.52084405161440372467041015625</LongitudeDegrees>
            </Position>
            <AltitudeMeters>638.4000244140625</AltitudeMeters>
            <DistanceMeters>NAN</DistanceMeters>
          </Trackpoint>
          <Trackpoint>
            <Time>2021-04-03T10:55:05.000Z</Time>
            <Position>
              <LatitudeDegrees>42.29746730066835880279541015625</LatitudeDegrees>
              <LongitudeDegrees>2.52081253565847873687744140625</LongitudeDegrees>
            </Position>
            <AltitudeMeters>638.4000244140625</AltitudeMeters>
            <DistanceMeters>NAN</DistanceMeters>
          </Trackpoint>
          <Trackpoint>
            <Time>2021-04-03T10:55:07.000Z</Time>
            <Position>
              <LatitudeDegrees>42.2974670492112636566162109375</LatitudeDegrees>
              <LongitudeDegrees>2.52078361809253692626953125</LongitudeDegrees>
            </Position>
            <AltitudeMeters>638.79998779296875</AltitudeMeters>
            <DistanceMeters>NAN</DistanceMeters>
          </Trackpoint>
          <Trackpoint>
            <Time>2021-04-03T10:55:13.000Z</Time>
            <Position>
              <LatitudeDegrees>42.297513820230960845947265625</LatitudeDegrees>
              <LongitudeDegrees>2.5207385234534740447998046875</LongitudeDegrees>
            </Position>
            <AltitudeMeters>639.5999755859375</AltitudeMeters>
            <DistanceMeters>NAN</DistanceMeters>
          </Trackpoint>
          <Trackpoint>
            <Time>2021-04-03T10:55:15.000Z</Time>
            <Position>
              <LatitudeDegrees>42.2975304163992404937744140625</LatitudeDegrees>
              <LongitudeDegrees>2.520725615322589874267578125</LongitudeDegrees>
            </Position>
            <AltitudeMeters>639.5999755859375</AltitudeMeters>
            <DistanceMeters>NAN</DistanceMeters>
          </Trackpoint>
          <Trackpoint>
            <Time>2021-04-03T10:55:18.000Z</Time>
            <Position>
              <LatitudeDegrees>42.29755279608070850372314453125</LatitudeDegrees>
              <LongitudeDegrees>2.5207170657813549041748046875</LongitudeDegrees>
            </Position>
            <AltitudeMeters>639.79998779296875</AltitudeMeters>
            <DistanceMeters>NAN</DistanceMeters>
          </Trackpoint>
          <Trackpoint>
            <Time>2021-04-03T10:55:19.000Z</Time>
            <Position>
              <LatitudeDegrees>42.29755916632711887359619140625</LatitudeDegrees>
              <LongitudeDegrees>2.52071547321975231170654296875</LongitudeDegrees>
            </Position>
            <AltitudeMeters>640</AltitudeMeters>
            <DistanceMeters>NAN</DistanceMeters>
          </Trackpoint>
          <Trackpoint>
            <Time>2021-04-03T10:55:20.000Z</Time>
            <Position>
              <LatitudeDegrees>42.29756486602127552032470703125</LatitudeDegrees>
              <LongitudeDegrees>2.520708851516246795654296875</LongitudeDegrees>
            </Position>
            <AltitudeMeters>640</AltitudeMeters>
            <DistanceMeters>NAN</DistanceMeters>
          </Trackpoint>
          <Trackpoint>
            <Time>2021-04-03T10:55:26.000Z</Time>
            <Position>
              <LatitudeDegrees>42.29763410054147243499755859375</LatitudeDegrees>
              <LongitudeDegrees>2.52068060450255870819091796875</LongitudeDegrees>
            </Position>
            <AltitudeMeters>640.79998779296875</AltitudeMeters>
            <DistanceMeters>NAN</DistanceMeters>
          </Trackpoint>
          <Trackpoint>
            <Time>2021-04-03T10:55:28.000Z</Time>
            <Position>
              <LatitudeDegrees>42.29763745330274105072021484375</LatitudeDegrees>
              <LongitudeDegrees>2.52067440189421176910400390625</LongitudeDegrees>
            </Position>
            <AltitudeMeters>641</AltitudeMeters>
            <DistanceMeters>NAN</DistanceMeters>
          </Trackpoint>
          <Trackpoint>
            <Time>2021-04-03T10:55:32.000Z</Time>
            <Position>
              <LatitudeDegrees>42.297662682831287384033203125</LatitudeDegrees>
              <LongitudeDegrees>2.5206443108618259429931640625</LongitudeDegrees>
            </Position>
            <AltitudeMeters>641.5999755859375</AltitudeMeters>
            <DistanceMeters>NAN</DistanceMeters>
          </Trackpoint>
          <Trackpoint>
            <Time>2021-04-03T10:55:36.000Z</Time>
            <Position>
              <LatitudeDegrees>42.29768355377018451690673828125</LatitudeDegrees>
              <LongitudeDegrees>2.52063609659671783447265625</LongitudeDegrees>
            </Position>
            <AltitudeMeters>642</AltitudeMeters>
            <DistanceMeters>NAN</DistanceMeters>
          </Trackpoint>
          <Trackpoint>
            <Time>2021-04-03T10:55:39.000Z</Time>
            <Position>
              <LatitudeDegrees>42.29770652018487453460693359375</LatitudeDegrees>
              <LongitudeDegrees>2.5206144712865352630615234375</LongitudeDegrees>
            </Position>
            <AltitudeMeters>642.5999755859375</AltitudeMeters>
            <DistanceMeters>NAN</DistanceMeters>
          </Trackpoint>
          <Trackpoint>
            <Time>2021-04-03T10:55:44.000Z</Time>
            <Position>
              <LatitudeDegrees>42.2977470047771930694580078125</LatitudeDegrees>
              <LongitudeDegrees>2.52058756537735462188720703125</LongitudeDegrees>
            </Position>
            <AltitudeMeters>643</AltitudeMeters>
            <DistanceMeters>NAN</DistanceMeters>
          </Trackpoint>
          <Trackpoint>
            <Time>2021-04-03T10:55:46.000Z</Time>
            <Position>
              <LatitudeDegrees>42.29775764979422092437744140625</LatitudeDegrees>
              <LongitudeDegrees>2.5205671973526477813720703125</LongitudeDegrees>
            </Position>
            <AltitudeMeters>643.20001220703125</AltitudeMeters>
            <DistanceMeters>NAN</DistanceMeters>
          </Trackpoint>
          <Trackpoint>
            <Time>2021-04-03T10:55:53.000Z</Time>
            <Position>
              <LatitudeDegrees>42.29779939167201519012451171875</LatitudeDegrees>
              <LongitudeDegrees>2.52054850570857524871826171875</LongitudeDegrees>
            </Position>
            <AltitudeMeters>643.79998779296875</AltitudeMeters>
            <DistanceMeters>NAN</DistanceMeters>
          </Trackpoint>
          <Trackpoint>
            <Time>2021-04-03T10:55:59.000Z</Time>
            <Position>
              <LatitudeDegrees>42.297815568745136260986328125</LatitudeDegrees>
              <LongitudeDegrees>2.520471476018428802490234375</LongitudeDegrees>
            </Position>
            <AltitudeMeters>644</AltitudeMeters>
            <DistanceMeters>NAN</DistanceMeters>
          </Trackpoint>
          <Trackpoint>
            <Time>2021-04-03T10:56:04.000Z</Time>
            <Position>
              <LatitudeDegrees>42.297829650342464447021484375</LatitudeDegrees>
              <LongitudeDegrees>2.52040584571659564971923828125</LongitudeDegrees>
            </Position>
            <AltitudeMeters>644.20001220703125</AltitudeMeters>
            <DistanceMeters>NAN</DistanceMeters>
          </Trackpoint>
          <Trackpoint>
            <Time>2021-04-03T10:56:05.000Z</Time>
            <Position>
              <LatitudeDegrees>42.2978254593908786773681640625</LatitudeDegrees>
              <LongitudeDegrees>2.520391680300235748291015625</LongitudeDegrees>
            </Position>
            <AltitudeMeters>644.20001220703125</AltitudeMeters>
            <DistanceMeters>NAN</DistanceMeters>
          </Trackpoint>
          <Trackpoint>
            <Time>2021-04-03T10:56:14.000Z</Time>
            <Position>
              <LatitudeDegrees>42.297845743596553802490234375</LatitudeDegrees>
              <LongitudeDegrees>2.5202949531376361846923828125</LongitudeDegrees>
            </Position>
            <AltitudeMeters>644.20001220703125</AltitudeMeters>
            <DistanceMeters>NAN</DistanceMeters>
          </Trackpoint>
          <Trackpoint>
            <Time>2021-04-03T10:56:16.000Z</Time>
            <Position>
              <LatitudeDegrees>42.29785571806132793426513671875</LatitudeDegrees>
              <LongitudeDegrees>2.52028279937803745269775390625</LongitudeDegrees>
            </Position>
            <AltitudeMeters>644.20001220703125</AltitudeMeters>
            <DistanceMeters>NAN</DistanceMeters>
          </Trackpoint>
          <Trackpoint>
            <Time>2021-04-03T10:56:17.000Z</Time>
            <Position>
              <LatitudeDegrees>42.2978609986603260040283203125</LatitudeDegrees>
              <LongitudeDegrees>2.52027123235166072845458984375</LongitudeDegrees>
            </Position>
            <AltitudeMeters>644.20001220703125</AltitudeMeters>
            <DistanceMeters>NAN</DistanceMeters>
          </Trackpoint>
          <Trackpoint>
            <Time>2021-04-03T10:56:19.000Z</Time>
            <Position>
              <LatitudeDegrees>42.29786409996449947357177734375</LatitudeDegrees>
              <LongitudeDegrees>2.52023267559707164764404296875</LongitudeDegrees>
            </Position>
            <AltitudeMeters>644.4000244140625</AltitudeMeters>
            <DistanceMeters>NAN</DistanceMeters>
          </Trackpoint>
          <Trackpoint>
            <Time>2021-04-03T10:56:23.000Z</Time>
            <Position>
              <LatitudeDegrees>42.29785722680389881134033203125</LatitudeDegrees>
              <LongitudeDegrees>2.52016603946685791015625</LongitudeDegrees>
            </Position>
            <AltitudeMeters>644.5999755859375</AltitudeMeters>
            <DistanceMeters>NAN</DistanceMeters>
          </Trackpoint>
          <Trackpoint>
            <Time>2021-04-03T10:56:26.000Z</Time>
            <Position>
              <LatitudeDegrees>42.2978635132312774658203125</LatitudeDegrees>
              <LongitudeDegrees>2.52013720571994781494140625</LongitudeDegrees>
            </Position>
            <AltitudeMeters>644.5999755859375</AltitudeMeters>
            <DistanceMeters>NAN</DistanceMeters>
          </Trackpoint>
          <Trackpoint>
            <Time>2021-04-03T10:56:28.000Z</Time>
            <Position>
              <LatitudeDegrees>42.29786376468837261199951171875</LatitudeDegrees>
              <LongitudeDegrees>2.5201085396111011505126953125</LongitudeDegrees>
            </Position>
            <AltitudeMeters>644.5999755859375</AltitudeMeters>
            <DistanceMeters>NAN</DistanceMeters>
          </Trackpoint>
          <Trackpoint>
            <Time>2021-04-03T10:56:32.000Z</Time>
            <Position>
              <LatitudeDegrees>42.29788086377084255218505859375</LatitudeDegrees>
              <LongitudeDegrees>2.5200535543262958526611328125</LongitudeDegrees>
            </Position>
            <AltitudeMeters>644.79998779296875</AltitudeMeters>
            <DistanceMeters>NAN</DistanceMeters>
          </Trackpoint>
          <Trackpoint>
            <Time>2021-04-03T10:56:36.000Z</Time>
            <Position>
              <LatitudeDegrees>42.29789502918720245361328125</LatitudeDegrees>
              <LongitudeDegrees>2.52000737003982067108154296875</LongitudeDegrees>
            </Position>
            <AltitudeMeters>645</AltitudeMeters>
            <DistanceMeters>NAN</DistanceMeters>
          </Trackpoint>
          <Trackpoint>
            <Time>2021-04-03T10:56:39.000Z</Time>
            <Position>
              <LatitudeDegrees>42.2978824563324451446533203125</LatitudeDegrees>
              <LongitudeDegrees>2.51996688544750213623046875</LongitudeDegrees>
            </Position>
            <AltitudeMeters>645.20001220703125</AltitudeMeters>
            <DistanceMeters>NAN</DistanceMeters>
          </Trackpoint>
          <Trackpoint>
            <Time>2021-04-03T10:56:40.000Z</Time>
            <Position>
              <LatitudeDegrees>42.2978824563324451446533203125</LatitudeDegrees>
              <LongitudeDegrees>2.51995640806853771209716796875</LongitudeDegrees>
            </Position>
            <AltitudeMeters>645.20001220703125</AltitudeMeters>
            <DistanceMeters>NAN</DistanceMeters>
          </Trackpoint>
          <Trackpoint>
            <Time>2021-04-03T10:56:47.000Z</Time>
            <Position>
              <LatitudeDegrees>42.29791724123060703277587890625</LatitudeDegrees>
              <LongitudeDegrees>2.51988264732062816619873046875</LongitudeDegrees>
            </Position>
            <AltitudeMeters>645.79998779296875</AltitudeMeters>
            <DistanceMeters>NAN</DistanceMeters>
          </Trackpoint>
          <Trackpoint>
            <Time>2021-04-03T10:56:49.000Z</Time>
            <Position>
              <LatitudeDegrees>42.2979136370122432708740234375</LatitudeDegrees>
              <LongitudeDegrees>2.519865296781063079833984375</LongitudeDegrees>
            </Position>
            <AltitudeMeters>646.20001220703125</AltitudeMeters>
            <DistanceMeters>NAN</DistanceMeters>
          </Trackpoint>
          <Trackpoint>
            <Time>2021-04-03T10:56:51.000Z</Time>
            <Position>
              <LatitudeDegrees>42.29790709912776947021484375</LatitudeDegrees>
              <LongitudeDegrees>2.51984216272830963134765625</LongitudeDegrees>
            </Position>
            <AltitudeMeters>646.4000244140625</AltitudeMeters>
            <DistanceMeters>NAN</DistanceMeters>
          </Trackpoint>
          <Trackpoint>
            <Time>2021-04-03T10:56:57.000Z</Time>
            <Position>
              <LatitudeDegrees>42.2979327477514743804931640625</LatitudeDegrees>
              <LongitudeDegrees>2.5197672285139560699462890625</LongitudeDegrees>
            </Position>
            <AltitudeMeters>647</AltitudeMeters>
            <DistanceMeters>NAN</DistanceMeters>
          </Trackpoint>
          <Trackpoint>
            <Time>2021-04-03T10:56:59.000Z</Time>
            <Position>
              <LatitudeDegrees>42.297942638397216796875</LatitudeDegrees>
              <LongitudeDegrees>2.51975239254534244537353515625</LongitudeDegrees>
            </Position>
            <AltitudeMeters>647.20001220703125</AltitudeMeters>
            <DistanceMeters>NAN</DistanceMeters>
          </Trackpoint>
          <Trackpoint>
            <Time>2021-04-03T10:57:02.000Z</Time>
            <Position>
              <LatitudeDegrees>42.29795412160456180572509765625</LatitudeDegrees>
              <LongitudeDegrees>2.51973814330995082855224609375</LongitudeDegrees>
            </Position>
            <AltitudeMeters>647.5999755859375</AltitudeMeters>
            <DistanceMeters>NAN</DistanceMeters>
          </Trackpoint>
          <Trackpoint>
            <Time>2021-04-03T10:57:08.000Z</Time>
            <Position>
              <LatitudeDegrees>42.29799502529203891754150390625</LatitudeDegrees>
              <LongitudeDegrees>2.519668154418468475341796875</LongitudeDegrees>
            </Position>
            <AltitudeMeters>648.20001220703125</AltitudeMeters>
            <DistanceMeters>NAN</DistanceMeters>
          </Trackpoint>
          <Trackpoint>
            <Time>2021-04-03T10:57:11.000Z</Time>
            <Position>
              <LatitudeDegrees>42.29800810106098651885986328125</LatitudeDegrees>
              <LongitudeDegrees>2.5196443498134613037109375</LongitudeDegrees>
            </Position>
            <AltitudeMeters>648.4000244140625</AltitudeMeters>
            <DistanceMeters>NAN</DistanceMeters>
          </Trackpoint>
          <Trackpoint>
            <Time>2021-04-03T10:57:14.000Z</Time>
            <Position>
              <LatitudeDegrees>42.2980217635631561279296875</LatitudeDegrees>
              <LongitudeDegrees>2.51960822381079196929931640625</LongitudeDegrees>
            </Position>
            <AltitudeMeters>648.5999755859375</AltitudeMeters>
            <DistanceMeters>NAN</DistanceMeters>
          </Trackpoint>
          <Trackpoint>
            <Time>2021-04-03T10:57:23.000Z</Time>
            <Position>
              <LatitudeDegrees>42.2980893217027187347412109375</LatitudeDegrees>
              <LongitudeDegrees>2.51952440477907657623291015625</LongitudeDegrees>
            </Position>
            <AltitudeMeters>649.20001220703125</AltitudeMeters>
            <DistanceMeters>NAN</DistanceMeters>
          </Trackpoint>
          <Trackpoint>
            <Time>2021-04-03T10:57:24.000Z</Time>
            <Position>
              <LatitudeDegrees>42.2980883158743381500244140625</LatitudeDegrees>
              <LongitudeDegrees>2.519514262676239013671875</LongitudeDegrees>
            </Position>
            <AltitudeMeters>649.4000244140625</AltitudeMeters>
            <DistanceMeters>NAN</DistanceMeters>
          </Trackpoint>
          <Trackpoint>
            <Time>2021-04-03T10:57:29.000Z</Time>
            <Position>
              <LatitudeDegrees>42.29810717515647411346435546875</LatitudeDegrees>
              <LongitudeDegrees>2.5194597803056240081787109375</LongitudeDegrees>
            </Position>
            <AltitudeMeters>649.79998779296875</AltitudeMeters>
            <DistanceMeters>NAN</DistanceMeters>
          </Trackpoint>
          <Trackpoint>
            <Time>2021-04-03T10:57:34.000Z</Time>
            <Position>
              <LatitudeDegrees>42.298085801303386688232421875</LatitudeDegrees>
              <LongitudeDegrees>2.51939423382282257080078125</LongitudeDegrees>
            </Position>
            <AltitudeMeters>650.20001220703125</AltitudeMeters>
            <DistanceMeters>NAN</DistanceMeters>
          </Trackpoint>
          <Trackpoint>
            <Time>2021-04-03T10:57:36.000Z</Time>
            <Position>
              <LatitudeDegrees>42.2980909980833530426025390625</LatitudeDegrees>
              <LongitudeDegrees>2.51937017776072025299072265625</LongitudeDegrees>
            </Position>
            <AltitudeMeters>650.4000244140625</AltitudeMeters>
            <DistanceMeters>NAN</DistanceMeters>
          </Trackpoint>
          <Trackpoint>
            <Time>2021-04-03T10:57:39.000Z</Time>
            <Position>
              <LatitudeDegrees>42.2981194965541362762451171875</LatitudeDegrees>
              <LongitudeDegrees>2.51933530904352664947509765625</LongitudeDegrees>
            </Position>
            <AltitudeMeters>650.5999755859375</AltitudeMeters>
            <DistanceMeters>NAN</DistanceMeters>
          </Trackpoint>
          <Trackpoint>
            <Time>2021-04-03T10:57:40.000Z</Time>
            <Position>
              <LatitudeDegrees>42.29812729172408580780029296875</LatitudeDegrees>
              <LongitudeDegrees>2.51932474784553050994873046875</LongitudeDegrees>
            </Position>
            <AltitudeMeters>650.5999755859375</AltitudeMeters>
            <DistanceMeters>NAN</DistanceMeters>
          </Trackpoint>
          <Trackpoint>
            <Time>2021-04-03T10:57:42.000Z</Time>
            <Position>
              <LatitudeDegrees>42.2981382720172405242919921875</LatitudeDegrees>
              <LongitudeDegrees>2.51929574646055698394775390625</LongitudeDegrees>
            </Position>
            <AltitudeMeters>650.79998779296875</AltitudeMeters>
            <DistanceMeters>NAN</DistanceMeters>
          </Trackpoint>
          <Trackpoint>
            <Time>2021-04-03T10:57:46.000Z</Time>
            <Position>
              <LatitudeDegrees>42.29815520346164703369140625</LatitudeDegrees>
              <LongitudeDegrees>2.5192415155470371246337890625</LongitudeDegrees>
            </Position>
            <AltitudeMeters>651.20001220703125</AltitudeMeters>
            <DistanceMeters>NAN</DistanceMeters>
          </Trackpoint>
          <Trackpoint>
            <Time>2021-04-03T10:57:47.000Z</Time>
            <Position>
              <LatitudeDegrees>42.29815847240388393402099609375</LatitudeDegrees>
              <LongitudeDegrees>2.5192321278154850006103515625</LongitudeDegrees>
            </Position>
            <AltitudeMeters>651.20001220703125</AltitudeMeters>
            <DistanceMeters>NAN</DistanceMeters>
          </Trackpoint>
          <Trackpoint>
            <Time>2021-04-03T10:57:48.000Z</Time>
            <Position>
              <LatitudeDegrees>42.298166938126087188720703125</LatitudeDegrees>
              <LongitudeDegrees>2.5192237459123134613037109375</LongitudeDegrees>
            </Position>
            <AltitudeMeters>651.4000244140625</AltitudeMeters>
            <DistanceMeters>NAN</DistanceMeters>
          </Trackpoint>
          <Trackpoint>
            <Time>2021-04-03T10:57:50.000Z</Time>
            <Position>
              <LatitudeDegrees>42.29819870553910732269287109375</LatitudeDegrees>
              <LongitudeDegrees>2.51921117305755615234375</LongitudeDegrees>
            </Position>
            <AltitudeMeters>651.4000244140625</AltitudeMeters>
            <DistanceMeters>NAN</DistanceMeters>
          </Trackpoint>
          <Trackpoint>
            <Time>2021-04-03T10:57:55.000Z</Time>
            <Position>
              <LatitudeDegrees>42.29822737164795398712158203125</LatitudeDegrees>
              <LongitudeDegrees>2.51915124244987964630126953125</LongitudeDegrees>
            </Position>
            <AltitudeMeters>651.5999755859375</AltitudeMeters>
            <DistanceMeters>NAN</DistanceMeters>
          </Trackpoint>
          <Trackpoint>
            <Time>2021-04-03T10:58:02.000Z</Time>
            <Position>
              <LatitudeDegrees>42.2982583008706569671630859375</LatitudeDegrees>
              <LongitudeDegrees>2.51906490884721279144287109375</LongitudeDegrees>
            </Position>
            <AltitudeMeters>652</AltitudeMeters>
            <DistanceMeters>NAN</DistanceMeters>
          </Trackpoint>
          <Trackpoint>
            <Time>2021-04-03T10:58:07.000Z</Time>
            <Position>
              <LatitudeDegrees>42.29825871996581554412841796875</LatitudeDegrees>
              <LongitudeDegrees>2.51898243092000484466552734375</LongitudeDegrees>
            </Position>
            <AltitudeMeters>652.20001220703125</AltitudeMeters>
            <DistanceMeters>NAN</DistanceMeters>
          </Trackpoint>
          <Trackpoint>
            <Time>2021-04-03T10:58:10.000Z</Time>
            <Position>
              <LatitudeDegrees>42.2982479073107242584228515625</LatitudeDegrees>
              <LongitudeDegrees>2.518942616879940032958984375</LongitudeDegrees>
            </Position>
            <AltitudeMeters>652.5999755859375</AltitudeMeters>
            <DistanceMeters>NAN</DistanceMeters>
          </Trackpoint>
          <Trackpoint>
            <Time>2021-04-03T10:58:14.000Z</Time>
            <Position>
              <LatitudeDegrees>42.29826006107032299041748046875</LatitudeDegrees>
              <LongitudeDegrees>2.51888486556708812713623046875</LongitudeDegrees>
            </Position>
            <AltitudeMeters>652.5999755859375</AltitudeMeters>
            <DistanceMeters>NAN</DistanceMeters>
          </Trackpoint>
          <Trackpoint>
            <Time>2021-04-03T10:58:21.000Z</Time>
            <Position>
              <LatitudeDegrees>42.29832560755312442779541015625</LatitudeDegrees>
              <LongitudeDegrees>2.51880892552435398101806640625</LongitudeDegrees>
            </Position>
            <AltitudeMeters>652.20001220703125</AltitudeMeters>
            <DistanceMeters>NAN</DistanceMeters>
          </Trackpoint>
          <Trackpoint>
            <Time>2021-04-03T10:58:23.000Z</Time>
            <Position>
              <LatitudeDegrees>42.2983277030289173126220703125</LatitudeDegrees>
              <LongitudeDegrees>2.51878009177744388580322265625</LongitudeDegrees>
            </Position>
            <AltitudeMeters>652.4000244140625</AltitudeMeters>
            <DistanceMeters>NAN</DistanceMeters>
          </Trackpoint>
          <Trackpoint>
            <Time>2021-04-03T10:58:29.000Z</Time>
            <Position>
              <LatitudeDegrees>42.29835108853876590728759765625</LatitudeDegrees>
              <LongitudeDegrees>2.5186956860125064849853515625</LongitudeDegrees>
            </Position>
            <AltitudeMeters>652.5999755859375</AltitudeMeters>
            <DistanceMeters>NAN</DistanceMeters>
          </Trackpoint>
          <Trackpoint>
            <Time>2021-04-03T10:58:30.000Z</Time>
            <Position>
              <LatitudeDegrees>42.2983545251190662384033203125</LatitudeDegrees>
              <LongitudeDegrees>2.51867598854005336761474609375</LongitudeDegrees>
            </Position>
            <AltitudeMeters>652.79998779296875</AltitudeMeters>
            <DistanceMeters>NAN</DistanceMeters>
          </Trackpoint>
          <Trackpoint>
            <Time>2021-04-03T10:58:32.000Z</Time>
            <Position>
              <LatitudeDegrees>42.29837112128734588623046875</LatitudeDegrees>
              <LongitudeDegrees>2.518649585545063018798828125</LongitudeDegrees>
            </Position>
            <AltitudeMeters>652.79998779296875</AltitudeMeters>
            <DistanceMeters>NAN</DistanceMeters>
          </Trackpoint>
          <Trackpoint>
            <Time>2021-04-03T10:58:36.000Z</Time>
            <Position>
              <LatitudeDegrees>42.29839819483458995819091796875</LatitudeDegrees>
              <LongitudeDegrees>2.5185877270996570587158203125</LongitudeDegrees>
            </Position>
            <AltitudeMeters>652.79998779296875</AltitudeMeters>
            <DistanceMeters>NAN</DistanceMeters>
          </Trackpoint>
          <Trackpoint>
            <Time>2021-04-03T10:58:37.000Z</Time>
            <Position>
              <LatitudeDegrees>42.298405654728412628173828125</LatitudeDegrees>
              <LongitudeDegrees>2.5185712985694408416748046875</LongitudeDegrees>
            </Position>
            <AltitudeMeters>652.79998779296875</AltitudeMeters>
            <DistanceMeters>NAN</DistanceMeters>
          </Trackpoint>
          <Trackpoint>
            <Time>2021-04-03T10:58:40.000Z</Time>
            <Position>
              <LatitudeDegrees>42.298417054116725921630859375</LatitudeDegrees>
              <LongitudeDegrees>2.51853726804256439208984375</LongitudeDegrees>
            </Position>
            <AltitudeMeters>653</AltitudeMeters>
            <DistanceMeters>NAN</DistanceMeters>
          </Trackpoint>
          <Trackpoint>
            <Time>2021-04-03T10:58:43.000Z</Time>
            <Position>
              <LatitudeDegrees>42.29843289591372013092041015625</LatitudeDegrees>
              <LongitudeDegrees>2.5184908322989940643310546875</LongitudeDegrees>
            </Position>
            <AltitudeMeters>653.20001220703125</AltitudeMeters>
            <DistanceMeters>NAN</DistanceMeters>
          </Trackpoint>
          <Trackpoint>
            <Time>2021-04-03T10:58:45.000Z</Time>
            <Position>
              <LatitudeDegrees>42.29845284484326839447021484375</LatitudeDegrees>
              <LongitudeDegrees>2.51846409402787685394287109375</LongitudeDegrees>
            </Position>
            <AltitudeMeters>653.20001220703125</AltitudeMeters>
            <DistanceMeters>NAN</DistanceMeters>
          </Trackpoint>
          <Trackpoint>
            <Time>2021-04-03T10:58:51.000Z</Time>
            <Position>
              <LatitudeDegrees>42.29850145988166332244873046875</LatitudeDegrees>
              <LongitudeDegrees>2.518399469554424285888671875</LongitudeDegrees>
            </Position>
            <AltitudeMeters>653.5999755859375</AltitudeMeters>
            <DistanceMeters>NAN</DistanceMeters>
          </Trackpoint>
          <Trackpoint>
            <Time>2021-04-03T10:58:56.000Z</Time>
            <Position>
              <LatitudeDegrees>42.2985191456973552703857421875</LatitudeDegrees>
              <LongitudeDegrees>2.51833752728998661041259765625</LongitudeDegrees>
            </Position>
            <AltitudeMeters>654</AltitudeMeters>
            <DistanceMeters>NAN</DistanceMeters>
          </Trackpoint>
          <Trackpoint>
            <Time>2021-04-03T10:58:57.000Z</Time>
            <Position>
              <LatitudeDegrees>42.2985312156379222869873046875</LatitudeDegrees>
              <LongitudeDegrees>2.51833098940551280975341796875</LongitudeDegrees>
            </Position>
            <AltitudeMeters>654</AltitudeMeters>
            <DistanceMeters>NAN</DistanceMeters>
          </Trackpoint>
          <Trackpoint>
            <Time>2021-04-03T10:58:59.000Z</Time>
            <Position>
              <LatitudeDegrees>42.2985479794442653656005859375</LatitudeDegrees>
              <LongitudeDegrees>2.518314979970455169677734375</LongitudeDegrees>
            </Position>
            <AltitudeMeters>654.20001220703125</AltitudeMeters>
            <DistanceMeters>NAN</DistanceMeters>
          </Trackpoint>
          <Trackpoint>
            <Time>2021-04-03T10:59:03.000Z</Time>
            <Position>
              <LatitudeDegrees>42.29857119731605052947998046875</LatitudeDegrees>
              <LongitudeDegrees>2.5182809494435787200927734375</LongitudeDegrees>
            </Position>
            <AltitudeMeters>654.5999755859375</AltitudeMeters>
            <DistanceMeters>NAN</DistanceMeters>
          </Trackpoint>
          <Trackpoint>
            <Time>2021-04-03T10:59:04.000Z</Time>
            <Position>
              <LatitudeDegrees>42.29857496917247772216796875</LatitudeDegrees>
              <LongitudeDegrees>2.51827566884458065032958984375</LongitudeDegrees>
            </Position>
            <AltitudeMeters>654.79998779296875</AltitudeMeters>
            <DistanceMeters>NAN</DistanceMeters>
          </Trackpoint>
          <Trackpoint>
            <Time>2021-04-03T10:59:06.000Z</Time>
            <Position>
              <LatitudeDegrees>42.29858175851404666900634765625</LatitudeDegrees>
              <LongitudeDegrees>2.51825471408665180206298828125</LongitudeDegrees>
            </Position>
            <AltitudeMeters>655.20001220703125</AltitudeMeters>
            <DistanceMeters>NAN</DistanceMeters>
          </Trackpoint>
          <Trackpoint>
            <Time>2021-04-03T10:59:09.000Z</Time>
            <Position>
              <LatitudeDegrees>42.2985865361988544464111328125</LatitudeDegrees>
              <LongitudeDegrees>2.51822051592171192169189453125</LongitudeDegrees>
            </Position>
            <AltitudeMeters>655.5999755859375</AltitudeMeters>
            <DistanceMeters>NAN</DistanceMeters>
          </Trackpoint>
          <Trackpoint>
            <Time>2021-04-03T10:59:10.000Z</Time>
            <Position>
              <LatitudeDegrees>42.2985935769975185394287109375</LatitudeDegrees>
              <LongitudeDegrees>2.51821414567530155181884765625</LongitudeDegrees>
            </Position>
            <AltitudeMeters>655.79998779296875</AltitudeMeters>
            <DistanceMeters>NAN</DistanceMeters>
          </Trackpoint>
          <Trackpoint>
            <Time>2021-04-03T10:59:13.000Z</Time>
            <Position>
              <LatitudeDegrees>42.29861562140285968780517578125</LatitudeDegrees>
              <LongitudeDegrees>2.5181964598596096038818359375</LongitudeDegrees>
            </Position>
            <AltitudeMeters>656.20001220703125</AltitudeMeters>
            <DistanceMeters>NAN</DistanceMeters>
          </Trackpoint>
          <Trackpoint>
            <Time>2021-04-03T10:59:14.000Z</Time>
            <Position>
              <LatitudeDegrees>42.2986187227070331573486328125</LatitudeDegrees>
              <LongitudeDegrees>2.51818899996578693389892578125</LongitudeDegrees>
            </Position>
            <AltitudeMeters>656.20001220703125</AltitudeMeters>
            <DistanceMeters>NAN</DistanceMeters>
          </Trackpoint>
          <Trackpoint>
            <Time>2021-04-03T10:59:15.000Z</Time>
            <Position>
              <LatitudeDegrees>42.29862668551504611968994140625</LatitudeDegrees>
              <LongitudeDegrees>2.51818615011870861053466796875</LongitudeDegrees>
            </Position>
            <AltitudeMeters>656.4000244140625</AltitudeMeters>
            <DistanceMeters>NAN</DistanceMeters>
          </Trackpoint>
          <Trackpoint>
            <Time>2021-04-03T10:59:18.000Z</Time>
            <Position>
              <LatitudeDegrees>42.298647724092006683349609375</LatitudeDegrees>
              <LongitudeDegrees>2.518169470131397247314453125</LongitudeDegrees>
            </Position>
            <AltitudeMeters>657</AltitudeMeters>
            <DistanceMeters>NAN</DistanceMeters>
          </Trackpoint>
          <Trackpoint>
            <Time>2021-04-03T10:59:19.000Z</Time>
            <Position>
              <LatitudeDegrees>42.29864931665360927581787109375</LatitudeDegrees>
              <LongitudeDegrees>2.518161423504352569580078125</LongitudeDegrees>
            </Position>
            <AltitudeMeters>657.20001220703125</AltitudeMeters>
            <DistanceMeters>NAN</DistanceMeters>
          </Trackpoint>
          <Trackpoint>
            <Time>2021-04-03T10:59:20.000Z</Time>
            <Position>
              <LatitudeDegrees>42.2986505739390850067138671875</LatitudeDegrees>
              <LongitudeDegrees>2.518152035772800445556640625</LongitudeDegrees>
            </Position>
            <AltitudeMeters>657.4000244140625</AltitudeMeters>
            <DistanceMeters>NAN</DistanceMeters>
          </Trackpoint>
          <Trackpoint>
            <Time>2021-04-03T10:59:21.000Z</Time>
            <Position>
              <LatitudeDegrees>42.29865753091871738433837890625</LatitudeDegrees>
              <LongitudeDegrees>2.5181408040225505828857421875</LongitudeDegrees>
            </Position>
            <AltitudeMeters>657.4000244140625</AltitudeMeters>
            <DistanceMeters>NAN</DistanceMeters>
          </Trackpoint>
          <Trackpoint>
            <Time>2021-04-03T10:59:22.000Z</Time>
            <Position>
              <LatitudeDegrees>42.29866608045995235443115234375</LatitudeDegrees>
              <LongitudeDegrees>2.51813066191971302032470703125</LongitudeDegrees>
            </Position>
            <AltitudeMeters>657.5999755859375</AltitudeMeters>
            <DistanceMeters>NAN</DistanceMeters>
          </Trackpoint>
          <Trackpoint>
            <Time>2021-04-03T10:59:25.000Z</Time>
            <Position>
              <LatitudeDegrees>42.298685610294342041015625</LatitudeDegrees>
              <LongitudeDegrees>2.5180978886783123016357421875</LongitudeDegrees>
            </Position>
            <AltitudeMeters>658</AltitudeMeters>
            <DistanceMeters>NAN</DistanceMeters>
          </Trackpoint>
          <Trackpoint>
            <Time>2021-04-03T10:59:28.000Z</Time>
            <Position>
              <LatitudeDegrees>42.298712097108364105224609375</LatitudeDegrees>
              <LongitudeDegrees>2.5180636905133724212646484375</LongitudeDegrees>
            </Position>
            <AltitudeMeters>658.20001220703125</AltitudeMeters>
            <DistanceMeters>NAN</DistanceMeters>
          </Trackpoint>
          <Trackpoint>
            <Time>2021-04-03T10:59:29.000Z</Time>
            <Position>
              <LatitudeDegrees>42.29871419258415699005126953125</LatitudeDegrees>
              <LongitudeDegrees>2.518052794039249420166015625</LongitudeDegrees>
            </Position>
            <AltitudeMeters>658.4000244140625</AltitudeMeters>
            <DistanceMeters>NAN</DistanceMeters>
          </Trackpoint>
          <Trackpoint>
            <Time>2021-04-03T10:59:35.000Z</Time>
            <Position>
              <LatitudeDegrees>42.2987558506429195404052734375</LatitudeDegrees>
              <LongitudeDegrees>2.5179805420339107513427734375</LongitudeDegrees>
            </Position>
            <AltitudeMeters>658.79998779296875</AltitudeMeters>
            <DistanceMeters>NAN</DistanceMeters>
          </Trackpoint>
          <Trackpoint>
            <Time>2021-04-03T10:59:36.000Z</Time>
            <Position>
              <LatitudeDegrees>42.2987566888332366943359375</LatitudeDegrees>
              <LongitudeDegrees>2.5179698131978511810302734375</LongitudeDegrees>
            </Position>
            <AltitudeMeters>659</AltitudeMeters>
            <DistanceMeters>NAN</DistanceMeters>
          </Trackpoint>
          <Trackpoint>
            <Time>2021-04-03T10:59:37.000Z</Time>
            <Position>
              <LatitudeDegrees>42.2987566888332366943359375</LatitudeDegrees>
              <LongitudeDegrees>2.51795698888599872589111328125</LongitudeDegrees>
            </Position>
            <AltitudeMeters>659.20001220703125</AltitudeMeters>
            <DistanceMeters>NAN</DistanceMeters>
          </Trackpoint>
          <Trackpoint>
            <Time>2021-04-03T10:59:42.000Z</Time>
            <Position>
              <LatitudeDegrees>42.29878460057079792022705078125</LatitudeDegrees>
              <LongitudeDegrees>2.51791298389434814453125</LongitudeDegrees>
            </Position>
            <AltitudeMeters>659.79998779296875</AltitudeMeters>
            <DistanceMeters>NAN</DistanceMeters>
          </Trackpoint>
          <Trackpoint>
            <Time>2021-04-03T10:59:43.000Z</Time>
            <Position>
              <LatitudeDegrees>42.29879231192171573638916015625</LatitudeDegrees>
              <LongitudeDegrees>2.51790066249668598175048828125</LongitudeDegrees>
            </Position>
            <AltitudeMeters>660</AltitudeMeters>
            <DistanceMeters>NAN</DistanceMeters>
          </Trackpoint>
          <Trackpoint>
            <Time>2021-04-03T10:59:44.000Z</Time>
            <Position>
              <LatitudeDegrees>42.29880304075777530670166015625</LatitudeDegrees>
              <LongitudeDegrees>2.5178896822035312652587890625</LongitudeDegrees>
            </Position>
            <AltitudeMeters>660.20001220703125</AltitudeMeters>
            <DistanceMeters>NAN</DistanceMeters>
          </Trackpoint>
          <Trackpoint>
            <Time>2021-04-03T10:59:50.000Z</Time>
            <Position>
              <LatitudeDegrees>42.2988436929881572723388671875</LatitudeDegrees>
              <LongitudeDegrees>2.5178491137921810150146484375</LongitudeDegrees>
            </Position>
            <AltitudeMeters>660.4000244140625</AltitudeMeters>
            <DistanceMeters>NAN</DistanceMeters>
          </Trackpoint>
          <Trackpoint>
            <Time>2021-04-03T10:59:51.000Z</Time>
            <Position>
              <LatitudeDegrees>42.29885433800518512725830078125</LatitudeDegrees>
              <LongitudeDegrees>2.5178440846502780914306640625</LongitudeDegrees>
            </Position>
            <AltitudeMeters>660.5999755859375</AltitudeMeters>
            <DistanceMeters>NAN</DistanceMeters>
          </Trackpoint>
          <Trackpoint>
            <Time>2021-04-03T10:59:55.000Z</Time>
            <Position>
              <LatitudeDegrees>42.298894822597503662109375</LatitudeDegrees>
              <LongitudeDegrees>2.51781617291271686553955078125</LongitudeDegrees>
            </Position>
            <AltitudeMeters>660.79998779296875</AltitudeMeters>
            <DistanceMeters>NAN</DistanceMeters>
          </Trackpoint>
          <Trackpoint>
            <Time>2021-04-03T10:59:58.000Z</Time>
            <Position>
              <LatitudeDegrees>42.29891871102154254913330078125</LatitudeDegrees>
              <LongitudeDegrees>2.51779035665094852447509765625</LongitudeDegrees>
            </Position>
            <AltitudeMeters>660.79998779296875</AltitudeMeters>
            <DistanceMeters>NAN</DistanceMeters>
          </Trackpoint>
          <Trackpoint>
            <Time>2021-04-03T11:00:03.000Z</Time>
            <Position>
              <LatitudeDegrees>42.2989442758262157440185546875</LatitudeDegrees>
              <LongitudeDegrees>2.5177354551851749420166015625</LongitudeDegrees>
            </Position>
            <AltitudeMeters>661</AltitudeMeters>
            <DistanceMeters>NAN</DistanceMeters>
          </Trackpoint>
          <Trackpoint>
            <Time>2021-04-03T11:00:04.000Z</Time>
            <Position>
              <LatitudeDegrees>42.2989523224532604217529296875</LatitudeDegrees>
              <LongitudeDegrees>2.517727911472320556640625</LongitudeDegrees>
            </Position>
            <AltitudeMeters>661</AltitudeMeters>
            <DistanceMeters>NAN</DistanceMeters>
          </Trackpoint>
          <Trackpoint>
            <Time>2021-04-03T11:00:11.000Z</Time>
            <Position>
              <LatitudeDegrees>42.29901594109833240509033203125</LatitudeDegrees>
              <LongitudeDegrees>2.51765088178217411041259765625</LongitudeDegrees>
            </Position>
            <AltitudeMeters>661.4000244140625</AltitudeMeters>
            <DistanceMeters>NAN</DistanceMeters>
          </Trackpoint>
          <Trackpoint>
            <Time>2021-04-03T11:00:13.000Z</Time>
            <Position>
              <LatitudeDegrees>42.299025915563106536865234375</LatitudeDegrees>
              <LongitudeDegrees>2.51763260923326015472412109375</LongitudeDegrees>
            </Position>
            <AltitudeMeters>661.4000244140625</AltitudeMeters>
            <DistanceMeters>NAN</DistanceMeters>
          </Trackpoint>
          <Trackpoint>
            <Time>2021-04-03T11:00:16.000Z</Time>
            <Position>
              <LatitudeDegrees>42.29904863052070140838623046875</LatitudeDegrees>
              <LongitudeDegrees>2.51760545186698436737060546875</LongitudeDegrees>
            </Position>
            <AltitudeMeters>661.5999755859375</AltitudeMeters>
            <DistanceMeters>NAN</DistanceMeters>
          </Trackpoint>
          <Trackpoint>
            <Time>2021-04-03T11:00:20.000Z</Time>
            <Position>
              <LatitudeDegrees>42.299074195325374603271484375</LatitudeDegrees>
              <LongitudeDegrees>2.51755968667566776275634765625</LongitudeDegrees>
            </Position>
            <AltitudeMeters>662.20001220703125</AltitudeMeters>
            <DistanceMeters>NAN</DistanceMeters>
          </Trackpoint>
          <Trackpoint>
            <Time>2021-04-03T11:00:22.000Z</Time>
            <Position>
              <LatitudeDegrees>42.2990763746201992034912109375</LatitudeDegrees>
              <LongitudeDegrees>2.5175275839865207672119140625</LongitudeDegrees>
            </Position>
            <AltitudeMeters>662</AltitudeMeters>
            <DistanceMeters>NAN</DistanceMeters>
          </Trackpoint>
          <Trackpoint>
            <Time>2021-04-03T11:00:27.000Z</Time>
            <Position>
              <LatitudeDegrees>42.2990770451724529266357421875</LatitudeDegrees>
              <LongitudeDegrees>2.51745306886732578277587890625</LongitudeDegrees>
            </Position>
            <AltitudeMeters>661.79998779296875</AltitudeMeters>
            <DistanceMeters>NAN</DistanceMeters>
          </Trackpoint>
          <Trackpoint>
            <Time>2021-04-03T11:00:28.000Z</Time>
            <Position>
              <LatitudeDegrees>42.2990783862769603729248046875</LatitudeDegrees>
              <LongitudeDegrees>2.51743848435580730438232421875</LongitudeDegrees>
            </Position>
            <AltitudeMeters>661.79998779296875</AltitudeMeters>
            <DistanceMeters>NAN</DistanceMeters>
          </Trackpoint>
          <Trackpoint>
            <Time>2021-04-03T11:00:34.000Z</Time>
            <Position>
              <LatitudeDegrees>42.29910336434841156005859375</LatitudeDegrees>
              <LongitudeDegrees>2.51737989485263824462890625</LongitudeDegrees>
            </Position>
            <AltitudeMeters>660.79998779296875</AltitudeMeters>
            <DistanceMeters>NAN</DistanceMeters>
          </Trackpoint>
          <Trackpoint>
            <Time>2021-04-03T11:00:39.000Z</Time>
            <Position>
              <LatitudeDegrees>42.29910998605191707611083984375</LatitudeDegrees>
              <LongitudeDegrees>2.517299093306064605712890625</LongitudeDegrees>
            </Position>
            <AltitudeMeters>660</AltitudeMeters>
            <DistanceMeters>NAN</DistanceMeters>
          </Trackpoint>
          <Trackpoint>
            <Time>2021-04-03T11:00:41.000Z</Time>
            <Position>
              <LatitudeDegrees>42.29912105016410350799560546875</LatitudeDegrees>
              <LongitudeDegrees>2.5172778032720088958740234375</LongitudeDegrees>
            </Position>
            <AltitudeMeters>659.79998779296875</AltitudeMeters>
            <DistanceMeters>NAN</DistanceMeters>
          </Trackpoint>
          <Trackpoint>
            <Time>2021-04-03T11:00:42.000Z</Time>
            <Position>
              <LatitudeDegrees>42.29912373237311840057373046875</LatitudeDegrees>
              <LongitudeDegrees>2.517269589006900787353515625</LongitudeDegrees>
            </Position>
            <AltitudeMeters>659.79998779296875</AltitudeMeters>
            <DistanceMeters>NAN</DistanceMeters>
          </Trackpoint>
          <Trackpoint>
            <Time>2021-04-03T11:00:45.000Z</Time>
            <Position>
              <LatitudeDegrees>42.2991427592933177947998046875</LatitudeDegrees>
              <LongitudeDegrees>2.517232038080692291259765625</LongitudeDegrees>
            </Position>
            <AltitudeMeters>659.79998779296875</AltitudeMeters>
            <DistanceMeters>NAN</DistanceMeters>
          </Trackpoint>
          <Trackpoint>
            <Time>2021-04-03T11:00:47.000Z</Time>
            <Position>
              <LatitudeDegrees>42.29918156750500202178955078125</LatitudeDegrees>
              <LongitudeDegrees>2.51723731867969036102294921875</LongitudeDegrees>
            </Position>
            <AltitudeMeters>659.5999755859375</AltitudeMeters>
            <DistanceMeters>NAN</DistanceMeters>
          </Trackpoint>
          <Trackpoint>
            <Time>2021-04-03T11:00:48.000Z</Time>
            <Position>
              <LatitudeDegrees>42.29919279925525188446044921875</LatitudeDegrees>
              <LongitudeDegrees>2.51724318601191043853759765625</LongitudeDegrees>
            </Position>
            <AltitudeMeters>659.5999755859375</AltitudeMeters>
            <DistanceMeters>NAN</DistanceMeters>
          </Trackpoint>
          <Trackpoint>
            <Time>2021-04-03T11:00:50.000Z</Time>
            <Position>
              <LatitudeDegrees>42.299212999641895294189453125</LatitudeDegrees>
              <LongitudeDegrees>2.5172506459057331085205078125</LongitudeDegrees>
            </Position>
            <AltitudeMeters>659.5999755859375</AltitudeMeters>
            <DistanceMeters>NAN</DistanceMeters>
          </Trackpoint>
          <Trackpoint>
            <Time>2021-04-03T11:00:53.000Z</Time>
            <Position>
              <LatitudeDegrees>42.29924526996910572052001953125</LatitudeDegrees>
              <LongitudeDegrees>2.5172625482082366943359375</LongitudeDegrees>
            </Position>
            <AltitudeMeters>659.5999755859375</AltitudeMeters>
            <DistanceMeters>NAN</DistanceMeters>
          </Trackpoint>
          <Trackpoint>
            <Time>2021-04-03T11:00:57.000Z</Time>
            <Position>
              <LatitudeDegrees>42.299275361001491546630859375</LatitudeDegrees>
              <LongitudeDegrees>2.5172992609441280364990234375</LongitudeDegrees>
            </Position>
            <AltitudeMeters>659.5999755859375</AltitudeMeters>
            <DistanceMeters>NAN</DistanceMeters>
          </Trackpoint>
          <Trackpoint>
            <Time>2021-04-03T11:01:01.000Z</Time>
            <Position>
              <LatitudeDegrees>42.29933311231434345245361328125</LatitudeDegrees>
              <LongitudeDegrees>2.51731954514980316162109375</LongitudeDegrees>
            </Position>
            <AltitudeMeters>659.5999755859375</AltitudeMeters>
            <DistanceMeters>NAN</DistanceMeters>
          </Trackpoint>
          <Trackpoint>
            <Time>2021-04-03T11:01:03.000Z</Time>
            <Position>
              <LatitudeDegrees>42.2993576712906360626220703125</LatitudeDegrees>
              <LongitudeDegrees>2.51732231117784976959228515625</LongitudeDegrees>
            </Position>
            <AltitudeMeters>659.4000244140625</AltitudeMeters>
            <DistanceMeters>NAN</DistanceMeters>
          </Trackpoint>
          <Trackpoint>
            <Time>2021-04-03T11:01:05.000Z</Time>
            <Position>
              <LatitudeDegrees>42.29936764575541019439697265625</LatitudeDegrees>
              <LongitudeDegrees>2.51733027398586273193359375</LongitudeDegrees>
            </Position>
            <AltitudeMeters>659.4000244140625</AltitudeMeters>
            <DistanceMeters>NAN</DistanceMeters>
          </Trackpoint>
          <Trackpoint>
            <Time>2021-04-03T11:01:06.000Z</Time>
            <Position>
              <LatitudeDegrees>42.29938005097210407257080078125</LatitudeDegrees>
              <LongitudeDegrees>2.5173391588032245635986328125</LongitudeDegrees>
            </Position>
            <AltitudeMeters>659.20001220703125</AltitudeMeters>
            <DistanceMeters>NAN</DistanceMeters>
          </Trackpoint>
          <Trackpoint>
            <Time>2021-04-03T11:01:10.000Z</Time>
            <Position>
              <LatitudeDegrees>42.2994339466094970703125</LatitudeDegrees>
              <LongitudeDegrees>2.517358772456645965576171875</LongitudeDegrees>
            </Position>
            <AltitudeMeters>659.20001220703125</AltitudeMeters>
            <DistanceMeters>NAN</DistanceMeters>
          </Trackpoint>
          <Trackpoint>
            <Time>2021-04-03T11:01:11.000Z</Time>
            <Position>
              <LatitudeDegrees>42.29943755082786083221435546875</LatitudeDegrees>
              <LongitudeDegrees>2.51735952682793140411376953125</LongitudeDegrees>
            </Position>
            <AltitudeMeters>659.20001220703125</AltitudeMeters>
            <DistanceMeters>NAN</DistanceMeters>
          </Trackpoint>
          <Trackpoint>
            <Time>2021-04-03T11:01:12.000Z</Time>
            <Position>
              <LatitudeDegrees>42.29944257996976375579833984375</LatitudeDegrees>
              <LongitudeDegrees>2.51735734753310680389404296875</LongitudeDegrees>
            </Position>
            <AltitudeMeters>659.20001220703125</AltitudeMeters>
            <DistanceMeters>NAN</DistanceMeters>
          </Trackpoint>
          <Trackpoint>
            <Time>2021-04-03T11:01:15.000Z</Time>
            <Position>
              <LatitudeDegrees>42.29945196770131587982177734375</LatitudeDegrees>
              <LongitudeDegrees>2.5173673219978809356689453125</LongitudeDegrees>
            </Position>
            <AltitudeMeters>659.20001220703125</AltitudeMeters>
            <DistanceMeters>NAN</DistanceMeters>
          </Trackpoint>
          <Trackpoint>
            <Time>2021-04-03T11:01:17.000Z</Time>
            <Position>
              <LatitudeDegrees>42.2994612716138362884521484375</LatitudeDegrees>
              <LongitudeDegrees>2.517376877367496490478515625</LongitudeDegrees>
            </Position>
            <AltitudeMeters>659.20001220703125</AltitudeMeters>
            <DistanceMeters>NAN</DistanceMeters>
          </Trackpoint>
          <Trackpoint>
            <Time>2021-04-03T11:01:21.000Z</Time>
            <Position>
              <LatitudeDegrees>42.29949605651199817657470703125</LatitudeDegrees>
              <LongitudeDegrees>2.51738282851874828338623046875</LongitudeDegrees>
            </Position>
            <AltitudeMeters>659.20001220703125</AltitudeMeters>
            <DistanceMeters>NAN</DistanceMeters>
          </Trackpoint>
          <Trackpoint>
            <Time>2021-04-03T11:01:23.000Z</Time>
            <Position>
              <LatitudeDegrees>42.29950846172869205474853515625</LatitudeDegrees>
              <LongitudeDegrees>2.51739104278385639190673828125</LongitudeDegrees>
            </Position>
            <AltitudeMeters>659.20001220703125</AltitudeMeters>
            <DistanceMeters>NAN</DistanceMeters>
          </Trackpoint>
          <Trackpoint>
            <Time>2021-04-03T11:01:25.000Z</Time>
            <Position>
              <LatitudeDegrees>42.299534864723682403564453125</LatitudeDegrees>
              <LongitudeDegrees>2.5174047052860260009765625</LongitudeDegrees>
            </Position>
            <AltitudeMeters>659.20001220703125</AltitudeMeters>
            <DistanceMeters>NAN</DistanceMeters>
          </Trackpoint>
          <Trackpoint>
            <Time>2021-04-03T11:01:26.000Z</Time>
            <Position>
              <LatitudeDegrees>42.2995497845113277435302734375</LatitudeDegrees>
              <LongitudeDegrees>2.51741015352308750152587890625</LongitudeDegrees>
            </Position>
            <AltitudeMeters>659.20001220703125</AltitudeMeters>
            <DistanceMeters>NAN</DistanceMeters>
          </Trackpoint>
          <Trackpoint>
            <Time>2021-04-03T11:01:29.000Z</Time>
            <Position>
              <LatitudeDegrees>42.299570739269256591796875</LatitudeDegrees>
              <LongitudeDegrees>2.5174132548272609710693359375</LongitudeDegrees>
            </Position>
            <AltitudeMeters>659.4000244140625</AltitudeMeters>
            <DistanceMeters>NAN</DistanceMeters>
          </Trackpoint>
          <Trackpoint>
            <Time>2021-04-03T11:01:31.000Z</Time>
            <Position>
              <LatitudeDegrees>42.29957769624888896942138671875</LatitudeDegrees>
              <LongitudeDegrees>2.5174099020659923553466796875</LongitudeDegrees>
            </Position>
            <AltitudeMeters>659.4000244140625</AltitudeMeters>
            <DistanceMeters>NAN</DistanceMeters>
          </Trackpoint>
          <Trackpoint>
            <Time>2021-04-03T11:01:33.000Z</Time>
            <Position>
              <LatitudeDegrees>42.2995983995497226715087890625</LatitudeDegrees>
              <LongitudeDegrees>2.51741451211273670196533203125</LongitudeDegrees>
            </Position>
            <AltitudeMeters>659.4000244140625</AltitudeMeters>
            <DistanceMeters>NAN</DistanceMeters>
          </Trackpoint>
          <Trackpoint>
            <Time>2021-04-03T11:01:34.000Z</Time>
            <Position>
              <LatitudeDegrees>42.29960820637643337249755859375</LatitudeDegrees>
              <LongitudeDegrees>2.51741476356983184814453125</LongitudeDegrees>
            </Position>
            <AltitudeMeters>659.4000244140625</AltitudeMeters>
            <DistanceMeters>NAN</DistanceMeters>
          </Trackpoint>
          <Trackpoint>
            <Time>2021-04-03T11:01:35.000Z</Time>
            <Position>
              <LatitudeDegrees>42.2996195219457149505615234375</LatitudeDegrees>
              <LongitudeDegrees>2.517412416636943817138671875</LongitudeDegrees>
            </Position>
            <AltitudeMeters>659.5999755859375</AltitudeMeters>
            <DistanceMeters>NAN</DistanceMeters>
          </Trackpoint>
          <Trackpoint>
            <Time>2021-04-03T11:01:37.000Z</Time>
            <Position>
              <LatitudeDegrees>42.29963988997042179107666015625</LatitudeDegrees>
              <LongitudeDegrees>2.5174179486930370330810546875</LongitudeDegrees>
            </Position>
            <AltitudeMeters>659.5999755859375</AltitudeMeters>
            <DistanceMeters>NAN</DistanceMeters>
          </Trackpoint>
          <Trackpoint>
            <Time>2021-04-03T11:01:38.000Z</Time>
            <Position>
              <LatitudeDegrees>42.29964843951165676116943359375</LatitudeDegrees>
              <LongitudeDegrees>2.5174209661781787872314453125</LongitudeDegrees>
            </Position>
            <AltitudeMeters>659.79998779296875</AltitudeMeters>
            <DistanceMeters>NAN</DistanceMeters>
          </Trackpoint>
          <Trackpoint>
            <Time>2021-04-03T11:01:46.000Z</Time>
            <Position>
              <LatitudeDegrees>42.29975975118577480316162109375</LatitudeDegrees>
              <LongitudeDegrees>2.51746413297951221466064453125</LongitudeDegrees>
            </Position>
            <AltitudeMeters>660.4000244140625</AltitudeMeters>
            <DistanceMeters>NAN</DistanceMeters>
          </Trackpoint>
          <Trackpoint>
            <Time>2021-04-03T11:01:53.000Z</Time>
            <Position>
              <LatitudeDegrees>42.2998431511223316192626953125</LatitudeDegrees>
              <LongitudeDegrees>2.51750470139086246490478515625</LongitudeDegrees>
            </Position>
            <AltitudeMeters>660.79998779296875</AltitudeMeters>
            <DistanceMeters>NAN</DistanceMeters>
          </Trackpoint>
          <Trackpoint>
            <Time>2021-04-03T11:01:55.000Z</Time>
            <Position>
              <LatitudeDegrees>42.29987072758376598358154296875</LatitudeDegrees>
              <LongitudeDegrees>2.5175124965608119964599609375</LongitudeDegrees>
            </Position>
            <AltitudeMeters>660.79998779296875</AltitudeMeters>
            <DistanceMeters>NAN</DistanceMeters>
          </Trackpoint>
          <Trackpoint>
            <Time>2021-04-03T11:01:57.000Z</Time>
            <Position>
              <LatitudeDegrees>42.2998961247503757476806640625</LatitudeDegrees>
              <LongitudeDegrees>2.51752473413944244384765625</LongitudeDegrees>
            </Position>
            <AltitudeMeters>661</AltitudeMeters>
            <DistanceMeters>NAN</DistanceMeters>
          </Trackpoint>
          <Trackpoint>
            <Time>2021-04-03T11:01:59.000Z</Time>
            <Position>
              <LatitudeDegrees>42.29990492574870586395263671875</LatitudeDegrees>
              <LongitudeDegrees>2.51753906719386577606201171875</LongitudeDegrees>
            </Position>
            <AltitudeMeters>661.20001220703125</AltitudeMeters>
            <DistanceMeters>NAN</DistanceMeters>
          </Trackpoint>
          <Trackpoint>
            <Time>2021-04-03T11:02:00.000Z</Time>
            <Position>
              <LatitudeDegrees>42.29991230182349681854248046875</LatitudeDegrees>
              <LongitudeDegrees>2.51755113713443279266357421875</LongitudeDegrees>
            </Position>
            <AltitudeMeters>661.20001220703125</AltitudeMeters>
            <DistanceMeters>NAN</DistanceMeters>
          </Trackpoint>
          <Trackpoint>
            <Time>2021-04-03T11:02:02.000Z</Time>
            <Position>
              <LatitudeDegrees>42.299929149448871612548828125</LatitudeDegrees>
              <LongitudeDegrees>2.517565973103046417236328125</LongitudeDegrees>
            </Position>
            <AltitudeMeters>661.4000244140625</AltitudeMeters>
            <DistanceMeters>NAN</DistanceMeters>
          </Trackpoint>
          <Trackpoint>
            <Time>2021-04-03T11:02:04.000Z</Time>
            <Position>
              <LatitudeDegrees>42.29994096793234348297119140625</LatitudeDegrees>
              <LongitudeDegrees>2.517581395804882049560546875</LongitudeDegrees>
            </Position>
            <AltitudeMeters>661.4000244140625</AltitudeMeters>
            <DistanceMeters>NAN</DistanceMeters>
          </Trackpoint>
          <Trackpoint>
            <Time>2021-04-03T11:02:06.000Z</Time>
            <Position>
              <LatitudeDegrees>42.29994557797908782958984375</LatitudeDegrees>
              <LongitudeDegrees>2.5175963155925273895263671875</LongitudeDegrees>
            </Position>
            <AltitudeMeters>661.4000244140625</AltitudeMeters>
            <DistanceMeters>NAN</DistanceMeters>
          </Trackpoint>
          <Trackpoint>
            <Time>2021-04-03T11:02:08.000Z</Time>
            <Position>
              <LatitudeDegrees>42.2999581508338451385498046875</LatitudeDegrees>
              <LongitudeDegrees>2.51761861145496368408203125</LongitudeDegrees>
            </Position>
            <AltitudeMeters>661.5999755859375</AltitudeMeters>
            <DistanceMeters>NAN</DistanceMeters>
          </Trackpoint>
          <Trackpoint>
            <Time>2021-04-03T11:02:10.000Z</Time>
            <Position>
              <LatitudeDegrees>42.2999809496104717254638671875</LatitudeDegrees>
              <LongitudeDegrees>2.5176432542502880096435546875</LongitudeDegrees>
            </Position>
            <AltitudeMeters>661.5999755859375</AltitudeMeters>
            <DistanceMeters>NAN</DistanceMeters>
          </Trackpoint>
          <Trackpoint>
            <Time>2021-04-03T11:02:15.000Z</Time>
            <Position>
              <LatitudeDegrees>42.30005018413066864013671875</LatitudeDegrees>
              <LongitudeDegrees>2.51769882626831531524658203125</LongitudeDegrees>
            </Position>
            <AltitudeMeters>661.79998779296875</AltitudeMeters>
            <DistanceMeters>NAN</DistanceMeters>
          </Trackpoint>
          <Trackpoint>
            <Time>2021-04-03T11:02:17.000Z</Time>
            <Position>
              <LatitudeDegrees>42.30008027516305446624755859375</LatitudeDegrees>
              <LongitudeDegrees>2.51772246323525905609130859375</LongitudeDegrees>
            </Position>
            <AltitudeMeters>662</AltitudeMeters>
            <DistanceMeters>NAN</DistanceMeters>
          </Trackpoint>
          <Trackpoint>
            <Time>2021-04-03T11:02:18.000Z</Time>
            <Position>
              <LatitudeDegrees>42.30008647777140140533447265625</LatitudeDegrees>
              <LongitudeDegrees>2.5177354551851749420166015625</LongitudeDegrees>
            </Position>
            <AltitudeMeters>662</AltitudeMeters>
            <DistanceMeters>NAN</DistanceMeters>
          </Trackpoint>
          <Trackpoint>
            <Time>2021-04-03T11:02:19.000Z</Time>
            <Position>
              <LatitudeDegrees>42.30010005645453929901123046875</LatitudeDegrees>
              <LongitudeDegrees>2.5177458487451076507568359375</LongitudeDegrees>
            </Position>
            <AltitudeMeters>662</AltitudeMeters>
            <DistanceMeters>NAN</DistanceMeters>
          </Trackpoint>
          <Trackpoint>
            <Time>2021-04-03T11:02:20.000Z</Time>
            <Position>
              <LatitudeDegrees>42.30011162348091602325439453125</LatitudeDegrees>
              <LongitudeDegrees>2.517760097980499267578125</LongitudeDegrees>
            </Position>
            <AltitudeMeters>662</AltitudeMeters>
            <DistanceMeters>NAN</DistanceMeters>
          </Trackpoint>
          <Trackpoint>
            <Time>2021-04-03T11:02:21.000Z</Time>
            <Position>
              <LatitudeDegrees>42.30012654326856136322021484375</LatitudeDegrees>
              <LongitudeDegrees>2.51777258701622486114501953125</LongitudeDegrees>
            </Position>
            <AltitudeMeters>662</AltitudeMeters>
            <DistanceMeters>NAN</DistanceMeters>
          </Trackpoint>
          <Trackpoint>
            <Time>2021-04-03T11:02:26.000Z</Time>
            <Position>
              <LatitudeDegrees>42.30015336535871028900146484375</LatitudeDegrees>
              <LongitudeDegrees>2.51781734637916088104248046875</LongitudeDegrees>
            </Position>
            <AltitudeMeters>662.4000244140625</AltitudeMeters>
            <DistanceMeters>NAN</DistanceMeters>
          </Trackpoint>
          <Trackpoint>
            <Time>2021-04-03T11:02:33.000Z</Time>
            <Position>
              <LatitudeDegrees>42.30019477196037769317626953125</LatitudeDegrees>
              <LongitudeDegrees>2.5178526341915130615234375</LongitudeDegrees>
            </Position>
            <AltitudeMeters>662.79998779296875</AltitudeMeters>
            <DistanceMeters>NAN</DistanceMeters>
          </Trackpoint>
          <Trackpoint>
            <Time>2021-04-03T11:02:35.000Z</Time>
            <Position>
              <LatitudeDegrees>42.30021002702414989471435546875</LatitudeDegrees>
              <LongitudeDegrees>2.5178605131804943084716796875</LongitudeDegrees>
            </Position>
            <AltitudeMeters>662.5999755859375</AltitudeMeters>
            <DistanceMeters>NAN</DistanceMeters>
          </Trackpoint>
          <Trackpoint>
            <Time>2021-04-03T11:02:38.000Z</Time>
            <Position>
              <LatitudeDegrees>42.30022318661212921142578125</LatitudeDegrees>
              <LongitudeDegrees>2.51787316985428333282470703125</LongitudeDegrees>
            </Position>
            <AltitudeMeters>662.79998779296875</AltitudeMeters>
            <DistanceMeters>NAN</DistanceMeters>
          </Trackpoint>
          <Trackpoint>
            <Time>2021-04-03T11:02:40.000Z</Time>
            <Position>
              <LatitudeDegrees>42.3002391122281551361083984375</LatitudeDegrees>
              <LongitudeDegrees>2.51789144240319728851318359375</LongitudeDegrees>
            </Position>
            <AltitudeMeters>663</AltitudeMeters>
            <DistanceMeters>NAN</DistanceMeters>
          </Trackpoint>
          <Trackpoint>
            <Time>2021-04-03T11:02:45.000Z</Time>
            <Position>
              <LatitudeDegrees>42.3002920858561992645263671875</LatitudeDegrees>
              <LongitudeDegrees>2.517927400767803192138671875</LongitudeDegrees>
            </Position>
            <AltitudeMeters>663.4000244140625</AltitudeMeters>
            <DistanceMeters>NAN</DistanceMeters>
          </Trackpoint>
          <Trackpoint>
            <Time>2021-04-03T11:02:50.000Z</Time>
            <Position>
              <LatitudeDegrees>42.30033692903816699981689453125</LatitudeDegrees>
              <LongitudeDegrees>2.517960257828235626220703125</LongitudeDegrees>
            </Position>
            <AltitudeMeters>664.20001220703125</AltitudeMeters>
            <DistanceMeters>NAN</DistanceMeters>
          </Trackpoint>
          <Trackpoint>
            <Time>2021-04-03T11:02:54.000Z</Time>
            <Position>
              <LatitudeDegrees>42.30036643333733081817626953125</LatitudeDegrees>
              <LongitudeDegrees>2.51800216734409332275390625</LongitudeDegrees>
            </Position>
            <AltitudeMeters>665</AltitudeMeters>
            <DistanceMeters>NAN</DistanceMeters>
          </Trackpoint>
          <Trackpoint>
            <Time>2021-04-03T11:02:57.000Z</Time>
            <Position>
              <LatitudeDegrees>42.30039426125586032867431640625</LatitudeDegrees>
              <LongitudeDegrees>2.5180372036993503570556640625</LongitudeDegrees>
            </Position>
            <AltitudeMeters>665.20001220703125</AltitudeMeters>
            <DistanceMeters>NAN</DistanceMeters>
          </Trackpoint>
          <Trackpoint>
            <Time>2021-04-03T11:03:03.000Z</Time>
            <Position>
              <LatitudeDegrees>42.30043784715235233306884765625</LatitudeDegrees>
              <LongitudeDegrees>2.51808523200452327728271484375</LongitudeDegrees>
            </Position>
            <AltitudeMeters>666.20001220703125</AltitudeMeters>
            <DistanceMeters>NAN</DistanceMeters>
          </Trackpoint>
          <Trackpoint>
            <Time>2021-04-03T11:03:04.000Z</Time>
            <Position>
              <LatitudeDegrees>42.30044790543615818023681640625</LatitudeDegrees>
              <LongitudeDegrees>2.518094368278980255126953125</LongitudeDegrees>
            </Position>
            <AltitudeMeters>666.5999755859375</AltitudeMeters>
            <DistanceMeters>NAN</DistanceMeters>
          </Trackpoint>
          <Trackpoint>
            <Time>2021-04-03T11:03:07.000Z</Time>
            <Position>
              <LatitudeDegrees>42.3004674352705478668212890625</LatitudeDegrees>
              <LongitudeDegrees>2.51810836605727672576904296875</LongitudeDegrees>
            </Position>
            <AltitudeMeters>667</AltitudeMeters>
            <DistanceMeters>NAN</DistanceMeters>
          </Trackpoint>
          <Trackpoint>
            <Time>2021-04-03T11:03:09.000Z</Time>
            <Position>
              <LatitudeDegrees>42.3004761524498462677001953125</LatitudeDegrees>
              <LongitudeDegrees>2.51812295056879520416259765625</LongitudeDegrees>
            </Position>
            <AltitudeMeters>667.4000244140625</AltitudeMeters>
            <DistanceMeters>NAN</DistanceMeters>
          </Trackpoint>
          <Trackpoint>
            <Time>2021-04-03T11:03:11.000Z</Time>
            <Position>
              <LatitudeDegrees>42.300486378371715545654296875</LatitudeDegrees>
              <LongitudeDegrees>2.51813803799450397491455078125</LongitudeDegrees>
            </Position>
            <AltitudeMeters>667.5999755859375</AltitudeMeters>
            <DistanceMeters>NAN</DistanceMeters>
          </Trackpoint>
          <Trackpoint>
            <Time>2021-04-03T11:03:13.000Z</Time>
            <Position>
              <LatitudeDegrees>42.30049031786620616912841796875</LatitudeDegrees>
              <LongitudeDegrees>2.51814139075577259063720703125</LongitudeDegrees>
            </Position>
            <AltitudeMeters>667.5999755859375</AltitudeMeters>
            <DistanceMeters>NAN</DistanceMeters>
          </Trackpoint>
          <Trackpoint>
            <Time>2021-04-03T11:03:15.000Z</Time>
            <Position>
              <LatitudeDegrees>42.30049668811261653900146484375</LatitudeDegrees>
              <LongitudeDegrees>2.518144659698009490966796875</LongitudeDegrees>
            </Position>
            <AltitudeMeters>667.5999755859375</AltitudeMeters>
            <DistanceMeters>NAN</DistanceMeters>
          </Trackpoint>
          <Trackpoint>
            <Time>2021-04-03T11:03:17.000Z</Time>
            <Position>
              <LatitudeDegrees>42.300507836043834686279296875</LatitudeDegrees>
              <LongitudeDegrees>2.5181458331644535064697265625</LongitudeDegrees>
            </Position>
            <AltitudeMeters>667.4000244140625</AltitudeMeters>
            <DistanceMeters>NAN</DistanceMeters>
          </Trackpoint>
          <Trackpoint>
            <Time>2021-04-03T11:03:22.000Z</Time>
            <Position>
              <LatitudeDegrees>42.300507836043834686279296875</LatitudeDegrees>
              <LongitudeDegrees>2.5181894190609455108642578125</LongitudeDegrees>
            </Position>
            <AltitudeMeters>667.79998779296875</AltitudeMeters>
            <DistanceMeters>NAN</DistanceMeters>
          </Trackpoint>
          <Trackpoint>
            <Time>2021-04-03T11:03:27.000Z</Time>
            <Position>
              <LatitudeDegrees>42.300518564879894256591796875</LatitudeDegrees>
              <LongitudeDegrees>2.51823275350034236907958984375</LongitudeDegrees>
            </Position>
            <AltitudeMeters>667.79998779296875</AltitudeMeters>
            <DistanceMeters>NAN</DistanceMeters>
          </Trackpoint>
          <Trackpoint>
            <Time>2021-04-03T11:03:30.000Z</Time>
            <Position>
              <LatitudeDegrees>42.300538010895252227783203125</LatitudeDegrees>
              <LongitudeDegrees>2.51826426945626735687255859375</LongitudeDegrees>
            </Position>
            <AltitudeMeters>667.4000244140625</AltitudeMeters>
            <DistanceMeters>NAN</DistanceMeters>
          </Trackpoint>
          <Trackpoint>
            <Time>2021-04-03T11:03:37.000Z</Time>
            <Position>
              <LatitudeDegrees>42.30058184824883937835693359375</LatitudeDegrees>
              <LongitudeDegrees>2.51831531524658203125</LongitudeDegrees>
            </Position>
            <AltitudeMeters>667.20001220703125</AltitudeMeters>
            <DistanceMeters>NAN</DistanceMeters>
          </Trackpoint>
          <Trackpoint>
            <Time>2021-04-03T11:03:38.000Z</Time>
            <Position>
              <LatitudeDegrees>42.30058662593364715576171875</LatitudeDegrees>
              <LongitudeDegrees>2.51832193695008754730224609375</LongitudeDegrees>
            </Position>
            <AltitudeMeters>667.20001220703125</AltitudeMeters>
            <DistanceMeters>NAN</DistanceMeters>
          </Trackpoint>
          <Trackpoint>
            <Time>2021-04-03T11:03:40.000Z</Time>
            <Position>
              <LatitudeDegrees>42.300598360598087310791015625</LatitudeDegrees>
              <LongitudeDegrees>2.5183419696986675262451171875</LongitudeDegrees>
            </Position>
            <AltitudeMeters>667.20001220703125</AltitudeMeters>
            <DistanceMeters>NAN</DistanceMeters>
          </Trackpoint>
          <Trackpoint>
            <Time>2021-04-03T11:03:42.000Z</Time>
            <Position>
              <LatitudeDegrees>42.3006048984825611114501953125</LatitudeDegrees>
              <LongitudeDegrees>2.51836133189499378204345703125</LongitudeDegrees>
            </Position>
            <AltitudeMeters>667.20001220703125</AltitudeMeters>
            <DistanceMeters>NAN</DistanceMeters>
          </Trackpoint>
          <Trackpoint>
            <Time>2021-04-03T11:03:45.000Z</Time>
            <Position>
              <LatitudeDegrees>42.30061302892863750457763671875</LatitudeDegrees>
              <LongitudeDegrees>2.5183905847370624542236328125</LongitudeDegrees>
            </Position>
            <AltitudeMeters>667.4000244140625</AltitudeMeters>
            <DistanceMeters>NAN</DistanceMeters>
          </Trackpoint>
          <Trackpoint>
            <Time>2021-04-03T11:03:47.000Z</Time>
            <Position>
              <LatitudeDegrees>42.30061671696603298187255859375</LatitudeDegrees>
              <LongitudeDegrees>2.51841179095208644866943359375</LongitudeDegrees>
            </Position>
            <AltitudeMeters>667.4000244140625</AltitudeMeters>
            <DistanceMeters>NAN</DistanceMeters>
          </Trackpoint>
          <Trackpoint>
            <Time>2021-04-03T11:03:48.000Z</Time>
            <Position>
              <LatitudeDegrees>42.30062224902212619781494140625</LatitudeDegrees>
              <LongitudeDegrees>2.51842335797846317291259765625</LongitudeDegrees>
            </Position>
            <AltitudeMeters>667.4000244140625</AltitudeMeters>
            <DistanceMeters>NAN</DistanceMeters>
          </Trackpoint>
          <Trackpoint>
            <Time>2021-04-03T11:03:54.000Z</Time>
            <Position>
              <LatitudeDegrees>42.30063918046653270721435546875</LatitudeDegrees>
              <LongitudeDegrees>2.51849963329732418060302734375</LongitudeDegrees>
            </Position>
            <AltitudeMeters>667</AltitudeMeters>
            <DistanceMeters>NAN</DistanceMeters>
          </Trackpoint>
          <Trackpoint>
            <Time>2021-04-03T11:03:55.000Z</Time>
            <Position>
              <LatitudeDegrees>42.3006421141326427459716796875</LatitudeDegrees>
              <LongitudeDegrees>2.51850918866693973541259765625</LongitudeDegrees>
            </Position>
            <AltitudeMeters>667</AltitudeMeters>
            <DistanceMeters>NAN</DistanceMeters>
          </Trackpoint>
          <Trackpoint>
            <Time>2021-04-03T11:04:01.000Z</Time>
            <Position>
              <LatitudeDegrees>42.30068276636302471160888671875</LatitudeDegrees>
              <LongitudeDegrees>2.518539614975452423095703125</LongitudeDegrees>
            </Position>
            <AltitudeMeters>666.79998779296875</AltitudeMeters>
            <DistanceMeters>NAN</DistanceMeters>
          </Trackpoint>
          <Trackpoint>
            <Time>2021-04-03T11:04:05.000Z</Time>
            <Position>
              <LatitudeDegrees>42.300724089145660400390625</LatitudeDegrees>
              <LongitudeDegrees>2.51858546398580074310302734375</LongitudeDegrees>
            </Position>
            <AltitudeMeters>666.79998779296875</AltitudeMeters>
            <DistanceMeters>NAN</DistanceMeters>
          </Trackpoint>
          <Trackpoint>
            <Time>2021-04-03T11:04:08.000Z</Time>
            <Position>
              <LatitudeDegrees>42.30072987265884876251220703125</LatitudeDegrees>
              <LongitudeDegrees>2.51862083561718463897705078125</LongitudeDegrees>
            </Position>
            <AltitudeMeters>666.4000244140625</AltitudeMeters>
            <DistanceMeters>NAN</DistanceMeters>
          </Trackpoint>
          <Trackpoint>
            <Time>2021-04-03T11:04:10.000Z</Time>
            <Position>
              <LatitudeDegrees>42.30072719044983386993408203125</LatitudeDegrees>
              <LongitudeDegrees>2.51863122917711734771728515625</LongitudeDegrees>
            </Position>
            <AltitudeMeters>666.20001220703125</AltitudeMeters>
            <DistanceMeters>NAN</DistanceMeters>
          </Trackpoint>
          <Trackpoint>
            <Time>2021-04-03T11:04:13.000Z</Time>
            <Position>
              <LatitudeDegrees>42.30073305778205394744873046875</LatitudeDegrees>
              <LongitudeDegrees>2.518651597201824188232421875</LongitudeDegrees>
            </Position>
            <AltitudeMeters>666.20001220703125</AltitudeMeters>
            <DistanceMeters>NAN</DistanceMeters>
          </Trackpoint>
          <Trackpoint>
            <Time>2021-04-03T11:04:14.000Z</Time>
            <Position>
              <LatitudeDegrees>42.30073808692395687103271484375</LatitudeDegrees>
              <LongitudeDegrees>2.5186608172953128814697265625</LongitudeDegrees>
            </Position>
            <AltitudeMeters>666.4000244140625</AltitudeMeters>
            <DistanceMeters>NAN</DistanceMeters>
          </Trackpoint>
          <Trackpoint>
            <Time>2021-04-03T11:04:16.000Z</Time>
            <Position>
              <LatitudeDegrees>42.30075158178806304931640625</LatitudeDegrees>
              <LongitudeDegrees>2.5186792574822902679443359375</LongitudeDegrees>
            </Position>
            <AltitudeMeters>666.4000244140625</AltitudeMeters>
            <DistanceMeters>NAN</DistanceMeters>
          </Trackpoint>
          <Trackpoint>
            <Time>2021-04-03T11:04:17.000Z</Time>
            <Position>
              <LatitudeDegrees>42.3007581196725368499755859375</LatitudeDegrees>
              <LongitudeDegrees>2.5186886452138423919677734375</LongitudeDegrees>
            </Position>
            <AltitudeMeters>666.5999755859375</AltitudeMeters>
            <DistanceMeters>NAN</DistanceMeters>
          </Trackpoint>
          <Trackpoint>
            <Time>2021-04-03T11:04:19.000Z</Time>
            <Position>
              <LatitudeDegrees>42.30076658539474010467529296875</LatitudeDegrees>
              <LongitudeDegrees>2.518711276352405548095703125</LongitudeDegrees>
            </Position>
            <AltitudeMeters>666.5999755859375</AltitudeMeters>
            <DistanceMeters>NAN</DistanceMeters>
          </Trackpoint>
          <Trackpoint>
            <Time>2021-04-03T11:04:21.000Z</Time>
            <Position>
              <LatitudeDegrees>42.30076775886118412017822265625</LatitudeDegrees>
              <LongitudeDegrees>2.5187323987483978271484375</LongitudeDegrees>
            </Position>
            <AltitudeMeters>666.79998779296875</AltitudeMeters>
            <DistanceMeters>NAN</DistanceMeters>
          </Trackpoint>
          <Trackpoint>
            <Time>2021-04-03T11:04:23.000Z</Time>
            <Position>
              <LatitudeDegrees>42.3007735423743724822998046875</LatitudeDegrees>
              <LongitudeDegrees>2.51875192858278751373291015625</LongitudeDegrees>
            </Position>
            <AltitudeMeters>666.79998779296875</AltitudeMeters>
            <DistanceMeters>NAN</DistanceMeters>
          </Trackpoint>
          <Trackpoint>
            <Time>2021-04-03T11:04:26.000Z</Time>
            <Position>
              <LatitudeDegrees>42.30077815242111682891845703125</LatitudeDegrees>
              <LongitudeDegrees>2.51877657137811183929443359375</LongitudeDegrees>
            </Position>
            <AltitudeMeters>667</AltitudeMeters>
            <DistanceMeters>NAN</DistanceMeters>
          </Trackpoint>
          <Trackpoint>
            <Time>2021-04-03T11:04:30.000Z</Time>
            <Position>
              <LatitudeDegrees>42.30080229230225086212158203125</LatitudeDegrees>
              <LongitudeDegrees>2.51880222000181674957275390625</LongitudeDegrees>
            </Position>
            <AltitudeMeters>667.20001220703125</AltitudeMeters>
            <DistanceMeters>NAN</DistanceMeters>
          </Trackpoint>
          <Trackpoint>
            <Time>2021-04-03T11:04:31.000Z</Time>
            <Position>
              <LatitudeDegrees>42.300802879035472869873046875</LatitudeDegrees>
              <LongitudeDegrees>2.51881361939013004302978515625</LongitudeDegrees>
            </Position>
            <AltitudeMeters>667.20001220703125</AltitudeMeters>
            <DistanceMeters>NAN</DistanceMeters>
          </Trackpoint>
          <Trackpoint>
            <Time>2021-04-03T11:04:32.000Z</Time>
            <Position>
              <LatitudeDegrees>42.30080514214932918548583984375</LatitudeDegrees>
              <LongitudeDegrees>2.51882753334939479827880859375</LongitudeDegrees>
            </Position>
            <AltitudeMeters>667</AltitudeMeters>
            <DistanceMeters>NAN</DistanceMeters>
          </Trackpoint>
          <Trackpoint>
            <Time>2021-04-03T11:04:37.000Z</Time>
            <Position>
              <LatitudeDegrees>42.30081369169056415557861328125</LatitudeDegrees>
              <LongitudeDegrees>2.51888318918645381927490234375</LongitudeDegrees>
            </Position>
            <AltitudeMeters>666.20001220703125</AltitudeMeters>
            <DistanceMeters>NAN</DistanceMeters>
          </Trackpoint>
          <Trackpoint>
            <Time>2021-04-03T11:04:43.000Z</Time>
            <Position>
              <LatitudeDegrees>42.30080463923513889312744140625</LatitudeDegrees>
              <LongitudeDegrees>2.51898846589028835296630859375</LongitudeDegrees>
            </Position>
            <AltitudeMeters>666</AltitudeMeters>
            <DistanceMeters>NAN</DistanceMeters>
          </Trackpoint>
          <Trackpoint>
            <Time>2021-04-03T11:04:45.000Z</Time>
            <Position>
              <LatitudeDegrees>42.30081385932862758636474609375</LatitudeDegrees>
              <LongitudeDegrees>2.51899634487926959991455078125</LongitudeDegrees>
            </Position>
            <AltitudeMeters>666</AltitudeMeters>
            <DistanceMeters>NAN</DistanceMeters>
          </Trackpoint>
          <Trackpoint>
            <Time>2021-04-03T11:04:48.000Z</Time>
            <Position>
              <LatitudeDegrees>42.30082240886986255645751953125</LatitudeDegrees>
              <LongitudeDegrees>2.51900053583085536956787109375</LongitudeDegrees>
            </Position>
            <AltitudeMeters>666</AltitudeMeters>
            <DistanceMeters>NAN</DistanceMeters>
          </Trackpoint>
          <Trackpoint>
            <Time>2021-04-03T11:04:55.000Z</Time>
            <Position>
              <LatitudeDegrees>42.30077329091727733612060546875</LatitudeDegrees>
              <LongitudeDegrees>2.51909089274704456329345703125</LongitudeDegrees>
            </Position>
            <AltitudeMeters>665.79998779296875</AltitudeMeters>
            <DistanceMeters>NAN</DistanceMeters>
          </Trackpoint>
          <Trackpoint>
            <Time>2021-04-03T11:04:57.000Z</Time>
            <Position>
              <LatitudeDegrees>42.3007688485085964202880859375</LatitudeDegrees>
              <LongitudeDegrees>2.5191288627684116363525390625</LongitudeDegrees>
            </Position>
            <AltitudeMeters>665.5999755859375</AltitudeMeters>
            <DistanceMeters>NAN</DistanceMeters>
          </Trackpoint>
          <Trackpoint>
            <Time>2021-04-03T11:04:58.000Z</Time>
            <Position>
              <LatitudeDegrees>42.3007708601653575897216796875</LatitudeDegrees>
              <LongitudeDegrees>2.51914587803184986114501953125</LongitudeDegrees>
            </Position>
            <AltitudeMeters>665.20001220703125</AltitudeMeters>
            <DistanceMeters>NAN</DistanceMeters>
          </Trackpoint>
          <Trackpoint>
            <Time>2021-04-03T11:05:00.000Z</Time>
            <Position>
              <LatitudeDegrees>42.300777398049831390380859375</LatitudeDegrees>
              <LongitudeDegrees>2.5191714428365230560302734375</LongitudeDegrees>
            </Position>
            <AltitudeMeters>664.5999755859375</AltitudeMeters>
            <DistanceMeters>NAN</DistanceMeters>
          </Trackpoint>
          <Trackpoint>
            <Time>2021-04-03T11:05:04.000Z</Time>
            <Position>
              <LatitudeDegrees>42.30077446438372135162353515625</LatitudeDegrees>
              <LongitudeDegrees>2.51922282390296459197998046875</LongitudeDegrees>
            </Position>
            <AltitudeMeters>664.20001220703125</AltitudeMeters>
            <DistanceMeters>NAN</DistanceMeters>
          </Trackpoint>
          <Trackpoint>
            <Time>2021-04-03T11:05:06.000Z</Time>
            <Position>
              <LatitudeDegrees>42.30078116990625858306884765625</LatitudeDegrees>
              <LongitudeDegrees>2.51925618387758731842041015625</LongitudeDegrees>
            </Position>
            <AltitudeMeters>663.79998779296875</AltitudeMeters>
            <DistanceMeters>NAN</DistanceMeters>
          </Trackpoint>
          <Trackpoint>
            <Time>2021-04-03T11:05:07.000Z</Time>
            <Position>
              <LatitudeDegrees>42.300784774124622344970703125</LatitudeDegrees>
              <LongitudeDegrees>2.5192649848759174346923828125</LongitudeDegrees>
            </Position>
            <AltitudeMeters>663.5999755859375</AltitudeMeters>
            <DistanceMeters>NAN</DistanceMeters>
          </Trackpoint>
          <Trackpoint>
            <Time>2021-04-03T11:05:12.000Z</Time>
            <Position>
              <LatitudeDegrees>42.30081184767186641693115234375</LatitudeDegrees>
              <LongitudeDegrees>2.519322820007801055908203125</LongitudeDegrees>
            </Position>
            <AltitudeMeters>663.20001220703125</AltitudeMeters>
            <DistanceMeters>NAN</DistanceMeters>
          </Trackpoint>
          <Trackpoint>
            <Time>2021-04-03T11:05:13.000Z</Time>
            <Position>
              <LatitudeDegrees>42.30081168003380298614501953125</LatitudeDegrees>
              <LongitudeDegrees>2.51933966763317584991455078125</LongitudeDegrees>
            </Position>
            <AltitudeMeters>663.20001220703125</AltitudeMeters>
            <DistanceMeters>NAN</DistanceMeters>
          </Trackpoint>
          <Trackpoint>
            <Time>2021-04-03T11:05:14.000Z</Time>
            <Position>
              <LatitudeDegrees>42.3008117638528347015380859375</LatitudeDegrees>
              <LongitudeDegrees>2.5193528272211551666259765625</LongitudeDegrees>
            </Position>
            <AltitudeMeters>663</AltitudeMeters>
            <DistanceMeters>NAN</DistanceMeters>
          </Trackpoint>
          <Trackpoint>
            <Time>2021-04-03T11:05:17.000Z</Time>
            <Position>
              <LatitudeDegrees>42.300814278423786163330078125</LatitudeDegrees>
              <LongitudeDegrees>2.51938526518642902374267578125</LongitudeDegrees>
            </Position>
            <AltitudeMeters>662.4000244140625</AltitudeMeters>
            <DistanceMeters>NAN</DistanceMeters>
          </Trackpoint>
          <Trackpoint>
            <Time>2021-04-03T11:05:18.000Z</Time>
            <Position>
              <LatitudeDegrees>42.300821654498577117919921875</LatitudeDegrees>
              <LongitudeDegrees>2.51939800567924976348876953125</LongitudeDegrees>
            </Position>
            <AltitudeMeters>662</AltitudeMeters>
            <DistanceMeters>NAN</DistanceMeters>
          </Trackpoint>
          <Trackpoint>
            <Time>2021-04-03T11:05:20.000Z</Time>
            <Position>
              <LatitudeDegrees>42.30082592926919460296630859375</LatitudeDegrees>
              <LongitudeDegrees>2.5194282643496990203857421875</LongitudeDegrees>
            </Position>
            <AltitudeMeters>661.4000244140625</AltitudeMeters>
            <DistanceMeters>NAN</DistanceMeters>
          </Trackpoint>
          <Trackpoint>
            <Time>2021-04-03T11:05:22.000Z</Time>
            <Position>
              <LatitudeDegrees>42.300833724439144134521484375</LatitudeDegrees>
              <LongitudeDegrees>2.5194544158875942230224609375</LongitudeDegrees>
            </Position>
            <AltitudeMeters>661</AltitudeMeters>
            <DistanceMeters>NAN</DistanceMeters>
          </Trackpoint>
          <Trackpoint>
            <Time>2021-04-03T11:05:23.000Z</Time>
            <Position>
              <LatitudeDegrees>42.30083900503814220428466796875</LatitudeDegrees>
              <LongitudeDegrees>2.51946656964719295501708984375</LongitudeDegrees>
            </Position>
            <AltitudeMeters>660.79998779296875</AltitudeMeters>
            <DistanceMeters>NAN</DistanceMeters>
          </Trackpoint>
          <Trackpoint>
            <Time>2021-04-03T11:05:25.000Z</Time>
            <Position>
              <LatitudeDegrees>42.30084118433296680450439453125</LatitudeDegrees>
              <LongitudeDegrees>2.51948819495737552642822265625</LongitudeDegrees>
            </Position>
            <AltitudeMeters>660.79998779296875</AltitudeMeters>
            <DistanceMeters>NAN</DistanceMeters>
          </Trackpoint>
          <Trackpoint>
            <Time>2021-04-03T11:05:26.000Z</Time>
            <Position>
              <LatitudeDegrees>42.300845123827457427978515625</LatitudeDegrees>
              <LongitudeDegrees>2.5194983370602130889892578125</LongitudeDegrees>
            </Position>
            <AltitudeMeters>660.5999755859375</AltitudeMeters>
            <DistanceMeters>NAN</DistanceMeters>
          </Trackpoint>
          <Trackpoint>
            <Time>2021-04-03T11:05:28.000Z</Time>
            <Position>
              <LatitudeDegrees>42.300846464931964874267578125</LatitudeDegrees>
              <LongitudeDegrees>2.5195057131350040435791015625</LongitudeDegrees>
            </Position>
            <AltitudeMeters>660.4000244140625</AltitudeMeters>
            <DistanceMeters>NAN</DistanceMeters>
          </Trackpoint>
          <Trackpoint>
            <Time>2021-04-03T11:05:30.000Z</Time>
            <Position>
              <LatitudeDegrees>42.300852499902248382568359375</LatitudeDegrees>
              <LongitudeDegrees>2.5195161066949367523193359375</LongitudeDegrees>
            </Position>
            <AltitudeMeters>660.20001220703125</AltitudeMeters>
            <DistanceMeters>NAN</DistanceMeters>
          </Trackpoint>
          <Trackpoint>
            <Time>2021-04-03T11:05:31.000Z</Time>
            <Position>
              <LatitudeDegrees>42.30085660703480243682861328125</LatitudeDegrees>
              <LongitudeDegrees>2.5195194594562053680419921875</LongitudeDegrees>
            </Position>
            <AltitudeMeters>660</AltitudeMeters>
            <DistanceMeters>NAN</DistanceMeters>
          </Trackpoint>
          <Trackpoint>
            <Time>2021-04-03T11:05:32.000Z</Time>
            <Position>
              <LatitudeDegrees>42.3008644022047519683837890625</LatitudeDegrees>
              <LongitudeDegrees>2.519526667892932891845703125</LongitudeDegrees>
            </Position>
            <AltitudeMeters>659.79998779296875</AltitudeMeters>
            <DistanceMeters>NAN</DistanceMeters>
          </Trackpoint>
          <Trackpoint>
            <Time>2021-04-03T11:05:33.000Z</Time>
            <Position>
              <LatitudeDegrees>42.30086985044181346893310546875</LatitudeDegrees>
              <LongitudeDegrees>2.519537396728992462158203125</LongitudeDegrees>
            </Position>
            <AltitudeMeters>659.5999755859375</AltitudeMeters>
            <DistanceMeters>NAN</DistanceMeters>
          </Trackpoint>
          <Trackpoint>
            <Time>2021-04-03T11:05:34.000Z</Time>
            <Position>
              <LatitudeDegrees>42.30087337084114551544189453125</LatitudeDegrees>
              <LongitudeDegrees>2.51954837702214717864990234375</LongitudeDegrees>
            </Position>
            <AltitudeMeters>659.4000244140625</AltitudeMeters>
            <DistanceMeters>NAN</DistanceMeters>
          </Trackpoint>
          <Trackpoint>
            <Time>2021-04-03T11:05:36.000Z</Time>
            <Position>
              <LatitudeDegrees>42.3008664138615131378173828125</LatitudeDegrees>
              <LongitudeDegrees>2.5195737741887569427490234375</LongitudeDegrees>
            </Position>
            <AltitudeMeters>659.20001220703125</AltitudeMeters>
            <DistanceMeters>NAN</DistanceMeters>
          </Trackpoint>
          <Trackpoint>
            <Time>2021-04-03T11:05:38.000Z</Time>
            <Position>
              <LatitudeDegrees>42.3008675873279571533203125</LatitudeDegrees>
              <LongitudeDegrees>2.51960218884050846099853515625</LongitudeDegrees>
            </Position>
            <AltitudeMeters>658.5999755859375</AltitudeMeters>
            <DistanceMeters>NAN</DistanceMeters>
          </Trackpoint>
          <Trackpoint>
            <Time>2021-04-03T11:05:39.000Z</Time>
            <Position>
              <LatitudeDegrees>42.30087286792695522308349609375</LatitudeDegrees>
              <LongitudeDegrees>2.51962431706488132476806640625</LongitudeDegrees>
            </Position>
            <AltitudeMeters>658.20001220703125</AltitudeMeters>
            <DistanceMeters>NAN</DistanceMeters>
          </Trackpoint>
          <Trackpoint>
            <Time>2021-04-03T11:05:41.000Z</Time>
            <Position>
              <LatitudeDegrees>42.3008660785853862762451171875</LatitudeDegrees>
              <LongitudeDegrees>2.5196545757353305816650390625</LongitudeDegrees>
            </Position>
            <AltitudeMeters>658</AltitudeMeters>
            <DistanceMeters>NAN</DistanceMeters>
          </Trackpoint>
          <Trackpoint>
            <Time>2021-04-03T11:05:43.000Z</Time>
            <Position>
              <LatitudeDegrees>42.30084906332194805145263671875</LatitudeDegrees>
              <LongitudeDegrees>2.5196778774261474609375</LongitudeDegrees>
            </Position>
            <AltitudeMeters>657.5999755859375</AltitudeMeters>
            <DistanceMeters>NAN</DistanceMeters>
          </Trackpoint>
          <Trackpoint>
            <Time>2021-04-03T11:05:44.000Z</Time>
            <Position>
              <LatitudeDegrees>42.30083615519106388092041015625</LatitudeDegrees>
              <LongitudeDegrees>2.51969036646187305450439453125</LongitudeDegrees>
            </Position>
            <AltitudeMeters>657.4000244140625</AltitudeMeters>
            <DistanceMeters>NAN</DistanceMeters>
          </Trackpoint>
          <Trackpoint>
            <Time>2021-04-03T11:05:46.000Z</Time>
            <Position>
              <LatitudeDegrees>42.30083213187754154205322265625</LatitudeDegrees>
              <LongitudeDegrees>2.519730515778064727783203125</LongitudeDegrees>
            </Position>
            <AltitudeMeters>657.20001220703125</AltitudeMeters>
            <DistanceMeters>NAN</DistanceMeters>
          </Trackpoint>
          <Trackpoint>
            <Time>2021-04-03T11:05:47.000Z</Time>
            <Position>
              <LatitudeDegrees>42.30083414353430271148681640625</LatitudeDegrees>
              <LongitudeDegrees>2.51974618993699550628662109375</LongitudeDegrees>
            </Position>
            <AltitudeMeters>657</AltitudeMeters>
            <DistanceMeters>NAN</DistanceMeters>
          </Trackpoint>
          <Trackpoint>
            <Time>2021-04-03T11:05:48.000Z</Time>
            <Position>
              <LatitudeDegrees>42.300832383334636688232421875</LatitudeDegrees>
              <LongitudeDegrees>2.51976563595235347747802734375</LongitudeDegrees>
            </Position>
            <AltitudeMeters>657</AltitudeMeters>
            <DistanceMeters>NAN</DistanceMeters>
          </Trackpoint>
          <Trackpoint>
            <Time>2021-04-03T11:05:50.000Z</Time>
            <Position>
              <LatitudeDegrees>42.3008380830287933349609375</LatitudeDegrees>
              <LongitudeDegrees>2.5197980739176273345947265625</LongitudeDegrees>
            </Position>
            <AltitudeMeters>656.79998779296875</AltitudeMeters>
            <DistanceMeters>NAN</DistanceMeters>
          </Trackpoint>
          <Trackpoint>
            <Time>2021-04-03T11:05:52.000Z</Time>
            <Position>
              <LatitudeDegrees>42.3008459620177745819091796875</LatitudeDegrees>
              <LongitudeDegrees>2.519817017018795013427734375</LongitudeDegrees>
            </Position>
            <AltitudeMeters>656.4000244140625</AltitudeMeters>
            <DistanceMeters>NAN</DistanceMeters>
          </Trackpoint>
          <Trackpoint>
            <Time>2021-04-03T11:05:53.000Z</Time>
            <Position>
              <LatitudeDegrees>42.30084822513163089752197265625</LatitudeDegrees>
              <LongitudeDegrees>2.51982782967388629913330078125</LongitudeDegrees>
            </Position>
            <AltitudeMeters>656</AltitudeMeters>
            <DistanceMeters>NAN</DistanceMeters>
          </Trackpoint>
          <Trackpoint>
            <Time>2021-04-03T11:05:55.000Z</Time>
            <Position>
              <LatitudeDegrees>42.3008426092565059661865234375</LatitudeDegrees>
              <LongitudeDegrees>2.5198507122695446014404296875</LongitudeDegrees>
            </Position>
            <AltitudeMeters>655.79998779296875</AltitudeMeters>
            <DistanceMeters>NAN</DistanceMeters>
          </Trackpoint>
          <Trackpoint>
            <Time>2021-04-03T11:05:57.000Z</Time>
            <Position>
              <LatitudeDegrees>42.3008422739803791046142578125</LatitudeDegrees>
              <LongitudeDegrees>2.5198768638074398040771484375</LongitudeDegrees>
            </Position>
            <AltitudeMeters>655.5999755859375</AltitudeMeters>
            <DistanceMeters>NAN</DistanceMeters>
          </Trackpoint>
          <Trackpoint>
            <Time>2021-04-03T11:06:00.000Z</Time>
            <Position>
              <LatitudeDegrees>42.3008476383984088897705078125</LatitudeDegrees>
              <LongitudeDegrees>2.51990896649658679962158203125</LongitudeDegrees>
            </Position>
            <AltitudeMeters>655.4000244140625</AltitudeMeters>
            <DistanceMeters>NAN</DistanceMeters>
          </Trackpoint>
          <Trackpoint>
            <Time>2021-04-03T11:06:01.000Z</Time>
            <Position>
              <LatitudeDegrees>42.30084788985550403594970703125</LatitudeDegrees>
              <LongitudeDegrees>2.519914247095584869384765625</LongitudeDegrees>
            </Position>
            <AltitudeMeters>655.4000244140625</AltitudeMeters>
            <DistanceMeters>NAN</DistanceMeters>
          </Trackpoint>
          <Trackpoint>
            <Time>2021-04-03T11:06:03.000Z</Time>
            <Position>
              <LatitudeDegrees>42.30085627175867557525634765625</LatitudeDegrees>
              <LongitudeDegrees>2.51993109472095966339111328125</LongitudeDegrees>
            </Position>
            <AltitudeMeters>655.4000244140625</AltitudeMeters>
            <DistanceMeters>NAN</DistanceMeters>
          </Trackpoint>
          <Trackpoint>
            <Time>2021-04-03T11:06:04.000Z</Time>
            <Position>
              <LatitudeDegrees>42.30086163617670536041259765625</LatitudeDegrees>
              <LongitudeDegrees>2.51994031481444835662841796875</LongitudeDegrees>
            </Position>
            <AltitudeMeters>655.4000244140625</AltitudeMeters>
            <DistanceMeters>NAN</DistanceMeters>
          </Trackpoint>
          <Trackpoint>
            <Time>2021-04-03T11:06:06.000Z</Time>
            <Position>
              <LatitudeDegrees>42.30086633004248142242431640625</LatitudeDegrees>
              <LongitudeDegrees>2.519960515201091766357421875</LongitudeDegrees>
            </Position>
            <AltitudeMeters>655.5999755859375</AltitudeMeters>
            <DistanceMeters>NAN</DistanceMeters>
          </Trackpoint>
          <Trackpoint>
            <Time>2021-04-03T11:06:08.000Z</Time>
            <Position>
              <LatitudeDegrees>42.3008697666227817535400390625</LatitudeDegrees>
              <LongitudeDegrees>2.51997317187488079071044921875</LongitudeDegrees>
            </Position>
            <AltitudeMeters>655.79998779296875</AltitudeMeters>
            <DistanceMeters>NAN</DistanceMeters>
          </Trackpoint>
          <Trackpoint>
            <Time>2021-04-03T11:06:10.000Z</Time>
            <Position>
              <LatitudeDegrees>42.3008761368691921234130859375</LatitudeDegrees>
              <LongitudeDegrees>2.5199875049293041229248046875</LongitudeDegrees>
            </Position>
            <AltitudeMeters>656</AltitudeMeters>
            <DistanceMeters>NAN</DistanceMeters>
          </Trackpoint>
          <Trackpoint>
            <Time>2021-04-03T11:06:11.000Z</Time>
            <Position>
              <LatitudeDegrees>42.30087923817336559295654296875</LatitudeDegrees>
              <LongitudeDegrees>2.5200010836124420166015625</LongitudeDegrees>
            </Position>
            <AltitudeMeters>656</AltitudeMeters>
            <DistanceMeters>NAN</DistanceMeters>
          </Trackpoint>
          <Trackpoint>
            <Time>2021-04-03T11:06:13.000Z</Time>
            <Position>
              <LatitudeDegrees>42.30088728480041027069091796875</LatitudeDegrees>
              <LongitudeDegrees>2.5200280733406543731689453125</LongitudeDegrees>
            </Position>
            <AltitudeMeters>656.20001220703125</AltitudeMeters>
            <DistanceMeters>NAN</DistanceMeters>
          </Trackpoint>
          <Trackpoint>
            <Time>2021-04-03T11:06:17.000Z</Time>
            <Position>
              <LatitudeDegrees>42.3008915595710277557373046875</LatitudeDegrees>
              <LongitudeDegrees>2.52006612718105316162109375</LongitudeDegrees>
            </Position>
            <AltitudeMeters>656.4000244140625</AltitudeMeters>
            <DistanceMeters>NAN</DistanceMeters>
          </Trackpoint>
          <Trackpoint>
            <Time>2021-04-03T11:06:18.000Z</Time>
            <Position>
              <LatitudeDegrees>42.3008902184665203094482421875</LatitudeDegrees>
              <LongitudeDegrees>2.5200719945132732391357421875</LongitudeDegrees>
            </Position>
            <AltitudeMeters>656.4000244140625</AltitudeMeters>
            <DistanceMeters>NAN</DistanceMeters>
          </Trackpoint>
          <Trackpoint>
            <Time>2021-04-03T11:06:20.000Z</Time>
            <Position>
              <LatitudeDegrees>42.30089373886585235595703125</LatitudeDegrees>
              <LongitudeDegrees>2.5200895965099334716796875</LongitudeDegrees>
            </Position>
            <AltitudeMeters>656.4000244140625</AltitudeMeters>
            <DistanceMeters>NAN</DistanceMeters>
          </Trackpoint>
          <Trackpoint>
            <Time>2021-04-03T11:06:22.000Z</Time>
            <Position>
              <LatitudeDegrees>42.300908155739307403564453125</LatitudeDegrees>
              <LongitudeDegrees>2.520127482712268829345703125</LongitudeDegrees>
            </Position>
            <AltitudeMeters>656.5999755859375</AltitudeMeters>
            <DistanceMeters>NAN</DistanceMeters>
          </Trackpoint>
          <Trackpoint>
            <Time>2021-04-03T11:06:25.000Z</Time>
            <Position>
              <LatitudeDegrees>42.30092994868755340576171875</LatitudeDegrees>
              <LongitudeDegrees>2.520171068608760833740234375</LongitudeDegrees>
            </Position>
            <AltitudeMeters>656.4000244140625</AltitudeMeters>
            <DistanceMeters>NAN</DistanceMeters>
          </Trackpoint>
          <Trackpoint>
            <Time>2021-04-03T11:06:27.000Z</Time>
            <Position>
              <LatitudeDegrees>42.30093657039105892181396484375</LatitudeDegrees>
              <LongitudeDegrees>2.52019076608121395111083984375</LongitudeDegrees>
            </Position>
            <AltitudeMeters>656.5999755859375</AltitudeMeters>
            <DistanceMeters>NAN</DistanceMeters>
          </Trackpoint>
          <Trackpoint>
            <Time>2021-04-03T11:06:28.000Z</Time>
            <Position>
              <LatitudeDegrees>42.3009398393332958221435546875</LatitudeDegrees>
              <LongitudeDegrees>2.520198561251163482666015625</LongitudeDegrees>
            </Position>
            <AltitudeMeters>656.79998779296875</AltitudeMeters>
            <DistanceMeters>NAN</DistanceMeters>
          </Trackpoint>
          <Trackpoint>
            <Time>2021-04-03T11:06:30.000Z</Time>
            <Position>
              <LatitudeDegrees>42.3009408451616764068603515625</LatitudeDegrees>
              <LongitudeDegrees>2.520218677818775177001953125</LongitudeDegrees>
            </Position>
            <AltitudeMeters>656.79998779296875</AltitudeMeters>
            <DistanceMeters>NAN</DistanceMeters>
          </Trackpoint>
          <Trackpoint>
            <Time>2021-04-03T11:06:32.000Z</Time>
            <Position>
              <LatitudeDegrees>42.30094126425683498382568359375</LatitudeDegrees>
              <LongitudeDegrees>2.52024114131927490234375</LongitudeDegrees>
            </Position>
            <AltitudeMeters>657</AltitudeMeters>
            <DistanceMeters>NAN</DistanceMeters>
          </Trackpoint>
          <Trackpoint>
            <Time>2021-04-03T11:06:33.000Z</Time>
            <Position>
              <LatitudeDegrees>42.3009411804378032684326171875</LatitudeDegrees>
              <LongitudeDegrees>2.5202527083456516265869140625</LongitudeDegrees>
            </Position>
            <AltitudeMeters>657.20001220703125</AltitudeMeters>
            <DistanceMeters>NAN</DistanceMeters>
          </Trackpoint>
          <Trackpoint>
            <Time>2021-04-03T11:06:34.000Z</Time>
            <Position>
              <LatitudeDegrees>42.3009415157139301300048828125</LatitudeDegrees>
              <LongitudeDegrees>2.52026871778070926666259765625</LongitudeDegrees>
            </Position>
            <AltitudeMeters>657.20001220703125</AltitudeMeters>
            <DistanceMeters>NAN</DistanceMeters>
          </Trackpoint>
          <Trackpoint>
            <Time>2021-04-03T11:06:35.000Z</Time>
            <Position>
              <LatitudeDegrees>42.30093774385750293731689453125</LatitudeDegrees>
              <LongitudeDegrees>2.520286738872528076171875</LongitudeDegrees>
            </Position>
            <AltitudeMeters>657.4000244140625</AltitudeMeters>
            <DistanceMeters>NAN</DistanceMeters>
          </Trackpoint>
          <Trackpoint>
            <Time>2021-04-03T11:06:40.000Z</Time>
            <Position>
              <LatitudeDegrees>42.300960458815097808837890625</LatitudeDegrees>
              <LongitudeDegrees>2.5203288160264492034912109375</LongitudeDegrees>
            </Position>
            <AltitudeMeters>657.79998779296875</AltitudeMeters>
            <DistanceMeters>NAN</DistanceMeters>
          </Trackpoint>
          <Trackpoint>
            <Time>2021-04-03T11:06:42.000Z</Time>
            <Position>
              <LatitudeDegrees>42.300970852375030517578125</LatitudeDegrees>
              <LongitudeDegrees>2.520341388881206512451171875</LongitudeDegrees>
            </Position>
            <AltitudeMeters>657.79998779296875</AltitudeMeters>
            <DistanceMeters>NAN</DistanceMeters>
          </Trackpoint>
          <Trackpoint>
            <Time>2021-04-03T11:06:45.000Z</Time>
            <Position>
              <LatitudeDegrees>42.3009881190955638885498046875</LatitudeDegrees>
              <LongitudeDegrees>2.5203569792211055755615234375</LongitudeDegrees>
            </Position>
            <AltitudeMeters>657.79998779296875</AltitudeMeters>
            <DistanceMeters>NAN</DistanceMeters>
          </Trackpoint>
          <Trackpoint>
            <Time>2021-04-03T11:06:49.000Z</Time>
            <Position>
              <LatitudeDegrees>42.30102122761309146881103515625</LatitudeDegrees>
              <LongitudeDegrees>2.52038556151092052459716796875</LongitudeDegrees>
            </Position>
            <AltitudeMeters>657.79998779296875</AltitudeMeters>
            <DistanceMeters>NAN</DistanceMeters>
          </Trackpoint>
          <Trackpoint>
            <Time>2021-04-03T11:06:54.000Z</Time>
            <Position>
              <LatitudeDegrees>42.30104335583746433258056640625</LatitudeDegrees>
              <LongitudeDegrees>2.520428560674190521240234375</LongitudeDegrees>
            </Position>
            <AltitudeMeters>657.5999755859375</AltitudeMeters>
            <DistanceMeters>NAN</DistanceMeters>
          </Trackpoint>
          <Trackpoint>
            <Time>2021-04-03T11:06:56.000Z</Time>
            <Position>
              <LatitudeDegrees>42.30105827562510967254638671875</LatitudeDegrees>
              <LongitudeDegrees>2.5204461626708507537841796875</LongitudeDegrees>
            </Position>
            <AltitudeMeters>657.5999755859375</AltitudeMeters>
            <DistanceMeters>NAN</DistanceMeters>
          </Trackpoint>
          <Trackpoint>
            <Time>2021-04-03T11:06:57.000Z</Time>
            <Position>
              <LatitudeDegrees>42.30106229893863201141357421875</LatitudeDegrees>
              <LongitudeDegrees>2.52045370638370513916015625</LongitudeDegrees>
            </Position>
            <AltitudeMeters>657.5999755859375</AltitudeMeters>
            <DistanceMeters>NAN</DistanceMeters>
          </Trackpoint>
          <Trackpoint>
            <Time>2021-04-03T11:06:59.000Z</Time>
            <Position>
              <LatitudeDegrees>42.3010714352130889892578125</LatitudeDegrees>
              <LongitudeDegrees>2.52047072164714336395263671875</LongitudeDegrees>
            </Position>
            <AltitudeMeters>657.5999755859375</AltitudeMeters>
            <DistanceMeters>NAN</DistanceMeters>
          </Trackpoint>
          <Trackpoint>
            <Time>2021-04-03T11:07:02.000Z</Time>
            <Position>
              <LatitudeDegrees>42.30106900446116924285888671875</LatitudeDegrees>
              <LongitudeDegrees>2.52051162533462047576904296875</LongitudeDegrees>
            </Position>
            <AltitudeMeters>657.5999755859375</AltitudeMeters>
            <DistanceMeters>NAN</DistanceMeters>
          </Trackpoint>
          <Trackpoint>
            <Time>2021-04-03T11:07:03.000Z</Time>
            <Position>
              <LatitudeDegrees>42.30107604525983333587646484375</LatitudeDegrees>
              <LongitudeDegrees>2.52051313407719135284423828125</LongitudeDegrees>
            </Position>
            <AltitudeMeters>657.5999755859375</AltitudeMeters>
            <DistanceMeters>NAN</DistanceMeters>
          </Trackpoint>
          <Trackpoint>
            <Time>2021-04-03T11:07:06.000Z</Time>
            <Position>
              <LatitudeDegrees>42.3011004365980625152587890625</LatitudeDegrees>
              <LongitudeDegrees>2.5205132178962230682373046875</LongitudeDegrees>
            </Position>
            <AltitudeMeters>657.5999755859375</AltitudeMeters>
            <DistanceMeters>NAN</DistanceMeters>
          </Trackpoint>
          <Trackpoint>
            <Time>2021-04-03T11:07:09.000Z</Time>
            <Position>
              <LatitudeDegrees>42.30113446712493896484375</LatitudeDegrees>
              <LongitudeDegrees>2.52054615877568721771240234375</LongitudeDegrees>
            </Position>
            <AltitudeMeters>657.79998779296875</AltitudeMeters>
            <DistanceMeters>NAN</DistanceMeters>
          </Trackpoint>
          <Trackpoint>
            <Time>2021-04-03T11:07:15.000Z</Time>
            <Position>
              <LatitudeDegrees>42.30116371996700763702392578125</LatitudeDegrees>
              <LongitudeDegrees>2.52059745602309703826904296875</LongitudeDegrees>
            </Position>
            <AltitudeMeters>658.20001220703125</AltitudeMeters>
            <DistanceMeters>NAN</DistanceMeters>
          </Trackpoint>
          <Trackpoint>
            <Time>2021-04-03T11:07:17.000Z</Time>
            <Position>
              <LatitudeDegrees>42.30117377825081348419189453125</LatitudeDegrees>
              <LongitudeDegrees>2.52061019651591777801513671875</LongitudeDegrees>
            </Position>
            <AltitudeMeters>658.20001220703125</AltitudeMeters>
            <DistanceMeters>NAN</DistanceMeters>
          </Trackpoint>
          <Trackpoint>
            <Time>2021-04-03T11:07:19.000Z</Time>
            <Position>
              <LatitudeDegrees>42.30119054205715656280517578125</LatitudeDegrees>
              <LongitudeDegrees>2.52061589621007442474365234375</LongitudeDegrees>
            </Position>
            <AltitudeMeters>658.4000244140625</AltitudeMeters>
            <DistanceMeters>NAN</DistanceMeters>
          </Trackpoint>
          <Trackpoint>
            <Time>2021-04-03T11:07:20.000Z</Time>
            <Position>
              <LatitudeDegrees>42.301206551492214202880859375</LatitudeDegrees>
              <LongitudeDegrees>2.52061421982944011688232421875</LongitudeDegrees>
            </Position>
            <AltitudeMeters>658.4000244140625</AltitudeMeters>
            <DistanceMeters>NAN</DistanceMeters>
          </Trackpoint>
          <Trackpoint>
            <Time>2021-04-03T11:07:23.000Z</Time>
            <Position>
              <LatitudeDegrees>42.3012308590114116668701171875</LatitudeDegrees>
              <LongitudeDegrees>2.52060684375464916229248046875</LongitudeDegrees>
            </Position>
            <AltitudeMeters>658.5999755859375</AltitudeMeters>
            <DistanceMeters>NAN</DistanceMeters>
          </Trackpoint>
          <Trackpoint>
            <Time>2021-04-03T11:07:25.000Z</Time>
            <Position>
              <LatitudeDegrees>42.30123144574463367462158203125</LatitudeDegrees>
              <LongitudeDegrees>2.52060583792626857757568359375</LongitudeDegrees>
            </Position>
            <AltitudeMeters>658.79998779296875</AltitudeMeters>
            <DistanceMeters>NAN</DistanceMeters>
          </Trackpoint>
          <Trackpoint>
            <Time>2021-04-03T11:07:27.000Z</Time>
            <Position>
              <LatitudeDegrees>42.301239073276519775390625</LatitudeDegrees>
              <LongitudeDegrees>2.52060013823211193084716796875</LongitudeDegrees>
            </Position>
            <AltitudeMeters>658.79998779296875</AltitudeMeters>
            <DistanceMeters>NAN</DistanceMeters>
          </Trackpoint>
          <Trackpoint>
            <Time>2021-04-03T11:07:31.000Z</Time>
            <Position>
              <LatitudeDegrees>42.301269583404064178466796875</LatitudeDegrees>
              <LongitudeDegrees>2.52059326507151126861572265625</LongitudeDegrees>
            </Position>
            <AltitudeMeters>658.79998779296875</AltitudeMeters>
            <DistanceMeters>NAN</DistanceMeters>
          </Trackpoint>
          <Trackpoint>
            <Time>2021-04-03T11:07:32.000Z</Time>
            <Position>
              <LatitudeDegrees>42.30127536691725254058837890625</LatitudeDegrees>
              <LongitudeDegrees>2.520592175424098968505859375</LongitudeDegrees>
            </Position>
            <AltitudeMeters>658.79998779296875</AltitudeMeters>
            <DistanceMeters>NAN</DistanceMeters>
          </Trackpoint>
          <Trackpoint>
            <Time>2021-04-03T11:07:33.000Z</Time>
            <Position>
              <LatitudeDegrees>42.3012801446020603179931640625</LatitudeDegrees>
              <LongitudeDegrees>2.5205923430621623992919921875</LongitudeDegrees>
            </Position>
            <AltitudeMeters>658.5999755859375</AltitudeMeters>
            <DistanceMeters>NAN</DistanceMeters>
          </Trackpoint>
          <Trackpoint>
            <Time>2021-04-03T11:07:38.000Z</Time>
            <Position>
              <LatitudeDegrees>42.301318533718585968017578125</LatitudeDegrees>
              <LongitudeDegrees>2.520592510700225830078125</LongitudeDegrees>
            </Position>
            <AltitudeMeters>658.20001220703125</AltitudeMeters>
            <DistanceMeters>NAN</DistanceMeters>
          </Trackpoint>
          <Trackpoint>
            <Time>2021-04-03T11:07:39.000Z</Time>
            <Position>
              <LatitudeDegrees>42.30132532306015491485595703125</LatitudeDegrees>
              <LongitudeDegrees>2.52059318125247955322265625</LongitudeDegrees>
            </Position>
            <AltitudeMeters>658</AltitudeMeters>
            <DistanceMeters>NAN</DistanceMeters>
          </Trackpoint>
          <Trackpoint>
            <Time>2021-04-03T11:07:42.000Z</Time>
            <Position>
              <LatitudeDegrees>42.30134678073227405548095703125</LatitudeDegrees>
              <LongitudeDegrees>2.5206020660698413848876953125</LongitudeDegrees>
            </Position>
            <AltitudeMeters>657.4000244140625</AltitudeMeters>
            <DistanceMeters>NAN</DistanceMeters>
          </Trackpoint>
          <Trackpoint>
            <Time>2021-04-03T11:07:46.000Z</Time>
            <Position>
              <LatitudeDegrees>42.3013750277459621429443359375</LatitudeDegrees>
              <LongitudeDegrees>2.520599551498889923095703125</LongitudeDegrees>
            </Position>
            <AltitudeMeters>656.5999755859375</AltitudeMeters>
            <DistanceMeters>NAN</DistanceMeters>
          </Trackpoint>
          <Trackpoint>
            <Time>2021-04-03T11:07:47.000Z</Time>
            <Position>
              <LatitudeDegrees>42.30138014070689678192138671875</LatitudeDegrees>
              <LongitudeDegrees>2.52059376798570156097412109375</LongitudeDegrees>
            </Position>
            <AltitudeMeters>656.4000244140625</AltitudeMeters>
            <DistanceMeters>NAN</DistanceMeters>
          </Trackpoint>
          <Trackpoint>
            <Time>2021-04-03T11:07:48.000Z</Time>
            <Position>
              <LatitudeDegrees>42.301384918391704559326171875</LatitudeDegrees>
              <LongitudeDegrees>2.52058706246316432952880859375</LongitudeDegrees>
            </Position>
            <AltitudeMeters>656.4000244140625</AltitudeMeters>
            <DistanceMeters>NAN</DistanceMeters>
          </Trackpoint>
          <Trackpoint>
            <Time>2021-04-03T11:07:52.000Z</Time>
            <Position>
              <LatitudeDegrees>42.30142205022275447845458984375</LatitudeDegrees>
              <LongitudeDegrees>2.5205608271062374114990234375</LongitudeDegrees>
            </Position>
            <AltitudeMeters>656.20001220703125</AltitudeMeters>
            <DistanceMeters>NAN</DistanceMeters>
          </Trackpoint>
          <Trackpoint>
            <Time>2021-04-03T11:07:54.000Z</Time>
            <Position>
              <LatitudeDegrees>42.30143881402909755706787109375</LatitudeDegrees>
              <LongitudeDegrees>2.52054716460406780242919921875</LongitudeDegrees>
            </Position>
            <AltitudeMeters>656.20001220703125</AltitudeMeters>
            <DistanceMeters>NAN</DistanceMeters>
          </Trackpoint>
          <Trackpoint>
            <Time>2021-04-03T11:07:58.000Z</Time>
            <Position>
              <LatitudeDegrees>42.301460690796375274658203125</LatitudeDegrees>
              <LongitudeDegrees>2.52052076160907745361328125</LongitudeDegrees>
            </Position>
            <AltitudeMeters>656</AltitudeMeters>
            <DistanceMeters>NAN</DistanceMeters>
          </Trackpoint>
          <Trackpoint>
            <Time>2021-04-03T11:08:01.000Z</Time>
            <Position>
              <LatitudeDegrees>42.301474772393703460693359375</LatitudeDegrees>
              <LongitudeDegrees>2.52050441689789295196533203125</LongitudeDegrees>
            </Position>
            <AltitudeMeters>656.20001220703125</AltitudeMeters>
            <DistanceMeters>NAN</DistanceMeters>
          </Trackpoint>
          <Trackpoint>
            <Time>2021-04-03T11:08:04.000Z</Time>
            <Position>
              <LatitudeDegrees>42.3014829866588115692138671875</LatitudeDegrees>
              <LongitudeDegrees>2.5204739905893802642822265625</LongitudeDegrees>
            </Position>
            <AltitudeMeters>656.20001220703125</AltitudeMeters>
            <DistanceMeters>NAN</DistanceMeters>
          </Trackpoint>
          <Trackpoint>
            <Time>2021-04-03T11:08:07.000Z</Time>
            <Position>
              <LatitudeDegrees>42.30149145238101482391357421875</LatitudeDegrees>
              <LongitudeDegrees>2.52045446075499057769775390625</LongitudeDegrees>
            </Position>
            <AltitudeMeters>656.4000244140625</AltitudeMeters>
            <DistanceMeters>NAN</DistanceMeters>
          </Trackpoint>
          <Trackpoint>
            <Time>2021-04-03T11:08:09.000Z</Time>
            <Position>
              <LatitudeDegrees>42.30150167830288410186767578125</LatitudeDegrees>
              <LongitudeDegrees>2.520439960062503814697265625</LongitudeDegrees>
            </Position>
            <AltitudeMeters>656.4000244140625</AltitudeMeters>
            <DistanceMeters>NAN</DistanceMeters>
          </Trackpoint>
          <Trackpoint>
            <Time>2021-04-03T11:08:10.000Z</Time>
            <Position>
              <LatitudeDegrees>42.301506958901882171630859375</LatitudeDegrees>
              <LongitudeDegrees>2.52042981795966625213623046875</LongitudeDegrees>
            </Position>
            <AltitudeMeters>656.4000244140625</AltitudeMeters>
            <DistanceMeters>NAN</DistanceMeters>
          </Trackpoint>
          <Trackpoint>
            <Time>2021-04-03T11:08:12.000Z</Time>
            <Position>
              <LatitudeDegrees>42.30151022784411907196044921875</LatitudeDegrees>
              <LongitudeDegrees>2.52040668390691280364990234375</LongitudeDegrees>
            </Position>
            <AltitudeMeters>656.4000244140625</AltitudeMeters>
            <DistanceMeters>NAN</DistanceMeters>
          </Trackpoint>
          <Trackpoint>
            <Time>2021-04-03T11:08:15.000Z</Time>
            <Position>
              <LatitudeDegrees>42.3015282489359378814697265625</LatitudeDegrees>
              <LongitudeDegrees>2.52038120292127132415771484375</LongitudeDegrees>
            </Position>
            <AltitudeMeters>656.4000244140625</AltitudeMeters>
            <DistanceMeters>NAN</DistanceMeters>
          </Trackpoint>
          <Trackpoint>
            <Time>2021-04-03T11:08:18.000Z</Time>
            <Position>
              <LatitudeDegrees>42.3015456832945346832275390625</LatitudeDegrees>
              <LongitudeDegrees>2.5203444063663482666015625</LongitudeDegrees>
            </Position>
            <AltitudeMeters>656.5999755859375</AltitudeMeters>
            <DistanceMeters>NAN</DistanceMeters>
          </Trackpoint>
          <Trackpoint>
            <Time>2021-04-03T11:08:21.000Z</Time>
            <Position>
              <LatitudeDegrees>42.30155616067349910736083984375</LatitudeDegrees>
              <LongitudeDegrees>2.52031180076301097869873046875</LongitudeDegrees>
            </Position>
            <AltitudeMeters>656.5999755859375</AltitudeMeters>
            <DistanceMeters>NAN</DistanceMeters>
          </Trackpoint>
          <Trackpoint>
            <Time>2021-04-03T11:08:23.000Z</Time>
            <Position>
              <LatitudeDegrees>42.30154878459870815277099609375</LatitudeDegrees>
              <LongitudeDegrees>2.52028263173997402191162109375</LongitudeDegrees>
            </Position>
            <AltitudeMeters>657</AltitudeMeters>
            <DistanceMeters>NAN</DistanceMeters>
          </Trackpoint>
          <Trackpoint>
            <Time>2021-04-03T11:08:24.000Z</Time>
            <Position>
              <LatitudeDegrees>42.3015490360558032989501953125</LatitudeDegrees>
              <LongitudeDegrees>2.52027240581810474395751953125</LongitudeDegrees>
            </Position>
            <AltitudeMeters>657.20001220703125</AltitudeMeters>
            <DistanceMeters>NAN</DistanceMeters>
          </Trackpoint>
          <Trackpoint>
            <Time>2021-04-03T11:08:29.000Z</Time>
            <Position>
              <LatitudeDegrees>42.3015932925045490264892578125</LatitudeDegrees>
              <LongitudeDegrees>2.5202205218374729156494140625</LongitudeDegrees>
            </Position>
            <AltitudeMeters>657.4000244140625</AltitudeMeters>
            <DistanceMeters>NAN</DistanceMeters>
          </Trackpoint>
          <Trackpoint>
            <Time>2021-04-03T11:08:31.000Z</Time>
            <Position>
              <LatitudeDegrees>42.301605530083179473876953125</LatitudeDegrees>
              <LongitudeDegrees>2.520207948982715606689453125</LongitudeDegrees>
            </Position>
            <AltitudeMeters>657.79998779296875</AltitudeMeters>
            <DistanceMeters>NAN</DistanceMeters>
          </Trackpoint>
          <Trackpoint>
            <Time>2021-04-03T11:08:33.000Z</Time>
            <Position>
              <LatitudeDegrees>42.30161684565246105194091796875</LatitudeDegrees>
              <LongitudeDegrees>2.5201823003590106964111328125</LongitudeDegrees>
            </Position>
            <AltitudeMeters>657.79998779296875</AltitudeMeters>
            <DistanceMeters>NAN</DistanceMeters>
          </Trackpoint>
          <Trackpoint>
            <Time>2021-04-03T11:08:35.000Z</Time>
            <Position>
              <LatitudeDegrees>42.3016264848411083221435546875</LatitudeDegrees>
              <LongitudeDegrees>2.52016243524849414825439453125</LongitudeDegrees>
            </Position>
            <AltitudeMeters>657.79998779296875</AltitudeMeters>
            <DistanceMeters>NAN</DistanceMeters>
          </Trackpoint>
          <Trackpoint>
            <Time>2021-04-03T11:08:38.000Z</Time>
            <Position>
              <LatitudeDegrees>42.30164785869419574737548828125</LatitudeDegrees>
              <LongitudeDegrees>2.52013460732996463775634765625</LongitudeDegrees>
            </Position>
            <AltitudeMeters>658</AltitudeMeters>
            <DistanceMeters>NAN</DistanceMeters>
          </Trackpoint>
          <Trackpoint>
            <Time>2021-04-03T11:08:39.000Z</Time>
            <Position>
              <LatitudeDegrees>42.30165355838835239410400390625</LatitudeDegrees>
              <LongitudeDegrees>2.5201222859323024749755859375</LongitudeDegrees>
            </Position>
            <AltitudeMeters>658.20001220703125</AltitudeMeters>
            <DistanceMeters>NAN</DistanceMeters>
          </Trackpoint>
          <Trackpoint>
            <Time>2021-04-03T11:08:42.000Z</Time>
            <Position>
              <LatitudeDegrees>42.3016714118421077728271484375</LatitudeDegrees>
              <LongitudeDegrees>2.52009169198572635650634765625</LongitudeDegrees>
            </Position>
            <AltitudeMeters>658.5999755859375</AltitudeMeters>
            <DistanceMeters>NAN</DistanceMeters>
          </Trackpoint>
          <Trackpoint>
            <Time>2021-04-03T11:08:43.000Z</Time>
            <Position>
              <LatitudeDegrees>42.301676608622074127197265625</LatitudeDegrees>
              <LongitudeDegrees>2.520083896815776824951171875</LongitudeDegrees>
            </Position>
            <AltitudeMeters>658.5999755859375</AltitudeMeters>
            <DistanceMeters>NAN</DistanceMeters>
          </Trackpoint>
          <Trackpoint>
            <Time>2021-04-03T11:08:46.000Z</Time>
            <Position>
              <LatitudeDegrees>42.30168926529586315155029296875</LatitudeDegrees>
              <LongitudeDegrees>2.52004659734666347503662109375</LongitudeDegrees>
            </Position>
            <AltitudeMeters>658.79998779296875</AltitudeMeters>
            <DistanceMeters>NAN</DistanceMeters>
          </Trackpoint>
          <Trackpoint>
            <Time>2021-04-03T11:08:47.000Z</Time>
            <Position>
              <LatitudeDegrees>42.3016945458948612213134765625</LatitudeDegrees>
              <LongitudeDegrees>2.5200305879116058349609375</LongitudeDegrees>
            </Position>
            <AltitudeMeters>658.79998779296875</AltitudeMeters>
            <DistanceMeters>NAN</DistanceMeters>
          </Trackpoint>
          <Trackpoint>
            <Time>2021-04-03T11:08:52.000Z</Time>
            <Position>
              <LatitudeDegrees>42.30169798247516155242919921875</LatitudeDegrees>
              <LongitudeDegrees>2.51998004503548145294189453125</LongitudeDegrees>
            </Position>
            <AltitudeMeters>658.4000244140625</AltitudeMeters>
            <DistanceMeters>NAN</DistanceMeters>
          </Trackpoint>
          <Trackpoint>
            <Time>2021-04-03T11:08:58.000Z</Time>
            <Position>
              <LatitudeDegrees>42.30176151730120182037353515625</LatitudeDegrees>
              <LongitudeDegrees>2.51995657570660114288330078125</LongitudeDegrees>
            </Position>
            <AltitudeMeters>658</AltitudeMeters>
            <DistanceMeters>NAN</DistanceMeters>
          </Trackpoint>
          <Trackpoint>
            <Time>2021-04-03T11:09:03.000Z</Time>
            <Position>
              <LatitudeDegrees>42.3017951287329196929931640625</LatitudeDegrees>
              <LongitudeDegrees>2.51990142278373241424560546875</LongitudeDegrees>
            </Position>
            <AltitudeMeters>657.79998779296875</AltitudeMeters>
            <DistanceMeters>NAN</DistanceMeters>
          </Trackpoint>
          <Trackpoint>
            <Time>2021-04-03T11:09:07.000Z</Time>
            <Position>
              <LatitudeDegrees>42.3018036782741546630859375</LatitudeDegrees>
              <LongitudeDegrees>2.5198557414114475250244140625</LongitudeDegrees>
            </Position>
            <AltitudeMeters>657.5999755859375</AltitudeMeters>
            <DistanceMeters>NAN</DistanceMeters>
          </Trackpoint>
          <Trackpoint>
            <Time>2021-04-03T11:09:08.000Z</Time>
            <Position>
              <LatitudeDegrees>42.301813401281833648681640625</LatitudeDegrees>
              <LongitudeDegrees>2.5198495388031005859375</LongitudeDegrees>
            </Position>
            <AltitudeMeters>657.4000244140625</AltitudeMeters>
            <DistanceMeters>NAN</DistanceMeters>
          </Trackpoint>
          <Trackpoint>
            <Time>2021-04-03T11:09:11.000Z</Time>
            <Position>
              <LatitudeDegrees>42.30183460749685764312744140625</LatitudeDegrees>
              <LongitudeDegrees>2.5198279134929180145263671875</LongitudeDegrees>
            </Position>
            <AltitudeMeters>656.79998779296875</AltitudeMeters>
            <DistanceMeters>NAN</DistanceMeters>
          </Trackpoint>
          <Trackpoint>
            <Time>2021-04-03T11:09:12.000Z</Time>
            <Position>
              <LatitudeDegrees>42.30183997191488742828369140625</LatitudeDegrees>
              <LongitudeDegrees>2.51981877721846103668212890625</LongitudeDegrees>
            </Position>
            <AltitudeMeters>656.5999755859375</AltitudeMeters>
            <DistanceMeters>NAN</DistanceMeters>
          </Trackpoint>
          <Trackpoint>
            <Time>2021-04-03T11:09:13.000Z</Time>
            <Position>
              <LatitudeDegrees>42.30184349231421947479248046875</LatitudeDegrees>
              <LongitudeDegrees>2.519808970391750335693359375</LongitudeDegrees>
            </Position>
            <AltitudeMeters>656.4000244140625</AltitudeMeters>
            <DistanceMeters>NAN</DistanceMeters>
          </Trackpoint>
          <Trackpoint>
            <Time>2021-04-03T11:09:15.000Z</Time>
            <Position>
              <LatitudeDegrees>42.30185539461672306060791015625</LatitudeDegrees>
              <LongitudeDegrees>2.51978776417672634124755859375</LongitudeDegrees>
            </Position>
            <AltitudeMeters>656</AltitudeMeters>
            <DistanceMeters>NAN</DistanceMeters>
          </Trackpoint>
          <Trackpoint>
            <Time>2021-04-03T11:09:19.000Z</Time>
            <Position>
              <LatitudeDegrees>42.30187551118433475494384765625</LatitudeDegrees>
              <LongitudeDegrees>2.51974082551896572113037109375</LongitudeDegrees>
            </Position>
            <AltitudeMeters>655.4000244140625</AltitudeMeters>
            <DistanceMeters>NAN</DistanceMeters>
          </Trackpoint>
          <Trackpoint>
            <Time>2021-04-03T11:09:21.000Z</Time>
            <Position>
              <LatitudeDegrees>42.30189126916229724884033203125</LatitudeDegrees>
              <LongitudeDegrees>2.51972548663616180419921875</LongitudeDegrees>
            </Position>
            <AltitudeMeters>655.4000244140625</AltitudeMeters>
            <DistanceMeters>NAN</DistanceMeters>
          </Trackpoint>
          <Trackpoint>
            <Time>2021-04-03T11:09:22.000Z</Time>
            <Position>
              <LatitudeDegrees>42.30189780704677104949951171875</LatitudeDegrees>
              <LongitudeDegrees>2.51971215941011905670166015625</LongitudeDegrees>
            </Position>
            <AltitudeMeters>655.20001220703125</AltitudeMeters>
            <DistanceMeters>NAN</DistanceMeters>
          </Trackpoint>
          <Trackpoint>
            <Time>2021-04-03T11:09:26.000Z</Time>
            <Position>
              <LatitudeDegrees>42.30191591195762157440185546875</LatitudeDegrees>
              <LongitudeDegrees>2.5196746923029422760009765625</LongitudeDegrees>
            </Position>
            <AltitudeMeters>654.5999755859375</AltitudeMeters>
            <DistanceMeters>NAN</DistanceMeters>
          </Trackpoint>
          <Trackpoint>
            <Time>2021-04-03T11:09:29.000Z</Time>
            <Position>
              <LatitudeDegrees>42.301931083202362060546875</LatitudeDegrees>
              <LongitudeDegrees>2.51964233815670013427734375</LongitudeDegrees>
            </Position>
            <AltitudeMeters>654.4000244140625</AltitudeMeters>
            <DistanceMeters>NAN</DistanceMeters>
          </Trackpoint>
          <Trackpoint>
            <Time>2021-04-03T11:09:30.000Z</Time>
            <Position>
              <LatitudeDegrees>42.30193552561104297637939453125</LatitudeDegrees>
              <LongitudeDegrees>2.51962632872164249420166015625</LongitudeDegrees>
            </Position>
            <AltitudeMeters>654.20001220703125</AltitudeMeters>
            <DistanceMeters>NAN</DistanceMeters>
          </Trackpoint>
          <Trackpoint>
            <Time>2021-04-03T11:09:31.000Z</Time>
            <Position>
              <LatitudeDegrees>42.30194105766713619232177734375</LatitudeDegrees>
              <LongitudeDegrees>2.5196099840104579925537109375</LongitudeDegrees>
            </Position>
            <AltitudeMeters>654.20001220703125</AltitudeMeters>
            <DistanceMeters>NAN</DistanceMeters>
          </Trackpoint>
          <Trackpoint>
            <Time>2021-04-03T11:09:32.000Z</Time>
            <Position>
              <LatitudeDegrees>42.30195195414125919342041015625</LatitudeDegrees>
              <LongitudeDegrees>2.51960269175469875335693359375</LongitudeDegrees>
            </Position>
            <AltitudeMeters>654</AltitudeMeters>
            <DistanceMeters>NAN</DistanceMeters>
          </Trackpoint>
          <Trackpoint>
            <Time>2021-04-03T11:09:35.000Z</Time>
            <Position>
              <LatitudeDegrees>42.3019641079008579254150390625</LatitudeDegrees>
              <LongitudeDegrees>2.51958458684384822845458984375</LongitudeDegrees>
            </Position>
            <AltitudeMeters>653.5999755859375</AltitudeMeters>
            <DistanceMeters>NAN</DistanceMeters>
          </Trackpoint>
          <Trackpoint>
            <Time>2021-04-03T11:09:37.000Z</Time>
            <Position>
              <LatitudeDegrees>42.30197408236563205718994140625</LatitudeDegrees>
              <LongitudeDegrees>2.5195717625319957733154296875</LongitudeDegrees>
            </Position>
            <AltitudeMeters>653.20001220703125</AltitudeMeters>
            <DistanceMeters>NAN</DistanceMeters>
          </Trackpoint>
          <Trackpoint>
            <Time>2021-04-03T11:09:39.000Z</Time>
            <Position>
              <LatitudeDegrees>42.3019751720130443572998046875</LatitudeDegrees>
              <LongitudeDegrees>2.5195509754121303558349609375</LongitudeDegrees>
            </Position>
            <AltitudeMeters>652.79998779296875</AltitudeMeters>
            <DistanceMeters>NAN</DistanceMeters>
          </Trackpoint>
          <Trackpoint>
            <Time>2021-04-03T11:09:42.000Z</Time>
            <Position>
              <LatitudeDegrees>42.30198464356362819671630859375</LatitudeDegrees>
              <LongitudeDegrees>2.51951585523784160614013671875</LongitudeDegrees>
            </Position>
            <AltitudeMeters>652.5999755859375</AltitudeMeters>
            <DistanceMeters>NAN</DistanceMeters>
          </Trackpoint>
          <Trackpoint>
            <Time>2021-04-03T11:09:44.000Z</Time>
            <Position>
              <LatitudeDegrees>42.30199235491454601287841796875</LatitudeDegrees>
              <LongitudeDegrees>2.5194923020899295806884765625</LongitudeDegrees>
            </Position>
            <AltitudeMeters>652.20001220703125</AltitudeMeters>
            <DistanceMeters>NAN</DistanceMeters>
          </Trackpoint>
          <Trackpoint>
            <Time>2021-04-03T11:09:45.000Z</Time>
            <Position>
              <LatitudeDegrees>42.30199771933257579803466796875</LatitudeDegrees>
              <LongitudeDegrees>2.51947939395904541015625</LongitudeDegrees>
            </Position>
            <AltitudeMeters>652</AltitudeMeters>
            <DistanceMeters>NAN</DistanceMeters>
          </Trackpoint>
          <Trackpoint>
            <Time>2021-04-03T11:09:46.000Z</Time>
            <Position>
              <LatitudeDegrees>42.3020063526928424835205078125</LatitudeDegrees>
              <LongitudeDegrees>2.5194711796939373016357421875</LongitudeDegrees>
            </Position>
            <AltitudeMeters>651.79998779296875</AltitudeMeters>
            <DistanceMeters>NAN</DistanceMeters>
          </Trackpoint>
          <Trackpoint>
            <Time>2021-04-03T11:09:47.000Z</Time>
            <Position>
              <LatitudeDegrees>42.30201222002506256103515625</LatitudeDegrees>
              <LongitudeDegrees>2.51946154050529003143310546875</LongitudeDegrees>
            </Position>
            <AltitudeMeters>651.5999755859375</AltitudeMeters>
            <DistanceMeters>NAN</DistanceMeters>
          </Trackpoint>
          <Trackpoint>
            <Time>2021-04-03T11:09:52.000Z</Time>
            <Position>
              <LatitudeDegrees>42.30203795246779918670654296875</LatitudeDegrees>
              <LongitudeDegrees>2.51940504647791385650634765625</LongitudeDegrees>
            </Position>
            <AltitudeMeters>651.4000244140625</AltitudeMeters>
            <DistanceMeters>NAN</DistanceMeters>
          </Trackpoint>
          <Trackpoint>
            <Time>2021-04-03T11:09:57.000Z</Time>
            <Position>
              <LatitudeDegrees>42.3020611703395843505859375</LatitudeDegrees>
              <LongitudeDegrees>2.51934922300279140472412109375</LongitudeDegrees>
            </Position>
            <AltitudeMeters>651</AltitudeMeters>
            <DistanceMeters>NAN</DistanceMeters>
          </Trackpoint>
          <Trackpoint>
            <Time>2021-04-03T11:09:59.000Z</Time>
            <Position>
              <LatitudeDegrees>42.3020787723362445831298828125</LatitudeDegrees>
              <LongitudeDegrees>2.519320808351039886474609375</LongitudeDegrees>
            </Position>
            <AltitudeMeters>651</AltitudeMeters>
            <DistanceMeters>NAN</DistanceMeters>
          </Trackpoint>
          <Trackpoint>
            <Time>2021-04-03T11:10:00.000Z</Time>
            <Position>
              <LatitudeDegrees>42.30209059081971645355224609375</LatitudeDegrees>
              <LongitudeDegrees>2.51931133680045604705810546875</LongitudeDegrees>
            </Position>
            <AltitudeMeters>651</AltitudeMeters>
            <DistanceMeters>NAN</DistanceMeters>
          </Trackpoint>
          <Trackpoint>
            <Time>2021-04-03T11:10:04.000Z</Time>
            <Position>
              <LatitudeDegrees>42.3021186701953411102294921875</LatitudeDegrees>
              <LongitudeDegrees>2.519266493618488311767578125</LongitudeDegrees>
            </Position>
            <AltitudeMeters>650.5999755859375</AltitudeMeters>
            <DistanceMeters>NAN</DistanceMeters>
          </Trackpoint>
          <Trackpoint>
            <Time>2021-04-03T11:10:05.000Z</Time>
            <Position>
              <LatitudeDegrees>42.30211791582405567169189453125</LatitudeDegrees>
              <LongitudeDegrees>2.5192500650882720947265625</LongitudeDegrees>
            </Position>
            <AltitudeMeters>650.5999755859375</AltitudeMeters>
            <DistanceMeters>NAN</DistanceMeters>
          </Trackpoint>
          <Trackpoint>
            <Time>2021-04-03T11:10:07.000Z</Time>
            <Position>
              <LatitudeDegrees>42.302119843661785125732421875</LatitudeDegrees>
              <LongitudeDegrees>2.51922936178743839263916015625</LongitudeDegrees>
            </Position>
            <AltitudeMeters>650</AltitudeMeters>
            <DistanceMeters>NAN</DistanceMeters>
          </Trackpoint>
          <Trackpoint>
            <Time>2021-04-03T11:10:12.000Z</Time>
            <Position>
              <LatitudeDegrees>42.3021523654460906982421875</LatitudeDegrees>
              <LongitudeDegrees>2.51918611116707324981689453125</LongitudeDegrees>
            </Position>
            <AltitudeMeters>649.20001220703125</AltitudeMeters>
            <DistanceMeters>NAN</DistanceMeters>
          </Trackpoint>
          <Trackpoint>
            <Time>2021-04-03T11:10:14.000Z</Time>
            <Position>
              <LatitudeDegrees>42.30216401629149913787841796875</LatitudeDegrees>
              <LongitudeDegrees>2.51917202956974506378173828125</LongitudeDegrees>
            </Position>
            <AltitudeMeters>648.79998779296875</AltitudeMeters>
            <DistanceMeters>NAN</DistanceMeters>
          </Trackpoint>
          <Trackpoint>
            <Time>2021-04-03T11:10:19.000Z</Time>
            <Position>
              <LatitudeDegrees>42.30219192802906036376953125</LatitudeDegrees>
              <LongitudeDegrees>2.519133724272251129150390625</LongitudeDegrees>
            </Position>
            <AltitudeMeters>647.5999755859375</AltitudeMeters>
            <DistanceMeters>NAN</DistanceMeters>
          </Trackpoint>
          <Trackpoint>
            <Time>2021-04-03T11:10:20.000Z</Time>
            <Position>
              <LatitudeDegrees>42.30219804681837558746337890625</LatitudeDegrees>
              <LongitudeDegrees>2.51912123523652553558349609375</LongitudeDegrees>
            </Position>
            <AltitudeMeters>647.4000244140625</AltitudeMeters>
            <DistanceMeters>NAN</DistanceMeters>
          </Trackpoint>
          <Trackpoint>
            <Time>2021-04-03T11:10:24.000Z</Time>
            <Position>
              <LatitudeDegrees>42.3022276349365711212158203125</LatitudeDegrees>
              <LongitudeDegrees>2.519085444509983062744140625</LongitudeDegrees>
            </Position>
            <AltitudeMeters>646.79998779296875</AltitudeMeters>
            <DistanceMeters>NAN</DistanceMeters>
          </Trackpoint>
          <Trackpoint>
            <Time>2021-04-03T11:10:25.000Z</Time>
            <Position>
              <LatitudeDegrees>42.30222905986011028289794921875</LatitudeDegrees>
              <LongitudeDegrees>2.51907194964587688446044921875</LongitudeDegrees>
            </Position>
            <AltitudeMeters>646.5999755859375</AltitudeMeters>
            <DistanceMeters>NAN</DistanceMeters>
          </Trackpoint>
          <Trackpoint>
            <Time>2021-04-03T11:10:26.000Z</Time>
            <Position>
              <LatitudeDegrees>42.30223677121102809906005859375</LatitudeDegrees>
              <LongitudeDegrees>2.51906021498143672943115234375</LongitudeDegrees>
            </Position>
            <AltitudeMeters>646.4000244140625</AltitudeMeters>
            <DistanceMeters>NAN</DistanceMeters>
          </Trackpoint>
          <Trackpoint>
            <Time>2021-04-03T11:10:28.000Z</Time>
            <Position>
              <LatitudeDegrees>42.3022517748177051544189453125</LatitudeDegrees>
              <LongitudeDegrees>2.5190443731844425201416015625</LongitudeDegrees>
            </Position>
            <AltitudeMeters>645.79998779296875</AltitudeMeters>
            <DistanceMeters>NAN</DistanceMeters>
          </Trackpoint>
          <Trackpoint>
            <Time>2021-04-03T11:10:29.000Z</Time>
            <Position>
              <LatitudeDegrees>42.3022628389298915863037109375</LatitudeDegrees>
              <LongitudeDegrees>2.5190359912812709808349609375</LongitudeDegrees>
            </Position>
            <AltitudeMeters>645.4000244140625</AltitudeMeters>
            <DistanceMeters>NAN</DistanceMeters>
          </Trackpoint>
          <Trackpoint>
            <Time>2021-04-03T11:10:30.000Z</Time>
            <Position>
              <LatitudeDegrees>42.30227214284241199493408203125</LatitudeDegrees>
              <LongitudeDegrees>2.519031129777431488037109375</LongitudeDegrees>
            </Position>
            <AltitudeMeters>645</AltitudeMeters>
            <DistanceMeters>NAN</DistanceMeters>
          </Trackpoint>
          <Trackpoint>
            <Time>2021-04-03T11:10:33.000Z</Time>
            <Position>
              <LatitudeDegrees>42.30228404514491558074951171875</LatitudeDegrees>
              <LongitudeDegrees>2.51899131573736667633056640625</LongitudeDegrees>
            </Position>
            <AltitudeMeters>644.79998779296875</AltitudeMeters>
            <DistanceMeters>NAN</DistanceMeters>
          </Trackpoint>
          <Trackpoint>
            <Time>2021-04-03T11:10:34.000Z</Time>
            <Position>
              <LatitudeDegrees>42.302288822829723358154296875</LatitudeDegrees>
              <LongitudeDegrees>2.5189810059964656829833984375</LongitudeDegrees>
            </Position>
            <AltitudeMeters>644.5999755859375</AltitudeMeters>
            <DistanceMeters>NAN</DistanceMeters>
          </Trackpoint>
          <Trackpoint>
            <Time>2021-04-03T11:10:40.000Z</Time>
            <Position>
              <LatitudeDegrees>42.302304916083812713623046875</LatitudeDegrees>
              <LongitudeDegrees>2.5189189799129962921142578125</LongitudeDegrees>
            </Position>
            <AltitudeMeters>644</AltitudeMeters>
            <DistanceMeters>NAN</DistanceMeters>
          </Trackpoint>
          <Trackpoint>
            <Time>2021-04-03T11:10:42.000Z</Time>
            <Position>
              <LatitudeDegrees>42.30231530964374542236328125</LatitudeDegrees>
              <LongitudeDegrees>2.5188985280692577362060546875</LongitudeDegrees>
            </Position>
            <AltitudeMeters>643.79998779296875</AltitudeMeters>
            <DistanceMeters>NAN</DistanceMeters>
          </Trackpoint>
          <Trackpoint>
            <Time>2021-04-03T11:10:46.000Z</Time>
            <Position>
              <LatitudeDegrees>42.3023523576557636260986328125</LatitudeDegrees>
              <LongitudeDegrees>2.51886055804789066314697265625</LongitudeDegrees>
            </Position>
            <AltitudeMeters>643</AltitudeMeters>
            <DistanceMeters>NAN</DistanceMeters>
          </Trackpoint>
          <Trackpoint>
            <Time>2021-04-03T11:10:49.000Z</Time>
            <Position>
              <LatitudeDegrees>42.30236887000501155853271484375</LatitudeDegrees>
              <LongitudeDegrees>2.51881227828562259674072265625</LongitudeDegrees>
            </Position>
            <AltitudeMeters>642.4000244140625</AltitudeMeters>
            <DistanceMeters>NAN</DistanceMeters>
          </Trackpoint>
          <Trackpoint>
            <Time>2021-04-03T11:10:52.000Z</Time>
            <Position>
              <LatitudeDegrees>42.30238102376461029052734375</LatitudeDegrees>
              <LongitudeDegrees>2.518777661025524139404296875</LongitudeDegrees>
            </Position>
            <AltitudeMeters>642</AltitudeMeters>
            <DistanceMeters>NAN</DistanceMeters>
          </Trackpoint>
          <Trackpoint>
            <Time>2021-04-03T11:10:54.000Z</Time>
            <Position>
              <LatitudeDegrees>42.30238731019198894500732421875</LatitudeDegrees>
              <LongitudeDegrees>2.518753521144390106201171875</LongitudeDegrees>
            </Position>
            <AltitudeMeters>641.79998779296875</AltitudeMeters>
            <DistanceMeters>NAN</DistanceMeters>
          </Trackpoint>
          <Trackpoint>
            <Time>2021-04-03T11:10:59.000Z</Time>
            <Position>
              <LatitudeDegrees>42.30239569209516048431396484375</LatitudeDegrees>
              <LongitudeDegrees>2.5187208317220211029052734375</LongitudeDegrees>
            </Position>
            <AltitudeMeters>641.5999755859375</AltitudeMeters>
            <DistanceMeters>NAN</DistanceMeters>
          </Trackpoint>
          <Trackpoint>
            <Time>2021-04-03T11:11:04.000Z</Time>
            <Position>
              <LatitudeDegrees>42.30240114033222198486328125</LatitudeDegrees>
              <LongitudeDegrees>2.51870968379080295562744140625</LongitudeDegrees>
            </Position>
            <AltitudeMeters>641.4000244140625</AltitudeMeters>
            <DistanceMeters>NAN</DistanceMeters>
          </Trackpoint>
          <Trackpoint>
            <Time>2021-04-03T11:11:08.000Z</Time>
            <Position>
              <LatitudeDegrees>42.302419245243072509765625</LatitudeDegrees>
              <LongitudeDegrees>2.51870180480182170867919921875</LongitudeDegrees>
            </Position>
            <AltitudeMeters>641.5999755859375</AltitudeMeters>
            <DistanceMeters>NAN</DistanceMeters>
          </Trackpoint>
          <Trackpoint>
            <Time>2021-04-03T11:11:15.000Z</Time>
            <Position>
              <LatitudeDegrees>42.302443720400333404541015625</LatitudeDegrees>
              <LongitudeDegrees>2.518624775111675262451171875</LongitudeDegrees>
            </Position>
            <AltitudeMeters>641</AltitudeMeters>
            <DistanceMeters>NAN</DistanceMeters>
          </Trackpoint>
          <Trackpoint>
            <Time>2021-04-03T11:11:18.000Z</Time>
            <Position>
              <LatitudeDegrees>42.3024576343595981597900390625</LatitudeDegrees>
              <LongitudeDegrees>2.51860507763922214508056640625</LongitudeDegrees>
            </Position>
            <AltitudeMeters>639.79998779296875</AltitudeMeters>
            <DistanceMeters>NAN</DistanceMeters>
          </Trackpoint>
          <Trackpoint>
            <Time>2021-04-03T11:11:22.000Z</Time>
            <Position>
              <LatitudeDegrees>42.30247884057462215423583984375</LatitudeDegrees>
              <LongitudeDegrees>2.51858630217611789703369140625</LongitudeDegrees>
            </Position>
            <AltitudeMeters>639.20001220703125</AltitudeMeters>
            <DistanceMeters>NAN</DistanceMeters>
          </Trackpoint>
          <Trackpoint>
            <Time>2021-04-03T11:11:23.000Z</Time>
            <Position>
              <LatitudeDegrees>42.302481271326541900634765625</LatitudeDegrees>
              <LongitudeDegrees>2.51858026720583438873291015625</LongitudeDegrees>
            </Position>
            <AltitudeMeters>639</AltitudeMeters>
            <DistanceMeters>NAN</DistanceMeters>
          </Trackpoint>
          <Trackpoint>
            <Time>2021-04-03T11:11:24.000Z</Time>
            <Position>
              <LatitudeDegrees>42.30248772539198398590087890625</LatitudeDegrees>
              <LongitudeDegrees>2.51857473514974117279052734375</LongitudeDegrees>
            </Position>
            <AltitudeMeters>638.5999755859375</AltitudeMeters>
            <DistanceMeters>NAN</DistanceMeters>
          </Trackpoint>
          <Trackpoint>
            <Time>2021-04-03T11:11:27.000Z</Time>
            <Position>
              <LatitudeDegrees>42.30250306427478790283203125</LatitudeDegrees>
              <LongitudeDegrees>2.5185474939644336700439453125</LongitudeDegrees>
            </Position>
            <AltitudeMeters>637.4000244140625</AltitudeMeters>
            <DistanceMeters>NAN</DistanceMeters>
          </Trackpoint>
          <Trackpoint>
            <Time>2021-04-03T11:11:28.000Z</Time>
            <Position>
              <LatitudeDegrees>42.302510440349578857421875</LatitudeDegrees>
              <LongitudeDegrees>2.51853751949965953826904296875</LongitudeDegrees>
            </Position>
            <AltitudeMeters>637.20001220703125</AltitudeMeters>
            <DistanceMeters>NAN</DistanceMeters>
          </Trackpoint>
          <Trackpoint>
            <Time>2021-04-03T11:11:30.000Z</Time>
            <Position>
              <LatitudeDegrees>42.3025203309953212738037109375</LatitudeDegrees>
              <LongitudeDegrees>2.51851673237979412078857421875</LongitudeDegrees>
            </Position>
            <AltitudeMeters>636.79998779296875</AltitudeMeters>
            <DistanceMeters>NAN</DistanceMeters>
          </Trackpoint>
          <Trackpoint>
            <Time>2021-04-03T11:11:33.000Z</Time>
            <Position>
              <LatitudeDegrees>42.30253525078296661376953125</LatitudeDegrees>
              <LongitudeDegrees>2.51848203130066394805908203125</LongitudeDegrees>
            </Position>
            <AltitudeMeters>636.20001220703125</AltitudeMeters>
            <DistanceMeters>NAN</DistanceMeters>
          </Trackpoint>
          <Trackpoint>
            <Time>2021-04-03T11:11:37.000Z</Time>
            <Position>
              <LatitudeDegrees>42.30255628935992717742919921875</LatitudeDegrees>
              <LongitudeDegrees>2.518425621092319488525390625</LongitudeDegrees>
            </Position>
            <AltitudeMeters>635.79998779296875</AltitudeMeters>
            <DistanceMeters>NAN</DistanceMeters>
          </Trackpoint>
          <Trackpoint>
            <Time>2021-04-03T11:11:43.000Z</Time>
            <Position>
              <LatitudeDegrees>42.3025743104517459869384765625</LatitudeDegrees>
              <LongitudeDegrees>2.51829796470701694488525390625</LongitudeDegrees>
            </Position>
            <AltitudeMeters>635</AltitudeMeters>
            <DistanceMeters>NAN</DistanceMeters>
          </Trackpoint>
          <Trackpoint>
            <Time>2021-04-03T11:11:45.000Z</Time>
            <Position>
              <LatitudeDegrees>42.30259752832353115081787109375</LatitudeDegrees>
              <LongitudeDegrees>2.518275417387485504150390625</LongitudeDegrees>
            </Position>
            <AltitudeMeters>634.20001220703125</AltitudeMeters>
            <DistanceMeters>NAN</DistanceMeters>
          </Trackpoint>
          <Trackpoint>
            <Time>2021-04-03T11:11:47.000Z</Time>
            <Position>
              <LatitudeDegrees>42.30262032710015773773193359375</LatitudeDegrees>
              <LongitudeDegrees>2.51826125197112560272216796875</LongitudeDegrees>
            </Position>
            <AltitudeMeters>633.79998779296875</AltitudeMeters>
            <DistanceMeters>NAN</DistanceMeters>
          </Trackpoint>
          <Trackpoint>
            <Time>2021-04-03T11:11:48.000Z</Time>
            <Position>
              <LatitudeDegrees>42.30262535624206066131591796875</LatitudeDegrees>
              <LongitudeDegrees>2.51825270242989063262939453125</LongitudeDegrees>
            </Position>
            <AltitudeMeters>633.79998779296875</AltitudeMeters>
            <DistanceMeters>NAN</DistanceMeters>
          </Trackpoint>
          <Trackpoint>
            <Time>2021-04-03T11:11:50.000Z</Time>
            <Position>
              <LatitudeDegrees>42.30263792909681797027587890625</LatitudeDegrees>
              <LongitudeDegrees>2.5182313285768032073974609375</LongitudeDegrees>
            </Position>
            <AltitudeMeters>633.4000244140625</AltitudeMeters>
            <DistanceMeters>NAN</DistanceMeters>
          </Trackpoint>
          <Trackpoint>
            <Time>2021-04-03T11:11:51.000Z</Time>
            <Position>
              <LatitudeDegrees>42.30263583362102508544921875</LatitudeDegrees>
              <LongitudeDegrees>2.518219761550426483154296875</LongitudeDegrees>
            </Position>
            <AltitudeMeters>632.79998779296875</AltitudeMeters>
            <DistanceMeters>NAN</DistanceMeters>
          </Trackpoint>
          <Trackpoint>
            <Time>2021-04-03T11:11:52.000Z</Time>
            <Position>
              <LatitudeDegrees>42.3026378452777862548828125</LatitudeDegrees>
              <LongitudeDegrees>2.51820945180952548980712890625</LongitudeDegrees>
            </Position>
            <AltitudeMeters>632.5999755859375</AltitudeMeters>
            <DistanceMeters>NAN</DistanceMeters>
          </Trackpoint>
          <Trackpoint>
            <Time>2021-04-03T11:11:54.000Z</Time>
            <Position>
              <LatitudeDegrees>42.30264656245708465576171875</LatitudeDegrees>
              <LongitudeDegrees>2.51818648539483547210693359375</LongitudeDegrees>
            </Position>
            <AltitudeMeters>632.20001220703125</AltitudeMeters>
            <DistanceMeters>NAN</DistanceMeters>
          </Trackpoint>
          <Trackpoint>
            <Time>2021-04-03T11:11:56.000Z</Time>
            <Position>
              <LatitudeDegrees>42.30265268124639987945556640625</LatitudeDegrees>
              <LongitudeDegrees>2.5181646086275577545166015625</LongitudeDegrees>
            </Position>
            <AltitudeMeters>631.79998779296875</AltitudeMeters>
            <DistanceMeters>NAN</DistanceMeters>
          </Trackpoint>
          <Trackpoint>
            <Time>2021-04-03T11:11:59.000Z</Time>
            <Position>
              <LatitudeDegrees>42.3026651702821254730224609375</LatitudeDegrees>
              <LongitudeDegrees>2.518134601414203643798828125</LongitudeDegrees>
            </Position>
            <AltitudeMeters>630.5999755859375</AltitudeMeters>
            <DistanceMeters>NAN</DistanceMeters>
          </Trackpoint>
          <Trackpoint>
            <Time>2021-04-03T11:12:01.000Z</Time>
            <Position>
              <LatitudeDegrees>42.3026765696704387664794921875</LatitudeDegrees>
              <LongitudeDegrees>2.51811590977013111114501953125</LongitudeDegrees>
            </Position>
            <AltitudeMeters>630.20001220703125</AltitudeMeters>
            <DistanceMeters>NAN</DistanceMeters>
          </Trackpoint>
          <Trackpoint>
            <Time>2021-04-03T11:12:04.000Z</Time>
            <Position>
              <LatitudeDegrees>42.3026966862380504608154296875</LatitudeDegrees>
              <LongitudeDegrees>2.51808875240385532379150390625</LongitudeDegrees>
            </Position>
            <AltitudeMeters>629.4000244140625</AltitudeMeters>
            <DistanceMeters>NAN</DistanceMeters>
          </Trackpoint>
          <Trackpoint>
            <Time>2021-04-03T11:12:05.000Z</Time>
            <Position>
              <LatitudeDegrees>42.3027007095515727996826171875</LatitudeDegrees>
              <LongitudeDegrees>2.51807902939617633819580078125</LongitudeDegrees>
            </Position>
            <AltitudeMeters>629.20001220703125</AltitudeMeters>
            <DistanceMeters>NAN</DistanceMeters>
          </Trackpoint>
          <Trackpoint>
            <Time>2021-04-03T11:12:08.000Z</Time>
            <Position>
              <LatitudeDegrees>42.30270582251250743865966796875</LatitudeDegrees>
              <LongitudeDegrees>2.518064863979816436767578125</LongitudeDegrees>
            </Position>
            <AltitudeMeters>629</AltitudeMeters>
            <DistanceMeters>NAN</DistanceMeters>
          </Trackpoint>
          <Trackpoint>
            <Time>2021-04-03T11:12:09.000Z</Time>
            <Position>
              <LatitudeDegrees>42.30270900763571262359619140625</LatitudeDegrees>
              <LongitudeDegrees>2.518058829009532928466796875</LongitudeDegrees>
            </Position>
            <AltitudeMeters>628.79998779296875</AltitudeMeters>
            <DistanceMeters>NAN</DistanceMeters>
          </Trackpoint>
          <Trackpoint>
            <Time>2021-04-03T11:12:14.000Z</Time>
            <Position>
              <LatitudeDegrees>42.30273013003170490264892578125</LatitudeDegrees>
              <LongitudeDegrees>2.518012560904026031494140625</LongitudeDegrees>
            </Position>
            <AltitudeMeters>628.4000244140625</AltitudeMeters>
            <DistanceMeters>NAN</DistanceMeters>
          </Trackpoint>
          <Trackpoint>
            <Time>2021-04-03T11:12:16.000Z</Time>
            <Position>
              <LatitudeDegrees>42.30274337343871593475341796875</LatitudeDegrees>
              <LongitudeDegrees>2.5179704837501049041748046875</LongitudeDegrees>
            </Position>
            <AltitudeMeters>627.5999755859375</AltitudeMeters>
            <DistanceMeters>NAN</DistanceMeters>
          </Trackpoint>
          <Trackpoint>
            <Time>2021-04-03T11:12:17.000Z</Time>
            <Position>
              <LatitudeDegrees>42.30274890549480915069580078125</LatitudeDegrees>
              <LongitudeDegrees>2.517953552305698394775390625</LongitudeDegrees>
            </Position>
            <AltitudeMeters>627.4000244140625</AltitudeMeters>
            <DistanceMeters>NAN</DistanceMeters>
          </Trackpoint>
          <Trackpoint>
            <Time>2021-04-03T11:12:18.000Z</Time>
            <Position>
              <LatitudeDegrees>42.302750833332538604736328125</LatitudeDegrees>
              <LongitudeDegrees>2.5179384648799896240234375</LongitudeDegrees>
            </Position>
            <AltitudeMeters>627.20001220703125</AltitudeMeters>
            <DistanceMeters>NAN</DistanceMeters>
          </Trackpoint>
          <Trackpoint>
            <Time>2021-04-03T11:12:19.000Z</Time>
            <Position>
              <LatitudeDegrees>42.30275326408445835113525390625</LatitudeDegrees>
              <LongitudeDegrees>2.517926059663295745849609375</LongitudeDegrees>
            </Position>
            <AltitudeMeters>627</AltitudeMeters>
            <DistanceMeters>NAN</DistanceMeters>
          </Trackpoint>
          <Trackpoint>
            <Time>2021-04-03T11:12:22.000Z</Time>
            <Position>
              <LatitudeDegrees>42.3027717880904674530029296875</LatitudeDegrees>
              <LongitudeDegrees>2.5178953818976879119873046875</LongitudeDegrees>
            </Position>
            <AltitudeMeters>626.20001220703125</AltitudeMeters>
            <DistanceMeters>NAN</DistanceMeters>
          </Trackpoint>
          <Trackpoint>
            <Time>2021-04-03T11:12:25.000Z</Time>
            <Position>
              <LatitudeDegrees>42.3027853667736053466796875</LatitudeDegrees>
              <LongitudeDegrees>2.5178685598075389862060546875</LongitudeDegrees>
            </Position>
            <AltitudeMeters>625.4000244140625</AltitudeMeters>
            <DistanceMeters>NAN</DistanceMeters>
          </Trackpoint>
          <Trackpoint>
            <Time>2021-04-03T11:12:26.000Z</Time>
            <Position>
              <LatitudeDegrees>42.3027907311916351318359375</LatitudeDegrees>
              <LongitudeDegrees>2.51786076463758945465087890625</LongitudeDegrees>
            </Position>
            <AltitudeMeters>625.20001220703125</AltitudeMeters>
            <DistanceMeters>NAN</DistanceMeters>
          </Trackpoint>
          <Trackpoint>
            <Time>2021-04-03T11:12:27.000Z</Time>
            <Position>
              <LatitudeDegrees>42.302794754505157470703125</LatitudeDegrees>
              <LongitudeDegrees>2.51785238273441791534423828125</LongitudeDegrees>
            </Position>
            <AltitudeMeters>625</AltitudeMeters>
            <DistanceMeters>NAN</DistanceMeters>
          </Trackpoint>
          <Trackpoint>
            <Time>2021-04-03T11:12:28.000Z</Time>
            <Position>
              <LatitudeDegrees>42.30279701761901378631591796875</LatitudeDegrees>
              <LongitudeDegrees>2.51783855259418487548828125</LongitudeDegrees>
            </Position>
            <AltitudeMeters>624.5999755859375</AltitudeMeters>
            <DistanceMeters>NAN</DistanceMeters>
          </Trackpoint>
          <Trackpoint>
            <Time>2021-04-03T11:12:31.000Z</Time>
            <Position>
              <LatitudeDegrees>42.30280556716024875640869140625</LatitudeDegrees>
              <LongitudeDegrees>2.51780091784894466400146484375</LongitudeDegrees>
            </Position>
            <AltitudeMeters>623.79998779296875</AltitudeMeters>
            <DistanceMeters>NAN</DistanceMeters>
          </Trackpoint>
          <Trackpoint>
            <Time>2021-04-03T11:12:32.000Z</Time>
            <Position>
              <LatitudeDegrees>42.30280657298862934112548828125</LatitudeDegrees>
              <LongitudeDegrees>2.51778951846063137054443359375</LongitudeDegrees>
            </Position>
            <AltitudeMeters>623.79998779296875</AltitudeMeters>
            <DistanceMeters>NAN</DistanceMeters>
          </Trackpoint>
          <Trackpoint>
            <Time>2021-04-03T11:12:33.000Z</Time>
            <Position>
              <LatitudeDegrees>42.3028076626360416412353515625</LatitudeDegrees>
              <LongitudeDegrees>2.51777862198650836944580078125</LongitudeDegrees>
            </Position>
            <AltitudeMeters>623.5999755859375</AltitudeMeters>
            <DistanceMeters>NAN</DistanceMeters>
          </Trackpoint>
          <Trackpoint>
            <Time>2021-04-03T11:12:34.000Z</Time>
            <Position>
              <LatitudeDegrees>42.30281093157827854156494140625</LatitudeDegrees>
              <LongitudeDegrees>2.51776806078851222991943359375</LongitudeDegrees>
            </Position>
            <AltitudeMeters>623.5999755859375</AltitudeMeters>
            <DistanceMeters>NAN</DistanceMeters>
          </Trackpoint>
          <Trackpoint>
            <Time>2021-04-03T11:12:36.000Z</Time>
            <Position>
              <LatitudeDegrees>42.30281679891049861907958984375</LatitudeDegrees>
              <LongitudeDegrees>2.51775272190570831298828125</LongitudeDegrees>
            </Position>
            <AltitudeMeters>623</AltitudeMeters>
            <DistanceMeters>NAN</DistanceMeters>
          </Trackpoint>
          <Trackpoint>
            <Time>2021-04-03T11:12:38.000Z</Time>
            <Position>
              <LatitudeDegrees>42.302822582423686981201171875</LatitudeDegrees>
              <LongitudeDegrees>2.51772900111973285675048828125</LongitudeDegrees>
            </Position>
            <AltitudeMeters>622.5999755859375</AltitudeMeters>
            <DistanceMeters>NAN</DistanceMeters>
          </Trackpoint>
          <Trackpoint>
            <Time>2021-04-03T11:12:39.000Z</Time>
            <Position>
              <LatitudeDegrees>42.3028229176998138427734375</LatitudeDegrees>
              <LongitudeDegrees>2.5177136622369289398193359375</LongitudeDegrees>
            </Position>
            <AltitudeMeters>622.20001220703125</AltitudeMeters>
            <DistanceMeters>NAN</DistanceMeters>
          </Trackpoint>
          <Trackpoint>
            <Time>2021-04-03T11:12:40.000Z</Time>
            <Position>
              <LatitudeDegrees>42.302823252975940704345703125</LatitudeDegrees>
              <LongitudeDegrees>2.5176992453634738922119140625</LongitudeDegrees>
            </Position>
            <AltitudeMeters>622</AltitudeMeters>
            <DistanceMeters>NAN</DistanceMeters>
          </Trackpoint>
          <Trackpoint>
            <Time>2021-04-03T11:12:42.000Z</Time>
            <Position>
              <LatitudeDegrees>42.30281889438629150390625</LatitudeDegrees>
              <LongitudeDegrees>2.51766948960721492767333984375</LongitudeDegrees>
            </Position>
            <AltitudeMeters>621.20001220703125</AltitudeMeters>
            <DistanceMeters>NAN</DistanceMeters>
          </Trackpoint>
          <Trackpoint>
            <Time>2021-04-03T11:12:47.000Z</Time>
            <Position>
              <LatitudeDegrees>42.30281260795891284942626953125</LatitudeDegrees>
              <LongitudeDegrees>2.517598830163478851318359375</LongitudeDegrees>
            </Position>
            <AltitudeMeters>620.20001220703125</AltitudeMeters>
            <DistanceMeters>NAN</DistanceMeters>
          </Trackpoint>
          <Trackpoint>
            <Time>2021-04-03T11:12:48.000Z</Time>
            <Position>
              <LatitudeDegrees>42.3028157092630863189697265625</LatitudeDegrees>
              <LongitudeDegrees>2.51758583821356296539306640625</LongitudeDegrees>
            </Position>
            <AltitudeMeters>620</AltitudeMeters>
            <DistanceMeters>NAN</DistanceMeters>
          </Trackpoint>
          <Trackpoint>
            <Time>2021-04-03T11:12:50.000Z</Time>
            <Position>
              <LatitudeDegrees>42.30281897820532321929931640625</LatitudeDegrees>
              <LongitudeDegrees>2.51756521873176097869873046875</LongitudeDegrees>
            </Position>
            <AltitudeMeters>619.4000244140625</AltitudeMeters>
            <DistanceMeters>NAN</DistanceMeters>
          </Trackpoint>
          <Trackpoint>
            <Time>2021-04-03T11:12:52.000Z</Time>
            <Position>
              <LatitudeDegrees>42.30282132513821125030517578125</LatitudeDegrees>
              <LongitudeDegrees>2.517540492117404937744140625</LongitudeDegrees>
            </Position>
            <AltitudeMeters>619.20001220703125</AltitudeMeters>
            <DistanceMeters>NAN</DistanceMeters>
          </Trackpoint>
          <Trackpoint>
            <Time>2021-04-03T11:12:54.000Z</Time>
            <Position>
              <LatitudeDegrees>42.30281797237694263458251953125</LatitudeDegrees>
              <LongitudeDegrees>2.5175168551504611968994140625</LongitudeDegrees>
            </Position>
            <AltitudeMeters>618.79998779296875</AltitudeMeters>
            <DistanceMeters>NAN</DistanceMeters>
          </Trackpoint>
          <Trackpoint>
            <Time>2021-04-03T11:12:55.000Z</Time>
            <Position>
              <LatitudeDegrees>42.30281554162502288818359375</LatitudeDegrees>
              <LongitudeDegrees>2.51750319264829158782958984375</LongitudeDegrees>
            </Position>
            <AltitudeMeters>618.5999755859375</AltitudeMeters>
            <DistanceMeters>NAN</DistanceMeters>
          </Trackpoint>
          <Trackpoint>
            <Time>2021-04-03T11:12:58.000Z</Time>
            <Position>
              <LatitudeDegrees>42.3028090037405490875244140625</LatitudeDegrees>
              <LongitudeDegrees>2.5174585171043872833251953125</LongitudeDegrees>
            </Position>
            <AltitudeMeters>618.20001220703125</AltitudeMeters>
            <DistanceMeters>NAN</DistanceMeters>
          </Trackpoint>
          <Trackpoint>
            <Time>2021-04-03T11:13:01.000Z</Time>
            <Position>
              <LatitudeDegrees>42.302808500826358795166015625</LatitudeDegrees>
              <LongitudeDegrees>2.5174047052860260009765625</LongitudeDegrees>
            </Position>
            <AltitudeMeters>617.5999755859375</AltitudeMeters>
            <DistanceMeters>NAN</DistanceMeters>
          </Trackpoint>
          <Trackpoint>
            <Time>2021-04-03T11:13:03.000Z</Time>
            <Position>
              <LatitudeDegrees>42.302811183035373687744140625</LatitudeDegrees>
              <LongitudeDegrees>2.5173832476139068603515625</LongitudeDegrees>
            </Position>
            <AltitudeMeters>617.20001220703125</AltitudeMeters>
            <DistanceMeters>NAN</DistanceMeters>
          </Trackpoint>
          <Trackpoint>
            <Time>2021-04-03T11:13:04.000Z</Time>
            <Position>
              <LatitudeDegrees>42.3028126917779445648193359375</LatitudeDegrees>
              <LongitudeDegrees>2.51737050712108612060546875</LongitudeDegrees>
            </Position>
            <AltitudeMeters>617.20001220703125</AltitudeMeters>
            <DistanceMeters>NAN</DistanceMeters>
          </Trackpoint>
          <Trackpoint>
            <Time>2021-04-03T11:13:09.000Z</Time>
            <Position>
              <LatitudeDegrees>42.30281830765306949615478515625</LatitudeDegrees>
              <LongitudeDegrees>2.5172945670783519744873046875</LongitudeDegrees>
            </Position>
            <AltitudeMeters>616</AltitudeMeters>
            <DistanceMeters>NAN</DistanceMeters>
          </Trackpoint>
          <Trackpoint>
            <Time>2021-04-03T11:13:10.000Z</Time>
            <Position>
              <LatitudeDegrees>42.30282015167176723480224609375</LatitudeDegrees>
              <LongitudeDegrees>2.517279647290706634521484375</LongitudeDegrees>
            </Position>
            <AltitudeMeters>615.5999755859375</AltitudeMeters>
            <DistanceMeters>NAN</DistanceMeters>
          </Trackpoint>
          <Trackpoint>
            <Time>2021-04-03T11:13:12.000Z</Time>
            <Position>
              <LatitudeDegrees>42.30283071286976337432861328125</LatitudeDegrees>
              <LongitudeDegrees>2.517252825200557708740234375</LongitudeDegrees>
            </Position>
            <AltitudeMeters>615</AltitudeMeters>
            <DistanceMeters>NAN</DistanceMeters>
          </Trackpoint>
          <Trackpoint>
            <Time>2021-04-03T11:13:15.000Z</Time>
            <Position>
              <LatitudeDegrees>42.30284504592418670654296875</LatitudeDegrees>
              <LongitudeDegrees>2.51720865257084369659423828125</LongitudeDegrees>
            </Position>
            <AltitudeMeters>614</AltitudeMeters>
            <DistanceMeters>NAN</DistanceMeters>
          </Trackpoint>
          <Trackpoint>
            <Time>2021-04-03T11:13:18.000Z</Time>
            <Position>
              <LatitudeDegrees>42.30284144170582294464111328125</LatitudeDegrees>
              <LongitudeDegrees>2.51716800034046173095703125</LongitudeDegrees>
            </Position>
            <AltitudeMeters>613.20001220703125</AltitudeMeters>
            <DistanceMeters>NAN</DistanceMeters>
          </Trackpoint>
          <Trackpoint>
            <Time>2021-04-03T11:13:19.000Z</Time>
            <Position>
              <LatitudeDegrees>42.30283658020198345184326171875</LatitudeDegrees>
              <LongitudeDegrees>2.51715593039989471435546875</LongitudeDegrees>
            </Position>
            <AltitudeMeters>613</AltitudeMeters>
            <DistanceMeters>NAN</DistanceMeters>
          </Trackpoint>
          <Trackpoint>
            <Time>2021-04-03T11:13:22.000Z</Time>
            <Position>
              <LatitudeDegrees>42.30282652191817760467529296875</LatitudeDegrees>
              <LongitudeDegrees>2.51711511053144931793212890625</LongitudeDegrees>
            </Position>
            <AltitudeMeters>612.4000244140625</AltitudeMeters>
            <DistanceMeters>NAN</DistanceMeters>
          </Trackpoint>
          <Trackpoint>
            <Time>2021-04-03T11:13:23.000Z</Time>
            <Position>
              <LatitudeDegrees>42.3028244264423847198486328125</LatitudeDegrees>
              <LongitudeDegrees>2.5171048007905483245849609375</LongitudeDegrees>
            </Position>
            <AltitudeMeters>612</AltitudeMeters>
            <DistanceMeters>NAN</DistanceMeters>
          </Trackpoint>
          <Trackpoint>
            <Time>2021-04-03T11:13:24.000Z</Time>
            <Position>
              <LatitudeDegrees>42.30282618664205074310302734375</LatitudeDegrees>
              <LongitudeDegrees>2.51709717325866222381591796875</LongitudeDegrees>
            </Position>
            <AltitudeMeters>611.79998779296875</AltitudeMeters>
            <DistanceMeters>NAN</DistanceMeters>
          </Trackpoint>
          <Trackpoint>
            <Time>2021-04-03T11:13:25.000Z</Time>
            <Position>
              <LatitudeDegrees>42.30282769538462162017822265625</LatitudeDegrees>
              <LongitudeDegrees>2.51708812080323696136474609375</LongitudeDegrees>
            </Position>
            <AltitudeMeters>611.4000244140625</AltitudeMeters>
            <DistanceMeters>NAN</DistanceMeters>
          </Trackpoint>
          <Trackpoint>
            <Time>2021-04-03T11:13:28.000Z</Time>
            <Position>
              <LatitudeDegrees>42.30282501317560672760009765625</LatitudeDegrees>
              <LongitudeDegrees>2.51706196926534175872802734375</LongitudeDegrees>
            </Position>
            <AltitudeMeters>610.4000244140625</AltitudeMeters>
            <DistanceMeters>NAN</DistanceMeters>
          </Trackpoint>
          <Trackpoint>
            <Time>2021-04-03T11:13:30.000Z</Time>
            <Position>
              <LatitudeDegrees>42.30282962322235107421875</LatitudeDegrees>
              <LongitudeDegrees>2.51703917048871517181396484375</LongitudeDegrees>
            </Position>
            <AltitudeMeters>609.79998779296875</AltitudeMeters>
            <DistanceMeters>NAN</DistanceMeters>
          </Trackpoint>
          <Trackpoint>
            <Time>2021-04-03T11:13:32.000Z</Time>
            <Position>
              <LatitudeDegrees>42.30283875949680805206298828125</LatitudeDegrees>
              <LongitudeDegrees>2.51702223904430866241455078125</LongitudeDegrees>
            </Position>
            <AltitudeMeters>609.4000244140625</AltitudeMeters>
            <DistanceMeters>NAN</DistanceMeters>
          </Trackpoint>
          <Trackpoint>
            <Time>2021-04-03T11:13:35.000Z</Time>
            <Position>
              <LatitudeDegrees>42.3028425313532352447509765625</LatitudeDegrees>
              <LongitudeDegrees>2.5169996917247772216796875</LongitudeDegrees>
            </Position>
            <AltitudeMeters>608.79998779296875</AltitudeMeters>
            <DistanceMeters>NAN</DistanceMeters>
          </Trackpoint>
          <Trackpoint>
            <Time>2021-04-03T11:13:38.000Z</Time>
            <Position>
              <LatitudeDegrees>42.30284127406775951385498046875</LatitudeDegrees>
              <LongitudeDegrees>2.51695811748504638671875</LongitudeDegrees>
            </Position>
            <AltitudeMeters>608</AltitudeMeters>
            <DistanceMeters>NAN</DistanceMeters>
          </Trackpoint>
          <Trackpoint>
            <Time>2021-04-03T11:13:39.000Z</Time>
            <Position>
              <LatitudeDegrees>42.3028390109539031982421875</LatitudeDegrees>
              <LongitudeDegrees>2.5169448740780353546142578125</LongitudeDegrees>
            </Position>
            <AltitudeMeters>607.79998779296875</AltitudeMeters>
            <DistanceMeters>NAN</DistanceMeters>
          </Trackpoint>
          <Trackpoint>
            <Time>2021-04-03T11:13:43.000Z</Time>
            <Position>
              <LatitudeDegrees>42.30284236371517181396484375</LatitudeDegrees>
              <LongitudeDegrees>2.5168922357261180877685546875</LongitudeDegrees>
            </Position>
            <AltitudeMeters>607</AltitudeMeters>
            <DistanceMeters>NAN</DistanceMeters>
          </Trackpoint>
          <Trackpoint>
            <Time>2021-04-03T11:13:45.000Z</Time>
            <Position>
              <LatitudeDegrees>42.30286650359630584716796875</LatitudeDegrees>
              <LongitudeDegrees>2.5168838538229465484619140625</LongitudeDegrees>
            </Position>
            <AltitudeMeters>606.4000244140625</AltitudeMeters>
            <DistanceMeters>NAN</DistanceMeters>
          </Trackpoint>
          <Trackpoint>
            <Time>2021-04-03T11:13:46.000Z</Time>
            <Position>
              <LatitudeDegrees>42.302879579365253448486328125</LatitudeDegrees>
              <LongitudeDegrees>2.516886703670024871826171875</LongitudeDegrees>
            </Position>
            <AltitudeMeters>606.20001220703125</AltitudeMeters>
            <DistanceMeters>NAN</DistanceMeters>
          </Trackpoint>
          <Trackpoint>
            <Time>2021-04-03T11:13:47.000Z</Time>
            <Position>
              <LatitudeDegrees>42.3028928227722644805908203125</LatitudeDegrees>
              <LongitudeDegrees>2.51689366064965724945068359375</LongitudeDegrees>
            </Position>
            <AltitudeMeters>606</AltitudeMeters>
            <DistanceMeters>NAN</DistanceMeters>
          </Trackpoint>
          <Trackpoint>
            <Time>2021-04-03T11:13:51.000Z</Time>
            <Position>
              <LatitudeDegrees>42.30293028987944126129150390625</LatitudeDegrees>
              <LongitudeDegrees>2.51692014746367931365966796875</LongitudeDegrees>
            </Position>
            <AltitudeMeters>605</AltitudeMeters>
            <DistanceMeters>NAN</DistanceMeters>
          </Trackpoint>
          <Trackpoint>
            <Time>2021-04-03T11:13:52.000Z</Time>
            <Position>
              <LatitudeDegrees>42.30294336564838886260986328125</LatitudeDegrees>
              <LongitudeDegrees>2.51692433841526508331298828125</LongitudeDegrees>
            </Position>
            <AltitudeMeters>605</AltitudeMeters>
            <DistanceMeters>NAN</DistanceMeters>
          </Trackpoint>
          <Trackpoint>
            <Time>2021-04-03T11:13:54.000Z</Time>
            <Position>
              <LatitudeDegrees>42.302961051464080810546875</LatitudeDegrees>
              <LongitudeDegrees>2.5169381685554981231689453125</LongitudeDegrees>
            </Position>
            <AltitudeMeters>604.4000244140625</AltitudeMeters>
            <DistanceMeters>NAN</DistanceMeters>
          </Trackpoint>
          <Trackpoint>
            <Time>2021-04-03T11:13:56.000Z</Time>
            <Position>
              <LatitudeDegrees>42.30298443697392940521240234375</LatitudeDegrees>
              <LongitudeDegrees>2.51695618964731693267822265625</LongitudeDegrees>
            </Position>
            <AltitudeMeters>603.79998779296875</AltitudeMeters>
            <DistanceMeters>NAN</DistanceMeters>
          </Trackpoint>
          <Trackpoint>
            <Time>2021-04-03T11:13:57.000Z</Time>
            <Position>
              <LatitudeDegrees>42.3029934056103229522705078125</LatitudeDegrees>
              <LongitudeDegrees>2.51696004532277584075927734375</LongitudeDegrees>
            </Position>
            <AltitudeMeters>603.5999755859375</AltitudeMeters>
            <DistanceMeters>NAN</DistanceMeters>
          </Trackpoint>
          <Trackpoint>
            <Time>2021-04-03T11:14:00.000Z</Time>
            <Position>
              <LatitudeDegrees>42.30301813222467899322509765625</LatitudeDegrees>
              <LongitudeDegrees>2.51694981940090656280517578125</LongitudeDegrees>
            </Position>
            <AltitudeMeters>603</AltitudeMeters>
            <DistanceMeters>NAN</DistanceMeters>
          </Trackpoint>
          <Trackpoint>
            <Time>2021-04-03T11:14:03.000Z</Time>
            <Position>
              <LatitudeDegrees>42.303041517734527587890625</LatitudeDegrees>
              <LongitudeDegrees>2.5169405154883861541748046875</LongitudeDegrees>
            </Position>
            <AltitudeMeters>602.5999755859375</AltitudeMeters>
            <DistanceMeters>NAN</DistanceMeters>
          </Trackpoint>
          <Trackpoint>
            <Time>2021-04-03T11:14:08.000Z</Time>
            <Position>
              <LatitudeDegrees>42.30307194404304027557373046875</LatitudeDegrees>
              <LongitudeDegrees>2.5168771483004093170166015625</LongitudeDegrees>
            </Position>
            <AltitudeMeters>601.5999755859375</AltitudeMeters>
            <DistanceMeters>NAN</DistanceMeters>
          </Trackpoint>
          <Trackpoint>
            <Time>2021-04-03T11:14:09.000Z</Time>
            <Position>
              <LatitudeDegrees>42.3030765540897846221923828125</LatitudeDegrees>
              <LongitudeDegrees>2.516875304281711578369140625</LongitudeDegrees>
            </Position>
            <AltitudeMeters>601.4000244140625</AltitudeMeters>
            <DistanceMeters>NAN</DistanceMeters>
          </Trackpoint>
          <Trackpoint>
            <Time>2021-04-03T11:14:10.000Z</Time>
            <Position>
              <LatitudeDegrees>42.30308317579329013824462890625</LatitudeDegrees>
              <LongitudeDegrees>2.516873292624950408935546875</LongitudeDegrees>
            </Position>
            <AltitudeMeters>601.20001220703125</AltitudeMeters>
            <DistanceMeters>NAN</DistanceMeters>
          </Trackpoint>
          <Trackpoint>
            <Time>2021-04-03T11:14:11.000Z</Time>
            <Position>
              <LatitudeDegrees>42.3030913062393665313720703125</LatitudeDegrees>
              <LongitudeDegrees>2.516874969005584716796875</LongitudeDegrees>
            </Position>
            <AltitudeMeters>601</AltitudeMeters>
            <DistanceMeters>NAN</DistanceMeters>
          </Trackpoint>
          <Trackpoint>
            <Time>2021-04-03T11:14:14.000Z</Time>
            <Position>
              <LatitudeDegrees>42.30309407226741313934326171875</LatitudeDegrees>
              <LongitudeDegrees>2.51685560680925846099853515625</LongitudeDegrees>
            </Position>
            <AltitudeMeters>600.79998779296875</AltitudeMeters>
            <DistanceMeters>NAN</DistanceMeters>
          </Trackpoint>
          <Trackpoint>
            <Time>2021-04-03T11:14:16.000Z</Time>
            <Position>
              <LatitudeDegrees>42.3030886240303516387939453125</LatitudeDegrees>
              <LongitudeDegrees>2.51684186048805713653564453125</LongitudeDegrees>
            </Position>
            <AltitudeMeters>600.5999755859375</AltitudeMeters>
            <DistanceMeters>NAN</DistanceMeters>
          </Trackpoint>
          <Trackpoint>
            <Time>2021-04-03T11:14:17.000Z</Time>
            <Position>
              <LatitudeDegrees>42.30308669619262218475341796875</LatitudeDegrees>
              <LongitudeDegrees>2.516832053661346435546875</LongitudeDegrees>
            </Position>
            <AltitudeMeters>600.4000244140625</AltitudeMeters>
            <DistanceMeters>NAN</DistanceMeters>
          </Trackpoint>
          <Trackpoint>
            <Time>2021-04-03T11:14:18.000Z</Time>
            <Position>
              <LatitudeDegrees>42.30308652855455875396728515625</LatitudeDegrees>
              <LongitudeDegrees>2.516822330653667449951171875</LongitudeDegrees>
            </Position>
            <AltitudeMeters>600.20001220703125</AltitudeMeters>
            <DistanceMeters>NAN</DistanceMeters>
          </Trackpoint>
          <Trackpoint>
            <Time>2021-04-03T11:14:19.000Z</Time>
            <Position>
              <LatitudeDegrees>42.3030889593064785003662109375</LatitudeDegrees>
              <LongitudeDegrees>2.516814284026622772216796875</LongitudeDegrees>
            </Position>
            <AltitudeMeters>600.20001220703125</AltitudeMeters>
            <DistanceMeters>NAN</DistanceMeters>
          </Trackpoint>
          <Trackpoint>
            <Time>2021-04-03T11:14:22.000Z</Time>
            <Position>
              <LatitudeDegrees>42.30310882441699504852294921875</LatitudeDegrees>
              <LongitudeDegrees>2.51681302674114704132080078125</LongitudeDegrees>
            </Position>
            <AltitudeMeters>599.5999755859375</AltitudeMeters>
            <DistanceMeters>NAN</DistanceMeters>
          </Trackpoint>
          <Trackpoint>
            <Time>2021-04-03T11:14:23.000Z</Time>
            <Position>
              <LatitudeDegrees>42.30311594903469085693359375</LatitudeDegrees>
              <LongitudeDegrees>2.5168097577989101409912109375</LongitudeDegrees>
            </Position>
            <AltitudeMeters>599.20001220703125</AltitudeMeters>
            <DistanceMeters>NAN</DistanceMeters>
          </Trackpoint>
          <Trackpoint>
            <Time>2021-04-03T11:14:26.000Z</Time>
            <Position>
              <LatitudeDegrees>42.30313003063201904296875</LatitudeDegrees>
              <LongitudeDegrees>2.51679777167737483978271484375</LongitudeDegrees>
            </Position>
            <AltitudeMeters>598.79998779296875</AltitudeMeters>
            <DistanceMeters>NAN</DistanceMeters>
          </Trackpoint>
          <Trackpoint>
            <Time>2021-04-03T11:14:29.000Z</Time>
            <Position>
              <LatitudeDegrees>42.30314687825739383697509765625</LatitudeDegrees>
              <LongitudeDegrees>2.51679173670709133148193359375</LongitudeDegrees>
            </Position>
            <AltitudeMeters>598.20001220703125</AltitudeMeters>
            <DistanceMeters>NAN</DistanceMeters>
          </Trackpoint>
          <Trackpoint>
            <Time>2021-04-03T11:14:33.000Z</Time>
            <Position>
              <LatitudeDegrees>42.3031633906066417694091796875</LatitudeDegrees>
              <LongitudeDegrees>2.51679140143096446990966796875</LongitudeDegrees>
            </Position>
            <AltitudeMeters>597.4000244140625</AltitudeMeters>
            <DistanceMeters>NAN</DistanceMeters>
          </Trackpoint>
          <Trackpoint>
            <Time>2021-04-03T11:14:34.000Z</Time>
            <Position>
              <LatitudeDegrees>42.3031627200543880462646484375</LatitudeDegrees>
              <LongitudeDegrees>2.516783438622951507568359375</LongitudeDegrees>
            </Position>
            <AltitudeMeters>597</AltitudeMeters>
            <DistanceMeters>NAN</DistanceMeters>
          </Trackpoint>
          <Trackpoint>
            <Time>2021-04-03T11:14:38.000Z</Time>
            <Position>
              <LatitudeDegrees>42.303154170513153076171875</LatitudeDegrees>
              <LongitudeDegrees>2.51675351522862911224365234375</LongitudeDegrees>
            </Position>
            <AltitudeMeters>596.4000244140625</AltitudeMeters>
            <DistanceMeters>NAN</DistanceMeters>
          </Trackpoint>
          <Trackpoint>
            <Time>2021-04-03T11:14:41.000Z</Time>
            <Position>
              <LatitudeDegrees>42.3031466268002986907958984375</LatitudeDegrees>
              <LongitudeDegrees>2.516727447509765625</LongitudeDegrees>
            </Position>
            <AltitudeMeters>596</AltitudeMeters>
            <DistanceMeters>NAN</DistanceMeters>
          </Trackpoint>
          <Trackpoint>
            <Time>2021-04-03T11:14:42.000Z</Time>
            <Position>
              <LatitudeDegrees>42.30314679443836212158203125</LatitudeDegrees>
              <LongitudeDegrees>2.51671898178756237030029296875</LongitudeDegrees>
            </Position>
            <AltitudeMeters>596</AltitudeMeters>
            <DistanceMeters>NAN</DistanceMeters>
          </Trackpoint>
          <Trackpoint>
            <Time>2021-04-03T11:14:45.000Z</Time>
            <Position>
              <LatitudeDegrees>42.3031402565538883209228515625</LatitudeDegrees>
              <LongitudeDegrees>2.51669031567871570587158203125</LongitudeDegrees>
            </Position>
            <AltitudeMeters>595.4000244140625</AltitudeMeters>
            <DistanceMeters>NAN</DistanceMeters>
          </Trackpoint>
          <Trackpoint>
            <Time>2021-04-03T11:14:47.000Z</Time>
            <Position>
              <LatitudeDegrees>42.3031402565538883209228515625</LatitudeDegrees>
              <LongitudeDegrees>2.5166763179004192352294921875</LongitudeDegrees>
            </Position>
            <AltitudeMeters>594.79998779296875</AltitudeMeters>
            <DistanceMeters>NAN</DistanceMeters>
          </Trackpoint>
          <Trackpoint>
            <Time>2021-04-03T11:14:52.000Z</Time>
            <Position>
              <LatitudeDegrees>42.30313698761165142059326171875</LatitudeDegrees>
              <LongitudeDegrees>2.51664362847805023193359375</LongitudeDegrees>
            </Position>
            <AltitudeMeters>593.5999755859375</AltitudeMeters>
            <DistanceMeters>NAN</DistanceMeters>
          </Trackpoint>
          <Trackpoint>
            <Time>2021-04-03T11:14:54.000Z</Time>
            <Position>
              <LatitudeDegrees>42.3031379096210002899169921875</LatitudeDegrees>
              <LongitudeDegrees>2.51662443391978740692138671875</LongitudeDegrees>
            </Position>
            <AltitudeMeters>593.20001220703125</AltitudeMeters>
            <DistanceMeters>NAN</DistanceMeters>
          </Trackpoint>
          <Trackpoint>
            <Time>2021-04-03T11:14:55.000Z</Time>
            <Position>
              <LatitudeDegrees>42.30313740670680999755859375</LatitudeDegrees>
              <LongitudeDegrees>2.51661538146436214447021484375</LongitudeDegrees>
            </Position>
            <AltitudeMeters>593.20001220703125</AltitudeMeters>
            <DistanceMeters>NAN</DistanceMeters>
          </Trackpoint>
          <Trackpoint>
            <Time>2021-04-03T11:14:56.000Z</Time>
            <Position>
              <LatitudeDegrees>42.303137071430683135986328125</LatitudeDegrees>
              <LongitudeDegrees>2.51660733483731746673583984375</LongitudeDegrees>
            </Position>
            <AltitudeMeters>592.5999755859375</AltitudeMeters>
            <DistanceMeters>NAN</DistanceMeters>
          </Trackpoint>
          <Trackpoint>
            <Time>2021-04-03T11:15:00.000Z</Time>
            <Position>
              <LatitudeDegrees>42.303125001490116119384765625</LatitudeDegrees>
              <LongitudeDegrees>2.51656425185501575469970703125</LongitudeDegrees>
            </Position>
            <AltitudeMeters>591.79998779296875</AltitudeMeters>
            <DistanceMeters>NAN</DistanceMeters>
          </Trackpoint>
          <Trackpoint>
            <Time>2021-04-03T11:15:01.000Z</Time>
            <Position>
              <LatitudeDegrees>42.3031154461205005645751953125</LatitudeDegrees>
              <LongitudeDegrees>2.51655084080994129180908203125</LongitudeDegrees>
            </Position>
            <AltitudeMeters>591.4000244140625</AltitudeMeters>
            <DistanceMeters>NAN</DistanceMeters>
          </Trackpoint>
          <Trackpoint>
            <Time>2021-04-03T11:15:06.000Z</Time>
            <Position>
              <LatitudeDegrees>42.30308971367776393890380859375</LatitudeDegrees>
              <LongitudeDegrees>2.51650691963732242584228515625</LongitudeDegrees>
            </Position>
            <AltitudeMeters>590.5999755859375</AltitudeMeters>
            <DistanceMeters>NAN</DistanceMeters>
          </Trackpoint>
          <Trackpoint>
            <Time>2021-04-03T11:15:07.000Z</Time>
            <Position>
              <LatitudeDegrees>42.30308434925973415374755859375</LatitudeDegrees>
              <LongitudeDegrees>2.51650415360927581787109375</LongitudeDegrees>
            </Position>
            <AltitudeMeters>590.4000244140625</AltitudeMeters>
            <DistanceMeters>NAN</DistanceMeters>
          </Trackpoint>
          <Trackpoint>
            <Time>2021-04-03T11:15:08.000Z</Time>
            <Position>
              <LatitudeDegrees>42.30308049358427524566650390625</LatitudeDegrees>
              <LongitudeDegrees>2.5164999626576900482177734375</LongitudeDegrees>
            </Position>
            <AltitudeMeters>590.20001220703125</AltitudeMeters>
            <DistanceMeters>NAN</DistanceMeters>
          </Trackpoint>
          <Trackpoint>
            <Time>2021-04-03T11:15:09.000Z</Time>
            <Position>
              <LatitudeDegrees>42.30307705700397491455078125</LatitudeDegrees>
              <LongitudeDegrees>2.51649552024900913238525390625</LongitudeDegrees>
            </Position>
            <AltitudeMeters>590.20001220703125</AltitudeMeters>
            <DistanceMeters>NAN</DistanceMeters>
          </Trackpoint>
          <Trackpoint>
            <Time>2021-04-03T11:15:14.000Z</Time>
            <Position>
              <LatitudeDegrees>42.30304361321032047271728515625</LatitudeDegrees>
              <LongitudeDegrees>2.51646065153181552886962890625</LongitudeDegrees>
            </Position>
            <AltitudeMeters>589.20001220703125</AltitudeMeters>
            <DistanceMeters>NAN</DistanceMeters>
          </Trackpoint>
          <Trackpoint>
            <Time>2021-04-03T11:15:19.000Z</Time>
            <Position>
              <LatitudeDegrees>42.30301511473953723907470703125</LatitudeDegrees>
              <LongitudeDegrees>2.51640683971345424652099609375</LongitudeDegrees>
            </Position>
            <AltitudeMeters>588.20001220703125</AltitudeMeters>
            <DistanceMeters>NAN</DistanceMeters>
          </Trackpoint>
          <Trackpoint>
            <Time>2021-04-03T11:15:20.000Z</Time>
            <Position>
              <LatitudeDegrees>42.30300941504538059234619140625</LatitudeDegrees>
              <LongitudeDegrees>2.51639191992580890655517578125</LongitudeDegrees>
            </Position>
            <AltitudeMeters>587.79998779296875</AltitudeMeters>
            <DistanceMeters>NAN</DistanceMeters>
          </Trackpoint>
          <Trackpoint>
            <Time>2021-04-03T11:15:27.000Z</Time>
            <Position>
              <LatitudeDegrees>42.30298292823135852813720703125</LatitudeDegrees>
              <LongitudeDegrees>2.5163090229034423828125</LongitudeDegrees>
            </Position>
            <AltitudeMeters>587.20001220703125</AltitudeMeters>
            <DistanceMeters>NAN</DistanceMeters>
          </Trackpoint>
          <Trackpoint>
            <Time>2021-04-03T11:15:28.000Z</Time>
            <Position>
              <LatitudeDegrees>42.30298527516424655914306640625</LatitudeDegrees>
              <LongitudeDegrees>2.51629452221095561981201171875</LongitudeDegrees>
            </Position>
            <AltitudeMeters>586.79998779296875</AltitudeMeters>
            <DistanceMeters>NAN</DistanceMeters>
          </Trackpoint>
          <Trackpoint>
            <Time>2021-04-03T11:15:29.000Z</Time>
            <Position>
              <LatitudeDegrees>42.30299013666808605194091796875</LatitudeDegrees>
              <LongitudeDegrees>2.51628111116588115692138671875</LongitudeDegrees>
            </Position>
            <AltitudeMeters>586.5999755859375</AltitudeMeters>
            <DistanceMeters>NAN</DistanceMeters>
          </Trackpoint>
          <Trackpoint>
            <Time>2021-04-03T11:15:31.000Z</Time>
            <Position>
              <LatitudeDegrees>42.30300036258995532989501953125</LatitudeDegrees>
              <LongitudeDegrees>2.51625479198992252349853515625</LongitudeDegrees>
            </Position>
            <AltitudeMeters>586</AltitudeMeters>
            <DistanceMeters>NAN</DistanceMeters>
          </Trackpoint>
          <Trackpoint>
            <Time>2021-04-03T11:15:35.000Z</Time>
            <Position>
              <LatitudeDegrees>42.30300773866474628448486328125</LatitudeDegrees>
              <LongitudeDegrees>2.51620500348508358001708984375</LongitudeDegrees>
            </Position>
            <AltitudeMeters>585.20001220703125</AltitudeMeters>
            <DistanceMeters>NAN</DistanceMeters>
          </Trackpoint>
          <Trackpoint>
            <Time>2021-04-03T11:15:36.000Z</Time>
            <Position>
              <LatitudeDegrees>42.3030061461031436920166015625</LatitudeDegrees>
              <LongitudeDegrees>2.5161951966583728790283203125</LongitudeDegrees>
            </Position>
            <AltitudeMeters>585</AltitudeMeters>
            <DistanceMeters>NAN</DistanceMeters>
          </Trackpoint>
          <Trackpoint>
            <Time>2021-04-03T11:15:39.000Z</Time>
            <Position>
              <LatitudeDegrees>42.3029980994760990142822265625</LatitudeDegrees>
              <LongitudeDegrees>2.51615085639059543609619140625</LongitudeDegrees>
            </Position>
            <AltitudeMeters>583.79998779296875</AltitudeMeters>
            <DistanceMeters>NAN</DistanceMeters>
          </Trackpoint>
          <Trackpoint>
            <Time>2021-04-03T11:15:42.000Z</Time>
            <Position>
              <LatitudeDegrees>42.30298946611583232879638671875</LatitudeDegrees>
              <LongitudeDegrees>2.51611263491213321685791015625</LongitudeDegrees>
            </Position>
            <AltitudeMeters>582.79998779296875</AltitudeMeters>
            <DistanceMeters>NAN</DistanceMeters>
          </Trackpoint>
          <Trackpoint>
            <Time>2021-04-03T11:15:44.000Z</Time>
            <Position>
              <LatitudeDegrees>42.30298778973519802093505859375</LatitudeDegrees>
              <LongitudeDegrees>2.51608883030712604522705078125</LongitudeDegrees>
            </Position>
            <AltitudeMeters>582.79998779296875</AltitudeMeters>
            <DistanceMeters>NAN</DistanceMeters>
          </Trackpoint>
          <Trackpoint>
            <Time>2021-04-03T11:15:45.000Z</Time>
            <Position>
              <LatitudeDegrees>42.3029883764684200286865234375</LatitudeDegrees>
              <LongitudeDegrees>2.51607676036655902862548828125</LongitudeDegrees>
            </Position>
            <AltitudeMeters>582.5999755859375</AltitudeMeters>
            <DistanceMeters>NAN</DistanceMeters>
          </Trackpoint>
          <Trackpoint>
            <Time>2021-04-03T11:15:47.000Z</Time>
            <Position>
              <LatitudeDegrees>42.30299131013453006744384765625</LatitudeDegrees>
              <LongitudeDegrees>2.51604926772415637969970703125</LongitudeDegrees>
            </Position>
            <AltitudeMeters>582.20001220703125</AltitudeMeters>
            <DistanceMeters>NAN</DistanceMeters>
          </Trackpoint>
          <Trackpoint>
            <Time>2021-04-03T11:15:49.000Z</Time>
            <Position>
              <LatitudeDegrees>42.3029907234013080596923828125</LatitudeDegrees>
              <LongitudeDegrees>2.51602127216756343841552734375</LongitudeDegrees>
            </Position>
            <AltitudeMeters>581.4000244140625</AltitudeMeters>
            <DistanceMeters>NAN</DistanceMeters>
          </Trackpoint>
          <Trackpoint>
            <Time>2021-04-03T11:15:55.000Z</Time>
            <Position>
              <LatitudeDegrees>42.30301142670214176177978515625</LatitudeDegrees>
              <LongitudeDegrees>2.5159517861902713775634765625</LongitudeDegrees>
            </Position>
            <AltitudeMeters>580.20001220703125</AltitudeMeters>
            <DistanceMeters>NAN</DistanceMeters>
          </Trackpoint>
          <Trackpoint>
            <Time>2021-04-03T11:16:00.000Z</Time>
            <Position>
              <LatitudeDegrees>42.3030198924243450164794921875</LatitudeDegrees>
              <LongitudeDegrees>2.51589973457157611846923828125</LongitudeDegrees>
            </Position>
            <AltitudeMeters>579.4000244140625</AltitudeMeters>
            <DistanceMeters>NAN</DistanceMeters>
          </Trackpoint>
          <Trackpoint>
            <Time>2021-04-03T11:16:01.000Z</Time>
            <Position>
              <LatitudeDegrees>42.30302064679563045501708984375</LatitudeDegrees>
              <LongitudeDegrees>2.51588531769812107086181640625</LongitudeDegrees>
            </Position>
            <AltitudeMeters>579.4000244140625</AltitudeMeters>
            <DistanceMeters>NAN</DistanceMeters>
          </Trackpoint>
          <Trackpoint>
            <Time>2021-04-03T11:16:02.000Z</Time>
            <Position>
              <LatitudeDegrees>42.303017042577266693115234375</LatitudeDegrees>
              <LongitudeDegrees>2.515870817005634307861328125</LongitudeDegrees>
            </Position>
            <AltitudeMeters>579.20001220703125</AltitudeMeters>
            <DistanceMeters>NAN</DistanceMeters>
          </Trackpoint>
          <Trackpoint>
            <Time>2021-04-03T11:16:04.000Z</Time>
            <Position>
              <LatitudeDegrees>42.30301427654922008514404296875</LatitudeDegrees>
              <LongitudeDegrees>2.51584256999194622039794921875</LongitudeDegrees>
            </Position>
            <AltitudeMeters>578.79998779296875</AltitudeMeters>
            <DistanceMeters>NAN</DistanceMeters>
          </Trackpoint>
          <Trackpoint>
            <Time>2021-04-03T11:16:06.000Z</Time>
            <Position>
              <LatitudeDegrees>42.30301134288311004638671875</LatitudeDegrees>
              <LongitudeDegrees>2.51581172458827495574951171875</LongitudeDegrees>
            </Position>
            <AltitudeMeters>578.20001220703125</AltitudeMeters>
            <DistanceMeters>NAN</DistanceMeters>
          </Trackpoint>
          <Trackpoint>
            <Time>2021-04-03T11:16:07.000Z</Time>
            <Position>
              <LatitudeDegrees>42.303005643188953399658203125</LatitudeDegrees>
              <LongitudeDegrees>2.5157965533435344696044921875</LongitudeDegrees>
            </Position>
            <AltitudeMeters>578.20001220703125</AltitudeMeters>
            <DistanceMeters>NAN</DistanceMeters>
          </Trackpoint>
          <Trackpoint>
            <Time>2021-04-03T11:16:08.000Z</Time>
            <Position>
              <LatitudeDegrees>42.3029959201812744140625</LatitudeDegrees>
              <LongitudeDegrees>2.51578507013618946075439453125</LongitudeDegrees>
            </Position>
            <AltitudeMeters>578</AltitudeMeters>
            <DistanceMeters>NAN</DistanceMeters>
          </Trackpoint>
          <Trackpoint>
            <Time>2021-04-03T11:16:13.000Z</Time>
            <Position>
              <LatitudeDegrees>42.3029880411922931671142578125</LatitudeDegrees>
              <LongitudeDegrees>2.51572497189044952392578125</LongitudeDegrees>
            </Position>
            <AltitudeMeters>577.20001220703125</AltitudeMeters>
            <DistanceMeters>NAN</DistanceMeters>
          </Trackpoint>
          <Trackpoint>
            <Time>2021-04-03T11:16:15.000Z</Time>
            <Position>
              <LatitudeDegrees>42.30299248360097408294677734375</LatitudeDegrees>
              <LongitudeDegrees>2.5156983174383640289306640625</LongitudeDegrees>
            </Position>
            <AltitudeMeters>577</AltitudeMeters>
            <DistanceMeters>NAN</DistanceMeters>
          </Trackpoint>
          <Trackpoint>
            <Time>2021-04-03T11:16:19.000Z</Time>
            <Position>
              <LatitudeDegrees>42.30299918912351131439208984375</LatitudeDegrees>
              <LongitudeDegrees>2.515641488134860992431640625</LongitudeDegrees>
            </Position>
            <AltitudeMeters>576.20001220703125</AltitudeMeters>
            <DistanceMeters>NAN</DistanceMeters>
          </Trackpoint>
          <Trackpoint>
            <Time>2021-04-03T11:16:20.000Z</Time>
            <Position>
              <LatitudeDegrees>42.3030131869018077850341796875</LatitudeDegrees>
              <LongitudeDegrees>2.51562614925205707550048828125</LongitudeDegrees>
            </Position>
            <AltitudeMeters>576</AltitudeMeters>
            <DistanceMeters>NAN</DistanceMeters>
          </Trackpoint>
          <Trackpoint>
            <Time>2021-04-03T11:16:23.000Z</Time>
            <Position>
              <LatitudeDegrees>42.30304009281098842620849609375</LatitudeDegrees>
              <LongitudeDegrees>2.5155886821448802947998046875</LongitudeDegrees>
            </Position>
            <AltitudeMeters>575.4000244140625</AltitudeMeters>
            <DistanceMeters>NAN</DistanceMeters>
          </Trackpoint>
          <Trackpoint>
            <Time>2021-04-03T11:16:25.000Z</Time>
            <Position>
              <LatitudeDegrees>42.30303757824003696441650390625</LatitudeDegrees>
              <LongitudeDegrees>2.51556814648211002349853515625</LongitudeDegrees>
            </Position>
            <AltitudeMeters>575.4000244140625</AltitudeMeters>
            <DistanceMeters>NAN</DistanceMeters>
          </Trackpoint>
          <Trackpoint>
            <Time>2021-04-03T11:16:28.000Z</Time>
            <Position>
              <LatitudeDegrees>42.30304243974387645721435546875</LatitudeDegrees>
              <LongitudeDegrees>2.5155343674123287200927734375</LongitudeDegrees>
            </Position>
            <AltitudeMeters>575</AltitudeMeters>
            <DistanceMeters>NAN</DistanceMeters>
          </Trackpoint>
          <Trackpoint>
            <Time>2021-04-03T11:16:29.000Z</Time>
            <Position>
              <LatitudeDegrees>42.30304487049579620361328125</LatitudeDegrees>
              <LongitudeDegrees>2.515521459281444549560546875</LongitudeDegrees>
            </Position>
            <AltitudeMeters>575</AltitudeMeters>
            <DistanceMeters>NAN</DistanceMeters>
          </Trackpoint>
          <Trackpoint>
            <Time>2021-04-03T11:16:30.000Z</Time>
            <Position>
              <LatitudeDegrees>42.3030483908951282501220703125</LatitudeDegrees>
              <LongitudeDegrees>2.51550771296024322509765625</LongitudeDegrees>
            </Position>
            <AltitudeMeters>574.79998779296875</AltitudeMeters>
            <DistanceMeters>NAN</DistanceMeters>
          </Trackpoint>
          <Trackpoint>
            <Time>2021-04-03T11:16:32.000Z</Time>
            <Position>
              <LatitudeDegrees>42.30306037701666355133056640625</LatitudeDegrees>
              <LongitudeDegrees>2.51547753810882568359375</LongitudeDegrees>
            </Position>
            <AltitudeMeters>574.79998779296875</AltitudeMeters>
            <DistanceMeters>NAN</DistanceMeters>
          </Trackpoint>
          <Trackpoint>
            <Time>2021-04-03T11:16:37.000Z</Time>
            <Position>
              <LatitudeDegrees>42.30306942947208881378173828125</LatitudeDegrees>
              <LongitudeDegrees>2.5153823196887969970703125</LongitudeDegrees>
            </Position>
            <AltitudeMeters>574.4000244140625</AltitudeMeters>
            <DistanceMeters>NAN</DistanceMeters>
          </Trackpoint>
          <Trackpoint>
            <Time>2021-04-03T11:16:39.000Z</Time>
            <Position>
              <LatitudeDegrees>42.303085438907146453857421875</LatitudeDegrees>
              <LongitudeDegrees>2.51535893417894840240478515625</LongitudeDegrees>
            </Position>
            <AltitudeMeters>574.4000244140625</AltitudeMeters>
            <DistanceMeters>NAN</DistanceMeters>
          </Trackpoint>
          <Trackpoint>
            <Time>2021-04-03T11:16:41.000Z</Time>
            <Position>
              <LatitudeDegrees>42.30310245417058467864990234375</LatitudeDegrees>
              <LongitudeDegrees>2.5153258256614208221435546875</LongitudeDegrees>
            </Position>
            <AltitudeMeters>574.20001220703125</AltitudeMeters>
            <DistanceMeters>NAN</DistanceMeters>
          </Trackpoint>
          <Trackpoint>
            <Time>2021-04-03T11:16:43.000Z</Time>
            <Position>
              <LatitudeDegrees>42.30310647748410701751708984375</LatitudeDegrees>
              <LongitudeDegrees>2.515287101268768310546875</LongitudeDegrees>
            </Position>
            <AltitudeMeters>573.79998779296875</AltitudeMeters>
            <DistanceMeters>NAN</DistanceMeters>
          </Trackpoint>
          <Trackpoint>
            <Time>2021-04-03T11:16:44.000Z</Time>
            <Position>
              <LatitudeDegrees>42.30310731567442417144775390625</LatitudeDegrees>
              <LongitudeDegrees>2.51527913846075534820556640625</LongitudeDegrees>
            </Position>
            <AltitudeMeters>573.79998779296875</AltitudeMeters>
            <DistanceMeters>NAN</DistanceMeters>
          </Trackpoint>
          <Trackpoint>
            <Time>2021-04-03T11:16:45.000Z</Time>
            <Position>
              <LatitudeDegrees>42.30310765095055103302001953125</LatitudeDegrees>
              <LongitudeDegrees>2.51526757143437862396240234375</LongitudeDegrees>
            </Position>
            <AltitudeMeters>573.5999755859375</AltitudeMeters>
            <DistanceMeters>NAN</DistanceMeters>
          </Trackpoint>
          <Trackpoint>
            <Time>2021-04-03T11:16:49.000Z</Time>
            <Position>
              <LatitudeDegrees>42.30310882441699504852294921875</LatitudeDegrees>
              <LongitudeDegrees>2.51521996222436428070068359375</LongitudeDegrees>
            </Position>
            <AltitudeMeters>573</AltitudeMeters>
            <DistanceMeters>NAN</DistanceMeters>
          </Trackpoint>
          <Trackpoint>
            <Time>2021-04-03T11:16:50.000Z</Time>
            <Position>
              <LatitudeDegrees>42.30310790240764617919921875</LatitudeDegrees>
              <LongitudeDegrees>2.5152064673602581024169921875</LongitudeDegrees>
            </Position>
            <AltitudeMeters>572.79998779296875</AltitudeMeters>
            <DistanceMeters>NAN</DistanceMeters>
          </Trackpoint>
          <Trackpoint>
            <Time>2021-04-03T11:16:53.000Z</Time>
            <Position>
              <LatitudeDegrees>42.30310413055121898651123046875</LatitudeDegrees>
              <LongitudeDegrees>2.51517671160399913787841796875</LongitudeDegrees>
            </Position>
            <AltitudeMeters>572.4000244140625</AltitudeMeters>
            <DistanceMeters>NAN</DistanceMeters>
          </Trackpoint>
          <Trackpoint>
            <Time>2021-04-03T11:16:54.000Z</Time>
            <Position>
              <LatitudeDegrees>42.3031053878366947174072265625</LatitudeDegrees>
              <LongitudeDegrees>2.51516413874924182891845703125</LongitudeDegrees>
            </Position>
            <AltitudeMeters>572</AltitudeMeters>
            <DistanceMeters>NAN</DistanceMeters>
          </Trackpoint>
          <Trackpoint>
            <Time>2021-04-03T11:16:55.000Z</Time>
            <Position>
              <LatitudeDegrees>42.30310379527509212493896484375</LatitudeDegrees>
              <LongitudeDegrees>2.515153326094150543212890625</LongitudeDegrees>
            </Position>
            <AltitudeMeters>571.5999755859375</AltitudeMeters>
            <DistanceMeters>NAN</DistanceMeters>
          </Trackpoint>
          <Trackpoint>
            <Time>2021-04-03T11:16:57.000Z</Time>
            <Position>
              <LatitudeDegrees>42.3030996881425380706787109375</LatitudeDegrees>
              <LongitudeDegrees>2.51513622701168060302734375</LongitudeDegrees>
            </Position>
            <AltitudeMeters>571.20001220703125</AltitudeMeters>
            <DistanceMeters>NAN</DistanceMeters>
          </Trackpoint>
          <Trackpoint>
            <Time>2021-04-03T11:16:59.000Z</Time>
            <Position>
              <LatitudeDegrees>42.30310253798961639404296875</LatitudeDegrees>
              <LongitudeDegrees>2.51511217094957828521728515625</LongitudeDegrees>
            </Position>
            <AltitudeMeters>570.5999755859375</AltitudeMeters>
            <DistanceMeters>NAN</DistanceMeters>
          </Trackpoint>
          <Trackpoint>
            <Time>2021-04-03T11:17:00.000Z</Time>
            <Position>
              <LatitudeDegrees>42.30310580693185329437255859375</LatitudeDegrees>
              <LongitudeDegrees>2.51510110683739185333251953125</LongitudeDegrees>
            </Position>
            <AltitudeMeters>570.5999755859375</AltitudeMeters>
            <DistanceMeters>NAN</DistanceMeters>
          </Trackpoint>
          <Trackpoint>
            <Time>2021-04-03T11:17:04.000Z</Time>
            <Position>
              <LatitudeDegrees>42.30311997234821319580078125</LatitudeDegrees>
              <LongitudeDegrees>2.5150327943265438079833984375</LongitudeDegrees>
            </Position>
            <AltitudeMeters>570.20001220703125</AltitudeMeters>
            <DistanceMeters>NAN</DistanceMeters>
          </Trackpoint>
          <Trackpoint>
            <Time>2021-04-03T11:17:06.000Z</Time>
            <Position>
              <LatitudeDegrees>42.30312927626073360443115234375</LatitudeDegrees>
              <LongitudeDegrees>2.5150094926357269287109375</LongitudeDegrees>
            </Position>
            <AltitudeMeters>569.5999755859375</AltitudeMeters>
            <DistanceMeters>NAN</DistanceMeters>
          </Trackpoint>
          <Trackpoint>
            <Time>2021-04-03T11:17:07.000Z</Time>
            <Position>
              <LatitudeDegrees>42.303132377564907073974609375</LatitudeDegrees>
              <LongitudeDegrees>2.51499633304774761199951171875</LongitudeDegrees>
            </Position>
            <AltitudeMeters>569</AltitudeMeters>
            <DistanceMeters>NAN</DistanceMeters>
          </Trackpoint>
          <Trackpoint>
            <Time>2021-04-03T11:17:08.000Z</Time>
            <Position>
              <LatitudeDegrees>42.30313011445105075836181640625</LatitudeDegrees>
              <LongitudeDegrees>2.5149861909449100494384765625</LongitudeDegrees>
            </Position>
            <AltitudeMeters>568.5999755859375</AltitudeMeters>
            <DistanceMeters>NAN</DistanceMeters>
          </Trackpoint>
          <Trackpoint>
            <Time>2021-04-03T11:17:10.000Z</Time>
            <Position>
              <LatitudeDegrees>42.303125001490116119384765625</LatitudeDegrees>
              <LongitudeDegrees>2.514972947537899017333984375</LongitudeDegrees>
            </Position>
            <AltitudeMeters>568</AltitudeMeters>
            <DistanceMeters>NAN</DistanceMeters>
          </Trackpoint>
          <Trackpoint>
            <Time>2021-04-03T11:17:12.000Z</Time>
            <Position>
              <LatitudeDegrees>42.3031211458146572113037109375</LatitudeDegrees>
              <LongitudeDegrees>2.51495626755058765411376953125</LongitudeDegrees>
            </Position>
            <AltitudeMeters>567.5999755859375</AltitudeMeters>
            <DistanceMeters>NAN</DistanceMeters>
          </Trackpoint>
          <Trackpoint>
            <Time>2021-04-03T11:17:13.000Z</Time>
            <Position>
              <LatitudeDegrees>42.30312257073819637298583984375</LatitudeDegrees>
              <LongitudeDegrees>2.51494444906711578369140625</LongitudeDegrees>
            </Position>
            <AltitudeMeters>567.4000244140625</AltitudeMeters>
            <DistanceMeters>NAN</DistanceMeters>
          </Trackpoint>
          <Trackpoint>
            <Time>2021-04-03T11:17:18.000Z</Time>
            <Position>
              <LatitudeDegrees>42.303127013146877288818359375</LatitudeDegrees>
              <LongitudeDegrees>2.51490010879933834075927734375</LongitudeDegrees>
            </Position>
            <AltitudeMeters>566.5999755859375</AltitudeMeters>
            <DistanceMeters>NAN</DistanceMeters>
          </Trackpoint>
          <Trackpoint>
            <Time>2021-04-03T11:17:19.000Z</Time>
            <Position>
              <LatitudeDegrees>42.30313011445105075836181640625</LatitudeDegrees>
              <LongitudeDegrees>2.5148973427712917327880859375</LongitudeDegrees>
            </Position>
            <AltitudeMeters>566.5999755859375</AltitudeMeters>
            <DistanceMeters>NAN</DistanceMeters>
          </Trackpoint>
          <Trackpoint>
            <Time>2021-04-03T11:17:23.000Z</Time>
            <Position>
              <LatitudeDegrees>42.3031462915241718292236328125</LatitudeDegrees>
              <LongitudeDegrees>2.51487881876528263092041015625</LongitudeDegrees>
            </Position>
            <AltitudeMeters>566.4000244140625</AltitudeMeters>
            <DistanceMeters>NAN</DistanceMeters>
          </Trackpoint>
          <Trackpoint>
            <Time>2021-04-03T11:17:25.000Z</Time>
            <Position>
              <LatitudeDegrees>42.30315224267542362213134765625</LatitudeDegrees>
              <LongitudeDegrees>2.51486708410084247589111328125</LongitudeDegrees>
            </Position>
            <AltitudeMeters>566.20001220703125</AltitudeMeters>
            <DistanceMeters>NAN</DistanceMeters>
          </Trackpoint>
          <Trackpoint>
            <Time>2021-04-03T11:17:29.000Z</Time>
            <Position>
              <LatitudeDegrees>42.303171940147876739501953125</LatitudeDegrees>
              <LongitudeDegrees>2.514818049967288970947265625</LongitudeDegrees>
            </Position>
            <AltitudeMeters>565.4000244140625</AltitudeMeters>
            <DistanceMeters>NAN</DistanceMeters>
          </Trackpoint>
          <Trackpoint>
            <Time>2021-04-03T11:17:32.000Z</Time>
            <Position>
              <LatitudeDegrees>42.30317286215722560882568359375</LatitudeDegrees>
              <LongitudeDegrees>2.51476868055760860443115234375</LongitudeDegrees>
            </Position>
            <AltitudeMeters>565.20001220703125</AltitudeMeters>
            <DistanceMeters>NAN</DistanceMeters>
          </Trackpoint>
          <Trackpoint>
            <Time>2021-04-03T11:17:36.000Z</Time>
            <Position>
              <LatitudeDegrees>42.3031818307936191558837890625</LatitudeDegrees>
              <LongitudeDegrees>2.514722160995006561279296875</LongitudeDegrees>
            </Position>
            <AltitudeMeters>564.4000244140625</AltitudeMeters>
            <DistanceMeters>NAN</DistanceMeters>
          </Trackpoint>
          <Trackpoint>
            <Time>2021-04-03T11:17:37.000Z</Time>
            <Position>
              <LatitudeDegrees>42.30318509973585605621337890625</LatitudeDegrees>
              <LongitudeDegrees>2.514714114367961883544921875</LongitudeDegrees>
            </Position>
            <AltitudeMeters>564</AltitudeMeters>
            <DistanceMeters>NAN</DistanceMeters>
          </Trackpoint>
          <Trackpoint>
            <Time>2021-04-03T11:17:40.000Z</Time>
            <Position>
              <LatitudeDegrees>42.303178645670413970947265625</LatitudeDegrees>
              <LongitudeDegrees>2.51468620263040065765380859375</LongitudeDegrees>
            </Position>
            <AltitudeMeters>563.20001220703125</AltitudeMeters>
            <DistanceMeters>NAN</DistanceMeters>
          </Trackpoint>
          <Trackpoint>
            <Time>2021-04-03T11:17:42.000Z</Time>
            <Position>
              <LatitudeDegrees>42.303177975118160247802734375</LatitudeDegrees>
              <LongitudeDegrees>2.5146649964153766632080078125</LongitudeDegrees>
            </Position>
            <AltitudeMeters>562.79998779296875</AltitudeMeters>
            <DistanceMeters>NAN</DistanceMeters>
          </Trackpoint>
          <Trackpoint>
            <Time>2021-04-03T11:17:44.000Z</Time>
            <Position>
              <LatitudeDegrees>42.3031821660697460174560546875</LatitudeDegrees>
              <LongitudeDegrees>2.5146438740193843841552734375</LongitudeDegrees>
            </Position>
            <AltitudeMeters>562.20001220703125</AltitudeMeters>
            <DistanceMeters>NAN</DistanceMeters>
          </Trackpoint>
          <Trackpoint>
            <Time>2021-04-03T11:17:45.000Z</Time>
            <Position>
              <LatitudeDegrees>42.30318426154553890228271484375</LatitudeDegrees>
              <LongitudeDegrees>2.514634318649768829345703125</LongitudeDegrees>
            </Position>
            <AltitudeMeters>562</AltitudeMeters>
            <DistanceMeters>NAN</DistanceMeters>
          </Trackpoint>
          <Trackpoint>
            <Time>2021-04-03T11:17:46.000Z</Time>
            <Position>
              <LatitudeDegrees>42.30318426154553890228271484375</LatitudeDegrees>
              <LongitudeDegrees>2.5146197341382503509521484375</LongitudeDegrees>
            </Position>
            <AltitudeMeters>561.79998779296875</AltitudeMeters>
            <DistanceMeters>NAN</DistanceMeters>
          </Trackpoint>
          <Trackpoint>
            <Time>2021-04-03T11:17:48.000Z</Time>
            <Position>
              <LatitudeDegrees>42.30317202396690845489501953125</LatitudeDegrees>
              <LongitudeDegrees>2.51459131948649883270263671875</LongitudeDegrees>
            </Position>
            <AltitudeMeters>561.4000244140625</AltitudeMeters>
            <DistanceMeters>NAN</DistanceMeters>
          </Trackpoint>
          <Trackpoint>
            <Time>2021-04-03T11:17:49.000Z</Time>
            <Position>
              <LatitudeDegrees>42.3031633906066417694091796875</LatitudeDegrees>
              <LongitudeDegrees>2.51457966864109039306640625</LongitudeDegrees>
            </Position>
            <AltitudeMeters>561.4000244140625</AltitudeMeters>
            <DistanceMeters>NAN</DistanceMeters>
          </Trackpoint>
          <Trackpoint>
            <Time>2021-04-03T11:17:50.000Z</Time>
            <Position>
              <LatitudeDegrees>42.3031566850841045379638671875</LatitudeDegrees>
              <LongitudeDegrees>2.51456248573958873748779296875</LongitudeDegrees>
            </Position>
            <AltitudeMeters>561</AltitudeMeters>
            <DistanceMeters>NAN</DistanceMeters>
          </Trackpoint>
          <Trackpoint>
            <Time>2021-04-03T11:17:52.000Z</Time>
            <Position>
              <LatitudeDegrees>42.30314738117158412933349609375</LatitudeDegrees>
              <LongitudeDegrees>2.514529712498188018798828125</LongitudeDegrees>
            </Position>
            <AltitudeMeters>560.4000244140625</AltitudeMeters>
            <DistanceMeters>NAN</DistanceMeters>
          </Trackpoint>
          <Trackpoint>
            <Time>2021-04-03T11:17:54.000Z</Time>
            <Position>
              <LatitudeDegrees>42.303147800266742706298828125</LatitudeDegrees>
              <LongitudeDegrees>2.51449559815227985382080078125</LongitudeDegrees>
            </Position>
            <AltitudeMeters>559.79998779296875</AltitudeMeters>
            <DistanceMeters>NAN</DistanceMeters>
          </Trackpoint>
          <Trackpoint>
            <Time>2021-04-03T11:17:56.000Z</Time>
            <Position>
              <LatitudeDegrees>42.303151823580265045166015625</LatitudeDegrees>
              <LongitudeDegrees>2.51446844078600406646728515625</LongitudeDegrees>
            </Position>
            <AltitudeMeters>559.4000244140625</AltitudeMeters>
            <DistanceMeters>NAN</DistanceMeters>
          </Trackpoint>
          <Trackpoint>
            <Time>2021-04-03T11:17:57.000Z</Time>
            <Position>
              <LatitudeDegrees>42.30315693654119968414306640625</LatitudeDegrees>
              <LongitudeDegrees>2.51445653848350048065185546875</LongitudeDegrees>
            </Position>
            <AltitudeMeters>559.20001220703125</AltitudeMeters>
            <DistanceMeters>NAN</DistanceMeters>
          </Trackpoint>
          <Trackpoint>
            <Time>2021-04-03T11:17:59.000Z</Time>
            <Position>
              <LatitudeDegrees>42.30316515080630779266357421875</LatitudeDegrees>
              <LongitudeDegrees>2.5144422054290771484375</LongitudeDegrees>
            </Position>
            <AltitudeMeters>558.79998779296875</AltitudeMeters>
            <DistanceMeters>NAN</DistanceMeters>
          </Trackpoint>
          <Trackpoint>
            <Time>2021-04-03T11:18:03.000Z</Time>
            <Position>
              <LatitudeDegrees>42.3031690903007984161376953125</LatitudeDegrees>
              <LongitudeDegrees>2.51438261009752750396728515625</LongitudeDegrees>
            </Position>
            <AltitudeMeters>557.79998779296875</AltitudeMeters>
            <DistanceMeters>NAN</DistanceMeters>
          </Trackpoint>
          <Trackpoint>
            <Time>2021-04-03T11:18:04.000Z</Time>
            <Position>
              <LatitudeDegrees>42.30317118577659130096435546875</LatitudeDegrees>
              <LongitudeDegrees>2.5143712945282459259033203125</LongitudeDegrees>
            </Position>
            <AltitudeMeters>557.5999755859375</AltitudeMeters>
            <DistanceMeters>NAN</DistanceMeters>
          </Trackpoint>
          <Trackpoint>
            <Time>2021-04-03T11:18:08.000Z</Time>
            <Position>
              <LatitudeDegrees>42.30317688547074794769287109375</LatitudeDegrees>
              <LongitudeDegrees>2.51431857235729694366455078125</LongitudeDegrees>
            </Position>
            <AltitudeMeters>556.5999755859375</AltitudeMeters>
            <DistanceMeters>NAN</DistanceMeters>
          </Trackpoint>
          <Trackpoint>
            <Time>2021-04-03T11:18:09.000Z</Time>
            <Position>
              <LatitudeDegrees>42.303181327879428863525390625</LatitudeDegrees>
              <LongitudeDegrees>2.5143092684447765350341796875</LongitudeDegrees>
            </Position>
            <AltitudeMeters>556.4000244140625</AltitudeMeters>
            <DistanceMeters>NAN</DistanceMeters>
          </Trackpoint>
          <Trackpoint>
            <Time>2021-04-03T11:18:11.000Z</Time>
            <Position>
              <LatitudeDegrees>42.30318568646907806396484375</LatitudeDegrees>
              <LongitudeDegrees>2.51428538002073764801025390625</LongitudeDegrees>
            </Position>
            <AltitudeMeters>556</AltitudeMeters>
            <DistanceMeters>NAN</DistanceMeters>
          </Trackpoint>
          <Trackpoint>
            <Time>2021-04-03T11:18:15.000Z</Time>
            <Position>
              <LatitudeDegrees>42.3031690903007984161376953125</LatitudeDegrees>
              <LongitudeDegrees>2.51423642970621585845947265625</LongitudeDegrees>
            </Position>
            <AltitudeMeters>555.4000244140625</AltitudeMeters>
            <DistanceMeters>NAN</DistanceMeters>
          </Trackpoint>
          <Trackpoint>
            <Time>2021-04-03T11:18:18.000Z</Time>
            <Position>
              <LatitudeDegrees>42.30316833592951297760009765625</LatitudeDegrees>
              <LongitudeDegrees>2.514190413057804107666015625</LongitudeDegrees>
            </Position>
            <AltitudeMeters>554.5999755859375</AltitudeMeters>
            <DistanceMeters>NAN</DistanceMeters>
          </Trackpoint>
          <Trackpoint>
            <Time>2021-04-03T11:18:19.000Z</Time>
            <Position>
              <LatitudeDegrees>42.30316632427275180816650390625</LatitudeDegrees>
              <LongitudeDegrees>2.51417742110788822174072265625</LongitudeDegrees>
            </Position>
            <AltitudeMeters>554.4000244140625</AltitudeMeters>
            <DistanceMeters>NAN</DistanceMeters>
          </Trackpoint>
          <Trackpoint>
            <Time>2021-04-03T11:18:20.000Z</Time>
            <Position>
              <LatitudeDegrees>42.3031608760356903076171875</LatitudeDegrees>
              <LongitudeDegrees>2.5141657702624797821044921875</LongitudeDegrees>
            </Position>
            <AltitudeMeters>554.20001220703125</AltitudeMeters>
            <DistanceMeters>NAN</DistanceMeters>
          </Trackpoint>
          <Trackpoint>
            <Time>2021-04-03T11:18:24.000Z</Time>
            <Position>
              <LatitudeDegrees>42.30314302258193492889404296875</LatitudeDegrees>
              <LongitudeDegrees>2.514101229608058929443359375</LongitudeDegrees>
            </Position>
            <AltitudeMeters>553.4000244140625</AltitudeMeters>
            <DistanceMeters>NAN</DistanceMeters>
          </Trackpoint>
          <Trackpoint>
            <Time>2021-04-03T11:18:25.000Z</Time>
            <Position>
              <LatitudeDegrees>42.303139083087444305419921875</LatitudeDegrees>
              <LongitudeDegrees>2.514083795249462127685546875</LongitudeDegrees>
            </Position>
            <AltitudeMeters>553.20001220703125</AltitudeMeters>
            <DistanceMeters>NAN</DistanceMeters>
          </Trackpoint>
          <Trackpoint>
            <Time>2021-04-03T11:18:29.000Z</Time>
            <Position>
              <LatitudeDegrees>42.303134389221668243408203125</LatitudeDegrees>
              <LongitudeDegrees>2.5140470825135707855224609375</LongitudeDegrees>
            </Position>
            <AltitudeMeters>552.20001220703125</AltitudeMeters>
            <DistanceMeters>NAN</DistanceMeters>
          </Trackpoint>
          <Trackpoint>
            <Time>2021-04-03T11:18:30.000Z</Time>
            <Position>
              <LatitudeDegrees>42.303134389221668243408203125</LatitudeDegrees>
              <LongitudeDegrees>2.51403878442943096160888671875</LongitudeDegrees>
            </Position>
            <AltitudeMeters>552</AltitudeMeters>
            <DistanceMeters>NAN</DistanceMeters>
          </Trackpoint>
          <Trackpoint>
            <Time>2021-04-03T11:18:31.000Z</Time>
            <Position>
              <LatitudeDegrees>42.30313514359295368194580078125</LatitudeDegrees>
              <LongitudeDegrees>2.51402922905981540679931640625</LongitudeDegrees>
            </Position>
            <AltitudeMeters>551.79998779296875</AltitudeMeters>
            <DistanceMeters>NAN</DistanceMeters>
          </Trackpoint>
          <Trackpoint>
            <Time>2021-04-03T11:18:34.000Z</Time>
            <Position>
              <LatitudeDegrees>42.30313531123101711273193359375</LatitudeDegrees>
              <LongitudeDegrees>2.51400156877934932708740234375</LongitudeDegrees>
            </Position>
            <AltitudeMeters>551.5999755859375</AltitudeMeters>
            <DistanceMeters>NAN</DistanceMeters>
          </Trackpoint>
          <Trackpoint>
            <Time>2021-04-03T11:18:35.000Z</Time>
            <Position>
              <LatitudeDegrees>42.303136400878429412841796875</LatitudeDegrees>
              <LongitudeDegrees>2.5139867328107357025146484375</LongitudeDegrees>
            </Position>
            <AltitudeMeters>551.20001220703125</AltitudeMeters>
            <DistanceMeters>NAN</DistanceMeters>
          </Trackpoint>
          <Trackpoint>
            <Time>2021-04-03T11:18:38.000Z</Time>
            <Position>
              <LatitudeDegrees>42.30313464067876338958740234375</LatitudeDegrees>
              <LongitudeDegrees>2.5139401294291019439697265625</LongitudeDegrees>
            </Position>
            <AltitudeMeters>550.4000244140625</AltitudeMeters>
            <DistanceMeters>NAN</DistanceMeters>
          </Trackpoint>
          <Trackpoint>
            <Time>2021-04-03T11:18:39.000Z</Time>
            <Position>
              <LatitudeDegrees>42.30313346721231937408447265625</LatitudeDegrees>
              <LongitudeDegrees>2.5139156542718410491943359375</LongitudeDegrees>
            </Position>
            <AltitudeMeters>550</AltitudeMeters>
            <DistanceMeters>NAN</DistanceMeters>
          </Trackpoint>
          <Trackpoint>
            <Time>2021-04-03T11:18:43.000Z</Time>
            <Position>
              <LatitudeDegrees>42.3031194694340229034423828125</LatitudeDegrees>
              <LongitudeDegrees>2.51384608447551727294921875</LongitudeDegrees>
            </Position>
            <AltitudeMeters>549</AltitudeMeters>
            <DistanceMeters>NAN</DistanceMeters>
          </Trackpoint>
          <Trackpoint>
            <Time>2021-04-03T11:18:46.000Z</Time>
            <Position>
              <LatitudeDegrees>42.303120978176593780517578125</LatitudeDegrees>
              <LongitudeDegrees>2.5138009898364543914794921875</LongitudeDegrees>
            </Position>
            <AltitudeMeters>548.4000244140625</AltitudeMeters>
            <DistanceMeters>NAN</DistanceMeters>
          </Trackpoint>
          <Trackpoint>
            <Time>2021-04-03T11:18:48.000Z</Time>
            <Position>
              <LatitudeDegrees>42.30312491767108440399169921875</LatitudeDegrees>
              <LongitudeDegrees>2.51377500593662261962890625</LongitudeDegrees>
            </Position>
            <AltitudeMeters>547.79998779296875</AltitudeMeters>
            <DistanceMeters>NAN</DistanceMeters>
          </Trackpoint>
          <Trackpoint>
            <Time>2021-04-03T11:18:52.000Z</Time>
            <Position>
              <LatitudeDegrees>42.3031221516430377960205078125</LatitudeDegrees>
              <LongitudeDegrees>2.51372002065181732177734375</LongitudeDegrees>
            </Position>
            <AltitudeMeters>547.20001220703125</AltitudeMeters>
            <DistanceMeters>NAN</DistanceMeters>
          </Trackpoint>
          <Trackpoint>
            <Time>2021-04-03T11:18:53.000Z</Time>
            <Position>
              <LatitudeDegrees>42.30311837978661060333251953125</LatitudeDegrees>
              <LongitudeDegrees>2.5137151591479778289794921875</LongitudeDegrees>
            </Position>
            <AltitudeMeters>547</AltitudeMeters>
            <DistanceMeters>NAN</DistanceMeters>
          </Trackpoint>
          <Trackpoint>
            <Time>2021-04-03T11:18:54.000Z</Time>
            <Position>
              <LatitudeDegrees>42.30311485938727855682373046875</LatitudeDegrees>
              <LongitudeDegrees>2.5137091241776943206787109375</LongitudeDegrees>
            </Position>
            <AltitudeMeters>546.79998779296875</AltitudeMeters>
            <DistanceMeters>NAN</DistanceMeters>
          </Trackpoint>
          <Trackpoint>
            <Time>2021-04-03T11:18:56.000Z</Time>
            <Position>
              <LatitudeDegrees>42.30311268009245395660400390625</LatitudeDegrees>
              <LongitudeDegrees>2.5136906839907169342041015625</LongitudeDegrees>
            </Position>
            <AltitudeMeters>546.4000244140625</AltitudeMeters>
            <DistanceMeters>NAN</DistanceMeters>
          </Trackpoint>
          <Trackpoint>
            <Time>2021-04-03T11:18:58.000Z</Time>
            <Position>
              <LatitudeDegrees>42.303111255168914794921875</LatitudeDegrees>
              <LongitudeDegrees>2.51366763375699520111083984375</LongitudeDegrees>
            </Position>
            <AltitudeMeters>546</AltitudeMeters>
            <DistanceMeters>NAN</DistanceMeters>
          </Trackpoint>
          <Trackpoint>
            <Time>2021-04-03T11:18:59.000Z</Time>
            <Position>
              <LatitudeDegrees>42.3031090758740901947021484375</LatitudeDegrees>
              <LongitudeDegrees>2.51365698873996734619140625</LongitudeDegrees>
            </Position>
            <AltitudeMeters>545.5999755859375</AltitudeMeters>
            <DistanceMeters>NAN</DistanceMeters>
          </Trackpoint>
          <Trackpoint>
            <Time>2021-04-03T11:19:02.000Z</Time>
            <Position>
              <LatitudeDegrees>42.30307261459529399871826171875</LatitudeDegrees>
              <LongitudeDegrees>2.51362077891826629638671875</LongitudeDegrees>
            </Position>
            <AltitudeMeters>545.20001220703125</AltitudeMeters>
            <DistanceMeters>NAN</DistanceMeters>
          </Trackpoint>
          <Trackpoint>
            <Time>2021-04-03T11:19:03.000Z</Time>
            <Position>
              <LatitudeDegrees>42.30306540615856647491455078125</LatitudeDegrees>
              <LongitudeDegrees>2.513608038425445556640625</LongitudeDegrees>
            </Position>
            <AltitudeMeters>544.79998779296875</AltitudeMeters>
            <DistanceMeters>NAN</DistanceMeters>
          </Trackpoint>
          <Trackpoint>
            <Time>2021-04-03T11:19:04.000Z</Time>
            <Position>
              <LatitudeDegrees>42.3030621372163295745849609375</LatitudeDegrees>
              <LongitudeDegrees>2.51359202899038791656494140625</LongitudeDegrees>
            </Position>
            <AltitudeMeters>544.4000244140625</AltitudeMeters>
            <DistanceMeters>NAN</DistanceMeters>
          </Trackpoint>
          <Trackpoint>
            <Time>2021-04-03T11:19:11.000Z</Time>
            <Position>
              <LatitudeDegrees>42.30303824879229068756103515625</LatitudeDegrees>
              <LongitudeDegrees>2.51350871287286281585693359375</LongitudeDegrees>
            </Position>
            <AltitudeMeters>543.4000244140625</AltitudeMeters>
            <DistanceMeters>NAN</DistanceMeters>
          </Trackpoint>
          <Trackpoint>
            <Time>2021-04-03T11:19:12.000Z</Time>
            <Position>
              <LatitudeDegrees>42.30303087271749973297119140625</LatitudeDegrees>
              <LongitudeDegrees>2.51349915750324726104736328125</LongitudeDegrees>
            </Position>
            <AltitudeMeters>543.4000244140625</AltitudeMeters>
            <DistanceMeters>NAN</DistanceMeters>
          </Trackpoint>
          <Trackpoint>
            <Time>2021-04-03T11:19:16.000Z</Time>
            <Position>
              <LatitudeDegrees>42.30300270952284336090087890625</LatitudeDegrees>
              <LongitudeDegrees>2.5134591758251190185546875</LongitudeDegrees>
            </Position>
            <AltitudeMeters>543.20001220703125</AltitudeMeters>
            <DistanceMeters>NAN</DistanceMeters>
          </Trackpoint>
          <Trackpoint>
            <Time>2021-04-03T11:19:24.000Z</Time>
            <Position>
              <LatitudeDegrees>42.30297085829079151153564453125</LatitudeDegrees>
              <LongitudeDegrees>2.5133765302598476409912109375</LongitudeDegrees>
            </Position>
            <AltitudeMeters>543.20001220703125</AltitudeMeters>
            <DistanceMeters>NAN</DistanceMeters>
          </Trackpoint>
          <Trackpoint>
            <Time>2021-04-03T11:19:28.000Z</Time>
            <Position>
              <LatitudeDegrees>42.30296230874955654144287109375</LatitudeDegrees>
              <LongitudeDegrees>2.51332347281277179718017578125</LongitudeDegrees>
            </Position>
            <AltitudeMeters>543.5999755859375</AltitudeMeters>
            <DistanceMeters>NAN</DistanceMeters>
          </Trackpoint>
          <Trackpoint>
            <Time>2021-04-03T11:19:30.000Z</Time>
            <Position>
              <LatitudeDegrees>42.302966080605983734130859375</LatitudeDegrees>
              <LongitudeDegrees>2.5133020989596843719482421875</LongitudeDegrees>
            </Position>
            <AltitudeMeters>543.5999755859375</AltitudeMeters>
            <DistanceMeters>NAN</DistanceMeters>
          </Trackpoint>
          <Trackpoint>
            <Time>2021-04-03T11:19:31.000Z</Time>
            <Position>
              <LatitudeDegrees>42.3029677569866180419921875</LatitudeDegrees>
              <LongitudeDegrees>2.51328692771494388580322265625</LongitudeDegrees>
            </Position>
            <AltitudeMeters>543.5999755859375</AltitudeMeters>
            <DistanceMeters>NAN</DistanceMeters>
          </Trackpoint>
          <Trackpoint>
            <Time>2021-04-03T11:19:37.000Z</Time>
            <Position>
              <LatitudeDegrees>42.30298410169780254364013671875</LatitudeDegrees>
              <LongitudeDegrees>2.5132005102932453155517578125</LongitudeDegrees>
            </Position>
            <AltitudeMeters>542.79998779296875</AltitudeMeters>
            <DistanceMeters>NAN</DistanceMeters>
          </Trackpoint>
          <Trackpoint>
            <Time>2021-04-03T11:19:40.000Z</Time>
            <Position>
              <LatitudeDegrees>42.302979491651058197021484375</LatitudeDegrees>
              <LongitudeDegrees>2.5131683237850666046142578125</LongitudeDegrees>
            </Position>
            <AltitudeMeters>542.4000244140625</AltitudeMeters>
            <DistanceMeters>NAN</DistanceMeters>
          </Trackpoint>
          <Trackpoint>
            <Time>2021-04-03T11:19:42.000Z</Time>
            <Position>
              <LatitudeDegrees>42.30297722853720188140869140625</LatitudeDegrees>
              <LongitudeDegrees>2.5131408311426639556884765625</LongitudeDegrees>
            </Position>
            <AltitudeMeters>541.79998779296875</AltitudeMeters>
            <DistanceMeters>NAN</DistanceMeters>
          </Trackpoint>
          <Trackpoint>
            <Time>2021-04-03T11:19:45.000Z</Time>
            <Position>
              <LatitudeDegrees>42.3029810003936290740966796875</LatitudeDegrees>
              <LongitudeDegrees>2.51310043036937713623046875</LongitudeDegrees>
            </Position>
            <AltitudeMeters>541.20001220703125</AltitudeMeters>
            <DistanceMeters>NAN</DistanceMeters>
          </Trackpoint>
          <Trackpoint>
            <Time>2021-04-03T11:19:49.000Z</Time>
            <Position>
              <LatitudeDegrees>42.30295090936124324798583984375</LatitudeDegrees>
              <LongitudeDegrees>2.513043098151683807373046875</LongitudeDegrees>
            </Position>
            <AltitudeMeters>540.20001220703125</AltitudeMeters>
            <DistanceMeters>NAN</DistanceMeters>
          </Trackpoint>
          <Trackpoint>
            <Time>2021-04-03T11:19:50.000Z</Time>
            <Position>
              <LatitudeDegrees>42.30294453911483287811279296875</LatitudeDegrees>
              <LongitudeDegrees>2.5130251608788967132568359375</LongitudeDegrees>
            </Position>
            <AltitudeMeters>540</AltitudeMeters>
            <DistanceMeters>NAN</DistanceMeters>
          </Trackpoint>
          <Trackpoint>
            <Time>2021-04-03T11:19:51.000Z</Time>
            <Position>
              <LatitudeDegrees>42.302934564650058746337890625</LatitudeDegrees>
              <LongitudeDegrees>2.51301200129091739654541015625</LongitudeDegrees>
            </Position>
            <AltitudeMeters>539.79998779296875</AltitudeMeters>
            <DistanceMeters>NAN</DistanceMeters>
          </Trackpoint>
          <Trackpoint>
            <Time>2021-04-03T11:19:55.000Z</Time>
            <Position>
              <LatitudeDegrees>42.302937246859073638916015625</LatitudeDegrees>
              <LongitudeDegrees>2.51294980756938457489013671875</LongitudeDegrees>
            </Position>
            <AltitudeMeters>539</AltitudeMeters>
            <DistanceMeters>NAN</DistanceMeters>
          </Trackpoint>
          <Trackpoint>
            <Time>2021-04-03T11:19:56.000Z</Time>
            <Position>
              <LatitudeDegrees>42.30293196626007556915283203125</LatitudeDegrees>
              <LongitudeDegrees>2.51294041983783245086669921875</LongitudeDegrees>
            </Position>
            <AltitudeMeters>538.79998779296875</AltitudeMeters>
            <DistanceMeters>NAN</DistanceMeters>
          </Trackpoint>
          <Trackpoint>
            <Time>2021-04-03T11:20:01.000Z</Time>
            <Position>
              <LatitudeDegrees>42.302939929068088531494140625</LatitudeDegrees>
              <LongitudeDegrees>2.5128709338605403900146484375</LongitudeDegrees>
            </Position>
            <AltitudeMeters>538</AltitudeMeters>
            <DistanceMeters>NAN</DistanceMeters>
          </Trackpoint>
          <Trackpoint>
            <Time>2021-04-03T11:20:02.000Z</Time>
            <Position>
              <LatitudeDegrees>42.3029478080570697784423828125</LatitudeDegrees>
              <LongitudeDegrees>2.512862719595432281494140625</LongitudeDegrees>
            </Position>
            <AltitudeMeters>537.5999755859375</AltitudeMeters>
            <DistanceMeters>NAN</DistanceMeters>
          </Trackpoint>
          <Trackpoint>
            <Time>2021-04-03T11:20:03.000Z</Time>
            <Position>
              <LatitudeDegrees>42.30295577086508274078369140625</LatitudeDegrees>
              <LongitudeDegrees>2.51285391859710216522216796875</LongitudeDegrees>
            </Position>
            <AltitudeMeters>537.4000244140625</AltitudeMeters>
            <DistanceMeters>NAN</DistanceMeters>
          </Trackpoint>
          <Trackpoint>
            <Time>2021-04-03T11:20:06.000Z</Time>
            <Position>
              <LatitudeDegrees>42.3029665835201740264892578125</LatitudeDegrees>
              <LongitudeDegrees>2.5128199718892574310302734375</LongitudeDegrees>
            </Position>
            <AltitudeMeters>536.5999755859375</AltitudeMeters>
            <DistanceMeters>NAN</DistanceMeters>
          </Trackpoint>
          <Trackpoint>
            <Time>2021-04-03T11:20:07.000Z</Time>
            <Position>
              <LatitudeDegrees>42.30296985246241092681884765625</LatitudeDegrees>
              <LongitudeDegrees>2.5128112547099590301513671875</LongitudeDegrees>
            </Position>
            <AltitudeMeters>536</AltitudeMeters>
            <DistanceMeters>NAN</DistanceMeters>
          </Trackpoint>
          <Trackpoint>
            <Time>2021-04-03T11:20:08.000Z</Time>
            <Position>
              <LatitudeDegrees>42.3029716126620769500732421875</LatitudeDegrees>
              <LongitudeDegrees>2.512806393206119537353515625</LongitudeDegrees>
            </Position>
            <AltitudeMeters>535.79998779296875</AltitudeMeters>
            <DistanceMeters>NAN</DistanceMeters>
          </Trackpoint>
          <Trackpoint>
            <Time>2021-04-03T11:20:09.000Z</Time>
            <Position>
              <LatitudeDegrees>42.30297203175723552703857421875</LatitudeDegrees>
              <LongitudeDegrees>2.51280010677874088287353515625</LongitudeDegrees>
            </Position>
            <AltitudeMeters>535.4000244140625</AltitudeMeters>
            <DistanceMeters>NAN</DistanceMeters>
          </Trackpoint>
          <Trackpoint>
            <Time>2021-04-03T11:20:13.000Z</Time>
            <Position>
              <LatitudeDegrees>42.3029742948710918426513671875</LatitudeDegrees>
              <LongitudeDegrees>2.512773536145687103271484375</LongitudeDegrees>
            </Position>
            <AltitudeMeters>534.4000244140625</AltitudeMeters>
            <DistanceMeters>NAN</DistanceMeters>
          </Trackpoint>
          <Trackpoint>
            <Time>2021-04-03T11:20:14.000Z</Time>
            <Position>
              <LatitudeDegrees>42.3029746301472187042236328125</LatitudeDegrees>
              <LongitudeDegrees>2.51276574097573757171630859375</LongitudeDegrees>
            </Position>
            <AltitudeMeters>534</AltitudeMeters>
            <DistanceMeters>NAN</DistanceMeters>
          </Trackpoint>
          <Trackpoint>
            <Time>2021-04-03T11:20:15.000Z</Time>
            <Position>
              <LatitudeDegrees>42.30297781527042388916015625</LatitudeDegrees>
              <LongitudeDegrees>2.51275937072932720184326171875</LongitudeDegrees>
            </Position>
            <AltitudeMeters>533.79998779296875</AltitudeMeters>
            <DistanceMeters>NAN</DistanceMeters>
          </Trackpoint>
          <Trackpoint>
            <Time>2021-04-03T11:20:18.000Z</Time>
            <Position>
              <LatitudeDegrees>42.30298175476491451263427734375</LatitudeDegrees>
              <LongitudeDegrees>2.512707151472568511962890625</LongitudeDegrees>
            </Position>
            <AltitudeMeters>532.79998779296875</AltitudeMeters>
            <DistanceMeters>NAN</DistanceMeters>
          </Trackpoint>
          <Trackpoint>
            <Time>2021-04-03T11:20:19.000Z</Time>
            <Position>
              <LatitudeDegrees>42.3029806651175022125244140625</LatitudeDegrees>
              <LongitudeDegrees>2.51269147731363773345947265625</LongitudeDegrees>
            </Position>
            <AltitudeMeters>532.5999755859375</AltitudeMeters>
            <DistanceMeters>NAN</DistanceMeters>
          </Trackpoint>
          <Trackpoint>
            <Time>2021-04-03T11:20:22.000Z</Time>
            <Position>
              <LatitudeDegrees>42.3030061461031436920166015625</LatitudeDegrees>
              <LongitudeDegrees>2.51264587976038455963134765625</LongitudeDegrees>
            </Position>
            <AltitudeMeters>532</AltitudeMeters>
            <DistanceMeters>NAN</DistanceMeters>
          </Trackpoint>
          <Trackpoint>
            <Time>2021-04-03T11:20:23.000Z</Time>
            <Position>
              <LatitudeDegrees>42.30302098207175731658935546875</LatitudeDegrees>
              <LongitudeDegrees>2.512622661888599395751953125</LongitudeDegrees>
            </Position>
            <AltitudeMeters>531.5999755859375</AltitudeMeters>
            <DistanceMeters>NAN</DistanceMeters>
          </Trackpoint>
          <Trackpoint>
            <Time>2021-04-03T11:20:25.000Z</Time>
            <Position>
              <LatitudeDegrees>42.30303992517292499542236328125</LatitudeDegrees>
              <LongitudeDegrees>2.5126100890338420867919921875</LongitudeDegrees>
            </Position>
            <AltitudeMeters>531.20001220703125</AltitudeMeters>
            <DistanceMeters>NAN</DistanceMeters>
          </Trackpoint>
          <Trackpoint>
            <Time>2021-04-03T11:20:26.000Z</Time>
            <Position>
              <LatitudeDegrees>42.30304981581866741180419921875</LatitudeDegrees>
              <LongitudeDegrees>2.51259927637875080108642578125</LongitudeDegrees>
            </Position>
            <AltitudeMeters>531</AltitudeMeters>
            <DistanceMeters>NAN</DistanceMeters>
          </Trackpoint>
          <Trackpoint>
            <Time>2021-04-03T11:20:28.000Z</Time>
            <Position>
              <LatitudeDegrees>42.30305048637092113494873046875</LatitudeDegrees>
              <LongitudeDegrees>2.51257848925888538360595703125</LongitudeDegrees>
            </Position>
            <AltitudeMeters>530.79998779296875</AltitudeMeters>
            <DistanceMeters>NAN</DistanceMeters>
          </Trackpoint>
          <Trackpoint>
            <Time>2021-04-03T11:20:31.000Z</Time>
            <Position>
              <LatitudeDegrees>42.303033806383609771728515625</LatitudeDegrees>
              <LongitudeDegrees>2.51253741793334484100341796875</LongitudeDegrees>
            </Position>
            <AltitudeMeters>530.5999755859375</AltitudeMeters>
            <DistanceMeters>NAN</DistanceMeters>
          </Trackpoint>
          <Trackpoint>
            <Time>2021-04-03T11:20:33.000Z</Time>
            <Position>
              <LatitudeDegrees>42.30303590185940265655517578125</LatitudeDegrees>
              <LongitudeDegrees>2.51251311041414737701416015625</LongitudeDegrees>
            </Position>
            <AltitudeMeters>530.4000244140625</AltitudeMeters>
            <DistanceMeters>NAN</DistanceMeters>
          </Trackpoint>
          <Trackpoint>
            <Time>2021-04-03T11:20:37.000Z</Time>
            <Position>
              <LatitudeDegrees>42.30304126627743244171142578125</LatitudeDegrees>
              <LongitudeDegrees>2.51246566884219646453857421875</LongitudeDegrees>
            </Position>
            <AltitudeMeters>530</AltitudeMeters>
            <DistanceMeters>NAN</DistanceMeters>
          </Trackpoint>
          <Trackpoint>
            <Time>2021-04-03T11:20:39.000Z</Time>
            <Position>
              <LatitudeDegrees>42.30303774587810039520263671875</LatitudeDegrees>
              <LongitudeDegrees>2.51244219951331615447998046875</LongitudeDegrees>
            </Position>
            <AltitudeMeters>529.79998779296875</AltitudeMeters>
            <DistanceMeters>NAN</DistanceMeters>
          </Trackpoint>
          <Trackpoint>
            <Time>2021-04-03T11:20:42.000Z</Time>
            <Position>
              <LatitudeDegrees>42.3030309565365314483642578125</LatitudeDegrees>
              <LongitudeDegrees>2.512401044368743896484375</LongitudeDegrees>
            </Position>
            <AltitudeMeters>529.79998779296875</AltitudeMeters>
            <DistanceMeters>NAN</DistanceMeters>
          </Trackpoint>
          <Trackpoint>
            <Time>2021-04-03T11:20:45.000Z</Time>
            <Position>
              <LatitudeDegrees>42.30301938951015472412109375</LatitudeDegrees>
              <LongitudeDegrees>2.5123629905283451080322265625</LongitudeDegrees>
            </Position>
            <AltitudeMeters>529.5999755859375</AltitudeMeters>
            <DistanceMeters>NAN</DistanceMeters>
          </Trackpoint>
          <Trackpoint>
            <Time>2021-04-03T11:20:46.000Z</Time>
            <Position>
              <LatitudeDegrees>42.3030155338346958160400390625</LatitudeDegrees>
              <LongitudeDegrees>2.512348406016826629638671875</LongitudeDegrees>
            </Position>
            <AltitudeMeters>529.5999755859375</AltitudeMeters>
            <DistanceMeters>NAN</DistanceMeters>
          </Trackpoint>
          <Trackpoint>
            <Time>2021-04-03T11:20:52.000Z</Time>
            <Position>
              <LatitudeDegrees>42.30301276780664920806884765625</LatitudeDegrees>
              <LongitudeDegrees>2.51226031221449375152587890625</LongitudeDegrees>
            </Position>
            <AltitudeMeters>529.20001220703125</AltitudeMeters>
            <DistanceMeters>NAN</DistanceMeters>
          </Trackpoint>
          <Trackpoint>
            <Time>2021-04-03T11:20:53.000Z</Time>
            <Position>
              <LatitudeDegrees>42.30300975032150745391845703125</LatitudeDegrees>
              <LongitudeDegrees>2.51224824227392673492431640625</LongitudeDegrees>
            </Position>
            <AltitudeMeters>529.20001220703125</AltitudeMeters>
            <DistanceMeters>NAN</DistanceMeters>
          </Trackpoint>
          <Trackpoint>
            <Time>2021-04-03T11:20:58.000Z</Time>
            <Position>
              <LatitudeDegrees>42.30300002731382846832275390625</LatitudeDegrees>
              <LongitudeDegrees>2.51217531971633434295654296875</LongitudeDegrees>
            </Position>
            <AltitudeMeters>529</AltitudeMeters>
            <DistanceMeters>NAN</DistanceMeters>
          </Trackpoint>
          <Trackpoint>
            <Time>2021-04-03T11:20:59.000Z</Time>
            <Position>
              <LatitudeDegrees>42.30299717746675014495849609375</LatitudeDegrees>
              <LongitudeDegrees>2.5121636688709259033203125</LongitudeDegrees>
            </Position>
            <AltitudeMeters>528.79998779296875</AltitudeMeters>
            <DistanceMeters>NAN</DistanceMeters>
          </Trackpoint>
          <Trackpoint>
            <Time>2021-04-03T11:21:07.000Z</Time>
            <Position>
              <LatitudeDegrees>42.3029548488557338714599609375</LatitudeDegrees>
              <LongitudeDegrees>2.51206702552735805511474609375</LongitudeDegrees>
            </Position>
            <AltitudeMeters>528.5999755859375</AltitudeMeters>
            <DistanceMeters>NAN</DistanceMeters>
          </Trackpoint>
          <Trackpoint>
            <Time>2021-04-03T11:21:09.000Z</Time>
            <Position>
              <LatitudeDegrees>42.30294772423803806304931640625</LatitudeDegrees>
              <LongitudeDegrees>2.51204271800816059112548828125</LongitudeDegrees>
            </Position>
            <AltitudeMeters>528.79998779296875</AltitudeMeters>
            <DistanceMeters>NAN</DistanceMeters>
          </Trackpoint>
          <Trackpoint>
            <Time>2021-04-03T11:21:11.000Z</Time>
            <Position>
              <LatitudeDegrees>42.30294386856257915496826171875</LatitudeDegrees>
              <LongitudeDegrees>2.512019835412502288818359375</LongitudeDegrees>
            </Position>
            <AltitudeMeters>528.79998779296875</AltitudeMeters>
            <DistanceMeters>NAN</DistanceMeters>
          </Trackpoint>
          <Trackpoint>
            <Time>2021-04-03T11:21:13.000Z</Time>
            <Position>
              <LatitudeDegrees>42.3029357381165027618408203125</LatitudeDegrees>
              <LongitudeDegrees>2.51199678517878055572509765625</LongitudeDegrees>
            </Position>
            <AltitudeMeters>528.20001220703125</AltitudeMeters>
            <DistanceMeters>NAN</DistanceMeters>
          </Trackpoint>
          <Trackpoint>
            <Time>2021-04-03T11:21:17.000Z</Time>
            <Position>
              <LatitudeDegrees>42.302933223545551300048828125</LatitudeDegrees>
              <LongitudeDegrees>2.51194917596876621246337890625</LongitudeDegrees>
            </Position>
            <AltitudeMeters>527.79998779296875</AltitudeMeters>
            <DistanceMeters>NAN</DistanceMeters>
          </Trackpoint>
          <Trackpoint>
            <Time>2021-04-03T11:21:20.000Z</Time>
            <Position>
              <LatitudeDegrees>42.3029169626533985137939453125</LatitudeDegrees>
              <LongitudeDegrees>2.5119348429143428802490234375</LongitudeDegrees>
            </Position>
            <AltitudeMeters>527.4000244140625</AltitudeMeters>
            <DistanceMeters>NAN</DistanceMeters>
          </Trackpoint>
          <Trackpoint>
            <Time>2021-04-03T11:21:22.000Z</Time>
            <Position>
              <LatitudeDegrees>42.302908413112163543701171875</LatitudeDegrees>
              <LongitudeDegrees>2.51192419789731502532958984375</LongitudeDegrees>
            </Position>
            <AltitudeMeters>527.20001220703125</AltitudeMeters>
            <DistanceMeters>NAN</DistanceMeters>
          </Trackpoint>
          <Trackpoint>
            <Time>2021-04-03T11:21:26.000Z</Time>
            <Position>
              <LatitudeDegrees>42.30290539562702178955078125</LatitudeDegrees>
              <LongitudeDegrees>2.51187876798212528228759765625</LongitudeDegrees>
            </Position>
            <AltitudeMeters>526.5999755859375</AltitudeMeters>
            <DistanceMeters>NAN</DistanceMeters>
          </Trackpoint>
          <Trackpoint>
            <Time>2021-04-03T11:21:27.000Z</Time>
            <Position>
              <LatitudeDegrees>42.3029032163321971893310546875</LatitudeDegrees>
              <LongitudeDegrees>2.5118627585470676422119140625</LongitudeDegrees>
            </Position>
            <AltitudeMeters>526.4000244140625</AltitudeMeters>
            <DistanceMeters>NAN</DistanceMeters>
          </Trackpoint>
          <Trackpoint>
            <Time>2021-04-03T11:21:30.000Z</Time>
            <Position>
              <LatitudeDegrees>42.30290137231349945068359375</LatitudeDegrees>
              <LongitudeDegrees>2.51181037165224552154541015625</LongitudeDegrees>
            </Position>
            <AltitudeMeters>525.79998779296875</AltitudeMeters>
            <DistanceMeters>NAN</DistanceMeters>
          </Trackpoint>
          <Trackpoint>
            <Time>2021-04-03T11:21:34.000Z</Time>
            <Position>
              <LatitudeDegrees>42.302882261574268341064453125</LatitudeDegrees>
              <LongitudeDegrees>2.51176259480416774749755859375</LongitudeDegrees>
            </Position>
            <AltitudeMeters>525</AltitudeMeters>
            <DistanceMeters>NAN</DistanceMeters>
          </Trackpoint>
          <Trackpoint>
            <Time>2021-04-03T11:21:35.000Z</Time>
            <Position>
              <LatitudeDegrees>42.3028740473091602325439453125</LatitudeDegrees>
              <LongitudeDegrees>2.51175538636744022369384765625</LongitudeDegrees>
            </Position>
            <AltitudeMeters>524.79998779296875</AltitudeMeters>
            <DistanceMeters>NAN</DistanceMeters>
          </Trackpoint>
          <Trackpoint>
            <Time>2021-04-03T11:21:39.000Z</Time>
            <Position>
              <LatitudeDegrees>42.30285686440765857696533203125</LatitudeDegrees>
              <LongitudeDegrees>2.51170643605291843414306640625</LongitudeDegrees>
            </Position>
            <AltitudeMeters>524</AltitudeMeters>
            <DistanceMeters>NAN</DistanceMeters>
          </Trackpoint>
          <Trackpoint>
            <Time>2021-04-03T11:21:40.000Z</Time>
            <Position>
              <LatitudeDegrees>42.30285309255123138427734375</LatitudeDegrees>
              <LongitudeDegrees>2.511697299778461456298828125</LongitudeDegrees>
            </Position>
            <AltitudeMeters>524</AltitudeMeters>
            <DistanceMeters>NAN</DistanceMeters>
          </Trackpoint>
          <Trackpoint>
            <Time>2021-04-03T11:21:41.000Z</Time>
            <Position>
              <LatitudeDegrees>42.30284999124705791473388671875</LatitudeDegrees>
              <LongitudeDegrees>2.511687912046909332275390625</LongitudeDegrees>
            </Position>
            <AltitudeMeters>523.79998779296875</AltitudeMeters>
            <DistanceMeters>NAN</DistanceMeters>
          </Trackpoint>
          <Trackpoint>
            <Time>2021-04-03T11:21:47.000Z</Time>
            <Position>
              <LatitudeDegrees>42.30285418219864368438720703125</LatitudeDegrees>
              <LongitudeDegrees>2.511612139642238616943359375</LongitudeDegrees>
            </Position>
            <AltitudeMeters>522.5999755859375</AltitudeMeters>
            <DistanceMeters>NAN</DistanceMeters>
          </Trackpoint>
          <Trackpoint>
            <Time>2021-04-03T11:21:51.000Z</Time>
            <Position>
              <LatitudeDegrees>42.30285066179931163787841796875</LatitudeDegrees>
              <LongitudeDegrees>2.511562518775463104248046875</LongitudeDegrees>
            </Position>
            <AltitudeMeters>522.20001220703125</AltitudeMeters>
            <DistanceMeters>NAN</DistanceMeters>
          </Trackpoint>
          <Trackpoint>
            <Time>2021-04-03T11:21:55.000Z</Time>
            <Position>
              <LatitudeDegrees>42.30284881778061389923095703125</LatitudeDegrees>
              <LongitudeDegrees>2.5115172564983367919921875</LongitudeDegrees>
            </Position>
            <AltitudeMeters>521.5999755859375</AltitudeMeters>
            <DistanceMeters>NAN</DistanceMeters>
          </Trackpoint>
          <Trackpoint>
            <Time>2021-04-03T11:21:56.000Z</Time>
            <Position>
              <LatitudeDegrees>42.30284647084772586822509765625</LatitudeDegrees>
              <LongitudeDegrees>2.5115030072629451751708984375</LongitudeDegrees>
            </Position>
            <AltitudeMeters>521.4000244140625</AltitudeMeters>
            <DistanceMeters>NAN</DistanceMeters>
          </Trackpoint>
          <Trackpoint>
            <Time>2021-04-03T11:21:57.000Z</Time>
            <Position>
              <LatitudeDegrees>42.3028482310473918914794921875</LatitudeDegrees>
              <LongitudeDegrees>2.51150174997746944427490234375</LongitudeDegrees>
            </Position>
            <AltitudeMeters>521.20001220703125</AltitudeMeters>
            <DistanceMeters>NAN</DistanceMeters>
          </Trackpoint>
          <Trackpoint>
            <Time>2021-04-03T11:21:58.000Z</Time>
            <Position>
              <LatitudeDegrees>42.30284747667610645294189453125</LatitudeDegrees>
              <LongitudeDegrees>2.511488758027553558349609375</LongitudeDegrees>
            </Position>
            <AltitudeMeters>521</AltitudeMeters>
            <DistanceMeters>NAN</DistanceMeters>
          </Trackpoint>
          <Trackpoint>
            <Time>2021-04-03T11:22:00.000Z</Time>
            <Position>
              <LatitudeDegrees>42.302838005125522613525390625</LatitudeDegrees>
              <LongitudeDegrees>2.51147442497313022613525390625</LongitudeDegrees>
            </Position>
            <AltitudeMeters>521</AltitudeMeters>
            <DistanceMeters>NAN</DistanceMeters>
          </Trackpoint>
          <Trackpoint>
            <Time>2021-04-03T11:22:01.000Z</Time>
            <Position>
              <LatitudeDegrees>42.30283624492585659027099609375</LatitudeDegrees>
              <LongitudeDegrees>2.511470317840576171875</LongitudeDegrees>
            </Position>
            <AltitudeMeters>520.4000244140625</AltitudeMeters>
            <DistanceMeters>NAN</DistanceMeters>
          </Trackpoint>
          <Trackpoint>
            <Time>2021-04-03T11:22:02.000Z</Time>
            <Position>
              <LatitudeDegrees>42.30283305980265140533447265625</LatitudeDegrees>
              <LongitudeDegrees>2.51147023402154445648193359375</LongitudeDegrees>
            </Position>
            <AltitudeMeters>520.20001220703125</AltitudeMeters>
            <DistanceMeters>NAN</DistanceMeters>
          </Trackpoint>
          <Trackpoint>
            <Time>2021-04-03T11:22:03.000Z</Time>
            <Position>
              <LatitudeDegrees>42.3028351552784442901611328125</LatitudeDegrees>
              <LongitudeDegrees>2.5114651210606098175048828125</LongitudeDegrees>
            </Position>
            <AltitudeMeters>520.20001220703125</AltitudeMeters>
            <DistanceMeters>NAN</DistanceMeters>
          </Trackpoint>
          <Trackpoint>
            <Time>2021-04-03T11:22:05.000Z</Time>
            <Position>
              <LatitudeDegrees>42.30285175144672393798828125</LatitudeDegrees>
              <LongitudeDegrees>2.511434443295001983642578125</LongitudeDegrees>
            </Position>
            <AltitudeMeters>519.4000244140625</AltitudeMeters>
            <DistanceMeters>NAN</DistanceMeters>
          </Trackpoint>
          <Trackpoint>
            <Time>2021-04-03T11:22:08.000Z</Time>
            <Position>
              <LatitudeDegrees>42.3028710298240184783935546875</LatitudeDegrees>
              <LongitudeDegrees>2.51139932312071323394775390625</LongitudeDegrees>
            </Position>
            <AltitudeMeters>518.79998779296875</AltitudeMeters>
            <DistanceMeters>NAN</DistanceMeters>
          </Trackpoint>
          <Trackpoint>
            <Time>2021-04-03T11:22:09.000Z</Time>
            <Position>
              <LatitudeDegrees>42.3028810881078243255615234375</LatitudeDegrees>
              <LongitudeDegrees>2.51139094121754169464111328125</LongitudeDegrees>
            </Position>
            <AltitudeMeters>518.4000244140625</AltitudeMeters>
            <DistanceMeters>NAN</DistanceMeters>
          </Trackpoint>
          <Trackpoint>
            <Time>2021-04-03T11:22:10.000Z</Time>
            <Position>
              <LatitudeDegrees>42.30289357714354991912841796875</LatitudeDegrees>
              <LongitudeDegrees>2.51138038001954555511474609375</LongitudeDegrees>
            </Position>
            <AltitudeMeters>518.20001220703125</AltitudeMeters>
            <DistanceMeters>NAN</DistanceMeters>
          </Trackpoint>
          <Trackpoint>
            <Time>2021-04-03T11:22:13.000Z</Time>
            <Position>
              <LatitudeDegrees>42.30290313251316547393798828125</LatitudeDegrees>
              <LongitudeDegrees>2.51133612357079982757568359375</LongitudeDegrees>
            </Position>
            <AltitudeMeters>517.5999755859375</AltitudeMeters>
            <DistanceMeters>NAN</DistanceMeters>
          </Trackpoint>
          <Trackpoint>
            <Time>2021-04-03T11:22:14.000Z</Time>
            <Position>
              <LatitudeDegrees>42.30290464125573635101318359375</LatitudeDegrees>
              <LongitudeDegrees>2.51132480800151824951171875</LongitudeDegrees>
            </Position>
            <AltitudeMeters>517.4000244140625</AltitudeMeters>
            <DistanceMeters>NAN</DistanceMeters>
          </Trackpoint>
          <Trackpoint>
            <Time>2021-04-03T11:22:16.000Z</Time>
            <Position>
              <LatitudeDegrees>42.302911765873432159423828125</LatitudeDegrees>
              <LongitudeDegrees>2.51130200922489166259765625</LongitudeDegrees>
            </Position>
            <AltitudeMeters>517.4000244140625</AltitudeMeters>
            <DistanceMeters>NAN</DistanceMeters>
          </Trackpoint>
          <Trackpoint>
            <Time>2021-04-03T11:22:18.000Z</Time>
            <Position>
              <LatitudeDegrees>42.3029065690934658050537109375</LatitudeDegrees>
              <LongitudeDegrees>2.5112830661237239837646484375</LongitudeDegrees>
            </Position>
            <AltitudeMeters>517</AltitudeMeters>
            <DistanceMeters>NAN</DistanceMeters>
          </Trackpoint>
          <Trackpoint>
            <Time>2021-04-03T11:22:21.000Z</Time>
            <Position>
              <LatitudeDegrees>42.30290162377059459686279296875</LatitudeDegrees>
              <LongitudeDegrees>2.51124945469200611114501953125</LongitudeDegrees>
            </Position>
            <AltitudeMeters>516.5999755859375</AltitudeMeters>
            <DistanceMeters>NAN</DistanceMeters>
          </Trackpoint>
          <Trackpoint>
            <Time>2021-04-03T11:22:22.000Z</Time>
            <Position>
              <LatitudeDegrees>42.3029055632650852203369140625</LatitudeDegrees>
              <LongitudeDegrees>2.51123889349400997161865234375</LongitudeDegrees>
            </Position>
            <AltitudeMeters>516.4000244140625</AltitudeMeters>
            <DistanceMeters>NAN</DistanceMeters>
          </Trackpoint>
          <Trackpoint>
            <Time>2021-04-03T11:22:24.000Z</Time>
            <Position>
              <LatitudeDegrees>42.30291117914021015167236328125</LatitudeDegrees>
              <LongitudeDegrees>2.51119513995945453643798828125</LongitudeDegrees>
            </Position>
            <AltitudeMeters>515.79998779296875</AltitudeMeters>
            <DistanceMeters>NAN</DistanceMeters>
          </Trackpoint>
          <Trackpoint>
            <Time>2021-04-03T11:22:26.000Z</Time>
            <Position>
              <LatitudeDegrees>42.30292475782334804534912109375</LatitudeDegrees>
              <LongitudeDegrees>2.51116094179451465606689453125</LongitudeDegrees>
            </Position>
            <AltitudeMeters>515.4000244140625</AltitudeMeters>
            <DistanceMeters>NAN</DistanceMeters>
          </Trackpoint>
          <Trackpoint>
            <Time>2021-04-03T11:22:28.000Z</Time>
            <Position>
              <LatitudeDegrees>42.3029390908777713775634765625</LatitudeDegrees>
              <LongitudeDegrees>2.51114132814109325408935546875</LongitudeDegrees>
            </Position>
            <AltitudeMeters>515.20001220703125</AltitudeMeters>
            <DistanceMeters>NAN</DistanceMeters>
          </Trackpoint>
          <Trackpoint>
            <Time>2021-04-03T11:22:30.000Z</Time>
            <Position>
              <LatitudeDegrees>42.30295476503670215606689453125</LatitudeDegrees>
              <LongitudeDegrees>2.51112255267798900604248046875</LongitudeDegrees>
            </Position>
            <AltitudeMeters>514.79998779296875</AltitudeMeters>
            <DistanceMeters>NAN</DistanceMeters>
          </Trackpoint>
          <Trackpoint>
            <Time>2021-04-03T11:22:31.000Z</Time>
            <Position>
              <LatitudeDegrees>42.3029602132737636566162109375</LatitudeDegrees>
              <LongitudeDegrees>2.51111366786062717437744140625</LongitudeDegrees>
            </Position>
            <AltitudeMeters>514.5999755859375</AltitudeMeters>
            <DistanceMeters>NAN</DistanceMeters>
          </Trackpoint>
          <Trackpoint>
            <Time>2021-04-03T11:22:34.000Z</Time>
            <Position>
              <LatitudeDegrees>42.30297957547008991241455078125</LatitudeDegrees>
              <LongitudeDegrees>2.51108567230403423309326171875</LongitudeDegrees>
            </Position>
            <AltitudeMeters>514.4000244140625</AltitudeMeters>
            <DistanceMeters>NAN</DistanceMeters>
          </Trackpoint>
          <Trackpoint>
            <Time>2021-04-03T11:22:36.000Z</Time>
            <Position>
              <LatitudeDegrees>42.30299122631549835205078125</LatitudeDegrees>
              <LongitudeDegrees>2.511055581271648406982421875</LongitudeDegrees>
            </Position>
            <AltitudeMeters>513.79998779296875</AltitudeMeters>
            <DistanceMeters>NAN</DistanceMeters>
          </Trackpoint>
          <Trackpoint>
            <Time>2021-04-03T11:22:37.000Z</Time>
            <Position>
              <LatitudeDegrees>42.30299315415322780609130859375</LatitudeDegrees>
              <LongitudeDegrees>2.5110463611781597137451171875</LongitudeDegrees>
            </Position>
            <AltitudeMeters>513.79998779296875</AltitudeMeters>
            <DistanceMeters>NAN</DistanceMeters>
          </Trackpoint>
          <Trackpoint>
            <Time>2021-04-03T11:22:40.000Z</Time>
            <Position>
              <LatitudeDegrees>42.303002290427684783935546875</LatitudeDegrees>
              <LongitudeDegrees>2.51101903617382049560546875</LongitudeDegrees>
            </Position>
            <AltitudeMeters>513.20001220703125</AltitudeMeters>
            <DistanceMeters>NAN</DistanceMeters>
          </Trackpoint>
          <Trackpoint>
            <Time>2021-04-03T11:22:41.000Z</Time>
            <Position>
              <LatitudeDegrees>42.30300002731382846832275390625</LatitudeDegrees>
              <LongitudeDegrees>2.51100989989936351776123046875</LongitudeDegrees>
            </Position>
            <AltitudeMeters>513</AltitudeMeters>
            <DistanceMeters>NAN</DistanceMeters>
          </Trackpoint>
          <Trackpoint>
            <Time>2021-04-03T11:22:44.000Z</Time>
            <Position>
              <LatitudeDegrees>42.30300522409379482269287109375</LatitudeDegrees>
              <LongitudeDegrees>2.5109873525798320770263671875</LongitudeDegrees>
            </Position>
            <AltitudeMeters>512.79998779296875</AltitudeMeters>
            <DistanceMeters>NAN</DistanceMeters>
          </Trackpoint>
          <Trackpoint>
            <Time>2021-04-03T11:22:45.000Z</Time>
            <Position>
              <LatitudeDegrees>42.303009666502475738525390625</LatitudeDegrees>
              <LongitudeDegrees>2.5109816528856754302978515625</LongitudeDegrees>
            </Position>
            <AltitudeMeters>512.4000244140625</AltitudeMeters>
            <DistanceMeters>NAN</DistanceMeters>
          </Trackpoint>
          <Trackpoint>
            <Time>2021-04-03T11:22:46.000Z</Time>
            <Position>
              <LatitudeDegrees>42.303015701472759246826171875</LatitudeDegrees>
              <LongitudeDegrees>2.51097234897315502166748046875</LongitudeDegrees>
            </Position>
            <AltitudeMeters>512.4000244140625</AltitudeMeters>
            <DistanceMeters>NAN</DistanceMeters>
          </Trackpoint>
          <Trackpoint>
            <Time>2021-04-03T11:22:50.000Z</Time>
            <Position>
              <LatitudeDegrees>42.3030212335288524627685546875</LatitudeDegrees>
              <LongitudeDegrees>2.5109290145337581634521484375</LongitudeDegrees>
            </Position>
            <AltitudeMeters>511.79998779296875</AltitudeMeters>
            <DistanceMeters>NAN</DistanceMeters>
          </Trackpoint>
          <Trackpoint>
            <Time>2021-04-03T11:22:51.000Z</Time>
            <Position>
              <LatitudeDegrees>42.3030242510139942169189453125</LatitudeDegrees>
              <LongitudeDegrees>2.510918788611888885498046875</LongitudeDegrees>
            </Position>
            <AltitudeMeters>511.399993896484375</AltitudeMeters>
            <DistanceMeters>NAN</DistanceMeters>
          </Trackpoint>
          <Trackpoint>
            <Time>2021-04-03T11:22:53.000Z</Time>
            <Position>
              <LatitudeDegrees>42.30303506366908550262451171875</LatitudeDegrees>
              <LongitudeDegrees>2.510898001492023468017578125</LongitudeDegrees>
            </Position>
            <AltitudeMeters>511</AltitudeMeters>
            <DistanceMeters>NAN</DistanceMeters>
          </Trackpoint>
          <Trackpoint>
            <Time>2021-04-03T11:22:55.000Z</Time>
            <Position>
              <LatitudeDegrees>42.3030537553131580352783203125</LatitudeDegrees>
              <LongitudeDegrees>2.51089523546397686004638671875</LongitudeDegrees>
            </Position>
            <AltitudeMeters>510.600006103515625</AltitudeMeters>
            <DistanceMeters>NAN</DistanceMeters>
          </Trackpoint>
          <Trackpoint>
            <Time>2021-04-03T11:22:57.000Z</Time>
            <Position>
              <LatitudeDegrees>42.30306741781532764434814453125</LatitudeDegrees>
              <LongitudeDegrees>2.51090479083359241485595703125</LongitudeDegrees>
            </Position>
            <AltitudeMeters>510.20001220703125</AltitudeMeters>
            <DistanceMeters>NAN</DistanceMeters>
          </Trackpoint>
          <Trackpoint>
            <Time>2021-04-03T11:22:58.000Z</Time>
            <Position>
              <LatitudeDegrees>42.3030738718807697296142578125</LatitudeDegrees>
              <LongitudeDegrees>2.51090579666197299957275390625</LongitudeDegrees>
            </Position>
            <AltitudeMeters>510</AltitudeMeters>
            <DistanceMeters>NAN</DistanceMeters>
          </Trackpoint>
          <Trackpoint>
            <Time>2021-04-03T11:23:00.000Z</Time>
            <Position>
              <LatitudeDegrees>42.30308384634554386138916015625</LatitudeDegrees>
              <LongitudeDegrees>2.51090043224394321441650390625</LongitudeDegrees>
            </Position>
            <AltitudeMeters>509.600006103515625</AltitudeMeters>
            <DistanceMeters>NAN</DistanceMeters>
          </Trackpoint>
          <Trackpoint>
            <Time>2021-04-03T11:23:02.000Z</Time>
            <Position>
              <LatitudeDegrees>42.30307864956557750701904296875</LatitudeDegrees>
              <LongitudeDegrees>2.510880567133426666259765625</LongitudeDegrees>
            </Position>
            <AltitudeMeters>509.399993896484375</AltitudeMeters>
            <DistanceMeters>NAN</DistanceMeters>
          </Trackpoint>
          <Trackpoint>
            <Time>2021-04-03T11:23:03.000Z</Time>
            <Position>
              <LatitudeDegrees>42.30307680554687976837158203125</LatitudeDegrees>
              <LongitudeDegrees>2.51086883246898651123046875</LongitudeDegrees>
            </Position>
            <AltitudeMeters>509.20001220703125</AltitudeMeters>
            <DistanceMeters>NAN</DistanceMeters>
          </Trackpoint>
          <Trackpoint>
            <Time>2021-04-03T11:23:04.000Z</Time>
            <Position>
              <LatitudeDegrees>42.30307730846107006072998046875</LatitudeDegrees>
              <LongitudeDegrees>2.51085667870938777923583984375</LongitudeDegrees>
            </Position>
            <AltitudeMeters>509</AltitudeMeters>
            <DistanceMeters>NAN</DistanceMeters>
          </Trackpoint>
          <Trackpoint>
            <Time>2021-04-03T11:23:06.000Z</Time>
            <Position>
              <LatitudeDegrees>42.303084768354892730712890625</LatitudeDegrees>
              <LongitudeDegrees>2.51083195209503173828125</LongitudeDegrees>
            </Position>
            <AltitudeMeters>508.20001220703125</AltitudeMeters>
            <DistanceMeters>NAN</DistanceMeters>
          </Trackpoint>
          <Trackpoint>
            <Time>2021-04-03T11:23:09.000Z</Time>
            <Position>
              <LatitudeDegrees>42.30309926904737949371337890625</LatitudeDegrees>
              <LongitudeDegrees>2.510793395340442657470703125</LongitudeDegrees>
            </Position>
            <AltitudeMeters>507.399993896484375</AltitudeMeters>
            <DistanceMeters>NAN</DistanceMeters>
          </Trackpoint>
          <Trackpoint>
            <Time>2021-04-03T11:23:10.000Z</Time>
            <Position>
              <LatitudeDegrees>42.30309859849512577056884765625</LatitudeDegrees>
              <LongitudeDegrees>2.51078258268535137176513671875</LongitudeDegrees>
            </Position>
            <AltitudeMeters>507</AltitudeMeters>
            <DistanceMeters>NAN</DistanceMeters>
          </Trackpoint>
          <Trackpoint>
            <Time>2021-04-03T11:23:11.000Z</Time>
            <Position>
              <LatitudeDegrees>42.30310195125639438629150390625</LatitudeDegrees>
              <LongitudeDegrees>2.51077168621122837066650390625</LongitudeDegrees>
            </Position>
            <AltitudeMeters>506.79998779296875</AltitudeMeters>
            <DistanceMeters>NAN</DistanceMeters>
          </Trackpoint>
          <Trackpoint>
            <Time>2021-04-03T11:23:13.000Z</Time>
            <Position>
              <LatitudeDegrees>42.303104884922504425048828125</LatitudeDegrees>
              <LongitudeDegrees>2.51075081527233123779296875</LongitudeDegrees>
            </Position>
            <AltitudeMeters>506.399993896484375</AltitudeMeters>
            <DistanceMeters>NAN</DistanceMeters>
          </Trackpoint>
          <Trackpoint>
            <Time>2021-04-03T11:23:15.000Z</Time>
            <Position>
              <LatitudeDegrees>42.3031177930533885955810546875</LatitudeDegrees>
              <LongitudeDegrees>2.51073648221790790557861328125</LongitudeDegrees>
            </Position>
            <AltitudeMeters>506</AltitudeMeters>
            <DistanceMeters>NAN</DistanceMeters>
          </Trackpoint>
          <Trackpoint>
            <Time>2021-04-03T11:23:16.000Z</Time>
            <Position>
              <LatitudeDegrees>42.30312340892851352691650390625</LatitudeDegrees>
              <LongitudeDegrees>2.51073606312274932861328125</LongitudeDegrees>
            </Position>
            <AltitudeMeters>506</AltitudeMeters>
            <DistanceMeters>NAN</DistanceMeters>
          </Trackpoint>
          <Trackpoint>
            <Time>2021-04-03T11:23:18.000Z</Time>
            <Position>
              <LatitudeDegrees>42.3031412623822689056396484375</LatitudeDegrees>
              <LongitudeDegrees>2.510748803615570068359375</LongitudeDegrees>
            </Position>
            <AltitudeMeters>505.399993896484375</AltitudeMeters>
            <DistanceMeters>NAN</DistanceMeters>
          </Trackpoint>
          <Trackpoint>
            <Time>2021-04-03T11:23:19.000Z</Time>
            <Position>
              <LatitudeDegrees>42.30314738117158412933349609375</LatitudeDegrees>
              <LongitudeDegrees>2.5107590295374393463134765625</LongitudeDegrees>
            </Position>
            <AltitudeMeters>505.399993896484375</AltitudeMeters>
            <DistanceMeters>NAN</DistanceMeters>
          </Trackpoint>
          <Trackpoint>
            <Time>2021-04-03T11:23:20.000Z</Time>
            <Position>
              <LatitudeDegrees>42.3031513206660747528076171875</LatitudeDegrees>
              <LongitudeDegrees>2.51076967455446720123291015625</LongitudeDegrees>
            </Position>
            <AltitudeMeters>505</AltitudeMeters>
            <DistanceMeters>NAN</DistanceMeters>
          </Trackpoint>
          <Trackpoint>
            <Time>2021-04-03T11:23:23.000Z</Time>
            <Position>
              <LatitudeDegrees>42.30316716246306896209716796875</LatitudeDegrees>
              <LongitudeDegrees>2.5107992626726627349853515625</LongitudeDegrees>
            </Position>
            <AltitudeMeters>504.399993896484375</AltitudeMeters>
            <DistanceMeters>NAN</DistanceMeters>
          </Trackpoint>
          <Trackpoint>
            <Time>2021-04-03T11:23:25.000Z</Time>
            <Position>
              <LatitudeDegrees>42.3031838424503803253173828125</LatitudeDegrees>
              <LongitudeDegrees>2.5108234025537967681884765625</LongitudeDegrees>
            </Position>
            <AltitudeMeters>504</AltitudeMeters>
            <DistanceMeters>NAN</DistanceMeters>
          </Trackpoint>
          <Trackpoint>
            <Time>2021-04-03T11:23:27.000Z</Time>
            <Position>
              <LatitudeDegrees>42.30319599620997905731201171875</LatitudeDegrees>
              <LongitudeDegrees>2.51083907671272754669189453125</LongitudeDegrees>
            </Position>
            <AltitudeMeters>503.20001220703125</AltitudeMeters>
            <DistanceMeters>NAN</DistanceMeters>
          </Trackpoint>
          <Trackpoint>
            <Time>2021-04-03T11:23:28.000Z</Time>
            <Position>
              <LatitudeDegrees>42.30319968424737453460693359375</LatitudeDegrees>
              <LongitudeDegrees>2.51083798706531524658203125</LongitudeDegrees>
            </Position>
            <AltitudeMeters>502.79998779296875</AltitudeMeters>
            <DistanceMeters>NAN</DistanceMeters>
          </Trackpoint>
          <Trackpoint>
            <Time>2021-04-03T11:23:29.000Z</Time>
            <Position>
              <LatitudeDegrees>42.303202114999294281005859375</LatitudeDegrees>
              <LongitudeDegrees>2.5108351372182369232177734375</LongitudeDegrees>
            </Position>
            <AltitudeMeters>502.399993896484375</AltitudeMeters>
            <DistanceMeters>NAN</DistanceMeters>
          </Trackpoint>
          <Trackpoint>
            <Time>2021-04-03T11:23:31.000Z</Time>
            <Position>
              <LatitudeDegrees>42.30320722796022891998291015625</LatitudeDegrees>
              <LongitudeDegrees>2.510818205773830413818359375</LongitudeDegrees>
            </Position>
            <AltitudeMeters>501.79998779296875</AltitudeMeters>
            <DistanceMeters>NAN</DistanceMeters>
          </Trackpoint>
          <Trackpoint>
            <Time>2021-04-03T11:23:32.000Z</Time>
            <Position>
              <LatitudeDegrees>42.3032066412270069122314453125</LatitudeDegrees>
              <LongitudeDegrees>2.51080873422324657440185546875</LongitudeDegrees>
            </Position>
            <AltitudeMeters>501.600006103515625</AltitudeMeters>
            <DistanceMeters>NAN</DistanceMeters>
          </Trackpoint>
          <Trackpoint>
            <Time>2021-04-03T11:23:34.000Z</Time>
            <Position>
              <LatitudeDegrees>42.30320840142667293548583984375</LatitudeDegrees>
              <LongitudeDegrees>2.51078928820788860321044921875</LongitudeDegrees>
            </Position>
            <AltitudeMeters>501.20001220703125</AltitudeMeters>
            <DistanceMeters>NAN</DistanceMeters>
          </Trackpoint>
          <Trackpoint>
            <Time>2021-04-03T11:23:37.000Z</Time>
            <Position>
              <LatitudeDegrees>42.30322030372917652130126953125</LatitudeDegrees>
              <LongitudeDegrees>2.5107469595968723297119140625</LongitudeDegrees>
            </Position>
            <AltitudeMeters>500.600006103515625</AltitudeMeters>
            <DistanceMeters>NAN</DistanceMeters>
          </Trackpoint>
          <Trackpoint>
            <Time>2021-04-03T11:23:39.000Z</Time>
            <Position>
              <LatitudeDegrees>42.30321628041565418243408203125</LatitudeDegrees>
              <LongitudeDegrees>2.510728351771831512451171875</LongitudeDegrees>
            </Position>
            <AltitudeMeters>500.20001220703125</AltitudeMeters>
            <DistanceMeters>NAN</DistanceMeters>
          </Trackpoint>
          <Trackpoint>
            <Time>2021-04-03T11:23:41.000Z</Time>
            <Position>
              <LatitudeDegrees>42.3032213933765888214111328125</LatitudeDegrees>
              <LongitudeDegrees>2.510698847472667694091796875</LongitudeDegrees>
            </Position>
            <AltitudeMeters>499.600006103515625</AltitudeMeters>
            <DistanceMeters>NAN</DistanceMeters>
          </Trackpoint>
          <Trackpoint>
            <Time>2021-04-03T11:23:43.000Z</Time>
            <Position>
              <LatitudeDegrees>42.30320370756089687347412109375</LatitudeDegrees>
              <LongitudeDegrees>2.51067462377250194549560546875</LongitudeDegrees>
            </Position>
            <AltitudeMeters>499.20001220703125</AltitudeMeters>
            <DistanceMeters>NAN</DistanceMeters>
          </Trackpoint>
          <Trackpoint>
            <Time>2021-04-03T11:23:45.000Z</Time>
            <Position>
              <LatitudeDegrees>42.3031957447528839111328125</LatitudeDegrees>
              <LongitudeDegrees>2.51066372729837894439697265625</LongitudeDegrees>
            </Position>
            <AltitudeMeters>498.399993896484375</AltitudeMeters>
            <DistanceMeters>NAN</DistanceMeters>
          </Trackpoint>
          <Trackpoint>
            <Time>2021-04-03T11:23:51.000Z</Time>
            <Position>
              <LatitudeDegrees>42.3031610436737537384033203125</LatitudeDegrees>
              <LongitudeDegrees>2.5106148608028888702392578125</LongitudeDegrees>
            </Position>
            <AltitudeMeters>497.399993896484375</AltitudeMeters>
            <DistanceMeters>NAN</DistanceMeters>
          </Trackpoint>
          <Trackpoint>
            <Time>2021-04-03T11:23:52.000Z</Time>
            <Position>
              <LatitudeDegrees>42.30316045694053173065185546875</LatitudeDegrees>
              <LongitudeDegrees>2.51060052774846553802490234375</LongitudeDegrees>
            </Position>
            <AltitudeMeters>497.399993896484375</AltitudeMeters>
            <DistanceMeters>NAN</DistanceMeters>
          </Trackpoint>
          <Trackpoint>
            <Time>2021-04-03T11:23:53.000Z</Time>
            <Position>
              <LatitudeDegrees>42.30316062457859516143798828125</LatitudeDegrees>
              <LongitudeDegrees>2.510582506656646728515625</LongitudeDegrees>
            </Position>
            <AltitudeMeters>497.20001220703125</AltitudeMeters>
            <DistanceMeters>NAN</DistanceMeters>
          </Trackpoint>
          <Trackpoint>
            <Time>2021-04-03T11:23:57.000Z</Time>
            <Position>
              <LatitudeDegrees>42.30315349996089935302734375</LatitudeDegrees>
              <LongitudeDegrees>2.51051704399287700653076171875</LongitudeDegrees>
            </Position>
            <AltitudeMeters>496.600006103515625</AltitudeMeters>
            <DistanceMeters>NAN</DistanceMeters>
          </Trackpoint>
          <Trackpoint>
            <Time>2021-04-03T11:23:58.000Z</Time>
            <Position>
              <LatitudeDegrees>42.30314922519028186798095703125</LatitudeDegrees>
              <LongitudeDegrees>2.51050346530973911285400390625</LongitudeDegrees>
            </Position>
            <AltitudeMeters>496.600006103515625</AltitudeMeters>
            <DistanceMeters>NAN</DistanceMeters>
          </Trackpoint>
          <Trackpoint>
            <Time>2021-04-03T11:24:00.000Z</Time>
            <Position>
              <LatitudeDegrees>42.3031426034867763519287109375</LatitudeDegrees>
              <LongitudeDegrees>2.51047127880156040191650390625</LongitudeDegrees>
            </Position>
            <AltitudeMeters>496.399993896484375</AltitudeMeters>
            <DistanceMeters>NAN</DistanceMeters>
          </Trackpoint>
          <Trackpoint>
            <Time>2021-04-03T11:24:02.000Z</Time>
            <Position>
              <LatitudeDegrees>42.3031469620764255523681640625</LatitudeDegrees>
              <LongitudeDegrees>2.51043699681758880615234375</LongitudeDegrees>
            </Position>
            <AltitudeMeters>495.79998779296875</AltitudeMeters>
            <DistanceMeters>NAN</DistanceMeters>
          </Trackpoint>
          <Trackpoint>
            <Time>2021-04-03T11:24:04.000Z</Time>
            <Position>
              <LatitudeDegrees>42.30314972810447216033935546875</LatitudeDegrees>
              <LongitudeDegrees>2.51040372066199779510498046875</LongitudeDegrees>
            </Position>
            <AltitudeMeters>495.399993896484375</AltitudeMeters>
            <DistanceMeters>NAN</DistanceMeters>
          </Trackpoint>
          <Trackpoint>
            <Time>2021-04-03T11:24:05.000Z</Time>
            <Position>
              <LatitudeDegrees>42.3031506501138210296630859375</LatitudeDegrees>
              <LongitudeDegrees>2.5103882141411304473876953125</LongitudeDegrees>
            </Position>
            <AltitudeMeters>495.20001220703125</AltitudeMeters>
            <DistanceMeters>NAN</DistanceMeters>
          </Trackpoint>
          <Trackpoint>
            <Time>2021-04-03T11:24:07.000Z</Time>
            <Position>
              <LatitudeDegrees>42.3031499795615673065185546875</LatitudeDegrees>
              <LongitudeDegrees>2.51036725938320159912109375</LongitudeDegrees>
            </Position>
            <AltitudeMeters>495</AltitudeMeters>
            <DistanceMeters>NAN</DistanceMeters>
          </Trackpoint>
          <Trackpoint>
            <Time>2021-04-03T11:24:08.000Z</Time>
            <Position>
              <LatitudeDegrees>42.30314905755221843719482421875</LatitudeDegrees>
              <LongitudeDegrees>2.5103587098419666290283203125</LongitudeDegrees>
            </Position>
            <AltitudeMeters>495</AltitudeMeters>
            <DistanceMeters>NAN</DistanceMeters>
          </Trackpoint>
          <Trackpoint>
            <Time>2021-04-03T11:24:11.000Z</Time>
            <Position>
              <LatitudeDegrees>42.3031543381512165069580078125</LatitudeDegrees>
              <LongitudeDegrees>2.51031420193612575531005859375</LongitudeDegrees>
            </Position>
            <AltitudeMeters>494.399993896484375</AltitudeMeters>
            <DistanceMeters>NAN</DistanceMeters>
          </Trackpoint>
          <Trackpoint>
            <Time>2021-04-03T11:24:12.000Z</Time>
            <Position>
              <LatitudeDegrees>42.30314838699996471405029296875</LatitudeDegrees>
              <LongitudeDegrees>2.51030229963362216949462890625</LongitudeDegrees>
            </Position>
            <AltitudeMeters>494.20001220703125</AltitudeMeters>
            <DistanceMeters>NAN</DistanceMeters>
          </Trackpoint>
          <Trackpoint>
            <Time>2021-04-03T11:24:15.000Z</Time>
            <Position>
              <LatitudeDegrees>42.303131036460399627685546875</LatitudeDegrees>
              <LongitudeDegrees>2.5102701969444751739501953125</LongitudeDegrees>
            </Position>
            <AltitudeMeters>493.20001220703125</AltitudeMeters>
            <DistanceMeters>NAN</DistanceMeters>
          </Trackpoint>
          <Trackpoint>
            <Time>2021-04-03T11:24:16.000Z</Time>
            <Position>
              <LatitudeDegrees>42.30314034037292003631591796875</LatitudeDegrees>
              <LongitudeDegrees>2.51025971956551074981689453125</LongitudeDegrees>
            </Position>
            <AltitudeMeters>493</AltitudeMeters>
            <DistanceMeters>NAN</DistanceMeters>
          </Trackpoint>
          <Trackpoint>
            <Time>2021-04-03T11:24:17.000Z</Time>
            <Position>
              <LatitudeDegrees>42.30314143002033233642578125</LatitudeDegrees>
              <LongitudeDegrees>2.5102485716342926025390625</LongitudeDegrees>
            </Position>
            <AltitudeMeters>492.79998779296875</AltitudeMeters>
            <DistanceMeters>NAN</DistanceMeters>
          </Trackpoint>
          <Trackpoint>
            <Time>2021-04-03T11:24:19.000Z</Time>
            <Position>
              <LatitudeDegrees>42.30315391905605792999267578125</LatitudeDegrees>
              <LongitudeDegrees>2.5102299638092517852783203125</LongitudeDegrees>
            </Position>
            <AltitudeMeters>492.399993896484375</AltitudeMeters>
            <DistanceMeters>NAN</DistanceMeters>
          </Trackpoint>
          <Trackpoint>
            <Time>2021-04-03T11:24:21.000Z</Time>
            <Position>
              <LatitudeDegrees>42.303157858550548553466796875</LatitudeDegrees>
              <LongitudeDegrees>2.51021948643028736114501953125</LongitudeDegrees>
            </Position>
            <AltitudeMeters>492</AltitudeMeters>
            <DistanceMeters>NAN</DistanceMeters>
          </Trackpoint>
          <Trackpoint>
            <Time>2021-04-03T11:24:22.000Z</Time>
            <Position>
              <LatitudeDegrees>42.30315643362700939178466796875</LatitudeDegrees>
              <LongitudeDegrees>2.51021278090775012969970703125</LongitudeDegrees>
            </Position>
            <AltitudeMeters>491.600006103515625</AltitudeMeters>
            <DistanceMeters>NAN</DistanceMeters>
          </Trackpoint>
          <Trackpoint>
            <Time>2021-04-03T11:24:24.000Z</Time>
            <Position>
              <LatitudeDegrees>42.303159870207309722900390625</LatitudeDegrees>
              <LongitudeDegrees>2.51018310897052288055419921875</LongitudeDegrees>
            </Position>
            <AltitudeMeters>491.20001220703125</AltitudeMeters>
            <DistanceMeters>NAN</DistanceMeters>
          </Trackpoint>
          <Trackpoint>
            <Time>2021-04-03T11:24:26.000Z</Time>
            <Position>
              <LatitudeDegrees>42.30316163040697574615478515625</LatitudeDegrees>
              <LongitudeDegrees>2.51016139984130859375</LongitudeDegrees>
            </Position>
            <AltitudeMeters>490.79998779296875</AltitudeMeters>
            <DistanceMeters>NAN</DistanceMeters>
          </Trackpoint>
          <Trackpoint>
            <Time>2021-04-03T11:24:30.000Z</Time>
            <Position>
              <LatitudeDegrees>42.30318811722099781036376953125</LatitudeDegrees>
              <LongitudeDegrees>2.51015444286167621612548828125</LongitudeDegrees>
            </Position>
            <AltitudeMeters>490.20001220703125</AltitudeMeters>
            <DistanceMeters>NAN</DistanceMeters>
          </Trackpoint>
          <Trackpoint>
            <Time>2021-04-03T11:24:32.000Z</Time>
            <Position>
              <LatitudeDegrees>42.30320571921765804290771484375</LatitudeDegrees>
              <LongitudeDegrees>2.510148324072360992431640625</LongitudeDegrees>
            </Position>
            <AltitudeMeters>489.399993896484375</AltitudeMeters>
            <DistanceMeters>NAN</DistanceMeters>
          </Trackpoint>
          <Trackpoint>
            <Time>2021-04-03T11:24:33.000Z</Time>
            <Position>
              <LatitudeDegrees>42.3032140173017978668212890625</LatitudeDegrees>
              <LongitudeDegrees>2.5101451389491558074951171875</LongitudeDegrees>
            </Position>
            <AltitudeMeters>489.20001220703125</AltitudeMeters>
            <DistanceMeters>NAN</DistanceMeters>
          </Trackpoint>
          <Trackpoint>
            <Time>2021-04-03T11:24:34.000Z</Time>
            <Position>
              <LatitudeDegrees>42.303218878805637359619140625</LatitudeDegrees>
              <LongitudeDegrees>2.510142959654331207275390625</LongitudeDegrees>
            </Position>
            <AltitudeMeters>489</AltitudeMeters>
            <DistanceMeters>NAN</DistanceMeters>
          </Trackpoint>
          <Trackpoint>
            <Time>2021-04-03T11:24:35.000Z</Time>
            <Position>
              <LatitudeDegrees>42.3032210581004619598388671875</LatitudeDegrees>
              <LongitudeDegrees>2.5101384334266185760498046875</LongitudeDegrees>
            </Position>
            <AltitudeMeters>488.79998779296875</AltitudeMeters>
            <DistanceMeters>NAN</DistanceMeters>
          </Trackpoint>
          <Trackpoint>
            <Time>2021-04-03T11:24:39.000Z</Time>
            <Position>
              <LatitudeDegrees>42.30322348885238170623779296875</LatitudeDegrees>
              <LongitudeDegrees>2.51011454500257968902587890625</LongitudeDegrees>
            </Position>
            <AltitudeMeters>488.20001220703125</AltitudeMeters>
            <DistanceMeters>NAN</DistanceMeters>
          </Trackpoint>
          <Trackpoint>
            <Time>2021-04-03T11:24:40.000Z</Time>
            <Position>
              <LatitudeDegrees>42.30323120020329952239990234375</LatitudeDegrees>
              <LongitudeDegrees>2.5101059116423130035400390625</LongitudeDegrees>
            </Position>
            <AltitudeMeters>488</AltitudeMeters>
            <DistanceMeters>NAN</DistanceMeters>
          </Trackpoint>
          <Trackpoint>
            <Time>2021-04-03T11:24:43.000Z</Time>
            <Position>
              <LatitudeDegrees>42.3032344691455364227294921875</LatitudeDegrees>
              <LongitudeDegrees>2.51008688472211360931396484375</LongitudeDegrees>
            </Position>
            <AltitudeMeters>487</AltitudeMeters>
            <DistanceMeters>NAN</DistanceMeters>
          </Trackpoint>
          <Trackpoint>
            <Time>2021-04-03T11:24:47.000Z</Time>
            <Position>
              <LatitudeDegrees>42.30326078832149505615234375</LatitudeDegrees>
              <LongitudeDegrees>2.5100469030439853668212890625</LongitudeDegrees>
            </Position>
            <AltitudeMeters>486.20001220703125</AltitudeMeters>
            <DistanceMeters>NAN</DistanceMeters>
          </Trackpoint>
          <Trackpoint>
            <Time>2021-04-03T11:24:49.000Z</Time>
            <Position>
              <LatitudeDegrees>42.303282916545867919921875</LatitudeDegrees>
              <LongitudeDegrees>2.51002661883831024169921875</LongitudeDegrees>
            </Position>
            <AltitudeMeters>486</AltitudeMeters>
            <DistanceMeters>NAN</DistanceMeters>
          </Trackpoint>
          <Trackpoint>
            <Time>2021-04-03T11:24:53.000Z</Time>
            <Position>
              <LatitudeDegrees>42.30331300757825374603271484375</LatitudeDegrees>
              <LongitudeDegrees>2.50996417365968227386474609375</LongitudeDegrees>
            </Position>
            <AltitudeMeters>485</AltitudeMeters>
            <DistanceMeters>NAN</DistanceMeters>
          </Trackpoint>
          <Trackpoint>
            <Time>2021-04-03T11:24:55.000Z</Time>
            <Position>
              <LatitudeDegrees>42.30331937782466411590576171875</LatitudeDegrees>
              <LongitudeDegrees>2.50993383117020130157470703125</LongitudeDegrees>
            </Position>
            <AltitudeMeters>485</AltitudeMeters>
            <DistanceMeters>NAN</DistanceMeters>
          </Trackpoint>
          <Trackpoint>
            <Time>2021-04-03T11:24:57.000Z</Time>
            <Position>
              <LatitudeDegrees>42.30332407169044017791748046875</LatitudeDegrees>
              <LongitudeDegrees>2.5099050812423229217529296875</LongitudeDegrees>
            </Position>
            <AltitudeMeters>484.79998779296875</AltitudeMeters>
            <DistanceMeters>NAN</DistanceMeters>
          </Trackpoint>
          <Trackpoint>
            <Time>2021-04-03T11:24:58.000Z</Time>
            <Position>
              <LatitudeDegrees>42.303326837718486785888671875</LatitudeDegrees>
              <LongitudeDegrees>2.50989208929240703582763671875</LongitudeDegrees>
            </Position>
            <AltitudeMeters>484.79998779296875</AltitudeMeters>
            <DistanceMeters>NAN</DistanceMeters>
          </Trackpoint>
          <Trackpoint>
            <Time>2021-04-03T11:24:59.000Z</Time>
            <Position>
              <LatitudeDegrees>42.303332202136516571044921875</LatitudeDegrees>
              <LongitudeDegrees>2.5098846293985843658447265625</LongitudeDegrees>
            </Position>
            <AltitudeMeters>484.79998779296875</AltitudeMeters>
            <DistanceMeters>NAN</DistanceMeters>
          </Trackpoint>
          <Trackpoint>
            <Time>2021-04-03T11:25:05.000Z</Time>
            <Position>
              <LatitudeDegrees>42.30335072614252567291259765625</LatitudeDegrees>
              <LongitudeDegrees>2.509818412363529205322265625</LongitudeDegrees>
            </Position>
            <AltitudeMeters>483.79998779296875</AltitudeMeters>
            <DistanceMeters>NAN</DistanceMeters>
          </Trackpoint>
          <Trackpoint>
            <Time>2021-04-03T11:25:06.000Z</Time>
            <Position>
              <LatitudeDegrees>42.303349971771240234375</LatitudeDegrees>
              <LongitudeDegrees>2.5098041631281375885009765625</LongitudeDegrees>
            </Position>
            <AltitudeMeters>483.600006103515625</AltitudeMeters>
            <DistanceMeters>NAN</DistanceMeters>
          </Trackpoint>
          <Trackpoint>
            <Time>2021-04-03T11:25:07.000Z</Time>
            <Position>
              <LatitudeDegrees>42.303352989256381988525390625</LatitudeDegrees>
              <LongitudeDegrees>2.50979301519691944122314453125</LongitudeDegrees>
            </Position>
            <AltitudeMeters>483.600006103515625</AltitudeMeters>
            <DistanceMeters>NAN</DistanceMeters>
          </Trackpoint>
          <Trackpoint>
            <Time>2021-04-03T11:25:09.000Z</Time>
            <Position>
              <LatitudeDegrees>42.30336380191147327423095703125</LatitudeDegrees>
              <LongitudeDegrees>2.50977340154349803924560546875</LongitudeDegrees>
            </Position>
            <AltitudeMeters>483.399993896484375</AltitudeMeters>
            <DistanceMeters>NAN</DistanceMeters>
          </Trackpoint>
          <Trackpoint>
            <Time>2021-04-03T11:25:11.000Z</Time>
            <Position>
              <LatitudeDegrees>42.3033645562827587127685546875</LatitudeDegrees>
              <LongitudeDegrees>2.5097528658807277679443359375</LongitudeDegrees>
            </Position>
            <AltitudeMeters>483</AltitudeMeters>
            <DistanceMeters>NAN</DistanceMeters>
          </Trackpoint>
          <Trackpoint>
            <Time>2021-04-03T11:25:12.000Z</Time>
            <Position>
              <LatitudeDegrees>42.30336531065404415130615234375</LatitudeDegrees>
              <LongitudeDegrees>2.509739957749843597412109375</LongitudeDegrees>
            </Position>
            <AltitudeMeters>482.79998779296875</AltitudeMeters>
            <DistanceMeters>NAN</DistanceMeters>
          </Trackpoint>
          <Trackpoint>
            <Time>2021-04-03T11:25:13.000Z</Time>
            <Position>
              <LatitudeDegrees>42.30336698703467845916748046875</LatitudeDegrees>
              <LongitudeDegrees>2.50972780399024486541748046875</LongitudeDegrees>
            </Position>
            <AltitudeMeters>482.600006103515625</AltitudeMeters>
            <DistanceMeters>NAN</DistanceMeters>
          </Trackpoint>
          <Trackpoint>
            <Time>2021-04-03T11:25:15.000Z</Time>
            <Position>
              <LatitudeDegrees>42.303368747234344482421875</LatitudeDegrees>
              <LongitudeDegrees>2.50970131717622280120849609375</LongitudeDegrees>
            </Position>
            <AltitudeMeters>482.20001220703125</AltitudeMeters>
            <DistanceMeters>NAN</DistanceMeters>
          </Trackpoint>
          <Trackpoint>
            <Time>2021-04-03T11:25:18.000Z</Time>
            <Position>
              <LatitudeDegrees>42.3033866845071315765380859375</LatitudeDegrees>
              <LongitudeDegrees>2.5096737407147884368896484375</LongitudeDegrees>
            </Position>
            <AltitudeMeters>481.600006103515625</AltitudeMeters>
            <DistanceMeters>NAN</DistanceMeters>
          </Trackpoint>
          <Trackpoint>
            <Time>2021-04-03T11:25:19.000Z</Time>
            <Position>
              <LatitudeDegrees>42.30338961817324161529541015625</LatitudeDegrees>
              <LongitudeDegrees>2.5096640177071094512939453125</LongitudeDegrees>
            </Position>
            <AltitudeMeters>481.399993896484375</AltitudeMeters>
            <DistanceMeters>NAN</DistanceMeters>
          </Trackpoint>
          <Trackpoint>
            <Time>2021-04-03T11:25:20.000Z</Time>
            <Position>
              <LatitudeDegrees>42.30339431203901767730712890625</LatitudeDegrees>
              <LongitudeDegrees>2.50964700244367122650146484375</LongitudeDegrees>
            </Position>
            <AltitudeMeters>481.20001220703125</AltitudeMeters>
            <DistanceMeters>NAN</DistanceMeters>
          </Trackpoint>
          <Trackpoint>
            <Time>2021-04-03T11:25:21.000Z</Time>
            <Position>
              <LatitudeDegrees>42.30339934118092060089111328125</LatitudeDegrees>
              <LongitudeDegrees>2.509629987180233001708984375</LongitudeDegrees>
            </Position>
            <AltitudeMeters>481</AltitudeMeters>
            <DistanceMeters>NAN</DistanceMeters>
          </Trackpoint>
          <Trackpoint>
            <Time>2021-04-03T11:25:24.000Z</Time>
            <Position>
              <LatitudeDegrees>42.30340302921831607818603515625</LatitudeDegrees>
              <LongitudeDegrees>2.50958112068474292755126953125</LongitudeDegrees>
            </Position>
            <AltitudeMeters>480.600006103515625</AltitudeMeters>
            <DistanceMeters>NAN</DistanceMeters>
          </Trackpoint>
          <Trackpoint>
            <Time>2021-04-03T11:25:25.000Z</Time>
            <Position>
              <LatitudeDegrees>42.30340722016990184783935546875</LatitudeDegrees>
              <LongitudeDegrees>2.50956318341195583343505859375</LongitudeDegrees>
            </Position>
            <AltitudeMeters>480.399993896484375</AltitudeMeters>
            <DistanceMeters>NAN</DistanceMeters>
          </Trackpoint>
          <Trackpoint>
            <Time>2021-04-03T11:25:29.000Z</Time>
            <Position>
              <LatitudeDegrees>42.303422391414642333984375</LatitudeDegrees>
              <LongitudeDegrees>2.50950937159359455108642578125</LongitudeDegrees>
            </Position>
            <AltitudeMeters>479.600006103515625</AltitudeMeters>
            <DistanceMeters>NAN</DistanceMeters>
          </Trackpoint>
          <Trackpoint>
            <Time>2021-04-03T11:25:33.000Z</Time>
            <Position>
              <LatitudeDegrees>42.3034151829779148101806640625</LatitudeDegrees>
              <LongitudeDegrees>2.509450279176235198974609375</LongitudeDegrees>
            </Position>
            <AltitudeMeters>478.79998779296875</AltitudeMeters>
            <DistanceMeters>NAN</DistanceMeters>
          </Trackpoint>
          <Trackpoint>
            <Time>2021-04-03T11:25:35.000Z</Time>
            <Position>
              <LatitudeDegrees>42.30341493152081966400146484375</LatitudeDegrees>
              <LongitudeDegrees>2.509424798190593719482421875</LongitudeDegrees>
            </Position>
            <AltitudeMeters>478.600006103515625</AltitudeMeters>
            <DistanceMeters>NAN</DistanceMeters>
          </Trackpoint>
          <Trackpoint>
            <Time>2021-04-03T11:25:40.000Z</Time>
            <Position>
              <LatitudeDegrees>42.303407303988933563232421875</LatitudeDegrees>
              <LongitudeDegrees>2.50935866497457027435302734375</LongitudeDegrees>
            </Position>
            <AltitudeMeters>477.600006103515625</AltitudeMeters>
            <DistanceMeters>NAN</DistanceMeters>
          </Trackpoint>
          <Trackpoint>
            <Time>2021-04-03T11:25:41.000Z</Time>
            <Position>
              <LatitudeDegrees>42.3034057952463626861572265625</LatitudeDegrees>
              <LongitudeDegrees>2.50934558920562267303466796875</LongitudeDegrees>
            </Position>
            <AltitudeMeters>477.399993896484375</AltitudeMeters>
            <DistanceMeters>NAN</DistanceMeters>
          </Trackpoint>
          <Trackpoint>
            <Time>2021-04-03T11:25:44.000Z</Time>
            <Position>
              <LatitudeDegrees>42.30341233313083648681640625</LatitudeDegrees>
              <LongitudeDegrees>2.509291358292102813720703125</LongitudeDegrees>
            </Position>
            <AltitudeMeters>477.20001220703125</AltitudeMeters>
            <DistanceMeters>NAN</DistanceMeters>
          </Trackpoint>
          <Trackpoint>
            <Time>2021-04-03T11:25:47.000Z</Time>
            <Position>
              <LatitudeDegrees>42.30339917354285717010498046875</LatitudeDegrees>
              <LongitudeDegrees>2.50925674103200435638427734375</LongitudeDegrees>
            </Position>
            <AltitudeMeters>477</AltitudeMeters>
            <DistanceMeters>NAN</DistanceMeters>
          </Trackpoint>
          <Trackpoint>
            <Time>2021-04-03T11:25:49.000Z</Time>
            <Position>
              <LatitudeDegrees>42.3033910430967807769775390625</LatitudeDegrees>
              <LongitudeDegrees>2.509230673313140869140625</LongitudeDegrees>
            </Position>
            <AltitudeMeters>476.79998779296875</AltitudeMeters>
            <DistanceMeters>NAN</DistanceMeters>
          </Trackpoint>
          <Trackpoint>
            <Time>2021-04-03T11:25:51.000Z</Time>
            <Position>
              <LatitudeDegrees>42.30337746441364288330078125</LatitudeDegrees>
              <LongitudeDegrees>2.50920024700462818145751953125</LongitudeDegrees>
            </Position>
            <AltitudeMeters>476.600006103515625</AltitudeMeters>
            <DistanceMeters>NAN</DistanceMeters>
          </Trackpoint>
          <Trackpoint>
            <Time>2021-04-03T11:25:52.000Z</Time>
            <Position>
              <LatitudeDegrees>42.303381152451038360595703125</LatitudeDegrees>
              <LongitudeDegrees>2.5091875903308391571044921875</LongitudeDegrees>
            </Position>
            <AltitudeMeters>476.20001220703125</AltitudeMeters>
            <DistanceMeters>NAN</DistanceMeters>
          </Trackpoint>
          <Trackpoint>
            <Time>2021-04-03T11:25:54.000Z</Time>
            <Position>
              <LatitudeDegrees>42.30339766480028629302978515625</LatitudeDegrees>
              <LongitudeDegrees>2.5091671384871006011962890625</LongitudeDegrees>
            </Position>
            <AltitudeMeters>476</AltitudeMeters>
            <DistanceMeters>NAN</DistanceMeters>
          </Trackpoint>
          <Trackpoint>
            <Time>2021-04-03T11:25:56.000Z</Time>
            <Position>
              <LatitudeDegrees>42.30342834256589412689208984375</LatitudeDegrees>
              <LongitudeDegrees>2.5091326050460338592529296875</LongitudeDegrees>
            </Position>
            <AltitudeMeters>475.399993896484375</AltitudeMeters>
            <DistanceMeters>NAN</DistanceMeters>
          </Trackpoint>
          <Trackpoint>
            <Time>2021-04-03T11:25:57.000Z</Time>
            <Position>
              <LatitudeDegrees>42.30344058014452457427978515625</LatitudeDegrees>
              <LongitudeDegrees>2.50911760143935680389404296875</LongitudeDegrees>
            </Position>
            <AltitudeMeters>475.20001220703125</AltitudeMeters>
            <DistanceMeters>NAN</DistanceMeters>
          </Trackpoint>
          <Trackpoint>
            <Time>2021-04-03T11:26:00.000Z</Time>
            <Position>
              <LatitudeDegrees>42.303456254303455352783203125</LatitudeDegrees>
              <LongitudeDegrees>2.5091195292770862579345703125</LongitudeDegrees>
            </Position>
            <AltitudeMeters>475</AltitudeMeters>
            <DistanceMeters>NAN</DistanceMeters>
          </Trackpoint>
          <Trackpoint>
            <Time>2021-04-03T11:26:03.000Z</Time>
            <Position>
              <LatitudeDegrees>42.30348114855587482452392578125</LatitudeDegrees>
              <LongitudeDegrees>2.509104274213314056396484375</LongitudeDegrees>
            </Position>
            <AltitudeMeters>474.79998779296875</AltitudeMeters>
            <DistanceMeters>NAN</DistanceMeters>
          </Trackpoint>
          <Trackpoint>
            <Time>2021-04-03T11:26:06.000Z</Time>
            <Position>
              <LatitudeDegrees>42.30347310192883014678955078125</LatitudeDegrees>
              <LongitudeDegrees>2.50907150097191333770751953125</LongitudeDegrees>
            </Position>
            <AltitudeMeters>474</AltitudeMeters>
            <DistanceMeters>NAN</DistanceMeters>
          </Trackpoint>
          <Trackpoint>
            <Time>2021-04-03T11:26:09.000Z</Time>
            <Position>
              <LatitudeDegrees>42.30350059457123279571533203125</LatitudeDegrees>
              <LongitudeDegrees>2.509045936167240142822265625</LongitudeDegrees>
            </Position>
            <AltitudeMeters>473.399993896484375</AltitudeMeters>
            <DistanceMeters>NAN</DistanceMeters>
          </Trackpoint>
          <Trackpoint>
            <Time>2021-04-03T11:26:15.000Z</Time>
            <Position>
              <LatitudeDegrees>42.3035382293164730072021484375</LatitudeDegrees>
              <LongitudeDegrees>2.50897586345672607421875</LongitudeDegrees>
            </Position>
            <AltitudeMeters>473</AltitudeMeters>
            <DistanceMeters>NAN</DistanceMeters>
          </Trackpoint>
          <Trackpoint>
            <Time>2021-04-03T11:26:17.000Z</Time>
            <Position>
              <LatitudeDegrees>42.30354376137256622314453125</LatitudeDegrees>
              <LongitudeDegrees>2.50894191674888134002685546875</LongitudeDegrees>
            </Position>
            <AltitudeMeters>472.399993896484375</AltitudeMeters>
            <DistanceMeters>NAN</DistanceMeters>
          </Trackpoint>
          <Trackpoint>
            <Time>2021-04-03T11:26:20.000Z</Time>
            <Position>
              <LatitudeDegrees>42.30355046689510345458984375</LatitudeDegrees>
              <LongitudeDegrees>2.508895061910152435302734375</LongitudeDegrees>
            </Position>
            <AltitudeMeters>471.79998779296875</AltitudeMeters>
            <DistanceMeters>NAN</DistanceMeters>
          </Trackpoint>
          <Trackpoint>
            <Time>2021-04-03T11:26:23.000Z</Time>
            <Position>
              <LatitudeDegrees>42.30354107916355133056640625</LatitudeDegrees>
              <LongitudeDegrees>2.5088618695735931396484375</LongitudeDegrees>
            </Position>
            <AltitudeMeters>471.20001220703125</AltitudeMeters>
            <DistanceMeters>NAN</DistanceMeters>
          </Trackpoint>
          <Trackpoint>
            <Time>2021-04-03T11:26:25.000Z</Time>
            <Position>
              <LatitudeDegrees>42.30354384519159793853759765625</LatitudeDegrees>
              <LongitudeDegrees>2.5088449381291866302490234375</LongitudeDegrees>
            </Position>
            <AltitudeMeters>471</AltitudeMeters>
            <DistanceMeters>NAN</DistanceMeters>
          </Trackpoint>
          <Trackpoint>
            <Time>2021-04-03T11:26:27.000Z</Time>
            <Position>
              <LatitudeDegrees>42.303548790514469146728515625</LatitudeDegrees>
              <LongitudeDegrees>2.50882373191416263580322265625</LongitudeDegrees>
            </Position>
            <AltitudeMeters>470.79998779296875</AltitudeMeters>
            <DistanceMeters>NAN</DistanceMeters>
          </Trackpoint>
          <Trackpoint>
            <Time>2021-04-03T11:26:28.000Z</Time>
            <Position>
              <LatitudeDegrees>42.30354367755353450775146484375</LatitudeDegrees>
              <LongitudeDegrees>2.50880621373653411865234375</LongitudeDegrees>
            </Position>
            <AltitudeMeters>470.600006103515625</AltitudeMeters>
            <DistanceMeters>NAN</DistanceMeters>
          </Trackpoint>
          <Trackpoint>
            <Time>2021-04-03T11:26:29.000Z</Time>
            <Position>
              <LatitudeDegrees>42.30353512801229953765869140625</LatitudeDegrees>
              <LongitudeDegrees>2.50879053957760334014892578125</LongitudeDegrees>
            </Position>
            <AltitudeMeters>470.399993896484375</AltitudeMeters>
            <DistanceMeters>NAN</DistanceMeters>
          </Trackpoint>
          <Trackpoint>
            <Time>2021-04-03T11:26:32.000Z</Time>
            <Position>
              <LatitudeDegrees>42.303546778857707977294921875</LatitudeDegrees>
              <LongitudeDegrees>2.50876589678227901458740234375</LongitudeDegrees>
            </Position>
            <AltitudeMeters>469.79998779296875</AltitudeMeters>
            <DistanceMeters>NAN</DistanceMeters>
          </Trackpoint>
          <Trackpoint>
            <Time>2021-04-03T11:26:33.000Z</Time>
            <Position>
              <LatitudeDegrees>42.3035489581525325775146484375</LatitudeDegrees>
              <LongitudeDegrees>2.50875550322234630584716796875</LongitudeDegrees>
            </Position>
            <AltitudeMeters>469.79998779296875</AltitudeMeters>
            <DistanceMeters>NAN</DistanceMeters>
          </Trackpoint>
          <Trackpoint>
            <Time>2021-04-03T11:26:35.000Z</Time>
            <Position>
              <LatitudeDegrees>42.30356362648308277130126953125</LatitudeDegrees>
              <LongitudeDegrees>2.508731447160243988037109375</LongitudeDegrees>
            </Position>
            <AltitudeMeters>469.600006103515625</AltitudeMeters>
            <DistanceMeters>NAN</DistanceMeters>
          </Trackpoint>
          <Trackpoint>
            <Time>2021-04-03T11:26:38.000Z</Time>
            <Position>
              <LatitudeDegrees>42.30359229259192943572998046875</LatitudeDegrees>
              <LongitudeDegrees>2.50869565643370151519775390625</LongitudeDegrees>
            </Position>
            <AltitudeMeters>469.20001220703125</AltitudeMeters>
            <DistanceMeters>NAN</DistanceMeters>
          </Trackpoint>
          <Trackpoint>
            <Time>2021-04-03T11:26:40.000Z</Time>
            <Position>
              <LatitudeDegrees>42.30360411107540130615234375</LatitudeDegrees>
              <LongitudeDegrees>2.5086689181625843048095703125</LongitudeDegrees>
            </Position>
            <AltitudeMeters>469.20001220703125</AltitudeMeters>
            <DistanceMeters>NAN</DistanceMeters>
          </Trackpoint>
          <Trackpoint>
            <Time>2021-04-03T11:26:45.000Z</Time>
            <Position>
              <LatitudeDegrees>42.30361274443566799163818359375</LatitudeDegrees>
              <LongitudeDegrees>2.5085874460637569427490234375</LongitudeDegrees>
            </Position>
            <AltitudeMeters>469</AltitudeMeters>
            <DistanceMeters>NAN</DistanceMeters>
          </Trackpoint>
          <Trackpoint>
            <Time>2021-04-03T11:26:47.000Z</Time>
            <Position>
              <LatitudeDegrees>42.3036180250346660614013671875</LatitudeDegrees>
              <LongitudeDegrees>2.5085582770407199859619140625</LongitudeDegrees>
            </Position>
            <AltitudeMeters>469</AltitudeMeters>
            <DistanceMeters>NAN</DistanceMeters>
          </Trackpoint>
          <Trackpoint>
            <Time>2021-04-03T11:26:48.000Z</Time>
            <Position>
              <LatitudeDegrees>42.30361542664468288421630859375</LatitudeDegrees>
              <LongitudeDegrees>2.5085502304136753082275390625</LongitudeDegrees>
            </Position>
            <AltitudeMeters>468.79998779296875</AltitudeMeters>
            <DistanceMeters>NAN</DistanceMeters>
          </Trackpoint>
          <Trackpoint>
            <Time>2021-04-03T11:26:52.000Z</Time>
            <Position>
              <LatitudeDegrees>42.303621210157871246337890625</LatitudeDegrees>
              <LongitudeDegrees>2.5084922276437282562255859375</LongitudeDegrees>
            </Position>
            <AltitudeMeters>468.600006103515625</AltitudeMeters>
            <DistanceMeters>NAN</DistanceMeters>
          </Trackpoint>
          <Trackpoint>
            <Time>2021-04-03T11:26:54.000Z</Time>
            <Position>
              <LatitudeDegrees>42.30361475609242916107177734375</LatitudeDegrees>
              <LongitudeDegrees>2.5084804929792881011962890625</LongitudeDegrees>
            </Position>
            <AltitudeMeters>468.399993896484375</AltitudeMeters>
            <DistanceMeters>NAN</DistanceMeters>
          </Trackpoint>
          <Trackpoint>
            <Time>2021-04-03T11:27:00.000Z</Time>
            <Position>
              <LatitudeDegrees>42.30362481437623500823974609375</LatitudeDegrees>
              <LongitudeDegrees>2.50845509581267833709716796875</LongitudeDegrees>
            </Position>
            <AltitudeMeters>468.79998779296875</AltitudeMeters>
            <DistanceMeters>NAN</DistanceMeters>
          </Trackpoint>
          <Trackpoint>
            <Time>2021-04-03T11:27:01.000Z</Time>
            <Position>
              <LatitudeDegrees>42.30363453738391399383544921875</LatitudeDegrees>
              <LongitudeDegrees>2.50844470225274562835693359375</LongitudeDegrees>
            </Position>
            <AltitudeMeters>468.79998779296875</AltitudeMeters>
            <DistanceMeters>NAN</DistanceMeters>
          </Trackpoint>
          <Trackpoint>
            <Time>2021-04-03T11:27:02.000Z</Time>
            <Position>
              <LatitudeDegrees>42.3036396503448486328125</LatitudeDegrees>
              <LongitudeDegrees>2.50843933783471584320068359375</LongitudeDegrees>
            </Position>
            <AltitudeMeters>468.79998779296875</AltitudeMeters>
            <DistanceMeters>NAN</DistanceMeters>
          </Trackpoint>
          <Trackpoint>
            <Time>2021-04-03T11:27:05.000Z</Time>
            <Position>
              <LatitudeDegrees>42.30366119183599948883056640625</LatitudeDegrees>
              <LongitudeDegrees>2.50841938890516757965087890625</LongitudeDegrees>
            </Position>
            <AltitudeMeters>469</AltitudeMeters>
            <DistanceMeters>NAN</DistanceMeters>
          </Trackpoint>
          <Trackpoint>
            <Time>2021-04-03T11:27:09.000Z</Time>
            <Position>
              <LatitudeDegrees>42.30369086377322673797607421875</LatitudeDegrees>
              <LongitudeDegrees>2.50841771252453327178955078125</LongitudeDegrees>
            </Position>
            <AltitudeMeters>469.20001220703125</AltitudeMeters>
            <DistanceMeters>NAN</DistanceMeters>
          </Trackpoint>
          <Trackpoint>
            <Time>2021-04-03T11:27:12.000Z</Time>
            <Position>
              <LatitudeDegrees>42.30371005833148956298828125</LatitudeDegrees>
              <LongitudeDegrees>2.50839524902403354644775390625</LongitudeDegrees>
            </Position>
            <AltitudeMeters>469.399993896484375</AltitudeMeters>
            <DistanceMeters>NAN</DistanceMeters>
          </Trackpoint>
          <Trackpoint>
            <Time>2021-04-03T11:27:14.000Z</Time>
            <Position>
              <LatitudeDegrees>42.30372883379459381103515625</LatitudeDegrees>
              <LongitudeDegrees>2.5083790719509124755859375</LongitudeDegrees>
            </Position>
            <AltitudeMeters>469.399993896484375</AltitudeMeters>
            <DistanceMeters>NAN</DistanceMeters>
          </Trackpoint>
          <Trackpoint>
            <Time>2021-04-03T11:27:17.000Z</Time>
            <Position>
              <LatitudeDegrees>42.3037487827241420745849609375</LatitudeDegrees>
              <LongitudeDegrees>2.5083661638200283050537109375</LongitudeDegrees>
            </Position>
            <AltitudeMeters>469.399993896484375</AltitudeMeters>
            <DistanceMeters>NAN</DistanceMeters>
          </Trackpoint>
          <Trackpoint>
            <Time>2021-04-03T11:27:19.000Z</Time>
            <Position>
              <LatitudeDegrees>42.3037585057318210601806640625</LatitudeDegrees>
              <LongitudeDegrees>2.50835937447845935821533203125</LongitudeDegrees>
            </Position>
            <AltitudeMeters>469.600006103515625</AltitudeMeters>
            <DistanceMeters>NAN</DistanceMeters>
          </Trackpoint>
          <Trackpoint>
            <Time>2021-04-03T11:27:21.000Z</Time>
            <Position>
              <LatitudeDegrees>42.30377116240561008453369140625</LatitudeDegrees>
              <LongitudeDegrees>2.50834529288113117218017578125</LongitudeDegrees>
            </Position>
            <AltitudeMeters>469.600006103515625</AltitudeMeters>
            <DistanceMeters>NAN</DistanceMeters>
          </Trackpoint>
          <Trackpoint>
            <Time>2021-04-03T11:27:25.000Z</Time>
            <Position>
              <LatitudeDegrees>42.303792536258697509765625</LatitudeDegrees>
              <LongitudeDegrees>2.50831193290650844573974609375</LongitudeDegrees>
            </Position>
            <AltitudeMeters>469.79998779296875</AltitudeMeters>
            <DistanceMeters>NAN</DistanceMeters>
          </Trackpoint>
          <Trackpoint>
            <Time>2021-04-03T11:27:26.000Z</Time>
            <Position>
              <LatitudeDegrees>42.3037965595722198486328125</LatitudeDegrees>
              <LongitudeDegrees>2.50830455683171749114990234375</LongitudeDegrees>
            </Position>
            <AltitudeMeters>469.79998779296875</AltitudeMeters>
            <DistanceMeters>NAN</DistanceMeters>
          </Trackpoint>
          <Trackpoint>
            <Time>2021-04-03T11:27:27.000Z</Time>
            <Position>
              <LatitudeDegrees>42.3038005828857421875</LatitudeDegrees>
              <LongitudeDegrees>2.5082974322140216827392578125</LongitudeDegrees>
            </Position>
            <AltitudeMeters>469.79998779296875</AltitudeMeters>
            <DistanceMeters>NAN</DistanceMeters>
          </Trackpoint>
          <Trackpoint>
            <Time>2021-04-03T11:27:29.000Z</Time>
            <Position>
              <LatitudeDegrees>42.3038091324269771575927734375</LatitudeDegrees>
              <LongitudeDegrees>2.50827790237963199615478515625</LongitudeDegrees>
            </Position>
            <AltitudeMeters>469.79998779296875</AltitudeMeters>
            <DistanceMeters>NAN</DistanceMeters>
          </Trackpoint>
          <Trackpoint>
            <Time>2021-04-03T11:27:31.000Z</Time>
            <Position>
              <LatitudeDegrees>42.3038151673972606658935546875</LatitudeDegrees>
              <LongitudeDegrees>2.5082528404891490936279296875</LongitudeDegrees>
            </Position>
            <AltitudeMeters>469.79998779296875</AltitudeMeters>
            <DistanceMeters>NAN</DistanceMeters>
          </Trackpoint>
          <Trackpoint>
            <Time>2021-04-03T11:27:35.000Z</Time>
            <Position>
              <LatitudeDegrees>42.30382849462330341339111328125</LatitudeDegrees>
              <LongitudeDegrees>2.508215792477130889892578125</LongitudeDegrees>
            </Position>
            <AltitudeMeters>469.79998779296875</AltitudeMeters>
            <DistanceMeters>NAN</DistanceMeters>
          </Trackpoint>
          <Trackpoint>
            <Time>2021-04-03T11:27:40.000Z</Time>
            <Position>
              <LatitudeDegrees>42.3038644529879093170166015625</LatitudeDegrees>
              <LongitudeDegrees>2.50818368978798389434814453125</LongitudeDegrees>
            </Position>
            <AltitudeMeters>470</AltitudeMeters>
            <DistanceMeters>NAN</DistanceMeters>
          </Trackpoint>
          <Trackpoint>
            <Time>2021-04-03T11:27:41.000Z</Time>
            <Position>
              <LatitudeDegrees>42.3038735054433345794677734375</LatitudeDegrees>
              <LongitudeDegrees>2.5081824325025081634521484375</LongitudeDegrees>
            </Position>
            <AltitudeMeters>470</AltitudeMeters>
            <DistanceMeters>NAN</DistanceMeters>
          </Trackpoint>
          <Trackpoint>
            <Time>2021-04-03T11:27:43.000Z</Time>
            <Position>
              <LatitudeDegrees>42.30388565920293331146240234375</LatitudeDegrees>
              <LongitudeDegrees>2.508186958730220794677734375</LongitudeDegrees>
            </Position>
            <AltitudeMeters>470</AltitudeMeters>
            <DistanceMeters>NAN</DistanceMeters>
          </Trackpoint>
          <Trackpoint>
            <Time>2021-04-03T11:27:45.000Z</Time>
            <Position>
              <LatitudeDegrees>42.30390074662864208221435546875</LatitudeDegrees>
              <LongitudeDegrees>2.50820045359432697296142578125</LongitudeDegrees>
            </Position>
            <AltitudeMeters>470</AltitudeMeters>
            <DistanceMeters>NAN</DistanceMeters>
          </Trackpoint>
          <Trackpoint>
            <Time>2021-04-03T11:27:47.000Z</Time>
            <Position>
              <LatitudeDegrees>42.30391767807304859161376953125</LatitudeDegrees>
              <LongitudeDegrees>2.50821269117295742034912109375</LongitudeDegrees>
            </Position>
            <AltitudeMeters>469.79998779296875</AltitudeMeters>
            <DistanceMeters>NAN</DistanceMeters>
          </Trackpoint>
          <Trackpoint>
            <Time>2021-04-03T11:27:51.000Z</Time>
            <Position>
              <LatitudeDegrees>42.30394475162029266357421875</LatitudeDegrees>
              <LongitudeDegrees>2.50822811387479305267333984375</LongitudeDegrees>
            </Position>
            <AltitudeMeters>469.399993896484375</AltitudeMeters>
            <DistanceMeters>NAN</DistanceMeters>
          </Trackpoint>
          <Trackpoint>
            <Time>2021-04-03T11:27:52.000Z</Time>
            <Position>
              <LatitudeDegrees>42.30395372025668621063232421875</LatitudeDegrees>
              <LongitudeDegrees>2.508229874074459075927734375</LongitudeDegrees>
            </Position>
            <AltitudeMeters>469.20001220703125</AltitudeMeters>
            <DistanceMeters>NAN</DistanceMeters>
          </Trackpoint>
          <Trackpoint>
            <Time>2021-04-03T11:28:00.000Z</Time>
            <Position>
              <LatitudeDegrees>42.30401591397821903228759765625</LatitudeDegrees>
              <LongitudeDegrees>2.50819190405309200286865234375</LongitudeDegrees>
            </Position>
            <AltitudeMeters>468.600006103515625</AltitudeMeters>
            <DistanceMeters>NAN</DistanceMeters>
          </Trackpoint>
          <Trackpoint>
            <Time>2021-04-03T11:28:01.000Z</Time>
            <Position>
              <LatitudeDegrees>42.3040206916630268096923828125</LatitudeDegrees>
              <LongitudeDegrees>2.508183605968952178955078125</LongitudeDegrees>
            </Position>
            <AltitudeMeters>468.600006103515625</AltitudeMeters>
            <DistanceMeters>NAN</DistanceMeters>
          </Trackpoint>
          <Trackpoint>
            <Time>2021-04-03T11:28:02.000Z</Time>
            <Position>
              <LatitudeDegrees>42.30402815155684947967529296875</LatitudeDegrees>
              <LongitudeDegrees>2.5081777386367321014404296875</LongitudeDegrees>
            </Position>
            <AltitudeMeters>468.600006103515625</AltitudeMeters>
            <DistanceMeters>NAN</DistanceMeters>
          </Trackpoint>
          <Trackpoint>
            <Time>2021-04-03T11:28:05.000Z</Time>
            <Position>
              <LatitudeDegrees>42.30405581183731555938720703125</LatitudeDegrees>
              <LongitudeDegrees>2.508160136640071868896484375</LongitudeDegrees>
            </Position>
            <AltitudeMeters>468.600006103515625</AltitudeMeters>
            <DistanceMeters>NAN</DistanceMeters>
          </Trackpoint>
          <Trackpoint>
            <Time>2021-04-03T11:28:08.000Z</Time>
            <Position>
              <LatitudeDegrees>42.30407483875751495361328125</LatitudeDegrees>
              <LongitudeDegrees>2.50814496539533138275146484375</LongitudeDegrees>
            </Position>
            <AltitudeMeters>468.399993896484375</AltitudeMeters>
            <DistanceMeters>NAN</DistanceMeters>
          </Trackpoint>
          <Trackpoint>
            <Time>2021-04-03T11:28:09.000Z</Time>
            <Position>
              <LatitudeDegrees>42.30408154428005218505859375</LatitudeDegrees>
              <LongitudeDegrees>2.508136667311191558837890625</LongitudeDegrees>
            </Position>
            <AltitudeMeters>468.399993896484375</AltitudeMeters>
            <DistanceMeters>NAN</DistanceMeters>
          </Trackpoint>
          <Trackpoint>
            <Time>2021-04-03T11:28:14.000Z</Time>
            <Position>
              <LatitudeDegrees>42.3041001521050930023193359375</LatitudeDegrees>
              <LongitudeDegrees>2.50810406170785427093505859375</LongitudeDegrees>
            </Position>
            <AltitudeMeters>467.79998779296875</AltitudeMeters>
            <DistanceMeters>NAN</DistanceMeters>
          </Trackpoint>
          <Trackpoint>
            <Time>2021-04-03T11:28:15.000Z</Time>
            <Position>
              <LatitudeDegrees>42.30409973300993442535400390625</LatitudeDegrees>
              <LongitudeDegrees>2.50809945166110992431640625</LongitudeDegrees>
            </Position>
            <AltitudeMeters>467.600006103515625</AltitudeMeters>
            <DistanceMeters>NAN</DistanceMeters>
          </Trackpoint>
          <Trackpoint>
            <Time>2021-04-03T11:28:16.000Z</Time>
            <Position>
              <LatitudeDegrees>42.30410442687571048736572265625</LatitudeDegrees>
              <LongitudeDegrees>2.5080949254333972930908203125</LongitudeDegrees>
            </Position>
            <AltitudeMeters>467.20001220703125</AltitudeMeters>
            <DistanceMeters>NAN</DistanceMeters>
          </Trackpoint>
          <Trackpoint>
            <Time>2021-04-03T11:28:19.000Z</Time>
            <Position>
              <LatitudeDegrees>42.30413191951811313629150390625</LatitudeDegrees>
              <LongitudeDegrees>2.5080878846347332000732421875</LongitudeDegrees>
            </Position>
            <AltitudeMeters>466.79998779296875</AltitudeMeters>
            <DistanceMeters>NAN</DistanceMeters>
          </Trackpoint>
          <Trackpoint>
            <Time>2021-04-03T11:28:20.000Z</Time>
            <Position>
              <LatitudeDegrees>42.30414055287837982177734375</LatitudeDegrees>
              <LongitudeDegrees>2.5080872140824794769287109375</LongitudeDegrees>
            </Position>
            <AltitudeMeters>466.399993896484375</AltitudeMeters>
            <DistanceMeters>NAN</DistanceMeters>
          </Trackpoint>
          <Trackpoint>
            <Time>2021-04-03T11:28:21.000Z</Time>
            <Position>
              <LatitudeDegrees>42.3041460849344730377197265625</LatitudeDegrees>
              <LongitudeDegrees>2.50808562152087688446044921875</LongitudeDegrees>
            </Position>
            <AltitudeMeters>466.20001220703125</AltitudeMeters>
            <DistanceMeters>NAN</DistanceMeters>
          </Trackpoint>
          <Trackpoint>
            <Time>2021-04-03T11:28:24.000Z</Time>
            <Position>
              <LatitudeDegrees>42.304167039692401885986328125</LatitudeDegrees>
              <LongitudeDegrees>2.5080764852464199066162109375</LongitudeDegrees>
            </Position>
            <AltitudeMeters>465.399993896484375</AltitudeMeters>
            <DistanceMeters>NAN</DistanceMeters>
          </Trackpoint>
          <Trackpoint>
            <Time>2021-04-03T11:28:25.000Z</Time>
            <Position>
              <LatitudeDegrees>42.3041735775768756866455078125</LatitudeDegrees>
              <LongitudeDegrees>2.508075647056102752685546875</LongitudeDegrees>
            </Position>
            <AltitudeMeters>465.20001220703125</AltitudeMeters>
            <DistanceMeters>NAN</DistanceMeters>
          </Trackpoint>
          <Trackpoint>
            <Time>2021-04-03T11:28:27.000Z</Time>
            <Position>
              <LatitudeDegrees>42.30419143103063106536865234375</LatitudeDegrees>
              <LongitudeDegrees>2.50807128846645355224609375</LongitudeDegrees>
            </Position>
            <AltitudeMeters>465</AltitudeMeters>
            <DistanceMeters>NAN</DistanceMeters>
          </Trackpoint>
          <Trackpoint>
            <Time>2021-04-03T11:28:28.000Z</Time>
            <Position>
              <LatitudeDegrees>42.30419528670608997344970703125</LatitudeDegrees>
              <LongitudeDegrees>2.50807053409516811370849609375</LongitudeDegrees>
            </Position>
            <AltitudeMeters>464.79998779296875</AltitudeMeters>
            <DistanceMeters>NAN</DistanceMeters>
          </Trackpoint>
          <Trackpoint>
            <Time>2021-04-03T11:28:29.000Z</Time>
            <Position>
              <LatitudeDegrees>42.3041977174580097198486328125</LatitudeDegrees>
              <LongitudeDegrees>2.50806902535259723663330078125</LongitudeDegrees>
            </Position>
            <AltitudeMeters>464.79998779296875</AltitudeMeters>
            <DistanceMeters>NAN</DistanceMeters>
          </Trackpoint>
          <Trackpoint>
            <Time>2021-04-03T11:28:31.000Z</Time>
            <Position>
              <LatitudeDegrees>42.3042123019695281982421875</LatitudeDegrees>
              <LongitudeDegrees>2.50806030817329883575439453125</LongitudeDegrees>
            </Position>
            <AltitudeMeters>464.600006103515625</AltitudeMeters>
            <DistanceMeters>NAN</DistanceMeters>
          </Trackpoint>
          <Trackpoint>
            <Time>2021-04-03T11:28:33.000Z</Time>
            <Position>
              <LatitudeDegrees>42.30421967804431915283203125</LatitudeDegrees>
              <LongitudeDegrees>2.50805058516561985015869140625</LongitudeDegrees>
            </Position>
            <AltitudeMeters>464.600006103515625</AltitudeMeters>
            <DistanceMeters>NAN</DistanceMeters>
          </Trackpoint>
          <Trackpoint>
            <Time>2021-04-03T11:28:35.000Z</Time>
            <Position>
              <LatitudeDegrees>42.30422210879623889923095703125</LatitudeDegrees>
              <LongitudeDegrees>2.5080362521111965179443359375</LongitudeDegrees>
            </Position>
            <AltitudeMeters>464.399993896484375</AltitudeMeters>
            <DistanceMeters>NAN</DistanceMeters>
          </Trackpoint>
          <Trackpoint>
            <Time>2021-04-03T11:28:37.000Z</Time>
            <Position>
              <LatitudeDegrees>42.30422730557620525360107421875</LatitudeDegrees>
              <LongitudeDegrees>2.508044801652431488037109375</LongitudeDegrees>
            </Position>
            <AltitudeMeters>464.20001220703125</AltitudeMeters>
            <DistanceMeters>NAN</DistanceMeters>
          </Trackpoint>
          <Trackpoint>
            <Time>2021-04-03T11:28:39.000Z</Time>
            <Position>
              <LatitudeDegrees>42.30423635803163051605224609375</LatitudeDegrees>
              <LongitudeDegrees>2.50806701369583606719970703125</LongitudeDegrees>
            </Position>
            <AltitudeMeters>463.600006103515625</AltitudeMeters>
            <DistanceMeters>NAN</DistanceMeters>
          </Trackpoint>
          <Trackpoint>
            <Time>2021-04-03T11:28:42.000Z</Time>
            <Position>
              <LatitudeDegrees>42.30426368303596973419189453125</LatitudeDegrees>
              <LongitudeDegrees>2.5080969370901584625244140625</LongitudeDegrees>
            </Position>
            <AltitudeMeters>462.79998779296875</AltitudeMeters>
            <DistanceMeters>NAN</DistanceMeters>
          </Trackpoint>
          <Trackpoint>
            <Time>2021-04-03T11:28:45.000Z</Time>
            <Position>
              <LatitudeDegrees>42.3042788542807102203369140625</LatitudeDegrees>
              <LongitudeDegrees>2.5080895610153675079345703125</LongitudeDegrees>
            </Position>
            <AltitudeMeters>462.20001220703125</AltitudeMeters>
            <DistanceMeters>NAN</DistanceMeters>
          </Trackpoint>
          <Trackpoint>
            <Time>2021-04-03T11:28:46.000Z</Time>
            <Position>
              <LatitudeDegrees>42.30428178794682025909423828125</LatitudeDegrees>
              <LongitudeDegrees>2.5080892257392406463623046875</LongitudeDegrees>
            </Position>
            <AltitudeMeters>461.79998779296875</AltitudeMeters>
            <DistanceMeters>NAN</DistanceMeters>
          </Trackpoint>
          <Trackpoint>
            <Time>2021-04-03T11:28:52.000Z</Time>
            <Position>
              <LatitudeDegrees>42.3043187521398067474365234375</LatitudeDegrees>
              <LongitudeDegrees>2.50808796845376491546630859375</LongitudeDegrees>
            </Position>
            <AltitudeMeters>460.79998779296875</AltitudeMeters>
            <DistanceMeters>NAN</DistanceMeters>
          </Trackpoint>
          <Trackpoint>
            <Time>2021-04-03T11:28:57.000Z</Time>
            <Position>
              <LatitudeDegrees>42.3043866455554962158203125</LatitudeDegrees>
              <LongitudeDegrees>2.508083023130893707275390625</LongitudeDegrees>
            </Position>
            <AltitudeMeters>459.600006103515625</AltitudeMeters>
            <DistanceMeters>NAN</DistanceMeters>
          </Trackpoint>
          <Trackpoint>
            <Time>2021-04-03T11:28:59.000Z</Time>
            <Position>
              <LatitudeDegrees>42.30440751649439334869384765625</LatitudeDegrees>
              <LongitudeDegrees>2.5080738030374050140380859375</LongitudeDegrees>
            </Position>
            <AltitudeMeters>459.20001220703125</AltitudeMeters>
            <DistanceMeters>NAN</DistanceMeters>
          </Trackpoint>
          <Trackpoint>
            <Time>2021-04-03T11:29:03.000Z</Time>
            <Position>
              <LatitudeDegrees>42.30442914180457592010498046875</LatitudeDegrees>
              <LongitudeDegrees>2.50809132121503353118896484375</LongitudeDegrees>
            </Position>
            <AltitudeMeters>458.399993896484375</AltitudeMeters>
            <DistanceMeters>NAN</DistanceMeters>
          </Trackpoint>
          <Trackpoint>
            <Time>2021-04-03T11:29:06.000Z</Time>
            <Position>
              <LatitudeDegrees>42.3044491745531558990478515625</LatitudeDegrees>
              <LongitudeDegrees>2.5080947577953338623046875</LongitudeDegrees>
            </Position>
            <AltitudeMeters>457.600006103515625</AltitudeMeters>
            <DistanceMeters>NAN</DistanceMeters>
          </Trackpoint>
          <Trackpoint>
            <Time>2021-04-03T11:29:09.000Z</Time>
            <Position>
              <LatitudeDegrees>42.3044867254793643951416015625</LatitudeDegrees>
              <LongitudeDegrees>2.508100457489490509033203125</LongitudeDegrees>
            </Position>
            <AltitudeMeters>457.20001220703125</AltitudeMeters>
            <DistanceMeters>NAN</DistanceMeters>
          </Trackpoint>
          <Trackpoint>
            <Time>2021-04-03T11:29:14.000Z</Time>
            <Position>
              <LatitudeDegrees>42.3045282997190952301025390625</LatitudeDegrees>
              <LongitudeDegrees>2.508127950131893157958984375</LongitudeDegrees>
            </Position>
            <AltitudeMeters>456.399993896484375</AltitudeMeters>
            <DistanceMeters>NAN</DistanceMeters>
          </Trackpoint>
          <Trackpoint>
            <Time>2021-04-03T11:29:17.000Z</Time>
            <Position>
              <LatitudeDegrees>42.30455755256116390228271484375</LatitudeDegrees>
              <LongitudeDegrees>2.508142031729221343994140625</LongitudeDegrees>
            </Position>
            <AltitudeMeters>456.20001220703125</AltitudeMeters>
            <DistanceMeters>NAN</DistanceMeters>
          </Trackpoint>
          <Trackpoint>
            <Time>2021-04-03T11:29:21.000Z</Time>
            <Position>
              <LatitudeDegrees>42.3045819438993930816650390625</LatitudeDegrees>
              <LongitudeDegrees>2.50817857682704925537109375</LongitudeDegrees>
            </Position>
            <AltitudeMeters>456</AltitudeMeters>
            <DistanceMeters>NAN</DistanceMeters>
          </Trackpoint>
          <Trackpoint>
            <Time>2021-04-03T11:29:23.000Z</Time>
            <Position>
              <LatitudeDegrees>42.30458906851708889007568359375</LatitudeDegrees>
              <LongitudeDegrees>2.50818620435893535614013671875</LongitudeDegrees>
            </Position>
            <AltitudeMeters>456</AltitudeMeters>
            <DistanceMeters>NAN</DistanceMeters>
          </Trackpoint>
          <Trackpoint>
            <Time>2021-04-03T11:29:31.000Z</Time>
            <Position>
              <LatitudeDegrees>42.30463164858520030975341796875</LatitudeDegrees>
              <LongitudeDegrees>2.50822274945676326751708984375</LongitudeDegrees>
            </Position>
            <AltitudeMeters>455.600006103515625</AltitudeMeters>
            <DistanceMeters>NAN</DistanceMeters>
          </Trackpoint>
          <Trackpoint>
            <Time>2021-04-03T11:29:36.000Z</Time>
            <Position>
              <LatitudeDegrees>42.30465327389538288116455078125</LatitudeDegrees>
              <LongitudeDegrees>2.50826315023005008697509765625</LongitudeDegrees>
            </Position>
            <AltitudeMeters>455</AltitudeMeters>
            <DistanceMeters>NAN</DistanceMeters>
          </Trackpoint>
          <Trackpoint>
            <Time>2021-04-03T11:29:39.000Z</Time>
            <Position>
              <LatitudeDegrees>42.30467339046299457550048828125</LatitudeDegrees>
              <LongitudeDegrees>2.50829097814857959747314453125</LongitudeDegrees>
            </Position>
            <AltitudeMeters>454.20001220703125</AltitudeMeters>
            <DistanceMeters>NAN</DistanceMeters>
          </Trackpoint>
          <Trackpoint>
            <Time>2021-04-03T11:29:40.000Z</Time>
            <Position>
              <LatitudeDegrees>42.304677329957485198974609375</LatitudeDegrees>
              <LongitudeDegrees>2.50829257071018218994140625</LongitudeDegrees>
            </Position>
            <AltitudeMeters>454</AltitudeMeters>
            <DistanceMeters>NAN</DistanceMeters>
          </Trackpoint>
          <Trackpoint>
            <Time>2021-04-03T11:29:46.000Z</Time>
            <Position>
              <LatitudeDegrees>42.3047204129397869110107421875</LatitudeDegrees>
              <LongitudeDegrees>2.5082870386540889739990234375</LongitudeDegrees>
            </Position>
            <AltitudeMeters>453.600006103515625</AltitudeMeters>
            <DistanceMeters>NAN</DistanceMeters>
          </Trackpoint>
          <Trackpoint>
            <Time>2021-04-03T11:29:54.000Z</Time>
            <Position>
              <LatitudeDegrees>42.30474111624062061309814453125</LatitudeDegrees>
              <LongitudeDegrees>2.5082769803702831268310546875</LongitudeDegrees>
            </Position>
            <AltitudeMeters>454.399993896484375</AltitudeMeters>
            <DistanceMeters>NAN</DistanceMeters>
          </Trackpoint>
          <Trackpoint>
            <Time>2021-04-03T11:30:01.000Z</Time>
            <Position>
              <LatitudeDegrees>42.3047740571200847625732421875</LatitudeDegrees>
              <LongitudeDegrees>2.50828024931252002716064453125</LongitudeDegrees>
            </Position>
            <AltitudeMeters>455</AltitudeMeters>
            <DistanceMeters>NAN</DistanceMeters>
          </Trackpoint>
          <Trackpoint>
            <Time>2021-04-03T11:30:02.000Z</Time>
            <Position>
              <LatitudeDegrees>42.30477816425263881683349609375</LatitudeDegrees>
              <LongitudeDegrees>2.50828561373054981231689453125</LongitudeDegrees>
            </Position>
            <AltitudeMeters>455.20001220703125</AltitudeMeters>
            <DistanceMeters>NAN</DistanceMeters>
          </Trackpoint>
          <Trackpoint>
            <Time>2021-04-03T11:30:06.000Z</Time>
            <Position>
              <LatitudeDegrees>42.30481722392141819000244140625</LatitudeDegrees>
              <LongitudeDegrees>2.5083192251622676849365234375</LongitudeDegrees>
            </Position>
            <AltitudeMeters>455.399993896484375</AltitudeMeters>
            <DistanceMeters>NAN</DistanceMeters>
          </Trackpoint>
          <Trackpoint>
            <Time>2021-04-03T11:30:07.000Z</Time>
            <Position>
              <LatitudeDegrees>42.3048243485391139984130859375</LatitudeDegrees>
              <LongitudeDegrees>2.50832551158964633941650390625</LongitudeDegrees>
            </Position>
            <AltitudeMeters>455.20001220703125</AltitudeMeters>
            <DistanceMeters>NAN</DistanceMeters>
          </Trackpoint>
          <Trackpoint>
            <Time>2021-04-03T11:30:10.000Z</Time>
            <Position>
              <LatitudeDegrees>42.30484438128769397735595703125</LatitudeDegrees>
              <LongitudeDegrees>2.508349232375621795654296875</LongitudeDegrees>
            </Position>
            <AltitudeMeters>455</AltitudeMeters>
            <DistanceMeters>NAN</DistanceMeters>
          </Trackpoint>
          <Trackpoint>
            <Time>2021-04-03T11:30:16.000Z</Time>
            <Position>
              <LatitudeDegrees>42.30489266104996204376220703125</LatitudeDegrees>
              <LongitudeDegrees>2.50841687433421611785888671875</LongitudeDegrees>
            </Position>
            <AltitudeMeters>455</AltitudeMeters>
            <DistanceMeters>NAN</DistanceMeters>
          </Trackpoint>
          <Trackpoint>
            <Time>2021-04-03T11:30:17.000Z</Time>
            <Position>
              <LatitudeDegrees>42.3048957623541355133056640625</LatitudeDegrees>
              <LongitudeDegrees>2.50842207111418247222900390625</LongitudeDegrees>
            </Position>
            <AltitudeMeters>455</AltitudeMeters>
            <DistanceMeters>NAN</DistanceMeters>
          </Trackpoint>
          <Trackpoint>
            <Time>2021-04-03T11:30:24.000Z</Time>
            <Position>
              <LatitudeDegrees>42.30493959970772266387939453125</LatitudeDegrees>
              <LongitudeDegrees>2.50846934504806995391845703125</LongitudeDegrees>
            </Position>
            <AltitudeMeters>455.20001220703125</AltitudeMeters>
            <DistanceMeters>NAN</DistanceMeters>
          </Trackpoint>
          <Trackpoint>
            <Time>2021-04-03T11:30:31.000Z</Time>
            <Position>
              <LatitudeDegrees>42.3049195669591426849365234375</LatitudeDegrees>
              <LongitudeDegrees>2.508549056947231292724609375</LongitudeDegrees>
            </Position>
            <AltitudeMeters>455</AltitudeMeters>
            <DistanceMeters>NAN</DistanceMeters>
          </Trackpoint>
          <Trackpoint>
            <Time>2021-04-03T11:30:34.000Z</Time>
            <Position>
              <LatitudeDegrees>42.30491361580789089202880859375</LatitudeDegrees>
              <LongitudeDegrees>2.50855618156492710113525390625</LongitudeDegrees>
            </Position>
            <AltitudeMeters>454.79998779296875</AltitudeMeters>
            <DistanceMeters>NAN</DistanceMeters>
          </Trackpoint>
          <Trackpoint>
            <Time>2021-04-03T11:30:37.000Z</Time>
            <Position>
              <LatitudeDegrees>42.30491395108401775360107421875</LatitudeDegrees>
              <LongitudeDegrees>2.5085587799549102783203125</LongitudeDegrees>
            </Position>
            <AltitudeMeters>454.600006103515625</AltitudeMeters>
            <DistanceMeters>NAN</DistanceMeters>
          </Trackpoint>
          <Trackpoint>
            <Time>2021-04-03T11:30:44.000Z</Time>
            <Position>
              <LatitudeDegrees>42.30487975291907787322998046875</LatitudeDegrees>
              <LongitudeDegrees>2.50859700143337249755859375</LongitudeDegrees>
            </Position>
            <AltitudeMeters>454.79998779296875</AltitudeMeters>
            <DistanceMeters>NAN</DistanceMeters>
          </Trackpoint>
          <Trackpoint>
            <Time>2021-04-03T11:30:52.000Z</Time>
            <Position>
              <LatitudeDegrees>42.30479224584996700286865234375</LatitudeDegrees>
              <LongitudeDegrees>2.508674450218677520751953125</LongitudeDegrees>
            </Position>
            <AltitudeMeters>454</AltitudeMeters>
            <DistanceMeters>NAN</DistanceMeters>
          </Trackpoint>
          <Trackpoint>
            <Time>2021-04-03T11:30:53.000Z</Time>
            <Position>
              <LatitudeDegrees>42.30477883480489253997802734375</LatitudeDegrees>
              <LongitudeDegrees>2.50868475995957851409912109375</LongitudeDegrees>
            </Position>
            <AltitudeMeters>454</AltitudeMeters>
            <DistanceMeters>NAN</DistanceMeters>
          </Trackpoint>
          <Trackpoint>
            <Time>2021-04-03T11:31:00.000Z</Time>
            <Position>
              <LatitudeDegrees>42.3047163896262645721435546875</LatitudeDegrees>
              <LongitudeDegrees>2.50876556150615215301513671875</LongitudeDegrees>
            </Position>
            <AltitudeMeters>452.79998779296875</AltitudeMeters>
            <DistanceMeters>NAN</DistanceMeters>
          </Trackpoint>
          <Trackpoint>
            <Time>2021-04-03T11:31:04.000Z</Time>
            <Position>
              <LatitudeDegrees>42.3047006316483020782470703125</LatitudeDegrees>
              <LongitudeDegrees>2.5088087283074855804443359375</LongitudeDegrees>
            </Position>
            <AltitudeMeters>452.600006103515625</AltitudeMeters>
            <DistanceMeters>NAN</DistanceMeters>
          </Trackpoint>
          <Trackpoint>
            <Time>2021-04-03T11:31:09.000Z</Time>
            <Position>
              <LatitudeDegrees>42.30470113456249237060546875</LatitudeDegrees>
              <LongitudeDegrees>2.5088806450366973876953125</LongitudeDegrees>
            </Position>
            <AltitudeMeters>452.399993896484375</AltitudeMeters>
            <DistanceMeters>NAN</DistanceMeters>
          </Trackpoint>
          <Trackpoint>
            <Time>2021-04-03T11:31:11.000Z</Time>
            <Position>
              <LatitudeDegrees>42.30470574460923671722412109375</LatitudeDegrees>
              <LongitudeDegrees>2.50890738330781459808349609375</LongitudeDegrees>
            </Position>
            <AltitudeMeters>452.20001220703125</AltitudeMeters>
            <DistanceMeters>NAN</DistanceMeters>
          </Trackpoint>
          <Trackpoint>
            <Time>2021-04-03T11:31:16.000Z</Time>
            <Position>
              <LatitudeDegrees>42.304732985794544219970703125</LatitudeDegrees>
              <LongitudeDegrees>2.50897385179996490478515625</LongitudeDegrees>
            </Position>
            <AltitudeMeters>452</AltitudeMeters>
            <DistanceMeters>NAN</DistanceMeters>
          </Trackpoint>
          <Trackpoint>
            <Time>2021-04-03T11:31:19.000Z</Time>
            <Position>
              <LatitudeDegrees>42.304752431809902191162109375</LatitudeDegrees>
              <LongitudeDegrees>2.50900226645171642303466796875</LongitudeDegrees>
            </Position>
            <AltitudeMeters>451.79998779296875</AltitudeMeters>
            <DistanceMeters>NAN</DistanceMeters>
          </Trackpoint>
          <Trackpoint>
            <Time>2021-04-03T11:31:21.000Z</Time>
            <Position>
              <LatitudeDegrees>42.3047675192356109619140625</LatitudeDegrees>
              <LongitudeDegrees>2.509021796286106109619140625</LongitudeDegrees>
            </Position>
            <AltitudeMeters>451.79998779296875</AltitudeMeters>
            <DistanceMeters>NAN</DistanceMeters>
          </Trackpoint>
          <Trackpoint>
            <Time>2021-04-03T11:31:22.000Z</Time>
            <Position>
              <LatitudeDegrees>42.304773889482021331787109375</LatitudeDegrees>
              <LongitudeDegrees>2.50903009437024593353271484375</LongitudeDegrees>
            </Position>
            <AltitudeMeters>451.79998779296875</AltitudeMeters>
            <DistanceMeters>NAN</DistanceMeters>
          </Trackpoint>
          <Trackpoint>
            <Time>2021-04-03T11:31:26.000Z</Time>
            <Position>
              <LatitudeDegrees>42.30480649508535861968994140625</LatitudeDegrees>
              <LongitudeDegrees>2.5090548209846019744873046875</LongitudeDegrees>
            </Position>
            <AltitudeMeters>451.79998779296875</AltitudeMeters>
            <DistanceMeters>NAN</DistanceMeters>
          </Trackpoint>
          <Trackpoint>
            <Time>2021-04-03T11:31:27.000Z</Time>
            <Position>
              <LatitudeDegrees>42.30481303296983242034912109375</LatitudeDegrees>
              <LongitudeDegrees>2.50906161032617092132568359375</LongitudeDegrees>
            </Position>
            <AltitudeMeters>451.79998779296875</AltitudeMeters>
            <DistanceMeters>NAN</DistanceMeters>
          </Trackpoint>
          <Trackpoint>
            <Time>2021-04-03T11:31:29.000Z</Time>
            <Position>
              <LatitudeDegrees>42.30481588281691074371337890625</LatitudeDegrees>
              <LongitudeDegrees>2.50907552428543567657470703125</LongitudeDegrees>
            </Position>
            <AltitudeMeters>451.79998779296875</AltitudeMeters>
            <DistanceMeters>NAN</DistanceMeters>
          </Trackpoint>
          <Trackpoint>
            <Time>2021-04-03T11:31:31.000Z</Time>
            <Position>
              <LatitudeDegrees>42.304827533662319183349609375</LatitudeDegrees>
              <LongitudeDegrees>2.5090937130153179168701171875</LongitudeDegrees>
            </Position>
            <AltitudeMeters>451.79998779296875</AltitudeMeters>
            <DistanceMeters>NAN</DistanceMeters>
          </Trackpoint>
          <Trackpoint>
            <Time>2021-04-03T11:31:32.000Z</Time>
            <Position>
              <LatitudeDegrees>42.30483214370906352996826171875</LatitudeDegrees>
              <LongitudeDegrees>2.5091007538139820098876953125</LongitudeDegrees>
            </Position>
            <AltitudeMeters>451.79998779296875</AltitudeMeters>
            <DistanceMeters>NAN</DistanceMeters>
          </Trackpoint>
          <Trackpoint>
            <Time>2021-04-03T11:31:34.000Z</Time>
            <Position>
              <LatitudeDegrees>42.3048380948603153228759765625</LatitudeDegrees>
              <LongitudeDegrees>2.50910737551748752593994140625</LongitudeDegrees>
            </Position>
            <AltitudeMeters>451.79998779296875</AltitudeMeters>
            <DistanceMeters>NAN</DistanceMeters>
          </Trackpoint>
          <Trackpoint>
            <Time>2021-04-03T11:31:35.000Z</Time>
            <Position>
              <LatitudeDegrees>42.3048426210880279541015625</LatitudeDegrees>
              <LongitudeDegrees>2.5091114826500415802001953125</LongitudeDegrees>
            </Position>
            <AltitudeMeters>451.79998779296875</AltitudeMeters>
            <DistanceMeters>NAN</DistanceMeters>
          </Trackpoint>
          <Trackpoint>
            <Time>2021-04-03T11:31:40.000Z</Time>
            <Position>
              <LatitudeDegrees>42.30485427193343639373779296875</LatitudeDegrees>
              <LongitudeDegrees>2.5091557390987873077392578125</LongitudeDegrees>
            </Position>
            <AltitudeMeters>451.79998779296875</AltitudeMeters>
            <DistanceMeters>NAN</DistanceMeters>
          </Trackpoint>
          <Trackpoint>
            <Time>2021-04-03T11:31:41.000Z</Time>
            <Position>
              <LatitudeDegrees>42.30485678650438785552978515625</LatitudeDegrees>
              <LongitudeDegrees>2.5091507099568843841552734375</LongitudeDegrees>
            </Position>
            <AltitudeMeters>451.79998779296875</AltitudeMeters>
            <DistanceMeters>NAN</DistanceMeters>
          </Trackpoint>
          <Trackpoint>
            <Time>2021-04-03T11:31:43.000Z</Time>
            <Position>
              <LatitudeDegrees>42.30487187393009662628173828125</LatitudeDegrees>
              <LongitudeDegrees>2.50913017429411411285400390625</LongitudeDegrees>
            </Position>
            <AltitudeMeters>451.79998779296875</AltitudeMeters>
            <DistanceMeters>NAN</DistanceMeters>
          </Trackpoint>
          <Trackpoint>
            <Time>2021-04-03T11:31:46.000Z</Time>
            <Position>
              <LatitudeDegrees>42.30487572960555553436279296875</LatitudeDegrees>
              <LongitudeDegrees>2.5091349519789218902587890625</LongitudeDegrees>
            </Position>
            <AltitudeMeters>451.399993896484375</AltitudeMeters>
            <DistanceMeters>NAN</DistanceMeters>
          </Trackpoint>
          <Trackpoint>
            <Time>2021-04-03T11:31:49.000Z</Time>
            <Position>
              <LatitudeDegrees>42.30488754808902740478515625</LatitudeDegrees>
              <LongitudeDegrees>2.509145177900791168212890625</LongitudeDegrees>
            </Position>
            <AltitudeMeters>451.399993896484375</AltitudeMeters>
            <DistanceMeters>NAN</DistanceMeters>
          </Trackpoint>
          <Trackpoint>
            <Time>2021-04-03T11:31:50.000Z</Time>
            <Position>
              <LatitudeDegrees>42.3048826865851879119873046875</LatitudeDegrees>
              <LongitudeDegrees>2.50915800221264362335205078125</LongitudeDegrees>
            </Position>
            <AltitudeMeters>451.399993896484375</AltitudeMeters>
            <DistanceMeters>NAN</DistanceMeters>
          </Trackpoint>
          <Trackpoint>
            <Time>2021-04-03T11:31:56.000Z</Time>
            <Position>
              <LatitudeDegrees>42.304853014647960662841796875</LatitudeDegrees>
              <LongitudeDegrees>2.5091756880283355712890625</LongitudeDegrees>
            </Position>
            <AltitudeMeters>451.399993896484375</AltitudeMeters>
            <DistanceMeters>NAN</DistanceMeters>
          </Trackpoint>
          <Trackpoint>
            <Time>2021-04-03T11:31:58.000Z</Time>
            <Position>
              <LatitudeDegrees>42.30485058389604091644287109375</LatitudeDegrees>
              <LongitudeDegrees>2.509177029132843017578125</LongitudeDegrees>
            </Position>
            <AltitudeMeters>451.399993896484375</AltitudeMeters>
            <DistanceMeters>NAN</DistanceMeters>
          </Trackpoint>
          <Trackpoint>
            <Time>2021-04-03T12:38:05.000Z</Time>
            <Position>
              <LatitudeDegrees>42.3046399466693401336669921875</LatitudeDegrees>
              <LongitudeDegrees>2.5089072994887828826904296875</LongitudeDegrees>
            </Position>
            <AltitudeMeters>451.600006103515625</AltitudeMeters>
            <DistanceMeters>NAN</DistanceMeters>
          </Trackpoint>
          <Trackpoint>
            <Time>2021-04-03T12:38:06.000Z</Time>
            <Position>
              <LatitudeDegrees>42.30464187450706958770751953125</LatitudeDegrees>
              <LongitudeDegrees>2.50890604220330715179443359375</LongitudeDegrees>
            </Position>
            <AltitudeMeters>451.600006103515625</AltitudeMeters>
            <DistanceMeters>NAN</DistanceMeters>
          </Trackpoint>
          <Trackpoint>
            <Time>2021-04-03T12:38:11.000Z</Time>
            <Position>
              <LatitudeDegrees>42.30465662665665149688720703125</LatitudeDegrees>
              <LongitudeDegrees>2.50889514572918415069580078125</LongitudeDegrees>
            </Position>
            <AltitudeMeters>451.600006103515625</AltitudeMeters>
            <DistanceMeters>NAN</DistanceMeters>
          </Trackpoint>
          <Trackpoint>
            <Time>2021-04-03T12:38:23.000Z</Time>
            <Position>
              <LatitudeDegrees>42.30467489920556545257568359375</LatitudeDegrees>
              <LongitudeDegrees>2.5088674016296863555908203125</LongitudeDegrees>
            </Position>
            <AltitudeMeters>451.600006103515625</AltitudeMeters>
            <DistanceMeters>NAN</DistanceMeters>
          </Trackpoint>
          <Trackpoint>
            <Time>2021-04-03T12:38:32.000Z</Time>
            <Position>
              <LatitudeDegrees>42.304676659405231475830078125</LatitudeDegrees>
              <LongitudeDegrees>2.508872263133525848388671875</LongitudeDegrees>
            </Position>
            <AltitudeMeters>451.600006103515625</AltitudeMeters>
            <DistanceMeters>NAN</DistanceMeters>
          </Trackpoint>
          <Trackpoint>
            <Time>2021-04-03T12:38:42.000Z</Time>
            <Position>
              <LatitudeDegrees>42.3047140426933765411376953125</LatitudeDegrees>
              <LongitudeDegrees>2.50881015323102474212646484375</LongitudeDegrees>
            </Position>
            <AltitudeMeters>452.20001220703125</AltitudeMeters>
            <DistanceMeters>NAN</DistanceMeters>
          </Trackpoint>
          <Trackpoint>
            <Time>2021-04-03T12:38:51.000Z</Time>
            <Position>
              <LatitudeDegrees>42.304766513407230377197265625</LatitudeDegrees>
              <LongitudeDegrees>2.50867269001901149749755859375</LongitudeDegrees>
            </Position>
            <AltitudeMeters>452.600006103515625</AltitudeMeters>
            <DistanceMeters>NAN</DistanceMeters>
          </Trackpoint>
          <Trackpoint>
            <Time>2021-04-03T12:38:55.000Z</Time>
            <Position>
              <LatitudeDegrees>42.304796688258647918701171875</LatitudeDegrees>
              <LongitudeDegrees>2.50862189568579196929931640625</LongitudeDegrees>
            </Position>
            <AltitudeMeters>453</AltitudeMeters>
            <DistanceMeters>NAN</DistanceMeters>
          </Trackpoint>
          <Trackpoint>
            <Time>2021-04-03T12:39:00.000Z</Time>
            <Position>
              <LatitudeDegrees>42.30481387116014957427978515625</LatitudeDegrees>
              <LongitudeDegrees>2.50852969475090503692626953125</LongitudeDegrees>
            </Position>
            <AltitudeMeters>453.399993896484375</AltitudeMeters>
            <DistanceMeters>NAN</DistanceMeters>
          </Trackpoint>
          <Trackpoint>
            <Time>2021-04-03T12:39:01.000Z</Time>
            <Position>
              <LatitudeDegrees>42.3048169724643230438232421875</LatitudeDegrees>
              <LongitudeDegrees>2.50851594842970371246337890625</LongitudeDegrees>
            </Position>
            <AltitudeMeters>453.399993896484375</AltitudeMeters>
            <DistanceMeters>NAN</DistanceMeters>
          </Trackpoint>
          <Trackpoint>
            <Time>2021-04-03T12:39:09.000Z</Time>
            <Position>
              <LatitudeDegrees>42.3048592172563076019287109375</LatitudeDegrees>
              <LongitudeDegrees>2.5084434449672698974609375</LongitudeDegrees>
            </Position>
            <AltitudeMeters>453.79998779296875</AltitudeMeters>
            <DistanceMeters>NAN</DistanceMeters>
          </Trackpoint>
          <Trackpoint>
            <Time>2021-04-03T12:39:10.000Z</Time>
            <Position>
              <LatitudeDegrees>42.30486080981791019439697265625</LatitudeDegrees>
              <LongitudeDegrees>2.508449144661426544189453125</LongitudeDegrees>
            </Position>
            <AltitudeMeters>454</AltitudeMeters>
            <DistanceMeters>NAN</DistanceMeters>
          </Trackpoint>
          <Trackpoint>
            <Time>2021-04-03T12:39:11.000Z</Time>
            <Position>
              <LatitudeDegrees>42.304859720170497894287109375</LatitudeDegrees>
              <LongitudeDegrees>2.50846020877361297607421875</LongitudeDegrees>
            </Position>
            <AltitudeMeters>454</AltitudeMeters>
            <DistanceMeters>NAN</DistanceMeters>
          </Trackpoint>
          <Trackpoint>
            <Time>2021-04-03T12:39:15.000Z</Time>
            <Position>
              <LatitudeDegrees>42.30485494248569011688232421875</LatitudeDegrees>
              <LongitudeDegrees>2.5085056386888027191162109375</LongitudeDegrees>
            </Position>
            <AltitudeMeters>454</AltitudeMeters>
            <DistanceMeters>NAN</DistanceMeters>
          </Trackpoint>
          <Trackpoint>
            <Time>2021-04-03T12:39:20.000Z</Time>
            <Position>
              <LatitudeDegrees>42.30482795275747776031494140625</LatitudeDegrees>
              <LongitudeDegrees>2.50854293815791606903076171875</LongitudeDegrees>
            </Position>
            <AltitudeMeters>454</AltitudeMeters>
            <DistanceMeters>NAN</DistanceMeters>
          </Trackpoint>
          <Trackpoint>
            <Time>2021-04-03T12:39:26.000Z</Time>
            <Position>
              <LatitudeDegrees>42.30482208542525768280029296875</LatitudeDegrees>
              <LongitudeDegrees>2.5085535831749439239501953125</LongitudeDegrees>
            </Position>
            <AltitudeMeters>454</AltitudeMeters>
            <DistanceMeters>NAN</DistanceMeters>
          </Trackpoint>
          <Trackpoint>
            <Time>2021-04-03T12:39:34.000Z</Time>
            <Position>
              <LatitudeDegrees>42.30487405322492122650146484375</LatitudeDegrees>
              <LongitudeDegrees>2.50853690318763256072998046875</LongitudeDegrees>
            </Position>
            <AltitudeMeters>454.20001220703125</AltitudeMeters>
            <DistanceMeters>NAN</DistanceMeters>
          </Trackpoint>
          <Trackpoint>
            <Time>2021-04-03T12:39:41.000Z</Time>
            <Position>
              <LatitudeDegrees>42.3049618117511272430419921875</LatitudeDegrees>
              <LongitudeDegrees>2.5085415132343769073486328125</LongitudeDegrees>
            </Position>
            <AltitudeMeters>454.79998779296875</AltitudeMeters>
            <DistanceMeters>NAN</DistanceMeters>
          </Trackpoint>
          <Trackpoint>
            <Time>2021-04-03T12:39:45.000Z</Time>
            <Position>
              <LatitudeDegrees>42.3050074093043804168701171875</LatitudeDegrees>
              <LongitudeDegrees>2.50855006277561187744140625</LongitudeDegrees>
            </Position>
            <AltitudeMeters>454.79998779296875</AltitudeMeters>
            <DistanceMeters>NAN</DistanceMeters>
          </Trackpoint>
          <Trackpoint>
            <Time>2021-04-03T12:39:49.000Z</Time>
            <Position>
              <LatitudeDegrees>42.305060215294361114501953125</LatitudeDegrees>
              <LongitudeDegrees>2.50856657512485980987548828125</LongitudeDegrees>
            </Position>
            <AltitudeMeters>455</AltitudeMeters>
            <DistanceMeters>NAN</DistanceMeters>
          </Trackpoint>
          <Trackpoint>
            <Time>2021-04-03T12:39:53.000Z</Time>
            <Position>
              <LatitudeDegrees>42.305093742907047271728515625</LatitudeDegrees>
              <LongitudeDegrees>2.508570514619350433349609375</LongitudeDegrees>
            </Position>
            <AltitudeMeters>455</AltitudeMeters>
            <DistanceMeters>NAN</DistanceMeters>
          </Trackpoint>
          <Trackpoint>
            <Time>2021-04-03T12:39:55.000Z</Time>
            <Position>
              <LatitudeDegrees>42.30511293746531009674072265625</LatitudeDegrees>
              <LongitudeDegrees>2.50857613049447536468505859375</LongitudeDegrees>
            </Position>
            <AltitudeMeters>455</AltitudeMeters>
            <DistanceMeters>NAN</DistanceMeters>
          </Trackpoint>
          <Trackpoint>
            <Time>2021-04-03T12:39:58.000Z</Time>
            <Position>
              <LatitudeDegrees>42.3051398433744907379150390625</LatitudeDegrees>
              <LongitudeDegrees>2.50859691761434078216552734375</LongitudeDegrees>
            </Position>
            <AltitudeMeters>455.20001220703125</AltitudeMeters>
            <DistanceMeters>NAN</DistanceMeters>
          </Trackpoint>
          <Trackpoint>
            <Time>2021-04-03T12:40:03.000Z</Time>
            <Position>
              <LatitudeDegrees>42.30519306845963001251220703125</LatitudeDegrees>
              <LongitudeDegrees>2.5086016952991485595703125</LongitudeDegrees>
            </Position>
            <AltitudeMeters>455.399993896484375</AltitudeMeters>
            <DistanceMeters>NAN</DistanceMeters>
          </Trackpoint>
          <Trackpoint>
            <Time>2021-04-03T12:40:06.000Z</Time>
            <Position>
              <LatitudeDegrees>42.305222488939762115478515625</LatitudeDegrees>
              <LongitudeDegrees>2.50860638916492462158203125</LongitudeDegrees>
            </Position>
            <AltitudeMeters>455.399993896484375</AltitudeMeters>
            <DistanceMeters>NAN</DistanceMeters>
          </Trackpoint>
          <Trackpoint>
            <Time>2021-04-03T12:40:14.000Z</Time>
            <Position>
              <LatitudeDegrees>42.3052944056689739227294921875</LatitudeDegrees>
              <LongitudeDegrees>2.50859876163303852081298828125</LongitudeDegrees>
            </Position>
            <AltitudeMeters>455.600006103515625</AltitudeMeters>
            <DistanceMeters>NAN</DistanceMeters>
          </Trackpoint>
          <Trackpoint>
            <Time>2021-04-03T12:40:22.000Z</Time>
            <Position>
              <LatitudeDegrees>42.30537495575845241546630859375</LatitudeDegrees>
              <LongitudeDegrees>2.5085589475929737091064453125</LongitudeDegrees>
            </Position>
            <AltitudeMeters>455.600006103515625</AltitudeMeters>
            <DistanceMeters>NAN</DistanceMeters>
          </Trackpoint>
          <Trackpoint>
            <Time>2021-04-03T12:40:28.000Z</Time>
            <Position>
              <LatitudeDegrees>42.30541267432272434234619140625</LatitudeDegrees>
              <LongitudeDegrees>2.50853455625474452972412109375</LongitudeDegrees>
            </Position>
            <AltitudeMeters>455.79998779296875</AltitudeMeters>
            <DistanceMeters>NAN</DistanceMeters>
          </Trackpoint>
          <Trackpoint>
            <Time>2021-04-03T12:40:30.000Z</Time>
            <Position>
              <LatitudeDegrees>42.30541015975177288055419921875</LatitudeDegrees>
              <LongitudeDegrees>2.50852592289447784423828125</LongitudeDegrees>
            </Position>
            <AltitudeMeters>456</AltitudeMeters>
            <DistanceMeters>NAN</DistanceMeters>
          </Trackpoint>
          <Trackpoint>
            <Time>2021-04-03T12:40:31.000Z</Time>
            <Position>
              <LatitudeDegrees>42.30540948919951915740966796875</LatitudeDegrees>
              <LongitudeDegrees>2.5085198879241943359375</LongitudeDegrees>
            </Position>
            <AltitudeMeters>456</AltitudeMeters>
            <DistanceMeters>NAN</DistanceMeters>
          </Trackpoint>
          <Trackpoint>
            <Time>2021-04-03T12:40:38.000Z</Time>
            <Position>
              <LatitudeDegrees>42.3054100759327411651611328125</LatitudeDegrees>
              <LongitudeDegrees>2.50846096314489841461181640625</LongitudeDegrees>
            </Position>
            <AltitudeMeters>456</AltitudeMeters>
            <DistanceMeters>NAN</DistanceMeters>
          </Trackpoint>
          <Trackpoint>
            <Time>2021-04-03T12:40:40.000Z</Time>
            <Position>
              <LatitudeDegrees>42.30540479533374309539794921875</LatitudeDegrees>
              <LongitudeDegrees>2.50844738446176052093505859375</LongitudeDegrees>
            </Position>
            <AltitudeMeters>456</AltitudeMeters>
            <DistanceMeters>NAN</DistanceMeters>
          </Trackpoint>
          <Trackpoint>
            <Time>2021-04-03T12:40:51.000Z</Time>
            <Position>
              <LatitudeDegrees>42.30541326105594635009765625</LatitudeDegrees>
              <LongitudeDegrees>2.50851192511618137359619140625</LongitudeDegrees>
            </Position>
            <AltitudeMeters>456</AltitudeMeters>
            <DistanceMeters>NAN</DistanceMeters>
          </Trackpoint>
          <Trackpoint>
            <Time>2021-04-03T12:41:06.000Z</Time>
            <Position>
              <LatitudeDegrees>42.305409573018550872802734375</LatitudeDegrees>
              <LongitudeDegrees>2.50851192511618137359619140625</LongitudeDegrees>
            </Position>
            <AltitudeMeters>456.20001220703125</AltitudeMeters>
            <DistanceMeters>NAN</DistanceMeters>
          </Trackpoint>
          <Trackpoint>
            <Time>2021-04-03T12:41:18.000Z</Time>
            <Position>
              <LatitudeDegrees>42.30541300959885120391845703125</LatitudeDegrees>
              <LongitudeDegrees>2.508528940379619598388671875</LongitudeDegrees>
            </Position>
            <AltitudeMeters>456.20001220703125</AltitudeMeters>
            <DistanceMeters>NAN</DistanceMeters>
          </Trackpoint>
          <Trackpoint>
            <Time>2021-04-03T12:41:24.000Z</Time>
            <Position>
              <LatitudeDegrees>42.3054134286940097808837890625</LatitudeDegrees>
              <LongitudeDegrees>2.50853153876960277557373046875</LongitudeDegrees>
            </Position>
            <AltitudeMeters>456.399993896484375</AltitudeMeters>
            <DistanceMeters>NAN</DistanceMeters>
          </Trackpoint>
          <Trackpoint>
            <Time>2021-04-03T12:41:44.000Z</Time>
            <Position>
              <LatitudeDegrees>42.30541862547397613525390625</LatitudeDegrees>
              <LongitudeDegrees>2.50854243524372577667236328125</LongitudeDegrees>
            </Position>
            <AltitudeMeters>455.79998779296875</AltitudeMeters>
            <DistanceMeters>NAN</DistanceMeters>
          </Trackpoint>
          <Trackpoint>
            <Time>2021-04-03T12:41:48.000Z</Time>
            <Position>
              <LatitudeDegrees>42.30542038567364215850830078125</LatitudeDegrees>
              <LongitudeDegrees>2.50855282880365848541259765625</LongitudeDegrees>
            </Position>
            <AltitudeMeters>455.79998779296875</AltitudeMeters>
            <DistanceMeters>NAN</DistanceMeters>
          </Trackpoint>
          <Trackpoint>
            <Time>2021-04-03T12:41:52.000Z</Time>
            <Position>
              <LatitudeDegrees>42.30542273260653018951416015625</LatitudeDegrees>
              <LongitudeDegrees>2.508566491305828094482421875</LongitudeDegrees>
            </Position>
            <AltitudeMeters>455.79998779296875</AltitudeMeters>
            <DistanceMeters>NAN</DistanceMeters>
          </Trackpoint>
          <Trackpoint>
            <Time>2021-04-03T12:41:58.000Z</Time>
            <Position>
              <LatitudeDegrees>42.30542474426329135894775390625</LatitudeDegrees>
              <LongitudeDegrees>2.5085733644664287567138671875</LongitudeDegrees>
            </Position>
            <AltitudeMeters>455.79998779296875</AltitudeMeters>
            <DistanceMeters>NAN</DistanceMeters>
          </Trackpoint>
          <Trackpoint>
            <Time>2021-04-03T12:42:12.000Z</Time>
            <Position>
              <LatitudeDegrees>42.305425666272640228271484375</LatitudeDegrees>
              <LongitudeDegrees>2.50857554376125335693359375</LongitudeDegrees>
            </Position>
            <AltitudeMeters>455.79998779296875</AltitudeMeters>
            <DistanceMeters>NAN</DistanceMeters>
          </Trackpoint>
          <Trackpoint>
            <Time>2021-04-03T12:42:18.000Z</Time>
            <Position>
              <LatitudeDegrees>42.30542742647230625152587890625</LatitudeDegrees>
              <LongitudeDegrees>2.508577220141887664794921875</LongitudeDegrees>
            </Position>
            <AltitudeMeters>455.79998779296875</AltitudeMeters>
            <DistanceMeters>NAN</DistanceMeters>
          </Trackpoint>
          <Trackpoint>
            <Time>2021-04-03T12:42:31.000Z</Time>
            <Position>
              <LatitudeDegrees>42.30545139871537685394287109375</LatitudeDegrees>
              <LongitudeDegrees>2.5085706822574138641357421875</LongitudeDegrees>
            </Position>
            <AltitudeMeters>455.79998779296875</AltitudeMeters>
            <DistanceMeters>NAN</DistanceMeters>
          </Trackpoint>
          <Trackpoint>
            <Time>2021-04-03T12:42:36.000Z</Time>
            <Position>
              <LatitudeDegrees>42.30545818805694580078125</LatitudeDegrees>
              <LongitudeDegrees>2.50856883823871612548828125</LongitudeDegrees>
            </Position>
            <AltitudeMeters>455.79998779296875</AltitudeMeters>
            <DistanceMeters>NAN</DistanceMeters>
          </Trackpoint>
          <Trackpoint>
            <Time>2021-04-03T12:42:54.000Z</Time>
            <Position>
              <LatitudeDegrees>42.30545709840953350067138671875</LatitudeDegrees>
              <LongitudeDegrees>2.5085760466754436492919921875</LongitudeDegrees>
            </Position>
            <AltitudeMeters>455.79998779296875</AltitudeMeters>
            <DistanceMeters>NAN</DistanceMeters>
          </Trackpoint>
          <Trackpoint>
            <Time>2021-04-03T12:43:05.000Z</Time>
            <Position>
              <LatitudeDegrees>42.30545123107731342315673828125</LatitudeDegrees>
              <LongitudeDegrees>2.508581914007663726806640625</LongitudeDegrees>
            </Position>
            <AltitudeMeters>455.79998779296875</AltitudeMeters>
            <DistanceMeters>NAN</DistanceMeters>
          </Trackpoint>
          <Trackpoint>
            <Time>2021-04-03T12:43:12.000Z</Time>
            <Position>
              <LatitudeDegrees>42.30543731711804866790771484375</LatitudeDegrees>
              <LongitudeDegrees>2.5085840933024883270263671875</LongitudeDegrees>
            </Position>
            <AltitudeMeters>455.79998779296875</AltitudeMeters>
            <DistanceMeters>NAN</DistanceMeters>
          </Trackpoint>
          <Trackpoint>
            <Time>2021-04-03T12:43:26.000Z</Time>
            <Position>
              <LatitudeDegrees>42.30543061159551143646240234375</LatitudeDegrees>
              <LongitudeDegrees>2.508597671985626220703125</LongitudeDegrees>
            </Position>
            <AltitudeMeters>455.79998779296875</AltitudeMeters>
            <DistanceMeters>NAN</DistanceMeters>
          </Trackpoint>
          <Trackpoint>
            <Time>2021-04-03T12:43:28.000Z</Time>
            <Position>
              <LatitudeDegrees>42.30543010868132114410400390625</LatitudeDegrees>
              <LongitudeDegrees>2.50859809108078479766845703125</LongitudeDegrees>
            </Position>
            <AltitudeMeters>455.79998779296875</AltitudeMeters>
            <DistanceMeters>NAN</DistanceMeters>
          </Trackpoint>
          <Trackpoint>
            <Time>2021-04-03T12:43:46.000Z</Time>
            <Position>
              <LatitudeDegrees>42.30545391328632831573486328125</LatitudeDegrees>
              <LongitudeDegrees>2.5085807405412197113037109375</LongitudeDegrees>
            </Position>
            <AltitudeMeters>455.79998779296875</AltitudeMeters>
            <DistanceMeters>NAN</DistanceMeters>
          </Trackpoint>
          <Trackpoint>
            <Time>2021-04-03T12:43:48.000Z</Time>
            <Position>
              <LatitudeDegrees>42.3054831661283969879150390625</LatitudeDegrees>
              <LongitudeDegrees>2.50855668447911739349365234375</LongitudeDegrees>
            </Position>
            <AltitudeMeters>455.79998779296875</AltitudeMeters>
            <DistanceMeters>NAN</DistanceMeters>
          </Trackpoint>
          <Trackpoint>
            <Time>2021-04-03T12:43:58.000Z</Time>
            <Position>
              <LatitudeDegrees>42.30560931377112865447998046875</LatitudeDegrees>
              <LongitudeDegrees>2.5084483064711093902587890625</LongitudeDegrees>
            </Position>
            <AltitudeMeters>456.20001220703125</AltitudeMeters>
            <DistanceMeters>NAN</DistanceMeters>
          </Trackpoint>
          <Trackpoint>
            <Time>2021-04-03T12:44:07.000Z</Time>
            <Position>
              <LatitudeDegrees>42.3056819848716259002685546875</LatitudeDegrees>
              <LongitudeDegrees>2.50835048966109752655029296875</LongitudeDegrees>
            </Position>
            <AltitudeMeters>456.20001220703125</AltitudeMeters>
            <DistanceMeters>NAN</DistanceMeters>
          </Trackpoint>
          <Trackpoint>
            <Time>2021-04-03T12:44:14.000Z</Time>
            <Position>
              <LatitudeDegrees>42.30574023909866809844970703125</LatitudeDegrees>
              <LongitudeDegrees>2.5082615576684474945068359375</LongitudeDegrees>
            </Position>
            <AltitudeMeters>457</AltitudeMeters>
            <DistanceMeters>NAN</DistanceMeters>
          </Trackpoint>
          <Trackpoint>
            <Time>2021-04-03T12:44:15.000Z</Time>
            <Position>
              <LatitudeDegrees>42.305748201906681060791015625</LatitudeDegrees>
              <LongitudeDegrees>2.5082476437091827392578125</LongitudeDegrees>
            </Position>
            <AltitudeMeters>457</AltitudeMeters>
            <DistanceMeters>NAN</DistanceMeters>
          </Trackpoint>
          <Trackpoint>
            <Time>2021-04-03T12:44:24.000Z</Time>
            <Position>
              <LatitudeDegrees>42.3058160953223705291748046875</LatitudeDegrees>
              <LongitudeDegrees>2.5081375055015087127685546875</LongitudeDegrees>
            </Position>
            <AltitudeMeters>457.600006103515625</AltitudeMeters>
            <DistanceMeters>NAN</DistanceMeters>
          </Trackpoint>
          <Trackpoint>
            <Time>2021-04-03T12:44:26.000Z</Time>
            <Position>
              <LatitudeDegrees>42.30582900345325469970703125</LatitudeDegrees>
              <LongitudeDegrees>2.5081108510494232177734375</LongitudeDegrees>
            </Position>
            <AltitudeMeters>457.600006103515625</AltitudeMeters>
            <DistanceMeters>NAN</DistanceMeters>
          </Trackpoint>
          <Trackpoint>
            <Time>2021-04-03T12:44:38.000Z</Time>
            <Position>
              <LatitudeDegrees>42.305917181074619293212890625</LatitudeDegrees>
              <LongitudeDegrees>2.5079574622213840484619140625</LongitudeDegrees>
            </Position>
            <AltitudeMeters>458</AltitudeMeters>
            <DistanceMeters>NAN</DistanceMeters>
          </Trackpoint>
          <Trackpoint>
            <Time>2021-04-03T12:44:40.000Z</Time>
            <Position>
              <LatitudeDegrees>42.3059321008622646331787109375</LatitudeDegrees>
              <LongitudeDegrees>2.50793005339801311492919921875</LongitudeDegrees>
            </Position>
            <AltitudeMeters>458</AltitudeMeters>
            <DistanceMeters>NAN</DistanceMeters>
          </Trackpoint>
          <Trackpoint>
            <Time>2021-04-03T12:44:50.000Z</Time>
            <Position>
              <LatitudeDegrees>42.30600393377244472503662109375</LatitudeDegrees>
              <LongitudeDegrees>2.50778823159635066986083984375</LongitudeDegrees>
            </Position>
            <AltitudeMeters>459.20001220703125</AltitudeMeters>
            <DistanceMeters>NAN</DistanceMeters>
          </Trackpoint>
          <Trackpoint>
            <Time>2021-04-03T12:44:51.000Z</Time>
            <Position>
              <LatitudeDegrees>42.3060102201998233795166015625</LatitudeDegrees>
              <LongitudeDegrees>2.5077733956277370452880859375</LongitudeDegrees>
            </Position>
            <AltitudeMeters>459.20001220703125</AltitudeMeters>
            <DistanceMeters>NAN</DistanceMeters>
          </Trackpoint>
          <Trackpoint>
            <Time>2021-04-03T12:45:01.000Z</Time>
            <Position>
              <LatitudeDegrees>42.3060652054846286773681640625</LatitudeDegrees>
              <LongitudeDegrees>2.50763735733926296234130859375</LongitudeDegrees>
            </Position>
            <AltitudeMeters>459.20001220703125</AltitudeMeters>
            <DistanceMeters>NAN</DistanceMeters>
          </Trackpoint>
          <Trackpoint>
            <Time>2021-04-03T12:45:12.000Z</Time>
            <Position>
              <LatitudeDegrees>42.3061054386198520660400390625</LatitudeDegrees>
              <LongitudeDegrees>2.507468797266483306884765625</LongitudeDegrees>
            </Position>
            <AltitudeMeters>459</AltitudeMeters>
            <DistanceMeters>NAN</DistanceMeters>
          </Trackpoint>
          <Trackpoint>
            <Time>2021-04-03T12:45:23.000Z</Time>
            <Position>
              <LatitudeDegrees>42.30615229345858097076416015625</LatitudeDegrees>
              <LongitudeDegrees>2.50731465406715869903564453125</LongitudeDegrees>
            </Position>
            <AltitudeMeters>460</AltitudeMeters>
            <DistanceMeters>NAN</DistanceMeters>
          </Trackpoint>
          <Trackpoint>
            <Time>2021-04-03T12:45:31.000Z</Time>
            <Position>
              <LatitudeDegrees>42.30620979331433773040771484375</LatitudeDegrees>
              <LongitudeDegrees>2.5071769393980503082275390625</LongitudeDegrees>
            </Position>
            <AltitudeMeters>460</AltitudeMeters>
            <DistanceMeters>NAN</DistanceMeters>
          </Trackpoint>
          <Trackpoint>
            <Time>2021-04-03T12:45:32.000Z</Time>
            <Position>
              <LatitudeDegrees>42.30621951632201671600341796875</LatitudeDegrees>
              <LongitudeDegrees>2.5071680545806884765625</LongitudeDegrees>
            </Position>
            <AltitudeMeters>460.20001220703125</AltitudeMeters>
            <DistanceMeters>NAN</DistanceMeters>
          </Trackpoint>
          <Trackpoint>
            <Time>2021-04-03T12:45:37.000Z</Time>
            <Position>
              <LatitudeDegrees>42.30627316050231456756591796875</LatitudeDegrees>
              <LongitudeDegrees>2.50712723471224308013916015625</LongitudeDegrees>
            </Position>
            <AltitudeMeters>460.399993896484375</AltitudeMeters>
            <DistanceMeters>NAN</DistanceMeters>
          </Trackpoint>
          <Trackpoint>
            <Time>2021-04-03T12:45:46.000Z</Time>
            <Position>
              <LatitudeDegrees>42.3063803650438785552978515625</LatitudeDegrees>
              <LongitudeDegrees>2.5070575810968875885009765625</LongitudeDegrees>
            </Position>
            <AltitudeMeters>460.399993896484375</AltitudeMeters>
            <DistanceMeters>NAN</DistanceMeters>
          </Trackpoint>
          <Trackpoint>
            <Time>2021-04-03T12:45:48.000Z</Time>
            <Position>
              <LatitudeDegrees>42.30640701949596405029296875</LatitudeDegrees>
              <LongitudeDegrees>2.5070572458207607269287109375</LongitudeDegrees>
            </Position>
            <AltitudeMeters>460.79998779296875</AltitudeMeters>
            <DistanceMeters>NAN</DistanceMeters>
          </Trackpoint>
          <Trackpoint>
            <Time>2021-04-03T12:45:57.000Z</Time>
            <Position>
              <LatitudeDegrees>42.30652377940714359283447265625</LatitudeDegrees>
              <LongitudeDegrees>2.50706118531525135040283203125</LongitudeDegrees>
            </Position>
            <AltitudeMeters>460.20001220703125</AltitudeMeters>
            <DistanceMeters>NAN</DistanceMeters>
          </Trackpoint>
          <Trackpoint>
            <Time>2021-04-03T12:46:08.000Z</Time>
            <Position>
              <LatitudeDegrees>42.3066733963787555694580078125</LatitudeDegrees>
              <LongitudeDegrees>2.50711047090590000152587890625</LongitudeDegrees>
            </Position>
            <AltitudeMeters>459.79998779296875</AltitudeMeters>
            <DistanceMeters>NAN</DistanceMeters>
          </Trackpoint>
          <Trackpoint>
            <Time>2021-04-03T12:46:09.000Z</Time>
            <Position>
              <LatitudeDegrees>42.3066854663193225860595703125</LatitudeDegrees>
              <LongitudeDegrees>2.5071196071803569793701171875</LongitudeDegrees>
            </Position>
            <AltitudeMeters>459.79998779296875</AltitudeMeters>
            <DistanceMeters>NAN</DistanceMeters>
          </Trackpoint>
          <Trackpoint>
            <Time>2021-04-03T12:46:18.000Z</Time>
            <Position>
              <LatitudeDegrees>42.30680222623050212860107421875</LatitudeDegrees>
              <LongitudeDegrees>2.5071437470614910125732421875</LongitudeDegrees>
            </Position>
            <AltitudeMeters>460</AltitudeMeters>
            <DistanceMeters>NAN</DistanceMeters>
          </Trackpoint>
          <Trackpoint>
            <Time>2021-04-03T12:46:26.000Z</Time>
            <Position>
              <LatitudeDegrees>42.306898869574069976806640625</LatitudeDegrees>
              <LongitudeDegrees>2.50709370709955692291259765625</LongitudeDegrees>
            </Position>
            <AltitudeMeters>459.79998779296875</AltitudeMeters>
            <DistanceMeters>NAN</DistanceMeters>
          </Trackpoint>
          <Trackpoint>
            <Time>2021-04-03T12:46:30.000Z</Time>
            <Position>
              <LatitudeDegrees>42.3069265298545360565185546875</LatitudeDegrees>
              <LongitudeDegrees>2.50707275234162807464599609375</LongitudeDegrees>
            </Position>
            <AltitudeMeters>459.600006103515625</AltitudeMeters>
            <DistanceMeters>NAN</DistanceMeters>
          </Trackpoint>
          <Trackpoint>
            <Time>2021-04-03T12:46:34.000Z</Time>
            <Position>
              <LatitudeDegrees>42.306945137679576873779296875</LatitudeDegrees>
              <LongitudeDegrees>2.5070384703576564788818359375</LongitudeDegrees>
            </Position>
            <AltitudeMeters>459.600006103515625</AltitudeMeters>
            <DistanceMeters>NAN</DistanceMeters>
          </Trackpoint>
          <Trackpoint>
            <Time>2021-04-03T12:46:38.000Z</Time>
            <Position>
              <LatitudeDegrees>42.306954860687255859375</LatitudeDegrees>
              <LongitudeDegrees>2.5070284120738506317138671875</LongitudeDegrees>
            </Position>
            <AltitudeMeters>459.79998779296875</AltitudeMeters>
            <DistanceMeters>NAN</DistanceMeters>
          </Trackpoint>
          <Trackpoint>
            <Time>2021-04-03T12:46:41.000Z</Time>
            <Position>
              <LatitudeDegrees>42.30695997364819049835205078125</LatitudeDegrees>
              <LongitudeDegrees>2.507024891674518585205078125</LongitudeDegrees>
            </Position>
            <AltitudeMeters>459.79998779296875</AltitudeMeters>
            <DistanceMeters>NAN</DistanceMeters>
          </Trackpoint>
          <Trackpoint>
            <Time>2021-04-03T12:46:45.000Z</Time>
            <Position>
              <LatitudeDegrees>42.306970618665218353271484375</LatitudeDegrees>
              <LongitudeDegrees>2.5070207007229328155517578125</LongitudeDegrees>
            </Position>
            <AltitudeMeters>459.79998779296875</AltitudeMeters>
            <DistanceMeters>NAN</DistanceMeters>
          </Trackpoint>
          <Trackpoint>
            <Time>2021-04-03T12:46:50.000Z</Time>
            <Position>
              <LatitudeDegrees>42.30698025785386562347412109375</LatitudeDegrees>
              <LongitudeDegrees>2.507016845047473907470703125</LongitudeDegrees>
            </Position>
            <AltitudeMeters>459.79998779296875</AltitudeMeters>
            <DistanceMeters>NAN</DistanceMeters>
          </Trackpoint>
          <Trackpoint>
            <Time>2021-04-03T12:47:10.000Z</Time>
            <Position>
              <LatitudeDegrees>42.3069801740348339080810546875</LatitudeDegrees>
              <LongitudeDegrees>2.5070193596184253692626953125</LongitudeDegrees>
            </Position>
            <AltitudeMeters>459.79998779296875</AltitudeMeters>
            <DistanceMeters>NAN</DistanceMeters>
          </Trackpoint>
          <Trackpoint>
            <Time>2021-04-03T12:47:22.000Z</Time>
            <Position>
              <LatitudeDegrees>42.30703356675803661346435546875</LatitudeDegrees>
              <LongitudeDegrees>2.5069901905953884124755859375</LongitudeDegrees>
            </Position>
            <AltitudeMeters>460</AltitudeMeters>
            <DistanceMeters>NAN</DistanceMeters>
          </Trackpoint>
          <Trackpoint>
            <Time>2021-04-03T12:47:25.000Z</Time>
            <Position>
              <LatitudeDegrees>42.3070619814097881317138671875</LatitudeDegrees>
              <LongitudeDegrees>2.5069459341466426849365234375</LongitudeDegrees>
            </Position>
            <AltitudeMeters>460.20001220703125</AltitudeMeters>
            <DistanceMeters>NAN</DistanceMeters>
          </Trackpoint>
          <Trackpoint>
            <Time>2021-04-03T12:47:31.000Z</Time>
            <Position>
              <LatitudeDegrees>42.307095341384410858154296875</LatitudeDegrees>
              <LongitudeDegrees>2.5068238936364650726318359375</LongitudeDegrees>
            </Position>
            <AltitudeMeters>460.20001220703125</AltitudeMeters>
            <DistanceMeters>NAN</DistanceMeters>
          </Trackpoint>
          <Trackpoint>
            <Time>2021-04-03T12:47:34.000Z</Time>
            <Position>
              <LatitudeDegrees>42.30709768831729888916015625</LatitudeDegrees>
              <LongitudeDegrees>2.506771087646484375</LongitudeDegrees>
            </Position>
            <AltitudeMeters>460.399993896484375</AltitudeMeters>
            <DistanceMeters>NAN</DistanceMeters>
          </Trackpoint>
          <Trackpoint>
            <Time>2021-04-03T12:47:38.000Z</Time>
            <Position>
              <LatitudeDegrees>42.30710883624851703643798828125</LatitudeDegrees>
              <LongitudeDegrees>2.50670135021209716796875</LongitudeDegrees>
            </Position>
            <AltitudeMeters>460.20001220703125</AltitudeMeters>
            <DistanceMeters>NAN</DistanceMeters>
          </Trackpoint>
          <Trackpoint>
            <Time>2021-04-03T12:47:40.000Z</Time>
            <Position>
              <LatitudeDegrees>42.30710699222981929779052734375</LatitudeDegrees>
              <LongitudeDegrees>2.50666572712361812591552734375</LongitudeDegrees>
            </Position>
            <AltitudeMeters>460.399993896484375</AltitudeMeters>
            <DistanceMeters>NAN</DistanceMeters>
          </Trackpoint>
          <Trackpoint>
            <Time>2021-04-03T12:47:49.000Z</Time>
            <Position>
              <LatitudeDegrees>42.3071022145450115203857421875</LatitudeDegrees>
              <LongitudeDegrees>2.5065067224204540252685546875</LongitudeDegrees>
            </Position>
            <AltitudeMeters>460.600006103515625</AltitudeMeters>
            <DistanceMeters>NAN</DistanceMeters>
          </Trackpoint>
          <Trackpoint>
            <Time>2021-04-03T12:47:56.000Z</Time>
            <Position>
              <LatitudeDegrees>42.30712023563683032989501953125</LatitudeDegrees>
              <LongitudeDegrees>2.5063933990895748138427734375</LongitudeDegrees>
            </Position>
            <AltitudeMeters>460.79998779296875</AltitudeMeters>
            <DistanceMeters>NAN</DistanceMeters>
          </Trackpoint>
          <Trackpoint>
            <Time>2021-04-03T12:47:58.000Z</Time>
            <Position>
              <LatitudeDegrees>42.307116128504276275634765625</LatitudeDegrees>
              <LongitudeDegrees>2.50636808574199676513671875</LongitudeDegrees>
            </Position>
            <AltitudeMeters>460.79998779296875</AltitudeMeters>
            <DistanceMeters>NAN</DistanceMeters>
          </Trackpoint>
          <Trackpoint>
            <Time>2021-04-03T12:48:07.000Z</Time>
            <Position>
              <LatitudeDegrees>42.3070971854031085968017578125</LatitudeDegrees>
              <LongitudeDegrees>2.5062549300491809844970703125</LongitudeDegrees>
            </Position>
            <AltitudeMeters>461.20001220703125</AltitudeMeters>
            <DistanceMeters>NAN</DistanceMeters>
          </Trackpoint>
          <Trackpoint>
            <Time>2021-04-03T12:48:08.000Z</Time>
            <Position>
              <LatitudeDegrees>42.3071032203733921051025390625</LatitudeDegrees>
              <LongitudeDegrees>2.50623472966253757476806640625</LongitudeDegrees>
            </Position>
            <AltitudeMeters>461.20001220703125</AltitudeMeters>
            <DistanceMeters>NAN</DistanceMeters>
          </Trackpoint>
          <Trackpoint>
            <Time>2021-04-03T12:48:10.000Z</Time>
            <Position>
              <LatitudeDegrees>42.307108752429485321044921875</LatitudeDegrees>
              <LongitudeDegrees>2.50619432888925075531005859375</LongitudeDegrees>
            </Position>
            <AltitudeMeters>461.20001220703125</AltitudeMeters>
            <DistanceMeters>NAN</DistanceMeters>
          </Trackpoint>
          <Trackpoint>
            <Time>2021-04-03T12:48:14.000Z</Time>
            <Position>
              <LatitudeDegrees>42.30711336247622966766357421875</LatitudeDegrees>
              <LongitudeDegrees>2.506129704415798187255859375</LongitudeDegrees>
            </Position>
            <AltitudeMeters>461.600006103515625</AltitudeMeters>
            <DistanceMeters>NAN</DistanceMeters>
          </Trackpoint>
          <Trackpoint>
            <Time>2021-04-03T12:48:17.000Z</Time>
            <Position>
              <LatitudeDegrees>42.3071082495152950286865234375</LatitudeDegrees>
              <LongitudeDegrees>2.50608620233833789825439453125</LongitudeDegrees>
            </Position>
            <AltitudeMeters>461.600006103515625</AltitudeMeters>
            <DistanceMeters>NAN</DistanceMeters>
          </Trackpoint>
          <Trackpoint>
            <Time>2021-04-03T12:48:21.000Z</Time>
            <Position>
              <LatitudeDegrees>42.30711738578975200653076171875</LatitudeDegrees>
              <LongitudeDegrees>2.50602752901613712310791015625</LongitudeDegrees>
            </Position>
            <AltitudeMeters>461.600006103515625</AltitudeMeters>
            <DistanceMeters>NAN</DistanceMeters>
          </Trackpoint>
          <Trackpoint>
            <Time>2021-04-03T12:48:26.000Z</Time>
            <Position>
              <LatitudeDegrees>42.30714370496571063995361328125</LatitudeDegrees>
              <LongitudeDegrees>2.505935244262218475341796875</LongitudeDegrees>
            </Position>
            <AltitudeMeters>462</AltitudeMeters>
            <DistanceMeters>NAN</DistanceMeters>
          </Trackpoint>
          <Trackpoint>
            <Time>2021-04-03T12:48:31.000Z</Time>
            <Position>
              <LatitudeDegrees>42.3071729578077793121337890625</LatitudeDegrees>
              <LongitudeDegrees>2.50583508051931858062744140625</LongitudeDegrees>
            </Position>
            <AltitudeMeters>462.399993896484375</AltitudeMeters>
            <DistanceMeters>NAN</DistanceMeters>
          </Trackpoint>
          <Trackpoint>
            <Time>2021-04-03T12:48:32.000Z</Time>
            <Position>
              <LatitudeDegrees>42.30717840604484081268310546875</LatitudeDegrees>
              <LongitudeDegrees>2.5058237649500370025634765625</LongitudeDegrees>
            </Position>
            <AltitudeMeters>462.399993896484375</AltitudeMeters>
            <DistanceMeters>NAN</DistanceMeters>
          </Trackpoint>
          <Trackpoint>
            <Time>2021-04-03T12:48:34.000Z</Time>
            <Position>
              <LatitudeDegrees>42.30719064362347126007080078125</LatitudeDegrees>
              <LongitudeDegrees>2.505801804363727569580078125</LongitudeDegrees>
            </Position>
            <AltitudeMeters>462.600006103515625</AltitudeMeters>
            <DistanceMeters>NAN</DistanceMeters>
          </Trackpoint>
          <Trackpoint>
            <Time>2021-04-03T12:48:41.000Z</Time>
            <Position>
              <LatitudeDegrees>42.30725300498306751251220703125</LatitudeDegrees>
              <LongitudeDegrees>2.505732066929340362548828125</LongitudeDegrees>
            </Position>
            <AltitudeMeters>463.20001220703125</AltitudeMeters>
            <DistanceMeters>NAN</DistanceMeters>
          </Trackpoint>
          <Trackpoint>
            <Time>2021-04-03T12:48:42.000Z</Time>
            <Position>
              <LatitudeDegrees>42.30726004578173160552978515625</LatitudeDegrees>
              <LongitudeDegrees>2.50572008080780506134033203125</LongitudeDegrees>
            </Position>
            <AltitudeMeters>463.20001220703125</AltitudeMeters>
            <DistanceMeters>NAN</DistanceMeters>
          </Trackpoint>
          <Trackpoint>
            <Time>2021-04-03T12:48:43.000Z</Time>
            <Position>
              <LatitudeDegrees>42.30726507492363452911376953125</LatitudeDegrees>
              <LongitudeDegrees>2.5057070888578891754150390625</LongitudeDegrees>
            </Position>
            <AltitudeMeters>463.399993896484375</AltitudeMeters>
            <DistanceMeters>NAN</DistanceMeters>
          </Trackpoint>
          <Trackpoint>
            <Time>2021-04-03T12:48:45.000Z</Time>
            <Position>
              <LatitudeDegrees>42.3072698526084423065185546875</LatitudeDegrees>
              <LongitudeDegrees>2.50568454153835773468017578125</LongitudeDegrees>
            </Position>
            <AltitudeMeters>463.600006103515625</AltitudeMeters>
            <DistanceMeters>NAN</DistanceMeters>
          </Trackpoint>
          <Trackpoint>
            <Time>2021-04-03T12:48:47.000Z</Time>
            <Position>
              <LatitudeDegrees>42.30727278627455234527587890625</LatitudeDegrees>
              <LongitudeDegrees>2.50565587542951107025146484375</LongitudeDegrees>
            </Position>
            <AltitudeMeters>463.79998779296875</AltitudeMeters>
            <DistanceMeters>NAN</DistanceMeters>
          </Trackpoint>
          <Trackpoint>
            <Time>2021-04-03T12:48:52.000Z</Time>
            <Position>
              <LatitudeDegrees>42.30728804133832454681396484375</LatitudeDegrees>
              <LongitudeDegrees>2.50557909719645977020263671875</LongitudeDegrees>
            </Position>
            <AltitudeMeters>463.79998779296875</AltitudeMeters>
            <DistanceMeters>NAN</DistanceMeters>
          </Trackpoint>
          <Trackpoint>
            <Time>2021-04-03T12:48:57.000Z</Time>
            <Position>
              <LatitudeDegrees>42.30731670744717121124267578125</LatitudeDegrees>
              <LongitudeDegrees>2.505515478551387786865234375</LongitudeDegrees>
            </Position>
            <AltitudeMeters>464.20001220703125</AltitudeMeters>
            <DistanceMeters>NAN</DistanceMeters>
          </Trackpoint>
          <Trackpoint>
            <Time>2021-04-03T12:48:59.000Z</Time>
            <Position>
              <LatitudeDegrees>42.30732475407421588897705078125</LatitudeDegrees>
              <LongitudeDegrees>2.505486644804477691650390625</LongitudeDegrees>
            </Position>
            <AltitudeMeters>464.399993896484375</AltitudeMeters>
            <DistanceMeters>NAN</DistanceMeters>
          </Trackpoint>
          <Trackpoint>
            <Time>2021-04-03T12:49:02.000Z</Time>
            <Position>
              <LatitudeDegrees>42.30734235607087612152099609375</LatitudeDegrees>
              <LongitudeDegrees>2.50544297508895397186279296875</LongitudeDegrees>
            </Position>
            <AltitudeMeters>464.79998779296875</AltitudeMeters>
            <DistanceMeters>NAN</DistanceMeters>
          </Trackpoint>
          <Trackpoint>
            <Time>2021-04-03T12:49:05.000Z</Time>
            <Position>
              <LatitudeDegrees>42.3073585331439971923828125</LatitudeDegrees>
              <LongitudeDegrees>2.50540383160114288330078125</LongitudeDegrees>
            </Position>
            <AltitudeMeters>464.79998779296875</AltitudeMeters>
            <DistanceMeters>NAN</DistanceMeters>
          </Trackpoint>
          <Trackpoint>
            <Time>2021-04-03T12:49:09.000Z</Time>
            <Position>
              <LatitudeDegrees>42.30736599303781986236572265625</LatitudeDegrees>
              <LongitudeDegrees>2.505336441099643707275390625</LongitudeDegrees>
            </Position>
            <AltitudeMeters>464.79998779296875</AltitudeMeters>
            <DistanceMeters>NAN</DistanceMeters>
          </Trackpoint>
          <Trackpoint>
            <Time>2021-04-03T12:49:17.000Z</Time>
            <Position>
              <LatitudeDegrees>42.307408154010772705078125</LatitudeDegrees>
              <LongitudeDegrees>2.50521901063621044158935546875</LongitudeDegrees>
            </Position>
            <AltitudeMeters>465.399993896484375</AltitudeMeters>
            <DistanceMeters>NAN</DistanceMeters>
          </Trackpoint>
          <Trackpoint>
            <Time>2021-04-03T12:49:18.000Z</Time>
            <Position>
              <LatitudeDegrees>42.3074083216488361358642578125</LatitudeDegrees>
              <LongitudeDegrees>2.5052048452198505401611328125</LongitudeDegrees>
            </Position>
            <AltitudeMeters>465.399993896484375</AltitudeMeters>
            <DistanceMeters>NAN</DistanceMeters>
          </Trackpoint>
          <Trackpoint>
            <Time>2021-04-03T12:49:23.000Z</Time>
            <Position>
              <LatitudeDegrees>42.30741913430392742156982421875</LatitudeDegrees>
              <LongitudeDegrees>2.5051327608525753021240234375</LongitudeDegrees>
            </Position>
            <AltitudeMeters>465.600006103515625</AltitudeMeters>
            <DistanceMeters>NAN</DistanceMeters>
          </Trackpoint>
          <Trackpoint>
            <Time>2021-04-03T12:49:25.000Z</Time>
            <Position>
              <LatitudeDegrees>42.30742198415100574493408203125</LatitudeDegrees>
              <LongitudeDegrees>2.5051039271056652069091796875</LongitudeDegrees>
            </Position>
            <AltitudeMeters>465.399993896484375</AltitudeMeters>
            <DistanceMeters>NAN</DistanceMeters>
          </Trackpoint>
          <Trackpoint>
            <Time>2021-04-03T12:49:29.000Z</Time>
            <Position>
              <LatitudeDegrees>42.30743757449090480804443359375</LatitudeDegrees>
              <LongitudeDegrees>2.50503930263221263885498046875</LongitudeDegrees>
            </Position>
            <AltitudeMeters>465.79998779296875</AltitudeMeters>
            <DistanceMeters>NAN</DistanceMeters>
          </Trackpoint>
          <Trackpoint>
            <Time>2021-04-03T12:49:30.000Z</Time>
            <Position>
              <LatitudeDegrees>42.3074435256421566009521484375</LatitudeDegrees>
              <LongitudeDegrees>2.5050284899771213531494140625</LongitudeDegrees>
            </Position>
            <AltitudeMeters>465.79998779296875</AltitudeMeters>
            <DistanceMeters>NAN</DistanceMeters>
          </Trackpoint>
          <Trackpoint>
            <Time>2021-04-03T12:49:32.000Z</Time>
            <Position>
              <LatitudeDegrees>42.30745400302112102508544921875</LatitudeDegrees>
              <LongitudeDegrees>2.5049745105206966400146484375</LongitudeDegrees>
            </Position>
            <AltitudeMeters>466</AltitudeMeters>
            <DistanceMeters>NAN</DistanceMeters>
          </Trackpoint>
          <Trackpoint>
            <Time>2021-04-03T12:49:35.000Z</Time>
            <Position>
              <LatitudeDegrees>42.3074550926685333251953125</LatitudeDegrees>
              <LongitudeDegrees>2.504932098090648651123046875</LongitudeDegrees>
            </Position>
            <AltitudeMeters>466</AltitudeMeters>
            <DistanceMeters>NAN</DistanceMeters>
          </Trackpoint>
          <Trackpoint>
            <Time>2021-04-03T12:49:36.000Z</Time>
            <Position>
              <LatitudeDegrees>42.3074633069336414337158203125</LatitudeDegrees>
              <LongitudeDegrees>2.504914663732051849365234375</LongitudeDegrees>
            </Position>
            <AltitudeMeters>466</AltitudeMeters>
            <DistanceMeters>NAN</DistanceMeters>
          </Trackpoint>
          <Trackpoint>
            <Time>2021-04-03T12:49:41.000Z</Time>
            <Position>
              <LatitudeDegrees>42.30749825946986675262451171875</LatitudeDegrees>
              <LongitudeDegrees>2.50485599040985107421875</LongitudeDegrees>
            </Position>
            <AltitudeMeters>466.20001220703125</AltitudeMeters>
            <DistanceMeters>NAN</DistanceMeters>
          </Trackpoint>
          <Trackpoint>
            <Time>2021-04-03T12:49:45.000Z</Time>
            <Position>
              <LatitudeDegrees>42.30752608738839626312255859375</LatitudeDegrees>
              <LongitudeDegrees>2.50481651164591312408447265625</LongitudeDegrees>
            </Position>
            <AltitudeMeters>466.399993896484375</AltitudeMeters>
            <DistanceMeters>NAN</DistanceMeters>
          </Trackpoint>
          <Trackpoint>
            <Time>2021-04-03T12:49:46.000Z</Time>
            <Position>
              <LatitudeDegrees>42.30753581039607524871826171875</LatitudeDegrees>
              <LongitudeDegrees>2.50481282360851764678955078125</LongitudeDegrees>
            </Position>
            <AltitudeMeters>466.600006103515625</AltitudeMeters>
            <DistanceMeters>NAN</DistanceMeters>
          </Trackpoint>
          <Trackpoint>
            <Time>2021-04-03T12:49:51.000Z</Time>
            <Position>
              <LatitudeDegrees>42.307568751275539398193359375</LatitudeDegrees>
              <LongitudeDegrees>2.5047760270535945892333984375</LongitudeDegrees>
            </Position>
            <AltitudeMeters>467.399993896484375</AltitudeMeters>
            <DistanceMeters>NAN</DistanceMeters>
          </Trackpoint>
          <Trackpoint>
            <Time>2021-04-03T12:49:53.000Z</Time>
            <Position>
              <LatitudeDegrees>42.30760864913463592529296875</LatitudeDegrees>
              <LongitudeDegrees>2.504766471683979034423828125</LongitudeDegrees>
            </Position>
            <AltitudeMeters>467.79998779296875</AltitudeMeters>
            <DistanceMeters>NAN</DistanceMeters>
          </Trackpoint>
          <Trackpoint>
            <Time>2021-04-03T12:49:57.000Z</Time>
            <Position>
              <LatitudeDegrees>42.30762683786451816558837890625</LatitudeDegrees>
              <LongitudeDegrees>2.50473730266094207763671875</LongitudeDegrees>
            </Position>
            <AltitudeMeters>468.600006103515625</AltitudeMeters>
            <DistanceMeters>NAN</DistanceMeters>
          </Trackpoint>
          <Trackpoint>
            <Time>2021-04-03T12:49:59.000Z</Time>
            <Position>
              <LatitudeDegrees>42.30761879123747348785400390625</LatitudeDegrees>
              <LongitudeDegrees>2.5047186948359012603759765625</LongitudeDegrees>
            </Position>
            <AltitudeMeters>468.79998779296875</AltitudeMeters>
            <DistanceMeters>NAN</DistanceMeters>
          </Trackpoint>
          <Trackpoint>
            <Time>2021-04-03T12:50:00.000Z</Time>
            <Position>
              <LatitudeDegrees>42.30762206017971038818359375</LatitudeDegrees>
              <LongitudeDegrees>2.50471358187496662139892578125</LongitudeDegrees>
            </Position>
            <AltitudeMeters>469</AltitudeMeters>
            <DistanceMeters>NAN</DistanceMeters>
          </Trackpoint>
          <Trackpoint>
            <Time>2021-04-03T12:50:07.000Z</Time>
            <Position>
              <LatitudeDegrees>42.307678051292896270751953125</LatitudeDegrees>
              <LongitudeDegrees>2.5046492926776409149169921875</LongitudeDegrees>
            </Position>
            <AltitudeMeters>470</AltitudeMeters>
            <DistanceMeters>NAN</DistanceMeters>
          </Trackpoint>
          <Trackpoint>
            <Time>2021-04-03T12:50:08.000Z</Time>
            <Position>
              <LatitudeDegrees>42.30769255198538303375244140625</LatitudeDegrees>
              <LongitudeDegrees>2.5046452693641185760498046875</LongitudeDegrees>
            </Position>
            <AltitudeMeters>470.20001220703125</AltitudeMeters>
            <DistanceMeters>NAN</DistanceMeters>
          </Trackpoint>
          <Trackpoint>
            <Time>2021-04-03T12:50:10.000Z</Time>
            <Position>
              <LatitudeDegrees>42.30771325528621673583984375</LatitudeDegrees>
              <LongitudeDegrees>2.50463495962321758270263671875</LongitudeDegrees>
            </Position>
            <AltitudeMeters>470.600006103515625</AltitudeMeters>
            <DistanceMeters>NAN</DistanceMeters>
          </Trackpoint>
          <Trackpoint>
            <Time>2021-04-03T12:50:13.000Z</Time>
            <Position>
              <LatitudeDegrees>42.30774275958538055419921875</LatitudeDegrees>
              <LongitudeDegrees>2.5046137534081935882568359375</LongitudeDegrees>
            </Position>
            <AltitudeMeters>470.79998779296875</AltitudeMeters>
            <DistanceMeters>NAN</DistanceMeters>
          </Trackpoint>
          <Trackpoint>
            <Time>2021-04-03T12:50:17.000Z</Time>
            <Position>
              <LatitudeDegrees>42.307763211429119110107421875</LatitudeDegrees>
              <LongitudeDegrees>2.5045654736459255218505859375</LongitudeDegrees>
            </Position>
            <AltitudeMeters>470.79998779296875</AltitudeMeters>
            <DistanceMeters>NAN</DistanceMeters>
          </Trackpoint>
          <Trackpoint>
            <Time>2021-04-03T12:50:23.000Z</Time>
            <Position>
              <LatitudeDegrees>42.307818196713924407958984375</LatitudeDegrees>
              <LongitudeDegrees>2.50448861159384250640869140625</LongitudeDegrees>
            </Position>
            <AltitudeMeters>470</AltitudeMeters>
            <DistanceMeters>NAN</DistanceMeters>
          </Trackpoint>
          <Trackpoint>
            <Time>2021-04-03T12:50:25.000Z</Time>
            <Position>
              <LatitudeDegrees>42.30781744234263896942138671875</LatitudeDegrees>
              <LongitudeDegrees>2.5044662319123744964599609375</LongitudeDegrees>
            </Position>
            <AltitudeMeters>469.600006103515625</AltitudeMeters>
            <DistanceMeters>NAN</DistanceMeters>
          </Trackpoint>
          <Trackpoint>
            <Time>2021-04-03T12:50:28.000Z</Time>
            <Position>
              <LatitudeDegrees>42.307824902236461639404296875</LatitudeDegrees>
              <LongitudeDegrees>2.50442608259618282318115234375</LongitudeDegrees>
            </Position>
            <AltitudeMeters>468.79998779296875</AltitudeMeters>
            <DistanceMeters>NAN</DistanceMeters>
          </Trackpoint>
          <Trackpoint>
            <Time>2021-04-03T12:50:31.000Z</Time>
            <Position>
              <LatitudeDegrees>42.3078331165015697479248046875</LatitudeDegrees>
              <LongitudeDegrees>2.50438652001321315765380859375</LongitudeDegrees>
            </Position>
            <AltitudeMeters>468.600006103515625</AltitudeMeters>
            <DistanceMeters>NAN</DistanceMeters>
          </Trackpoint>
          <Trackpoint>
            <Time>2021-04-03T12:50:32.000Z</Time>
            <Position>
              <LatitudeDegrees>42.30783906765282154083251953125</LatitudeDegrees>
              <LongitudeDegrees>2.504367828369140625</LongitudeDegrees>
            </Position>
            <AltitudeMeters>468.399993896484375</AltitudeMeters>
            <DistanceMeters>NAN</DistanceMeters>
          </Trackpoint>
          <Trackpoint>
            <Time>2021-04-03T12:50:34.000Z</Time>
            <Position>
              <LatitudeDegrees>42.30784795247018337249755859375</LatitudeDegrees>
              <LongitudeDegrees>2.50432969070971012115478515625</LongitudeDegrees>
            </Position>
            <AltitudeMeters>468.20001220703125</AltitudeMeters>
            <DistanceMeters>NAN</DistanceMeters>
          </Trackpoint>
          <Trackpoint>
            <Time>2021-04-03T12:50:36.000Z</Time>
            <Position>
              <LatitudeDegrees>42.3078431747853755950927734375</LatitudeDegrees>
              <LongitudeDegrees>2.50429607927799224853515625</LongitudeDegrees>
            </Position>
            <AltitudeMeters>467.79998779296875</AltitudeMeters>
            <DistanceMeters>NAN</DistanceMeters>
          </Trackpoint>
          <Trackpoint>
            <Time>2021-04-03T12:50:39.000Z</Time>
            <Position>
              <LatitudeDegrees>42.30786069296300411224365234375</LatitudeDegrees>
              <LongitudeDegrees>2.50423572957515716552734375</LongitudeDegrees>
            </Position>
            <AltitudeMeters>467.20001220703125</AltitudeMeters>
            <DistanceMeters>NAN</DistanceMeters>
          </Trackpoint>
          <Trackpoint>
            <Time>2021-04-03T12:50:44.000Z</Time>
            <Position>
              <LatitudeDegrees>42.307874523103237152099609375</LatitudeDegrees>
              <LongitudeDegrees>2.50415786169469356536865234375</LongitudeDegrees>
            </Position>
            <AltitudeMeters>466.79998779296875</AltitudeMeters>
            <DistanceMeters>NAN</DistanceMeters>
          </Trackpoint>
          <Trackpoint>
            <Time>2021-04-03T12:50:46.000Z</Time>
            <Position>
              <LatitudeDegrees>42.307862453162670135498046875</LatitudeDegrees>
              <LongitudeDegrees>2.50413707457482814788818359375</LongitudeDegrees>
            </Position>
            <AltitudeMeters>466.600006103515625</AltitudeMeters>
            <DistanceMeters>NAN</DistanceMeters>
          </Trackpoint>
          <Trackpoint>
            <Time>2021-04-03T12:50:50.000Z</Time>
            <Position>
              <LatitudeDegrees>42.307862453162670135498046875</LatitudeDegrees>
              <LongitudeDegrees>2.504083178937435150146484375</LongitudeDegrees>
            </Position>
            <AltitudeMeters>466.600006103515625</AltitudeMeters>
            <DistanceMeters>NAN</DistanceMeters>
          </Trackpoint>
          <Trackpoint>
            <Time>2021-04-03T12:50:52.000Z</Time>
            <Position>
              <LatitudeDegrees>42.30786941014230251312255859375</LatitudeDegrees>
              <LongitudeDegrees>2.504050321877002716064453125</LongitudeDegrees>
            </Position>
            <AltitudeMeters>466.600006103515625</AltitudeMeters>
            <DistanceMeters>NAN</DistanceMeters>
          </Trackpoint>
          <Trackpoint>
            <Time>2021-04-03T12:50:59.000Z</Time>
            <Position>
              <LatitudeDegrees>42.3078948073089122772216796875</LatitudeDegrees>
              <LongitudeDegrees>2.50390321947634220123291015625</LongitudeDegrees>
            </Position>
            <AltitudeMeters>466.600006103515625</AltitudeMeters>
            <DistanceMeters>NAN</DistanceMeters>
          </Trackpoint>
          <Trackpoint>
            <Time>2021-04-03T12:51:00.000Z</Time>
            <Position>
              <LatitudeDegrees>42.307910062372684478759765625</LatitudeDegrees>
              <LongitudeDegrees>2.5038929097354412078857421875</LongitudeDegrees>
            </Position>
            <AltitudeMeters>466.600006103515625</AltitudeMeters>
            <DistanceMeters>NAN</DistanceMeters>
          </Trackpoint>
          <Trackpoint>
            <Time>2021-04-03T12:51:03.000Z</Time>
            <Position>
              <LatitudeDegrees>42.3079407401382923126220703125</LatitudeDegrees>
              <LongitudeDegrees>2.5038520060479640960693359375</LongitudeDegrees>
            </Position>
            <AltitudeMeters>466.600006103515625</AltitudeMeters>
            <DistanceMeters>NAN</DistanceMeters>
          </Trackpoint>
          <Trackpoint>
            <Time>2021-04-03T12:51:05.000Z</Time>
            <Position>
              <LatitudeDegrees>42.3079461045563220977783203125</LatitudeDegrees>
              <LongitudeDegrees>2.50382124446332454681396484375</LongitudeDegrees>
            </Position>
            <AltitudeMeters>466.600006103515625</AltitudeMeters>
            <DistanceMeters>NAN</DistanceMeters>
          </Trackpoint>
          <Trackpoint>
            <Time>2021-04-03T12:51:06.000Z</Time>
            <Position>
              <LatitudeDegrees>42.30794820003211498260498046875</LatitudeDegrees>
              <LongitudeDegrees>2.50380917452275753021240234375</LongitudeDegrees>
            </Position>
            <AltitudeMeters>466.600006103515625</AltitudeMeters>
            <DistanceMeters>NAN</DistanceMeters>
          </Trackpoint>
          <Trackpoint>
            <Time>2021-04-03T12:51:11.000Z</Time>
            <Position>
              <LatitudeDegrees>42.30795976705849170684814453125</LatitudeDegrees>
              <LongitudeDegrees>2.5037415325641632080078125</LongitudeDegrees>
            </Position>
            <AltitudeMeters>466.79998779296875</AltitudeMeters>
            <DistanceMeters>NAN</DistanceMeters>
          </Trackpoint>
          <Trackpoint>
            <Time>2021-04-03T12:51:18.000Z</Time>
            <Position>
              <LatitudeDegrees>42.3079204559326171875</LatitudeDegrees>
              <LongitudeDegrees>2.50363080762326717376708984375</LongitudeDegrees>
            </Position>
            <AltitudeMeters>467</AltitudeMeters>
            <DistanceMeters>NAN</DistanceMeters>
          </Trackpoint>
          <Trackpoint>
            <Time>2021-04-03T12:51:22.000Z</Time>
            <Position>
              <LatitudeDegrees>42.307891957461833953857421875</LatitudeDegrees>
              <LongitudeDegrees>2.50357196666300296783447265625</LongitudeDegrees>
            </Position>
            <AltitudeMeters>467.20001220703125</AltitudeMeters>
            <DistanceMeters>NAN</DistanceMeters>
          </Trackpoint>
          <Trackpoint>
            <Time>2021-04-03T12:51:24.000Z</Time>
            <Position>
              <LatitudeDegrees>42.30788290500640869140625</LatitudeDegrees>
              <LongitudeDegrees>2.50353433191776275634765625</LongitudeDegrees>
            </Position>
            <AltitudeMeters>467.399993896484375</AltitudeMeters>
            <DistanceMeters>NAN</DistanceMeters>
          </Trackpoint>
          <Trackpoint>
            <Time>2021-04-03T12:51:25.000Z</Time>
            <Position>
              <LatitudeDegrees>42.30788365937769412994384765625</LatitudeDegrees>
              <LongitudeDegrees>2.50351580791175365447998046875</LongitudeDegrees>
            </Position>
            <AltitudeMeters>467.399993896484375</AltitudeMeters>
            <DistanceMeters>NAN</DistanceMeters>
          </Trackpoint>
          <Trackpoint>
            <Time>2021-04-03T12:51:28.000Z</Time>
            <Position>
              <LatitudeDegrees>42.30787628330290317535400390625</LatitudeDegrees>
              <LongitudeDegrees>2.5034781731665134429931640625</LongitudeDegrees>
            </Position>
            <AltitudeMeters>467.399993896484375</AltitudeMeters>
            <DistanceMeters>NAN</DistanceMeters>
          </Trackpoint>
          <Trackpoint>
            <Time>2021-04-03T12:51:29.000Z</Time>
            <Position>
              <LatitudeDegrees>42.3078689910471439361572265625</LatitudeDegrees>
              <LongitudeDegrees>2.50346870161592960357666015625</LongitudeDegrees>
            </Position>
            <AltitudeMeters>467.399993896484375</AltitudeMeters>
            <DistanceMeters>NAN</DistanceMeters>
          </Trackpoint>
          <Trackpoint>
            <Time>2021-04-03T12:51:31.000Z</Time>
            <Position>
              <LatitudeDegrees>42.30786019004881381988525390625</LatitudeDegrees>
              <LongitudeDegrees>2.5034352578222751617431640625</LongitudeDegrees>
            </Position>
            <AltitudeMeters>467.399993896484375</AltitudeMeters>
            <DistanceMeters>NAN</DistanceMeters>
          </Trackpoint>
          <Trackpoint>
            <Time>2021-04-03T12:51:34.000Z</Time>
            <Position>
              <LatitudeDegrees>42.3078528977930545806884765625</LatitudeDegrees>
              <LongitudeDegrees>2.503375075757503509521484375</LongitudeDegrees>
            </Position>
            <AltitudeMeters>467.399993896484375</AltitudeMeters>
            <DistanceMeters>NAN</DistanceMeters>
          </Trackpoint>
          <Trackpoint>
            <Time>2021-04-03T12:51:36.000Z</Time>
            <Position>
              <LatitudeDegrees>42.30785029940307140350341796875</LatitudeDegrees>
              <LongitudeDegrees>2.5033467449247837066650390625</LongitudeDegrees>
            </Position>
            <AltitudeMeters>467.399993896484375</AltitudeMeters>
            <DistanceMeters>NAN</DistanceMeters>
          </Trackpoint>
          <Trackpoint>
            <Time>2021-04-03T12:51:38.000Z</Time>
            <Position>
              <LatitudeDegrees>42.30785071849822998046875</LatitudeDegrees>
              <LongitudeDegrees>2.5033051706850528717041015625</LongitudeDegrees>
            </Position>
            <AltitudeMeters>467.600006103515625</AltitudeMeters>
            <DistanceMeters>NAN</DistanceMeters>
          </Trackpoint>
          <Trackpoint>
            <Time>2021-04-03T12:51:40.000Z</Time>
            <Position>
              <LatitudeDegrees>42.30785817839205265045166015625</LatitudeDegrees>
              <LongitudeDegrees>2.5032656081020832061767578125</LongitudeDegrees>
            </Position>
            <AltitudeMeters>467.600006103515625</AltitudeMeters>
            <DistanceMeters>NAN</DistanceMeters>
          </Trackpoint>
          <Trackpoint>
            <Time>2021-04-03T12:51:45.000Z</Time>
            <Position>
              <LatitudeDegrees>42.3078602738678455352783203125</LatitudeDegrees>
              <LongitudeDegrees>2.50320333056151866912841796875</LongitudeDegrees>
            </Position>
            <AltitudeMeters>467.79998779296875</AltitudeMeters>
            <DistanceMeters>NAN</DistanceMeters>
          </Trackpoint>
          <Trackpoint>
            <Time>2021-04-03T12:51:50.000Z</Time>
            <Position>
              <LatitudeDegrees>42.307891286909580230712890625</LatitudeDegrees>
              <LongitudeDegrees>2.5031167455017566680908203125</LongitudeDegrees>
            </Position>
            <AltitudeMeters>467.79998779296875</AltitudeMeters>
            <DistanceMeters>NAN</DistanceMeters>
          </Trackpoint>
          <Trackpoint>
            <Time>2021-04-03T12:51:51.000Z</Time>
            <Position>
              <LatitudeDegrees>42.30788835324347019195556640625</LatitudeDegrees>
              <LongitudeDegrees>2.5030976347625255584716796875</LongitudeDegrees>
            </Position>
            <AltitudeMeters>467.79998779296875</AltitudeMeters>
            <DistanceMeters>NAN</DistanceMeters>
          </Trackpoint>
          <Trackpoint>
            <Time>2021-04-03T12:51:53.000Z</Time>
            <Position>
              <LatitudeDegrees>42.30788617394864559173583984375</LatitudeDegrees>
              <LongitudeDegrees>2.50305849127471446990966796875</LongitudeDegrees>
            </Position>
            <AltitudeMeters>467.79998779296875</AltitudeMeters>
            <DistanceMeters>NAN</DistanceMeters>
          </Trackpoint>
          <Trackpoint>
            <Time>2021-04-03T12:51:58.000Z</Time>
            <Position>
              <LatitudeDegrees>42.30790679343044757843017578125</LatitudeDegrees>
              <LongitudeDegrees>2.50294432975351810455322265625</LongitudeDegrees>
            </Position>
            <AltitudeMeters>467.79998779296875</AltitudeMeters>
            <DistanceMeters>NAN</DistanceMeters>
          </Trackpoint>
          <Trackpoint>
            <Time>2021-04-03T12:52:00.000Z</Time>
            <Position>
              <LatitudeDegrees>42.30791634880006313323974609375</LatitudeDegrees>
              <LongitudeDegrees>2.50289755873382091522216796875</LongitudeDegrees>
            </Position>
            <AltitudeMeters>467.79998779296875</AltitudeMeters>
            <DistanceMeters>NAN</DistanceMeters>
          </Trackpoint>
          <Trackpoint>
            <Time>2021-04-03T12:52:02.000Z</Time>
            <Position>
              <LatitudeDegrees>42.30794392526149749755859375</LatitudeDegrees>
              <LongitudeDegrees>2.502841986715793609619140625</LongitudeDegrees>
            </Position>
            <AltitudeMeters>467.79998779296875</AltitudeMeters>
            <DistanceMeters>NAN</DistanceMeters>
          </Trackpoint>
          <Trackpoint>
            <Time>2021-04-03T12:52:04.000Z</Time>
            <Position>
              <LatitudeDegrees>42.30795088224112987518310546875</LatitudeDegrees>
              <LongitudeDegrees>2.5027891807258129119873046875</LongitudeDegrees>
            </Position>
            <AltitudeMeters>467.79998779296875</AltitudeMeters>
            <DistanceMeters>NAN</DistanceMeters>
          </Trackpoint>
          <Trackpoint>
            <Time>2021-04-03T12:52:07.000Z</Time>
            <Position>
              <LatitudeDegrees>42.3079625330865383148193359375</LatitudeDegrees>
              <LongitudeDegrees>2.5027338601648807525634765625</LongitudeDegrees>
            </Position>
            <AltitudeMeters>468</AltitudeMeters>
            <DistanceMeters>NAN</DistanceMeters>
          </Trackpoint>
          <Trackpoint>
            <Time>2021-04-03T12:52:12.000Z</Time>
            <Position>
              <LatitudeDegrees>42.3079856671392917633056640625</LatitudeDegrees>
              <LongitudeDegrees>2.5026644580066204071044921875</LongitudeDegrees>
            </Position>
            <AltitudeMeters>468</AltitudeMeters>
            <DistanceMeters>NAN</DistanceMeters>
          </Trackpoint>
          <Trackpoint>
            <Time>2021-04-03T12:52:15.000Z</Time>
            <Position>
              <LatitudeDegrees>42.30799128301441669464111328125</LatitudeDegrees>
              <LongitudeDegrees>2.50262439250946044921875</LongitudeDegrees>
            </Position>
            <AltitudeMeters>468</AltitudeMeters>
            <DistanceMeters>NAN</DistanceMeters>
          </Trackpoint>
          <Trackpoint>
            <Time>2021-04-03T12:52:18.000Z</Time>
            <Position>
              <LatitudeDegrees>42.3080091364681720733642578125</LatitudeDegrees>
              <LongitudeDegrees>2.5025826506316661834716796875</LongitudeDegrees>
            </Position>
            <AltitudeMeters>468.20001220703125</AltitudeMeters>
            <DistanceMeters>NAN</DistanceMeters>
          </Trackpoint>
          <Trackpoint>
            <Time>2021-04-03T12:52:21.000Z</Time>
            <Position>
              <LatitudeDegrees>42.30801927857100963592529296875</LatitudeDegrees>
              <LongitudeDegrees>2.50254283659160137176513671875</LongitudeDegrees>
            </Position>
            <AltitudeMeters>468.20001220703125</AltitudeMeters>
            <DistanceMeters>NAN</DistanceMeters>
          </Trackpoint>
          <Trackpoint>
            <Time>2021-04-03T12:52:26.000Z</Time>
            <Position>
              <LatitudeDegrees>42.30801366269588470458984375</LatitudeDegrees>
              <LongitudeDegrees>2.50248231925070285797119140625</LongitudeDegrees>
            </Position>
            <AltitudeMeters>468.20001220703125</AltitudeMeters>
            <DistanceMeters>NAN</DistanceMeters>
          </Trackpoint>
          <Trackpoint>
            <Time>2021-04-03T12:52:29.000Z</Time>
            <Position>
              <LatitudeDegrees>42.30799547396600246429443359375</LatitudeDegrees>
              <LongitudeDegrees>2.50244795344769954681396484375</LongitudeDegrees>
            </Position>
            <AltitudeMeters>468.20001220703125</AltitudeMeters>
            <DistanceMeters>NAN</DistanceMeters>
          </Trackpoint>
          <Trackpoint>
            <Time>2021-04-03T12:52:31.000Z</Time>
            <Position>
              <LatitudeDegrees>42.30800368823111057281494140625</LatitudeDegrees>
              <LongitudeDegrees>2.50242029316723346710205078125</LongitudeDegrees>
            </Position>
            <AltitudeMeters>468.20001220703125</AltitudeMeters>
            <DistanceMeters>NAN</DistanceMeters>
          </Trackpoint>
          <Trackpoint>
            <Time>2021-04-03T12:52:34.000Z</Time>
            <Position>
              <LatitudeDegrees>42.30801911093294620513916015625</LatitudeDegrees>
              <LongitudeDegrees>2.5023898668587207794189453125</LongitudeDegrees>
            </Position>
            <AltitudeMeters>468</AltitudeMeters>
            <DistanceMeters>NAN</DistanceMeters>
          </Trackpoint>
          <Trackpoint>
            <Time>2021-04-03T12:52:35.000Z</Time>
            <Position>
              <LatitudeDegrees>42.3080272413790225982666015625</LatitudeDegrees>
              <LongitudeDegrees>2.50237402506172657012939453125</LongitudeDegrees>
            </Position>
            <AltitudeMeters>468</AltitudeMeters>
            <DistanceMeters>NAN</DistanceMeters>
          </Trackpoint>
          <Trackpoint>
            <Time>2021-04-03T12:52:40.000Z</Time>
            <Position>
              <LatitudeDegrees>42.30800754390656948089599609375</LatitudeDegrees>
              <LongitudeDegrees>2.50231795012950897216796875</LongitudeDegrees>
            </Position>
            <AltitudeMeters>468</AltitudeMeters>
            <DistanceMeters>NAN</DistanceMeters>
          </Trackpoint>
          <Trackpoint>
            <Time>2021-04-03T12:52:43.000Z</Time>
            <Position>
              <LatitudeDegrees>42.30802279897034168243408203125</LatitudeDegrees>
              <LongitudeDegrees>2.50226187519729137420654296875</LongitudeDegrees>
            </Position>
            <AltitudeMeters>468</AltitudeMeters>
            <DistanceMeters>NAN</DistanceMeters>
          </Trackpoint>
          <Trackpoint>
            <Time>2021-04-03T12:52:45.000Z</Time>
            <Position>
              <LatitudeDegrees>42.3080403171479701995849609375</LatitudeDegrees>
              <LongitudeDegrees>2.5022158585488796234130859375</LongitudeDegrees>
            </Position>
            <AltitudeMeters>468.20001220703125</AltitudeMeters>
            <DistanceMeters>NAN</DistanceMeters>
          </Trackpoint>
          <Trackpoint>
            <Time>2021-04-03T12:52:46.000Z</Time>
            <Position>
              <LatitudeDegrees>42.3080480284988880157470703125</LatitudeDegrees>
              <LongitudeDegrees>2.5022041238844394683837890625</LongitudeDegrees>
            </Position>
            <AltitudeMeters>468.20001220703125</AltitudeMeters>
            <DistanceMeters>NAN</DistanceMeters>
          </Trackpoint>
          <Trackpoint>
            <Time>2021-04-03T12:52:49.000Z</Time>
            <Position>
              <LatitudeDegrees>42.3080693185329437255859375</LatitudeDegrees>
              <LongitudeDegrees>2.50216866843402385711669921875</LongitudeDegrees>
            </Position>
            <AltitudeMeters>468.20001220703125</AltitudeMeters>
            <DistanceMeters>NAN</DistanceMeters>
          </Trackpoint>
          <Trackpoint>
            <Time>2021-04-03T12:52:50.000Z</Time>
            <Position>
              <LatitudeDegrees>42.30807610787451267242431640625</LatitudeDegrees>
              <LongitudeDegrees>2.50215106643736362457275390625</LongitudeDegrees>
            </Position>
            <AltitudeMeters>468.20001220703125</AltitudeMeters>
            <DistanceMeters>NAN</DistanceMeters>
          </Trackpoint>
          <Trackpoint>
            <Time>2021-04-03T12:52:53.000Z</Time>
            <Position>
              <LatitudeDegrees>42.3080869205296039581298828125</LatitudeDegrees>
              <LongitudeDegrees>2.5021045468747615814208984375</LongitudeDegrees>
            </Position>
            <AltitudeMeters>468.20001220703125</AltitudeMeters>
            <DistanceMeters>NAN</DistanceMeters>
          </Trackpoint>
          <Trackpoint>
            <Time>2021-04-03T12:52:55.000Z</Time>
            <Position>
              <LatitudeDegrees>42.30810754001140594482421875</LatitudeDegrees>
              <LongitudeDegrees>2.50207847915589809417724609375</LongitudeDegrees>
            </Position>
            <AltitudeMeters>468.20001220703125</AltitudeMeters>
            <DistanceMeters>NAN</DistanceMeters>
          </Trackpoint>
          <Trackpoint>
            <Time>2021-04-03T12:53:00.000Z</Time>
            <Position>
              <LatitudeDegrees>42.3080961406230926513671875</LatitudeDegrees>
              <LongitudeDegrees>2.501974962651729583740234375</LongitudeDegrees>
            </Position>
            <AltitudeMeters>468.20001220703125</AltitudeMeters>
            <DistanceMeters>NAN</DistanceMeters>
          </Trackpoint>
          <Trackpoint>
            <Time>2021-04-03T12:53:05.000Z</Time>
            <Position>
              <LatitudeDegrees>42.3081241361796855926513671875</LatitudeDegrees>
              <LongitudeDegrees>2.50189038924872875213623046875</LongitudeDegrees>
            </Position>
            <AltitudeMeters>468.600006103515625</AltitudeMeters>
            <DistanceMeters>NAN</DistanceMeters>
          </Trackpoint>
          <Trackpoint>
            <Time>2021-04-03T12:53:07.000Z</Time>
            <Position>
              <LatitudeDegrees>42.30812556110322475433349609375</LatitudeDegrees>
              <LongitudeDegrees>2.501852922141551971435546875</LongitudeDegrees>
            </Position>
            <AltitudeMeters>468.79998779296875</AltitudeMeters>
            <DistanceMeters>NAN</DistanceMeters>
          </Trackpoint>
          <Trackpoint>
            <Time>2021-04-03T12:53:10.000Z</Time>
            <Position>
              <LatitudeDegrees>42.3081258125603199005126953125</LatitudeDegrees>
              <LongitudeDegrees>2.5018138624727725982666015625</LongitudeDegrees>
            </Position>
            <AltitudeMeters>468.79998779296875</AltitudeMeters>
            <DistanceMeters>NAN</DistanceMeters>
          </Trackpoint>
          <Trackpoint>
            <Time>2021-04-03T12:53:12.000Z</Time>
            <Position>
              <LatitudeDegrees>42.30813712812960147857666015625</LatitudeDegrees>
              <LongitudeDegrees>2.5017826817929744720458984375</LongitudeDegrees>
            </Position>
            <AltitudeMeters>469</AltitudeMeters>
            <DistanceMeters>NAN</DistanceMeters>
          </Trackpoint>
          <Trackpoint>
            <Time>2021-04-03T12:53:17.000Z</Time>
            <Position>
              <LatitudeDegrees>42.30817149393260478973388671875</LatitudeDegrees>
              <LongitudeDegrees>2.501702718436717987060546875</LongitudeDegrees>
            </Position>
            <AltitudeMeters>469.399993896484375</AltitudeMeters>
            <DistanceMeters>NAN</DistanceMeters>
          </Trackpoint>
          <Trackpoint>
            <Time>2021-04-03T12:53:19.000Z</Time>
            <Position>
              <LatitudeDegrees>42.30817585252225399017333984375</LatitudeDegrees>
              <LongitudeDegrees>2.50167329795658588409423828125</LongitudeDegrees>
            </Position>
            <AltitudeMeters>469.20001220703125</AltitudeMeters>
            <DistanceMeters>NAN</DistanceMeters>
          </Trackpoint>
          <Trackpoint>
            <Time>2021-04-03T12:53:21.000Z</Time>
            <Position>
              <LatitudeDegrees>42.3081771098077297210693359375</LatitudeDegrees>
              <LongitudeDegrees>2.50164178200066089630126953125</LongitudeDegrees>
            </Position>
            <AltitudeMeters>469.399993896484375</AltitudeMeters>
            <DistanceMeters>NAN</DistanceMeters>
          </Trackpoint>
          <Trackpoint>
            <Time>2021-04-03T12:53:23.000Z</Time>
            <Position>
              <LatitudeDegrees>42.3081744275987148284912109375</LatitudeDegrees>
              <LongitudeDegrees>2.5016090087592601776123046875</LongitudeDegrees>
            </Position>
            <AltitudeMeters>469.600006103515625</AltitudeMeters>
            <DistanceMeters>NAN</DistanceMeters>
          </Trackpoint>
          <Trackpoint>
            <Time>2021-04-03T12:53:25.000Z</Time>
            <Position>
              <LatitudeDegrees>42.308176271617412567138671875</LatitudeDegrees>
              <LongitudeDegrees>2.5015791691839694976806640625</LongitudeDegrees>
            </Position>
            <AltitudeMeters>469.600006103515625</AltitudeMeters>
            <DistanceMeters>NAN</DistanceMeters>
          </Trackpoint>
          <Trackpoint>
            <Time>2021-04-03T12:53:27.000Z</Time>
            <Position>
              <LatitudeDegrees>42.308183647692203521728515625</LatitudeDegrees>
              <LongitudeDegrees>2.50154891051352024078369140625</LongitudeDegrees>
            </Position>
            <AltitudeMeters>469.600006103515625</AltitudeMeters>
            <DistanceMeters>NAN</DistanceMeters>
          </Trackpoint>
          <Trackpoint>
            <Time>2021-04-03T12:53:29.000Z</Time>
            <Position>
              <LatitudeDegrees>42.30819404125213623046875</LatitudeDegrees>
              <LongitudeDegrees>2.50152535736560821533203125</LongitudeDegrees>
            </Position>
            <AltitudeMeters>469.79998779296875</AltitudeMeters>
            <DistanceMeters>NAN</DistanceMeters>
          </Trackpoint>
          <Trackpoint>
            <Time>2021-04-03T12:53:31.000Z</Time>
            <Position>
              <LatitudeDegrees>42.30819605290889739990234375</LatitudeDegrees>
              <LongitudeDegrees>2.50149727798998355865478515625</LongitudeDegrees>
            </Position>
            <AltitudeMeters>469.79998779296875</AltitudeMeters>
            <DistanceMeters>NAN</DistanceMeters>
          </Trackpoint>
          <Trackpoint>
            <Time>2021-04-03T12:53:34.000Z</Time>
            <Position>
              <LatitudeDegrees>42.30818876065313816070556640625</LatitudeDegrees>
              <LongitudeDegrees>2.501447238028049468994140625</LongitudeDegrees>
            </Position>
            <AltitudeMeters>469.79998779296875</AltitudeMeters>
            <DistanceMeters>NAN</DistanceMeters>
          </Trackpoint>
          <Trackpoint>
            <Time>2021-04-03T12:53:38.000Z</Time>
            <Position>
              <LatitudeDegrees>42.30816713534295558929443359375</LatitudeDegrees>
              <LongitudeDegrees>2.50140893273055553436279296875</LongitudeDegrees>
            </Position>
            <AltitudeMeters>470</AltitudeMeters>
            <DistanceMeters>NAN</DistanceMeters>
          </Trackpoint>
          <Trackpoint>
            <Time>2021-04-03T12:53:45.000Z</Time>
            <Position>
              <LatitudeDegrees>42.3081626929342746734619140625</LatitudeDegrees>
              <LongitudeDegrees>2.501284293830394744873046875</LongitudeDegrees>
            </Position>
            <AltitudeMeters>470</AltitudeMeters>
            <DistanceMeters>NAN</DistanceMeters>
          </Trackpoint>
          <Trackpoint>
            <Time>2021-04-03T12:53:47.000Z</Time>
            <Position>
              <LatitudeDegrees>42.3081492818892002105712890625</LatitudeDegrees>
              <LongitudeDegrees>2.50125981867313385009765625</LongitudeDegrees>
            </Position>
            <AltitudeMeters>470</AltitudeMeters>
            <DistanceMeters>NAN</DistanceMeters>
          </Trackpoint>
          <Trackpoint>
            <Time>2021-04-03T12:53:52.000Z</Time>
            <Position>
              <LatitudeDegrees>42.3081291653215885162353515625</LatitudeDegrees>
              <LongitudeDegrees>2.50117306597530841827392578125</LongitudeDegrees>
            </Position>
            <AltitudeMeters>470</AltitudeMeters>
            <DistanceMeters>NAN</DistanceMeters>
          </Trackpoint>
          <Trackpoint>
            <Time>2021-04-03T12:53:53.000Z</Time>
            <Position>
              <LatitudeDegrees>42.30812338180840015411376953125</LatitudeDegrees>
              <LongitudeDegrees>2.501162253320217132568359375</LongitudeDegrees>
            </Position>
            <AltitudeMeters>470</AltitudeMeters>
            <DistanceMeters>NAN</DistanceMeters>
          </Trackpoint>
          <Trackpoint>
            <Time>2021-04-03T12:53:56.000Z</Time>
            <Position>
              <LatitudeDegrees>42.30811432935297489166259765625</LatitudeDegrees>
              <LongitudeDegrees>2.50112780369818210601806640625</LongitudeDegrees>
            </Position>
            <AltitudeMeters>470.20001220703125</AltitudeMeters>
            <DistanceMeters>NAN</DistanceMeters>
          </Trackpoint>
          <Trackpoint>
            <Time>2021-04-03T12:54:01.000Z</Time>
            <Position>
              <LatitudeDegrees>42.3081375472247600555419921875</LatitudeDegrees>
              <LongitudeDegrees>2.50106326304376125335693359375</LongitudeDegrees>
            </Position>
            <AltitudeMeters>470.20001220703125</AltitudeMeters>
            <DistanceMeters>NAN</DistanceMeters>
          </Trackpoint>
          <Trackpoint>
            <Time>2021-04-03T12:54:02.000Z</Time>
            <Position>
              <LatitudeDegrees>42.30814517475664615631103515625</LatitudeDegrees>
              <LongitudeDegrees>2.50104012899100780487060546875</LongitudeDegrees>
            </Position>
            <AltitudeMeters>470.20001220703125</AltitudeMeters>
            <DistanceMeters>NAN</DistanceMeters>
          </Trackpoint>
          <Trackpoint>
            <Time>2021-04-03T12:54:07.000Z</Time>
            <Position>
              <LatitudeDegrees>42.3081529699265956878662109375</LatitudeDegrees>
              <LongitudeDegrees>2.50096519477665424346923828125</LongitudeDegrees>
            </Position>
            <AltitudeMeters>470.20001220703125</AltitudeMeters>
            <DistanceMeters>NAN</DistanceMeters>
          </Trackpoint>
          <Trackpoint>
            <Time>2021-04-03T12:54:12.000Z</Time>
            <Position>
              <LatitudeDegrees>42.30817618779838085174560546875</LatitudeDegrees>
              <LongitudeDegrees>2.50088539905846118927001953125</LongitudeDegrees>
            </Position>
            <AltitudeMeters>470.399993896484375</AltitudeMeters>
            <DistanceMeters>NAN</DistanceMeters>
          </Trackpoint>
          <Trackpoint>
            <Time>2021-04-03T12:54:19.000Z</Time>
            <Position>
              <LatitudeDegrees>42.3082170076668262481689453125</LatitudeDegrees>
              <LongitudeDegrees>2.50076034106314182281494140625</LongitudeDegrees>
            </Position>
            <AltitudeMeters>470.79998779296875</AltitudeMeters>
            <DistanceMeters>NAN</DistanceMeters>
          </Trackpoint>
          <Trackpoint>
            <Time>2021-04-03T12:54:25.000Z</Time>
            <Position>
              <LatitudeDegrees>42.308225221931934356689453125</LatitudeDegrees>
              <LongitudeDegrees>2.5006239674985408782958984375</LongitudeDegrees>
            </Position>
            <AltitudeMeters>470.79998779296875</AltitudeMeters>
            <DistanceMeters>NAN</DistanceMeters>
          </Trackpoint>
          <Trackpoint>
            <Time>2021-04-03T12:54:28.000Z</Time>
            <Position>
              <LatitudeDegrees>42.3082361184060573577880859375</LatitudeDegrees>
              <LongitudeDegrees>2.5005699880421161651611328125</LongitudeDegrees>
            </Position>
            <AltitudeMeters>471</AltitudeMeters>
            <DistanceMeters>NAN</DistanceMeters>
          </Trackpoint>
          <Trackpoint>
            <Time>2021-04-03T12:54:31.000Z</Time>
            <Position>
              <LatitudeDegrees>42.3082287423312664031982421875</LatitudeDegrees>
              <LongitudeDegrees>2.5005227141082286834716796875</LongitudeDegrees>
            </Position>
            <AltitudeMeters>471.20001220703125</AltitudeMeters>
            <DistanceMeters>NAN</DistanceMeters>
          </Trackpoint>
          <Trackpoint>
            <Time>2021-04-03T12:54:32.000Z</Time>
            <Position>
              <LatitudeDegrees>42.308225221931934356689453125</LatitudeDegrees>
              <LongitudeDegrees>2.500505112111568450927734375</LongitudeDegrees>
            </Position>
            <AltitudeMeters>471.399993896484375</AltitudeMeters>
            <DistanceMeters>NAN</DistanceMeters>
          </Trackpoint>
          <Trackpoint>
            <Time>2021-04-03T12:54:34.000Z</Time>
            <Position>
              <LatitudeDegrees>42.3082270659506320953369140625</LatitudeDegrees>
              <LongitudeDegrees>2.5004804693162441253662109375</LongitudeDegrees>
            </Position>
            <AltitudeMeters>471.600006103515625</AltitudeMeters>
            <DistanceMeters>NAN</DistanceMeters>
          </Trackpoint>
          <Trackpoint>
            <Time>2021-04-03T12:54:36.000Z</Time>
            <Position>
              <LatitudeDegrees>42.3082377947866916656494140625</LatitudeDegrees>
              <LongitudeDegrees>2.50045607797801494598388671875</LongitudeDegrees>
            </Position>
            <AltitudeMeters>471.600006103515625</AltitudeMeters>
            <DistanceMeters>NAN</DistanceMeters>
          </Trackpoint>
          <Trackpoint>
            <Time>2021-04-03T12:54:40.000Z</Time>
            <Position>
              <LatitudeDegrees>42.3082538880407810211181640625</LatitudeDegrees>
              <LongitudeDegrees>2.50041500665247440338134765625</LongitudeDegrees>
            </Position>
            <AltitudeMeters>472</AltitudeMeters>
            <DistanceMeters>NAN</DistanceMeters>
          </Trackpoint>
          <Trackpoint>
            <Time>2021-04-03T12:54:41.000Z</Time>
            <Position>
              <LatitudeDegrees>42.30826034210622310638427734375</LatitudeDegrees>
              <LongitudeDegrees>2.50040260143578052520751953125</LongitudeDegrees>
            </Position>
            <AltitudeMeters>472</AltitudeMeters>
            <DistanceMeters>NAN</DistanceMeters>
          </Trackpoint>
          <Trackpoint>
            <Time>2021-04-03T12:54:44.000Z</Time>
            <Position>
              <LatitudeDegrees>42.308278866112232208251953125</LatitudeDegrees>
              <LongitudeDegrees>2.50037142075598239898681640625</LongitudeDegrees>
            </Position>
            <AltitudeMeters>472.399993896484375</AltitudeMeters>
            <DistanceMeters>NAN</DistanceMeters>
          </Trackpoint>
          <Trackpoint>
            <Time>2021-04-03T12:54:46.000Z</Time>
            <Position>
              <LatitudeDegrees>42.3082999885082244873046875</LatitudeDegrees>
              <LongitudeDegrees>2.5003430061042308807373046875</LongitudeDegrees>
            </Position>
            <AltitudeMeters>472.399993896484375</AltitudeMeters>
            <DistanceMeters>NAN</DistanceMeters>
          </Trackpoint>
          <Trackpoint>
            <Time>2021-04-03T12:54:51.000Z</Time>
            <Position>
              <LatitudeDegrees>42.3083133995532989501953125</LatitudeDegrees>
              <LongitudeDegrees>2.50028190203011035919189453125</LongitudeDegrees>
            </Position>
            <AltitudeMeters>472.600006103515625</AltitudeMeters>
            <DistanceMeters>NAN</DistanceMeters>
          </Trackpoint>
          <Trackpoint>
            <Time>2021-04-03T12:54:55.000Z</Time>
            <Position>
              <LatitudeDegrees>42.30833544395864009857177734375</LatitudeDegrees>
              <LongitudeDegrees>2.500236891210079193115234375</LongitudeDegrees>
            </Position>
            <AltitudeMeters>473</AltitudeMeters>
            <DistanceMeters>NAN</DistanceMeters>
          </Trackpoint>
          <Trackpoint>
            <Time>2021-04-03T12:54:56.000Z</Time>
            <Position>
              <LatitudeDegrees>42.308341227471828460693359375</LatitudeDegrees>
              <LongitudeDegrees>2.5002192892134189605712890625</LongitudeDegrees>
            </Position>
            <AltitudeMeters>473</AltitudeMeters>
            <DistanceMeters>NAN</DistanceMeters>
          </Trackpoint>
          <Trackpoint>
            <Time>2021-04-03T12:54:57.000Z</Time>
            <Position>
              <LatitudeDegrees>42.3083497770130634307861328125</LatitudeDegrees>
              <LongitudeDegrees>2.50020311214029788970947265625</LongitudeDegrees>
            </Position>
            <AltitudeMeters>473.20001220703125</AltitudeMeters>
            <DistanceMeters>NAN</DistanceMeters>
          </Trackpoint>
          <Trackpoint>
            <Time>2021-04-03T12:55:01.000Z</Time>
            <Position>
              <LatitudeDegrees>42.308373413980007171630859375</LatitudeDegrees>
              <LongitudeDegrees>2.50015919096767902374267578125</LongitudeDegrees>
            </Position>
            <AltitudeMeters>473.600006103515625</AltitudeMeters>
            <DistanceMeters>NAN</DistanceMeters>
          </Trackpoint>
          <Trackpoint>
            <Time>2021-04-03T12:55:08.000Z</Time>
            <Position>
              <LatitudeDegrees>42.30838137678802013397216796875</LatitudeDegrees>
              <LongitudeDegrees>2.50006665475666522979736328125</LongitudeDegrees>
            </Position>
            <AltitudeMeters>474</AltitudeMeters>
            <DistanceMeters>NAN</DistanceMeters>
          </Trackpoint>
          <Trackpoint>
            <Time>2021-04-03T12:55:09.000Z</Time>
            <Position>
              <LatitudeDegrees>42.308384813368320465087890625</LatitudeDegrees>
              <LongitudeDegrees>2.500056512653827667236328125</LongitudeDegrees>
            </Position>
            <AltitudeMeters>474</AltitudeMeters>
            <DistanceMeters>NAN</DistanceMeters>
          </Trackpoint>
          <Trackpoint>
            <Time>2021-04-03T12:55:14.000Z</Time>
            <Position>
              <LatitudeDegrees>42.30839109979569911956787109375</LatitudeDegrees>
              <LongitudeDegrees>2.50001451931893825531005859375</LongitudeDegrees>
            </Position>
            <AltitudeMeters>474.600006103515625</AltitudeMeters>
            <DistanceMeters>NAN</DistanceMeters>
          </Trackpoint>
          <Trackpoint>
            <Time>2021-04-03T12:55:16.000Z</Time>
            <Position>
              <LatitudeDegrees>42.30838992632925510406494140625</LatitudeDegrees>
              <LongitudeDegrees>2.50000613741576671600341796875</LongitudeDegrees>
            </Position>
            <AltitudeMeters>475</AltitudeMeters>
            <DistanceMeters>NAN</DistanceMeters>
          </Trackpoint>
          <Trackpoint>
            <Time>2021-04-03T12:55:17.000Z</Time>
            <Position>
              <LatitudeDegrees>42.3083973862230777740478515625</LatitudeDegrees>
              <LongitudeDegrees>2.49999842606484889984130859375</LongitudeDegrees>
            </Position>
            <AltitudeMeters>475.20001220703125</AltitudeMeters>
            <DistanceMeters>NAN</DistanceMeters>
          </Trackpoint>
          <Trackpoint>
            <Time>2021-04-03T12:55:19.000Z</Time>
            <Position>
              <LatitudeDegrees>42.30841574259102344512939453125</LatitudeDegrees>
              <LongitudeDegrees>2.4999835900962352752685546875</LongitudeDegrees>
            </Position>
            <AltitudeMeters>475.399993896484375</AltitudeMeters>
            <DistanceMeters>NAN</DistanceMeters>
          </Trackpoint>
          <Trackpoint>
            <Time>2021-04-03T12:55:20.000Z</Time>
            <Position>
              <LatitudeDegrees>42.308417670428752899169921875</LatitudeDegrees>
              <LongitudeDegrees>2.49997780658304691314697265625</LongitudeDegrees>
            </Position>
            <AltitudeMeters>475.600006103515625</AltitudeMeters>
            <DistanceMeters>NAN</DistanceMeters>
          </Trackpoint>
          <Trackpoint>
            <Time>2021-04-03T12:55:25.000Z</Time>
            <Position>
              <LatitudeDegrees>42.30844910256564617156982421875</LatitudeDegrees>
              <LongitudeDegrees>2.49994662590324878692626953125</LongitudeDegrees>
            </Position>
            <AltitudeMeters>476.399993896484375</AltitudeMeters>
            <DistanceMeters>NAN</DistanceMeters>
          </Trackpoint>
          <Trackpoint>
            <Time>2021-04-03T12:55:29.000Z</Time>
            <Position>
              <LatitudeDegrees>42.308447174727916717529296875</LatitudeDegrees>
              <LongitudeDegrees>2.4999193847179412841796875</LongitudeDegrees>
            </Position>
            <AltitudeMeters>476.600006103515625</AltitudeMeters>
            <DistanceMeters>NAN</DistanceMeters>
          </Trackpoint>
          <Trackpoint>
            <Time>2021-04-03T12:55:30.000Z</Time>
            <Position>
              <LatitudeDegrees>42.3084436543285846710205078125</LatitudeDegrees>
              <LongitudeDegrees>2.4999061413109302520751953125</LongitudeDegrees>
            </Position>
            <AltitudeMeters>476.79998779296875</AltitudeMeters>
            <DistanceMeters>NAN</DistanceMeters>
          </Trackpoint>
          <Trackpoint>
            <Time>2021-04-03T12:55:33.000Z</Time>
            <Position>
              <LatitudeDegrees>42.308448851108551025390625</LatitudeDegrees>
              <LongitudeDegrees>2.4998618848621845245361328125</LongitudeDegrees>
            </Position>
            <AltitudeMeters>476.79998779296875</AltitudeMeters>
            <DistanceMeters>NAN</DistanceMeters>
          </Trackpoint>
          <Trackpoint>
            <Time>2021-04-03T12:55:35.000Z</Time>
            <Position>
              <LatitudeDegrees>42.3084550537168979644775390625</LatitudeDegrees>
              <LongitudeDegrees>2.4998377449810504913330078125</LongitudeDegrees>
            </Position>
            <AltitudeMeters>476.79998779296875</AltitudeMeters>
            <DistanceMeters>NAN</DistanceMeters>
          </Trackpoint>
          <Trackpoint>
            <Time>2021-04-03T12:55:36.000Z</Time>
            <Position>
              <LatitudeDegrees>42.30845077894628047943115234375</LatitudeDegrees>
              <LongitudeDegrees>2.49982290901243686676025390625</LongitudeDegrees>
            </Position>
            <AltitudeMeters>477</AltitudeMeters>
            <DistanceMeters>NAN</DistanceMeters>
          </Trackpoint>
          <Trackpoint>
            <Time>2021-04-03T12:55:40.000Z</Time>
            <Position>
              <LatitudeDegrees>42.3084433190524578094482421875</LatitudeDegrees>
              <LongitudeDegrees>2.4997653253376483917236328125</LongitudeDegrees>
            </Position>
            <AltitudeMeters>477</AltitudeMeters>
            <DistanceMeters>NAN</DistanceMeters>
          </Trackpoint>
          <Trackpoint>
            <Time>2021-04-03T12:55:42.000Z</Time>
            <Position>
              <LatitudeDegrees>42.3084394633769989013671875</LatitudeDegrees>
              <LongitudeDegrees>2.4997354857623577117919921875</LongitudeDegrees>
            </Position>
            <AltitudeMeters>477</AltitudeMeters>
            <DistanceMeters>NAN</DistanceMeters>
          </Trackpoint>
          <Trackpoint>
            <Time>2021-04-03T12:55:44.000Z</Time>
            <Position>
              <LatitudeDegrees>42.30845547281205654144287109375</LatitudeDegrees>
              <LongitudeDegrees>2.49970388598740100860595703125</LongitudeDegrees>
            </Position>
            <AltitudeMeters>477</AltitudeMeters>
            <DistanceMeters>NAN</DistanceMeters>
          </Trackpoint>
          <Trackpoint>
            <Time>2021-04-03T12:55:46.000Z</Time>
            <Position>
              <LatitudeDegrees>42.30845564045011997222900390625</LatitudeDegrees>
              <LongitudeDegrees>2.49968133866786956787109375</LongitudeDegrees>
            </Position>
            <AltitudeMeters>476.79998779296875</AltitudeMeters>
            <DistanceMeters>NAN</DistanceMeters>
          </Trackpoint>
          <Trackpoint>
            <Time>2021-04-03T12:55:47.000Z</Time>
            <Position>
              <LatitudeDegrees>42.3084614239633083343505859375</LatitudeDegrees>
              <LongitudeDegrees>2.49967706389725208282470703125</LongitudeDegrees>
            </Position>
            <AltitudeMeters>476.79998779296875</AltitudeMeters>
            <DistanceMeters>NAN</DistanceMeters>
          </Trackpoint>
          <Trackpoint>
            <Time>2021-04-03T12:55:48.000Z</Time>
            <Position>
              <LatitudeDegrees>42.30846469290554523468017578125</LatitudeDegrees>
              <LongitudeDegrees>2.49967035837471485137939453125</LongitudeDegrees>
            </Position>
            <AltitudeMeters>476.79998779296875</AltitudeMeters>
            <DistanceMeters>NAN</DistanceMeters>
          </Trackpoint>
          <Trackpoint>
            <Time>2021-04-03T12:55:51.000Z</Time>
            <Position>
              <LatitudeDegrees>42.3084604181349277496337890625</LatitudeDegrees>
              <LongitudeDegrees>2.4996323883533477783203125</LongitudeDegrees>
            </Position>
            <AltitudeMeters>477</AltitudeMeters>
            <DistanceMeters>NAN</DistanceMeters>
          </Trackpoint>
          <Trackpoint>
            <Time>2021-04-03T12:55:53.000Z</Time>
            <Position>
              <LatitudeDegrees>42.30845178477466106414794921875</LatitudeDegrees>
              <LongitudeDegrees>2.4996110983192920684814453125</LongitudeDegrees>
            </Position>
            <AltitudeMeters>477</AltitudeMeters>
            <DistanceMeters>NAN</DistanceMeters>
          </Trackpoint>
          <Trackpoint>
            <Time>2021-04-03T12:55:55.000Z</Time>
            <Position>
              <LatitudeDegrees>42.308445163071155548095703125</LatitudeDegrees>
              <LongitudeDegrees>2.4995842762291431427001953125</LongitudeDegrees>
            </Position>
            <AltitudeMeters>477.20001220703125</AltitudeMeters>
            <DistanceMeters>NAN</DistanceMeters>
          </Trackpoint>
          <Trackpoint>
            <Time>2021-04-03T12:55:57.000Z</Time>
            <Position>
              <LatitudeDegrees>42.3084362782537937164306640625</LatitudeDegrees>
              <LongitudeDegrees>2.4995450489223003387451171875</LongitudeDegrees>
            </Position>
            <AltitudeMeters>477.20001220703125</AltitudeMeters>
            <DistanceMeters>NAN</DistanceMeters>
          </Trackpoint>
          <Trackpoint>
            <Time>2021-04-03T12:55:59.000Z</Time>
            <Position>
              <LatitudeDegrees>42.30843342840671539306640625</LatitudeDegrees>
              <LongitudeDegrees>2.499510012567043304443359375</LongitudeDegrees>
            </Position>
            <AltitudeMeters>477.399993896484375</AltitudeMeters>
            <DistanceMeters>NAN</DistanceMeters>
          </Trackpoint>
          <Trackpoint>
            <Time>2021-04-03T12:56:03.000Z</Time>
            <Position>
              <LatitudeDegrees>42.30843854136765003204345703125</LatitudeDegrees>
              <LongitudeDegrees>2.49944396317005157470703125</LongitudeDegrees>
            </Position>
            <AltitudeMeters>477.79998779296875</AltitudeMeters>
            <DistanceMeters>NAN</DistanceMeters>
          </Trackpoint>
          <Trackpoint>
            <Time>2021-04-03T12:56:06.000Z</Time>
            <Position>
              <LatitudeDegrees>42.308440469205379486083984375</LatitudeDegrees>
              <LongitudeDegrees>2.4993990361690521240234375</LongitudeDegrees>
            </Position>
            <AltitudeMeters>477.79998779296875</AltitudeMeters>
            <DistanceMeters>NAN</DistanceMeters>
          </Trackpoint>
          <Trackpoint>
            <Time>2021-04-03T12:56:09.000Z</Time>
            <Position>
              <LatitudeDegrees>42.30844491161406040191650390625</LatitudeDegrees>
              <LongitudeDegrees>2.49936358071863651275634765625</LongitudeDegrees>
            </Position>
            <AltitudeMeters>477.79998779296875</AltitudeMeters>
            <DistanceMeters>NAN</DistanceMeters>
          </Trackpoint>
          <Trackpoint>
            <Time>2021-04-03T12:56:14.000Z</Time>
            <Position>
              <LatitudeDegrees>42.30843770317733287811279296875</LatitudeDegrees>
              <LongitudeDegrees>2.49927640892565250396728515625</LongitudeDegrees>
            </Position>
            <AltitudeMeters>478</AltitudeMeters>
            <DistanceMeters>NAN</DistanceMeters>
          </Trackpoint>
          <Trackpoint>
            <Time>2021-04-03T12:56:16.000Z</Time>
            <Position>
              <LatitudeDegrees>42.30843937955796718597412109375</LatitudeDegrees>
              <LongitudeDegrees>2.49925277195870876312255859375</LongitudeDegrees>
            </Position>
            <AltitudeMeters>478</AltitudeMeters>
            <DistanceMeters>NAN</DistanceMeters>
          </Trackpoint>
          <Trackpoint>
            <Time>2021-04-03T12:56:20.000Z</Time>
            <Position>
              <LatitudeDegrees>42.30847659520804882049560546875</LatitudeDegrees>
              <LongitudeDegrees>2.49919719994068145751953125</LongitudeDegrees>
            </Position>
            <AltitudeMeters>478.20001220703125</AltitudeMeters>
            <DistanceMeters>NAN</DistanceMeters>
          </Trackpoint>
          <Trackpoint>
            <Time>2021-04-03T12:56:22.000Z</Time>
            <Position>
              <LatitudeDegrees>42.30847299098968505859375</LatitudeDegrees>
              <LongitudeDegrees>2.4991643428802490234375</LongitudeDegrees>
            </Position>
            <AltitudeMeters>478.399993896484375</AltitudeMeters>
            <DistanceMeters>NAN</DistanceMeters>
          </Trackpoint>
          <Trackpoint>
            <Time>2021-04-03T12:56:25.000Z</Time>
            <Position>
              <LatitudeDegrees>42.3084743320941925048828125</LatitudeDegrees>
              <LongitudeDegrees>2.49912754632532596588134765625</LongitudeDegrees>
            </Position>
            <AltitudeMeters>479</AltitudeMeters>
            <DistanceMeters>NAN</DistanceMeters>
          </Trackpoint>
          <Trackpoint>
            <Time>2021-04-03T12:56:26.000Z</Time>
            <Position>
              <LatitudeDegrees>42.308480702340602874755859375</LatitudeDegrees>
              <LongitudeDegrees>2.4991132132709026336669921875</LongitudeDegrees>
            </Position>
            <AltitudeMeters>479</AltitudeMeters>
            <DistanceMeters>NAN</DistanceMeters>
          </Trackpoint>
          <Trackpoint>
            <Time>2021-04-03T12:56:32.000Z</Time>
            <Position>
              <LatitudeDegrees>42.30850584805011749267578125</LatitudeDegrees>
              <LongitudeDegrees>2.499030567705631256103515625</LongitudeDegrees>
            </Position>
            <AltitudeMeters>479.399993896484375</AltitudeMeters>
            <DistanceMeters>NAN</DistanceMeters>
          </Trackpoint>
          <Trackpoint>
            <Time>2021-04-03T12:56:33.000Z</Time>
            <Position>
              <LatitudeDegrees>42.3085090331733226776123046875</LatitudeDegrees>
              <LongitudeDegrees>2.4990210123360157012939453125</LongitudeDegrees>
            </Position>
            <AltitudeMeters>479.399993896484375</AltitudeMeters>
            <DistanceMeters>NAN</DistanceMeters>
          </Trackpoint>
          <Trackpoint>
            <Time>2021-04-03T12:56:35.000Z</Time>
            <Position>
              <LatitudeDegrees>42.308514229953289031982421875</LatitudeDegrees>
              <LongitudeDegrees>2.49899762682616710662841796875</LongitudeDegrees>
            </Position>
            <AltitudeMeters>479.600006103515625</AltitudeMeters>
            <DistanceMeters>NAN</DistanceMeters>
          </Trackpoint>
          <Trackpoint>
            <Time>2021-04-03T12:56:38.000Z</Time>
            <Position>
              <LatitudeDegrees>42.308523952960968017578125</LatitudeDegrees>
              <LongitudeDegrees>2.49895839951932430267333984375</LongitudeDegrees>
            </Position>
            <AltitudeMeters>480</AltitudeMeters>
            <DistanceMeters>NAN</DistanceMeters>
          </Trackpoint>
          <Trackpoint>
            <Time>2021-04-03T12:56:40.000Z</Time>
            <Position>
              <LatitudeDegrees>42.30853325687348842620849609375</LatitudeDegrees>
              <LongitudeDegrees>2.4989296495914459228515625</LongitudeDegrees>
            </Position>
            <AltitudeMeters>480.20001220703125</AltitudeMeters>
            <DistanceMeters>NAN</DistanceMeters>
          </Trackpoint>
          <Trackpoint>
            <Time>2021-04-03T12:56:43.000Z</Time>
            <Position>
              <LatitudeDegrees>42.30855136178433895111083984375</LatitudeDegrees>
              <LongitudeDegrees>2.49889235012233257293701171875</LongitudeDegrees>
            </Position>
            <AltitudeMeters>480.399993896484375</AltitudeMeters>
            <DistanceMeters>NAN</DistanceMeters>
          </Trackpoint>
          <Trackpoint>
            <Time>2021-04-03T12:56:45.000Z</Time>
            <Position>
              <LatitudeDegrees>42.3085660301148891448974609375</LatitudeDegrees>
              <LongitudeDegrees>2.49887273646891117095947265625</LongitudeDegrees>
            </Position>
            <AltitudeMeters>480.399993896484375</AltitudeMeters>
            <DistanceMeters>NAN</DistanceMeters>
          </Trackpoint>
          <Trackpoint>
            <Time>2021-04-03T12:56:51.000Z</Time>
            <Position>
              <LatitudeDegrees>42.30860835872590541839599609375</LatitudeDegrees>
              <LongitudeDegrees>2.4987906776368618011474609375</LongitudeDegrees>
            </Position>
            <AltitudeMeters>481.399993896484375</AltitudeMeters>
            <DistanceMeters>NAN</DistanceMeters>
          </Trackpoint>
          <Trackpoint>
            <Time>2021-04-03T12:56:52.000Z</Time>
            <Position>
              <LatitudeDegrees>42.3086111247539520263671875</LatitudeDegrees>
              <LongitudeDegrees>2.498773746192455291748046875</LongitudeDegrees>
            </Position>
            <AltitudeMeters>481.399993896484375</AltitudeMeters>
            <DistanceMeters>NAN</DistanceMeters>
          </Trackpoint>
          <Trackpoint>
            <Time>2021-04-03T12:56:54.000Z</Time>
            <Position>
              <LatitudeDegrees>42.30862277559936046600341796875</LatitudeDegrees>
              <LongitudeDegrees>2.4987581558525562286376953125</LongitudeDegrees>
            </Position>
            <AltitudeMeters>481.600006103515625</AltitudeMeters>
            <DistanceMeters>NAN</DistanceMeters>
          </Trackpoint>
          <Trackpoint>
            <Time>2021-04-03T12:56:56.000Z</Time>
            <Position>
              <LatitudeDegrees>42.30864465236663818359375</LatitudeDegrees>
              <LongitudeDegrees>2.4987480975687503814697265625</LongitudeDegrees>
            </Position>
            <AltitudeMeters>481.79998779296875</AltitudeMeters>
            <DistanceMeters>NAN</DistanceMeters>
          </Trackpoint>
          <Trackpoint>
            <Time>2021-04-03T12:56:57.000Z</Time>
            <Position>
              <LatitudeDegrees>42.30865546502172946929931640625</LatitudeDegrees>
              <LongitudeDegrees>2.49874063767492771148681640625</LongitudeDegrees>
            </Position>
            <AltitudeMeters>481.79998779296875</AltitudeMeters>
            <DistanceMeters>NAN</DistanceMeters>
          </Trackpoint>
          <Trackpoint>
            <Time>2021-04-03T12:57:01.000Z</Time>
            <Position>
              <LatitudeDegrees>42.30868094600737094879150390625</LatitudeDegrees>
              <LongitudeDegrees>2.49869084917008876800537109375</LongitudeDegrees>
            </Position>
            <AltitudeMeters>482.399993896484375</AltitudeMeters>
            <DistanceMeters>NAN</DistanceMeters>
          </Trackpoint>
          <Trackpoint>
            <Time>2021-04-03T12:57:03.000Z</Time>
            <Position>
              <LatitudeDegrees>42.30869368650019168853759765625</LatitudeDegrees>
              <LongitudeDegrees>2.498664446175098419189453125</LongitudeDegrees>
            </Position>
            <AltitudeMeters>482.399993896484375</AltitudeMeters>
            <DistanceMeters>NAN</DistanceMeters>
          </Trackpoint>
          <Trackpoint>
            <Time>2021-04-03T12:57:06.000Z</Time>
            <Position>
              <LatitudeDegrees>42.30870894156396389007568359375</LatitudeDegrees>
              <LongitudeDegrees>2.498632259666919708251953125</LongitudeDegrees>
            </Position>
            <AltitudeMeters>482.600006103515625</AltitudeMeters>
            <DistanceMeters>NAN</DistanceMeters>
          </Trackpoint>
          <Trackpoint>
            <Time>2021-04-03T12:57:09.000Z</Time>
            <Position>
              <LatitudeDegrees>42.30873073451220989227294921875</LatitudeDegrees>
              <LongitudeDegrees>2.49859445728361606597900390625</LongitudeDegrees>
            </Position>
            <AltitudeMeters>482.79998779296875</AltitudeMeters>
            <DistanceMeters>NAN</DistanceMeters>
          </Trackpoint>
          <Trackpoint>
            <Time>2021-04-03T12:57:13.000Z</Time>
            <Position>
              <LatitudeDegrees>42.308756299316883087158203125</LatitudeDegrees>
              <LongitudeDegrees>2.498550117015838623046875</LongitudeDegrees>
            </Position>
            <AltitudeMeters>483.20001220703125</AltitudeMeters>
            <DistanceMeters>NAN</DistanceMeters>
          </Trackpoint>
          <Trackpoint>
            <Time>2021-04-03T12:57:14.000Z</Time>
            <Position>
              <LatitudeDegrees>42.30875738896429538726806640625</LatitudeDegrees>
              <LongitudeDegrees>2.4985378794372081756591796875</LongitudeDegrees>
            </Position>
            <AltitudeMeters>483.20001220703125</AltitudeMeters>
            <DistanceMeters>NAN</DistanceMeters>
          </Trackpoint>
          <Trackpoint>
            <Time>2021-04-03T12:57:17.000Z</Time>
            <Position>
              <LatitudeDegrees>42.3087604902684688568115234375</LatitudeDegrees>
              <LongitudeDegrees>2.49849957413971424102783203125</LongitudeDegrees>
            </Position>
            <AltitudeMeters>483.399993896484375</AltitudeMeters>
            <DistanceMeters>NAN</DistanceMeters>
          </Trackpoint>
          <Trackpoint>
            <Time>2021-04-03T12:57:18.000Z</Time>
            <Position>
              <LatitudeDegrees>42.3087614960968494415283203125</LatitudeDegrees>
              <LongitudeDegrees>2.4984822236001491546630859375</LongitudeDegrees>
            </Position>
            <AltitudeMeters>483.600006103515625</AltitudeMeters>
            <DistanceMeters>NAN</DistanceMeters>
          </Trackpoint>
          <Trackpoint>
            <Time>2021-04-03T12:57:19.000Z</Time>
            <Position>
              <LatitudeDegrees>42.308767028152942657470703125</LatitudeDegrees>
              <LongitudeDegrees>2.4984629452228546142578125</LongitudeDegrees>
            </Position>
            <AltitudeMeters>483.600006103515625</AltitudeMeters>
            <DistanceMeters>NAN</DistanceMeters>
          </Trackpoint>
          <Trackpoint>
            <Time>2021-04-03T12:57:20.000Z</Time>
            <Position>
              <LatitudeDegrees>42.30877884663641452789306640625</LatitudeDegrees>
              <LongitudeDegrees>2.498445175588130950927734375</LongitudeDegrees>
            </Position>
            <AltitudeMeters>483.600006103515625</AltitudeMeters>
            <DistanceMeters>NAN</DistanceMeters>
          </Trackpoint>
          <Trackpoint>
            <Time>2021-04-03T12:57:23.000Z</Time>
            <Position>
              <LatitudeDegrees>42.308787815272808074951171875</LatitudeDegrees>
              <LongitudeDegrees>2.49839882366359233856201171875</LongitudeDegrees>
            </Position>
            <AltitudeMeters>483.399993896484375</AltitudeMeters>
            <DistanceMeters>NAN</DistanceMeters>
          </Trackpoint>
          <Trackpoint>
            <Time>2021-04-03T12:57:25.000Z</Time>
            <Position>
              <LatitudeDegrees>42.30879041366279125213623046875</LatitudeDegrees>
              <LongitudeDegrees>2.49836504459381103515625</LongitudeDegrees>
            </Position>
            <AltitudeMeters>483.399993896484375</AltitudeMeters>
            <DistanceMeters>NAN</DistanceMeters>
          </Trackpoint>
          <Trackpoint>
            <Time>2021-04-03T12:57:28.000Z</Time>
            <Position>
              <LatitudeDegrees>42.30880357325077056884765625</LatitudeDegrees>
              <LongitudeDegrees>2.49830964021384716033935546875</LongitudeDegrees>
            </Position>
            <AltitudeMeters>483.399993896484375</AltitudeMeters>
            <DistanceMeters>NAN</DistanceMeters>
          </Trackpoint>
          <Trackpoint>
            <Time>2021-04-03T12:57:31.000Z</Time>
            <Position>
              <LatitudeDegrees>42.30879980139434337615966796875</LatitudeDegrees>
              <LongitudeDegrees>2.49826806597411632537841796875</LongitudeDegrees>
            </Position>
            <AltitudeMeters>483.399993896484375</AltitudeMeters>
            <DistanceMeters>NAN</DistanceMeters>
          </Trackpoint>
          <Trackpoint>
            <Time>2021-04-03T12:57:33.000Z</Time>
            <Position>
              <LatitudeDegrees>42.30879259295761585235595703125</LatitudeDegrees>
              <LongitudeDegrees>2.4982478655874729156494140625</LongitudeDegrees>
            </Position>
            <AltitudeMeters>483.20001220703125</AltitudeMeters>
            <DistanceMeters>NAN</DistanceMeters>
          </Trackpoint>
          <Trackpoint>
            <Time>2021-04-03T12:57:36.000Z</Time>
            <Position>
              <LatitudeDegrees>42.3087708838284015655517578125</LatitudeDegrees>
              <LongitudeDegrees>2.49821140430867671966552734375</LongitudeDegrees>
            </Position>
            <AltitudeMeters>483.399993896484375</AltitudeMeters>
            <DistanceMeters>NAN</DistanceMeters>
          </Trackpoint>
          <Trackpoint>
            <Time>2021-04-03T12:57:37.000Z</Time>
            <Position>
              <LatitudeDegrees>42.30876979418098926544189453125</LatitudeDegrees>
              <LongitudeDegrees>2.49819363467395305633544921875</LongitudeDegrees>
            </Position>
            <AltitudeMeters>483.399993896484375</AltitudeMeters>
            <DistanceMeters>NAN</DistanceMeters>
          </Trackpoint>
          <Trackpoint>
            <Time>2021-04-03T12:57:38.000Z</Time>
            <Position>
              <LatitudeDegrees>42.3087715543806552886962890625</LatitudeDegrees>
              <LongitudeDegrees>2.49817737378180027008056640625</LongitudeDegrees>
            </Position>
            <AltitudeMeters>483.399993896484375</AltitudeMeters>
            <DistanceMeters>NAN</DistanceMeters>
          </Trackpoint>
          <Trackpoint>
            <Time>2021-04-03T12:57:40.000Z</Time>
            <Position>
              <LatitudeDegrees>42.30878471396863460540771484375</LatitudeDegrees>
              <LongitudeDegrees>2.4981432594358921051025390625</LongitudeDegrees>
            </Position>
            <AltitudeMeters>483.399993896484375</AltitudeMeters>
            <DistanceMeters>NAN</DistanceMeters>
          </Trackpoint>
          <Trackpoint>
            <Time>2021-04-03T12:57:42.000Z</Time>
            <Position>
              <LatitudeDegrees>42.30879426933825016021728515625</LatitudeDegrees>
              <LongitudeDegrees>2.49812104739248752593994140625</LongitudeDegrees>
            </Position>
            <AltitudeMeters>483.399993896484375</AltitudeMeters>
            <DistanceMeters>NAN</DistanceMeters>
          </Trackpoint>
          <Trackpoint>
            <Time>2021-04-03T12:57:43.000Z</Time>
            <Position>
              <LatitudeDegrees>42.308796532452106475830078125</LatitudeDegrees>
              <LongitudeDegrees>2.49810797162353992462158203125</LongitudeDegrees>
            </Position>
            <AltitudeMeters>483.399993896484375</AltitudeMeters>
            <DistanceMeters>NAN</DistanceMeters>
          </Trackpoint>
          <Trackpoint>
            <Time>2021-04-03T12:57:47.000Z</Time>
            <Position>
              <LatitudeDegrees>42.308804579079151153564453125</LatitudeDegrees>
              <LongitudeDegrees>2.498072348535060882568359375</LongitudeDegrees>
            </Position>
            <AltitudeMeters>483.399993896484375</AltitudeMeters>
            <DistanceMeters>NAN</DistanceMeters>
          </Trackpoint>
          <Trackpoint>
            <Time>2021-04-03T12:57:48.000Z</Time>
            <Position>
              <LatitudeDegrees>42.30880365706980228424072265625</LatitudeDegrees>
              <LongitudeDegrees>2.49806262552738189697265625</LongitudeDegrees>
            </Position>
            <AltitudeMeters>483.399993896484375</AltitudeMeters>
            <DistanceMeters>NAN</DistanceMeters>
          </Trackpoint>
          <Trackpoint>
            <Time>2021-04-03T12:57:49.000Z</Time>
            <Position>
              <LatitudeDegrees>42.30880348943173885345458984375</LatitudeDegrees>
              <LongitudeDegrees>2.49805164523422718048095703125</LongitudeDegrees>
            </Position>
            <AltitudeMeters>483.399993896484375</AltitudeMeters>
            <DistanceMeters>NAN</DistanceMeters>
          </Trackpoint>
          <Trackpoint>
            <Time>2021-04-03T12:57:51.000Z</Time>
            <Position>
              <LatitudeDegrees>42.308793850243091583251953125</LatitudeDegrees>
              <LongitudeDegrees>2.498028762638568878173828125</LongitudeDegrees>
            </Position>
            <AltitudeMeters>483.399993896484375</AltitudeMeters>
            <DistanceMeters>NAN</DistanceMeters>
          </Trackpoint>
          <Trackpoint>
            <Time>2021-04-03T12:57:53.000Z</Time>
            <Position>
              <LatitudeDegrees>42.30879016220569610595703125</LatitudeDegrees>
              <LongitudeDegrees>2.498002611100673675537109375</LongitudeDegrees>
            </Position>
            <AltitudeMeters>483.20001220703125</AltitudeMeters>
            <DistanceMeters>NAN</DistanceMeters>
          </Trackpoint>
          <Trackpoint>
            <Time>2021-04-03T12:57:56.000Z</Time>
            <Position>
              <LatitudeDegrees>42.3087935149669647216796875</LatitudeDegrees>
              <LongitudeDegrees>2.497960031032562255859375</LongitudeDegrees>
            </Position>
            <AltitudeMeters>482.79998779296875</AltitudeMeters>
            <DistanceMeters>NAN</DistanceMeters>
          </Trackpoint>
          <Trackpoint>
            <Time>2021-04-03T12:57:58.000Z</Time>
            <Position>
              <LatitudeDegrees>42.30879108421504497528076171875</LatitudeDegrees>
              <LongitudeDegrees>2.49793329276144504547119140625</LongitudeDegrees>
            </Position>
            <AltitudeMeters>482.600006103515625</AltitudeMeters>
            <DistanceMeters>NAN</DistanceMeters>
          </Trackpoint>
          <Trackpoint>
            <Time>2021-04-03T12:57:59.000Z</Time>
            <Position>
              <LatitudeDegrees>42.30878890492022037506103515625</LatitudeDegrees>
              <LongitudeDegrees>2.49791200272738933563232421875</LongitudeDegrees>
            </Position>
            <AltitudeMeters>482.399993896484375</AltitudeMeters>
            <DistanceMeters>NAN</DistanceMeters>
          </Trackpoint>
          <Trackpoint>
            <Time>2021-04-03T12:58:01.000Z</Time>
            <Position>
              <LatitudeDegrees>42.30877834372222423553466796875</LatitudeDegrees>
              <LongitudeDegrees>2.497883252799510955810546875</LongitudeDegrees>
            </Position>
            <AltitudeMeters>482.20001220703125</AltitudeMeters>
            <DistanceMeters>NAN</DistanceMeters>
          </Trackpoint>
          <Trackpoint>
            <Time>2021-04-03T12:58:02.000Z</Time>
            <Position>
              <LatitudeDegrees>42.30878085829317569732666015625</LatitudeDegrees>
              <LongitudeDegrees>2.49786573462188243865966796875</LongitudeDegrees>
            </Position>
            <AltitudeMeters>482.20001220703125</AltitudeMeters>
            <DistanceMeters>NAN</DistanceMeters>
          </Trackpoint>
          <Trackpoint>
            <Time>2021-04-03T12:58:03.000Z</Time>
            <Position>
              <LatitudeDegrees>42.30878119356930255889892578125</LatitudeDegrees>
              <LongitudeDegrees>2.49785081483423709869384765625</LongitudeDegrees>
            </Position>
            <AltitudeMeters>482</AltitudeMeters>
            <DistanceMeters>NAN</DistanceMeters>
          </Trackpoint>
          <Trackpoint>
            <Time>2021-04-03T12:58:04.000Z</Time>
            <Position>
              <LatitudeDegrees>42.30877247639000415802001953125</LatitudeDegrees>
              <LongitudeDegrees>2.4978337995707988739013671875</LongitudeDegrees>
            </Position>
            <AltitudeMeters>482</AltitudeMeters>
            <DistanceMeters>NAN</DistanceMeters>
          </Trackpoint>
          <Trackpoint>
            <Time>2021-04-03T12:58:07.000Z</Time>
            <Position>
              <LatitudeDegrees>42.30875873006880283355712890625</LatitudeDegrees>
              <LongitudeDegrees>2.49778367578983306884765625</LongitudeDegrees>
            </Position>
            <AltitudeMeters>481.600006103515625</AltitudeMeters>
            <DistanceMeters>NAN</DistanceMeters>
          </Trackpoint>
          <Trackpoint>
            <Time>2021-04-03T12:58:09.000Z</Time>
            <Position>
              <LatitudeDegrees>42.30875135399401187896728515625</LatitudeDegrees>
              <LongitudeDegrees>2.497756183147430419921875</LongitudeDegrees>
            </Position>
            <AltitudeMeters>481.399993896484375</AltitudeMeters>
            <DistanceMeters>NAN</DistanceMeters>
          </Trackpoint>
          <Trackpoint>
            <Time>2021-04-03T12:58:10.000Z</Time>
            <Position>
              <LatitudeDegrees>42.30874934233725070953369140625</LatitudeDegrees>
              <LongitudeDegrees>2.49774218536913394927978515625</LongitudeDegrees>
            </Position>
            <AltitudeMeters>481.399993896484375</AltitudeMeters>
            <DistanceMeters>NAN</DistanceMeters>
          </Trackpoint>
          <Trackpoint>
            <Time>2021-04-03T12:58:11.000Z</Time>
            <Position>
              <LatitudeDegrees>42.30874900706112384796142578125</LatitudeDegrees>
              <LongitudeDegrees>2.49773011542856693267822265625</LongitudeDegrees>
            </Position>
            <AltitudeMeters>481.399993896484375</AltitudeMeters>
            <DistanceMeters>NAN</DistanceMeters>
          </Trackpoint>
          <Trackpoint>
            <Time>2021-04-03T12:58:13.000Z</Time>
            <Position>
              <LatitudeDegrees>42.30874582193791866302490234375</LatitudeDegrees>
              <LongitudeDegrees>2.49770513735711574554443359375</LongitudeDegrees>
            </Position>
            <AltitudeMeters>481.20001220703125</AltitudeMeters>
            <DistanceMeters>NAN</DistanceMeters>
          </Trackpoint>
          <Trackpoint>
            <Time>2021-04-03T12:58:17.000Z</Time>
            <Position>
              <LatitudeDegrees>42.30871078558266162872314453125</LatitudeDegrees>
              <LongitudeDegrees>2.4976477213203907012939453125</LongitudeDegrees>
            </Position>
            <AltitudeMeters>480.600006103515625</AltitudeMeters>
            <DistanceMeters>NAN</DistanceMeters>
          </Trackpoint>
          <Trackpoint>
            <Time>2021-04-03T12:58:19.000Z</Time>
            <Position>
              <LatitudeDegrees>42.30869829654693603515625</LatitudeDegrees>
              <LongitudeDegrees>2.4976168759167194366455078125</LongitudeDegrees>
            </Position>
            <AltitudeMeters>480.20001220703125</AltitudeMeters>
            <DistanceMeters>NAN</DistanceMeters>
          </Trackpoint>
          <Trackpoint>
            <Time>2021-04-03T12:58:22.000Z</Time>
            <Position>
              <LatitudeDegrees>42.3086800239980220794677734375</LatitudeDegrees>
              <LongitudeDegrees>2.49757404439151287078857421875</LongitudeDegrees>
            </Position>
            <AltitudeMeters>479.600006103515625</AltitudeMeters>
            <DistanceMeters>NAN</DistanceMeters>
          </Trackpoint>
          <Trackpoint>
            <Time>2021-04-03T12:58:23.000Z</Time>
            <Position>
              <LatitudeDegrees>42.3086746595799922943115234375</LatitudeDegrees>
              <LongitudeDegrees>2.49756348319351673126220703125</LongitudeDegrees>
            </Position>
            <AltitudeMeters>479.399993896484375</AltitudeMeters>
            <DistanceMeters>NAN</DistanceMeters>
          </Trackpoint>
          <Trackpoint>
            <Time>2021-04-03T12:58:24.000Z</Time>
            <Position>
              <LatitudeDegrees>42.308674156665802001953125</LatitudeDegrees>
              <LongitudeDegrees>2.49753431417047977447509765625</LongitudeDegrees>
            </Position>
            <AltitudeMeters>479.20001220703125</AltitudeMeters>
            <DistanceMeters>NAN</DistanceMeters>
          </Trackpoint>
          <Trackpoint>
            <Time>2021-04-03T12:58:29.000Z</Time>
            <Position>
              <LatitudeDegrees>42.308659739792346954345703125</LatitudeDegrees>
              <LongitudeDegrees>2.4974653311073780059814453125</LongitudeDegrees>
            </Position>
            <AltitudeMeters>478.20001220703125</AltitudeMeters>
            <DistanceMeters>NAN</DistanceMeters>
          </Trackpoint>
          <Trackpoint>
            <Time>2021-04-03T12:58:30.000Z</Time>
            <Position>
              <LatitudeDegrees>42.30865496210753917694091796875</LatitudeDegrees>
              <LongitudeDegrees>2.49744412489235401153564453125</LongitudeDegrees>
            </Position>
            <AltitudeMeters>478</AltitudeMeters>
            <DistanceMeters>NAN</DistanceMeters>
          </Trackpoint>
          <Trackpoint>
            <Time>2021-04-03T12:58:35.000Z</Time>
            <Position>
              <LatitudeDegrees>42.308668456971645355224609375</LatitudeDegrees>
              <LongitudeDegrees>2.49733977019786834716796875</LongitudeDegrees>
            </Position>
            <AltitudeMeters>477</AltitudeMeters>
            <DistanceMeters>NAN</DistanceMeters>
          </Trackpoint>
          <Trackpoint>
            <Time>2021-04-03T12:58:36.000Z</Time>
            <Position>
              <LatitudeDegrees>42.30866954661905765533447265625</LatitudeDegrees>
              <LongitudeDegrees>2.4973191507160663604736328125</LongitudeDegrees>
            </Position>
            <AltitudeMeters>476.79998779296875</AltitudeMeters>
            <DistanceMeters>NAN</DistanceMeters>
          </Trackpoint>
          <Trackpoint>
            <Time>2021-04-03T12:58:37.000Z</Time>
            <Position>
              <LatitudeDegrees>42.3086619190871715545654296875</LatitudeDegrees>
              <LongitudeDegrees>2.4973003752529621124267578125</LongitudeDegrees>
            </Position>
            <AltitudeMeters>476.79998779296875</AltitudeMeters>
            <DistanceMeters>NAN</DistanceMeters>
          </Trackpoint>
          <Trackpoint>
            <Time>2021-04-03T12:58:39.000Z</Time>
            <Position>
              <LatitudeDegrees>42.30865848250687122344970703125</LatitudeDegrees>
              <LongitudeDegrees>2.49726458452641963958740234375</LongitudeDegrees>
            </Position>
            <AltitudeMeters>476.79998779296875</AltitudeMeters>
            <DistanceMeters>NAN</DistanceMeters>
          </Trackpoint>
          <Trackpoint>
            <Time>2021-04-03T12:58:42.000Z</Time>
            <Position>
              <LatitudeDegrees>42.30867759324610233306884765625</LatitudeDegrees>
              <LongitudeDegrees>2.49721948988735675811767578125</LongitudeDegrees>
            </Position>
            <AltitudeMeters>476.399993896484375</AltitudeMeters>
            <DistanceMeters>NAN</DistanceMeters>
          </Trackpoint>
          <Trackpoint>
            <Time>2021-04-03T12:58:44.000Z</Time>
            <Position>
              <LatitudeDegrees>42.308677844703197479248046875</LatitudeDegrees>
              <LongitudeDegrees>2.49718612991273403167724609375</LongitudeDegrees>
            </Position>
            <AltitudeMeters>476</AltitudeMeters>
            <DistanceMeters>NAN</DistanceMeters>
          </Trackpoint>
          <Trackpoint>
            <Time>2021-04-03T12:58:46.000Z</Time>
            <Position>
              <LatitudeDegrees>42.308675833046436309814453125</LatitudeDegrees>
              <LongitudeDegrees>2.4971461482346057891845703125</LongitudeDegrees>
            </Position>
            <AltitudeMeters>476</AltitudeMeters>
            <DistanceMeters>NAN</DistanceMeters>
          </Trackpoint>
          <Trackpoint>
            <Time>2021-04-03T12:58:49.000Z</Time>
            <Position>
              <LatitudeDegrees>42.30867692269384860992431640625</LatitudeDegrees>
              <LongitudeDegrees>2.49708705581724643707275390625</LongitudeDegrees>
            </Position>
            <AltitudeMeters>476.20001220703125</AltitudeMeters>
            <DistanceMeters>NAN</DistanceMeters>
          </Trackpoint>
          <Trackpoint>
            <Time>2021-04-03T12:58:56.000Z</Time>
            <Position>
              <LatitudeDegrees>42.3087038286030292510986328125</LatitudeDegrees>
              <LongitudeDegrees>2.49698102474212646484375</LongitudeDegrees>
            </Position>
            <AltitudeMeters>476.399993896484375</AltitudeMeters>
            <DistanceMeters>NAN</DistanceMeters>
          </Trackpoint>
          <Trackpoint>
            <Time>2021-04-03T12:58:57.000Z</Time>
            <Position>
              <LatitudeDegrees>42.3087195865809917449951171875</LatitudeDegrees>
              <LongitudeDegrees>2.4969684518873691558837890625</LongitudeDegrees>
            </Position>
            <AltitudeMeters>476.399993896484375</AltitudeMeters>
            <DistanceMeters>NAN</DistanceMeters>
          </Trackpoint>
          <Trackpoint>
            <Time>2021-04-03T12:59:01.000Z</Time>
            <Position>
              <LatitudeDegrees>42.3087497614324092864990234375</LatitudeDegrees>
              <LongitudeDegrees>2.4969127960503101348876953125</LongitudeDegrees>
            </Position>
            <AltitudeMeters>476.20001220703125</AltitudeMeters>
            <DistanceMeters>NAN</DistanceMeters>
          </Trackpoint>
          <Trackpoint>
            <Time>2021-04-03T12:59:04.000Z</Time>
            <Position>
              <LatitudeDegrees>42.30874188244342803955078125</LatitudeDegrees>
              <LongitudeDegrees>2.49686761759221553802490234375</LongitudeDegrees>
            </Position>
            <AltitudeMeters>476.399993896484375</AltitudeMeters>
            <DistanceMeters>NAN</DistanceMeters>
          </Trackpoint>
          <Trackpoint>
            <Time>2021-04-03T12:59:05.000Z</Time>
            <Position>
              <LatitudeDegrees>42.30874967761337757110595703125</LatitudeDegrees>
              <LongitudeDegrees>2.49685227870941162109375</LongitudeDegrees>
            </Position>
            <AltitudeMeters>476.399993896484375</AltitudeMeters>
            <DistanceMeters>NAN</DistanceMeters>
          </Trackpoint>
          <Trackpoint>
            <Time>2021-04-03T12:59:08.000Z</Time>
            <Position>
              <LatitudeDegrees>42.30875395238399505615234375</LatitudeDegrees>
              <LongitudeDegrees>2.49680064618587493896484375</LongitudeDegrees>
            </Position>
            <AltitudeMeters>476.600006103515625</AltitudeMeters>
            <DistanceMeters>NAN</DistanceMeters>
          </Trackpoint>
          <Trackpoint>
            <Time>2021-04-03T12:59:12.000Z</Time>
            <Position>
              <LatitudeDegrees>42.30877398513257503509521484375</LatitudeDegrees>
              <LongitudeDegrees>2.4967387877404689788818359375</LongitudeDegrees>
            </Position>
            <AltitudeMeters>476.79998779296875</AltitudeMeters>
            <DistanceMeters>NAN</DistanceMeters>
          </Trackpoint>
          <Trackpoint>
            <Time>2021-04-03T12:59:15.000Z</Time>
            <Position>
              <LatitudeDegrees>42.3088054172694683074951171875</LatitudeDegrees>
              <LongitudeDegrees>2.4967149831354618072509765625</LongitudeDegrees>
            </Position>
            <AltitudeMeters>477</AltitudeMeters>
            <DistanceMeters>NAN</DistanceMeters>
          </Trackpoint>
          <Trackpoint>
            <Time>2021-04-03T12:59:22.000Z</Time>
            <Position>
              <LatitudeDegrees>42.30885445140302181243896484375</LatitudeDegrees>
              <LongitudeDegrees>2.49666142277419567108154296875</LongitudeDegrees>
            </Position>
            <AltitudeMeters>477.600006103515625</AltitudeMeters>
            <DistanceMeters>NAN</DistanceMeters>
          </Trackpoint>
          <Trackpoint>
            <Time>2021-04-03T12:59:31.000Z</Time>
            <Position>
              <LatitudeDegrees>42.3089438863098621368408203125</LatitudeDegrees>
              <LongitudeDegrees>2.49665983021259307861328125</LongitudeDegrees>
            </Position>
            <AltitudeMeters>477.79998779296875</AltitudeMeters>
            <DistanceMeters>NAN</DistanceMeters>
          </Trackpoint>
          <Trackpoint>
            <Time>2021-04-03T12:59:37.000Z</Time>
            <Position>
              <LatitudeDegrees>42.30900130234658718109130859375</LatitudeDegrees>
              <LongitudeDegrees>2.49663007445633411407470703125</LongitudeDegrees>
            </Position>
            <AltitudeMeters>477.79998779296875</AltitudeMeters>
            <DistanceMeters>NAN</DistanceMeters>
          </Trackpoint>
          <Trackpoint>
            <Time>2021-04-03T12:59:38.000Z</Time>
            <Position>
              <LatitudeDegrees>42.30901018716394901275634765625</LatitudeDegrees>
              <LongitudeDegrees>2.49661766923964023590087890625</LongitudeDegrees>
            </Position>
            <AltitudeMeters>477.79998779296875</AltitudeMeters>
            <DistanceMeters>NAN</DistanceMeters>
          </Trackpoint>
          <Trackpoint>
            <Time>2021-04-03T12:59:41.000Z</Time>
            <Position>
              <LatitudeDegrees>42.30904002673923969268798828125</LatitudeDegrees>
              <LongitudeDegrees>2.496587075293064117431640625</LongitudeDegrees>
            </Position>
            <AltitudeMeters>477.79998779296875</AltitudeMeters>
            <DistanceMeters>NAN</DistanceMeters>
          </Trackpoint>
          <Trackpoint>
            <Time>2021-04-03T12:59:43.000Z</Time>
            <Position>
              <LatitudeDegrees>42.30904505588114261627197265625</LatitudeDegrees>
              <LongitudeDegrees>2.4965681321918964385986328125</LongitudeDegrees>
            </Position>
            <AltitudeMeters>477.79998779296875</AltitudeMeters>
            <DistanceMeters>NAN</DistanceMeters>
          </Trackpoint>
          <Trackpoint>
            <Time>2021-04-03T12:59:48.000Z</Time>
            <Position>
              <LatitudeDegrees>42.3090545274317264556884765625</LatitudeDegrees>
              <LongitudeDegrees>2.49651792459189891815185546875</LongitudeDegrees>
            </Position>
            <AltitudeMeters>477.79998779296875</AltitudeMeters>
            <DistanceMeters>NAN</DistanceMeters>
          </Trackpoint>
          <Trackpoint>
            <Time>2021-04-03T12:59:52.000Z</Time>
            <Position>
              <LatitudeDegrees>42.30904421769082546234130859375</LatitudeDegrees>
              <LongitudeDegrees>2.4964873306453227996826171875</LongitudeDegrees>
            </Position>
            <AltitudeMeters>477.79998779296875</AltitudeMeters>
            <DistanceMeters>NAN</DistanceMeters>
          </Trackpoint>
          <Trackpoint>
            <Time>2021-04-03T12:59:54.000Z</Time>
            <Position>
              <LatitudeDegrees>42.30902309529483318328857421875</LatitudeDegrees>
              <LongitudeDegrees>2.496470399200916290283203125</LongitudeDegrees>
            </Position>
            <AltitudeMeters>478</AltitudeMeters>
            <DistanceMeters>NAN</DistanceMeters>
          </Trackpoint>
          <Trackpoint>
            <Time>2021-04-03T12:59:55.000Z</Time>
            <Position>
              <LatitudeDegrees>42.3090049065649509429931640625</LatitudeDegrees>
              <LongitudeDegrees>2.49646939337253570556640625</LongitudeDegrees>
            </Position>
            <AltitudeMeters>478</AltitudeMeters>
            <DistanceMeters>NAN</DistanceMeters>
          </Trackpoint>
          <Trackpoint>
            <Time>2021-04-03T12:59:56.000Z</Time>
            <Position>
              <LatitudeDegrees>42.30898856185376644134521484375</LatitudeDegrees>
              <LongitudeDegrees>2.4964678846299648284912109375</LongitudeDegrees>
            </Position>
            <AltitudeMeters>478.20001220703125</AltitudeMeters>
            <DistanceMeters>NAN</DistanceMeters>
          </Trackpoint>
          <Trackpoint>
            <Time>2021-04-03T13:00:01.000Z</Time>
            <Position>
              <LatitudeDegrees>42.30892754159867763519287109375</LatitudeDegrees>
              <LongitudeDegrees>2.496437542140483856201171875</LongitudeDegrees>
            </Position>
            <AltitudeMeters>479</AltitudeMeters>
            <DistanceMeters>NAN</DistanceMeters>
          </Trackpoint>
          <Trackpoint>
            <Time>2021-04-03T13:00:02.000Z</Time>
            <Position>
              <LatitudeDegrees>42.30891647748649120330810546875</LatitudeDegrees>
              <LongitudeDegrees>2.49642857350409030914306640625</LongitudeDegrees>
            </Position>
            <AltitudeMeters>479</AltitudeMeters>
            <DistanceMeters>NAN</DistanceMeters>
          </Trackpoint>
          <Trackpoint>
            <Time>2021-04-03T13:00:04.000Z</Time>
            <Position>
              <LatitudeDegrees>42.3089049942791461944580078125</LatitudeDegrees>
              <LongitudeDegrees>2.49642505310475826263427734375</LongitudeDegrees>
            </Position>
            <AltitudeMeters>479.20001220703125</AltitudeMeters>
            <DistanceMeters>NAN</DistanceMeters>
          </Trackpoint>
          <Trackpoint>
            <Time>2021-04-03T13:00:05.000Z</Time>
            <Position>
              <LatitudeDegrees>42.30889719910919666290283203125</LatitudeDegrees>
              <LongitudeDegrees>2.4964092113077640533447265625</LongitudeDegrees>
            </Position>
            <AltitudeMeters>479.399993896484375</AltitudeMeters>
            <DistanceMeters>NAN</DistanceMeters>
          </Trackpoint>
          <Trackpoint>
            <Time>2021-04-03T13:00:07.000Z</Time>
            <Position>
              <LatitudeDegrees>42.30889200232923030853271484375</LatitudeDegrees>
              <LongitudeDegrees>2.49638481996953487396240234375</LongitudeDegrees>
            </Position>
            <AltitudeMeters>479.600006103515625</AltitudeMeters>
            <DistanceMeters>NAN</DistanceMeters>
          </Trackpoint>
          <Trackpoint>
            <Time>2021-04-03T13:00:08.000Z</Time>
            <Position>
              <LatitudeDegrees>42.3088852129876613616943359375</LatitudeDegrees>
              <LongitudeDegrees>2.49637526459991931915283203125</LongitudeDegrees>
            </Position>
            <AltitudeMeters>479.79998779296875</AltitudeMeters>
            <DistanceMeters>NAN</DistanceMeters>
          </Trackpoint>
          <Trackpoint>
            <Time>2021-04-03T13:00:10.000Z</Time>
            <Position>
              <LatitudeDegrees>42.308872640132904052734375</LatitudeDegrees>
              <LongitudeDegrees>2.496369816362857818603515625</LongitudeDegrees>
            </Position>
            <AltitudeMeters>480</AltitudeMeters>
            <DistanceMeters>NAN</DistanceMeters>
          </Trackpoint>
          <Trackpoint>
            <Time>2021-04-03T13:00:12.000Z</Time>
            <Position>
              <LatitudeDegrees>42.308864593505859375</LatitudeDegrees>
              <LongitudeDegrees>2.496350370347499847412109375</LongitudeDegrees>
            </Position>
            <AltitudeMeters>480.20001220703125</AltitudeMeters>
            <DistanceMeters>NAN</DistanceMeters>
          </Trackpoint>
          <Trackpoint>
            <Time>2021-04-03T13:00:15.000Z</Time>
            <Position>
              <LatitudeDegrees>42.30885176919400691986083984375</LatitudeDegrees>
              <LongitudeDegrees>2.4963163398206233978271484375</LongitudeDegrees>
            </Position>
            <AltitudeMeters>480.600006103515625</AltitudeMeters>
            <DistanceMeters>NAN</DistanceMeters>
          </Trackpoint>
          <Trackpoint>
            <Time>2021-04-03T13:00:20.000Z</Time>
            <Position>
              <LatitudeDegrees>42.30883668176829814910888671875</LatitudeDegrees>
              <LongitudeDegrees>2.49624333344399929046630859375</LongitudeDegrees>
            </Position>
            <AltitudeMeters>481.20001220703125</AltitudeMeters>
            <DistanceMeters>NAN</DistanceMeters>
          </Trackpoint>
          <Trackpoint>
            <Time>2021-04-03T13:00:25.000Z</Time>
            <Position>
              <LatitudeDegrees>42.3088312335312366485595703125</LatitudeDegrees>
              <LongitudeDegrees>2.49617074616253376007080078125</LongitudeDegrees>
            </Position>
            <AltitudeMeters>481.600006103515625</AltitudeMeters>
            <DistanceMeters>NAN</DistanceMeters>
          </Trackpoint>
          <Trackpoint>
            <Time>2021-04-03T13:00:28.000Z</Time>
            <Position>
              <LatitudeDegrees>42.308823354542255401611328125</LatitudeDegrees>
              <LongitudeDegrees>2.49612263403832912445068359375</LongitudeDegrees>
            </Position>
            <AltitudeMeters>482</AltitudeMeters>
            <DistanceMeters>NAN</DistanceMeters>
          </Trackpoint>
          <Trackpoint>
            <Time>2021-04-03T13:00:29.000Z</Time>
            <Position>
              <LatitudeDegrees>42.3088205046951770782470703125</LatitudeDegrees>
              <LongitudeDegrees>2.49610603787004947662353515625</LongitudeDegrees>
            </Position>
            <AltitudeMeters>482.20001220703125</AltitudeMeters>
            <DistanceMeters>NAN</DistanceMeters>
          </Trackpoint>
          <Trackpoint>
            <Time>2021-04-03T13:00:35.000Z</Time>
            <Position>
              <LatitudeDegrees>42.30882913805544376373291015625</LatitudeDegrees>
              <LongitudeDegrees>2.4960246495902538299560546875</LongitudeDegrees>
            </Position>
            <AltitudeMeters>483</AltitudeMeters>
            <DistanceMeters>NAN</DistanceMeters>
          </Trackpoint>
          <Trackpoint>
            <Time>2021-04-03T13:00:36.000Z</Time>
            <Position>
              <LatitudeDegrees>42.30882192961871623992919921875</LatitudeDegrees>
              <LongitudeDegrees>2.49600998125970363616943359375</LongitudeDegrees>
            </Position>
            <AltitudeMeters>483.20001220703125</AltitudeMeters>
            <DistanceMeters>NAN</DistanceMeters>
          </Trackpoint>
          <Trackpoint>
            <Time>2021-04-03T13:00:45.000Z</Time>
            <Position>
              <LatitudeDegrees>42.30881555937230587005615234375</LatitudeDegrees>
              <LongitudeDegrees>2.49585810117423534393310546875</LongitudeDegrees>
            </Position>
            <AltitudeMeters>483.79998779296875</AltitudeMeters>
            <DistanceMeters>NAN</DistanceMeters>
          </Trackpoint>
          <Trackpoint>
            <Time>2021-04-03T13:00:46.000Z</Time>
            <Position>
              <LatitudeDegrees>42.3088087700307369232177734375</LatitudeDegrees>
              <LongitudeDegrees>2.495840750634670257568359375</LongitudeDegrees>
            </Position>
            <AltitudeMeters>483.79998779296875</AltitudeMeters>
            <DistanceMeters>NAN</DistanceMeters>
          </Trackpoint>
          <Trackpoint>
            <Time>2021-04-03T13:00:51.000Z</Time>
            <Position>
              <LatitudeDegrees>42.3088027350604534149169921875</LatitudeDegrees>
              <LongitudeDegrees>2.495765648782253265380859375</LongitudeDegrees>
            </Position>
            <AltitudeMeters>484.20001220703125</AltitudeMeters>
            <DistanceMeters>NAN</DistanceMeters>
          </Trackpoint>
          <Trackpoint>
            <Time>2021-04-03T13:00:55.000Z</Time>
            <Position>
              <LatitudeDegrees>42.30880399234592914581298828125</LatitudeDegrees>
              <LongitudeDegrees>2.49571242369711399078369140625</LongitudeDegrees>
            </Position>
            <AltitudeMeters>484.399993896484375</AltitudeMeters>
            <DistanceMeters>NAN</DistanceMeters>
          </Trackpoint>
          <Trackpoint>
            <Time>2021-04-03T13:01:02.000Z</Time>
            <Position>
              <LatitudeDegrees>42.30880483053624629974365234375</LatitudeDegrees>
              <LongitudeDegrees>2.4956042133271694183349609375</LongitudeDegrees>
            </Position>
            <AltitudeMeters>485.20001220703125</AltitudeMeters>
            <DistanceMeters>NAN</DistanceMeters>
          </Trackpoint>
          <Trackpoint>
            <Time>2021-04-03T13:01:08.000Z</Time>
            <Position>
              <LatitudeDegrees>42.30879594571888446807861328125</LatitudeDegrees>
              <LongitudeDegrees>2.495496086776256561279296875</LongitudeDegrees>
            </Position>
            <AltitudeMeters>485.600006103515625</AltitudeMeters>
            <DistanceMeters>NAN</DistanceMeters>
          </Trackpoint>
          <Trackpoint>
            <Time>2021-04-03T13:01:11.000Z</Time>
            <Position>
              <LatitudeDegrees>42.30879410170018672943115234375</LatitudeDegrees>
              <LongitudeDegrees>2.49545660801231861114501953125</LongitudeDegrees>
            </Position>
            <AltitudeMeters>485.600006103515625</AltitudeMeters>
            <DistanceMeters>NAN</DistanceMeters>
          </Trackpoint>
          <Trackpoint>
            <Time>2021-04-03T13:01:21.000Z</Time>
            <Position>
              <LatitudeDegrees>42.30878957547247409820556640625</LatitudeDegrees>
              <LongitudeDegrees>2.49529466964304447174072265625</LongitudeDegrees>
            </Position>
            <AltitudeMeters>486.20001220703125</AltitudeMeters>
            <DistanceMeters>NAN</DistanceMeters>
          </Trackpoint>
          <Trackpoint>
            <Time>2021-04-03T13:01:22.000Z</Time>
            <Position>
              <LatitudeDegrees>42.3087883181869983673095703125</LatitudeDegrees>
              <LongitudeDegrees>2.4952783249318599700927734375</LongitudeDegrees>
            </Position>
            <AltitudeMeters>486.399993896484375</AltitudeMeters>
            <DistanceMeters>NAN</DistanceMeters>
          </Trackpoint>
          <Trackpoint>
            <Time>2021-04-03T13:01:26.000Z</Time>
            <Position>
              <LatitudeDegrees>42.30879510752856731414794921875</LatitudeDegrees>
              <LongitudeDegrees>2.49521738849580287933349609375</LongitudeDegrees>
            </Position>
            <AltitudeMeters>486.600006103515625</AltitudeMeters>
            <DistanceMeters>NAN</DistanceMeters>
          </Trackpoint>
          <Trackpoint>
            <Time>2021-04-03T13:01:29.000Z</Time>
            <Position>
              <LatitudeDegrees>42.3087956942617893218994140625</LatitudeDegrees>
              <LongitudeDegrees>2.4951606430113315582275390625</LongitudeDegrees>
            </Position>
            <AltitudeMeters>486.79998779296875</AltitudeMeters>
            <DistanceMeters>NAN</DistanceMeters>
          </Trackpoint>
          <Trackpoint>
            <Time>2021-04-03T13:01:34.000Z</Time>
            <Position>
              <LatitudeDegrees>42.3088137991726398468017578125</LatitudeDegrees>
              <LongitudeDegrees>2.495098449289798736572265625</LongitudeDegrees>
            </Position>
            <AltitudeMeters>487</AltitudeMeters>
            <DistanceMeters>NAN</DistanceMeters>
          </Trackpoint>
          <Trackpoint>
            <Time>2021-04-03T13:01:42.000Z</Time>
            <Position>
              <LatitudeDegrees>42.308817990124225616455078125</LatitudeDegrees>
              <LongitudeDegrees>2.49497280456125736236572265625</LongitudeDegrees>
            </Position>
            <AltitudeMeters>487.399993896484375</AltitudeMeters>
            <DistanceMeters>NAN</DistanceMeters>
          </Trackpoint>
          <Trackpoint>
            <Time>2021-04-03T13:01:46.000Z</Time>
            <Position>
              <LatitudeDegrees>42.3088359273970127105712890625</LatitudeDegrees>
              <LongitudeDegrees>2.49492653645575046539306640625</LongitudeDegrees>
            </Position>
            <AltitudeMeters>487.600006103515625</AltitudeMeters>
            <DistanceMeters>NAN</DistanceMeters>
          </Trackpoint>
          <Trackpoint>
            <Time>2021-04-03T13:01:57.000Z</Time>
            <Position>
              <LatitudeDegrees>42.30885512195527553558349609375</LatitudeDegrees>
              <LongitudeDegrees>2.4947837926447391510009765625</LongitudeDegrees>
            </Position>
            <AltitudeMeters>488.20001220703125</AltitudeMeters>
            <DistanceMeters>NAN</DistanceMeters>
          </Trackpoint>
          <Trackpoint>
            <Time>2021-04-03T13:01:59.000Z</Time>
            <Position>
              <LatitudeDegrees>42.30885730125010013580322265625</LatitudeDegrees>
              <LongitudeDegrees>2.49476015567779541015625</LongitudeDegrees>
            </Position>
            <AltitudeMeters>488.399993896484375</AltitudeMeters>
            <DistanceMeters>NAN</DistanceMeters>
          </Trackpoint>
          <Trackpoint>
            <Time>2021-04-03T13:02:03.000Z</Time>
            <Position>
              <LatitudeDegrees>42.308849506080150604248046875</LatitudeDegrees>
              <LongitudeDegrees>2.4947023205459117889404296875</LongitudeDegrees>
            </Position>
            <AltitudeMeters>488.600006103515625</AltitudeMeters>
            <DistanceMeters>NAN</DistanceMeters>
          </Trackpoint>
          <Trackpoint>
            <Time>2021-04-03T13:02:07.000Z</Time>
            <Position>
              <LatitudeDegrees>42.3088305629789829254150390625</LatitudeDegrees>
              <LongitudeDegrees>2.49465362168848514556884765625</LongitudeDegrees>
            </Position>
            <AltitudeMeters>489</AltitudeMeters>
            <DistanceMeters>NAN</DistanceMeters>
          </Trackpoint>
          <Trackpoint>
            <Time>2021-04-03T13:02:12.000Z</Time>
            <Position>
              <LatitudeDegrees>42.3088067583739757537841796875</LatitudeDegrees>
              <LongitudeDegrees>2.49458472244441509246826171875</LongitudeDegrees>
            </Position>
            <AltitudeMeters>489.399993896484375</AltitudeMeters>
            <DistanceMeters>NAN</DistanceMeters>
          </Trackpoint>
          <Trackpoint>
            <Time>2021-04-03T13:02:17.000Z</Time>
            <Position>
              <LatitudeDegrees>42.3087993822991847991943359375</LatitudeDegrees>
              <LongitudeDegrees>2.49451674520969390869140625</LongitudeDegrees>
            </Position>
            <AltitudeMeters>489.600006103515625</AltitudeMeters>
            <DistanceMeters>NAN</DistanceMeters>
          </Trackpoint>
          <Trackpoint>
            <Time>2021-04-03T13:02:25.000Z</Time>
            <Position>
              <LatitudeDegrees>42.30876778252422809600830078125</LatitudeDegrees>
              <LongitudeDegrees>2.4944186769425868988037109375</LongitudeDegrees>
            </Position>
            <AltitudeMeters>489.600006103515625</AltitudeMeters>
            <DistanceMeters>NAN</DistanceMeters>
          </Trackpoint>
          <Trackpoint>
            <Time>2021-04-03T13:02:29.000Z</Time>
            <Position>
              <LatitudeDegrees>42.3087584786117076873779296875</LatitudeDegrees>
              <LongitudeDegrees>2.49438120983541011810302734375</LongitudeDegrees>
            </Position>
            <AltitudeMeters>489.600006103515625</AltitudeMeters>
            <DistanceMeters>NAN</DistanceMeters>
          </Trackpoint>
          <Trackpoint>
            <Time>2021-04-03T13:02:39.000Z</Time>
            <Position>
              <LatitudeDegrees>42.30870793573558330535888671875</LatitudeDegrees>
              <LongitudeDegrees>2.494241483509540557861328125</LongitudeDegrees>
            </Position>
            <AltitudeMeters>489.600006103515625</AltitudeMeters>
            <DistanceMeters>NAN</DistanceMeters>
          </Trackpoint>
          <Trackpoint>
            <Time>2021-04-03T13:02:41.000Z</Time>
            <Position>
              <LatitudeDegrees>42.3087004758417606353759765625</LatitudeDegrees>
              <LongitudeDegrees>2.49422170221805572509765625</LongitudeDegrees>
            </Position>
            <AltitudeMeters>489.79998779296875</AltitudeMeters>
            <DistanceMeters>NAN</DistanceMeters>
          </Trackpoint>
          <Trackpoint>
            <Time>2021-04-03T13:02:50.000Z</Time>
            <Position>
              <LatitudeDegrees>42.30867172591388225555419921875</LatitudeDegrees>
              <LongitudeDegrees>2.494103014469146728515625</LongitudeDegrees>
            </Position>
            <AltitudeMeters>490</AltitudeMeters>
            <DistanceMeters>NAN</DistanceMeters>
          </Trackpoint>
          <Trackpoint>
            <Time>2021-04-03T13:03:00.000Z</Time>
            <Position>
              <LatitudeDegrees>42.3086364381015300750732421875</LatitudeDegrees>
              <LongitudeDegrees>2.49396261759102344512939453125</LongitudeDegrees>
            </Position>
            <AltitudeMeters>490.399993896484375</AltitudeMeters>
            <DistanceMeters>NAN</DistanceMeters>
          </Trackpoint>
          <Trackpoint>
            <Time>2021-04-03T13:03:01.000Z</Time>
            <Position>
              <LatitudeDegrees>42.30863685719668865203857421875</LatitudeDegrees>
              <LongitudeDegrees>2.49394618906080722808837890625</LongitudeDegrees>
            </Position>
            <AltitudeMeters>490.399993896484375</AltitudeMeters>
            <DistanceMeters>NAN</DistanceMeters>
          </Trackpoint>
          <Trackpoint>
            <Time>2021-04-03T13:03:11.000Z</Time>
            <Position>
              <LatitudeDegrees>42.30861422605812549591064453125</LatitudeDegrees>
              <LongitudeDegrees>2.493817023932933807373046875</LongitudeDegrees>
            </Position>
            <AltitudeMeters>490.600006103515625</AltitudeMeters>
            <DistanceMeters>NAN</DistanceMeters>
          </Trackpoint>
          <Trackpoint>
            <Time>2021-04-03T13:03:14.000Z</Time>
            <Position>
              <LatitudeDegrees>42.3086102865636348724365234375</LatitudeDegrees>
              <LongitudeDegrees>2.4937776289880275726318359375</LongitudeDegrees>
            </Position>
            <AltitudeMeters>490.79998779296875</AltitudeMeters>
            <DistanceMeters>NAN</DistanceMeters>
          </Trackpoint>
          <Trackpoint>
            <Time>2021-04-03T13:03:17.000Z</Time>
            <Position>
              <LatitudeDegrees>42.3086059279739856719970703125</LatitudeDegrees>
              <LongitudeDegrees>2.4937340430915355682373046875</LongitudeDegrees>
            </Position>
            <AltitudeMeters>491</AltitudeMeters>
            <DistanceMeters>NAN</DistanceMeters>
          </Trackpoint>
          <Trackpoint>
            <Time>2021-04-03T13:03:18.000Z</Time>
            <Position>
              <LatitudeDegrees>42.30860869400203227996826171875</LatitudeDegrees>
              <LongitudeDegrees>2.493722476065158843994140625</LongitudeDegrees>
            </Position>
            <AltitudeMeters>491</AltitudeMeters>
            <DistanceMeters>NAN</DistanceMeters>
          </Trackpoint>
          <Trackpoint>
            <Time>2021-04-03T13:03:19.000Z</Time>
            <Position>
              <LatitudeDegrees>42.3086096160113811492919921875</LatitudeDegrees>
              <LongitudeDegrees>2.49370495788753032684326171875</LongitudeDegrees>
            </Position>
            <AltitudeMeters>491.20001220703125</AltitudeMeters>
            <DistanceMeters>NAN</DistanceMeters>
          </Trackpoint>
          <Trackpoint>
            <Time>2021-04-03T13:03:23.000Z</Time>
            <Position>
              <LatitudeDegrees>42.3086126334965229034423828125</LatitudeDegrees>
              <LongitudeDegrees>2.49365047551691532135009765625</LongitudeDegrees>
            </Position>
            <AltitudeMeters>491.399993896484375</AltitudeMeters>
            <DistanceMeters>NAN</DistanceMeters>
          </Trackpoint>
          <Trackpoint>
            <Time>2021-04-03T13:03:25.000Z</Time>
            <Position>
              <LatitudeDegrees>42.3086084425449371337890625</LatitudeDegrees>
              <LongitudeDegrees>2.493609488010406494140625</LongitudeDegrees>
            </Position>
            <AltitudeMeters>491.399993896484375</AltitudeMeters>
            <DistanceMeters>NAN</DistanceMeters>
          </Trackpoint>
          <Trackpoint>
            <Time>2021-04-03T13:03:34.000Z</Time>
            <Position>
              <LatitudeDegrees>42.3086096160113811492919921875</LatitudeDegrees>
              <LongitudeDegrees>2.493487782776355743408203125</LongitudeDegrees>
            </Position>
            <AltitudeMeters>492</AltitudeMeters>
            <DistanceMeters>NAN</DistanceMeters>
          </Trackpoint>
          <Trackpoint>
            <Time>2021-04-03T13:03:41.000Z</Time>
            <Position>
              <LatitudeDegrees>42.30858572758734226226806640625</LatitudeDegrees>
              <LongitudeDegrees>2.4933846853673458099365234375</LongitudeDegrees>
            </Position>
            <AltitudeMeters>492.399993896484375</AltitudeMeters>
            <DistanceMeters>NAN</DistanceMeters>
          </Trackpoint>
          <Trackpoint>
            <Time>2021-04-03T13:03:47.000Z</Time>
            <Position>
              <LatitudeDegrees>42.30856083333492279052734375</LatitudeDegrees>
              <LongitudeDegrees>2.493296004831790924072265625</LongitudeDegrees>
            </Position>
            <AltitudeMeters>492.399993896484375</AltitudeMeters>
            <DistanceMeters>NAN</DistanceMeters>
          </Trackpoint>
          <Trackpoint>
            <Time>2021-04-03T13:03:56.000Z</Time>
            <Position>
              <LatitudeDegrees>42.30855823494493961334228515625</LatitudeDegrees>
              <LongitudeDegrees>2.49316734261810779571533203125</LongitudeDegrees>
            </Position>
            <AltitudeMeters>492</AltitudeMeters>
            <DistanceMeters>NAN</DistanceMeters>
          </Trackpoint>
          <Trackpoint>
            <Time>2021-04-03T13:04:02.000Z</Time>
            <Position>
              <LatitudeDegrees>42.30854297988116741180419921875</LatitudeDegrees>
              <LongitudeDegrees>2.49307916499674320220947265625</LongitudeDegrees>
            </Position>
            <AltitudeMeters>492.20001220703125</AltitudeMeters>
            <DistanceMeters>NAN</DistanceMeters>
          </Trackpoint>
          <Trackpoint>
            <Time>2021-04-03T13:04:04.000Z</Time>
            <Position>
              <LatitudeDegrees>42.3085408844053745269775390625</LatitudeDegrees>
              <LongitudeDegrees>2.4930440448224544525146484375</LongitudeDegrees>
            </Position>
            <AltitudeMeters>492</AltitudeMeters>
            <DistanceMeters>NAN</DistanceMeters>
          </Trackpoint>
          <Trackpoint>
            <Time>2021-04-03T13:04:09.000Z</Time>
            <Position>
              <LatitudeDegrees>42.3085123859345912933349609375</LatitudeDegrees>
              <LongitudeDegrees>2.4929796718060970306396484375</LongitudeDegrees>
            </Position>
            <AltitudeMeters>491.600006103515625</AltitudeMeters>
            <DistanceMeters>NAN</DistanceMeters>
          </Trackpoint>
          <Trackpoint>
            <Time>2021-04-03T13:04:11.000Z</Time>
            <Position>
              <LatitudeDegrees>42.3085043393075466156005859375</LatitudeDegrees>
              <LongitudeDegrees>2.492959387600421905517578125</LongitudeDegrees>
            </Position>
            <AltitudeMeters>491.600006103515625</AltitudeMeters>
            <DistanceMeters>NAN</DistanceMeters>
          </Trackpoint>
          <Trackpoint>
            <Time>2021-04-03T13:04:13.000Z</Time>
            <Position>
              <LatitudeDegrees>42.30849972926080226898193359375</LatitudeDegrees>
              <LongitudeDegrees>2.49293650500476360321044921875</LongitudeDegrees>
            </Position>
            <AltitudeMeters>491.600006103515625</AltitudeMeters>
            <DistanceMeters>NAN</DistanceMeters>
          </Trackpoint>
          <Trackpoint>
            <Time>2021-04-03T13:04:18.000Z</Time>
            <Position>
              <LatitudeDegrees>42.3084983043372631072998046875</LatitudeDegrees>
              <LongitudeDegrees>2.49285486526787281036376953125</LongitudeDegrees>
            </Position>
            <AltitudeMeters>491.399993896484375</AltitudeMeters>
            <DistanceMeters>NAN</DistanceMeters>
          </Trackpoint>
          <Trackpoint>
            <Time>2021-04-03T13:04:26.000Z</Time>
            <Position>
              <LatitudeDegrees>42.308472655713558197021484375</LatitudeDegrees>
              <LongitudeDegrees>2.49271103180944919586181640625</LongitudeDegrees>
            </Position>
            <AltitudeMeters>491.20001220703125</AltitudeMeters>
            <DistanceMeters>NAN</DistanceMeters>
          </Trackpoint>
          <Trackpoint>
            <Time>2021-04-03T13:04:32.000Z</Time>
            <Position>
              <LatitudeDegrees>42.3084609210491180419921875</LatitudeDegrees>
              <LongitudeDegrees>2.492635510861873626708984375</LongitudeDegrees>
            </Position>
            <AltitudeMeters>490.79998779296875</AltitudeMeters>
            <DistanceMeters>NAN</DistanceMeters>
          </Trackpoint>
          <Trackpoint>
            <Time>2021-04-03T13:04:33.000Z</Time>
            <Position>
              <LatitudeDegrees>42.30846217833459377288818359375</LatitudeDegrees>
              <LongitudeDegrees>2.49262201599776744842529296875</LongitudeDegrees>
            </Position>
            <AltitudeMeters>490.79998779296875</AltitudeMeters>
            <DistanceMeters>NAN</DistanceMeters>
          </Trackpoint>
          <Trackpoint>
            <Time>2021-04-03T13:04:40.000Z</Time>
            <Position>
              <LatitudeDegrees>42.30847475118935108184814453125</LatitudeDegrees>
              <LongitudeDegrees>2.49250617809593677520751953125</LongitudeDegrees>
            </Position>
            <AltitudeMeters>490.79998779296875</AltitudeMeters>
            <DistanceMeters>NAN</DistanceMeters>
          </Trackpoint>
          <Trackpoint>
            <Time>2021-04-03T13:04:47.000Z</Time>
            <Position>
              <LatitudeDegrees>42.30849587358534336090087890625</LatitudeDegrees>
              <LongitudeDegrees>2.49239184893667697906494140625</LongitudeDegrees>
            </Position>
            <AltitudeMeters>490.600006103515625</AltitudeMeters>
            <DistanceMeters>NAN</DistanceMeters>
          </Trackpoint>
          <Trackpoint>
            <Time>2021-04-03T13:04:52.000Z</Time>
            <Position>
              <LatitudeDegrees>42.30851012282073497772216796875</LatitudeDegrees>
              <LongitudeDegrees>2.492326386272907257080078125</LongitudeDegrees>
            </Position>
            <AltitudeMeters>490.600006103515625</AltitudeMeters>
            <DistanceMeters>NAN</DistanceMeters>
          </Trackpoint>
          <Trackpoint>
            <Time>2021-04-03T13:04:56.000Z</Time>
            <Position>
              <LatitudeDegrees>42.30851045809686183929443359375</LatitudeDegrees>
              <LongitudeDegrees>2.49227232299745082855224609375</LongitudeDegrees>
            </Position>
            <AltitudeMeters>490.399993896484375</AltitudeMeters>
            <DistanceMeters>NAN</DistanceMeters>
          </Trackpoint>
          <Trackpoint>
            <Time>2021-04-03T13:04:58.000Z</Time>
            <Position>
              <LatitudeDegrees>42.30851381085813045501708984375</LatitudeDegrees>
              <LongitudeDegrees>2.4922335147857666015625</LongitudeDegrees>
            </Position>
            <AltitudeMeters>490.399993896484375</AltitudeMeters>
            <DistanceMeters>NAN</DistanceMeters>
          </Trackpoint>
          <Trackpoint>
            <Time>2021-04-03T13:04:59.000Z</Time>
            <Position>
              <LatitudeDegrees>42.308518253266811370849609375</LatitudeDegrees>
              <LongitudeDegrees>2.49222337268292903900146484375</LongitudeDegrees>
            </Position>
            <AltitudeMeters>490.399993896484375</AltitudeMeters>
            <DistanceMeters>NAN</DistanceMeters>
          </Trackpoint>
          <Trackpoint>
            <Time>2021-04-03T13:05:01.000Z</Time>
            <Position>
              <LatitudeDegrees>42.3085214383900165557861328125</LatitudeDegrees>
              <LongitudeDegrees>2.49219520948827266693115234375</LongitudeDegrees>
            </Position>
            <AltitudeMeters>490.399993896484375</AltitudeMeters>
            <DistanceMeters>NAN</DistanceMeters>
          </Trackpoint>
          <Trackpoint>
            <Time>2021-04-03T13:05:05.000Z</Time>
            <Position>
              <LatitudeDegrees>42.30852806009352207183837890625</LatitudeDegrees>
              <LongitudeDegrees>2.49213083647191524505615234375</LongitudeDegrees>
            </Position>
            <AltitudeMeters>490.20001220703125</AltitudeMeters>
            <DistanceMeters>NAN</DistanceMeters>
          </Trackpoint>
          <Trackpoint>
            <Time>2021-04-03T13:05:11.000Z</Time>
            <Position>
              <LatitudeDegrees>42.3085190914571285247802734375</LatitudeDegrees>
              <LongitudeDegrees>2.4920388869941234588623046875</LongitudeDegrees>
            </Position>
            <AltitudeMeters>490.20001220703125</AltitudeMeters>
            <DistanceMeters>NAN</DistanceMeters>
          </Trackpoint>
          <Trackpoint>
            <Time>2021-04-03T13:05:13.000Z</Time>
            <Position>
              <LatitudeDegrees>42.30851096101105213165283203125</LatitudeDegrees>
              <LongitudeDegrees>2.49200108461081981658935546875</LongitudeDegrees>
            </Position>
            <AltitudeMeters>490.20001220703125</AltitudeMeters>
            <DistanceMeters>NAN</DistanceMeters>
          </Trackpoint>
          <Trackpoint>
            <Time>2021-04-03T13:05:14.000Z</Time>
            <Position>
              <LatitudeDegrees>42.30850861407816410064697265625</LatitudeDegrees>
              <LongitudeDegrees>2.49198515899479389190673828125</LongitudeDegrees>
            </Position>
            <AltitudeMeters>490.20001220703125</AltitudeMeters>
            <DistanceMeters>NAN</DistanceMeters>
          </Trackpoint>
          <Trackpoint>
            <Time>2021-04-03T13:05:21.000Z</Time>
            <Position>
              <LatitudeDegrees>42.30848682112991809844970703125</LatitudeDegrees>
              <LongitudeDegrees>2.4919076263904571533203125</LongitudeDegrees>
            </Position>
            <AltitudeMeters>490</AltitudeMeters>
            <DistanceMeters>NAN</DistanceMeters>
          </Trackpoint>
          <Trackpoint>
            <Time>2021-04-03T13:05:23.000Z</Time>
            <Position>
              <LatitudeDegrees>42.30846972204744815826416015625</LatitudeDegrees>
              <LongitudeDegrees>2.4918836541473865509033203125</LongitudeDegrees>
            </Position>
            <AltitudeMeters>490</AltitudeMeters>
            <DistanceMeters>NAN</DistanceMeters>
          </Trackpoint>
          <Trackpoint>
            <Time>2021-04-03T13:05:26.000Z</Time>
            <Position>
              <LatitudeDegrees>42.30846150778234004974365234375</LatitudeDegrees>
              <LongitudeDegrees>2.4918253161013126373291015625</LongitudeDegrees>
            </Position>
            <AltitudeMeters>490</AltitudeMeters>
            <DistanceMeters>NAN</DistanceMeters>
          </Trackpoint>
          <Trackpoint>
            <Time>2021-04-03T13:05:33.000Z</Time>
            <Position>
              <LatitudeDegrees>42.30846293270587921142578125</LatitudeDegrees>
              <LongitudeDegrees>2.491693384945392608642578125</LongitudeDegrees>
            </Position>
            <AltitudeMeters>489.79998779296875</AltitudeMeters>
            <DistanceMeters>NAN</DistanceMeters>
          </Trackpoint>
          <Trackpoint>
            <Time>2021-04-03T13:05:34.000Z</Time>
            <Position>
              <LatitudeDegrees>42.308461926877498626708984375</LatitudeDegrees>
              <LongitudeDegrees>2.4916742742061614990234375</LongitudeDegrees>
            </Position>
            <AltitudeMeters>489.79998779296875</AltitudeMeters>
            <DistanceMeters>NAN</DistanceMeters>
          </Trackpoint>
          <Trackpoint>
            <Time>2021-04-03T13:05:40.000Z</Time>
            <Position>
              <LatitudeDegrees>42.30848447419703006744384765625</LatitudeDegrees>
              <LongitudeDegrees>2.4916154332458972930908203125</LongitudeDegrees>
            </Position>
            <AltitudeMeters>489.79998779296875</AltitudeMeters>
            <DistanceMeters>NAN</DistanceMeters>
          </Trackpoint>
          <Trackpoint>
            <Time>2021-04-03T13:05:41.000Z</Time>
            <Position>
              <LatitudeDegrees>42.30848648585379123687744140625</LatitudeDegrees>
              <LongitudeDegrees>2.49160126782953739166259765625</LongitudeDegrees>
            </Position>
            <AltitudeMeters>489.79998779296875</AltitudeMeters>
            <DistanceMeters>NAN</DistanceMeters>
          </Trackpoint>
          <Trackpoint>
            <Time>2021-04-03T13:05:50.000Z</Time>
            <Position>
              <LatitudeDegrees>42.30850626714527606964111328125</LatitudeDegrees>
              <LongitudeDegrees>2.4914558418095111846923828125</LongitudeDegrees>
            </Position>
            <AltitudeMeters>489.600006103515625</AltitudeMeters>
            <DistanceMeters>NAN</DistanceMeters>
          </Trackpoint>
          <Trackpoint>
            <Time>2021-04-03T13:05:56.000Z</Time>
            <Position>
              <LatitudeDegrees>42.30852521024644374847412109375</LatitudeDegrees>
              <LongitudeDegrees>2.49134905636310577392578125</LongitudeDegrees>
            </Position>
            <AltitudeMeters>489.79998779296875</AltitudeMeters>
            <DistanceMeters>NAN</DistanceMeters>
          </Trackpoint>
          <Trackpoint>
            <Time>2021-04-03T13:06:05.000Z</Time>
            <Position>
              <LatitudeDegrees>42.30852940119802951812744140625</LatitudeDegrees>
              <LongitudeDegrees>2.4912035465240478515625</LongitudeDegrees>
            </Position>
            <AltitudeMeters>489.79998779296875</AltitudeMeters>
            <DistanceMeters>NAN</DistanceMeters>
          </Trackpoint>
          <Trackpoint>
            <Time>2021-04-03T13:06:06.000Z</Time>
            <Position>
              <LatitudeDegrees>42.30852688662707805633544921875</LatitudeDegrees>
              <LongitudeDegrees>2.4911815859377384185791015625</LongitudeDegrees>
            </Position>
            <AltitudeMeters>489.79998779296875</AltitudeMeters>
            <DistanceMeters>NAN</DistanceMeters>
          </Trackpoint>
          <Trackpoint>
            <Time>2021-04-03T13:06:10.000Z</Time>
            <Position>
              <LatitudeDegrees>42.308518923819065093994140625</LatitudeDegrees>
              <LongitudeDegrees>2.49111310578882694244384765625</LongitudeDegrees>
            </Position>
            <AltitudeMeters>489.600006103515625</AltitudeMeters>
            <DistanceMeters>NAN</DistanceMeters>
          </Trackpoint>
          <Trackpoint>
            <Time>2021-04-03T13:06:12.000Z</Time>
            <Position>
              <LatitudeDegrees>42.3085237853229045867919921875</LatitudeDegrees>
              <LongitudeDegrees>2.49107949435710906982421875</LongitudeDegrees>
            </Position>
            <AltitudeMeters>489.600006103515625</AltitudeMeters>
            <DistanceMeters>NAN</DistanceMeters>
          </Trackpoint>
          <Trackpoint>
            <Time>2021-04-03T13:06:14.000Z</Time>
            <Position>
              <LatitudeDegrees>42.3085231147706508636474609375</LatitudeDegrees>
              <LongitudeDegrees>2.49104822985827922821044921875</LongitudeDegrees>
            </Position>
            <AltitudeMeters>489.600006103515625</AltitudeMeters>
            <DistanceMeters>NAN</DistanceMeters>
          </Trackpoint>
          <Trackpoint>
            <Time>2021-04-03T13:06:21.000Z</Time>
            <Position>
              <LatitudeDegrees>42.30850844644010066986083984375</LatitudeDegrees>
              <LongitudeDegrees>2.49094060622155666351318359375</LongitudeDegrees>
            </Position>
            <AltitudeMeters>489.399993896484375</AltitudeMeters>
            <DistanceMeters>NAN</DistanceMeters>
          </Trackpoint>
          <Trackpoint>
            <Time>2021-04-03T13:06:29.000Z</Time>
            <Position>
              <LatitudeDegrees>42.30852504260838031768798828125</LatitudeDegrees>
              <LongitudeDegrees>2.490836083889007568359375</LongitudeDegrees>
            </Position>
            <AltitudeMeters>489.600006103515625</AltitudeMeters>
            <DistanceMeters>NAN</DistanceMeters>
          </Trackpoint>
          <Trackpoint>
            <Time>2021-04-03T13:06:30.000Z</Time>
            <Position>
              <LatitudeDegrees>42.30853677727282047271728515625</LatitudeDegrees>
              <LongitudeDegrees>2.490827031433582305908203125</LongitudeDegrees>
            </Position>
            <AltitudeMeters>489.600006103515625</AltitudeMeters>
            <DistanceMeters>NAN</DistanceMeters>
          </Trackpoint>
          <Trackpoint>
            <Time>2021-04-03T13:06:41.000Z</Time>
            <Position>
              <LatitudeDegrees>42.30860014446079730987548828125</LatitudeDegrees>
              <LongitudeDegrees>2.4906964413821697235107421875</LongitudeDegrees>
            </Position>
            <AltitudeMeters>489.79998779296875</AltitudeMeters>
            <DistanceMeters>NAN</DistanceMeters>
          </Trackpoint>
          <Trackpoint>
            <Time>2021-04-03T13:06:49.000Z</Time>
            <Position>
              <LatitudeDegrees>42.30865596793591976165771484375</LatitudeDegrees>
              <LongitudeDegrees>2.490612454712390899658203125</LongitudeDegrees>
            </Position>
            <AltitudeMeters>490.399993896484375</AltitudeMeters>
            <DistanceMeters>NAN</DistanceMeters>
          </Trackpoint>
          <Trackpoint>
            <Time>2021-04-03T13:06:59.000Z</Time>
            <Position>
              <LatitudeDegrees>42.30872503481805324554443359375</LatitudeDegrees>
              <LongitudeDegrees>2.49049552716314792633056640625</LongitudeDegrees>
            </Position>
            <AltitudeMeters>491.20001220703125</AltitudeMeters>
            <DistanceMeters>NAN</DistanceMeters>
          </Trackpoint>
          <Trackpoint>
            <Time>2021-04-03T13:07:01.000Z</Time>
            <Position>
              <LatitudeDegrees>42.308747582137584686279296875</LatitudeDegrees>
              <LongitudeDegrees>2.4904925934970378875732421875</LongitudeDegrees>
            </Position>
            <AltitudeMeters>491.399993896484375</AltitudeMeters>
            <DistanceMeters>NAN</DistanceMeters>
          </Trackpoint>
          <Trackpoint>
            <Time>2021-04-03T13:07:06.000Z</Time>
            <Position>
              <LatitudeDegrees>42.30879259295761585235595703125</LatitudeDegrees>
              <LongitudeDegrees>2.49045629985630512237548828125</LongitudeDegrees>
            </Position>
            <AltitudeMeters>492.20001220703125</AltitudeMeters>
            <DistanceMeters>NAN</DistanceMeters>
          </Trackpoint>
          <Trackpoint>
            <Time>2021-04-03T13:07:07.000Z</Time>
            <Position>
              <LatitudeDegrees>42.30879963375627994537353515625</LatitudeDegrees>
              <LongitudeDegrees>2.4904419668018817901611328125</LongitudeDegrees>
            </Position>
            <AltitudeMeters>492.399993896484375</AltitudeMeters>
            <DistanceMeters>NAN</DistanceMeters>
          </Trackpoint>
          <Trackpoint>
            <Time>2021-04-03T13:07:08.000Z</Time>
            <Position>
              <LatitudeDegrees>42.30880768038332462310791015625</LatitudeDegrees>
              <LongitudeDegrees>2.49042863957583904266357421875</LongitudeDegrees>
            </Position>
            <AltitudeMeters>492.399993896484375</AltitudeMeters>
            <DistanceMeters>NAN</DistanceMeters>
          </Trackpoint>
          <Trackpoint>
            <Time>2021-04-03T13:07:16.000Z</Time>
            <Position>
              <LatitudeDegrees>42.3088771663606166839599609375</LatitudeDegrees>
              <LongitudeDegrees>2.49035420827567577362060546875</LongitudeDegrees>
            </Position>
            <AltitudeMeters>492.79998779296875</AltitudeMeters>
            <DistanceMeters>NAN</DistanceMeters>
          </Trackpoint>
          <Trackpoint>
            <Time>2021-04-03T13:07:19.000Z</Time>
            <Position>
              <LatitudeDegrees>42.308902479708194732666015625</LatitudeDegrees>
              <LongitudeDegrees>2.49032353051006793975830078125</LongitudeDegrees>
            </Position>
            <AltitudeMeters>492.79998779296875</AltitudeMeters>
            <DistanceMeters>NAN</DistanceMeters>
          </Trackpoint>
          <Trackpoint>
            <Time>2021-04-03T13:07:28.000Z</Time>
            <Position>
              <LatitudeDegrees>42.308977581560611724853515625</LatitudeDegrees>
              <LongitudeDegrees>2.49023887328803539276123046875</LongitudeDegrees>
            </Position>
            <AltitudeMeters>493.399993896484375</AltitudeMeters>
            <DistanceMeters>NAN</DistanceMeters>
          </Trackpoint>
          <Trackpoint>
            <Time>2021-04-03T13:07:39.000Z</Time>
            <Position>
              <LatitudeDegrees>42.30908059515058994293212890625</LatitudeDegrees>
              <LongitudeDegrees>2.49013845808804035186767578125</LongitudeDegrees>
            </Position>
            <AltitudeMeters>493.79998779296875</AltitudeMeters>
            <DistanceMeters>NAN</DistanceMeters>
          </Trackpoint>
          <Trackpoint>
            <Time>2021-04-03T13:07:40.000Z</Time>
            <Position>
              <LatitudeDegrees>42.309090904891490936279296875</LatitudeDegrees>
              <LongitudeDegrees>2.490133680403232574462890625</LongitudeDegrees>
            </Position>
            <AltitudeMeters>494</AltitudeMeters>
            <DistanceMeters>NAN</DistanceMeters>
          </Trackpoint>
          <Trackpoint>
            <Time>2021-04-03T13:07:51.000Z</Time>
            <Position>
              <LatitudeDegrees>42.30920297093689441680908203125</LatitudeDegrees>
              <LongitudeDegrees>2.49004843644797801971435546875</LongitudeDegrees>
            </Position>
            <AltitudeMeters>494.399993896484375</AltitudeMeters>
            <DistanceMeters>NAN</DistanceMeters>
          </Trackpoint>
          <Trackpoint>
            <Time>2021-04-03T13:07:52.000Z</Time>
            <Position>
              <LatitudeDegrees>42.3092104308307170867919921875</LatitudeDegrees>
              <LongitudeDegrees>2.4900408089160919189453125</LongitudeDegrees>
            </Position>
            <AltitudeMeters>494.600006103515625</AltitudeMeters>
            <DistanceMeters>NAN</DistanceMeters>
          </Trackpoint>
          <Trackpoint>
            <Time>2021-04-03T13:07:53.000Z</Time>
            <Position>
              <LatitudeDegrees>42.30921906419098377227783203125</LatitudeDegrees>
              <LongitudeDegrees>2.490033768117427825927734375</LongitudeDegrees>
            </Position>
            <AltitudeMeters>494.600006103515625</AltitudeMeters>
            <DistanceMeters>NAN</DistanceMeters>
          </Trackpoint>
          <Trackpoint>
            <Time>2021-04-03T13:07:59.000Z</Time>
            <Position>
              <LatitudeDegrees>42.3092694394290447235107421875</LatitudeDegrees>
              <LongitudeDegrees>2.48997836373746395111083984375</LongitudeDegrees>
            </Position>
            <AltitudeMeters>495</AltitudeMeters>
            <DistanceMeters>NAN</DistanceMeters>
          </Trackpoint>
          <Trackpoint>
            <Time>2021-04-03T13:08:07.000Z</Time>
            <Position>
              <LatitudeDegrees>42.30934378691017627716064453125</LatitudeDegrees>
              <LongitudeDegrees>2.48990996740758419036865234375</LongitudeDegrees>
            </Position>
            <AltitudeMeters>495.600006103515625</AltitudeMeters>
            <DistanceMeters>NAN</DistanceMeters>
          </Trackpoint>
          <Trackpoint>
            <Time>2021-04-03T13:08:09.000Z</Time>
            <Position>
              <LatitudeDegrees>42.3093613050878047943115234375</LatitudeDegrees>
              <LongitudeDegrees>2.4898931197822093963623046875</LongitudeDegrees>
            </Position>
            <AltitudeMeters>495.600006103515625</AltitudeMeters>
            <DistanceMeters>NAN</DistanceMeters>
          </Trackpoint>
          <Trackpoint>
            <Time>2021-04-03T13:08:16.000Z</Time>
            <Position>
              <LatitudeDegrees>42.30942509137094020843505859375</LatitudeDegrees>
              <LongitudeDegrees>2.4898465164005756378173828125</LongitudeDegrees>
            </Position>
            <AltitudeMeters>495.79998779296875</AltitudeMeters>
            <DistanceMeters>NAN</DistanceMeters>
          </Trackpoint>
          <Trackpoint>
            <Time>2021-04-03T13:08:25.000Z</Time>
            <Position>
              <LatitudeDegrees>42.3094967566430568695068359375</LatitudeDegrees>
              <LongitudeDegrees>2.48978398740291595458984375</LongitudeDegrees>
            </Position>
            <AltitudeMeters>496.600006103515625</AltitudeMeters>
            <DistanceMeters>NAN</DistanceMeters>
          </Trackpoint>
          <Trackpoint>
            <Time>2021-04-03T13:08:28.000Z</Time>
            <Position>
              <LatitudeDegrees>42.30952081270515918731689453125</LatitudeDegrees>
              <LongitudeDegrees>2.48976848088204860687255859375</LongitudeDegrees>
            </Position>
            <AltitudeMeters>496.79998779296875</AltitudeMeters>
            <DistanceMeters>NAN</DistanceMeters>
          </Trackpoint>
          <Trackpoint>
            <Time>2021-04-03T13:08:33.000Z</Time>
            <Position>
              <LatitudeDegrees>42.30956121347844600677490234375</LatitudeDegrees>
              <LongitudeDegrees>2.48972254805266857147216796875</LongitudeDegrees>
            </Position>
            <AltitudeMeters>496.79998779296875</AltitudeMeters>
            <DistanceMeters>NAN</DistanceMeters>
          </Trackpoint>
          <Trackpoint>
            <Time>2021-04-03T13:08:37.000Z</Time>
            <Position>
              <LatitudeDegrees>42.30960329063236713409423828125</LatitudeDegrees>
              <LongitudeDegrees>2.48969488777220249176025390625</LongitudeDegrees>
            </Position>
            <AltitudeMeters>496.79998779296875</AltitudeMeters>
            <DistanceMeters>NAN</DistanceMeters>
          </Trackpoint>
          <Trackpoint>
            <Time>2021-04-03T13:08:38.000Z</Time>
            <Position>
              <LatitudeDegrees>42.30961301364004611968994140625</LatitudeDegrees>
              <LongitudeDegrees>2.48968315310776233673095703125</LongitudeDegrees>
            </Position>
            <AltitudeMeters>496.79998779296875</AltitudeMeters>
            <DistanceMeters>NAN</DistanceMeters>
          </Trackpoint>
          <Trackpoint>
            <Time>2021-04-03T13:08:46.000Z</Time>
            <Position>
              <LatitudeDegrees>42.30966414324939250946044921875</LatitudeDegrees>
              <LongitudeDegrees>2.48957167379558086395263671875</LongitudeDegrees>
            </Position>
            <AltitudeMeters>497</AltitudeMeters>
            <DistanceMeters>NAN</DistanceMeters>
          </Trackpoint>
          <Trackpoint>
            <Time>2021-04-03T13:08:54.000Z</Time>
            <Position>
              <LatitudeDegrees>42.30970479547977447509765625</LatitudeDegrees>
              <LongitudeDegrees>2.48948081396520137786865234375</LongitudeDegrees>
            </Position>
            <AltitudeMeters>497.20001220703125</AltitudeMeters>
            <DistanceMeters>NAN</DistanceMeters>
          </Trackpoint>
          <Trackpoint>
            <Time>2021-04-03T13:08:59.000Z</Time>
            <Position>
              <LatitudeDegrees>42.30974075384438037872314453125</LatitudeDegrees>
              <LongitudeDegrees>2.489418871700763702392578125</LongitudeDegrees>
            </Position>
            <AltitudeMeters>497.399993896484375</AltitudeMeters>
            <DistanceMeters>NAN</DistanceMeters>
          </Trackpoint>
          <Trackpoint>
            <Time>2021-04-03T13:09:02.000Z</Time>
            <Position>
              <LatitudeDegrees>42.3097659833729267120361328125</LatitudeDegrees>
              <LongitudeDegrees>2.48938500881195068359375</LongitudeDegrees>
            </Position>
            <AltitudeMeters>497.20001220703125</AltitudeMeters>
            <DistanceMeters>NAN</DistanceMeters>
          </Trackpoint>
          <Trackpoint>
            <Time>2021-04-03T13:09:14.000Z</Time>
            <Position>
              <LatitudeDegrees>42.30988182127475738525390625</LatitudeDegrees>
              <LongitudeDegrees>2.48925349675118923187255859375</LongitudeDegrees>
            </Position>
            <AltitudeMeters>496.79998779296875</AltitudeMeters>
            <DistanceMeters>NAN</DistanceMeters>
          </Trackpoint>
          <Trackpoint>
            <Time>2021-04-03T13:09:17.000Z</Time>
            <Position>
              <LatitudeDegrees>42.3099145106971263885498046875</LatitudeDegrees>
              <LongitudeDegrees>2.4892239086329936981201171875</LongitudeDegrees>
            </Position>
            <AltitudeMeters>497</AltitudeMeters>
            <DistanceMeters>NAN</DistanceMeters>
          </Trackpoint>
          <Trackpoint>
            <Time>2021-04-03T13:09:23.000Z</Time>
            <Position>
              <LatitudeDegrees>42.30994359590113162994384765625</LatitudeDegrees>
              <LongitudeDegrees>2.48912910930812358856201171875</LongitudeDegrees>
            </Position>
            <AltitudeMeters>497.20001220703125</AltitudeMeters>
            <DistanceMeters>NAN</DistanceMeters>
          </Trackpoint>
          <Trackpoint>
            <Time>2021-04-03T13:09:27.000Z</Time>
            <Position>
              <LatitudeDegrees>42.30997377075254917144775390625</LatitudeDegrees>
              <LongitudeDegrees>2.48907395638525485992431640625</LongitudeDegrees>
            </Position>
            <AltitudeMeters>497.20001220703125</AltitudeMeters>
            <DistanceMeters>NAN</DistanceMeters>
          </Trackpoint>
          <Trackpoint>
            <Time>2021-04-03T13:09:29.000Z</Time>
            <Position>
              <LatitudeDegrees>42.30998902581632137298583984375</LatitudeDegrees>
              <LongitudeDegrees>2.48905442655086517333984375</LongitudeDegrees>
            </Position>
            <AltitudeMeters>497.399993896484375</AltitudeMeters>
            <DistanceMeters>NAN</DistanceMeters>
          </Trackpoint>
          <Trackpoint>
            <Time>2021-04-03T13:09:37.000Z</Time>
            <Position>
              <LatitudeDegrees>42.310020960867404937744140625</LatitudeDegrees>
              <LongitudeDegrees>2.488931380212306976318359375</LongitudeDegrees>
            </Position>
            <AltitudeMeters>497.600006103515625</AltitudeMeters>
            <DistanceMeters>NAN</DistanceMeters>
          </Trackpoint>
          <Trackpoint>
            <Time>2021-04-03T13:09:42.000Z</Time>
            <Position>
              <LatitudeDegrees>42.31003713794052600860595703125</LatitudeDegrees>
              <LongitudeDegrees>2.4888638220727443695068359375</LongitudeDegrees>
            </Position>
            <AltitudeMeters>497.79998779296875</AltitudeMeters>
            <DistanceMeters>NAN</DistanceMeters>
          </Trackpoint>
          <Trackpoint>
            <Time>2021-04-03T13:09:45.000Z</Time>
            <Position>
              <LatitudeDegrees>42.3100556619465351104736328125</LatitudeDegrees>
              <LongitudeDegrees>2.48882509768009185791015625</LongitudeDegrees>
            </Position>
            <AltitudeMeters>498</AltitudeMeters>
            <DistanceMeters>NAN</DistanceMeters>
          </Trackpoint>
          <Trackpoint>
            <Time>2021-04-03T13:09:52.000Z</Time>
            <Position>
              <LatitudeDegrees>42.31008558534085750579833984375</LatitudeDegrees>
              <LongitudeDegrees>2.488738261163234710693359375</LongitudeDegrees>
            </Position>
            <AltitudeMeters>498.600006103515625</AltitudeMeters>
            <DistanceMeters>NAN</DistanceMeters>
          </Trackpoint>
          <Trackpoint>
            <Time>2021-04-03T13:09:54.000Z</Time>
            <Position>
              <LatitudeDegrees>42.31008659116923809051513671875</LatitudeDegrees>
              <LongitudeDegrees>2.4887203238904476165771484375</LongitudeDegrees>
            </Position>
            <AltitudeMeters>498.600006103515625</AltitudeMeters>
            <DistanceMeters>NAN</DistanceMeters>
          </Trackpoint>
          <Trackpoint>
            <Time>2021-04-03T13:09:58.000Z</Time>
            <Position>
              <LatitudeDegrees>42.31009262613952159881591796875</LatitudeDegrees>
              <LongitudeDegrees>2.48868235386908054351806640625</LongitudeDegrees>
            </Position>
            <AltitudeMeters>499</AltitudeMeters>
            <DistanceMeters>NAN</DistanceMeters>
          </Trackpoint>
          <Trackpoint>
            <Time>2021-04-03T13:10:04.000Z</Time>
            <Position>
              <LatitudeDegrees>42.31010586954653263092041015625</LatitudeDegrees>
              <LongitudeDegrees>2.4886837787926197052001953125</LongitudeDegrees>
            </Position>
            <AltitudeMeters>499</AltitudeMeters>
            <DistanceMeters>NAN</DistanceMeters>
          </Trackpoint>
          <Trackpoint>
            <Time>2021-04-03T13:10:09.000Z</Time>
            <Position>
              <LatitudeDegrees>42.31007971800863742828369140625</LatitudeDegrees>
              <LongitudeDegrees>2.488645724952220916748046875</LongitudeDegrees>
            </Position>
            <AltitudeMeters>499</AltitudeMeters>
            <DistanceMeters>NAN</DistanceMeters>
          </Trackpoint>
          <Trackpoint>
            <Time>2021-04-03T13:10:20.000Z</Time>
            <Position>
              <LatitudeDegrees>42.31007971800863742828369140625</LatitudeDegrees>
              <LongitudeDegrees>2.488645724952220916748046875</LongitudeDegrees>
            </Position>
            <AltitudeMeters>499.399993896484375</AltitudeMeters>
            <DistanceMeters>NAN</DistanceMeters>
          </Trackpoint>
          <Trackpoint>
            <Time>2021-04-03T13:10:23.000Z</Time>
            <Position>
              <LatitudeDegrees>42.31007971800863742828369140625</LatitudeDegrees>
              <LongitudeDegrees>2.488645724952220916748046875</LongitudeDegrees>
            </Position>
            <AltitudeMeters>499.399993896484375</AltitudeMeters>
            <DistanceMeters>NAN</DistanceMeters>
          </Trackpoint>
          <Trackpoint>
            <Time>2021-04-03T13:10:35.000Z</Time>
            <Position>
              <LatitudeDegrees>42.3100727610290050506591796875</LatitudeDegrees>
              <LongitudeDegrees>2.48862183652818202972412109375</LongitudeDegrees>
            </Position>
            <AltitudeMeters>499.600006103515625</AltitudeMeters>
            <DistanceMeters>NAN</DistanceMeters>
          </Trackpoint>
          <Trackpoint>
            <Time>2021-04-03T13:10:50.000Z</Time>
            <Position>
              <LatitudeDegrees>42.31006848625838756561279296875</LatitudeDegrees>
              <LongitudeDegrees>2.488652765750885009765625</LongitudeDegrees>
            </Position>
            <AltitudeMeters>499.600006103515625</AltitudeMeters>
            <DistanceMeters>NAN</DistanceMeters>
          </Trackpoint>
          <Trackpoint>
            <Time>2021-04-03T13:10:52.000Z</Time>
            <Position>
              <LatitudeDegrees>42.31006848625838756561279296875</LatitudeDegrees>
              <LongitudeDegrees>2.4886539392173290252685546875</LongitudeDegrees>
            </Position>
            <AltitudeMeters>499.600006103515625</AltitudeMeters>
            <DistanceMeters>NAN</DistanceMeters>
          </Trackpoint>
          <Trackpoint>
            <Time>2021-04-03T13:10:54.000Z</Time>
            <Position>
              <LatitudeDegrees>42.31006848625838756561279296875</LatitudeDegrees>
              <LongitudeDegrees>2.4886549450457096099853515625</LongitudeDegrees>
            </Position>
            <AltitudeMeters>499.79998779296875</AltitudeMeters>
            <DistanceMeters>NAN</DistanceMeters>
          </Trackpoint>
          <Trackpoint>
            <Time>2021-04-03T13:10:59.000Z</Time>
            <Position>
              <LatitudeDegrees>42.31006848625838756561279296875</LatitudeDegrees>
              <LongitudeDegrees>2.4886566214263439178466796875</LongitudeDegrees>
            </Position>
            <AltitudeMeters>499.79998779296875</AltitudeMeters>
            <DistanceMeters>NAN</DistanceMeters>
          </Trackpoint>
          <Trackpoint>
            <Time>2021-04-03T13:11:04.000Z</Time>
            <Position>
              <LatitudeDegrees>42.31007653288543224334716796875</LatitudeDegrees>
              <LongitudeDegrees>2.4886576272547245025634765625</LongitudeDegrees>
            </Position>
            <AltitudeMeters>499.79998779296875</AltitudeMeters>
            <DistanceMeters>NAN</DistanceMeters>
          </Trackpoint>
          <Trackpoint>
            <Time>2021-04-03T13:11:15.000Z</Time>
            <Position>
              <LatitudeDegrees>42.3100942187011241912841796875</LatitudeDegrees>
              <LongitudeDegrees>2.4886579625308513641357421875</LongitudeDegrees>
            </Position>
            <AltitudeMeters>499.79998779296875</AltitudeMeters>
            <DistanceMeters>NAN</DistanceMeters>
          </Trackpoint>
          <Trackpoint>
            <Time>2021-04-03T13:11:21.000Z</Time>
            <Position>
              <LatitudeDegrees>42.3101163469254970550537109375</LatitudeDegrees>
              <LongitudeDegrees>2.488663829863071441650390625</LongitudeDegrees>
            </Position>
            <AltitudeMeters>500</AltitudeMeters>
            <DistanceMeters>NAN</DistanceMeters>
          </Trackpoint>
          <Trackpoint>
            <Time>2021-04-03T13:11:30.000Z</Time>
            <Position>
              <LatitudeDegrees>42.31014962308108806610107421875</LatitudeDegrees>
              <LongitudeDegrees>2.4886693619191646575927734375</LongitudeDegrees>
            </Position>
            <AltitudeMeters>500</AltitudeMeters>
            <DistanceMeters>NAN</DistanceMeters>
          </Trackpoint>
          <Trackpoint>
            <Time>2021-04-03T13:11:37.000Z</Time>
            <Position>
              <LatitudeDegrees>42.3101505450904369354248046875</LatitudeDegrees>
              <LongitudeDegrees>2.48867221176624298095703125</LongitudeDegrees>
            </Position>
            <AltitudeMeters>500</AltitudeMeters>
            <DistanceMeters>NAN</DistanceMeters>
          </Trackpoint>
          <Trackpoint>
            <Time>2021-04-03T13:11:40.000Z</Time>
            <Position>
              <LatitudeDegrees>42.3101505450904369354248046875</LatitudeDegrees>
              <LongitudeDegrees>2.48867246322333812713623046875</LongitudeDegrees>
            </Position>
            <AltitudeMeters>500.20001220703125</AltitudeMeters>
            <DistanceMeters>NAN</DistanceMeters>
          </Trackpoint>
          <Trackpoint>
            <Time>2021-04-03T13:11:56.000Z</Time>
            <Position>
              <LatitudeDegrees>42.31013285927474498748779296875</LatitudeDegrees>
              <LongitudeDegrees>2.48865670524537563323974609375</LongitudeDegrees>
            </Position>
            <AltitudeMeters>500.600006103515625</AltitudeMeters>
            <DistanceMeters>NAN</DistanceMeters>
          </Trackpoint>
          <Trackpoint>
            <Time>2021-04-03T13:11:58.000Z</Time>
            <Position>
              <LatitudeDegrees>42.3101307637989521026611328125</LatitudeDegrees>
              <LongitudeDegrees>2.48865385539829730987548828125</LongitudeDegrees>
            </Position>
            <AltitudeMeters>500.600006103515625</AltitudeMeters>
            <DistanceMeters>NAN</DistanceMeters>
          </Trackpoint>
          <Trackpoint>
            <Time>2021-04-03T13:12:08.000Z</Time>
            <Position>
              <LatitudeDegrees>42.31010033749043941497802734375</LatitudeDegrees>
              <LongitudeDegrees>2.488639019429683685302734375</LongitudeDegrees>
            </Position>
            <AltitudeMeters>500.79998779296875</AltitudeMeters>
            <DistanceMeters>NAN</DistanceMeters>
          </Trackpoint>
          <Trackpoint>
            <Time>2021-04-03T13:12:15.000Z</Time>
            <Position>
              <LatitudeDegrees>42.3100891895592212677001953125</LatitudeDegrees>
              <LongitudeDegrees>2.48864178545773029327392578125</LongitudeDegrees>
            </Position>
            <AltitudeMeters>500.600006103515625</AltitudeMeters>
            <DistanceMeters>NAN</DistanceMeters>
          </Trackpoint>
          <Trackpoint>
            <Time>2021-04-03T13:12:19.000Z</Time>
            <Position>
              <LatitudeDegrees>42.31008030474185943603515625</LatitudeDegrees>
              <LongitudeDegrees>2.48863893561065196990966796875</LongitudeDegrees>
            </Position>
            <AltitudeMeters>500.600006103515625</AltitudeMeters>
            <DistanceMeters>NAN</DistanceMeters>
          </Trackpoint>
          <Trackpoint>
            <Time>2021-04-03T13:12:23.000Z</Time>
            <Position>
              <LatitudeDegrees>42.31007670052349567413330078125</LatitudeDegrees>
              <LongitudeDegrees>2.48863843269646167755126953125</LongitudeDegrees>
            </Position>
            <AltitudeMeters>500.600006103515625</AltitudeMeters>
            <DistanceMeters>NAN</DistanceMeters>
          </Trackpoint>
          <Trackpoint>
            <Time>2021-04-03T13:12:30.000Z</Time>
            <Position>
              <LatitudeDegrees>42.310069911181926727294921875</LatitudeDegrees>
              <LongitudeDegrees>2.4886415340006351470947265625</LongitudeDegrees>
            </Position>
            <AltitudeMeters>500.399993896484375</AltitudeMeters>
            <DistanceMeters>NAN</DistanceMeters>
          </Trackpoint>
          <Trackpoint>
            <Time>2021-04-03T13:12:34.000Z</Time>
            <Position>
              <LatitudeDegrees>42.31006697751581668853759765625</LatitudeDegrees>
              <LongitudeDegrees>2.48864379711449146270751953125</LongitudeDegrees>
            </Position>
            <AltitudeMeters>500.399993896484375</AltitudeMeters>
            <DistanceMeters>NAN</DistanceMeters>
          </Trackpoint>
          <Trackpoint>
            <Time>2021-04-03T13:12:42.000Z</Time>
            <Position>
              <LatitudeDegrees>42.31006060726940631866455078125</LatitudeDegrees>
              <LongitudeDegrees>2.48866458423435688018798828125</LongitudeDegrees>
            </Position>
            <AltitudeMeters>500.399993896484375</AltitudeMeters>
            <DistanceMeters>NAN</DistanceMeters>
          </Trackpoint>
          <Trackpoint>
            <Time>2021-04-03T13:12:45.000Z</Time>
            <Position>
              <LatitudeDegrees>42.31005775742232799530029296875</LatitudeDegrees>
              <LongitudeDegrees>2.488668859004974365234375</LongitudeDegrees>
            </Position>
            <AltitudeMeters>500.399993896484375</AltitudeMeters>
            <DistanceMeters>NAN</DistanceMeters>
          </Trackpoint>
          <Trackpoint>
            <Time>2021-04-03T13:13:02.000Z</Time>
            <Position>
              <LatitudeDegrees>42.31004468165338039398193359375</LatitudeDegrees>
              <LongitudeDegrees>2.48867447488009929656982421875</LongitudeDegrees>
            </Position>
            <AltitudeMeters>500.600006103515625</AltitudeMeters>
            <DistanceMeters>NAN</DistanceMeters>
          </Trackpoint>
          <Trackpoint>
            <Time>2021-04-03T13:13:07.000Z</Time>
            <Position>
              <LatitudeDegrees>42.31004434637725353240966796875</LatitudeDegrees>
              <LongitudeDegrees>2.48867296613752841949462890625</LongitudeDegrees>
            </Position>
            <AltitudeMeters>500.600006103515625</AltitudeMeters>
            <DistanceMeters>NAN</DistanceMeters>
          </Trackpoint>
          <Trackpoint>
            <Time>2021-04-03T13:13:38.000Z</Time>
            <Position>
              <LatitudeDegrees>42.31005256064236164093017578125</LatitudeDegrees>
              <LongitudeDegrees>2.48867330141365528106689453125</LongitudeDegrees>
            </Position>
            <AltitudeMeters>500.399993896484375</AltitudeMeters>
            <DistanceMeters>NAN</DistanceMeters>
          </Trackpoint>
          <Trackpoint>
            <Time>2021-04-03T13:13:41.000Z</Time>
            <Position>
              <LatitudeDegrees>42.31005272828042507171630859375</LatitudeDegrees>
              <LongitudeDegrees>2.48867330141365528106689453125</LongitudeDegrees>
            </Position>
            <AltitudeMeters>500.399993896484375</AltitudeMeters>
            <DistanceMeters>NAN</DistanceMeters>
          </Trackpoint>
          <Trackpoint>
            <Time>2021-04-03T13:13:42.000Z</Time>
            <Position>
              <LatitudeDegrees>42.31005272828042507171630859375</LatitudeDegrees>
              <LongitudeDegrees>2.48867330141365528106689453125</LongitudeDegrees>
            </Position>
            <AltitudeMeters>500.399993896484375</AltitudeMeters>
            <DistanceMeters>NAN</DistanceMeters>
          </Trackpoint>
          <Trackpoint>
            <Time>2021-04-03T13:13:43.000Z</Time>
            <Position>
              <LatitudeDegrees>42.310052812099456787109375</LatitudeDegrees>
              <LongitudeDegrees>2.48867330141365528106689453125</LongitudeDegrees>
            </Position>
            <AltitudeMeters>500.399993896484375</AltitudeMeters>
            <DistanceMeters>NAN</DistanceMeters>
          </Trackpoint>
          <Trackpoint>
            <Time>2021-04-03T13:14:07.000Z</Time>
            <Position>
              <LatitudeDegrees>42.31005440466105937957763671875</LatitudeDegrees>
              <LongitudeDegrees>2.4886730499565601348876953125</LongitudeDegrees>
            </Position>
            <AltitudeMeters>500.399993896484375</AltitudeMeters>
            <DistanceMeters>NAN</DistanceMeters>
          </Trackpoint>
          <Trackpoint>
            <Time>2021-04-03T13:14:13.000Z</Time>
            <Position>
              <LatitudeDegrees>42.310116179287433624267578125</LatitudeDegrees>
              <LongitudeDegrees>2.48862602747976779937744140625</LongitudeDegrees>
            </Position>
            <AltitudeMeters>500.399993896484375</AltitudeMeters>
            <DistanceMeters>NAN</DistanceMeters>
          </Trackpoint>
          <Trackpoint>
            <Time>2021-04-03T13:14:17.000Z</Time>
            <Position>
              <LatitudeDegrees>42.3101842403411865234375</LatitudeDegrees>
              <LongitudeDegrees>2.48856618069112300872802734375</LongitudeDegrees>
            </Position>
            <AltitudeMeters>500.399993896484375</AltitudeMeters>
            <DistanceMeters>NAN</DistanceMeters>
          </Trackpoint>
          <Trackpoint>
            <Time>2021-04-03T13:14:20.000Z</Time>
            <Position>
              <LatitudeDegrees>42.31022455729544162750244140625</LatitudeDegrees>
              <LongitudeDegrees>2.48852695338428020477294921875</LongitudeDegrees>
            </Position>
            <AltitudeMeters>500.399993896484375</AltitudeMeters>
            <DistanceMeters>NAN</DistanceMeters>
          </Trackpoint>
          <Trackpoint>
            <Time>2021-04-03T13:14:21.000Z</Time>
            <Position>
              <LatitudeDegrees>42.3102313466370105743408203125</LatitudeDegrees>
              <LongitudeDegrees>2.48851857148110866546630859375</LongitudeDegrees>
            </Position>
            <AltitudeMeters>500.399993896484375</AltitudeMeters>
            <DistanceMeters>NAN</DistanceMeters>
          </Trackpoint>
          <Trackpoint>
            <Time>2021-04-03T13:14:29.000Z</Time>
            <Position>
              <LatitudeDegrees>42.31029295362532138824462890625</LatitudeDegrees>
              <LongitudeDegrees>2.48844833113253116607666015625</LongitudeDegrees>
            </Position>
            <AltitudeMeters>500.79998779296875</AltitudeMeters>
            <DistanceMeters>NAN</DistanceMeters>
          </Trackpoint>
          <Trackpoint>
            <Time>2021-04-03T13:14:39.000Z</Time>
            <Position>
              <LatitudeDegrees>42.31038582511246204376220703125</LatitudeDegrees>
              <LongitudeDegrees>2.48838027007877826690673828125</LongitudeDegrees>
            </Position>
            <AltitudeMeters>501.79998779296875</AltitudeMeters>
            <DistanceMeters>NAN</DistanceMeters>
          </Trackpoint>
          <Trackpoint>
            <Time>2021-04-03T13:14:40.000Z</Time>
            <Position>
              <LatitudeDegrees>42.3103939555585384368896484375</LatitudeDegrees>
              <LongitudeDegrees>2.4883719719946384429931640625</LongitudeDegrees>
            </Position>
            <AltitudeMeters>501.79998779296875</AltitudeMeters>
            <DistanceMeters>NAN</DistanceMeters>
          </Trackpoint>
          <Trackpoint>
            <Time>2021-04-03T13:14:42.000Z</Time>
            <Position>
              <LatitudeDegrees>42.31040828861296176910400390625</LatitudeDegrees>
              <LongitudeDegrees>2.48835227452218532562255859375</LongitudeDegrees>
            </Position>
            <AltitudeMeters>502</AltitudeMeters>
            <DistanceMeters>NAN</DistanceMeters>
          </Trackpoint>
          <Trackpoint>
            <Time>2021-04-03T13:14:48.000Z</Time>
            <Position>
              <LatitudeDegrees>42.3104522936046123504638671875</LatitudeDegrees>
              <LongitudeDegrees>2.4883012287318706512451171875</LongitudeDegrees>
            </Position>
            <AltitudeMeters>502.79998779296875</AltitudeMeters>
            <DistanceMeters>NAN</DistanceMeters>
          </Trackpoint>
          <Trackpoint>
            <Time>2021-04-03T13:14:49.000Z</Time>
            <Position>
              <LatitudeDegrees>42.3104591667652130126953125</LatitudeDegrees>
              <LongitudeDegrees>2.4882831238210201263427734375</LongitudeDegrees>
            </Position>
            <AltitudeMeters>502.79998779296875</AltitudeMeters>
            <DistanceMeters>NAN</DistanceMeters>
          </Trackpoint>
          <Trackpoint>
            <Time>2021-04-03T13:14:58.000Z</Time>
            <Position>
              <LatitudeDegrees>42.310517840087413787841796875</LatitudeDegrees>
              <LongitudeDegrees>2.4881858937442302703857421875</LongitudeDegrees>
            </Position>
            <AltitudeMeters>503.600006103515625</AltitudeMeters>
            <DistanceMeters>NAN</DistanceMeters>
          </Trackpoint>
          <Trackpoint>
            <Time>2021-04-03T13:15:02.000Z</Time>
            <Position>
              <LatitudeDegrees>42.31054407544434070587158203125</LatitudeDegrees>
              <LongitudeDegrees>2.488149516284465789794921875</LongitudeDegrees>
            </Position>
            <AltitudeMeters>503.79998779296875</AltitudeMeters>
            <DistanceMeters>NAN</DistanceMeters>
          </Trackpoint>
          <Trackpoint>
            <Time>2021-04-03T13:15:08.000Z</Time>
            <Position>
              <LatitudeDegrees>42.31058548204600811004638671875</LatitudeDegrees>
              <LongitudeDegrees>2.48810886405408382415771484375</LongitudeDegrees>
            </Position>
            <AltitudeMeters>504.399993896484375</AltitudeMeters>
            <DistanceMeters>NAN</DistanceMeters>
          </Trackpoint>
          <Trackpoint>
            <Time>2021-04-03T13:15:15.000Z</Time>
            <Position>
              <LatitudeDegrees>42.3106309957802295684814453125</LatitudeDegrees>
              <LongitudeDegrees>2.48805521987378597259521484375</LongitudeDegrees>
            </Position>
            <AltitudeMeters>504.79998779296875</AltitudeMeters>
            <DistanceMeters>NAN</DistanceMeters>
          </Trackpoint>
          <Trackpoint>
            <Time>2021-04-03T13:15:16.000Z</Time>
            <Position>
              <LatitudeDegrees>42.31063812039792537689208984375</LatitudeDegrees>
              <LongitudeDegrees>2.48804449103772640228271484375</LongitudeDegrees>
            </Position>
            <AltitudeMeters>504.79998779296875</AltitudeMeters>
            <DistanceMeters>NAN</DistanceMeters>
          </Trackpoint>
          <Trackpoint>
            <Time>2021-04-03T13:15:18.000Z</Time>
            <Position>
              <LatitudeDegrees>42.31065555475652217864990234375</LatitudeDegrees>
              <LongitudeDegrees>2.488031499087810516357421875</LongitudeDegrees>
            </Position>
            <AltitudeMeters>505</AltitudeMeters>
            <DistanceMeters>NAN</DistanceMeters>
          </Trackpoint>
          <Trackpoint>
            <Time>2021-04-03T13:15:27.000Z</Time>
            <Position>
              <LatitudeDegrees>42.3107218556106090545654296875</LatitudeDegrees>
              <LongitudeDegrees>2.4879609234631061553955078125</LongitudeDegrees>
            </Position>
            <AltitudeMeters>505.79998779296875</AltitudeMeters>
            <DistanceMeters>NAN</DistanceMeters>
          </Trackpoint>
          <Trackpoint>
            <Time>2021-04-03T13:15:29.000Z</Time>
            <Position>
              <LatitudeDegrees>42.3107473365962505340576171875</LatitudeDegrees>
              <LongitudeDegrees>2.4879609234631061553955078125</LongitudeDegrees>
            </Position>
            <AltitudeMeters>506</AltitudeMeters>
            <DistanceMeters>NAN</DistanceMeters>
          </Trackpoint>
          <Trackpoint>
            <Time>2021-04-03T13:15:33.000Z</Time>
            <Position>
              <LatitudeDegrees>42.3107915930449962615966796875</LatitudeDegrees>
              <LongitudeDegrees>2.48795379884541034698486328125</LongitudeDegrees>
            </Position>
            <AltitudeMeters>506.399993896484375</AltitudeMeters>
            <DistanceMeters>NAN</DistanceMeters>
          </Trackpoint>
          <Trackpoint>
            <Time>2021-04-03T13:15:39.000Z</Time>
            <Position>
              <LatitudeDegrees>42.31085940264165401458740234375</LatitudeDegrees>
              <LongitudeDegrees>2.4879545532166957855224609375</LongitudeDegrees>
            </Position>
            <AltitudeMeters>506.79998779296875</AltitudeMeters>
            <DistanceMeters>NAN</DistanceMeters>
          </Trackpoint>
          <Trackpoint>
            <Time>2021-04-03T13:15:41.000Z</Time>
            <Position>
              <LatitudeDegrees>42.31088220141828060150146484375</LatitudeDegrees>
              <LongitudeDegrees>2.48795337975025177001953125</LongitudeDegrees>
            </Position>
            <AltitudeMeters>507</AltitudeMeters>
            <DistanceMeters>NAN</DistanceMeters>
          </Trackpoint>
          <Trackpoint>
            <Time>2021-04-03T13:15:44.000Z</Time>
            <Position>
              <LatitudeDegrees>42.31091908179223537445068359375</LatitudeDegrees>
              <LongitudeDegrees>2.487965784966945648193359375</LongitudeDegrees>
            </Position>
            <AltitudeMeters>507.20001220703125</AltitudeMeters>
            <DistanceMeters>NAN</DistanceMeters>
          </Trackpoint>
          <Trackpoint>
            <Time>2021-04-03T13:15:52.000Z</Time>
            <Position>
              <LatitudeDegrees>42.31100223027169704437255859375</LatitudeDegrees>
              <LongitudeDegrees>2.488003335893154144287109375</LongitudeDegrees>
            </Position>
            <AltitudeMeters>507.20001220703125</AltitudeMeters>
            <DistanceMeters>NAN</DistanceMeters>
          </Trackpoint>
          <Trackpoint>
            <Time>2021-04-03T13:16:00.000Z</Time>
            <Position>
              <LatitudeDegrees>42.31109283864498138427734375</LatitudeDegrees>
              <LongitudeDegrees>2.48806058429181575775146484375</LongitudeDegrees>
            </Position>
            <AltitudeMeters>507.79998779296875</AltitudeMeters>
            <DistanceMeters>NAN</DistanceMeters>
          </Trackpoint>
          <Trackpoint>
            <Time>2021-04-03T13:16:04.000Z</Time>
            <Position>
              <LatitudeDegrees>42.3111377656459808349609375</LatitudeDegrees>
              <LongitudeDegrees>2.4880910106003284454345703125</LongitudeDegrees>
            </Position>
            <AltitudeMeters>508</AltitudeMeters>
            <DistanceMeters>NAN</DistanceMeters>
          </Trackpoint>
          <Trackpoint>
            <Time>2021-04-03T13:16:10.000Z</Time>
            <Position>
              <LatitudeDegrees>42.31121228076517581939697265625</LatitudeDegrees>
              <LongitudeDegrees>2.4881245382130146026611328125</LongitudeDegrees>
            </Position>
            <AltitudeMeters>508</AltitudeMeters>
            <DistanceMeters>NAN</DistanceMeters>
          </Trackpoint>
          <Trackpoint>
            <Time>2021-04-03T13:16:15.000Z</Time>
            <Position>
              <LatitudeDegrees>42.31125335209071636199951171875</LatitudeDegrees>
              <LongitudeDegrees>2.48813233338296413421630859375</LongitudeDegrees>
            </Position>
            <AltitudeMeters>508.399993896484375</AltitudeMeters>
            <DistanceMeters>NAN</DistanceMeters>
          </Trackpoint>
          <Trackpoint>
            <Time>2021-04-03T13:16:16.000Z</Time>
            <Position>
              <LatitudeDegrees>42.31126206927001476287841796875</LatitudeDegrees>
              <LongitudeDegrees>2.48813711106777191162109375</LongitudeDegrees>
            </Position>
            <AltitudeMeters>508.600006103515625</AltitudeMeters>
            <DistanceMeters>NAN</DistanceMeters>
          </Trackpoint>
          <Trackpoint>
            <Time>2021-04-03T13:16:18.000Z</Time>
            <Position>
              <LatitudeDegrees>42.3112864606082439422607421875</LatitudeDegrees>
              <LongitudeDegrees>2.48814574442803859710693359375</LongitudeDegrees>
            </Position>
            <AltitudeMeters>508.600006103515625</AltitudeMeters>
            <DistanceMeters>NAN</DistanceMeters>
          </Trackpoint>
          <Trackpoint>
            <Time>2021-04-03T13:16:22.000Z</Time>
            <Position>
              <LatitudeDegrees>42.31132526881992816925048828125</LatitudeDegrees>
              <LongitudeDegrees>2.48815362341701984405517578125</LongitudeDegrees>
            </Position>
            <AltitudeMeters>508.600006103515625</AltitudeMeters>
            <DistanceMeters>NAN</DistanceMeters>
          </Trackpoint>
          <Trackpoint>
            <Time>2021-04-03T13:16:26.000Z</Time>
            <Position>
              <LatitudeDegrees>42.31134672649204730987548828125</LatitudeDegrees>
              <LongitudeDegrees>2.48814909718930721282958984375</LongitudeDegrees>
            </Position>
            <AltitudeMeters>508.600006103515625</AltitudeMeters>
            <DistanceMeters>NAN</DistanceMeters>
          </Trackpoint>
          <Trackpoint>
            <Time>2021-04-03T13:16:27.000Z</Time>
            <Position>
              <LatitudeDegrees>42.3113545216619968414306640625</LatitudeDegrees>
              <LongitudeDegrees>2.48814976774156093597412109375</LongitudeDegrees>
            </Position>
            <AltitudeMeters>508.600006103515625</AltitudeMeters>
            <DistanceMeters>NAN</DistanceMeters>
          </Trackpoint>
          <Trackpoint>
            <Time>2021-04-03T13:16:30.000Z</Time>
            <Position>
              <LatitudeDegrees>42.3113840259611606597900390625</LatitudeDegrees>
              <LongitudeDegrees>2.4881630949676036834716796875</LongitudeDegrees>
            </Position>
            <AltitudeMeters>508.600006103515625</AltitudeMeters>
            <DistanceMeters>NAN</DistanceMeters>
          </Trackpoint>
          <Trackpoint>
            <Time>2021-04-03T13:16:35.000Z</Time>
            <Position>
              <LatitudeDegrees>42.311445213854312896728515625</LatitudeDegrees>
              <LongitudeDegrees>2.4881862290203571319580078125</LongitudeDegrees>
            </Position>
            <AltitudeMeters>508.79998779296875</AltitudeMeters>
            <DistanceMeters>NAN</DistanceMeters>
          </Trackpoint>
          <Trackpoint>
            <Time>2021-04-03T13:16:41.000Z</Time>
            <Position>
              <LatitudeDegrees>42.3115214891731739044189453125</LatitudeDegrees>
              <LongitudeDegrees>2.4881942756474018096923828125</LongitudeDegrees>
            </Position>
            <AltitudeMeters>508.79998779296875</AltitudeMeters>
            <DistanceMeters>NAN</DistanceMeters>
          </Trackpoint>
          <Trackpoint>
            <Time>2021-04-03T13:16:46.000Z</Time>
            <Position>
              <LatitudeDegrees>42.31158946640789508819580078125</LatitudeDegrees>
              <LongitudeDegrees>2.4882061779499053955078125</LongitudeDegrees>
            </Position>
            <AltitudeMeters>508.600006103515625</AltitudeMeters>
            <DistanceMeters>NAN</DistanceMeters>
          </Trackpoint>
          <Trackpoint>
            <Time>2021-04-03T13:16:47.000Z</Time>
            <Position>
              <LatitudeDegrees>42.31160287745296955108642578125</LatitudeDegrees>
              <LongitudeDegrees>2.48820659704506397247314453125</LongitudeDegrees>
            </Position>
            <AltitudeMeters>508.600006103515625</AltitudeMeters>
            <DistanceMeters>NAN</DistanceMeters>
          </Trackpoint>
          <Trackpoint>
            <Time>2021-04-03T13:16:54.000Z</Time>
            <Position>
              <LatitudeDegrees>42.31169088743627071380615234375</LatitudeDegrees>
              <LongitudeDegrees>2.4881981313228607177734375</LongitudeDegrees>
            </Position>
            <AltitudeMeters>507.79998779296875</AltitudeMeters>
            <DistanceMeters>NAN</DistanceMeters>
          </Trackpoint>
          <Trackpoint>
            <Time>2021-04-03T13:16:56.000Z</Time>
            <Position>
              <LatitudeDegrees>42.3117146082222461700439453125</LatitudeDegrees>
              <LongitudeDegrees>2.48818664811551570892333984375</LongitudeDegrees>
            </Position>
            <AltitudeMeters>507.79998779296875</AltitudeMeters>
            <DistanceMeters>NAN</DistanceMeters>
          </Trackpoint>
          <Trackpoint>
            <Time>2021-04-03T13:17:02.000Z</Time>
            <Position>
              <LatitudeDegrees>42.31179348193109035491943359375</LatitudeDegrees>
              <LongitudeDegrees>2.48816686682403087615966796875</LongitudeDegrees>
            </Position>
            <AltitudeMeters>507.600006103515625</AltitudeMeters>
            <DistanceMeters>NAN</DistanceMeters>
          </Trackpoint>
          <Trackpoint>
            <Time>2021-04-03T13:17:04.000Z</Time>
            <Position>
              <LatitudeDegrees>42.3118155263364315032958984375</LatitudeDegrees>
              <LongitudeDegrees>2.4881565570831298828125</LongitudeDegrees>
            </Position>
            <AltitudeMeters>507.600006103515625</AltitudeMeters>
            <DistanceMeters>NAN</DistanceMeters>
          </Trackpoint>
          <Trackpoint>
            <Time>2021-04-03T13:17:07.000Z</Time>
            <Position>
              <LatitudeDegrees>42.31184788048267364501953125</LatitudeDegrees>
              <LongitudeDegrees>2.48814373277127742767333984375</LongitudeDegrees>
            </Position>
            <AltitudeMeters>507.600006103515625</AltitudeMeters>
            <DistanceMeters>NAN</DistanceMeters>
          </Trackpoint>
          <Trackpoint>
            <Time>2021-04-03T13:17:08.000Z</Time>
            <Position>
              <LatitudeDegrees>42.31186204589903354644775390625</LatitudeDegrees>
              <LongitudeDegrees>2.4881392903625965118408203125</LongitudeDegrees>
            </Position>
            <AltitudeMeters>507.600006103515625</AltitudeMeters>
            <DistanceMeters>NAN</DistanceMeters>
          </Trackpoint>
          <Trackpoint>
            <Time>2021-04-03T13:17:10.000Z</Time>
            <Position>
              <LatitudeDegrees>42.31188350357115268707275390625</LatitudeDegrees>
              <LongitudeDegrees>2.48812110163271427154541015625</LongitudeDegrees>
            </Position>
            <AltitudeMeters>507.600006103515625</AltitudeMeters>
            <DistanceMeters>NAN</DistanceMeters>
          </Trackpoint>
          <Trackpoint>
            <Time>2021-04-03T13:17:12.000Z</Time>
            <Position>
              <LatitudeDegrees>42.31190420687198638916015625</LatitudeDegrees>
              <LongitudeDegrees>2.48810383491218090057373046875</LongitudeDegrees>
            </Position>
            <AltitudeMeters>507.399993896484375</AltitudeMeters>
            <DistanceMeters>NAN</DistanceMeters>
          </Trackpoint>
          <Trackpoint>
            <Time>2021-04-03T13:17:21.000Z</Time>
            <Position>
              <LatitudeDegrees>42.31201141141355037689208984375</LatitudeDegrees>
              <LongitudeDegrees>2.4881215207278728485107421875</LongitudeDegrees>
            </Position>
            <AltitudeMeters>507.399993896484375</AltitudeMeters>
            <DistanceMeters>NAN</DistanceMeters>
          </Trackpoint>
          <Trackpoint>
            <Time>2021-04-03T13:17:30.000Z</Time>
            <Position>
              <LatitudeDegrees>42.31210109777748584747314453125</LatitudeDegrees>
              <LongitudeDegrees>2.48802772723138332366943359375</LongitudeDegrees>
            </Position>
            <AltitudeMeters>507.20001220703125</AltitudeMeters>
            <DistanceMeters>NAN</DistanceMeters>
          </Trackpoint>
          <Trackpoint>
            <Time>2021-04-03T13:17:32.000Z</Time>
            <Position>
              <LatitudeDegrees>42.31212289072573184967041015625</LatitudeDegrees>
              <LongitudeDegrees>2.4879947863519191741943359375</LongitudeDegrees>
            </Position>
            <AltitudeMeters>507.20001220703125</AltitudeMeters>
            <DistanceMeters>NAN</DistanceMeters>
          </Trackpoint>
          <Trackpoint>
            <Time>2021-04-03T13:17:36.000Z</Time>
            <Position>
              <LatitudeDegrees>42.31216312386095523834228515625</LatitudeDegrees>
              <LongitudeDegrees>2.487944327294826507568359375</LongitudeDegrees>
            </Position>
            <AltitudeMeters>507.399993896484375</AltitudeMeters>
            <DistanceMeters>NAN</DistanceMeters>
          </Trackpoint>
          <Trackpoint>
            <Time>2021-04-03T13:17:40.000Z</Time>
            <Position>
              <LatitudeDegrees>42.31221525929868221282958984375</LatitudeDegrees>
              <LongitudeDegrees>2.4878968857228755950927734375</LongitudeDegrees>
            </Position>
            <AltitudeMeters>507.600006103515625</AltitudeMeters>
            <DistanceMeters>NAN</DistanceMeters>
          </Trackpoint>
          <Trackpoint>
            <Time>2021-04-03T13:17:43.000Z</Time>
            <Position>
              <LatitudeDegrees>42.31224811635911464691162109375</LatitudeDegrees>
              <LongitudeDegrees>2.48785086907446384429931640625</LongitudeDegrees>
            </Position>
            <AltitudeMeters>507.79998779296875</AltitudeMeters>
            <DistanceMeters>NAN</DistanceMeters>
          </Trackpoint>
          <Trackpoint>
            <Time>2021-04-03T13:17:48.000Z</Time>
            <Position>
              <LatitudeDegrees>42.31228172779083251953125</LatitudeDegrees>
              <LongitudeDegrees>2.48778364621102809906005859375</LongitudeDegrees>
            </Position>
            <AltitudeMeters>508</AltitudeMeters>
            <DistanceMeters>NAN</DistanceMeters>
          </Trackpoint>
          <Trackpoint>
            <Time>2021-04-03T13:17:49.000Z</Time>
            <Position>
              <LatitudeDegrees>42.31228700838983058929443359375</LatitudeDegrees>
              <LongitudeDegrees>2.487771324813365936279296875</LongitudeDegrees>
            </Position>
            <AltitudeMeters>508.20001220703125</AltitudeMeters>
            <DistanceMeters>NAN</DistanceMeters>
          </Trackpoint>
          <Trackpoint>
            <Time>2021-04-03T13:17:50.000Z</Time>
            <Position>
              <LatitudeDegrees>42.31229438446462154388427734375</LatitudeDegrees>
              <LongitudeDegrees>2.48776160180568695068359375</LongitudeDegrees>
            </Position>
            <AltitudeMeters>508.20001220703125</AltitudeMeters>
            <DistanceMeters>NAN</DistanceMeters>
          </Trackpoint>
          <Trackpoint>
            <Time>2021-04-03T13:17:56.000Z</Time>
            <Position>
              <LatitudeDegrees>42.3123385570943355560302734375</LatitudeDegrees>
              <LongitudeDegrees>2.4877007491886615753173828125</LongitudeDegrees>
            </Position>
            <AltitudeMeters>508.600006103515625</AltitudeMeters>
            <DistanceMeters>NAN</DistanceMeters>
          </Trackpoint>
          <Trackpoint>
            <Time>2021-04-03T13:18:00.000Z</Time>
            <Position>
              <LatitudeDegrees>42.3123715817928314208984375</LatitudeDegrees>
              <LongitudeDegrees>2.48765070922672748565673828125</LongitudeDegrees>
            </Position>
            <AltitudeMeters>509</AltitudeMeters>
            <DistanceMeters>NAN</DistanceMeters>
          </Trackpoint>
          <Trackpoint>
            <Time>2021-04-03T13:18:02.000Z</Time>
            <Position>
              <LatitudeDegrees>42.312385328114032745361328125</LatitudeDegrees>
              <LongitudeDegrees>2.48762556351721286773681640625</LongitudeDegrees>
            </Position>
            <AltitudeMeters>509</AltitudeMeters>
            <DistanceMeters>NAN</DistanceMeters>
          </Trackpoint>
          <Trackpoint>
            <Time>2021-04-03T13:18:03.000Z</Time>
            <Position>
              <LatitudeDegrees>42.312394045293331146240234375</LatitudeDegrees>
              <LongitudeDegrees>2.4876139126718044281005859375</LongitudeDegrees>
            </Position>
            <AltitudeMeters>509.20001220703125</AltitudeMeters>
            <DistanceMeters>NAN</DistanceMeters>
          </Trackpoint>
          <Trackpoint>
            <Time>2021-04-03T13:18:08.000Z</Time>
            <Position>
              <LatitudeDegrees>42.31242581270635128021240234375</LatitudeDegrees>
              <LongitudeDegrees>2.48754945583641529083251953125</LongitudeDegrees>
            </Position>
            <AltitudeMeters>509.399993896484375</AltitudeMeters>
            <DistanceMeters>NAN</DistanceMeters>
          </Trackpoint>
          <Trackpoint>
            <Time>2021-04-03T13:18:11.000Z</Time>
            <Position>
              <LatitudeDegrees>42.31244442053139209747314453125</LatitudeDegrees>
              <LongitudeDegrees>2.487515173852443695068359375</LongitudeDegrees>
            </Position>
            <AltitudeMeters>509.600006103515625</AltitudeMeters>
            <DistanceMeters>NAN</DistanceMeters>
          </Trackpoint>
          <Trackpoint>
            <Time>2021-04-03T13:18:12.000Z</Time>
            <Position>
              <LatitudeDegrees>42.31245129369199275970458984375</LatitudeDegrees>
              <LongitudeDegrees>2.48750100843608379364013671875</LongitudeDegrees>
            </Position>
            <AltitudeMeters>509.600006103515625</AltitudeMeters>
            <DistanceMeters>NAN</DistanceMeters>
          </Trackpoint>
          <Trackpoint>
            <Time>2021-04-03T13:18:18.000Z</Time>
            <Position>
              <LatitudeDegrees>42.31251197867095470428466796875</LatitudeDegrees>
              <LongitudeDegrees>2.4874228052794933319091796875</LongitudeDegrees>
            </Position>
            <AltitudeMeters>510</AltitudeMeters>
            <DistanceMeters>NAN</DistanceMeters>
          </Trackpoint>
          <Trackpoint>
            <Time>2021-04-03T13:18:19.000Z</Time>
            <Position>
              <LatitudeDegrees>42.31252186931669712066650390625</LatitudeDegrees>
              <LongitudeDegrees>2.48741316609084606170654296875</LongitudeDegrees>
            </Position>
            <AltitudeMeters>510.20001220703125</AltitudeMeters>
            <DistanceMeters>NAN</DistanceMeters>
          </Trackpoint>
          <Trackpoint>
            <Time>2021-04-03T13:18:28.000Z</Time>
            <Position>
              <LatitudeDegrees>42.312591858208179473876953125</LatitudeDegrees>
              <LongitudeDegrees>2.48727285303175449371337890625</LongitudeDegrees>
            </Position>
            <AltitudeMeters>510.399993896484375</AltitudeMeters>
            <DistanceMeters>NAN</DistanceMeters>
          </Trackpoint>
          <Trackpoint>
            <Time>2021-04-03T13:18:39.000Z</Time>
            <Position>
              <LatitudeDegrees>42.31268330477178096771240234375</LatitudeDegrees>
              <LongitudeDegrees>2.487106136977672576904296875</LongitudeDegrees>
            </Position>
            <AltitudeMeters>511</AltitudeMeters>
            <DistanceMeters>NAN</DistanceMeters>
          </Trackpoint>
          <Trackpoint>
            <Time>2021-04-03T13:18:43.000Z</Time>
            <Position>
              <LatitudeDegrees>42.31272035278379917144775390625</LatitudeDegrees>
              <LongitudeDegrees>2.487064562737941741943359375</LongitudeDegrees>
            </Position>
            <AltitudeMeters>511</AltitudeMeters>
            <DistanceMeters>NAN</DistanceMeters>
          </Trackpoint>
          <Trackpoint>
            <Time>2021-04-03T13:18:44.000Z</Time>
            <Position>
              <LatitudeDegrees>42.31272630393505096435546875</LatitudeDegrees>
              <LongitudeDegrees>2.4870519898831844329833984375</LongitudeDegrees>
            </Position>
            <AltitudeMeters>511.20001220703125</AltitudeMeters>
            <DistanceMeters>NAN</DistanceMeters>
          </Trackpoint>
          <Trackpoint>
            <Time>2021-04-03T13:18:46.000Z</Time>
            <Position>
              <LatitudeDegrees>42.312740385532379150390625</LatitudeDegrees>
              <LongitudeDegrees>2.48702709563076496124267578125</LongitudeDegrees>
            </Position>
            <AltitudeMeters>511.20001220703125</AltitudeMeters>
            <DistanceMeters>NAN</DistanceMeters>
          </Trackpoint>
          <Trackpoint>
            <Time>2021-04-03T13:18:47.000Z</Time>
            <Position>
              <LatitudeDegrees>42.3127524554729461669921875</LatitudeDegrees>
              <LongitudeDegrees>2.4870184622704982757568359375</LongitudeDegrees>
            </Position>
            <AltitudeMeters>511.20001220703125</AltitudeMeters>
            <DistanceMeters>NAN</DistanceMeters>
          </Trackpoint>
          <Trackpoint>
            <Time>2021-04-03T13:18:57.000Z</Time>
            <Position>
              <LatitudeDegrees>42.31283317320048809051513671875</LatitudeDegrees>
              <LongitudeDegrees>2.48689181171357631683349609375</LongitudeDegrees>
            </Position>
            <AltitudeMeters>511.600006103515625</AltitudeMeters>
            <DistanceMeters>NAN</DistanceMeters>
          </Trackpoint>
          <Trackpoint>
            <Time>2021-04-03T13:19:06.000Z</Time>
            <Position>
              <LatitudeDegrees>42.31288229115307331085205078125</LatitudeDegrees>
              <LongitudeDegrees>2.486769519746303558349609375</LongitudeDegrees>
            </Position>
            <AltitudeMeters>511.79998779296875</AltitudeMeters>
            <DistanceMeters>NAN</DistanceMeters>
          </Trackpoint>
          <Trackpoint>
            <Time>2021-04-03T13:19:12.000Z</Time>
            <Position>
              <LatitudeDegrees>42.3129232786595821380615234375</LatitudeDegrees>
              <LongitudeDegrees>2.48669668100774288177490234375</LongitudeDegrees>
            </Position>
            <AltitudeMeters>512.20001220703125</AltitudeMeters>
            <DistanceMeters>NAN</DistanceMeters>
          </Trackpoint>
          <Trackpoint>
            <Time>2021-04-03T13:19:15.000Z</Time>
            <Position>
              <LatitudeDegrees>42.3129524476826190948486328125</LatitudeDegrees>
              <LongitudeDegrees>2.4866610579192638397216796875</LongitudeDegrees>
            </Position>
            <AltitudeMeters>512.20001220703125</AltitudeMeters>
            <DistanceMeters>NAN</DistanceMeters>
          </Trackpoint>
          <Trackpoint>
            <Time>2021-04-03T13:19:25.000Z</Time>
            <Position>
              <LatitudeDegrees>42.3130238614976406097412109375</LatitudeDegrees>
              <LongitudeDegrees>2.486532144248485565185546875</LongitudeDegrees>
            </Position>
            <AltitudeMeters>512.4000244140625</AltitudeMeters>
            <DistanceMeters>NAN</DistanceMeters>
          </Trackpoint>
          <Trackpoint>
            <Time>2021-04-03T13:19:35.000Z</Time>
            <Position>
              <LatitudeDegrees>42.31309820897877216339111328125</LatitudeDegrees>
              <LongitudeDegrees>2.486401386559009552001953125</LongitudeDegrees>
            </Position>
            <AltitudeMeters>512.5999755859375</AltitudeMeters>
            <DistanceMeters>NAN</DistanceMeters>
          </Trackpoint>
          <Trackpoint>
            <Time>2021-04-03T13:19:42.000Z</Time>
            <Position>
              <LatitudeDegrees>42.31315436773002147674560546875</LatitudeDegrees>
              <LongitudeDegrees>2.4863125383853912353515625</LongitudeDegrees>
            </Position>
            <AltitudeMeters>513.20001220703125</AltitudeMeters>
            <DistanceMeters>NAN</DistanceMeters>
          </Trackpoint>
          <Trackpoint>
            <Time>2021-04-03T13:19:44.000Z</Time>
            <Position>
              <LatitudeDegrees>42.31316878460347652435302734375</LatitudeDegrees>
              <LongitudeDegrees>2.486287392675876617431640625</LongitudeDegrees>
            </Position>
            <AltitudeMeters>513.20001220703125</AltitudeMeters>
            <DistanceMeters>NAN</DistanceMeters>
          </Trackpoint>
          <Trackpoint>
            <Time>2021-04-03T13:19:55.000Z</Time>
            <Position>
              <LatitudeDegrees>42.3132381029427051544189453125</LatitudeDegrees>
              <LongitudeDegrees>2.48613559640944004058837890625</LongitudeDegrees>
            </Position>
            <AltitudeMeters>513.5999755859375</AltitudeMeters>
            <DistanceMeters>NAN</DistanceMeters>
          </Trackpoint>
          <Trackpoint>
            <Time>2021-04-03T13:20:03.000Z</Time>
            <Position>
              <LatitudeDegrees>42.31328546069562435150146484375</LatitudeDegrees>
              <LongitudeDegrees>2.486021183431148529052734375</LongitudeDegrees>
            </Position>
            <AltitudeMeters>514.20001220703125</AltitudeMeters>
            <DistanceMeters>NAN</DistanceMeters>
          </Trackpoint>
          <Trackpoint>
            <Time>2021-04-03T13:20:11.000Z</Time>
            <Position>
              <LatitudeDegrees>42.3133349977433681488037109375</LatitudeDegrees>
              <LongitudeDegrees>2.4859073571860790252685546875</LongitudeDegrees>
            </Position>
            <AltitudeMeters>514.79998779296875</AltitudeMeters>
            <DistanceMeters>NAN</DistanceMeters>
          </Trackpoint>
          <Trackpoint>
            <Time>2021-04-03T13:20:20.000Z</Time>
            <Position>
              <LatitudeDegrees>42.31340029276907444000244140625</LatitudeDegrees>
              <LongitudeDegrees>2.4857866577804088592529296875</LongitudeDegrees>
            </Position>
            <AltitudeMeters>515</AltitudeMeters>
            <DistanceMeters>NAN</DistanceMeters>
          </Trackpoint>
          <Trackpoint>
            <Time>2021-04-03T13:20:29.000Z</Time>
            <Position>
              <LatitudeDegrees>42.31348444707691669464111328125</LatitudeDegrees>
              <LongitudeDegrees>2.485696636140346527099609375</LongitudeDegrees>
            </Position>
            <AltitudeMeters>515</AltitudeMeters>
            <DistanceMeters>NAN</DistanceMeters>
          </Trackpoint>
          <Trackpoint>
            <Time>2021-04-03T13:20:33.000Z</Time>
            <Position>
              <LatitudeDegrees>42.3135096766054630279541015625</LatitudeDegrees>
              <LongitudeDegrees>2.4856460094451904296875</LongitudeDegrees>
            </Position>
            <AltitudeMeters>515.20001220703125</AltitudeMeters>
            <DistanceMeters>NAN</DistanceMeters>
          </Trackpoint>
          <Trackpoint>
            <Time>2021-04-03T13:20:39.000Z</Time>
            <Position>
              <LatitudeDegrees>42.31357044540345668792724609375</LatitudeDegrees>
              <LongitudeDegrees>2.48558289371430873870849609375</LongitudeDegrees>
            </Position>
            <AltitudeMeters>515.4000244140625</AltitudeMeters>
            <DistanceMeters>NAN</DistanceMeters>
          </Trackpoint>
          <Trackpoint>
            <Time>2021-04-03T13:20:48.000Z</Time>
            <Position>
              <LatitudeDegrees>42.31368192471563816070556640625</LatitudeDegrees>
              <LongitudeDegrees>2.48552924953401088714599609375</LongitudeDegrees>
            </Position>
            <AltitudeMeters>515.5999755859375</AltitudeMeters>
            <DistanceMeters>NAN</DistanceMeters>
          </Trackpoint>
          <Trackpoint>
            <Time>2021-04-03T13:20:57.000Z</Time>
            <Position>
              <LatitudeDegrees>42.31379256583750247955322265625</LatitudeDegrees>
              <LongitudeDegrees>2.48549823649227619171142578125</LongitudeDegrees>
            </Position>
            <AltitudeMeters>515.79998779296875</AltitudeMeters>
            <DistanceMeters>NAN</DistanceMeters>
          </Trackpoint>
          <Trackpoint>
            <Time>2021-04-03T13:21:02.000Z</Time>
            <Position>
              <LatitudeDegrees>42.31385190971195697784423828125</LatitudeDegrees>
              <LongitudeDegrees>2.48546688817441463470458984375</LongitudeDegrees>
            </Position>
            <AltitudeMeters>515.5999755859375</AltitudeMeters>
            <DistanceMeters>NAN</DistanceMeters>
          </Trackpoint>
          <Trackpoint>
            <Time>2021-04-03T13:21:06.000Z</Time>
            <Position>
              <LatitudeDegrees>42.31389566324651241302490234375</LatitudeDegrees>
              <LongitudeDegrees>2.4854634515941143035888671875</LongitudeDegrees>
            </Position>
            <AltitudeMeters>515.5999755859375</AltitudeMeters>
            <DistanceMeters>NAN</DistanceMeters>
          </Trackpoint>
          <Trackpoint>
            <Time>2021-04-03T13:21:13.000Z</Time>
            <Position>
              <LatitudeDegrees>42.31399792246520519256591796875</LatitudeDegrees>
              <LongitudeDegrees>2.48545196838676929473876953125</LongitudeDegrees>
            </Position>
            <AltitudeMeters>515.79998779296875</AltitudeMeters>
            <DistanceMeters>NAN</DistanceMeters>
          </Trackpoint>
          <Trackpoint>
            <Time>2021-04-03T13:21:17.000Z</Time>
            <Position>
              <LatitudeDegrees>42.31404419057071208953857421875</LatitudeDegrees>
              <LongitudeDegrees>2.48544283211231231689453125</LongitudeDegrees>
            </Position>
            <AltitudeMeters>516</AltitudeMeters>
            <DistanceMeters>NAN</DistanceMeters>
          </Trackpoint>
          <Trackpoint>
            <Time>2021-04-03T13:21:24.000Z</Time>
            <Position>
              <LatitudeDegrees>42.31412549503147602081298828125</LatitudeDegrees>
              <LongitudeDegrees>2.485417015850543975830078125</LongitudeDegrees>
            </Position>
            <AltitudeMeters>516.20001220703125</AltitudeMeters>
            <DistanceMeters>NAN</DistanceMeters>
          </Trackpoint>
          <Trackpoint>
            <Time>2021-04-03T13:21:25.000Z</Time>
            <Position>
              <LatitudeDegrees>42.3141376487910747528076171875</LatitudeDegrees>
              <LongitudeDegrees>2.4854084663093090057373046875</LongitudeDegrees>
            </Position>
            <AltitudeMeters>516.20001220703125</AltitudeMeters>
            <DistanceMeters>NAN</DistanceMeters>
          </Trackpoint>
          <Trackpoint>
            <Time>2021-04-03T13:21:28.000Z</Time>
            <Position>
              <LatitudeDegrees>42.31416807509958744049072265625</LatitudeDegrees>
              <LongitudeDegrees>2.48539715074002742767333984375</LongitudeDegrees>
            </Position>
            <AltitudeMeters>516.5999755859375</AltitudeMeters>
            <DistanceMeters>NAN</DistanceMeters>
          </Trackpoint>
          <Trackpoint>
            <Time>2021-04-03T13:21:32.000Z</Time>
            <Position>
              <LatitudeDegrees>42.31421937234699726104736328125</LatitudeDegrees>
              <LongitudeDegrees>2.48538122512400150299072265625</LongitudeDegrees>
            </Position>
            <AltitudeMeters>516.79998779296875</AltitudeMeters>
            <DistanceMeters>NAN</DistanceMeters>
          </Trackpoint>
          <Trackpoint>
            <Time>2021-04-03T13:21:41.000Z</Time>
            <Position>
              <LatitudeDegrees>42.314308471977710723876953125</LatitudeDegrees>
              <LongitudeDegrees>2.48531919904053211212158203125</LongitudeDegrees>
            </Position>
            <AltitudeMeters>517.20001220703125</AltitudeMeters>
            <DistanceMeters>NAN</DistanceMeters>
          </Trackpoint>
          <Trackpoint>
            <Time>2021-04-03T13:21:42.000Z</Time>
            <Position>
              <LatitudeDegrees>42.314316518604755401611328125</LatitudeDegrees>
              <LongitudeDegrees>2.485309727489948272705078125</LongitudeDegrees>
            </Position>
            <AltitudeMeters>517.4000244140625</AltitudeMeters>
            <DistanceMeters>NAN</DistanceMeters>
          </Trackpoint>
          <Trackpoint>
            <Time>2021-04-03T13:21:53.000Z</Time>
            <Position>
              <LatitudeDegrees>42.3144276626408100128173828125</LatitudeDegrees>
              <LongitudeDegrees>2.485211156308650970458984375</LongitudeDegrees>
            </Position>
            <AltitudeMeters>518</AltitudeMeters>
            <DistanceMeters>NAN</DistanceMeters>
          </Trackpoint>
          <Trackpoint>
            <Time>2021-04-03T13:21:59.000Z</Time>
            <Position>
              <LatitudeDegrees>42.3144851624965667724609375</LatitudeDegrees>
              <LongitudeDegrees>2.4851620383560657501220703125</LongitudeDegrees>
            </Position>
            <AltitudeMeters>518.20001220703125</AltitudeMeters>
            <DistanceMeters>NAN</DistanceMeters>
          </Trackpoint>
          <Trackpoint>
            <Time>2021-04-03T13:22:02.000Z</Time>
            <Position>
              <LatitudeDegrees>42.31449916027486324310302734375</LatitudeDegrees>
              <LongitudeDegrees>2.48512038029730319976806640625</LongitudeDegrees>
            </Position>
            <AltitudeMeters>518.5999755859375</AltitudeMeters>
            <DistanceMeters>NAN</DistanceMeters>
          </Trackpoint>
          <Trackpoint>
            <Time>2021-04-03T13:22:12.000Z</Time>
            <Position>
              <LatitudeDegrees>42.31457929126918315887451171875</LatitudeDegrees>
              <LongitudeDegrees>2.48501292429864406585693359375</LongitudeDegrees>
            </Position>
            <AltitudeMeters>519.20001220703125</AltitudeMeters>
            <DistanceMeters>NAN</DistanceMeters>
          </Trackpoint>
          <Trackpoint>
            <Time>2021-04-03T13:22:15.000Z</Time>
            <Position>
              <LatitudeDegrees>42.31460443697869777679443359375</LatitudeDegrees>
              <LongitudeDegrees>2.4849880300462245941162109375</LongitudeDegrees>
            </Position>
            <AltitudeMeters>519.4000244140625</AltitudeMeters>
            <DistanceMeters>NAN</DistanceMeters>
          </Trackpoint>
          <Trackpoint>
            <Time>2021-04-03T13:22:22.000Z</Time>
            <Position>
              <LatitudeDegrees>42.31465078890323638916015625</LatitudeDegrees>
              <LongitudeDegrees>2.4849072284996509552001953125</LongitudeDegrees>
            </Position>
            <AltitudeMeters>520.20001220703125</AltitudeMeters>
            <DistanceMeters>NAN</DistanceMeters>
          </Trackpoint>
          <Trackpoint>
            <Time>2021-04-03T13:22:25.000Z</Time>
            <Position>
              <LatitudeDegrees>42.31467903591692447662353515625</LatitudeDegrees>
              <LongitudeDegrees>2.48487143777310848236083984375</LongitudeDegrees>
            </Position>
            <AltitudeMeters>520.4000244140625</AltitudeMeters>
            <DistanceMeters>NAN</DistanceMeters>
          </Trackpoint>
          <Trackpoint>
            <Time>2021-04-03T13:22:31.000Z</Time>
            <Position>
              <LatitudeDegrees>42.3147304169833660125732421875</LatitudeDegrees>
              <LongitudeDegrees>2.4848006106913089752197265625</LongitudeDegrees>
            </Position>
            <AltitudeMeters>520.79998779296875</AltitudeMeters>
            <DistanceMeters>NAN</DistanceMeters>
          </Trackpoint>
          <Trackpoint>
            <Time>2021-04-03T13:22:38.000Z</Time>
            <Position>
              <LatitudeDegrees>42.31477593071758747100830078125</LatitudeDegrees>
              <LongitudeDegrees>2.48471369035542011260986328125</LongitudeDegrees>
            </Position>
            <AltitudeMeters>521.4000244140625</AltitudeMeters>
            <DistanceMeters>NAN</DistanceMeters>
          </Trackpoint>
          <Trackpoint>
            <Time>2021-04-03T13:22:41.000Z</Time>
            <Position>
              <LatitudeDegrees>42.31479872949421405792236328125</LatitudeDegrees>
              <LongitudeDegrees>2.4846815876662731170654296875</LongitudeDegrees>
            </Position>
            <AltitudeMeters>521.5999755859375</AltitudeMeters>
            <DistanceMeters>NAN</DistanceMeters>
          </Trackpoint>
          <Trackpoint>
            <Time>2021-04-03T13:22:49.000Z</Time>
            <Position>
              <LatitudeDegrees>42.31484927237033843994140625</LatitudeDegrees>
              <LongitudeDegrees>2.48457622714340686798095703125</LongitudeDegrees>
            </Position>
            <AltitudeMeters>522.20001220703125</AltitudeMeters>
            <DistanceMeters>NAN</DistanceMeters>
          </Trackpoint>
          <Trackpoint>
            <Time>2021-04-03T13:22:50.000Z</Time>
            <Position>
              <LatitudeDegrees>42.31485438533127307891845703125</LatitudeDegrees>
              <LongitudeDegrees>2.4845628999173641204833984375</LongitudeDegrees>
            </Position>
            <AltitudeMeters>522.4000244140625</AltitudeMeters>
            <DistanceMeters>NAN</DistanceMeters>
          </Trackpoint>
          <Trackpoint>
            <Time>2021-04-03T13:22:51.000Z</Time>
            <Position>
              <LatitudeDegrees>42.31486494652926921844482421875</LatitudeDegrees>
              <LongitudeDegrees>2.48455627821385860443115234375</LongitudeDegrees>
            </Position>
            <AltitudeMeters>522.5999755859375</AltitudeMeters>
            <DistanceMeters>NAN</DistanceMeters>
          </Trackpoint>
          <Trackpoint>
            <Time>2021-04-03T13:22:52.000Z</Time>
            <Position>
              <LatitudeDegrees>42.3148735798895359039306640625</LatitudeDegrees>
              <LongitudeDegrees>2.48454672284424304962158203125</LongitudeDegrees>
            </Position>
            <AltitudeMeters>522.5999755859375</AltitudeMeters>
            <DistanceMeters>NAN</DistanceMeters>
          </Trackpoint>
          <Trackpoint>
            <Time>2021-04-03T13:23:03.000Z</Time>
            <Position>
              <LatitudeDegrees>42.31494457460939884185791015625</LatitudeDegrees>
              <LongitudeDegrees>2.48440942727029323577880859375</LongitudeDegrees>
            </Position>
            <AltitudeMeters>523.20001220703125</AltitudeMeters>
            <DistanceMeters>NAN</DistanceMeters>
          </Trackpoint>
          <Trackpoint>
            <Time>2021-04-03T13:23:12.000Z</Time>
            <Position>
              <LatitudeDegrees>42.3149946145713329315185546875</LatitudeDegrees>
              <LongitudeDegrees>2.48427514918148517608642578125</LongitudeDegrees>
            </Position>
            <AltitudeMeters>523.4000244140625</AltitudeMeters>
            <DistanceMeters>NAN</DistanceMeters>
          </Trackpoint>
          <Trackpoint>
            <Time>2021-04-03T13:23:13.000Z</Time>
            <Position>
              <LatitudeDegrees>42.31500291265547275543212890625</LatitudeDegrees>
              <LongitudeDegrees>2.48426525853574275970458984375</LongitudeDegrees>
            </Position>
            <AltitudeMeters>523.5999755859375</AltitudeMeters>
            <DistanceMeters>NAN</DistanceMeters>
          </Trackpoint>
          <Trackpoint>
            <Time>2021-04-03T13:23:14.000Z</Time>
            <Position>
              <LatitudeDegrees>42.31501045636832714080810546875</LatitudeDegrees>
              <LongitudeDegrees>2.48425335623323917388916015625</LongitudeDegrees>
            </Position>
            <AltitudeMeters>523.5999755859375</AltitudeMeters>
            <DistanceMeters>NAN</DistanceMeters>
          </Trackpoint>
          <Trackpoint>
            <Time>2021-04-03T13:23:23.000Z</Time>
            <Position>
              <LatitudeDegrees>42.31507767923176288604736328125</LatitudeDegrees>
              <LongitudeDegrees>2.48414196074008941650390625</LongitudeDegrees>
            </Position>
            <AltitudeMeters>524.20001220703125</AltitudeMeters>
            <DistanceMeters>NAN</DistanceMeters>
          </Trackpoint>
          <Trackpoint>
            <Time>2021-04-03T13:23:28.000Z</Time>
            <Position>
              <LatitudeDegrees>42.31511724181473255157470703125</LatitudeDegrees>
              <LongitudeDegrees>2.4840790964663028717041015625</LongitudeDegrees>
            </Position>
            <AltitudeMeters>524.20001220703125</AltitudeMeters>
            <DistanceMeters>NAN</DistanceMeters>
          </Trackpoint>
          <Trackpoint>
            <Time>2021-04-03T13:23:35.000Z</Time>
            <Position>
              <LatitudeDegrees>42.315168790519237518310546875</LatitudeDegrees>
              <LongitudeDegrees>2.48398144729435443878173828125</LongitudeDegrees>
            </Position>
            <AltitudeMeters>524.4000244140625</AltitudeMeters>
            <DistanceMeters>NAN</DistanceMeters>
          </Trackpoint>
          <Trackpoint>
            <Time>2021-04-03T13:23:37.000Z</Time>
            <Position>
              <LatitudeDegrees>42.31518228538334369659423828125</LatitudeDegrees>
              <LongitudeDegrees>2.483950518071651458740234375</LongitudeDegrees>
            </Position>
            <AltitudeMeters>524.4000244140625</AltitudeMeters>
            <DistanceMeters>NAN</DistanceMeters>
          </Trackpoint>
          <Trackpoint>
            <Time>2021-04-03T13:23:41.000Z</Time>
            <Position>
              <LatitudeDegrees>42.31520776636898517608642578125</LatitudeDegrees>
              <LongitudeDegrees>2.4838910065591335296630859375</LongitudeDegrees>
            </Position>
            <AltitudeMeters>524.5999755859375</AltitudeMeters>
            <DistanceMeters>NAN</DistanceMeters>
          </Trackpoint>
          <Trackpoint>
            <Time>2021-04-03T13:23:47.000Z</Time>
            <Position>
              <LatitudeDegrees>42.31525671668350696563720703125</LatitudeDegrees>
              <LongitudeDegrees>2.48381950892508029937744140625</LongitudeDegrees>
            </Position>
            <AltitudeMeters>524.79998779296875</AltitudeMeters>
            <DistanceMeters>NAN</DistanceMeters>
          </Trackpoint>
          <Trackpoint>
            <Time>2021-04-03T13:23:59.000Z</Time>
            <Position>
              <LatitudeDegrees>42.31534120626747608184814453125</LatitudeDegrees>
              <LongitudeDegrees>2.483672238886356353759765625</LongitudeDegrees>
            </Position>
            <AltitudeMeters>525.20001220703125</AltitudeMeters>
            <DistanceMeters>NAN</DistanceMeters>
          </Trackpoint>
          <Trackpoint>
            <Time>2021-04-03T13:24:08.000Z</Time>
            <Position>
              <LatitudeDegrees>42.3154080100357532501220703125</LatitudeDegrees>
              <LongitudeDegrees>2.48354877345263957977294921875</LongitudeDegrees>
            </Position>
            <AltitudeMeters>525.20001220703125</AltitudeMeters>
            <DistanceMeters>NAN</DistanceMeters>
          </Trackpoint>
          <Trackpoint>
            <Time>2021-04-03T13:24:13.000Z</Time>
            <Position>
              <LatitudeDegrees>42.31544329784810543060302734375</LatitudeDegrees>
              <LongitudeDegrees>2.48347735963761806488037109375</LongitudeDegrees>
            </Position>
            <AltitudeMeters>525.4000244140625</AltitudeMeters>
            <DistanceMeters>NAN</DistanceMeters>
          </Trackpoint>
          <Trackpoint>
            <Time>2021-04-03T13:24:23.000Z</Time>
            <Position>
              <LatitudeDegrees>42.31549928896129131317138671875</LatitudeDegrees>
              <LongitudeDegrees>2.48332229442894458770751953125</LongitudeDegrees>
            </Position>
            <AltitudeMeters>525.5999755859375</AltitudeMeters>
            <DistanceMeters>NAN</DistanceMeters>
          </Trackpoint>
          <Trackpoint>
            <Time>2021-04-03T13:24:26.000Z</Time>
            <Position>
              <LatitudeDegrees>42.31551638804376125335693359375</LatitudeDegrees>
              <LongitudeDegrees>2.48327921144664287567138671875</LongitudeDegrees>
            </Position>
            <AltitudeMeters>525.79998779296875</AltitudeMeters>
            <DistanceMeters>NAN</DistanceMeters>
          </Trackpoint>
          <Trackpoint>
            <Time>2021-04-03T13:24:35.000Z</Time>
            <Position>
              <LatitudeDegrees>42.31556517072021961212158203125</LatitudeDegrees>
              <LongitudeDegrees>2.48313613235950469970703125</LongitudeDegrees>
            </Position>
            <AltitudeMeters>526</AltitudeMeters>
            <DistanceMeters>NAN</DistanceMeters>
          </Trackpoint>
          <Trackpoint>
            <Time>2021-04-03T13:24:46.000Z</Time>
            <Position>
              <LatitudeDegrees>42.31562166474759578704833984375</LatitudeDegrees>
              <LongitudeDegrees>2.48296673409640789031982421875</LongitudeDegrees>
            </Position>
            <AltitudeMeters>526.5999755859375</AltitudeMeters>
            <DistanceMeters>NAN</DistanceMeters>
          </Trackpoint>
          <Trackpoint>
            <Time>2021-04-03T13:24:54.000Z</Time>
            <Position>
              <LatitudeDegrees>42.3156691901385784149169921875</LatitudeDegrees>
              <LongitudeDegrees>2.4828623794019222259521484375</LongitudeDegrees>
            </Position>
            <AltitudeMeters>526.79998779296875</AltitudeMeters>
            <DistanceMeters>NAN</DistanceMeters>
          </Trackpoint>
          <Trackpoint>
            <Time>2021-04-03T13:25:01.000Z</Time>
            <Position>
              <LatitudeDegrees>42.31570833362638950347900390625</LatitudeDegrees>
              <LongitudeDegrees>2.48275333084166049957275390625</LongitudeDegrees>
            </Position>
            <AltitudeMeters>526.79998779296875</AltitudeMeters>
            <DistanceMeters>NAN</DistanceMeters>
          </Trackpoint>
          <Trackpoint>
            <Time>2021-04-03T13:25:03.000Z</Time>
            <Position>
              <LatitudeDegrees>42.31571671552956104278564453125</LatitudeDegrees>
              <LongitudeDegrees>2.482729442417621612548828125</LongitudeDegrees>
            </Position>
            <AltitudeMeters>526.79998779296875</AltitudeMeters>
            <DistanceMeters>NAN</DistanceMeters>
          </Trackpoint>
          <Trackpoint>
            <Time>2021-04-03T13:25:09.000Z</Time>
            <Position>
              <LatitudeDegrees>42.31576331891119480133056640625</LatitudeDegrees>
              <LongitudeDegrees>2.48264126479625701904296875</LongitudeDegrees>
            </Position>
            <AltitudeMeters>527.20001220703125</AltitudeMeters>
            <DistanceMeters>NAN</DistanceMeters>
          </Trackpoint>
          <Trackpoint>
            <Time>2021-04-03T13:25:13.000Z</Time>
            <Position>
              <LatitudeDegrees>42.31577740050852298736572265625</LatitudeDegrees>
              <LongitudeDegrees>2.4825861118733882904052734375</LongitudeDegrees>
            </Position>
            <AltitudeMeters>527.20001220703125</AltitudeMeters>
            <DistanceMeters>NAN</DistanceMeters>
          </Trackpoint>
          <Trackpoint>
            <Time>2021-04-03T13:25:14.000Z</Time>
            <Position>
              <LatitudeDegrees>42.31578695587813854217529296875</LatitudeDegrees>
              <LongitudeDegrees>2.4825747124850749969482421875</LongitudeDegrees>
            </Position>
            <AltitudeMeters>527.20001220703125</AltitudeMeters>
            <DistanceMeters>NAN</DistanceMeters>
          </Trackpoint>
          <Trackpoint>
            <Time>2021-04-03T13:25:16.000Z</Time>
            <Position>
              <LatitudeDegrees>42.31580589897930622100830078125</LatitudeDegrees>
              <LongitudeDegrees>2.4825499020516872406005859375</LongitudeDegrees>
            </Position>
            <AltitudeMeters>527</AltitudeMeters>
            <DistanceMeters>NAN</DistanceMeters>
          </Trackpoint>
          <Trackpoint>
            <Time>2021-04-03T13:25:25.000Z</Time>
            <Position>
              <LatitudeDegrees>42.31587982736527919769287109375</LatitudeDegrees>
              <LongitudeDegrees>2.48242937028408050537109375</LongitudeDegrees>
            </Position>
            <AltitudeMeters>526.79998779296875</AltitudeMeters>
            <DistanceMeters>NAN</DistanceMeters>
          </Trackpoint>
          <Trackpoint>
            <Time>2021-04-03T13:25:32.000Z</Time>
            <Position>
              <LatitudeDegrees>42.31594034470617771148681640625</LatitudeDegrees>
              <LongitudeDegrees>2.482338510453701019287109375</LongitudeDegrees>
            </Position>
            <AltitudeMeters>526.79998779296875</AltitudeMeters>
            <DistanceMeters>NAN</DistanceMeters>
          </Trackpoint>
          <Trackpoint>
            <Time>2021-04-03T13:25:40.000Z</Time>
            <Position>
              <LatitudeDegrees>42.3160121776163578033447265625</LatitudeDegrees>
              <LongitudeDegrees>2.4822328984737396240234375</LongitudeDegrees>
            </Position>
            <AltitudeMeters>526.79998779296875</AltitudeMeters>
            <DistanceMeters>NAN</DistanceMeters>
          </Trackpoint>
          <Trackpoint>
            <Time>2021-04-03T13:25:44.000Z</Time>
            <Position>
              <LatitudeDegrees>42.31605115346610546112060546875</LatitudeDegrees>
              <LongitudeDegrees>2.48218872584402561187744140625</LongitudeDegrees>
            </Position>
            <AltitudeMeters>526.5999755859375</AltitudeMeters>
            <DistanceMeters>NAN</DistanceMeters>
          </Trackpoint>
          <Trackpoint>
            <Time>2021-04-03T13:25:51.000Z</Time>
            <Position>
              <LatitudeDegrees>42.31612960807979106903076171875</LatitudeDegrees>
              <LongitudeDegrees>2.482109852135181427001953125</LongitudeDegrees>
            </Position>
            <AltitudeMeters>526.20001220703125</AltitudeMeters>
            <DistanceMeters>NAN</DistanceMeters>
          </Trackpoint>
          <Trackpoint>
            <Time>2021-04-03T13:25:53.000Z</Time>
            <Position>
              <LatitudeDegrees>42.31614721007645130157470703125</LatitudeDegrees>
              <LongitudeDegrees>2.48208470642566680908203125</LongitudeDegrees>
            </Position>
            <AltitudeMeters>526.20001220703125</AltitudeMeters>
            <DistanceMeters>NAN</DistanceMeters>
          </Trackpoint>
          <Trackpoint>
            <Time>2021-04-03T13:26:01.000Z</Time>
            <Position>
              <LatitudeDegrees>42.3162394948303699493408203125</LatitudeDegrees>
              <LongitudeDegrees>2.48202008195221424102783203125</LongitudeDegrees>
            </Position>
            <AltitudeMeters>526</AltitudeMeters>
            <DistanceMeters>NAN</DistanceMeters>
          </Trackpoint>
          <Trackpoint>
            <Time>2021-04-03T13:26:06.000Z</Time>
            <Position>
              <LatitudeDegrees>42.3162902891635894775390625</LatitudeDegrees>
              <LongitudeDegrees>2.48198546469211578369140625</LongitudeDegrees>
            </Position>
            <AltitudeMeters>525.5999755859375</AltitudeMeters>
            <DistanceMeters>NAN</DistanceMeters>
          </Trackpoint>
          <Trackpoint>
            <Time>2021-04-03T13:26:11.000Z</Time>
            <Position>
              <LatitudeDegrees>42.31634636409580707550048828125</LatitudeDegrees>
              <LongitudeDegrees>2.4819510988891124725341796875</LongitudeDegrees>
            </Position>
            <AltitudeMeters>525.5999755859375</AltitudeMeters>
            <DistanceMeters>NAN</DistanceMeters>
          </Trackpoint>
          <Trackpoint>
            <Time>2021-04-03T13:26:13.000Z</Time>
            <Position>
              <LatitudeDegrees>42.316361032426357269287109375</LatitudeDegrees>
              <LongitudeDegrees>2.481932826340198516845703125</LongitudeDegrees>
            </Position>
            <AltitudeMeters>525.5999755859375</AltitudeMeters>
            <DistanceMeters>NAN</DistanceMeters>
          </Trackpoint>
          <Trackpoint>
            <Time>2021-04-03T13:26:17.000Z</Time>
            <Position>
              <LatitudeDegrees>42.316408641636371612548828125</LatitudeDegrees>
              <LongitudeDegrees>2.48189820908010005950927734375</LongitudeDegrees>
            </Position>
            <AltitudeMeters>525.4000244140625</AltitudeMeters>
            <DistanceMeters>NAN</DistanceMeters>
          </Trackpoint>
          <Trackpoint>
            <Time>2021-04-03T13:26:28.000Z</Time>
            <Position>
              <LatitudeDegrees>42.31654434464871883392333984375</LatitudeDegrees>
              <LongitudeDegrees>2.48182495124638080596923828125</LongitudeDegrees>
            </Position>
            <AltitudeMeters>525.20001220703125</AltitudeMeters>
            <DistanceMeters>NAN</DistanceMeters>
          </Trackpoint>
          <Trackpoint>
            <Time>2021-04-03T13:26:38.000Z</Time>
            <Position>
              <LatitudeDegrees>42.316639982163906097412109375</LatitudeDegrees>
              <LongitudeDegrees>2.4817576445639133453369140625</LongitudeDegrees>
            </Position>
            <AltitudeMeters>524.79998779296875</AltitudeMeters>
            <DistanceMeters>NAN</DistanceMeters>
          </Trackpoint>
          <Trackpoint>
            <Time>2021-04-03T13:26:42.000Z</Time>
            <Position>
              <LatitudeDegrees>42.316659428179264068603515625</LatitudeDegrees>
              <LongitudeDegrees>2.481730319559574127197265625</LongitudeDegrees>
            </Position>
            <AltitudeMeters>525</AltitudeMeters>
            <DistanceMeters>NAN</DistanceMeters>
          </Trackpoint>
          <Trackpoint>
            <Time>2021-04-03T13:26:45.000Z</Time>
            <Position>
              <LatitudeDegrees>42.31668130494654178619384765625</LatitudeDegrees>
              <LongitudeDegrees>2.4817392043769359588623046875</LongitudeDegrees>
            </Position>
            <AltitudeMeters>524.79998779296875</AltitudeMeters>
            <DistanceMeters>NAN</DistanceMeters>
          </Trackpoint>
          <Trackpoint>
            <Time>2021-04-03T13:26:48.000Z</Time>
            <Position>
              <LatitudeDegrees>42.31669588945806026458740234375</LatitudeDegrees>
              <LongitudeDegrees>2.4817455746233463287353515625</LongitudeDegrees>
            </Position>
            <AltitudeMeters>524.5999755859375</AltitudeMeters>
            <DistanceMeters>NAN</DistanceMeters>
          </Trackpoint>
          <Trackpoint>
            <Time>2021-04-03T13:26:49.000Z</Time>
            <Position>
              <LatitudeDegrees>42.31670628301799297332763671875</LatitudeDegrees>
              <LongitudeDegrees>2.48174448497593402862548828125</LongitudeDegrees>
            </Position>
            <AltitudeMeters>524.5999755859375</AltitudeMeters>
            <DistanceMeters>NAN</DistanceMeters>
          </Trackpoint>
          <Trackpoint>
            <Time>2021-04-03T13:26:52.000Z</Time>
            <Position>
              <LatitudeDegrees>42.31671097688376903533935546875</LatitudeDegrees>
              <LongitudeDegrees>2.48172906227409839630126953125</LongitudeDegrees>
            </Position>
            <AltitudeMeters>524.5999755859375</AltitudeMeters>
            <DistanceMeters>NAN</DistanceMeters>
          </Trackpoint>
          <Trackpoint>
            <Time>2021-04-03T13:26:53.000Z</Time>
            <Position>
              <LatitudeDegrees>42.31671684421598911285400390625</LatitudeDegrees>
              <LongitudeDegrees>2.48173023574054241180419921875</LongitudeDegrees>
            </Position>
            <AltitudeMeters>524.5999755859375</AltitudeMeters>
            <DistanceMeters>NAN</DistanceMeters>
          </Trackpoint>
          <Trackpoint>
            <Time>2021-04-03T13:27:00.000Z</Time>
            <Position>
              <LatitudeDegrees>42.31675171293318271636962890625</LatitudeDegrees>
              <LongitudeDegrees>2.48174699954688549041748046875</LongitudeDegrees>
            </Position>
            <AltitudeMeters>524.5999755859375</AltitudeMeters>
            <DistanceMeters>NAN</DistanceMeters>
          </Trackpoint>
          <Trackpoint>
            <Time>2021-04-03T13:27:01.000Z</Time>
            <Position>
              <LatitudeDegrees>42.31675121001899242401123046875</LatitudeDegrees>
              <LongitudeDegrees>2.48174733482301235198974609375</LongitudeDegrees>
            </Position>
            <AltitudeMeters>524.5999755859375</AltitudeMeters>
            <DistanceMeters>NAN</DistanceMeters>
          </Trackpoint>
          <Trackpoint>
            <Time>2021-04-03T13:27:11.000Z</Time>
            <Position>
              <LatitudeDegrees>42.31674986891448497772216796875</LatitudeDegrees>
              <LongitudeDegrees>2.48174632899463176727294921875</LongitudeDegrees>
            </Position>
            <AltitudeMeters>524.5999755859375</AltitudeMeters>
            <DistanceMeters>NAN</DistanceMeters>
          </Trackpoint>
          <Trackpoint>
            <Time>2021-04-03T13:27:20.000Z</Time>
            <Position>
              <LatitudeDegrees>42.3167972266674041748046875</LatitudeDegrees>
              <LongitudeDegrees>2.48175152577459812164306640625</LongitudeDegrees>
            </Position>
            <AltitudeMeters>524.4000244140625</AltitudeMeters>
            <DistanceMeters>NAN</DistanceMeters>
          </Trackpoint>
          <Trackpoint>
            <Time>2021-04-03T13:27:26.000Z</Time>
            <Position>
              <LatitudeDegrees>42.3168852366507053375244140625</LatitudeDegrees>
              <LongitudeDegrees>2.481756471097469329833984375</LongitudeDegrees>
            </Position>
            <AltitudeMeters>524.20001220703125</AltitudeMeters>
            <DistanceMeters>NAN</DistanceMeters>
          </Trackpoint>
          <Trackpoint>
            <Time>2021-04-03T13:27:30.000Z</Time>
            <Position>
              <LatitudeDegrees>42.31692588888108730316162109375</LatitudeDegrees>
              <LongitudeDegrees>2.48173291794955730438232421875</LongitudeDegrees>
            </Position>
            <AltitudeMeters>524.20001220703125</AltitudeMeters>
            <DistanceMeters>NAN</DistanceMeters>
          </Trackpoint>
          <Trackpoint>
            <Time>2021-04-03T13:27:34.000Z</Time>
            <Position>
              <LatitudeDegrees>42.31697618030011653900146484375</LatitudeDegrees>
              <LongitudeDegrees>2.4817204289138317108154296875</LongitudeDegrees>
            </Position>
            <AltitudeMeters>524</AltitudeMeters>
            <DistanceMeters>NAN</DistanceMeters>
          </Trackpoint>
          <Trackpoint>
            <Time>2021-04-03T13:27:40.000Z</Time>
            <Position>
              <LatitudeDegrees>42.317051030695438385009765625</LatitudeDegrees>
              <LongitudeDegrees>2.48171129263937473297119140625</LongitudeDegrees>
            </Position>
            <AltitudeMeters>523.79998779296875</AltitudeMeters>
            <DistanceMeters>NAN</DistanceMeters>
          </Trackpoint>
          <Trackpoint>
            <Time>2021-04-03T13:27:43.000Z</Time>
            <Position>
              <LatitudeDegrees>42.31709252111613750457763671875</LatitudeDegrees>
              <LongitudeDegrees>2.4817093648016452789306640625</LongitudeDegrees>
            </Position>
            <AltitudeMeters>523.5999755859375</AltitudeMeters>
            <DistanceMeters>NAN</DistanceMeters>
          </Trackpoint>
          <Trackpoint>
            <Time>2021-04-03T13:27:46.000Z</Time>
            <Position>
              <LatitudeDegrees>42.31712244451045989990234375</LatitudeDegrees>
              <LongitudeDegrees>2.4816936068236827850341796875</LongitudeDegrees>
            </Position>
            <AltitudeMeters>523.5999755859375</AltitudeMeters>
            <DistanceMeters>NAN</DistanceMeters>
          </Trackpoint>
          <Trackpoint>
            <Time>2021-04-03T13:27:56.000Z</Time>
            <Position>
              <LatitudeDegrees>42.31723367236554622650146484375</LatitudeDegrees>
              <LongitudeDegrees>2.48164423741400241851806640625</LongitudeDegrees>
            </Position>
            <AltitudeMeters>523.5999755859375</AltitudeMeters>
            <DistanceMeters>NAN</DistanceMeters>
          </Trackpoint>
          <Trackpoint>
            <Time>2021-04-03T13:27:57.000Z</Time>
            <Position>
              <LatitudeDegrees>42.317246831953525543212890625</LatitudeDegrees>
              <LongitudeDegrees>2.4816446565091609954833984375</LongitudeDegrees>
            </Position>
            <AltitudeMeters>523.79998779296875</AltitudeMeters>
            <DistanceMeters>NAN</DistanceMeters>
          </Trackpoint>
          <Trackpoint>
            <Time>2021-04-03T13:28:02.000Z</Time>
            <Position>
              <LatitudeDegrees>42.31730106286704540252685546875</LatitudeDegrees>
              <LongitudeDegrees>2.481619678437709808349609375</LongitudeDegrees>
            </Position>
            <AltitudeMeters>524</AltitudeMeters>
            <DistanceMeters>NAN</DistanceMeters>
          </Trackpoint>
          <Trackpoint>
            <Time>2021-04-03T13:28:05.000Z</Time>
            <Position>
              <LatitudeDegrees>42.31732788495719432830810546875</LatitudeDegrees>
              <LongitudeDegrees>2.48160417191684246063232421875</LongitudeDegrees>
            </Position>
            <AltitudeMeters>524.20001220703125</AltitudeMeters>
            <DistanceMeters>NAN</DistanceMeters>
          </Trackpoint>
          <Trackpoint>
            <Time>2021-04-03T13:28:08.000Z</Time>
            <Position>
              <LatitudeDegrees>42.31735923327505588531494140625</LatitudeDegrees>
              <LongitudeDegrees>2.48159863986074924468994140625</LongitudeDegrees>
            </Position>
            <AltitudeMeters>524.20001220703125</AltitudeMeters>
            <DistanceMeters>NAN</DistanceMeters>
          </Trackpoint>
          <Trackpoint>
            <Time>2021-04-03T13:28:13.000Z</Time>
            <Position>
              <LatitudeDegrees>42.317416481673717498779296875</LatitudeDegrees>
              <LongitudeDegrees>2.48157483525574207305908203125</LongitudeDegrees>
            </Position>
            <AltitudeMeters>524.5999755859375</AltitudeMeters>
            <DistanceMeters>NAN</DistanceMeters>
          </Trackpoint>
          <Trackpoint>
            <Time>2021-04-03T13:28:15.000Z</Time>
            <Position>
              <LatitudeDegrees>42.31743634678423404693603515625</LatitudeDegrees>
              <LongitudeDegrees>2.48156243003904819488525390625</LongitudeDegrees>
            </Position>
            <AltitudeMeters>524.5999755859375</AltitudeMeters>
            <DistanceMeters>NAN</DistanceMeters>
          </Trackpoint>
          <Trackpoint>
            <Time>2021-04-03T13:28:18.000Z</Time>
            <Position>
              <LatitudeDegrees>42.31746585108339786529541015625</LatitudeDegrees>
              <LongitudeDegrees>2.4815594963729381561279296875</LongitudeDegrees>
            </Position>
            <AltitudeMeters>524.5999755859375</AltitudeMeters>
            <DistanceMeters>NAN</DistanceMeters>
          </Trackpoint>
          <Trackpoint>
            <Time>2021-04-03T13:28:19.000Z</Time>
            <Position>
              <LatitudeDegrees>42.317472808063030242919921875</LatitudeDegrees>
              <LongitudeDegrees>2.48155622743070125579833984375</LongitudeDegrees>
            </Position>
            <AltitudeMeters>524.5999755859375</AltitudeMeters>
            <DistanceMeters>NAN</DistanceMeters>
          </Trackpoint>
          <Trackpoint>
            <Time>2021-04-03T13:28:20.000Z</Time>
            <Position>
              <LatitudeDegrees>42.3174790106713771820068359375</LatitudeDegrees>
              <LongitudeDegrees>2.48155103065073490142822265625</LongitudeDegrees>
            </Position>
            <AltitudeMeters>524.5999755859375</AltitudeMeters>
            <DistanceMeters>NAN</DistanceMeters>
          </Trackpoint>
          <Trackpoint>
            <Time>2021-04-03T13:28:21.000Z</Time>
            <Position>
              <LatitudeDegrees>42.31748747639358043670654296875</LatitudeDegrees>
              <LongitudeDegrees>2.4815501086413860321044921875</LongitudeDegrees>
            </Position>
            <AltitudeMeters>524.5999755859375</AltitudeMeters>
            <DistanceMeters>NAN</DistanceMeters>
          </Trackpoint>
          <Trackpoint>
            <Time>2021-04-03T13:28:22.000Z</Time>
            <Position>
              <LatitudeDegrees>42.31749652884900569915771484375</LatitudeDegrees>
              <LongitudeDegrees>2.48154868371784687042236328125</LongitudeDegrees>
            </Position>
            <AltitudeMeters>524.5999755859375</AltitudeMeters>
            <DistanceMeters>NAN</DistanceMeters>
          </Trackpoint>
          <Trackpoint>
            <Time>2021-04-03T13:28:24.000Z</Time>
            <Position>
              <LatitudeDegrees>42.3175256140530109405517578125</LatitudeDegrees>
              <LongitudeDegrees>2.4815662018954753875732421875</LongitudeDegrees>
            </Position>
            <AltitudeMeters>525</AltitudeMeters>
            <DistanceMeters>NAN</DistanceMeters>
          </Trackpoint>
          <Trackpoint>
            <Time>2021-04-03T13:28:25.000Z</Time>
            <Position>
              <LatitudeDegrees>42.3175413720309734344482421875</LatitudeDegrees>
              <LongitudeDegrees>2.48156511224806308746337890625</LongitudeDegrees>
            </Position>
            <AltitudeMeters>525.20001220703125</AltitudeMeters>
            <DistanceMeters>NAN</DistanceMeters>
          </Trackpoint>
          <Trackpoint>
            <Time>2021-04-03T13:28:32.000Z</Time>
            <Position>
              <LatitudeDegrees>42.3176375962793827056884765625</LatitudeDegrees>
              <LongitudeDegrees>2.4815688841044902801513671875</LongitudeDegrees>
            </Position>
            <AltitudeMeters>525.5999755859375</AltitudeMeters>
            <DistanceMeters>NAN</DistanceMeters>
          </Trackpoint>
          <Trackpoint>
            <Time>2021-04-03T13:28:33.000Z</Time>
            <Position>
              <LatitudeDegrees>42.31765042059123516082763671875</LatitudeDegrees>
              <LongitudeDegrees>2.48156704008579254150390625</LongitudeDegrees>
            </Position>
            <AltitudeMeters>525.79998779296875</AltitudeMeters>
            <DistanceMeters>NAN</DistanceMeters>
          </Trackpoint>
          <Trackpoint>
            <Time>2021-04-03T13:28:42.000Z</Time>
            <Position>
              <LatitudeDegrees>42.3177225887775421142578125</LatitudeDegrees>
              <LongitudeDegrees>2.48157751746475696563720703125</LongitudeDegrees>
            </Position>
            <AltitudeMeters>526.5999755859375</AltitudeMeters>
            <DistanceMeters>NAN</DistanceMeters>
          </Trackpoint>
          <Trackpoint>
            <Time>2021-04-03T13:28:43.000Z</Time>
            <Position>
              <LatitudeDegrees>42.31773977167904376983642578125</LatitudeDegrees>
              <LongitudeDegrees>2.48158254660665988922119140625</LongitudeDegrees>
            </Position>
            <AltitudeMeters>526.79998779296875</AltitudeMeters>
            <DistanceMeters>NAN</DistanceMeters>
          </Trackpoint>
          <Trackpoint>
            <Time>2021-04-03T13:28:51.000Z</Time>
            <Position>
              <LatitudeDegrees>42.31782250106334686279296875</LatitudeDegrees>
              <LongitudeDegrees>2.4815923534333705902099609375</LongitudeDegrees>
            </Position>
            <AltitudeMeters>527</AltitudeMeters>
            <DistanceMeters>NAN</DistanceMeters>
          </Trackpoint>
          <Trackpoint>
            <Time>2021-04-03T13:28:52.000Z</Time>
            <Position>
              <LatitudeDegrees>42.31782996095716953277587890625</LatitudeDegrees>
              <LongitudeDegrees>2.48159143142402172088623046875</LongitudeDegrees>
            </Position>
            <AltitudeMeters>527</AltitudeMeters>
            <DistanceMeters>NAN</DistanceMeters>
          </Trackpoint>
          <Trackpoint>
            <Time>2021-04-03T13:28:54.000Z</Time>
            <Position>
              <LatitudeDegrees>42.31784773059189319610595703125</LatitudeDegrees>
              <LongitudeDegrees>2.481596879661083221435546875</LongitudeDegrees>
            </Position>
            <AltitudeMeters>527</AltitudeMeters>
            <DistanceMeters>NAN</DistanceMeters>
          </Trackpoint>
          <Trackpoint>
            <Time>2021-04-03T13:28:57.000Z</Time>
            <Position>
              <LatitudeDegrees>42.3178768157958984375</LatitudeDegrees>
              <LongitudeDegrees>2.48160056769847869873046875</LongitudeDegrees>
            </Position>
            <AltitudeMeters>527.20001220703125</AltitudeMeters>
            <DistanceMeters>NAN</DistanceMeters>
          </Trackpoint>
          <Trackpoint>
            <Time>2021-04-03T13:29:00.000Z</Time>
            <Position>
              <LatitudeDegrees>42.31789919547736644744873046875</LatitudeDegrees>
              <LongitudeDegrees>2.48160249553620815277099609375</LongitudeDegrees>
            </Position>
            <AltitudeMeters>527.20001220703125</AltitudeMeters>
            <DistanceMeters>NAN</DistanceMeters>
          </Trackpoint>
          <Trackpoint>
            <Time>2021-04-03T13:29:01.000Z</Time>
            <Position>
              <LatitudeDegrees>42.3179048113524913787841796875</LatitudeDegrees>
              <LongitudeDegrees>2.48160584829747676849365234375</LongitudeDegrees>
            </Position>
            <AltitudeMeters>527.4000244140625</AltitudeMeters>
            <DistanceMeters>NAN</DistanceMeters>
          </Trackpoint>
          <Trackpoint>
            <Time>2021-04-03T13:29:02.000Z</Time>
            <Position>
              <LatitudeDegrees>42.31791160069406032562255859375</LatitudeDegrees>
              <LongitudeDegrees>2.48160861432552337646484375</LongitudeDegrees>
            </Position>
            <AltitudeMeters>527.4000244140625</AltitudeMeters>
            <DistanceMeters>NAN</DistanceMeters>
          </Trackpoint>
          <Trackpoint>
            <Time>2021-04-03T13:29:03.000Z</Time>
            <Position>
              <LatitudeDegrees>42.31792216189205646514892578125</LatitudeDegrees>
              <LongitudeDegrees>2.48161138035356998443603515625</LongitudeDegrees>
            </Position>
            <AltitudeMeters>527.4000244140625</AltitudeMeters>
            <DistanceMeters>NAN</DistanceMeters>
          </Trackpoint>
          <Trackpoint>
            <Time>2021-04-03T13:29:07.000Z</Time>
            <Position>
              <LatitudeDegrees>42.31798049993813037872314453125</LatitudeDegrees>
              <LongitudeDegrees>2.48163267038762569427490234375</LongitudeDegrees>
            </Position>
            <AltitudeMeters>527.5999755859375</AltitudeMeters>
            <DistanceMeters>NAN</DistanceMeters>
          </Trackpoint>
          <Trackpoint>
            <Time>2021-04-03T13:29:10.000Z</Time>
            <Position>
              <LatitudeDegrees>42.3180204816162586212158203125</LatitudeDegrees>
              <LongitudeDegrees>2.48163870535790920257568359375</LongitudeDegrees>
            </Position>
            <AltitudeMeters>527.5999755859375</AltitudeMeters>
            <DistanceMeters>NAN</DistanceMeters>
          </Trackpoint>
          <Trackpoint>
            <Time>2021-04-03T13:29:13.000Z</Time>
            <Position>
              <LatitudeDegrees>42.318053506314754486083984375</LatitudeDegrees>
              <LongitudeDegrees>2.481651194393634796142578125</LongitudeDegrees>
            </Position>
            <AltitudeMeters>527.79998779296875</AltitudeMeters>
            <DistanceMeters>NAN</DistanceMeters>
          </Trackpoint>
          <Trackpoint>
            <Time>2021-04-03T13:29:14.000Z</Time>
            <Position>
              <LatitudeDegrees>42.31806264258921146392822265625</LatitudeDegrees>
              <LongitudeDegrees>2.48165496625006198883056640625</LongitudeDegrees>
            </Position>
            <AltitudeMeters>527.79998779296875</AltitudeMeters>
            <DistanceMeters>NAN</DistanceMeters>
          </Trackpoint>
          <Trackpoint>
            <Time>2021-04-03T13:29:15.000Z</Time>
            <Position>
              <LatitudeDegrees>42.3180751316249370574951171875</LatitudeDegrees>
              <LongitudeDegrees>2.48166024684906005859375</LongitudeDegrees>
            </Position>
            <AltitudeMeters>527.79998779296875</AltitudeMeters>
            <DistanceMeters>NAN</DistanceMeters>
          </Trackpoint>
          <Trackpoint>
            <Time>2021-04-03T13:29:16.000Z</Time>
            <Position>
              <LatitudeDegrees>42.3180861957371234893798828125</LatitudeDegrees>
              <LongitudeDegrees>2.48166385106742382049560546875</LongitudeDegrees>
            </Position>
            <AltitudeMeters>527.79998779296875</AltitudeMeters>
            <DistanceMeters>NAN</DistanceMeters>
          </Trackpoint>
          <Trackpoint>
            <Time>2021-04-03T13:29:17.000Z</Time>
            <Position>
              <LatitudeDegrees>42.3180927336215972900390625</LatitudeDegrees>
              <LongitudeDegrees>2.4816669523715972900390625</LongitudeDegrees>
            </Position>
            <AltitudeMeters>528</AltitudeMeters>
            <DistanceMeters>NAN</DistanceMeters>
          </Trackpoint>
          <Trackpoint>
            <Time>2021-04-03T13:29:20.000Z</Time>
            <Position>
              <LatitudeDegrees>42.3181100003421306610107421875</LatitudeDegrees>
              <LongitudeDegrees>2.48167893849313259124755859375</LongitudeDegrees>
            </Position>
            <AltitudeMeters>528.4000244140625</AltitudeMeters>
            <DistanceMeters>NAN</DistanceMeters>
          </Trackpoint>
          <Trackpoint>
            <Time>2021-04-03T13:29:21.000Z</Time>
            <Position>
              <LatitudeDegrees>42.31812349520623683929443359375</LatitudeDegrees>
              <LongitudeDegrees>2.4816848896443843841552734375</LongitudeDegrees>
            </Position>
            <AltitudeMeters>528.4000244140625</AltitudeMeters>
            <DistanceMeters>NAN</DistanceMeters>
          </Trackpoint>
          <Trackpoint>
            <Time>2021-04-03T13:29:23.000Z</Time>
            <Position>
              <LatitudeDegrees>42.31815400533378124237060546875</LatitudeDegrees>
              <LongitudeDegrees>2.48170374892652034759521484375</LongitudeDegrees>
            </Position>
            <AltitudeMeters>528.5999755859375</AltitudeMeters>
            <DistanceMeters>NAN</DistanceMeters>
          </Trackpoint>
          <Trackpoint>
            <Time>2021-04-03T13:29:24.000Z</Time>
            <Position>
              <LatitudeDegrees>42.318166159093379974365234375</LatitudeDegrees>
              <LongitudeDegrees>2.4817153997719287872314453125</LongitudeDegrees>
            </Position>
            <AltitudeMeters>528.79998779296875</AltitudeMeters>
            <DistanceMeters>NAN</DistanceMeters>
          </Trackpoint>
          <Trackpoint>
            <Time>2021-04-03T13:29:27.000Z</Time>
            <Position>
              <LatitudeDegrees>42.3181961663067340850830078125</LatitudeDegrees>
              <LongitudeDegrees>2.48173610307276248931884765625</LongitudeDegrees>
            </Position>
            <AltitudeMeters>529.20001220703125</AltitudeMeters>
            <DistanceMeters>NAN</DistanceMeters>
          </Trackpoint>
          <Trackpoint>
            <Time>2021-04-03T13:29:28.000Z</Time>
            <Position>
              <LatitudeDegrees>42.31820329092442989349365234375</LatitudeDegrees>
              <LongitudeDegrees>2.48173794709146022796630859375</LongitudeDegrees>
            </Position>
            <AltitudeMeters>529.20001220703125</AltitudeMeters>
            <DistanceMeters>NAN</DistanceMeters>
          </Trackpoint>
          <Trackpoint>
            <Time>2021-04-03T13:29:30.000Z</Time>
            <Position>
              <LatitudeDegrees>42.31822374276816844940185546875</LatitudeDegrees>
              <LongitudeDegrees>2.48174540698528289794921875</LongitudeDegrees>
            </Position>
            <AltitudeMeters>529.4000244140625</AltitudeMeters>
            <DistanceMeters>NAN</DistanceMeters>
          </Trackpoint>
          <Trackpoint>
            <Time>2021-04-03T13:29:33.000Z</Time>
            <Position>
              <LatitudeDegrees>42.31825274415314197540283203125</LatitudeDegrees>
              <LongitudeDegrees>2.48174666427075862884521484375</LongitudeDegrees>
            </Position>
            <AltitudeMeters>529.4000244140625</AltitudeMeters>
            <DistanceMeters>NAN</DistanceMeters>
          </Trackpoint>
          <Trackpoint>
            <Time>2021-04-03T13:29:36.000Z</Time>
            <Position>
              <LatitudeDegrees>42.31827981770038604736328125</LatitudeDegrees>
              <LongitudeDegrees>2.48174867592751979827880859375</LongitudeDegrees>
            </Position>
            <AltitudeMeters>529.5999755859375</AltitudeMeters>
            <DistanceMeters>NAN</DistanceMeters>
          </Trackpoint>
          <Trackpoint>
            <Time>2021-04-03T13:29:39.000Z</Time>
            <Position>
              <LatitudeDegrees>42.3183044604957103729248046875</LatitudeDegrees>
              <LongitudeDegrees>2.48175144195556640625</LongitudeDegrees>
            </Position>
            <AltitudeMeters>529.79998779296875</AltitudeMeters>
            <DistanceMeters>NAN</DistanceMeters>
          </Trackpoint>
          <Trackpoint>
            <Time>2021-04-03T13:29:40.000Z</Time>
            <Position>
              <LatitudeDegrees>42.31831409968435764312744140625</LatitudeDegrees>
              <LongitudeDegrees>2.48175747692584991455078125</LongitudeDegrees>
            </Position>
            <AltitudeMeters>529.79998779296875</AltitudeMeters>
            <DistanceMeters>NAN</DistanceMeters>
          </Trackpoint>
          <Trackpoint>
            <Time>2021-04-03T13:29:42.000Z</Time>
            <Position>
              <LatitudeDegrees>42.31832943856716156005859375</LatitudeDegrees>
              <LongitudeDegrees>2.4817710556089878082275390625</LongitudeDegrees>
            </Position>
            <AltitudeMeters>530</AltitudeMeters>
            <DistanceMeters>NAN</DistanceMeters>
          </Trackpoint>
          <Trackpoint>
            <Time>2021-04-03T13:29:46.000Z</Time>
            <Position>
              <LatitudeDegrees>42.31838182546198368072509765625</LatitudeDegrees>
              <LongitudeDegrees>2.48178706504404544830322265625</LongitudeDegrees>
            </Position>
            <AltitudeMeters>530.79998779296875</AltitudeMeters>
            <DistanceMeters>NAN</DistanceMeters>
          </Trackpoint>
          <Trackpoint>
            <Time>2021-04-03T13:29:47.000Z</Time>
            <Position>
              <LatitudeDegrees>42.31839054264128208160400390625</LatitudeDegrees>
              <LongitudeDegrees>2.4817901663482189178466796875</LongitudeDegrees>
            </Position>
            <AltitudeMeters>531</AltitudeMeters>
            <DistanceMeters>NAN</DistanceMeters>
          </Trackpoint>
          <Trackpoint>
            <Time>2021-04-03T13:29:54.000Z</Time>
            <Position>
              <LatitudeDegrees>42.31846681796014308929443359375</LatitudeDegrees>
              <LongitudeDegrees>2.4818042479455471038818359375</LongitudeDegrees>
            </Position>
            <AltitudeMeters>531.79998779296875</AltitudeMeters>
            <DistanceMeters>NAN</DistanceMeters>
          </Trackpoint>
          <Trackpoint>
            <Time>2021-04-03T13:30:02.000Z</Time>
            <Position>
              <LatitudeDegrees>42.3185659758746623992919921875</LatitudeDegrees>
              <LongitudeDegrees>2.48187557794153690338134765625</LongitudeDegrees>
            </Position>
            <AltitudeMeters>532.4000244140625</AltitudeMeters>
            <DistanceMeters>NAN</DistanceMeters>
          </Trackpoint>
          <Trackpoint>
            <Time>2021-04-03T13:30:06.000Z</Time>
            <Position>
              <LatitudeDegrees>42.31860143132507801055908203125</LatitudeDegrees>
              <LongitudeDegrees>2.48191296122968196868896484375</LongitudeDegrees>
            </Position>
            <AltitudeMeters>532.79998779296875</AltitudeMeters>
            <DistanceMeters>NAN</DistanceMeters>
          </Trackpoint>
          <Trackpoint>
            <Time>2021-04-03T13:30:08.000Z</Time>
            <Position>
              <LatitudeDegrees>42.31861802749335765838623046875</LatitudeDegrees>
              <LongitudeDegrees>2.481931485235691070556640625</LongitudeDegrees>
            </Position>
            <AltitudeMeters>533.20001220703125</AltitudeMeters>
            <DistanceMeters>NAN</DistanceMeters>
          </Trackpoint>
          <Trackpoint>
            <Time>2021-04-03T13:30:10.000Z</Time>
            <Position>
              <LatitudeDegrees>42.31862808577716350555419921875</LatitudeDegrees>
              <LongitudeDegrees>2.481938190758228302001953125</LongitudeDegrees>
            </Position>
            <AltitudeMeters>533.20001220703125</AltitudeMeters>
            <DistanceMeters>NAN</DistanceMeters>
          </Trackpoint>
          <Trackpoint>
            <Time>2021-04-03T13:30:11.000Z</Time>
            <Position>
              <LatitudeDegrees>42.31863386929035186767578125</LatitudeDegrees>
              <LongitudeDegrees>2.4819432199001312255859375</LongitudeDegrees>
            </Position>
            <AltitudeMeters>533.20001220703125</AltitudeMeters>
            <DistanceMeters>NAN</DistanceMeters>
          </Trackpoint>
          <Trackpoint>
            <Time>2021-04-03T13:30:13.000Z</Time>
            <Position>
              <LatitudeDegrees>42.3186533153057098388671875</LatitudeDegrees>
              <LongitudeDegrees>2.4819604866206645965576171875</LongitudeDegrees>
            </Position>
            <AltitudeMeters>533.4000244140625</AltitudeMeters>
            <DistanceMeters>NAN</DistanceMeters>
          </Trackpoint>
          <Trackpoint>
            <Time>2021-04-03T13:30:18.000Z</Time>
            <Position>
              <LatitudeDegrees>42.3186980746686458587646484375</LatitudeDegrees>
              <LongitudeDegrees>2.4819960258901119232177734375</LongitudeDegrees>
            </Position>
            <AltitudeMeters>533.5999755859375</AltitudeMeters>
            <DistanceMeters>NAN</DistanceMeters>
          </Trackpoint>
          <Trackpoint>
            <Time>2021-04-03T13:30:25.000Z</Time>
            <Position>
              <LatitudeDegrees>42.31876261532306671142578125</LatitudeDegrees>
              <LongitudeDegrees>2.48203583993017673492431640625</LongitudeDegrees>
            </Position>
            <AltitudeMeters>533.5999755859375</AltitudeMeters>
            <DistanceMeters>NAN</DistanceMeters>
          </Trackpoint>
          <Trackpoint>
            <Time>2021-04-03T13:30:29.000Z</Time>
            <Position>
              <LatitudeDegrees>42.318807207047939300537109375</LatitudeDegrees>
              <LongitudeDegrees>2.48204740695655345916748046875</LongitudeDegrees>
            </Position>
            <AltitudeMeters>533.79998779296875</AltitudeMeters>
            <DistanceMeters>NAN</DistanceMeters>
          </Trackpoint>
          <Trackpoint>
            <Time>2021-04-03T13:30:36.000Z</Time>
            <Position>
              <LatitudeDegrees>42.31888867914676666259765625</LatitudeDegrees>
              <LongitudeDegrees>2.482054531574249267578125</LongitudeDegrees>
            </Position>
            <AltitudeMeters>533.79998779296875</AltitudeMeters>
            <DistanceMeters>NAN</DistanceMeters>
          </Trackpoint>
          <Trackpoint>
            <Time>2021-04-03T13:30:38.000Z</Time>
            <Position>
              <LatitudeDegrees>42.31889731250703334808349609375</LatitudeDegrees>
              <LongitudeDegrees>2.48204992152750492095947265625</LongitudeDegrees>
            </Position>
            <AltitudeMeters>534</AltitudeMeters>
            <DistanceMeters>NAN</DistanceMeters>
          </Trackpoint>
          <Trackpoint>
            <Time>2021-04-03T13:30:40.000Z</Time>
            <Position>
              <LatitudeDegrees>42.318907119333744049072265625</LatitudeDegrees>
              <LongitudeDegrees>2.48204790987074375152587890625</LongitudeDegrees>
            </Position>
            <AltitudeMeters>534</AltitudeMeters>
            <DistanceMeters>NAN</DistanceMeters>
          </Trackpoint>
          <Trackpoint>
            <Time>2021-04-03T13:30:41.000Z</Time>
            <Position>
              <LatitudeDegrees>42.31891357339918613433837890625</LatitudeDegrees>
              <LongitudeDegrees>2.4820451438426971435546875</LongitudeDegrees>
            </Position>
            <AltitudeMeters>534</AltitudeMeters>
            <DistanceMeters>NAN</DistanceMeters>
          </Trackpoint>
          <Trackpoint>
            <Time>2021-04-03T13:30:48.000Z</Time>
            <Position>
              <LatitudeDegrees>42.3189870826900005340576171875</LatitudeDegrees>
              <LongitudeDegrees>2.48200952075421810150146484375</LongitudeDegrees>
            </Position>
            <AltitudeMeters>534.4000244140625</AltitudeMeters>
            <DistanceMeters>NAN</DistanceMeters>
          </Trackpoint>
          <Trackpoint>
            <Time>2021-04-03T13:30:50.000Z</Time>
            <Position>
              <LatitudeDegrees>42.319011725485324859619140625</LatitudeDegrees>
              <LongitudeDegrees>2.48200348578393459320068359375</LongitudeDegrees>
            </Position>
            <AltitudeMeters>534.4000244140625</AltitudeMeters>
            <DistanceMeters>NAN</DistanceMeters>
          </Trackpoint>
          <Trackpoint>
            <Time>2021-04-03T13:30:56.000Z</Time>
            <Position>
              <LatitudeDegrees>42.31907668523490428924560546875</LatitudeDegrees>
              <LongitudeDegrees>2.4819943495094776153564453125</LongitudeDegrees>
            </Position>
            <AltitudeMeters>534.5999755859375</AltitudeMeters>
            <DistanceMeters>NAN</DistanceMeters>
          </Trackpoint>
          <Trackpoint>
            <Time>2021-04-03T13:31:00.000Z</Time>
            <Position>
              <LatitudeDegrees>42.319102250039577484130859375</LatitudeDegrees>
              <LongitudeDegrees>2.4819658510386943817138671875</LongitudeDegrees>
            </Position>
            <AltitudeMeters>535</AltitudeMeters>
            <DistanceMeters>NAN</DistanceMeters>
          </Trackpoint>
          <Trackpoint>
            <Time>2021-04-03T13:31:02.000Z</Time>
            <Position>
              <LatitudeDegrees>42.3190931975841522216796875</LatitudeDegrees>
              <LongitudeDegrees>2.4819574691355228424072265625</LongitudeDegrees>
            </Position>
            <AltitudeMeters>534.79998779296875</AltitudeMeters>
            <DistanceMeters>NAN</DistanceMeters>
          </Trackpoint>
          <Trackpoint>
            <Time>2021-04-03T13:31:04.000Z</Time>
            <Position>
              <LatitudeDegrees>42.31910585425794124603271484375</LatitudeDegrees>
              <LongitudeDegrees>2.48195604421198368072509765625</LongitudeDegrees>
            </Position>
            <AltitudeMeters>534.79998779296875</AltitudeMeters>
            <DistanceMeters>NAN</DistanceMeters>
          </Trackpoint>
          <Trackpoint>
            <Time>2021-04-03T13:31:06.000Z</Time>
            <Position>
              <LatitudeDegrees>42.31913167051970958709716796875</LatitudeDegrees>
              <LongitudeDegrees>2.48195101507008075714111328125</LongitudeDegrees>
            </Position>
            <AltitudeMeters>534.5999755859375</AltitudeMeters>
            <DistanceMeters>NAN</DistanceMeters>
          </Trackpoint>
          <Trackpoint>
            <Time>2021-04-03T13:31:09.000Z</Time>
            <Position>
              <LatitudeDegrees>42.3191620968282222747802734375</LatitudeDegrees>
              <LongitudeDegrees>2.48194615356624126434326171875</LongitudeDegrees>
            </Position>
            <AltitudeMeters>535</AltitudeMeters>
            <DistanceMeters>NAN</DistanceMeters>
          </Trackpoint>
          <Trackpoint>
            <Time>2021-04-03T13:31:12.000Z</Time>
            <Position>
              <LatitudeDegrees>42.31919352896511554718017578125</LatitudeDegrees>
              <LongitudeDegrees>2.48193911276757717132568359375</LongitudeDegrees>
            </Position>
            <AltitudeMeters>535</AltitudeMeters>
            <DistanceMeters>NAN</DistanceMeters>
          </Trackpoint>
          <Trackpoint>
            <Time>2021-04-03T13:31:16.000Z</Time>
            <Position>
              <LatitudeDegrees>42.31922286562621593475341796875</LatitudeDegrees>
              <LongitudeDegrees>2.4819229356944561004638671875</LongitudeDegrees>
            </Position>
            <AltitudeMeters>535</AltitudeMeters>
            <DistanceMeters>NAN</DistanceMeters>
          </Trackpoint>
          <Trackpoint>
            <Time>2021-04-03T13:31:23.000Z</Time>
            <Position>
              <LatitudeDegrees>42.3192724026739597320556640625</LatitudeDegrees>
              <LongitudeDegrees>2.4818317405879497528076171875</LongitudeDegrees>
            </Position>
            <AltitudeMeters>534.79998779296875</AltitudeMeters>
            <DistanceMeters>NAN</DistanceMeters>
          </Trackpoint>
          <Trackpoint>
            <Time>2021-04-03T13:31:29.000Z</Time>
            <Position>
              <LatitudeDegrees>42.31931305490434169769287109375</LatitudeDegrees>
              <LongitudeDegrees>2.48176946304738521575927734375</LongitudeDegrees>
            </Position>
            <AltitudeMeters>534.79998779296875</AltitudeMeters>
            <DistanceMeters>NAN</DistanceMeters>
          </Trackpoint>
          <Trackpoint>
            <Time>2021-04-03T13:31:30.000Z</Time>
            <Position>
              <LatitudeDegrees>42.31932051479816436767578125</LatitudeDegrees>
              <LongitudeDegrees>2.48176426626741886138916015625</LongitudeDegrees>
            </Position>
            <AltitudeMeters>534.79998779296875</AltitudeMeters>
            <DistanceMeters>NAN</DistanceMeters>
          </Trackpoint>
          <Trackpoint>
            <Time>2021-04-03T13:31:37.000Z</Time>
            <Position>
              <LatitudeDegrees>42.3193827085196971893310546875</LatitudeDegrees>
              <LongitudeDegrees>2.4817381985485553741455078125</LongitudeDegrees>
            </Position>
            <AltitudeMeters>534.79998779296875</AltitudeMeters>
            <DistanceMeters>NAN</DistanceMeters>
          </Trackpoint>
          <Trackpoint>
            <Time>2021-04-03T13:31:40.000Z</Time>
            <Position>
              <LatitudeDegrees>42.31940592639148235321044921875</LatitudeDegrees>
              <LongitudeDegrees>2.48172068037092685699462890625</LongitudeDegrees>
            </Position>
            <AltitudeMeters>535</AltitudeMeters>
            <DistanceMeters>NAN</DistanceMeters>
          </Trackpoint>
          <Trackpoint>
            <Time>2021-04-03T13:31:47.000Z</Time>
            <Position>
              <LatitudeDegrees>42.319473735988140106201171875</LatitudeDegrees>
              <LongitudeDegrees>2.4816875718533992767333984375</LongitudeDegrees>
            </Position>
            <AltitudeMeters>535.4000244140625</AltitudeMeters>
            <DistanceMeters>NAN</DistanceMeters>
          </Trackpoint>
          <Trackpoint>
            <Time>2021-04-03T13:31:50.000Z</Time>
            <Position>
              <LatitudeDegrees>42.31950131244957447052001953125</LatitudeDegrees>
              <LongitudeDegrees>2.48167256824672222137451171875</LongitudeDegrees>
            </Position>
            <AltitudeMeters>535.79998779296875</AltitudeMeters>
            <DistanceMeters>NAN</DistanceMeters>
          </Trackpoint>
          <Trackpoint>
            <Time>2021-04-03T13:31:52.000Z</Time>
            <Position>
              <LatitudeDegrees>42.3195184953510761260986328125</LatitudeDegrees>
              <LongitudeDegrees>2.48164859600365161895751953125</LongitudeDegrees>
            </Position>
            <AltitudeMeters>535.79998779296875</AltitudeMeters>
            <DistanceMeters>NAN</DistanceMeters>
          </Trackpoint>
          <Trackpoint>
            <Time>2021-04-03T13:31:54.000Z</Time>
            <Position>
              <LatitudeDegrees>42.31954045593738555908203125</LatitudeDegrees>
              <LongitudeDegrees>2.48163250274956226348876953125</LongitudeDegrees>
            </Position>
            <AltitudeMeters>535.79998779296875</AltitudeMeters>
            <DistanceMeters>NAN</DistanceMeters>
          </Trackpoint>
          <Trackpoint>
            <Time>2021-04-03T13:31:55.000Z</Time>
            <Position>
              <LatitudeDegrees>42.31954506598412990570068359375</LatitudeDegrees>
              <LongitudeDegrees>2.4816215224564075469970703125</LongitudeDegrees>
            </Position>
            <AltitudeMeters>536</AltitudeMeters>
            <DistanceMeters>NAN</DistanceMeters>
          </Trackpoint>
          <Trackpoint>
            <Time>2021-04-03T13:32:02.000Z</Time>
            <Position>
              <LatitudeDegrees>42.3196013085544109344482421875</LatitudeDegrees>
              <LongitudeDegrees>2.48155371285974979400634765625</LongitudeDegrees>
            </Position>
            <AltitudeMeters>536.20001220703125</AltitudeMeters>
            <DistanceMeters>NAN</DistanceMeters>
          </Trackpoint>
          <Trackpoint>
            <Time>2021-04-03T13:32:03.000Z</Time>
            <Position>
              <LatitudeDegrees>42.3196153901517391204833984375</LatitudeDegrees>
              <LongitudeDegrees>2.4815434031188488006591796875</LongitudeDegrees>
            </Position>
            <AltitudeMeters>536.20001220703125</AltitudeMeters>
            <DistanceMeters>NAN</DistanceMeters>
          </Trackpoint>
          <Trackpoint>
            <Time>2021-04-03T13:32:08.000Z</Time>
            <Position>
              <LatitudeDegrees>42.319652102887630462646484375</LatitudeDegrees>
              <LongitudeDegrees>2.48152144253253936767578125</LongitudeDegrees>
            </Position>
            <AltitudeMeters>536.4000244140625</AltitudeMeters>
            <DistanceMeters>NAN</DistanceMeters>
          </Trackpoint>
          <Trackpoint>
            <Time>2021-04-03T13:32:13.000Z</Time>
            <Position>
              <LatitudeDegrees>42.31969325803220272064208984375</LatitudeDegrees>
              <LongitudeDegrees>2.48150560073554515838623046875</LongitudeDegrees>
            </Position>
            <AltitudeMeters>536.79998779296875</AltitudeMeters>
            <DistanceMeters>NAN</DistanceMeters>
          </Trackpoint>
          <Trackpoint>
            <Time>2021-04-03T13:32:16.000Z</Time>
            <Position>
              <LatitudeDegrees>42.31971748173236846923828125</LatitudeDegrees>
              <LongitudeDegrees>2.4814890883862972259521484375</LongitudeDegrees>
            </Position>
            <AltitudeMeters>537</AltitudeMeters>
            <DistanceMeters>NAN</DistanceMeters>
          </Trackpoint>
          <Trackpoint>
            <Time>2021-04-03T13:32:22.000Z</Time>
            <Position>
              <LatitudeDegrees>42.31976182200014591217041015625</LatitudeDegrees>
              <LongitudeDegrees>2.4814443290233612060546875</LongitudeDegrees>
            </Position>
            <AltitudeMeters>537.5999755859375</AltitudeMeters>
            <DistanceMeters>NAN</DistanceMeters>
          </Trackpoint>
          <Trackpoint>
            <Time>2021-04-03T13:32:27.000Z</Time>
            <Position>
              <LatitudeDegrees>42.31980272568762302398681640625</LatitudeDegrees>
              <LongitudeDegrees>2.48142848722636699676513671875</LongitudeDegrees>
            </Position>
            <AltitudeMeters>538</AltitudeMeters>
            <DistanceMeters>NAN</DistanceMeters>
          </Trackpoint>
          <Trackpoint>
            <Time>2021-04-03T13:32:28.000Z</Time>
            <Position>
              <LatitudeDegrees>42.319805324077606201171875</LatitudeDegrees>
              <LongitudeDegrees>2.48142228461802005767822265625</LongitudeDegrees>
            </Position>
            <AltitudeMeters>538</AltitudeMeters>
            <DistanceMeters>NAN</DistanceMeters>
          </Trackpoint>
          <Trackpoint>
            <Time>2021-04-03T13:32:30.000Z</Time>
            <Position>
              <LatitudeDegrees>42.31980658136308193206787109375</LatitudeDegrees>
              <LongitudeDegrees>2.4814082868397235870361328125</LongitudeDegrees>
            </Position>
            <AltitudeMeters>538</AltitudeMeters>
            <DistanceMeters>NAN</DistanceMeters>
          </Trackpoint>
          <Trackpoint>
            <Time>2021-04-03T13:32:33.000Z</Time>
            <Position>
              <LatitudeDegrees>42.3198296315968036651611328125</LatitudeDegrees>
              <LongitudeDegrees>2.48139680363237857818603515625</LongitudeDegrees>
            </Position>
            <AltitudeMeters>538.20001220703125</AltitudeMeters>
            <DistanceMeters>NAN</DistanceMeters>
          </Trackpoint>
          <Trackpoint>
            <Time>2021-04-03T13:32:34.000Z</Time>
            <Position>
              <LatitudeDegrees>42.31983424164354801177978515625</LatitudeDegrees>
              <LongitudeDegrees>2.4813901819288730621337890625</LongitudeDegrees>
            </Position>
            <AltitudeMeters>538.20001220703125</AltitudeMeters>
            <DistanceMeters>NAN</DistanceMeters>
          </Trackpoint>
          <Trackpoint>
            <Time>2021-04-03T13:32:37.000Z</Time>
            <Position>
              <LatitudeDegrees>42.31984463520348072052001953125</LatitudeDegrees>
              <LongitudeDegrees>2.4813496135175228118896484375</LongitudeDegrees>
            </Position>
            <AltitudeMeters>538.4000244140625</AltitudeMeters>
            <DistanceMeters>NAN</DistanceMeters>
          </Trackpoint>
          <Trackpoint>
            <Time>2021-04-03T13:32:40.000Z</Time>
            <Position>
              <LatitudeDegrees>42.31986341066658496856689453125</LatitudeDegrees>
              <LongitudeDegrees>2.48131801374256610870361328125</LongitudeDegrees>
            </Position>
            <AltitudeMeters>538.4000244140625</AltitudeMeters>
            <DistanceMeters>NAN</DistanceMeters>
          </Trackpoint>
          <Trackpoint>
            <Time>2021-04-03T13:32:41.000Z</Time>
            <Position>
              <LatitudeDegrees>42.31986592523753643035888671875</LatitudeDegrees>
              <LongitudeDegrees>2.4812939576804637908935546875</LongitudeDegrees>
            </Position>
            <AltitudeMeters>538.4000244140625</AltitudeMeters>
            <DistanceMeters>NAN</DistanceMeters>
          </Trackpoint>
          <Trackpoint>
            <Time>2021-04-03T13:32:46.000Z</Time>
            <Position>
              <LatitudeDegrees>42.31988889165222644805908203125</LatitudeDegrees>
              <LongitudeDegrees>2.48125565238296985626220703125</LongitudeDegrees>
            </Position>
            <AltitudeMeters>538.5999755859375</AltitudeMeters>
            <DistanceMeters>NAN</DistanceMeters>
          </Trackpoint>
          <Trackpoint>
            <Time>2021-04-03T13:32:49.000Z</Time>
            <Position>
              <LatitudeDegrees>42.31990934349596500396728515625</LatitudeDegrees>
              <LongitudeDegrees>2.48123444616794586181640625</LongitudeDegrees>
            </Position>
            <AltitudeMeters>538.79998779296875</AltitudeMeters>
            <DistanceMeters>NAN</DistanceMeters>
          </Trackpoint>
          <Trackpoint>
            <Time>2021-04-03T13:32:52.000Z</Time>
            <Position>
              <LatitudeDegrees>42.31992627494037151336669921875</LatitudeDegrees>
              <LongitudeDegrees>2.48122933320701122283935546875</LongitudeDegrees>
            </Position>
            <AltitudeMeters>538.79998779296875</AltitudeMeters>
            <DistanceMeters>NAN</DistanceMeters>
          </Trackpoint>
          <Trackpoint>
            <Time>2021-04-03T13:32:55.000Z</Time>
            <Position>
              <LatitudeDegrees>42.31995292939245700836181640625</LatitudeDegrees>
              <LongitudeDegrees>2.4812329374253749847412109375</LongitudeDegrees>
            </Position>
            <AltitudeMeters>539</AltitudeMeters>
            <DistanceMeters>NAN</DistanceMeters>
          </Trackpoint>
          <Trackpoint>
            <Time>2021-04-03T13:32:58.000Z</Time>
            <Position>
              <LatitudeDegrees>42.31996290385723114013671875</LatitudeDegrees>
              <LongitudeDegrees>2.481213994324207305908203125</LongitudeDegrees>
            </Position>
            <AltitudeMeters>539</AltitudeMeters>
            <DistanceMeters>NAN</DistanceMeters>
          </Trackpoint>
          <Trackpoint>
            <Time>2021-04-03T13:32:59.000Z</Time>
            <Position>
              <LatitudeDegrees>42.31996499933302402496337890625</LatitudeDegrees>
              <LongitudeDegrees>2.48120888136327266693115234375</LongitudeDegrees>
            </Position>
            <AltitudeMeters>539.20001220703125</AltitudeMeters>
            <DistanceMeters>NAN</DistanceMeters>
          </Trackpoint>
          <Trackpoint>
            <Time>2021-04-03T13:33:03.000Z</Time>
            <Position>
              <LatitudeDegrees>42.32000447809696197509765625</LatitudeDegrees>
              <LongitudeDegrees>2.48121558688580989837646484375</LongitudeDegrees>
            </Position>
            <AltitudeMeters>539.4000244140625</AltitudeMeters>
            <DistanceMeters>NAN</DistanceMeters>
          </Trackpoint>
          <Trackpoint>
            <Time>2021-04-03T13:33:05.000Z</Time>
            <Position>
              <LatitudeDegrees>42.32003264129161834716796875</LatitudeDegrees>
              <LongitudeDegrees>2.4812372960150241851806640625</LongitudeDegrees>
            </Position>
            <AltitudeMeters>539.79998779296875</AltitudeMeters>
            <DistanceMeters>NAN</DistanceMeters>
          </Trackpoint>
          <Trackpoint>
            <Time>2021-04-03T13:33:06.000Z</Time>
            <Position>
              <LatitudeDegrees>42.32004362158477306365966796875</LatitudeDegrees>
              <LongitudeDegrees>2.4812463484704494476318359375</LongitudeDegrees>
            </Position>
            <AltitudeMeters>540</AltitudeMeters>
            <DistanceMeters>NAN</DistanceMeters>
          </Trackpoint>
          <Trackpoint>
            <Time>2021-04-03T13:33:07.000Z</Time>
            <Position>
              <LatitudeDegrees>42.32005451805889606475830078125</LatitudeDegrees>
              <LongitudeDegrees>2.4812533892691135406494140625</LongitudeDegrees>
            </Position>
            <AltitudeMeters>540</AltitudeMeters>
            <DistanceMeters>NAN</DistanceMeters>
          </Trackpoint>
          <Trackpoint>
            <Time>2021-04-03T13:33:10.000Z</Time>
            <Position>
              <LatitudeDegrees>42.320075891911983489990234375</LatitudeDegrees>
              <LongitudeDegrees>2.48125682584941387176513671875</LongitudeDegrees>
            </Position>
            <AltitudeMeters>540.20001220703125</AltitudeMeters>
            <DistanceMeters>NAN</DistanceMeters>
          </Trackpoint>
          <Trackpoint>
            <Time>2021-04-03T13:33:13.000Z</Time>
            <Position>
              <LatitudeDegrees>42.32009232044219970703125</LatitudeDegrees>
              <LongitudeDegrees>2.4812587536871433258056640625</LongitudeDegrees>
            </Position>
            <AltitudeMeters>540.4000244140625</AltitudeMeters>
            <DistanceMeters>NAN</DistanceMeters>
          </Trackpoint>
          <Trackpoint>
            <Time>2021-04-03T13:33:14.000Z</Time>
            <Position>
              <LatitudeDegrees>42.3200981877744197845458984375</LatitudeDegrees>
              <LongitudeDegrees>2.481258250772953033447265625</LongitudeDegrees>
            </Position>
            <AltitudeMeters>540.4000244140625</AltitudeMeters>
            <DistanceMeters>NAN</DistanceMeters>
          </Trackpoint>
          <Trackpoint>
            <Time>2021-04-03T13:33:15.000Z</Time>
            <Position>
              <LatitudeDegrees>42.32010397128760814666748046875</LatitudeDegrees>
              <LongitudeDegrees>2.481257580220699310302734375</LongitudeDegrees>
            </Position>
            <AltitudeMeters>540.4000244140625</AltitudeMeters>
            <DistanceMeters>NAN</DistanceMeters>
          </Trackpoint>
          <Trackpoint>
            <Time>2021-04-03T13:33:19.000Z</Time>
            <Position>
              <LatitudeDegrees>42.320140264928340911865234375</LatitudeDegrees>
              <LongitudeDegrees>2.48125816695392131805419921875</LongitudeDegrees>
            </Position>
            <AltitudeMeters>540.4000244140625</AltitudeMeters>
            <DistanceMeters>NAN</DistanceMeters>
          </Trackpoint>
          <Trackpoint>
            <Time>2021-04-03T13:33:21.000Z</Time>
            <Position>
              <LatitudeDegrees>42.3201689310371875762939453125</LatitudeDegrees>
              <LongitudeDegrees>2.4812686443328857421875</LongitudeDegrees>
            </Position>
            <AltitudeMeters>540.4000244140625</AltitudeMeters>
            <DistanceMeters>NAN</DistanceMeters>
          </Trackpoint>
          <Trackpoint>
            <Time>2021-04-03T13:33:22.000Z</Time>
            <Position>
              <LatitudeDegrees>42.32017605565488338470458984375</LatitudeDegrees>
              <LongitudeDegrees>2.48126990161836147308349609375</LongitudeDegrees>
            </Position>
            <AltitudeMeters>540.4000244140625</AltitudeMeters>
            <DistanceMeters>NAN</DistanceMeters>
          </Trackpoint>
          <Trackpoint>
            <Time>2021-04-03T13:33:29.000Z</Time>
            <Position>
              <LatitudeDegrees>42.32023808173835277557373046875</LatitudeDegrees>
              <LongitudeDegrees>2.48130979947745800018310546875</LongitudeDegrees>
            </Position>
            <AltitudeMeters>540.79998779296875</AltitudeMeters>
            <DistanceMeters>NAN</DistanceMeters>
          </Trackpoint>
          <Trackpoint>
            <Time>2021-04-03T13:33:34.000Z</Time>
            <Position>
              <LatitudeDegrees>42.32030547223985195159912109375</LatitudeDegrees>
              <LongitudeDegrees>2.48131734319031238555908203125</LongitudeDegrees>
            </Position>
            <AltitudeMeters>540.79998779296875</AltitudeMeters>
            <DistanceMeters>NAN</DistanceMeters>
          </Trackpoint>
          <Trackpoint>
            <Time>2021-04-03T13:33:39.000Z</Time>
            <Position>
              <LatitudeDegrees>42.3203198052942752838134765625</LatitudeDegrees>
              <LongitudeDegrees>2.48130912892520427703857421875</LongitudeDegrees>
            </Position>
            <AltitudeMeters>540.79998779296875</AltitudeMeters>
            <DistanceMeters>NAN</DistanceMeters>
          </Trackpoint>
          <Trackpoint>
            <Time>2021-04-03T13:33:41.000Z</Time>
            <Position>
              <LatitudeDegrees>42.32031821273267269134521484375</LatitudeDegrees>
              <LongitudeDegrees>2.48130745254456996917724609375</LongitudeDegrees>
            </Position>
            <AltitudeMeters>540.79998779296875</AltitudeMeters>
            <DistanceMeters>NAN</DistanceMeters>
          </Trackpoint>
          <Trackpoint>
            <Time>2021-04-03T13:33:48.000Z</Time>
            <Position>
              <LatitudeDegrees>42.32029591687023639678955078125</LatitudeDegrees>
              <LongitudeDegrees>2.481275014579296112060546875</LongitudeDegrees>
            </Position>
            <AltitudeMeters>540.79998779296875</AltitudeMeters>
            <DistanceMeters>NAN</DistanceMeters>
          </Trackpoint>
          <Trackpoint>
            <Time>2021-04-03T13:33:53.000Z</Time>
            <Position>
              <LatitudeDegrees>42.3202879540622234344482421875</LatitudeDegrees>
              <LongitudeDegrees>2.48131583444774150848388671875</LongitudeDegrees>
            </Position>
            <AltitudeMeters>540.5999755859375</AltitudeMeters>
            <DistanceMeters>NAN</DistanceMeters>
          </Trackpoint>
          <Trackpoint>
            <Time>2021-04-03T13:33:55.000Z</Time>
            <Position>
              <LatitudeDegrees>42.3202879540622234344482421875</LatitudeDegrees>
              <LongitudeDegrees>2.48131583444774150848388671875</LongitudeDegrees>
            </Position>
            <AltitudeMeters>540.5999755859375</AltitudeMeters>
            <DistanceMeters>NAN</DistanceMeters>
          </Trackpoint>
          <Trackpoint>
            <Time>2021-04-03T13:33:58.000Z</Time>
            <Position>
              <LatitudeDegrees>42.3202879540622234344482421875</LatitudeDegrees>
              <LongitudeDegrees>2.48131583444774150848388671875</LongitudeDegrees>
            </Position>
            <AltitudeMeters>540.79998779296875</AltitudeMeters>
            <DistanceMeters>NAN</DistanceMeters>
          </Trackpoint>
          <Trackpoint>
            <Time>2021-04-03T13:34:02.000Z</Time>
            <Position>
              <LatitudeDegrees>42.3202879540622234344482421875</LatitudeDegrees>
              <LongitudeDegrees>2.48131583444774150848388671875</LongitudeDegrees>
            </Position>
            <AltitudeMeters>541</AltitudeMeters>
            <DistanceMeters>NAN</DistanceMeters>
          </Trackpoint>
          <Trackpoint>
            <Time>2021-04-03T13:34:05.000Z</Time>
            <Position>
              <LatitudeDegrees>42.32029055245220661163330078125</LatitudeDegrees>
              <LongitudeDegrees>2.48131583444774150848388671875</LongitudeDegrees>
            </Position>
            <AltitudeMeters>541</AltitudeMeters>
            <DistanceMeters>NAN</DistanceMeters>
          </Trackpoint>
          <Trackpoint>
            <Time>2021-04-03T13:34:10.000Z</Time>
            <Position>
              <LatitudeDegrees>42.32027781195938587188720703125</LatitudeDegrees>
              <LongitudeDegrees>2.48131533153355121612548828125</LongitudeDegrees>
            </Position>
            <AltitudeMeters>541</AltitudeMeters>
            <DistanceMeters>NAN</DistanceMeters>
          </Trackpoint>
          <Trackpoint>
            <Time>2021-04-03T13:34:15.000Z</Time>
            <Position>
              <LatitudeDegrees>42.3202554322779178619384765625</LatitudeDegrees>
              <LongitudeDegrees>2.481315247714519500732421875</LongitudeDegrees>
            </Position>
            <AltitudeMeters>541.4000244140625</AltitudeMeters>
            <DistanceMeters>NAN</DistanceMeters>
          </Trackpoint>
          <Trackpoint>
            <Time>2021-04-03T13:34:22.000Z</Time>
            <Position>
              <LatitudeDegrees>42.3202680051326751708984375</LatitudeDegrees>
              <LongitudeDegrees>2.4813519604504108428955078125</LongitudeDegrees>
            </Position>
            <AltitudeMeters>541.4000244140625</AltitudeMeters>
            <DistanceMeters>NAN</DistanceMeters>
          </Trackpoint>
          <Trackpoint>
            <Time>2021-04-03T13:34:26.000Z</Time>
            <Position>
              <LatitudeDegrees>42.320270352065563201904296875</LatitudeDegrees>
              <LongitudeDegrees>2.48140468262135982513427734375</LongitudeDegrees>
            </Position>
            <AltitudeMeters>541.4000244140625</AltitudeMeters>
            <DistanceMeters>NAN</DistanceMeters>
          </Trackpoint>
          <Trackpoint>
            <Time>2021-04-03T13:34:29.000Z</Time>
            <Position>
              <LatitudeDegrees>42.3202792368829250335693359375</LatitudeDegrees>
              <LongitudeDegrees>2.4814300797879695892333984375</LongitudeDegrees>
            </Position>
            <AltitudeMeters>541.4000244140625</AltitudeMeters>
            <DistanceMeters>NAN</DistanceMeters>
          </Trackpoint>
          <Trackpoint>
            <Time>2021-04-03T13:34:36.000Z</Time>
            <Position>
              <LatitudeDegrees>42.3203241638839244842529296875</LatitudeDegrees>
              <LongitudeDegrees>2.481476850807666778564453125</LongitudeDegrees>
            </Position>
            <AltitudeMeters>541.20001220703125</AltitudeMeters>
            <DistanceMeters>NAN</DistanceMeters>
          </Trackpoint>
          <Trackpoint>
            <Time>2021-04-03T13:34:42.000Z</Time>
            <Position>
              <LatitudeDegrees>42.32032123021781444549560546875</LatitudeDegrees>
              <LongitudeDegrees>2.48149252496659755706787109375</LongitudeDegrees>
            </Position>
            <AltitudeMeters>541.20001220703125</AltitudeMeters>
            <DistanceMeters>NAN</DistanceMeters>
          </Trackpoint>
          <Trackpoint>
            <Time>2021-04-03T13:34:48.000Z</Time>
            <Position>
              <LatitudeDegrees>42.320342771708965301513671875</LatitudeDegrees>
              <LongitudeDegrees>2.48147559352219104766845703125</LongitudeDegrees>
            </Position>
            <AltitudeMeters>541.20001220703125</AltitudeMeters>
            <DistanceMeters>NAN</DistanceMeters>
          </Trackpoint>
          <Trackpoint>
            <Time>2021-04-03T13:34:54.000Z</Time>
            <Position>
              <LatitudeDegrees>42.32038761489093303680419921875</LatitudeDegrees>
              <LongitudeDegrees>2.4814957939088344573974609375</LongitudeDegrees>
            </Position>
            <AltitudeMeters>541.20001220703125</AltitudeMeters>
            <DistanceMeters>NAN</DistanceMeters>
          </Trackpoint>
          <Trackpoint>
            <Time>2021-04-03T13:35:00.000Z</Time>
            <Position>
              <LatitudeDegrees>42.32043136842548847198486328125</LatitudeDegrees>
              <LongitudeDegrees>2.48147257603704929351806640625</LongitudeDegrees>
            </Position>
            <AltitudeMeters>541.20001220703125</AltitudeMeters>
            <DistanceMeters>NAN</DistanceMeters>
          </Trackpoint>
          <Trackpoint>
            <Time>2021-04-03T13:35:05.000Z</Time>
            <Position>
              <LatitudeDegrees>42.32044980861246585845947265625</LatitudeDegrees>
              <LongitudeDegrees>2.4814458377659320831298828125</LongitudeDegrees>
            </Position>
            <AltitudeMeters>541.20001220703125</AltitudeMeters>
            <DistanceMeters>NAN</DistanceMeters>
          </Trackpoint>
          <Trackpoint>
            <Time>2021-04-03T13:35:08.000Z</Time>
            <Position>
              <LatitudeDegrees>42.32045232318341732025146484375</LatitudeDegrees>
              <LongitudeDegrees>2.4814116396009922027587890625</LongitudeDegrees>
            </Position>
            <AltitudeMeters>541.20001220703125</AltitudeMeters>
            <DistanceMeters>NAN</DistanceMeters>
          </Trackpoint>
          <Trackpoint>
            <Time>2021-04-03T13:35:10.000Z</Time>
            <Position>
              <LatitudeDegrees>42.32045802287757396697998046875</LatitudeDegrees>
              <LongitudeDegrees>2.4813975580036640167236328125</LongitudeDegrees>
            </Position>
            <AltitudeMeters>541.20001220703125</AltitudeMeters>
            <DistanceMeters>NAN</DistanceMeters>
          </Trackpoint>
          <Trackpoint>
            <Time>2021-04-03T13:35:12.000Z</Time>
            <Position>
              <LatitudeDegrees>42.3204611241817474365234375</LatitudeDegrees>
              <LongitudeDegrees>2.48137769289314746856689453125</LongitudeDegrees>
            </Position>
            <AltitudeMeters>541.20001220703125</AltitudeMeters>
            <DistanceMeters>NAN</DistanceMeters>
          </Trackpoint>
          <Trackpoint>
            <Time>2021-04-03T13:35:15.000Z</Time>
            <Position>
              <LatitudeDegrees>42.32046305201947689056396484375</LatitudeDegrees>
              <LongitudeDegrees>2.48135724104940891265869140625</LongitudeDegrees>
            </Position>
            <AltitudeMeters>541.20001220703125</AltitudeMeters>
            <DistanceMeters>NAN</DistanceMeters>
          </Trackpoint>
          <Trackpoint>
            <Time>2021-04-03T13:35:17.000Z</Time>
            <Position>
              <LatitudeDegrees>42.32044746167957782745361328125</LatitudeDegrees>
              <LongitudeDegrees>2.4813459254801273345947265625</LongitudeDegrees>
            </Position>
            <AltitudeMeters>541.20001220703125</AltitudeMeters>
            <DistanceMeters>NAN</DistanceMeters>
          </Trackpoint>
          <Trackpoint>
            <Time>2021-04-03T13:35:18.000Z</Time>
            <Position>
              <LatitudeDegrees>42.32044176198542118072509765625</LatitudeDegrees>
              <LongitudeDegrees>2.481341063976287841796875</LongitudeDegrees>
            </Position>
            <AltitudeMeters>541.20001220703125</AltitudeMeters>
            <DistanceMeters>NAN</DistanceMeters>
          </Trackpoint>
          <Trackpoint>
            <Time>2021-04-03T13:35:19.000Z</Time>
            <Position>
              <LatitudeDegrees>42.32043187133967876434326171875</LatitudeDegrees>
              <LongitudeDegrees>2.48134165070950984954833984375</LongitudeDegrees>
            </Position>
            <AltitudeMeters>541.4000244140625</AltitudeMeters>
            <DistanceMeters>NAN</DistanceMeters>
          </Trackpoint>
          <Trackpoint>
            <Time>2021-04-03T13:35:20.000Z</Time>
            <Position>
              <LatitudeDegrees>42.32042030431330204010009765625</LatitudeDegrees>
              <LongitudeDegrees>2.48134600929915904998779296875</LongitudeDegrees>
            </Position>
            <AltitudeMeters>541.4000244140625</AltitudeMeters>
            <DistanceMeters>NAN</DistanceMeters>
          </Trackpoint>
          <Trackpoint>
            <Time>2021-04-03T13:35:21.000Z</Time>
            <Position>
              <LatitudeDegrees>42.32041418552398681640625</LatitudeDegrees>
              <LongitudeDegrees>2.4813450872898101806640625</LongitudeDegrees>
            </Position>
            <AltitudeMeters>541.4000244140625</AltitudeMeters>
            <DistanceMeters>NAN</DistanceMeters>
          </Trackpoint>
          <Trackpoint>
            <Time>2021-04-03T13:35:23.000Z</Time>
            <Position>
              <LatitudeDegrees>42.3204042948782444000244140625</LatitudeDegrees>
              <LongitudeDegrees>2.4813402257859706878662109375</LongitudeDegrees>
            </Position>
            <AltitudeMeters>541.5999755859375</AltitudeMeters>
            <DistanceMeters>NAN</DistanceMeters>
          </Trackpoint>
          <Trackpoint>
            <Time>2021-04-03T13:35:25.000Z</Time>
            <Position>
              <LatitudeDegrees>42.32040370814502239227294921875</LatitudeDegrees>
              <LongitudeDegrees>2.48130795545876026153564453125</LongitudeDegrees>
            </Position>
            <AltitudeMeters>541.79998779296875</AltitudeMeters>
            <DistanceMeters>NAN</DistanceMeters>
          </Trackpoint>
          <Trackpoint>
            <Time>2021-04-03T13:35:26.000Z</Time>
            <Position>
              <LatitudeDegrees>42.32040588743984699249267578125</LatitudeDegrees>
              <LongitudeDegrees>2.4812952987849712371826171875</LongitudeDegrees>
            </Position>
            <AltitudeMeters>541.79998779296875</AltitudeMeters>
            <DistanceMeters>NAN</DistanceMeters>
          </Trackpoint>
          <Trackpoint>
            <Time>2021-04-03T13:35:28.000Z</Time>
            <Position>
              <LatitudeDegrees>42.32040085829794406890869140625</LatitudeDegrees>
              <LongitudeDegrees>2.481281049549579620361328125</LongitudeDegrees>
            </Position>
            <AltitudeMeters>542</AltitudeMeters>
            <DistanceMeters>NAN</DistanceMeters>
          </Trackpoint>
          <Trackpoint>
            <Time>2021-04-03T13:35:34.000Z</Time>
            <Position>
              <LatitudeDegrees>42.32037537731230258941650390625</LatitudeDegrees>
              <LongitudeDegrees>2.481247521936893463134765625</LongitudeDegrees>
            </Position>
            <AltitudeMeters>542.79998779296875</AltitudeMeters>
            <DistanceMeters>NAN</DistanceMeters>
          </Trackpoint>
          <Trackpoint>
            <Time>2021-04-03T13:35:35.000Z</Time>
            <Position>
              <LatitudeDegrees>42.320374287664890289306640625</LatitudeDegrees>
              <LongitudeDegrees>2.4812383018434047698974609375</LongitudeDegrees>
            </Position>
            <AltitudeMeters>542.79998779296875</AltitudeMeters>
            <DistanceMeters>NAN</DistanceMeters>
          </Trackpoint>
          <Trackpoint>
            <Time>2021-04-03T13:35:38.000Z</Time>
            <Position>
              <LatitudeDegrees>42.3203798197209835052490234375</LatitudeDegrees>
              <LongitudeDegrees>2.48121659271419048309326171875</LongitudeDegrees>
            </Position>
            <AltitudeMeters>543</AltitudeMeters>
            <DistanceMeters>NAN</DistanceMeters>
          </Trackpoint>
          <Trackpoint>
            <Time>2021-04-03T13:35:39.000Z</Time>
            <Position>
              <LatitudeDegrees>42.32038266956806182861328125</LatitudeDegrees>
              <LongitudeDegrees>2.4812098033726215362548828125</LongitudeDegrees>
            </Position>
            <AltitudeMeters>543.20001220703125</AltitudeMeters>
            <DistanceMeters>NAN</DistanceMeters>
          </Trackpoint>
          <Trackpoint>
            <Time>2021-04-03T13:35:41.000Z</Time>
            <Position>
              <LatitudeDegrees>42.32038225047290325164794921875</LatitudeDegrees>
              <LongitudeDegrees>2.48120016418397426605224609375</LongitudeDegrees>
            </Position>
            <AltitudeMeters>543.5999755859375</AltitudeMeters>
            <DistanceMeters>NAN</DistanceMeters>
          </Trackpoint>
          <Trackpoint>
            <Time>2021-04-03T13:35:45.000Z</Time>
            <Position>
              <LatitudeDegrees>42.320392392575740814208984375</LatitudeDegrees>
              <LongitudeDegrees>2.4811709113419055938720703125</LongitudeDegrees>
            </Position>
            <AltitudeMeters>543.5999755859375</AltitudeMeters>
            <DistanceMeters>NAN</DistanceMeters>
          </Trackpoint>
          <Trackpoint>
            <Time>2021-04-03T13:35:46.000Z</Time>
            <Position>
              <LatitudeDegrees>42.32039733789861202239990234375</LatitudeDegrees>
              <LongitudeDegrees>2.4811628647148609161376953125</LongitudeDegrees>
            </Position>
            <AltitudeMeters>543.5999755859375</AltitudeMeters>
            <DistanceMeters>NAN</DistanceMeters>
          </Trackpoint>
          <Trackpoint>
            <Time>2021-04-03T13:35:53.000Z</Time>
            <Position>
              <LatitudeDegrees>42.320459783077239990234375</LatitudeDegrees>
              <LongitudeDegrees>2.4811370484530925750732421875</LongitudeDegrees>
            </Position>
            <AltitudeMeters>543.5999755859375</AltitudeMeters>
            <DistanceMeters>NAN</DistanceMeters>
          </Trackpoint>
          <Trackpoint>
            <Time>2021-04-03T13:35:59.000Z</Time>
            <Position>
              <LatitudeDegrees>42.320481240749359130859375</LatitudeDegrees>
              <LongitudeDegrees>2.48107695020735263824462890625</LongitudeDegrees>
            </Position>
            <AltitudeMeters>543.79998779296875</AltitudeMeters>
            <DistanceMeters>NAN</DistanceMeters>
          </Trackpoint>
          <Trackpoint>
            <Time>2021-04-03T13:36:01.000Z</Time>
            <Position>
              <LatitudeDegrees>42.32048886828124523162841796875</LatitudeDegrees>
              <LongitudeDegrees>2.4810606054961681365966796875</LongitudeDegrees>
            </Position>
            <AltitudeMeters>544</AltitudeMeters>
            <DistanceMeters>NAN</DistanceMeters>
          </Trackpoint>
          <Trackpoint>
            <Time>2021-04-03T13:36:04.000Z</Time>
            <Position>
              <LatitudeDegrees>42.32049607671797275543212890625</LatitudeDegrees>
              <LongitudeDegrees>2.4810274131596088409423828125</LongitudeDegrees>
            </Position>
            <AltitudeMeters>544.20001220703125</AltitudeMeters>
            <DistanceMeters>NAN</DistanceMeters>
          </Trackpoint>
          <Trackpoint>
            <Time>2021-04-03T13:36:05.000Z</Time>
            <Position>
              <LatitudeDegrees>42.3205025307834148406982421875</LatitudeDegrees>
              <LongitudeDegrees>2.4810166843235492706298828125</LongitudeDegrees>
            </Position>
            <AltitudeMeters>544.20001220703125</AltitudeMeters>
            <DistanceMeters>NAN</DistanceMeters>
          </Trackpoint>
          <Trackpoint>
            <Time>2021-04-03T13:36:10.000Z</Time>
            <Position>
              <LatitudeDegrees>42.32052910141646862030029296875</LatitudeDegrees>
              <LongitudeDegrees>2.48099011369049549102783203125</LongitudeDegrees>
            </Position>
            <AltitudeMeters>544.79998779296875</AltitudeMeters>
            <DistanceMeters>NAN</DistanceMeters>
          </Trackpoint>
          <Trackpoint>
            <Time>2021-04-03T13:36:13.000Z</Time>
            <Position>
              <LatitudeDegrees>42.3205380700528621673583984375</LatitudeDegrees>
              <LongitudeDegrees>2.4809630401432514190673828125</LongitudeDegrees>
            </Position>
            <AltitudeMeters>545</AltitudeMeters>
            <DistanceMeters>NAN</DistanceMeters>
          </Trackpoint>
          <Trackpoint>
            <Time>2021-04-03T13:36:19.000Z</Time>
            <Position>
              <LatitudeDegrees>42.3205389082431793212890625</LatitudeDegrees>
              <LongitudeDegrees>2.48094166629016399383544921875</LongitudeDegrees>
            </Position>
            <AltitudeMeters>544.79998779296875</AltitudeMeters>
            <DistanceMeters>NAN</DistanceMeters>
          </Trackpoint>
          <Trackpoint>
            <Time>2021-04-03T13:36:23.000Z</Time>
            <Position>
              <LatitudeDegrees>42.32057017274200916290283203125</LatitudeDegrees>
              <LongitudeDegrees>2.48093261383473873138427734375</LongitudeDegrees>
            </Position>
            <AltitudeMeters>544.79998779296875</AltitudeMeters>
            <DistanceMeters>NAN</DistanceMeters>
          </Trackpoint>
          <Trackpoint>
            <Time>2021-04-03T13:36:29.000Z</Time>
            <Position>
              <LatitudeDegrees>42.32057268731296062469482421875</LatitudeDegrees>
              <LongitudeDegrees>2.48093663714826107025146484375</LongitudeDegrees>
            </Position>
            <AltitudeMeters>545</AltitudeMeters>
            <DistanceMeters>NAN</DistanceMeters>
          </Trackpoint>
          <Trackpoint>
            <Time>2021-04-03T13:36:31.000Z</Time>
            <Position>
              <LatitudeDegrees>42.32056640088558197021484375</LatitudeDegrees>
              <LongitudeDegrees>2.48094451613724231719970703125</LongitudeDegrees>
            </Position>
            <AltitudeMeters>545</AltitudeMeters>
            <DistanceMeters>NAN</DistanceMeters>
          </Trackpoint>
          <Trackpoint>
            <Time>2021-04-03T13:36:36.000Z</Time>
            <Position>
              <LatitudeDegrees>42.3205565102398395538330078125</LatitudeDegrees>
              <LongitudeDegrees>2.4809687398374080657958984375</LongitudeDegrees>
            </Position>
            <AltitudeMeters>545.20001220703125</AltitudeMeters>
            <DistanceMeters>NAN</DistanceMeters>
          </Trackpoint>
          <Trackpoint>
            <Time>2021-04-03T13:36:41.000Z</Time>
            <Position>
              <LatitudeDegrees>42.3205937258899211883544921875</LatitudeDegrees>
              <LongitudeDegrees>2.48098910786211490631103515625</LongitudeDegrees>
            </Position>
            <AltitudeMeters>545.20001220703125</AltitudeMeters>
            <DistanceMeters>NAN</DistanceMeters>
          </Trackpoint>
          <Trackpoint>
            <Time>2021-04-03T13:36:50.000Z</Time>
            <Position>
              <LatitudeDegrees>42.32058425433933734893798828125</LatitudeDegrees>
              <LongitudeDegrees>2.48099707067012786865234375</LongitudeDegrees>
            </Position>
            <AltitudeMeters>545</AltitudeMeters>
            <DistanceMeters>NAN</DistanceMeters>
          </Trackpoint>
          <Trackpoint>
            <Time>2021-04-03T13:36:54.000Z</Time>
            <Position>
              <LatitudeDegrees>42.3205876909196376800537109375</LatitudeDegrees>
              <LongitudeDegrees>2.48103252612054347991943359375</LongitudeDegrees>
            </Position>
            <AltitudeMeters>544.79998779296875</AltitudeMeters>
            <DistanceMeters>NAN</DistanceMeters>
          </Trackpoint>
          <Trackpoint>
            <Time>2021-04-03T13:36:56.000Z</Time>
            <Position>
              <LatitudeDegrees>42.32060085050761699676513671875</LatitudeDegrees>
              <LongitudeDegrees>2.481027580797672271728515625</LongitudeDegrees>
            </Position>
            <AltitudeMeters>545</AltitudeMeters>
            <DistanceMeters>NAN</DistanceMeters>
          </Trackpoint>
          <Trackpoint>
            <Time>2021-04-03T13:36:58.000Z</Time>
            <Position>
              <LatitudeDegrees>42.32060604728758335113525390625</LatitudeDegrees>
              <LongitudeDegrees>2.48102464713156223297119140625</LongitudeDegrees>
            </Position>
            <AltitudeMeters>545</AltitudeMeters>
            <DistanceMeters>NAN</DistanceMeters>
          </Trackpoint>
          <Trackpoint>
            <Time>2021-04-03T13:37:00.000Z</Time>
            <Position>
              <LatitudeDegrees>42.3205920495092868804931640625</LatitudeDegrees>
              <LongitudeDegrees>2.4810232222080230712890625</LongitudeDegrees>
            </Position>
            <AltitudeMeters>545.20001220703125</AltitudeMeters>
            <DistanceMeters>NAN</DistanceMeters>
          </Trackpoint>
          <Trackpoint>
            <Time>2021-04-03T13:37:02.000Z</Time>
            <Position>
              <LatitudeDegrees>42.32058928348124027252197265625</LatitudeDegrees>
              <LongitudeDegrees>2.48102280311286449432373046875</LongitudeDegrees>
            </Position>
            <AltitudeMeters>545.20001220703125</AltitudeMeters>
            <DistanceMeters>NAN</DistanceMeters>
          </Trackpoint>
          <Trackpoint>
            <Time>2021-04-03T13:37:05.000Z</Time>
            <Position>
              <LatitudeDegrees>42.32059280388057231903076171875</LatitudeDegrees>
              <LongitudeDegrees>2.481035292148590087890625</LongitudeDegrees>
            </Position>
            <AltitudeMeters>545</AltitudeMeters>
            <DistanceMeters>NAN</DistanceMeters>
          </Trackpoint>
          <Trackpoint>
            <Time>2021-04-03T13:37:11.000Z</Time>
            <Position>
              <LatitudeDegrees>42.3205903731286525726318359375</LatitudeDegrees>
              <LongitudeDegrees>2.4810285866260528564453125</LongitudeDegrees>
            </Position>
            <AltitudeMeters>544.5999755859375</AltitudeMeters>
            <DistanceMeters>NAN</DistanceMeters>
          </Trackpoint>
          <Trackpoint>
            <Time>2021-04-03T13:37:18.000Z</Time>
            <Position>
              <LatitudeDegrees>42.3205903731286525726318359375</LatitudeDegrees>
              <LongitudeDegrees>2.4810285866260528564453125</LongitudeDegrees>
            </Position>
            <AltitudeMeters>544.5999755859375</AltitudeMeters>
            <DistanceMeters>NAN</DistanceMeters>
          </Trackpoint>
          <Trackpoint>
            <Time>2021-04-03T13:37:48.000Z</Time>
            <Position>
              <LatitudeDegrees>42.320580147206783294677734375</LatitudeDegrees>
              <LongitudeDegrees>2.48103286139667034149169921875</LongitudeDegrees>
            </Position>
            <AltitudeMeters>544.5999755859375</AltitudeMeters>
            <DistanceMeters>NAN</DistanceMeters>
          </Trackpoint>
          <Trackpoint>
            <Time>2021-04-03T14:19:15.000Z</Time>
            <Position>
              <LatitudeDegrees>42.32054351828992366790771484375</LatitudeDegrees>
              <LongitudeDegrees>2.48097963631153106689453125</LongitudeDegrees>
            </Position>
            <AltitudeMeters>548.20001220703125</AltitudeMeters>
            <DistanceMeters>NAN</DistanceMeters>
          </Trackpoint>
          <Trackpoint>
            <Time>2021-04-03T14:19:18.000Z</Time>
            <Position>
              <LatitudeDegrees>42.3204435221850872039794921875</LatitudeDegrees>
              <LongitudeDegrees>2.48093093745410442352294921875</LongitudeDegrees>
            </Position>
            <AltitudeMeters>548</AltitudeMeters>
            <DistanceMeters>NAN</DistanceMeters>
          </Trackpoint>
          <Trackpoint>
            <Time>2021-04-03T14:19:26.000Z</Time>
            <Position>
              <LatitudeDegrees>42.320558018982410430908203125</LatitudeDegrees>
              <LongitudeDegrees>2.4809878505766391754150390625</LongitudeDegrees>
            </Position>
            <AltitudeMeters>548</AltitudeMeters>
            <DistanceMeters>NAN</DistanceMeters>
          </Trackpoint>
          <Trackpoint>
            <Time>2021-04-03T14:19:30.000Z</Time>
            <Position>
              <LatitudeDegrees>42.320576123893260955810546875</LatitudeDegrees>
              <LongitudeDegrees>2.481010816991329193115234375</LongitudeDegrees>
            </Position>
            <AltitudeMeters>548.20001220703125</AltitudeMeters>
            <DistanceMeters>NAN</DistanceMeters>
          </Trackpoint>
          <Trackpoint>
            <Time>2021-04-03T14:19:33.000Z</Time>
            <Position>
              <LatitudeDegrees>42.320583499968051910400390625</LatitudeDegrees>
              <LongitudeDegrees>2.4810153432190418243408203125</LongitudeDegrees>
            </Position>
            <AltitudeMeters>548.20001220703125</AltitudeMeters>
            <DistanceMeters>NAN</DistanceMeters>
          </Trackpoint>
          <Trackpoint>
            <Time>2021-04-03T14:19:34.000Z</Time>
            <Position>
              <LatitudeDegrees>42.32057771645486354827880859375</LatitudeDegrees>
              <LongitudeDegrees>2.48100989498198032379150390625</LongitudeDegrees>
            </Position>
            <AltitudeMeters>548.4000244140625</AltitudeMeters>
            <DistanceMeters>NAN</DistanceMeters>
          </Trackpoint>
          <Trackpoint>
            <Time>2021-04-03T14:19:36.000Z</Time>
            <Position>
              <LatitudeDegrees>42.320568077266216278076171875</LatitudeDegrees>
              <LongitudeDegrees>2.4809999205172061920166015625</LongitudeDegrees>
            </Position>
            <AltitudeMeters>548.20001220703125</AltitudeMeters>
            <DistanceMeters>NAN</DistanceMeters>
          </Trackpoint>
          <Trackpoint>
            <Time>2021-04-03T14:19:41.000Z</Time>
            <Position>
              <LatitudeDegrees>42.32056011445820331573486328125</LatitudeDegrees>
              <LongitudeDegrees>2.48099547810852527618408203125</LongitudeDegrees>
            </Position>
            <AltitudeMeters>548.20001220703125</AltitudeMeters>
            <DistanceMeters>NAN</DistanceMeters>
          </Trackpoint>
          <Trackpoint>
            <Time>2021-04-03T14:19:42.000Z</Time>
            <Position>
              <LatitudeDegrees>42.32056061737239360809326171875</LatitudeDegrees>
              <LongitudeDegrees>2.48099614866077899932861328125</LongitudeDegrees>
            </Position>
            <AltitudeMeters>548.20001220703125</AltitudeMeters>
            <DistanceMeters>NAN</DistanceMeters>
          </Trackpoint>
          <Trackpoint>
            <Time>2021-04-03T14:19:44.000Z</Time>
            <Position>
              <LatitudeDegrees>42.3205618746578693389892578125</LatitudeDegrees>
              <LongitudeDegrees>2.48099598102271556854248046875</LongitudeDegrees>
            </Position>
            <AltitudeMeters>548.20001220703125</AltitudeMeters>
            <DistanceMeters>NAN</DistanceMeters>
          </Trackpoint>
          <Trackpoint>
            <Time>2021-04-03T14:19:49.000Z</Time>
            <Position>
              <LatitudeDegrees>42.32059196569025516510009765625</LatitudeDegrees>
              <LongitudeDegrees>2.48101894743740558624267578125</LongitudeDegrees>
            </Position>
            <AltitudeMeters>548.4000244140625</AltitudeMeters>
            <DistanceMeters>NAN</DistanceMeters>
          </Trackpoint>
          <Trackpoint>
            <Time>2021-04-03T14:19:52.000Z</Time>
            <Position>
              <LatitudeDegrees>42.32060789130628108978271484375</LatitudeDegrees>
              <LongitudeDegrees>2.481024898588657379150390625</LongitudeDegrees>
            </Position>
            <AltitudeMeters>548.20001220703125</AltitudeMeters>
            <DistanceMeters>NAN</DistanceMeters>
          </Trackpoint>
          <Trackpoint>
            <Time>2021-04-03T14:19:58.000Z</Time>
            <Position>
              <LatitudeDegrees>42.32061241753399372100830078125</LatitudeDegrees>
              <LongitudeDegrees>2.4810419976711273193359375</LongitudeDegrees>
            </Position>
            <AltitudeMeters>547.79998779296875</AltitudeMeters>
            <DistanceMeters>NAN</DistanceMeters>
          </Trackpoint>
          <Trackpoint>
            <Time>2021-04-03T14:20:03.000Z</Time>
            <Position>
              <LatitudeDegrees>42.32058458961546421051025390625</LatitudeDegrees>
              <LongitudeDegrees>2.4810264073312282562255859375</LongitudeDegrees>
            </Position>
            <AltitudeMeters>548</AltitudeMeters>
            <DistanceMeters>NAN</DistanceMeters>
          </Trackpoint>
          <Trackpoint>
            <Time>2021-04-03T14:20:09.000Z</Time>
            <Position>
              <LatitudeDegrees>42.320588193833827972412109375</LatitudeDegrees>
              <LongitudeDegrees>2.481020875275135040283203125</LongitudeDegrees>
            </Position>
            <AltitudeMeters>548.4000244140625</AltitudeMeters>
            <DistanceMeters>NAN</DistanceMeters>
          </Trackpoint>
          <Trackpoint>
            <Time>2021-04-03T14:20:17.000Z</Time>
            <Position>
              <LatitudeDegrees>42.32060051523149013519287109375</LatitudeDegrees>
              <LongitudeDegrees>2.48101073317229747772216796875</LongitudeDegrees>
            </Position>
            <AltitudeMeters>548</AltitudeMeters>
            <DistanceMeters>NAN</DistanceMeters>
          </Trackpoint>
          <Trackpoint>
            <Time>2021-04-03T14:20:22.000Z</Time>
            <Position>
              <LatitudeDegrees>42.320561371743679046630859375</LatitudeDegrees>
              <LongitudeDegrees>2.48099212534725666046142578125</LongitudeDegrees>
            </Position>
            <AltitudeMeters>548</AltitudeMeters>
            <DistanceMeters>NAN</DistanceMeters>
          </Trackpoint>
          <Trackpoint>
            <Time>2021-04-03T14:20:27.000Z</Time>
            <Position>
              <LatitudeDegrees>42.320558689534664154052734375</LatitudeDegrees>
              <LongitudeDegrees>2.4809776246547698974609375</LongitudeDegrees>
            </Position>
            <AltitudeMeters>548</AltitudeMeters>
            <DistanceMeters>NAN</DistanceMeters>
          </Trackpoint>
          <Trackpoint>
            <Time>2021-04-03T14:20:30.000Z</Time>
            <Position>
              <LatitudeDegrees>42.320562712848186492919921875</LatitudeDegrees>
              <LongitudeDegrees>2.4809824861586093902587890625</LongitudeDegrees>
            </Position>
            <AltitudeMeters>548</AltitudeMeters>
            <DistanceMeters>NAN</DistanceMeters>
          </Trackpoint>
          <Trackpoint>
            <Time>2021-04-03T14:20:31.000Z</Time>
            <Position>
              <LatitudeDegrees>42.3205679096281528472900390625</LatitudeDegrees>
              <LongitudeDegrees>2.48098743148148059844970703125</LongitudeDegrees>
            </Position>
            <AltitudeMeters>548</AltitudeMeters>
            <DistanceMeters>NAN</DistanceMeters>
          </Trackpoint>
          <Trackpoint>
            <Time>2021-04-03T14:20:35.000Z</Time>
            <Position>
              <LatitudeDegrees>42.3205796442925930023193359375</LatitudeDegrees>
              <LongitudeDegrees>2.48094267211854457855224609375</LongitudeDegrees>
            </Position>
            <AltitudeMeters>548</AltitudeMeters>
            <DistanceMeters>NAN</DistanceMeters>
          </Trackpoint>
          <Trackpoint>
            <Time>2021-04-03T14:20:41.000Z</Time>
            <Position>
              <LatitudeDegrees>42.32058995403349399566650390625</LatitudeDegrees>
              <LongitudeDegrees>2.480931691825389862060546875</LongitudeDegrees>
            </Position>
            <AltitudeMeters>548</AltitudeMeters>
            <DistanceMeters>NAN</DistanceMeters>
          </Trackpoint>
          <Trackpoint>
            <Time>2021-04-03T14:20:42.000Z</Time>
            <Position>
              <LatitudeDegrees>42.320583499968051910400390625</LatitudeDegrees>
              <LongitudeDegrees>2.48091886751353740692138671875</LongitudeDegrees>
            </Position>
            <AltitudeMeters>548.20001220703125</AltitudeMeters>
            <DistanceMeters>NAN</DistanceMeters>
          </Trackpoint>
          <Trackpoint>
            <Time>2021-04-03T14:20:46.000Z</Time>
            <Position>
              <LatitudeDegrees>42.32058526016771793365478515625</LatitudeDegrees>
              <LongitudeDegrees>2.4808969907462596893310546875</LongitudeDegrees>
            </Position>
            <AltitudeMeters>548.4000244140625</AltitudeMeters>
            <DistanceMeters>NAN</DistanceMeters>
          </Trackpoint>
          <Trackpoint>
            <Time>2021-04-03T14:20:47.000Z</Time>
            <Position>
              <LatitudeDegrees>42.32058626599609851837158203125</LatitudeDegrees>
              <LongitudeDegrees>2.48089539818465709686279296875</LongitudeDegrees>
            </Position>
            <AltitudeMeters>548.4000244140625</AltitudeMeters>
            <DistanceMeters>NAN</DistanceMeters>
          </Trackpoint>
          <Trackpoint>
            <Time>2021-04-03T14:20:54.000Z</Time>
            <Position>
              <LatitudeDegrees>42.32058777473866939544677734375</LatitudeDegrees>
              <LongitudeDegrees>2.48086354695260524749755859375</LongitudeDegrees>
            </Position>
            <AltitudeMeters>548.5999755859375</AltitudeMeters>
            <DistanceMeters>NAN</DistanceMeters>
          </Trackpoint>
          <Trackpoint>
            <Time>2021-04-03T14:20:56.000Z</Time>
            <Position>
              <LatitudeDegrees>42.32058593071997165679931640625</LatitudeDegrees>
              <LongitudeDegrees>2.48085080645978450775146484375</LongitudeDegrees>
            </Position>
            <AltitudeMeters>548.4000244140625</AltitudeMeters>
            <DistanceMeters>NAN</DistanceMeters>
          </Trackpoint>
          <Trackpoint>
            <Time>2021-04-03T14:20:57.000Z</Time>
            <Position>
              <LatitudeDegrees>42.32058475725352764129638671875</LatitudeDegrees>
              <LongitudeDegrees>2.480841837823390960693359375</LongitudeDegrees>
            </Position>
            <AltitudeMeters>548.4000244140625</AltitudeMeters>
            <DistanceMeters>NAN</DistanceMeters>
          </Trackpoint>
          <Trackpoint>
            <Time>2021-04-03T14:21:00.000Z</Time>
            <Position>
              <LatitudeDegrees>42.3205920495092868804931640625</LatitudeDegrees>
              <LongitudeDegrees>2.48082063160836696624755859375</LongitudeDegrees>
            </Position>
            <AltitudeMeters>548.4000244140625</AltitudeMeters>
            <DistanceMeters>NAN</DistanceMeters>
          </Trackpoint>
          <Trackpoint>
            <Time>2021-04-03T14:21:06.000Z</Time>
            <Position>
              <LatitudeDegrees>42.32061023823916912078857421875</LatitudeDegrees>
              <LongitudeDegrees>2.48080403544008731842041015625</LongitudeDegrees>
            </Position>
            <AltitudeMeters>548.20001220703125</AltitudeMeters>
            <DistanceMeters>NAN</DistanceMeters>
          </Trackpoint>
          <Trackpoint>
            <Time>2021-04-03T14:21:14.000Z</Time>
            <Position>
              <LatitudeDegrees>42.3206668160855770111083984375</LatitudeDegrees>
              <LongitudeDegrees>2.48077000491321086883544921875</LongitudeDegrees>
            </Position>
            <AltitudeMeters>547.5999755859375</AltitudeMeters>
            <DistanceMeters>NAN</DistanceMeters>
          </Trackpoint>
          <Trackpoint>
            <Time>2021-04-03T14:21:17.000Z</Time>
            <Position>
              <LatitudeDegrees>42.32067913748323917388916015625</LatitudeDegrees>
              <LongitudeDegrees>2.4807407520711421966552734375</LongitudeDegrees>
            </Position>
            <AltitudeMeters>547.5999755859375</AltitudeMeters>
            <DistanceMeters>NAN</DistanceMeters>
          </Trackpoint>
          <Trackpoint>
            <Time>2021-04-03T14:21:19.000Z</Time>
            <Position>
              <LatitudeDegrees>42.320682741701602935791015625</LatitudeDegrees>
              <LongitudeDegrees>2.48071585781872272491455078125</LongitudeDegrees>
            </Position>
            <AltitudeMeters>547.5999755859375</AltitudeMeters>
            <DistanceMeters>NAN</DistanceMeters>
          </Trackpoint>
          <Trackpoint>
            <Time>2021-04-03T14:21:22.000Z</Time>
            <Position>
              <LatitudeDegrees>42.32070260681211948394775390625</LatitudeDegrees>
              <LongitudeDegrees>2.48071334324777126312255859375</LongitudeDegrees>
            </Position>
            <AltitudeMeters>547.79998779296875</AltitudeMeters>
            <DistanceMeters>NAN</DistanceMeters>
          </Trackpoint>
          <Trackpoint>
            <Time>2021-04-03T14:21:25.000Z</Time>
            <Position>
              <LatitudeDegrees>42.3207181133329868316650390625</LatitudeDegrees>
              <LongitudeDegrees>2.48069792054593563079833984375</LongitudeDegrees>
            </Position>
            <AltitudeMeters>548</AltitudeMeters>
            <DistanceMeters>NAN</DistanceMeters>
          </Trackpoint>
          <Trackpoint>
            <Time>2021-04-03T14:21:31.000Z</Time>
            <Position>
              <LatitudeDegrees>42.32072942890226840972900390625</LatitudeDegrees>
              <LongitudeDegrees>2.48063589446246623992919921875</LongitudeDegrees>
            </Position>
            <AltitudeMeters>547.79998779296875</AltitudeMeters>
            <DistanceMeters>NAN</DistanceMeters>
          </Trackpoint>
          <Trackpoint>
            <Time>2021-04-03T14:21:35.000Z</Time>
            <Position>
              <LatitudeDegrees>42.3207429237663745880126953125</LatitudeDegrees>
              <LongitudeDegrees>2.48060119338333606719970703125</LongitudeDegrees>
            </Position>
            <AltitudeMeters>547.5999755859375</AltitudeMeters>
            <DistanceMeters>NAN</DistanceMeters>
          </Trackpoint>
          <Trackpoint>
            <Time>2021-04-03T14:21:36.000Z</Time>
            <Position>
              <LatitudeDegrees>42.32074837200343608856201171875</LatitudeDegrees>
              <LongitudeDegrees>2.4805927276611328125</LongitudeDegrees>
            </Position>
            <AltitudeMeters>547.4000244140625</AltitudeMeters>
            <DistanceMeters>NAN</DistanceMeters>
          </Trackpoint>
          <Trackpoint>
            <Time>2021-04-03T14:21:42.000Z</Time>
            <Position>
              <LatitudeDegrees>42.32079363428056240081787109375</LatitudeDegrees>
              <LongitudeDegrees>2.48056657612323760986328125</LongitudeDegrees>
            </Position>
            <AltitudeMeters>546.5999755859375</AltitudeMeters>
            <DistanceMeters>NAN</DistanceMeters>
          </Trackpoint>
          <Trackpoint>
            <Time>2021-04-03T14:21:44.000Z</Time>
            <Position>
              <LatitudeDegrees>42.320811487734317779541015625</LatitudeDegrees>
              <LongitudeDegrees>2.480556182563304901123046875</LongitudeDegrees>
            </Position>
            <AltitudeMeters>546.4000244140625</AltitudeMeters>
            <DistanceMeters>NAN</DistanceMeters>
          </Trackpoint>
          <Trackpoint>
            <Time>2021-04-03T14:21:50.000Z</Time>
            <Position>
              <LatitudeDegrees>42.32086454518139362335205078125</LatitudeDegrees>
              <LongitudeDegrees>2.48052407987415790557861328125</LongitudeDegrees>
            </Position>
            <AltitudeMeters>546.4000244140625</AltitudeMeters>
            <DistanceMeters>NAN</DistanceMeters>
          </Trackpoint>
          <Trackpoint>
            <Time>2021-04-03T14:21:52.000Z</Time>
            <Position>
              <LatitudeDegrees>42.3208827339112758636474609375</LatitudeDegrees>
              <LongitudeDegrees>2.4805147759616374969482421875</LongitudeDegrees>
            </Position>
            <AltitudeMeters>546.4000244140625</AltitudeMeters>
            <DistanceMeters>NAN</DistanceMeters>
          </Trackpoint>
          <Trackpoint>
            <Time>2021-04-03T14:21:56.000Z</Time>
            <Position>
              <LatitudeDegrees>42.32091684825718402862548828125</LatitudeDegrees>
              <LongitudeDegrees>2.4804986827075481414794921875</LongitudeDegrees>
            </Position>
            <AltitudeMeters>546</AltitudeMeters>
            <DistanceMeters>NAN</DistanceMeters>
          </Trackpoint>
          <Trackpoint>
            <Time>2021-04-03T14:21:57.000Z</Time>
            <Position>
              <LatitudeDegrees>42.3209256492555141448974609375</LatitudeDegrees>
              <LongitudeDegrees>2.480497844517230987548828125</LongitudeDegrees>
            </Position>
            <AltitudeMeters>545.79998779296875</AltitudeMeters>
            <DistanceMeters>NAN</DistanceMeters>
          </Trackpoint>
          <Trackpoint>
            <Time>2021-04-03T14:22:02.000Z</Time>
            <Position>
              <LatitudeDegrees>42.320953309535980224609375</LatitudeDegrees>
              <LongitudeDegrees>2.4804768897593021392822265625</LongitudeDegrees>
            </Position>
            <AltitudeMeters>545.79998779296875</AltitudeMeters>
            <DistanceMeters>NAN</DistanceMeters>
          </Trackpoint>
          <Trackpoint>
            <Time>2021-04-03T14:22:03.000Z</Time>
            <Position>
              <LatitudeDegrees>42.32095607556402683258056640625</LatitudeDegrees>
              <LongitudeDegrees>2.480479739606380462646484375</LongitudeDegrees>
            </Position>
            <AltitudeMeters>546</AltitudeMeters>
            <DistanceMeters>NAN</DistanceMeters>
          </Trackpoint>
          <Trackpoint>
            <Time>2021-04-03T14:22:04.000Z</Time>
            <Position>
              <LatitudeDegrees>42.32095624320209026336669921875</LatitudeDegrees>
              <LongitudeDegrees>2.48048149980604648590087890625</LongitudeDegrees>
            </Position>
            <AltitudeMeters>546</AltitudeMeters>
            <DistanceMeters>NAN</DistanceMeters>
          </Trackpoint>
          <Trackpoint>
            <Time>2021-04-03T14:22:06.000Z</Time>
            <Position>
              <LatitudeDegrees>42.32095372863113880157470703125</LatitudeDegrees>
              <LongitudeDegrees>2.48047479428350925445556640625</LongitudeDegrees>
            </Position>
            <AltitudeMeters>546.20001220703125</AltitudeMeters>
            <DistanceMeters>NAN</DistanceMeters>
          </Trackpoint>
          <Trackpoint>
            <Time>2021-04-03T14:22:12.000Z</Time>
            <Position>
              <LatitudeDegrees>42.32097853906452655792236328125</LatitudeDegrees>
              <LongitudeDegrees>2.48044562526047229766845703125</LongitudeDegrees>
            </Position>
            <AltitudeMeters>546.4000244140625</AltitudeMeters>
            <DistanceMeters>NAN</DistanceMeters>
          </Trackpoint>
          <Trackpoint>
            <Time>2021-04-03T14:22:18.000Z</Time>
            <Position>
              <LatitudeDegrees>42.32099932618439197540283203125</LatitudeDegrees>
              <LongitudeDegrees>2.480464316904544830322265625</LongitudeDegrees>
            </Position>
            <AltitudeMeters>546.20001220703125</AltitudeMeters>
            <DistanceMeters>NAN</DistanceMeters>
          </Trackpoint>
          <Trackpoint>
            <Time>2021-04-03T14:22:20.000Z</Time>
            <Position>
              <LatitudeDegrees>42.32099697925150394439697265625</LatitudeDegrees>
              <LongitudeDegrees>2.48046733438968658447265625</LongitudeDegrees>
            </Position>
            <AltitudeMeters>546</AltitudeMeters>
            <DistanceMeters>NAN</DistanceMeters>
          </Trackpoint>
          <Trackpoint>
            <Time>2021-04-03T14:22:22.000Z</Time>
            <Position>
              <LatitudeDegrees>42.32099479995667934417724609375</LatitudeDegrees>
              <LongitudeDegrees>2.4804628081619739532470703125</LongitudeDegrees>
            </Position>
            <AltitudeMeters>546</AltitudeMeters>
            <DistanceMeters>NAN</DistanceMeters>
          </Trackpoint>
          <Trackpoint>
            <Time>2021-04-03T14:22:24.000Z</Time>
            <Position>
              <LatitudeDegrees>42.32099479995667934417724609375</LatitudeDegrees>
              <LongitudeDegrees>2.48046238906681537628173828125</LongitudeDegrees>
            </Position>
            <AltitudeMeters>545.79998779296875</AltitudeMeters>
            <DistanceMeters>NAN</DistanceMeters>
          </Trackpoint>
          <Trackpoint>
            <Time>2021-04-03T14:22:26.000Z</Time>
            <Position>
              <LatitudeDegrees>42.32099597342312335968017578125</LatitudeDegrees>
              <LongitudeDegrees>2.48046465218067169189453125</LongitudeDegrees>
            </Position>
            <AltitudeMeters>546</AltitudeMeters>
            <DistanceMeters>NAN</DistanceMeters>
          </Trackpoint>
          <Trackpoint>
            <Time>2021-04-03T14:22:27.000Z</Time>
            <Position>
              <LatitudeDegrees>42.32099597342312335968017578125</LatitudeDegrees>
              <LongitudeDegrees>2.48046465218067169189453125</LongitudeDegrees>
            </Position>
            <AltitudeMeters>546</AltitudeMeters>
            <DistanceMeters>NAN</DistanceMeters>
          </Trackpoint>
          <Trackpoint>
            <Time>2021-04-03T14:22:32.000Z</Time>
            <Position>
              <LatitudeDegrees>42.32099597342312335968017578125</LatitudeDegrees>
              <LongitudeDegrees>2.48046465218067169189453125</LongitudeDegrees>
            </Position>
            <AltitudeMeters>546.20001220703125</AltitudeMeters>
            <DistanceMeters>NAN</DistanceMeters>
          </Trackpoint>
          <Trackpoint>
            <Time>2021-04-03T14:22:36.000Z</Time>
            <Position>
              <LatitudeDegrees>42.32099597342312335968017578125</LatitudeDegrees>
              <LongitudeDegrees>2.48046465218067169189453125</LongitudeDegrees>
            </Position>
            <AltitudeMeters>546.20001220703125</AltitudeMeters>
            <DistanceMeters>NAN</DistanceMeters>
          </Trackpoint>
          <Trackpoint>
            <Time>2021-04-03T14:22:50.000Z</Time>
            <Position>
              <LatitudeDegrees>42.32101541943848133087158203125</LatitudeDegrees>
              <LongitudeDegrees>2.4804532527923583984375</LongitudeDegrees>
            </Position>
            <AltitudeMeters>546</AltitudeMeters>
            <DistanceMeters>NAN</DistanceMeters>
          </Trackpoint>
          <Trackpoint>
            <Time>2021-04-03T14:22:53.000Z</Time>
            <Position>
              <LatitudeDegrees>42.32105213217437267303466796875</LatitudeDegrees>
              <LongitudeDegrees>2.48042844235897064208984375</LongitudeDegrees>
            </Position>
            <AltitudeMeters>546.20001220703125</AltitudeMeters>
            <DistanceMeters>NAN</DistanceMeters>
          </Trackpoint>
          <Trackpoint>
            <Time>2021-04-03T14:22:57.000Z</Time>
            <Position>
              <LatitudeDegrees>42.321091108024120330810546875</LatitudeDegrees>
              <LongitudeDegrees>2.48038552701473236083984375</LongitudeDegrees>
            </Position>
            <AltitudeMeters>546.4000244140625</AltitudeMeters>
            <DistanceMeters>NAN</DistanceMeters>
          </Trackpoint>
          <Trackpoint>
            <Time>2021-04-03T14:23:01.000Z</Time>
            <Position>
              <LatitudeDegrees>42.32112606056034564971923828125</LatitudeDegrees>
              <LongitudeDegrees>2.48035409487783908843994140625</LongitudeDegrees>
            </Position>
            <AltitudeMeters>546.4000244140625</AltitudeMeters>
            <DistanceMeters>NAN</DistanceMeters>
          </Trackpoint>
          <Trackpoint>
            <Time>2021-04-03T14:23:02.000Z</Time>
            <Position>
              <LatitudeDegrees>42.32113209553062915802001953125</LatitudeDegrees>
              <LongitudeDegrees>2.48035007156431674957275390625</LongitudeDegrees>
            </Position>
            <AltitudeMeters>546.4000244140625</AltitudeMeters>
            <DistanceMeters>NAN</DistanceMeters>
          </Trackpoint>
          <Trackpoint>
            <Time>2021-04-03T14:23:05.000Z</Time>
            <Position>
              <LatitudeDegrees>42.32114978134632110595703125</LatitudeDegrees>
              <LongitudeDegrees>2.480337917804718017578125</LongitudeDegrees>
            </Position>
            <AltitudeMeters>546.4000244140625</AltitudeMeters>
            <DistanceMeters>NAN</DistanceMeters>
          </Trackpoint>
          <Trackpoint>
            <Time>2021-04-03T14:23:09.000Z</Time>
            <Position>
              <LatitudeDegrees>42.32116453349590301513671875</LatitudeDegrees>
              <LongitudeDegrees>2.48031050898134708404541015625</LongitudeDegrees>
            </Position>
            <AltitudeMeters>546.5999755859375</AltitudeMeters>
            <DistanceMeters>NAN</DistanceMeters>
          </Trackpoint>
          <Trackpoint>
            <Time>2021-04-03T14:23:12.000Z</Time>
            <Position>
              <LatitudeDegrees>42.32117970474064350128173828125</LatitudeDegrees>
              <LongitudeDegrees>2.4802820943295955657958984375</LongitudeDegrees>
            </Position>
            <AltitudeMeters>546.79998779296875</AltitudeMeters>
            <DistanceMeters>NAN</DistanceMeters>
          </Trackpoint>
          <Trackpoint>
            <Time>2021-04-03T14:23:13.000Z</Time>
            <Position>
              <LatitudeDegrees>42.321186326444149017333984375</LatitudeDegrees>
              <LongitudeDegrees>2.480275891721248626708984375</LongitudeDegrees>
            </Position>
            <AltitudeMeters>546.79998779296875</AltitudeMeters>
            <DistanceMeters>NAN</DistanceMeters>
          </Trackpoint>
          <Trackpoint>
            <Time>2021-04-03T14:23:14.000Z</Time>
            <Position>
              <LatitudeDegrees>42.32119135558605194091796875</LatitudeDegrees>
              <LongitudeDegrees>2.48026725836098194122314453125</LongitudeDegrees>
            </Position>
            <AltitudeMeters>546.79998779296875</AltitudeMeters>
            <DistanceMeters>NAN</DistanceMeters>
          </Trackpoint>
          <Trackpoint>
            <Time>2021-04-03T14:23:18.000Z</Time>
            <Position>
              <LatitudeDegrees>42.32120652683079242706298828125</LatitudeDegrees>
              <LongitudeDegrees>2.4802220799028873443603515625</LongitudeDegrees>
            </Position>
            <AltitudeMeters>547.4000244140625</AltitudeMeters>
            <DistanceMeters>NAN</DistanceMeters>
          </Trackpoint>
          <Trackpoint>
            <Time>2021-04-03T14:23:19.000Z</Time>
            <Position>
              <LatitudeDegrees>42.321207113564014434814453125</LatitudeDegrees>
              <LongitudeDegrees>2.4802096746861934661865234375</LongitudeDegrees>
            </Position>
            <AltitudeMeters>547.5999755859375</AltitudeMeters>
            <DistanceMeters>NAN</DistanceMeters>
          </Trackpoint>
          <Trackpoint>
            <Time>2021-04-03T14:23:22.000Z</Time>
            <Position>
              <LatitudeDegrees>42.32121742330491542816162109375</LatitudeDegrees>
              <LongitudeDegrees>2.48017874546349048614501953125</LongitudeDegrees>
            </Position>
            <AltitudeMeters>547.79998779296875</AltitudeMeters>
            <DistanceMeters>NAN</DistanceMeters>
          </Trackpoint>
          <Trackpoint>
            <Time>2021-04-03T14:23:26.000Z</Time>
            <Position>
              <LatitudeDegrees>42.32123686932027339935302734375</LatitudeDegrees>
              <LongitudeDegrees>2.4801442958414554595947265625</LongitudeDegrees>
            </Position>
            <AltitudeMeters>547.79998779296875</AltitudeMeters>
            <DistanceMeters>NAN</DistanceMeters>
          </Trackpoint>
          <Trackpoint>
            <Time>2021-04-03T14:23:27.000Z</Time>
            <Position>
              <LatitudeDegrees>42.32123938389122486114501953125</LatitudeDegrees>
              <LongitudeDegrees>2.4801322259008884429931640625</LongitudeDegrees>
            </Position>
            <AltitudeMeters>547.79998779296875</AltitudeMeters>
            <DistanceMeters>NAN</DistanceMeters>
          </Trackpoint>
          <Trackpoint>
            <Time>2021-04-03T14:23:30.000Z</Time>
            <Position>
              <LatitudeDegrees>42.3212441615760326385498046875</LatitudeDegrees>
              <LongitudeDegrees>2.48010523617267608642578125</LongitudeDegrees>
            </Position>
            <AltitudeMeters>548</AltitudeMeters>
            <DistanceMeters>NAN</DistanceMeters>
          </Trackpoint>
          <Trackpoint>
            <Time>2021-04-03T14:23:31.000Z</Time>
            <Position>
              <LatitudeDegrees>42.32124491594731807708740234375</LatitudeDegrees>
              <LongitudeDegrees>2.48009593226015567779541015625</LongitudeDegrees>
            </Position>
            <AltitudeMeters>548.20001220703125</AltitudeMeters>
            <DistanceMeters>NAN</DistanceMeters>
          </Trackpoint>
          <Trackpoint>
            <Time>2021-04-03T14:23:34.000Z</Time>
            <Position>
              <LatitudeDegrees>42.32124977745115756988525390625</LatitudeDegrees>
              <LongitudeDegrees>2.4800688587129116058349609375</LongitudeDegrees>
            </Position>
            <AltitudeMeters>548.4000244140625</AltitudeMeters>
            <DistanceMeters>NAN</DistanceMeters>
          </Trackpoint>
          <Trackpoint>
            <Time>2021-04-03T14:23:35.000Z</Time>
            <Position>
              <LatitudeDegrees>42.32125279493629932403564453125</LatitudeDegrees>
              <LongitudeDegrees>2.4800567887723445892333984375</LongitudeDegrees>
            </Position>
            <AltitudeMeters>548.5999755859375</AltitudeMeters>
            <DistanceMeters>NAN</DistanceMeters>
          </Trackpoint>
          <Trackpoint>
            <Time>2021-04-03T14:23:37.000Z</Time>
            <Position>
              <LatitudeDegrees>42.321252711117267608642578125</LatitudeDegrees>
              <LongitudeDegrees>2.48003776185214519500732421875</LongitudeDegrees>
            </Position>
            <AltitudeMeters>548.79998779296875</AltitudeMeters>
            <DistanceMeters>NAN</DistanceMeters>
          </Trackpoint>
          <Trackpoint>
            <Time>2021-04-03T14:23:42.000Z</Time>
            <Position>
              <LatitudeDegrees>42.32126955874264240264892578125</LatitudeDegrees>
              <LongitudeDegrees>2.4799852073192596435546875</LongitudeDegrees>
            </Position>
            <AltitudeMeters>548.79998779296875</AltitudeMeters>
            <DistanceMeters>NAN</DistanceMeters>
          </Trackpoint>
          <Trackpoint>
            <Time>2021-04-03T14:23:44.000Z</Time>
            <Position>
              <LatitudeDegrees>42.32127710245549678802490234375</LatitudeDegrees>
              <LongitudeDegrees>2.47996735386550426483154296875</LongitudeDegrees>
            </Position>
            <AltitudeMeters>548.79998779296875</AltitudeMeters>
            <DistanceMeters>NAN</DistanceMeters>
          </Trackpoint>
          <Trackpoint>
            <Time>2021-04-03T14:23:46.000Z</Time>
            <Position>
              <LatitudeDegrees>42.32128657400608062744140625</LatitudeDegrees>
              <LongitudeDegrees>2.479953356087207794189453125</LongitudeDegrees>
            </Position>
            <AltitudeMeters>549</AltitudeMeters>
            <DistanceMeters>NAN</DistanceMeters>
          </Trackpoint>
          <Trackpoint>
            <Time>2021-04-03T14:23:52.000Z</Time>
            <Position>
              <LatitudeDegrees>42.321301996707916259765625</LatitudeDegrees>
              <LongitudeDegrees>2.47989778406918048858642578125</LongitudeDegrees>
            </Position>
            <AltitudeMeters>549.5999755859375</AltitudeMeters>
            <DistanceMeters>NAN</DistanceMeters>
          </Trackpoint>
          <Trackpoint>
            <Time>2021-04-03T14:23:55.000Z</Time>
            <Position>
              <LatitudeDegrees>42.32131213881075382232666015625</LatitudeDegrees>
              <LongitudeDegrees>2.47986392118036746978759765625</LongitudeDegrees>
            </Position>
            <AltitudeMeters>549.79998779296875</AltitudeMeters>
            <DistanceMeters>NAN</DistanceMeters>
          </Trackpoint>
          <Trackpoint>
            <Time>2021-04-03T14:23:56.000Z</Time>
            <Position>
              <LatitudeDegrees>42.32131683267652988433837890625</LatitudeDegrees>
              <LongitudeDegrees>2.47985453344881534576416015625</LongitudeDegrees>
            </Position>
            <AltitudeMeters>549.79998779296875</AltitudeMeters>
            <DistanceMeters>NAN</DistanceMeters>
          </Trackpoint>
          <Trackpoint>
            <Time>2021-04-03T14:24:01.000Z</Time>
            <Position>
              <LatitudeDegrees>42.32133091427385807037353515625</LatitudeDegrees>
              <LongitudeDegrees>2.47980843298137187957763671875</LongitudeDegrees>
            </Position>
            <AltitudeMeters>550.20001220703125</AltitudeMeters>
            <DistanceMeters>NAN</DistanceMeters>
          </Trackpoint>
          <Trackpoint>
            <Time>2021-04-03T14:24:05.000Z</Time>
            <Position>
              <LatitudeDegrees>42.32133979909121990203857421875</LatitudeDegrees>
              <LongitudeDegrees>2.47976568527519702911376953125</LongitudeDegrees>
            </Position>
            <AltitudeMeters>550.5999755859375</AltitudeMeters>
            <DistanceMeters>NAN</DistanceMeters>
          </Trackpoint>
          <Trackpoint>
            <Time>2021-04-03T14:24:07.000Z</Time>
            <Position>
              <LatitudeDegrees>42.321349270641803741455078125</LatitudeDegrees>
              <LongitudeDegrees>2.479748167097568511962890625</LongitudeDegrees>
            </Position>
            <AltitudeMeters>550.79998779296875</AltitudeMeters>
            <DistanceMeters>NAN</DistanceMeters>
          </Trackpoint>
          <Trackpoint>
            <Time>2021-04-03T14:24:10.000Z</Time>
            <Position>
              <LatitudeDegrees>42.32136301696300506591796875</LatitudeDegrees>
              <LongitudeDegrees>2.47972109355032444000244140625</LongitudeDegrees>
            </Position>
            <AltitudeMeters>550.79998779296875</AltitudeMeters>
            <DistanceMeters>NAN</DistanceMeters>
          </Trackpoint>
          <Trackpoint>
            <Time>2021-04-03T14:24:15.000Z</Time>
            <Position>
              <LatitudeDegrees>42.3213920183479785919189453125</LatitudeDegrees>
              <LongitudeDegrees>2.47968236915767192840576171875</LongitudeDegrees>
            </Position>
            <AltitudeMeters>551</AltitudeMeters>
            <DistanceMeters>NAN</DistanceMeters>
          </Trackpoint>
          <Trackpoint>
            <Time>2021-04-03T14:24:21.000Z</Time>
            <Position>
              <LatitudeDegrees>42.321410961449146270751953125</LatitudeDegrees>
              <LongitudeDegrees>2.479618750512599945068359375</LongitudeDegrees>
            </Position>
            <AltitudeMeters>551.5999755859375</AltitudeMeters>
            <DistanceMeters>NAN</DistanceMeters>
          </Trackpoint>
          <Trackpoint>
            <Time>2021-04-03T14:24:24.000Z</Time>
            <Position>
              <LatitudeDegrees>42.3214174993336200714111328125</LatitudeDegrees>
              <LongitudeDegrees>2.4795840494334697723388671875</LongitudeDegrees>
            </Position>
            <AltitudeMeters>552</AltitudeMeters>
            <DistanceMeters>NAN</DistanceMeters>
          </Trackpoint>
          <Trackpoint>
            <Time>2021-04-03T14:24:30.000Z</Time>
            <Position>
              <LatitudeDegrees>42.32143719680607318878173828125</LatitudeDegrees>
              <LongitudeDegrees>2.47953317128121852874755859375</LongitudeDegrees>
            </Position>
            <AltitudeMeters>552.4000244140625</AltitudeMeters>
            <DistanceMeters>NAN</DistanceMeters>
          </Trackpoint>
          <Trackpoint>
            <Time>2021-04-03T14:24:31.000Z</Time>
            <Position>
              <LatitudeDegrees>42.32144088484346866607666015625</LatitudeDegrees>
              <LongitudeDegrees>2.4795200116932392120361328125</LongitudeDegrees>
            </Position>
            <AltitudeMeters>552.5999755859375</AltitudeMeters>
            <DistanceMeters>NAN</DistanceMeters>
          </Trackpoint>
          <Trackpoint>
            <Time>2021-04-03T14:24:32.000Z</Time>
            <Position>
              <LatitudeDegrees>42.3214459978044033050537109375</LatitudeDegrees>
              <LongitudeDegrees>2.4795096181333065032958984375</LongitudeDegrees>
            </Position>
            <AltitudeMeters>552.79998779296875</AltitudeMeters>
            <DistanceMeters>NAN</DistanceMeters>
          </Trackpoint>
          <Trackpoint>
            <Time>2021-04-03T14:24:38.000Z</Time>
            <Position>
              <LatitudeDegrees>42.321479022502899169921875</LatitudeDegrees>
              <LongitudeDegrees>2.4794514477252960205078125</LongitudeDegrees>
            </Position>
            <AltitudeMeters>553</AltitudeMeters>
            <DistanceMeters>NAN</DistanceMeters>
          </Trackpoint>
          <Trackpoint>
            <Time>2021-04-03T14:24:43.000Z</Time>
            <Position>
              <LatitudeDegrees>42.32149721123278141021728515625</LatitudeDegrees>
              <LongitudeDegrees>2.47940693981945514678955078125</LongitudeDegrees>
            </Position>
            <AltitudeMeters>553.4000244140625</AltitudeMeters>
            <DistanceMeters>NAN</DistanceMeters>
          </Trackpoint>
          <Trackpoint>
            <Time>2021-04-03T14:24:48.000Z</Time>
            <Position>
              <LatitudeDegrees>42.3215214349329471588134765625</LatitudeDegrees>
              <LongitudeDegrees>2.47936804778873920440673828125</LongitudeDegrees>
            </Position>
            <AltitudeMeters>553.79998779296875</AltitudeMeters>
            <DistanceMeters>NAN</DistanceMeters>
          </Trackpoint>
          <Trackpoint>
            <Time>2021-04-03T14:24:56.000Z</Time>
            <Position>
              <LatitudeDegrees>42.32150944881141185760498046875</LatitudeDegrees>
              <LongitudeDegrees>2.47927970252931118011474609375</LongitudeDegrees>
            </Position>
            <AltitudeMeters>554</AltitudeMeters>
            <DistanceMeters>NAN</DistanceMeters>
          </Trackpoint>
          <Trackpoint>
            <Time>2021-04-03T14:24:57.000Z</Time>
            <Position>
              <LatitudeDegrees>42.3215060122311115264892578125</LatitudeDegrees>
              <LongitudeDegrees>2.4792695604264736175537109375</LongitudeDegrees>
            </Position>
            <AltitudeMeters>554.20001220703125</AltitudeMeters>
            <DistanceMeters>NAN</DistanceMeters>
          </Trackpoint>
          <Trackpoint>
            <Time>2021-04-03T14:25:00.000Z</Time>
            <Position>
              <LatitudeDegrees>42.32148899696767330169677734375</LatitudeDegrees>
              <LongitudeDegrees>2.479253299534320831298828125</LongitudeDegrees>
            </Position>
            <AltitudeMeters>554.4000244140625</AltitudeMeters>
            <DistanceMeters>NAN</DistanceMeters>
          </Trackpoint>
          <Trackpoint>
            <Time>2021-04-03T14:25:02.000Z</Time>
            <Position>
              <LatitudeDegrees>42.3214765079319477081298828125</LatitudeDegrees>
              <LongitudeDegrees>2.479242570698261260986328125</LongitudeDegrees>
            </Position>
            <AltitudeMeters>554.79998779296875</AltitudeMeters>
            <DistanceMeters>NAN</DistanceMeters>
          </Trackpoint>
          <Trackpoint>
            <Time>2021-04-03T14:25:03.000Z</Time>
            <Position>
              <LatitudeDegrees>42.32147223316133022308349609375</LatitudeDegrees>
              <LongitudeDegrees>2.479230500757694244384765625</LongitudeDegrees>
            </Position>
            <AltitudeMeters>554.79998779296875</AltitudeMeters>
            <DistanceMeters>NAN</DistanceMeters>
          </Trackpoint>
          <Trackpoint>
            <Time>2021-04-03T14:25:08.000Z</Time>
            <Position>
              <LatitudeDegrees>42.32144675217568874359130859375</LatitudeDegrees>
              <LongitudeDegrees>2.479191608726978302001953125</LongitudeDegrees>
            </Position>
            <AltitudeMeters>555</AltitudeMeters>
            <DistanceMeters>NAN</DistanceMeters>
          </Trackpoint>
          <Trackpoint>
            <Time>2021-04-03T14:25:12.000Z</Time>
            <Position>
              <LatitudeDegrees>42.32143677771091461181640625</LatitudeDegrees>
              <LongitudeDegrees>2.4791609309613704681396484375</LongitudeDegrees>
            </Position>
            <AltitudeMeters>555.20001220703125</AltitudeMeters>
            <DistanceMeters>NAN</DistanceMeters>
          </Trackpoint>
          <Trackpoint>
            <Time>2021-04-03T14:25:16.000Z</Time>
            <Position>
              <LatitudeDegrees>42.321425713598728179931640625</LatitudeDegrees>
              <LongitudeDegrees>2.47912731952965259552001953125</LongitudeDegrees>
            </Position>
            <AltitudeMeters>555.20001220703125</AltitudeMeters>
            <DistanceMeters>NAN</DistanceMeters>
          </Trackpoint>
          <Trackpoint>
            <Time>2021-04-03T14:25:18.000Z</Time>
            <Position>
              <LatitudeDegrees>42.3214315809309482574462890625</LatitudeDegrees>
              <LongitudeDegrees>2.4791089631617069244384765625</LongitudeDegrees>
            </Position>
            <AltitudeMeters>555.4000244140625</AltitudeMeters>
            <DistanceMeters>NAN</DistanceMeters>
          </Trackpoint>
          <Trackpoint>
            <Time>2021-04-03T14:25:19.000Z</Time>
            <Position>
              <LatitudeDegrees>42.32143937610089778900146484375</LatitudeDegrees>
              <LongitudeDegrees>2.47909882105886936187744140625</LongitudeDegrees>
            </Position>
            <AltitudeMeters>555.5999755859375</AltitudeMeters>
            <DistanceMeters>NAN</DistanceMeters>
          </Trackpoint>
          <Trackpoint>
            <Time>2021-04-03T14:25:22.000Z</Time>
            <Position>
              <LatitudeDegrees>42.321461252868175506591796875</LatitudeDegrees>
              <LongitudeDegrees>2.47907392680644989013671875</LongitudeDegrees>
            </Position>
            <AltitudeMeters>556</AltitudeMeters>
            <DistanceMeters>NAN</DistanceMeters>
          </Trackpoint>
          <Trackpoint>
            <Time>2021-04-03T14:25:23.000Z</Time>
            <Position>
              <LatitudeDegrees>42.321466617286205291748046875</LatitudeDegrees>
              <LongitudeDegrees>2.47906453907489776611328125</LongitudeDegrees>
            </Position>
            <AltitudeMeters>556.4000244140625</AltitudeMeters>
            <DistanceMeters>NAN</DistanceMeters>
          </Trackpoint>
          <Trackpoint>
            <Time>2021-04-03T14:25:24.000Z</Time>
            <Position>
              <LatitudeDegrees>42.32147407718002796173095703125</LatitudeDegrees>
              <LongitudeDegrees>2.47905515134334564208984375</LongitudeDegrees>
            </Position>
            <AltitudeMeters>556.4000244140625</AltitudeMeters>
            <DistanceMeters>NAN</DistanceMeters>
          </Trackpoint>
          <Trackpoint>
            <Time>2021-04-03T14:25:29.000Z</Time>
            <Position>
              <LatitudeDegrees>42.32149905525147914886474609375</LatitudeDegrees>
              <LongitudeDegrees>2.4790067039430141448974609375</LongitudeDegrees>
            </Position>
            <AltitudeMeters>557</AltitudeMeters>
            <DistanceMeters>NAN</DistanceMeters>
          </Trackpoint>
          <Trackpoint>
            <Time>2021-04-03T14:25:31.000Z</Time>
            <Position>
              <LatitudeDegrees>42.32151011936366558074951171875</LatitudeDegrees>
              <LongitudeDegrees>2.4789889343082904815673828125</LongitudeDegrees>
            </Position>
            <AltitudeMeters>557.4000244140625</AltitudeMeters>
            <DistanceMeters>NAN</DistanceMeters>
          </Trackpoint>
          <Trackpoint>
            <Time>2021-04-03T14:25:39.000Z</Time>
            <Position>
              <LatitudeDegrees>42.321550436317920684814453125</LatitudeDegrees>
              <LongitudeDegrees>2.47891165316104888916015625</LongitudeDegrees>
            </Position>
            <AltitudeMeters>558</AltitudeMeters>
            <DistanceMeters>NAN</DistanceMeters>
          </Trackpoint>
          <Trackpoint>
            <Time>2021-04-03T14:25:46.000Z</Time>
            <Position>
              <LatitudeDegrees>42.321597374975681304931640625</LatitudeDegrees>
              <LongitudeDegrees>2.47887586243450641632080078125</LongitudeDegrees>
            </Position>
            <AltitudeMeters>558.5999755859375</AltitudeMeters>
            <DistanceMeters>NAN</DistanceMeters>
          </Trackpoint>
          <Trackpoint>
            <Time>2021-04-03T14:25:51.000Z</Time>
            <Position>
              <LatitudeDegrees>42.32162847183644771575927734375</LatitudeDegrees>
              <LongitudeDegrees>2.478834874927997589111328125</LongitudeDegrees>
            </Position>
            <AltitudeMeters>559.20001220703125</AltitudeMeters>
            <DistanceMeters>NAN</DistanceMeters>
          </Trackpoint>
          <Trackpoint>
            <Time>2021-04-03T14:25:54.000Z</Time>
            <Position>
              <LatitudeDegrees>42.32164506800472736358642578125</LatitudeDegrees>
              <LongitudeDegrees>2.47880646027624607086181640625</LongitudeDegrees>
            </Position>
            <AltitudeMeters>559.4000244140625</AltitudeMeters>
            <DistanceMeters>NAN</DistanceMeters>
          </Trackpoint>
          <Trackpoint>
            <Time>2021-04-03T14:26:00.000Z</Time>
            <Position>
              <LatitudeDegrees>42.321674488484859466552734375</LatitudeDegrees>
              <LongitudeDegrees>2.4787579290568828582763671875</LongitudeDegrees>
            </Position>
            <AltitudeMeters>559.79998779296875</AltitudeMeters>
            <DistanceMeters>NAN</DistanceMeters>
          </Trackpoint>
          <Trackpoint>
            <Time>2021-04-03T14:26:01.000Z</Time>
            <Position>
              <LatitudeDegrees>42.3216763325035572052001953125</LatitudeDegrees>
              <LongitudeDegrees>2.47875583358108997344970703125</LongitudeDegrees>
            </Position>
            <AltitudeMeters>559.79998779296875</AltitudeMeters>
            <DistanceMeters>NAN</DistanceMeters>
          </Trackpoint>
          <Trackpoint>
            <Time>2021-04-03T14:26:03.000Z</Time>
            <Position>
              <LatitudeDegrees>42.32167557813227176666259765625</LatitudeDegrees>
              <LongitudeDegrees>2.478757761418819427490234375</LongitudeDegrees>
            </Position>
            <AltitudeMeters>560</AltitudeMeters>
            <DistanceMeters>NAN</DistanceMeters>
          </Trackpoint>
          <Trackpoint>
            <Time>2021-04-03T14:26:10.000Z</Time>
            <Position>
              <LatitudeDegrees>42.3217061720788478851318359375</LatitudeDegrees>
              <LongitudeDegrees>2.47871057130396366119384765625</LongitudeDegrees>
            </Position>
            <AltitudeMeters>560.20001220703125</AltitudeMeters>
            <DistanceMeters>NAN</DistanceMeters>
          </Trackpoint>
          <Trackpoint>
            <Time>2021-04-03T14:26:11.000Z</Time>
            <Position>
              <LatitudeDegrees>42.3217148892581462860107421875</LatitudeDegrees>
              <LongitudeDegrees>2.47870646417140960693359375</LongitudeDegrees>
            </Position>
            <AltitudeMeters>560.20001220703125</AltitudeMeters>
            <DistanceMeters>NAN</DistanceMeters>
          </Trackpoint>
          <Trackpoint>
            <Time>2021-04-03T14:26:13.000Z</Time>
            <Position>
              <LatitudeDegrees>42.32173173688352108001708984375</LatitudeDegrees>
              <LongitudeDegrees>2.4786891974508762359619140625</LongitudeDegrees>
            </Position>
            <AltitudeMeters>560.4000244140625</AltitudeMeters>
            <DistanceMeters>NAN</DistanceMeters>
          </Trackpoint>
          <Trackpoint>
            <Time>2021-04-03T14:26:17.000Z</Time>
            <Position>
              <LatitudeDegrees>42.32175973244011402130126953125</LatitudeDegrees>
              <LongitudeDegrees>2.47864770703017711639404296875</LongitudeDegrees>
            </Position>
            <AltitudeMeters>560.5999755859375</AltitudeMeters>
            <DistanceMeters>NAN</DistanceMeters>
          </Trackpoint>
          <Trackpoint>
            <Time>2021-04-03T14:26:20.000Z</Time>
            <Position>
              <LatitudeDegrees>42.32178504578769207000732421875</LatitudeDegrees>
              <LongitudeDegrees>2.4786208011209964752197265625</LongitudeDegrees>
            </Position>
            <AltitudeMeters>560.79998779296875</AltitudeMeters>
            <DistanceMeters>NAN</DistanceMeters>
          </Trackpoint>
          <Trackpoint>
            <Time>2021-04-03T14:26:29.000Z</Time>
            <Position>
              <LatitudeDegrees>42.32183751650154590606689453125</LatitudeDegrees>
              <LongitudeDegrees>2.4785574339330196380615234375</LongitudeDegrees>
            </Position>
            <AltitudeMeters>561.20001220703125</AltitudeMeters>
            <DistanceMeters>NAN</DistanceMeters>
          </Trackpoint>
          <Trackpoint>
            <Time>2021-04-03T14:26:31.000Z</Time>
            <Position>
              <LatitudeDegrees>42.32184656895697116851806640625</LatitudeDegrees>
              <LongitudeDegrees>2.4785456992685794830322265625</LongitudeDegrees>
            </Position>
            <AltitudeMeters>561.20001220703125</AltitudeMeters>
            <DistanceMeters>NAN</DistanceMeters>
          </Trackpoint>
          <Trackpoint>
            <Time>2021-04-03T14:26:38.000Z</Time>
            <Position>
              <LatitudeDegrees>42.3218811862170696258544921875</LatitudeDegrees>
              <LongitudeDegrees>2.47849180363118648529052734375</LongitudeDegrees>
            </Position>
            <AltitudeMeters>561.79998779296875</AltitudeMeters>
            <DistanceMeters>NAN</DistanceMeters>
          </Trackpoint>
          <Trackpoint>
            <Time>2021-04-03T14:26:44.000Z</Time>
            <Position>
              <LatitudeDegrees>42.3218956030905246734619140625</LatitudeDegrees>
              <LongitudeDegrees>2.47845022939145565032958984375</LongitudeDegrees>
            </Position>
            <AltitudeMeters>562.20001220703125</AltitudeMeters>
            <DistanceMeters>NAN</DistanceMeters>
          </Trackpoint>
          <Trackpoint>
            <Time>2021-04-03T14:26:45.000Z</Time>
            <Position>
              <LatitudeDegrees>42.32189945876598358154296875</LatitudeDegrees>
              <LongitudeDegrees>2.4784417636692523956298828125</LongitudeDegrees>
            </Position>
            <AltitudeMeters>562.20001220703125</AltitudeMeters>
            <DistanceMeters>NAN</DistanceMeters>
          </Trackpoint>
          <Trackpoint>
            <Time>2021-04-03T14:26:49.000Z</Time>
            <Position>
              <LatitudeDegrees>42.3219083435833454132080078125</LatitudeDegrees>
              <LongitudeDegrees>2.47840614058077335357666015625</LongitudeDegrees>
            </Position>
            <AltitudeMeters>562.5999755859375</AltitudeMeters>
            <DistanceMeters>NAN</DistanceMeters>
          </Trackpoint>
          <Trackpoint>
            <Time>2021-04-03T14:26:53.000Z</Time>
            <Position>
              <LatitudeDegrees>42.32191781513392925262451171875</LatitudeDegrees>
              <LongitudeDegrees>2.4783763848245143890380859375</LongitudeDegrees>
            </Position>
            <AltitudeMeters>562.79998779296875</AltitudeMeters>
            <DistanceMeters>NAN</DistanceMeters>
          </Trackpoint>
          <Trackpoint>
            <Time>2021-04-03T14:26:57.000Z</Time>
            <Position>
              <LatitudeDegrees>42.3219016380608081817626953125</LatitudeDegrees>
              <LongitudeDegrees>2.4783552624285221099853515625</LongitudeDegrees>
            </Position>
            <AltitudeMeters>563.20001220703125</AltitudeMeters>
            <DistanceMeters>NAN</DistanceMeters>
          </Trackpoint>
          <Trackpoint>
            <Time>2021-04-03T14:26:59.000Z</Time>
            <Position>
              <LatitudeDegrees>42.321897447109222412109375</LatitudeDegrees>
              <LongitudeDegrees>2.4783502332866191864013671875</LongitudeDegrees>
            </Position>
            <AltitudeMeters>563.4000244140625</AltitudeMeters>
            <DistanceMeters>NAN</DistanceMeters>
          </Trackpoint>
          <Trackpoint>
            <Time>2021-04-03T14:27:07.000Z</Time>
            <Position>
              <LatitudeDegrees>42.3218815214931964874267578125</LatitudeDegrees>
              <LongitudeDegrees>2.47833640314638614654541015625</LongitudeDegrees>
            </Position>
            <AltitudeMeters>564.20001220703125</AltitudeMeters>
            <DistanceMeters>NAN</DistanceMeters>
          </Trackpoint>
          <Trackpoint>
            <Time>2021-04-03T14:27:09.000Z</Time>
            <Position>
              <LatitudeDegrees>42.321888394653797149658203125</LatitudeDegrees>
              <LongitudeDegrees>2.478327937424182891845703125</LongitudeDegrees>
            </Position>
            <AltitudeMeters>564.4000244140625</AltitudeMeters>
            <DistanceMeters>NAN</DistanceMeters>
          </Trackpoint>
          <Trackpoint>
            <Time>2021-04-03T14:27:14.000Z</Time>
            <Position>
              <LatitudeDegrees>42.32190473936498165130615234375</LatitudeDegrees>
              <LongitudeDegrees>2.47828762046992778778076171875</LongitudeDegrees>
            </Position>
            <AltitudeMeters>565.4000244140625</AltitudeMeters>
            <DistanceMeters>NAN</DistanceMeters>
          </Trackpoint>
          <Trackpoint>
            <Time>2021-04-03T14:27:15.000Z</Time>
            <Position>
              <LatitudeDegrees>42.321909852325916290283203125</LatitudeDegrees>
              <LongitudeDegrees>2.4782781489193439483642578125</LongitudeDegrees>
            </Position>
            <AltitudeMeters>565.4000244140625</AltitudeMeters>
            <DistanceMeters>NAN</DistanceMeters>
          </Trackpoint>
          <Trackpoint>
            <Time>2021-04-03T14:27:16.000Z</Time>
            <Position>
              <LatitudeDegrees>42.32191463001072406768798828125</LatitudeDegrees>
              <LongitudeDegrees>2.4782694317400455474853515625</LongitudeDegrees>
            </Position>
            <AltitudeMeters>565.5999755859375</AltitudeMeters>
            <DistanceMeters>NAN</DistanceMeters>
          </Trackpoint>
          <Trackpoint>
            <Time>2021-04-03T14:27:22.000Z</Time>
            <Position>
              <LatitudeDegrees>42.3219395242631435394287109375</LatitudeDegrees>
              <LongitudeDegrees>2.47820816002786159515380859375</LongitudeDegrees>
            </Position>
            <AltitudeMeters>565.79998779296875</AltitudeMeters>
            <DistanceMeters>NAN</DistanceMeters>
          </Trackpoint>
          <Trackpoint>
            <Time>2021-04-03T14:27:26.000Z</Time>
            <Position>
              <LatitudeDegrees>42.32195519842207431793212890625</LatitudeDegrees>
              <LongitudeDegrees>2.478176392614841461181640625</LongitudeDegrees>
            </Position>
            <AltitudeMeters>566</AltitudeMeters>
            <DistanceMeters>NAN</DistanceMeters>
          </Trackpoint>
          <Trackpoint>
            <Time>2021-04-03T14:27:28.000Z</Time>
            <Position>
              <LatitudeDegrees>42.32195788063108921051025390625</LatitudeDegrees>
              <LongitudeDegrees>2.4781758897006511688232421875</LongitudeDegrees>
            </Position>
            <AltitudeMeters>566</AltitudeMeters>
            <DistanceMeters>NAN</DistanceMeters>
          </Trackpoint>
          <Trackpoint>
            <Time>2021-04-03T14:27:35.000Z</Time>
            <Position>
              <LatitudeDegrees>42.3219589702785015106201171875</LatitudeDegrees>
              <LongitudeDegrees>2.4781255982816219329833984375</LongitudeDegrees>
            </Position>
            <AltitudeMeters>566.20001220703125</AltitudeMeters>
            <DistanceMeters>NAN</DistanceMeters>
          </Trackpoint>
          <Trackpoint>
            <Time>2021-04-03T14:27:40.000Z</Time>
            <Position>
              <LatitudeDegrees>42.321956790983676910400390625</LatitudeDegrees>
              <LongitudeDegrees>2.47809089720249176025390625</LongitudeDegrees>
            </Position>
            <AltitudeMeters>566.5999755859375</AltitudeMeters>
            <DistanceMeters>NAN</DistanceMeters>
          </Trackpoint>
          <Trackpoint>
            <Time>2021-04-03T14:27:43.000Z</Time>
            <Position>
              <LatitudeDegrees>42.3219546116888523101806640625</LatitudeDegrees>
              <LongitudeDegrees>2.47804923914372920989990234375</LongitudeDegrees>
            </Position>
            <AltitudeMeters>566.5999755859375</AltitudeMeters>
            <DistanceMeters>NAN</DistanceMeters>
          </Trackpoint>
          <Trackpoint>
            <Time>2021-04-03T14:27:46.000Z</Time>
            <Position>
              <LatitudeDegrees>42.32195167802274227142333984375</LatitudeDegrees>
              <LongitudeDegrees>2.4780325591564178466796875</LongitudeDegrees>
            </Position>
            <AltitudeMeters>567</AltitudeMeters>
            <DistanceMeters>NAN</DistanceMeters>
          </Trackpoint>
          <Trackpoint>
            <Time>2021-04-03T14:27:49.000Z</Time>
            <Position>
              <LatitudeDegrees>42.32196173630654811859130859375</LatitudeDegrees>
              <LongitudeDegrees>2.478009425103664398193359375</LongitudeDegrees>
            </Position>
            <AltitudeMeters>567.5999755859375</AltitudeMeters>
            <DistanceMeters>NAN</DistanceMeters>
          </Trackpoint>
          <Trackpoint>
            <Time>2021-04-03T14:27:50.000Z</Time>
            <Position>
              <LatitudeDegrees>42.32196274213492870330810546875</LatitudeDegrees>
              <LongitudeDegrees>2.47799626551568508148193359375</LongitudeDegrees>
            </Position>
            <AltitudeMeters>567.5999755859375</AltitudeMeters>
            <DistanceMeters>NAN</DistanceMeters>
          </Trackpoint>
          <Trackpoint>
            <Time>2021-04-03T14:27:54.000Z</Time>
            <Position>
              <LatitudeDegrees>42.3219767399132251739501953125</LatitudeDegrees>
              <LongitudeDegrees>2.4779415316879749298095703125</LongitudeDegrees>
            </Position>
            <AltitudeMeters>568.20001220703125</AltitudeMeters>
            <DistanceMeters>NAN</DistanceMeters>
          </Trackpoint>
          <Trackpoint>
            <Time>2021-04-03T14:27:56.000Z</Time>
            <Position>
              <LatitudeDegrees>42.32198084704577922821044921875</LatitudeDegrees>
              <LongitudeDegrees>2.4779172241687774658203125</LongitudeDegrees>
            </Position>
            <AltitudeMeters>568.5999755859375</AltitudeMeters>
            <DistanceMeters>NAN</DistanceMeters>
          </Trackpoint>
          <Trackpoint>
            <Time>2021-04-03T14:27:58.000Z</Time>
            <Position>
              <LatitudeDegrees>42.3219854570925235748291015625</LatitudeDegrees>
              <LongitudeDegrees>2.47789685614407062530517578125</LongitudeDegrees>
            </Position>
            <AltitudeMeters>569</AltitudeMeters>
            <DistanceMeters>NAN</DistanceMeters>
          </Trackpoint>
          <Trackpoint>
            <Time>2021-04-03T14:27:59.000Z</Time>
            <Position>
              <LatitudeDegrees>42.3219894804060459136962890625</LatitudeDegrees>
              <LongitudeDegrees>2.47788880951702594757080078125</LongitudeDegrees>
            </Position>
            <AltitudeMeters>569.20001220703125</AltitudeMeters>
            <DistanceMeters>NAN</DistanceMeters>
          </Trackpoint>
          <Trackpoint>
            <Time>2021-04-03T14:28:02.000Z</Time>
            <Position>
              <LatitudeDegrees>42.321999371051788330078125</LatitudeDegrees>
              <LongitudeDegrees>2.477851845324039459228515625</LongitudeDegrees>
            </Position>
            <AltitudeMeters>569.4000244140625</AltitudeMeters>
            <DistanceMeters>NAN</DistanceMeters>
          </Trackpoint>
          <Trackpoint>
            <Time>2021-04-03T14:28:04.000Z</Time>
            <Position>
              <LatitudeDegrees>42.3219966888427734375</LatitudeDegrees>
              <LongitudeDegrees>2.4778448045253753662109375</LongitudeDegrees>
            </Position>
            <AltitudeMeters>569.5999755859375</AltitudeMeters>
            <DistanceMeters>NAN</DistanceMeters>
          </Trackpoint>
          <Trackpoint>
            <Time>2021-04-03T14:28:06.000Z</Time>
            <Position>
              <LatitudeDegrees>42.32199694029986858367919921875</LatitudeDegrees>
              <LongitudeDegrees>2.47782896272838115692138671875</LongitudeDegrees>
            </Position>
            <AltitudeMeters>569.79998779296875</AltitudeMeters>
            <DistanceMeters>NAN</DistanceMeters>
          </Trackpoint>
          <Trackpoint>
            <Time>2021-04-03T14:28:11.000Z</Time>
            <Position>
              <LatitudeDegrees>42.32200532220304012298583984375</LatitudeDegrees>
              <LongitudeDegrees>2.47778168879449367523193359375</LongitudeDegrees>
            </Position>
            <AltitudeMeters>570.4000244140625</AltitudeMeters>
            <DistanceMeters>NAN</DistanceMeters>
          </Trackpoint>
          <Trackpoint>
            <Time>2021-04-03T14:28:12.000Z</Time>
            <Position>
              <LatitudeDegrees>42.32200942933559417724609375</LatitudeDegrees>
              <LongitudeDegrees>2.47777263633906841278076171875</LongitudeDegrees>
            </Position>
            <AltitudeMeters>570.5999755859375</AltitudeMeters>
            <DistanceMeters>NAN</DistanceMeters>
          </Trackpoint>
          <Trackpoint>
            <Time>2021-04-03T14:28:14.000Z</Time>
            <Position>
              <LatitudeDegrees>42.322008423507213592529296875</LatitudeDegrees>
              <LongitudeDegrees>2.4777507595717906951904296875</LongitudeDegrees>
            </Position>
            <AltitudeMeters>570.5999755859375</AltitudeMeters>
            <DistanceMeters>NAN</DistanceMeters>
          </Trackpoint>
          <Trackpoint>
            <Time>2021-04-03T14:28:15.000Z</Time>
            <Position>
              <LatitudeDegrees>42.32200766913592815399169921875</LatitudeDegrees>
              <LongitudeDegrees>2.477741539478302001953125</LongitudeDegrees>
            </Position>
            <AltitudeMeters>570.79998779296875</AltitudeMeters>
            <DistanceMeters>NAN</DistanceMeters>
          </Trackpoint>
          <Trackpoint>
            <Time>2021-04-03T14:28:16.000Z</Time>
            <Position>
              <LatitudeDegrees>42.322008423507213592529296875</LatitudeDegrees>
              <LongitudeDegrees>2.477732487022876739501953125</LongitudeDegrees>
            </Position>
            <AltitudeMeters>570.79998779296875</AltitudeMeters>
            <DistanceMeters>NAN</DistanceMeters>
          </Trackpoint>
          <Trackpoint>
            <Time>2021-04-03T14:28:20.000Z</Time>
            <Position>
              <LatitudeDegrees>42.3220126144587993621826171875</LatitudeDegrees>
              <LongitudeDegrees>2.47770004905760288238525390625</LongitudeDegrees>
            </Position>
            <AltitudeMeters>571.20001220703125</AltitudeMeters>
            <DistanceMeters>NAN</DistanceMeters>
          </Trackpoint>
          <Trackpoint>
            <Time>2021-04-03T14:28:21.000Z</Time>
            <Position>
              <LatitudeDegrees>42.32201437465846538543701171875</LatitudeDegrees>
              <LongitudeDegrees>2.4776920862495899200439453125</LongitudeDegrees>
            </Position>
            <AltitudeMeters>571.20001220703125</AltitudeMeters>
            <DistanceMeters>NAN</DistanceMeters>
          </Trackpoint>
          <Trackpoint>
            <Time>2021-04-03T14:28:23.000Z</Time>
            <Position>
              <LatitudeDegrees>42.32201705686748027801513671875</LatitudeDegrees>
              <LongitudeDegrees>2.47768060304224491119384765625</LongitudeDegrees>
            </Position>
            <AltitudeMeters>571.4000244140625</AltitudeMeters>
            <DistanceMeters>NAN</DistanceMeters>
          </Trackpoint>
          <Trackpoint>
            <Time>2021-04-03T14:28:24.000Z</Time>
            <Position>
              <LatitudeDegrees>42.32201906852424144744873046875</LatitudeDegrees>
              <LongitudeDegrees>2.47767783701419830322265625</LongitudeDegrees>
            </Position>
            <AltitudeMeters>571.4000244140625</AltitudeMeters>
            <DistanceMeters>NAN</DistanceMeters>
          </Trackpoint>
          <Trackpoint>
            <Time>2021-04-03T14:28:29.000Z</Time>
            <Position>
              <LatitudeDegrees>42.3220139555633068084716796875</LatitudeDegrees>
              <LongitudeDegrees>2.47763265855610370635986328125</LongitudeDegrees>
            </Position>
            <AltitudeMeters>571.79998779296875</AltitudeMeters>
            <DistanceMeters>NAN</DistanceMeters>
          </Trackpoint>
          <Trackpoint>
            <Time>2021-04-03T14:28:30.000Z</Time>
            <Position>
              <LatitudeDegrees>42.322015799582004547119140625</LatitudeDegrees>
              <LongitudeDegrees>2.47762075625360012054443359375</LongitudeDegrees>
            </Position>
            <AltitudeMeters>571.79998779296875</AltitudeMeters>
            <DistanceMeters>NAN</DistanceMeters>
          </Trackpoint>
          <Trackpoint>
            <Time>2021-04-03T14:28:32.000Z</Time>
            <Position>
              <LatitudeDegrees>42.322016470134258270263671875</LatitudeDegrees>
              <LongitudeDegrees>2.477602064609527587890625</LongitudeDegrees>
            </Position>
            <AltitudeMeters>572</AltitudeMeters>
            <DistanceMeters>NAN</DistanceMeters>
          </Trackpoint>
          <Trackpoint>
            <Time>2021-04-03T14:28:37.000Z</Time>
            <Position>
              <LatitudeDegrees>42.32202543877065181732177734375</LatitudeDegrees>
              <LongitudeDegrees>2.4775623343884944915771484375</LongitudeDegrees>
            </Position>
            <AltitudeMeters>573</AltitudeMeters>
            <DistanceMeters>NAN</DistanceMeters>
          </Trackpoint>
          <Trackpoint>
            <Time>2021-04-03T14:28:44.000Z</Time>
            <Position>
              <LatitudeDegrees>42.32204287312924861907958984375</LatitudeDegrees>
              <LongitudeDegrees>2.47750776819884777069091796875</LongitudeDegrees>
            </Position>
            <AltitudeMeters>574</AltitudeMeters>
            <DistanceMeters>NAN</DistanceMeters>
          </Trackpoint>
          <Trackpoint>
            <Time>2021-04-03T14:28:45.000Z</Time>
            <Position>
              <LatitudeDegrees>42.32204295694828033447265625</LatitudeDegrees>
              <LongitudeDegrees>2.47749687172472476959228515625</LongitudeDegrees>
            </Position>
            <AltitudeMeters>574.20001220703125</AltitudeMeters>
            <DistanceMeters>NAN</DistanceMeters>
          </Trackpoint>
          <Trackpoint>
            <Time>2021-04-03T14:28:46.000Z</Time>
            <Position>
              <LatitudeDegrees>42.32203884981572628021240234375</LatitudeDegrees>
              <LongitudeDegrees>2.47748614288866519927978515625</LongitudeDegrees>
            </Position>
            <AltitudeMeters>574.20001220703125</AltitudeMeters>
            <DistanceMeters>NAN</DistanceMeters>
          </Trackpoint>
          <Trackpoint>
            <Time>2021-04-03T14:28:54.000Z</Time>
            <Position>
              <LatitudeDegrees>42.32202510349452495574951171875</LatitudeDegrees>
              <LongitudeDegrees>2.4774047546088695526123046875</LongitudeDegrees>
            </Position>
            <AltitudeMeters>574.79998779296875</AltitudeMeters>
            <DistanceMeters>NAN</DistanceMeters>
          </Trackpoint>
          <Trackpoint>
            <Time>2021-04-03T14:28:56.000Z</Time>
            <Position>
              <LatitudeDegrees>42.3220230080187320709228515625</LatitudeDegrees>
              <LongitudeDegrees>2.4773940257728099822998046875</LongitudeDegrees>
            </Position>
            <AltitudeMeters>575</AltitudeMeters>
            <DistanceMeters>NAN</DistanceMeters>
          </Trackpoint>
          <Trackpoint>
            <Time>2021-04-03T14:29:00.000Z</Time>
            <Position>
              <LatitudeDegrees>42.32202091254293918609619140625</LatitudeDegrees>
              <LongitudeDegrees>2.47736175544559955596923828125</LongitudeDegrees>
            </Position>
            <AltitudeMeters>575.5999755859375</AltitudeMeters>
            <DistanceMeters>NAN</DistanceMeters>
          </Trackpoint>
          <Trackpoint>
            <Time>2021-04-03T14:29:01.000Z</Time>
            <Position>
              <LatitudeDegrees>42.32202359475195407867431640625</LatitudeDegrees>
              <LongitudeDegrees>2.47735119424760341644287109375</LongitudeDegrees>
            </Position>
            <AltitudeMeters>575.5999755859375</AltitudeMeters>
            <DistanceMeters>NAN</DistanceMeters>
          </Trackpoint>
          <Trackpoint>
            <Time>2021-04-03T14:29:05.000Z</Time>
            <Position>
              <LatitudeDegrees>42.32202242128551006317138671875</LatitudeDegrees>
              <LongitudeDegrees>2.4773216061294078826904296875</LongitudeDegrees>
            </Position>
            <AltitudeMeters>575.79998779296875</AltitudeMeters>
            <DistanceMeters>NAN</DistanceMeters>
          </Trackpoint>
          <Trackpoint>
            <Time>2021-04-03T14:29:09.000Z</Time>
            <Position>
              <LatitudeDegrees>42.32202627696096897125244140625</LatitudeDegrees>
              <LongitudeDegrees>2.4772988073527812957763671875</LongitudeDegrees>
            </Position>
            <AltitudeMeters>576.20001220703125</AltitudeMeters>
            <DistanceMeters>NAN</DistanceMeters>
          </Trackpoint>
          <Trackpoint>
            <Time>2021-04-03T14:29:11.000Z</Time>
            <Position>
              <LatitudeDegrees>42.3220260255038738250732421875</LatitudeDegrees>
              <LongitudeDegrees>2.4772961251437664031982421875</LongitudeDegrees>
            </Position>
            <AltitudeMeters>576.4000244140625</AltitudeMeters>
            <DistanceMeters>NAN</DistanceMeters>
          </Trackpoint>
          <Trackpoint>
            <Time>2021-04-03T14:29:16.000Z</Time>
            <Position>
              <LatitudeDegrees>42.3220270313322544097900390625</LatitudeDegrees>
              <LongitudeDegrees>2.47728128917515277862548828125</LongitudeDegrees>
            </Position>
            <AltitudeMeters>576.5999755859375</AltitudeMeters>
            <DistanceMeters>NAN</DistanceMeters>
          </Trackpoint>
          <Trackpoint>
            <Time>2021-04-03T14:29:20.000Z</Time>
            <Position>
              <LatitudeDegrees>42.3220266960561275482177734375</LatitudeDegrees>
              <LongitudeDegrees>2.47724390588700771331787109375</LongitudeDegrees>
            </Position>
            <AltitudeMeters>577.4000244140625</AltitudeMeters>
            <DistanceMeters>NAN</DistanceMeters>
          </Trackpoint>
          <Trackpoint>
            <Time>2021-04-03T14:29:23.000Z</Time>
            <Position>
              <LatitudeDegrees>42.32203767634928226470947265625</LatitudeDegrees>
              <LongitudeDegrees>2.4772159941494464874267578125</LongitudeDegrees>
            </Position>
            <AltitudeMeters>577.79998779296875</AltitudeMeters>
            <DistanceMeters>NAN</DistanceMeters>
          </Trackpoint>
          <Trackpoint>
            <Time>2021-04-03T14:29:26.000Z</Time>
            <Position>
              <LatitudeDegrees>42.322038598358631134033203125</LatitudeDegrees>
              <LongitudeDegrees>2.47719562612473964691162109375</LongitudeDegrees>
            </Position>
            <AltitudeMeters>578</AltitudeMeters>
            <DistanceMeters>NAN</DistanceMeters>
          </Trackpoint>
          <Trackpoint>
            <Time>2021-04-03T14:29:28.000Z</Time>
            <Position>
              <LatitudeDegrees>42.32203616760671138763427734375</LatitudeDegrees>
              <LongitudeDegrees>2.47717685066163539886474609375</LongitudeDegrees>
            </Position>
            <AltitudeMeters>578.20001220703125</AltitudeMeters>
            <DistanceMeters>NAN</DistanceMeters>
          </Trackpoint>
          <Trackpoint>
            <Time>2021-04-03T14:29:30.000Z</Time>
            <Position>
              <LatitudeDegrees>42.32202644459903240203857421875</LatitudeDegrees>
              <LongitudeDegrees>2.47716151177883148193359375</LongitudeDegrees>
            </Position>
            <AltitudeMeters>578.4000244140625</AltitudeMeters>
            <DistanceMeters>NAN</DistanceMeters>
          </Trackpoint>
          <Trackpoint>
            <Time>2021-04-03T14:29:33.000Z</Time>
            <Position>
              <LatitudeDegrees>42.322007082402706146240234375</LatitudeDegrees>
              <LongitudeDegrees>2.477135695517063140869140625</LongitudeDegrees>
            </Position>
            <AltitudeMeters>578.79998779296875</AltitudeMeters>
            <DistanceMeters>NAN</DistanceMeters>
          </Trackpoint>
          <Trackpoint>
            <Time>2021-04-03T14:29:39.000Z</Time>
            <Position>
              <LatitudeDegrees>42.32198302634060382843017578125</LatitudeDegrees>
              <LongitudeDegrees>2.47708314098417758941650390625</LongitudeDegrees>
            </Position>
            <AltitudeMeters>579.4000244140625</AltitudeMeters>
            <DistanceMeters>NAN</DistanceMeters>
          </Trackpoint>
          <Trackpoint>
            <Time>2021-04-03T14:29:40.000Z</Time>
            <Position>
              <LatitudeDegrees>42.32197866775095462799072265625</LatitudeDegrees>
              <LongitudeDegrees>2.4770724959671497344970703125</LongitudeDegrees>
            </Position>
            <AltitudeMeters>579.5999755859375</AltitudeMeters>
            <DistanceMeters>NAN</DistanceMeters>
          </Trackpoint>
          <Trackpoint>
            <Time>2021-04-03T14:29:46.000Z</Time>
            <Position>
              <LatitudeDegrees>42.32195980846881866455078125</LatitudeDegrees>
              <LongitudeDegrees>2.47702815569937229156494140625</LongitudeDegrees>
            </Position>
            <AltitudeMeters>580.4000244140625</AltitudeMeters>
            <DistanceMeters>NAN</DistanceMeters>
          </Trackpoint>
          <Trackpoint>
            <Time>2021-04-03T14:29:47.000Z</Time>
            <Position>
              <LatitudeDegrees>42.3219626583158969879150390625</LatitudeDegrees>
              <LongitudeDegrees>2.47701524756848812103271484375</LongitudeDegrees>
            </Position>
            <AltitudeMeters>580.4000244140625</AltitudeMeters>
            <DistanceMeters>NAN</DistanceMeters>
          </Trackpoint>
          <Trackpoint>
            <Time>2021-04-03T14:29:51.000Z</Time>
            <Position>
              <LatitudeDegrees>42.32197514735162258148193359375</LatitudeDegrees>
              <LongitudeDegrees>2.47696436941623687744140625</LongitudeDegrees>
            </Position>
            <AltitudeMeters>580.4000244140625</AltitudeMeters>
            <DistanceMeters>NAN</DistanceMeters>
          </Trackpoint>
          <Trackpoint>
            <Time>2021-04-03T14:29:56.000Z</Time>
            <Position>
              <LatitudeDegrees>42.32197590172290802001953125</LatitudeDegrees>
              <LongitudeDegrees>2.4769072048366069793701171875</LongitudeDegrees>
            </Position>
            <AltitudeMeters>580</AltitudeMeters>
            <DistanceMeters>NAN</DistanceMeters>
          </Trackpoint>
          <Trackpoint>
            <Time>2021-04-03T14:30:01.000Z</Time>
            <Position>
              <LatitudeDegrees>42.321980260312557220458984375</LatitudeDegrees>
              <LongitudeDegrees>2.4768780358135700225830078125</LongitudeDegrees>
            </Position>
            <AltitudeMeters>580</AltitudeMeters>
            <DistanceMeters>NAN</DistanceMeters>
          </Trackpoint>
          <Trackpoint>
            <Time>2021-04-03T14:30:02.000Z</Time>
            <Position>
              <LatitudeDegrees>42.32198319397866725921630859375</LatitudeDegrees>
              <LongitudeDegrees>2.47687543742358684539794921875</LongitudeDegrees>
            </Position>
            <AltitudeMeters>580</AltitudeMeters>
            <DistanceMeters>NAN</DistanceMeters>
          </Trackpoint>
          <Trackpoint>
            <Time>2021-04-03T14:30:06.000Z</Time>
            <Position>
              <LatitudeDegrees>42.32200406491756439208984375</LatitudeDegrees>
              <LongitudeDegrees>2.47684543021023273468017578125</LongitudeDegrees>
            </Position>
            <AltitudeMeters>579.4000244140625</AltitudeMeters>
            <DistanceMeters>NAN</DistanceMeters>
          </Trackpoint>
          <Trackpoint>
            <Time>2021-04-03T14:30:08.000Z</Time>
            <Position>
              <LatitudeDegrees>42.32199995778501033782958984375</LatitudeDegrees>
              <LongitudeDegrees>2.47682447545230388641357421875</LongitudeDegrees>
            </Position>
            <AltitudeMeters>579</AltitudeMeters>
            <DistanceMeters>NAN</DistanceMeters>
          </Trackpoint>
          <Trackpoint>
            <Time>2021-04-03T14:30:13.000Z</Time>
            <Position>
              <LatitudeDegrees>42.32200515456497669219970703125</LatitudeDegrees>
              <LongitudeDegrees>2.47678575105965137481689453125</LongitudeDegrees>
            </Position>
            <AltitudeMeters>578.5999755859375</AltitudeMeters>
            <DistanceMeters>NAN</DistanceMeters>
          </Trackpoint>
          <Trackpoint>
            <Time>2021-04-03T14:30:15.000Z</Time>
            <Position>
              <LatitudeDegrees>42.32200498692691326141357421875</LatitudeDegrees>
              <LongitudeDegrees>2.476756162941455841064453125</LongitudeDegrees>
            </Position>
            <AltitudeMeters>578.5999755859375</AltitudeMeters>
            <DistanceMeters>NAN</DistanceMeters>
          </Trackpoint>
          <Trackpoint>
            <Time>2021-04-03T14:30:17.000Z</Time>
            <Position>
              <LatitudeDegrees>42.32199861668050289154052734375</LatitudeDegrees>
              <LongitudeDegrees>2.4767435900866985321044921875</LongitudeDegrees>
            </Position>
            <AltitudeMeters>578.5999755859375</AltitudeMeters>
            <DistanceMeters>NAN</DistanceMeters>
          </Trackpoint>
          <Trackpoint>
            <Time>2021-04-03T14:30:21.000Z</Time>
            <Position>
              <LatitudeDegrees>42.32198118232190608978271484375</LatitudeDegrees>
              <LongitudeDegrees>2.4767150916159152984619140625</LongitudeDegrees>
            </Position>
            <AltitudeMeters>578.79998779296875</AltitudeMeters>
            <DistanceMeters>NAN</DistanceMeters>
          </Trackpoint>
          <Trackpoint>
            <Time>2021-04-03T14:30:22.000Z</Time>
            <Position>
              <LatitudeDegrees>42.3219824396073818206787109375</LatitudeDegrees>
              <LongitudeDegrees>2.47669857926666736602783203125</LongitudeDegrees>
            </Position>
            <AltitudeMeters>578.79998779296875</AltitudeMeters>
            <DistanceMeters>NAN</DistanceMeters>
          </Trackpoint>
          <Trackpoint>
            <Time>2021-04-03T14:30:29.000Z</Time>
            <Position>
              <LatitudeDegrees>42.32199610210955142974853515625</LatitudeDegrees>
              <LongitudeDegrees>2.4766780436038970947265625</LongitudeDegrees>
            </Position>
            <AltitudeMeters>578.79998779296875</AltitudeMeters>
            <DistanceMeters>NAN</DistanceMeters>
          </Trackpoint>
          <Trackpoint>
            <Time>2021-04-03T14:30:30.000Z</Time>
            <Position>
              <LatitudeDegrees>42.32199761085212230682373046875</LatitudeDegrees>
              <LongitudeDegrees>2.4766768701374530792236328125</LongitudeDegrees>
            </Position>
            <AltitudeMeters>578.79998779296875</AltitudeMeters>
            <DistanceMeters>NAN</DistanceMeters>
          </Trackpoint>
          <Trackpoint>
            <Time>2021-04-03T14:30:37.000Z</Time>
            <Position>
              <LatitudeDegrees>42.3220166377723217010498046875</LatitudeDegrees>
              <LongitudeDegrees>2.476614676415920257568359375</LongitudeDegrees>
            </Position>
            <AltitudeMeters>578.79998779296875</AltitudeMeters>
            <DistanceMeters>NAN</DistanceMeters>
          </Trackpoint>
          <Trackpoint>
            <Time>2021-04-03T14:30:41.000Z</Time>
            <Position>
              <LatitudeDegrees>42.32202409766614437103271484375</LatitudeDegrees>
              <LongitudeDegrees>2.4766017682850360870361328125</LongitudeDegrees>
            </Position>
            <AltitudeMeters>578.4000244140625</AltitudeMeters>
            <DistanceMeters>NAN</DistanceMeters>
          </Trackpoint>
          <Trackpoint>
            <Time>2021-04-03T14:30:43.000Z</Time>
            <Position>
              <LatitudeDegrees>42.32202728278934955596923828125</LatitudeDegrees>
              <LongitudeDegrees>2.47658156789839267730712890625</LongitudeDegrees>
            </Position>
            <AltitudeMeters>578.20001220703125</AltitudeMeters>
            <DistanceMeters>NAN</DistanceMeters>
          </Trackpoint>
          <Trackpoint>
            <Time>2021-04-03T14:30:46.000Z</Time>
            <Position>
              <LatitudeDegrees>42.32203214429318904876708984375</LatitudeDegrees>
              <LongitudeDegrees>2.4765561707317829132080078125</LongitudeDegrees>
            </Position>
            <AltitudeMeters>577.5999755859375</AltitudeMeters>
            <DistanceMeters>NAN</DistanceMeters>
          </Trackpoint>
          <Trackpoint>
            <Time>2021-04-03T14:30:49.000Z</Time>
            <Position>
              <LatitudeDegrees>42.32203650288283824920654296875</LatitudeDegrees>
              <LongitudeDegrees>2.4765457771718502044677734375</LongitudeDegrees>
            </Position>
            <AltitudeMeters>577.20001220703125</AltitudeMeters>
            <DistanceMeters>NAN</DistanceMeters>
          </Trackpoint>
          <Trackpoint>
            <Time>2021-04-03T14:30:52.000Z</Time>
            <Position>
              <LatitudeDegrees>42.32204237021505832672119140625</LatitudeDegrees>
              <LongitudeDegrees>2.47652272693812847137451171875</LongitudeDegrees>
            </Position>
            <AltitudeMeters>576.79998779296875</AltitudeMeters>
            <DistanceMeters>NAN</DistanceMeters>
          </Trackpoint>
          <Trackpoint>
            <Time>2021-04-03T14:30:55.000Z</Time>
            <Position>
              <LatitudeDegrees>42.32204773463308811187744140625</LatitudeDegrees>
              <LongitudeDegrees>2.47650428675115108489990234375</LongitudeDegrees>
            </Position>
            <AltitudeMeters>576.4000244140625</AltitudeMeters>
            <DistanceMeters>NAN</DistanceMeters>
          </Trackpoint>
          <Trackpoint>
            <Time>2021-04-03T14:30:56.000Z</Time>
            <Position>
              <LatitudeDegrees>42.3220489919185638427734375</LatitudeDegrees>
              <LongitudeDegrees>2.476495318114757537841796875</LongitudeDegrees>
            </Position>
            <AltitudeMeters>576.20001220703125</AltitudeMeters>
            <DistanceMeters>NAN</DistanceMeters>
          </Trackpoint>
          <Trackpoint>
            <Time>2021-04-03T14:30:58.000Z</Time>
            <Position>
              <LatitudeDegrees>42.3220525123178958892822265625</LatitudeDegrees>
              <LongitudeDegrees>2.4764827452600002288818359375</LongitudeDegrees>
            </Position>
            <AltitudeMeters>576</AltitudeMeters>
            <DistanceMeters>NAN</DistanceMeters>
          </Trackpoint>
          <Trackpoint>
            <Time>2021-04-03T14:31:01.000Z</Time>
            <Position>
              <LatitudeDegrees>42.32207204215228557586669921875</LatitudeDegrees>
              <LongitudeDegrees>2.47647025622427463531494140625</LongitudeDegrees>
            </Position>
            <AltitudeMeters>575.79998779296875</AltitudeMeters>
            <DistanceMeters>NAN</DistanceMeters>
          </Trackpoint>
          <Trackpoint>
            <Time>2021-04-03T14:31:02.000Z</Time>
            <Position>
              <LatitudeDegrees>42.3220769874751567840576171875</LatitudeDegrees>
              <LongitudeDegrees>2.4764661490917205810546875</LongitudeDegrees>
            </Position>
            <AltitudeMeters>575.5999755859375</AltitudeMeters>
            <DistanceMeters>NAN</DistanceMeters>
          </Trackpoint>
          <Trackpoint>
            <Time>2021-04-03T14:31:05.000Z</Time>
            <Position>
              <LatitudeDegrees>42.3220838606357574462890625</LatitudeDegrees>
              <LongitudeDegrees>2.47644645161926746368408203125</LongitudeDegrees>
            </Position>
            <AltitudeMeters>575.20001220703125</AltitudeMeters>
            <DistanceMeters>NAN</DistanceMeters>
          </Trackpoint>
          <Trackpoint>
            <Time>2021-04-03T14:31:06.000Z</Time>
            <Position>
              <LatitudeDegrees>42.3220756463706493377685546875</LatitudeDegrees>
              <LongitudeDegrees>2.47643488459289073944091796875</LongitudeDegrees>
            </Position>
            <AltitudeMeters>575.20001220703125</AltitudeMeters>
            <DistanceMeters>NAN</DistanceMeters>
          </Trackpoint>
          <Trackpoint>
            <Time>2021-04-03T14:31:09.000Z</Time>
            <Position>
              <LatitudeDegrees>42.3220803402364253997802734375</LatitudeDegrees>
              <LongitudeDegrees>2.47640487737953662872314453125</LongitudeDegrees>
            </Position>
            <AltitudeMeters>574.79998779296875</AltitudeMeters>
            <DistanceMeters>NAN</DistanceMeters>
          </Trackpoint>
          <Trackpoint>
            <Time>2021-04-03T14:31:16.000Z</Time>
            <Position>
              <LatitudeDegrees>42.322112023830413818359375</LatitudeDegrees>
              <LongitudeDegrees>2.47633136808872222900390625</LongitudeDegrees>
            </Position>
            <AltitudeMeters>574</AltitudeMeters>
            <DistanceMeters>NAN</DistanceMeters>
          </Trackpoint>
          <Trackpoint>
            <Time>2021-04-03T14:31:17.000Z</Time>
            <Position>
              <LatitudeDegrees>42.3221145384013652801513671875</LatitudeDegrees>
              <LongitudeDegrees>2.476319968700408935546875</LongitudeDegrees>
            </Position>
            <AltitudeMeters>574</AltitudeMeters>
            <DistanceMeters>NAN</DistanceMeters>
          </Trackpoint>
          <Trackpoint>
            <Time>2021-04-03T14:31:22.000Z</Time>
            <Position>
              <LatitudeDegrees>42.32214127667248249053955078125</LatitudeDegrees>
              <LongitudeDegrees>2.47627663426101207733154296875</LongitudeDegrees>
            </Position>
            <AltitudeMeters>573.5999755859375</AltitudeMeters>
            <DistanceMeters>NAN</DistanceMeters>
          </Trackpoint>
          <Trackpoint>
            <Time>2021-04-03T14:31:24.000Z</Time>
            <Position>
              <LatitudeDegrees>42.32215167023241519927978515625</LatitudeDegrees>
              <LongitudeDegrees>2.47626473195850849151611328125</LongitudeDegrees>
            </Position>
            <AltitudeMeters>573.4000244140625</AltitudeMeters>
            <DistanceMeters>NAN</DistanceMeters>
          </Trackpoint>
          <Trackpoint>
            <Time>2021-04-03T14:31:26.000Z</Time>
            <Position>
              <LatitudeDegrees>42.3221567831933498382568359375</LatitudeDegrees>
              <LongitudeDegrees>2.47625802643597126007080078125</LongitudeDegrees>
            </Position>
            <AltitudeMeters>573.4000244140625</AltitudeMeters>
            <DistanceMeters>NAN</DistanceMeters>
          </Trackpoint>
          <Trackpoint>
            <Time>2021-04-03T14:31:28.000Z</Time>
            <Position>
              <LatitudeDegrees>42.32216298580169677734375</LatitudeDegrees>
              <LongitudeDegrees>2.4762475490570068359375</LongitudeDegrees>
            </Position>
            <AltitudeMeters>573.20001220703125</AltitudeMeters>
            <DistanceMeters>NAN</DistanceMeters>
          </Trackpoint>
          <Trackpoint>
            <Time>2021-04-03T14:31:35.000Z</Time>
            <Position>
              <LatitudeDegrees>42.3221591301262378692626953125</LatitudeDegrees>
              <LongitudeDegrees>2.4762301146984100341796875</LongitudeDegrees>
            </Position>
            <AltitudeMeters>573.4000244140625</AltitudeMeters>
            <DistanceMeters>NAN</DistanceMeters>
          </Trackpoint>
          <Trackpoint>
            <Time>2021-04-03T14:31:36.000Z</Time>
            <Position>
              <LatitudeDegrees>42.3221571184694766998291015625</LatitudeDegrees>
              <LongitudeDegrees>2.4762252531945705413818359375</LongitudeDegrees>
            </Position>
            <AltitudeMeters>573.4000244140625</AltitudeMeters>
            <DistanceMeters>NAN</DistanceMeters>
          </Trackpoint>
          <Trackpoint>
            <Time>2021-04-03T14:31:42.000Z</Time>
            <Position>
              <LatitudeDegrees>42.32215418480336666107177734375</LatitudeDegrees>
              <LongitudeDegrees>2.4762262590229511260986328125</LongitudeDegrees>
            </Position>
            <AltitudeMeters>574.5999755859375</AltitudeMeters>
            <DistanceMeters>NAN</DistanceMeters>
          </Trackpoint>
          <Trackpoint>
            <Time>2021-04-03T14:31:43.000Z</Time>
            <Position>
              <LatitudeDegrees>42.32215200550854206085205078125</LatitudeDegrees>
              <LongitudeDegrees>2.47622265480458736419677734375</LongitudeDegrees>
            </Position>
            <AltitudeMeters>574.5999755859375</AltitudeMeters>
            <DistanceMeters>NAN</DistanceMeters>
          </Trackpoint>
          <Trackpoint>
            <Time>2021-04-03T14:31:47.000Z</Time>
            <Position>
              <LatitudeDegrees>42.3221490718424320220947265625</LatitudeDegrees>
              <LongitudeDegrees>2.47620555572211742401123046875</LongitudeDegrees>
            </Position>
            <AltitudeMeters>575.20001220703125</AltitudeMeters>
            <DistanceMeters>NAN</DistanceMeters>
          </Trackpoint>
          <Trackpoint>
            <Time>2021-04-03T14:31:50.000Z</Time>
            <Position>
              <LatitudeDegrees>42.32214898802340030670166015625</LatitudeDegrees>
              <LongitudeDegrees>2.47619415633380413055419921875</LongitudeDegrees>
            </Position>
            <AltitudeMeters>575.5999755859375</AltitudeMeters>
            <DistanceMeters>NAN</DistanceMeters>
          </Trackpoint>
          <Trackpoint>
            <Time>2021-04-03T14:31:53.000Z</Time>
            <Position>
              <LatitudeDegrees>42.3221467249095439910888671875</LatitudeDegrees>
              <LongitudeDegrees>2.4761712737381458282470703125</LongitudeDegrees>
            </Position>
            <AltitudeMeters>576.20001220703125</AltitudeMeters>
            <DistanceMeters>NAN</DistanceMeters>
          </Trackpoint>
          <Trackpoint>
            <Time>2021-04-03T14:31:54.000Z</Time>
            <Position>
              <LatitudeDegrees>42.322147227823734283447265625</LatitudeDegrees>
              <LongitudeDegrees>2.47616364620625972747802734375</LongitudeDegrees>
            </Position>
            <AltitudeMeters>576.4000244140625</AltitudeMeters>
            <DistanceMeters>NAN</DistanceMeters>
          </Trackpoint>
          <Trackpoint>
            <Time>2021-04-03T14:31:57.000Z</Time>
            <Position>
              <LatitudeDegrees>42.3221440427005290985107421875</LatitudeDegrees>
              <LongitudeDegrees>2.47614562511444091796875</LongitudeDegrees>
            </Position>
            <AltitudeMeters>576.79998779296875</AltitudeMeters>
            <DistanceMeters>NAN</DistanceMeters>
          </Trackpoint>
          <Trackpoint>
            <Time>2021-04-03T14:31:59.000Z</Time>
            <Position>
              <LatitudeDegrees>42.322138510644435882568359375</LatitudeDegrees>
              <LongitudeDegrees>2.47612710110843181610107421875</LongitudeDegrees>
            </Position>
            <AltitudeMeters>577</AltitudeMeters>
            <DistanceMeters>NAN</DistanceMeters>
          </Trackpoint>
          <Trackpoint>
            <Time>2021-04-03T14:32:03.000Z</Time>
            <Position>
              <LatitudeDegrees>42.3221294581890106201171875</LatitudeDegrees>
              <LongitudeDegrees>2.47609491460025310516357421875</LongitudeDegrees>
            </Position>
            <AltitudeMeters>577.4000244140625</AltitudeMeters>
            <DistanceMeters>NAN</DistanceMeters>
          </Trackpoint>
          <Trackpoint>
            <Time>2021-04-03T14:32:07.000Z</Time>
            <Position>
              <LatitudeDegrees>42.32211135327816009521484375</LatitudeDegrees>
              <LongitudeDegrees>2.47606993652880191802978515625</LongitudeDegrees>
            </Position>
            <AltitudeMeters>577.79998779296875</AltitudeMeters>
            <DistanceMeters>NAN</DistanceMeters>
          </Trackpoint>
          <Trackpoint>
            <Time>2021-04-03T14:32:09.000Z</Time>
            <Position>
              <LatitudeDegrees>42.322115041315555572509765625</LatitudeDegrees>
              <LongitudeDegrees>2.476062476634979248046875</LongitudeDegrees>
            </Position>
            <AltitudeMeters>578.20001220703125</AltitudeMeters>
            <DistanceMeters>NAN</DistanceMeters>
          </Trackpoint>
          <Trackpoint>
            <Time>2021-04-03T14:32:11.000Z</Time>
            <Position>
              <LatitudeDegrees>42.32210875488817691802978515625</LatitudeDegrees>
              <LongitudeDegrees>2.47605510056018829345703125</LongitudeDegrees>
            </Position>
            <AltitudeMeters>578.4000244140625</AltitudeMeters>
            <DistanceMeters>NAN</DistanceMeters>
          </Trackpoint>
          <Trackpoint>
            <Time>2021-04-03T14:32:13.000Z</Time>
            <Position>
              <LatitudeDegrees>42.3221007920801639556884765625</LatitudeDegrees>
              <LongitudeDegrees>2.4760609678924083709716796875</LongitudeDegrees>
            </Position>
            <AltitudeMeters>578.79998779296875</AltitudeMeters>
            <DistanceMeters>NAN</DistanceMeters>
          </Trackpoint>
          <Trackpoint>
            <Time>2021-04-03T14:32:18.000Z</Time>
            <Position>
              <LatitudeDegrees>42.32210590504109859466552734375</LatitudeDegrees>
              <LongitudeDegrees>2.4760659970343112945556640625</LongitudeDegrees>
            </Position>
            <AltitudeMeters>579.5999755859375</AltitudeMeters>
            <DistanceMeters>NAN</DistanceMeters>
          </Trackpoint>
          <Trackpoint>
            <Time>2021-04-03T14:32:19.000Z</Time>
            <Position>
              <LatitudeDegrees>42.3221021331846714019775390625</LatitudeDegrees>
              <LongitudeDegrees>2.47606507502496242523193359375</LongitudeDegrees>
            </Position>
            <AltitudeMeters>579.79998779296875</AltitudeMeters>
            <DistanceMeters>NAN</DistanceMeters>
          </Trackpoint>
          <Trackpoint>
            <Time>2021-04-03T14:32:22.000Z</Time>
            <Position>
              <LatitudeDegrees>42.3221021331846714019775390625</LatitudeDegrees>
              <LongitudeDegrees>2.476046718657016754150390625</LongitudeDegrees>
            </Position>
            <AltitudeMeters>580.4000244140625</AltitudeMeters>
            <DistanceMeters>NAN</DistanceMeters>
          </Trackpoint>
          <Trackpoint>
            <Time>2021-04-03T14:32:24.000Z</Time>
            <Position>
              <LatitudeDegrees>42.32210054062306880950927734375</LatitudeDegrees>
              <LongitudeDegrees>2.47604009695351123809814453125</LongitudeDegrees>
            </Position>
            <AltitudeMeters>580.79998779296875</AltitudeMeters>
            <DistanceMeters>NAN</DistanceMeters>
          </Trackpoint>
          <Trackpoint>
            <Time>2021-04-03T14:32:25.000Z</Time>
            <Position>
              <LatitudeDegrees>42.32209852896630764007568359375</LatitudeDegrees>
              <LongitudeDegrees>2.47603473253548145294189453125</LongitudeDegrees>
            </Position>
            <AltitudeMeters>581</AltitudeMeters>
            <DistanceMeters>NAN</DistanceMeters>
          </Trackpoint>
          <Trackpoint>
            <Time>2021-04-03T14:32:27.000Z</Time>
            <Position>
              <LatitudeDegrees>42.32209702022373676300048828125</LatitudeDegrees>
              <LongitudeDegrees>2.4760247580707073211669921875</LongitudeDegrees>
            </Position>
            <AltitudeMeters>581.20001220703125</AltitudeMeters>
            <DistanceMeters>NAN</DistanceMeters>
          </Trackpoint>
          <Trackpoint>
            <Time>2021-04-03T14:32:33.000Z</Time>
            <Position>
              <LatitudeDegrees>42.32207505963742733001708984375</LatitudeDegrees>
              <LongitudeDegrees>2.4759520031511783599853515625</LongitudeDegrees>
            </Position>
            <AltitudeMeters>581.79998779296875</AltitudeMeters>
            <DistanceMeters>NAN</DistanceMeters>
          </Trackpoint>
          <Trackpoint>
            <Time>2021-04-03T14:32:42.000Z</Time>
            <Position>
              <LatitudeDegrees>42.32204522006213665008544921875</LatitudeDegrees>
              <LongitudeDegrees>2.47589961625635623931884765625</LongitudeDegrees>
            </Position>
            <AltitudeMeters>582.79998779296875</AltitudeMeters>
            <DistanceMeters>NAN</DistanceMeters>
          </Trackpoint>
          <Trackpoint>
            <Time>2021-04-03T14:32:43.000Z</Time>
            <Position>
              <LatitudeDegrees>42.32203700579702854156494140625</LatitudeDegrees>
              <LongitudeDegrees>2.47589827515184879302978515625</LongitudeDegrees>
            </Position>
            <AltitudeMeters>583</AltitudeMeters>
            <DistanceMeters>NAN</DistanceMeters>
          </Trackpoint>
          <Trackpoint>
            <Time>2021-04-03T14:32:50.000Z</Time>
            <Position>
              <LatitudeDegrees>42.3220223374664783477783203125</LatitudeDegrees>
              <LongitudeDegrees>2.475893497467041015625</LongitudeDegrees>
            </Position>
            <AltitudeMeters>583.79998779296875</AltitudeMeters>
            <DistanceMeters>NAN</DistanceMeters>
          </Trackpoint>
          <Trackpoint>
            <Time>2021-04-03T14:32:51.000Z</Time>
            <Position>
              <LatitudeDegrees>42.3220196552574634552001953125</LatitudeDegrees>
              <LongitudeDegrees>2.475895844399929046630859375</LongitudeDegrees>
            </Position>
            <AltitudeMeters>584</AltitudeMeters>
            <DistanceMeters>NAN</DistanceMeters>
          </Trackpoint>
          <Trackpoint>
            <Time>2021-04-03T14:32:57.000Z</Time>
            <Position>
              <LatitudeDegrees>42.3220065794885158538818359375</LatitudeDegrees>
              <LongitudeDegrees>2.47589793987572193145751953125</LongitudeDegrees>
            </Position>
            <AltitudeMeters>584.79998779296875</AltitudeMeters>
            <DistanceMeters>NAN</DistanceMeters>
          </Trackpoint>
          <Trackpoint>
            <Time>2021-04-03T14:32:58.000Z</Time>
            <Position>
              <LatitudeDegrees>42.3220059089362621307373046875</LatitudeDegrees>
              <LongitudeDegrees>2.47589886188507080078125</LongitudeDegrees>
            </Position>
            <AltitudeMeters>585</AltitudeMeters>
            <DistanceMeters>NAN</DistanceMeters>
          </Trackpoint>
          <Trackpoint>
            <Time>2021-04-03T14:33:06.000Z</Time>
            <Position>
              <LatitudeDegrees>42.322005741298198699951171875</LatitudeDegrees>
              <LongitudeDegrees>2.47591671533882617950439453125</LongitudeDegrees>
            </Position>
            <AltitudeMeters>585.79998779296875</AltitudeMeters>
            <DistanceMeters>NAN</DistanceMeters>
          </Trackpoint>
          <Trackpoint>
            <Time>2021-04-03T14:33:07.000Z</Time>
            <Position>
              <LatitudeDegrees>42.32200398109853267669677734375</LatitudeDegrees>
              <LongitudeDegrees>2.4759191460907459259033203125</LongitudeDegrees>
            </Position>
            <AltitudeMeters>586</AltitudeMeters>
            <DistanceMeters>NAN</DistanceMeters>
          </Trackpoint>
          <Trackpoint>
            <Time>2021-04-03T14:33:13.000Z</Time>
            <Position>
              <LatitudeDegrees>42.3220025561749935150146484375</LatitudeDegrees>
              <LongitudeDegrees>2.4759241752326488494873046875</LongitudeDegrees>
            </Position>
            <AltitudeMeters>587</AltitudeMeters>
            <DistanceMeters>NAN</DistanceMeters>
          </Trackpoint>
          <Trackpoint>
            <Time>2021-04-03T14:33:20.000Z</Time>
            <Position>
              <LatitudeDegrees>42.32196005992591381072998046875</LatitudeDegrees>
              <LongitudeDegrees>2.47594051994383335113525390625</LongitudeDegrees>
            </Position>
            <AltitudeMeters>587.79998779296875</AltitudeMeters>
            <DistanceMeters>NAN</DistanceMeters>
          </Trackpoint>
          <Trackpoint>
            <Time>2021-04-03T14:33:23.000Z</Time>
            <Position>
              <LatitudeDegrees>42.32195712625980377197265625</LatitudeDegrees>
              <LongitudeDegrees>2.47593213804066181182861328125</LongitudeDegrees>
            </Position>
            <AltitudeMeters>588.20001220703125</AltitudeMeters>
            <DistanceMeters>NAN</DistanceMeters>
          </Trackpoint>
          <Trackpoint>
            <Time>2021-04-03T14:33:27.000Z</Time>
            <Position>
              <LatitudeDegrees>42.32194514013826847076416015625</LatitudeDegrees>
              <LongitudeDegrees>2.47593146748840808868408203125</LongitudeDegrees>
            </Position>
            <AltitudeMeters>588.79998779296875</AltitudeMeters>
            <DistanceMeters>NAN</DistanceMeters>
          </Trackpoint>
          <Trackpoint>
            <Time>2021-04-03T14:33:32.000Z</Time>
            <Position>
              <LatitudeDegrees>42.3219492472708225250244140625</LatitudeDegrees>
              <LongitudeDegrees>2.47588905505836009979248046875</LongitudeDegrees>
            </Position>
            <AltitudeMeters>589.20001220703125</AltitudeMeters>
            <DistanceMeters>NAN</DistanceMeters>
          </Trackpoint>
          <Trackpoint>
            <Time>2021-04-03T14:33:34.000Z</Time>
            <Position>
              <LatitudeDegrees>42.32195201329886913299560546875</LatitudeDegrees>
              <LongitudeDegrees>2.47587597928941249847412109375</LongitudeDegrees>
            </Position>
            <AltitudeMeters>589.4000244140625</AltitudeMeters>
            <DistanceMeters>NAN</DistanceMeters>
          </Trackpoint>
          <Trackpoint>
            <Time>2021-04-03T14:33:41.000Z</Time>
            <Position>
              <LatitudeDegrees>42.321945391595363616943359375</LatitudeDegrees>
              <LongitudeDegrees>2.47581881470978260040283203125</LongitudeDegrees>
            </Position>
            <AltitudeMeters>589.79998779296875</AltitudeMeters>
            <DistanceMeters>NAN</DistanceMeters>
          </Trackpoint>
          <Trackpoint>
            <Time>2021-04-03T14:33:43.000Z</Time>
            <Position>
              <LatitudeDegrees>42.3219462297856807708740234375</LatitudeDegrees>
              <LongitudeDegrees>2.47580540366470813751220703125</LongitudeDegrees>
            </Position>
            <AltitudeMeters>590</AltitudeMeters>
            <DistanceMeters>NAN</DistanceMeters>
          </Trackpoint>
          <Trackpoint>
            <Time>2021-04-03T14:33:46.000Z</Time>
            <Position>
              <LatitudeDegrees>42.32193692587316036224365234375</LatitudeDegrees>
              <LongitudeDegrees>2.47578729875385761260986328125</LongitudeDegrees>
            </Position>
            <AltitudeMeters>590.4000244140625</AltitudeMeters>
            <DistanceMeters>NAN</DistanceMeters>
          </Trackpoint>
          <Trackpoint>
            <Time>2021-04-03T14:33:53.000Z</Time>
            <Position>
              <LatitudeDegrees>42.32191412709653377532958984375</LatitudeDegrees>
              <LongitudeDegrees>2.47574304230511188507080078125</LongitudeDegrees>
            </Position>
            <AltitudeMeters>591.20001220703125</AltitudeMeters>
            <DistanceMeters>NAN</DistanceMeters>
          </Trackpoint>
          <Trackpoint>
            <Time>2021-04-03T14:33:56.000Z</Time>
            <Position>
              <LatitudeDegrees>42.32190641574561595916748046875</LatitudeDegrees>
              <LongitudeDegrees>2.47572024352848529815673828125</LongitudeDegrees>
            </Position>
            <AltitudeMeters>591.4000244140625</AltitudeMeters>
            <DistanceMeters>NAN</DistanceMeters>
          </Trackpoint>
          <Trackpoint>
            <Time>2021-04-03T14:34:02.000Z</Time>
            <Position>
              <LatitudeDegrees>42.321903817355632781982421875</LatitudeDegrees>
              <LongitudeDegrees>2.47569107450544834136962890625</LongitudeDegrees>
            </Position>
            <AltitudeMeters>591.20001220703125</AltitudeMeters>
            <DistanceMeters>NAN</DistanceMeters>
          </Trackpoint>
          <Trackpoint>
            <Time>2021-04-03T14:34:05.000Z</Time>
            <Position>
              <LatitudeDegrees>42.3219014704227447509765625</LatitudeDegrees>
              <LongitudeDegrees>2.47567581944167613983154296875</LongitudeDegrees>
            </Position>
            <AltitudeMeters>590.79998779296875</AltitudeMeters>
            <DistanceMeters>NAN</DistanceMeters>
          </Trackpoint>
          <Trackpoint>
            <Time>2021-04-03T14:34:11.000Z</Time>
            <Position>
              <LatitudeDegrees>42.32189786620438098907470703125</LatitudeDegrees>
              <LongitudeDegrees>2.475641705095767974853515625</LongitudeDegrees>
            </Position>
            <AltitudeMeters>590.5999755859375</AltitudeMeters>
            <DistanceMeters>NAN</DistanceMeters>
          </Trackpoint>
          <Trackpoint>
            <Time>2021-04-03T14:34:21.000Z</Time>
            <Position>
              <LatitudeDegrees>42.321909181773662567138671875</LatitudeDegrees>
              <LongitudeDegrees>2.4755828641355037689208984375</LongitudeDegrees>
            </Position>
            <AltitudeMeters>590.4000244140625</AltitudeMeters>
            <DistanceMeters>NAN</DistanceMeters>
          </Trackpoint>
          <Trackpoint>
            <Time>2021-04-03T14:34:22.000Z</Time>
            <Position>
              <LatitudeDegrees>42.32191211543977260589599609375</LatitudeDegrees>
              <LongitudeDegrees>2.47558127157390117645263671875</LongitudeDegrees>
            </Position>
            <AltitudeMeters>590.4000244140625</AltitudeMeters>
            <DistanceMeters>NAN</DistanceMeters>
          </Trackpoint>
          <Trackpoint>
            <Time>2021-04-03T14:34:25.000Z</Time>
            <Position>
              <LatitudeDegrees>42.32191580347716808319091796875</LatitudeDegrees>
              <LongitudeDegrees>2.47559200040996074676513671875</LongitudeDegrees>
            </Position>
            <AltitudeMeters>590.20001220703125</AltitudeMeters>
            <DistanceMeters>NAN</DistanceMeters>
          </Trackpoint>
          <Trackpoint>
            <Time>2021-04-03T14:34:28.000Z</Time>
            <Position>
              <LatitudeDegrees>42.32192049734294414520263671875</LatitudeDegrees>
              <LongitudeDegrees>2.475573979318141937255859375</LongitudeDegrees>
            </Position>
            <AltitudeMeters>590.20001220703125</AltitudeMeters>
            <DistanceMeters>NAN</DistanceMeters>
          </Trackpoint>
          <Trackpoint>
            <Time>2021-04-03T14:34:35.000Z</Time>
            <Position>
              <LatitudeDegrees>42.32192116789519786834716796875</LatitudeDegrees>
              <LongitudeDegrees>2.47556165792047977447509765625</LongitudeDegrees>
            </Position>
            <AltitudeMeters>590</AltitudeMeters>
            <DistanceMeters>NAN</DistanceMeters>
          </Trackpoint>
          <Trackpoint>
            <Time>2021-04-03T14:34:42.000Z</Time>
            <Position>
              <LatitudeDegrees>42.32191647402942180633544921875</LatitudeDegrees>
              <LongitudeDegrees>2.47553852386772632598876953125</LongitudeDegrees>
            </Position>
            <AltitudeMeters>590.79998779296875</AltitudeMeters>
            <DistanceMeters>NAN</DistanceMeters>
          </Trackpoint>
          <Trackpoint>
            <Time>2021-04-03T14:34:48.000Z</Time>
            <Position>
              <LatitudeDegrees>42.32190088368952274322509765625</LatitudeDegrees>
              <LongitudeDegrees>2.47552813030779361724853515625</LongitudeDegrees>
            </Position>
            <AltitudeMeters>591.4000244140625</AltitudeMeters>
            <DistanceMeters>NAN</DistanceMeters>
          </Trackpoint>
          <Trackpoint>
            <Time>2021-04-03T14:34:56.000Z</Time>
            <Position>
              <LatitudeDegrees>42.32190088368952274322509765625</LatitudeDegrees>
              <LongitudeDegrees>2.47552813030779361724853515625</LongitudeDegrees>
            </Position>
            <AltitudeMeters>592.4000244140625</AltitudeMeters>
            <DistanceMeters>NAN</DistanceMeters>
          </Trackpoint>
          <Trackpoint>
            <Time>2021-04-03T14:35:02.000Z</Time>
            <Position>
              <LatitudeDegrees>42.32190574519336223602294921875</LatitudeDegrees>
              <LongitudeDegrees>2.4754920043051242828369140625</LongitudeDegrees>
            </Position>
            <AltitudeMeters>593</AltitudeMeters>
            <DistanceMeters>NAN</DistanceMeters>
          </Trackpoint>
          <Trackpoint>
            <Time>2021-04-03T14:35:06.000Z</Time>
            <Position>
              <LatitudeDegrees>42.3219121992588043212890625</LatitudeDegrees>
              <LongitudeDegrees>2.475432492792606353759765625</LongitudeDegrees>
            </Position>
            <AltitudeMeters>593.20001220703125</AltitudeMeters>
            <DistanceMeters>NAN</DistanceMeters>
          </Trackpoint>
          <Trackpoint>
            <Time>2021-04-03T14:35:08.000Z</Time>
            <Position>
              <LatitudeDegrees>42.32190641574561595916748046875</LatitudeDegrees>
              <LongitudeDegrees>2.4754008091986179351806640625</LongitudeDegrees>
            </Position>
            <AltitudeMeters>593.4000244140625</AltitudeMeters>
            <DistanceMeters>NAN</DistanceMeters>
          </Trackpoint>
          <Trackpoint>
            <Time>2021-04-03T14:35:15.000Z</Time>
            <Position>
              <LatitudeDegrees>42.32192418538033962249755859375</LatitudeDegrees>
              <LongitudeDegrees>2.47534104622900485992431640625</LongitudeDegrees>
            </Position>
            <AltitudeMeters>593.5999755859375</AltitudeMeters>
            <DistanceMeters>NAN</DistanceMeters>
          </Trackpoint>
          <Trackpoint>
            <Time>2021-04-03T14:35:20.000Z</Time>
            <Position>
              <LatitudeDegrees>42.3219049908220767974853515625</LatitudeDegrees>
              <LongitudeDegrees>2.47534138150513172149658203125</LongitudeDegrees>
            </Position>
            <AltitudeMeters>593.4000244140625</AltitudeMeters>
            <DistanceMeters>NAN</DistanceMeters>
          </Trackpoint>
          <Trackpoint>
            <Time>2021-04-03T14:35:25.000Z</Time>
            <Position>
              <LatitudeDegrees>42.3219059966504573822021484375</LatitudeDegrees>
              <LongitudeDegrees>2.47534833848476409912109375</LongitudeDegrees>
            </Position>
            <AltitudeMeters>593.20001220703125</AltitudeMeters>
            <DistanceMeters>NAN</DistanceMeters>
          </Trackpoint>
          <Trackpoint>
            <Time>2021-04-03T14:35:26.000Z</Time>
            <Position>
              <LatitudeDegrees>42.32191094197332859039306640625</LatitudeDegrees>
              <LongitudeDegrees>2.47534490190446376800537109375</LongitudeDegrees>
            </Position>
            <AltitudeMeters>593</AltitudeMeters>
            <DistanceMeters>NAN</DistanceMeters>
          </Trackpoint>
          <Trackpoint>
            <Time>2021-04-03T14:35:31.000Z</Time>
            <Position>
              <LatitudeDegrees>42.3219157196581363677978515625</LatitudeDegrees>
              <LongitudeDegrees>2.47533702291548252105712890625</LongitudeDegrees>
            </Position>
            <AltitudeMeters>593</AltitudeMeters>
            <DistanceMeters>NAN</DistanceMeters>
          </Trackpoint>
          <Trackpoint>
            <Time>2021-04-03T14:35:35.000Z</Time>
            <Position>
              <LatitudeDegrees>42.321915216743946075439453125</LatitudeDegrees>
              <LongitudeDegrees>2.4753126315772533416748046875</LongitudeDegrees>
            </Position>
            <AltitudeMeters>593</AltitudeMeters>
            <DistanceMeters>NAN</DistanceMeters>
          </Trackpoint>
          <Trackpoint>
            <Time>2021-04-03T14:35:42.000Z</Time>
            <Position>
              <LatitudeDegrees>42.32192493975162506103515625</LatitudeDegrees>
              <LongitudeDegrees>2.47525337152183055877685546875</LongitudeDegrees>
            </Position>
            <AltitudeMeters>593.5999755859375</AltitudeMeters>
            <DistanceMeters>NAN</DistanceMeters>
          </Trackpoint>
          <Trackpoint>
            <Time>2021-04-03T14:35:51.000Z</Time>
            <Position>
              <LatitudeDegrees>42.32190482318401336669921875</LatitudeDegrees>
              <LongitudeDegrees>2.47521447949111461639404296875</LongitudeDegrees>
            </Position>
            <AltitudeMeters>593.79998779296875</AltitudeMeters>
            <DistanceMeters>NAN</DistanceMeters>
          </Trackpoint>
          <Trackpoint>
            <Time>2021-04-03T14:35:55.000Z</Time>
            <Position>
              <LatitudeDegrees>42.3219036497175693511962890625</LatitudeDegrees>
              <LongitudeDegrees>2.47519771568477153778076171875</LongitudeDegrees>
            </Position>
            <AltitudeMeters>593.79998779296875</AltitudeMeters>
            <DistanceMeters>NAN</DistanceMeters>
          </Trackpoint>
          <Trackpoint>
            <Time>2021-04-03T14:35:57.000Z</Time>
            <Position>
              <LatitudeDegrees>42.3219076730310916900634765625</LatitudeDegrees>
              <LongitudeDegrees>2.47519813477993011474609375</LongitudeDegrees>
            </Position>
            <AltitudeMeters>593.79998779296875</AltitudeMeters>
            <DistanceMeters>NAN</DistanceMeters>
          </Trackpoint>
          <Trackpoint>
            <Time>2021-04-03T14:36:00.000Z</Time>
            <Position>
              <LatitudeDegrees>42.32192217372357845306396484375</LatitudeDegrees>
              <LongitudeDegrees>2.47517927549779415130615234375</LongitudeDegrees>
            </Position>
            <AltitudeMeters>594</AltitudeMeters>
            <DistanceMeters>NAN</DistanceMeters>
          </Trackpoint>
          <Trackpoint>
            <Time>2021-04-03T14:36:05.000Z</Time>
            <Position>
              <LatitudeDegrees>42.32194648124277591705322265625</LatitudeDegrees>
              <LongitudeDegrees>2.4751815386116504669189453125</LongitudeDegrees>
            </Position>
            <AltitudeMeters>594.20001220703125</AltitudeMeters>
            <DistanceMeters>NAN</DistanceMeters>
          </Trackpoint>
          <Trackpoint>
            <Time>2021-04-03T14:36:07.000Z</Time>
            <Position>
              <LatitudeDegrees>42.32195377349853515625</LatitudeDegrees>
              <LongitudeDegrees>2.47518606483936309814453125</LongitudeDegrees>
            </Position>
            <AltitudeMeters>594.5999755859375</AltitudeMeters>
            <DistanceMeters>NAN</DistanceMeters>
          </Trackpoint>
          <Trackpoint>
            <Time>2021-04-03T14:36:10.000Z</Time>
            <Position>
              <LatitudeDegrees>42.32196517288684844970703125</LatitudeDegrees>
              <LongitudeDegrees>2.4751969613134860992431640625</LongitudeDegrees>
            </Position>
            <AltitudeMeters>595.20001220703125</AltitudeMeters>
            <DistanceMeters>NAN</DistanceMeters>
          </Trackpoint>
          <Trackpoint>
            <Time>2021-04-03T14:36:16.000Z</Time>
            <Position>
              <LatitudeDegrees>42.32200096361339092254638671875</LatitudeDegrees>
              <LongitudeDegrees>2.4752108752727508544921875</LongitudeDegrees>
            </Position>
            <AltitudeMeters>595.5999755859375</AltitudeMeters>
            <DistanceMeters>NAN</DistanceMeters>
          </Trackpoint>
          <Trackpoint>
            <Time>2021-04-03T14:36:23.000Z</Time>
            <Position>
              <LatitudeDegrees>42.3220360837876796722412109375</LatitudeDegrees>
              <LongitudeDegrees>2.47523543424904346466064453125</LongitudeDegrees>
            </Position>
            <AltitudeMeters>596.20001220703125</AltitudeMeters>
            <DistanceMeters>NAN</DistanceMeters>
          </Trackpoint>
          <Trackpoint>
            <Time>2021-04-03T14:36:29.000Z</Time>
            <Position>
              <LatitudeDegrees>42.32206366024911403656005859375</LatitudeDegrees>
              <LongitudeDegrees>2.4752566404640674591064453125</LongitudeDegrees>
            </Position>
            <AltitudeMeters>596.79998779296875</AltitudeMeters>
            <DistanceMeters>NAN</DistanceMeters>
          </Trackpoint>
          <Trackpoint>
            <Time>2021-04-03T14:36:30.000Z</Time>
            <Position>
              <LatitudeDegrees>42.32207153923809528350830078125</LatitudeDegrees>
              <LongitudeDegrees>2.47525873593986034393310546875</LongitudeDegrees>
            </Position>
            <AltitudeMeters>596.79998779296875</AltitudeMeters>
            <DistanceMeters>NAN</DistanceMeters>
          </Trackpoint>
          <Trackpoint>
            <Time>2021-04-03T14:36:36.000Z</Time>
            <Position>
              <LatitudeDegrees>42.32208679430186748504638671875</LatitudeDegrees>
              <LongitudeDegrees>2.47525353915989398956298828125</LongitudeDegrees>
            </Position>
            <AltitudeMeters>597.20001220703125</AltitudeMeters>
            <DistanceMeters>NAN</DistanceMeters>
          </Trackpoint>
          <Trackpoint>
            <Time>2021-04-03T14:36:41.000Z</Time>
            <Position>
              <LatitudeDegrees>42.3221108503639698028564453125</LatitudeDegrees>
              <LongitudeDegrees>2.47525488026440143585205078125</LongitudeDegrees>
            </Position>
            <AltitudeMeters>597.79998779296875</AltitudeMeters>
            <DistanceMeters>NAN</DistanceMeters>
          </Trackpoint>
          <Trackpoint>
            <Time>2021-04-03T14:36:43.000Z</Time>
            <Position>
              <LatitudeDegrees>42.32213976792991161346435546875</LatitudeDegrees>
              <LongitudeDegrees>2.47527382336556911468505859375</LongitudeDegrees>
            </Position>
            <AltitudeMeters>598</AltitudeMeters>
            <DistanceMeters>NAN</DistanceMeters>
          </Trackpoint>
          <Trackpoint>
            <Time>2021-04-03T14:36:48.000Z</Time>
            <Position>
              <LatitudeDegrees>42.322172708809375762939453125</LatitudeDegrees>
              <LongitudeDegrees>2.47528262436389923095703125</LongitudeDegrees>
            </Position>
            <AltitudeMeters>598.79998779296875</AltitudeMeters>
            <DistanceMeters>NAN</DistanceMeters>
          </Trackpoint>
          <Trackpoint>
            <Time>2021-04-03T14:36:49.000Z</Time>
            <Position>
              <LatitudeDegrees>42.32217195443809032440185546875</LatitudeDegrees>
              <LongitudeDegrees>2.47528505511581897735595703125</LongitudeDegrees>
            </Position>
            <AltitudeMeters>598.79998779296875</AltitudeMeters>
            <DistanceMeters>NAN</DistanceMeters>
          </Trackpoint>
          <Trackpoint>
            <Time>2021-04-03T14:36:52.000Z</Time>
            <Position>
              <LatitudeDegrees>42.322181761264801025390625</LatitudeDegrees>
              <LongitudeDegrees>2.47528656385838985443115234375</LongitudeDegrees>
            </Position>
            <AltitudeMeters>599</AltitudeMeters>
            <DistanceMeters>NAN</DistanceMeters>
          </Trackpoint>
          <Trackpoint>
            <Time>2021-04-03T14:36:58.000Z</Time>
            <Position>
              <LatitudeDegrees>42.32218754477798938751220703125</LatitudeDegrees>
              <LongitudeDegrees>2.475282959640026092529296875</LongitudeDegrees>
            </Position>
            <AltitudeMeters>599.5999755859375</AltitudeMeters>
            <DistanceMeters>NAN</DistanceMeters>
          </Trackpoint>
          <Trackpoint>
            <Time>2021-04-03T14:36:59.000Z</Time>
            <Position>
              <LatitudeDegrees>42.32219894416630268096923828125</LatitudeDegrees>
              <LongitudeDegrees>2.475286982953548431396484375</LongitudeDegrees>
            </Position>
            <AltitudeMeters>599.79998779296875</AltitudeMeters>
            <DistanceMeters>NAN</DistanceMeters>
          </Trackpoint>
          <Trackpoint>
            <Time>2021-04-03T14:37:04.000Z</Time>
            <Position>
              <LatitudeDegrees>42.3222224973142147064208984375</LatitudeDegrees>
              <LongitudeDegrees>2.47529310174286365509033203125</LongitudeDegrees>
            </Position>
            <AltitudeMeters>600.5999755859375</AltitudeMeters>
            <DistanceMeters>NAN</DistanceMeters>
          </Trackpoint>
          <Trackpoint>
            <Time>2021-04-03T14:37:07.000Z</Time>
            <Position>
              <LatitudeDegrees>42.32223733328282833099365234375</LatitudeDegrees>
              <LongitudeDegrees>2.47529469430446624755859375</LongitudeDegrees>
            </Position>
            <AltitudeMeters>600.5999755859375</AltitudeMeters>
            <DistanceMeters>NAN</DistanceMeters>
          </Trackpoint>
          <Trackpoint>
            <Time>2021-04-03T14:37:09.000Z</Time>
            <Position>
              <LatitudeDegrees>42.32224948704242706298828125</LatitudeDegrees>
              <LongitudeDegrees>2.47530047781765460968017578125</LongitudeDegrees>
            </Position>
            <AltitudeMeters>600.79998779296875</AltitudeMeters>
            <DistanceMeters>NAN</DistanceMeters>
          </Trackpoint>
          <Trackpoint>
            <Time>2021-04-03T14:37:13.000Z</Time>
            <Position>
              <LatitudeDegrees>42.32226583175361156463623046875</LatitudeDegrees>
              <LongitudeDegrees>2.47530810534954071044921875</LongitudeDegrees>
            </Position>
            <AltitudeMeters>601.4000244140625</AltitudeMeters>
            <DistanceMeters>NAN</DistanceMeters>
          </Trackpoint>
          <Trackpoint>
            <Time>2021-04-03T14:37:15.000Z</Time>
            <Position>
              <LatitudeDegrees>42.32227069325745105743408203125</LatitudeDegrees>
              <LongitudeDegrees>2.47531137429177761077880859375</LongitudeDegrees>
            </Position>
            <AltitudeMeters>601.5999755859375</AltitudeMeters>
            <DistanceMeters>NAN</DistanceMeters>
          </Trackpoint>
          <Trackpoint>
            <Time>2021-04-03T14:37:19.000Z</Time>
            <Position>
              <LatitudeDegrees>42.32228494249284267425537109375</LatitudeDegrees>
              <LongitudeDegrees>2.4753047525882720947265625</LongitudeDegrees>
            </Position>
            <AltitudeMeters>601.79998779296875</AltitudeMeters>
            <DistanceMeters>NAN</DistanceMeters>
          </Trackpoint>
          <Trackpoint>
            <Time>2021-04-03T14:37:22.000Z</Time>
            <Position>
              <LatitudeDegrees>42.32230220921337604522705078125</LatitudeDegrees>
              <LongitudeDegrees>2.4752988852560520172119140625</LongitudeDegrees>
            </Position>
            <AltitudeMeters>602.20001220703125</AltitudeMeters>
            <DistanceMeters>NAN</DistanceMeters>
          </Trackpoint>
          <Trackpoint>
            <Time>2021-04-03T14:37:24.000Z</Time>
            <Position>
              <LatitudeDegrees>42.32230958528816699981689453125</LatitudeDegrees>
              <LongitudeDegrees>2.47529578395187854766845703125</LongitudeDegrees>
            </Position>
            <AltitudeMeters>602.5999755859375</AltitudeMeters>
            <DistanceMeters>NAN</DistanceMeters>
          </Trackpoint>
          <Trackpoint>
            <Time>2021-04-03T14:37:26.000Z</Time>
            <Position>
              <LatitudeDegrees>42.322304807603359222412109375</LatitudeDegrees>
              <LongitudeDegrees>2.4752832949161529541015625</LongitudeDegrees>
            </Position>
            <AltitudeMeters>602.5999755859375</AltitudeMeters>
            <DistanceMeters>NAN</DistanceMeters>
          </Trackpoint>
          <Trackpoint>
            <Time>2021-04-03T14:37:27.000Z</Time>
            <Position>
              <LatitudeDegrees>42.3223016224801540374755859375</LatitudeDegrees>
              <LongitudeDegrees>2.47527751140296459197998046875</LongitudeDegrees>
            </Position>
            <AltitudeMeters>603</AltitudeMeters>
            <DistanceMeters>NAN</DistanceMeters>
          </Trackpoint>
          <Trackpoint>
            <Time>2021-04-03T14:37:28.000Z</Time>
            <Position>
              <LatitudeDegrees>42.32230355031788349151611328125</LatitudeDegrees>
              <LongitudeDegrees>2.475270219147205352783203125</LongitudeDegrees>
            </Position>
            <AltitudeMeters>603</AltitudeMeters>
            <DistanceMeters>NAN</DistanceMeters>
          </Trackpoint>
          <Trackpoint>
            <Time>2021-04-03T14:37:35.000Z</Time>
            <Position>
              <LatitudeDegrees>42.3222999460995197296142578125</LatitudeDegrees>
              <LongitudeDegrees>2.47526586055755615234375</LongitudeDegrees>
            </Position>
            <AltitudeMeters>604</AltitudeMeters>
            <DistanceMeters>NAN</DistanceMeters>
          </Trackpoint>
          <Trackpoint>
            <Time>2021-04-03T14:37:42.000Z</Time>
            <Position>
              <LatitudeDegrees>42.3222912289202213287353515625</LatitudeDegrees>
              <LongitudeDegrees>2.4752643518149852752685546875</LongitudeDegrees>
            </Position>
            <AltitudeMeters>604.5999755859375</AltitudeMeters>
            <DistanceMeters>NAN</DistanceMeters>
          </Trackpoint>
          <Trackpoint>
            <Time>2021-04-03T14:37:45.000Z</Time>
            <Position>
              <LatitudeDegrees>42.3222882114350795745849609375</LatitudeDegrees>
              <LongitudeDegrees>2.47525177896022796630859375</LongitudeDegrees>
            </Position>
            <AltitudeMeters>605.20001220703125</AltitudeMeters>
            <DistanceMeters>NAN</DistanceMeters>
          </Trackpoint>
          <Trackpoint>
            <Time>2021-04-03T14:37:51.000Z</Time>
            <Position>
              <LatitudeDegrees>42.3222912289202213287353515625</LatitudeDegrees>
              <LongitudeDegrees>2.47523677535355091094970703125</LongitudeDegrees>
            </Position>
            <AltitudeMeters>606.20001220703125</AltitudeMeters>
            <DistanceMeters>NAN</DistanceMeters>
          </Trackpoint>
          <Trackpoint>
            <Time>2021-04-03T14:37:52.000Z</Time>
            <Position>
              <LatitudeDegrees>42.3222912289202213287353515625</LatitudeDegrees>
              <LongitudeDegrees>2.47523677535355091094970703125</LongitudeDegrees>
            </Position>
            <AltitudeMeters>606.20001220703125</AltitudeMeters>
            <DistanceMeters>NAN</DistanceMeters>
          </Trackpoint>
          <Trackpoint>
            <Time>2021-04-03T14:38:00.000Z</Time>
            <Position>
              <LatitudeDegrees>42.3222903907299041748046875</LatitudeDegrees>
              <LongitudeDegrees>2.47523677535355091094970703125</LongitudeDegrees>
            </Position>
            <AltitudeMeters>607.4000244140625</AltitudeMeters>
            <DistanceMeters>NAN</DistanceMeters>
          </Trackpoint>
          <Trackpoint>
            <Time>2021-04-03T14:38:08.000Z</Time>
            <Position>
              <LatitudeDegrees>42.3222865350544452667236328125</LatitudeDegrees>
              <LongitudeDegrees>2.47523300349712371826171875</LongitudeDegrees>
            </Position>
            <AltitudeMeters>608.4000244140625</AltitudeMeters>
            <DistanceMeters>NAN</DistanceMeters>
          </Trackpoint>
          <Trackpoint>
            <Time>2021-04-03T14:38:16.000Z</Time>
            <Position>
              <LatitudeDegrees>42.3222670890390872955322265625</LatitudeDegrees>
              <LongitudeDegrees>2.4752261303365230560302734375</LongitudeDegrees>
            </Position>
            <AltitudeMeters>609</AltitudeMeters>
            <DistanceMeters>NAN</DistanceMeters>
          </Trackpoint>
          <Trackpoint>
            <Time>2021-04-03T14:38:27.000Z</Time>
            <Position>
              <LatitudeDegrees>42.32226692140102386474609375</LatitudeDegrees>
              <LongitudeDegrees>2.4751547165215015411376953125</LongitudeDegrees>
            </Position>
            <AltitudeMeters>609.4000244140625</AltitudeMeters>
            <DistanceMeters>NAN</DistanceMeters>
          </Trackpoint>
          <Trackpoint>
            <Time>2021-04-03T14:38:31.000Z</Time>
            <Position>
              <LatitudeDegrees>42.32229215092957019805908203125</LatitudeDegrees>
              <LongitudeDegrees>2.4750628508627414703369140625</LongitudeDegrees>
            </Position>
            <AltitudeMeters>609.5999755859375</AltitudeMeters>
            <DistanceMeters>NAN</DistanceMeters>
          </Trackpoint>
          <Trackpoint>
            <Time>2021-04-03T14:38:33.000Z</Time>
            <Position>
              <LatitudeDegrees>42.3223091661930084228515625</LatitudeDegrees>
              <LongitudeDegrees>2.47502035461366176605224609375</LongitudeDegrees>
            </Position>
            <AltitudeMeters>609.79998779296875</AltitudeMeters>
            <DistanceMeters>NAN</DistanceMeters>
          </Trackpoint>
          <Trackpoint>
            <Time>2021-04-03T14:38:37.000Z</Time>
            <Position>
              <LatitudeDegrees>42.3223254270851612091064453125</LatitudeDegrees>
              <LongitudeDegrees>2.47495732270181179046630859375</LongitudeDegrees>
            </Position>
            <AltitudeMeters>610.20001220703125</AltitudeMeters>
            <DistanceMeters>NAN</DistanceMeters>
          </Trackpoint>
          <Trackpoint>
            <Time>2021-04-03T14:38:38.000Z</Time>
            <Position>
              <LatitudeDegrees>42.32232333160936832427978515625</LatitudeDegrees>
              <LongitudeDegrees>2.474946677684783935546875</LongitudeDegrees>
            </Position>
            <AltitudeMeters>610.20001220703125</AltitudeMeters>
            <DistanceMeters>NAN</DistanceMeters>
          </Trackpoint>
          <Trackpoint>
            <Time>2021-04-03T14:38:42.000Z</Time>
            <Position>
              <LatitudeDegrees>42.3223413527011871337890625</LatitudeDegrees>
              <LongitudeDegrees>2.47492186725139617919921875</LongitudeDegrees>
            </Position>
            <AltitudeMeters>610.4000244140625</AltitudeMeters>
            <DistanceMeters>NAN</DistanceMeters>
          </Trackpoint>
          <Trackpoint>
            <Time>2021-04-03T14:38:43.000Z</Time>
            <Position>
              <LatitudeDegrees>42.3223448731005191802978515625</LatitudeDegrees>
              <LongitudeDegrees>2.474903762340545654296875</LongitudeDegrees>
            </Position>
            <AltitudeMeters>610.4000244140625</AltitudeMeters>
            <DistanceMeters>NAN</DistanceMeters>
          </Trackpoint>
          <Trackpoint>
            <Time>2021-04-03T14:38:44.000Z</Time>
            <Position>
              <LatitudeDegrees>42.32234663330018520355224609375</LatitudeDegrees>
              <LongitudeDegrees>2.47489026747643947601318359375</LongitudeDegrees>
            </Position>
            <AltitudeMeters>610.5999755859375</AltitudeMeters>
            <DistanceMeters>NAN</DistanceMeters>
          </Trackpoint>
          <Trackpoint>
            <Time>2021-04-03T14:38:46.000Z</Time>
            <Position>
              <LatitudeDegrees>42.32234747149050235748291015625</LatitudeDegrees>
              <LongitudeDegrees>2.4748595058917999267578125</LongitudeDegrees>
            </Position>
            <AltitudeMeters>610.79998779296875</AltitudeMeters>
            <DistanceMeters>NAN</DistanceMeters>
          </Trackpoint>
          <Trackpoint>
            <Time>2021-04-03T14:38:50.000Z</Time>
            <Position>
              <LatitudeDegrees>42.322375215590000152587890625</LatitudeDegrees>
              <LongitudeDegrees>2.4748294986784458160400390625</LongitudeDegrees>
            </Position>
            <AltitudeMeters>611</AltitudeMeters>
            <DistanceMeters>NAN</DistanceMeters>
          </Trackpoint>
          <Trackpoint>
            <Time>2021-04-03T14:38:55.000Z</Time>
            <Position>
              <LatitudeDegrees>42.32238225638866424560546875</LatitudeDegrees>
              <LongitudeDegrees>2.47477526776492595672607421875</LongitudeDegrees>
            </Position>
            <AltitudeMeters>611.4000244140625</AltitudeMeters>
            <DistanceMeters>NAN</DistanceMeters>
          </Trackpoint>
          <Trackpoint>
            <Time>2021-04-03T14:38:56.000Z</Time>
            <Position>
              <LatitudeDegrees>42.32238602824509143829345703125</LatitudeDegrees>
              <LongitudeDegrees>2.47476101852953433990478515625</LongitudeDegrees>
            </Position>
            <AltitudeMeters>611.4000244140625</AltitudeMeters>
            <DistanceMeters>NAN</DistanceMeters>
          </Trackpoint>
          <Trackpoint>
            <Time>2021-04-03T14:38:59.000Z</Time>
            <Position>
              <LatitudeDegrees>42.32239390723407268524169921875</LatitudeDegrees>
              <LongitudeDegrees>2.474737465381622314453125</LongitudeDegrees>
            </Position>
            <AltitudeMeters>611.5999755859375</AltitudeMeters>
            <DistanceMeters>NAN</DistanceMeters>
          </Trackpoint>
          <Trackpoint>
            <Time>2021-04-03T14:39:04.000Z</Time>
            <Position>
              <LatitudeDegrees>42.322420813143253326416015625</LatitudeDegrees>
              <LongitudeDegrees>2.4747017584741115570068359375</LongitudeDegrees>
            </Position>
            <AltitudeMeters>612</AltitudeMeters>
            <DistanceMeters>NAN</DistanceMeters>
          </Trackpoint>
          <Trackpoint>
            <Time>2021-04-03T14:39:12.000Z</Time>
            <Position>
              <LatitudeDegrees>42.322437576949596405029296875</LatitudeDegrees>
              <LongitudeDegrees>2.47461752034723758697509765625</LongitudeDegrees>
            </Position>
            <AltitudeMeters>612.4000244140625</AltitudeMeters>
            <DistanceMeters>NAN</DistanceMeters>
          </Trackpoint>
          <Trackpoint>
            <Time>2021-04-03T14:39:13.000Z</Time>
            <Position>
              <LatitudeDegrees>42.3224400915205478668212890625</LatitudeDegrees>
              <LongitudeDegrees>2.47460628859698772430419921875</LongitudeDegrees>
            </Position>
            <AltitudeMeters>612.4000244140625</AltitudeMeters>
            <DistanceMeters>NAN</DistanceMeters>
          </Trackpoint>
          <Trackpoint>
            <Time>2021-04-03T14:39:18.000Z</Time>
            <Position>
              <LatitudeDegrees>42.3224571906030178070068359375</LatitudeDegrees>
              <LongitudeDegrees>2.47456052340567111968994140625</LongitudeDegrees>
            </Position>
            <AltitudeMeters>613</AltitudeMeters>
            <DistanceMeters>NAN</DistanceMeters>
          </Trackpoint>
          <Trackpoint>
            <Time>2021-04-03T14:39:25.000Z</Time>
            <Position>
              <LatitudeDegrees>42.3225011117756366729736328125</LatitudeDegrees>
              <LongitudeDegrees>2.4744947254657745361328125</LongitudeDegrees>
            </Position>
            <AltitudeMeters>613.5999755859375</AltitudeMeters>
            <DistanceMeters>NAN</DistanceMeters>
          </Trackpoint>
          <Trackpoint>
            <Time>2021-04-03T14:39:32.000Z</Time>
            <Position>
              <LatitudeDegrees>42.32250857166945934295654296875</LatitudeDegrees>
              <LongitudeDegrees>2.4744191206991672515869140625</LongitudeDegrees>
            </Position>
            <AltitudeMeters>614.20001220703125</AltitudeMeters>
            <DistanceMeters>NAN</DistanceMeters>
          </Trackpoint>
          <Trackpoint>
            <Time>2021-04-03T14:39:35.000Z</Time>
            <Position>
              <LatitudeDegrees>42.3225195519626140594482421875</LatitudeDegrees>
              <LongitudeDegrees>2.47437662445008754730224609375</LongitudeDegrees>
            </Position>
            <AltitudeMeters>614.20001220703125</AltitudeMeters>
            <DistanceMeters>NAN</DistanceMeters>
          </Trackpoint>
          <Trackpoint>
            <Time>2021-04-03T14:39:37.000Z</Time>
            <Position>
              <LatitudeDegrees>42.32252466492354869842529296875</LatitudeDegrees>
              <LongitudeDegrees>2.4743483774363994598388671875</LongitudeDegrees>
            </Position>
            <AltitudeMeters>614.4000244140625</AltitudeMeters>
            <DistanceMeters>NAN</DistanceMeters>
          </Trackpoint>
          <Trackpoint>
            <Time>2021-04-03T14:39:38.000Z</Time>
            <Position>
              <LatitudeDegrees>42.3225255869328975677490234375</LatitudeDegrees>
              <LongitudeDegrees>2.47432784177362918853759765625</LongitudeDegrees>
            </Position>
            <AltitudeMeters>614.4000244140625</AltitudeMeters>
            <DistanceMeters>NAN</DistanceMeters>
          </Trackpoint>
          <Trackpoint>
            <Time>2021-04-03T14:39:39.000Z</Time>
            <Position>
              <LatitudeDegrees>42.322524748742580413818359375</LatitudeDegrees>
              <LongitudeDegrees>2.47431325726211071014404296875</LongitudeDegrees>
            </Position>
            <AltitudeMeters>614.5999755859375</AltitudeMeters>
            <DistanceMeters>NAN</DistanceMeters>
          </Trackpoint>
          <Trackpoint>
            <Time>2021-04-03T14:39:42.000Z</Time>
            <Position>
              <LatitudeDegrees>42.3225292749702930450439453125</LatitudeDegrees>
              <LongitudeDegrees>2.47428090311586856842041015625</LongitudeDegrees>
            </Position>
            <AltitudeMeters>614.79998779296875</AltitudeMeters>
            <DistanceMeters>NAN</DistanceMeters>
          </Trackpoint>
          <Trackpoint>
            <Time>2021-04-03T14:39:44.000Z</Time>
            <Position>
              <LatitudeDegrees>42.32253505848348140716552734375</LatitudeDegrees>
              <LongitudeDegrees>2.47425843961536884307861328125</LongitudeDegrees>
            </Position>
            <AltitudeMeters>615</AltitudeMeters>
            <DistanceMeters>NAN</DistanceMeters>
          </Trackpoint>
          <Trackpoint>
            <Time>2021-04-03T14:39:45.000Z</Time>
            <Position>
              <LatitudeDegrees>42.32253782451152801513671875</LatitudeDegrees>
              <LongitudeDegrees>2.47425106354057788848876953125</LongitudeDegrees>
            </Position>
            <AltitudeMeters>615</AltitudeMeters>
            <DistanceMeters>NAN</DistanceMeters>
          </Trackpoint>
          <Trackpoint>
            <Time>2021-04-03T14:39:52.000Z</Time>
            <Position>
              <LatitudeDegrees>42.3225691728293895721435546875</LatitudeDegrees>
              <LongitudeDegrees>2.47417998500168323516845703125</LongitudeDegrees>
            </Position>
            <AltitudeMeters>615.4000244140625</AltitudeMeters>
            <DistanceMeters>NAN</DistanceMeters>
          </Trackpoint>
          <Trackpoint>
            <Time>2021-04-03T14:39:56.000Z</Time>
            <Position>
              <LatitudeDegrees>42.32257914729416370391845703125</LatitudeDegrees>
              <LongitudeDegrees>2.47413338162004947662353515625</LongitudeDegrees>
            </Position>
            <AltitudeMeters>615.5999755859375</AltitudeMeters>
            <DistanceMeters>NAN</DistanceMeters>
          </Trackpoint>
          <Trackpoint>
            <Time>2021-04-03T14:39:57.000Z</Time>
            <Position>
              <LatitudeDegrees>42.322580404579639434814453125</LatitudeDegrees>
              <LongitudeDegrees>2.47411812655627727508544921875</LongitudeDegrees>
            </Position>
            <AltitudeMeters>615.79998779296875</AltitudeMeters>
            <DistanceMeters>NAN</DistanceMeters>
          </Trackpoint>
          <Trackpoint>
            <Time>2021-04-03T14:40:03.000Z</Time>
            <Position>
              <LatitudeDegrees>42.322593815624713897705078125</LatitudeDegrees>
              <LongitudeDegrees>2.47405895031988620758056640625</LongitudeDegrees>
            </Position>
            <AltitudeMeters>616.20001220703125</AltitudeMeters>
            <DistanceMeters>NAN</DistanceMeters>
          </Trackpoint>
          <Trackpoint>
            <Time>2021-04-03T14:40:04.000Z</Time>
            <Position>
              <LatitudeDegrees>42.32259507291018962860107421875</LatitudeDegrees>
              <LongitudeDegrees>2.4740479700267314910888671875</LongitudeDegrees>
            </Position>
            <AltitudeMeters>616.20001220703125</AltitudeMeters>
            <DistanceMeters>NAN</DistanceMeters>
          </Trackpoint>
          <Trackpoint>
            <Time>2021-04-03T14:40:05.000Z</Time>
            <Position>
              <LatitudeDegrees>42.3225973360240459442138671875</LatitudeDegrees>
              <LongitudeDegrees>2.47403665445744991302490234375</LongitudeDegrees>
            </Position>
            <AltitudeMeters>616.20001220703125</AltitudeMeters>
            <DistanceMeters>NAN</DistanceMeters>
          </Trackpoint>
          <Trackpoint>
            <Time>2021-04-03T14:40:08.000Z</Time>
            <Position>
              <LatitudeDegrees>42.322618626058101654052734375</LatitudeDegrees>
              <LongitudeDegrees>2.4740104191005229949951171875</LongitudeDegrees>
            </Position>
            <AltitudeMeters>616.4000244140625</AltitudeMeters>
            <DistanceMeters>NAN</DistanceMeters>
          </Trackpoint>
          <Trackpoint>
            <Time>2021-04-03T14:40:15.000Z</Time>
            <Position>
              <LatitudeDegrees>42.3226310312747955322265625</LatitudeDegrees>
              <LongitudeDegrees>2.47391201555728912353515625</LongitudeDegrees>
            </Position>
            <AltitudeMeters>616.79998779296875</AltitudeMeters>
            <DistanceMeters>NAN</DistanceMeters>
          </Trackpoint>
          <Trackpoint>
            <Time>2021-04-03T14:40:21.000Z</Time>
            <Position>
              <LatitudeDegrees>42.322631366550922393798828125</LatitudeDegrees>
              <LongitudeDegrees>2.473876476287841796875</LongitudeDegrees>
            </Position>
            <AltitudeMeters>617.20001220703125</AltitudeMeters>
            <DistanceMeters>NAN</DistanceMeters>
          </Trackpoint>
          <Trackpoint>
            <Time>2021-04-03T14:40:23.000Z</Time>
            <Position>
              <LatitudeDegrees>42.32262876816093921661376953125</LatitudeDegrees>
              <LongitudeDegrees>2.47388024814426898956298828125</LongitudeDegrees>
            </Position>
            <AltitudeMeters>617.20001220703125</AltitudeMeters>
            <DistanceMeters>NAN</DistanceMeters>
          </Trackpoint>
          <Trackpoint>
            <Time>2021-04-03T14:40:26.000Z</Time>
            <Position>
              <LatitudeDegrees>42.32262097299098968505859375</LatitudeDegrees>
              <LongitudeDegrees>2.473899610340595245361328125</LongitudeDegrees>
            </Position>
            <AltitudeMeters>617.5999755859375</AltitudeMeters>
            <DistanceMeters>NAN</DistanceMeters>
          </Trackpoint>
          <Trackpoint>
            <Time>2021-04-03T14:40:27.000Z</Time>
            <Position>
              <LatitudeDegrees>42.32261829078197479248046875</LatitudeDegrees>
              <LongitudeDegrees>2.47391042299568653106689453125</LongitudeDegrees>
            </Position>
            <AltitudeMeters>617.79998779296875</AltitudeMeters>
            <DistanceMeters>NAN</DistanceMeters>
          </Trackpoint>
          <Trackpoint>
            <Time>2021-04-03T14:40:28.000Z</Time>
            <Position>
              <LatitudeDegrees>42.322616614401340484619140625</LatitudeDegrees>
              <LongitudeDegrees>2.4739086627960205078125</LongitudeDegrees>
            </Position>
            <AltitudeMeters>618</AltitudeMeters>
            <DistanceMeters>NAN</DistanceMeters>
          </Trackpoint>
          <Trackpoint>
            <Time>2021-04-03T14:40:30.000Z</Time>
            <Position>
              <LatitudeDegrees>42.32261267490684986114501953125</LatitudeDegrees>
              <LongitudeDegrees>2.47391293756663799285888671875</LongitudeDegrees>
            </Position>
            <AltitudeMeters>618.20001220703125</AltitudeMeters>
            <DistanceMeters>NAN</DistanceMeters>
          </Trackpoint>
          <Trackpoint>
            <Time>2021-04-03T14:40:35.000Z</Time>
            <Position>
              <LatitudeDegrees>42.322610914707183837890625</LatitudeDegrees>
              <LongitudeDegrees>2.473916709423065185546875</LongitudeDegrees>
            </Position>
            <AltitudeMeters>618.5999755859375</AltitudeMeters>
            <DistanceMeters>NAN</DistanceMeters>
          </Trackpoint>
          <Trackpoint>
            <Time>2021-04-03T14:40:36.000Z</Time>
            <Position>
              <LatitudeDegrees>42.32261435128748416900634765625</LatitudeDegrees>
              <LongitudeDegrees>2.47391981072723865509033203125</LongitudeDegrees>
            </Position>
            <AltitudeMeters>618.79998779296875</AltitudeMeters>
            <DistanceMeters>NAN</DistanceMeters>
          </Trackpoint>
          <Trackpoint>
            <Time>2021-04-03T14:40:37.000Z</Time>
            <Position>
              <LatitudeDegrees>42.32260948978364467620849609375</LatitudeDegrees>
              <LongitudeDegrees>2.473926432430744171142578125</LongitudeDegrees>
            </Position>
            <AltitudeMeters>618.79998779296875</AltitudeMeters>
            <DistanceMeters>NAN</DistanceMeters>
          </Trackpoint>
          <Trackpoint>
            <Time>2021-04-03T14:40:38.000Z</Time>
            <Position>
              <LatitudeDegrees>42.322606556117534637451171875</LatitudeDegrees>
              <LongitudeDegrees>2.4739322997629642486572265625</LongitudeDegrees>
            </Position>
            <AltitudeMeters>618.79998779296875</AltitudeMeters>
            <DistanceMeters>NAN</DistanceMeters>
          </Trackpoint>
          <Trackpoint>
            <Time>2021-04-03T14:40:43.000Z</Time>
            <Position>
              <LatitudeDegrees>42.3225829191505908966064453125</LatitudeDegrees>
              <LongitudeDegrees>2.47393523342907428741455078125</LongitudeDegrees>
            </Position>
            <AltitudeMeters>619.79998779296875</AltitudeMeters>
            <DistanceMeters>NAN</DistanceMeters>
          </Trackpoint>
          <Trackpoint>
            <Time>2021-04-03T14:40:44.000Z</Time>
            <Position>
              <LatitudeDegrees>42.32258216477930545806884765625</LatitudeDegrees>
              <LongitudeDegrees>2.4739259295165538787841796875</LongitudeDegrees>
            </Position>
            <AltitudeMeters>620</AltitudeMeters>
            <DistanceMeters>NAN</DistanceMeters>
          </Trackpoint>
          <Trackpoint>
            <Time>2021-04-03T14:40:46.000Z</Time>
            <Position>
              <LatitudeDegrees>42.32257897965610027313232421875</LatitudeDegrees>
              <LongitudeDegrees>2.47389500029385089874267578125</LongitudeDegrees>
            </Position>
            <AltitudeMeters>620</AltitudeMeters>
            <DistanceMeters>NAN</DistanceMeters>
          </Trackpoint>
          <Trackpoint>
            <Time>2021-04-03T14:40:53.000Z</Time>
            <Position>
              <LatitudeDegrees>42.32258166186511516571044921875</LatitudeDegrees>
              <LongitudeDegrees>2.47385744936764240264892578125</LongitudeDegrees>
            </Position>
            <AltitudeMeters>621</AltitudeMeters>
            <DistanceMeters>NAN</DistanceMeters>
          </Trackpoint>
          <Trackpoint>
            <Time>2021-04-03T14:41:00.000Z</Time>
            <Position>
              <LatitudeDegrees>42.32258073985576629638671875</LatitudeDegrees>
              <LongitudeDegrees>2.47383615933358669281005859375</LongitudeDegrees>
            </Position>
            <AltitudeMeters>621.5999755859375</AltitudeMeters>
            <DistanceMeters>NAN</DistanceMeters>
          </Trackpoint>
          <Trackpoint>
            <Time>2021-04-03T14:41:01.000Z</Time>
            <Position>
              <LatitudeDegrees>42.32258233241736888885498046875</LatitudeDegrees>
              <LongitudeDegrees>2.473834566771984100341796875</LongitudeDegrees>
            </Position>
            <AltitudeMeters>621.5999755859375</AltitudeMeters>
            <DistanceMeters>NAN</DistanceMeters>
          </Trackpoint>
          <Trackpoint>
            <Time>2021-04-03T14:41:03.000Z</Time>
            <Position>
              <LatitudeDegrees>42.32255995273590087890625</LatitudeDegrees>
              <LongitudeDegrees>2.47383548878133296966552734375</LongitudeDegrees>
            </Position>
            <AltitudeMeters>622</AltitudeMeters>
            <DistanceMeters>NAN</DistanceMeters>
          </Trackpoint>
          <Trackpoint>
            <Time>2021-04-03T14:41:07.000Z</Time>
            <Position>
              <LatitudeDegrees>42.3225564323365688323974609375</LatitudeDegrees>
              <LongitudeDegrees>2.47379676438868045806884765625</LongitudeDegrees>
            </Position>
            <AltitudeMeters>622.5999755859375</AltitudeMeters>
            <DistanceMeters>NAN</DistanceMeters>
          </Trackpoint>
          <Trackpoint>
            <Time>2021-04-03T14:41:09.000Z</Time>
            <Position>
              <LatitudeDegrees>42.32256305404007434844970703125</LatitudeDegrees>
              <LongitudeDegrees>2.47379408217966556549072265625</LongitudeDegrees>
            </Position>
            <AltitudeMeters>623</AltitudeMeters>
            <DistanceMeters>NAN</DistanceMeters>
          </Trackpoint>
          <Trackpoint>
            <Time>2021-04-03T14:41:13.000Z</Time>
            <Position>
              <LatitudeDegrees>42.32257747091352939605712890625</LatitudeDegrees>
              <LongitudeDegrees>2.47377899475395679473876953125</LongitudeDegrees>
            </Position>
            <AltitudeMeters>623.5999755859375</AltitudeMeters>
            <DistanceMeters>NAN</DistanceMeters>
          </Trackpoint>
          <Trackpoint>
            <Time>2021-04-03T14:41:15.000Z</Time>
            <Position>
              <LatitudeDegrees>42.32257948257029056549072265625</LatitudeDegrees>
              <LongitudeDegrees>2.47378368861973285675048828125</LongitudeDegrees>
            </Position>
            <AltitudeMeters>623.79998779296875</AltitudeMeters>
            <DistanceMeters>NAN</DistanceMeters>
          </Trackpoint>
          <Trackpoint>
            <Time>2021-04-03T14:41:17.000Z</Time>
            <Position>
              <LatitudeDegrees>42.322585768997669219970703125</LatitudeDegrees>
              <LongitudeDegrees>2.47378687374293804168701171875</LongitudeDegrees>
            </Position>
            <AltitudeMeters>624</AltitudeMeters>
            <DistanceMeters>NAN</DistanceMeters>
          </Trackpoint>
          <Trackpoint>
            <Time>2021-04-03T14:41:18.000Z</Time>
            <Position>
              <LatitudeDegrees>42.3225852660834789276123046875</LatitudeDegrees>
              <LongitudeDegrees>2.4737851135432720184326171875</LongitudeDegrees>
            </Position>
            <AltitudeMeters>624.20001220703125</AltitudeMeters>
            <DistanceMeters>NAN</DistanceMeters>
          </Trackpoint>
          <Trackpoint>
            <Time>2021-04-03T14:41:19.000Z</Time>
            <Position>
              <LatitudeDegrees>42.3225882835686206817626953125</LatitudeDegrees>
              <LongitudeDegrees>2.4737790785729885101318359375</LongitudeDegrees>
            </Position>
            <AltitudeMeters>624.20001220703125</AltitudeMeters>
            <DistanceMeters>NAN</DistanceMeters>
          </Trackpoint>
          <Trackpoint>
            <Time>2021-04-03T14:41:22.000Z</Time>
            <Position>
              <LatitudeDegrees>42.32261217199265956878662109375</LatitudeDegrees>
              <LongitudeDegrees>2.47377195395529270172119140625</LongitudeDegrees>
            </Position>
            <AltitudeMeters>624.4000244140625</AltitudeMeters>
            <DistanceMeters>NAN</DistanceMeters>
          </Trackpoint>
          <Trackpoint>
            <Time>2021-04-03T14:41:25.000Z</Time>
            <Position>
              <LatitudeDegrees>42.322633378207683563232421875</LatitudeDegrees>
              <LongitudeDegrees>2.47376047074794769287109375</LongitudeDegrees>
            </Position>
            <AltitudeMeters>624.79998779296875</AltitudeMeters>
            <DistanceMeters>NAN</DistanceMeters>
          </Trackpoint>
          <Trackpoint>
            <Time>2021-04-03T14:41:26.000Z</Time>
            <Position>
              <LatitudeDegrees>42.32263748534023761749267578125</LatitudeDegrees>
              <LongitudeDegrees>2.47375309467315673828125</LongitudeDegrees>
            </Position>
            <AltitudeMeters>624.79998779296875</AltitudeMeters>
            <DistanceMeters>NAN</DistanceMeters>
          </Trackpoint>
          <Trackpoint>
            <Time>2021-04-03T14:41:30.000Z</Time>
            <Position>
              <LatitudeDegrees>42.3226684145629405975341796875</LatitudeDegrees>
              <LongitudeDegrees>2.4737432040274143218994140625</LongitudeDegrees>
            </Position>
            <AltitudeMeters>625.20001220703125</AltitudeMeters>
            <DistanceMeters>NAN</DistanceMeters>
          </Trackpoint>
          <Trackpoint>
            <Time>2021-04-03T14:41:33.000Z</Time>
            <Position>
              <LatitudeDegrees>42.3227116651833057403564453125</LatitudeDegrees>
              <LongitudeDegrees>2.47372149489820003509521484375</LongitudeDegrees>
            </Position>
            <AltitudeMeters>625.20001220703125</AltitudeMeters>
            <DistanceMeters>NAN</DistanceMeters>
          </Trackpoint>
          <Trackpoint>
            <Time>2021-04-03T14:41:36.000Z</Time>
            <Position>
              <LatitudeDegrees>42.32271962799131870269775390625</LatitudeDegrees>
              <LongitudeDegrees>2.4737061560153961181640625</LongitudeDegrees>
            </Position>
            <AltitudeMeters>625.79998779296875</AltitudeMeters>
            <DistanceMeters>NAN</DistanceMeters>
          </Trackpoint>
          <Trackpoint>
            <Time>2021-04-03T14:41:40.000Z</Time>
            <Position>
              <LatitudeDegrees>42.32274091802537441253662109375</LatitudeDegrees>
              <LongitudeDegrees>2.47367656789720058441162109375</LongitudeDegrees>
            </Position>
            <AltitudeMeters>626.20001220703125</AltitudeMeters>
            <DistanceMeters>NAN</DistanceMeters>
          </Trackpoint>
          <Trackpoint>
            <Time>2021-04-03T14:41:41.000Z</Time>
            <Position>
              <LatitudeDegrees>42.32274695299565792083740234375</LatitudeDegrees>
              <LongitudeDegrees>2.47366726398468017578125</LongitudeDegrees>
            </Position>
            <AltitudeMeters>626.4000244140625</AltitudeMeters>
            <DistanceMeters>NAN</DistanceMeters>
          </Trackpoint>
          <Trackpoint>
            <Time>2021-04-03T14:41:42.000Z</Time>
            <Position>
              <LatitudeDegrees>42.32275550253689289093017578125</LatitudeDegrees>
              <LongitudeDegrees>2.47365980409085750579833984375</LongitudeDegrees>
            </Position>
            <AltitudeMeters>626.4000244140625</AltitudeMeters>
            <DistanceMeters>NAN</DistanceMeters>
          </Trackpoint>
          <Trackpoint>
            <Time>2021-04-03T14:41:43.000Z</Time>
            <Position>
              <LatitudeDegrees>42.3227589391171932220458984375</LatitudeDegrees>
              <LongitudeDegrees>2.473653852939605712890625</LongitudeDegrees>
            </Position>
            <AltitudeMeters>626.5999755859375</AltitudeMeters>
            <DistanceMeters>NAN</DistanceMeters>
          </Trackpoint>
          <Trackpoint>
            <Time>2021-04-03T14:41:48.000Z</Time>
            <Position>
              <LatitudeDegrees>42.32277193106710910797119140625</LatitudeDegrees>
              <LongitudeDegrees>2.47363398782908916473388671875</LongitudeDegrees>
            </Position>
            <AltitudeMeters>626.79998779296875</AltitudeMeters>
            <DistanceMeters>NAN</DistanceMeters>
          </Trackpoint>
          <Trackpoint>
            <Time>2021-04-03T14:41:51.000Z</Time>
            <Position>
              <LatitudeDegrees>42.3227710090577602386474609375</LatitudeDegrees>
              <LongitudeDegrees>2.4736188165843486785888671875</LongitudeDegrees>
            </Position>
            <AltitudeMeters>627</AltitudeMeters>
            <DistanceMeters>NAN</DistanceMeters>
          </Trackpoint>
          <Trackpoint>
            <Time>2021-04-03T14:41:53.000Z</Time>
            <Position>
              <LatitudeDegrees>42.32277913950383663177490234375</LatitudeDegrees>
              <LongitudeDegrees>2.4736015498638153076171875</LongitudeDegrees>
            </Position>
            <AltitudeMeters>627.4000244140625</AltitudeMeters>
            <DistanceMeters>NAN</DistanceMeters>
          </Trackpoint>
          <Trackpoint>
            <Time>2021-04-03T14:41:54.000Z</Time>
            <Position>
              <LatitudeDegrees>42.322781570255756378173828125</LatitudeDegrees>
              <LongitudeDegrees>2.4735908210277557373046875</LongitudeDegrees>
            </Position>
            <AltitudeMeters>627.4000244140625</AltitudeMeters>
            <DistanceMeters>NAN</DistanceMeters>
          </Trackpoint>
          <Trackpoint>
            <Time>2021-04-03T14:41:55.000Z</Time>
            <Position>
              <LatitudeDegrees>42.32278517447412014007568359375</LatitudeDegrees>
              <LongitudeDegrees>2.47358051128685474395751953125</LongitudeDegrees>
            </Position>
            <AltitudeMeters>627.5999755859375</AltitudeMeters>
            <DistanceMeters>NAN</DistanceMeters>
          </Trackpoint>
          <Trackpoint>
            <Time>2021-04-03T14:41:58.000Z</Time>
            <Position>
              <LatitudeDegrees>42.32280344702303409576416015625</LatitudeDegrees>
              <LongitudeDegrees>2.473558299243450164794921875</LongitudeDegrees>
            </Position>
            <AltitudeMeters>628</AltitudeMeters>
            <DistanceMeters>NAN</DistanceMeters>
          </Trackpoint>
          <Trackpoint>
            <Time>2021-04-03T14:42:01.000Z</Time>
            <Position>
              <LatitudeDegrees>42.3228072188794612884521484375</LatitudeDegrees>
              <LongitudeDegrees>2.47354413382709026336669921875</LongitudeDegrees>
            </Position>
            <AltitudeMeters>628.20001220703125</AltitudeMeters>
            <DistanceMeters>NAN</DistanceMeters>
          </Trackpoint>
          <Trackpoint>
            <Time>2021-04-03T14:42:03.000Z</Time>
            <Position>
              <LatitudeDegrees>42.322814427316188812255859375</LatitudeDegrees>
              <LongitudeDegrees>2.47352569364011287689208984375</LongitudeDegrees>
            </Position>
            <AltitudeMeters>628.4000244140625</AltitudeMeters>
            <DistanceMeters>NAN</DistanceMeters>
          </Trackpoint>
          <Trackpoint>
            <Time>2021-04-03T14:42:05.000Z</Time>
            <Position>
              <LatitudeDegrees>42.32283018529415130615234375</LatitudeDegrees>
              <LongitudeDegrees>2.4735121987760066986083984375</LongitudeDegrees>
            </Position>
            <AltitudeMeters>629</AltitudeMeters>
            <DistanceMeters>NAN</DistanceMeters>
          </Trackpoint>
          <Trackpoint>
            <Time>2021-04-03T14:42:06.000Z</Time>
            <Position>
              <LatitudeDegrees>42.3228350467979907989501953125</LatitudeDegrees>
              <LongitudeDegrees>2.47351127676665782928466796875</LongitudeDegrees>
            </Position>
            <AltitudeMeters>629</AltitudeMeters>
            <DistanceMeters>NAN</DistanceMeters>
          </Trackpoint>
          <Trackpoint>
            <Time>2021-04-03T14:42:09.000Z</Time>
            <Position>
              <LatitudeDegrees>42.32285239733755588531494140625</LatitudeDegrees>
              <LongitudeDegrees>2.47348629869520664215087890625</LongitudeDegrees>
            </Position>
            <AltitudeMeters>629.20001220703125</AltitudeMeters>
            <DistanceMeters>NAN</DistanceMeters>
          </Trackpoint>
          <Trackpoint>
            <Time>2021-04-03T14:42:10.000Z</Time>
            <Position>
              <LatitudeDegrees>42.32285792939364910125732421875</LatitudeDegrees>
              <LongitudeDegrees>2.4734763242304325103759765625</LongitudeDegrees>
            </Position>
            <AltitudeMeters>629.4000244140625</AltitudeMeters>
            <DistanceMeters>NAN</DistanceMeters>
          </Trackpoint>
          <Trackpoint>
            <Time>2021-04-03T14:42:11.000Z</Time>
            <Position>
              <LatitudeDegrees>42.3228625394403934478759765625</LatitudeDegrees>
              <LongitudeDegrees>2.4734709598124027252197265625</LongitudeDegrees>
            </Position>
            <AltitudeMeters>629.4000244140625</AltitudeMeters>
            <DistanceMeters>NAN</DistanceMeters>
          </Trackpoint>
          <Trackpoint>
            <Time>2021-04-03T14:42:12.000Z</Time>
            <Position>
              <LatitudeDegrees>42.322867400944232940673828125</LatitudeDegrees>
              <LongitudeDegrees>2.47347422875463962554931640625</LongitudeDegrees>
            </Position>
            <AltitudeMeters>629.5999755859375</AltitudeMeters>
            <DistanceMeters>NAN</DistanceMeters>
          </Trackpoint>
          <Trackpoint>
            <Time>2021-04-03T14:42:15.000Z</Time>
            <Position>
              <LatitudeDegrees>42.32289849780499935150146484375</LatitudeDegrees>
              <LongitudeDegrees>2.4734769947826862335205078125</LongitudeDegrees>
            </Position>
            <AltitudeMeters>629.79998779296875</AltitudeMeters>
            <DistanceMeters>NAN</DistanceMeters>
          </Trackpoint>
          <Trackpoint>
            <Time>2021-04-03T14:42:17.000Z</Time>
            <Position>
              <LatitudeDegrees>42.3229034431278705596923828125</LatitudeDegrees>
              <LongitudeDegrees>2.473466098308563232421875</LongitudeDegrees>
            </Position>
            <AltitudeMeters>630.20001220703125</AltitudeMeters>
            <DistanceMeters>NAN</DistanceMeters>
          </Trackpoint>
          <Trackpoint>
            <Time>2021-04-03T14:42:21.000Z</Time>
            <Position>
              <LatitudeDegrees>42.32290788553655147552490234375</LatitudeDegrees>
              <LongitudeDegrees>2.47342762537300586700439453125</LongitudeDegrees>
            </Position>
            <AltitudeMeters>630.4000244140625</AltitudeMeters>
            <DistanceMeters>NAN</DistanceMeters>
          </Trackpoint>
          <Trackpoint>
            <Time>2021-04-03T14:42:23.000Z</Time>
            <Position>
              <LatitudeDegrees>42.32291601598262786865234375</LatitudeDegrees>
              <LongitudeDegrees>2.473412118852138519287109375</LongitudeDegrees>
            </Position>
            <AltitudeMeters>630.79998779296875</AltitudeMeters>
            <DistanceMeters>NAN</DistanceMeters>
          </Trackpoint>
          <Trackpoint>
            <Time>2021-04-03T14:42:28.000Z</Time>
            <Position>
              <LatitudeDegrees>42.32294174842536449432373046875</LatitudeDegrees>
              <LongitudeDegrees>2.4733894877135753631591796875</LongitudeDegrees>
            </Position>
            <AltitudeMeters>631.4000244140625</AltitudeMeters>
            <DistanceMeters>NAN</DistanceMeters>
          </Trackpoint>
          <Trackpoint>
            <Time>2021-04-03T14:42:30.000Z</Time>
            <Position>
              <LatitudeDegrees>42.32295096851885318756103515625</LatitudeDegrees>
              <LongitudeDegrees>2.47337968088686466217041015625</LongitudeDegrees>
            </Position>
            <AltitudeMeters>631.79998779296875</AltitudeMeters>
            <DistanceMeters>NAN</DistanceMeters>
          </Trackpoint>
          <Trackpoint>
            <Time>2021-04-03T14:42:37.000Z</Time>
            <Position>
              <LatitudeDegrees>42.322963289916515350341796875</LatitudeDegrees>
              <LongitudeDegrees>2.4733412079513072967529296875</LongitudeDegrees>
            </Position>
            <AltitudeMeters>632.5999755859375</AltitudeMeters>
            <DistanceMeters>NAN</DistanceMeters>
          </Trackpoint>
          <Trackpoint>
            <Time>2021-04-03T14:42:38.000Z</Time>
            <Position>
              <LatitudeDegrees>42.32296697795391082763671875</LatitudeDegrees>
              <LongitudeDegrees>2.47333475388586521148681640625</LongitudeDegrees>
            </Position>
            <AltitudeMeters>632.79998779296875</AltitudeMeters>
            <DistanceMeters>NAN</DistanceMeters>
          </Trackpoint>
          <Trackpoint>
            <Time>2021-04-03T14:42:45.000Z</Time>
            <Position>
              <LatitudeDegrees>42.32300444506108760833740234375</LatitudeDegrees>
              <LongitudeDegrees>2.47329485602676868438720703125</LongitudeDegrees>
            </Position>
            <AltitudeMeters>633.4000244140625</AltitudeMeters>
            <DistanceMeters>NAN</DistanceMeters>
          </Trackpoint>
          <Trackpoint>
            <Time>2021-04-03T14:42:48.000Z</Time>
            <Position>
              <LatitudeDegrees>42.32301467098295688629150390625</LatitudeDegrees>
              <LongitudeDegrees>2.47327624820172786712646484375</LongitudeDegrees>
            </Position>
            <AltitudeMeters>633.4000244140625</AltitudeMeters>
            <DistanceMeters>NAN</DistanceMeters>
          </Trackpoint>
          <Trackpoint>
            <Time>2021-04-03T14:42:52.000Z</Time>
            <Position>
              <LatitudeDegrees>42.32302422635257244110107421875</LatitudeDegrees>
              <LongitudeDegrees>2.47324774973094463348388671875</LongitudeDegrees>
            </Position>
            <AltitudeMeters>633.79998779296875</AltitudeMeters>
            <DistanceMeters>NAN</DistanceMeters>
          </Trackpoint>
          <Trackpoint>
            <Time>2021-04-03T14:42:54.000Z</Time>
            <Position>
              <LatitudeDegrees>42.3230348713696002960205078125</LatitudeDegrees>
              <LongitudeDegrees>2.4732335843145847320556640625</LongitudeDegrees>
            </Position>
            <AltitudeMeters>634</AltitudeMeters>
            <DistanceMeters>NAN</DistanceMeters>
          </Trackpoint>
          <Trackpoint>
            <Time>2021-04-03T14:42:57.000Z</Time>
            <Position>
              <LatitudeDegrees>42.3230425827205181121826171875</LatitudeDegrees>
              <LongitudeDegrees>2.4732211790978908538818359375</LongitudeDegrees>
            </Position>
            <AltitudeMeters>634</AltitudeMeters>
            <DistanceMeters>NAN</DistanceMeters>
          </Trackpoint>
          <Trackpoint>
            <Time>2021-04-03T14:43:02.000Z</Time>
            <Position>
              <LatitudeDegrees>42.32304417528212070465087890625</LatitudeDegrees>
              <LongitudeDegrees>2.47318455018103122711181640625</LongitudeDegrees>
            </Position>
            <AltitudeMeters>634.5999755859375</AltitudeMeters>
            <DistanceMeters>NAN</DistanceMeters>
          </Trackpoint>
          <Trackpoint>
            <Time>2021-04-03T14:43:03.000Z</Time>
            <Position>
              <LatitudeDegrees>42.323043756186962127685546875</LatitudeDegrees>
              <LongitudeDegrees>2.47317365370690822601318359375</LongitudeDegrees>
            </Position>
            <AltitudeMeters>634.5999755859375</AltitudeMeters>
            <DistanceMeters>NAN</DistanceMeters>
          </Trackpoint>
          <Trackpoint>
            <Time>2021-04-03T14:43:05.000Z</Time>
            <Position>
              <LatitudeDegrees>42.32304744422435760498046875</LatitudeDegrees>
              <LongitudeDegrees>2.47316275723278522491455078125</LongitudeDegrees>
            </Position>
            <AltitudeMeters>634.79998779296875</AltitudeMeters>
            <DistanceMeters>NAN</DistanceMeters>
          </Trackpoint>
          <Trackpoint>
            <Time>2021-04-03T14:43:06.000Z</Time>
            <Position>
              <LatitudeDegrees>42.323047108948230743408203125</LatitudeDegrees>
              <LongitudeDegrees>2.4731558002531528472900390625</LongitudeDegrees>
            </Position>
            <AltitudeMeters>635</AltitudeMeters>
            <DistanceMeters>NAN</DistanceMeters>
          </Trackpoint>
          <Trackpoint>
            <Time>2021-04-03T14:43:09.000Z</Time>
            <Position>
              <LatitudeDegrees>42.323046438395977020263671875</LatitudeDegrees>
              <LongitudeDegrees>2.473127804696559906005859375</LongitudeDegrees>
            </Position>
            <AltitudeMeters>635</AltitudeMeters>
            <DistanceMeters>NAN</DistanceMeters>
          </Trackpoint>
          <Trackpoint>
            <Time>2021-04-03T14:43:14.000Z</Time>
            <Position>
              <LatitudeDegrees>42.32305171899497509002685546875</LatitudeDegrees>
              <LongitudeDegrees>2.47309486381709575653076171875</LongitudeDegrees>
            </Position>
            <AltitudeMeters>635.4000244140625</AltitudeMeters>
            <DistanceMeters>NAN</DistanceMeters>
          </Trackpoint>
          <Trackpoint>
            <Time>2021-04-03T14:43:15.000Z</Time>
            <Position>
              <LatitudeDegrees>42.3230521380901336669921875</LatitudeDegrees>
              <LongitudeDegrees>2.47308715246617794036865234375</LongitudeDegrees>
            </Position>
            <AltitudeMeters>635.4000244140625</AltitudeMeters>
            <DistanceMeters>NAN</DistanceMeters>
          </Trackpoint>
          <Trackpoint>
            <Time>2021-04-03T14:43:21.000Z</Time>
            <Position>
              <LatitudeDegrees>42.32306714169681072235107421875</LatitudeDegrees>
              <LongitudeDegrees>2.4730139784514904022216796875</LongitudeDegrees>
            </Position>
            <AltitudeMeters>635.5999755859375</AltitudeMeters>
            <DistanceMeters>NAN</DistanceMeters>
          </Trackpoint>
          <Trackpoint>
            <Time>2021-04-03T14:43:26.000Z</Time>
            <Position>
              <LatitudeDegrees>42.32308541424572467803955078125</LatitudeDegrees>
              <LongitudeDegrees>2.4729583226144313812255859375</LongitudeDegrees>
            </Position>
            <AltitudeMeters>635.79998779296875</AltitudeMeters>
            <DistanceMeters>NAN</DistanceMeters>
          </Trackpoint>
          <Trackpoint>
            <Time>2021-04-03T14:43:27.000Z</Time>
            <Position>
              <LatitudeDegrees>42.323092706501483917236328125</LatitudeDegrees>
              <LongitudeDegrees>2.472946085035800933837890625</LongitudeDegrees>
            </Position>
            <AltitudeMeters>635.79998779296875</AltitudeMeters>
            <DistanceMeters>NAN</DistanceMeters>
          </Trackpoint>
          <Trackpoint>
            <Time>2021-04-03T14:43:29.000Z</Time>
            <Position>
              <LatitudeDegrees>42.32310117222368717193603515625</LatitudeDegrees>
              <LongitudeDegrees>2.4729358591139316558837890625</LongitudeDegrees>
            </Position>
            <AltitudeMeters>635.79998779296875</AltitudeMeters>
            <DistanceMeters>NAN</DistanceMeters>
          </Trackpoint>
          <Trackpoint>
            <Time>2021-04-03T14:43:34.000Z</Time>
            <Position>
              <LatitudeDegrees>42.3231146670877933502197265625</LatitudeDegrees>
              <LongitudeDegrees>2.47288816608488559722900390625</LongitudeDegrees>
            </Position>
            <AltitudeMeters>636</AltitudeMeters>
            <DistanceMeters>NAN</DistanceMeters>
          </Trackpoint>
          <Trackpoint>
            <Time>2021-04-03T14:43:37.000Z</Time>
            <Position>
              <LatitudeDegrees>42.32313553802669048309326171875</LatitudeDegrees>
              <LongitudeDegrees>2.47286754660308361053466796875</LongitudeDegrees>
            </Position>
            <AltitudeMeters>636</AltitudeMeters>
            <DistanceMeters>NAN</DistanceMeters>
          </Trackpoint>
          <Trackpoint>
            <Time>2021-04-03T14:43:39.000Z</Time>
            <Position>
              <LatitudeDegrees>42.32313729822635650634765625</LatitudeDegrees>
              <LongitudeDegrees>2.47286352328956127166748046875</LongitudeDegrees>
            </Position>
            <AltitudeMeters>636.20001220703125</AltitudeMeters>
            <DistanceMeters>NAN</DistanceMeters>
          </Trackpoint>
          <Trackpoint>
            <Time>2021-04-03T14:43:40.000Z</Time>
            <Position>
              <LatitudeDegrees>42.32314140535891056060791015625</LatitudeDegrees>
              <LongitudeDegrees>2.472856901586055755615234375</LongitudeDegrees>
            </Position>
            <AltitudeMeters>636.20001220703125</AltitudeMeters>
            <DistanceMeters>NAN</DistanceMeters>
          </Trackpoint>
          <Trackpoint>
            <Time>2021-04-03T14:43:46.000Z</Time>
            <Position>
              <LatitudeDegrees>42.323182560503482818603515625</LatitudeDegrees>
              <LongitudeDegrees>2.47280426323413848876953125</LongitudeDegrees>
            </Position>
            <AltitudeMeters>636.5999755859375</AltitudeMeters>
            <DistanceMeters>NAN</DistanceMeters>
          </Trackpoint>
          <Trackpoint>
            <Time>2021-04-03T14:43:51.000Z</Time>
            <Position>
              <LatitudeDegrees>42.32320209033787250518798828125</LatitudeDegrees>
              <LongitudeDegrees>2.47276671230792999267578125</LongitudeDegrees>
            </Position>
            <AltitudeMeters>637</AltitudeMeters>
            <DistanceMeters>NAN</DistanceMeters>
          </Trackpoint>
          <Trackpoint>
            <Time>2021-04-03T14:43:53.000Z</Time>
            <Position>
              <LatitudeDegrees>42.32320913113653659820556640625</LatitudeDegrees>
              <LongitudeDegrees>2.47275640256702899932861328125</LongitudeDegrees>
            </Position>
            <AltitudeMeters>637</AltitudeMeters>
            <DistanceMeters>NAN</DistanceMeters>
          </Trackpoint>
          <Trackpoint>
            <Time>2021-04-03T14:44:02.000Z</Time>
            <Position>
              <LatitudeDegrees>42.3232521302998065948486328125</LatitudeDegrees>
              <LongitudeDegrees>2.47270979918539524078369140625</LongitudeDegrees>
            </Position>
            <AltitudeMeters>637.5999755859375</AltitudeMeters>
            <DistanceMeters>NAN</DistanceMeters>
          </Trackpoint>
          <Trackpoint>
            <Time>2021-04-03T14:44:10.000Z</Time>
            <Position>
              <LatitudeDegrees>42.3233004100620746612548828125</LatitudeDegrees>
              <LongitudeDegrees>2.47264442034065723419189453125</LongitudeDegrees>
            </Position>
            <AltitudeMeters>638</AltitudeMeters>
            <DistanceMeters>NAN</DistanceMeters>
          </Trackpoint>
          <Trackpoint>
            <Time>2021-04-03T14:44:15.000Z</Time>
            <Position>
              <LatitudeDegrees>42.323311977088451385498046875</LatitudeDegrees>
              <LongitudeDegrees>2.47259547002613544464111328125</LongitudeDegrees>
            </Position>
            <AltitudeMeters>638.20001220703125</AltitudeMeters>
            <DistanceMeters>NAN</DistanceMeters>
          </Trackpoint>
          <Trackpoint>
            <Time>2021-04-03T14:44:24.000Z</Time>
            <Position>
              <LatitudeDegrees>42.323327399790287017822265625</LatitudeDegrees>
              <LongitudeDegrees>2.472495138645172119140625</LongitudeDegrees>
            </Position>
            <AltitudeMeters>639</AltitudeMeters>
            <DistanceMeters>NAN</DistanceMeters>
          </Trackpoint>
          <Trackpoint>
            <Time>2021-04-03T14:44:25.000Z</Time>
            <Position>
              <LatitudeDegrees>42.32332530431449413299560546875</LatitudeDegrees>
              <LongitudeDegrees>2.47248549945652484893798828125</LongitudeDegrees>
            </Position>
            <AltitudeMeters>639.20001220703125</AltitudeMeters>
            <DistanceMeters>NAN</DistanceMeters>
          </Trackpoint>
          <Trackpoint>
            <Time>2021-04-03T14:44:30.000Z</Time>
            <Position>
              <LatitudeDegrees>42.32332111336290836334228515625</LatitudeDegrees>
              <LongitudeDegrees>2.47242162935435771942138671875</LongitudeDegrees>
            </Position>
            <AltitudeMeters>639.4000244140625</AltitudeMeters>
            <DistanceMeters>NAN</DistanceMeters>
          </Trackpoint>
          <Trackpoint>
            <Time>2021-04-03T14:44:34.000Z</Time>
            <Position>
              <LatitudeDegrees>42.32334919273853302001953125</LatitudeDegrees>
              <LongitudeDegrees>2.47238793410360813140869140625</LongitudeDegrees>
            </Position>
            <AltitudeMeters>639.5999755859375</AltitudeMeters>
            <DistanceMeters>NAN</DistanceMeters>
          </Trackpoint>
          <Trackpoint>
            <Time>2021-04-03T14:44:35.000Z</Time>
            <Position>
              <LatitudeDegrees>42.323361597955226898193359375</LatitudeDegrees>
              <LongitudeDegrees>2.4723799712955951690673828125</LongitudeDegrees>
            </Position>
            <AltitudeMeters>639.79998779296875</AltitudeMeters>
            <DistanceMeters>NAN</DistanceMeters>
          </Trackpoint>
          <Trackpoint>
            <Time>2021-04-03T14:44:36.000Z</Time>
            <Position>
              <LatitudeDegrees>42.32336956076323986053466796875</LatitudeDegrees>
              <LongitudeDegrees>2.4723655544221401214599609375</LongitudeDegrees>
            </Position>
            <AltitudeMeters>639.79998779296875</AltitudeMeters>
            <DistanceMeters>NAN</DistanceMeters>
          </Trackpoint>
          <Trackpoint>
            <Time>2021-04-03T14:44:41.000Z</Time>
            <Position>
              <LatitudeDegrees>42.32337643392384052276611328125</LatitudeDegrees>
              <LongitudeDegrees>2.4723088927567005157470703125</LongitudeDegrees>
            </Position>
            <AltitudeMeters>640</AltitudeMeters>
            <DistanceMeters>NAN</DistanceMeters>
          </Trackpoint>
          <Trackpoint>
            <Time>2021-04-03T14:44:44.000Z</Time>
            <Position>
              <LatitudeDegrees>42.3233791999518871307373046875</LatitudeDegrees>
              <LongitudeDegrees>2.47227544896304607391357421875</LongitudeDegrees>
            </Position>
            <AltitudeMeters>640</AltitudeMeters>
            <DistanceMeters>NAN</DistanceMeters>
          </Trackpoint>
          <Trackpoint>
            <Time>2021-04-03T14:44:47.000Z</Time>
            <Position>
              <LatitudeDegrees>42.323373667895793914794921875</LatitudeDegrees>
              <LongitudeDegrees>2.47226103208959102630615234375</LongitudeDegrees>
            </Position>
            <AltitudeMeters>640.20001220703125</AltitudeMeters>
            <DistanceMeters>NAN</DistanceMeters>
          </Trackpoint>
          <Trackpoint>
            <Time>2021-04-03T14:44:53.000Z</Time>
            <Position>
              <LatitudeDegrees>42.3234088718891143798828125</LatitudeDegrees>
              <LongitudeDegrees>2.47223638929426670074462890625</LongitudeDegrees>
            </Position>
            <AltitudeMeters>640.4000244140625</AltitudeMeters>
            <DistanceMeters>NAN</DistanceMeters>
          </Trackpoint>
          <Trackpoint>
            <Time>2021-04-03T14:44:58.000Z</Time>
            <Position>
              <LatitudeDegrees>42.32346427626907825469970703125</LatitudeDegrees>
              <LongitudeDegrees>2.47221878729760646820068359375</LongitudeDegrees>
            </Position>
            <AltitudeMeters>640.4000244140625</AltitudeMeters>
            <DistanceMeters>NAN</DistanceMeters>
          </Trackpoint>
          <Trackpoint>
            <Time>2021-04-03T14:44:59.000Z</Time>
            <Position>
              <LatitudeDegrees>42.323476932942867279052734375</LatitudeDegrees>
              <LongitudeDegrees>2.472223900258541107177734375</LongitudeDegrees>
            </Position>
            <AltitudeMeters>640.4000244140625</AltitudeMeters>
            <DistanceMeters>NAN</DistanceMeters>
          </Trackpoint>
          <Trackpoint>
            <Time>2021-04-03T14:45:02.000Z</Time>
            <Position>
              <LatitudeDegrees>42.32350249774754047393798828125</LatitudeDegrees>
              <LongitudeDegrees>2.47222817502915859222412109375</LongitudeDegrees>
            </Position>
            <AltitudeMeters>640.79998779296875</AltitudeMeters>
            <DistanceMeters>NAN</DistanceMeters>
          </Trackpoint>
          <Trackpoint>
            <Time>2021-04-03T14:45:06.000Z</Time>
            <Position>
              <LatitudeDegrees>42.32352194376289844512939453125</LatitudeDegrees>
              <LongitudeDegrees>2.47223027050495147705078125</LongitudeDegrees>
            </Position>
            <AltitudeMeters>641.20001220703125</AltitudeMeters>
            <DistanceMeters>NAN</DistanceMeters>
          </Trackpoint>
          <Trackpoint>
            <Time>2021-04-03T14:45:07.000Z</Time>
            <Position>
              <LatitudeDegrees>42.3235283978283405303955078125</LatitudeDegrees>
              <LongitudeDegrees>2.472228594124317169189453125</LongitudeDegrees>
            </Position>
            <AltitudeMeters>641.20001220703125</AltitudeMeters>
            <DistanceMeters>NAN</DistanceMeters>
          </Trackpoint>
          <Trackpoint>
            <Time>2021-04-03T14:45:08.000Z</Time>
            <Position>
              <LatitudeDegrees>42.3235364444553852081298828125</LatitudeDegrees>
              <LongitudeDegrees>2.472235299646854400634765625</LongitudeDegrees>
            </Position>
            <AltitudeMeters>641.20001220703125</AltitudeMeters>
            <DistanceMeters>NAN</DistanceMeters>
          </Trackpoint>
          <Trackpoint>
            <Time>2021-04-03T14:45:13.000Z</Time>
            <Position>
              <LatitudeDegrees>42.32358765788376331329345703125</LatitudeDegrees>
              <LongitudeDegrees>2.47224099934101104736328125</LongitudeDegrees>
            </Position>
            <AltitudeMeters>641.20001220703125</AltitudeMeters>
            <DistanceMeters>NAN</DistanceMeters>
          </Trackpoint>
          <Trackpoint>
            <Time>2021-04-03T14:45:15.000Z</Time>
            <Position>
              <LatitudeDegrees>42.32360132038593292236328125</LatitudeDegrees>
              <LongitudeDegrees>2.472239993512630462646484375</LongitudeDegrees>
            </Position>
            <AltitudeMeters>641.20001220703125</AltitudeMeters>
            <DistanceMeters>NAN</DistanceMeters>
          </Trackpoint>
          <Trackpoint>
            <Time>2021-04-03T14:45:17.000Z</Time>
            <Position>
              <LatitudeDegrees>42.32360794208943843841552734375</LatitudeDegrees>
              <LongitudeDegrees>2.47223538346588611602783203125</LongitudeDegrees>
            </Position>
            <AltitudeMeters>641.20001220703125</AltitudeMeters>
            <DistanceMeters>NAN</DistanceMeters>
          </Trackpoint>
          <Trackpoint>
            <Time>2021-04-03T14:45:19.000Z</Time>
            <Position>
              <LatitudeDegrees>42.32362168841063976287841796875</LatitudeDegrees>
              <LongitudeDegrees>2.4722311086952686309814453125</LongitudeDegrees>
            </Position>
            <AltitudeMeters>641</AltitudeMeters>
            <DistanceMeters>NAN</DistanceMeters>
          </Trackpoint>
          <Trackpoint>
            <Time>2021-04-03T14:45:26.000Z</Time>
            <Position>
              <LatitudeDegrees>42.3236752487719058990478515625</LatitudeDegrees>
              <LongitudeDegrees>2.4722418375313282012939453125</LongitudeDegrees>
            </Position>
            <AltitudeMeters>640.5999755859375</AltitudeMeters>
            <DistanceMeters>NAN</DistanceMeters>
          </Trackpoint>
          <Trackpoint>
            <Time>2021-04-03T14:45:27.000Z</Time>
            <Position>
              <LatitudeDegrees>42.32368807308375835418701171875</LatitudeDegrees>
              <LongitudeDegrees>2.47224410064518451690673828125</LongitudeDegrees>
            </Position>
            <AltitudeMeters>640.4000244140625</AltitudeMeters>
            <DistanceMeters>NAN</DistanceMeters>
          </Trackpoint>
          <Trackpoint>
            <Time>2021-04-03T14:45:29.000Z</Time>
            <Position>
              <LatitudeDegrees>42.3237226903438568115234375</LatitudeDegrees>
              <LongitudeDegrees>2.472248375415802001953125</LongitudeDegrees>
            </Position>
            <AltitudeMeters>640</AltitudeMeters>
            <DistanceMeters>NAN</DistanceMeters>
          </Trackpoint>
          <Trackpoint>
            <Time>2021-04-03T14:45:34.000Z</Time>
            <Position>
              <LatitudeDegrees>42.323780693113803863525390625</LatitudeDegrees>
              <LongitudeDegrees>2.47226245701313018798828125</LongitudeDegrees>
            </Position>
            <AltitudeMeters>639.20001220703125</AltitudeMeters>
            <DistanceMeters>NAN</DistanceMeters>
          </Trackpoint>
          <Trackpoint>
            <Time>2021-04-03T14:45:35.000Z</Time>
            <Position>
              <LatitudeDegrees>42.323788739740848541259765625</LatitudeDegrees>
              <LongitudeDegrees>2.4722606129944324493408203125</LongitudeDegrees>
            </Position>
            <AltitudeMeters>639</AltitudeMeters>
            <DistanceMeters>NAN</DistanceMeters>
          </Trackpoint>
          <Trackpoint>
            <Time>2021-04-03T14:45:37.000Z</Time>
            <Position>
              <LatitudeDegrees>42.3238070122897624969482421875</LatitudeDegrees>
              <LongitudeDegrees>2.4722649715840816497802734375</LongitudeDegrees>
            </Position>
            <AltitudeMeters>638.79998779296875</AltitudeMeters>
            <DistanceMeters>NAN</DistanceMeters>
          </Trackpoint>
          <Trackpoint>
            <Time>2021-04-03T14:45:43.000Z</Time>
            <Position>
              <LatitudeDegrees>42.32386392541229724884033203125</LatitudeDegrees>
              <LongitudeDegrees>2.4722451902925968170166015625</LongitudeDegrees>
            </Position>
            <AltitudeMeters>638.20001220703125</AltitudeMeters>
            <DistanceMeters>NAN</DistanceMeters>
          </Trackpoint>
          <Trackpoint>
            <Time>2021-04-03T14:45:48.000Z</Time>
            <Position>
              <LatitudeDegrees>42.3239005543291568756103515625</LatitudeDegrees>
              <LongitudeDegrees>2.4722470343112945556640625</LongitudeDegrees>
            </Position>
            <AltitudeMeters>638.20001220703125</AltitudeMeters>
            <DistanceMeters>NAN</DistanceMeters>
          </Trackpoint>
          <Trackpoint>
            <Time>2021-04-03T14:45:49.000Z</Time>
            <Position>
              <LatitudeDegrees>42.3239072598516941070556640625</LatitudeDegrees>
              <LongitudeDegrees>2.4722431786358356475830078125</LongitudeDegrees>
            </Position>
            <AltitudeMeters>638</AltitudeMeters>
            <DistanceMeters>NAN</DistanceMeters>
          </Trackpoint>
          <Trackpoint>
            <Time>2021-04-03T14:45:50.000Z</Time>
            <Position>
              <LatitudeDegrees>42.32391203753650188446044921875</LatitudeDegrees>
              <LongitudeDegrees>2.47224242426455020904541015625</LongitudeDegrees>
            </Position>
            <AltitudeMeters>638</AltitudeMeters>
            <DistanceMeters>NAN</DistanceMeters>
          </Trackpoint>
          <Trackpoint>
            <Time>2021-04-03T14:45:53.000Z</Time>
            <Position>
              <LatitudeDegrees>42.32393634505569934844970703125</LatitudeDegrees>
              <LongitudeDegrees>2.47224158607423305511474609375</LongitudeDegrees>
            </Position>
            <AltitudeMeters>638</AltitudeMeters>
            <DistanceMeters>NAN</DistanceMeters>
          </Trackpoint>
          <Trackpoint>
            <Time>2021-04-03T14:45:57.000Z</Time>
            <Position>
              <LatitudeDegrees>42.32397154904901981353759765625</LatitudeDegrees>
              <LongitudeDegrees>2.472240664064884185791015625</LongitudeDegrees>
            </Position>
            <AltitudeMeters>638</AltitudeMeters>
            <DistanceMeters>NAN</DistanceMeters>
          </Trackpoint>
          <Trackpoint>
            <Time>2021-04-03T14:46:00.000Z</Time>
            <Position>
              <LatitudeDegrees>42.32398563064634799957275390625</LatitudeDegrees>
              <LongitudeDegrees>2.47225248254835605621337890625</LongitudeDegrees>
            </Position>
            <AltitudeMeters>637.79998779296875</AltitudeMeters>
            <DistanceMeters>NAN</DistanceMeters>
          </Trackpoint>
          <Trackpoint>
            <Time>2021-04-03T14:46:02.000Z</Time>
            <Position>
              <LatitudeDegrees>42.32400231063365936279296875</LatitudeDegrees>
              <LongitudeDegrees>2.47225575149059295654296875</LongitudeDegrees>
            </Position>
            <AltitudeMeters>637.79998779296875</AltitudeMeters>
            <DistanceMeters>NAN</DistanceMeters>
          </Trackpoint>
          <Trackpoint>
            <Time>2021-04-03T14:46:03.000Z</Time>
            <Position>
              <LatitudeDegrees>42.32401572167873382568359375</LatitudeDegrees>
              <LongitudeDegrees>2.47224762104451656341552734375</LongitudeDegrees>
            </Position>
            <AltitudeMeters>637.79998779296875</AltitudeMeters>
            <DistanceMeters>NAN</DistanceMeters>
          </Trackpoint>
          <Trackpoint>
            <Time>2021-04-03T14:46:04.000Z</Time>
            <Position>
              <LatitudeDegrees>42.32402150519192218780517578125</LatitudeDegrees>
              <LongitudeDegrees>2.472241334617137908935546875</LongitudeDegrees>
            </Position>
            <AltitudeMeters>637.79998779296875</AltitudeMeters>
            <DistanceMeters>NAN</DistanceMeters>
          </Trackpoint>
          <Trackpoint>
            <Time>2021-04-03T14:46:11.000Z</Time>
            <Position>
              <LatitudeDegrees>42.324065677821636199951171875</LatitudeDegrees>
              <LongitudeDegrees>2.47223563492298126220703125</LongitudeDegrees>
            </Position>
            <AltitudeMeters>638</AltitudeMeters>
            <DistanceMeters>NAN</DistanceMeters>
          </Trackpoint>
          <Trackpoint>
            <Time>2021-04-03T14:46:17.000Z</Time>
            <Position>
              <LatitudeDegrees>42.32410565949976444244384765625</LatitudeDegrees>
              <LongitudeDegrees>2.47222817502915859222412109375</LongitudeDegrees>
            </Position>
            <AltitudeMeters>638</AltitudeMeters>
            <DistanceMeters>NAN</DistanceMeters>
          </Trackpoint>
          <Trackpoint>
            <Time>2021-04-03T14:46:25.000Z</Time>
            <Position>
              <LatitudeDegrees>42.32418025843799114227294921875</LatitudeDegrees>
              <LongitudeDegrees>2.47226522304117679595947265625</LongitudeDegrees>
            </Position>
            <AltitudeMeters>638.4000244140625</AltitudeMeters>
            <DistanceMeters>NAN</DistanceMeters>
          </Trackpoint>
          <Trackpoint>
            <Time>2021-04-03T14:46:34.000Z</Time>
            <Position>
              <LatitudeDegrees>42.32426273636519908905029296875</LatitudeDegrees>
              <LongitudeDegrees>2.472264133393764495849609375</LongitudeDegrees>
            </Position>
            <AltitudeMeters>638.5999755859375</AltitudeMeters>
            <DistanceMeters>NAN</DistanceMeters>
          </Trackpoint>
          <Trackpoint>
            <Time>2021-04-03T14:46:40.000Z</Time>
            <Position>
              <LatitudeDegrees>42.32427748851478099822998046875</LatitudeDegrees>
              <LongitudeDegrees>2.4722361378371715545654296875</LongitudeDegrees>
            </Position>
            <AltitudeMeters>639</AltitudeMeters>
            <DistanceMeters>NAN</DistanceMeters>
          </Trackpoint>
          <Trackpoint>
            <Time>2021-04-03T14:46:43.000Z</Time>
            <Position>
              <LatitudeDegrees>42.32431973330676555633544921875</LatitudeDegrees>
              <LongitudeDegrees>2.4722099862992763519287109375</LongitudeDegrees>
            </Position>
            <AltitudeMeters>639.20001220703125</AltitudeMeters>
            <DistanceMeters>NAN</DistanceMeters>
          </Trackpoint>
          <Trackpoint>
            <Time>2021-04-03T14:46:46.000Z</Time>
            <Position>
              <LatitudeDegrees>42.32434588484466075897216796875</LatitudeDegrees>
              <LongitudeDegrees>2.47221878729760646820068359375</LongitudeDegrees>
            </Position>
            <AltitudeMeters>639.5999755859375</AltitudeMeters>
            <DistanceMeters>NAN</DistanceMeters>
          </Trackpoint>
          <Trackpoint>
            <Time>2021-04-03T14:46:48.000Z</Time>
            <Position>
              <LatitudeDegrees>42.32435904443264007568359375</LatitudeDegrees>
              <LongitudeDegrees>2.47221090830862522125244140625</LongitudeDegrees>
            </Position>
            <AltitudeMeters>640</AltitudeMeters>
            <DistanceMeters>NAN</DistanceMeters>
          </Trackpoint>
          <Trackpoint>
            <Time>2021-04-03T14:46:52.000Z</Time>
            <Position>
              <LatitudeDegrees>42.32438050210475921630859375</LatitudeDegrees>
              <LongitudeDegrees>2.47219850309193134307861328125</LongitudeDegrees>
            </Position>
            <AltitudeMeters>640.5999755859375</AltitudeMeters>
            <DistanceMeters>NAN</DistanceMeters>
          </Trackpoint>
          <Trackpoint>
            <Time>2021-04-03T14:46:55.000Z</Time>
            <Position>
              <LatitudeDegrees>42.32439952902495861053466796875</LatitudeDegrees>
              <LongitudeDegrees>2.4721932224929332733154296875</LongitudeDegrees>
            </Position>
            <AltitudeMeters>641</AltitudeMeters>
            <DistanceMeters>NAN</DistanceMeters>
          </Trackpoint>
          <Trackpoint>
            <Time>2021-04-03T14:46:57.000Z</Time>
            <Position>
              <LatitudeDegrees>42.32441805303096771240234375</LatitudeDegrees>
              <LongitudeDegrees>2.4722046218812465667724609375</LongitudeDegrees>
            </Position>
            <AltitudeMeters>641.20001220703125</AltitudeMeters>
            <DistanceMeters>NAN</DistanceMeters>
          </Trackpoint>
          <Trackpoint>
            <Time>2021-04-03T14:46:59.000Z</Time>
            <Position>
              <LatitudeDegrees>42.32442836277186870574951171875</LatitudeDegrees>
              <LongitudeDegrees>2.47221191413700580596923828125</LongitudeDegrees>
            </Position>
            <AltitudeMeters>641.4000244140625</AltitudeMeters>
            <DistanceMeters>NAN</DistanceMeters>
          </Trackpoint>
          <Trackpoint>
            <Time>2021-04-03T14:47:00.000Z</Time>
            <Position>
              <LatitudeDegrees>42.32443012297153472900390625</LatitudeDegrees>
              <LongitudeDegrees>2.4722126685082912445068359375</LongitudeDegrees>
            </Position>
            <AltitudeMeters>641.4000244140625</AltitudeMeters>
            <DistanceMeters>NAN</DistanceMeters>
          </Trackpoint>
          <Trackpoint>
            <Time>2021-04-03T14:47:03.000Z</Time>
            <Position>
              <LatitudeDegrees>42.3244388401508331298828125</LatitudeDegrees>
              <LongitudeDegrees>2.47221811674535274505615234375</LongitudeDegrees>
            </Position>
            <AltitudeMeters>641.79998779296875</AltitudeMeters>
            <DistanceMeters>NAN</DistanceMeters>
          </Trackpoint>
          <Trackpoint>
            <Time>2021-04-03T14:47:05.000Z</Time>
            <Position>
              <LatitudeDegrees>42.32445552013814449310302734375</LatitudeDegrees>
              <LongitudeDegrees>2.4722073040902614593505859375</LongitudeDegrees>
            </Position>
            <AltitudeMeters>642</AltitudeMeters>
            <DistanceMeters>NAN</DistanceMeters>
          </Trackpoint>
          <Trackpoint>
            <Time>2021-04-03T14:47:07.000Z</Time>
            <Position>
              <LatitudeDegrees>42.324476055800914764404296875</LatitudeDegrees>
              <LongitudeDegrees>2.47219816781580448150634765625</LongitudeDegrees>
            </Position>
            <AltitudeMeters>642.20001220703125</AltitudeMeters>
            <DistanceMeters>NAN</DistanceMeters>
          </Trackpoint>
          <Trackpoint>
            <Time>2021-04-03T14:47:09.000Z</Time>
            <Position>
              <LatitudeDegrees>42.32448737137019634246826171875</LatitudeDegrees>
              <LongitudeDegrees>2.4721948988735675811767578125</LongitudeDegrees>
            </Position>
            <AltitudeMeters>642.5999755859375</AltitudeMeters>
            <DistanceMeters>NAN</DistanceMeters>
          </Trackpoint>
          <Trackpoint>
            <Time>2021-04-03T14:47:11.000Z</Time>
            <Position>
              <LatitudeDegrees>42.32449726201593875885009765625</LatitudeDegrees>
              <LongitudeDegrees>2.47219263575971126556396484375</LongitudeDegrees>
            </Position>
            <AltitudeMeters>642.5999755859375</AltitudeMeters>
            <DistanceMeters>NAN</DistanceMeters>
          </Trackpoint>
          <Trackpoint>
            <Time>2021-04-03T14:47:15.000Z</Time>
            <Position>
              <LatitudeDegrees>42.32453699223697185516357421875</LatitudeDegrees>
              <LongitudeDegrees>2.47220344841480255126953125</LongitudeDegrees>
            </Position>
            <AltitudeMeters>642.79998779296875</AltitudeMeters>
            <DistanceMeters>NAN</DistanceMeters>
          </Trackpoint>
          <Trackpoint>
            <Time>2021-04-03T14:47:20.000Z</Time>
            <Position>
              <LatitudeDegrees>42.324569933116436004638671875</LatitudeDegrees>
              <LongitudeDegrees>2.47220554389059543609619140625</LongitudeDegrees>
            </Position>
            <AltitudeMeters>643</AltitudeMeters>
            <DistanceMeters>NAN</DistanceMeters>
          </Trackpoint>
          <Trackpoint>
            <Time>2021-04-03T14:47:27.000Z</Time>
            <Position>
              <LatitudeDegrees>42.32463656924664974212646484375</LatitudeDegrees>
              <LongitudeDegrees>2.47217603959143161773681640625</LongitudeDegrees>
            </Position>
            <AltitudeMeters>643</AltitudeMeters>
            <DistanceMeters>NAN</DistanceMeters>
          </Trackpoint>
          <Trackpoint>
            <Time>2021-04-03T14:47:31.000Z</Time>
            <Position>
              <LatitudeDegrees>42.32467395253479480743408203125</LatitudeDegrees>
              <LongitudeDegrees>2.4721613712608814239501953125</LongitudeDegrees>
            </Position>
            <AltitudeMeters>643.20001220703125</AltitudeMeters>
            <DistanceMeters>NAN</DistanceMeters>
          </Trackpoint>
          <Trackpoint>
            <Time>2021-04-03T14:47:35.000Z</Time>
            <Position>
              <LatitudeDegrees>42.3246908001601696014404296875</LatitudeDegrees>
              <LongitudeDegrees>2.47213304042816162109375</LongitudeDegrees>
            </Position>
            <AltitudeMeters>643.4000244140625</AltitudeMeters>
            <DistanceMeters>NAN</DistanceMeters>
          </Trackpoint>
          <Trackpoint>
            <Time>2021-04-03T14:47:41.000Z</Time>
            <Position>
              <LatitudeDegrees>42.32472826726734638214111328125</LatitudeDegrees>
              <LongitudeDegrees>2.47211736626923084259033203125</LongitudeDegrees>
            </Position>
            <AltitudeMeters>643.5999755859375</AltitudeMeters>
            <DistanceMeters>NAN</DistanceMeters>
          </Trackpoint>
          <Trackpoint>
            <Time>2021-04-03T14:47:44.000Z</Time>
            <Position>
              <LatitudeDegrees>42.32474662363529205322265625</LatitudeDegrees>
              <LongitudeDegrees>2.472097165882587432861328125</LongitudeDegrees>
            </Position>
            <AltitudeMeters>643.5999755859375</AltitudeMeters>
            <DistanceMeters>NAN</DistanceMeters>
          </Trackpoint>
          <Trackpoint>
            <Time>2021-04-03T14:47:45.000Z</Time>
            <Position>
              <LatitudeDegrees>42.3247494734823703765869140625</LatitudeDegrees>
              <LongitudeDegrees>2.47208811342716217041015625</LongitudeDegrees>
            </Position>
            <AltitudeMeters>643.5999755859375</AltitudeMeters>
            <DistanceMeters>NAN</DistanceMeters>
          </Trackpoint>
          <Trackpoint>
            <Time>2021-04-03T14:47:47.000Z</Time>
            <Position>
              <LatitudeDegrees>42.324761040508747100830078125</LatitudeDegrees>
              <LongitudeDegrees>2.47207093052566051483154296875</LongitudeDegrees>
            </Position>
            <AltitudeMeters>643.5999755859375</AltitudeMeters>
            <DistanceMeters>NAN</DistanceMeters>
          </Trackpoint>
          <Trackpoint>
            <Time>2021-04-03T14:47:48.000Z</Time>
            <Position>
              <LatitudeDegrees>42.32477017678320407867431640625</LatitudeDegrees>
              <LongitudeDegrees>2.4720681644976139068603515625</LongitudeDegrees>
            </Position>
            <AltitudeMeters>643.5999755859375</AltitudeMeters>
            <DistanceMeters>NAN</DistanceMeters>
          </Trackpoint>
          <Trackpoint>
            <Time>2021-04-03T14:47:55.000Z</Time>
            <Position>
              <LatitudeDegrees>42.32480219565331935882568359375</LatitudeDegrees>
              <LongitudeDegrees>2.47201703488826751708984375</LongitudeDegrees>
            </Position>
            <AltitudeMeters>643.20001220703125</AltitudeMeters>
            <DistanceMeters>NAN</DistanceMeters>
          </Trackpoint>
          <Trackpoint>
            <Time>2021-04-03T14:48:03.000Z</Time>
            <Position>
              <LatitudeDegrees>42.32482365332543849945068359375</LatitudeDegrees>
              <LongitudeDegrees>2.47196649201214313507080078125</LongitudeDegrees>
            </Position>
            <AltitudeMeters>643</AltitudeMeters>
            <DistanceMeters>NAN</DistanceMeters>
          </Trackpoint>
          <Trackpoint>
            <Time>2021-04-03T14:48:12.000Z</Time>
            <Position>
              <LatitudeDegrees>42.32485382817685604095458984375</LatitudeDegrees>
              <LongitudeDegrees>2.47193380258977413177490234375</LongitudeDegrees>
            </Position>
            <AltitudeMeters>643</AltitudeMeters>
            <DistanceMeters>NAN</DistanceMeters>
          </Trackpoint>
          <Trackpoint>
            <Time>2021-04-03T14:48:14.000Z</Time>
            <Position>
              <LatitudeDegrees>42.32485567219555377960205078125</LatitudeDegrees>
              <LongitudeDegrees>2.47191418893635272979736328125</LongitudeDegrees>
            </Position>
            <AltitudeMeters>643</AltitudeMeters>
            <DistanceMeters>NAN</DistanceMeters>
          </Trackpoint>
          <Trackpoint>
            <Time>2021-04-03T14:48:22.000Z</Time>
            <Position>
              <LatitudeDegrees>42.3248731903731822967529296875</LatitudeDegrees>
              <LongitudeDegrees>2.4718998558819293975830078125</LongitudeDegrees>
            </Position>
            <AltitudeMeters>643</AltitudeMeters>
            <DistanceMeters>NAN</DistanceMeters>
          </Trackpoint>
          <Trackpoint>
            <Time>2021-04-03T14:48:32.000Z</Time>
            <Position>
              <LatitudeDegrees>42.324874699115753173828125</LatitudeDegrees>
              <LongitudeDegrees>2.47191242873668670654296875</LongitudeDegrees>
            </Position>
            <AltitudeMeters>643.20001220703125</AltitudeMeters>
            <DistanceMeters>NAN</DistanceMeters>
          </Trackpoint>
          <Trackpoint>
            <Time>2021-04-03T14:48:43.000Z</Time>
            <Position>
              <LatitudeDegrees>42.324874699115753173828125</LatitudeDegrees>
              <LongitudeDegrees>2.4719119258224964141845703125</LongitudeDegrees>
            </Position>
            <AltitudeMeters>642.4000244140625</AltitudeMeters>
            <DistanceMeters>NAN</DistanceMeters>
          </Trackpoint>
          <Trackpoint>
            <Time>2021-04-03T14:48:44.000Z</Time>
            <Position>
              <LatitudeDegrees>42.324874699115753173828125</LatitudeDegrees>
              <LongitudeDegrees>2.471910417079925537109375</LongitudeDegrees>
            </Position>
            <AltitudeMeters>642.20001220703125</AltitudeMeters>
            <DistanceMeters>NAN</DistanceMeters>
          </Trackpoint>
          <Trackpoint>
            <Time>2021-04-03T14:48:49.000Z</Time>
            <Position>
              <LatitudeDegrees>42.3248748667538166046142578125</LatitudeDegrees>
              <LongitudeDegrees>2.47189491055905818939208984375</LongitudeDegrees>
            </Position>
            <AltitudeMeters>641.4000244140625</AltitudeMeters>
            <DistanceMeters>NAN</DistanceMeters>
          </Trackpoint>
          <Trackpoint>
            <Time>2021-04-03T14:48:50.000Z</Time>
            <Position>
              <LatitudeDegrees>42.32487578876316547393798828125</LatitudeDegrees>
              <LongitudeDegrees>2.47189440764486789703369140625</LongitudeDegrees>
            </Position>
            <AltitudeMeters>641.20001220703125</AltitudeMeters>
            <DistanceMeters>NAN</DistanceMeters>
          </Trackpoint>
          <Trackpoint>
            <Time>2021-04-03T14:48:57.000Z</Time>
            <Position>
              <LatitudeDegrees>42.3248832486569881439208984375</LatitudeDegrees>
              <LongitudeDegrees>2.47187948785722255706787109375</LongitudeDegrees>
            </Position>
            <AltitudeMeters>640.4000244140625</AltitudeMeters>
            <DistanceMeters>NAN</DistanceMeters>
          </Trackpoint>
          <Trackpoint>
            <Time>2021-04-03T14:49:00.000Z</Time>
            <Position>
              <LatitudeDegrees>42.32489624060690402984619140625</LatitudeDegrees>
              <LongitudeDegrees>2.47187948785722255706787109375</LongitudeDegrees>
            </Position>
            <AltitudeMeters>640.20001220703125</AltitudeMeters>
            <DistanceMeters>NAN</DistanceMeters>
          </Trackpoint>
          <Trackpoint>
            <Time>2021-04-03T14:49:06.000Z</Time>
            <Position>
              <LatitudeDegrees>42.32492406852543354034423828125</LatitudeDegrees>
              <LongitudeDegrees>2.4718780629336833953857421875</LongitudeDegrees>
            </Position>
            <AltitudeMeters>639.20001220703125</AltitudeMeters>
            <DistanceMeters>NAN</DistanceMeters>
          </Trackpoint>
          <Trackpoint>
            <Time>2021-04-03T14:49:18.000Z</Time>
            <Position>
              <LatitudeDegrees>42.3249556683003902435302734375</LatitudeDegrees>
              <LongitudeDegrees>2.4718814156949520111083984375</LongitudeDegrees>
            </Position>
            <AltitudeMeters>638.20001220703125</AltitudeMeters>
            <DistanceMeters>NAN</DistanceMeters>
          </Trackpoint>
          <Trackpoint>
            <Time>2021-04-03T14:49:19.000Z</Time>
            <Position>
              <LatitudeDegrees>42.3249556683003902435302734375</LatitudeDegrees>
              <LongitudeDegrees>2.47188183479011058807373046875</LongitudeDegrees>
            </Position>
            <AltitudeMeters>638.20001220703125</AltitudeMeters>
            <DistanceMeters>NAN</DistanceMeters>
          </Trackpoint>
          <Trackpoint>
            <Time>2021-04-03T14:49:27.000Z</Time>
            <Position>
              <LatitudeDegrees>42.3249565064907073974609375</LatitudeDegrees>
              <LongitudeDegrees>2.47188233770430088043212890625</LongitudeDegrees>
            </Position>
            <AltitudeMeters>637.4000244140625</AltitudeMeters>
            <DistanceMeters>NAN</DistanceMeters>
          </Trackpoint>
          <Trackpoint>
            <Time>2021-04-03T14:49:32.000Z</Time>
            <Position>
              <LatitudeDegrees>42.32496027834713459014892578125</LatitudeDegrees>
              <LongitudeDegrees>2.47188351117074489593505859375</LongitudeDegrees>
            </Position>
            <AltitudeMeters>637</AltitudeMeters>
            <DistanceMeters>NAN</DistanceMeters>
          </Trackpoint>
          <Trackpoint>
            <Time>2021-04-03T14:49:40.000Z</Time>
            <Position>
              <LatitudeDegrees>42.3249663971364498138427734375</LatitudeDegrees>
              <LongitudeDegrees>2.47188887558877468109130859375</LongitudeDegrees>
            </Position>
            <AltitudeMeters>636.5999755859375</AltitudeMeters>
            <DistanceMeters>NAN</DistanceMeters>
          </Trackpoint>
          <Trackpoint>
            <Time>2021-04-03T14:49:44.000Z</Time>
            <Position>
              <LatitudeDegrees>42.32499682344496250152587890625</LatitudeDegrees>
              <LongitudeDegrees>2.47188904322683811187744140625</LongitudeDegrees>
            </Position>
            <AltitudeMeters>636.5999755859375</AltitudeMeters>
            <DistanceMeters>NAN</DistanceMeters>
          </Trackpoint>
          <Trackpoint>
            <Time>2021-04-03T14:50:02.000Z</Time>
            <Position>
              <LatitudeDegrees>42.32505549676716327667236328125</LatitudeDegrees>
              <LongitudeDegrees>2.47195593081414699554443359375</LongitudeDegrees>
            </Position>
            <AltitudeMeters>636.5999755859375</AltitudeMeters>
            <DistanceMeters>NAN</DistanceMeters>
          </Trackpoint>
          <Trackpoint>
            <Time>2021-04-03T14:50:28.000Z</Time>
            <Position>
              <LatitudeDegrees>42.32512707822024822235107421875</LatitudeDegrees>
              <LongitudeDegrees>2.47204259969294071197509765625</LongitudeDegrees>
            </Position>
            <AltitudeMeters>636.20001220703125</AltitudeMeters>
            <DistanceMeters>NAN</DistanceMeters>
          </Trackpoint>
          <Trackpoint>
            <Time>2021-04-03T14:50:30.000Z</Time>
            <Position>
              <LatitudeDegrees>42.3251273296773433685302734375</LatitudeDegrees>
              <LongitudeDegrees>2.47204360552132129669189453125</LongitudeDegrees>
            </Position>
            <AltitudeMeters>636.20001220703125</AltitudeMeters>
            <DistanceMeters>NAN</DistanceMeters>
          </Trackpoint>
          <Trackpoint>
            <Time>2021-04-03T14:50:47.000Z</Time>
            <Position>
              <LatitudeDegrees>42.32512204907834529876708984375</LatitudeDegrees>
              <LongitudeDegrees>2.47205056250095367431640625</LongitudeDegrees>
            </Position>
            <AltitudeMeters>636</AltitudeMeters>
            <DistanceMeters>NAN</DistanceMeters>
          </Trackpoint>
          <Trackpoint>
            <Time>2021-04-03T14:50:58.000Z</Time>
            <Position>
              <LatitudeDegrees>42.325121462345123291015625</LatitudeDegrees>
              <LongitudeDegrees>2.47205064631998538970947265625</LongitudeDegrees>
            </Position>
            <AltitudeMeters>636</AltitudeMeters>
            <DistanceMeters>NAN</DistanceMeters>
          </Trackpoint>
          <Trackpoint>
            <Time>2021-04-03T14:51:02.000Z</Time>
            <Position>
              <LatitudeDegrees>42.3251226358115673065185546875</LatitudeDegrees>
              <LongitudeDegrees>2.47204544954001903533935546875</LongitudeDegrees>
            </Position>
            <AltitudeMeters>636</AltitudeMeters>
            <DistanceMeters>NAN</DistanceMeters>
          </Trackpoint>
          <Trackpoint>
            <Time>2021-04-03T14:51:08.000Z</Time>
            <Position>
              <LatitudeDegrees>42.32512556947767734527587890625</LatitudeDegrees>
              <LongitudeDegrees>2.47203958220779895782470703125</LongitudeDegrees>
            </Position>
            <AltitudeMeters>636</AltitudeMeters>
            <DistanceMeters>NAN</DistanceMeters>
          </Trackpoint>
          <Trackpoint>
            <Time>2021-04-03T14:51:26.000Z</Time>
            <Position>
              <LatitudeDegrees>42.32512615621089935302734375</LatitudeDegrees>
              <LongitudeDegrees>2.4720410071313381195068359375</LongitudeDegrees>
            </Position>
            <AltitudeMeters>635</AltitudeMeters>
            <DistanceMeters>NAN</DistanceMeters>
          </Trackpoint>
          <Trackpoint>
            <Time>2021-04-03T14:51:33.000Z</Time>
            <Position>
              <LatitudeDegrees>42.325126491487026214599609375</LatitudeDegrees>
              <LongitudeDegrees>2.47204142622649669647216796875</LongitudeDegrees>
            </Position>
            <AltitudeMeters>634</AltitudeMeters>
            <DistanceMeters>NAN</DistanceMeters>
          </Trackpoint>
          <Trackpoint>
            <Time>2021-04-03T14:51:38.000Z</Time>
            <Position>
              <LatitudeDegrees>42.32513160444796085357666015625</LatitudeDegrees>
              <LongitudeDegrees>2.47204058803617954254150390625</LongitudeDegrees>
            </Position>
            <AltitudeMeters>632.79998779296875</AltitudeMeters>
            <DistanceMeters>NAN</DistanceMeters>
          </Trackpoint>
          <Trackpoint>
            <Time>2021-04-03T14:51:44.000Z</Time>
            <Position>
              <LatitudeDegrees>42.3251427523791790008544921875</LatitudeDegrees>
              <LongitudeDegrees>2.471995241940021514892578125</LongitudeDegrees>
            </Position>
            <AltitudeMeters>631.79998779296875</AltitudeMeters>
            <DistanceMeters>NAN</DistanceMeters>
          </Trackpoint>
          <Trackpoint>
            <Time>2021-04-03T14:51:48.000Z</Time>
            <Position>
              <LatitudeDegrees>42.3251484520733356475830078125</LatitudeDegrees>
              <LongitudeDegrees>2.47191645205020904541015625</LongitudeDegrees>
            </Position>
            <AltitudeMeters>631.4000244140625</AltitudeMeters>
            <DistanceMeters>NAN</DistanceMeters>
          </Trackpoint>
          <Trackpoint>
            <Time>2021-04-03T14:51:56.000Z</Time>
            <Position>
              <LatitudeDegrees>42.32512213289737701416015625</LatitudeDegrees>
              <LongitudeDegrees>2.47181947343051433563232421875</LongitudeDegrees>
            </Position>
            <AltitudeMeters>630.79998779296875</AltitudeMeters>
            <DistanceMeters>NAN</DistanceMeters>
          </Trackpoint>
          <Trackpoint>
            <Time>2021-04-03T14:51:57.000Z</Time>
            <Position>
              <LatitudeDegrees>42.32511417008936405181884765625</LatitudeDegrees>
              <LongitudeDegrees>2.471806816756725311279296875</LongitudeDegrees>
            </Position>
            <AltitudeMeters>630.5999755859375</AltitudeMeters>
            <DistanceMeters>NAN</DistanceMeters>
          </Trackpoint>
          <Trackpoint>
            <Time>2021-04-03T14:52:01.000Z</Time>
            <Position>
              <LatitudeDegrees>42.325101010501384735107421875</LatitudeDegrees>
              <LongitudeDegrees>2.47177370823919773101806640625</LongitudeDegrees>
            </Position>
            <AltitudeMeters>630.20001220703125</AltitudeMeters>
            <DistanceMeters>NAN</DistanceMeters>
          </Trackpoint>
          <Trackpoint>
            <Time>2021-04-03T14:52:03.000Z</Time>
            <Position>
              <LatitudeDegrees>42.32509053312242031097412109375</LatitudeDegrees>
              <LongitudeDegrees>2.471755184233188629150390625</LongitudeDegrees>
            </Position>
            <AltitudeMeters>629.79998779296875</AltitudeMeters>
            <DistanceMeters>NAN</DistanceMeters>
          </Trackpoint>
          <Trackpoint>
            <Time>2021-04-03T14:52:06.000Z</Time>
            <Position>
              <LatitudeDegrees>42.3250864259898662567138671875</LatitudeDegrees>
              <LongitudeDegrees>2.4717305414378643035888671875</LongitudeDegrees>
            </Position>
            <AltitudeMeters>629.5999755859375</AltitudeMeters>
            <DistanceMeters>NAN</DistanceMeters>
          </Trackpoint>
          <Trackpoint>
            <Time>2021-04-03T14:52:09.000Z</Time>
            <Position>
              <LatitudeDegrees>42.32507326640188694000244140625</LatitudeDegrees>
              <LongitudeDegrees>2.47171662747859954833984375</LongitudeDegrees>
            </Position>
            <AltitudeMeters>629.20001220703125</AltitudeMeters>
            <DistanceMeters>NAN</DistanceMeters>
          </Trackpoint>
          <Trackpoint>
            <Time>2021-04-03T14:52:12.000Z</Time>
            <Position>
              <LatitudeDegrees>42.32505516149103641510009765625</LatitudeDegrees>
              <LongitudeDegrees>2.4716956727206707000732421875</LongitudeDegrees>
            </Position>
            <AltitudeMeters>629</AltitudeMeters>
            <DistanceMeters>NAN</DistanceMeters>
          </Trackpoint>
          <Trackpoint>
            <Time>2021-04-03T14:52:20.000Z</Time>
            <Position>
              <LatitudeDegrees>42.32500436715781688690185546875</LatitudeDegrees>
              <LongitudeDegrees>2.47165652923285961151123046875</LongitudeDegrees>
            </Position>
            <AltitudeMeters>629.79998779296875</AltitudeMeters>
            <DistanceMeters>NAN</DistanceMeters>
          </Trackpoint>
          <Trackpoint>
            <Time>2021-04-03T14:52:21.000Z</Time>
            <Position>
              <LatitudeDegrees>42.32500143349170684814453125</LatitudeDegrees>
              <LongitudeDegrees>2.471646554768085479736328125</LongitudeDegrees>
            </Position>
            <AltitudeMeters>630.20001220703125</AltitudeMeters>
            <DistanceMeters>NAN</DistanceMeters>
          </Trackpoint>
          <Trackpoint>
            <Time>2021-04-03T14:52:24.000Z</Time>
            <Position>
              <LatitudeDegrees>42.32499447651207447052001953125</LatitudeDegrees>
              <LongitudeDegrees>2.47161864303052425384521484375</LongitudeDegrees>
            </Position>
            <AltitudeMeters>630.4000244140625</AltitudeMeters>
            <DistanceMeters>NAN</DistanceMeters>
          </Trackpoint>
          <Trackpoint>
            <Time>2021-04-03T14:52:25.000Z</Time>
            <Position>
              <LatitudeDegrees>42.32499196194112300872802734375</LatitudeDegrees>
              <LongitudeDegrees>2.4716017954051494598388671875</LongitudeDegrees>
            </Position>
            <AltitudeMeters>630.4000244140625</AltitudeMeters>
            <DistanceMeters>NAN</DistanceMeters>
          </Trackpoint>
          <Trackpoint>
            <Time>2021-04-03T14:52:29.000Z</Time>
            <Position>
              <LatitudeDegrees>42.32497720979154109954833984375</LatitudeDegrees>
              <LongitudeDegrees>2.47155024670064449310302734375</LongitudeDegrees>
            </Position>
            <AltitudeMeters>630.20001220703125</AltitudeMeters>
            <DistanceMeters>NAN</DistanceMeters>
          </Trackpoint>
          <Trackpoint>
            <Time>2021-04-03T14:52:36.000Z</Time>
            <Position>
              <LatitudeDegrees>42.3249647207558155059814453125</LatitudeDegrees>
              <LongitudeDegrees>2.47146324254572391510009765625</LongitudeDegrees>
            </Position>
            <AltitudeMeters>630</AltitudeMeters>
            <DistanceMeters>NAN</DistanceMeters>
          </Trackpoint>
          <Trackpoint>
            <Time>2021-04-03T14:52:38.000Z</Time>
            <Position>
              <LatitudeDegrees>42.32495960779488086700439453125</LatitudeDegrees>
              <LongitudeDegrees>2.4714408628642559051513671875</LongitudeDegrees>
            </Position>
            <AltitudeMeters>629.79998779296875</AltitudeMeters>
            <DistanceMeters>NAN</DistanceMeters>
          </Trackpoint>
          <Trackpoint>
            <Time>2021-04-03T14:52:43.000Z</Time>
            <Position>
              <LatitudeDegrees>42.3249503038823604583740234375</LatitudeDegrees>
              <LongitudeDegrees>2.47139954008162021636962890625</LongitudeDegrees>
            </Position>
            <AltitudeMeters>628.79998779296875</AltitudeMeters>
            <DistanceMeters>NAN</DistanceMeters>
          </Trackpoint>
          <Trackpoint>
            <Time>2021-04-03T14:52:44.000Z</Time>
            <Position>
              <LatitudeDegrees>42.3249462805688381195068359375</LatitudeDegrees>
              <LongitudeDegrees>2.47139182873070240020751953125</LongitudeDegrees>
            </Position>
            <AltitudeMeters>628.5999755859375</AltitudeMeters>
            <DistanceMeters>NAN</DistanceMeters>
          </Trackpoint>
          <Trackpoint>
            <Time>2021-04-03T14:52:46.000Z</Time>
            <Position>
              <LatitudeDegrees>42.3249362222850322723388671875</LatitudeDegrees>
              <LongitudeDegrees>2.4713774956762790679931640625</LongitudeDegrees>
            </Position>
            <AltitudeMeters>628.5999755859375</AltitudeMeters>
            <DistanceMeters>NAN</DistanceMeters>
          </Trackpoint>
          <Trackpoint>
            <Time>2021-04-03T14:52:53.000Z</Time>
            <Position>
              <LatitudeDegrees>42.32489355839788913726806640625</LatitudeDegrees>
              <LongitudeDegrees>2.47130331583321094512939453125</LongitudeDegrees>
            </Position>
            <AltitudeMeters>629.20001220703125</AltitudeMeters>
            <DistanceMeters>NAN</DistanceMeters>
          </Trackpoint>
          <Trackpoint>
            <Time>2021-04-03T14:52:55.000Z</Time>
            <Position>
              <LatitudeDegrees>42.32488215900957584381103515625</LatitudeDegrees>
              <LongitudeDegrees>2.47127917595207691192626953125</LongitudeDegrees>
            </Position>
            <AltitudeMeters>629.5999755859375</AltitudeMeters>
            <DistanceMeters>NAN</DistanceMeters>
          </Trackpoint>
          <Trackpoint>
            <Time>2021-04-03T14:53:01.000Z</Time>
            <Position>
              <LatitudeDegrees>42.32485583983361721038818359375</LatitudeDegrees>
              <LongitudeDegrees>2.4712049961090087890625</LongitudeDegrees>
            </Position>
            <AltitudeMeters>630</AltitudeMeters>
            <DistanceMeters>NAN</DistanceMeters>
          </Trackpoint>
          <Trackpoint>
            <Time>2021-04-03T14:53:11.000Z</Time>
            <Position>
              <LatitudeDegrees>42.32484930194914340972900390625</LatitudeDegrees>
              <LongitudeDegrees>2.471089661121368408203125</LongitudeDegrees>
            </Position>
            <AltitudeMeters>630</AltitudeMeters>
            <DistanceMeters>NAN</DistanceMeters>
          </Trackpoint>
          <Trackpoint>
            <Time>2021-04-03T14:53:17.000Z</Time>
            <Position>
              <LatitudeDegrees>42.3248376511037349700927734375</LatitudeDegrees>
              <LongitudeDegrees>2.47103576548397541046142578125</LongitudeDegrees>
            </Position>
            <AltitudeMeters>629.79998779296875</AltitudeMeters>
            <DistanceMeters>NAN</DistanceMeters>
          </Trackpoint>
          <Trackpoint>
            <Time>2021-04-03T14:53:19.000Z</Time>
            <Position>
              <LatitudeDegrees>42.32483169995248317718505859375</LatitudeDegrees>
              <LongitudeDegrees>2.471011541783809661865234375</LongitudeDegrees>
            </Position>
            <AltitudeMeters>629.4000244140625</AltitudeMeters>
            <DistanceMeters>NAN</DistanceMeters>
          </Trackpoint>
          <Trackpoint>
            <Time>2021-04-03T14:53:23.000Z</Time>
            <Position>
              <LatitudeDegrees>42.324826419353485107421875</LatitudeDegrees>
              <LongitudeDegrees>2.47096963226795196533203125</LongitudeDegrees>
            </Position>
            <AltitudeMeters>629.20001220703125</AltitudeMeters>
            <DistanceMeters>NAN</DistanceMeters>
          </Trackpoint>
          <Trackpoint>
            <Time>2021-04-03T14:53:24.000Z</Time>
            <Position>
              <LatitudeDegrees>42.324826754629611968994140625</LatitudeDegrees>
              <LongitudeDegrees>2.470959238708019256591796875</LongitudeDegrees>
            </Position>
            <AltitudeMeters>629</AltitudeMeters>
            <DistanceMeters>NAN</DistanceMeters>
          </Trackpoint>
          <Trackpoint>
            <Time>2021-04-03T14:53:26.000Z</Time>
            <Position>
              <LatitudeDegrees>42.3248299397528171539306640625</LatitudeDegrees>
              <LongitudeDegrees>2.47094549238681793212890625</LongitudeDegrees>
            </Position>
            <AltitudeMeters>629</AltitudeMeters>
            <DistanceMeters>NAN</DistanceMeters>
          </Trackpoint>
          <Trackpoint>
            <Time>2021-04-03T14:53:29.000Z</Time>
            <Position>
              <LatitudeDegrees>42.32483781874179840087890625</LatitudeDegrees>
              <LongitudeDegrees>2.4709208495914936065673828125</LongitudeDegrees>
            </Position>
            <AltitudeMeters>628.5999755859375</AltitudeMeters>
            <DistanceMeters>NAN</DistanceMeters>
          </Trackpoint>
          <Trackpoint>
            <Time>2021-04-03T14:53:30.000Z</Time>
            <Position>
              <LatitudeDegrees>42.324838824570178985595703125</LatitudeDegrees>
              <LongitudeDegrees>2.47091087512671947479248046875</LongitudeDegrees>
            </Position>
            <AltitudeMeters>628.4000244140625</AltitudeMeters>
            <DistanceMeters>NAN</DistanceMeters>
          </Trackpoint>
          <Trackpoint>
            <Time>2021-04-03T14:53:31.000Z</Time>
            <Position>
              <LatitudeDegrees>42.3248396627604961395263671875</LatitudeDegrees>
              <LongitudeDegrees>2.4709020741283893585205078125</LongitudeDegrees>
            </Position>
            <AltitudeMeters>628.20001220703125</AltitudeMeters>
            <DistanceMeters>NAN</DistanceMeters>
          </Trackpoint>
          <Trackpoint>
            <Time>2021-04-03T14:53:34.000Z</Time>
            <Position>
              <LatitudeDegrees>42.3248386569321155548095703125</LatitudeDegrees>
              <LongitudeDegrees>2.47087583877146244049072265625</LongitudeDegrees>
            </Position>
            <AltitudeMeters>627.4000244140625</AltitudeMeters>
            <DistanceMeters>NAN</DistanceMeters>
          </Trackpoint>
          <Trackpoint>
            <Time>2021-04-03T14:53:36.000Z</Time>
            <Position>
              <LatitudeDegrees>42.3248331248760223388671875</LatitudeDegrees>
              <LongitudeDegrees>2.47084449045360088348388671875</LongitudeDegrees>
            </Position>
            <AltitudeMeters>626.5999755859375</AltitudeMeters>
            <DistanceMeters>NAN</DistanceMeters>
          </Trackpoint>
          <Trackpoint>
            <Time>2021-04-03T14:53:38.000Z</Time>
            <Position>
              <LatitudeDegrees>42.3248265869915485382080078125</LatitudeDegrees>
              <LongitudeDegrees>2.4708175845444202423095703125</LongitudeDegrees>
            </Position>
            <AltitudeMeters>626.20001220703125</AltitudeMeters>
            <DistanceMeters>NAN</DistanceMeters>
          </Trackpoint>
          <Trackpoint>
            <Time>2021-04-03T14:53:42.000Z</Time>
            <Position>
              <LatitudeDegrees>42.3248063027858734130859375</LatitudeDegrees>
              <LongitudeDegrees>2.4707880802452564239501953125</LongitudeDegrees>
            </Position>
            <AltitudeMeters>625.20001220703125</AltitudeMeters>
            <DistanceMeters>NAN</DistanceMeters>
          </Trackpoint>
          <Trackpoint>
            <Time>2021-04-03T14:53:44.000Z</Time>
            <Position>
              <LatitudeDegrees>42.32479666359722614288330078125</LatitudeDegrees>
              <LongitudeDegrees>2.47076452709734439849853515625</LongitudeDegrees>
            </Position>
            <AltitudeMeters>624.79998779296875</AltitudeMeters>
            <DistanceMeters>NAN</DistanceMeters>
          </Trackpoint>
          <Trackpoint>
            <Time>2021-04-03T14:53:47.000Z</Time>
            <Position>
              <LatitudeDegrees>42.324789874255657196044921875</LatitudeDegrees>
              <LongitudeDegrees>2.4707253836095333099365234375</LongitudeDegrees>
            </Position>
            <AltitudeMeters>624.5999755859375</AltitudeMeters>
            <DistanceMeters>NAN</DistanceMeters>
          </Trackpoint>
          <Trackpoint>
            <Time>2021-04-03T14:53:52.000Z</Time>
            <Position>
              <LatitudeDegrees>42.3247799836099147796630859375</LatitudeDegrees>
              <LongitudeDegrees>2.47066427953541278839111328125</LongitudeDegrees>
            </Position>
            <AltitudeMeters>624</AltitudeMeters>
            <DistanceMeters>NAN</DistanceMeters>
          </Trackpoint>
          <Trackpoint>
            <Time>2021-04-03T14:53:55.000Z</Time>
            <Position>
              <LatitudeDegrees>42.32477218843996524810791015625</LatitudeDegrees>
              <LongitudeDegrees>2.47063863091170787811279296875</LongitudeDegrees>
            </Position>
            <AltitudeMeters>623.20001220703125</AltitudeMeters>
            <DistanceMeters>NAN</DistanceMeters>
          </Trackpoint>
          <Trackpoint>
            <Time>2021-04-03T14:53:57.000Z</Time>
            <Position>
              <LatitudeDegrees>42.32476682402193546295166015625</LatitudeDegrees>
              <LongitudeDegrees>2.47061499394476413726806640625</LongitudeDegrees>
            </Position>
            <AltitudeMeters>623</AltitudeMeters>
            <DistanceMeters>NAN</DistanceMeters>
          </Trackpoint>
          <Trackpoint>
            <Time>2021-04-03T14:54:01.000Z</Time>
            <Position>
              <LatitudeDegrees>42.32475601136684417724609375</LatitudeDegrees>
              <LongitudeDegrees>2.47056067921221256256103515625</LongitudeDegrees>
            </Position>
            <AltitudeMeters>622.4000244140625</AltitudeMeters>
            <DistanceMeters>NAN</DistanceMeters>
          </Trackpoint>
          <Trackpoint>
            <Time>2021-04-03T14:54:03.000Z</Time>
            <Position>
              <LatitudeDegrees>42.32474268414080142974853515625</LatitudeDegrees>
              <LongitudeDegrees>2.47054089792072772979736328125</LongitudeDegrees>
            </Position>
            <AltitudeMeters>622</AltitudeMeters>
            <DistanceMeters>NAN</DistanceMeters>
          </Trackpoint>
          <Trackpoint>
            <Time>2021-04-03T14:54:07.000Z</Time>
            <Position>
              <LatitudeDegrees>42.32470613904297351837158203125</LatitudeDegrees>
              <LongitudeDegrees>2.47050234116613864898681640625</LongitudeDegrees>
            </Position>
            <AltitudeMeters>621.79998779296875</AltitudeMeters>
            <DistanceMeters>NAN</DistanceMeters>
          </Trackpoint>
          <Trackpoint>
            <Time>2021-04-03T14:54:12.000Z</Time>
            <Position>
              <LatitudeDegrees>42.32466707937419414520263671875</LatitudeDegrees>
              <LongitudeDegrees>2.470488511025905609130859375</LongitudeDegrees>
            </Position>
            <AltitudeMeters>621.5999755859375</AltitudeMeters>
            <DistanceMeters>NAN</DistanceMeters>
          </Trackpoint>
          <Trackpoint>
            <Time>2021-04-03T14:54:14.000Z</Time>
            <Position>
              <LatitudeDegrees>42.32465417124330997467041015625</LatitudeDegrees>
              <LongitudeDegrees>2.47048306278884410858154296875</LongitudeDegrees>
            </Position>
            <AltitudeMeters>621.5999755859375</AltitudeMeters>
            <DistanceMeters>NAN</DistanceMeters>
          </Trackpoint>
          <Trackpoint>
            <Time>2021-04-03T14:54:18.000Z</Time>
            <Position>
              <LatitudeDegrees>42.32462885789573192596435546875</LatitudeDegrees>
              <LongitudeDegrees>2.470474429428577423095703125</LongitudeDegrees>
            </Position>
            <AltitudeMeters>622.20001220703125</AltitudeMeters>
            <DistanceMeters>NAN</DistanceMeters>
          </Trackpoint>
          <Trackpoint>
            <Time>2021-04-03T14:54:19.000Z</Time>
            <Position>
              <LatitudeDegrees>42.32462332583963871002197265625</LatitudeDegrees>
              <LongitudeDegrees>2.47047233395278453826904296875</LongitudeDegrees>
            </Position>
            <AltitudeMeters>622.20001220703125</AltitudeMeters>
            <DistanceMeters>NAN</DistanceMeters>
          </Trackpoint>
          <Trackpoint>
            <Time>2021-04-03T14:54:23.000Z</Time>
            <Position>
              <LatitudeDegrees>42.3245979286730289459228515625</LatitudeDegrees>
              <LongitudeDegrees>2.47046462260186672210693359375</LongitudeDegrees>
            </Position>
            <AltitudeMeters>622.5999755859375</AltitudeMeters>
            <DistanceMeters>NAN</DistanceMeters>
          </Trackpoint>
          <Trackpoint>
            <Time>2021-04-03T14:54:26.000Z</Time>
            <Position>
              <LatitudeDegrees>42.324577309191226959228515625</LatitudeDegrees>
              <LongitudeDegrees>2.47045934200286865234375</LongitudeDegrees>
            </Position>
            <AltitudeMeters>622.5999755859375</AltitudeMeters>
            <DistanceMeters>NAN</DistanceMeters>
          </Trackpoint>
          <Trackpoint>
            <Time>2021-04-03T14:54:29.000Z</Time>
            <Position>
              <LatitudeDegrees>42.32455844990909099578857421875</LatitudeDegrees>
              <LongitudeDegrees>2.4704440869390964508056640625</LongitudeDegrees>
            </Position>
            <AltitudeMeters>622.4000244140625</AltitudeMeters>
            <DistanceMeters>NAN</DistanceMeters>
          </Trackpoint>
          <Trackpoint>
            <Time>2021-04-03T14:54:33.000Z</Time>
            <Position>
              <LatitudeDegrees>42.3245308734476566314697265625</LatitudeDegrees>
              <LongitudeDegrees>2.47042790986597537994384765625</LongitudeDegrees>
            </Position>
            <AltitudeMeters>622.4000244140625</AltitudeMeters>
            <DistanceMeters>NAN</DistanceMeters>
          </Trackpoint>
          <Trackpoint>
            <Time>2021-04-03T14:54:34.000Z</Time>
            <Position>
              <LatitudeDegrees>42.32452458702027797698974609375</LatitudeDegrees>
              <LongitudeDegrees>2.47042941860854625701904296875</LongitudeDegrees>
            </Position>
            <AltitudeMeters>622.4000244140625</AltitudeMeters>
            <DistanceMeters>NAN</DistanceMeters>
          </Trackpoint>
          <Trackpoint>
            <Time>2021-04-03T14:54:36.000Z</Time>
            <Position>
              <LatitudeDegrees>42.32451067306101322174072265625</LatitudeDegrees>
              <LongitudeDegrees>2.47041801922023296356201171875</LongitudeDegrees>
            </Position>
            <AltitudeMeters>622.4000244140625</AltitudeMeters>
            <DistanceMeters>NAN</DistanceMeters>
          </Trackpoint>
          <Trackpoint>
            <Time>2021-04-03T14:54:39.000Z</Time>
            <Position>
              <LatitudeDegrees>42.324496172368526458740234375</LatitudeDegrees>
              <LongitudeDegrees>2.47039086185395717620849609375</LongitudeDegrees>
            </Position>
            <AltitudeMeters>622.4000244140625</AltitudeMeters>
            <DistanceMeters>NAN</DistanceMeters>
          </Trackpoint>
          <Trackpoint>
            <Time>2021-04-03T14:54:44.000Z</Time>
            <Position>
              <LatitudeDegrees>42.32449575327336788177490234375</LatitudeDegrees>
              <LongitudeDegrees>2.47038365341722965240478515625</LongitudeDegrees>
            </Position>
            <AltitudeMeters>622.4000244140625</AltitudeMeters>
            <DistanceMeters>NAN</DistanceMeters>
          </Trackpoint>
          <Trackpoint>
            <Time>2021-04-03T14:54:46.000Z</Time>
            <Position>
              <LatitudeDegrees>42.3244849406182765960693359375</LatitudeDegrees>
              <LongitudeDegrees>2.47036571614444255828857421875</LongitudeDegrees>
            </Position>
            <AltitudeMeters>622.5999755859375</AltitudeMeters>
            <DistanceMeters>NAN</DistanceMeters>
          </Trackpoint>
          <Trackpoint>
            <Time>2021-04-03T14:54:50.000Z</Time>
            <Position>
              <LatitudeDegrees>42.32445736415684223175048828125</LatitudeDegrees>
              <LongitudeDegrees>2.4703632853925228118896484375</LongitudeDegrees>
            </Position>
            <AltitudeMeters>623</AltitudeMeters>
            <DistanceMeters>NAN</DistanceMeters>
          </Trackpoint>
          <Trackpoint>
            <Time>2021-04-03T14:54:51.000Z</Time>
            <Position>
              <LatitudeDegrees>42.32445401139557361602783203125</LatitudeDegrees>
              <LongitudeDegrees>2.47036152519285678863525390625</LongitudeDegrees>
            </Position>
            <AltitudeMeters>623</AltitudeMeters>
            <DistanceMeters>NAN</DistanceMeters>
          </Trackpoint>
          <Trackpoint>
            <Time>2021-04-03T14:54:55.000Z</Time>
            <Position>
              <LatitudeDegrees>42.3244321346282958984375</LatitudeDegrees>
              <LongitudeDegrees>2.4703455157577991485595703125</LongitudeDegrees>
            </Position>
            <AltitudeMeters>624</AltitudeMeters>
            <DistanceMeters>NAN</DistanceMeters>
          </Trackpoint>
          <Trackpoint>
            <Time>2021-04-03T14:54:56.000Z</Time>
            <Position>
              <LatitudeDegrees>42.3244212381541728973388671875</LatitudeDegrees>
              <LongitudeDegrees>2.470340989530086517333984375</LongitudeDegrees>
            </Position>
            <AltitudeMeters>624</AltitudeMeters>
            <DistanceMeters>NAN</DistanceMeters>
          </Trackpoint>
          <Trackpoint>
            <Time>2021-04-03T14:54:57.000Z</Time>
            <Position>
              <LatitudeDegrees>42.32440958730876445770263671875</LatitudeDegrees>
              <LongitudeDegrees>2.4703424982726573944091796875</LongitudeDegrees>
            </Position>
            <AltitudeMeters>624.20001220703125</AltitudeMeters>
            <DistanceMeters>NAN</DistanceMeters>
          </Trackpoint>
          <Trackpoint>
            <Time>2021-04-03T14:54:59.000Z</Time>
            <Position>
              <LatitudeDegrees>42.3243927396833896636962890625</LatitudeDegrees>
              <LongitudeDegrees>2.47032866813242435455322265625</LongitudeDegrees>
            </Position>
            <AltitudeMeters>624.5999755859375</AltitudeMeters>
            <DistanceMeters>NAN</DistanceMeters>
          </Trackpoint>
          <Trackpoint>
            <Time>2021-04-03T14:55:03.000Z</Time>
            <Position>
              <LatitudeDegrees>42.3243873752653598785400390625</LatitudeDegrees>
              <LongitudeDegrees>2.47028508223593235015869140625</LongitudeDegrees>
            </Position>
            <AltitudeMeters>625</AltitudeMeters>
            <DistanceMeters>NAN</DistanceMeters>
          </Trackpoint>
          <Trackpoint>
            <Time>2021-04-03T14:55:09.000Z</Time>
            <Position>
              <LatitudeDegrees>42.32435368001461029052734375</LatitudeDegrees>
              <LongitudeDegrees>2.47022775001823902130126953125</LongitudeDegrees>
            </Position>
            <AltitudeMeters>625</AltitudeMeters>
            <DistanceMeters>NAN</DistanceMeters>
          </Trackpoint>
          <Trackpoint>
            <Time>2021-04-03T14:55:16.000Z</Time>
            <Position>
              <LatitudeDegrees>42.32435661368072032928466796875</LatitudeDegrees>
              <LongitudeDegrees>2.4701651372015476226806640625</LongitudeDegrees>
            </Position>
            <AltitudeMeters>624.79998779296875</AltitudeMeters>
            <DistanceMeters>NAN</DistanceMeters>
          </Trackpoint>
          <Trackpoint>
            <Time>2021-04-03T14:55:21.000Z</Time>
            <Position>
              <LatitudeDegrees>42.3243565298616886138916015625</LatitudeDegrees>
              <LongitudeDegrees>2.47010604478418827056884765625</LongitudeDegrees>
            </Position>
            <AltitudeMeters>624.79998779296875</AltitudeMeters>
            <DistanceMeters>NAN</DistanceMeters>
          </Trackpoint>
          <Trackpoint>
            <Time>2021-04-03T14:55:27.000Z</Time>
            <Position>
              <LatitudeDegrees>42.324360720813274383544921875</LatitudeDegrees>
              <LongitudeDegrees>2.47003094293177127838134765625</LongitudeDegrees>
            </Position>
            <AltitudeMeters>624.5999755859375</AltitudeMeters>
            <DistanceMeters>NAN</DistanceMeters>
          </Trackpoint>
          <Trackpoint>
            <Time>2021-04-03T14:55:33.000Z</Time>
            <Position>
              <LatitudeDegrees>42.32437589205801486968994140625</LatitudeDegrees>
              <LongitudeDegrees>2.4699698388576507568359375</LongitudeDegrees>
            </Position>
            <AltitudeMeters>624.79998779296875</AltitudeMeters>
            <DistanceMeters>NAN</DistanceMeters>
          </Trackpoint>
          <Trackpoint>
            <Time>2021-04-03T14:55:35.000Z</Time>
            <Position>
              <LatitudeDegrees>42.324379496276378631591796875</LatitudeDegrees>
              <LongitudeDegrees>2.46995718218386173248291015625</LongitudeDegrees>
            </Position>
            <AltitudeMeters>625</AltitudeMeters>
            <DistanceMeters>NAN</DistanceMeters>
          </Trackpoint>
          <Trackpoint>
            <Time>2021-04-03T14:55:36.000Z</Time>
            <Position>
              <LatitudeDegrees>42.32437991537153720855712890625</LatitudeDegrees>
              <LongitudeDegrees>2.46994863264262676239013671875</LongitudeDegrees>
            </Position>
            <AltitudeMeters>624.5999755859375</AltitudeMeters>
            <DistanceMeters>NAN</DistanceMeters>
          </Trackpoint>
          <Trackpoint>
            <Time>2021-04-03T14:55:39.000Z</Time>
            <Position>
              <LatitudeDegrees>42.32438108883798122406005859375</LatitudeDegrees>
              <LongitudeDegrees>2.46991552412509918212890625</LongitudeDegrees>
            </Position>
            <AltitudeMeters>624.4000244140625</AltitudeMeters>
            <DistanceMeters>NAN</DistanceMeters>
          </Trackpoint>
          <Trackpoint>
            <Time>2021-04-03T14:55:40.000Z</Time>
            <Position>
              <LatitudeDegrees>42.32438092119991779327392578125</LatitudeDegrees>
              <LongitudeDegrees>2.46990236453711986541748046875</LongitudeDegrees>
            </Position>
            <AltitudeMeters>624.4000244140625</AltitudeMeters>
            <DistanceMeters>NAN</DistanceMeters>
          </Trackpoint>
          <Trackpoint>
            <Time>2021-04-03T14:55:45.000Z</Time>
            <Position>
              <LatitudeDegrees>42.32437958009541034698486328125</LatitudeDegrees>
              <LongitudeDegrees>2.4698436073958873748779296875</LongitudeDegrees>
            </Position>
            <AltitudeMeters>625</AltitudeMeters>
            <DistanceMeters>NAN</DistanceMeters>
          </Trackpoint>
          <Trackpoint>
            <Time>2021-04-03T14:55:47.000Z</Time>
            <Position>
              <LatitudeDegrees>42.3243867047131061553955078125</LatitudeDegrees>
              <LongitudeDegrees>2.469820640981197357177734375</LongitudeDegrees>
            </Position>
            <AltitudeMeters>625.20001220703125</AltitudeMeters>
            <DistanceMeters>NAN</DistanceMeters>
          </Trackpoint>
          <Trackpoint>
            <Time>2021-04-03T14:55:49.000Z</Time>
            <Position>
              <LatitudeDegrees>42.3243877105414867401123046875</LatitudeDegrees>
              <LongitudeDegrees>2.4698080681264400482177734375</LongitudeDegrees>
            </Position>
            <AltitudeMeters>625.20001220703125</AltitudeMeters>
            <DistanceMeters>NAN</DistanceMeters>
          </Trackpoint>
          <Trackpoint>
            <Time>2021-04-03T14:55:52.000Z</Time>
            <Position>
              <LatitudeDegrees>42.3244017921388149261474609375</LatitudeDegrees>
              <LongitudeDegrees>2.46977579779922962188720703125</LongitudeDegrees>
            </Position>
            <AltitudeMeters>625.4000244140625</AltitudeMeters>
            <DistanceMeters>NAN</DistanceMeters>
          </Trackpoint>
          <Trackpoint>
            <Time>2021-04-03T14:55:53.000Z</Time>
            <Position>
              <LatitudeDegrees>42.324406318366527557373046875</LatitudeDegrees>
              <LongitudeDegrees>2.4697674997150897979736328125</LongitudeDegrees>
            </Position>
            <AltitudeMeters>625.5999755859375</AltitudeMeters>
            <DistanceMeters>NAN</DistanceMeters>
          </Trackpoint>
          <Trackpoint>
            <Time>2021-04-03T14:55:57.000Z</Time>
            <Position>
              <LatitudeDegrees>42.32442182488739490509033203125</LatitudeDegrees>
              <LongitudeDegrees>2.46973422355949878692626953125</LongitudeDegrees>
            </Position>
            <AltitudeMeters>626</AltitudeMeters>
            <DistanceMeters>NAN</DistanceMeters>
          </Trackpoint>
          <Trackpoint>
            <Time>2021-04-03T14:55:59.000Z</Time>
            <Position>
              <LatitudeDegrees>42.32442853040993213653564453125</LatitudeDegrees>
              <LongitudeDegrees>2.46970840729773044586181640625</LongitudeDegrees>
            </Position>
            <AltitudeMeters>626.20001220703125</AltitudeMeters>
            <DistanceMeters>NAN</DistanceMeters>
          </Trackpoint>
          <Trackpoint>
            <Time>2021-04-03T14:56:01.000Z</Time>
            <Position>
              <LatitudeDegrees>42.32443188317120075225830078125</LatitudeDegrees>
              <LongitudeDegrees>2.46968309395015239715576171875</LongitudeDegrees>
            </Position>
            <AltitudeMeters>626.20001220703125</AltitudeMeters>
            <DistanceMeters>NAN</DistanceMeters>
          </Trackpoint>
          <Trackpoint>
            <Time>2021-04-03T14:56:04.000Z</Time>
            <Position>
              <LatitudeDegrees>42.324433811008930206298828125</LatitudeDegrees>
              <LongitudeDegrees>2.46965266764163970947265625</LongitudeDegrees>
            </Position>
            <AltitudeMeters>626</AltitudeMeters>
            <DistanceMeters>NAN</DistanceMeters>
          </Trackpoint>
          <Trackpoint>
            <Time>2021-04-03T14:56:07.000Z</Time>
            <Position>
              <LatitudeDegrees>42.3244334757328033447265625</LatitudeDegrees>
              <LongitudeDegrees>2.46962861157953739166259765625</LongitudeDegrees>
            </Position>
            <AltitudeMeters>626.4000244140625</AltitudeMeters>
            <DistanceMeters>NAN</DistanceMeters>
          </Trackpoint>
          <Trackpoint>
            <Time>2021-04-03T14:56:09.000Z</Time>
            <Position>
              <LatitudeDegrees>42.32443146407604217529296875</LatitudeDegrees>
              <LongitudeDegrees>2.46960178948938846588134765625</LongitudeDegrees>
            </Position>
            <AltitudeMeters>626.4000244140625</AltitudeMeters>
            <DistanceMeters>NAN</DistanceMeters>
          </Trackpoint>
          <Trackpoint>
            <Time>2021-04-03T14:56:10.000Z</Time>
            <Position>
              <LatitudeDegrees>42.32443104498088359832763671875</LatitudeDegrees>
              <LongitudeDegrees>2.46958871372044086456298828125</LongitudeDegrees>
            </Position>
            <AltitudeMeters>626.5999755859375</AltitudeMeters>
            <DistanceMeters>NAN</DistanceMeters>
          </Trackpoint>
          <Trackpoint>
            <Time>2021-04-03T14:56:16.000Z</Time>
            <Position>
              <LatitudeDegrees>42.32442836277186870574951171875</LatitudeDegrees>
              <LongitudeDegrees>2.4695287831127643585205078125</LongitudeDegrees>
            </Position>
            <AltitudeMeters>627</AltitudeMeters>
            <DistanceMeters>NAN</DistanceMeters>
          </Trackpoint>
          <Trackpoint>
            <Time>2021-04-03T14:56:17.000Z</Time>
            <Position>
              <LatitudeDegrees>42.3244282789528369903564453125</LatitudeDegrees>
              <LongitudeDegrees>2.4695193953812122344970703125</LongitudeDegrees>
            </Position>
            <AltitudeMeters>627.20001220703125</AltitudeMeters>
            <DistanceMeters>NAN</DistanceMeters>
          </Trackpoint>
          <Trackpoint>
            <Time>2021-04-03T14:56:18.000Z</Time>
            <Position>
              <LatitudeDegrees>42.32443221844732761383056640625</LatitudeDegrees>
              <LongitudeDegrees>2.46950338594615459442138671875</LongitudeDegrees>
            </Position>
            <AltitudeMeters>627.20001220703125</AltitudeMeters>
            <DistanceMeters>NAN</DistanceMeters>
          </Trackpoint>
          <Trackpoint>
            <Time>2021-04-03T14:56:20.000Z</Time>
            <Position>
              <LatitudeDegrees>42.32443858869373798370361328125</LatitudeDegrees>
              <LongitudeDegrees>2.4694801680743694305419921875</LongitudeDegrees>
            </Position>
            <AltitudeMeters>627.4000244140625</AltitudeMeters>
            <DistanceMeters>NAN</DistanceMeters>
          </Trackpoint>
          <Trackpoint>
            <Time>2021-04-03T14:56:21.000Z</Time>
            <Position>
              <LatitudeDegrees>42.3244396783411502838134765625</LatitudeDegrees>
              <LongitudeDegrees>2.46947069652378559112548828125</LongitudeDegrees>
            </Position>
            <AltitudeMeters>627.4000244140625</AltitudeMeters>
            <DistanceMeters>NAN</DistanceMeters>
          </Trackpoint>
          <Trackpoint>
            <Time>2021-04-03T14:56:23.000Z</Time>
            <Position>
              <LatitudeDegrees>42.324433811008930206298828125</LatitudeDegrees>
              <LongitudeDegrees>2.46945963241159915924072265625</LongitudeDegrees>
            </Position>
            <AltitudeMeters>627.5999755859375</AltitudeMeters>
            <DistanceMeters>NAN</DistanceMeters>
          </Trackpoint>
          <Trackpoint>
            <Time>2021-04-03T14:56:25.000Z</Time>
            <Position>
              <LatitudeDegrees>42.3244255967438220977783203125</LatitudeDegrees>
              <LongitudeDegrees>2.469447143375873565673828125</LongitudeDegrees>
            </Position>
            <AltitudeMeters>627.79998779296875</AltitudeMeters>
            <DistanceMeters>NAN</DistanceMeters>
          </Trackpoint>
          <Trackpoint>
            <Time>2021-04-03T14:56:26.000Z</Time>
            <Position>
              <LatitudeDegrees>42.3244215734302997589111328125</LatitudeDegrees>
              <LongitudeDegrees>2.4694387614727020263671875</LongitudeDegrees>
            </Position>
            <AltitudeMeters>628</AltitudeMeters>
            <DistanceMeters>NAN</DistanceMeters>
          </Trackpoint>
          <Trackpoint>
            <Time>2021-04-03T14:56:29.000Z</Time>
            <Position>
              <LatitudeDegrees>42.32441361062228679656982421875</LatitudeDegrees>
              <LongitudeDegrees>2.469419650733470916748046875</LongitudeDegrees>
            </Position>
            <AltitudeMeters>628.4000244140625</AltitudeMeters>
            <DistanceMeters>NAN</DistanceMeters>
          </Trackpoint>
          <Trackpoint>
            <Time>2021-04-03T14:56:30.000Z</Time>
            <Position>
              <LatitudeDegrees>42.3244088329374790191650390625</LatitudeDegrees>
              <LongitudeDegrees>2.46941001154482364654541015625</LongitudeDegrees>
            </Position>
            <AltitudeMeters>628.4000244140625</AltitudeMeters>
            <DistanceMeters>NAN</DistanceMeters>
          </Trackpoint>
          <Trackpoint>
            <Time>2021-04-03T14:56:34.000Z</Time>
            <Position>
              <LatitudeDegrees>42.3243825137615203857421875</LatitudeDegrees>
              <LongitudeDegrees>2.469398863613605499267578125</LongitudeDegrees>
            </Position>
            <AltitudeMeters>628.79998779296875</AltitudeMeters>
            <DistanceMeters>NAN</DistanceMeters>
          </Trackpoint>
          <Trackpoint>
            <Time>2021-04-03T14:56:35.000Z</Time>
            <Position>
              <LatitudeDegrees>42.3243739642202854156494140625</LatitudeDegrees>
              <LongitudeDegrees>2.4693933315575122833251953125</LongitudeDegrees>
            </Position>
            <AltitudeMeters>629</AltitudeMeters>
            <DistanceMeters>NAN</DistanceMeters>
          </Trackpoint>
          <Trackpoint>
            <Time>2021-04-03T14:56:38.000Z</Time>
            <Position>
              <LatitudeDegrees>42.32438779436051845550537109375</LatitudeDegrees>
              <LongitudeDegrees>2.46939710341393947601318359375</LongitudeDegrees>
            </Position>
            <AltitudeMeters>629.5999755859375</AltitudeMeters>
            <DistanceMeters>NAN</DistanceMeters>
          </Trackpoint>
          <Trackpoint>
            <Time>2021-04-03T14:56:41.000Z</Time>
            <Position>
              <LatitudeDegrees>42.324392907321453094482421875</LatitudeDegrees>
              <LongitudeDegrees>2.4693896435201168060302734375</LongitudeDegrees>
            </Position>
            <AltitudeMeters>630.20001220703125</AltitudeMeters>
            <DistanceMeters>NAN</DistanceMeters>
          </Trackpoint>
          <Trackpoint>
            <Time>2021-04-03T14:56:42.000Z</Time>
            <Position>
              <LatitudeDegrees>42.32439232058823108673095703125</LatitudeDegrees>
              <LongitudeDegrees>2.469384111464023590087890625</LongitudeDegrees>
            </Position>
            <AltitudeMeters>630.5999755859375</AltitudeMeters>
            <DistanceMeters>NAN</DistanceMeters>
          </Trackpoint>
          <Trackpoint>
            <Time>2021-04-03T14:56:43.000Z</Time>
            <Position>
              <LatitudeDegrees>42.32438947074115276336669921875</LatitudeDegrees>
              <LongitudeDegrees>2.46937732212245464324951171875</LongitudeDegrees>
            </Position>
            <AltitudeMeters>630.79998779296875</AltitudeMeters>
            <DistanceMeters>NAN</DistanceMeters>
          </Trackpoint>
          <Trackpoint>
            <Time>2021-04-03T14:56:47.000Z</Time>
            <Position>
              <LatitudeDegrees>42.32437052763998508453369140625</LatitudeDegrees>
              <LongitudeDegrees>2.46935485862195491790771484375</LongitudeDegrees>
            </Position>
            <AltitudeMeters>631.4000244140625</AltitudeMeters>
            <DistanceMeters>NAN</DistanceMeters>
          </Trackpoint>
          <Trackpoint>
            <Time>2021-04-03T14:56:48.000Z</Time>
            <Position>
              <LatitudeDegrees>42.324365414679050445556640625</LatitudeDegrees>
              <LongitudeDegrees>2.46935217641294002532958984375</LongitudeDegrees>
            </Position>
            <AltitudeMeters>631.79998779296875</AltitudeMeters>
            <DistanceMeters>NAN</DistanceMeters>
          </Trackpoint>
          <Trackpoint>
            <Time>2021-04-03T14:56:49.000Z</Time>
            <Position>
              <LatitudeDegrees>42.324359379708766937255859375</LatitudeDegrees>
              <LongitudeDegrees>2.46934832073748111724853515625</LongitudeDegrees>
            </Position>
            <AltitudeMeters>631.79998779296875</AltitudeMeters>
            <DistanceMeters>NAN</DistanceMeters>
          </Trackpoint>
          <Trackpoint>
            <Time>2021-04-03T14:56:53.000Z</Time>
            <Position>
              <LatitudeDegrees>42.32433632947504520416259765625</LatitudeDegrees>
              <LongitudeDegrees>2.4693252705037593841552734375</LongitudeDegrees>
            </Position>
            <AltitudeMeters>632.20001220703125</AltitudeMeters>
            <DistanceMeters>NAN</DistanceMeters>
          </Trackpoint>
          <Trackpoint>
            <Time>2021-04-03T14:56:59.000Z</Time>
            <Position>
              <LatitudeDegrees>42.32432560063898563385009765625</LatitudeDegrees>
              <LongitudeDegrees>2.46926567517220973968505859375</LongitudeDegrees>
            </Position>
            <AltitudeMeters>633</AltitudeMeters>
            <DistanceMeters>NAN</DistanceMeters>
          </Trackpoint>
          <Trackpoint>
            <Time>2021-04-03T14:57:07.000Z</Time>
            <Position>
              <LatitudeDegrees>42.32430162839591503143310546875</LatitudeDegrees>
              <LongitudeDegrees>2.46923583559691905975341796875</LongitudeDegrees>
            </Position>
            <AltitudeMeters>633.4000244140625</AltitudeMeters>
            <DistanceMeters>NAN</DistanceMeters>
          </Trackpoint>
          <Trackpoint>
            <Time>2021-04-03T14:57:12.000Z</Time>
            <Position>
              <LatitudeDegrees>42.3243055678904056549072265625</LatitudeDegrees>
              <LongitudeDegrees>2.4692072533071041107177734375</LongitudeDegrees>
            </Position>
            <AltitudeMeters>633.5999755859375</AltitudeMeters>
            <DistanceMeters>NAN</DistanceMeters>
          </Trackpoint>
          <Trackpoint>
            <Time>2021-04-03T14:57:18.000Z</Time>
            <Position>
              <LatitudeDegrees>42.32431101612746715545654296875</LatitudeDegrees>
              <LongitudeDegrees>2.469170205295085906982421875</LongitudeDegrees>
            </Position>
            <AltitudeMeters>633.5999755859375</AltitudeMeters>
            <DistanceMeters>NAN</DistanceMeters>
          </Trackpoint>
          <Trackpoint>
            <Time>2021-04-03T14:57:19.000Z</Time>
            <Position>
              <LatitudeDegrees>42.3243186436593532562255859375</LatitudeDegrees>
              <LongitudeDegrees>2.46917079202830791473388671875</LongitudeDegrees>
            </Position>
            <AltitudeMeters>633.5999755859375</AltitudeMeters>
            <DistanceMeters>NAN</DistanceMeters>
          </Trackpoint>
          <Trackpoint>
            <Time>2021-04-03T14:57:26.000Z</Time>
            <Position>
              <LatitudeDegrees>42.32432610355317592620849609375</LatitudeDegrees>
              <LongitudeDegrees>2.46915017254650592803955078125</LongitudeDegrees>
            </Position>
            <AltitudeMeters>633.5999755859375</AltitudeMeters>
            <DistanceMeters>NAN</DistanceMeters>
          </Trackpoint>
          <Trackpoint>
            <Time>2021-04-03T14:57:27.000Z</Time>
            <Position>
              <LatitudeDegrees>42.32432995922863483428955078125</LatitudeDegrees>
              <LongitudeDegrees>2.46914732269942760467529296875</LongitudeDegrees>
            </Position>
            <AltitudeMeters>633.5999755859375</AltitudeMeters>
            <DistanceMeters>NAN</DistanceMeters>
          </Trackpoint>
          <Trackpoint>
            <Time>2021-04-03T14:57:30.000Z</Time>
            <Position>
              <LatitudeDegrees>42.3243401013314723968505859375</LatitudeDegrees>
              <LongitudeDegrees>2.46913768351078033447265625</LongitudeDegrees>
            </Position>
            <AltitudeMeters>633.4000244140625</AltitudeMeters>
            <DistanceMeters>NAN</DistanceMeters>
          </Trackpoint>
          <Trackpoint>
            <Time>2021-04-03T14:57:34.000Z</Time>
            <Position>
              <LatitudeDegrees>42.3243401013314723968505859375</LatitudeDegrees>
              <LongitudeDegrees>2.46913768351078033447265625</LongitudeDegrees>
            </Position>
            <AltitudeMeters>633.4000244140625</AltitudeMeters>
            <DistanceMeters>NAN</DistanceMeters>
          </Trackpoint>
          <Trackpoint>
            <Time>2021-04-03T14:57:35.000Z</Time>
            <Position>
              <LatitudeDegrees>42.3243401013314723968505859375</LatitudeDegrees>
              <LongitudeDegrees>2.46913768351078033447265625</LongitudeDegrees>
            </Position>
            <AltitudeMeters>633.4000244140625</AltitudeMeters>
            <DistanceMeters>NAN</DistanceMeters>
          </Trackpoint>
          <Trackpoint>
            <Time>2021-04-03T14:57:46.000Z</Time>
            <Position>
              <LatitudeDegrees>42.3243384249508380889892578125</LatitudeDegrees>
              <LongitudeDegrees>2.469154112040996551513671875</LongitudeDegrees>
            </Position>
            <AltitudeMeters>633.4000244140625</AltitudeMeters>
            <DistanceMeters>NAN</DistanceMeters>
          </Trackpoint>
          <Trackpoint>
            <Time>2021-04-03T14:57:48.000Z</Time>
            <Position>
              <LatitudeDegrees>42.32433490455150604248046875</LatitudeDegrees>
              <LongitudeDegrees>2.469157464802265167236328125</LongitudeDegrees>
            </Position>
            <AltitudeMeters>633.4000244140625</AltitudeMeters>
            <DistanceMeters>NAN</DistanceMeters>
          </Trackpoint>
          <Trackpoint>
            <Time>2021-04-03T14:58:20.000Z</Time>
            <Position>
              <LatitudeDegrees>42.3243417777121067047119140625</LatitudeDegrees>
              <LongitudeDegrees>2.46921337209641933441162109375</LongitudeDegrees>
            </Position>
            <AltitudeMeters>633.20001220703125</AltitudeMeters>
            <DistanceMeters>NAN</DistanceMeters>
          </Trackpoint>
          <Trackpoint>
            <Time>2021-04-03T14:58:21.000Z</Time>
            <Position>
              <LatitudeDegrees>42.3243417777121067047119140625</LatitudeDegrees>
              <LongitudeDegrees>2.46921421028673648834228515625</LongitudeDegrees>
            </Position>
            <AltitudeMeters>633.20001220703125</AltitudeMeters>
            <DistanceMeters>NAN</DistanceMeters>
          </Trackpoint>
          <Trackpoint>
            <Time>2021-04-03T14:58:25.000Z</Time>
            <Position>
              <LatitudeDegrees>42.3243417777121067047119140625</LatitudeDegrees>
              <LongitudeDegrees>2.4692156352102756500244140625</LongitudeDegrees>
            </Position>
            <AltitudeMeters>633.20001220703125</AltitudeMeters>
            <DistanceMeters>NAN</DistanceMeters>
          </Trackpoint>
          <Trackpoint>
            <Time>2021-04-03T14:58:44.000Z</Time>
            <Position>
              <LatitudeDegrees>42.32433834113180637359619140625</LatitudeDegrees>
              <LongitudeDegrees>2.46921823360025882720947265625</LongitudeDegrees>
            </Position>
            <AltitudeMeters>633.20001220703125</AltitudeMeters>
            <DistanceMeters>NAN</DistanceMeters>
          </Trackpoint>
          <Trackpoint>
            <Time>2021-04-03T14:58:54.000Z</Time>
            <Position>
              <LatitudeDegrees>42.3243344016373157501220703125</LatitudeDegrees>
              <LongitudeDegrees>2.46921990998089313507080078125</LongitudeDegrees>
            </Position>
            <AltitudeMeters>633.20001220703125</AltitudeMeters>
            <DistanceMeters>NAN</DistanceMeters>
          </Trackpoint>
          <Trackpoint>
            <Time>2021-04-03T14:59:13.000Z</Time>
            <Position>
              <LatitudeDegrees>42.32430615462362766265869140625</LatitudeDegrees>
              <LongitudeDegrees>2.4692236818373203277587890625</LongitudeDegrees>
            </Position>
            <AltitudeMeters>633.20001220703125</AltitudeMeters>
            <DistanceMeters>NAN</DistanceMeters>
          </Trackpoint>
          <Trackpoint>
            <Time>2021-04-03T14:59:51.000Z</Time>
            <Position>
              <LatitudeDegrees>42.324300706386566162109375</LatitudeDegrees>
              <LongitudeDegrees>2.46917095966637134552001953125</LongitudeDegrees>
            </Position>
            <AltitudeMeters>633.20001220703125</AltitudeMeters>
            <DistanceMeters>NAN</DistanceMeters>
          </Trackpoint>
          <Trackpoint>
            <Time>2021-04-03T14:59:53.000Z</Time>
            <Position>
              <LatitudeDegrees>42.32430112548172473907470703125</LatitudeDegrees>
              <LongitudeDegrees>2.46916626580059528350830078125</LongitudeDegrees>
            </Position>
            <AltitudeMeters>633.20001220703125</AltitudeMeters>
            <DistanceMeters>NAN</DistanceMeters>
          </Trackpoint>
          <Trackpoint>
            <Time>2021-04-03T15:00:00.000Z</Time>
            <Position>
              <LatitudeDegrees>42.32430129311978816986083984375</LatitudeDegrees>
              <LongitudeDegrees>2.4691596440970897674560546875</LongitudeDegrees>
            </Position>
            <AltitudeMeters>633.20001220703125</AltitudeMeters>
            <DistanceMeters>NAN</DistanceMeters>
          </Trackpoint>
          <Trackpoint>
            <Time>2021-04-03T15:00:06.000Z</Time>
            <Position>
              <LatitudeDegrees>42.3242961801588535308837890625</LatitudeDegrees>
              <LongitudeDegrees>2.4691512621939182281494140625</LongitudeDegrees>
            </Position>
            <AltitudeMeters>633.20001220703125</AltitudeMeters>
            <DistanceMeters>NAN</DistanceMeters>
          </Trackpoint>
          <Trackpoint>
            <Time>2021-04-03T15:00:17.000Z</Time>
            <Position>
              <LatitudeDegrees>42.324264161288738250732421875</LatitudeDegrees>
              <LongitudeDegrees>2.46912427246570587158203125</LongitudeDegrees>
            </Position>
            <AltitudeMeters>633.20001220703125</AltitudeMeters>
            <DistanceMeters>NAN</DistanceMeters>
          </Trackpoint>
          <Trackpoint>
            <Time>2021-04-03T15:00:24.000Z</Time>
            <Position>
              <LatitudeDegrees>42.32424379326403141021728515625</LatitudeDegrees>
              <LongitudeDegrees>2.469123937189579010009765625</LongitudeDegrees>
            </Position>
            <AltitudeMeters>633.20001220703125</AltitudeMeters>
            <DistanceMeters>NAN</DistanceMeters>
          </Trackpoint>
          <Trackpoint>
            <Time>2021-04-03T15:00:26.000Z</Time>
            <Position>
              <LatitudeDegrees>42.324239350855350494384765625</LatitudeDegrees>
              <LongitudeDegrees>2.4691249430179595947265625</LongitudeDegrees>
            </Position>
            <AltitudeMeters>633.20001220703125</AltitudeMeters>
            <DistanceMeters>NAN</DistanceMeters>
          </Trackpoint>
          <Trackpoint>
            <Time>2021-04-03T15:00:28.000Z</Time>
            <Position>
              <LatitudeDegrees>42.3242348246276378631591796875</LatitudeDegrees>
              <LongitudeDegrees>2.4691331572830677032470703125</LongitudeDegrees>
            </Position>
            <AltitudeMeters>633.20001220703125</AltitudeMeters>
            <DistanceMeters>NAN</DistanceMeters>
          </Trackpoint>
          <Trackpoint>
            <Time>2021-04-03T15:00:40.000Z</Time>
            <Position>
              <LatitudeDegrees>42.32420423068106174468994140625</LatitudeDegrees>
              <LongitudeDegrees>2.4692226760089397430419921875</LongitudeDegrees>
            </Position>
            <AltitudeMeters>633.20001220703125</AltitudeMeters>
            <DistanceMeters>NAN</DistanceMeters>
          </Trackpoint>
          <Trackpoint>
            <Time>2021-04-03T15:00:46.000Z</Time>
            <Position>
              <LatitudeDegrees>42.32419618405401706695556640625</LatitudeDegrees>
              <LongitudeDegrees>2.4692642502486705780029296875</LongitudeDegrees>
            </Position>
            <AltitudeMeters>633.20001220703125</AltitudeMeters>
            <DistanceMeters>NAN</DistanceMeters>
          </Trackpoint>
          <Trackpoint>
            <Time>2021-04-03T15:00:52.000Z</Time>
            <Position>
              <LatitudeDegrees>42.32416860759258270263671875</LatitudeDegrees>
              <LongitudeDegrees>2.46932015754282474517822265625</LongitudeDegrees>
            </Position>
            <AltitudeMeters>633.20001220703125</AltitudeMeters>
            <DistanceMeters>NAN</DistanceMeters>
          </Trackpoint>
          <Trackpoint>
            <Time>2021-04-03T15:00:56.000Z</Time>
            <Position>
              <LatitudeDegrees>42.3241194896399974822998046875</LatitudeDegrees>
              <LongitudeDegrees>2.46938050724565982818603515625</LongitudeDegrees>
            </Position>
            <AltitudeMeters>633.20001220703125</AltitudeMeters>
            <DistanceMeters>NAN</DistanceMeters>
          </Trackpoint>
          <Trackpoint>
            <Time>2021-04-03T15:01:00.000Z</Time>
            <Position>
              <LatitudeDegrees>42.324073724448680877685546875</LatitudeDegrees>
              <LongitudeDegrees>2.46942333877086639404296875</LongitudeDegrees>
            </Position>
            <AltitudeMeters>641.20001220703125</AltitudeMeters>
            <DistanceMeters>NAN</DistanceMeters>
          </Trackpoint>
          <Trackpoint>
            <Time>2021-04-03T15:01:02.000Z</Time>
            <Position>
              <LatitudeDegrees>42.32408118434250354766845703125</LatitudeDegrees>
              <LongitudeDegrees>2.4694033898413181304931640625</LongitudeDegrees>
            </Position>
            <AltitudeMeters>641.20001220703125</AltitudeMeters>
            <DistanceMeters>NAN</DistanceMeters>
          </Trackpoint>
          <Trackpoint>
            <Time>2021-04-03T15:01:03.000Z</Time>
            <Position>
              <LatitudeDegrees>42.3240832798182964324951171875</LatitudeDegrees>
              <LongitudeDegrees>2.46938771568238735198974609375</LongitudeDegrees>
            </Position>
            <AltitudeMeters>641.20001220703125</AltitudeMeters>
            <DistanceMeters>NAN</DistanceMeters>
          </Trackpoint>
          <Trackpoint>
            <Time>2021-04-03T15:01:06.000Z</Time>
            <Position>
              <LatitudeDegrees>42.3240842856466770172119140625</LatitudeDegrees>
              <LongitudeDegrees>2.46934882365167140960693359375</LongitudeDegrees>
            </Position>
            <AltitudeMeters>641.20001220703125</AltitudeMeters>
            <DistanceMeters>NAN</DistanceMeters>
          </Trackpoint>
          <Trackpoint>
            <Time>2021-04-03T15:01:10.000Z</Time>
            <Position>
              <LatitudeDegrees>42.32410029508173465728759765625</LatitudeDegrees>
              <LongitudeDegrees>2.46930599212646484375</LongitudeDegrees>
            </Position>
            <AltitudeMeters>641.4000244140625</AltitudeMeters>
            <DistanceMeters>NAN</DistanceMeters>
          </Trackpoint>
          <Trackpoint>
            <Time>2021-04-03T15:01:15.000Z</Time>
            <Position>
              <LatitudeDegrees>42.3240926675498485565185546875</LatitudeDegrees>
              <LongitudeDegrees>2.469256706535816192626953125</LongitudeDegrees>
            </Position>
            <AltitudeMeters>641.79998779296875</AltitudeMeters>
            <DistanceMeters>NAN</DistanceMeters>
          </Trackpoint>
          <Trackpoint>
            <Time>2021-04-03T15:01:22.000Z</Time>
            <Position>
              <LatitudeDegrees>42.32410498894751071929931640625</LatitudeDegrees>
              <LongitudeDegrees>2.46916894800961017608642578125</LongitudeDegrees>
            </Position>
            <AltitudeMeters>642.20001220703125</AltitudeMeters>
            <DistanceMeters>NAN</DistanceMeters>
          </Trackpoint>
          <Trackpoint>
            <Time>2021-04-03T15:01:24.000Z</Time>
            <Position>
              <LatitudeDegrees>42.32410280965268611907958984375</LatitudeDegrees>
              <LongitudeDegrees>2.469149418175220489501953125</LongitudeDegrees>
            </Position>
            <AltitudeMeters>642.20001220703125</AltitudeMeters>
            <DistanceMeters>NAN</DistanceMeters>
          </Trackpoint>
          <Trackpoint>
            <Time>2021-04-03T15:01:31.000Z</Time>
            <Position>
              <LatitudeDegrees>42.32410423457622528076171875</LatitudeDegrees>
              <LongitudeDegrees>2.469056881964206695556640625</LongitudeDegrees>
            </Position>
            <AltitudeMeters>642.5999755859375</AltitudeMeters>
            <DistanceMeters>NAN</DistanceMeters>
          </Trackpoint>
          <Trackpoint>
            <Time>2021-04-03T15:01:40.000Z</Time>
            <Position>
              <LatitudeDegrees>42.32410884462296962738037109375</LatitudeDegrees>
              <LongitudeDegrees>2.46893811039626598358154296875</LongitudeDegrees>
            </Position>
            <AltitudeMeters>643.20001220703125</AltitudeMeters>
            <DistanceMeters>NAN</DistanceMeters>
          </Trackpoint>
          <Trackpoint>
            <Time>2021-04-03T15:01:42.000Z</Time>
            <Position>
              <LatitudeDegrees>42.32410163618624210357666015625</LatitudeDegrees>
              <LongitudeDegrees>2.46891765855252742767333984375</LongitudeDegrees>
            </Position>
            <AltitudeMeters>643.20001220703125</AltitudeMeters>
            <DistanceMeters>NAN</DistanceMeters>
          </Trackpoint>
          <Trackpoint>
            <Time>2021-04-03T15:01:48.000Z</Time>
            <Position>
              <LatitudeDegrees>42.3240963555872440338134765625</LatitudeDegrees>
              <LongitudeDegrees>2.46887457557022571563720703125</LongitudeDegrees>
            </Position>
            <AltitudeMeters>643.5999755859375</AltitudeMeters>
            <DistanceMeters>NAN</DistanceMeters>
          </Trackpoint>
          <Trackpoint>
            <Time>2021-04-03T15:01:58.000Z</Time>
            <Position>
              <LatitudeDegrees>42.32407414354383945465087890625</LatitudeDegrees>
              <LongitudeDegrees>2.46876024641096591949462890625</LongitudeDegrees>
            </Position>
            <AltitudeMeters>644</AltitudeMeters>
            <DistanceMeters>NAN</DistanceMeters>
          </Trackpoint>
          <Trackpoint>
            <Time>2021-04-03T15:02:00.000Z</Time>
            <Position>
              <LatitudeDegrees>42.3240713775157928466796875</LatitudeDegrees>
              <LongitudeDegrees>2.468739710748195648193359375</LongitudeDegrees>
            </Position>
            <AltitudeMeters>644</AltitudeMeters>
            <DistanceMeters>NAN</DistanceMeters>
          </Trackpoint>
          <Trackpoint>
            <Time>2021-04-03T15:02:05.000Z</Time>
            <Position>
              <LatitudeDegrees>42.3240554518997669219970703125</LatitudeDegrees>
              <LongitudeDegrees>2.46866670437157154083251953125</LongitudeDegrees>
            </Position>
            <AltitudeMeters>644.20001220703125</AltitudeMeters>
            <DistanceMeters>NAN</DistanceMeters>
          </Trackpoint>
          <Trackpoint>
            <Time>2021-04-03T15:02:09.000Z</Time>
            <Position>
              <LatitudeDegrees>42.32404463924467563629150390625</LatitudeDegrees>
              <LongitudeDegrees>2.46860484592616558074951171875</LongitudeDegrees>
            </Position>
            <AltitudeMeters>643.79998779296875</AltitudeMeters>
            <DistanceMeters>NAN</DistanceMeters>
          </Trackpoint>
          <Trackpoint>
            <Time>2021-04-03T15:02:12.000Z</Time>
            <Position>
              <LatitudeDegrees>42.32403458096086978912353515625</LatitudeDegrees>
              <LongitudeDegrees>2.4685724079608917236328125</LongitudeDegrees>
            </Position>
            <AltitudeMeters>643.79998779296875</AltitudeMeters>
            <DistanceMeters>NAN</DistanceMeters>
          </Trackpoint>
          <Trackpoint>
            <Time>2021-04-03T15:02:17.000Z</Time>
            <Position>
              <LatitudeDegrees>42.32402133755385875701904296875</LatitudeDegrees>
              <LongitudeDegrees>2.4685192666947841644287109375</LongitudeDegrees>
            </Position>
            <AltitudeMeters>644.4000244140625</AltitudeMeters>
            <DistanceMeters>NAN</DistanceMeters>
          </Trackpoint>
          <Trackpoint>
            <Time>2021-04-03T15:02:18.000Z</Time>
            <Position>
              <LatitudeDegrees>42.3240152187645435333251953125</LatitudeDegrees>
              <LongitudeDegrees>2.4685370363295078277587890625</LongitudeDegrees>
            </Position>
            <AltitudeMeters>644.4000244140625</AltitudeMeters>
            <DistanceMeters>NAN</DistanceMeters>
          </Trackpoint>
          <Trackpoint>
            <Time>2021-04-03T15:02:20.000Z</Time>
            <Position>
              <LatitudeDegrees>42.323995269834995269775390625</LatitudeDegrees>
              <LongitudeDegrees>2.46851767413318157196044921875</LongitudeDegrees>
            </Position>
            <AltitudeMeters>644.4000244140625</AltitudeMeters>
            <DistanceMeters>NAN</DistanceMeters>
          </Trackpoint>
          <Trackpoint>
            <Time>2021-04-03T15:02:22.000Z</Time>
            <Position>
              <LatitudeDegrees>42.3240085132420063018798828125</LatitudeDegrees>
              <LongitudeDegrees>2.46848464943468570709228515625</LongitudeDegrees>
            </Position>
            <AltitudeMeters>644.4000244140625</AltitudeMeters>
            <DistanceMeters>NAN</DistanceMeters>
          </Trackpoint>
          <Trackpoint>
            <Time>2021-04-03T15:02:24.000Z</Time>
            <Position>
              <LatitudeDegrees>42.32402184046804904937744140625</LatitudeDegrees>
              <LongitudeDegrees>2.46847383677959442138671875</LongitudeDegrees>
            </Position>
            <AltitudeMeters>644.4000244140625</AltitudeMeters>
            <DistanceMeters>NAN</DistanceMeters>
          </Trackpoint>
          <Trackpoint>
            <Time>2021-04-03T15:02:26.000Z</Time>
            <Position>
              <LatitudeDegrees>42.32403273694217205047607421875</LatitudeDegrees>
              <LongitudeDegrees>2.46844860725104808807373046875</LongitudeDegrees>
            </Position>
            <AltitudeMeters>644.20001220703125</AltitudeMeters>
            <DistanceMeters>NAN</DistanceMeters>
          </Trackpoint>
          <Trackpoint>
            <Time>2021-04-03T15:02:30.000Z</Time>
            <Position>
              <LatitudeDegrees>42.3240514285862445831298828125</LatitudeDegrees>
              <LongitudeDegrees>2.468410469591617584228515625</LongitudeDegrees>
            </Position>
            <AltitudeMeters>643.20001220703125</AltitudeMeters>
            <DistanceMeters>NAN</DistanceMeters>
          </Trackpoint>
          <Trackpoint>
            <Time>2021-04-03T15:02:32.000Z</Time>
            <Position>
              <LatitudeDegrees>42.324053943157196044921875</LatitudeDegrees>
              <LongitudeDegrees>2.46838222257792949676513671875</LongitudeDegrees>
            </Position>
            <AltitudeMeters>642.5999755859375</AltitudeMeters>
            <DistanceMeters>NAN</DistanceMeters>
          </Trackpoint>
          <Trackpoint>
            <Time>2021-04-03T15:02:33.000Z</Time>
            <Position>
              <LatitudeDegrees>42.32405670918524265289306640625</LatitudeDegrees>
              <LongitudeDegrees>2.46837459504604339599609375</LongitudeDegrees>
            </Position>
            <AltitudeMeters>642.4000244140625</AltitudeMeters>
            <DistanceMeters>NAN</DistanceMeters>
          </Trackpoint>
          <Trackpoint>
            <Time>2021-04-03T15:02:35.000Z</Time>
            <Position>
              <LatitudeDegrees>42.32406022958457469940185546875</LatitudeDegrees>
              <LongitudeDegrees>2.4683573283255100250244140625</LongitudeDegrees>
            </Position>
            <AltitudeMeters>642</AltitudeMeters>
            <DistanceMeters>NAN</DistanceMeters>
          </Trackpoint>
          <Trackpoint>
            <Time>2021-04-03T15:02:38.000Z</Time>
            <Position>
              <LatitudeDegrees>42.324075065553188323974609375</LatitudeDegrees>
              <LongitudeDegrees>2.46832086704671382904052734375</LongitudeDegrees>
            </Position>
            <AltitudeMeters>641.4000244140625</AltitudeMeters>
            <DistanceMeters>NAN</DistanceMeters>
          </Trackpoint>
          <Trackpoint>
            <Time>2021-04-03T15:02:44.000Z</Time>
            <Position>
              <LatitudeDegrees>42.32409375719726085662841796875</LatitudeDegrees>
              <LongitudeDegrees>2.46826923452317714691162109375</LongitudeDegrees>
            </Position>
            <AltitudeMeters>640.79998779296875</AltitudeMeters>
            <DistanceMeters>NAN</DistanceMeters>
          </Trackpoint>
          <Trackpoint>
            <Time>2021-04-03T15:02:46.000Z</Time>
            <Position>
              <LatitudeDegrees>42.32410155236721038818359375</LatitudeDegrees>
              <LongitudeDegrees>2.4682584218680858612060546875</LongitudeDegrees>
            </Position>
            <AltitudeMeters>640.5999755859375</AltitudeMeters>
            <DistanceMeters>NAN</DistanceMeters>
          </Trackpoint>
          <Trackpoint>
            <Time>2021-04-03T15:02:48.000Z</Time>
            <Position>
              <LatitudeDegrees>42.3241114430129528045654296875</LatitudeDegrees>
              <LongitudeDegrees>2.4682371318340301513671875</LongitudeDegrees>
            </Position>
            <AltitudeMeters>640.20001220703125</AltitudeMeters>
            <DistanceMeters>NAN</DistanceMeters>
          </Trackpoint>
          <Trackpoint>
            <Time>2021-04-03T15:02:50.000Z</Time>
            <Position>
              <LatitudeDegrees>42.32411068864166736602783203125</LatitudeDegrees>
              <LongitudeDegrees>2.46820955537259578704833984375</LongitudeDegrees>
            </Position>
            <AltitudeMeters>639.79998779296875</AltitudeMeters>
            <DistanceMeters>NAN</DistanceMeters>
          </Trackpoint>
          <Trackpoint>
            <Time>2021-04-03T15:02:52.000Z</Time>
            <Position>
              <LatitudeDegrees>42.3241194896399974822998046875</LatitudeDegrees>
              <LongitudeDegrees>2.46818575076758861541748046875</LongitudeDegrees>
            </Position>
            <AltitudeMeters>639.5999755859375</AltitudeMeters>
            <DistanceMeters>NAN</DistanceMeters>
          </Trackpoint>
          <Trackpoint>
            <Time>2021-04-03T15:02:55.000Z</Time>
            <Position>
              <LatitudeDegrees>42.3241352476179599761962890625</LatitudeDegrees>
              <LongitudeDegrees>2.46815465390682220458984375</LongitudeDegrees>
            </Position>
            <AltitudeMeters>639.4000244140625</AltitudeMeters>
            <DistanceMeters>NAN</DistanceMeters>
          </Trackpoint>
          <Trackpoint>
            <Time>2021-04-03T15:02:59.000Z</Time>
            <Position>
              <LatitudeDegrees>42.3241221718490123748779296875</LatitudeDegrees>
              <LongitudeDegrees>2.46810645796358585357666015625</LongitudeDegrees>
            </Position>
            <AltitudeMeters>638.79998779296875</AltitudeMeters>
            <DistanceMeters>NAN</DistanceMeters>
          </Trackpoint>
          <Trackpoint>
            <Time>2021-04-03T15:03:00.000Z</Time>
            <Position>
              <LatitudeDegrees>42.32412493787705898284912109375</LatitudeDegrees>
              <LongitudeDegrees>2.46808893978595733642578125</LongitudeDegrees>
            </Position>
            <AltitudeMeters>638.5999755859375</AltitudeMeters>
            <DistanceMeters>NAN</DistanceMeters>
          </Trackpoint>
          <Trackpoint>
            <Time>2021-04-03T15:03:03.000Z</Time>
            <Position>
              <LatitudeDegrees>42.32412091456353664398193359375</LatitudeDegrees>
              <LongitudeDegrees>2.46803755871951580047607421875</LongitudeDegrees>
            </Position>
            <AltitudeMeters>638.5999755859375</AltitudeMeters>
            <DistanceMeters>NAN</DistanceMeters>
          </Trackpoint>
          <Trackpoint>
            <Time>2021-04-03T15:03:07.000Z</Time>
            <Position>
              <LatitudeDegrees>42.32412569224834442138671875</LatitudeDegrees>
              <LongitudeDegrees>2.46797234751284122467041015625</LongitudeDegrees>
            </Position>
            <AltitudeMeters>638.5999755859375</AltitudeMeters>
            <DistanceMeters>NAN</DistanceMeters>
          </Trackpoint>
          <Trackpoint>
            <Time>2021-04-03T15:03:14.000Z</Time>
            <Position>
              <LatitudeDegrees>42.3241520114243030548095703125</LatitudeDegrees>
              <LongitudeDegrees>2.46788785792887210845947265625</LongitudeDegrees>
            </Position>
            <AltitudeMeters>638.5999755859375</AltitudeMeters>
            <DistanceMeters>NAN</DistanceMeters>
          </Trackpoint>
          <Trackpoint>
            <Time>2021-04-03T15:03:15.000Z</Time>
            <Position>
              <LatitudeDegrees>42.32415947131812572479248046875</LatitudeDegrees>
              <LongitudeDegrees>2.46787645854055881500244140625</LongitudeDegrees>
            </Position>
            <AltitudeMeters>638.5999755859375</AltitudeMeters>
            <DistanceMeters>NAN</DistanceMeters>
          </Trackpoint>
          <Trackpoint>
            <Time>2021-04-03T15:03:17.000Z</Time>
            <Position>
              <LatitudeDegrees>42.324174977838993072509765625</LatitudeDegrees>
              <LongitudeDegrees>2.46786237694323062896728515625</LongitudeDegrees>
            </Position>
            <AltitudeMeters>638.4000244140625</AltitudeMeters>
            <DistanceMeters>NAN</DistanceMeters>
          </Trackpoint>
          <Trackpoint>
            <Time>2021-04-03T15:03:22.000Z</Time>
            <Position>
              <LatitudeDegrees>42.3242113552987575531005859375</LatitudeDegrees>
              <LongitudeDegrees>2.46782767586410045623779296875</LongitudeDegrees>
            </Position>
            <AltitudeMeters>637.5999755859375</AltitudeMeters>
            <DistanceMeters>NAN</DistanceMeters>
          </Trackpoint>
          <Trackpoint>
            <Time>2021-04-03T15:03:27.000Z</Time>
            <Position>
              <LatitudeDegrees>42.324252091348171234130859375</LatitudeDegrees>
              <LongitudeDegrees>2.46779079549014568328857421875</LongitudeDegrees>
            </Position>
            <AltitudeMeters>636.5999755859375</AltitudeMeters>
            <DistanceMeters>NAN</DistanceMeters>
          </Trackpoint>
          <Trackpoint>
            <Time>2021-04-03T15:03:28.000Z</Time>
            <Position>
              <LatitudeDegrees>42.32425116933882236480712890625</LatitudeDegrees>
              <LongitudeDegrees>2.46779029257595539093017578125</LongitudeDegrees>
            </Position>
            <AltitudeMeters>636.4000244140625</AltitudeMeters>
            <DistanceMeters>NAN</DistanceMeters>
          </Trackpoint>
          <Trackpoint>
            <Time>2021-04-03T15:03:29.000Z</Time>
            <Position>
              <LatitudeDegrees>42.32424999587237834930419921875</LatitudeDegrees>
              <LongitudeDegrees>2.467790879309177398681640625</LongitudeDegrees>
            </Position>
            <AltitudeMeters>636</AltitudeMeters>
            <DistanceMeters>NAN</DistanceMeters>
          </Trackpoint>
          <Trackpoint>
            <Time>2021-04-03T15:03:32.000Z</Time>
            <Position>
              <LatitudeDegrees>42.32426525093615055084228515625</LatitudeDegrees>
              <LongitudeDegrees>2.467785179615020751953125</LongitudeDegrees>
            </Position>
            <AltitudeMeters>635.4000244140625</AltitudeMeters>
            <DistanceMeters>NAN</DistanceMeters>
          </Trackpoint>
          <Trackpoint>
            <Time>2021-04-03T15:03:33.000Z</Time>
            <Position>
              <LatitudeDegrees>42.32427447102963924407958984375</LatitudeDegrees>
              <LongitudeDegrees>2.4677923880517482757568359375</LongitudeDegrees>
            </Position>
            <AltitudeMeters>635.20001220703125</AltitudeMeters>
            <DistanceMeters>NAN</DistanceMeters>
          </Trackpoint>
          <Trackpoint>
            <Time>2021-04-03T15:03:35.000Z</Time>
            <Position>
              <LatitudeDegrees>42.32428519986569881439208984375</LatitudeDegrees>
              <LongitudeDegrees>2.467811666429042816162109375</LongitudeDegrees>
            </Position>
            <AltitudeMeters>635</AltitudeMeters>
            <DistanceMeters>NAN</DistanceMeters>
          </Trackpoint>
          <Trackpoint>
            <Time>2021-04-03T15:03:36.000Z</Time>
            <Position>
              <LatitudeDegrees>42.32429341413080692291259765625</LatitudeDegrees>
              <LongitudeDegrees>2.4678185395896434783935546875</LongitudeDegrees>
            </Position>
            <AltitudeMeters>634.79998779296875</AltitudeMeters>
            <DistanceMeters>NAN</DistanceMeters>
          </Trackpoint>
          <Trackpoint>
            <Time>2021-04-03T15:03:37.000Z</Time>
            <Position>
              <LatitudeDegrees>42.324301712214946746826171875</LatitudeDegrees>
              <LongitudeDegrees>2.467821054160594940185546875</LongitudeDegrees>
            </Position>
            <AltitudeMeters>634.5999755859375</AltitudeMeters>
            <DistanceMeters>NAN</DistanceMeters>
          </Trackpoint>
          <Trackpoint>
            <Time>2021-04-03T15:03:39.000Z</Time>
            <Position>
              <LatitudeDegrees>42.324310429394245147705078125</LatitudeDegrees>
              <LongitudeDegrees>2.4678212217986583709716796875</LongitudeDegrees>
            </Position>
            <AltitudeMeters>634.20001220703125</AltitudeMeters>
            <DistanceMeters>NAN</DistanceMeters>
          </Trackpoint>
          <Trackpoint>
            <Time>2021-04-03T15:03:45.000Z</Time>
            <Position>
              <LatitudeDegrees>42.3242965154349803924560546875</LatitudeDegrees>
              <LongitudeDegrees>2.46782365255057811737060546875</LongitudeDegrees>
            </Position>
            <AltitudeMeters>633.5999755859375</AltitudeMeters>
            <DistanceMeters>NAN</DistanceMeters>
          </Trackpoint>
          <Trackpoint>
            <Time>2021-04-03T15:03:50.000Z</Time>
            <Position>
              <LatitudeDegrees>42.32431705109775066375732421875</LatitudeDegrees>
              <LongitudeDegrees>2.46784293092787265777587890625</LongitudeDegrees>
            </Position>
            <AltitudeMeters>633.79998779296875</AltitudeMeters>
            <DistanceMeters>NAN</DistanceMeters>
          </Trackpoint>
          <Trackpoint>
            <Time>2021-04-03T15:03:51.000Z</Time>
            <Position>
              <LatitudeDegrees>42.32432459481060504913330078125</LatitudeDegrees>
              <LongitudeDegrees>2.46785097755491733551025390625</LongitudeDegrees>
            </Position>
            <AltitudeMeters>633.79998779296875</AltitudeMeters>
            <DistanceMeters>NAN</DistanceMeters>
          </Trackpoint>
          <Trackpoint>
            <Time>2021-04-03T15:03:59.000Z</Time>
            <Position>
              <LatitudeDegrees>42.32434739358723163604736328125</LatitudeDegrees>
              <LongitudeDegrees>2.46789850294589996337890625</LongitudeDegrees>
            </Position>
            <AltitudeMeters>634</AltitudeMeters>
            <DistanceMeters>NAN</DistanceMeters>
          </Trackpoint>
          <Trackpoint>
            <Time>2021-04-03T15:04:02.000Z</Time>
            <Position>
              <LatitudeDegrees>42.3243615590035915374755859375</LatitudeDegrees>
              <LongitudeDegrees>2.467931695282459259033203125</LongitudeDegrees>
            </Position>
            <AltitudeMeters>634.20001220703125</AltitudeMeters>
            <DistanceMeters>NAN</DistanceMeters>
          </Trackpoint>
          <Trackpoint>
            <Time>2021-04-03T15:04:06.000Z</Time>
            <Position>
              <LatitudeDegrees>42.3243823461234569549560546875</LatitudeDegrees>
              <LongitudeDegrees>2.467955835163593292236328125</LongitudeDegrees>
            </Position>
            <AltitudeMeters>634.5999755859375</AltitudeMeters>
            <DistanceMeters>NAN</DistanceMeters>
          </Trackpoint>
          <Trackpoint>
            <Time>2021-04-03T15:04:12.000Z</Time>
            <Position>
              <LatitudeDegrees>42.32440598309040069580078125</LatitudeDegrees>
              <LongitudeDegrees>2.4679268337786197662353515625</LongitudeDegrees>
            </Position>
            <AltitudeMeters>635.20001220703125</AltitudeMeters>
            <DistanceMeters>NAN</DistanceMeters>
          </Trackpoint>
          <Trackpoint>
            <Time>2021-04-03T15:04:14.000Z</Time>
            <Position>
              <LatitudeDegrees>42.32441612519323825836181640625</LatitudeDegrees>
              <LongitudeDegrees>2.46790998615324497222900390625</LongitudeDegrees>
            </Position>
            <AltitudeMeters>635.4000244140625</AltitudeMeters>
            <DistanceMeters>NAN</DistanceMeters>
          </Trackpoint>
          <Trackpoint>
            <Time>2021-04-03T15:04:17.000Z</Time>
            <Position>
              <LatitudeDegrees>42.32443255372345447540283203125</LatitudeDegrees>
              <LongitudeDegrees>2.46789506636559963226318359375</LongitudeDegrees>
            </Position>
            <AltitudeMeters>635.79998779296875</AltitudeMeters>
            <DistanceMeters>NAN</DistanceMeters>
          </Trackpoint>
          <Trackpoint>
            <Time>2021-04-03T15:04:20.000Z</Time>
            <Position>
              <LatitudeDegrees>42.3244494013488292694091796875</LatitudeDegrees>
              <LongitudeDegrees>2.4678809009492397308349609375</LongitudeDegrees>
            </Position>
            <AltitudeMeters>636.20001220703125</AltitudeMeters>
            <DistanceMeters>NAN</DistanceMeters>
          </Trackpoint>
          <Trackpoint>
            <Time>2021-04-03T15:04:21.000Z</Time>
            <Position>
              <LatitudeDegrees>42.324454598128795623779296875</LatitudeDegrees>
              <LongitudeDegrees>2.46787293814122676849365234375</LongitudeDegrees>
            </Position>
            <AltitudeMeters>636.20001220703125</AltitudeMeters>
            <DistanceMeters>NAN</DistanceMeters>
          </Trackpoint>
          <Trackpoint>
            <Time>2021-04-03T15:04:24.000Z</Time>
            <Position>
              <LatitudeDegrees>42.3244822584092617034912109375</LatitudeDegrees>
              <LongitudeDegrees>2.467850558459758758544921875</LongitudeDegrees>
            </Position>
            <AltitudeMeters>636.4000244140625</AltitudeMeters>
            <DistanceMeters>NAN</DistanceMeters>
          </Trackpoint>
          <Trackpoint>
            <Time>2021-04-03T15:04:27.000Z</Time>
            <Position>
              <LatitudeDegrees>42.32450396753847599029541015625</LatitudeDegrees>
              <LongitudeDegrees>2.46782734058797359466552734375</LongitudeDegrees>
            </Position>
            <AltitudeMeters>636.4000244140625</AltitudeMeters>
            <DistanceMeters>NAN</DistanceMeters>
          </Trackpoint>
          <Trackpoint>
            <Time>2021-04-03T15:04:33.000Z</Time>
            <Position>
              <LatitudeDegrees>42.324538417160511016845703125</LatitudeDegrees>
              <LongitudeDegrees>2.4677685834467411041259765625</LongitudeDegrees>
            </Position>
            <AltitudeMeters>636.79998779296875</AltitudeMeters>
            <DistanceMeters>NAN</DistanceMeters>
          </Trackpoint>
          <Trackpoint>
            <Time>2021-04-03T15:04:35.000Z</Time>
            <Position>
              <LatitudeDegrees>42.32454570941627025604248046875</LatitudeDegrees>
              <LongitudeDegrees>2.46775894425809383392333984375</LongitudeDegrees>
            </Position>
            <AltitudeMeters>637</AltitudeMeters>
            <DistanceMeters>NAN</DistanceMeters>
          </Trackpoint>
          <Trackpoint>
            <Time>2021-04-03T15:04:36.000Z</Time>
            <Position>
              <LatitudeDegrees>42.32455107383430004119873046875</LatitudeDegrees>
              <LongitudeDegrees>2.467751987278461456298828125</LongitudeDegrees>
            </Position>
            <AltitudeMeters>637</AltitudeMeters>
            <DistanceMeters>NAN</DistanceMeters>
          </Trackpoint>
          <Trackpoint>
            <Time>2021-04-03T15:04:38.000Z</Time>
            <Position>
              <LatitudeDegrees>42.32456423342227935791015625</LatitudeDegrees>
              <LongitudeDegrees>2.46773161925375461578369140625</LongitudeDegrees>
            </Position>
            <AltitudeMeters>637.20001220703125</AltitudeMeters>
            <DistanceMeters>NAN</DistanceMeters>
          </Trackpoint>
          <Trackpoint>
            <Time>2021-04-03T15:04:41.000Z</Time>
            <Position>
              <LatitudeDegrees>42.32458460144698619842529296875</LatitudeDegrees>
              <LongitudeDegrees>2.46771116741001605987548828125</LongitudeDegrees>
            </Position>
            <AltitudeMeters>637.4000244140625</AltitudeMeters>
            <DistanceMeters>NAN</DistanceMeters>
          </Trackpoint>
          <Trackpoint>
            <Time>2021-04-03T15:04:43.000Z</Time>
            <Position>
              <LatitudeDegrees>42.32459818013012409210205078125</LatitudeDegrees>
              <LongitudeDegrees>2.46769943274557590484619140625</LongitudeDegrees>
            </Position>
            <AltitudeMeters>637.4000244140625</AltitudeMeters>
            <DistanceMeters>NAN</DistanceMeters>
          </Trackpoint>
          <Trackpoint>
            <Time>2021-04-03T15:04:44.000Z</Time>
            <Position>
              <LatitudeDegrees>42.324607484042644500732421875</LatitudeDegrees>
              <LongitudeDegrees>2.4676907993853092193603515625</LongitudeDegrees>
            </Position>
            <AltitudeMeters>637.4000244140625</AltitudeMeters>
            <DistanceMeters>NAN</DistanceMeters>
          </Trackpoint>
          <Trackpoint>
            <Time>2021-04-03T15:04:45.000Z</Time>
            <Position>
              <LatitudeDegrees>42.324615530669689178466796875</LatitudeDegrees>
              <LongitudeDegrees>2.4676814116537570953369140625</LongitudeDegrees>
            </Position>
            <AltitudeMeters>637.5999755859375</AltitudeMeters>
            <DistanceMeters>NAN</DistanceMeters>
          </Trackpoint>
          <Trackpoint>
            <Time>2021-04-03T15:04:51.000Z</Time>
            <Position>
              <LatitudeDegrees>42.32465417124330997467041015625</LatitudeDegrees>
              <LongitudeDegrees>2.467629276216030120849609375</LongitudeDegrees>
            </Position>
            <AltitudeMeters>638.20001220703125</AltitudeMeters>
            <DistanceMeters>NAN</DistanceMeters>
          </Trackpoint>
          <Trackpoint>
            <Time>2021-04-03T15:04:57.000Z</Time>
            <Position>
              <LatitudeDegrees>42.32468903996050357818603515625</LatitudeDegrees>
              <LongitudeDegrees>2.46757102198898792266845703125</LongitudeDegrees>
            </Position>
            <AltitudeMeters>637.5999755859375</AltitudeMeters>
            <DistanceMeters>NAN</DistanceMeters>
          </Trackpoint>
          <Trackpoint>
            <Time>2021-04-03T15:05:02.000Z</Time>
            <Position>
              <LatitudeDegrees>42.32471703551709651947021484375</LatitudeDegrees>
              <LongitudeDegrees>2.4675182998180389404296875</LongitudeDegrees>
            </Position>
            <AltitudeMeters>637.20001220703125</AltitudeMeters>
            <DistanceMeters>NAN</DistanceMeters>
          </Trackpoint>
          <Trackpoint>
            <Time>2021-04-03T15:05:03.000Z</Time>
            <Position>
              <LatitudeDegrees>42.3247204720973968505859375</LatitudeDegrees>
              <LongitudeDegrees>2.4675048887729644775390625</LongitudeDegrees>
            </Position>
            <AltitudeMeters>637.20001220703125</AltitudeMeters>
            <DistanceMeters>NAN</DistanceMeters>
          </Trackpoint>
          <Trackpoint>
            <Time>2021-04-03T15:05:05.000Z</Time>
            <Position>
              <LatitudeDegrees>42.32473832555115222930908203125</LatitudeDegrees>
              <LongitudeDegrees>2.4674852751195430755615234375</LongitudeDegrees>
            </Position>
            <AltitudeMeters>637.20001220703125</AltitudeMeters>
            <DistanceMeters>NAN</DistanceMeters>
          </Trackpoint>
          <Trackpoint>
            <Time>2021-04-03T15:05:09.000Z</Time>
            <Position>
              <LatitudeDegrees>42.324763052165508270263671875</LatitudeDegrees>
              <LongitudeDegrees>2.46745149604976177215576171875</LongitudeDegrees>
            </Position>
            <AltitudeMeters>637.20001220703125</AltitudeMeters>
            <DistanceMeters>NAN</DistanceMeters>
          </Trackpoint>
          <Trackpoint>
            <Time>2021-04-03T15:05:16.000Z</Time>
            <Position>
              <LatitudeDegrees>42.32481845654547214508056640625</LatitudeDegrees>
              <LongitudeDegrees>2.46738485991954803466796875</LongitudeDegrees>
            </Position>
            <AltitudeMeters>637.4000244140625</AltitudeMeters>
            <DistanceMeters>NAN</DistanceMeters>
          </Trackpoint>
          <Trackpoint>
            <Time>2021-04-03T15:05:18.000Z</Time>
            <Position>
              <LatitudeDegrees>42.32484452426433563232421875</LatitudeDegrees>
              <LongitudeDegrees>2.467365749180316925048828125</LongitudeDegrees>
            </Position>
            <AltitudeMeters>637.4000244140625</AltitudeMeters>
            <DistanceMeters>NAN</DistanceMeters>
          </Trackpoint>
          <Trackpoint>
            <Time>2021-04-03T15:05:21.000Z</Time>
            <Position>
              <LatitudeDegrees>42.3248671554028987884521484375</LatitudeDegrees>
              <LongitudeDegrees>2.4673263542354106903076171875</LongitudeDegrees>
            </Position>
            <AltitudeMeters>637.4000244140625</AltitudeMeters>
            <DistanceMeters>NAN</DistanceMeters>
          </Trackpoint>
          <Trackpoint>
            <Time>2021-04-03T15:05:29.000Z</Time>
            <Position>
              <LatitudeDegrees>42.32490462251007556915283203125</LatitudeDegrees>
              <LongitudeDegrees>2.4672428704798221588134765625</LongitudeDegrees>
            </Position>
            <AltitudeMeters>638</AltitudeMeters>
            <DistanceMeters>NAN</DistanceMeters>
          </Trackpoint>
          <Trackpoint>
            <Time>2021-04-03T15:05:34.000Z</Time>
            <Position>
              <LatitudeDegrees>42.32493362389504909515380859375</LatitudeDegrees>
              <LongitudeDegrees>2.467186711728572845458984375</LongitudeDegrees>
            </Position>
            <AltitudeMeters>638.20001220703125</AltitudeMeters>
            <DistanceMeters>NAN</DistanceMeters>
          </Trackpoint>
          <Trackpoint>
            <Time>2021-04-03T15:05:36.000Z</Time>
            <Position>
              <LatitudeDegrees>42.32494569383561611175537109375</LatitudeDegrees>
              <LongitudeDegrees>2.4671684391796588897705078125</LongitudeDegrees>
            </Position>
            <AltitudeMeters>638.20001220703125</AltitudeMeters>
            <DistanceMeters>NAN</DistanceMeters>
          </Trackpoint>
          <Trackpoint>
            <Time>2021-04-03T15:05:40.000Z</Time>
            <Position>
              <LatitudeDegrees>42.324980981647968292236328125</LatitudeDegrees>
              <LongitudeDegrees>2.467141449451446533203125</LongitudeDegrees>
            </Position>
            <AltitudeMeters>638.5999755859375</AltitudeMeters>
            <DistanceMeters>NAN</DistanceMeters>
          </Trackpoint>
          <Trackpoint>
            <Time>2021-04-03T15:05:42.000Z</Time>
            <Position>
              <LatitudeDegrees>42.324992716312408447265625</LatitudeDegrees>
              <LongitudeDegrees>2.46713147498667240142822265625</LongitudeDegrees>
            </Position>
            <AltitudeMeters>638.5999755859375</AltitudeMeters>
            <DistanceMeters>NAN</DistanceMeters>
          </Trackpoint>
          <Trackpoint>
            <Time>2021-04-03T15:05:44.000Z</Time>
            <Position>
              <LatitudeDegrees>42.325008809566497802734375</LatitudeDegrees>
              <LongitudeDegrees>2.46712141670286655426025390625</LongitudeDegrees>
            </Position>
            <AltitudeMeters>638.79998779296875</AltitudeMeters>
            <DistanceMeters>NAN</DistanceMeters>
          </Trackpoint>
          <Trackpoint>
            <Time>2021-04-03T15:05:48.000Z</Time>
            <Position>
              <LatitudeDegrees>42.325038649141788482666015625</LatitudeDegrees>
              <LongitudeDegrees>2.4670832790434360504150390625</LongitudeDegrees>
            </Position>
            <AltitudeMeters>639.5999755859375</AltitudeMeters>
            <DistanceMeters>NAN</DistanceMeters>
          </Trackpoint>
          <Trackpoint>
            <Time>2021-04-03T15:05:49.000Z</Time>
            <Position>
              <LatitudeDegrees>42.32504342682659626007080078125</LatitudeDegrees>
              <LongitudeDegrees>2.46706140227615833282470703125</LongitudeDegrees>
            </Position>
            <AltitudeMeters>639.5999755859375</AltitudeMeters>
            <DistanceMeters>NAN</DistanceMeters>
          </Trackpoint>
          <Trackpoint>
            <Time>2021-04-03T15:05:53.000Z</Time>
            <Position>
              <LatitudeDegrees>42.32506404630839824676513671875</LatitudeDegrees>
              <LongitudeDegrees>2.46699484996497631072998046875</LongitudeDegrees>
            </Position>
            <AltitudeMeters>639.79998779296875</AltitudeMeters>
            <DistanceMeters>NAN</DistanceMeters>
          </Trackpoint>
          <Trackpoint>
            <Time>2021-04-03T15:05:55.000Z</Time>
            <Position>
              <LatitudeDegrees>42.32508416287600994110107421875</LatitudeDegrees>
              <LongitudeDegrees>2.46698060072958469390869140625</LongitudeDegrees>
            </Position>
            <AltitudeMeters>640</AltitudeMeters>
            <DistanceMeters>NAN</DistanceMeters>
          </Trackpoint>
          <Trackpoint>
            <Time>2021-04-03T15:06:01.000Z</Time>
            <Position>
              <LatitudeDegrees>42.32512054033577442169189453125</LatitudeDegrees>
              <LongitudeDegrees>2.466926537454128265380859375</LongitudeDegrees>
            </Position>
            <AltitudeMeters>639.4000244140625</AltitudeMeters>
            <DistanceMeters>NAN</DistanceMeters>
          </Trackpoint>
          <Trackpoint>
            <Time>2021-04-03T15:06:03.000Z</Time>
            <Position>
              <LatitudeDegrees>42.3251330293715000152587890625</LatitudeDegrees>
              <LongitudeDegrees>2.46690742671489715576171875</LongitudeDegrees>
            </Position>
            <AltitudeMeters>639.20001220703125</AltitudeMeters>
            <DistanceMeters>NAN</DistanceMeters>
          </Trackpoint>
          <Trackpoint>
            <Time>2021-04-03T15:06:07.000Z</Time>
            <Position>
              <LatitudeDegrees>42.3251655511558055877685546875</LatitudeDegrees>
              <LongitudeDegrees>2.46689401566982269287109375</LongitudeDegrees>
            </Position>
            <AltitudeMeters>639</AltitudeMeters>
            <DistanceMeters>NAN</DistanceMeters>
          </Trackpoint>
          <Trackpoint>
            <Time>2021-04-03T15:06:11.000Z</Time>
            <Position>
              <LatitudeDegrees>42.32519228942692279815673828125</LatitudeDegrees>
              <LongitudeDegrees>2.4668945185840129852294921875</LongitudeDegrees>
            </Position>
            <AltitudeMeters>638.5999755859375</AltitudeMeters>
            <DistanceMeters>NAN</DistanceMeters>
          </Trackpoint>
          <Trackpoint>
            <Time>2021-04-03T15:06:13.000Z</Time>
            <Position>
              <LatitudeDegrees>42.32519715093076229095458984375</LatitudeDegrees>
              <LongitudeDegrees>2.46690281666815280914306640625</LongitudeDegrees>
            </Position>
            <AltitudeMeters>638.5999755859375</AltitudeMeters>
            <DistanceMeters>NAN</DistanceMeters>
          </Trackpoint>
          <Trackpoint>
            <Time>2021-04-03T15:06:14.000Z</Time>
            <Position>
              <LatitudeDegrees>42.325197570025920867919921875</LatitudeDegrees>
              <LongitudeDegrees>2.46690415777266025543212890625</LongitudeDegrees>
            </Position>
            <AltitudeMeters>638.5999755859375</AltitudeMeters>
            <DistanceMeters>NAN</DistanceMeters>
          </Trackpoint>
          <Trackpoint>
            <Time>2021-04-03T15:06:18.000Z</Time>
            <Position>
              <LatitudeDegrees>42.325191199779510498046875</LatitudeDegrees>
              <LongitudeDegrees>2.4668784253299236297607421875</LongitudeDegrees>
            </Position>
            <AltitudeMeters>638.5999755859375</AltitudeMeters>
            <DistanceMeters>NAN</DistanceMeters>
          </Trackpoint>
          <Trackpoint>
            <Time>2021-04-03T15:06:19.000Z</Time>
            <Position>
              <LatitudeDegrees>42.3251906968653202056884765625</LatitudeDegrees>
              <LongitudeDegrees>2.4668733961880207061767578125</LongitudeDegrees>
            </Position>
            <AltitudeMeters>638.5999755859375</AltitudeMeters>
            <DistanceMeters>NAN</DistanceMeters>
          </Trackpoint>
          <Trackpoint>
            <Time>2021-04-03T15:06:22.000Z</Time>
            <Position>
              <LatitudeDegrees>42.32519413344562053680419921875</LatitudeDegrees>
              <LongitudeDegrees>2.466863505542278289794921875</LongitudeDegrees>
            </Position>
            <AltitudeMeters>638.5999755859375</AltitudeMeters>
            <DistanceMeters>NAN</DistanceMeters>
          </Trackpoint>
          <Trackpoint>
            <Time>2021-04-03T15:06:24.000Z</Time>
            <Position>
              <LatitudeDegrees>42.3252005875110626220703125</LatitudeDegrees>
              <LongitudeDegrees>2.4668690375983715057373046875</LongitudeDegrees>
            </Position>
            <AltitudeMeters>638.5999755859375</AltitudeMeters>
            <DistanceMeters>NAN</DistanceMeters>
          </Trackpoint>
          <Trackpoint>
            <Time>2021-04-03T15:06:25.000Z</Time>
            <Position>
              <LatitudeDegrees>42.32520796358585357666015625</LatitudeDegrees>
              <LongitudeDegrees>2.46687264181673526763916015625</LongitudeDegrees>
            </Position>
            <AltitudeMeters>638.5999755859375</AltitudeMeters>
            <DistanceMeters>NAN</DistanceMeters>
          </Trackpoint>
          <Trackpoint>
            <Time>2021-04-03T15:06:28.000Z</Time>
            <Position>
              <LatitudeDegrees>42.3252138309180736541748046875</LatitudeDegrees>
              <LongitudeDegrees>2.46688152663409709930419921875</LongitudeDegrees>
            </Position>
            <AltitudeMeters>638.5999755859375</AltitudeMeters>
            <DistanceMeters>NAN</DistanceMeters>
          </Trackpoint>
          <Trackpoint>
            <Time>2021-04-03T15:06:30.000Z</Time>
            <Position>
              <LatitudeDegrees>42.32521659694612026214599609375</LatitudeDegrees>
              <LongitudeDegrees>2.46687314473092555999755859375</LongitudeDegrees>
            </Position>
            <AltitudeMeters>638.5999755859375</AltitudeMeters>
            <DistanceMeters>NAN</DistanceMeters>
          </Trackpoint>
          <Trackpoint>
            <Time>2021-04-03T15:06:36.000Z</Time>
            <Position>
              <LatitudeDegrees>42.3252155072987079620361328125</LatitudeDegrees>
              <LongitudeDegrees>2.46686543338000774383544921875</LongitudeDegrees>
            </Position>
            <AltitudeMeters>638.79998779296875</AltitudeMeters>
            <DistanceMeters>NAN</DistanceMeters>
          </Trackpoint>
          <Trackpoint>
            <Time>2021-04-03T15:06:42.000Z</Time>
            <Position>
              <LatitudeDegrees>42.3252155072987079620361328125</LatitudeDegrees>
              <LongitudeDegrees>2.46686694212257862091064453125</LongitudeDegrees>
            </Position>
            <AltitudeMeters>639.4000244140625</AltitudeMeters>
            <DistanceMeters>NAN</DistanceMeters>
          </Trackpoint>
          <Trackpoint>
            <Time>2021-04-03T15:06:46.000Z</Time>
            <Position>
              <LatitudeDegrees>42.3252165131270885467529296875</LatitudeDegrees>
              <LongitudeDegrees>2.46687096543610095977783203125</LongitudeDegrees>
            </Position>
            <AltitudeMeters>639.4000244140625</AltitudeMeters>
            <DistanceMeters>NAN</DistanceMeters>
          </Trackpoint>
          <Trackpoint>
            <Time>2021-04-03T15:06:53.000Z</Time>
            <Position>
              <LatitudeDegrees>42.32523067854344844818115234375</LatitudeDegrees>
              <LongitudeDegrees>2.4668747372925281524658203125</LongitudeDegrees>
            </Position>
            <AltitudeMeters>639.5999755859375</AltitudeMeters>
            <DistanceMeters>NAN</DistanceMeters>
          </Trackpoint>
          <Trackpoint>
            <Time>2021-04-03T15:07:06.000Z</Time>
            <Position>
              <LatitudeDegrees>42.3252309300005435943603515625</LatitudeDegrees>
              <LongitudeDegrees>2.46688102371990680694580078125</LongitudeDegrees>
            </Position>
            <AltitudeMeters>639.79998779296875</AltitudeMeters>
            <DistanceMeters>NAN</DistanceMeters>
          </Trackpoint>
          <Trackpoint>
            <Time>2021-04-03T15:07:09.000Z</Time>
            <Position>
              <LatitudeDegrees>42.325226403772830963134765625</LatitudeDegrees>
              <LongitudeDegrees>2.46686979196965694427490234375</LongitudeDegrees>
            </Position>
            <AltitudeMeters>639.79998779296875</AltitudeMeters>
            <DistanceMeters>NAN</DistanceMeters>
          </Trackpoint>
          <Trackpoint>
            <Time>2021-04-03T15:07:19.000Z</Time>
            <Position>
              <LatitudeDegrees>42.32526588253676891326904296875</LatitudeDegrees>
              <LongitudeDegrees>2.46692008338868618011474609375</LongitudeDegrees>
            </Position>
            <AltitudeMeters>639.4000244140625</AltitudeMeters>
            <DistanceMeters>NAN</DistanceMeters>
          </Trackpoint>
          <Trackpoint>
            <Time>2021-04-03T15:07:25.000Z</Time>
            <Position>
              <LatitudeDegrees>42.32529421336948871612548828125</LatitudeDegrees>
              <LongitudeDegrees>2.46691606007516384124755859375</LongitudeDegrees>
            </Position>
            <AltitudeMeters>639.5999755859375</AltitudeMeters>
            <DistanceMeters>NAN</DistanceMeters>
          </Trackpoint>
          <Trackpoint>
            <Time>2021-04-03T15:07:31.000Z</Time>
            <Position>
              <LatitudeDegrees>42.32531667686998844146728515625</LatitudeDegrees>
              <LongitudeDegrees>2.4668844603002071380615234375</LongitudeDegrees>
            </Position>
            <AltitudeMeters>640</AltitudeMeters>
            <DistanceMeters>NAN</DistanceMeters>
          </Trackpoint>
          <Trackpoint>
            <Time>2021-04-03T15:07:33.000Z</Time>
            <Position>
              <LatitudeDegrees>42.32532598078250885009765625</LatitudeDegrees>
              <LongitudeDegrees>2.46687163598835468292236328125</LongitudeDegrees>
            </Position>
            <AltitudeMeters>640.20001220703125</AltitudeMeters>
            <DistanceMeters>NAN</DistanceMeters>
          </Trackpoint>
          <Trackpoint>
            <Time>2021-04-03T15:07:37.000Z</Time>
            <Position>
              <LatitudeDegrees>42.325344420969486236572265625</LatitudeDegrees>
              <LongitudeDegrees>2.4668402038514614105224609375</LongitudeDegrees>
            </Position>
            <AltitudeMeters>640.4000244140625</AltitudeMeters>
            <DistanceMeters>NAN</DistanceMeters>
          </Trackpoint>
          <Trackpoint>
            <Time>2021-04-03T15:07:38.000Z</Time>
            <Position>
              <LatitudeDegrees>42.32535003684461116790771484375</LatitudeDegrees>
              <LongitudeDegrees>2.46682151220738887786865234375</LongitudeDegrees>
            </Position>
            <AltitudeMeters>640.4000244140625</AltitudeMeters>
            <DistanceMeters>NAN</DistanceMeters>
          </Trackpoint>
          <Trackpoint>
            <Time>2021-04-03T15:07:41.000Z</Time>
            <Position>
              <LatitudeDegrees>42.3253677226603031158447265625</LatitudeDegrees>
              <LongitudeDegrees>2.466770969331264495849609375</LongitudeDegrees>
            </Position>
            <AltitudeMeters>640.5999755859375</AltitudeMeters>
            <DistanceMeters>NAN</DistanceMeters>
          </Trackpoint>
          <Trackpoint>
            <Time>2021-04-03T15:07:44.000Z</Time>
            <Position>
              <LatitudeDegrees>42.325390689074993133544921875</LatitudeDegrees>
              <LongitudeDegrees>2.4667490087449550628662109375</LongitudeDegrees>
            </Position>
            <AltitudeMeters>641</AltitudeMeters>
            <DistanceMeters>NAN</DistanceMeters>
          </Trackpoint>
          <Trackpoint>
            <Time>2021-04-03T15:07:45.000Z</Time>
            <Position>
              <LatitudeDegrees>42.32539898715913295745849609375</LatitudeDegrees>
              <LongitudeDegrees>2.46674372814595699310302734375</LongitudeDegrees>
            </Position>
            <AltitudeMeters>641</AltitudeMeters>
            <DistanceMeters>NAN</DistanceMeters>
          </Trackpoint>
          <Trackpoint>
            <Time>2021-04-03T15:07:47.000Z</Time>
            <Position>
              <LatitudeDegrees>42.32540904544293880462646484375</LatitudeDegrees>
              <LongitudeDegrees>2.4667396210134029388427734375</LongitudeDegrees>
            </Position>
            <AltitudeMeters>641.20001220703125</AltitudeMeters>
            <DistanceMeters>NAN</DistanceMeters>
          </Trackpoint>
          <Trackpoint>
            <Time>2021-04-03T15:07:51.000Z</Time>
            <Position>
              <LatitudeDegrees>42.32542228884994983673095703125</LatitudeDegrees>
              <LongitudeDegrees>2.466724701225757598876953125</LongitudeDegrees>
            </Position>
            <AltitudeMeters>641.79998779296875</AltitudeMeters>
            <DistanceMeters>NAN</DistanceMeters>
          </Trackpoint>
          <Trackpoint>
            <Time>2021-04-03T15:07:53.000Z</Time>
            <Position>
              <LatitudeDegrees>42.3254310898482799530029296875</LatitudeDegrees>
              <LongitudeDegrees>2.46671137399971485137939453125</LongitudeDegrees>
            </Position>
            <AltitudeMeters>642</AltitudeMeters>
            <DistanceMeters>NAN</DistanceMeters>
          </Trackpoint>
          <Trackpoint>
            <Time>2021-04-03T15:07:54.000Z</Time>
            <Position>
              <LatitudeDegrees>42.32543653808534145355224609375</LatitudeDegrees>
              <LongitudeDegrees>2.46670584194362163543701171875</LongitudeDegrees>
            </Position>
            <AltitudeMeters>642.20001220703125</AltitudeMeters>
            <DistanceMeters>NAN</DistanceMeters>
          </Trackpoint>
          <Trackpoint>
            <Time>2021-04-03T15:07:55.000Z</Time>
            <Position>
              <LatitudeDegrees>42.32544022612273693084716796875</LatitudeDegrees>
              <LongitudeDegrees>2.46670089662075042724609375</LongitudeDegrees>
            </Position>
            <AltitudeMeters>642.4000244140625</AltitudeMeters>
            <DistanceMeters>NAN</DistanceMeters>
          </Trackpoint>
          <Trackpoint>
            <Time>2021-04-03T15:07:57.000Z</Time>
            <Position>
              <LatitudeDegrees>42.3254461772739887237548828125</LatitudeDegrees>
              <LongitudeDegrees>2.46669947169721126556396484375</LongitudeDegrees>
            </Position>
            <AltitudeMeters>642.5999755859375</AltitudeMeters>
            <DistanceMeters>NAN</DistanceMeters>
          </Trackpoint>
          <Trackpoint>
            <Time>2021-04-03T15:07:58.000Z</Time>
            <Position>
              <LatitudeDegrees>42.32544894330203533172607421875</LatitudeDegrees>
              <LongitudeDegrees>2.46669494546949863433837890625</LongitudeDegrees>
            </Position>
            <AltitudeMeters>642.79998779296875</AltitudeMeters>
            <DistanceMeters>NAN</DistanceMeters>
          </Trackpoint>
          <Trackpoint>
            <Time>2021-04-03T15:07:59.000Z</Time>
            <Position>
              <LatitudeDegrees>42.32545145787298679351806640625</LatitudeDegrees>
              <LongitudeDegrees>2.4666868150234222412109375</LongitudeDegrees>
            </Position>
            <AltitudeMeters>642.79998779296875</AltitudeMeters>
            <DistanceMeters>NAN</DistanceMeters>
          </Trackpoint>
          <Trackpoint>
            <Time>2021-04-03T15:08:01.000Z</Time>
            <Position>
              <LatitudeDegrees>42.32546000741422176361083984375</LatitudeDegrees>
              <LongitudeDegrees>2.46665370650589466094970703125</LongitudeDegrees>
            </Position>
            <AltitudeMeters>643</AltitudeMeters>
            <DistanceMeters>NAN</DistanceMeters>
          </Trackpoint>
          <Trackpoint>
            <Time>2021-04-03T15:08:03.000Z</Time>
            <Position>
              <LatitudeDegrees>42.3254743404686450958251953125</LatitudeDegrees>
              <LongitudeDegrees>2.4666330032050609588623046875</LongitudeDegrees>
            </Position>
            <AltitudeMeters>643</AltitudeMeters>
            <DistanceMeters>NAN</DistanceMeters>
          </Trackpoint>
          <Trackpoint>
            <Time>2021-04-03T15:08:08.000Z</Time>
            <Position>
              <LatitudeDegrees>42.32550032436847686767578125</LatitudeDegrees>
              <LongitudeDegrees>2.466567791998386383056640625</LongitudeDegrees>
            </Position>
            <AltitudeMeters>643.20001220703125</AltitudeMeters>
            <DistanceMeters>NAN</DistanceMeters>
          </Trackpoint>
          <Trackpoint>
            <Time>2021-04-03T15:08:17.000Z</Time>
            <Position>
              <LatitudeDegrees>42.3255859874188899993896484375</LatitudeDegrees>
              <LongitudeDegrees>2.4665220268070697784423828125</LongitudeDegrees>
            </Position>
            <AltitudeMeters>643.79998779296875</AltitudeMeters>
            <DistanceMeters>NAN</DistanceMeters>
          </Trackpoint>
          <Trackpoint>
            <Time>2021-04-03T15:08:19.000Z</Time>
            <Position>
              <LatitudeDegrees>42.32560099102556705474853515625</LatitudeDegrees>
              <LongitudeDegrees>2.4665044248104095458984375</LongitudeDegrees>
            </Position>
            <AltitudeMeters>644</AltitudeMeters>
            <DistanceMeters>NAN</DistanceMeters>
          </Trackpoint>
          <Trackpoint>
            <Time>2021-04-03T15:08:27.000Z</Time>
            <Position>
              <LatitudeDegrees>42.32565077953040599822998046875</LatitudeDegrees>
              <LongitudeDegrees>2.46642605401575565338134765625</LongitudeDegrees>
            </Position>
            <AltitudeMeters>644</AltitudeMeters>
            <DistanceMeters>NAN</DistanceMeters>
          </Trackpoint>
          <Trackpoint>
            <Time>2021-04-03T15:08:37.000Z</Time>
            <Position>
              <LatitudeDegrees>42.32569537125527858734130859375</LatitudeDegrees>
              <LongitudeDegrees>2.4663376249372959136962890625</LongitudeDegrees>
            </Position>
            <AltitudeMeters>644.20001220703125</AltitudeMeters>
            <DistanceMeters>NAN</DistanceMeters>
          </Trackpoint>
          <Trackpoint>
            <Time>2021-04-03T15:08:42.000Z</Time>
            <Position>
              <LatitudeDegrees>42.32571951113641262054443359375</LatitudeDegrees>
              <LongitudeDegrees>2.46630853973329067230224609375</LongitudeDegrees>
            </Position>
            <AltitudeMeters>644.20001220703125</AltitudeMeters>
            <DistanceMeters>NAN</DistanceMeters>
          </Trackpoint>
          <Trackpoint>
            <Time>2021-04-03T15:08:44.000Z</Time>
            <Position>
              <LatitudeDegrees>42.32572403736412525177001953125</LatitudeDegrees>
              <LongitudeDegrees>2.46629361994564533233642578125</LongitudeDegrees>
            </Position>
            <AltitudeMeters>644.4000244140625</AltitudeMeters>
            <DistanceMeters>NAN</DistanceMeters>
          </Trackpoint>
          <Trackpoint>
            <Time>2021-04-03T15:08:45.000Z</Time>
            <Position>
              <LatitudeDegrees>42.3257271386682987213134765625</LatitudeDegrees>
              <LongitudeDegrees>2.46628783643245697021484375</LongitudeDegrees>
            </Position>
            <AltitudeMeters>644.4000244140625</AltitudeMeters>
            <DistanceMeters>NAN</DistanceMeters>
          </Trackpoint>
          <Trackpoint>
            <Time>2021-04-03T15:08:46.000Z</Time>
            <Position>
              <LatitudeDegrees>42.32573258690536022186279296875</LatitudeDegrees>
              <LongitudeDegrees>2.46627819724380970001220703125</LongitudeDegrees>
            </Position>
            <AltitudeMeters>644.5999755859375</AltitudeMeters>
            <DistanceMeters>NAN</DistanceMeters>
          </Trackpoint>
          <Trackpoint>
            <Time>2021-04-03T15:08:51.000Z</Time>
            <Position>
              <LatitudeDegrees>42.325746752321720123291015625</LatitudeDegrees>
              <LongitudeDegrees>2.4662346951663494110107421875</LongitudeDegrees>
            </Position>
            <AltitudeMeters>645</AltitudeMeters>
            <DistanceMeters>NAN</DistanceMeters>
          </Trackpoint>
          <Trackpoint>
            <Time>2021-04-03T15:08:53.000Z</Time>
            <Position>
              <LatitudeDegrees>42.32575572095811367034912109375</LatitudeDegrees>
              <LongitudeDegrees>2.4662155844271183013916015625</LongitudeDegrees>
            </Position>
            <AltitudeMeters>645.20001220703125</AltitudeMeters>
            <DistanceMeters>NAN</DistanceMeters>
          </Trackpoint>
          <Trackpoint>
            <Time>2021-04-03T15:08:54.000Z</Time>
            <Position>
              <LatitudeDegrees>42.3257606662809848785400390625</LatitudeDegrees>
              <LongitudeDegrees>2.46620745398104190826416015625</LongitudeDegrees>
            </Position>
            <AltitudeMeters>645.20001220703125</AltitudeMeters>
            <DistanceMeters>NAN</DistanceMeters>
          </Trackpoint>
          <Trackpoint>
            <Time>2021-04-03T15:08:55.000Z</Time>
            <Position>
              <LatitudeDegrees>42.32576628215610980987548828125</LatitudeDegrees>
              <LongitudeDegrees>2.46619530022144317626953125</LongitudeDegrees>
            </Position>
            <AltitudeMeters>645.20001220703125</AltitudeMeters>
            <DistanceMeters>NAN</DistanceMeters>
          </Trackpoint>
          <Trackpoint>
            <Time>2021-04-03T15:08:58.000Z</Time>
            <Position>
              <LatitudeDegrees>42.3257898353040218353271484375</LatitudeDegrees>
              <LongitudeDegrees>2.46618700213730335235595703125</LongitudeDegrees>
            </Position>
            <AltitudeMeters>645.4000244140625</AltitudeMeters>
            <DistanceMeters>NAN</DistanceMeters>
          </Trackpoint>
          <Trackpoint>
            <Time>2021-04-03T15:09:00.000Z</Time>
            <Position>
              <LatitudeDegrees>42.3258049227297306060791015625</LatitudeDegrees>
              <LongitudeDegrees>2.46616923250257968902587890625</LongitudeDegrees>
            </Position>
            <AltitudeMeters>645.4000244140625</AltitudeMeters>
            <DistanceMeters>NAN</DistanceMeters>
          </Trackpoint>
          <Trackpoint>
            <Time>2021-04-03T15:09:03.000Z</Time>
            <Position>
              <LatitudeDegrees>42.32582311145961284637451171875</LatitudeDegrees>
              <LongitudeDegrees>2.46612296439707279205322265625</LongitudeDegrees>
            </Position>
            <AltitudeMeters>646</AltitudeMeters>
            <DistanceMeters>NAN</DistanceMeters>
          </Trackpoint>
          <Trackpoint>
            <Time>2021-04-03T15:09:04.000Z</Time>
            <Position>
              <LatitudeDegrees>42.3258260451257228851318359375</LatitudeDegrees>
              <LongitudeDegrees>2.466112487018108367919921875</LongitudeDegrees>
            </Position>
            <AltitudeMeters>646.20001220703125</AltitudeMeters>
            <DistanceMeters>NAN</DistanceMeters>
          </Trackpoint>
          <Trackpoint>
            <Time>2021-04-03T15:09:13.000Z</Time>
            <Position>
              <LatitudeDegrees>42.325848676264286041259765625</LatitudeDegrees>
              <LongitudeDegrees>2.466000504791736602783203125</LongitudeDegrees>
            </Position>
            <AltitudeMeters>646.20001220703125</AltitudeMeters>
            <DistanceMeters>NAN</DistanceMeters>
          </Trackpoint>
          <Trackpoint>
            <Time>2021-04-03T15:09:17.000Z</Time>
            <Position>
              <LatitudeDegrees>42.32585881836712360382080078125</LatitudeDegrees>
              <LongitudeDegrees>2.4659725092351436614990234375</LongitudeDegrees>
            </Position>
            <AltitudeMeters>646.20001220703125</AltitudeMeters>
            <DistanceMeters>NAN</DistanceMeters>
          </Trackpoint>
          <Trackpoint>
            <Time>2021-04-03T15:09:20.000Z</Time>
            <Position>
              <LatitudeDegrees>42.3258535377681255340576171875</LatitudeDegrees>
              <LongitudeDegrees>2.46594929136335849761962890625</LongitudeDegrees>
            </Position>
            <AltitudeMeters>646.20001220703125</AltitudeMeters>
            <DistanceMeters>NAN</DistanceMeters>
          </Trackpoint>
          <Trackpoint>
            <Time>2021-04-03T15:09:21.000Z</Time>
            <Position>
              <LatitudeDegrees>42.325857393443584442138671875</LatitudeDegrees>
              <LongitudeDegrees>2.46593780815601348876953125</LongitudeDegrees>
            </Position>
            <AltitudeMeters>646.20001220703125</AltitudeMeters>
            <DistanceMeters>NAN</DistanceMeters>
          </Trackpoint>
          <Trackpoint>
            <Time>2021-04-03T15:09:23.000Z</Time>
            <Position>
              <LatitudeDegrees>42.3258684575557708740234375</LatitudeDegrees>
              <LongitudeDegrees>2.46592079289257526397705078125</LongitudeDegrees>
            </Position>
            <AltitudeMeters>646.20001220703125</AltitudeMeters>
            <DistanceMeters>NAN</DistanceMeters>
          </Trackpoint>
          <Trackpoint>
            <Time>2021-04-03T15:09:27.000Z</Time>
            <Position>
              <LatitudeDegrees>42.3258679546415805816650390625</LatitudeDegrees>
              <LongitudeDegrees>2.46588123030960559844970703125</LongitudeDegrees>
            </Position>
            <AltitudeMeters>646.20001220703125</AltitudeMeters>
            <DistanceMeters>NAN</DistanceMeters>
          </Trackpoint>
          <Trackpoint>
            <Time>2021-04-03T15:09:35.000Z</Time>
            <Position>
              <LatitudeDegrees>42.325877845287322998046875</LatitudeDegrees>
              <LongitudeDegrees>2.46585876680910587310791015625</LongitudeDegrees>
            </Position>
            <AltitudeMeters>646.4000244140625</AltitudeMeters>
            <DistanceMeters>NAN</DistanceMeters>
          </Trackpoint>
          <Trackpoint>
            <Time>2021-04-03T15:09:38.000Z</Time>
            <Position>
              <LatitudeDegrees>42.3258776776492595672607421875</LatitudeDegrees>
              <LongitudeDegrees>2.46585088782012462615966796875</LongitudeDegrees>
            </Position>
            <AltitudeMeters>646.20001220703125</AltitudeMeters>
            <DistanceMeters>NAN</DistanceMeters>
          </Trackpoint>
          <Trackpoint>
            <Time>2021-04-03T15:09:43.000Z</Time>
            <Position>
              <LatitudeDegrees>42.32588379643857479095458984375</LatitudeDegrees>
              <LongitudeDegrees>2.4658132530748844146728515625</LongitudeDegrees>
            </Position>
            <AltitudeMeters>646.20001220703125</AltitudeMeters>
            <DistanceMeters>NAN</DistanceMeters>
          </Trackpoint>
          <Trackpoint>
            <Time>2021-04-03T15:09:45.000Z</Time>
            <Position>
              <LatitudeDegrees>42.32588647864758968353271484375</LatitudeDegrees>
              <LongitudeDegrees>2.46579296886920928955078125</LongitudeDegrees>
            </Position>
            <AltitudeMeters>646.20001220703125</AltitudeMeters>
            <DistanceMeters>NAN</DistanceMeters>
          </Trackpoint>
          <Trackpoint>
            <Time>2021-04-03T15:09:51.000Z</Time>
            <Position>
              <LatitudeDegrees>42.3259041644632816314697265625</LatitudeDegrees>
              <LongitudeDegrees>2.465739659965038299560546875</LongitudeDegrees>
            </Position>
            <AltitudeMeters>646.20001220703125</AltitudeMeters>
            <DistanceMeters>NAN</DistanceMeters>
          </Trackpoint>
          <Trackpoint>
            <Time>2021-04-03T15:09:58.000Z</Time>
            <Position>
              <LatitudeDegrees>42.32594397850334644317626953125</LatitudeDegrees>
              <LongitudeDegrees>2.4656710959970951080322265625</LongitudeDegrees>
            </Position>
            <AltitudeMeters>646.4000244140625</AltitudeMeters>
            <DistanceMeters>NAN</DistanceMeters>
          </Trackpoint>
          <Trackpoint>
            <Time>2021-04-03T15:10:01.000Z</Time>
            <Position>
              <LatitudeDegrees>42.32596543617546558380126953125</LatitudeDegrees>
              <LongitudeDegrees>2.46563161723315715789794921875</LongitudeDegrees>
            </Position>
            <AltitudeMeters>646.4000244140625</AltitudeMeters>
            <DistanceMeters>NAN</DistanceMeters>
          </Trackpoint>
          <Trackpoint>
            <Time>2021-04-03T15:10:04.000Z</Time>
            <Position>
              <LatitudeDegrees>42.3259784281253814697265625</LatitudeDegrees>
              <LongitudeDegrees>2.46561535634100437164306640625</LongitudeDegrees>
            </Position>
            <AltitudeMeters>646.4000244140625</AltitudeMeters>
            <DistanceMeters>NAN</DistanceMeters>
          </Trackpoint>
          <Trackpoint>
            <Time>2021-04-03T15:10:09.000Z</Time>
            <Position>
              <LatitudeDegrees>42.32596761547029018402099609375</LatitudeDegrees>
              <LongitudeDegrees>2.46557981707155704498291015625</LongitudeDegrees>
            </Position>
            <AltitudeMeters>646.4000244140625</AltitudeMeters>
            <DistanceMeters>NAN</DistanceMeters>
          </Trackpoint>
          <Trackpoint>
            <Time>2021-04-03T15:10:12.000Z</Time>
            <Position>
              <LatitudeDegrees>42.3259782604873180389404296875</LatitudeDegrees>
              <LongitudeDegrees>2.46552751399576663970947265625</LongitudeDegrees>
            </Position>
            <AltitudeMeters>646.4000244140625</AltitudeMeters>
            <DistanceMeters>NAN</DistanceMeters>
          </Trackpoint>
          <Trackpoint>
            <Time>2021-04-03T15:10:19.000Z</Time>
            <Position>
              <LatitudeDegrees>42.325999550521373748779296875</LatitudeDegrees>
              <LongitudeDegrees>2.465474791824817657470703125</LongitudeDegrees>
            </Position>
            <AltitudeMeters>646.5999755859375</AltitudeMeters>
            <DistanceMeters>NAN</DistanceMeters>
          </Trackpoint>
          <Trackpoint>
            <Time>2021-04-03T15:10:26.000Z</Time>
            <Position>
              <LatitudeDegrees>42.32603408396244049072265625</LatitudeDegrees>
              <LongitudeDegrees>2.4653867818415164947509765625</LongitudeDegrees>
            </Position>
            <AltitudeMeters>646.79998779296875</AltitudeMeters>
            <DistanceMeters>NAN</DistanceMeters>
          </Trackpoint>
          <Trackpoint>
            <Time>2021-04-03T15:10:31.000Z</Time>
            <Position>
              <LatitudeDegrees>42.32606090605258941650390625</LatitudeDegrees>
              <LongitudeDegrees>2.4653247557580471038818359375</LongitudeDegrees>
            </Position>
            <AltitudeMeters>646.79998779296875</AltitudeMeters>
            <DistanceMeters>NAN</DistanceMeters>
          </Trackpoint>
          <Trackpoint>
            <Time>2021-04-03T15:10:33.000Z</Time>
            <Position>
              <LatitudeDegrees>42.32607490383088588714599609375</LatitudeDegrees>
              <LongitudeDegrees>2.46529969386756420135498046875</LongitudeDegrees>
            </Position>
            <AltitudeMeters>646.79998779296875</AltitudeMeters>
            <DistanceMeters>NAN</DistanceMeters>
          </Trackpoint>
          <Trackpoint>
            <Time>2021-04-03T15:10:34.000Z</Time>
            <Position>
              <LatitudeDegrees>42.32608043588697910308837890625</LatitudeDegrees>
              <LongitudeDegrees>2.46528628282248973846435546875</LongitudeDegrees>
            </Position>
            <AltitudeMeters>646.79998779296875</AltitudeMeters>
            <DistanceMeters>NAN</DistanceMeters>
          </Trackpoint>
          <Trackpoint>
            <Time>2021-04-03T15:10:37.000Z</Time>
            <Position>
              <LatitudeDegrees>42.32609502039849758148193359375</LatitudeDegrees>
              <LongitudeDegrees>2.46525116264820098876953125</LongitudeDegrees>
            </Position>
            <AltitudeMeters>647.20001220703125</AltitudeMeters>
            <DistanceMeters>NAN</DistanceMeters>
          </Trackpoint>
          <Trackpoint>
            <Time>2021-04-03T15:10:39.000Z</Time>
            <Position>
              <LatitudeDegrees>42.32611161656677722930908203125</LatitudeDegrees>
              <LongitudeDegrees>2.46523112989962100982666015625</LongitudeDegrees>
            </Position>
            <AltitudeMeters>647.4000244140625</AltitudeMeters>
            <DistanceMeters>NAN</DistanceMeters>
          </Trackpoint>
          <Trackpoint>
            <Time>2021-04-03T15:10:46.000Z</Time>
            <Position>
              <LatitudeDegrees>42.3261455632746219635009765625</LatitudeDegrees>
              <LongitudeDegrees>2.46515217237174510955810546875</LongitudeDegrees>
            </Position>
            <AltitudeMeters>648.20001220703125</AltitudeMeters>
            <DistanceMeters>NAN</DistanceMeters>
          </Trackpoint>
          <Trackpoint>
            <Time>2021-04-03T15:10:47.000Z</Time>
            <Position>
              <LatitudeDegrees>42.326156459748744964599609375</LatitudeDegrees>
              <LongitudeDegrees>2.46514060534536838531494140625</LongitudeDegrees>
            </Position>
            <AltitudeMeters>648.20001220703125</AltitudeMeters>
            <DistanceMeters>NAN</DistanceMeters>
          </Trackpoint>
          <Trackpoint>
            <Time>2021-04-03T15:10:53.000Z</Time>
            <Position>
              <LatitudeDegrees>42.32619367539882659912109375</LatitudeDegrees>
              <LongitudeDegrees>2.465087212622165679931640625</LongitudeDegrees>
            </Position>
            <AltitudeMeters>649</AltitudeMeters>
            <DistanceMeters>NAN</DistanceMeters>
          </Trackpoint>
          <Trackpoint>
            <Time>2021-04-03T15:10:55.000Z</Time>
            <Position>
              <LatitudeDegrees>42.3262072540819644927978515625</LatitudeDegrees>
              <LongitudeDegrees>2.46506382711231708526611328125</LongitudeDegrees>
            </Position>
            <AltitudeMeters>649.4000244140625</AltitudeMeters>
            <DistanceMeters>NAN</DistanceMeters>
          </Trackpoint>
          <Trackpoint>
            <Time>2021-04-03T15:10:56.000Z</Time>
            <Position>
              <LatitudeDegrees>42.32621354050934314727783203125</LatitudeDegrees>
              <LongitudeDegrees>2.46505158953368663787841796875</LongitudeDegrees>
            </Position>
            <AltitudeMeters>649.4000244140625</AltitudeMeters>
            <DistanceMeters>NAN</DistanceMeters>
          </Trackpoint>
          <Trackpoint>
            <Time>2021-04-03T15:10:59.000Z</Time>
            <Position>
              <LatitudeDegrees>42.32621538452804088592529296875</LatitudeDegrees>
              <LongitudeDegrees>2.46503365226089954376220703125</LongitudeDegrees>
            </Position>
            <AltitudeMeters>649.79998779296875</AltitudeMeters>
            <DistanceMeters>NAN</DistanceMeters>
          </Trackpoint>
          <Trackpoint>
            <Time>2021-04-03T15:11:02.000Z</Time>
            <Position>
              <LatitudeDegrees>42.3262049071490764617919921875</LatitudeDegrees>
              <LongitudeDegrees>2.4650132842361927032470703125</LongitudeDegrees>
            </Position>
            <AltitudeMeters>650.20001220703125</AltitudeMeters>
            <DistanceMeters>NAN</DistanceMeters>
          </Trackpoint>
          <Trackpoint>
            <Time>2021-04-03T15:11:03.000Z</Time>
            <Position>
              <LatitudeDegrees>42.32620884664356708526611328125</LatitudeDegrees>
              <LongitudeDegrees>2.4650079198181629180908203125</LongitudeDegrees>
            </Position>
            <AltitudeMeters>650.20001220703125</AltitudeMeters>
            <DistanceMeters>NAN</DistanceMeters>
          </Trackpoint>
          <Trackpoint>
            <Time>2021-04-03T15:11:04.000Z</Time>
            <Position>
              <LatitudeDegrees>42.3262153007090091705322265625</LatitudeDegrees>
              <LongitudeDegrees>2.4650062434375286102294921875</LongitudeDegrees>
            </Position>
            <AltitudeMeters>650.4000244140625</AltitudeMeters>
            <DistanceMeters>NAN</DistanceMeters>
          </Trackpoint>
          <Trackpoint>
            <Time>2021-04-03T15:11:06.000Z</Time>
            <Position>
              <LatitudeDegrees>42.326222844421863555908203125</LatitudeDegrees>
              <LongitudeDegrees>2.4649968557059764862060546875</LongitudeDegrees>
            </Position>
            <AltitudeMeters>650.79998779296875</AltitudeMeters>
            <DistanceMeters>NAN</DistanceMeters>
          </Trackpoint>
          <Trackpoint>
            <Time>2021-04-03T15:11:08.000Z</Time>
            <Position>
              <LatitudeDegrees>42.32622661627829074859619140625</LatitudeDegrees>
              <LongitudeDegrees>2.46498034335672855377197265625</LongitudeDegrees>
            </Position>
            <AltitudeMeters>651</AltitudeMeters>
            <DistanceMeters>NAN</DistanceMeters>
          </Trackpoint>
          <Trackpoint>
            <Time>2021-04-03T15:11:09.000Z</Time>
            <Position>
              <LatitudeDegrees>42.32623164542019367218017578125</LatitudeDegrees>
              <LongitudeDegrees>2.4649720452725887298583984375</LongitudeDegrees>
            </Position>
            <AltitudeMeters>651</AltitudeMeters>
            <DistanceMeters>NAN</DistanceMeters>
          </Trackpoint>
          <Trackpoint>
            <Time>2021-04-03T15:11:10.000Z</Time>
            <Position>
              <LatitudeDegrees>42.32623533345758914947509765625</LatitudeDegrees>
              <LongitudeDegrees>2.46496726758778095245361328125</LongitudeDegrees>
            </Position>
            <AltitudeMeters>651.20001220703125</AltitudeMeters>
            <DistanceMeters>NAN</DistanceMeters>
          </Trackpoint>
          <Trackpoint>
            <Time>2021-04-03T15:11:14.000Z</Time>
            <Position>
              <LatitudeDegrees>42.3262374289333820343017578125</LatitudeDegrees>
              <LongitudeDegrees>2.4649519287049770355224609375</LongitudeDegrees>
            </Position>
            <AltitudeMeters>651.4000244140625</AltitudeMeters>
            <DistanceMeters>NAN</DistanceMeters>
          </Trackpoint>
          <Trackpoint>
            <Time>2021-04-03T15:11:15.000Z</Time>
            <Position>
              <LatitudeDegrees>42.32623793184757232666015625</LatitudeDegrees>
              <LongitudeDegrees>2.46494111604988574981689453125</LongitudeDegrees>
            </Position>
            <AltitudeMeters>651.5999755859375</AltitudeMeters>
            <DistanceMeters>NAN</DistanceMeters>
          </Trackpoint>
          <Trackpoint>
            <Time>2021-04-03T15:11:16.000Z</Time>
            <Position>
              <LatitudeDegrees>42.32624153606593608856201171875</LatitudeDegrees>
              <LongitudeDegrees>2.46494195424020290374755859375</LongitudeDegrees>
            </Position>
            <AltitudeMeters>651.5999755859375</AltitudeMeters>
            <DistanceMeters>NAN</DistanceMeters>
          </Trackpoint>
          <Trackpoint>
            <Time>2021-04-03T15:11:19.000Z</Time>
            <Position>
              <LatitudeDegrees>42.3262531869113445281982421875</LatitudeDegrees>
              <LongitudeDegrees>2.4649411998689174652099609375</LongitudeDegrees>
            </Position>
            <AltitudeMeters>651.79998779296875</AltitudeMeters>
            <DistanceMeters>NAN</DistanceMeters>
          </Trackpoint>
          <Trackpoint>
            <Time>2021-04-03T15:11:21.000Z</Time>
            <Position>
              <LatitudeDegrees>42.32626383192837238311767578125</LatitudeDegrees>
              <LongitudeDegrees>2.4649261124432086944580078125</LongitudeDegrees>
            </Position>
            <AltitudeMeters>651.79998779296875</AltitudeMeters>
            <DistanceMeters>NAN</DistanceMeters>
          </Trackpoint>
          <Trackpoint>
            <Time>2021-04-03T15:11:24.000Z</Time>
            <Position>
              <LatitudeDegrees>42.32628277502954006195068359375</LatitudeDegrees>
              <LongitudeDegrees>2.46485746465623378753662109375</LongitudeDegrees>
            </Position>
            <AltitudeMeters>652.20001220703125</AltitudeMeters>
            <DistanceMeters>NAN</DistanceMeters>
          </Trackpoint>
          <Trackpoint>
            <Time>2021-04-03T15:11:25.000Z</Time>
            <Position>
              <LatitudeDegrees>42.32628914527595043182373046875</LatitudeDegrees>
              <LongitudeDegrees>2.46485159732401371002197265625</LongitudeDegrees>
            </Position>
            <AltitudeMeters>652.20001220703125</AltitudeMeters>
            <DistanceMeters>NAN</DistanceMeters>
          </Trackpoint>
          <Trackpoint>
            <Time>2021-04-03T15:11:29.000Z</Time>
            <Position>
              <LatitudeDegrees>42.32629559934139251708984375</LatitudeDegrees>
              <LongitudeDegrees>2.46484807692468166351318359375</LongitudeDegrees>
            </Position>
            <AltitudeMeters>652.5999755859375</AltitudeMeters>
            <DistanceMeters>NAN</DistanceMeters>
          </Trackpoint>
          <Trackpoint>
            <Time>2021-04-03T15:11:30.000Z</Time>
            <Position>
              <LatitudeDegrees>42.32629803009331226348876953125</LatitudeDegrees>
              <LongitudeDegrees>2.46484103612601757049560546875</LongitudeDegrees>
            </Position>
            <AltitudeMeters>652.79998779296875</AltitudeMeters>
            <DistanceMeters>NAN</DistanceMeters>
          </Trackpoint>
          <Trackpoint>
            <Time>2021-04-03T15:11:33.000Z</Time>
            <Position>
              <LatitudeDegrees>42.32630456797778606414794921875</LatitudeDegrees>
              <LongitudeDegrees>2.464821338653564453125</LongitudeDegrees>
            </Position>
            <AltitudeMeters>653.20001220703125</AltitudeMeters>
            <DistanceMeters>NAN</DistanceMeters>
          </Trackpoint>
          <Trackpoint>
            <Time>2021-04-03T15:11:35.000Z</Time>
            <Position>
              <LatitudeDegrees>42.3262947611510753631591796875</LatitudeDegrees>
              <LongitudeDegrees>2.4648119509220123291015625</LongitudeDegrees>
            </Position>
            <AltitudeMeters>653.20001220703125</AltitudeMeters>
            <DistanceMeters>NAN</DistanceMeters>
          </Trackpoint>
          <Trackpoint>
            <Time>2021-04-03T15:11:38.000Z</Time>
            <Position>
              <LatitudeDegrees>42.32631177641451358795166015625</LatitudeDegrees>
              <LongitudeDegrees>2.464765347540378570556640625</LongitudeDegrees>
            </Position>
            <AltitudeMeters>653.5999755859375</AltitudeMeters>
            <DistanceMeters>NAN</DistanceMeters>
          </Trackpoint>
          <Trackpoint>
            <Time>2021-04-03T15:11:40.000Z</Time>
            <Position>
              <LatitudeDegrees>42.32632300816476345062255859375</LatitudeDegrees>
              <LongitudeDegrees>2.46475202031433582305908203125</LongitudeDegrees>
            </Position>
            <AltitudeMeters>653.79998779296875</AltitudeMeters>
            <DistanceMeters>NAN</DistanceMeters>
          </Trackpoint>
          <Trackpoint>
            <Time>2021-04-03T15:11:45.000Z</Time>
            <Position>
              <LatitudeDegrees>42.32631571590900421142578125</LatitudeDegrees>
              <LongitudeDegrees>2.4647051654756069183349609375</LongitudeDegrees>
            </Position>
            <AltitudeMeters>653.5999755859375</AltitudeMeters>
            <DistanceMeters>NAN</DistanceMeters>
          </Trackpoint>
          <Trackpoint>
            <Time>2021-04-03T15:11:50.000Z</Time>
            <Position>
              <LatitudeDegrees>42.326317727565765380859375</LatitudeDegrees>
              <LongitudeDegrees>2.4647011421620845794677734375</LongitudeDegrees>
            </Position>
            <AltitudeMeters>653.5999755859375</AltitudeMeters>
            <DistanceMeters>NAN</DistanceMeters>
          </Trackpoint>
          <Trackpoint>
            <Time>2021-04-03T15:11:58.000Z</Time>
            <Position>
              <LatitudeDegrees>42.32635251246392726898193359375</LatitudeDegrees>
              <LongitudeDegrees>2.46461170725524425506591796875</LongitudeDegrees>
            </Position>
            <AltitudeMeters>654</AltitudeMeters>
            <DistanceMeters>NAN</DistanceMeters>
          </Trackpoint>
          <Trackpoint>
            <Time>2021-04-03T15:12:01.000Z</Time>
            <Position>
              <LatitudeDegrees>42.32635988853871822357177734375</LatitudeDegrees>
              <LongitudeDegrees>2.46457717381417751312255859375</LongitudeDegrees>
            </Position>
            <AltitudeMeters>654.4000244140625</AltitudeMeters>
            <DistanceMeters>NAN</DistanceMeters>
          </Trackpoint>
          <Trackpoint>
            <Time>2021-04-03T15:12:04.000Z</Time>
            <Position>
              <LatitudeDegrees>42.326338179409503936767578125</LatitudeDegrees>
              <LongitudeDegrees>2.46454708278179168701171875</LongitudeDegrees>
            </Position>
            <AltitudeMeters>654.79998779296875</AltitudeMeters>
            <DistanceMeters>NAN</DistanceMeters>
          </Trackpoint>
          <Trackpoint>
            <Time>2021-04-03T15:12:06.000Z</Time>
            <Position>
              <LatitudeDegrees>42.326326780021190643310546875</LatitudeDegrees>
              <LongitudeDegrees>2.46451481245458126068115234375</LongitudeDegrees>
            </Position>
            <AltitudeMeters>654.79998779296875</AltitudeMeters>
            <DistanceMeters>NAN</DistanceMeters>
          </Trackpoint>
          <Trackpoint>
            <Time>2021-04-03T15:12:10.000Z</Time>
            <Position>
              <LatitudeDegrees>42.326289229094982147216796875</LatitudeDegrees>
              <LongitudeDegrees>2.46448715217411518096923828125</LongitudeDegrees>
            </Position>
            <AltitudeMeters>655</AltitudeMeters>
            <DistanceMeters>NAN</DistanceMeters>
          </Trackpoint>
          <Trackpoint>
            <Time>2021-04-03T15:12:14.000Z</Time>
            <Position>
              <LatitudeDegrees>42.32627053745090961456298828125</LatitudeDegrees>
              <LongitudeDegrees>2.4644376151263713836669921875</LongitudeDegrees>
            </Position>
            <AltitudeMeters>655.4000244140625</AltitudeMeters>
            <DistanceMeters>NAN</DistanceMeters>
          </Trackpoint>
          <Trackpoint>
            <Time>2021-04-03T15:12:16.000Z</Time>
            <Position>
              <LatitudeDegrees>42.32627104036509990692138671875</LatitudeDegrees>
              <LongitudeDegrees>2.464410625398159027099609375</LongitudeDegrees>
            </Position>
            <AltitudeMeters>655.5999755859375</AltitudeMeters>
            <DistanceMeters>NAN</DistanceMeters>
          </Trackpoint>
          <Trackpoint>
            <Time>2021-04-03T15:12:18.000Z</Time>
            <Position>
              <LatitudeDegrees>42.326271124184131622314453125</LatitudeDegrees>
              <LongitudeDegrees>2.46438673697412014007568359375</LongitudeDegrees>
            </Position>
            <AltitudeMeters>655.79998779296875</AltitudeMeters>
            <DistanceMeters>NAN</DistanceMeters>
          </Trackpoint>
          <Trackpoint>
            <Time>2021-04-03T15:12:19.000Z</Time>
            <Position>
              <LatitudeDegrees>42.3262681066989898681640625</LatitudeDegrees>
              <LongitudeDegrees>2.46437282301485538482666015625</LongitudeDegrees>
            </Position>
            <AltitudeMeters>655.79998779296875</AltitudeMeters>
            <DistanceMeters>NAN</DistanceMeters>
          </Trackpoint>
          <Trackpoint>
            <Time>2021-04-03T15:12:22.000Z</Time>
            <Position>
              <LatitudeDegrees>42.326261065900325775146484375</LatitudeDegrees>
              <LongitudeDegrees>2.464338205754756927490234375</LongitudeDegrees>
            </Position>
            <AltitudeMeters>656.20001220703125</AltitudeMeters>
            <DistanceMeters>NAN</DistanceMeters>
          </Trackpoint>
          <Trackpoint>
            <Time>2021-04-03T15:12:23.000Z</Time>
            <Position>
              <LatitudeDegrees>42.32626098208129405975341796875</LatitudeDegrees>
              <LongitudeDegrees>2.46433191932737827301025390625</LongitudeDegrees>
            </Position>
            <AltitudeMeters>656.20001220703125</AltitudeMeters>
            <DistanceMeters>NAN</DistanceMeters>
          </Trackpoint>
          <Trackpoint>
            <Time>2021-04-03T15:12:29.000Z</Time>
            <Position>
              <LatitudeDegrees>42.326244302093982696533203125</LatitudeDegrees>
              <LongitudeDegrees>2.46429168619215488433837890625</LongitudeDegrees>
            </Position>
            <AltitudeMeters>657</AltitudeMeters>
            <DistanceMeters>NAN</DistanceMeters>
          </Trackpoint>
          <Trackpoint>
            <Time>2021-04-03T15:12:30.000Z</Time>
            <Position>
              <LatitudeDegrees>42.32623985968530178070068359375</LatitudeDegrees>
              <LongitudeDegrees>2.46428682468831539154052734375</LongitudeDegrees>
            </Position>
            <AltitudeMeters>657.20001220703125</AltitudeMeters>
            <DistanceMeters>NAN</DistanceMeters>
          </Trackpoint>
          <Trackpoint>
            <Time>2021-04-03T15:12:38.000Z</Time>
            <Position>
              <LatitudeDegrees>42.32620784081518650054931640625</LatitudeDegrees>
              <LongitudeDegrees>2.46423888020217418670654296875</LongitudeDegrees>
            </Position>
            <AltitudeMeters>657.79998779296875</AltitudeMeters>
            <DistanceMeters>NAN</DistanceMeters>
          </Trackpoint>
          <Trackpoint>
            <Time>2021-04-03T15:12:40.000Z</Time>
            <Position>
              <LatitudeDegrees>42.32620314694941043853759765625</LatitudeDegrees>
              <LongitudeDegrees>2.46421507559716701507568359375</LongitudeDegrees>
            </Position>
            <AltitudeMeters>658</AltitudeMeters>
            <DistanceMeters>NAN</DistanceMeters>
          </Trackpoint>
          <Trackpoint>
            <Time>2021-04-03T15:12:47.000Z</Time>
            <Position>
              <LatitudeDegrees>42.326183617115020751953125</LatitudeDegrees>
              <LongitudeDegrees>2.46411667205393314361572265625</LongitudeDegrees>
            </Position>
            <AltitudeMeters>658</AltitudeMeters>
            <DistanceMeters>NAN</DistanceMeters>
          </Trackpoint>
          <Trackpoint>
            <Time>2021-04-03T15:12:50.000Z</Time>
            <Position>
              <LatitudeDegrees>42.326172553002834320068359375</LatitudeDegrees>
              <LongitudeDegrees>2.46407140977680683135986328125</LongitudeDegrees>
            </Position>
            <AltitudeMeters>658</AltitudeMeters>
            <DistanceMeters>NAN</DistanceMeters>
          </Trackpoint>
          <Trackpoint>
            <Time>2021-04-03T15:12:53.000Z</Time>
            <Position>
              <LatitudeDegrees>42.32616995461285114288330078125</LatitudeDegrees>
              <LongitudeDegrees>2.46404073201119899749755859375</LongitudeDegrees>
            </Position>
            <AltitudeMeters>657.79998779296875</AltitudeMeters>
            <DistanceMeters>NAN</DistanceMeters>
          </Trackpoint>
          <Trackpoint>
            <Time>2021-04-03T15:13:00.000Z</Time>
            <Position>
              <LatitudeDegrees>42.32615872286260128021240234375</LatitudeDegrees>
              <LongitudeDegrees>2.46398113667964935302734375</LongitudeDegrees>
            </Position>
            <AltitudeMeters>658</AltitudeMeters>
            <DistanceMeters>NAN</DistanceMeters>
          </Trackpoint>
          <Trackpoint>
            <Time>2021-04-03T15:13:01.000Z</Time>
            <Position>
              <LatitudeDegrees>42.32615771703422069549560546875</LatitudeDegrees>
              <LongitudeDegrees>2.46398113667964935302734375</LongitudeDegrees>
            </Position>
            <AltitudeMeters>658</AltitudeMeters>
            <DistanceMeters>NAN</DistanceMeters>
          </Trackpoint>
          <Trackpoint>
            <Time>2021-04-03T15:13:06.000Z</Time>
            <Position>
              <LatitudeDegrees>42.32615419663488864898681640625</LatitudeDegrees>
              <LongitudeDegrees>2.46397183276712894439697265625</LongitudeDegrees>
            </Position>
            <AltitudeMeters>658.4000244140625</AltitudeMeters>
            <DistanceMeters>NAN</DistanceMeters>
          </Trackpoint>
          <Trackpoint>
            <Time>2021-04-03T15:13:11.000Z</Time>
            <Position>
              <LatitudeDegrees>42.3261661827564239501953125</LatitudeDegrees>
              <LongitudeDegrees>2.46388114057481288909912109375</LongitudeDegrees>
            </Position>
            <AltitudeMeters>658.4000244140625</AltitudeMeters>
            <DistanceMeters>NAN</DistanceMeters>
          </Trackpoint>
          <Trackpoint>
            <Time>2021-04-03T15:13:13.000Z</Time>
            <Position>
              <LatitudeDegrees>42.32615612447261810302734375</LatitudeDegrees>
              <LongitudeDegrees>2.46386580169200897216796875</LongitudeDegrees>
            </Position>
            <AltitudeMeters>658.5999755859375</AltitudeMeters>
            <DistanceMeters>NAN</DistanceMeters>
          </Trackpoint>
          <Trackpoint>
            <Time>2021-04-03T15:13:16.000Z</Time>
            <Position>
              <LatitudeDegrees>42.326138019561767578125</LatitudeDegrees>
              <LongitudeDegrees>2.463867478072643280029296875</LongitudeDegrees>
            </Position>
            <AltitudeMeters>659</AltitudeMeters>
            <DistanceMeters>NAN</DistanceMeters>
          </Trackpoint>
          <Trackpoint>
            <Time>2021-04-03T15:13:21.000Z</Time>
            <Position>
              <LatitudeDegrees>42.32612284831702709197998046875</LatitudeDegrees>
              <LongitudeDegrees>2.46385909616947174072265625</LongitudeDegrees>
            </Position>
            <AltitudeMeters>659.20001220703125</AltitudeMeters>
            <DistanceMeters>NAN</DistanceMeters>
          </Trackpoint>
          <Trackpoint>
            <Time>2021-04-03T15:13:28.000Z</Time>
            <Position>
              <LatitudeDegrees>42.32612100429832935333251953125</LatitudeDegrees>
              <LongitudeDegrees>2.46384836733341217041015625</LongitudeDegrees>
            </Position>
            <AltitudeMeters>659.5999755859375</AltitudeMeters>
            <DistanceMeters>NAN</DistanceMeters>
          </Trackpoint>
          <Trackpoint>
            <Time>2021-04-03T15:13:35.000Z</Time>
            <Position>
              <LatitudeDegrees>42.32613005675375461578369140625</LatitudeDegrees>
              <LongitudeDegrees>2.46376295574009418487548828125</LongitudeDegrees>
            </Position>
            <AltitudeMeters>659.79998779296875</AltitudeMeters>
            <DistanceMeters>NAN</DistanceMeters>
          </Trackpoint>
          <Trackpoint>
            <Time>2021-04-03T15:13:37.000Z</Time>
            <Position>
              <LatitudeDegrees>42.32611999846994876861572265625</LatitudeDegrees>
              <LongitudeDegrees>2.463751472532749176025390625</LongitudeDegrees>
            </Position>
            <AltitudeMeters>659.79998779296875</AltitudeMeters>
            <DistanceMeters>NAN</DistanceMeters>
          </Trackpoint>
          <Trackpoint>
            <Time>2021-04-03T15:13:41.000Z</Time>
            <Position>
              <LatitudeDegrees>42.32610876671969890594482421875</LatitudeDegrees>
              <LongitudeDegrees>2.46372775174677371978759765625</LongitudeDegrees>
            </Position>
            <AltitudeMeters>660.20001220703125</AltitudeMeters>
            <DistanceMeters>NAN</DistanceMeters>
          </Trackpoint>
          <Trackpoint>
            <Time>2021-04-03T15:13:42.000Z</Time>
            <Position>
              <LatitudeDegrees>42.32610289938747882843017578125</LatitudeDegrees>
              <LongitudeDegrees>2.463723979890346527099609375</LongitudeDegrees>
            </Position>
            <AltitudeMeters>660.4000244140625</AltitudeMeters>
            <DistanceMeters>NAN</DistanceMeters>
          </Trackpoint>
          <Trackpoint>
            <Time>2021-04-03T15:13:44.000Z</Time>
            <Position>
              <LatitudeDegrees>42.32609149999916553497314453125</LatitudeDegrees>
              <LongitudeDegrees>2.46372439898550510406494140625</LongitudeDegrees>
            </Position>
            <AltitudeMeters>660.5999755859375</AltitudeMeters>
            <DistanceMeters>NAN</DistanceMeters>
          </Trackpoint>
          <Trackpoint>
            <Time>2021-04-03T15:13:46.000Z</Time>
            <Position>
              <LatitudeDegrees>42.32608194462954998016357421875</LatitudeDegrees>
              <LongitudeDegrees>2.4637244828045368194580078125</LongitudeDegrees>
            </Position>
            <AltitudeMeters>660.79998779296875</AltitudeMeters>
            <DistanceMeters>NAN</DistanceMeters>
          </Trackpoint>
          <Trackpoint>
            <Time>2021-04-03T15:13:47.000Z</Time>
            <Position>
              <LatitudeDegrees>42.32607901096343994140625</LatitudeDegrees>
              <LongitudeDegrees>2.46372255496680736541748046875</LongitudeDegrees>
            </Position>
            <AltitudeMeters>661</AltitudeMeters>
            <DistanceMeters>NAN</DistanceMeters>
          </Trackpoint>
          <Trackpoint>
            <Time>2021-04-03T15:13:48.000Z</Time>
            <Position>
              <LatitudeDegrees>42.3260723054409027099609375</LatitudeDegrees>
              <LongitudeDegrees>2.46372305788099765777587890625</LongitudeDegrees>
            </Position>
            <AltitudeMeters>661</AltitudeMeters>
            <DistanceMeters>NAN</DistanceMeters>
          </Trackpoint>
          <Trackpoint>
            <Time>2021-04-03T15:13:49.000Z</Time>
            <Position>
              <LatitudeDegrees>42.3260661028325557708740234375</LatitudeDegrees>
              <LongitudeDegrees>2.46372473426163196563720703125</LongitudeDegrees>
            </Position>
            <AltitudeMeters>661.20001220703125</AltitudeMeters>
            <DistanceMeters>NAN</DistanceMeters>
          </Trackpoint>
          <Trackpoint>
            <Time>2021-04-03T15:13:50.000Z</Time>
            <Position>
              <LatitudeDegrees>42.32606015168130397796630859375</LatitudeDegrees>
              <LongitudeDegrees>2.46372708119451999664306640625</LongitudeDegrees>
            </Position>
            <AltitudeMeters>661.20001220703125</AltitudeMeters>
            <DistanceMeters>NAN</DistanceMeters>
          </Trackpoint>
          <Trackpoint>
            <Time>2021-04-03T15:13:55.000Z</Time>
            <Position>
              <LatitudeDegrees>42.32603584416210651397705078125</LatitudeDegrees>
              <LongitudeDegrees>2.463721968233585357666015625</LongitudeDegrees>
            </Position>
            <AltitudeMeters>662.20001220703125</AltitudeMeters>
            <DistanceMeters>NAN</DistanceMeters>
          </Trackpoint>
          <Trackpoint>
            <Time>2021-04-03T15:13:59.000Z</Time>
            <Position>
              <LatitudeDegrees>42.326021678745746612548828125</LatitudeDegrees>
              <LongitudeDegrees>2.4636961519718170166015625</LongitudeDegrees>
            </Position>
            <AltitudeMeters>663</AltitudeMeters>
            <DistanceMeters>NAN</DistanceMeters>
          </Trackpoint>
          <Trackpoint>
            <Time>2021-04-03T15:14:01.000Z</Time>
            <Position>
              <LatitudeDegrees>42.32601036317646503448486328125</LatitudeDegrees>
              <LongitudeDegrees>2.4636812321841716766357421875</LongitudeDegrees>
            </Position>
            <AltitudeMeters>663.20001220703125</AltitudeMeters>
            <DistanceMeters>NAN</DistanceMeters>
          </Trackpoint>
          <Trackpoint>
            <Time>2021-04-03T15:14:05.000Z</Time>
            <Position>
              <LatitudeDegrees>42.32599728740751743316650390625</LatitudeDegrees>
              <LongitudeDegrees>2.46364829130470752716064453125</LongitudeDegrees>
            </Position>
            <AltitudeMeters>663.4000244140625</AltitudeMeters>
            <DistanceMeters>NAN</DistanceMeters>
          </Trackpoint>
          <Trackpoint>
            <Time>2021-04-03T15:14:09.000Z</Time>
            <Position>
              <LatitudeDegrees>42.32598119415342807769775390625</LatitudeDegrees>
              <LongitudeDegrees>2.46364711783826351165771484375</LongitudeDegrees>
            </Position>
            <AltitudeMeters>663.5999755859375</AltitudeMeters>
            <DistanceMeters>NAN</DistanceMeters>
          </Trackpoint>
          <Trackpoint>
            <Time>2021-04-03T15:14:11.000Z</Time>
            <Position>
              <LatitudeDegrees>42.3259757459163665771484375</LatitudeDegrees>
              <LongitudeDegrees>2.463648878037929534912109375</LongitudeDegrees>
            </Position>
            <AltitudeMeters>664</AltitudeMeters>
            <DistanceMeters>NAN</DistanceMeters>
          </Trackpoint>
          <Trackpoint>
            <Time>2021-04-03T15:14:13.000Z</Time>
            <Position>
              <LatitudeDegrees>42.32597297988831996917724609375</LatitudeDegrees>
              <LongitudeDegrees>2.4636440165340900421142578125</LongitudeDegrees>
            </Position>
            <AltitudeMeters>664.4000244140625</AltitudeMeters>
            <DistanceMeters>NAN</DistanceMeters>
          </Trackpoint>
          <Trackpoint>
            <Time>2021-04-03T15:14:17.000Z</Time>
            <Position>
              <LatitudeDegrees>42.3259343393146991729736328125</LatitudeDegrees>
              <LongitudeDegrees>2.46363588608801364898681640625</LongitudeDegrees>
            </Position>
            <AltitudeMeters>664.79998779296875</AltitudeMeters>
            <DistanceMeters>NAN</DistanceMeters>
          </Trackpoint>
          <Trackpoint>
            <Time>2021-04-03T15:14:19.000Z</Time>
            <Position>
              <LatitudeDegrees>42.3259165696799755096435546875</LatitudeDegrees>
              <LongitudeDegrees>2.46362398378551006317138671875</LongitudeDegrees>
            </Position>
            <AltitudeMeters>665</AltitudeMeters>
            <DistanceMeters>NAN</DistanceMeters>
          </Trackpoint>
          <Trackpoint>
            <Time>2021-04-03T15:14:21.000Z</Time>
            <Position>
              <LatitudeDegrees>42.32590475119650363922119140625</LatitudeDegrees>
              <LongitudeDegrees>2.46361006982624530792236328125</LongitudeDegrees>
            </Position>
            <AltitudeMeters>665.4000244140625</AltitudeMeters>
            <DistanceMeters>NAN</DistanceMeters>
          </Trackpoint>
          <Trackpoint>
            <Time>2021-04-03T15:14:25.000Z</Time>
            <Position>
              <LatitudeDegrees>42.3258984647691249847412109375</LatitudeDegrees>
              <LongitudeDegrees>2.4635786376893520355224609375</LongitudeDegrees>
            </Position>
            <AltitudeMeters>665.79998779296875</AltitudeMeters>
            <DistanceMeters>NAN</DistanceMeters>
          </Trackpoint>
          <Trackpoint>
            <Time>2021-04-03T15:14:29.000Z</Time>
            <Position>
              <LatitudeDegrees>42.3258890770375728607177734375</LatitudeDegrees>
              <LongitudeDegrees>2.46354938484728336334228515625</LongitudeDegrees>
            </Position>
            <AltitudeMeters>666.4000244140625</AltitudeMeters>
            <DistanceMeters>NAN</DistanceMeters>
          </Trackpoint>
          <Trackpoint>
            <Time>2021-04-03T15:14:31.000Z</Time>
            <Position>
              <LatitudeDegrees>42.32588388025760650634765625</LatitudeDegrees>
              <LongitudeDegrees>2.4635280109941959381103515625</LongitudeDegrees>
            </Position>
            <AltitudeMeters>666.79998779296875</AltitudeMeters>
            <DistanceMeters>NAN</DistanceMeters>
          </Trackpoint>
          <Trackpoint>
            <Time>2021-04-03T15:14:35.000Z</Time>
            <Position>
              <LatitudeDegrees>42.3258857242763042449951171875</LatitudeDegrees>
              <LongitudeDegrees>2.46348400600254535675048828125</LongitudeDegrees>
            </Position>
            <AltitudeMeters>667</AltitudeMeters>
            <DistanceMeters>NAN</DistanceMeters>
          </Trackpoint>
          <Trackpoint>
            <Time>2021-04-03T15:14:39.000Z</Time>
            <Position>
              <LatitudeDegrees>42.32589502818882465362548828125</LatitudeDegrees>
              <LongitudeDegrees>2.46344326995313167572021484375</LongitudeDegrees>
            </Position>
            <AltitudeMeters>667.20001220703125</AltitudeMeters>
            <DistanceMeters>NAN</DistanceMeters>
          </Trackpoint>
          <Trackpoint>
            <Time>2021-04-03T15:14:41.000Z</Time>
            <Position>
              <LatitudeDegrees>42.3259078525006771087646484375</LatitudeDegrees>
              <LongitudeDegrees>2.4634291045367717742919921875</LongitudeDegrees>
            </Position>
            <AltitudeMeters>667.4000244140625</AltitudeMeters>
            <DistanceMeters>NAN</DistanceMeters>
          </Trackpoint>
          <Trackpoint>
            <Time>2021-04-03T15:14:42.000Z</Time>
            <Position>
              <LatitudeDegrees>42.32591900043189525604248046875</LatitudeDegrees>
              <LongitudeDegrees>2.463424243032932281494140625</LongitudeDegrees>
            </Position>
            <AltitudeMeters>667.5999755859375</AltitudeMeters>
            <DistanceMeters>NAN</DistanceMeters>
          </Trackpoint>
          <Trackpoint>
            <Time>2021-04-03T15:14:43.000Z</Time>
            <Position>
              <LatitudeDegrees>42.32592855580151081085205078125</LatitudeDegrees>
              <LongitudeDegrees>2.4634173698723316192626953125</LongitudeDegrees>
            </Position>
            <AltitudeMeters>667.79998779296875</AltitudeMeters>
            <DistanceMeters>NAN</DistanceMeters>
          </Trackpoint>
          <Trackpoint>
            <Time>2021-04-03T15:14:45.000Z</Time>
            <Position>
              <LatitudeDegrees>42.32593710534274578094482421875</LatitudeDegrees>
              <LongitudeDegrees>2.4634002707898616790771484375</LongitudeDegrees>
            </Position>
            <AltitudeMeters>668.20001220703125</AltitudeMeters>
            <DistanceMeters>NAN</DistanceMeters>
          </Trackpoint>
          <Trackpoint>
            <Time>2021-04-03T15:14:49.000Z</Time>
            <Position>
              <LatitudeDegrees>42.3259447328746318817138671875</LatitudeDegrees>
              <LongitudeDegrees>2.46336095966398715972900390625</LongitudeDegrees>
            </Position>
            <AltitudeMeters>668.4000244140625</AltitudeMeters>
            <DistanceMeters>NAN</DistanceMeters>
          </Trackpoint>
          <Trackpoint>
            <Time>2021-04-03T15:14:51.000Z</Time>
            <Position>
              <LatitudeDegrees>42.3259440623223781585693359375</LatitudeDegrees>
              <LongitudeDegrees>2.46333380229771137237548828125</LongitudeDegrees>
            </Position>
            <AltitudeMeters>668.4000244140625</AltitudeMeters>
            <DistanceMeters>NAN</DistanceMeters>
          </Trackpoint>
          <Trackpoint>
            <Time>2021-04-03T15:14:54.000Z</Time>
            <Position>
              <LatitudeDegrees>42.3259390331804752349853515625</LatitudeDegrees>
              <LongitudeDegrees>2.46329792775213718414306640625</LongitudeDegrees>
            </Position>
            <AltitudeMeters>669</AltitudeMeters>
            <DistanceMeters>NAN</DistanceMeters>
          </Trackpoint>
          <Trackpoint>
            <Time>2021-04-03T15:14:56.000Z</Time>
            <Position>
              <LatitudeDegrees>42.3259390331804752349853515625</LatitudeDegrees>
              <LongitudeDegrees>2.46329491026699542999267578125</LongitudeDegrees>
            </Position>
            <AltitudeMeters>669.20001220703125</AltitudeMeters>
            <DistanceMeters>NAN</DistanceMeters>
          </Trackpoint>
          <Trackpoint>
            <Time>2021-04-03T15:14:58.000Z</Time>
            <Position>
              <LatitudeDegrees>42.32593392021954059600830078125</LatitudeDegrees>
              <LongitudeDegrees>2.4632634781301021575927734375</LongitudeDegrees>
            </Position>
            <AltitudeMeters>669.4000244140625</AltitudeMeters>
            <DistanceMeters>NAN</DistanceMeters>
          </Trackpoint>
          <Trackpoint>
            <Time>2021-04-03T15:15:02.000Z</Time>
            <Position>
              <LatitudeDegrees>42.32593492604792118072509765625</LatitudeDegrees>
              <LongitudeDegrees>2.46322969906032085418701171875</LongitudeDegrees>
            </Position>
            <AltitudeMeters>670</AltitudeMeters>
            <DistanceMeters>NAN</DistanceMeters>
          </Trackpoint>
          <Trackpoint>
            <Time>2021-04-03T15:15:03.000Z</Time>
            <Position>
              <LatitudeDegrees>42.3259340040385723114013671875</LatitudeDegrees>
              <LongitudeDegrees>2.4632168747484683990478515625</LongitudeDegrees>
            </Position>
            <AltitudeMeters>670</AltitudeMeters>
            <DistanceMeters>NAN</DistanceMeters>
          </Trackpoint>
          <Trackpoint>
            <Time>2021-04-03T15:15:09.000Z</Time>
            <Position>
              <LatitudeDegrees>42.3259564675390720367431640625</LatitudeDegrees>
              <LongitudeDegrees>2.46317379176616668701171875</LongitudeDegrees>
            </Position>
            <AltitudeMeters>670.79998779296875</AltitudeMeters>
            <DistanceMeters>NAN</DistanceMeters>
          </Trackpoint>
          <Trackpoint>
            <Time>2021-04-03T15:15:11.000Z</Time>
            <Position>
              <LatitudeDegrees>42.3259547911584377288818359375</LatitudeDegrees>
              <LongitudeDegrees>2.46314906515181064605712890625</LongitudeDegrees>
            </Position>
            <AltitudeMeters>671</AltitudeMeters>
            <DistanceMeters>NAN</DistanceMeters>
          </Trackpoint>
          <Trackpoint>
            <Time>2021-04-03T15:15:17.000Z</Time>
            <Position>
              <LatitudeDegrees>42.32597239315509796142578125</LatitudeDegrees>
              <LongitudeDegrees>2.463096342980861663818359375</LongitudeDegrees>
            </Position>
            <AltitudeMeters>671.79998779296875</AltitudeMeters>
            <DistanceMeters>NAN</DistanceMeters>
          </Trackpoint>
          <Trackpoint>
            <Time>2021-04-03T15:15:18.000Z</Time>
            <Position>
              <LatitudeDegrees>42.3259739018976688385009765625</LatitudeDegrees>
              <LongitudeDegrees>2.46309089474380016326904296875</LongitudeDegrees>
            </Position>
            <AltitudeMeters>672</AltitudeMeters>
            <DistanceMeters>NAN</DistanceMeters>
          </Trackpoint>
          <Trackpoint>
            <Time>2021-04-03T15:15:22.000Z</Time>
            <Position>
              <LatitudeDegrees>42.32598504982888698577880859375</LatitudeDegrees>
              <LongitudeDegrees>2.46307362802326679229736328125</LongitudeDegrees>
            </Position>
            <AltitudeMeters>672.5999755859375</AltitudeMeters>
            <DistanceMeters>NAN</DistanceMeters>
          </Trackpoint>
          <Trackpoint>
            <Time>2021-04-03T15:15:23.000Z</Time>
            <Position>
              <LatitudeDegrees>42.3259913362562656402587890625</LatitudeDegrees>
              <LongitudeDegrees>2.463068179786205291748046875</LongitudeDegrees>
            </Position>
            <AltitudeMeters>672.5999755859375</AltitudeMeters>
            <DistanceMeters>NAN</DistanceMeters>
          </Trackpoint>
          <Trackpoint>
            <Time>2021-04-03T15:15:29.000Z</Time>
            <Position>
              <LatitudeDegrees>42.3260251991450786590576171875</LatitudeDegrees>
              <LongitudeDegrees>2.46303758583962917327880859375</LongitudeDegrees>
            </Position>
            <AltitudeMeters>673.20001220703125</AltitudeMeters>
            <DistanceMeters>NAN</DistanceMeters>
          </Trackpoint>
          <Trackpoint>
            <Time>2021-04-03T15:15:30.000Z</Time>
            <Position>
              <LatitudeDegrees>42.326029054820537567138671875</LatitudeDegrees>
              <LongitudeDegrees>2.463031969964504241943359375</LongitudeDegrees>
            </Position>
            <AltitudeMeters>673.20001220703125</AltitudeMeters>
            <DistanceMeters>NAN</DistanceMeters>
          </Trackpoint>
          <Trackpoint>
            <Time>2021-04-03T15:15:33.000Z</Time>
            <Position>
              <LatitudeDegrees>42.3260409571230411529541015625</LatitudeDegrees>
              <LongitudeDegrees>2.4630100093781948089599609375</LongitudeDegrees>
            </Position>
            <AltitudeMeters>673.4000244140625</AltitudeMeters>
            <DistanceMeters>NAN</DistanceMeters>
          </Trackpoint>
          <Trackpoint>
            <Time>2021-04-03T15:15:40.000Z</Time>
            <Position>
              <LatitudeDegrees>42.3260795138776302337646484375</LatitudeDegrees>
              <LongitudeDegrees>2.4629546888172626495361328125</LongitudeDegrees>
            </Position>
            <AltitudeMeters>674</AltitudeMeters>
            <DistanceMeters>NAN</DistanceMeters>
          </Trackpoint>
          <Trackpoint>
            <Time>2021-04-03T15:15:45.000Z</Time>
            <Position>
              <LatitudeDegrees>42.3261117003858089447021484375</LatitudeDegrees>
              <LongitudeDegrees>2.46291286312043666839599609375</LongitudeDegrees>
            </Position>
            <AltitudeMeters>674.20001220703125</AltitudeMeters>
            <DistanceMeters>NAN</DistanceMeters>
          </Trackpoint>
          <Trackpoint>
            <Time>2021-04-03T15:15:50.000Z</Time>
            <Position>
              <LatitudeDegrees>42.32613944448530673980712890625</LatitudeDegrees>
              <LongitudeDegrees>2.4628826044499874114990234375</LongitudeDegrees>
            </Position>
            <AltitudeMeters>674.79998779296875</AltitudeMeters>
            <DistanceMeters>NAN</DistanceMeters>
          </Trackpoint>
          <Trackpoint>
            <Time>2021-04-03T15:15:57.000Z</Time>
            <Position>
              <LatitudeDegrees>42.32617816887795925140380859375</LatitudeDegrees>
              <LongitudeDegrees>2.46283692307770252227783203125</LongitudeDegrees>
            </Position>
            <AltitudeMeters>675.20001220703125</AltitudeMeters>
            <DistanceMeters>NAN</DistanceMeters>
          </Trackpoint>
          <Trackpoint>
            <Time>2021-04-03T15:15:59.000Z</Time>
            <Position>
              <LatitudeDegrees>42.3261901549994945526123046875</LatitudeDegrees>
              <LongitudeDegrees>2.462826780974864959716796875</LongitudeDegrees>
            </Position>
            <AltitudeMeters>675.4000244140625</AltitudeMeters>
            <DistanceMeters>NAN</DistanceMeters>
          </Trackpoint>
          <Trackpoint>
            <Time>2021-04-03T15:16:04.000Z</Time>
            <Position>
              <LatitudeDegrees>42.326214127242565155029296875</LatitudeDegrees>
              <LongitudeDegrees>2.46279467828571796417236328125</LongitudeDegrees>
            </Position>
            <AltitudeMeters>676.4000244140625</AltitudeMeters>
            <DistanceMeters>NAN</DistanceMeters>
          </Trackpoint>
          <Trackpoint>
            <Time>2021-04-03T15:16:07.000Z</Time>
            <Position>
              <LatitudeDegrees>42.32621915638446807861328125</LatitudeDegrees>
              <LongitudeDegrees>2.46278495527803897857666015625</LongitudeDegrees>
            </Position>
            <AltitudeMeters>676.5999755859375</AltitudeMeters>
            <DistanceMeters>NAN</DistanceMeters>
          </Trackpoint>
          <Trackpoint>
            <Time>2021-04-03T15:16:10.000Z</Time>
            <Position>
              <LatitudeDegrees>42.32623734511435031890869140625</LatitudeDegrees>
              <LongitudeDegrees>2.4627699516713619232177734375</LongitudeDegrees>
            </Position>
            <AltitudeMeters>677</AltitudeMeters>
            <DistanceMeters>NAN</DistanceMeters>
          </Trackpoint>
          <Trackpoint>
            <Time>2021-04-03T15:16:13.000Z</Time>
            <Position>
              <LatitudeDegrees>42.3262521810829639434814453125</LatitudeDegrees>
              <LongitudeDegrees>2.46275813318789005279541015625</LongitudeDegrees>
            </Position>
            <AltitudeMeters>677.4000244140625</AltitudeMeters>
            <DistanceMeters>NAN</DistanceMeters>
          </Trackpoint>
          <Trackpoint>
            <Time>2021-04-03T15:16:17.000Z</Time>
            <Position>
              <LatitudeDegrees>42.3262739740312099456787109375</LatitudeDegrees>
              <LongitudeDegrees>2.46273298747837543487548828125</LongitudeDegrees>
            </Position>
            <AltitudeMeters>677.79998779296875</AltitudeMeters>
            <DistanceMeters>NAN</DistanceMeters>
          </Trackpoint>
          <Trackpoint>
            <Time>2021-04-03T15:16:25.000Z</Time>
            <Position>
              <LatitudeDegrees>42.326327450573444366455078125</LatitudeDegrees>
              <LongitudeDegrees>2.46265972964465618133544921875</LongitudeDegrees>
            </Position>
            <AltitudeMeters>678.4000244140625</AltitudeMeters>
            <DistanceMeters>NAN</DistanceMeters>
          </Trackpoint>
          <Trackpoint>
            <Time>2021-04-03T15:16:29.000Z</Time>
            <Position>
              <LatitudeDegrees>42.32635854743421077728271484375</LatitudeDegrees>
              <LongitudeDegrees>2.46262486092746257781982421875</LongitudeDegrees>
            </Position>
            <AltitudeMeters>678.4000244140625</AltitudeMeters>
            <DistanceMeters>NAN</DistanceMeters>
          </Trackpoint>
          <Trackpoint>
            <Time>2021-04-03T15:16:34.000Z</Time>
            <Position>
              <LatitudeDegrees>42.32639693655073642730712890625</LatitudeDegrees>
              <LongitudeDegrees>2.46259954757988452911376953125</LongitudeDegrees>
            </Position>
            <AltitudeMeters>678.79998779296875</AltitudeMeters>
            <DistanceMeters>NAN</DistanceMeters>
          </Trackpoint>
          <Trackpoint>
            <Time>2021-04-03T15:16:42.000Z</Time>
            <Position>
              <LatitudeDegrees>42.32646432705223560333251953125</LatitudeDegrees>
              <LongitudeDegrees>2.462630979716777801513671875</LongitudeDegrees>
            </Position>
            <AltitudeMeters>679.5999755859375</AltitudeMeters>
            <DistanceMeters>NAN</DistanceMeters>
          </Trackpoint>
          <Trackpoint>
            <Time>2021-04-03T15:16:43.000Z</Time>
            <Position>
              <LatitudeDegrees>42.32647069729864597320556640625</LatitudeDegrees>
              <LongitudeDegrees>2.46263374574482440948486328125</LongitudeDegrees>
            </Position>
            <AltitudeMeters>679.5999755859375</AltitudeMeters>
            <DistanceMeters>NAN</DistanceMeters>
          </Trackpoint>
          <Trackpoint>
            <Time>2021-04-03T15:16:52.000Z</Time>
            <Position>
              <LatitudeDegrees>42.32654194347560405731201171875</LatitudeDegrees>
              <LongitudeDegrees>2.4626257829368114471435546875</LongitudeDegrees>
            </Position>
            <AltitudeMeters>679.5999755859375</AltitudeMeters>
            <DistanceMeters>NAN</DistanceMeters>
          </Trackpoint>
          <Trackpoint>
            <Time>2021-04-03T15:16:59.000Z</Time>
            <Position>
              <LatitudeDegrees>42.3265985213220119476318359375</LatitudeDegrees>
              <LongitudeDegrees>2.46262603439390659332275390625</LongitudeDegrees>
            </Position>
            <AltitudeMeters>679.4000244140625</AltitudeMeters>
            <DistanceMeters>NAN</DistanceMeters>
          </Trackpoint>
          <Trackpoint>
            <Time>2021-04-03T15:17:00.000Z</Time>
            <Position>
              <LatitudeDegrees>42.32660514302551746368408203125</LatitudeDegrees>
              <LongitudeDegrees>2.4626160599291324615478515625</LongitudeDegrees>
            </Position>
            <AltitudeMeters>679.4000244140625</AltitudeMeters>
            <DistanceMeters>NAN</DistanceMeters>
          </Trackpoint>
          <Trackpoint>
            <Time>2021-04-03T15:17:04.000Z</Time>
            <Position>
              <LatitudeDegrees>42.32663330622017383575439453125</LatitudeDegrees>
              <LongitudeDegrees>2.46261010877788066864013671875</LongitudeDegrees>
            </Position>
            <AltitudeMeters>679.20001220703125</AltitudeMeters>
            <DistanceMeters>NAN</DistanceMeters>
          </Trackpoint>
          <Trackpoint>
            <Time>2021-04-03T15:17:07.000Z</Time>
            <Position>
              <LatitudeDegrees>42.32664965093135833740234375</LatitudeDegrees>
              <LongitudeDegrees>2.46258345432579517364501953125</LongitudeDegrees>
            </Position>
            <AltitudeMeters>678.79998779296875</AltitudeMeters>
            <DistanceMeters>NAN</DistanceMeters>
          </Trackpoint>
          <Trackpoint>
            <Time>2021-04-03T15:17:08.000Z</Time>
            <Position>
              <LatitudeDegrees>42.32664872892200946807861328125</LatitudeDegrees>
              <LongitudeDegrees>2.46258295141160488128662109375</LongitudeDegrees>
            </Position>
            <AltitudeMeters>678.5999755859375</AltitudeMeters>
            <DistanceMeters>NAN</DistanceMeters>
          </Trackpoint>
          <Trackpoint>
            <Time>2021-04-03T15:17:12.000Z</Time>
            <Position>
              <LatitudeDegrees>42.3266494832932949066162109375</LatitudeDegrees>
              <LongitudeDegrees>2.46257842518389225006103515625</LongitudeDegrees>
            </Position>
            <AltitudeMeters>678.20001220703125</AltitudeMeters>
            <DistanceMeters>NAN</DistanceMeters>
          </Trackpoint>
          <Trackpoint>
            <Time>2021-04-03T15:17:13.000Z</Time>
            <Position>
              <LatitudeDegrees>42.32664830982685089111328125</LatitudeDegrees>
              <LongitudeDegrees>2.4625650979578495025634765625</LongitudeDegrees>
            </Position>
            <AltitudeMeters>678</AltitudeMeters>
            <DistanceMeters>NAN</DistanceMeters>
          </Trackpoint>
          <Trackpoint>
            <Time>2021-04-03T15:17:18.000Z</Time>
            <Position>
              <LatitudeDegrees>42.326684854924678802490234375</LatitudeDegrees>
              <LongitudeDegrees>2.46251857839524745941162109375</LongitudeDegrees>
            </Position>
            <AltitudeMeters>677.4000244140625</AltitudeMeters>
            <DistanceMeters>NAN</DistanceMeters>
          </Trackpoint>
          <Trackpoint>
            <Time>2021-04-03T15:17:20.000Z</Time>
            <Position>
              <LatitudeDegrees>42.32669969089329242706298828125</LatitudeDegrees>
              <LongitudeDegrees>2.4624983780086040496826171875</LongitudeDegrees>
            </Position>
            <AltitudeMeters>677</AltitudeMeters>
            <DistanceMeters>NAN</DistanceMeters>
          </Trackpoint>
          <Trackpoint>
            <Time>2021-04-03T15:17:27.000Z</Time>
            <Position>
              <LatitudeDegrees>42.3267755471169948577880859375</LatitudeDegrees>
              <LongitudeDegrees>2.46245563030242919921875</LongitudeDegrees>
            </Position>
            <AltitudeMeters>676.5999755859375</AltitudeMeters>
            <DistanceMeters>NAN</DistanceMeters>
          </Trackpoint>
          <Trackpoint>
            <Time>2021-04-03T15:17:32.000Z</Time>
            <Position>
              <LatitudeDegrees>42.32678853906691074371337890625</LatitudeDegrees>
              <LongitudeDegrees>2.46243542991578578948974609375</LongitudeDegrees>
            </Position>
            <AltitudeMeters>676.5999755859375</AltitudeMeters>
            <DistanceMeters>NAN</DistanceMeters>
          </Trackpoint>
          <Trackpoint>
            <Time>2021-04-03T15:17:37.000Z</Time>
            <Position>
              <LatitudeDegrees>42.3268100805580615997314453125</LatitudeDegrees>
              <LongitudeDegrees>2.462387569248676300048828125</LongitudeDegrees>
            </Position>
            <AltitudeMeters>676.4000244140625</AltitudeMeters>
            <DistanceMeters>NAN</DistanceMeters>
          </Trackpoint>
          <Trackpoint>
            <Time>2021-04-03T15:17:38.000Z</Time>
            <Position>
              <LatitudeDegrees>42.3268174566328525543212890625</LatitudeDegrees>
              <LongitudeDegrees>2.46237256564199924468994140625</LongitudeDegrees>
            </Position>
            <AltitudeMeters>676.4000244140625</AltitudeMeters>
            <DistanceMeters>NAN</DistanceMeters>
          </Trackpoint>
          <Trackpoint>
            <Time>2021-04-03T15:17:46.000Z</Time>
            <Position>
              <LatitudeDegrees>42.3268848471343517303466796875</LatitudeDegrees>
              <LongitudeDegrees>2.46231908909976482391357421875</LongitudeDegrees>
            </Position>
            <AltitudeMeters>676.20001220703125</AltitudeMeters>
            <DistanceMeters>NAN</DistanceMeters>
          </Trackpoint>
          <Trackpoint>
            <Time>2021-04-03T15:17:48.000Z</Time>
            <Position>
              <LatitudeDegrees>42.32690119184553623199462890625</LatitudeDegrees>
              <LongitudeDegrees>2.462319843471050262451171875</LongitudeDegrees>
            </Position>
            <AltitudeMeters>676.20001220703125</AltitudeMeters>
            <DistanceMeters>NAN</DistanceMeters>
          </Trackpoint>
          <Trackpoint>
            <Time>2021-04-03T15:17:50.000Z</Time>
            <Position>
              <LatitudeDegrees>42.32691359706223011016845703125</LatitudeDegrees>
              <LongitudeDegrees>2.46231355704367160797119140625</LongitudeDegrees>
            </Position>
            <AltitudeMeters>676.20001220703125</AltitudeMeters>
            <DistanceMeters>NAN</DistanceMeters>
          </Trackpoint>
          <Trackpoint>
            <Time>2021-04-03T15:17:53.000Z</Time>
            <Position>
              <LatitudeDegrees>42.3269348032772541046142578125</LatitudeDegrees>
              <LongitudeDegrees>2.4622740782797336578369140625</LongitudeDegrees>
            </Position>
            <AltitudeMeters>675.79998779296875</AltitudeMeters>
            <DistanceMeters>NAN</DistanceMeters>
          </Trackpoint>
          <Trackpoint>
            <Time>2021-04-03T15:17:56.000Z</Time>
            <Position>
              <LatitudeDegrees>42.3269629664719104766845703125</LatitudeDegrees>
              <LongitudeDegrees>2.46226611547172069549560546875</LongitudeDegrees>
            </Position>
            <AltitudeMeters>675.4000244140625</AltitudeMeters>
            <DistanceMeters>NAN</DistanceMeters>
          </Trackpoint>
          <Trackpoint>
            <Time>2021-04-03T15:18:05.000Z</Time>
            <Position>
              <LatitudeDegrees>42.327051647007465362548828125</LatitudeDegrees>
              <LongitudeDegrees>2.462240047752857208251953125</LongitudeDegrees>
            </Position>
            <AltitudeMeters>675</AltitudeMeters>
            <DistanceMeters>NAN</DistanceMeters>
          </Trackpoint>
          <Trackpoint>
            <Time>2021-04-03T15:18:13.000Z</Time>
            <Position>
              <LatitudeDegrees>42.3271111585199832916259765625</LatitudeDegrees>
              <LongitudeDegrees>2.46220576576888561248779296875</LongitudeDegrees>
            </Position>
            <AltitudeMeters>675.5999755859375</AltitudeMeters>
            <DistanceMeters>NAN</DistanceMeters>
          </Trackpoint>
          <Trackpoint>
            <Time>2021-04-03T15:18:14.000Z</Time>
            <Position>
              <LatitudeDegrees>42.32712649740278720855712890625</LatitudeDegrees>
              <LongitudeDegrees>2.46219067834317684173583984375</LongitudeDegrees>
            </Position>
            <AltitudeMeters>675.79998779296875</AltitudeMeters>
            <DistanceMeters>NAN</DistanceMeters>
          </Trackpoint>
          <Trackpoint>
            <Time>2021-04-03T15:18:19.000Z</Time>
            <Position>
              <LatitudeDegrees>42.32715700753033161163330078125</LatitudeDegrees>
              <LongitudeDegrees>2.46213938109576702117919921875</LongitudeDegrees>
            </Position>
            <AltitudeMeters>675.79998779296875</AltitudeMeters>
            <DistanceMeters>NAN</DistanceMeters>
          </Trackpoint>
          <Trackpoint>
            <Time>2021-04-03T15:18:20.000Z</Time>
            <Position>
              <LatitudeDegrees>42.32716773636639118194580078125</LatitudeDegrees>
              <LongitudeDegrees>2.4621416442096233367919921875</LongitudeDegrees>
            </Position>
            <AltitudeMeters>675.79998779296875</AltitudeMeters>
            <DistanceMeters>NAN</DistanceMeters>
          </Trackpoint>
          <Trackpoint>
            <Time>2021-04-03T15:18:27.000Z</Time>
            <Position>
              <LatitudeDegrees>42.32721551321446895599365234375</LatitudeDegrees>
              <LongitudeDegrees>2.46215589344501495361328125</LongitudeDegrees>
            </Position>
            <AltitudeMeters>676.20001220703125</AltitudeMeters>
            <DistanceMeters>NAN</DistanceMeters>
          </Trackpoint>
          <Trackpoint>
            <Time>2021-04-03T15:18:29.000Z</Time>
            <Position>
              <LatitudeDegrees>42.327224314212799072265625</LatitudeDegrees>
              <LongitudeDegrees>2.462136782705783843994140625</LongitudeDegrees>
            </Position>
            <AltitudeMeters>676.4000244140625</AltitudeMeters>
            <DistanceMeters>NAN</DistanceMeters>
          </Trackpoint>
          <Trackpoint>
            <Time>2021-04-03T15:18:33.000Z</Time>
            <Position>
              <LatitudeDegrees>42.32724376022815704345703125</LatitudeDegrees>
              <LongitudeDegrees>2.4621161632239818572998046875</LongitudeDegrees>
            </Position>
            <AltitudeMeters>677</AltitudeMeters>
            <DistanceMeters>NAN</DistanceMeters>
          </Trackpoint>
          <Trackpoint>
            <Time>2021-04-03T15:18:36.000Z</Time>
            <Position>
              <LatitudeDegrees>42.3272633738815784454345703125</LatitudeDegrees>
              <LongitudeDegrees>2.46211138553917407989501953125</LongitudeDegrees>
            </Position>
            <AltitudeMeters>677.5999755859375</AltitudeMeters>
            <DistanceMeters>NAN</DistanceMeters>
          </Trackpoint>
          <Trackpoint>
            <Time>2021-04-03T15:18:40.000Z</Time>
            <Position>
              <LatitudeDegrees>42.3272792994976043701171875</LatitudeDegrees>
              <LongitudeDegrees>2.46210384182631969451904296875</LongitudeDegrees>
            </Position>
            <AltitudeMeters>678.20001220703125</AltitudeMeters>
            <DistanceMeters>NAN</DistanceMeters>
          </Trackpoint>
          <Trackpoint>
            <Time>2021-04-03T15:18:41.000Z</Time>
            <Position>
              <LatitudeDegrees>42.3272831551730632781982421875</LatitudeDegrees>
              <LongitudeDegrees>2.46210233308374881744384765625</LongitudeDegrees>
            </Position>
            <AltitudeMeters>678.4000244140625</AltitudeMeters>
            <DistanceMeters>NAN</DistanceMeters>
          </Trackpoint>
          <Trackpoint>
            <Time>2021-04-03T15:18:43.000Z</Time>
            <Position>
              <LatitudeDegrees>42.32729178853332996368408203125</LatitudeDegrees>
              <LongitudeDegrees>2.46210015378892421722412109375</LongitudeDegrees>
            </Position>
            <AltitudeMeters>678.4000244140625</AltitudeMeters>
            <DistanceMeters>NAN</DistanceMeters>
          </Trackpoint>
          <Trackpoint>
            <Time>2021-04-03T15:18:45.000Z</Time>
            <Position>
              <LatitudeDegrees>42.32730637304484844207763671875</LatitudeDegrees>
              <LongitudeDegrees>2.46210032142698764801025390625</LongitudeDegrees>
            </Position>
            <AltitudeMeters>678.5999755859375</AltitudeMeters>
            <DistanceMeters>NAN</DistanceMeters>
          </Trackpoint>
          <Trackpoint>
            <Time>2021-04-03T15:18:46.000Z</Time>
            <Position>
              <LatitudeDegrees>42.32730939052999019622802734375</LatitudeDegrees>
              <LongitudeDegrees>2.46210090816020965576171875</LongitudeDegrees>
            </Position>
            <AltitudeMeters>678.5999755859375</AltitudeMeters>
            <DistanceMeters>NAN</DistanceMeters>
          </Trackpoint>
          <Trackpoint>
            <Time>2021-04-03T15:18:49.000Z</Time>
            <Position>
              <LatitudeDegrees>42.32732288539409637451171875</LatitudeDegrees>
              <LongitudeDegrees>2.46209965087473392486572265625</LongitudeDegrees>
            </Position>
            <AltitudeMeters>678.79998779296875</AltitudeMeters>
            <DistanceMeters>NAN</DistanceMeters>
          </Trackpoint>
          <Trackpoint>
            <Time>2021-04-03T15:18:53.000Z</Time>
            <Position>
              <LatitudeDegrees>42.32731039635837078094482421875</LatitudeDegrees>
              <LongitudeDegrees>2.4621037580072879791259765625</LongitudeDegrees>
            </Position>
            <AltitudeMeters>678.79998779296875</AltitudeMeters>
            <DistanceMeters>NAN</DistanceMeters>
          </Trackpoint>
          <Trackpoint>
            <Time>2021-04-03T15:18:59.000Z</Time>
            <Position>
              <LatitudeDegrees>42.32732414267957210540771484375</LatitudeDegrees>
              <LongitudeDegrees>2.4620975553989410400390625</LongitudeDegrees>
            </Position>
            <AltitudeMeters>679</AltitudeMeters>
            <DistanceMeters>NAN</DistanceMeters>
          </Trackpoint>
          <Trackpoint>
            <Time>2021-04-03T15:19:04.000Z</Time>
            <Position>
              <LatitudeDegrees>42.32732414267957210540771484375</LatitudeDegrees>
              <LongitudeDegrees>2.4620975553989410400390625</LongitudeDegrees>
            </Position>
            <AltitudeMeters>679</AltitudeMeters>
            <DistanceMeters>NAN</DistanceMeters>
          </Trackpoint>
          <Trackpoint>
            <Time>2021-04-03T15:19:06.000Z</Time>
            <Position>
              <LatitudeDegrees>42.32732296921312808990478515625</LatitudeDegrees>
              <LongitudeDegrees>2.46209847740828990936279296875</LongitudeDegrees>
            </Position>
            <AltitudeMeters>679</AltitudeMeters>
            <DistanceMeters>NAN</DistanceMeters>
          </Trackpoint>
          <Trackpoint>
            <Time>2021-04-03T15:19:18.000Z</Time>
            <Position>
              <LatitudeDegrees>42.3273223824799060821533203125</LatitudeDegrees>
              <LongitudeDegrees>2.4621061049401760101318359375</LongitudeDegrees>
            </Position>
            <AltitudeMeters>679.5999755859375</AltitudeMeters>
            <DistanceMeters>NAN</DistanceMeters>
          </Trackpoint>
          <Trackpoint>
            <Time>2021-04-03T15:19:23.000Z</Time>
            <Position>
              <LatitudeDegrees>42.3273243941366672515869140625</LatitudeDegrees>
              <LongitudeDegrees>2.46211423538625240325927734375</LongitudeDegrees>
            </Position>
            <AltitudeMeters>680.20001220703125</AltitudeMeters>
            <DistanceMeters>NAN</DistanceMeters>
          </Trackpoint>
          <Trackpoint>
            <Time>2021-04-03T15:19:28.000Z</Time>
            <Position>
              <LatitudeDegrees>42.32732556760311126708984375</LatitudeDegrees>
              <LongitudeDegrees>2.46212999336421489715576171875</LongitudeDegrees>
            </Position>
            <AltitudeMeters>680.5999755859375</AltitudeMeters>
            <DistanceMeters>NAN</DistanceMeters>
          </Trackpoint>
          <Trackpoint>
            <Time>2021-04-03T15:19:35.000Z</Time>
            <Position>
              <LatitudeDegrees>42.32728005386888980865478515625</LatitudeDegrees>
              <LongitudeDegrees>2.462243735790252685546875</LongitudeDegrees>
            </Position>
            <AltitudeMeters>681.4000244140625</AltitudeMeters>
            <DistanceMeters>NAN</DistanceMeters>
          </Trackpoint>
          <Trackpoint>
            <Time>2021-04-03T15:19:37.000Z</Time>
            <Position>
              <LatitudeDegrees>42.32727536000311374664306640625</LatitudeDegrees>
              <LongitudeDegrees>2.46228723786771297454833984375</LongitudeDegrees>
            </Position>
            <AltitudeMeters>681.79998779296875</AltitudeMeters>
            <DistanceMeters>NAN</DistanceMeters>
          </Trackpoint>
          <Trackpoint>
            <Time>2021-04-03T15:19:41.000Z</Time>
            <Position>
              <LatitudeDegrees>42.327246777713298797607421875</LatitudeDegrees>
              <LongitudeDegrees>2.46234959922730922698974609375</LongitudeDegrees>
            </Position>
            <AltitudeMeters>682.20001220703125</AltitudeMeters>
            <DistanceMeters>NAN</DistanceMeters>
          </Trackpoint>
          <Trackpoint>
            <Time>2021-04-03T15:19:45.000Z</Time>
            <Position>
              <LatitudeDegrees>42.32718148268759250640869140625</LatitudeDegrees>
              <LongitudeDegrees>2.4623535387217998504638671875</LongitudeDegrees>
            </Position>
            <AltitudeMeters>682.79998779296875</AltitudeMeters>
            <DistanceMeters>NAN</DistanceMeters>
          </Trackpoint>
          <Trackpoint>
            <Time>2021-04-03T15:19:47.000Z</Time>
            <Position>
              <LatitudeDegrees>42.32717427425086498260498046875</LatitudeDegrees>
              <LongitudeDegrees>2.46236301027238368988037109375</LongitudeDegrees>
            </Position>
            <AltitudeMeters>683</AltitudeMeters>
            <DistanceMeters>NAN</DistanceMeters>
          </Trackpoint>
          <Trackpoint>
            <Time>2021-04-03T15:19:53.000Z</Time>
            <Position>
              <LatitudeDegrees>42.3271188698709011077880859375</LatitudeDegrees>
              <LongitudeDegrees>2.462363429367542266845703125</LongitudeDegrees>
            </Position>
            <AltitudeMeters>683.79998779296875</AltitudeMeters>
            <DistanceMeters>NAN</DistanceMeters>
          </Trackpoint>
          <Trackpoint>
            <Time>2021-04-03T15:19:54.000Z</Time>
            <Position>
              <LatitudeDegrees>42.32711124233901500701904296875</LatitudeDegrees>
              <LongitudeDegrees>2.46235982514917850494384765625</LongitudeDegrees>
            </Position>
            <AltitudeMeters>684</AltitudeMeters>
            <DistanceMeters>NAN</DistanceMeters>
          </Trackpoint>
          <Trackpoint>
            <Time>2021-04-03T15:19:59.000Z</Time>
            <Position>
              <LatitudeDegrees>42.327063046395778656005859375</LatitudeDegrees>
              <LongitudeDegrees>2.4623478390276432037353515625</LongitudeDegrees>
            </Position>
            <AltitudeMeters>684.5999755859375</AltitudeMeters>
            <DistanceMeters>NAN</DistanceMeters>
          </Trackpoint>
          <Trackpoint>
            <Time>2021-04-03T15:20:00.000Z</Time>
            <Position>
              <LatitudeDegrees>42.32705198228359222412109375</LatitudeDegrees>
              <LongitudeDegrees>2.46235026977956295013427734375</LongitudeDegrees>
            </Position>
            <AltitudeMeters>684.79998779296875</AltitudeMeters>
            <DistanceMeters>NAN</DistanceMeters>
          </Trackpoint>
          <Trackpoint>
            <Time>2021-04-03T15:20:01.000Z</Time>
            <Position>
              <LatitudeDegrees>42.327036224305629730224609375</LatitudeDegrees>
              <LongitudeDegrees>2.4623532034456729888916015625</LongitudeDegrees>
            </Position>
            <AltitudeMeters>685</AltitudeMeters>
            <DistanceMeters>NAN</DistanceMeters>
          </Trackpoint>
          <Trackpoint>
            <Time>2021-04-03T15:20:07.000Z</Time>
            <Position>
              <LatitudeDegrees>42.32694469392299652099609375</LatitudeDegrees>
              <LongitudeDegrees>2.46234037913382053375244140625</LongitudeDegrees>
            </Position>
            <AltitudeMeters>686</AltitudeMeters>
            <DistanceMeters>NAN</DistanceMeters>
          </Trackpoint>
          <Trackpoint>
            <Time>2021-04-03T15:20:08.000Z</Time>
            <Position>
              <LatitudeDegrees>42.32694343663752079010009765625</LatitudeDegrees>
              <LongitudeDegrees>2.46234306134283542633056640625</LongitudeDegrees>
            </Position>
            <AltitudeMeters>686</AltitudeMeters>
            <DistanceMeters>NAN</DistanceMeters>
          </Trackpoint>
          <Trackpoint>
            <Time>2021-04-03T15:20:12.000Z</Time>
            <Position>
              <LatitudeDegrees>42.3269274272024631500244140625</LatitudeDegrees>
              <LongitudeDegrees>2.4623136408627033233642578125</LongitudeDegrees>
            </Position>
            <AltitudeMeters>686.4000244140625</AltitudeMeters>
            <DistanceMeters>NAN</DistanceMeters>
          </Trackpoint>
          <Trackpoint>
            <Time>2021-04-03T15:20:18.000Z</Time>
            <Position>
              <LatitudeDegrees>42.3268704302608966827392578125</LatitudeDegrees>
              <LongitudeDegrees>2.46230634860694408416748046875</LongitudeDegrees>
            </Position>
            <AltitudeMeters>687</AltitudeMeters>
            <DistanceMeters>NAN</DistanceMeters>
          </Trackpoint>
          <Trackpoint>
            <Time>2021-04-03T15:20:22.000Z</Time>
            <Position>
              <LatitudeDegrees>42.32684134505689144134521484375</LatitudeDegrees>
              <LongitudeDegrees>2.4623166583478450775146484375</LongitudeDegrees>
            </Position>
            <AltitudeMeters>687.79998779296875</AltitudeMeters>
            <DistanceMeters>NAN</DistanceMeters>
          </Trackpoint>
          <Trackpoint>
            <Time>2021-04-03T15:20:27.000Z</Time>
            <Position>
              <LatitudeDegrees>42.3268107511103153228759765625</LatitudeDegrees>
              <LongitudeDegrees>2.462307102978229522705078125</LongitudeDegrees>
            </Position>
            <AltitudeMeters>688.20001220703125</AltitudeMeters>
            <DistanceMeters>NAN</DistanceMeters>
          </Trackpoint>
          <Trackpoint>
            <Time>2021-04-03T15:20:29.000Z</Time>
            <Position>
              <LatitudeDegrees>42.32680446468293666839599609375</LatitudeDegrees>
              <LongitudeDegrees>2.462295703589916229248046875</LongitudeDegrees>
            </Position>
            <AltitudeMeters>688.4000244140625</AltitudeMeters>
            <DistanceMeters>NAN</DistanceMeters>
          </Trackpoint>
          <Trackpoint>
            <Time>2021-04-03T15:20:36.000Z</Time>
            <Position>
              <LatitudeDegrees>42.3267711885273456573486328125</LatitudeDegrees>
              <LongitudeDegrees>2.4622556380927562713623046875</LongitudeDegrees>
            </Position>
            <AltitudeMeters>688.79998779296875</AltitudeMeters>
            <DistanceMeters>NAN</DistanceMeters>
          </Trackpoint>
          <Trackpoint>
            <Time>2021-04-03T15:20:43.000Z</Time>
            <Position>
              <LatitudeDegrees>42.326725423336029052734375</LatitudeDegrees>
              <LongitudeDegrees>2.46222269721329212188720703125</LongitudeDegrees>
            </Position>
            <AltitudeMeters>689.20001220703125</AltitudeMeters>
            <DistanceMeters>NAN</DistanceMeters>
          </Trackpoint>
          <Trackpoint>
            <Time>2021-04-03T15:20:45.000Z</Time>
            <Position>
              <LatitudeDegrees>42.3267175443470478057861328125</LatitudeDegrees>
              <LongitudeDegrees>2.46220191009342670440673828125</LongitudeDegrees>
            </Position>
            <AltitudeMeters>689.20001220703125</AltitudeMeters>
            <DistanceMeters>NAN</DistanceMeters>
          </Trackpoint>
          <Trackpoint>
            <Time>2021-04-03T15:20:52.000Z</Time>
            <Position>
              <LatitudeDegrees>42.32668661512434482574462890625</LatitudeDegrees>
              <LongitudeDegrees>2.46217793785035610198974609375</LongitudeDegrees>
            </Position>
            <AltitudeMeters>689.5999755859375</AltitudeMeters>
            <DistanceMeters>NAN</DistanceMeters>
          </Trackpoint>
          <Trackpoint>
            <Time>2021-04-03T15:20:58.000Z</Time>
            <Position>
              <LatitudeDegrees>42.3266462981700897216796875</LatitudeDegrees>
              <LongitudeDegrees>2.462170310318470001220703125</LongitudeDegrees>
            </Position>
            <AltitudeMeters>690.20001220703125</AltitudeMeters>
            <DistanceMeters>NAN</DistanceMeters>
          </Trackpoint>
          <Trackpoint>
            <Time>2021-04-03T15:21:01.000Z</Time>
            <Position>
              <LatitudeDegrees>42.32662525959312915802001953125</LatitudeDegrees>
              <LongitudeDegrees>2.4621498584747314453125</LongitudeDegrees>
            </Position>
            <AltitudeMeters>690.4000244140625</AltitudeMeters>
            <DistanceMeters>NAN</DistanceMeters>
          </Trackpoint>
          <Trackpoint>
            <Time>2021-04-03T15:21:03.000Z</Time>
            <Position>
              <LatitudeDegrees>42.32661520130932331085205078125</LatitudeDegrees>
              <LongitudeDegrees>2.46213837526738643646240234375</LongitudeDegrees>
            </Position>
            <AltitudeMeters>690.5999755859375</AltitudeMeters>
            <DistanceMeters>NAN</DistanceMeters>
          </Trackpoint>
          <Trackpoint>
            <Time>2021-04-03T15:21:05.000Z</Time>
            <Position>
              <LatitudeDegrees>42.326610088348388671875</LatitudeDegrees>
              <LongitudeDegrees>2.46212462894618511199951171875</LongitudeDegrees>
            </Position>
            <AltitudeMeters>690.5999755859375</AltitudeMeters>
            <DistanceMeters>NAN</DistanceMeters>
          </Trackpoint>
          <Trackpoint>
            <Time>2021-04-03T15:21:08.000Z</Time>
            <Position>
              <LatitudeDegrees>42.3265881277620792388916015625</LatitudeDegrees>
              <LongitudeDegrees>2.4621238745748996734619140625</LongitudeDegrees>
            </Position>
            <AltitudeMeters>690.79998779296875</AltitudeMeters>
            <DistanceMeters>NAN</DistanceMeters>
          </Trackpoint>
          <Trackpoint>
            <Time>2021-04-03T15:21:10.000Z</Time>
            <Position>
              <LatitudeDegrees>42.32658066786825656890869140625</LatitudeDegrees>
              <LongitudeDegrees>2.4621195159852504730224609375</LongitudeDegrees>
            </Position>
            <AltitudeMeters>691</AltitudeMeters>
            <DistanceMeters>NAN</DistanceMeters>
          </Trackpoint>
          <Trackpoint>
            <Time>2021-04-03T15:21:13.000Z</Time>
            <Position>
              <LatitudeDegrees>42.32657111249864101409912109375</LatitudeDegrees>
              <LongitudeDegrees>2.46209462173283100128173828125</LongitudeDegrees>
            </Position>
            <AltitudeMeters>691.20001220703125</AltitudeMeters>
            <DistanceMeters>NAN</DistanceMeters>
          </Trackpoint>
          <Trackpoint>
            <Time>2021-04-03T15:21:15.000Z</Time>
            <Position>
              <LatitudeDegrees>42.32656113803386688232421875</LatitudeDegrees>
              <LongitudeDegrees>2.4620903469622135162353515625</LongitudeDegrees>
            </Position>
            <AltitudeMeters>691.20001220703125</AltitudeMeters>
            <DistanceMeters>NAN</DistanceMeters>
          </Trackpoint>
          <Trackpoint>
            <Time>2021-04-03T15:21:19.000Z</Time>
            <Position>
              <LatitudeDegrees>42.3265344835817813873291015625</LatitudeDegrees>
              <LongitudeDegrees>2.462044917047023773193359375</LongitudeDegrees>
            </Position>
            <AltitudeMeters>691.20001220703125</AltitudeMeters>
            <DistanceMeters>NAN</DistanceMeters>
          </Trackpoint>
          <Trackpoint>
            <Time>2021-04-03T15:21:28.000Z</Time>
            <Position>
              <LatitudeDegrees>42.32653406448662281036376953125</LatitudeDegrees>
              <LongitudeDegrees>2.4619377963244915008544921875</LongitudeDegrees>
            </Position>
            <AltitudeMeters>691.5999755859375</AltitudeMeters>
            <DistanceMeters>NAN</DistanceMeters>
          </Trackpoint>
          <Trackpoint>
            <Time>2021-04-03T15:21:35.000Z</Time>
            <Position>
              <LatitudeDegrees>42.32650003395974636077880859375</LatitudeDegrees>
              <LongitudeDegrees>2.4618787877261638641357421875</LongitudeDegrees>
            </Position>
            <AltitudeMeters>692.20001220703125</AltitudeMeters>
            <DistanceMeters>NAN</DistanceMeters>
          </Trackpoint>
          <Trackpoint>
            <Time>2021-04-03T15:21:36.000Z</Time>
            <Position>
              <LatitudeDegrees>42.3264979384839534759521484375</LatitudeDegrees>
              <LongitudeDegrees>2.46187065728008747100830078125</LongitudeDegrees>
            </Position>
            <AltitudeMeters>692.4000244140625</AltitudeMeters>
            <DistanceMeters>NAN</DistanceMeters>
          </Trackpoint>
          <Trackpoint>
            <Time>2021-04-03T15:21:42.000Z</Time>
            <Position>
              <LatitudeDegrees>42.3264965973794460296630859375</LatitudeDegrees>
              <LongitudeDegrees>2.46182757429778575897216796875</LongitudeDegrees>
            </Position>
            <AltitudeMeters>692.5999755859375</AltitudeMeters>
            <DistanceMeters>NAN</DistanceMeters>
          </Trackpoint>
          <Trackpoint>
            <Time>2021-04-03T15:21:47.000Z</Time>
            <Position>
              <LatitudeDegrees>42.32651688158512115478515625</LatitudeDegrees>
              <LongitudeDegrees>2.46180661953985691070556640625</LongitudeDegrees>
            </Position>
            <AltitudeMeters>693.20001220703125</AltitudeMeters>
            <DistanceMeters>NAN</DistanceMeters>
          </Trackpoint>
          <Trackpoint>
            <Time>2021-04-03T15:21:50.000Z</Time>
            <Position>
              <LatitudeDegrees>42.3265153728425502777099609375</LatitudeDegrees>
              <LongitudeDegrees>2.46179957874119281768798828125</LongitudeDegrees>
            </Position>
            <AltitudeMeters>693.79998779296875</AltitudeMeters>
            <DistanceMeters>NAN</DistanceMeters>
          </Trackpoint>
          <Trackpoint>
            <Time>2021-04-03T15:21:53.000Z</Time>
            <Position>
              <LatitudeDegrees>42.3265190608799457550048828125</LatitudeDegrees>
              <LongitudeDegrees>2.4617896042764186859130859375</LongitudeDegrees>
            </Position>
            <AltitudeMeters>694.20001220703125</AltitudeMeters>
            <DistanceMeters>NAN</DistanceMeters>
          </Trackpoint>
          <Trackpoint>
            <Time>2021-04-03T15:21:54.000Z</Time>
            <Position>
              <LatitudeDegrees>42.3265217430889606475830078125</LatitudeDegrees>
              <LongitudeDegrees>2.461782731115818023681640625</LongitudeDegrees>
            </Position>
            <AltitudeMeters>694.4000244140625</AltitudeMeters>
            <DistanceMeters>NAN</DistanceMeters>
          </Trackpoint>
          <Trackpoint>
            <Time>2021-04-03T15:21:57.000Z</Time>
            <Position>
              <LatitudeDegrees>42.32652987353503704071044921875</LatitudeDegrees>
              <LongitudeDegrees>2.46176898479461669921875</LongitudeDegrees>
            </Position>
            <AltitudeMeters>694.79998779296875</AltitudeMeters>
            <DistanceMeters>NAN</DistanceMeters>
          </Trackpoint>
          <Trackpoint>
            <Time>2021-04-03T15:21:59.000Z</Time>
            <Position>
              <LatitudeDegrees>42.32653473503887653350830078125</LatitudeDegrees>
              <LongitudeDegrees>2.4617517180740833282470703125</LongitudeDegrees>
            </Position>
            <AltitudeMeters>695.4000244140625</AltitudeMeters>
            <DistanceMeters>NAN</DistanceMeters>
          </Trackpoint>
          <Trackpoint>
            <Time>2021-04-03T15:22:04.000Z</Time>
            <Position>
              <LatitudeDegrees>42.3265123553574085235595703125</LatitudeDegrees>
              <LongitudeDegrees>2.46170436032116413116455078125</LongitudeDegrees>
            </Position>
            <AltitudeMeters>695.5999755859375</AltitudeMeters>
            <DistanceMeters>NAN</DistanceMeters>
          </Trackpoint>
          <Trackpoint>
            <Time>2021-04-03T15:22:08.000Z</Time>
            <Position>
              <LatitudeDegrees>42.3265009559690952301025390625</LatitudeDegrees>
              <LongitudeDegrees>2.46163948439061641693115234375</LongitudeDegrees>
            </Position>
            <AltitudeMeters>695.4000244140625</AltitudeMeters>
            <DistanceMeters>NAN</DistanceMeters>
          </Trackpoint>
          <Trackpoint>
            <Time>2021-04-03T15:22:10.000Z</Time>
            <Position>
              <LatitudeDegrees>42.3264902271330356597900390625</LatitudeDegrees>
              <LongitudeDegrees>2.4616065435111522674560546875</LongitudeDegrees>
            </Position>
            <AltitudeMeters>695.20001220703125</AltitudeMeters>
            <DistanceMeters>NAN</DistanceMeters>
          </Trackpoint>
          <Trackpoint>
            <Time>2021-04-03T15:22:12.000Z</Time>
            <Position>
              <LatitudeDegrees>42.32648846693336963653564453125</LatitudeDegrees>
              <LongitudeDegrees>2.46158550493419170379638671875</LongitudeDegrees>
            </Position>
            <AltitudeMeters>695.20001220703125</AltitudeMeters>
            <DistanceMeters>NAN</DistanceMeters>
          </Trackpoint>
          <Trackpoint>
            <Time>2021-04-03T15:22:23.000Z</Time>
            <Position>
              <LatitudeDegrees>42.32647639699280261993408203125</LatitudeDegrees>
              <LongitudeDegrees>2.46142105199396610260009765625</LongitudeDegrees>
            </Position>
            <AltitudeMeters>694.79998779296875</AltitudeMeters>
            <DistanceMeters>NAN</DistanceMeters>
          </Trackpoint>
          <Trackpoint>
            <Time>2021-04-03T15:22:27.000Z</Time>
            <Position>
              <LatitudeDegrees>42.32648477889597415924072265625</LatitudeDegrees>
              <LongitudeDegrees>2.46136120520532131195068359375</LongitudeDegrees>
            </Position>
            <AltitudeMeters>694.79998779296875</AltitudeMeters>
            <DistanceMeters>NAN</DistanceMeters>
          </Trackpoint>
          <Trackpoint>
            <Time>2021-04-03T15:22:28.000Z</Time>
            <Position>
              <LatitudeDegrees>42.326489724218845367431640625</LatitudeDegrees>
              <LongitudeDegrees>2.46134729124605655670166015625</LongitudeDegrees>
            </Position>
            <AltitudeMeters>694.5999755859375</AltitudeMeters>
            <DistanceMeters>NAN</DistanceMeters>
          </Trackpoint>
          <Trackpoint>
            <Time>2021-04-03T15:22:30.000Z</Time>
            <Position>
              <LatitudeDegrees>42.32649835757911205291748046875</LatitudeDegrees>
              <LongitudeDegrees>2.46131761930882930755615234375</LongitudeDegrees>
            </Position>
            <AltitudeMeters>694.5999755859375</AltitudeMeters>
            <DistanceMeters>NAN</DistanceMeters>
          </Trackpoint>
          <Trackpoint>
            <Time>2021-04-03T15:22:33.000Z</Time>
            <Position>
              <LatitudeDegrees>42.3265093378722667694091796875</LatitudeDegrees>
              <LongitudeDegrees>2.4612876959145069122314453125</LongitudeDegrees>
            </Position>
            <AltitudeMeters>694.4000244140625</AltitudeMeters>
            <DistanceMeters>NAN</DistanceMeters>
          </Trackpoint>
          <Trackpoint>
            <Time>2021-04-03T15:22:36.000Z</Time>
            <Position>
              <LatitudeDegrees>42.32651545666158199310302734375</LatitudeDegrees>
              <LongitudeDegrees>2.4612608738243579864501953125</LongitudeDegrees>
            </Position>
            <AltitudeMeters>694.4000244140625</AltitudeMeters>
            <DistanceMeters>NAN</DistanceMeters>
          </Trackpoint>
          <Trackpoint>
            <Time>2021-04-03T15:22:39.000Z</Time>
            <Position>
              <LatitudeDegrees>42.3265284486114978790283203125</LatitudeDegrees>
              <LongitudeDegrees>2.46121854521334171295166015625</LongitudeDegrees>
            </Position>
            <AltitudeMeters>694.20001220703125</AltitudeMeters>
            <DistanceMeters>NAN</DistanceMeters>
          </Trackpoint>
          <Trackpoint>
            <Time>2021-04-03T15:22:44.000Z</Time>
            <Position>
              <LatitudeDegrees>42.3265428654849529266357421875</LatitudeDegrees>
              <LongitudeDegrees>2.461155764758586883544921875</LongitudeDegrees>
            </Position>
            <AltitudeMeters>694</AltitudeMeters>
            <DistanceMeters>NAN</DistanceMeters>
          </Trackpoint>
          <Trackpoint>
            <Time>2021-04-03T15:22:52.000Z</Time>
            <Position>
              <LatitudeDegrees>42.32654127292335033416748046875</LatitudeDegrees>
              <LongitudeDegrees>2.46106314472854137420654296875</LongitudeDegrees>
            </Position>
            <AltitudeMeters>693.5999755859375</AltitudeMeters>
            <DistanceMeters>NAN</DistanceMeters>
          </Trackpoint>
          <Trackpoint>
            <Time>2021-04-03T15:22:54.000Z</Time>
            <Position>
              <LatitudeDegrees>42.3265445418655872344970703125</LatitudeDegrees>
              <LongitudeDegrees>2.4610434472560882568359375</LongitudeDegrees>
            </Position>
            <AltitudeMeters>693.5999755859375</AltitudeMeters>
            <DistanceMeters>NAN</DistanceMeters>
          </Trackpoint>
          <Trackpoint>
            <Time>2021-04-03T15:22:55.000Z</Time>
            <Position>
              <LatitudeDegrees>42.326544709503650665283203125</LatitudeDegrees>
              <LongitudeDegrees>2.4610157869756221771240234375</LongitudeDegrees>
            </Position>
            <AltitudeMeters>693.4000244140625</AltitudeMeters>
            <DistanceMeters>NAN</DistanceMeters>
          </Trackpoint>
          <Trackpoint>
            <Time>2021-04-03T15:23:03.000Z</Time>
            <Position>
              <LatitudeDegrees>42.3265733756124973297119140625</LatitudeDegrees>
              <LongitudeDegrees>2.4609014578163623809814453125</LongitudeDegrees>
            </Position>
            <AltitudeMeters>692.79998779296875</AltitudeMeters>
            <DistanceMeters>NAN</DistanceMeters>
          </Trackpoint>
          <Trackpoint>
            <Time>2021-04-03T15:23:12.000Z</Time>
            <Position>
              <LatitudeDegrees>42.32653825543820858001708984375</LatitudeDegrees>
              <LongitudeDegrees>2.46083582751452922821044921875</LongitudeDegrees>
            </Position>
            <AltitudeMeters>692.4000244140625</AltitudeMeters>
            <DistanceMeters>NAN</DistanceMeters>
          </Trackpoint>
          <Trackpoint>
            <Time>2021-04-03T15:23:13.000Z</Time>
            <Position>
              <LatitudeDegrees>42.32653339393436908721923828125</LatitudeDegrees>
              <LongitudeDegrees>2.46083356440067291259765625</LongitudeDegrees>
            </Position>
            <AltitudeMeters>692.4000244140625</AltitudeMeters>
            <DistanceMeters>NAN</DistanceMeters>
          </Trackpoint>
          <Trackpoint>
            <Time>2021-04-03T15:23:15.000Z</Time>
            <Position>
              <LatitudeDegrees>42.3265247605741024017333984375</LatitudeDegrees>
              <LongitudeDegrees>2.4608327262103557586669921875</LongitudeDegrees>
            </Position>
            <AltitudeMeters>692.20001220703125</AltitudeMeters>
            <DistanceMeters>NAN</DistanceMeters>
          </Trackpoint>
          <Trackpoint>
            <Time>2021-04-03T15:23:20.000Z</Time>
            <Position>
              <LatitudeDegrees>42.3264908976852893829345703125</LatitudeDegrees>
              <LongitudeDegrees>2.46084186248481273651123046875</LongitudeDegrees>
            </Position>
            <AltitudeMeters>692.20001220703125</AltitudeMeters>
            <DistanceMeters>NAN</DistanceMeters>
          </Trackpoint>
          <Trackpoint>
            <Time>2021-04-03T15:23:26.000Z</Time>
            <Position>
              <LatitudeDegrees>42.326419316232204437255859375</LatitudeDegrees>
              <LongitudeDegrees>2.46087170206010341644287109375</LongitudeDegrees>
            </Position>
            <AltitudeMeters>692.20001220703125</AltitudeMeters>
            <DistanceMeters>NAN</DistanceMeters>
          </Trackpoint>
          <Trackpoint>
            <Time>2021-04-03T15:23:34.000Z</Time>
            <Position>
              <LatitudeDegrees>42.3263494111597537994384765625</LatitudeDegrees>
              <LongitudeDegrees>2.4608645774424076080322265625</LongitudeDegrees>
            </Position>
            <AltitudeMeters>692.20001220703125</AltitudeMeters>
            <DistanceMeters>NAN</DistanceMeters>
          </Trackpoint>
          <Trackpoint>
            <Time>2021-04-03T15:23:41.000Z</Time>
            <Position>
              <LatitudeDegrees>42.32629668898880481719970703125</LatitudeDegrees>
              <LongitudeDegrees>2.46083096601068973541259765625</LongitudeDegrees>
            </Position>
            <AltitudeMeters>692.20001220703125</AltitudeMeters>
            <DistanceMeters>NAN</DistanceMeters>
          </Trackpoint>
          <Trackpoint>
            <Time>2021-04-03T15:23:43.000Z</Time>
            <Position>
              <LatitudeDegrees>42.3262887261807918548583984375</LatitudeDegrees>
              <LongitudeDegrees>2.46082275174558162689208984375</LongitudeDegrees>
            </Position>
            <AltitudeMeters>692.20001220703125</AltitudeMeters>
            <DistanceMeters>NAN</DistanceMeters>
          </Trackpoint>
          <Trackpoint>
            <Time>2021-04-03T15:23:45.000Z</Time>
            <Position>
              <LatitudeDegrees>42.3262883909046649932861328125</LatitudeDegrees>
              <LongitudeDegrees>2.46081084944307804107666015625</LongitudeDegrees>
            </Position>
            <AltitudeMeters>692.20001220703125</AltitudeMeters>
            <DistanceMeters>NAN</DistanceMeters>
          </Trackpoint>
          <Trackpoint>
            <Time>2021-04-03T15:23:47.000Z</Time>
            <Position>
              <LatitudeDegrees>42.3262806795537471771240234375</LatitudeDegrees>
              <LongitudeDegrees>2.46080338954925537109375</LongitudeDegrees>
            </Position>
            <AltitudeMeters>692.20001220703125</AltitudeMeters>
            <DistanceMeters>NAN</DistanceMeters>
          </Trackpoint>
          <Trackpoint>
            <Time>2021-04-03T15:23:57.000Z</Time>
            <Position>
              <LatitudeDegrees>42.32627321965992450714111328125</LatitudeDegrees>
              <LongitudeDegrees>2.46080883778631687164306640625</LongitudeDegrees>
            </Position>
            <AltitudeMeters>692.20001220703125</AltitudeMeters>
            <DistanceMeters>NAN</DistanceMeters>
          </Trackpoint>
          <Trackpoint>
            <Time>2021-04-03T15:24:02.000Z</Time>
            <Position>
              <LatitudeDegrees>42.32628948055207729339599609375</LatitudeDegrees>
              <LongitudeDegrees>2.46083415113389492034912109375</LongitudeDegrees>
            </Position>
            <AltitudeMeters>692.20001220703125</AltitudeMeters>
            <DistanceMeters>NAN</DistanceMeters>
          </Trackpoint>
          <Trackpoint>
            <Time>2021-04-03T15:24:07.000Z</Time>
            <Position>
              <LatitudeDegrees>42.32627372257411479949951171875</LatitudeDegrees>
              <LongitudeDegrees>2.46081721968948841094970703125</LongitudeDegrees>
            </Position>
            <AltitudeMeters>692.20001220703125</AltitudeMeters>
            <DistanceMeters>NAN</DistanceMeters>
          </Trackpoint>
          <Trackpoint>
            <Time>2021-04-03T15:24:18.000Z</Time>
            <Position>
              <LatitudeDegrees>42.32627372257411479949951171875</LatitudeDegrees>
              <LongitudeDegrees>2.4608176387846469879150390625</LongitudeDegrees>
            </Position>
            <AltitudeMeters>692.20001220703125</AltitudeMeters>
            <DistanceMeters>NAN</DistanceMeters>
          </Trackpoint>
          <Trackpoint>
            <Time>2021-04-03T15:24:21.000Z</Time>
            <Position>
              <LatitudeDegrees>42.32627372257411479949951171875</LatitudeDegrees>
              <LongitudeDegrees>2.4608236737549304962158203125</LongitudeDegrees>
            </Position>
            <AltitudeMeters>696.20001220703125</AltitudeMeters>
            <DistanceMeters>NAN</DistanceMeters>
          </Trackpoint>
          <Trackpoint>
            <Time>2021-04-03T15:24:45.000Z</Time>
            <Position>
              <LatitudeDegrees>42.32622996903955936431884765625</LatitudeDegrees>
              <LongitudeDegrees>2.460848987102508544921875</LongitudeDegrees>
            </Position>
            <AltitudeMeters>696.79998779296875</AltitudeMeters>
            <DistanceMeters>NAN</DistanceMeters>
          </Trackpoint>
          <Trackpoint>
            <Time>2021-04-03T15:24:49.000Z</Time>
            <Position>
              <LatitudeDegrees>42.32622678391635417938232421875</LatitudeDegrees>
              <LongitudeDegrees>2.4608561955392360687255859375</LongitudeDegrees>
            </Position>
            <AltitudeMeters>696.79998779296875</AltitudeMeters>
            <DistanceMeters>NAN</DistanceMeters>
          </Trackpoint>
          <Trackpoint>
            <Time>2021-04-03T15:24:53.000Z</Time>
            <Position>
              <LatitudeDegrees>42.32622452080249786376953125</LatitudeDegrees>
              <LongitudeDegrees>2.46086264960467815399169921875</LongitudeDegrees>
            </Position>
            <AltitudeMeters>697</AltitudeMeters>
            <DistanceMeters>NAN</DistanceMeters>
          </Trackpoint>
          <Trackpoint>
            <Time>2021-04-03T15:25:05.000Z</Time>
            <Position>
              <LatitudeDegrees>42.32632066123187541961669921875</LatitudeDegrees>
              <LongitudeDegrees>2.46087254025042057037353515625</LongitudeDegrees>
            </Position>
            <AltitudeMeters>696.79998779296875</AltitudeMeters>
            <DistanceMeters>NAN</DistanceMeters>
          </Trackpoint>
          <Trackpoint>
            <Time>2021-04-03T15:25:13.000Z</Time>
            <Position>
              <LatitudeDegrees>42.32638905756175518035888671875</LatitudeDegrees>
              <LongitudeDegrees>2.46084856800734996795654296875</LongitudeDegrees>
            </Position>
            <AltitudeMeters>696.79998779296875</AltitudeMeters>
            <DistanceMeters>NAN</DistanceMeters>
          </Trackpoint>
          <Trackpoint>
            <Time>2021-04-03T15:25:15.000Z</Time>
            <Position>
              <LatitudeDegrees>42.3263933323323726654052734375</LatitudeDegrees>
              <LongitudeDegrees>2.46084135957062244415283203125</LongitudeDegrees>
            </Position>
            <AltitudeMeters>696.79998779296875</AltitudeMeters>
            <DistanceMeters>NAN</DistanceMeters>
          </Trackpoint>
          <Trackpoint>
            <Time>2021-04-03T15:25:18.000Z</Time>
            <Position>
              <LatitudeDegrees>42.32642375864088535308837890625</LatitudeDegrees>
              <LongitudeDegrees>2.46082593686878681182861328125</LongitudeDegrees>
            </Position>
            <AltitudeMeters>696.79998779296875</AltitudeMeters>
            <DistanceMeters>NAN</DistanceMeters>
          </Trackpoint>
          <Trackpoint>
            <Time>2021-04-03T15:25:20.000Z</Time>
            <Position>
              <LatitudeDegrees>42.3264194838702678680419921875</LatitudeDegrees>
              <LongitudeDegrees>2.4608186446130275726318359375</LongitudeDegrees>
            </Position>
            <AltitudeMeters>696.79998779296875</AltitudeMeters>
            <DistanceMeters>NAN</DistanceMeters>
          </Trackpoint>
          <Trackpoint>
            <Time>2021-04-03T15:25:22.000Z</Time>
            <Position>
              <LatitudeDegrees>42.326421327888965606689453125</LatitudeDegrees>
              <LongitudeDegrees>2.46080280281603336334228515625</LongitudeDegrees>
            </Position>
            <AltitudeMeters>696.5999755859375</AltitudeMeters>
            <DistanceMeters>NAN</DistanceMeters>
          </Trackpoint>
          <Trackpoint>
            <Time>2021-04-03T15:25:24.000Z</Time>
            <Position>
              <LatitudeDegrees>42.3264181427657604217529296875</LatitudeDegrees>
              <LongitudeDegrees>2.46079995296895503997802734375</LongitudeDegrees>
            </Position>
            <AltitudeMeters>696.5999755859375</AltitudeMeters>
            <DistanceMeters>NAN</DistanceMeters>
          </Trackpoint>
          <Trackpoint>
            <Time>2021-04-03T15:25:26.000Z</Time>
            <Position>
              <LatitudeDegrees>42.3264184780418872833251953125</LatitudeDegrees>
              <LongitudeDegrees>2.46080095879733562469482421875</LongitudeDegrees>
            </Position>
            <AltitudeMeters>696.5999755859375</AltitudeMeters>
            <DistanceMeters>NAN</DistanceMeters>
          </Trackpoint>
          <Trackpoint>
            <Time>2021-04-03T15:25:28.000Z</Time>
            <Position>
              <LatitudeDegrees>42.326417975127696990966796875</LatitudeDegrees>
              <LongitudeDegrees>2.46079727075994014739990234375</LongitudeDegrees>
            </Position>
            <AltitudeMeters>696.5999755859375</AltitudeMeters>
            <DistanceMeters>NAN</DistanceMeters>
          </Trackpoint>
          <Trackpoint>
            <Time>2021-04-03T15:25:35.000Z</Time>
            <Position>
              <LatitudeDegrees>42.3263718746602535247802734375</LatitudeDegrees>
              <LongitudeDegrees>2.46078385971486568450927734375</LongitudeDegrees>
            </Position>
            <AltitudeMeters>696.5999755859375</AltitudeMeters>
            <DistanceMeters>NAN</DistanceMeters>
          </Trackpoint>
          <Trackpoint>
            <Time>2021-04-03T15:25:43.000Z</Time>
            <Position>
              <LatitudeDegrees>42.32637078501284122467041015625</LatitudeDegrees>
              <LongitudeDegrees>2.4607859551906585693359375</LongitudeDegrees>
            </Position>
            <AltitudeMeters>696.5999755859375</AltitudeMeters>
            <DistanceMeters>NAN</DistanceMeters>
          </Trackpoint>
          <Trackpoint>
            <Time>2021-04-03T15:25:58.000Z</Time>
            <Position>
              <LatitudeDegrees>42.32636609114706516265869140625</LatitudeDegrees>
              <LongitudeDegrees>2.4607797525823116302490234375</LongitudeDegrees>
            </Position>
            <AltitudeMeters>696.5999755859375</AltitudeMeters>
            <DistanceMeters>NAN</DistanceMeters>
          </Trackpoint>
          <Trackpoint>
            <Time>2021-04-03T15:26:10.000Z</Time>
            <Position>
              <LatitudeDegrees>42.32635083608329296112060546875</LatitudeDegrees>
              <LongitudeDegrees>2.460777573287487030029296875</LongitudeDegrees>
            </Position>
            <AltitudeMeters>696.5999755859375</AltitudeMeters>
            <DistanceMeters>NAN</DistanceMeters>
          </Trackpoint>
          <Trackpoint>
            <Time>2021-04-03T15:26:12.000Z</Time>
            <Position>
              <LatitudeDegrees>42.3263477347791194915771484375</LatitudeDegrees>
              <LongitudeDegrees>2.46077715419232845306396484375</LongitudeDegrees>
            </Position>
            <AltitudeMeters>696.5999755859375</AltitudeMeters>
            <DistanceMeters>NAN</DistanceMeters>
          </Trackpoint>
          <Trackpoint>
            <Time>2021-04-03T15:26:14.000Z</Time>
            <Position>
              <LatitudeDegrees>42.3263473995029926300048828125</LatitudeDegrees>
              <LongitudeDegrees>2.46077698655426502227783203125</LongitudeDegrees>
            </Position>
            <AltitudeMeters>696.5999755859375</AltitudeMeters>
            <DistanceMeters>NAN</DistanceMeters>
          </Trackpoint>
          <Trackpoint>
            <Time>2021-04-03T15:26:15.000Z</Time>
            <Position>
              <LatitudeDegrees>42.3263473995029926300048828125</LatitudeDegrees>
              <LongitudeDegrees>2.46077681891620159149169921875</LongitudeDegrees>
            </Position>
            <AltitudeMeters>696.5999755859375</AltitudeMeters>
            <DistanceMeters>NAN</DistanceMeters>
          </Trackpoint>
          <Trackpoint>
            <Time>2021-04-03T15:26:26.000Z</Time>
            <Position>
              <LatitudeDegrees>42.32634832151234149932861328125</LatitudeDegrees>
              <LongitudeDegrees>2.46077514253556728363037109375</LongitudeDegrees>
            </Position>
            <AltitudeMeters>696.5999755859375</AltitudeMeters>
            <DistanceMeters>NAN</DistanceMeters>
          </Trackpoint>
          <Trackpoint>
            <Time>2021-04-03T15:26:34.000Z</Time>
            <Position>
              <LatitudeDegrees>42.3263484053313732147216796875</LatitudeDegrees>
              <LongitudeDegrees>2.46077598072588443756103515625</LongitudeDegrees>
            </Position>
            <AltitudeMeters>696.5999755859375</AltitudeMeters>
            <DistanceMeters>NAN</DistanceMeters>
          </Trackpoint>
          <Trackpoint>
            <Time>2021-04-03T15:26:36.000Z</Time>
            <Position>
              <LatitudeDegrees>42.326348237693309783935546875</LatitudeDegrees>
              <LongitudeDegrees>2.46077598072588443756103515625</LongitudeDegrees>
            </Position>
            <AltitudeMeters>696.5999755859375</AltitudeMeters>
            <DistanceMeters>NAN</DistanceMeters>
          </Trackpoint>
          <Trackpoint>
            <Time>2021-04-03T15:27:29.000Z</Time>
            <Position>
              <LatitudeDegrees>42.3263128660619258880615234375</LatitudeDegrees>
              <LongitudeDegrees>2.46082442812621593475341796875</LongitudeDegrees>
            </Position>
            <AltitudeMeters>696.5999755859375</AltitudeMeters>
            <DistanceMeters>NAN</DistanceMeters>
          </Trackpoint>
          <Trackpoint>
            <Time>2021-04-03T15:27:33.000Z</Time>
            <Position>
              <LatitudeDegrees>42.32631311751902103424072265625</LatitudeDegrees>
              <LongitudeDegrees>2.4608330614864826202392578125</LongitudeDegrees>
            </Position>
            <AltitudeMeters>696.5999755859375</AltitudeMeters>
            <DistanceMeters>NAN</DistanceMeters>
          </Trackpoint>
          <Trackpoint>
            <Time>2021-04-03T15:27:42.000Z</Time>
            <Position>
              <LatitudeDegrees>42.32631060294806957244873046875</LatitudeDegrees>
              <LongitudeDegrees>2.46085770428180694580078125</LongitudeDegrees>
            </Position>
            <AltitudeMeters>696.5999755859375</AltitudeMeters>
            <DistanceMeters>NAN</DistanceMeters>
          </Trackpoint>
          <Trackpoint>
            <Time>2021-04-03T15:27:45.000Z</Time>
            <Position>
              <LatitudeDegrees>42.32627145946025848388671875</LatitudeDegrees>
              <LongitudeDegrees>2.46084831655025482177734375</LongitudeDegrees>
            </Position>
            <AltitudeMeters>696.5999755859375</AltitudeMeters>
            <DistanceMeters>NAN</DistanceMeters>
          </Trackpoint>
          <Trackpoint>
            <Time>2021-04-03T15:27:54.000Z</Time>
            <Position>
              <LatitudeDegrees>42.3262064158916473388671875</LatitudeDegrees>
              <LongitudeDegrees>2.4608380906283855438232421875</LongitudeDegrees>
            </Position>
            <AltitudeMeters>696.5999755859375</AltitudeMeters>
            <DistanceMeters>NAN</DistanceMeters>
          </Trackpoint>
          <Trackpoint>
            <Time>2021-04-03T15:28:05.000Z</Time>
            <Position>
              <LatitudeDegrees>42.3262320645153522491455078125</LatitudeDegrees>
              <LongitudeDegrees>2.460823170840740203857421875</LongitudeDegrees>
            </Position>
            <AltitudeMeters>696.5999755859375</AltitudeMeters>
            <DistanceMeters>NAN</DistanceMeters>
          </Trackpoint>
          <Trackpoint>
            <Time>2021-04-03T15:28:16.000Z</Time>
            <Position>
              <LatitudeDegrees>42.3262411169707775115966796875</LatitudeDegrees>
              <LongitudeDegrees>2.4608230032026767730712890625</LongitudeDegrees>
            </Position>
            <AltitudeMeters>696.5999755859375</AltitudeMeters>
            <DistanceMeters>NAN</DistanceMeters>
          </Trackpoint>
          <Trackpoint>
            <Time>2021-04-03T15:28:26.000Z</Time>
            <Position>
              <LatitudeDegrees>42.3262411169707775115966796875</LatitudeDegrees>
              <LongitudeDegrees>2.46081671677529811859130859375</LongitudeDegrees>
            </Position>
            <AltitudeMeters>696.5999755859375</AltitudeMeters>
            <DistanceMeters>NAN</DistanceMeters>
          </Trackpoint>
          <Trackpoint>
            <Time>2021-04-03T15:28:28.000Z</Time>
            <Position>
              <LatitudeDegrees>42.32624790631234645843505859375</LatitudeDegrees>
              <LongitudeDegrees>2.4608052335679531097412109375</LongitudeDegrees>
            </Position>
            <AltitudeMeters>696.5999755859375</AltitudeMeters>
            <DistanceMeters>NAN</DistanceMeters>
          </Trackpoint>
          <Trackpoint>
            <Time>2021-04-03T15:29:00.000Z</Time>
            <Position>
              <LatitudeDegrees>42.326275147497653961181640625</LatitudeDegrees>
              <LongitudeDegrees>2.4607993662357330322265625</LongitudeDegrees>
            </Position>
            <AltitudeMeters>696.5999755859375</AltitudeMeters>
            <DistanceMeters>NAN</DistanceMeters>
          </Trackpoint>
          <Trackpoint>
            <Time>2021-04-03T15:29:06.000Z</Time>
            <Position>
              <LatitudeDegrees>42.3262761533260345458984375</LatitudeDegrees>
              <LongitudeDegrees>2.4607993662357330322265625</LongitudeDegrees>
            </Position>
            <AltitudeMeters>696.5999755859375</AltitudeMeters>
            <DistanceMeters>NAN</DistanceMeters>
          </Trackpoint>
          <Trackpoint>
            <Time>2021-04-03T15:29:08.000Z</Time>
            <Position>
              <LatitudeDegrees>42.32627640478312969207763671875</LatitudeDegrees>
              <LongitudeDegrees>2.4607993662357330322265625</LongitudeDegrees>
            </Position>
            <AltitudeMeters>696.5999755859375</AltitudeMeters>
            <DistanceMeters>NAN</DistanceMeters>
          </Trackpoint>
          <Trackpoint>
            <Time>2021-04-03T15:29:17.000Z</Time>
            <Position>
              <LatitudeDegrees>42.326233573257923126220703125</LatitudeDegrees>
              <LongitudeDegrees>2.460798360407352447509765625</LongitudeDegrees>
            </Position>
            <AltitudeMeters>696.5999755859375</AltitudeMeters>
            <DistanceMeters>NAN</DistanceMeters>
          </Trackpoint>
          <Trackpoint>
            <Time>2021-04-03T15:29:19.000Z</Time>
            <Position>
              <LatitudeDegrees>42.32620708644390106201171875</LatitudeDegrees>
              <LongitudeDegrees>2.460763491690158843994140625</LongitudeDegrees>
            </Position>
            <AltitudeMeters>696.5999755859375</AltitudeMeters>
            <DistanceMeters>NAN</DistanceMeters>
          </Trackpoint>
          <Trackpoint>
            <Time>2021-04-03T15:29:21.000Z</Time>
            <Position>
              <LatitudeDegrees>42.3262008838355541229248046875</LatitudeDegrees>
              <LongitudeDegrees>2.46075846254825592041015625</LongitudeDegrees>
            </Position>
            <AltitudeMeters>696.5999755859375</AltitudeMeters>
            <DistanceMeters>NAN</DistanceMeters>
          </Trackpoint>
          <Trackpoint>
            <Time>2021-04-03T15:29:24.000Z</Time>
            <Position>
              <LatitudeDegrees>42.32618085108697414398193359375</LatitudeDegrees>
              <LongitudeDegrees>2.460762821137905120849609375</LongitudeDegrees>
            </Position>
            <AltitudeMeters>696.5999755859375</AltitudeMeters>
            <DistanceMeters>NAN</DistanceMeters>
          </Trackpoint>
          <Trackpoint>
            <Time>2021-04-03T15:29:26.000Z</Time>
            <Position>
              <LatitudeDegrees>42.32615805231034755706787109375</LatitudeDegrees>
              <LongitudeDegrees>2.4607569538056850433349609375</LongitudeDegrees>
            </Position>
            <AltitudeMeters>696.5999755859375</AltitudeMeters>
            <DistanceMeters>NAN</DistanceMeters>
          </Trackpoint>
          <Trackpoint>
            <Time>2021-04-03T15:29:33.000Z</Time>
            <Position>
              <LatitudeDegrees>42.32620918191969394683837890625</LatitudeDegrees>
              <LongitudeDegrees>2.460770197212696075439453125</LongitudeDegrees>
            </Position>
            <AltitudeMeters>696.5999755859375</AltitudeMeters>
            <DistanceMeters>NAN</DistanceMeters>
          </Trackpoint>
          <Trackpoint>
            <Time>2021-04-03T15:29:40.000Z</Time>
            <Position>
              <LatitudeDegrees>42.32622426934540271759033203125</LatitudeDegrees>
              <LongitudeDegrees>2.46078251861035823822021484375</LongitudeDegrees>
            </Position>
            <AltitudeMeters>696.5999755859375</AltitudeMeters>
            <DistanceMeters>NAN</DistanceMeters>
          </Trackpoint>
          <Trackpoint>
            <Time>2021-04-03T15:29:45.000Z</Time>
            <Position>
              <LatitudeDegrees>42.3262126184999942779541015625</LatitudeDegrees>
              <LongitudeDegrees>2.460772879421710968017578125</LongitudeDegrees>
            </Position>
            <AltitudeMeters>696.5999755859375</AltitudeMeters>
            <DistanceMeters>NAN</DistanceMeters>
          </Trackpoint>
          <Trackpoint>
            <Time>2021-04-03T15:29:49.000Z</Time>
            <Position>
              <LatitudeDegrees>42.32622661627829074859619140625</LatitudeDegrees>
              <LongitudeDegrees>2.46077992022037506103515625</LongitudeDegrees>
            </Position>
            <AltitudeMeters>696.5999755859375</AltitudeMeters>
            <DistanceMeters>NAN</DistanceMeters>
          </Trackpoint>
          <Trackpoint>
            <Time>2021-04-03T15:29:54.000Z</Time>
            <Position>
              <LatitudeDegrees>42.3262344114482402801513671875</LatitudeDegrees>
              <LongitudeDegrees>2.46080271899700164794921875</LongitudeDegrees>
            </Position>
            <AltitudeMeters>696.5999755859375</AltitudeMeters>
            <DistanceMeters>NAN</DistanceMeters>
          </Trackpoint>
          <Trackpoint>
            <Time>2021-04-03T15:29:58.000Z</Time>
            <Position>
              <LatitudeDegrees>42.3262186534702777862548828125</LatitudeDegrees>
              <LongitudeDegrees>2.46078955940902233123779296875</LongitudeDegrees>
            </Position>
            <AltitudeMeters>696.5999755859375</AltitudeMeters>
            <DistanceMeters>NAN</DistanceMeters>
          </Trackpoint>
          <Trackpoint>
            <Time>2021-04-03T15:30:04.000Z</Time>
            <Position>
              <LatitudeDegrees>42.326226197183132171630859375</LatitudeDegrees>
              <LongitudeDegrees>2.4607430398464202880859375</LongitudeDegrees>
            </Position>
            <AltitudeMeters>696.5999755859375</AltitudeMeters>
            <DistanceMeters>NAN</DistanceMeters>
          </Trackpoint>
          <Trackpoint>
            <Time>2021-04-03T15:30:06.000Z</Time>
            <Position>
              <LatitudeDegrees>42.32622921466827392578125</LatitudeDegrees>
              <LongitudeDegrees>2.46074127964675426483154296875</LongitudeDegrees>
            </Position>
            <AltitudeMeters>696.5999755859375</AltitudeMeters>
            <DistanceMeters>NAN</DistanceMeters>
          </Trackpoint>
          <Trackpoint>
            <Time>2021-04-03T15:30:10.000Z</Time>
            <Position>
              <LatitudeDegrees>42.3262397758662700653076171875</LatitudeDegrees>
              <LongitudeDegrees>2.4607609771192073822021484375</LongitudeDegrees>
            </Position>
            <AltitudeMeters>696.5999755859375</AltitudeMeters>
            <DistanceMeters>NAN</DistanceMeters>
          </Trackpoint>
          <Trackpoint>
            <Time>2021-04-03T15:30:11.000Z</Time>
            <Position>
              <LatitudeDegrees>42.3262397758662700653076171875</LatitudeDegrees>
              <LongitudeDegrees>2.4607609771192073822021484375</LongitudeDegrees>
            </Position>
            <AltitudeMeters>696.5999755859375</AltitudeMeters>
            <DistanceMeters>NAN</DistanceMeters>
          </Trackpoint>
          <Trackpoint>
            <Time>2021-04-03T15:30:14.000Z</Time>
            <Position>
              <LatitudeDegrees>42.3262397758662700653076171875</LatitudeDegrees>
              <LongitudeDegrees>2.4607609771192073822021484375</LongitudeDegrees>
            </Position>
            <AltitudeMeters>696.5999755859375</AltitudeMeters>
            <DistanceMeters>NAN</DistanceMeters>
          </Trackpoint>
          <Trackpoint>
            <Time>2021-04-03T15:30:16.000Z</Time>
            <Position>
              <LatitudeDegrees>42.3262397758662700653076171875</LatitudeDegrees>
              <LongitudeDegrees>2.4607609771192073822021484375</LongitudeDegrees>
            </Position>
            <AltitudeMeters>696.5999755859375</AltitudeMeters>
            <DistanceMeters>NAN</DistanceMeters>
          </Trackpoint>
          <Trackpoint>
            <Time>2021-04-03T15:30:20.000Z</Time>
            <Position>
              <LatitudeDegrees>42.3262397758662700653076171875</LatitudeDegrees>
              <LongitudeDegrees>2.4607609771192073822021484375</LongitudeDegrees>
            </Position>
            <AltitudeMeters>696.5999755859375</AltitudeMeters>
            <DistanceMeters>NAN</DistanceMeters>
          </Trackpoint>
          <Trackpoint>
            <Time>2021-04-03T15:30:23.000Z</Time>
            <Position>
              <LatitudeDegrees>42.3262397758662700653076171875</LatitudeDegrees>
              <LongitudeDegrees>2.4607609771192073822021484375</LongitudeDegrees>
            </Position>
            <AltitudeMeters>696.5999755859375</AltitudeMeters>
            <DistanceMeters>NAN</DistanceMeters>
          </Trackpoint>
          <Trackpoint>
            <Time>2021-04-03T15:30:41.000Z</Time>
            <Position>
              <LatitudeDegrees>42.3262605629861354827880859375</LatitudeDegrees>
              <LongitudeDegrees>2.4606811814010143280029296875</LongitudeDegrees>
            </Position>
            <AltitudeMeters>696.5999755859375</AltitudeMeters>
            <DistanceMeters>NAN</DistanceMeters>
          </Trackpoint>
          <Trackpoint>
            <Time>2021-04-03T15:30:43.000Z</Time>
            <Position>
              <LatitudeDegrees>42.326261065900325775146484375</LatitudeDegrees>
              <LongitudeDegrees>2.4606597237288951873779296875</LongitudeDegrees>
            </Position>
            <AltitudeMeters>696.5999755859375</AltitudeMeters>
            <DistanceMeters>NAN</DistanceMeters>
          </Trackpoint>
          <Trackpoint>
            <Time>2021-04-03T15:30:47.000Z</Time>
            <Position>
              <LatitudeDegrees>42.3262676037847995758056640625</LatitudeDegrees>
              <LongitudeDegrees>2.4606064148247241973876953125</LongitudeDegrees>
            </Position>
            <AltitudeMeters>697.4000244140625</AltitudeMeters>
            <DistanceMeters>NAN</DistanceMeters>
          </Trackpoint>
          <Trackpoint>
            <Time>2021-04-03T15:30:49.000Z</Time>
            <Position>
              <LatitudeDegrees>42.326262407004833221435546875</LatitudeDegrees>
              <LongitudeDegrees>2.46059350669384002685546875</LongitudeDegrees>
            </Position>
            <AltitudeMeters>697.5999755859375</AltitudeMeters>
            <DistanceMeters>NAN</DistanceMeters>
          </Trackpoint>
          <Trackpoint>
            <Time>2021-04-03T15:30:52.000Z</Time>
            <Position>
              <LatitudeDegrees>42.32625494711101055145263671875</LatitudeDegrees>
              <LongitudeDegrees>2.46056693606078624725341796875</LongitudeDegrees>
            </Position>
            <AltitudeMeters>697.79998779296875</AltitudeMeters>
            <DistanceMeters>NAN</DistanceMeters>
          </Trackpoint>
          <Trackpoint>
            <Time>2021-04-03T15:30:56.000Z</Time>
            <Position>
              <LatitudeDegrees>42.3262478224933147430419921875</LatitudeDegrees>
              <LongitudeDegrees>2.46052804403007030487060546875</LongitudeDegrees>
            </Position>
            <AltitudeMeters>698.4000244140625</AltitudeMeters>
            <DistanceMeters>NAN</DistanceMeters>
          </Trackpoint>
          <Trackpoint>
            <Time>2021-04-03T15:30:57.000Z</Time>
            <Position>
              <LatitudeDegrees>42.3262468166649341583251953125</LatitudeDegrees>
              <LongitudeDegrees>2.46051982976496219635009765625</LongitudeDegrees>
            </Position>
            <AltitudeMeters>698.4000244140625</AltitudeMeters>
            <DistanceMeters>NAN</DistanceMeters>
          </Trackpoint>
          <Trackpoint>
            <Time>2021-04-03T15:31:04.000Z</Time>
            <Position>
              <LatitudeDegrees>42.32623952440917491912841796875</LatitudeDegrees>
              <LongitudeDegrees>2.46047289110720157623291015625</LongitudeDegrees>
            </Position>
            <AltitudeMeters>699.4000244140625</AltitudeMeters>
            <DistanceMeters>NAN</DistanceMeters>
          </Trackpoint>
          <Trackpoint>
            <Time>2021-04-03T15:31:05.000Z</Time>
            <Position>
              <LatitudeDegrees>42.32623659074306488037109375</LatitudeDegrees>
              <LongitudeDegrees>2.46046937070786952972412109375</LongitudeDegrees>
            </Position>
            <AltitudeMeters>699.5999755859375</AltitudeMeters>
            <DistanceMeters>NAN</DistanceMeters>
          </Trackpoint>
          <Trackpoint>
            <Time>2021-04-03T15:31:10.000Z</Time>
            <Position>
              <LatitudeDegrees>42.32622493989765644073486328125</LatitudeDegrees>
              <LongitudeDegrees>2.460449002683162689208984375</LongitudeDegrees>
            </Position>
            <AltitudeMeters>700.20001220703125</AltitudeMeters>
            <DistanceMeters>NAN</DistanceMeters>
          </Trackpoint>
          <Trackpoint>
            <Time>2021-04-03T15:31:11.000Z</Time>
            <Position>
              <LatitudeDegrees>42.3262251913547515869140625</LatitudeDegrees>
              <LongitudeDegrees>2.46044732630252838134765625</LongitudeDegrees>
            </Position>
            <AltitudeMeters>700.4000244140625</AltitudeMeters>
            <DistanceMeters>NAN</DistanceMeters>
          </Trackpoint>
          <Trackpoint>
            <Time>2021-04-03T15:31:12.000Z</Time>
            <Position>
              <LatitudeDegrees>42.32622359879314899444580078125</LatitudeDegrees>
              <LongitudeDegrees>2.4604411236941814422607421875</LongitudeDegrees>
            </Position>
            <AltitudeMeters>700.4000244140625</AltitudeMeters>
            <DistanceMeters>NAN</DistanceMeters>
          </Trackpoint>
          <Trackpoint>
            <Time>2021-04-03T15:31:13.000Z</Time>
            <Position>
              <LatitudeDegrees>42.326222173869609832763671875</LatitudeDegrees>
              <LongitudeDegrees>2.4604345858097076416015625</LongitudeDegrees>
            </Position>
            <AltitudeMeters>700.5999755859375</AltitudeMeters>
            <DistanceMeters>NAN</DistanceMeters>
          </Trackpoint>
          <Trackpoint>
            <Time>2021-04-03T15:31:15.000Z</Time>
            <Position>
              <LatitudeDegrees>42.32621571980416774749755859375</LatitudeDegrees>
              <LongitudeDegrees>2.4604122899472713470458984375</LongitudeDegrees>
            </Position>
            <AltitudeMeters>700.79998779296875</AltitudeMeters>
            <DistanceMeters>NAN</DistanceMeters>
          </Trackpoint>
          <Trackpoint>
            <Time>2021-04-03T15:31:18.000Z</Time>
            <Position>
              <LatitudeDegrees>42.32623600400984287261962890625</LatitudeDegrees>
              <LongitudeDegrees>2.46035018004477024078369140625</LongitudeDegrees>
            </Position>
            <AltitudeMeters>701.20001220703125</AltitudeMeters>
            <DistanceMeters>NAN</DistanceMeters>
          </Trackpoint>
          <Trackpoint>
            <Time>2021-04-03T15:31:20.000Z</Time>
            <Position>
              <LatitudeDegrees>42.3262562043964862823486328125</LatitudeDegrees>
              <LongitudeDegrees>2.46032000519335269927978515625</LongitudeDegrees>
            </Position>
            <AltitudeMeters>701.5999755859375</AltitudeMeters>
            <DistanceMeters>NAN</DistanceMeters>
          </Trackpoint>
          <Trackpoint>
            <Time>2021-04-03T15:31:23.000Z</Time>
            <Position>
              <LatitudeDegrees>42.32625712640583515167236328125</LatitudeDegrees>
              <LongitudeDegrees>2.4602972902357578277587890625</LongitudeDegrees>
            </Position>
            <AltitudeMeters>702</AltitudeMeters>
            <DistanceMeters>NAN</DistanceMeters>
          </Trackpoint>
          <Trackpoint>
            <Time>2021-04-03T15:31:24.000Z</Time>
            <Position>
              <LatitudeDegrees>42.32625276781618595123291015625</LatitudeDegrees>
              <LongitudeDegrees>2.460290081799030303955078125</LongitudeDegrees>
            </Position>
            <AltitudeMeters>702.20001220703125</AltitudeMeters>
            <DistanceMeters>NAN</DistanceMeters>
          </Trackpoint>
          <Trackpoint>
            <Time>2021-04-03T15:31:26.000Z</Time>
            <Position>
              <LatitudeDegrees>42.32625000178813934326171875</LatitudeDegrees>
              <LongitudeDegrees>2.46026468463242053985595703125</LongitudeDegrees>
            </Position>
            <AltitudeMeters>702.4000244140625</AltitudeMeters>
            <DistanceMeters>NAN</DistanceMeters>
          </Trackpoint>
          <Trackpoint>
            <Time>2021-04-03T15:31:28.000Z</Time>
            <Position>
              <LatitudeDegrees>42.3262595571577548980712890625</LatitudeDegrees>
              <LongitudeDegrees>2.46024406515061855316162109375</LongitudeDegrees>
            </Position>
            <AltitudeMeters>702.5999755859375</AltitudeMeters>
            <DistanceMeters>NAN</DistanceMeters>
          </Trackpoint>
          <Trackpoint>
            <Time>2021-04-03T15:31:31.000Z</Time>
            <Position>
              <LatitudeDegrees>42.32626634649932384490966796875</LatitudeDegrees>
              <LongitudeDegrees>2.46021674014627933502197265625</LongitudeDegrees>
            </Position>
            <AltitudeMeters>703</AltitudeMeters>
            <DistanceMeters>NAN</DistanceMeters>
          </Trackpoint>
          <Trackpoint>
            <Time>2021-04-03T15:31:33.000Z</Time>
            <Position>
              <LatitudeDegrees>42.32628109864890575408935546875</LatitudeDegrees>
              <LongitudeDegrees>2.460191510617733001708984375</LongitudeDegrees>
            </Position>
            <AltitudeMeters>703.4000244140625</AltitudeMeters>
            <DistanceMeters>NAN</DistanceMeters>
          </Trackpoint>
          <Trackpoint>
            <Time>2021-04-03T15:31:34.000Z</Time>
            <Position>
              <LatitudeDegrees>42.32628612779080867767333984375</LatitudeDegrees>
              <LongitudeDegrees>2.46017684228718280792236328125</LongitudeDegrees>
            </Position>
            <AltitudeMeters>703.4000244140625</AltitudeMeters>
            <DistanceMeters>NAN</DistanceMeters>
          </Trackpoint>
          <Trackpoint>
            <Time>2021-04-03T15:31:36.000Z</Time>
            <Position>
              <LatitudeDegrees>42.32628352940082550048828125</LatitudeDegrees>
              <LongitudeDegrees>2.46015823446214199066162109375</LongitudeDegrees>
            </Position>
            <AltitudeMeters>703.79998779296875</AltitudeMeters>
            <DistanceMeters>NAN</DistanceMeters>
          </Trackpoint>
          <Trackpoint>
            <Time>2021-04-03T15:31:40.000Z</Time>
            <Position>
              <LatitudeDegrees>42.326278500258922576904296875</LatitudeDegrees>
              <LongitudeDegrees>2.46013442985713481903076171875</LongitudeDegrees>
            </Position>
            <AltitudeMeters>704.4000244140625</AltitudeMeters>
            <DistanceMeters>NAN</DistanceMeters>
          </Trackpoint>
          <Trackpoint>
            <Time>2021-04-03T15:31:41.000Z</Time>
            <Position>
              <LatitudeDegrees>42.32627640478312969207763671875</LatitudeDegrees>
              <LongitudeDegrees>2.46012705378234386444091796875</LongitudeDegrees>
            </Position>
            <AltitudeMeters>704.4000244140625</AltitudeMeters>
            <DistanceMeters>NAN</DistanceMeters>
          </Trackpoint>
          <Trackpoint>
            <Time>2021-04-03T15:31:43.000Z</Time>
            <Position>
              <LatitudeDegrees>42.3262790031731128692626953125</LatitudeDegrees>
              <LongitudeDegrees>2.46011464856564998626708984375</LongitudeDegrees>
            </Position>
            <AltitudeMeters>704.79998779296875</AltitudeMeters>
            <DistanceMeters>NAN</DistanceMeters>
          </Trackpoint>
          <Trackpoint>
            <Time>2021-04-03T15:31:45.000Z</Time>
            <Position>
              <LatitudeDegrees>42.3262860439717769622802734375</LatitudeDegrees>
              <LongitudeDegrees>2.4600978009402751922607421875</LongitudeDegrees>
            </Position>
            <AltitudeMeters>705.20001220703125</AltitudeMeters>
            <DistanceMeters>NAN</DistanceMeters>
          </Trackpoint>
          <Trackpoint>
            <Time>2021-04-03T15:31:50.000Z</Time>
            <Position>
              <LatitudeDegrees>42.32631211169064044952392578125</LatitudeDegrees>
              <LongitudeDegrees>2.4600671231746673583984375</LongitudeDegrees>
            </Position>
            <AltitudeMeters>705.79998779296875</AltitudeMeters>
            <DistanceMeters>NAN</DistanceMeters>
          </Trackpoint>
          <Trackpoint>
            <Time>2021-04-03T15:31:51.000Z</Time>
            <Position>
              <LatitudeDegrees>42.32631797902286052703857421875</LatitudeDegrees>
              <LongitudeDegrees>2.46006511151790618896484375</LongitudeDegrees>
            </Position>
            <AltitudeMeters>705.79998779296875</AltitudeMeters>
            <DistanceMeters>NAN</DistanceMeters>
          </Trackpoint>
          <Trackpoint>
            <Time>2021-04-03T15:31:52.000Z</Time>
            <Position>
              <LatitudeDegrees>42.326323427259922027587890625</LatitudeDegrees>
              <LongitudeDegrees>2.46006184257566928863525390625</LongitudeDegrees>
            </Position>
            <AltitudeMeters>706</AltitudeMeters>
            <DistanceMeters>NAN</DistanceMeters>
          </Trackpoint>
          <Trackpoint>
            <Time>2021-04-03T15:31:59.000Z</Time>
            <Position>
              <LatitudeDegrees>42.3263668455183506011962890625</LatitudeDegrees>
              <LongitudeDegrees>2.4600180052220821380615234375</LongitudeDegrees>
            </Position>
            <AltitudeMeters>706.5999755859375</AltitudeMeters>
            <DistanceMeters>NAN</DistanceMeters>
          </Trackpoint>
          <Trackpoint>
            <Time>2021-04-03T15:32:00.000Z</Time>
            <Position>
              <LatitudeDegrees>42.32637070119380950927734375</LatitudeDegrees>
              <LongitudeDegrees>2.460010461509227752685546875</LongitudeDegrees>
            </Position>
            <AltitudeMeters>706.5999755859375</AltitudeMeters>
            <DistanceMeters>NAN</DistanceMeters>
          </Trackpoint>
          <Trackpoint>
            <Time>2021-04-03T15:32:07.000Z</Time>
            <Position>
              <LatitudeDegrees>42.32640364207327365875244140625</LatitudeDegrees>
              <LongitudeDegrees>2.459978945553302764892578125</LongitudeDegrees>
            </Position>
            <AltitudeMeters>706.4000244140625</AltitudeMeters>
            <DistanceMeters>NAN</DistanceMeters>
          </Trackpoint>
          <Trackpoint>
            <Time>2021-04-03T15:32:13.000Z</Time>
            <Position>
              <LatitudeDegrees>42.326442115008831024169921875</LatitudeDegrees>
              <LongitudeDegrees>2.45994164608418941497802734375</LongitudeDegrees>
            </Position>
            <AltitudeMeters>705.5999755859375</AltitudeMeters>
            <DistanceMeters>NAN</DistanceMeters>
          </Trackpoint>
          <Trackpoint>
            <Time>2021-04-03T15:32:15.000Z</Time>
            <Position>
              <LatitudeDegrees>42.32646591961383819580078125</LatitudeDegrees>
              <LongitudeDegrees>2.45993745513260364532470703125</LongitudeDegrees>
            </Position>
            <AltitudeMeters>705.4000244140625</AltitudeMeters>
            <DistanceMeters>NAN</DistanceMeters>
          </Trackpoint>
          <Trackpoint>
            <Time>2021-04-03T15:32:17.000Z</Time>
            <Position>
              <LatitudeDegrees>42.3264821805059909820556640625</LatitudeDegrees>
              <LongitudeDegrees>2.4599288217723369598388671875</LongitudeDegrees>
            </Position>
            <AltitudeMeters>705.4000244140625</AltitudeMeters>
            <DistanceMeters>NAN</DistanceMeters>
          </Trackpoint>
          <Trackpoint>
            <Time>2021-04-03T15:32:19.000Z</Time>
            <Position>
              <LatitudeDegrees>42.32649031095206737518310546875</LatitudeDegrees>
              <LongitudeDegrees>2.45990325696766376495361328125</LongitudeDegrees>
            </Position>
            <AltitudeMeters>705.20001220703125</AltitudeMeters>
            <DistanceMeters>NAN</DistanceMeters>
          </Trackpoint>
          <Trackpoint>
            <Time>2021-04-03T15:32:21.000Z</Time>
            <Position>
              <LatitudeDegrees>42.32649483717978000640869140625</LatitudeDegrees>
              <LongitudeDegrees>2.459887079894542694091796875</LongitudeDegrees>
            </Position>
            <AltitudeMeters>705.20001220703125</AltitudeMeters>
            <DistanceMeters>NAN</DistanceMeters>
          </Trackpoint>
          <Trackpoint>
            <Time>2021-04-03T15:32:22.000Z</Time>
            <Position>
              <LatitudeDegrees>42.32649986632168292999267578125</LatitudeDegrees>
              <LongitudeDegrees>2.45988112874329090118408203125</LongitudeDegrees>
            </Position>
            <AltitudeMeters>705.20001220703125</AltitudeMeters>
            <DistanceMeters>NAN</DistanceMeters>
          </Trackpoint>
          <Trackpoint>
            <Time>2021-04-03T15:32:25.000Z</Time>
            <Position>
              <LatitudeDegrees>42.3265106789767742156982421875</LatitudeDegrees>
              <LongitudeDegrees>2.4598496966063976287841796875</LongitudeDegrees>
            </Position>
            <AltitudeMeters>705</AltitudeMeters>
            <DistanceMeters>NAN</DistanceMeters>
          </Trackpoint>
          <Trackpoint>
            <Time>2021-04-03T15:32:27.000Z</Time>
            <Position>
              <LatitudeDegrees>42.32651847414672374725341796875</LatitudeDegrees>
              <LongitudeDegrees>2.459824718534946441650390625</LongitudeDegrees>
            </Position>
            <AltitudeMeters>704.79998779296875</AltitudeMeters>
            <DistanceMeters>NAN</DistanceMeters>
          </Trackpoint>
          <Trackpoint>
            <Time>2021-04-03T15:32:28.000Z</Time>
            <Position>
              <LatitudeDegrees>42.32651981525123119354248046875</LatitudeDegrees>
              <LongitudeDegrees>2.4598111398518085479736328125</LongitudeDegrees>
            </Position>
            <AltitudeMeters>704.79998779296875</AltitudeMeters>
            <DistanceMeters>NAN</DistanceMeters>
          </Trackpoint>
          <Trackpoint>
            <Time>2021-04-03T15:32:29.000Z</Time>
            <Position>
              <LatitudeDegrees>42.32652182690799236297607421875</LatitudeDegrees>
              <LongitudeDegrees>2.459800578653812408447265625</LongitudeDegrees>
            </Position>
            <AltitudeMeters>704.79998779296875</AltitudeMeters>
            <DistanceMeters>NAN</DistanceMeters>
          </Trackpoint>
          <Trackpoint>
            <Time>2021-04-03T15:32:30.000Z</Time>
            <Position>
              <LatitudeDegrees>42.32652350328862667083740234375</LatitudeDegrees>
              <LongitudeDegrees>2.459792196750640869140625</LongitudeDegrees>
            </Position>
            <AltitudeMeters>704.79998779296875</AltitudeMeters>
            <DistanceMeters>NAN</DistanceMeters>
          </Trackpoint>
          <Trackpoint>
            <Time>2021-04-03T15:32:32.000Z</Time>
            <Position>
              <LatitudeDegrees>42.32652232982218265533447265625</LatitudeDegrees>
              <LongitudeDegrees>2.45977082289755344390869140625</LongitudeDegrees>
            </Position>
            <AltitudeMeters>704.79998779296875</AltitudeMeters>
            <DistanceMeters>NAN</DistanceMeters>
          </Trackpoint>
          <Trackpoint>
            <Time>2021-04-03T15:32:34.000Z</Time>
            <Position>
              <LatitudeDegrees>42.32653071172535419464111328125</LatitudeDegrees>
              <LongitudeDegrees>2.4597477726638317108154296875</LongitudeDegrees>
            </Position>
            <AltitudeMeters>704.79998779296875</AltitudeMeters>
            <DistanceMeters>NAN</DistanceMeters>
          </Trackpoint>
          <Trackpoint>
            <Time>2021-04-03T15:32:36.000Z</Time>
            <Position>
              <LatitudeDegrees>42.32654211111366748809814453125</LatitudeDegrees>
              <LongitudeDegrees>2.45972589589655399322509765625</LongitudeDegrees>
            </Position>
            <AltitudeMeters>705</AltitudeMeters>
            <DistanceMeters>NAN</DistanceMeters>
          </Trackpoint>
          <Trackpoint>
            <Time>2021-04-03T15:32:37.000Z</Time>
            <Position>
              <LatitudeDegrees>42.3265468887984752655029296875</LatitudeDegrees>
              <LongitudeDegrees>2.4597130715847015380859375</LongitudeDegrees>
            </Position>
            <AltitudeMeters>705.20001220703125</AltitudeMeters>
            <DistanceMeters>NAN</DistanceMeters>
          </Trackpoint>
          <Trackpoint>
            <Time>2021-04-03T15:32:39.000Z</Time>
            <Position>
              <LatitudeDegrees>42.32655753381550312042236328125</LatitudeDegrees>
              <LongitudeDegrees>2.45968951843678951263427734375</LongitudeDegrees>
            </Position>
            <AltitudeMeters>705.4000244140625</AltitudeMeters>
            <DistanceMeters>NAN</DistanceMeters>
          </Trackpoint>
          <Trackpoint>
            <Time>2021-04-03T15:32:41.000Z</Time>
            <Position>
              <LatitudeDegrees>42.326566837728023529052734375</LatitudeDegrees>
              <LongitudeDegrees>2.45966370217502117156982421875</LongitudeDegrees>
            </Position>
            <AltitudeMeters>705.4000244140625</AltitudeMeters>
            <DistanceMeters>NAN</DistanceMeters>
          </Trackpoint>
          <Trackpoint>
            <Time>2021-04-03T15:32:43.000Z</Time>
            <Position>
              <LatitudeDegrees>42.32657480053603649139404296875</LatitudeDegrees>
              <LongitudeDegrees>2.45963637717068195343017578125</LongitudeDegrees>
            </Position>
            <AltitudeMeters>705.5999755859375</AltitudeMeters>
            <DistanceMeters>NAN</DistanceMeters>
          </Trackpoint>
          <Trackpoint>
            <Time>2021-04-03T15:32:45.000Z</Time>
            <Position>
              <LatitudeDegrees>42.3265830986201763153076171875</LatitudeDegrees>
              <LongitudeDegrees>2.45960955508053302764892578125</LongitudeDegrees>
            </Position>
            <AltitudeMeters>705.79998779296875</AltitudeMeters>
            <DistanceMeters>NAN</DistanceMeters>
          </Trackpoint>
          <Trackpoint>
            <Time>2021-04-03T15:32:47.000Z</Time>
            <Position>
              <LatitudeDegrees>42.32659625820815563201904296875</LatitudeDegrees>
              <LongitudeDegrees>2.45958977378904819488525390625</LongitudeDegrees>
            </Position>
            <AltitudeMeters>706</AltitudeMeters>
            <DistanceMeters>NAN</DistanceMeters>
          </Trackpoint>
          <Trackpoint>
            <Time>2021-04-03T15:32:48.000Z</Time>
            <Position>
              <LatitudeDegrees>42.32660564593970775604248046875</LatitudeDegrees>
              <LongitudeDegrees>2.4595868401229381561279296875</LongitudeDegrees>
            </Position>
            <AltitudeMeters>705.79998779296875</AltitudeMeters>
            <DistanceMeters>NAN</DistanceMeters>
          </Trackpoint>
          <Trackpoint>
            <Time>2021-04-03T15:32:51.000Z</Time>
            <Position>
              <LatitudeDegrees>42.32662794180214405059814453125</LatitudeDegrees>
              <LongitudeDegrees>2.45957317762076854705810546875</LongitudeDegrees>
            </Position>
            <AltitudeMeters>705.5999755859375</AltitudeMeters>
            <DistanceMeters>NAN</DistanceMeters>
          </Trackpoint>
          <Trackpoint>
            <Time>2021-04-03T15:32:58.000Z</Time>
            <Position>
              <LatitudeDegrees>42.32667756266891956329345703125</LatitudeDegrees>
              <LongitudeDegrees>2.45953227393329143524169921875</LongitudeDegrees>
            </Position>
            <AltitudeMeters>705.5999755859375</AltitudeMeters>
            <DistanceMeters>NAN</DistanceMeters>
          </Trackpoint>
          <Trackpoint>
            <Time>2021-04-03T15:33:03.000Z</Time>
            <Position>
              <LatitudeDegrees>42.3267279379069805145263671875</LatitudeDegrees>
              <LongitudeDegrees>2.45953026227653026580810546875</LongitudeDegrees>
            </Position>
            <AltitudeMeters>705.79998779296875</AltitudeMeters>
            <DistanceMeters>NAN</DistanceMeters>
          </Trackpoint>
          <Trackpoint>
            <Time>2021-04-03T15:33:06.000Z</Time>
            <Position>
              <LatitudeDegrees>42.3267473839223384857177734375</LatitudeDegrees>
              <LongitudeDegrees>2.4595145881175994873046875</LongitudeDegrees>
            </Position>
            <AltitudeMeters>705.79998779296875</AltitudeMeters>
            <DistanceMeters>NAN</DistanceMeters>
          </Trackpoint>
          <Trackpoint>
            <Time>2021-04-03T15:33:08.000Z</Time>
            <Position>
              <LatitudeDegrees>42.32675266452133655548095703125</LatitudeDegrees>
              <LongitudeDegrees>2.459503524005413055419921875</LongitudeDegrees>
            </Position>
            <AltitudeMeters>705.79998779296875</AltitudeMeters>
            <DistanceMeters>NAN</DistanceMeters>
          </Trackpoint>
          <Trackpoint>
            <Time>2021-04-03T15:33:13.000Z</Time>
            <Position>
              <LatitudeDegrees>42.32676557265222072601318359375</LatitudeDegrees>
              <LongitudeDegrees>2.45947527699172496795654296875</LongitudeDegrees>
            </Position>
            <AltitudeMeters>705.79998779296875</AltitudeMeters>
            <DistanceMeters>NAN</DistanceMeters>
          </Trackpoint>
          <Trackpoint>
            <Time>2021-04-03T15:33:14.000Z</Time>
            <Position>
              <LatitudeDegrees>42.3267648182809352874755859375</LatitudeDegrees>
              <LongitudeDegrees>2.45946572162210941314697265625</LongitudeDegrees>
            </Position>
            <AltitudeMeters>705.79998779296875</AltitudeMeters>
            <DistanceMeters>NAN</DistanceMeters>
          </Trackpoint>
          <Trackpoint>
            <Time>2021-04-03T15:33:20.000Z</Time>
            <Position>
              <LatitudeDegrees>42.326738834381103515625</LatitudeDegrees>
              <LongitudeDegrees>2.45940537191927433013916015625</LongitudeDegrees>
            </Position>
            <AltitudeMeters>706.20001220703125</AltitudeMeters>
            <DistanceMeters>NAN</DistanceMeters>
          </Trackpoint>
          <Trackpoint>
            <Time>2021-04-03T15:33:22.000Z</Time>
            <Position>
              <LatitudeDegrees>42.32672768644988536834716796875</LatitudeDegrees>
              <LongitudeDegrees>2.45939330197870731353759765625</LongitudeDegrees>
            </Position>
            <AltitudeMeters>706.5999755859375</AltitudeMeters>
            <DistanceMeters>NAN</DistanceMeters>
          </Trackpoint>
          <Trackpoint>
            <Time>2021-04-03T15:33:23.000Z</Time>
            <Position>
              <LatitudeDegrees>42.3267219029366970062255859375</LatitudeDegrees>
              <LongitudeDegrees>2.45938810519874095916748046875</LongitudeDegrees>
            </Position>
            <AltitudeMeters>706.5999755859375</AltitudeMeters>
            <DistanceMeters>NAN</DistanceMeters>
          </Trackpoint>
          <Trackpoint>
            <Time>2021-04-03T15:33:25.000Z</Time>
            <Position>
              <LatitudeDegrees>42.3267088271677494049072265625</LatitudeDegrees>
              <LongitudeDegrees>2.45937167666852474212646484375</LongitudeDegrees>
            </Position>
            <AltitudeMeters>706.79998779296875</AltitudeMeters>
            <DistanceMeters>NAN</DistanceMeters>
          </Trackpoint>
          <Trackpoint>
            <Time>2021-04-03T15:33:27.000Z</Time>
            <Position>
              <LatitudeDegrees>42.3267004452645778656005859375</LatitudeDegrees>
              <LongitudeDegrees>2.459351308643817901611328125</LongitudeDegrees>
            </Position>
            <AltitudeMeters>707</AltitudeMeters>
            <DistanceMeters>NAN</DistanceMeters>
          </Trackpoint>
          <Trackpoint>
            <Time>2021-04-03T15:33:28.000Z</Time>
            <Position>
              <LatitudeDegrees>42.32670019380748271942138671875</LatitudeDegrees>
              <LongitudeDegrees>2.45934217236936092376708984375</LongitudeDegrees>
            </Position>
            <AltitudeMeters>707</AltitudeMeters>
            <DistanceMeters>NAN</DistanceMeters>
          </Trackpoint>
          <Trackpoint>
            <Time>2021-04-03T15:33:30.000Z</Time>
            <Position>
              <LatitudeDegrees>42.32669918797910213470458984375</LatitudeDegrees>
              <LongitudeDegrees>2.45932490564882755279541015625</LongitudeDegrees>
            </Position>
            <AltitudeMeters>707.4000244140625</AltitudeMeters>
            <DistanceMeters>NAN</DistanceMeters>
          </Trackpoint>
          <Trackpoint>
            <Time>2021-04-03T15:33:33.000Z</Time>
            <Position>
              <LatitudeDegrees>42.32669927179813385009765625</LatitudeDegrees>
              <LongitudeDegrees>2.45930663309991359710693359375</LongitudeDegrees>
            </Position>
            <AltitudeMeters>707.79998779296875</AltitudeMeters>
            <DistanceMeters>NAN</DistanceMeters>
          </Trackpoint>
          <Trackpoint>
            <Time>2021-04-03T15:33:34.000Z</Time>
            <Position>
              <LatitudeDegrees>42.32669885270297527313232421875</LatitudeDegrees>
              <LongitudeDegrees>2.4592974968254566192626953125</LongitudeDegrees>
            </Position>
            <AltitudeMeters>708</AltitudeMeters>
            <DistanceMeters>NAN</DistanceMeters>
          </Trackpoint>
          <Trackpoint>
            <Time>2021-04-03T15:33:35.000Z</Time>
            <Position>
              <LatitudeDegrees>42.326699607074260711669921875</LatitudeDegrees>
              <LongitudeDegrees>2.45928752236068248748779296875</LongitudeDegrees>
            </Position>
            <AltitudeMeters>708</AltitudeMeters>
            <DistanceMeters>NAN</DistanceMeters>
          </Trackpoint>
          <Trackpoint>
            <Time>2021-04-03T15:33:42.000Z</Time>
            <Position>
              <LatitudeDegrees>42.32669784687459468841552734375</LatitudeDegrees>
              <LongitudeDegrees>2.45922264643013477325439453125</LongitudeDegrees>
            </Position>
            <AltitudeMeters>708.79998779296875</AltitudeMeters>
            <DistanceMeters>NAN</DistanceMeters>
          </Trackpoint>
          <Trackpoint>
            <Time>2021-04-03T15:33:44.000Z</Time>
            <Position>
              <LatitudeDegrees>42.3266967572271823883056640625</LatitudeDegrees>
              <LongitudeDegrees>2.45920144021511077880859375</LongitudeDegrees>
            </Position>
            <AltitudeMeters>709.20001220703125</AltitudeMeters>
            <DistanceMeters>NAN</DistanceMeters>
          </Trackpoint>
          <Trackpoint>
            <Time>2021-04-03T15:33:45.000Z</Time>
            <Position>
              <LatitudeDegrees>42.32669566757977008819580078125</LatitudeDegrees>
              <LongitudeDegrees>2.45919129811227321624755859375</LongitudeDegrees>
            </Position>
            <AltitudeMeters>709.20001220703125</AltitudeMeters>
            <DistanceMeters>NAN</DistanceMeters>
          </Trackpoint>
          <Trackpoint>
            <Time>2021-04-03T15:33:46.000Z</Time>
            <Position>
              <LatitudeDegrees>42.32669524848461151123046875</LatitudeDegrees>
              <LongitudeDegrees>2.4591855145990848541259765625</LongitudeDegrees>
            </Position>
            <AltitudeMeters>709.20001220703125</AltitudeMeters>
            <DistanceMeters>NAN</DistanceMeters>
          </Trackpoint>
          <Trackpoint>
            <Time>2021-04-03T15:33:48.000Z</Time>
            <Position>
              <LatitudeDegrees>42.32669214718043804168701171875</LatitudeDegrees>
              <LongitudeDegrees>2.4591633863747119903564453125</LongitudeDegrees>
            </Position>
            <AltitudeMeters>709.4000244140625</AltitudeMeters>
            <DistanceMeters>NAN</DistanceMeters>
          </Trackpoint>
          <Trackpoint>
            <Time>2021-04-03T15:33:50.000Z</Time>
            <Position>
              <LatitudeDegrees>42.326698936522006988525390625</LatitudeDegrees>
              <LongitudeDegrees>2.45914041996002197265625</LongitudeDegrees>
            </Position>
            <AltitudeMeters>709.5999755859375</AltitudeMeters>
            <DistanceMeters>NAN</DistanceMeters>
          </Trackpoint>
          <Trackpoint>
            <Time>2021-04-03T15:33:52.000Z</Time>
            <Position>
              <LatitudeDegrees>42.3267121799290180206298828125</LatitudeDegrees>
              <LongitudeDegrees>2.45912005193531513214111328125</LongitudeDegrees>
            </Position>
            <AltitudeMeters>709.79998779296875</AltitudeMeters>
            <DistanceMeters>NAN</DistanceMeters>
          </Trackpoint>
          <Trackpoint>
            <Time>2021-04-03T15:33:54.000Z</Time>
            <Position>
              <LatitudeDegrees>42.3267151974141597747802734375</LatitudeDegrees>
              <LongitudeDegrees>2.45910546742379665374755859375</LongitudeDegrees>
            </Position>
            <AltitudeMeters>710</AltitudeMeters>
            <DistanceMeters>NAN</DistanceMeters>
          </Trackpoint>
          <Trackpoint>
            <Time>2021-04-03T15:33:55.000Z</Time>
            <Position>
              <LatitudeDegrees>42.32671578414738178253173828125</LatitudeDegrees>
              <LongitudeDegrees>2.45909390039741992950439453125</LongitudeDegrees>
            </Position>
            <AltitudeMeters>710.20001220703125</AltitudeMeters>
            <DistanceMeters>NAN</DistanceMeters>
          </Trackpoint>
          <Trackpoint>
            <Time>2021-04-03T15:33:56.000Z</Time>
            <Position>
              <LatitudeDegrees>42.32671670615673065185546875</LatitudeDegrees>
              <LongitudeDegrees>2.4590839259326457977294921875</LongitudeDegrees>
            </Position>
            <AltitudeMeters>710.4000244140625</AltitudeMeters>
            <DistanceMeters>NAN</DistanceMeters>
          </Trackpoint>
          <Trackpoint>
            <Time>2021-04-03T15:33:59.000Z</Time>
            <Position>
              <LatitudeDegrees>42.3267168737947940826416015625</LatitudeDegrees>
              <LongitudeDegrees>2.45905383490025997161865234375</LongitudeDegrees>
            </Position>
            <AltitudeMeters>710.4000244140625</AltitudeMeters>
            <DistanceMeters>NAN</DistanceMeters>
          </Trackpoint>
          <Trackpoint>
            <Time>2021-04-03T15:34:03.000Z</Time>
            <Position>
              <LatitudeDegrees>42.3267279379069805145263671875</LatitudeDegrees>
              <LongitudeDegrees>2.4590232409536838531494140625</LongitudeDegrees>
            </Position>
            <AltitudeMeters>710.79998779296875</AltitudeMeters>
            <DistanceMeters>NAN</DistanceMeters>
          </Trackpoint>
          <Trackpoint>
            <Time>2021-04-03T15:34:06.000Z</Time>
            <Position>
              <LatitudeDegrees>42.3267363198101520538330078125</LatitudeDegrees>
              <LongitudeDegrees>2.45899759232997894287109375</LongitudeDegrees>
            </Position>
            <AltitudeMeters>711.20001220703125</AltitudeMeters>
            <DistanceMeters>NAN</DistanceMeters>
          </Trackpoint>
          <Trackpoint>
            <Time>2021-04-03T15:34:09.000Z</Time>
            <Position>
              <LatitudeDegrees>42.32674243859946727752685546875</LatitudeDegrees>
              <LongitudeDegrees>2.45896934531629085540771484375</LongitudeDegrees>
            </Position>
            <AltitudeMeters>711.5999755859375</AltitudeMeters>
            <DistanceMeters>NAN</DistanceMeters>
          </Trackpoint>
          <Trackpoint>
            <Time>2021-04-03T15:34:10.000Z</Time>
            <Position>
              <LatitudeDegrees>42.32674461789429187774658203125</LatitudeDegrees>
              <LongitudeDegrees>2.4589581973850727081298828125</LongitudeDegrees>
            </Position>
            <AltitudeMeters>711.79998779296875</AltitudeMeters>
            <DistanceMeters>NAN</DistanceMeters>
          </Trackpoint>
          <Trackpoint>
            <Time>2021-04-03T15:34:11.000Z</Time>
            <Position>
              <LatitudeDegrees>42.32674612663686275482177734375</LatitudeDegrees>
              <LongitudeDegrees>2.45894939638674259185791015625</LongitudeDegrees>
            </Position>
            <AltitudeMeters>711.79998779296875</AltitudeMeters>
            <DistanceMeters>NAN</DistanceMeters>
          </Trackpoint>
          <Trackpoint>
            <Time>2021-04-03T15:34:12.000Z</Time>
            <Position>
              <LatitudeDegrees>42.3267453722655773162841796875</LatitudeDegrees>
              <LongitudeDegrees>2.4589431099593639373779296875</LongitudeDegrees>
            </Position>
            <AltitudeMeters>712</AltitudeMeters>
            <DistanceMeters>NAN</DistanceMeters>
          </Trackpoint>
          <Trackpoint>
            <Time>2021-04-03T15:34:16.000Z</Time>
            <Position>
              <LatitudeDegrees>42.32675719074904918670654296875</LatitudeDegrees>
              <LongitudeDegrees>2.45892425067722797393798828125</LongitudeDegrees>
            </Position>
            <AltitudeMeters>712.20001220703125</AltitudeMeters>
            <DistanceMeters>NAN</DistanceMeters>
          </Trackpoint>
          <Trackpoint>
            <Time>2021-04-03T15:34:17.000Z</Time>
            <Position>
              <LatitudeDegrees>42.326761968433856964111328125</LatitudeDegrees>
              <LongitudeDegrees>2.45891955681145191192626953125</LongitudeDegrees>
            </Position>
            <AltitudeMeters>712.4000244140625</AltitudeMeters>
            <DistanceMeters>NAN</DistanceMeters>
          </Trackpoint>
          <Trackpoint>
            <Time>2021-04-03T15:34:20.000Z</Time>
            <Position>
              <LatitudeDegrees>42.32677093707025051116943359375</LatitudeDegrees>
              <LongitudeDegrees>2.45890849269926548004150390625</LongitudeDegrees>
            </Position>
            <AltitudeMeters>713</AltitudeMeters>
            <DistanceMeters>NAN</DistanceMeters>
          </Trackpoint>
          <Trackpoint>
            <Time>2021-04-03T15:34:22.000Z</Time>
            <Position>
              <LatitudeDegrees>42.32677294872701168060302734375</LatitudeDegrees>
              <LongitudeDegrees>2.45889969170093536376953125</LongitudeDegrees>
            </Position>
            <AltitudeMeters>713.20001220703125</AltitudeMeters>
            <DistanceMeters>NAN</DistanceMeters>
          </Trackpoint>
          <Trackpoint>
            <Time>2021-04-03T15:34:29.000Z</Time>
            <Position>
              <LatitudeDegrees>42.326785437762737274169921875</LatitudeDegrees>
              <LongitudeDegrees>2.45885166339576244354248046875</LongitudeDegrees>
            </Position>
            <AltitudeMeters>714</AltitudeMeters>
            <DistanceMeters>NAN</DistanceMeters>
          </Trackpoint>
          <Trackpoint>
            <Time>2021-04-03T15:34:32.000Z</Time>
            <Position>
              <LatitudeDegrees>42.32678468339145183563232421875</LatitudeDegrees>
              <LongitudeDegrees>2.4588287808001041412353515625</LongitudeDegrees>
            </Position>
            <AltitudeMeters>714.4000244140625</AltitudeMeters>
            <DistanceMeters>NAN</DistanceMeters>
          </Trackpoint>
          <Trackpoint>
            <Time>2021-04-03T15:34:35.000Z</Time>
            <Position>
              <LatitudeDegrees>42.3267829231917858123779296875</LatitudeDegrees>
              <LongitudeDegrees>2.45881092734634876251220703125</LongitudeDegrees>
            </Position>
            <AltitudeMeters>714.5999755859375</AltitudeMeters>
            <DistanceMeters>NAN</DistanceMeters>
          </Trackpoint>
          <Trackpoint>
            <Time>2021-04-03T15:34:38.000Z</Time>
            <Position>
              <LatitudeDegrees>42.32677194289863109588623046875</LatitudeDegrees>
              <LongitudeDegrees>2.45879751630127429962158203125</LongitudeDegrees>
            </Position>
            <AltitudeMeters>715</AltitudeMeters>
            <DistanceMeters>NAN</DistanceMeters>
          </Trackpoint>
          <Trackpoint>
            <Time>2021-04-03T15:34:43.000Z</Time>
            <Position>
              <LatitudeDegrees>42.32674445025622844696044921875</LatitudeDegrees>
              <LongitudeDegrees>2.4587748013436794281005859375</LongitudeDegrees>
            </Position>
            <AltitudeMeters>715.5999755859375</AltitudeMeters>
            <DistanceMeters>NAN</DistanceMeters>
          </Trackpoint>
          <Trackpoint>
            <Time>2021-04-03T15:34:46.000Z</Time>
            <Position>
              <LatitudeDegrees>42.32673548161983489990234375</LatitudeDegrees>
              <LongitudeDegrees>2.45875694788992404937744140625</LongitudeDegrees>
            </Position>
            <AltitudeMeters>716</AltitudeMeters>
            <DistanceMeters>NAN</DistanceMeters>
          </Trackpoint>
          <Trackpoint>
            <Time>2021-04-03T15:34:54.000Z</Time>
            <Position>
              <LatitudeDegrees>42.3267128504812717437744140625</LatitudeDegrees>
              <LongitudeDegrees>2.45868084020912647247314453125</LongitudeDegrees>
            </Position>
            <AltitudeMeters>716.4000244140625</AltitudeMeters>
            <DistanceMeters>NAN</DistanceMeters>
          </Trackpoint>
          <Trackpoint>
            <Time>2021-04-03T15:34:56.000Z</Time>
            <Position>
              <LatitudeDegrees>42.3267108388245105743408203125</LatitudeDegrees>
              <LongitudeDegrees>2.4586715362966060638427734375</LongitudeDegrees>
            </Position>
            <AltitudeMeters>716.5999755859375</AltitudeMeters>
            <DistanceMeters>NAN</DistanceMeters>
          </Trackpoint>
          <Trackpoint>
            <Time>2021-04-03T15:35:00.000Z</Time>
            <Position>
              <LatitudeDegrees>42.32670773752033710479736328125</LatitudeDegrees>
              <LongitudeDegrees>2.458642534911632537841796875</LongitudeDegrees>
            </Position>
            <AltitudeMeters>717.4000244140625</AltitudeMeters>
            <DistanceMeters>NAN</DistanceMeters>
          </Trackpoint>
          <Trackpoint>
            <Time>2021-04-03T15:35:01.000Z</Time>
            <Position>
              <LatitudeDegrees>42.32671025209128856658935546875</LatitudeDegrees>
              <LongitudeDegrees>2.458635158836841583251953125</LongitudeDegrees>
            </Position>
            <AltitudeMeters>717.4000244140625</AltitudeMeters>
            <DistanceMeters>NAN</DistanceMeters>
          </Trackpoint>
          <Trackpoint>
            <Time>2021-04-03T15:35:04.000Z</Time>
            <Position>
              <LatitudeDegrees>42.32670924626290798187255859375</LatitudeDegrees>
              <LongitudeDegrees>2.45861076749861240386962890625</LongitudeDegrees>
            </Position>
            <AltitudeMeters>717.79998779296875</AltitudeMeters>
            <DistanceMeters>NAN</DistanceMeters>
          </Trackpoint>
          <Trackpoint>
            <Time>2021-04-03T15:35:08.000Z</Time>
            <Position>
              <LatitudeDegrees>42.3267058096826076507568359375</LatitudeDegrees>
              <LongitudeDegrees>2.45857640169560909271240234375</LongitudeDegrees>
            </Position>
            <AltitudeMeters>718.20001220703125</AltitudeMeters>
            <DistanceMeters>NAN</DistanceMeters>
          </Trackpoint>
          <Trackpoint>
            <Time>2021-04-03T15:35:12.000Z</Time>
            <Position>
              <LatitudeDegrees>42.32670689933001995086669921875</LatitudeDegrees>
              <LongitudeDegrees>2.45853382162749767303466796875</LongitudeDegrees>
            </Position>
            <AltitudeMeters>718.20001220703125</AltitudeMeters>
            <DistanceMeters>NAN</DistanceMeters>
          </Trackpoint>
          <Trackpoint>
            <Time>2021-04-03T15:35:19.000Z</Time>
            <Position>
              <LatitudeDegrees>42.32670941390097141265869140625</LatitudeDegrees>
              <LongitudeDegrees>2.45845989324152469635009765625</LongitudeDegrees>
            </Position>
            <AltitudeMeters>718.5999755859375</AltitudeMeters>
            <DistanceMeters>NAN</DistanceMeters>
          </Trackpoint>
          <Trackpoint>
            <Time>2021-04-03T15:35:24.000Z</Time>
            <Position>
              <LatitudeDegrees>42.32669935561716556549072265625</LatitudeDegrees>
              <LongitudeDegrees>2.45840608142316341400146484375</LongitudeDegrees>
            </Position>
            <AltitudeMeters>718.5999755859375</AltitudeMeters>
            <DistanceMeters>NAN</DistanceMeters>
          </Trackpoint>
          <Trackpoint>
            <Time>2021-04-03T15:35:27.000Z</Time>
            <Position>
              <LatitudeDegrees>42.32668996788561344146728515625</LatitudeDegrees>
              <LongitudeDegrees>2.4583805166184902191162109375</LongitudeDegrees>
            </Position>
            <AltitudeMeters>718.5999755859375</AltitudeMeters>
            <DistanceMeters>NAN</DistanceMeters>
          </Trackpoint>
          <Trackpoint>
            <Time>2021-04-03T15:35:30.000Z</Time>
            <Position>
              <LatitudeDegrees>42.3266712762415409088134765625</LatitudeDegrees>
              <LongitudeDegrees>2.45836920104920864105224609375</LongitudeDegrees>
            </Position>
            <AltitudeMeters>718.79998779296875</AltitudeMeters>
            <DistanceMeters>NAN</DistanceMeters>
          </Trackpoint>
          <Trackpoint>
            <Time>2021-04-03T15:35:33.000Z</Time>
            <Position>
              <LatitudeDegrees>42.3266551829874515533447265625</LatitudeDegrees>
              <LongitudeDegrees>2.4583637528121471405029296875</LongitudeDegrees>
            </Position>
            <AltitudeMeters>719</AltitudeMeters>
            <DistanceMeters>NAN</DistanceMeters>
          </Trackpoint>
          <Trackpoint>
            <Time>2021-04-03T15:35:37.000Z</Time>
            <Position>
              <LatitudeDegrees>42.32663297094404697418212890625</LatitudeDegrees>
              <LongitudeDegrees>2.4583352543413639068603515625</LongitudeDegrees>
            </Position>
            <AltitudeMeters>719.4000244140625</AltitudeMeters>
            <DistanceMeters>NAN</DistanceMeters>
          </Trackpoint>
          <Trackpoint>
            <Time>2021-04-03T15:35:40.000Z</Time>
            <Position>
              <LatitudeDegrees>42.3266414366662502288818359375</LatitudeDegrees>
              <LongitudeDegrees>2.4583084322512149810791015625</LongitudeDegrees>
            </Position>
            <AltitudeMeters>719.79998779296875</AltitudeMeters>
            <DistanceMeters>NAN</DistanceMeters>
          </Trackpoint>
          <Trackpoint>
            <Time>2021-04-03T15:35:41.000Z</Time>
            <Position>
              <LatitudeDegrees>42.3266397602856159210205078125</LatitudeDegrees>
              <LongitudeDegrees>2.4583020620048046112060546875</LongitudeDegrees>
            </Position>
            <AltitudeMeters>720</AltitudeMeters>
            <DistanceMeters>NAN</DistanceMeters>
          </Trackpoint>
          <Trackpoint>
            <Time>2021-04-03T15:35:48.000Z</Time>
            <Position>
              <LatitudeDegrees>42.32661620713770389556884765625</LatitudeDegrees>
              <LongitudeDegrees>2.45825353078544139862060546875</LongitudeDegrees>
            </Position>
            <AltitudeMeters>720.79998779296875</AltitudeMeters>
            <DistanceMeters>NAN</DistanceMeters>
          </Trackpoint>
          <Trackpoint>
            <Time>2021-04-03T15:35:50.000Z</Time>
            <Position>
              <LatitudeDegrees>42.32660715468227863311767578125</LatitudeDegrees>
              <LongitudeDegrees>2.458240203559398651123046875</LongitudeDegrees>
            </Position>
            <AltitudeMeters>721.20001220703125</AltitudeMeters>
            <DistanceMeters>NAN</DistanceMeters>
          </Trackpoint>
          <Trackpoint>
            <Time>2021-04-03T15:36:00.000Z</Time>
            <Position>
              <LatitudeDegrees>42.3265716992318630218505859375</LatitudeDegrees>
              <LongitudeDegrees>2.4581609107553958892822265625</LongitudeDegrees>
            </Position>
            <AltitudeMeters>722</AltitudeMeters>
            <DistanceMeters>NAN</DistanceMeters>
          </Trackpoint>
          <Trackpoint>
            <Time>2021-04-03T15:36:01.000Z</Time>
            <Position>
              <LatitudeDegrees>42.326569855213165283203125</LatitudeDegrees>
              <LongitudeDegrees>2.458150684833526611328125</LongitudeDegrees>
            </Position>
            <AltitudeMeters>722.20001220703125</AltitudeMeters>
            <DistanceMeters>NAN</DistanceMeters>
          </Trackpoint>
          <Trackpoint>
            <Time>2021-04-03T15:36:04.000Z</Time>
            <Position>
              <LatitudeDegrees>42.32656809501349925994873046875</LatitudeDegrees>
              <LongitudeDegrees>2.45813123881816864013671875</LongitudeDegrees>
            </Position>
            <AltitudeMeters>722.4000244140625</AltitudeMeters>
            <DistanceMeters>NAN</DistanceMeters>
          </Trackpoint>
          <Trackpoint>
            <Time>2021-04-03T15:36:08.000Z</Time>
            <Position>
              <LatitudeDegrees>42.326562143862247467041015625</LatitudeDegrees>
              <LongitudeDegrees>2.458094023168087005615234375</LongitudeDegrees>
            </Position>
            <AltitudeMeters>722.79998779296875</AltitudeMeters>
            <DistanceMeters>NAN</DistanceMeters>
          </Trackpoint>
          <Trackpoint>
            <Time>2021-04-03T15:36:10.000Z</Time>
            <Position>
              <LatitudeDegrees>42.32655703090131282806396484375</LatitudeDegrees>
              <LongitudeDegrees>2.45807717554271221160888671875</LongitudeDegrees>
            </Position>
            <AltitudeMeters>723</AltitudeMeters>
            <DistanceMeters>NAN</DistanceMeters>
          </Trackpoint>
          <Trackpoint>
            <Time>2021-04-03T15:36:12.000Z</Time>
            <Position>
              <LatitudeDegrees>42.3265529237687587738037109375</LatitudeDegrees>
              <LongitudeDegrees>2.45805739425122737884521484375</LongitudeDegrees>
            </Position>
            <AltitudeMeters>723</AltitudeMeters>
            <DistanceMeters>NAN</DistanceMeters>
          </Trackpoint>
          <Trackpoint>
            <Time>2021-04-03T15:36:13.000Z</Time>
            <Position>
              <LatitudeDegrees>42.32655015774071216583251953125</LatitudeDegrees>
              <LongitudeDegrees>2.45804884470999240875244140625</LongitudeDegrees>
            </Position>
            <AltitudeMeters>723.20001220703125</AltitudeMeters>
            <DistanceMeters>NAN</DistanceMeters>
          </Trackpoint>
          <Trackpoint>
            <Time>2021-04-03T15:36:14.000Z</Time>
            <Position>
              <LatitudeDegrees>42.3265465535223484039306640625</LatitudeDegrees>
              <LongitudeDegrees>2.4580422230064868927001953125</LongitudeDegrees>
            </Position>
            <AltitudeMeters>723.20001220703125</AltitudeMeters>
            <DistanceMeters>NAN</DistanceMeters>
          </Trackpoint>
          <Trackpoint>
            <Time>2021-04-03T15:36:20.000Z</Time>
            <Position>
              <LatitudeDegrees>42.326531298458576202392578125</LatitudeDegrees>
              <LongitudeDegrees>2.4580050073564052581787109375</LongitudeDegrees>
            </Position>
            <AltitudeMeters>723.79998779296875</AltitudeMeters>
            <DistanceMeters>NAN</DistanceMeters>
          </Trackpoint>
          <Trackpoint>
            <Time>2021-04-03T15:36:24.000Z</Time>
            <Position>
              <LatitudeDegrees>42.326526939868927001953125</LatitudeDegrees>
              <LongitudeDegrees>2.457971312105655670166015625</LongitudeDegrees>
            </Position>
            <AltitudeMeters>724.20001220703125</AltitudeMeters>
            <DistanceMeters>NAN</DistanceMeters>
          </Trackpoint>
          <Trackpoint>
            <Time>2021-04-03T15:36:31.000Z</Time>
            <Position>
              <LatitudeDegrees>42.32652618549764156341552734375</LatitudeDegrees>
              <LongitudeDegrees>2.4579186737537384033203125</LongitudeDegrees>
            </Position>
            <AltitudeMeters>725.20001220703125</AltitudeMeters>
            <DistanceMeters>NAN</DistanceMeters>
          </Trackpoint>
          <Trackpoint>
            <Time>2021-04-03T15:36:32.000Z</Time>
            <Position>
              <LatitudeDegrees>42.3265277780592441558837890625</LatitudeDegrees>
              <LongitudeDegrees>2.45790886692702770233154296875</LongitudeDegrees>
            </Position>
            <AltitudeMeters>725.20001220703125</AltitudeMeters>
            <DistanceMeters>NAN</DistanceMeters>
          </Trackpoint>
          <Trackpoint>
            <Time>2021-04-03T15:36:36.000Z</Time>
            <Position>
              <LatitudeDegrees>42.32652224600315093994140625</LatitudeDegrees>
              <LongitudeDegrees>2.45787911117076873779296875</LongitudeDegrees>
            </Position>
            <AltitudeMeters>725.5999755859375</AltitudeMeters>
            <DistanceMeters>NAN</DistanceMeters>
          </Trackpoint>
          <Trackpoint>
            <Time>2021-04-03T15:36:41.000Z</Time>
            <Position>
              <LatitudeDegrees>42.326524257659912109375</LatitudeDegrees>
              <LongitudeDegrees>2.45784298516809940338134765625</LongitudeDegrees>
            </Position>
            <AltitudeMeters>726.20001220703125</AltitudeMeters>
            <DistanceMeters>NAN</DistanceMeters>
          </Trackpoint>
          <Trackpoint>
            <Time>2021-04-03T15:36:42.000Z</Time>
            <Position>
              <LatitudeDegrees>42.3265254311263561248779296875</LatitudeDegrees>
              <LongitudeDegrees>2.4578353576362133026123046875</LongitudeDegrees>
            </Position>
            <AltitudeMeters>726.4000244140625</AltitudeMeters>
            <DistanceMeters>NAN</DistanceMeters>
          </Trackpoint>
          <Trackpoint>
            <Time>2021-04-03T15:36:47.000Z</Time>
            <Position>
              <LatitudeDegrees>42.32652232982218265533447265625</LatitudeDegrees>
              <LongitudeDegrees>2.45780023746192455291748046875</LongitudeDegrees>
            </Position>
            <AltitudeMeters>727.20001220703125</AltitudeMeters>
            <DistanceMeters>NAN</DistanceMeters>
          </Trackpoint>
          <Trackpoint>
            <Time>2021-04-03T15:36:50.000Z</Time>
            <Position>
              <LatitudeDegrees>42.32651579193770885467529296875</LatitudeDegrees>
              <LongitudeDegrees>2.4577807076275348663330078125</LongitudeDegrees>
            </Position>
            <AltitudeMeters>727.4000244140625</AltitudeMeters>
            <DistanceMeters>NAN</DistanceMeters>
          </Trackpoint>
          <Trackpoint>
            <Time>2021-04-03T15:36:52.000Z</Time>
            <Position>
              <LatitudeDegrees>42.3265167139470577239990234375</LatitudeDegrees>
              <LongitudeDegrees>2.45777056552469730377197265625</LongitudeDegrees>
            </Position>
            <AltitudeMeters>727.5999755859375</AltitudeMeters>
            <DistanceMeters>NAN</DistanceMeters>
          </Trackpoint>
          <Trackpoint>
            <Time>2021-04-03T15:37:00.000Z</Time>
            <Position>
              <LatitudeDegrees>42.32648410834372043609619140625</LatitudeDegrees>
              <LongitudeDegrees>2.4577052704989910125732421875</LongitudeDegrees>
            </Position>
            <AltitudeMeters>727.79998779296875</AltitudeMeters>
            <DistanceMeters>NAN</DistanceMeters>
          </Trackpoint>
          <Trackpoint>
            <Time>2021-04-03T15:37:10.000Z</Time>
            <Position>
              <LatitudeDegrees>42.32644387520849704742431640625</LatitudeDegrees>
              <LongitudeDegrees>2.4576048552989959716796875</LongitudeDegrees>
            </Position>
            <AltitudeMeters>727.5999755859375</AltitudeMeters>
            <DistanceMeters>NAN</DistanceMeters>
          </Trackpoint>
          <Trackpoint>
            <Time>2021-04-03T15:37:15.000Z</Time>
            <Position>
              <LatitudeDegrees>42.3264188133180141448974609375</LatitudeDegrees>
              <LongitudeDegrees>2.45755816809833049774169921875</LongitudeDegrees>
            </Position>
            <AltitudeMeters>727.5999755859375</AltitudeMeters>
            <DistanceMeters>NAN</DistanceMeters>
          </Trackpoint>
          <Trackpoint>
            <Time>2021-04-03T15:37:18.000Z</Time>
            <Position>
              <LatitudeDegrees>42.32639576308429241180419921875</LatitudeDegrees>
              <LongitudeDegrees>2.45754023082554340362548828125</LongitudeDegrees>
            </Position>
            <AltitudeMeters>727.5999755859375</AltitudeMeters>
            <DistanceMeters>NAN</DistanceMeters>
          </Trackpoint>
          <Trackpoint>
            <Time>2021-04-03T15:37:22.000Z</Time>
            <Position>
              <LatitudeDegrees>42.32636743225157260894775390625</LatitudeDegrees>
              <LongitudeDegrees>2.45752614922821521759033203125</LongitudeDegrees>
            </Position>
            <AltitudeMeters>727.79998779296875</AltitudeMeters>
            <DistanceMeters>NAN</DistanceMeters>
          </Trackpoint>
          <Trackpoint>
            <Time>2021-04-03T15:37:30.000Z</Time>
            <Position>
              <LatitudeDegrees>42.32631579972803592681884765625</LatitudeDegrees>
              <LongitudeDegrees>2.4575265683233737945556640625</LongitudeDegrees>
            </Position>
            <AltitudeMeters>728.4000244140625</AltitudeMeters>
            <DistanceMeters>NAN</DistanceMeters>
          </Trackpoint>
          <Trackpoint>
            <Time>2021-04-03T15:37:31.000Z</Time>
            <Position>
              <LatitudeDegrees>42.32631110586225986480712890625</LatitudeDegrees>
              <LongitudeDegrees>2.457521371543407440185546875</LongitudeDegrees>
            </Position>
            <AltitudeMeters>728.5999755859375</AltitudeMeters>
            <DistanceMeters>NAN</DistanceMeters>
          </Trackpoint>
          <Trackpoint>
            <Time>2021-04-03T15:37:34.000Z</Time>
            <Position>
              <LatitudeDegrees>42.3262964375317096710205078125</LatitudeDegrees>
              <LongitudeDegrees>2.45751240290701389312744140625</LongitudeDegrees>
            </Position>
            <AltitudeMeters>728.5999755859375</AltitudeMeters>
            <DistanceMeters>NAN</DistanceMeters>
          </Trackpoint>
          <Trackpoint>
            <Time>2021-04-03T15:37:38.000Z</Time>
            <Position>
              <LatitudeDegrees>42.32627573423087596893310546875</LatitudeDegrees>
              <LongitudeDegrees>2.457482814788818359375</LongitudeDegrees>
            </Position>
            <AltitudeMeters>729.20001220703125</AltitudeMeters>
            <DistanceMeters>NAN</DistanceMeters>
          </Trackpoint>
          <Trackpoint>
            <Time>2021-04-03T15:37:41.000Z</Time>
            <Position>
              <LatitudeDegrees>42.326264418661594390869140625</LatitudeDegrees>
              <LongitudeDegrees>2.45745657943189144134521484375</LongitudeDegrees>
            </Position>
            <AltitudeMeters>729.4000244140625</AltitudeMeters>
            <DistanceMeters>NAN</DistanceMeters>
          </Trackpoint>
          <Trackpoint>
            <Time>2021-04-03T15:37:50.000Z</Time>
            <Position>
              <LatitudeDegrees>42.3262759856879711151123046875</LatitudeDegrees>
              <LongitudeDegrees>2.45735616423189640045166015625</LongitudeDegrees>
            </Position>
            <AltitudeMeters>729</AltitudeMeters>
            <DistanceMeters>NAN</DistanceMeters>
          </Trackpoint>
          <Trackpoint>
            <Time>2021-04-03T15:37:56.000Z</Time>
            <Position>
              <LatitudeDegrees>42.32627606950700283050537109375</LatitudeDegrees>
              <LongitudeDegrees>2.45728257112205028533935546875</LongitudeDegrees>
            </Position>
            <AltitudeMeters>728.4000244140625</AltitudeMeters>
            <DistanceMeters>NAN</DistanceMeters>
          </Trackpoint>
          <Trackpoint>
            <Time>2021-04-03T15:37:59.000Z</Time>
            <Position>
              <LatitudeDegrees>42.32627590186893939971923828125</LatitudeDegrees>
              <LongitudeDegrees>2.45724585838615894317626953125</LongitudeDegrees>
            </Position>
            <AltitudeMeters>728.20001220703125</AltitudeMeters>
            <DistanceMeters>NAN</DistanceMeters>
          </Trackpoint>
          <Trackpoint>
            <Time>2021-04-03T15:38:05.000Z</Time>
            <Position>
              <LatitudeDegrees>42.326236926019191741943359375</LatitudeDegrees>
              <LongitudeDegrees>2.45720311067998409271240234375</LongitudeDegrees>
            </Position>
            <AltitudeMeters>728.20001220703125</AltitudeMeters>
            <DistanceMeters>NAN</DistanceMeters>
          </Trackpoint>
          <Trackpoint>
            <Time>2021-04-03T15:38:13.000Z</Time>
            <Position>
              <LatitudeDegrees>42.3261961899697780609130859375</LatitudeDegrees>
              <LongitudeDegrees>2.45716631412506103515625</LongitudeDegrees>
            </Position>
            <AltitudeMeters>728.4000244140625</AltitudeMeters>
            <DistanceMeters>NAN</DistanceMeters>
          </Trackpoint>
          <Trackpoint>
            <Time>2021-04-03T15:38:21.000Z</Time>
            <Position>
              <LatitudeDegrees>42.3261646740138530731201171875</LatitudeDegrees>
              <LongitudeDegrees>2.45714058168232440948486328125</LongitudeDegrees>
            </Position>
            <AltitudeMeters>728.5999755859375</AltitudeMeters>
            <DistanceMeters>NAN</DistanceMeters>
          </Trackpoint>
          <Trackpoint>
            <Time>2021-04-03T15:38:29.000Z</Time>
            <Position>
              <LatitudeDegrees>42.32611513696610927581787109375</LatitudeDegrees>
              <LongitudeDegrees>2.45718031190335750579833984375</LongitudeDegrees>
            </Position>
            <AltitudeMeters>729.20001220703125</AltitudeMeters>
            <DistanceMeters>NAN</DistanceMeters>
          </Trackpoint>
          <Trackpoint>
            <Time>2021-04-03T15:38:31.000Z</Time>
            <Position>
              <LatitudeDegrees>42.32610113918781280517578125</LatitudeDegrees>
              <LongitudeDegrees>2.4571822397410869598388671875</LongitudeDegrees>
            </Position>
            <AltitudeMeters>729.5999755859375</AltitudeMeters>
            <DistanceMeters>NAN</DistanceMeters>
          </Trackpoint>
          <Trackpoint>
            <Time>2021-04-03T15:38:35.000Z</Time>
            <Position>
              <LatitudeDegrees>42.32607691548764705657958984375</LatitudeDegrees>
              <LongitudeDegrees>2.4571886099874973297119140625</LongitudeDegrees>
            </Position>
            <AltitudeMeters>730.20001220703125</AltitudeMeters>
            <DistanceMeters>NAN</DistanceMeters>
          </Trackpoint>
          <Trackpoint>
            <Time>2021-04-03T15:38:40.000Z</Time>
            <Position>
              <LatitudeDegrees>42.3260587267577648162841796875</LatitudeDegrees>
              <LongitudeDegrees>2.45720830745995044708251953125</LongitudeDegrees>
            </Position>
            <AltitudeMeters>730.5999755859375</AltitudeMeters>
            <DistanceMeters>NAN</DistanceMeters>
          </Trackpoint>
          <Trackpoint>
            <Time>2021-04-03T15:38:42.000Z</Time>
            <Position>
              <LatitudeDegrees>42.3260510154068470001220703125</LatitudeDegrees>
              <LongitudeDegrees>2.45720897801220417022705078125</LongitudeDegrees>
            </Position>
            <AltitudeMeters>731</AltitudeMeters>
            <DistanceMeters>NAN</DistanceMeters>
          </Trackpoint>
          <Trackpoint>
            <Time>2021-04-03T15:38:43.000Z</Time>
            <Position>
              <LatitudeDegrees>42.32604808174073696136474609375</LatitudeDegrees>
              <LongitudeDegrees>2.45720964856445789337158203125</LongitudeDegrees>
            </Position>
            <AltitudeMeters>731.20001220703125</AltitudeMeters>
            <DistanceMeters>NAN</DistanceMeters>
          </Trackpoint>
          <Trackpoint>
            <Time>2021-04-03T15:38:45.000Z</Time>
            <Position>
              <LatitudeDegrees>42.3260376043617725372314453125</LatitudeDegrees>
              <LongitudeDegrees>2.4572137556970119476318359375</LongitudeDegrees>
            </Position>
            <AltitudeMeters>731.5999755859375</AltitudeMeters>
            <DistanceMeters>NAN</DistanceMeters>
          </Trackpoint>
          <Trackpoint>
            <Time>2021-04-03T15:38:46.000Z</Time>
            <Position>
              <LatitudeDegrees>42.3260308988392353057861328125</LatitudeDegrees>
              <LongitudeDegrees>2.45721668936312198638916015625</LongitudeDegrees>
            </Position>
            <AltitudeMeters>731.79998779296875</AltitudeMeters>
            <DistanceMeters>NAN</DistanceMeters>
          </Trackpoint>
          <Trackpoint>
            <Time>2021-04-03T15:38:53.000Z</Time>
            <Position>
              <LatitudeDegrees>42.32597465626895427703857421875</LatitudeDegrees>
              <LongitudeDegrees>2.4571876041591167449951171875</LongitudeDegrees>
            </Position>
            <AltitudeMeters>732.4000244140625</AltitudeMeters>
            <DistanceMeters>NAN</DistanceMeters>
          </Trackpoint>
          <Trackpoint>
            <Time>2021-04-03T15:39:01.000Z</Time>
            <Position>
              <LatitudeDegrees>42.32592922635376453399658203125</LatitudeDegrees>
              <LongitudeDegrees>2.45712599717080593109130859375</LongitudeDegrees>
            </Position>
            <AltitudeMeters>732.5999755859375</AltitudeMeters>
            <DistanceMeters>NAN</DistanceMeters>
          </Trackpoint>
          <Trackpoint>
            <Time>2021-04-03T15:39:05.000Z</Time>
            <Position>
              <LatitudeDegrees>42.32589452527463436126708984375</LatitudeDegrees>
              <LongitudeDegrees>2.4571202136576175689697265625</LongitudeDegrees>
            </Position>
            <AltitudeMeters>732.79998779296875</AltitudeMeters>
            <DistanceMeters>NAN</DistanceMeters>
          </Trackpoint>
          <Trackpoint>
            <Time>2021-04-03T15:39:07.000Z</Time>
            <Position>
              <LatitudeDegrees>42.325884886085987091064453125</LatitudeDegrees>
              <LongitudeDegrees>2.45710738934576511383056640625</LongitudeDegrees>
            </Position>
            <AltitudeMeters>733</AltitudeMeters>
            <DistanceMeters>NAN</DistanceMeters>
          </Trackpoint>
          <Trackpoint>
            <Time>2021-04-03T15:39:11.000Z</Time>
            <Position>
              <LatitudeDegrees>42.32585663907229900360107421875</LatitudeDegrees>
              <LongitudeDegrees>2.45706212706863880157470703125</LongitudeDegrees>
            </Position>
            <AltitudeMeters>733</AltitudeMeters>
            <DistanceMeters>NAN</DistanceMeters>
          </Trackpoint>
          <Trackpoint>
            <Time>2021-04-03T15:39:18.000Z</Time>
            <Position>
              <LatitudeDegrees>42.3258334212005138397216796875</LatitudeDegrees>
              <LongitudeDegrees>2.4570146016776561737060546875</LongitudeDegrees>
            </Position>
            <AltitudeMeters>733.4000244140625</AltitudeMeters>
            <DistanceMeters>NAN</DistanceMeters>
          </Trackpoint>
          <Trackpoint>
            <Time>2021-04-03T15:39:25.000Z</Time>
            <Position>
              <LatitudeDegrees>42.3258260451257228851318359375</LatitudeDegrees>
              <LongitudeDegrees>2.45695240795612335205078125</LongitudeDegrees>
            </Position>
            <AltitudeMeters>734</AltitudeMeters>
            <DistanceMeters>NAN</DistanceMeters>
          </Trackpoint>
          <Trackpoint>
            <Time>2021-04-03T15:39:27.000Z</Time>
            <Position>
              <LatitudeDegrees>42.32583870179951190948486328125</LatitudeDegrees>
              <LongitudeDegrees>2.45691217482089996337890625</LongitudeDegrees>
            </Position>
            <AltitudeMeters>734.20001220703125</AltitudeMeters>
            <DistanceMeters>NAN</DistanceMeters>
          </Trackpoint>
          <Trackpoint>
            <Time>2021-04-03T15:39:34.000Z</Time>
            <Position>
              <LatitudeDegrees>42.325802743434906005859375</LatitudeDegrees>
              <LongitudeDegrees>2.45687596499919891357421875</LongitudeDegrees>
            </Position>
            <AltitudeMeters>734.20001220703125</AltitudeMeters>
            <DistanceMeters>NAN</DistanceMeters>
          </Trackpoint>
          <Trackpoint>
            <Time>2021-04-03T15:39:40.000Z</Time>
            <Position>
              <LatitudeDegrees>42.32581146061420440673828125</LatitudeDegrees>
              <LongitudeDegrees>2.4568003602325916290283203125</LongitudeDegrees>
            </Position>
            <AltitudeMeters>734</AltitudeMeters>
            <DistanceMeters>NAN</DistanceMeters>
          </Trackpoint>
          <Trackpoint>
            <Time>2021-04-03T15:39:47.000Z</Time>
            <Position>
              <LatitudeDegrees>42.3257737420499324798583984375</LatitudeDegrees>
              <LongitudeDegrees>2.4567504040896892547607421875</LongitudeDegrees>
            </Position>
            <AltitudeMeters>733.5999755859375</AltitudeMeters>
            <DistanceMeters>NAN</DistanceMeters>
          </Trackpoint>
          <Trackpoint>
            <Time>2021-04-03T15:39:53.000Z</Time>
            <Position>
              <LatitudeDegrees>42.3257140628993511199951171875</LatitudeDegrees>
              <LongitudeDegrees>2.456707321107387542724609375</LongitudeDegrees>
            </Position>
            <AltitudeMeters>733.4000244140625</AltitudeMeters>
            <DistanceMeters>NAN</DistanceMeters>
          </Trackpoint>
          <Trackpoint>
            <Time>2021-04-03T15:39:56.000Z</Time>
            <Position>
              <LatitudeDegrees>42.3256858997046947479248046875</LatitudeDegrees>
              <LongitudeDegrees>2.4566759727895259857177734375</LongitudeDegrees>
            </Position>
            <AltitudeMeters>733.20001220703125</AltitudeMeters>
            <DistanceMeters>NAN</DistanceMeters>
          </Trackpoint>
          <Trackpoint>
            <Time>2021-04-03T15:39:58.000Z</Time>
            <Position>
              <LatitudeDegrees>42.3256788589060306549072265625</LatitudeDegrees>
              <LongitudeDegrees>2.45665895752608776092529296875</LongitudeDegrees>
            </Position>
            <AltitudeMeters>733.20001220703125</AltitudeMeters>
            <DistanceMeters>NAN</DistanceMeters>
          </Trackpoint>
          <Trackpoint>
            <Time>2021-04-03T15:40:03.000Z</Time>
            <Position>
              <LatitudeDegrees>42.3256496898829936981201171875</LatitudeDegrees>
              <LongitudeDegrees>2.4566032178699970245361328125</LongitudeDegrees>
            </Position>
            <AltitudeMeters>733</AltitudeMeters>
            <DistanceMeters>NAN</DistanceMeters>
          </Trackpoint>
          <Trackpoint>
            <Time>2021-04-03T15:40:07.000Z</Time>
            <Position>
              <LatitudeDegrees>42.32562932185828685760498046875</LatitudeDegrees>
              <LongitudeDegrees>2.45656306855380535125732421875</LongitudeDegrees>
            </Position>
            <AltitudeMeters>732.79998779296875</AltitudeMeters>
            <DistanceMeters>NAN</DistanceMeters>
          </Trackpoint>
          <Trackpoint>
            <Time>2021-04-03T15:40:14.000Z</Time>
            <Position>
              <LatitudeDegrees>42.3256037570536136627197265625</LatitudeDegrees>
              <LongitudeDegrees>2.45651512406766414642333984375</LongitudeDegrees>
            </Position>
            <AltitudeMeters>732.5999755859375</AltitudeMeters>
            <DistanceMeters>NAN</DistanceMeters>
          </Trackpoint>
          <Trackpoint>
            <Time>2021-04-03T15:40:16.000Z</Time>
            <Position>
              <LatitudeDegrees>42.32559395022690296173095703125</LatitudeDegrees>
              <LongitudeDegrees>2.45649752207100391387939453125</LongitudeDegrees>
            </Position>
            <AltitudeMeters>732.4000244140625</AltitudeMeters>
            <DistanceMeters>NAN</DistanceMeters>
          </Trackpoint>
          <Trackpoint>
            <Time>2021-04-03T15:40:20.000Z</Time>
            <Position>
              <LatitudeDegrees>42.3255802877247333526611328125</LatitudeDegrees>
              <LongitudeDegrees>2.45645913295447826385498046875</LongitudeDegrees>
            </Position>
            <AltitudeMeters>732.4000244140625</AltitudeMeters>
            <DistanceMeters>NAN</DistanceMeters>
          </Trackpoint>
          <Trackpoint>
            <Time>2021-04-03T15:40:24.000Z</Time>
            <Position>
              <LatitudeDegrees>42.32557433657348155975341796875</LatitudeDegrees>
              <LongitudeDegrees>2.45643516071140766143798828125</LongitudeDegrees>
            </Position>
            <AltitudeMeters>732</AltitudeMeters>
            <DistanceMeters>NAN</DistanceMeters>
          </Trackpoint>
          <Trackpoint>
            <Time>2021-04-03T15:40:26.000Z</Time>
            <Position>
              <LatitudeDegrees>42.3255739174783229827880859375</LatitudeDegrees>
              <LongitudeDegrees>2.45641588233411312103271484375</LongitudeDegrees>
            </Position>
            <AltitudeMeters>731.79998779296875</AltitudeMeters>
            <DistanceMeters>NAN</DistanceMeters>
          </Trackpoint>
          <Trackpoint>
            <Time>2021-04-03T15:40:31.000Z</Time>
            <Position>
              <LatitudeDegrees>42.3255722410976886749267578125</LatitudeDegrees>
              <LongitudeDegrees>2.456402890384197235107421875</LongitudeDegrees>
            </Position>
            <AltitudeMeters>731.4000244140625</AltitudeMeters>
            <DistanceMeters>NAN</DistanceMeters>
          </Trackpoint>
          <Trackpoint>
            <Time>2021-04-03T15:40:38.000Z</Time>
            <Position>
              <LatitudeDegrees>42.32557081617414951324462890625</LatitudeDegrees>
              <LongitudeDegrees>2.45636022649705410003662109375</LongitudeDegrees>
            </Position>
            <AltitudeMeters>731.4000244140625</AltitudeMeters>
            <DistanceMeters>NAN</DistanceMeters>
          </Trackpoint>
          <Trackpoint>
            <Time>2021-04-03T15:40:41.000Z</Time>
            <Position>
              <LatitudeDegrees>42.32556226663291454315185546875</LatitudeDegrees>
              <LongitudeDegrees>2.45633457787334918975830078125</LongitudeDegrees>
            </Position>
            <AltitudeMeters>731.4000244140625</AltitudeMeters>
            <DistanceMeters>NAN</DistanceMeters>
          </Trackpoint>
          <Trackpoint>
            <Time>2021-04-03T15:40:46.000Z</Time>
            <Position>
              <LatitudeDegrees>42.325563691556453704833984375</LatitudeDegrees>
              <LongitudeDegrees>2.4563252739608287811279296875</LongitudeDegrees>
            </Position>
            <AltitudeMeters>730.79998779296875</AltitudeMeters>
            <DistanceMeters>NAN</DistanceMeters>
          </Trackpoint>
          <Trackpoint>
            <Time>2021-04-03T15:40:52.000Z</Time>
            <Position>
              <LatitudeDegrees>42.3255465924739837646484375</LatitudeDegrees>
              <LongitudeDegrees>2.4563061632215976715087890625</LongitudeDegrees>
            </Position>
            <AltitudeMeters>730.79998779296875</AltitudeMeters>
            <DistanceMeters>NAN</DistanceMeters>
          </Trackpoint>
          <Trackpoint>
            <Time>2021-04-03T15:41:00.000Z</Time>
            <Position>
              <LatitudeDegrees>42.32550895772874355316162109375</LatitudeDegrees>
              <LongitudeDegrees>2.45626802556216716766357421875</LongitudeDegrees>
            </Position>
            <AltitudeMeters>729.79998779296875</AltitudeMeters>
            <DistanceMeters>NAN</DistanceMeters>
          </Trackpoint>
          <Trackpoint>
            <Time>2021-04-03T15:41:03.000Z</Time>
            <Position>
              <LatitudeDegrees>42.3255025036633014678955078125</LatitudeDegrees>
              <LongitudeDegrees>2.45624564588069915771484375</LongitudeDegrees>
            </Position>
            <AltitudeMeters>729.4000244140625</AltitudeMeters>
            <DistanceMeters>NAN</DistanceMeters>
          </Trackpoint>
          <Trackpoint>
            <Time>2021-04-03T15:41:07.000Z</Time>
            <Position>
              <LatitudeDegrees>42.32549889944493770599365234375</LatitudeDegrees>
              <LongitudeDegrees>2.4562096036970615386962890625</LongitudeDegrees>
            </Position>
            <AltitudeMeters>728.79998779296875</AltitudeMeters>
            <DistanceMeters>NAN</DistanceMeters>
          </Trackpoint>
          <Trackpoint>
            <Time>2021-04-03T15:41:11.000Z</Time>
            <Position>
              <LatitudeDegrees>42.3255152441561222076416015625</LatitudeDegrees>
              <LongitudeDegrees>2.45618135668337345123291015625</LongitudeDegrees>
            </Position>
            <AltitudeMeters>728.4000244140625</AltitudeMeters>
            <DistanceMeters>NAN</DistanceMeters>
          </Trackpoint>
          <Trackpoint>
            <Time>2021-04-03T15:41:16.000Z</Time>
            <Position>
              <LatitudeDegrees>42.3255363665521144866943359375</LatitudeDegrees>
              <LongitudeDegrees>2.456124611198902130126953125</LongitudeDegrees>
            </Position>
            <AltitudeMeters>727.79998779296875</AltitudeMeters>
            <DistanceMeters>NAN</DistanceMeters>
          </Trackpoint>
          <Trackpoint>
            <Time>2021-04-03T15:41:19.000Z</Time>
            <Position>
              <LatitudeDegrees>42.32555572874844074249267578125</LatitudeDegrees>
              <LongitudeDegrees>2.45609234087169170379638671875</LongitudeDegrees>
            </Position>
            <AltitudeMeters>727.4000244140625</AltitudeMeters>
            <DistanceMeters>NAN</DistanceMeters>
          </Trackpoint>
          <Trackpoint>
            <Time>2021-04-03T15:41:23.000Z</Time>
            <Position>
              <LatitudeDegrees>42.3255638591945171356201171875</LatitudeDegrees>
              <LongitudeDegrees>2.45605965144932270050048828125</LongitudeDegrees>
            </Position>
            <AltitudeMeters>727.4000244140625</AltitudeMeters>
            <DistanceMeters>NAN</DistanceMeters>
          </Trackpoint>
          <Trackpoint>
            <Time>2021-04-03T15:41:31.000Z</Time>
            <Position>
              <LatitudeDegrees>42.32560149393975734710693359375</LatitudeDegrees>
              <LongitudeDegrees>2.4559953622519969940185546875</LongitudeDegrees>
            </Position>
            <AltitudeMeters>727.5999755859375</AltitudeMeters>
            <DistanceMeters>NAN</DistanceMeters>
          </Trackpoint>
          <Trackpoint>
            <Time>2021-04-03T15:41:38.000Z</Time>
            <Position>
              <LatitudeDegrees>42.3256007395684719085693359375</LatitudeDegrees>
              <LongitudeDegrees>2.45592646300792694091796875</LongitudeDegrees>
            </Position>
            <AltitudeMeters>728</AltitudeMeters>
            <DistanceMeters>NAN</DistanceMeters>
          </Trackpoint>
          <Trackpoint>
            <Time>2021-04-03T15:41:44.000Z</Time>
            <Position>
              <LatitudeDegrees>42.32560224831104278564453125</LatitudeDegrees>
              <LongitudeDegrees>2.455869801342487335205078125</LongitudeDegrees>
            </Position>
            <AltitudeMeters>728.20001220703125</AltitudeMeters>
            <DistanceMeters>NAN</DistanceMeters>
          </Trackpoint>
          <Trackpoint>
            <Time>2021-04-03T15:41:46.000Z</Time>
            <Position>
              <LatitudeDegrees>42.32560266740620136260986328125</LatitudeDegrees>
              <LongitudeDegrees>2.455850355327129364013671875</LongitudeDegrees>
            </Position>
            <AltitudeMeters>728.20001220703125</AltitudeMeters>
            <DistanceMeters>NAN</DistanceMeters>
          </Trackpoint>
          <Trackpoint>
            <Time>2021-04-03T15:41:49.000Z</Time>
            <Position>
              <LatitudeDegrees>42.3256118036806583404541015625</LatitudeDegrees>
              <LongitudeDegrees>2.45583099313080310821533203125</LongitudeDegrees>
            </Position>
            <AltitudeMeters>728.20001220703125</AltitudeMeters>
            <DistanceMeters>NAN</DistanceMeters>
          </Trackpoint>
          <Trackpoint>
            <Time>2021-04-03T15:41:51.000Z</Time>
            <Position>
              <LatitudeDegrees>42.325615324079990386962890625</LatitudeDegrees>
              <LongitudeDegrees>2.4558220244944095611572265625</LongitudeDegrees>
            </Position>
            <AltitudeMeters>728.5999755859375</AltitudeMeters>
            <DistanceMeters>NAN</DistanceMeters>
          </Trackpoint>
          <Trackpoint>
            <Time>2021-04-03T15:41:53.000Z</Time>
            <Position>
              <LatitudeDegrees>42.3256091214716434478759765625</LatitudeDegrees>
              <LongitudeDegrees>2.455811798572540283203125</LongitudeDegrees>
            </Position>
            <AltitudeMeters>728.5999755859375</AltitudeMeters>
            <DistanceMeters>NAN</DistanceMeters>
          </Trackpoint>
          <Trackpoint>
            <Time>2021-04-03T15:41:54.000Z</Time>
            <Position>
              <LatitudeDegrees>42.32560819946229457855224609375</LatitudeDegrees>
              <LongitudeDegrees>2.4558012373745441436767578125</LongitudeDegrees>
            </Position>
            <AltitudeMeters>728.79998779296875</AltitudeMeters>
            <DistanceMeters>NAN</DistanceMeters>
          </Trackpoint>
          <Trackpoint>
            <Time>2021-04-03T15:41:56.000Z</Time>
            <Position>
              <LatitudeDegrees>42.32560400851070880889892578125</LatitudeDegrees>
              <LongitudeDegrees>2.4557861499488353729248046875</LongitudeDegrees>
            </Position>
            <AltitudeMeters>729.20001220703125</AltitudeMeters>
            <DistanceMeters>NAN</DistanceMeters>
          </Trackpoint>
          <Trackpoint>
            <Time>2021-04-03T15:41:57.000Z</Time>
            <Position>
              <LatitudeDegrees>42.325603254139423370361328125</LatitudeDegrees>
              <LongitudeDegrees>2.45577835477888584136962890625</LongitudeDegrees>
            </Position>
            <AltitudeMeters>729.20001220703125</AltitudeMeters>
            <DistanceMeters>NAN</DistanceMeters>
          </Trackpoint>
          <Trackpoint>
            <Time>2021-04-03T15:42:06.000Z</Time>
            <Position>
              <LatitudeDegrees>42.32557634823024272918701171875</LatitudeDegrees>
              <LongitudeDegrees>2.45570040307939052581787109375</LongitudeDegrees>
            </Position>
            <AltitudeMeters>729.79998779296875</AltitudeMeters>
            <DistanceMeters>NAN</DistanceMeters>
          </Trackpoint>
          <Trackpoint>
            <Time>2021-04-03T15:42:09.000Z</Time>
            <Position>
              <LatitudeDegrees>42.32556260190904140472412109375</LatitudeDegrees>
              <LongitudeDegrees>2.455669976770877838134765625</LongitudeDegrees>
            </Position>
            <AltitudeMeters>729.5999755859375</AltitudeMeters>
            <DistanceMeters>NAN</DistanceMeters>
          </Trackpoint>
          <Trackpoint>
            <Time>2021-04-03T15:42:16.000Z</Time>
            <Position>
              <LatitudeDegrees>42.3255269788205623626708984375</LatitudeDegrees>
              <LongitudeDegrees>2.4556101299822330474853515625</LongitudeDegrees>
            </Position>
            <AltitudeMeters>729.5999755859375</AltitudeMeters>
            <DistanceMeters>NAN</DistanceMeters>
          </Trackpoint>
          <Trackpoint>
            <Time>2021-04-03T15:42:26.000Z</Time>
            <Position>
              <LatitudeDegrees>42.32546688057482242584228515625</LatitudeDegrees>
              <LongitudeDegrees>2.455532848834991455078125</LongitudeDegrees>
            </Position>
            <AltitudeMeters>729.4000244140625</AltitudeMeters>
            <DistanceMeters>NAN</DistanceMeters>
          </Trackpoint>
          <Trackpoint>
            <Time>2021-04-03T15:42:34.000Z</Time>
            <Position>
              <LatitudeDegrees>42.32542119920253753662109375</LatitudeDegrees>
              <LongitudeDegrees>2.45546872727572917938232421875</LongitudeDegrees>
            </Position>
            <AltitudeMeters>729.4000244140625</AltitudeMeters>
            <DistanceMeters>NAN</DistanceMeters>
          </Trackpoint>
          <Trackpoint>
            <Time>2021-04-03T15:42:39.000Z</Time>
            <Position>
              <LatitudeDegrees>42.3254009149968624114990234375</LatitudeDegrees>
              <LongitudeDegrees>2.4554220400750637054443359375</LongitudeDegrees>
            </Position>
            <AltitudeMeters>729.20001220703125</AltitudeMeters>
            <DistanceMeters>NAN</DistanceMeters>
          </Trackpoint>
          <Trackpoint>
            <Time>2021-04-03T15:42:40.000Z</Time>
            <Position>
              <LatitudeDegrees>42.32539412565529346466064453125</LatitudeDegrees>
              <LongitudeDegrees>2.45541525073349475860595703125</LongitudeDegrees>
            </Position>
            <AltitudeMeters>729.20001220703125</AltitudeMeters>
            <DistanceMeters>NAN</DistanceMeters>
          </Trackpoint>
          <Trackpoint>
            <Time>2021-04-03T15:42:48.000Z</Time>
            <Position>
              <LatitudeDegrees>42.32537199743092060089111328125</LatitudeDegrees>
              <LongitudeDegrees>2.4553915299475193023681640625</LongitudeDegrees>
            </Position>
            <AltitudeMeters>729.4000244140625</AltitudeMeters>
            <DistanceMeters>NAN</DistanceMeters>
          </Trackpoint>
          <Trackpoint>
            <Time>2021-04-03T15:42:55.000Z</Time>
            <Position>
              <LatitudeDegrees>42.32537182979285717010498046875</LatitudeDegrees>
              <LongitudeDegrees>2.4553786218166351318359375</LongitudeDegrees>
            </Position>
            <AltitudeMeters>729.5999755859375</AltitudeMeters>
            <DistanceMeters>NAN</DistanceMeters>
          </Trackpoint>
          <Trackpoint>
            <Time>2021-04-03T15:42:56.000Z</Time>
            <Position>
              <LatitudeDegrees>42.325369901955127716064453125</LatitudeDegrees>
              <LongitudeDegrees>2.4553740955889225006103515625</LongitudeDegrees>
            </Position>
            <AltitudeMeters>729.5999755859375</AltitudeMeters>
            <DistanceMeters>NAN</DistanceMeters>
          </Trackpoint>
          <Trackpoint>
            <Time>2021-04-03T15:42:58.000Z</Time>
            <Position>
              <LatitudeDegrees>42.32536512427031993865966796875</LatitudeDegrees>
              <LongitudeDegrees>2.45537820272147655487060546875</LongitudeDegrees>
            </Position>
            <AltitudeMeters>729.5999755859375</AltitudeMeters>
            <DistanceMeters>NAN</DistanceMeters>
          </Trackpoint>
          <Trackpoint>
            <Time>2021-04-03T15:43:01.000Z</Time>
            <Position>
              <LatitudeDegrees>42.32534953393042087554931640625</LatitudeDegrees>
              <LongitudeDegrees>2.455387674272060394287109375</LongitudeDegrees>
            </Position>
            <AltitudeMeters>729.20001220703125</AltitudeMeters>
            <DistanceMeters>NAN</DistanceMeters>
          </Trackpoint>
          <Trackpoint>
            <Time>2021-04-03T15:43:07.000Z</Time>
            <Position>
              <LatitudeDegrees>42.325334362685680389404296875</LatitudeDegrees>
              <LongitudeDegrees>2.45539546944200992584228515625</LongitudeDegrees>
            </Position>
            <AltitudeMeters>729.4000244140625</AltitudeMeters>
            <DistanceMeters>NAN</DistanceMeters>
          </Trackpoint>
          <Trackpoint>
            <Time>2021-04-03T15:43:16.000Z</Time>
            <Position>
              <LatitudeDegrees>42.32531122863292694091796875</LatitudeDegrees>
              <LongitudeDegrees>2.45530553162097930908203125</LongitudeDegrees>
            </Position>
            <AltitudeMeters>730</AltitudeMeters>
            <DistanceMeters>NAN</DistanceMeters>
          </Trackpoint>
          <Trackpoint>
            <Time>2021-04-03T15:43:20.000Z</Time>
            <Position>
              <LatitudeDegrees>42.325300164520740509033203125</LatitudeDegrees>
              <LongitudeDegrees>2.45526974089443683624267578125</LongitudeDegrees>
            </Position>
            <AltitudeMeters>730</AltitudeMeters>
            <DistanceMeters>NAN</DistanceMeters>
          </Trackpoint>
          <Trackpoint>
            <Time>2021-04-03T15:43:25.000Z</Time>
            <Position>
              <LatitudeDegrees>42.32530393637716770172119140625</LatitudeDegrees>
              <LongitudeDegrees>2.4552148394286632537841796875</LongitudeDegrees>
            </Position>
            <AltitudeMeters>730</AltitudeMeters>
            <DistanceMeters>NAN</DistanceMeters>
          </Trackpoint>
          <Trackpoint>
            <Time>2021-04-03T15:43:34.000Z</Time>
            <Position>
              <LatitudeDegrees>42.325292117893695831298828125</LatitudeDegrees>
              <LongitudeDegrees>2.4551266618072986602783203125</LongitudeDegrees>
            </Position>
            <AltitudeMeters>730.20001220703125</AltitudeMeters>
            <DistanceMeters>NAN</DistanceMeters>
          </Trackpoint>
          <Trackpoint>
            <Time>2021-04-03T15:43:35.000Z</Time>
            <Position>
              <LatitudeDegrees>42.32529371045529842376708984375</LatitudeDegrees>
              <LongitudeDegrees>2.455116100609302520751953125</LongitudeDegrees>
            </Position>
            <AltitudeMeters>730.20001220703125</AltitudeMeters>
            <DistanceMeters>NAN</DistanceMeters>
          </Trackpoint>
          <Trackpoint>
            <Time>2021-04-03T15:43:39.000Z</Time>
            <Position>
              <LatitudeDegrees>42.3252882622182369232177734375</LatitudeDegrees>
              <LongitudeDegrees>2.45507779531180858612060546875</LongitudeDegrees>
            </Position>
            <AltitudeMeters>730.4000244140625</AltitudeMeters>
            <DistanceMeters>NAN</DistanceMeters>
          </Trackpoint>
          <Trackpoint>
            <Time>2021-04-03T15:43:40.000Z</Time>
            <Position>
              <LatitudeDegrees>42.325286082923412322998046875</LatitudeDegrees>
              <LongitudeDegrees>2.45506949722766876220703125</LongitudeDegrees>
            </Position>
            <AltitudeMeters>730.4000244140625</AltitudeMeters>
            <DistanceMeters>NAN</DistanceMeters>
          </Trackpoint>
          <Trackpoint>
            <Time>2021-04-03T15:43:45.000Z</Time>
            <Position>
              <LatitudeDegrees>42.32526051811873912811279296875</LatitudeDegrees>
              <LongitudeDegrees>2.4550244025886058807373046875</LongitudeDegrees>
            </Position>
            <AltitudeMeters>730.4000244140625</AltitudeMeters>
            <DistanceMeters>NAN</DistanceMeters>
          </Trackpoint>
          <Trackpoint>
            <Time>2021-04-03T15:43:56.000Z</Time>
            <Position>
              <LatitudeDegrees>42.32522548176348209381103515625</LatitudeDegrees>
              <LongitudeDegrees>2.45491786859929561614990234375</LongitudeDegrees>
            </Position>
            <AltitudeMeters>729.4000244140625</AltitudeMeters>
            <DistanceMeters>NAN</DistanceMeters>
          </Trackpoint>
          <Trackpoint>
            <Time>2021-04-03T15:44:04.000Z</Time>
            <Position>
              <LatitudeDegrees>42.32520754449069499969482421875</LatitudeDegrees>
              <LongitudeDegrees>2.4548448622226715087890625</LongitudeDegrees>
            </Position>
            <AltitudeMeters>729</AltitudeMeters>
            <DistanceMeters>NAN</DistanceMeters>
          </Trackpoint>
          <Trackpoint>
            <Time>2021-04-03T15:44:05.000Z</Time>
            <Position>
              <LatitudeDegrees>42.3252071253955364227294921875</LatitudeDegrees>
              <LongitudeDegrees>2.45483974926173686981201171875</LongitudeDegrees>
            </Position>
            <AltitudeMeters>728.79998779296875</AltitudeMeters>
            <DistanceMeters>NAN</DistanceMeters>
          </Trackpoint>
          <Trackpoint>
            <Time>2021-04-03T15:44:11.000Z</Time>
            <Position>
              <LatitudeDegrees>42.3251722566783428192138671875</LatitudeDegrees>
              <LongitudeDegrees>2.45480337180197238922119140625</LongitudeDegrees>
            </Position>
            <AltitudeMeters>728.79998779296875</AltitudeMeters>
            <DistanceMeters>NAN</DistanceMeters>
          </Trackpoint>
          <Trackpoint>
            <Time>2021-04-03T15:44:12.000Z</Time>
            <Position>
              <LatitudeDegrees>42.32516546733677387237548828125</LatitudeDegrees>
              <LongitudeDegrees>2.4547970853745937347412109375</LongitudeDegrees>
            </Position>
            <AltitudeMeters>728.79998779296875</AltitudeMeters>
            <DistanceMeters>NAN</DistanceMeters>
          </Trackpoint>
          <Trackpoint>
            <Time>2021-04-03T15:44:16.000Z</Time>
            <Position>
              <LatitudeDegrees>42.3251511342823505401611328125</LatitudeDegrees>
              <LongitudeDegrees>2.45476682670414447784423828125</LongitudeDegrees>
            </Position>
            <AltitudeMeters>728.5999755859375</AltitudeMeters>
            <DistanceMeters>NAN</DistanceMeters>
          </Trackpoint>
          <Trackpoint>
            <Time>2021-04-03T15:44:22.000Z</Time>
            <Position>
              <LatitudeDegrees>42.32511986978352069854736328125</LatitudeDegrees>
              <LongitudeDegrees>2.45472961105406284332275390625</LongitudeDegrees>
            </Position>
            <AltitudeMeters>728.79998779296875</AltitudeMeters>
            <DistanceMeters>NAN</DistanceMeters>
          </Trackpoint>
          <Trackpoint>
            <Time>2021-04-03T15:44:28.000Z</Time>
            <Position>
              <LatitudeDegrees>42.32511349953711032867431640625</LatitudeDegrees>
              <LongitudeDegrees>2.4546924792230129241943359375</LongitudeDegrees>
            </Position>
            <AltitudeMeters>729.20001220703125</AltitudeMeters>
            <DistanceMeters>NAN</DistanceMeters>
          </Trackpoint>
          <Trackpoint>
            <Time>2021-04-03T15:44:36.000Z</Time>
            <Position>
              <LatitudeDegrees>42.3251021839678287506103515625</LatitudeDegrees>
              <LongitudeDegrees>2.45461947284638881683349609375</LongitudeDegrees>
            </Position>
            <AltitudeMeters>730</AltitudeMeters>
            <DistanceMeters>NAN</DistanceMeters>
          </Trackpoint>
          <Trackpoint>
            <Time>2021-04-03T15:44:39.000Z</Time>
            <Position>
              <LatitudeDegrees>42.3250951431691646575927734375</LatitudeDegrees>
              <LongitudeDegrees>2.45459876954555511474609375</LongitudeDegrees>
            </Position>
            <AltitudeMeters>730.20001220703125</AltitudeMeters>
            <DistanceMeters>NAN</DistanceMeters>
          </Trackpoint>
          <Trackpoint>
            <Time>2021-04-03T15:44:45.000Z</Time>
            <Position>
              <LatitudeDegrees>42.32505834661424160003662109375</LatitudeDegrees>
              <LongitudeDegrees>2.45458343066275119781494140625</LongitudeDegrees>
            </Position>
            <AltitudeMeters>730.79998779296875</AltitudeMeters>
            <DistanceMeters>NAN</DistanceMeters>
          </Trackpoint>
          <Trackpoint>
            <Time>2021-04-03T15:44:48.000Z</Time>
            <Position>
              <LatitudeDegrees>42.3250565864145755767822265625</LatitudeDegrees>
              <LongitudeDegrees>2.4545496515929698944091796875</LongitudeDegrees>
            </Position>
            <AltitudeMeters>730.79998779296875</AltitudeMeters>
            <DistanceMeters>NAN</DistanceMeters>
          </Trackpoint>
          <Trackpoint>
            <Time>2021-04-03T15:44:50.000Z</Time>
            <Position>
              <LatitudeDegrees>42.3250539042055606842041015625</LatitudeDegrees>
              <LongitudeDegrees>2.45452660135924816131591796875</LongitudeDegrees>
            </Position>
            <AltitudeMeters>731</AltitudeMeters>
            <DistanceMeters>NAN</DistanceMeters>
          </Trackpoint>
          <Trackpoint>
            <Time>2021-04-03T15:44:57.000Z</Time>
            <Position>
              <LatitudeDegrees>42.325030267238616943359375</LatitudeDegrees>
              <LongitudeDegrees>2.454459965229034423828125</LongitudeDegrees>
            </Position>
            <AltitudeMeters>731.20001220703125</AltitudeMeters>
            <DistanceMeters>NAN</DistanceMeters>
          </Trackpoint>
          <Trackpoint>
            <Time>2021-04-03T15:45:05.000Z</Time>
            <Position>
              <LatitudeDegrees>42.3249650560319423675537109375</LatitudeDegrees>
              <LongitudeDegrees>2.4544036388397216796875</LongitudeDegrees>
            </Position>
            <AltitudeMeters>731.20001220703125</AltitudeMeters>
            <DistanceMeters>NAN</DistanceMeters>
          </Trackpoint>
          <Trackpoint>
            <Time>2021-04-03T15:45:14.000Z</Time>
            <Position>
              <LatitudeDegrees>42.32493060640990734100341796875</LatitudeDegrees>
              <LongitudeDegrees>2.4543297104537487030029296875</LongitudeDegrees>
            </Position>
            <AltitudeMeters>731.20001220703125</AltitudeMeters>
            <DistanceMeters>NAN</DistanceMeters>
          </Trackpoint>
          <Trackpoint>
            <Time>2021-04-03T15:45:19.000Z</Time>
            <Position>
              <LatitudeDegrees>42.32490814290940761566162109375</LatitudeDegrees>
              <LongitudeDegrees>2.4542963504791259765625</LongitudeDegrees>
            </Position>
            <AltitudeMeters>731.5999755859375</AltitudeMeters>
            <DistanceMeters>NAN</DistanceMeters>
          </Trackpoint>
          <Trackpoint>
            <Time>2021-04-03T15:45:22.000Z</Time>
            <Position>
              <LatitudeDegrees>42.32489087618887424468994140625</LatitudeDegrees>
              <LongitudeDegrees>2.4542841129004955291748046875</LongitudeDegrees>
            </Position>
            <AltitudeMeters>731.5999755859375</AltitudeMeters>
            <DistanceMeters>NAN</DistanceMeters>
          </Trackpoint>
          <Trackpoint>
            <Time>2021-04-03T15:45:26.000Z</Time>
            <Position>
              <LatitudeDegrees>42.32488199137151241302490234375</LatitudeDegrees>
              <LongitudeDegrees>2.45425251312553882598876953125</LongitudeDegrees>
            </Position>
            <AltitudeMeters>732</AltitudeMeters>
            <DistanceMeters>NAN</DistanceMeters>
          </Trackpoint>
          <Trackpoint>
            <Time>2021-04-03T15:45:31.000Z</Time>
            <Position>
              <LatitudeDegrees>42.324862293899059295654296875</LatitudeDegrees>
              <LongitudeDegrees>2.4542368389666080474853515625</LongitudeDegrees>
            </Position>
            <AltitudeMeters>732.79998779296875</AltitudeMeters>
            <DistanceMeters>NAN</DistanceMeters>
          </Trackpoint>
          <Trackpoint>
            <Time>2021-04-03T15:45:32.000Z</Time>
            <Position>
              <LatitudeDegrees>42.32485466636717319488525390625</LatitudeDegrees>
              <LongitudeDegrees>2.4542277865111827850341796875</LongitudeDegrees>
            </Position>
            <AltitudeMeters>733</AltitudeMeters>
            <DistanceMeters>NAN</DistanceMeters>
          </Trackpoint>
          <Trackpoint>
            <Time>2021-04-03T15:45:38.000Z</Time>
            <Position>
              <LatitudeDegrees>42.3248322866857051849365234375</LatitudeDegrees>
              <LongitudeDegrees>2.454186715185642242431640625</LongitudeDegrees>
            </Position>
            <AltitudeMeters>733.4000244140625</AltitudeMeters>
            <DistanceMeters>NAN</DistanceMeters>
          </Trackpoint>
          <Trackpoint>
            <Time>2021-04-03T15:45:43.000Z</Time>
            <Position>
              <LatitudeDegrees>42.32477637939155101776123046875</LatitudeDegrees>
              <LongitudeDegrees>2.45417992584407329559326171875</LongitudeDegrees>
            </Position>
            <AltitudeMeters>734.20001220703125</AltitudeMeters>
            <DistanceMeters>NAN</DistanceMeters>
          </Trackpoint>
          <Trackpoint>
            <Time>2021-04-03T15:45:45.000Z</Time>
            <Position>
              <LatitudeDegrees>42.32477688230574131011962890625</LatitudeDegrees>
              <LongitudeDegrees>2.45416534133255481719970703125</LongitudeDegrees>
            </Position>
            <AltitudeMeters>734.5999755859375</AltitudeMeters>
            <DistanceMeters>NAN</DistanceMeters>
          </Trackpoint>
          <Trackpoint>
            <Time>2021-04-03T15:45:50.000Z</Time>
            <Position>
              <LatitudeDegrees>42.32475743629038333892822265625</LatitudeDegrees>
              <LongitudeDegrees>2.4541429616510868072509765625</LongitudeDegrees>
            </Position>
            <AltitudeMeters>735.20001220703125</AltitudeMeters>
            <DistanceMeters>NAN</DistanceMeters>
          </Trackpoint>
          <Trackpoint>
            <Time>2021-04-03T15:45:51.000Z</Time>
            <Position>
              <LatitudeDegrees>42.32474788092076778411865234375</LatitudeDegrees>
              <LongitudeDegrees>2.454138435423374176025390625</LongitudeDegrees>
            </Position>
            <AltitudeMeters>735.4000244140625</AltitudeMeters>
            <DistanceMeters>NAN</DistanceMeters>
          </Trackpoint>
          <Trackpoint>
            <Time>2021-04-03T15:45:58.000Z</Time>
            <Position>
              <LatitudeDegrees>42.32471200637519359588623046875</LatitudeDegrees>
              <LongitudeDegrees>2.4541151337325572967529296875</LongitudeDegrees>
            </Position>
            <AltitudeMeters>736.20001220703125</AltitudeMeters>
            <DistanceMeters>NAN</DistanceMeters>
          </Trackpoint>
          <Trackpoint>
            <Time>2021-04-03T15:45:59.000Z</Time>
            <Position>
              <LatitudeDegrees>42.32470429502427577972412109375</LatitudeDegrees>
              <LongitudeDegrees>2.45411253534257411956787109375</LongitudeDegrees>
            </Position>
            <AltitudeMeters>736.4000244140625</AltitudeMeters>
            <DistanceMeters>NAN</DistanceMeters>
          </Trackpoint>
          <Trackpoint>
            <Time>2021-04-03T15:46:04.000Z</Time>
            <Position>
              <LatitudeDegrees>42.32470278628170490264892578125</LatitudeDegrees>
              <LongitudeDegrees>2.45407850481569766998291015625</LongitudeDegrees>
            </Position>
            <AltitudeMeters>737.20001220703125</AltitudeMeters>
            <DistanceMeters>NAN</DistanceMeters>
          </Trackpoint>
          <Trackpoint>
            <Time>2021-04-03T15:46:05.000Z</Time>
            <Position>
              <LatitudeDegrees>42.32469893060624599456787109375</LatitudeDegrees>
              <LongitudeDegrees>2.45407439768314361572265625</LongitudeDegrees>
            </Position>
            <AltitudeMeters>737.4000244140625</AltitudeMeters>
            <DistanceMeters>NAN</DistanceMeters>
          </Trackpoint>
          <Trackpoint>
            <Time>2021-04-03T15:46:07.000Z</Time>
            <Position>
              <LatitudeDegrees>42.32470211572945117950439453125</LatitudeDegrees>
              <LongitudeDegrees>2.454064674675464630126953125</LongitudeDegrees>
            </Position>
            <AltitudeMeters>737.79998779296875</AltitudeMeters>
            <DistanceMeters>NAN</DistanceMeters>
          </Trackpoint>
          <Trackpoint>
            <Time>2021-04-03T15:46:10.000Z</Time>
            <Position>
              <LatitudeDegrees>42.32470496557652950286865234375</LatitudeDegrees>
              <LongitudeDegrees>2.45403810404241085052490234375</LongitudeDegrees>
            </Position>
            <AltitudeMeters>738.20001220703125</AltitudeMeters>
            <DistanceMeters>NAN</DistanceMeters>
          </Trackpoint>
          <Trackpoint>
            <Time>2021-04-03T15:46:12.000Z</Time>
            <Position>
              <LatitudeDegrees>42.324694655835628509521484375</LatitudeDegrees>
              <LongitudeDegrees>2.45403156615793704986572265625</LongitudeDegrees>
            </Position>
            <AltitudeMeters>738.20001220703125</AltitudeMeters>
            <DistanceMeters>NAN</DistanceMeters>
          </Trackpoint>
          <Trackpoint>
            <Time>2021-04-03T15:46:14.000Z</Time>
            <Position>
              <LatitudeDegrees>42.32467981986701488494873046875</LatitudeDegrees>
              <LongitudeDegrees>2.4540205858647823333740234375</LongitudeDegrees>
            </Position>
            <AltitudeMeters>738.5999755859375</AltitudeMeters>
            <DistanceMeters>NAN</DistanceMeters>
          </Trackpoint>
          <Trackpoint>
            <Time>2021-04-03T15:46:16.000Z</Time>
            <Position>
              <LatitudeDegrees>42.32466992922127246856689453125</LatitudeDegrees>
              <LongitudeDegrees>2.4540021456778049468994140625</LongitudeDegrees>
            </Position>
            <AltitudeMeters>738.79998779296875</AltitudeMeters>
            <DistanceMeters>NAN</DistanceMeters>
          </Trackpoint>
          <Trackpoint>
            <Time>2021-04-03T15:46:18.000Z</Time>
            <Position>
              <LatitudeDegrees>42.3246790654957294464111328125</LatitudeDegrees>
              <LongitudeDegrees>2.45397649705410003662109375</LongitudeDegrees>
            </Position>
            <AltitudeMeters>739</AltitudeMeters>
            <DistanceMeters>NAN</DistanceMeters>
          </Trackpoint>
          <Trackpoint>
            <Time>2021-04-03T15:46:20.000Z</Time>
            <Position>
              <LatitudeDegrees>42.3246854357421398162841796875</LatitudeDegrees>
              <LongitudeDegrees>2.45395579375326633453369140625</LongitudeDegrees>
            </Position>
            <AltitudeMeters>739.20001220703125</AltitudeMeters>
            <DistanceMeters>NAN</DistanceMeters>
          </Trackpoint>
          <Trackpoint>
            <Time>2021-04-03T15:46:24.000Z</Time>
            <Position>
              <LatitudeDegrees>42.32469088397920131683349609375</LatitudeDegrees>
              <LongitudeDegrees>2.45391882956027984619140625</LongitudeDegrees>
            </Position>
            <AltitudeMeters>739.5999755859375</AltitudeMeters>
            <DistanceMeters>NAN</DistanceMeters>
          </Trackpoint>
          <Trackpoint>
            <Time>2021-04-03T15:46:25.000Z</Time>
            <Position>
              <LatitudeDegrees>42.32469222508370876312255859375</LatitudeDegrees>
              <LongitudeDegrees>2.45391212403774261474609375</LongitudeDegrees>
            </Position>
            <AltitudeMeters>739.79998779296875</AltitudeMeters>
            <DistanceMeters>NAN</DistanceMeters>
          </Trackpoint>
          <Trackpoint>
            <Time>2021-04-03T15:46:32.000Z</Time>
            <Position>
              <LatitudeDegrees>42.3246673308312892913818359375</LatitudeDegrees>
              <LongitudeDegrees>2.45386543683707714080810546875</LongitudeDegrees>
            </Position>
            <AltitudeMeters>740.5999755859375</AltitudeMeters>
            <DistanceMeters>NAN</DistanceMeters>
          </Trackpoint>
          <Trackpoint>
            <Time>2021-04-03T15:46:41.000Z</Time>
            <Position>
              <LatitudeDegrees>42.3246338032186031341552734375</LatitudeDegrees>
              <LongitudeDegrees>2.45377424173057079315185546875</LongitudeDegrees>
            </Position>
            <AltitudeMeters>741.4000244140625</AltitudeMeters>
            <DistanceMeters>NAN</DistanceMeters>
          </Trackpoint>
          <Trackpoint>
            <Time>2021-04-03T15:46:45.000Z</Time>
            <Position>
              <LatitudeDegrees>42.32461988925933837890625</LatitudeDegrees>
              <LongitudeDegrees>2.4537344276905059814453125</LongitudeDegrees>
            </Position>
            <AltitudeMeters>741.5999755859375</AltitudeMeters>
            <DistanceMeters>NAN</DistanceMeters>
          </Trackpoint>
          <Trackpoint>
            <Time>2021-04-03T15:46:50.000Z</Time>
            <Position>
              <LatitudeDegrees>42.324608825147151947021484375</LatitudeDegrees>
              <LongitudeDegrees>2.453680448234081268310546875</LongitudeDegrees>
            </Position>
            <AltitudeMeters>741.5999755859375</AltitudeMeters>
            <DistanceMeters>NAN</DistanceMeters>
          </Trackpoint>
          <Trackpoint>
            <Time>2021-04-03T15:46:58.000Z</Time>
            <Position>
              <LatitudeDegrees>42.32460086233913898468017578125</LatitudeDegrees>
              <LongitudeDegrees>2.4536142311990261077880859375</LongitudeDegrees>
            </Position>
            <AltitudeMeters>741.79998779296875</AltitudeMeters>
            <DistanceMeters>NAN</DistanceMeters>
          </Trackpoint>
          <Trackpoint>
            <Time>2021-04-03T15:46:59.000Z</Time>
            <Position>
              <LatitudeDegrees>42.32459818013012409210205078125</LatitudeDegrees>
              <LongitudeDegrees>2.4536028318107128143310546875</LongitudeDegrees>
            </Position>
            <AltitudeMeters>741.79998779296875</AltitudeMeters>
            <DistanceMeters>NAN</DistanceMeters>
          </Trackpoint>
          <Trackpoint>
            <Time>2021-04-03T15:47:05.000Z</Time>
            <Position>
              <LatitudeDegrees>42.32461695559322834014892578125</LatitudeDegrees>
              <LongitudeDegrees>2.4535413086414337158203125</LongitudeDegrees>
            </Position>
            <AltitudeMeters>742.20001220703125</AltitudeMeters>
            <DistanceMeters>NAN</DistanceMeters>
          </Trackpoint>
          <Trackpoint>
            <Time>2021-04-03T15:47:14.000Z</Time>
            <Position>
              <LatitudeDegrees>42.32461695559322834014892578125</LatitudeDegrees>
              <LongitudeDegrees>2.4534475989639759063720703125</LongitudeDegrees>
            </Position>
            <AltitudeMeters>742.4000244140625</AltitudeMeters>
            <DistanceMeters>NAN</DistanceMeters>
          </Trackpoint>
          <Trackpoint>
            <Time>2021-04-03T15:47:22.000Z</Time>
            <Position>
              <LatitudeDegrees>42.32461863197386264801025390625</LatitudeDegrees>
              <LongitudeDegrees>2.45337526313960552215576171875</LongitudeDegrees>
            </Position>
            <AltitudeMeters>742.4000244140625</AltitudeMeters>
            <DistanceMeters>NAN</DistanceMeters>
          </Trackpoint>
          <Trackpoint>
            <Time>2021-04-03T15:47:25.000Z</Time>
            <Position>
              <LatitudeDegrees>42.32462860643863677978515625</LatitudeDegrees>
              <LongitudeDegrees>2.45336788706481456756591796875</LongitudeDegrees>
            </Position>
            <AltitudeMeters>742.4000244140625</AltitudeMeters>
            <DistanceMeters>NAN</DistanceMeters>
          </Trackpoint>
          <Trackpoint>
            <Time>2021-04-03T15:47:27.000Z</Time>
            <Position>
              <LatitudeDegrees>42.32462483458220958709716796875</LatitudeDegrees>
              <LongitudeDegrees>2.4533627741038799285888671875</LongitudeDegrees>
            </Position>
            <AltitudeMeters>742.4000244140625</AltitudeMeters>
            <DistanceMeters>NAN</DistanceMeters>
          </Trackpoint>
          <Trackpoint>
            <Time>2021-04-03T15:47:33.000Z</Time>
            <Position>
              <LatitudeDegrees>42.3246076516807079315185546875</LatitudeDegrees>
              <LongitudeDegrees>2.45327300392091274261474609375</LongitudeDegrees>
            </Position>
            <AltitudeMeters>742.20001220703125</AltitudeMeters>
            <DistanceMeters>NAN</DistanceMeters>
          </Trackpoint>
          <Trackpoint>
            <Time>2021-04-03T15:47:35.000Z</Time>
            <Position>
              <LatitudeDegrees>42.324602119624614715576171875</LatitudeDegrees>
              <LongitudeDegrees>2.4532494507730007171630859375</LongitudeDegrees>
            </Position>
            <AltitudeMeters>742.20001220703125</AltitudeMeters>
            <DistanceMeters>NAN</DistanceMeters>
          </Trackpoint>
          <Trackpoint>
            <Time>2021-04-03T15:47:40.000Z</Time>
            <Position>
              <LatitudeDegrees>42.32460203580558300018310546875</LatitudeDegrees>
              <LongitudeDegrees>2.45318767614662647247314453125</LongitudeDegrees>
            </Position>
            <AltitudeMeters>742.4000244140625</AltitudeMeters>
            <DistanceMeters>NAN</DistanceMeters>
          </Trackpoint>
          <Trackpoint>
            <Time>2021-04-03T15:47:44.000Z</Time>
            <Position>
              <LatitudeDegrees>42.3246076516807079315185546875</LatitudeDegrees>
              <LongitudeDegrees>2.4531569145619869232177734375</LongitudeDegrees>
            </Position>
            <AltitudeMeters>742.5999755859375</AltitudeMeters>
            <DistanceMeters>NAN</DistanceMeters>
          </Trackpoint>
          <Trackpoint>
            <Time>2021-04-03T15:47:46.000Z</Time>
            <Position>
              <LatitudeDegrees>42.32460773549973964691162109375</LatitudeDegrees>
              <LongitudeDegrees>2.45313805527985095977783203125</LongitudeDegrees>
            </Position>
            <AltitudeMeters>742.79998779296875</AltitudeMeters>
            <DistanceMeters>NAN</DistanceMeters>
          </Trackpoint>
          <Trackpoint>
            <Time>2021-04-03T15:47:56.000Z</Time>
            <Position>
              <LatitudeDegrees>42.32462332583963871002197265625</LatitudeDegrees>
              <LongitudeDegrees>2.45304401032626628875732421875</LongitudeDegrees>
            </Position>
            <AltitudeMeters>743.4000244140625</AltitudeMeters>
            <DistanceMeters>NAN</DistanceMeters>
          </Trackpoint>
          <Trackpoint>
            <Time>2021-04-03T15:48:00.000Z</Time>
            <Position>
              <LatitudeDegrees>42.32462533749639987945556640625</LatitudeDegrees>
              <LongitudeDegrees>2.45299816131591796875</LongitudeDegrees>
            </Position>
            <AltitudeMeters>743.20001220703125</AltitudeMeters>
            <DistanceMeters>NAN</DistanceMeters>
          </Trackpoint>
          <Trackpoint>
            <Time>2021-04-03T15:48:05.000Z</Time>
            <Position>
              <LatitudeDegrees>42.32463237829506397247314453125</LatitudeDegrees>
              <LongitudeDegrees>2.45291794650256633758544921875</LongitudeDegrees>
            </Position>
            <AltitudeMeters>743.20001220703125</AltitudeMeters>
            <DistanceMeters>NAN</DistanceMeters>
          </Trackpoint>
          <Trackpoint>
            <Time>2021-04-03T15:48:14.000Z</Time>
            <Position>
              <LatitudeDegrees>42.324650399386882781982421875</LatitudeDegrees>
              <LongitudeDegrees>2.4528025276958942413330078125</LongitudeDegrees>
            </Position>
            <AltitudeMeters>742.79998779296875</AltitudeMeters>
            <DistanceMeters>NAN</DistanceMeters>
          </Trackpoint>
          <Trackpoint>
            <Time>2021-04-03T15:48:22.000Z</Time>
            <Position>
              <LatitudeDegrees>42.324695326387882232666015625</LatitudeDegrees>
              <LongitudeDegrees>2.452743686735630035400390625</LongitudeDegrees>
            </Position>
            <AltitudeMeters>743</AltitudeMeters>
            <DistanceMeters>NAN</DistanceMeters>
          </Trackpoint>
          <Trackpoint>
            <Time>2021-04-03T15:48:29.000Z</Time>
            <Position>
              <LatitudeDegrees>42.32469440437853336334228515625</LatitudeDegrees>
              <LongitudeDegrees>2.452668584883213043212890625</LongitudeDegrees>
            </Position>
            <AltitudeMeters>742.79998779296875</AltitudeMeters>
            <DistanceMeters>NAN</DistanceMeters>
          </Trackpoint>
          <Trackpoint>
            <Time>2021-04-03T15:48:38.000Z</Time>
            <Position>
              <LatitudeDegrees>42.3246458731591701507568359375</LatitudeDegrees>
              <LongitudeDegrees>2.452566660940647125244140625</LongitudeDegrees>
            </Position>
            <AltitudeMeters>742.79998779296875</AltitudeMeters>
            <DistanceMeters>NAN</DistanceMeters>
          </Trackpoint>
          <Trackpoint>
            <Time>2021-04-03T15:48:45.000Z</Time>
            <Position>
              <LatitudeDegrees>42.3246371559798717498779296875</LatitudeDegrees>
              <LongitudeDegrees>2.4524903856217861175537109375</LongitudeDegrees>
            </Position>
            <AltitudeMeters>743</AltitudeMeters>
            <DistanceMeters>NAN</DistanceMeters>
          </Trackpoint>
          <Trackpoint>
            <Time>2021-04-03T15:48:54.000Z</Time>
            <Position>
              <LatitudeDegrees>42.32462860643863677978515625</LatitudeDegrees>
              <LongitudeDegrees>2.45237932540476322174072265625</LongitudeDegrees>
            </Position>
            <AltitudeMeters>743</AltitudeMeters>
            <DistanceMeters>NAN</DistanceMeters>
          </Trackpoint>
          <Trackpoint>
            <Time>2021-04-03T15:49:03.000Z</Time>
            <Position>
              <LatitudeDegrees>42.32464025728404521942138671875</LatitudeDegrees>
              <LongitudeDegrees>2.452295757830142974853515625</LongitudeDegrees>
            </Position>
            <AltitudeMeters>743</AltitudeMeters>
            <DistanceMeters>NAN</DistanceMeters>
          </Trackpoint>
          <Trackpoint>
            <Time>2021-04-03T15:49:11.000Z</Time>
            <Position>
              <LatitudeDegrees>42.3246830888092517852783203125</LatitudeDegrees>
              <LongitudeDegrees>2.45221788994967937469482421875</LongitudeDegrees>
            </Position>
            <AltitudeMeters>743.20001220703125</AltitudeMeters>
            <DistanceMeters>NAN</DistanceMeters>
          </Trackpoint>
          <Trackpoint>
            <Time>2021-04-03T15:49:20.000Z</Time>
            <Position>
              <LatitudeDegrees>42.3246995173394680023193359375</LatitudeDegrees>
              <LongitudeDegrees>2.45213172398507595062255859375</LongitudeDegrees>
            </Position>
            <AltitudeMeters>743.5999755859375</AltitudeMeters>
            <DistanceMeters>NAN</DistanceMeters>
          </Trackpoint>
          <Trackpoint>
            <Time>2021-04-03T15:49:22.000Z</Time>
            <Position>
              <LatitudeDegrees>42.32470395974814891815185546875</LatitudeDegrees>
              <LongitudeDegrees>2.4521135352551937103271484375</LongitudeDegrees>
            </Position>
            <AltitudeMeters>743.79998779296875</AltitudeMeters>
            <DistanceMeters>NAN</DistanceMeters>
          </Trackpoint>
          <Trackpoint>
            <Time>2021-04-03T15:49:27.000Z</Time>
            <Position>
              <LatitudeDegrees>42.32470680959522724151611328125</LatitudeDegrees>
              <LongitudeDegrees>2.452071122825145721435546875</LongitudeDegrees>
            </Position>
            <AltitudeMeters>744.20001220703125</AltitudeMeters>
            <DistanceMeters>NAN</DistanceMeters>
          </Trackpoint>
          <Trackpoint>
            <Time>2021-04-03T15:49:30.000Z</Time>
            <Position>
              <LatitudeDegrees>42.32473053038120269775390625</LatitudeDegrees>
              <LongitudeDegrees>2.45204136706888675689697265625</LongitudeDegrees>
            </Position>
            <AltitudeMeters>744.20001220703125</AltitudeMeters>
            <DistanceMeters>NAN</DistanceMeters>
          </Trackpoint>
          <Trackpoint>
            <Time>2021-04-03T15:49:36.000Z</Time>
            <Position>
              <LatitudeDegrees>42.32475726865231990814208984375</LatitudeDegrees>
              <LongitudeDegrees>2.45197833515703678131103515625</LongitudeDegrees>
            </Position>
            <AltitudeMeters>744.5999755859375</AltitudeMeters>
            <DistanceMeters>NAN</DistanceMeters>
          </Trackpoint>
          <Trackpoint>
            <Time>2021-04-03T15:49:37.000Z</Time>
            <Position>
              <LatitudeDegrees>42.32476162724196910858154296875</LatitudeDegrees>
              <LongitudeDegrees>2.451973222196102142333984375</LongitudeDegrees>
            </Position>
            <AltitudeMeters>744.79998779296875</AltitudeMeters>
            <DistanceMeters>NAN</DistanceMeters>
          </Trackpoint>
          <Trackpoint>
            <Time>2021-04-03T15:49:43.000Z</Time>
            <Position>
              <LatitudeDegrees>42.32476263307034969329833984375</LatitudeDegrees>
              <LongitudeDegrees>2.45192267931997776031494140625</LongitudeDegrees>
            </Position>
            <AltitudeMeters>745.20001220703125</AltitudeMeters>
            <DistanceMeters>NAN</DistanceMeters>
          </Trackpoint>
          <Trackpoint>
            <Time>2021-04-03T15:49:50.000Z</Time>
            <Position>
              <LatitudeDegrees>42.3247687518596649169921875</LatitudeDegrees>
              <LongitudeDegrees>2.45186962187290191650390625</LongitudeDegrees>
            </Position>
            <AltitudeMeters>745.79998779296875</AltitudeMeters>
            <DistanceMeters>NAN</DistanceMeters>
          </Trackpoint>
          <Trackpoint>
            <Time>2021-04-03T15:49:51.000Z</Time>
            <Position>
              <LatitudeDegrees>42.3247682489454746246337890625</LatitudeDegrees>
              <LongitudeDegrees>2.45186417363584041595458984375</LongitudeDegrees>
            </Position>
            <AltitudeMeters>746</AltitudeMeters>
            <DistanceMeters>NAN</DistanceMeters>
          </Trackpoint>
          <Trackpoint>
            <Time>2021-04-03T15:49:56.000Z</Time>
            <Position>
              <LatitudeDegrees>42.32475760392844676971435546875</LatitudeDegrees>
              <LongitudeDegrees>2.451821677386760711669921875</LongitudeDegrees>
            </Position>
            <AltitudeMeters>746.4000244140625</AltitudeMeters>
            <DistanceMeters>NAN</DistanceMeters>
          </Trackpoint>
          <Trackpoint>
            <Time>2021-04-03T15:50:00.000Z</Time>
            <Position>
              <LatitudeDegrees>42.3247457854449748992919921875</LatitudeDegrees>
              <LongitudeDegrees>2.451788820326328277587890625</LongitudeDegrees>
            </Position>
            <AltitudeMeters>747</AltitudeMeters>
            <DistanceMeters>NAN</DistanceMeters>
          </Trackpoint>
          <Trackpoint>
            <Time>2021-04-03T15:50:10.000Z</Time>
            <Position>
              <LatitudeDegrees>42.324754334986209869384765625</LatitudeDegrees>
              <LongitudeDegrees>2.4517120420932769775390625</LongitudeDegrees>
            </Position>
            <AltitudeMeters>748</AltitudeMeters>
            <DistanceMeters>NAN</DistanceMeters>
          </Trackpoint>
          <Trackpoint>
            <Time>2021-04-03T15:50:12.000Z</Time>
            <Position>
              <LatitudeDegrees>42.324761040508747100830078125</LatitudeDegrees>
              <LongitudeDegrees>2.45169251225888729095458984375</LongitudeDegrees>
            </Position>
            <AltitudeMeters>748.20001220703125</AltitudeMeters>
            <DistanceMeters>NAN</DistanceMeters>
          </Trackpoint>
          <Trackpoint>
            <Time>2021-04-03T15:50:18.000Z</Time>
            <Position>
              <LatitudeDegrees>42.32476950623095035552978515625</LatitudeDegrees>
              <LongitudeDegrees>2.45165370404720306396484375</LongitudeDegrees>
            </Position>
            <AltitudeMeters>748.79998779296875</AltitudeMeters>
            <DistanceMeters>NAN</DistanceMeters>
          </Trackpoint>
          <Trackpoint>
            <Time>2021-04-03T15:50:20.000Z</Time>
            <Position>
              <LatitudeDegrees>42.32476430945098400115966796875</LatitudeDegrees>
              <LongitudeDegrees>2.45164356194436550140380859375</LongitudeDegrees>
            </Position>
            <AltitudeMeters>749</AltitudeMeters>
            <DistanceMeters>NAN</DistanceMeters>
          </Trackpoint>
          <Trackpoint>
            <Time>2021-04-03T15:50:22.000Z</Time>
            <Position>
              <LatitudeDegrees>42.32476179488003253936767578125</LatitudeDegrees>
              <LongitudeDegrees>2.45162948034703731536865234375</LongitudeDegrees>
            </Position>
            <AltitudeMeters>749.4000244140625</AltitudeMeters>
            <DistanceMeters>NAN</DistanceMeters>
          </Trackpoint>
          <Trackpoint>
            <Time>2021-04-03T15:50:23.000Z</Time>
            <Position>
              <LatitudeDegrees>42.3247615434229373931884765625</LatitudeDegrees>
              <LongitudeDegrees>2.451620511710643768310546875</LongitudeDegrees>
            </Position>
            <AltitudeMeters>749.4000244140625</AltitudeMeters>
            <DistanceMeters>NAN</DistanceMeters>
          </Trackpoint>
          <Trackpoint>
            <Time>2021-04-03T15:50:30.000Z</Time>
            <Position>
              <LatitudeDegrees>42.324756346642971038818359375</LatitudeDegrees>
              <LongitudeDegrees>2.451563514769077301025390625</LongitudeDegrees>
            </Position>
            <AltitudeMeters>749.79998779296875</AltitudeMeters>
            <DistanceMeters>NAN</DistanceMeters>
          </Trackpoint>
          <Trackpoint>
            <Time>2021-04-03T15:50:33.000Z</Time>
            <Position>
              <LatitudeDegrees>42.32474570162594318389892578125</LatitudeDegrees>
              <LongitudeDegrees>2.4515388719737529754638671875</LongitudeDegrees>
            </Position>
            <AltitudeMeters>750</AltitudeMeters>
            <DistanceMeters>NAN</DistanceMeters>
          </Trackpoint>
          <Trackpoint>
            <Time>2021-04-03T15:50:38.000Z</Time>
            <Position>
              <LatitudeDegrees>42.3247360624372959136962890625</LatitudeDegrees>
              <LongitudeDegrees>2.4514949508011341094970703125</LongitudeDegrees>
            </Position>
            <AltitudeMeters>750.79998779296875</AltitudeMeters>
            <DistanceMeters>NAN</DistanceMeters>
          </Trackpoint>
          <Trackpoint>
            <Time>2021-04-03T15:50:40.000Z</Time>
            <Position>
              <LatitudeDegrees>42.3247306980192661285400390625</LatitudeDegrees>
              <LongitudeDegrees>2.451475001871585845947265625</LongitudeDegrees>
            </Position>
            <AltitudeMeters>751</AltitudeMeters>
            <DistanceMeters>NAN</DistanceMeters>
          </Trackpoint>
          <Trackpoint>
            <Time>2021-04-03T15:50:43.000Z</Time>
            <Position>
              <LatitudeDegrees>42.3247280158102512359619140625</LatitudeDegrees>
              <LongitudeDegrees>2.45143434964120388031005859375</LongitudeDegrees>
            </Position>
            <AltitudeMeters>751.20001220703125</AltitudeMeters>
            <DistanceMeters>NAN</DistanceMeters>
          </Trackpoint>
          <Trackpoint>
            <Time>2021-04-03T15:50:46.000Z</Time>
            <Position>
              <LatitudeDegrees>42.32472659088671207427978515625</LatitudeDegrees>
              <LongitudeDegrees>2.4514050967991352081298828125</LongitudeDegrees>
            </Position>
            <AltitudeMeters>751.5999755859375</AltitudeMeters>
            <DistanceMeters>NAN</DistanceMeters>
          </Trackpoint>
          <Trackpoint>
            <Time>2021-04-03T15:50:48.000Z</Time>
            <Position>
              <LatitudeDegrees>42.32473262585699558258056640625</LatitudeDegrees>
              <LongitudeDegrees>2.45138808153569698333740234375</LongitudeDegrees>
            </Position>
            <AltitudeMeters>751.5999755859375</AltitudeMeters>
            <DistanceMeters>NAN</DistanceMeters>
          </Trackpoint>
          <Trackpoint>
            <Time>2021-04-03T15:50:52.000Z</Time>
            <Position>
              <LatitudeDegrees>42.3247380740940570831298828125</LatitudeDegrees>
              <LongitudeDegrees>2.45135589502751827239990234375</LongitudeDegrees>
            </Position>
            <AltitudeMeters>752</AltitudeMeters>
            <DistanceMeters>NAN</DistanceMeters>
          </Trackpoint>
          <Trackpoint>
            <Time>2021-04-03T15:50:53.000Z</Time>
            <Position>
              <LatitudeDegrees>42.3247370682656764984130859375</LatitudeDegrees>
              <LongitudeDegrees>2.45134784840047359466552734375</LongitudeDegrees>
            </Position>
            <AltitudeMeters>752</AltitudeMeters>
            <DistanceMeters>NAN</DistanceMeters>
          </Trackpoint>
          <Trackpoint>
            <Time>2021-04-03T15:50:54.000Z</Time>
            <Position>
              <LatitudeDegrees>42.32473916374146938323974609375</LatitudeDegrees>
              <LongitudeDegrees>2.45133795775473117828369140625</LongitudeDegrees>
            </Position>
            <AltitudeMeters>752</AltitudeMeters>
            <DistanceMeters>NAN</DistanceMeters>
          </Trackpoint>
          <Trackpoint>
            <Time>2021-04-03T15:50:55.000Z</Time>
            <Position>
              <LatitudeDegrees>42.3247392475605010986328125</LatitudeDegrees>
              <LongitudeDegrees>2.45132915675640106201171875</LongitudeDegrees>
            </Position>
            <AltitudeMeters>752.20001220703125</AltitudeMeters>
            <DistanceMeters>NAN</DistanceMeters>
          </Trackpoint>
          <Trackpoint>
            <Time>2021-04-03T15:50:57.000Z</Time>
            <Position>
              <LatitudeDegrees>42.32473396696150302886962890625</LatitudeDegrees>
              <LongitudeDegrees>2.4513142369687557220458984375</LongitudeDegrees>
            </Position>
            <AltitudeMeters>752.20001220703125</AltitudeMeters>
            <DistanceMeters>NAN</DistanceMeters>
          </Trackpoint>
          <Trackpoint>
            <Time>2021-04-03T15:50:59.000Z</Time>
            <Position>
              <LatitudeDegrees>42.3247360624372959136962890625</LatitudeDegrees>
              <LongitudeDegrees>2.45129386894404888153076171875</LongitudeDegrees>
            </Position>
            <AltitudeMeters>752.5999755859375</AltitudeMeters>
            <DistanceMeters>NAN</DistanceMeters>
          </Trackpoint>
          <Trackpoint>
            <Time>2021-04-03T15:51:00.000Z</Time>
            <Position>
              <LatitudeDegrees>42.32474134303629398345947265625</LatitudeDegrees>
              <LongitudeDegrees>2.4512843973934650421142578125</LongitudeDegrees>
            </Position>
            <AltitudeMeters>752.5999755859375</AltitudeMeters>
            <DistanceMeters>NAN</DistanceMeters>
          </Trackpoint>
          <Trackpoint>
            <Time>2021-04-03T15:51:03.000Z</Time>
            <Position>
              <LatitudeDegrees>42.324754334986209869384765625</LatitudeDegrees>
              <LongitudeDegrees>2.45126587338745594024658203125</LongitudeDegrees>
            </Position>
            <AltitudeMeters>752.79998779296875</AltitudeMeters>
            <DistanceMeters>NAN</DistanceMeters>
          </Trackpoint>
          <Trackpoint>
            <Time>2021-04-03T15:51:04.000Z</Time>
            <Position>
              <LatitudeDegrees>42.32475894503295421600341796875</LatitudeDegrees>
              <LongitudeDegrees>2.45126000605523586273193359375</LongitudeDegrees>
            </Position>
            <AltitudeMeters>752.79998779296875</AltitudeMeters>
            <DistanceMeters>NAN</DistanceMeters>
          </Trackpoint>
          <Trackpoint>
            <Time>2021-04-03T15:51:07.000Z</Time>
            <Position>
              <LatitudeDegrees>42.32476967386901378631591796875</LatitudeDegrees>
              <LongitudeDegrees>2.4512401409447193145751953125</LongitudeDegrees>
            </Position>
            <AltitudeMeters>753.20001220703125</AltitudeMeters>
            <DistanceMeters>NAN</DistanceMeters>
          </Trackpoint>
          <Trackpoint>
            <Time>2021-04-03T15:51:12.000Z</Time>
            <Position>
              <LatitudeDegrees>42.3247930593788623809814453125</LatitudeDegrees>
              <LongitudeDegrees>2.45121038518846035003662109375</LongitudeDegrees>
            </Position>
            <AltitudeMeters>753.5999755859375</AltitudeMeters>
            <DistanceMeters>NAN</DistanceMeters>
          </Trackpoint>
          <Trackpoint>
            <Time>2021-04-03T15:51:21.000Z</Time>
            <Position>
              <LatitudeDegrees>42.32484678737819194793701171875</LatitudeDegrees>
              <LongitudeDegrees>2.45115204714238643646240234375</LongitudeDegrees>
            </Position>
            <AltitudeMeters>754.20001220703125</AltitudeMeters>
            <DistanceMeters>NAN</DistanceMeters>
          </Trackpoint>
          <Trackpoint>
            <Time>2021-04-03T15:51:22.000Z</Time>
            <Position>
              <LatitudeDegrees>42.32485583983361721038818359375</LatitudeDegrees>
              <LongitudeDegrees>2.45114785619080066680908203125</LongitudeDegrees>
            </Position>
            <AltitudeMeters>754.20001220703125</AltitudeMeters>
            <DistanceMeters>NAN</DistanceMeters>
          </Trackpoint>
          <Trackpoint>
            <Time>2021-04-03T15:51:24.000Z</Time>
            <Position>
              <LatitudeDegrees>42.32487277127802371978759765625</LatitudeDegrees>
              <LongitudeDegrees>2.45114685036242008209228515625</LongitudeDegrees>
            </Position>
            <AltitudeMeters>754.4000244140625</AltitudeMeters>
            <DistanceMeters>NAN</DistanceMeters>
          </Trackpoint>
          <Trackpoint>
            <Time>2021-04-03T15:51:33.000Z</Time>
            <Position>
              <LatitudeDegrees>42.32491753064095973968505859375</LatitudeDegrees>
              <LongitudeDegrees>2.4510842375457286834716796875</LongitudeDegrees>
            </Position>
            <AltitudeMeters>754.79998779296875</AltitudeMeters>
            <DistanceMeters>NAN</DistanceMeters>
          </Trackpoint>
          <Trackpoint>
            <Time>2021-04-03T15:51:42.000Z</Time>
            <Position>
              <LatitudeDegrees>42.32497067190706729888916015625</LatitudeDegrees>
              <LongitudeDegrees>2.45103252120316028594970703125</LongitudeDegrees>
            </Position>
            <AltitudeMeters>755.20001220703125</AltitudeMeters>
            <DistanceMeters>NAN</DistanceMeters>
          </Trackpoint>
          <Trackpoint>
            <Time>2021-04-03T15:51:46.000Z</Time>
            <Position>
              <LatitudeDegrees>42.3250049538910388946533203125</LatitudeDegrees>
              <LongitudeDegrees>2.45102497749030590057373046875</LongitudeDegrees>
            </Position>
            <AltitudeMeters>755.5999755859375</AltitudeMeters>
            <DistanceMeters>NAN</DistanceMeters>
          </Trackpoint>
          <Trackpoint>
            <Time>2021-04-03T15:51:51.000Z</Time>
            <Position>
              <LatitudeDegrees>42.32502398081123828887939453125</LatitudeDegrees>
              <LongitudeDegrees>2.4509970657527446746826171875</LongitudeDegrees>
            </Position>
            <AltitudeMeters>756.20001220703125</AltitudeMeters>
            <DistanceMeters>NAN</DistanceMeters>
          </Trackpoint>
          <Trackpoint>
            <Time>2021-04-03T15:51:53.000Z</Time>
            <Position>
              <LatitudeDegrees>42.32503906823694705963134765625</LatitudeDegrees>
              <LongitudeDegrees>2.45098541490733623504638671875</LongitudeDegrees>
            </Position>
            <AltitudeMeters>756.4000244140625</AltitudeMeters>
            <DistanceMeters>NAN</DistanceMeters>
          </Trackpoint>
          <Trackpoint>
            <Time>2021-04-03T15:52:06.000Z</Time>
            <Position>
              <LatitudeDegrees>42.32507787644863128662109375</LatitudeDegrees>
              <LongitudeDegrees>2.45087527669966220855712890625</LongitudeDegrees>
            </Position>
            <AltitudeMeters>757.20001220703125</AltitudeMeters>
            <DistanceMeters>NAN</DistanceMeters>
          </Trackpoint>
          <Trackpoint>
            <Time>2021-04-03T15:52:14.000Z</Time>
            <Position>
              <LatitudeDegrees>42.3251192830502986907958984375</LatitudeDegrees>
              <LongitudeDegrees>2.450827918946743011474609375</LongitudeDegrees>
            </Position>
            <AltitudeMeters>758.20001220703125</AltitudeMeters>
            <DistanceMeters>NAN</DistanceMeters>
          </Trackpoint>
          <Trackpoint>
            <Time>2021-04-03T15:52:16.000Z</Time>
            <Position>
              <LatitudeDegrees>42.325123138725757598876953125</LatitudeDegrees>
              <LongitudeDegrees>2.45082213543355464935302734375</LongitudeDegrees>
            </Position>
            <AltitudeMeters>758.5999755859375</AltitudeMeters>
            <DistanceMeters>NAN</DistanceMeters>
          </Trackpoint>
          <Trackpoint>
            <Time>2021-04-03T15:52:23.000Z</Time>
            <Position>
              <LatitudeDegrees>42.32511836104094982147216796875</LatitudeDegrees>
              <LongitudeDegrees>2.45075977407395839691162109375</LongitudeDegrees>
            </Position>
            <AltitudeMeters>759.4000244140625</AltitudeMeters>
            <DistanceMeters>NAN</DistanceMeters>
          </Trackpoint>
          <Trackpoint>
            <Time>2021-04-03T15:52:25.000Z</Time>
            <Position>
              <LatitudeDegrees>42.3251189477741718292236328125</LatitudeDegrees>
              <LongitudeDegrees>2.45075927115976810455322265625</LongitudeDegrees>
            </Position>
            <AltitudeMeters>759.5999755859375</AltitudeMeters>
            <DistanceMeters>NAN</DistanceMeters>
          </Trackpoint>
          <Trackpoint>
            <Time>2021-04-03T15:52:33.000Z</Time>
            <Position>
              <LatitudeDegrees>42.3251417465507984161376953125</LatitudeDegrees>
              <LongitudeDegrees>2.4507117457687854766845703125</LongitudeDegrees>
            </Position>
            <AltitudeMeters>760.4000244140625</AltitudeMeters>
            <DistanceMeters>NAN</DistanceMeters>
          </Trackpoint>
          <Trackpoint>
            <Time>2021-04-03T15:52:34.000Z</Time>
            <Position>
              <LatitudeDegrees>42.32514560222625732421875</LatitudeDegrees>
              <LongitudeDegrees>2.45070864446461200714111328125</LongitudeDegrees>
            </Position>
            <AltitudeMeters>760.4000244140625</AltitudeMeters>
            <DistanceMeters>NAN</DistanceMeters>
          </Trackpoint>
          <Trackpoint>
            <Time>2021-04-03T15:52:44.000Z</Time>
            <Position>
              <LatitudeDegrees>42.3251898586750030517578125</LatitudeDegrees>
              <LongitudeDegrees>2.45066807605326175689697265625</LongitudeDegrees>
            </Position>
            <AltitudeMeters>761.4000244140625</AltitudeMeters>
            <DistanceMeters>NAN</DistanceMeters>
          </Trackpoint>
          <Trackpoint>
            <Time>2021-04-03T15:52:45.000Z</Time>
            <Position>
              <LatitudeDegrees>42.3251977376639842987060546875</LatitudeDegrees>
              <LongitudeDegrees>2.45066723786294460296630859375</LongitudeDegrees>
            </Position>
            <AltitudeMeters>761.4000244140625</AltitudeMeters>
            <DistanceMeters>NAN</DistanceMeters>
          </Trackpoint>
          <Trackpoint>
            <Time>2021-04-03T15:52:52.000Z</Time>
            <Position>
              <LatitudeDegrees>42.32520218007266521453857421875</LatitudeDegrees>
              <LongitudeDegrees>2.4505977518856525421142578125</LongitudeDegrees>
            </Position>
            <AltitudeMeters>762</AltitudeMeters>
            <DistanceMeters>NAN</DistanceMeters>
          </Trackpoint>
          <Trackpoint>
            <Time>2021-04-03T15:52:53.000Z</Time>
            <Position>
              <LatitudeDegrees>42.32520117424428462982177734375</LatitudeDegrees>
              <LongitudeDegrees>2.45058341883122920989990234375</LongitudeDegrees>
            </Position>
            <AltitudeMeters>762</AltitudeMeters>
            <DistanceMeters>NAN</DistanceMeters>
          </Trackpoint>
          <Trackpoint>
            <Time>2021-04-03T15:52:59.000Z</Time>
            <Position>
              <LatitudeDegrees>42.32523872517049312591552734375</LatitudeDegrees>
              <LongitudeDegrees>2.4505464546382427215576171875</LongitudeDegrees>
            </Position>
            <AltitudeMeters>762.20001220703125</AltitudeMeters>
            <DistanceMeters>NAN</DistanceMeters>
          </Trackpoint>
          <Trackpoint>
            <Time>2021-04-03T15:53:00.000Z</Time>
            <Position>
              <LatitudeDegrees>42.32524157501757144927978515625</LatitudeDegrees>
              <LongitudeDegrees>2.4505414254963397979736328125</LongitudeDegrees>
            </Position>
            <AltitudeMeters>762.20001220703125</AltitudeMeters>
            <DistanceMeters>NAN</DistanceMeters>
          </Trackpoint>
          <Trackpoint>
            <Time>2021-04-03T15:53:04.000Z</Time>
            <Position>
              <LatitudeDegrees>42.32526605017483234405517578125</LatitudeDegrees>
              <LongitudeDegrees>2.45052172802388668060302734375</LongitudeDegrees>
            </Position>
            <AltitudeMeters>762.5999755859375</AltitudeMeters>
            <DistanceMeters>NAN</DistanceMeters>
          </Trackpoint>
          <Trackpoint>
            <Time>2021-04-03T15:53:06.000Z</Time>
            <Position>
              <LatitudeDegrees>42.3252879269421100616455078125</LatitudeDegrees>
              <LongitudeDegrees>2.4505130946636199951171875</LongitudeDegrees>
            </Position>
            <AltitudeMeters>762.5999755859375</AltitudeMeters>
            <DistanceMeters>NAN</DistanceMeters>
          </Trackpoint>
          <Trackpoint>
            <Time>2021-04-03T15:53:14.000Z</Time>
            <Position>
              <LatitudeDegrees>42.32533696107566356658935546875</LatitudeDegrees>
              <LongitudeDegrees>2.45048426091670989990234375</LongitudeDegrees>
            </Position>
            <AltitudeMeters>763</AltitudeMeters>
            <DistanceMeters>NAN</DistanceMeters>
          </Trackpoint>
          <Trackpoint>
            <Time>2021-04-03T15:53:21.000Z</Time>
            <Position>
              <LatitudeDegrees>42.32537828385829925537109375</LatitudeDegrees>
              <LongitudeDegrees>2.450451739132404327392578125</LongitudeDegrees>
            </Position>
            <AltitudeMeters>763.79998779296875</AltitudeMeters>
            <DistanceMeters>NAN</DistanceMeters>
          </Trackpoint>
          <Trackpoint>
            <Time>2021-04-03T15:53:31.000Z</Time>
            <Position>
              <LatitudeDegrees>42.32544408179819583892822265625</LatitudeDegrees>
              <LongitudeDegrees>2.4504053033888339996337890625</LongitudeDegrees>
            </Position>
            <AltitudeMeters>764.5999755859375</AltitudeMeters>
            <DistanceMeters>NAN</DistanceMeters>
          </Trackpoint>
          <Trackpoint>
            <Time>2021-04-03T15:53:33.000Z</Time>
            <Position>
              <LatitudeDegrees>42.3254545591771602630615234375</LatitudeDegrees>
              <LongitudeDegrees>2.4503923952579498291015625</LongitudeDegrees>
            </Position>
            <AltitudeMeters>764.79998779296875</AltitudeMeters>
            <DistanceMeters>NAN</DistanceMeters>
          </Trackpoint>
          <Trackpoint>
            <Time>2021-04-03T15:53:38.000Z</Time>
            <Position>
              <LatitudeDegrees>42.32549672015011310577392578125</LatitudeDegrees>
              <LongitudeDegrees>2.4503818340599536895751953125</LongitudeDegrees>
            </Position>
            <AltitudeMeters>765.4000244140625</AltitudeMeters>
            <DistanceMeters>NAN</DistanceMeters>
          </Trackpoint>
          <Trackpoint>
            <Time>2021-04-03T15:53:40.000Z</Time>
            <Position>
              <LatitudeDegrees>42.32550677843391895294189453125</LatitudeDegrees>
              <LongitudeDegrees>2.4503803253173828125</LongitudeDegrees>
            </Position>
            <AltitudeMeters>765.5999755859375</AltitudeMeters>
            <DistanceMeters>NAN</DistanceMeters>
          </Trackpoint>
          <Trackpoint>
            <Time>2021-04-03T15:53:42.000Z</Time>
            <Position>
              <LatitudeDegrees>42.32550258748233318328857421875</LatitudeDegrees>
              <LongitudeDegrees>2.45036850683391094207763671875</LongitudeDegrees>
            </Position>
            <AltitudeMeters>766</AltitudeMeters>
            <DistanceMeters>NAN</DistanceMeters>
          </Trackpoint>
          <Trackpoint>
            <Time>2021-04-03T15:53:47.000Z</Time>
            <Position>
              <LatitudeDegrees>42.32550258748233318328857421875</LatitudeDegrees>
              <LongitudeDegrees>2.45032927952706813812255859375</LongitudeDegrees>
            </Position>
            <AltitudeMeters>766.79998779296875</AltitudeMeters>
            <DistanceMeters>NAN</DistanceMeters>
          </Trackpoint>
          <Trackpoint>
            <Time>2021-04-03T15:53:54.000Z</Time>
            <Position>
              <LatitudeDegrees>42.325521446764469146728515625</LatitudeDegrees>
              <LongitudeDegrees>2.45027027092874050140380859375</LongitudeDegrees>
            </Position>
            <AltitudeMeters>767</AltitudeMeters>
            <DistanceMeters>NAN</DistanceMeters>
          </Trackpoint>
          <Trackpoint>
            <Time>2021-04-03T15:54:02.000Z</Time>
            <Position>
              <LatitudeDegrees>42.32556603848934173583984375</LatitudeDegrees>
              <LongitudeDegrees>2.45023121125996112823486328125</LongitudeDegrees>
            </Position>
            <AltitudeMeters>767.79998779296875</AltitudeMeters>
            <DistanceMeters>NAN</DistanceMeters>
          </Trackpoint>
          <Trackpoint>
            <Time>2021-04-03T15:54:06.000Z</Time>
            <Position>
              <LatitudeDegrees>42.32557366602122783660888671875</LatitudeDegrees>
              <LongitudeDegrees>2.45020220987498760223388671875</LongitudeDegrees>
            </Position>
            <AltitudeMeters>768.20001220703125</AltitudeMeters>
            <DistanceMeters>NAN</DistanceMeters>
          </Trackpoint>
          <Trackpoint>
            <Time>2021-04-03T15:54:09.000Z</Time>
            <Position>
              <LatitudeDegrees>42.32560132630169391632080078125</LatitudeDegrees>
              <LongitudeDegrees>2.45019382797181606292724609375</LongitudeDegrees>
            </Position>
            <AltitudeMeters>768.4000244140625</AltitudeMeters>
            <DistanceMeters>NAN</DistanceMeters>
          </Trackpoint>
          <Trackpoint>
            <Time>2021-04-03T15:54:18.000Z</Time>
            <Position>
              <LatitudeDegrees>42.3256490193307399749755859375</LatitudeDegrees>
              <LongitudeDegrees>2.450128532946109771728515625</LongitudeDegrees>
            </Position>
            <AltitudeMeters>768.79998779296875</AltitudeMeters>
            <DistanceMeters>NAN</DistanceMeters>
          </Trackpoint>
          <Trackpoint>
            <Time>2021-04-03T15:54:26.000Z</Time>
            <Position>
              <LatitudeDegrees>42.32568380422890186309814453125</LatitudeDegrees>
              <LongitudeDegrees>2.45006994344294071197509765625</LongitudeDegrees>
            </Position>
            <AltitudeMeters>768.79998779296875</AltitudeMeters>
            <DistanceMeters>NAN</DistanceMeters>
          </Trackpoint>
          <Trackpoint>
            <Time>2021-04-03T15:54:30.000Z</Time>
            <Position>
              <LatitudeDegrees>42.32569838874042034149169921875</LatitudeDegrees>
              <LongitudeDegrees>2.45004479773342609405517578125</LongitudeDegrees>
            </Position>
            <AltitudeMeters>769.20001220703125</AltitudeMeters>
            <DistanceMeters>NAN</DistanceMeters>
          </Trackpoint>
          <Trackpoint>
            <Time>2021-04-03T15:54:32.000Z</Time>
            <Position>
              <LatitudeDegrees>42.3256855644285678863525390625</LatitudeDegrees>
              <LongitudeDegrees>2.45003071613609790802001953125</LongitudeDegrees>
            </Position>
            <AltitudeMeters>769.4000244140625</AltitudeMeters>
            <DistanceMeters>NAN</DistanceMeters>
          </Trackpoint>
          <Trackpoint>
            <Time>2021-04-03T15:54:36.000Z</Time>
            <Position>
              <LatitudeDegrees>42.32566620223224163055419921875</LatitudeDegrees>
              <LongitudeDegrees>2.44999878108501434326171875</LongitudeDegrees>
            </Position>
            <AltitudeMeters>769.79998779296875</AltitudeMeters>
            <DistanceMeters>NAN</DistanceMeters>
          </Trackpoint>
          <Trackpoint>
            <Time>2021-04-03T15:54:39.000Z</Time>
            <Position>
              <LatitudeDegrees>42.3256726562976837158203125</LatitudeDegrees>
              <LongitudeDegrees>2.4499620683491230010986328125</LongitudeDegrees>
            </Position>
            <AltitudeMeters>770.20001220703125</AltitudeMeters>
            <DistanceMeters>NAN</DistanceMeters>
          </Trackpoint>
          <Trackpoint>
            <Time>2021-04-03T15:54:42.000Z</Time>
            <Position>
              <LatitudeDegrees>42.325684726238250732421875</LatitudeDegrees>
              <LongitudeDegrees>2.4499412812292575836181640625</LongitudeDegrees>
            </Position>
            <AltitudeMeters>770.79998779296875</AltitudeMeters>
            <DistanceMeters>NAN</DistanceMeters>
          </Trackpoint>
          <Trackpoint>
            <Time>2021-04-03T15:54:45.000Z</Time>
            <Position>
              <LatitudeDegrees>42.3257029987871646881103515625</LatitudeDegrees>
              <LongitudeDegrees>2.44992460124194622039794921875</LongitudeDegrees>
            </Position>
            <AltitudeMeters>771.4000244140625</AltitudeMeters>
            <DistanceMeters>NAN</DistanceMeters>
          </Trackpoint>
          <Trackpoint>
            <Time>2021-04-03T15:54:51.000Z</Time>
            <Position>
              <LatitudeDegrees>42.32572562992572784423828125</LatitudeDegrees>
              <LongitudeDegrees>2.4498926661908626556396484375</LongitudeDegrees>
            </Position>
            <AltitudeMeters>771.79998779296875</AltitudeMeters>
            <DistanceMeters>NAN</DistanceMeters>
          </Trackpoint>
          <Trackpoint>
            <Time>2021-04-03T15:54:58.000Z</Time>
            <Position>
              <LatitudeDegrees>42.3257385380566120147705078125</LatitudeDegrees>
              <LongitudeDegrees>2.44984480552375316619873046875</LongitudeDegrees>
            </Position>
            <AltitudeMeters>772.20001220703125</AltitudeMeters>
            <DistanceMeters>NAN</DistanceMeters>
          </Trackpoint>
          <Trackpoint>
            <Time>2021-04-03T15:55:00.000Z</Time>
            <Position>
              <LatitudeDegrees>42.3257341794669628143310546875</LatitudeDegrees>
              <LongitudeDegrees>2.44982519187033176422119140625</LongitudeDegrees>
            </Position>
            <AltitudeMeters>772.4000244140625</AltitudeMeters>
            <DistanceMeters>NAN</DistanceMeters>
          </Trackpoint>
          <Trackpoint>
            <Time>2021-04-03T15:55:05.000Z</Time>
            <Position>
              <LatitudeDegrees>42.32577449642121791839599609375</LatitudeDegrees>
              <LongitudeDegrees>2.44982703588902950286865234375</LongitudeDegrees>
            </Position>
            <AltitudeMeters>772.79998779296875</AltitudeMeters>
            <DistanceMeters>NAN</DistanceMeters>
          </Trackpoint>
          <Trackpoint>
            <Time>2021-04-03T15:55:11.000Z</Time>
            <Position>
              <LatitudeDegrees>42.32581841759383678436279296875</LatitudeDegrees>
              <LongitudeDegrees>2.44981362484395503997802734375</LongitudeDegrees>
            </Position>
            <AltitudeMeters>773.4000244140625</AltitudeMeters>
            <DistanceMeters>NAN</DistanceMeters>
          </Trackpoint>
          <Trackpoint>
            <Time>2021-04-03T15:55:13.000Z</Time>
            <Position>
              <LatitudeDegrees>42.3258334212005138397216796875</LatitudeDegrees>
              <LongitudeDegrees>2.449807338416576385498046875</LongitudeDegrees>
            </Position>
            <AltitudeMeters>773.5999755859375</AltitudeMeters>
            <DistanceMeters>NAN</DistanceMeters>
          </Trackpoint>
          <Trackpoint>
            <Time>2021-04-03T15:55:19.000Z</Time>
            <Position>
              <LatitudeDegrees>42.32587122358381748199462890625</LatitudeDegrees>
              <LongitudeDegrees>2.4497696198523044586181640625</LongitudeDegrees>
            </Position>
            <AltitudeMeters>774.20001220703125</AltitudeMeters>
            <DistanceMeters>NAN</DistanceMeters>
          </Trackpoint>
          <Trackpoint>
            <Time>2021-04-03T15:55:20.000Z</Time>
            <Position>
              <LatitudeDegrees>42.32588496990501880645751953125</LatitudeDegrees>
              <LongitudeDegrees>2.44977171532809734344482421875</LongitudeDegrees>
            </Position>
            <AltitudeMeters>774.4000244140625</AltitudeMeters>
            <DistanceMeters>NAN</DistanceMeters>
          </Trackpoint>
          <Trackpoint>
            <Time>2021-04-03T15:55:28.000Z</Time>
            <Position>
              <LatitudeDegrees>42.32592721469700336456298828125</LatitudeDegrees>
              <LongitudeDegrees>2.4497662670910358428955078125</LongitudeDegrees>
            </Position>
            <AltitudeMeters>774.79998779296875</AltitudeMeters>
            <DistanceMeters>NAN</DistanceMeters>
          </Trackpoint>
          <Trackpoint>
            <Time>2021-04-03T15:55:32.000Z</Time>
            <Position>
              <LatitudeDegrees>42.32594431377947330474853515625</LatitudeDegrees>
              <LongitudeDegrees>2.449744641780853271484375</LongitudeDegrees>
            </Position>
            <AltitudeMeters>775.4000244140625</AltitudeMeters>
            <DistanceMeters>NAN</DistanceMeters>
          </Trackpoint>
          <Trackpoint>
            <Time>2021-04-03T15:55:37.000Z</Time>
            <Position>
              <LatitudeDegrees>42.32598354108631610870361328125</LatitudeDegrees>
              <LongitudeDegrees>2.44973533786833286285400390625</LongitudeDegrees>
            </Position>
            <AltitudeMeters>776.4000244140625</AltitudeMeters>
            <DistanceMeters>NAN</DistanceMeters>
          </Trackpoint>
          <Trackpoint>
            <Time>2021-04-03T15:55:38.000Z</Time>
            <Position>
              <LatitudeDegrees>42.32598437927663326263427734375</LatitudeDegrees>
              <LongitudeDegrees>2.44973299093544483184814453125</LongitudeDegrees>
            </Position>
            <AltitudeMeters>776.4000244140625</AltitudeMeters>
            <DistanceMeters>NAN</DistanceMeters>
          </Trackpoint>
          <Trackpoint>
            <Time>2021-04-03T15:55:42.000Z</Time>
            <Position>
              <LatitudeDegrees>42.3259889893233776092529296875</LatitudeDegrees>
              <LongitudeDegrees>2.44970105588436126708984375</LongitudeDegrees>
            </Position>
            <AltitudeMeters>777</AltitudeMeters>
            <DistanceMeters>NAN</DistanceMeters>
          </Trackpoint>
          <Trackpoint>
            <Time>2021-04-03T15:55:46.000Z</Time>
            <Position>
              <LatitudeDegrees>42.3260137997567653656005859375</LatitudeDegrees>
              <LongitudeDegrees>2.4496896564960479736328125</LongitudeDegrees>
            </Position>
            <AltitudeMeters>777.5999755859375</AltitudeMeters>
            <DistanceMeters>NAN</DistanceMeters>
          </Trackpoint>
          <Trackpoint>
            <Time>2021-04-03T15:55:50.000Z</Time>
            <Position>
              <LatitudeDegrees>42.3260711319744586944580078125</LatitudeDegrees>
              <LongitudeDegrees>2.44969175197184085845947265625</LongitudeDegrees>
            </Position>
            <AltitudeMeters>778</AltitudeMeters>
            <DistanceMeters>NAN</DistanceMeters>
          </Trackpoint>
          <Trackpoint>
            <Time>2021-04-03T15:55:54.000Z</Time>
            <Position>
              <LatitudeDegrees>42.326104827225208282470703125</LatitudeDegrees>
              <LongitudeDegrees>2.44969560764729976654052734375</LongitudeDegrees>
            </Position>
            <AltitudeMeters>778.5999755859375</AltitudeMeters>
            <DistanceMeters>NAN</DistanceMeters>
          </Trackpoint>
          <Trackpoint>
            <Time>2021-04-03T15:56:01.000Z</Time>
            <Position>
              <LatitudeDegrees>42.32612452469766139984130859375</LatitudeDegrees>
              <LongitudeDegrees>2.44968554936349391937255859375</LongitudeDegrees>
            </Position>
            <AltitudeMeters>779.5999755859375</AltitudeMeters>
            <DistanceMeters>NAN</DistanceMeters>
          </Trackpoint>
          <Trackpoint>
            <Time>2021-04-03T15:56:09.000Z</Time>
            <Position>
              <LatitudeDegrees>42.32612905092537403106689453125</LatitudeDegrees>
              <LongitudeDegrees>2.44962721131742000579833984375</LongitudeDegrees>
            </Position>
            <AltitudeMeters>780.4000244140625</AltitudeMeters>
            <DistanceMeters>NAN</DistanceMeters>
          </Trackpoint>
          <Trackpoint>
            <Time>2021-04-03T15:56:13.000Z</Time>
            <Position>
              <LatitudeDegrees>42.32612335123121738433837890625</LatitudeDegrees>
              <LongitudeDegrees>2.4495848827064037322998046875</LongitudeDegrees>
            </Position>
            <AltitudeMeters>780.79998779296875</AltitudeMeters>
            <DistanceMeters>NAN</DistanceMeters>
          </Trackpoint>
          <Trackpoint>
            <Time>2021-04-03T15:56:19.000Z</Time>
            <Position>
              <LatitudeDegrees>42.32609602622687816619873046875</LatitudeDegrees>
              <LongitudeDegrees>2.44952696375548839569091796875</LongitudeDegrees>
            </Position>
            <AltitudeMeters>781.5999755859375</AltitudeMeters>
            <DistanceMeters>NAN</DistanceMeters>
          </Trackpoint>
          <Trackpoint>
            <Time>2021-04-03T15:56:21.000Z</Time>
            <Position>
              <LatitudeDegrees>42.32609820552170276641845703125</LatitudeDegrees>
              <LongitudeDegrees>2.44951958768069744110107421875</LongitudeDegrees>
            </Position>
            <AltitudeMeters>781.79998779296875</AltitudeMeters>
            <DistanceMeters>NAN</DistanceMeters>
          </Trackpoint>
          <Trackpoint>
            <Time>2021-04-03T15:56:29.000Z</Time>
            <Position>
              <LatitudeDegrees>42.32613910920917987823486328125</LatitudeDegrees>
              <LongitudeDegrees>2.44949125684797763824462890625</LongitudeDegrees>
            </Position>
            <AltitudeMeters>782.79998779296875</AltitudeMeters>
            <DistanceMeters>NAN</DistanceMeters>
          </Trackpoint>
          <Trackpoint>
            <Time>2021-04-03T15:56:34.000Z</Time>
            <Position>
              <LatitudeDegrees>42.32618085108697414398193359375</LatitudeDegrees>
              <LongitudeDegrees>2.4494729004800319671630859375</LongitudeDegrees>
            </Position>
            <AltitudeMeters>783.20001220703125</AltitudeMeters>
            <DistanceMeters>NAN</DistanceMeters>
          </Trackpoint>
          <Trackpoint>
            <Time>2021-04-03T15:56:39.000Z</Time>
            <Position>
              <LatitudeDegrees>42.3262132890522480010986328125</LatitudeDegrees>
              <LongitudeDegrees>2.44944817386567592620849609375</LongitudeDegrees>
            </Position>
            <AltitudeMeters>783.79998779296875</AltitudeMeters>
            <DistanceMeters>NAN</DistanceMeters>
          </Trackpoint>
          <Trackpoint>
            <Time>2021-04-03T15:56:41.000Z</Time>
            <Position>
              <LatitudeDegrees>42.32622007839381694793701171875</LatitudeDegrees>
              <LongitudeDegrees>2.44942621327936649322509765625</LongitudeDegrees>
            </Position>
            <AltitudeMeters>784</AltitudeMeters>
            <DistanceMeters>NAN</DistanceMeters>
          </Trackpoint>
          <Trackpoint>
            <Time>2021-04-03T15:56:50.000Z</Time>
            <Position>
              <LatitudeDegrees>42.32627145946025848388671875</LatitudeDegrees>
              <LongitudeDegrees>2.4494162388145923614501953125</LongitudeDegrees>
            </Position>
            <AltitudeMeters>784.5999755859375</AltitudeMeters>
            <DistanceMeters>NAN</DistanceMeters>
          </Trackpoint>
          <Trackpoint>
            <Time>2021-04-03T15:56:54.000Z</Time>
            <Position>
              <LatitudeDegrees>42.3263061605393886566162109375</LatitudeDegrees>
              <LongitudeDegrees>2.4493998102843761444091796875</LongitudeDegrees>
            </Position>
            <AltitudeMeters>785</AltitudeMeters>
            <DistanceMeters>NAN</DistanceMeters>
          </Trackpoint>
          <Trackpoint>
            <Time>2021-04-03T15:56:59.000Z</Time>
            <Position>
              <LatitudeDegrees>42.3263276182115077972412109375</LatitudeDegrees>
              <LongitudeDegrees>2.44937357492744922637939453125</LongitudeDegrees>
            </Position>
            <AltitudeMeters>785.79998779296875</AltitudeMeters>
            <DistanceMeters>NAN</DistanceMeters>
          </Trackpoint>
          <Trackpoint>
            <Time>2021-04-03T15:57:00.000Z</Time>
            <Position>
              <LatitudeDegrees>42.3263215832412242889404296875</LatitudeDegrees>
              <LongitudeDegrees>2.4493706412613391876220703125</LongitudeDegrees>
            </Position>
            <AltitudeMeters>786</AltitudeMeters>
            <DistanceMeters>NAN</DistanceMeters>
          </Trackpoint>
          <Trackpoint>
            <Time>2021-04-03T15:57:03.000Z</Time>
            <Position>
              <LatitudeDegrees>42.32631437480449676513671875</LatitudeDegrees>
              <LongitudeDegrees>2.4493394605815410614013671875</LongitudeDegrees>
            </Position>
            <AltitudeMeters>786.4000244140625</AltitudeMeters>
            <DistanceMeters>NAN</DistanceMeters>
          </Trackpoint>
          <Trackpoint>
            <Time>2021-04-03T15:57:07.000Z</Time>
            <Position>
              <LatitudeDegrees>42.3263378441333770751953125</LatitudeDegrees>
              <LongitudeDegrees>2.44932345114648342132568359375</LongitudeDegrees>
            </Position>
            <AltitudeMeters>787</AltitudeMeters>
            <DistanceMeters>NAN</DistanceMeters>
          </Trackpoint>
          <Trackpoint>
            <Time>2021-04-03T15:57:08.000Z</Time>
            <Position>
              <LatitudeDegrees>42.32634765096008777618408203125</LatitudeDegrees>
              <LongitudeDegrees>2.449321858584880828857421875</LongitudeDegrees>
            </Position>
            <AltitudeMeters>787.20001220703125</AltitudeMeters>
            <DistanceMeters>NAN</DistanceMeters>
          </Trackpoint>
          <Trackpoint>
            <Time>2021-04-03T15:57:15.000Z</Time>
            <Position>
              <LatitudeDegrees>42.32638654299080371856689453125</LatitudeDegrees>
              <LongitudeDegrees>2.44929227046668529510498046875</LongitudeDegrees>
            </Position>
            <AltitudeMeters>788.20001220703125</AltitudeMeters>
            <DistanceMeters>NAN</DistanceMeters>
          </Trackpoint>
          <Trackpoint>
            <Time>2021-04-03T15:57:19.000Z</Time>
            <Position>
              <LatitudeDegrees>42.3264265246689319610595703125</LatitudeDegrees>
              <LongitudeDegrees>2.4492915160953998565673828125</LongitudeDegrees>
            </Position>
            <AltitudeMeters>789.20001220703125</AltitudeMeters>
            <DistanceMeters>NAN</DistanceMeters>
          </Trackpoint>
          <Trackpoint>
            <Time>2021-04-03T15:57:22.000Z</Time>
            <Position>
              <LatitudeDegrees>42.32644840143620967864990234375</LatitudeDegrees>
              <LongitudeDegrees>2.4492921866476535797119140625</LongitudeDegrees>
            </Position>
            <AltitudeMeters>789.4000244140625</AltitudeMeters>
            <DistanceMeters>NAN</DistanceMeters>
          </Trackpoint>
          <Trackpoint>
            <Time>2021-04-03T15:57:28.000Z</Time>
            <Position>
              <LatitudeDegrees>42.3264701105654239654541015625</LatitudeDegrees>
              <LongitudeDegrees>2.4492804519832134246826171875</LongitudeDegrees>
            </Position>
            <AltitudeMeters>790.20001220703125</AltitudeMeters>
            <DistanceMeters>NAN</DistanceMeters>
          </Trackpoint>
          <Trackpoint>
            <Time>2021-04-03T15:57:29.000Z</Time>
            <Position>
              <LatitudeDegrees>42.3264746367931365966796875</LatitudeDegrees>
              <LongitudeDegrees>2.44927651248872280120849609375</LongitudeDegrees>
            </Position>
            <AltitudeMeters>790.4000244140625</AltitudeMeters>
            <DistanceMeters>NAN</DistanceMeters>
          </Trackpoint>
          <Trackpoint>
            <Time>2021-04-03T15:57:36.000Z</Time>
            <Position>
              <LatitudeDegrees>42.3265079967677593231201171875</LatitudeDegrees>
              <LongitudeDegrees>2.449248097836971282958984375</LongitudeDegrees>
            </Position>
            <AltitudeMeters>790.5999755859375</AltitudeMeters>
            <DistanceMeters>NAN</DistanceMeters>
          </Trackpoint>
          <Trackpoint>
            <Time>2021-04-03T15:57:42.000Z</Time>
            <Position>
              <LatitudeDegrees>42.32654999010264873504638671875</LatitudeDegrees>
              <LongitudeDegrees>2.449203841388225555419921875</LongitudeDegrees>
            </Position>
            <AltitudeMeters>791</AltitudeMeters>
            <DistanceMeters>NAN</DistanceMeters>
          </Trackpoint>
          <Trackpoint>
            <Time>2021-04-03T15:57:48.000Z</Time>
            <Position>
              <LatitudeDegrees>42.3266156204044818878173828125</LatitudeDegrees>
              <LongitudeDegrees>2.4491895921528339385986328125</LongitudeDegrees>
            </Position>
            <AltitudeMeters>791.4000244140625</AltitudeMeters>
            <DistanceMeters>NAN</DistanceMeters>
          </Trackpoint>
          <Trackpoint>
            <Time>2021-04-03T15:57:51.000Z</Time>
            <Position>
              <LatitudeDegrees>42.326645962893962860107421875</LatitudeDegrees>
              <LongitudeDegrees>2.44918867014348506927490234375</LongitudeDegrees>
            </Position>
            <AltitudeMeters>791.4000244140625</AltitudeMeters>
            <DistanceMeters>NAN</DistanceMeters>
          </Trackpoint>
          <Trackpoint>
            <Time>2021-04-03T15:57:53.000Z</Time>
            <Position>
              <LatitudeDegrees>42.32666012831032276153564453125</LatitudeDegrees>
              <LongitudeDegrees>2.4491835571825504302978515625</LongitudeDegrees>
            </Position>
            <AltitudeMeters>791.5999755859375</AltitudeMeters>
            <DistanceMeters>NAN</DistanceMeters>
          </Trackpoint>
          <Trackpoint>
            <Time>2021-04-03T15:57:54.000Z</Time>
            <Position>
              <LatitudeDegrees>42.3266637325286865234375</LatitudeDegrees>
              <LongitudeDegrees>2.4491751752793788909912109375</LongitudeDegrees>
            </Position>
            <AltitudeMeters>791.5999755859375</AltitudeMeters>
            <DistanceMeters>NAN</DistanceMeters>
          </Trackpoint>
          <Trackpoint>
            <Time>2021-04-03T15:58:01.000Z</Time>
            <Position>
              <LatitudeDegrees>42.3266863636672496795654296875</LatitudeDegrees>
              <LongitudeDegrees>2.44914852082729339599609375</LongitudeDegrees>
            </Position>
            <AltitudeMeters>792.20001220703125</AltitudeMeters>
            <DistanceMeters>NAN</DistanceMeters>
          </Trackpoint>
          <Trackpoint>
            <Time>2021-04-03T15:58:06.000Z</Time>
            <Position>
              <LatitudeDegrees>42.326744534075260162353515625</LatitudeDegrees>
              <LongitudeDegrees>2.4491607584059238433837890625</LongitudeDegrees>
            </Position>
            <AltitudeMeters>792.4000244140625</AltitudeMeters>
            <DistanceMeters>NAN</DistanceMeters>
          </Trackpoint>
          <Trackpoint>
            <Time>2021-04-03T15:58:09.000Z</Time>
            <Position>
              <LatitudeDegrees>42.32675652019679546356201171875</LatitudeDegrees>
              <LongitudeDegrees>2.44915933348238468170166015625</LongitudeDegrees>
            </Position>
            <AltitudeMeters>792.5999755859375</AltitudeMeters>
            <DistanceMeters>NAN</DistanceMeters>
          </Trackpoint>
          <Trackpoint>
            <Time>2021-04-03T15:58:18.000Z</Time>
            <Position>
              <LatitudeDegrees>42.32682139612734317779541015625</LatitudeDegrees>
              <LongitudeDegrees>2.44914986193180084228515625</LongitudeDegrees>
            </Position>
            <AltitudeMeters>793.4000244140625</AltitudeMeters>
            <DistanceMeters>NAN</DistanceMeters>
          </Trackpoint>
          <Trackpoint>
            <Time>2021-04-03T15:58:20.000Z</Time>
            <Position>
              <LatitudeDegrees>42.32684008777141571044921875</LatitudeDegrees>
              <LongitudeDegrees>2.4491557292640209197998046875</LongitudeDegrees>
            </Position>
            <AltitudeMeters>793.5999755859375</AltitudeMeters>
            <DistanceMeters>NAN</DistanceMeters>
          </Trackpoint>
          <Trackpoint>
            <Time>2021-04-03T15:58:25.000Z</Time>
            <Position>
              <LatitudeDegrees>42.326869256794452667236328125</LatitudeDegrees>
              <LongitudeDegrees>2.4491587467491626739501953125</LongitudeDegrees>
            </Position>
            <AltitudeMeters>794</AltitudeMeters>
            <DistanceMeters>NAN</DistanceMeters>
          </Trackpoint>
          <Trackpoint>
            <Time>2021-04-03T15:58:27.000Z</Time>
            <Position>
              <LatitudeDegrees>42.326880656182765960693359375</LatitudeDegrees>
              <LongitudeDegrees>2.44915078394114971160888671875</LongitudeDegrees>
            </Position>
            <AltitudeMeters>794</AltitudeMeters>
            <DistanceMeters>NAN</DistanceMeters>
          </Trackpoint>
          <Trackpoint>
            <Time>2021-04-03T15:58:32.000Z</Time>
            <Position>
              <LatitudeDegrees>42.32691586017608642578125</LatitudeDegrees>
              <LongitudeDegrees>2.44913376867771148681640625</LongitudeDegrees>
            </Position>
            <AltitudeMeters>794.4000244140625</AltitudeMeters>
            <DistanceMeters>NAN</DistanceMeters>
          </Trackpoint>
          <Trackpoint>
            <Time>2021-04-03T15:58:37.000Z</Time>
            <Position>
              <LatitudeDegrees>42.32696372084319591522216796875</LatitudeDegrees>
              <LongitudeDegrees>2.449157238006591796875</LongitudeDegrees>
            </Position>
            <AltitudeMeters>795</AltitudeMeters>
            <DistanceMeters>NAN</DistanceMeters>
          </Trackpoint>
          <Trackpoint>
            <Time>2021-04-03T15:58:41.000Z</Time>
            <Position>
              <LatitudeDegrees>42.3269894532859325408935546875</LatitudeDegrees>
              <LongitudeDegrees>2.44915061630308628082275390625</LongitudeDegrees>
            </Position>
            <AltitudeMeters>795.4000244140625</AltitudeMeters>
            <DistanceMeters>NAN</DistanceMeters>
          </Trackpoint>
          <Trackpoint>
            <Time>2021-04-03T15:58:47.000Z</Time>
            <Position>
              <LatitudeDegrees>42.32700596563518047332763671875</LatitudeDegrees>
              <LongitudeDegrees>2.44913242757320404052734375</LongitudeDegrees>
            </Position>
            <AltitudeMeters>796.20001220703125</AltitudeMeters>
            <DistanceMeters>NAN</DistanceMeters>
          </Trackpoint>
          <Trackpoint>
            <Time>2021-04-03T15:58:49.000Z</Time>
            <Position>
              <LatitudeDegrees>42.32701669447124004364013671875</LatitudeDegrees>
              <LongitudeDegrees>2.44912714697420597076416015625</LongitudeDegrees>
            </Position>
            <AltitudeMeters>796.5999755859375</AltitudeMeters>
            <DistanceMeters>NAN</DistanceMeters>
          </Trackpoint>
          <Trackpoint>
            <Time>2021-04-03T15:58:58.000Z</Time>
            <Position>
              <LatitudeDegrees>42.32707369141280651092529296875</LatitudeDegrees>
              <LongitudeDegrees>2.44906445033848285675048828125</LongitudeDegrees>
            </Position>
            <AltitudeMeters>797.4000244140625</AltitudeMeters>
            <DistanceMeters>NAN</DistanceMeters>
          </Trackpoint>
          <Trackpoint>
            <Time>2021-04-03T15:59:02.000Z</Time>
            <Position>
              <LatitudeDegrees>42.327095903456211090087890625</LatitudeDegrees>
              <LongitudeDegrees>2.44905103929340839385986328125</LongitudeDegrees>
            </Position>
            <AltitudeMeters>797.5999755859375</AltitudeMeters>
            <DistanceMeters>NAN</DistanceMeters>
          </Trackpoint>
          <Trackpoint>
            <Time>2021-04-03T15:59:04.000Z</Time>
            <Position>
              <LatitudeDegrees>42.327107302844524383544921875</LatitudeDegrees>
              <LongitudeDegrees>2.44904718361794948577880859375</LongitudeDegrees>
            </Position>
            <AltitudeMeters>797.79998779296875</AltitudeMeters>
            <DistanceMeters>NAN</DistanceMeters>
          </Trackpoint>
          <Trackpoint>
            <Time>2021-04-03T15:59:09.000Z</Time>
            <Position>
              <LatitudeDegrees>42.3271237313747406005859375</LatitudeDegrees>
              <LongitudeDegrees>2.44905464351177215576171875</LongitudeDegrees>
            </Position>
            <AltitudeMeters>798.5999755859375</AltitudeMeters>
            <DistanceMeters>NAN</DistanceMeters>
          </Trackpoint>
          <Trackpoint>
            <Time>2021-04-03T15:59:13.000Z</Time>
            <Position>
              <LatitudeDegrees>42.3271559178829193115234375</LatitudeDegrees>
              <LongitudeDegrees>2.44904517196118831634521484375</LongitudeDegrees>
            </Position>
            <AltitudeMeters>799.20001220703125</AltitudeMeters>
            <DistanceMeters>NAN</DistanceMeters>
          </Trackpoint>
          <Trackpoint>
            <Time>2021-04-03T15:59:16.000Z</Time>
            <Position>
              <LatitudeDegrees>42.32716572470963001251220703125</LatitudeDegrees>
              <LongitudeDegrees>2.44904533959925174713134765625</LongitudeDegrees>
            </Position>
            <AltitudeMeters>799.79998779296875</AltitudeMeters>
            <DistanceMeters>NAN</DistanceMeters>
          </Trackpoint>
          <Trackpoint>
            <Time>2021-04-03T15:59:20.000Z</Time>
            <Position>
              <LatitudeDegrees>42.3271795548498630523681640625</LatitudeDegrees>
              <LongitudeDegrees>2.44905388914048671722412109375</LongitudeDegrees>
            </Position>
            <AltitudeMeters>800.4000244140625</AltitudeMeters>
            <DistanceMeters>NAN</DistanceMeters>
          </Trackpoint>
          <Trackpoint>
            <Time>2021-04-03T15:59:23.000Z</Time>
            <Position>
              <LatitudeDegrees>42.3271829076111316680908203125</LatitudeDegrees>
              <LongitudeDegrees>2.449057996273040771484375</LongitudeDegrees>
            </Position>
            <AltitudeMeters>801</AltitudeMeters>
            <DistanceMeters>NAN</DistanceMeters>
          </Trackpoint>
          <Trackpoint>
            <Time>2021-04-03T15:59:28.000Z</Time>
            <Position>
              <LatitudeDegrees>42.32721048407256603240966796875</LatitudeDegrees>
              <LongitudeDegrees>2.4490595050156116485595703125</LongitudeDegrees>
            </Position>
            <AltitudeMeters>801.5999755859375</AltitudeMeters>
            <DistanceMeters>NAN</DistanceMeters>
          </Trackpoint>
          <Trackpoint>
            <Time>2021-04-03T15:59:31.000Z</Time>
            <Position>
              <LatitudeDegrees>42.32722573913633823394775390625</LatitudeDegrees>
              <LongitudeDegrees>2.449067719280719757080078125</LongitudeDegrees>
            </Position>
            <AltitudeMeters>802</AltitudeMeters>
            <DistanceMeters>NAN</DistanceMeters>
          </Trackpoint>
          <Trackpoint>
            <Time>2021-04-03T15:59:34.000Z</Time>
            <Position>
              <LatitudeDegrees>42.3272337019443511962890625</LatitudeDegrees>
              <LongitudeDegrees>2.44905690662562847137451171875</LongitudeDegrees>
            </Position>
            <AltitudeMeters>802.4000244140625</AltitudeMeters>
            <DistanceMeters>NAN</DistanceMeters>
          </Trackpoint>
          <Trackpoint>
            <Time>2021-04-03T15:59:40.000Z</Time>
            <Position>
              <LatitudeDegrees>42.32726563699543476104736328125</LatitudeDegrees>
              <LongitudeDegrees>2.44904701597988605499267578125</LongitudeDegrees>
            </Position>
            <AltitudeMeters>803</AltitudeMeters>
            <DistanceMeters>NAN</DistanceMeters>
          </Trackpoint>
          <Trackpoint>
            <Time>2021-04-03T15:59:41.000Z</Time>
            <Position>
              <LatitudeDegrees>42.3272690735757350921630859375</LatitudeDegrees>
              <LongitudeDegrees>2.4490447528660297393798828125</LongitudeDegrees>
            </Position>
            <AltitudeMeters>803</AltitudeMeters>
            <DistanceMeters>NAN</DistanceMeters>
          </Trackpoint>
          <Trackpoint>
            <Time>2021-04-03T15:59:48.000Z</Time>
            <Position>
              <LatitudeDegrees>42.32730871997773647308349609375</LatitudeDegrees>
              <LongitudeDegrees>2.44903385639190673828125</LongitudeDegrees>
            </Position>
            <AltitudeMeters>804</AltitudeMeters>
            <DistanceMeters>NAN</DistanceMeters>
          </Trackpoint>
          <Trackpoint>
            <Time>2021-04-03T15:59:53.000Z</Time>
            <Position>
              <LatitudeDegrees>42.32732850126922130584716796875</LatitudeDegrees>
              <LongitudeDegrees>2.449028827250003814697265625</LongitudeDegrees>
            </Position>
            <AltitudeMeters>805</AltitudeMeters>
            <DistanceMeters>NAN</DistanceMeters>
          </Trackpoint>
          <Trackpoint>
            <Time>2021-04-03T15:59:58.000Z</Time>
            <Position>
              <LatitudeDegrees>42.32735331170260906219482421875</LatitudeDegrees>
              <LongitudeDegrees>2.4490088783204555511474609375</LongitudeDegrees>
            </Position>
            <AltitudeMeters>805.5999755859375</AltitudeMeters>
            <DistanceMeters>NAN</DistanceMeters>
          </Trackpoint>
          <Trackpoint>
            <Time>2021-04-03T16:00:00.000Z</Time>
            <Position>
              <LatitudeDegrees>42.327358759939670562744140625</LatitudeDegrees>
              <LongitudeDegrees>2.449004352092742919921875</LongitudeDegrees>
            </Position>
            <AltitudeMeters>805.79998779296875</AltitudeMeters>
            <DistanceMeters>NAN</DistanceMeters>
          </Trackpoint>
          <Trackpoint>
            <Time>2021-04-03T16:00:11.000Z</Time>
            <Position>
              <LatitudeDegrees>42.32745741493999958038330078125</LatitudeDegrees>
              <LongitudeDegrees>2.44902924634516239166259765625</LongitudeDegrees>
            </Position>
            <AltitudeMeters>806</AltitudeMeters>
            <DistanceMeters>NAN</DistanceMeters>
          </Trackpoint>
          <Trackpoint>
            <Time>2021-04-03T16:00:14.000Z</Time>
            <Position>
              <LatitudeDegrees>42.32748918235301971435546875</LatitudeDegrees>
              <LongitudeDegrees>2.44905740953981876373291015625</LongitudeDegrees>
            </Position>
            <AltitudeMeters>806.20001220703125</AltitudeMeters>
            <DistanceMeters>NAN</DistanceMeters>
          </Trackpoint>
          <Trackpoint>
            <Time>2021-04-03T16:00:17.000Z</Time>
            <Position>
              <LatitudeDegrees>42.32752497307956218719482421875</LatitudeDegrees>
              <LongitudeDegrees>2.44908808730542659759521484375</LongitudeDegrees>
            </Position>
            <AltitudeMeters>806.4000244140625</AltitudeMeters>
            <DistanceMeters>NAN</DistanceMeters>
          </Trackpoint>
          <Trackpoint>
            <Time>2021-04-03T16:00:21.000Z</Time>
            <Position>
              <LatitudeDegrees>42.32754710130393505096435546875</LatitudeDegrees>
              <LongitudeDegrees>2.44912882335484027862548828125</LongitudeDegrees>
            </Position>
            <AltitudeMeters>806.79998779296875</AltitudeMeters>
            <DistanceMeters>NAN</DistanceMeters>
          </Trackpoint>
          <Trackpoint>
            <Time>2021-04-03T16:00:23.000Z</Time>
            <Position>
              <LatitudeDegrees>42.32754978351294994354248046875</LatitudeDegrees>
              <LongitudeDegrees>2.44914340786635875701904296875</LongitudeDegrees>
            </Position>
            <AltitudeMeters>807</AltitudeMeters>
            <DistanceMeters>NAN</DistanceMeters>
          </Trackpoint>
          <Trackpoint>
            <Time>2021-04-03T16:00:24.000Z</Time>
            <Position>
              <LatitudeDegrees>42.3275540582835674285888671875</LatitudeDegrees>
              <LongitudeDegrees>2.44914944283664226531982421875</LongitudeDegrees>
            </Position>
            <AltitudeMeters>807.20001220703125</AltitudeMeters>
            <DistanceMeters>NAN</DistanceMeters>
          </Trackpoint>
          <Trackpoint>
            <Time>2021-04-03T16:00:28.000Z</Time>
            <Position>
              <LatitudeDegrees>42.327592112123966217041015625</LatitudeDegrees>
              <LongitudeDegrees>2.44918012060225009918212890625</LongitudeDegrees>
            </Position>
            <AltitudeMeters>807.79998779296875</AltitudeMeters>
            <DistanceMeters>NAN</DistanceMeters>
          </Trackpoint>
          <Trackpoint>
            <Time>2021-04-03T16:00:33.000Z</Time>
            <Position>
              <LatitudeDegrees>42.32762622646987438201904296875</LatitudeDegrees>
              <LongitudeDegrees>2.44920006953179836273193359375</LongitudeDegrees>
            </Position>
            <AltitudeMeters>808.4000244140625</AltitudeMeters>
            <DistanceMeters>NAN</DistanceMeters>
          </Trackpoint>
          <Trackpoint>
            <Time>2021-04-03T16:00:36.000Z</Time>
            <Position>
              <LatitudeDegrees>42.32764751650393009185791015625</LatitudeDegrees>
              <LongitudeDegrees>2.44921532459557056427001953125</LongitudeDegrees>
            </Position>
            <AltitudeMeters>808.79998779296875</AltitudeMeters>
            <DistanceMeters>NAN</DistanceMeters>
          </Trackpoint>
          <Trackpoint>
            <Time>2021-04-03T16:00:40.000Z</Time>
            <Position>
              <LatitudeDegrees>42.32766243629157543182373046875</LatitudeDegrees>
              <LongitudeDegrees>2.44923259131610393524169921875</LongitudeDegrees>
            </Position>
            <AltitudeMeters>809.4000244140625</AltitudeMeters>
            <DistanceMeters>NAN</DistanceMeters>
          </Trackpoint>
          <Trackpoint>
            <Time>2021-04-03T16:00:43.000Z</Time>
            <Position>
              <LatitudeDegrees>42.327671237289905548095703125</LatitudeDegrees>
              <LongitudeDegrees>2.449235022068023681640625</LongitudeDegrees>
            </Position>
            <AltitudeMeters>809.79998779296875</AltitudeMeters>
            <DistanceMeters>NAN</DistanceMeters>
          </Trackpoint>
          <Trackpoint>
            <Time>2021-04-03T16:00:48.000Z</Time>
            <Position>
              <LatitudeDegrees>42.32769613154232501983642578125</LatitudeDegrees>
              <LongitudeDegrees>2.44924365542829036712646484375</LongitudeDegrees>
            </Position>
            <AltitudeMeters>810.5999755859375</AltitudeMeters>
            <DistanceMeters>NAN</DistanceMeters>
          </Trackpoint>
          <Trackpoint>
            <Time>2021-04-03T16:00:51.000Z</Time>
            <Position>
              <LatitudeDegrees>42.327730916440486907958984375</LatitudeDegrees>
              <LongitudeDegrees>2.4492633529007434844970703125</LongitudeDegrees>
            </Position>
            <AltitudeMeters>810.79998779296875</AltitudeMeters>
            <DistanceMeters>NAN</DistanceMeters>
          </Trackpoint>
          <Trackpoint>
            <Time>2021-04-03T16:00:59.000Z</Time>
            <Position>
              <LatitudeDegrees>42.3277795314788818359375</LatitudeDegrees>
              <LongitudeDegrees>2.44929461739957332611083984375</LongitudeDegrees>
            </Position>
            <AltitudeMeters>811.4000244140625</AltitudeMeters>
            <DistanceMeters>NAN</DistanceMeters>
          </Trackpoint>
          <Trackpoint>
            <Time>2021-04-03T16:01:01.000Z</Time>
            <Position>
              <LatitudeDegrees>42.32778212986886501312255859375</LatitudeDegrees>
              <LongitudeDegrees>2.44930115528404712677001953125</LongitudeDegrees>
            </Position>
            <AltitudeMeters>811.5999755859375</AltitudeMeters>
            <DistanceMeters>NAN</DistanceMeters>
          </Trackpoint>
          <Trackpoint>
            <Time>2021-04-03T16:01:09.000Z</Time>
            <Position>
              <LatitudeDegrees>42.32780710794031620025634765625</LatitudeDegrees>
              <LongitudeDegrees>2.4493436515331268310546875</LongitudeDegrees>
            </Position>
            <AltitudeMeters>812.4000244140625</AltitudeMeters>
            <DistanceMeters>NAN</DistanceMeters>
          </Trackpoint>
          <Trackpoint>
            <Time>2021-04-03T16:01:10.000Z</Time>
            <Position>
              <LatitudeDegrees>42.32782118953764438629150390625</LatitudeDegrees>
              <LongitudeDegrees>2.44935312308371067047119140625</LongitudeDegrees>
            </Position>
            <AltitudeMeters>812.5999755859375</AltitudeMeters>
            <DistanceMeters>NAN</DistanceMeters>
          </Trackpoint>
          <Trackpoint>
            <Time>2021-04-03T16:01:17.000Z</Time>
            <Position>
              <LatitudeDegrees>42.32784683816134929656982421875</LatitudeDegrees>
              <LongitudeDegrees>2.4493713118135929107666015625</LongitudeDegrees>
            </Position>
            <AltitudeMeters>813</AltitudeMeters>
            <DistanceMeters>NAN</DistanceMeters>
          </Trackpoint>
          <Trackpoint>
            <Time>2021-04-03T16:01:21.000Z</Time>
            <Position>
              <LatitudeDegrees>42.32788757421076297760009765625</LatitudeDegrees>
              <LongitudeDegrees>2.4493763409554958343505859375</LongitudeDegrees>
            </Position>
            <AltitudeMeters>813.20001220703125</AltitudeMeters>
            <DistanceMeters>NAN</DistanceMeters>
          </Trackpoint>
          <Trackpoint>
            <Time>2021-04-03T16:01:25.000Z</Time>
            <Position>
              <LatitudeDegrees>42.3279203474521636962890625</LatitudeDegrees>
              <LongitudeDegrees>2.4494011513888835906982421875</LongitudeDegrees>
            </Position>
            <AltitudeMeters>813.20001220703125</AltitudeMeters>
            <DistanceMeters>NAN</DistanceMeters>
          </Trackpoint>
          <Trackpoint>
            <Time>2021-04-03T16:01:30.000Z</Time>
            <Position>
              <LatitudeDegrees>42.32794809155166149139404296875</LatitudeDegrees>
              <LongitudeDegrees>2.44943174533545970916748046875</LongitudeDegrees>
            </Position>
            <AltitudeMeters>813.5999755859375</AltitudeMeters>
            <DistanceMeters>NAN</DistanceMeters>
          </Trackpoint>
          <Trackpoint>
            <Time>2021-04-03T16:01:34.000Z</Time>
            <Position>
              <LatitudeDegrees>42.3279713094234466552734375</LatitudeDegrees>
              <LongitudeDegrees>2.44944800622761249542236328125</LongitudeDegrees>
            </Position>
            <AltitudeMeters>814</AltitudeMeters>
            <DistanceMeters>NAN</DistanceMeters>
          </Trackpoint>
          <Trackpoint>
            <Time>2021-04-03T16:01:40.000Z</Time>
            <Position>
              <LatitudeDegrees>42.32801766134798526763916015625</LatitudeDegrees>
              <LongitudeDegrees>2.4495024047791957855224609375</LongitudeDegrees>
            </Position>
            <AltitudeMeters>814.20001220703125</AltitudeMeters>
            <DistanceMeters>NAN</DistanceMeters>
          </Trackpoint>
          <Trackpoint>
            <Time>2021-04-03T16:01:42.000Z</Time>
            <Position>
              <LatitudeDegrees>42.32802369631826877593994140625</LatitudeDegrees>
              <LongitudeDegrees>2.4495231918990612030029296875</LongitudeDegrees>
            </Position>
            <AltitudeMeters>814.5999755859375</AltitudeMeters>
            <DistanceMeters>NAN</DistanceMeters>
          </Trackpoint>
          <Trackpoint>
            <Time>2021-04-03T16:01:43.000Z</Time>
            <Position>
              <LatitudeDegrees>42.3280267976224422454833984375</LatitudeDegrees>
              <LongitudeDegrees>2.4495302326977252960205078125</LongitudeDegrees>
            </Position>
            <AltitudeMeters>814.5999755859375</AltitudeMeters>
            <DistanceMeters>NAN</DistanceMeters>
          </Trackpoint>
          <Trackpoint>
            <Time>2021-04-03T16:01:49.000Z</Time>
            <Position>
              <LatitudeDegrees>42.3280566371977329254150390625</LatitudeDegrees>
              <LongitudeDegrees>2.44955219328403472900390625</LongitudeDegrees>
            </Position>
            <AltitudeMeters>815.20001220703125</AltitudeMeters>
            <DistanceMeters>NAN</DistanceMeters>
          </Trackpoint>
          <Trackpoint>
            <Time>2021-04-03T16:01:52.000Z</Time>
            <Position>
              <LatitudeDegrees>42.32808102853596210479736328125</LatitudeDegrees>
              <LongitudeDegrees>2.4495868943631649017333984375</LongitudeDegrees>
            </Position>
            <AltitudeMeters>815.5999755859375</AltitudeMeters>
            <DistanceMeters>NAN</DistanceMeters>
          </Trackpoint>
          <Trackpoint>
            <Time>2021-04-03T16:01:54.000Z</Time>
            <Position>
              <LatitudeDegrees>42.32809158973395824432373046875</LatitudeDegrees>
              <LongitudeDegrees>2.44960994459688663482666015625</LongitudeDegrees>
            </Position>
            <AltitudeMeters>815.5999755859375</AltitudeMeters>
            <DistanceMeters>NAN</DistanceMeters>
          </Trackpoint>
          <Trackpoint>
            <Time>2021-04-03T16:01:59.000Z</Time>
            <Position>
              <LatitudeDegrees>42.32811841182410717010498046875</LatitudeDegrees>
              <LongitudeDegrees>2.4496599845588207244873046875</LongitudeDegrees>
            </Position>
            <AltitudeMeters>816.20001220703125</AltitudeMeters>
            <DistanceMeters>NAN</DistanceMeters>
          </Trackpoint>
          <Trackpoint>
            <Time>2021-04-03T16:02:06.000Z</Time>
            <Position>
              <LatitudeDegrees>42.3281501792371273040771484375</LatitudeDegrees>
              <LongitudeDegrees>2.4496975354850292205810546875</LongitudeDegrees>
            </Position>
            <AltitudeMeters>816.5999755859375</AltitudeMeters>
            <DistanceMeters>NAN</DistanceMeters>
          </Trackpoint>
          <Trackpoint>
            <Time>2021-04-03T16:02:10.000Z</Time>
            <Position>
              <LatitudeDegrees>42.32818814925849437713623046875</LatitudeDegrees>
              <LongitudeDegrees>2.44972762651741504669189453125</LongitudeDegrees>
            </Position>
            <AltitudeMeters>816.5999755859375</AltitudeMeters>
            <DistanceMeters>NAN</DistanceMeters>
          </Trackpoint>
          <Trackpoint>
            <Time>2021-04-03T16:02:16.000Z</Time>
            <Position>
              <LatitudeDegrees>42.32820843346416950225830078125</LatitudeDegrees>
              <LongitudeDegrees>2.449785210192203521728515625</LongitudeDegrees>
            </Position>
            <AltitudeMeters>817.20001220703125</AltitudeMeters>
            <DistanceMeters>NAN</DistanceMeters>
          </Trackpoint>
          <Trackpoint>
            <Time>2021-04-03T16:02:22.000Z</Time>
            <Position>
              <LatitudeDegrees>42.32824263162910938262939453125</LatitudeDegrees>
              <LongitudeDegrees>2.44981010444462299346923828125</LongitudeDegrees>
            </Position>
            <AltitudeMeters>817.5999755859375</AltitudeMeters>
            <DistanceMeters>NAN</DistanceMeters>
          </Trackpoint>
          <Trackpoint>
            <Time>2021-04-03T16:02:23.000Z</Time>
            <Position>
              <LatitudeDegrees>42.32824363745748996734619140625</LatitudeDegrees>
              <LongitudeDegrees>2.44981161318719387054443359375</LongitudeDegrees>
            </Position>
            <AltitudeMeters>817.79998779296875</AltitudeMeters>
            <DistanceMeters>NAN</DistanceMeters>
          </Trackpoint>
          <Trackpoint>
            <Time>2021-04-03T16:02:24.000Z</Time>
            <Position>
              <LatitudeDegrees>42.32824682258069515228271484375</LatitudeDegrees>
              <LongitudeDegrees>2.44981345720589160919189453125</LongitudeDegrees>
            </Position>
            <AltitudeMeters>817.79998779296875</AltitudeMeters>
            <DistanceMeters>NAN</DistanceMeters>
          </Trackpoint>
          <Trackpoint>
            <Time>2021-04-03T16:02:26.000Z</Time>
            <Position>
              <LatitudeDegrees>42.32825889252126216888427734375</LatitudeDegrees>
              <LongitudeDegrees>2.44980826042592525482177734375</LongitudeDegrees>
            </Position>
            <AltitudeMeters>817.79998779296875</AltitudeMeters>
            <DistanceMeters>NAN</DistanceMeters>
          </Trackpoint>
          <Trackpoint>
            <Time>2021-04-03T16:02:29.000Z</Time>
            <Position>
              <LatitudeDegrees>42.32829107902944087982177734375</LatitudeDegrees>
              <LongitudeDegrees>2.44981412775814533233642578125</LongitudeDegrees>
            </Position>
            <AltitudeMeters>817.5999755859375</AltitudeMeters>
            <DistanceMeters>NAN</DistanceMeters>
          </Trackpoint>
          <Trackpoint>
            <Time>2021-04-03T16:02:31.000Z</Time>
            <Position>
              <LatitudeDegrees>42.328296862542629241943359375</LatitudeDegrees>
              <LongitudeDegrees>2.4498118646442890167236328125</LongitudeDegrees>
            </Position>
            <AltitudeMeters>817.5999755859375</AltitudeMeters>
            <DistanceMeters>NAN</DistanceMeters>
          </Trackpoint>
          <Trackpoint>
            <Time>2021-04-03T16:02:38.000Z</Time>
            <Position>
              <LatitudeDegrees>42.3283218406140804290771484375</LatitudeDegrees>
              <LongitudeDegrees>2.44980742223560810089111328125</LongitudeDegrees>
            </Position>
            <AltitudeMeters>817.4000244140625</AltitudeMeters>
            <DistanceMeters>NAN</DistanceMeters>
          </Trackpoint>
          <Trackpoint>
            <Time>2021-04-03T16:02:44.000Z</Time>
            <Position>
              <LatitudeDegrees>42.32836551032960414886474609375</LatitudeDegrees>
              <LongitudeDegrees>2.449787221848964691162109375</LongitudeDegrees>
            </Position>
            <AltitudeMeters>816.5999755859375</AltitudeMeters>
            <DistanceMeters>NAN</DistanceMeters>
          </Trackpoint>
          <Trackpoint>
            <Time>2021-04-03T16:02:45.000Z</Time>
            <Position>
              <LatitudeDegrees>42.32837028801441192626953125</LatitudeDegrees>
              <LongitudeDegrees>2.4497800134122371673583984375</LongitudeDegrees>
            </Position>
            <AltitudeMeters>816.5999755859375</AltitudeMeters>
            <DistanceMeters>NAN</DistanceMeters>
          </Trackpoint>
          <Trackpoint>
            <Time>2021-04-03T16:02:46.000Z</Time>
            <Position>
              <LatitudeDegrees>42.3283778317272663116455078125</LatitudeDegrees>
              <LongitudeDegrees>2.44977322407066822052001953125</LongitudeDegrees>
            </Position>
            <AltitudeMeters>816.4000244140625</AltitudeMeters>
            <DistanceMeters>NAN</DistanceMeters>
          </Trackpoint>
          <Trackpoint>
            <Time>2021-04-03T16:02:47.000Z</Time>
            <Position>
              <LatitudeDegrees>42.32838772237300872802734375</LatitudeDegrees>
              <LongitudeDegrees>2.44977439753711223602294921875</LongitudeDegrees>
            </Position>
            <AltitudeMeters>816.4000244140625</AltitudeMeters>
            <DistanceMeters>NAN</DistanceMeters>
          </Trackpoint>
          <Trackpoint>
            <Time>2021-04-03T16:02:53.000Z</Time>
            <Position>
              <LatitudeDegrees>42.3284163884818553924560546875</LatitudeDegrees>
              <LongitudeDegrees>2.4497669376432895660400390625</LongitudeDegrees>
            </Position>
            <AltitudeMeters>815.5999755859375</AltitudeMeters>
            <DistanceMeters>NAN</DistanceMeters>
          </Trackpoint>
          <Trackpoint>
            <Time>2021-04-03T16:02:56.000Z</Time>
            <Position>
              <LatitudeDegrees>42.32843331992626190185546875</LatitudeDegrees>
              <LongitudeDegrees>2.4497582204639911651611328125</LongitudeDegrees>
            </Position>
            <AltitudeMeters>815.4000244140625</AltitudeMeters>
            <DistanceMeters>NAN</DistanceMeters>
          </Trackpoint>
          <Trackpoint>
            <Time>2021-04-03T16:03:06.000Z</Time>
            <Position>
              <LatitudeDegrees>42.32849157415330410003662109375</LatitudeDegrees>
              <LongitudeDegrees>2.4497164785861968994140625</LongitudeDegrees>
            </Position>
            <AltitudeMeters>815.20001220703125</AltitudeMeters>
            <DistanceMeters>NAN</DistanceMeters>
          </Trackpoint>
          <Trackpoint>
            <Time>2021-04-03T16:03:12.000Z</Time>
            <Position>
              <LatitudeDegrees>42.3285022191703319549560546875</LatitudeDegrees>
              <LongitudeDegrees>2.4497065879404544830322265625</LongitudeDegrees>
            </Position>
            <AltitudeMeters>814.79998779296875</AltitudeMeters>
            <DistanceMeters>NAN</DistanceMeters>
          </Trackpoint>
          <Trackpoint>
            <Time>2021-04-03T16:03:18.000Z</Time>
            <Position>
              <LatitudeDegrees>42.32855594716966152191162109375</LatitudeDegrees>
              <LongitudeDegrees>2.44968454353511333465576171875</LongitudeDegrees>
            </Position>
            <AltitudeMeters>814.79998779296875</AltitudeMeters>
            <DistanceMeters>NAN</DistanceMeters>
          </Trackpoint>
          <Trackpoint>
            <Time>2021-04-03T16:03:21.000Z</Time>
            <Position>
              <LatitudeDegrees>42.32858193106949329376220703125</LatitudeDegrees>
              <LongitudeDegrees>2.4496628344058990478515625</LongitudeDegrees>
            </Position>
            <AltitudeMeters>814.79998779296875</AltitudeMeters>
            <DistanceMeters>NAN</DistanceMeters>
          </Trackpoint>
          <Trackpoint>
            <Time>2021-04-03T16:03:25.000Z</Time>
            <Position>
              <LatitudeDegrees>42.328608334064483642578125</LatitudeDegrees>
              <LongitudeDegrees>2.44963710196316242218017578125</LongitudeDegrees>
            </Position>
            <AltitudeMeters>814.79998779296875</AltitudeMeters>
            <DistanceMeters>NAN</DistanceMeters>
          </Trackpoint>
          <Trackpoint>
            <Time>2021-04-03T16:03:32.000Z</Time>
            <Position>
              <LatitudeDegrees>42.32866155914962291717529296875</LatitudeDegrees>
              <LongitudeDegrees>2.449596114456653594970703125</LongitudeDegrees>
            </Position>
            <AltitudeMeters>815</AltitudeMeters>
            <DistanceMeters>NAN</DistanceMeters>
          </Trackpoint>
          <Trackpoint>
            <Time>2021-04-03T16:03:39.000Z</Time>
            <Position>
              <LatitudeDegrees>42.32867815531790256500244140625</LatitudeDegrees>
              <LongitudeDegrees>2.44955244474112987518310546875</LongitudeDegrees>
            </Position>
            <AltitudeMeters>815.20001220703125</AltitudeMeters>
            <DistanceMeters>NAN</DistanceMeters>
          </Trackpoint>
          <Trackpoint>
            <Time>2021-04-03T16:03:45.000Z</Time>
            <Position>
              <LatitudeDegrees>42.32868217863142490386962890625</LatitudeDegrees>
              <LongitudeDegrees>2.4495074339210987091064453125</LongitudeDegrees>
            </Position>
            <AltitudeMeters>815</AltitudeMeters>
            <DistanceMeters>NAN</DistanceMeters>
          </Trackpoint>
          <Trackpoint>
            <Time>2021-04-03T16:03:54.000Z</Time>
            <Position>
              <LatitudeDegrees>42.3287074081599712371826171875</LatitudeDegrees>
              <LongitudeDegrees>2.449459992349147796630859375</LongitudeDegrees>
            </Position>
            <AltitudeMeters>815</AltitudeMeters>
            <DistanceMeters>NAN</DistanceMeters>
          </Trackpoint>
          <Trackpoint>
            <Time>2021-04-03T16:04:01.000Z</Time>
            <Position>
              <LatitudeDegrees>42.32878996990621089935302734375</LatitudeDegrees>
              <LongitudeDegrees>2.44945161044597625732421875</LongitudeDegrees>
            </Position>
            <AltitudeMeters>815.4000244140625</AltitudeMeters>
            <DistanceMeters>NAN</DistanceMeters>
          </Trackpoint>
          <Trackpoint>
            <Time>2021-04-03T16:04:10.000Z</Time>
            <Position>
              <LatitudeDegrees>42.32890605926513671875</LatitudeDegrees>
              <LongitudeDegrees>2.44942621327936649322509765625</LongitudeDegrees>
            </Position>
            <AltitudeMeters>815.79998779296875</AltitudeMeters>
            <DistanceMeters>NAN</DistanceMeters>
          </Trackpoint>
          <Trackpoint>
            <Time>2021-04-03T16:04:16.000Z</Time>
            <Position>
              <LatitudeDegrees>42.32896439731121063232421875</LatitudeDegrees>
              <LongitudeDegrees>2.44938463903963565826416015625</LongitudeDegrees>
            </Position>
            <AltitudeMeters>814.79998779296875</AltitudeMeters>
            <DistanceMeters>NAN</DistanceMeters>
          </Trackpoint>
          <Trackpoint>
            <Time>2021-04-03T16:04:19.000Z</Time>
            <Position>
              <LatitudeDegrees>42.328970767557621002197265625</LatitudeDegrees>
              <LongitudeDegrees>2.44937005452811717987060546875</LongitudeDegrees>
            </Position>
            <AltitudeMeters>814.5999755859375</AltitudeMeters>
            <DistanceMeters>NAN</DistanceMeters>
          </Trackpoint>
          <Trackpoint>
            <Time>2021-04-03T16:04:21.000Z</Time>
            <Position>
              <LatitudeDegrees>42.32898392714560031890869140625</LatitudeDegrees>
              <LongitudeDegrees>2.4493485130369663238525390625</LongitudeDegrees>
            </Position>
            <AltitudeMeters>814.4000244140625</AltitudeMeters>
            <DistanceMeters>NAN</DistanceMeters>
          </Trackpoint>
          <Trackpoint>
            <Time>2021-04-03T16:04:23.000Z</Time>
            <Position>
              <LatitudeDegrees>42.3290034569799900054931640625</LatitudeDegrees>
              <LongitudeDegrees>2.44934239424765110015869140625</LongitudeDegrees>
            </Position>
            <AltitudeMeters>814.20001220703125</AltitudeMeters>
            <DistanceMeters>NAN</DistanceMeters>
          </Trackpoint>
          <Trackpoint>
            <Time>2021-04-03T16:04:26.000Z</Time>
            <Position>
              <LatitudeDegrees>42.3290161974728107452392578125</LatitudeDegrees>
              <LongitudeDegrees>2.449339292943477630615234375</LongitudeDegrees>
            </Position>
            <AltitudeMeters>814</AltitudeMeters>
            <DistanceMeters>NAN</DistanceMeters>
          </Trackpoint>
          <Trackpoint>
            <Time>2021-04-03T16:04:34.000Z</Time>
            <Position>
              <LatitudeDegrees>42.329045198857784271240234375</LatitudeDegrees>
              <LongitudeDegrees>2.449363432824611663818359375</LongitudeDegrees>
            </Position>
            <AltitudeMeters>814</AltitudeMeters>
            <DistanceMeters>NAN</DistanceMeters>
          </Trackpoint>
          <Trackpoint>
            <Time>2021-04-03T16:04:39.000Z</Time>
            <Position>
              <LatitudeDegrees>42.3290708474814891815185546875</LatitudeDegrees>
              <LongitudeDegrees>2.44942747056484222412109375</LongitudeDegrees>
            </Position>
            <AltitudeMeters>814</AltitudeMeters>
            <DistanceMeters>NAN</DistanceMeters>
          </Trackpoint>
          <Trackpoint>
            <Time>2021-04-03T16:04:42.000Z</Time>
            <Position>
              <LatitudeDegrees>42.3290825821459293365478515625</LatitudeDegrees>
              <LongitudeDegrees>2.4494423903524875640869140625</LongitudeDegrees>
            </Position>
            <AltitudeMeters>814.20001220703125</AltitudeMeters>
            <DistanceMeters>NAN</DistanceMeters>
          </Trackpoint>
          <Trackpoint>
            <Time>2021-04-03T16:04:46.000Z</Time>
            <Position>
              <LatitudeDegrees>42.3290825821459293365478515625</LatitudeDegrees>
              <LongitudeDegrees>2.4494423903524875640869140625</LongitudeDegrees>
            </Position>
            <AltitudeMeters>814.20001220703125</AltitudeMeters>
            <DistanceMeters>NAN</DistanceMeters>
          </Trackpoint>
          <Trackpoint>
            <Time>2021-04-03T16:04:49.000Z</Time>
            <Position>
              <LatitudeDegrees>42.3290825821459293365478515625</LatitudeDegrees>
              <LongitudeDegrees>2.4494423903524875640869140625</LongitudeDegrees>
            </Position>
            <AltitudeMeters>814.20001220703125</AltitudeMeters>
            <DistanceMeters>NAN</DistanceMeters>
          </Trackpoint>
          <Trackpoint>
            <Time>2021-04-03T16:04:53.000Z</Time>
            <Position>
              <LatitudeDegrees>42.3290825821459293365478515625</LatitudeDegrees>
              <LongitudeDegrees>2.4494423903524875640869140625</LongitudeDegrees>
            </Position>
            <AltitudeMeters>814</AltitudeMeters>
            <DistanceMeters>NAN</DistanceMeters>
          </Trackpoint>
          <Trackpoint>
            <Time>2021-04-03T16:05:05.000Z</Time>
            <Position>
              <LatitudeDegrees>42.3290644772350788116455078125</LatitudeDegrees>
              <LongitudeDegrees>2.44946493767201900482177734375</LongitudeDegrees>
            </Position>
            <AltitudeMeters>813.79998779296875</AltitudeMeters>
            <DistanceMeters>NAN</DistanceMeters>
          </Trackpoint>
          <Trackpoint>
            <Time>2021-04-03T16:05:17.000Z</Time>
            <Position>
              <LatitudeDegrees>42.329038493335247039794921875</LatitudeDegrees>
              <LongitudeDegrees>2.449451945722103118896484375</LongitudeDegrees>
            </Position>
            <AltitudeMeters>813.5999755859375</AltitudeMeters>
            <DistanceMeters>NAN</DistanceMeters>
          </Trackpoint>
          <Trackpoint>
            <Time>2021-04-03T16:05:24.000Z</Time>
            <Position>
              <LatitudeDegrees>42.329038493335247039794921875</LatitudeDegrees>
              <LongitudeDegrees>2.44943141005933284759521484375</LongitudeDegrees>
            </Position>
            <AltitudeMeters>813.79998779296875</AltitudeMeters>
            <DistanceMeters>NAN</DistanceMeters>
          </Trackpoint>
          <Trackpoint>
            <Time>2021-04-03T16:05:26.000Z</Time>
            <Position>
              <LatitudeDegrees>42.329038493335247039794921875</LatitudeDegrees>
              <LongitudeDegrees>2.44942218996584415435791015625</LongitudeDegrees>
            </Position>
            <AltitudeMeters>813.79998779296875</AltitudeMeters>
            <DistanceMeters>NAN</DistanceMeters>
          </Trackpoint>
          <Trackpoint>
            <Time>2021-04-03T16:05:34.000Z</Time>
            <Position>
              <LatitudeDegrees>42.32907126657664775848388671875</LatitudeDegrees>
              <LongitudeDegrees>2.44937843643128871917724609375</LongitudeDegrees>
            </Position>
            <AltitudeMeters>813.79998779296875</AltitudeMeters>
            <DistanceMeters>NAN</DistanceMeters>
          </Trackpoint>
          <Trackpoint>
            <Time>2021-04-03T16:05:35.000Z</Time>
            <Position>
              <LatitudeDegrees>42.32907294295728206634521484375</LatitudeDegrees>
              <LongitudeDegrees>2.44936980307102203369140625</LongitudeDegrees>
            </Position>
            <AltitudeMeters>813.79998779296875</AltitudeMeters>
            <DistanceMeters>NAN</DistanceMeters>
          </Trackpoint>
          <Trackpoint>
            <Time>2021-04-03T16:05:38.000Z</Time>
            <Position>
              <LatitudeDegrees>42.3290862701833248138427734375</LatitudeDegrees>
              <LongitudeDegrees>2.44934624992311000823974609375</LongitudeDegrees>
            </Position>
            <AltitudeMeters>813.79998779296875</AltitudeMeters>
            <DistanceMeters>NAN</DistanceMeters>
          </Trackpoint>
          <Trackpoint>
            <Time>2021-04-03T16:05:41.000Z</Time>
            <Position>
              <LatitudeDegrees>42.3291006870567798614501953125</LatitudeDegrees>
              <LongitudeDegrees>2.4493257142603397369384765625</LongitudeDegrees>
            </Position>
            <AltitudeMeters>813.79998779296875</AltitudeMeters>
            <DistanceMeters>NAN</DistanceMeters>
          </Trackpoint>
          <Trackpoint>
            <Time>2021-04-03T16:05:47.000Z</Time>
            <Position>
              <LatitudeDegrees>42.32918308116495609283447265625</LatitudeDegrees>
              <LongitudeDegrees>2.449258156120777130126953125</LongitudeDegrees>
            </Position>
            <AltitudeMeters>813.79998779296875</AltitudeMeters>
            <DistanceMeters>NAN</DistanceMeters>
          </Trackpoint>
          <Trackpoint>
            <Time>2021-04-03T16:05:50.000Z</Time>
            <Position>
              <LatitudeDegrees>42.32922323048114776611328125</LatitudeDegrees>
              <LongitudeDegrees>2.44921834208071231842041015625</LongitudeDegrees>
            </Position>
            <AltitudeMeters>813.79998779296875</AltitudeMeters>
            <DistanceMeters>NAN</DistanceMeters>
          </Trackpoint>
          <Trackpoint>
            <Time>2021-04-03T16:05:55.000Z</Time>
            <Position>
              <LatitudeDegrees>42.32924343086779117584228515625</LatitudeDegrees>
              <LongitudeDegrees>2.44918213225901126861572265625</LongitudeDegrees>
            </Position>
            <AltitudeMeters>813.79998779296875</AltitudeMeters>
            <DistanceMeters>NAN</DistanceMeters>
          </Trackpoint>
          <Trackpoint>
            <Time>2021-04-03T16:06:03.000Z</Time>
            <Position>
              <LatitudeDegrees>42.32927394099533557891845703125</LatitudeDegrees>
              <LongitudeDegrees>2.449117004871368408203125</LongitudeDegrees>
            </Position>
            <AltitudeMeters>813.79998779296875</AltitudeMeters>
            <DistanceMeters>NAN</DistanceMeters>
          </Trackpoint>
          <Trackpoint>
            <Time>2021-04-03T16:06:05.000Z</Time>
            <Position>
              <LatitudeDegrees>42.32929087243974208831787109375</LatitudeDegrees>
              <LongitudeDegrees>2.44910300709307193756103515625</LongitudeDegrees>
            </Position>
            <AltitudeMeters>813.79998779296875</AltitudeMeters>
            <DistanceMeters>NAN</DistanceMeters>
          </Trackpoint>
          <Trackpoint>
            <Time>2021-04-03T16:06:08.000Z</Time>
            <Position>
              <LatitudeDegrees>42.32932490296661853790283203125</LatitudeDegrees>
              <LongitudeDegrees>2.44908808730542659759521484375</LongitudeDegrees>
            </Position>
            <AltitudeMeters>813.5999755859375</AltitudeMeters>
            <DistanceMeters>NAN</DistanceMeters>
          </Trackpoint>
          <Trackpoint>
            <Time>2021-04-03T16:06:11.000Z</Time>
            <Position>
              <LatitudeDegrees>42.3293548263609409332275390625</LatitudeDegrees>
              <LongitudeDegrees>2.44910904206335544586181640625</LongitudeDegrees>
            </Position>
            <AltitudeMeters>813.4000244140625</AltitudeMeters>
            <DistanceMeters>NAN</DistanceMeters>
          </Trackpoint>
          <Trackpoint>
            <Time>2021-04-03T16:06:16.000Z</Time>
            <Position>
              <LatitudeDegrees>42.32935859821736812591552734375</LatitudeDegrees>
              <LongitudeDegrees>2.4490953795611858367919921875</LongitudeDegrees>
            </Position>
            <AltitudeMeters>813</AltitudeMeters>
            <DistanceMeters>NAN</DistanceMeters>
          </Trackpoint>
          <Trackpoint>
            <Time>2021-04-03T16:06:20.000Z</Time>
            <Position>
              <LatitudeDegrees>42.32938550412654876708984375</LatitudeDegrees>
              <LongitudeDegrees>2.449054308235645294189453125</LongitudeDegrees>
            </Position>
            <AltitudeMeters>813.20001220703125</AltitudeMeters>
            <DistanceMeters>NAN</DistanceMeters>
          </Trackpoint>
          <Trackpoint>
            <Time>2021-04-03T16:06:23.000Z</Time>
            <Position>
              <LatitudeDegrees>42.32939313165843486785888671875</LatitudeDegrees>
              <LongitudeDegrees>2.44904014281928539276123046875</LongitudeDegrees>
            </Position>
            <AltitudeMeters>813.4000244140625</AltitudeMeters>
            <DistanceMeters>NAN</DistanceMeters>
          </Trackpoint>
          <Trackpoint>
            <Time>2021-04-03T16:06:31.000Z</Time>
            <Position>
              <LatitudeDegrees>42.32938994653522968292236328125</LatitudeDegrees>
              <LongitudeDegrees>2.44899622164666652679443359375</LongitudeDegrees>
            </Position>
            <AltitudeMeters>813.5999755859375</AltitudeMeters>
            <DistanceMeters>NAN</DistanceMeters>
          </Trackpoint>
          <Trackpoint>
            <Time>2021-04-03T16:06:38.000Z</Time>
            <Position>
              <LatitudeDegrees>42.3294051177799701690673828125</LatitudeDegrees>
              <LongitudeDegrees>2.44896210730075836181640625</LongitudeDegrees>
            </Position>
            <AltitudeMeters>813.79998779296875</AltitudeMeters>
            <DistanceMeters>NAN</DistanceMeters>
          </Trackpoint>
          <Trackpoint>
            <Time>2021-04-03T16:06:45.000Z</Time>
            <Position>
              <LatitudeDegrees>42.32944945804774761199951171875</LatitudeDegrees>
              <LongitudeDegrees>2.44891173206269741058349609375</LongitudeDegrees>
            </Position>
            <AltitudeMeters>814.4000244140625</AltitudeMeters>
            <DistanceMeters>NAN</DistanceMeters>
          </Trackpoint>
          <Trackpoint>
            <Time>2021-04-03T16:06:47.000Z</Time>
            <Position>
              <LatitudeDegrees>42.329456917941570281982421875</LatitudeDegrees>
              <LongitudeDegrees>2.44889832101762294769287109375</LongitudeDegrees>
            </Position>
            <AltitudeMeters>814.4000244140625</AltitudeMeters>
            <DistanceMeters>NAN</DistanceMeters>
          </Trackpoint>
          <Trackpoint>
            <Time>2021-04-03T16:06:50.000Z</Time>
            <Position>
              <LatitudeDegrees>42.32942573726177215576171875</LatitudeDegrees>
              <LongitudeDegrees>2.4488690681755542755126953125</LongitudeDegrees>
            </Position>
            <AltitudeMeters>814.5999755859375</AltitudeMeters>
            <DistanceMeters>NAN</DistanceMeters>
          </Trackpoint>
          <Trackpoint>
            <Time>2021-04-03T16:06:56.000Z</Time>
            <Position>
              <LatitudeDegrees>42.3294537328183650970458984375</LatitudeDegrees>
              <LongitudeDegrees>2.44883612729609012603759765625</LongitudeDegrees>
            </Position>
            <AltitudeMeters>815.20001220703125</AltitudeMeters>
            <DistanceMeters>NAN</DistanceMeters>
          </Trackpoint>
          <Trackpoint>
            <Time>2021-04-03T16:06:58.000Z</Time>
            <Position>
              <LatitudeDegrees>42.32946890406310558319091796875</LatitudeDegrees>
              <LongitudeDegrees>2.44882263243198394775390625</LongitudeDegrees>
            </Position>
            <AltitudeMeters>815.5999755859375</AltitudeMeters>
            <DistanceMeters>NAN</DistanceMeters>
          </Trackpoint>
          <Trackpoint>
            <Time>2021-04-03T16:06:59.000Z</Time>
            <Position>
              <LatitudeDegrees>42.329479046165943145751953125</LatitudeDegrees>
              <LongitudeDegrees>2.4488171003758907318115234375</LongitudeDegrees>
            </Position>
            <AltitudeMeters>815.79998779296875</AltitudeMeters>
            <DistanceMeters>NAN</DistanceMeters>
          </Trackpoint>
          <Trackpoint>
            <Time>2021-04-03T16:07:00.000Z</Time>
            <Position>
              <LatitudeDegrees>42.3294865898787975311279296875</LatitudeDegrees>
              <LongitudeDegrees>2.4488098919391632080078125</LongitudeDegrees>
            </Position>
            <AltitudeMeters>815.79998779296875</AltitudeMeters>
            <DistanceMeters>NAN</DistanceMeters>
          </Trackpoint>
          <Trackpoint>
            <Time>2021-04-03T16:07:04.000Z</Time>
            <Position>
              <LatitudeDegrees>42.32950913719832897186279296875</LatitudeDegrees>
              <LongitudeDegrees>2.44877980090677738189697265625</LongitudeDegrees>
            </Position>
            <AltitudeMeters>816.4000244140625</AltitudeMeters>
            <DistanceMeters>NAN</DistanceMeters>
          </Trackpoint>
          <Trackpoint>
            <Time>2021-04-03T16:07:06.000Z</Time>
            <Position>
              <LatitudeDegrees>42.3295135796070098876953125</LatitudeDegrees>
              <LongitudeDegrees>2.448765300214290618896484375</LongitudeDegrees>
            </Position>
            <AltitudeMeters>816.4000244140625</AltitudeMeters>
            <DistanceMeters>NAN</DistanceMeters>
          </Trackpoint>
          <Trackpoint>
            <Time>2021-04-03T16:07:08.000Z</Time>
            <Position>
              <LatitudeDegrees>42.329519949853420257568359375</LatitudeDegrees>
              <LongitudeDegrees>2.4487617798149585723876953125</LongitudeDegrees>
            </Position>
            <AltitudeMeters>816.79998779296875</AltitudeMeters>
            <DistanceMeters>NAN</DistanceMeters>
          </Trackpoint>
          <Trackpoint>
            <Time>2021-04-03T16:07:09.000Z</Time>
            <Position>
              <LatitudeDegrees>42.3295140825212001800537109375</LatitudeDegrees>
              <LongitudeDegrees>2.4487627856433391571044921875</LongitudeDegrees>
            </Position>
            <AltitudeMeters>816.79998779296875</AltitudeMeters>
            <DistanceMeters>NAN</DistanceMeters>
          </Trackpoint>
          <Trackpoint>
            <Time>2021-04-03T16:07:10.000Z</Time>
            <Position>
              <LatitudeDegrees>42.3295177705585956573486328125</LatitudeDegrees>
              <LongitudeDegrees>2.4487611092627048492431640625</LongitudeDegrees>
            </Position>
            <AltitudeMeters>817</AltitudeMeters>
            <DistanceMeters>NAN</DistanceMeters>
          </Trackpoint>
          <Trackpoint>
            <Time>2021-04-03T16:07:17.000Z</Time>
            <Position>
              <LatitudeDegrees>42.329538054764270782470703125</LatitudeDegrees>
              <LongitudeDegrees>2.4486927129328250885009765625</LongitudeDegrees>
            </Position>
            <AltitudeMeters>817.79998779296875</AltitudeMeters>
            <DistanceMeters>NAN</DistanceMeters>
          </Trackpoint>
          <Trackpoint>
            <Time>2021-04-03T16:07:21.000Z</Time>
            <Position>
              <LatitudeDegrees>42.32953168451786041259765625</LatitudeDegrees>
              <LongitudeDegrees>2.44864786975085735321044921875</LongitudeDegrees>
            </Position>
            <AltitudeMeters>818.5999755859375</AltitudeMeters>
            <DistanceMeters>NAN</DistanceMeters>
          </Trackpoint>
          <Trackpoint>
            <Time>2021-04-03T16:07:22.000Z</Time>
            <Position>
              <LatitudeDegrees>42.32953042723238468170166015625</LatitudeDegrees>
              <LongitudeDegrees>2.44864426553249359130859375</LongitudeDegrees>
            </Position>
            <AltitudeMeters>818.5999755859375</AltitudeMeters>
            <DistanceMeters>NAN</DistanceMeters>
          </Trackpoint>
          <Trackpoint>
            <Time>2021-04-03T16:07:23.000Z</Time>
            <Position>
              <LatitudeDegrees>42.32953369617462158203125</LatitudeDegrees>
              <LongitudeDegrees>2.448643259704113006591796875</LongitudeDegrees>
            </Position>
            <AltitudeMeters>818.5999755859375</AltitudeMeters>
            <DistanceMeters>NAN</DistanceMeters>
          </Trackpoint>
          <Trackpoint>
            <Time>2021-04-03T16:07:24.000Z</Time>
            <Position>
              <LatitudeDegrees>42.32954232953488826751708984375</LatitudeDegrees>
              <LongitudeDegrees>2.44864426553249359130859375</LongitudeDegrees>
            </Position>
            <AltitudeMeters>818.79998779296875</AltitudeMeters>
            <DistanceMeters>NAN</DistanceMeters>
          </Trackpoint>
          <Trackpoint>
            <Time>2021-04-03T16:07:28.000Z</Time>
            <Position>
              <LatitudeDegrees>42.329547442495822906494140625</LatitudeDegrees>
              <LongitudeDegrees>2.4486266635358333587646484375</LongitudeDegrees>
            </Position>
            <AltitudeMeters>819.4000244140625</AltitudeMeters>
            <DistanceMeters>NAN</DistanceMeters>
          </Trackpoint>
          <Trackpoint>
            <Time>2021-04-03T16:07:30.000Z</Time>
            <Position>
              <LatitudeDegrees>42.3295563273131847381591796875</LatitudeDegrees>
              <LongitudeDegrees>2.44861870072782039642333984375</LongitudeDegrees>
            </Position>
            <AltitudeMeters>819.5999755859375</AltitudeMeters>
            <DistanceMeters>NAN</DistanceMeters>
          </Trackpoint>
          <Trackpoint>
            <Time>2021-04-03T16:07:32.000Z</Time>
            <Position>
              <LatitudeDegrees>42.32956429012119770050048828125</LatitudeDegrees>
              <LongitudeDegrees>2.44861098937690258026123046875</LongitudeDegrees>
            </Position>
            <AltitudeMeters>819.5999755859375</AltitudeMeters>
            <DistanceMeters>NAN</DistanceMeters>
          </Trackpoint>
          <Trackpoint>
            <Time>2021-04-03T16:07:34.000Z</Time>
            <Position>
              <LatitudeDegrees>42.32957057654857635498046875</LatitudeDegrees>
              <LongitudeDegrees>2.4486008472740650177001953125</LongitudeDegrees>
            </Position>
            <AltitudeMeters>820</AltitudeMeters>
            <DistanceMeters>NAN</DistanceMeters>
          </Trackpoint>
          <Trackpoint>
            <Time>2021-04-03T16:07:35.000Z</Time>
            <Position>
              <LatitudeDegrees>42.32957736589014530181884765625</LatitudeDegrees>
              <LongitudeDegrees>2.4485948123037815093994140625</LongitudeDegrees>
            </Position>
            <AltitudeMeters>820</AltitudeMeters>
            <DistanceMeters>NAN</DistanceMeters>
          </Trackpoint>
          <Trackpoint>
            <Time>2021-04-03T16:07:38.000Z</Time>
            <Position>
              <LatitudeDegrees>42.32959077693521976470947265625</LatitudeDegrees>
              <LongitudeDegrees>2.4485710076987743377685546875</LongitudeDegrees>
            </Position>
            <AltitudeMeters>820.20001220703125</AltitudeMeters>
            <DistanceMeters>NAN</DistanceMeters>
          </Trackpoint>
          <Trackpoint>
            <Time>2021-04-03T16:07:41.000Z</Time>
            <Position>
              <LatitudeDegrees>42.32960502617061138153076171875</LatitudeDegrees>
              <LongitudeDegrees>2.4485586024820804595947265625</LongitudeDegrees>
            </Position>
            <AltitudeMeters>820.5999755859375</AltitudeMeters>
            <DistanceMeters>NAN</DistanceMeters>
          </Trackpoint>
          <Trackpoint>
            <Time>2021-04-03T16:07:43.000Z</Time>
            <Position>
              <LatitudeDegrees>42.329621873795986175537109375</LatitudeDegrees>
              <LongitudeDegrees>2.4485565908253192901611328125</LongitudeDegrees>
            </Position>
            <AltitudeMeters>821</AltitudeMeters>
            <DistanceMeters>NAN</DistanceMeters>
          </Trackpoint>
          <Trackpoint>
            <Time>2021-04-03T16:07:47.000Z</Time>
            <Position>
              <LatitudeDegrees>42.32961340807378292083740234375</LatitudeDegrees>
              <LongitudeDegrees>2.44852800853550434112548828125</LongitudeDegrees>
            </Position>
            <AltitudeMeters>821.5999755859375</AltitudeMeters>
            <DistanceMeters>NAN</DistanceMeters>
          </Trackpoint>
          <Trackpoint>
            <Time>2021-04-03T16:07:50.000Z</Time>
            <Position>
              <LatitudeDegrees>42.32962463982403278350830078125</LatitudeDegrees>
              <LongitudeDegrees>2.44851174764335155487060546875</LongitudeDegrees>
            </Position>
            <AltitudeMeters>822.20001220703125</AltitudeMeters>
            <DistanceMeters>NAN</DistanceMeters>
          </Trackpoint>
          <Trackpoint>
            <Time>2021-04-03T16:07:54.000Z</Time>
            <Position>
              <LatitudeDegrees>42.32962966896593570709228515625</LatitudeDegrees>
              <LongitudeDegrees>2.44851929135620594024658203125</LongitudeDegrees>
            </Position>
            <AltitudeMeters>822.79998779296875</AltitudeMeters>
            <DistanceMeters>NAN</DistanceMeters>
          </Trackpoint>
          <Trackpoint>
            <Time>2021-04-03T16:07:57.000Z</Time>
            <Position>
              <LatitudeDegrees>42.32963754795491695404052734375</LatitudeDegrees>
              <LongitudeDegrees>2.448526918888092041015625</LongitudeDegrees>
            </Position>
            <AltitudeMeters>823.20001220703125</AltitudeMeters>
            <DistanceMeters>NAN</DistanceMeters>
          </Trackpoint>
          <Trackpoint>
            <Time>2021-04-03T16:08:06.000Z</Time>
            <Position>
              <LatitudeDegrees>42.32963754795491695404052734375</LatitudeDegrees>
              <LongitudeDegrees>2.448526918888092041015625</LongitudeDegrees>
            </Position>
            <AltitudeMeters>823.4000244140625</AltitudeMeters>
            <DistanceMeters>NAN</DistanceMeters>
          </Trackpoint>
          <Trackpoint>
            <Time>2021-04-03T16:08:10.000Z</Time>
            <Position>
              <LatitudeDegrees>42.32963754795491695404052734375</LatitudeDegrees>
              <LongitudeDegrees>2.448526918888092041015625</LongitudeDegrees>
            </Position>
            <AltitudeMeters>823.4000244140625</AltitudeMeters>
            <DistanceMeters>NAN</DistanceMeters>
          </Trackpoint>
          <Trackpoint>
            <Time>2021-04-03T16:08:20.000Z</Time>
            <Position>
              <LatitudeDegrees>42.32964961789548397064208984375</LatitudeDegrees>
              <LongitudeDegrees>2.44854611344635486602783203125</LongitudeDegrees>
            </Position>
            <AltitudeMeters>822.79998779296875</AltitudeMeters>
            <DistanceMeters>NAN</DistanceMeters>
          </Trackpoint>
          <Trackpoint>
            <Time>2021-04-03T16:08:27.000Z</Time>
            <Position>
              <LatitudeDegrees>42.3296565748751163482666015625</LatitudeDegrees>
              <LongitudeDegrees>2.44855248369276523590087890625</LongitudeDegrees>
            </Position>
            <AltitudeMeters>822.79998779296875</AltitudeMeters>
            <DistanceMeters>NAN</DistanceMeters>
          </Trackpoint>
          <Trackpoint>
            <Time>2021-04-03T16:08:29.000Z</Time>
            <Position>
              <LatitudeDegrees>42.3296565748751163482666015625</LatitudeDegrees>
              <LongitudeDegrees>2.44855348952114582061767578125</LongitudeDegrees>
            </Position>
            <AltitudeMeters>823</AltitudeMeters>
            <DistanceMeters>NAN</DistanceMeters>
          </Trackpoint>
          <Trackpoint>
            <Time>2021-04-03T16:08:34.000Z</Time>
            <Position>
              <LatitudeDegrees>42.3296565748751163482666015625</LatitudeDegrees>
              <LongitudeDegrees>2.4485579319298267364501953125</LongitudeDegrees>
            </Position>
            <AltitudeMeters>823</AltitudeMeters>
            <DistanceMeters>NAN</DistanceMeters>
          </Trackpoint>
          <Trackpoint>
            <Time>2021-04-03T16:08:39.000Z</Time>
            <Position>
              <LatitudeDegrees>42.3296575807034969329833984375</LatitudeDegrees>
              <LongitudeDegrees>2.44855818338692188262939453125</LongitudeDegrees>
            </Position>
            <AltitudeMeters>823</AltitudeMeters>
            <DistanceMeters>NAN</DistanceMeters>
          </Trackpoint>
          <Trackpoint>
            <Time>2021-04-03T16:08:41.000Z</Time>
            <Position>
              <LatitudeDegrees>42.32965766452252864837646484375</LatitudeDegrees>
              <LongitudeDegrees>2.44855818338692188262939453125</LongitudeDegrees>
            </Position>
            <AltitudeMeters>823.20001220703125</AltitudeMeters>
            <DistanceMeters>NAN</DistanceMeters>
          </Trackpoint>
          <Trackpoint>
            <Time>2021-04-03T16:08:59.000Z</Time>
            <Position>
              <LatitudeDegrees>42.32965498231351375579833984375</LatitudeDegrees>
              <LongitudeDegrees>2.448564134538173675537109375</LongitudeDegrees>
            </Position>
            <AltitudeMeters>823.4000244140625</AltitudeMeters>
            <DistanceMeters>NAN</DistanceMeters>
          </Trackpoint>
          <Trackpoint>
            <Time>2021-04-03T16:09:02.000Z</Time>
            <Position>
              <LatitudeDegrees>42.32965498231351375579833984375</LatitudeDegrees>
              <LongitudeDegrees>2.44856354780495166778564453125</LongitudeDegrees>
            </Position>
            <AltitudeMeters>823.5999755859375</AltitudeMeters>
            <DistanceMeters>NAN</DistanceMeters>
          </Trackpoint>
          <Trackpoint>
            <Time>2021-04-03T16:09:17.000Z</Time>
            <Position>
              <LatitudeDegrees>42.32965171337127685546875</LatitudeDegrees>
              <LongitudeDegrees>2.44856555946171283721923828125</LongitudeDegrees>
            </Position>
            <AltitudeMeters>823.5999755859375</AltitudeMeters>
            <DistanceMeters>NAN</DistanceMeters>
          </Trackpoint>
          <Trackpoint>
            <Time>2021-04-03T16:09:21.000Z</Time>
            <Position>
              <LatitudeDegrees>42.32965062372386455535888671875</LatitudeDegrees>
              <LongitudeDegrees>2.44856555946171283721923828125</LongitudeDegrees>
            </Position>
            <AltitudeMeters>823.5999755859375</AltitudeMeters>
            <DistanceMeters>NAN</DistanceMeters>
          </Trackpoint>
          <Trackpoint>
            <Time>2021-04-03T16:09:30.000Z</Time>
            <Position>
              <LatitudeDegrees>42.32964592985808849334716796875</LatitudeDegrees>
              <LongitudeDegrees>2.4485872685909271240234375</LongitudeDegrees>
            </Position>
            <AltitudeMeters>823.5999755859375</AltitudeMeters>
            <DistanceMeters>NAN</DistanceMeters>
          </Trackpoint>
          <Trackpoint>
            <Time>2021-04-03T16:09:33.000Z</Time>
            <Position>
              <LatitudeDegrees>42.32964442111551761627197265625</LatitudeDegrees>
              <LongitudeDegrees>2.44859808124601840972900390625</LongitudeDegrees>
            </Position>
            <AltitudeMeters>823.5999755859375</AltitudeMeters>
            <DistanceMeters>NAN</DistanceMeters>
          </Trackpoint>
          <Trackpoint>
            <Time>2021-04-03T16:09:35.000Z</Time>
            <Position>
              <LatitudeDegrees>42.32964257709681987762451171875</LatitudeDegrees>
              <LongitudeDegrees>2.44859908707439899444580078125</LongitudeDegrees>
            </Position>
            <AltitudeMeters>823.5999755859375</AltitudeMeters>
            <DistanceMeters>NAN</DistanceMeters>
          </Trackpoint>
          <Trackpoint>
            <Time>2021-04-03T16:09:42.000Z</Time>
            <Position>
              <LatitudeDegrees>42.32963369227945804595947265625</LatitudeDegrees>
              <LongitudeDegrees>2.448599338531494140625</LongitudeDegrees>
            </Position>
            <AltitudeMeters>823.5999755859375</AltitudeMeters>
            <DistanceMeters>NAN</DistanceMeters>
          </Trackpoint>
          <Trackpoint>
            <Time>2021-04-03T16:09:52.000Z</Time>
            <Position>
              <LatitudeDegrees>42.3296317644417285919189453125</LatitudeDegrees>
              <LongitudeDegrees>2.44859405793249607086181640625</LongitudeDegrees>
            </Position>
            <AltitudeMeters>823.5999755859375</AltitudeMeters>
            <DistanceMeters>NAN</DistanceMeters>
          </Trackpoint>
          <Trackpoint>
            <Time>2021-04-03T16:10:12.000Z</Time>
            <Position>
              <LatitudeDegrees>42.3296294175088405609130859375</LatitudeDegrees>
              <LongitudeDegrees>2.44859305210411548614501953125</LongitudeDegrees>
            </Position>
            <AltitudeMeters>823.5999755859375</AltitudeMeters>
            <DistanceMeters>NAN</DistanceMeters>
          </Trackpoint>
          <Trackpoint>
            <Time>2021-04-03T16:10:30.000Z</Time>
            <Position>
              <LatitudeDegrees>42.329617850482463836669921875</LatitudeDegrees>
              <LongitudeDegrees>2.44860176928341388702392578125</LongitudeDegrees>
            </Position>
            <AltitudeMeters>823.5999755859375</AltitudeMeters>
            <DistanceMeters>NAN</DistanceMeters>
          </Trackpoint>
          <Trackpoint>
            <Time>2021-04-03T16:10:50.000Z</Time>
            <Position>
              <LatitudeDegrees>42.32958130538463592529296875</LatitudeDegrees>
              <LongitudeDegrees>2.4486920423805713653564453125</LongitudeDegrees>
            </Position>
            <AltitudeMeters>823.5999755859375</AltitudeMeters>
            <DistanceMeters>NAN</DistanceMeters>
          </Trackpoint>
          <Trackpoint>
            <Time>2021-04-03T16:10:57.000Z</Time>
            <Position>
              <LatitudeDegrees>42.3295797966420650482177734375</LatitudeDegrees>
              <LongitudeDegrees>2.4487482011318206787109375</LongitudeDegrees>
            </Position>
            <AltitudeMeters>823.5999755859375</AltitudeMeters>
            <DistanceMeters>NAN</DistanceMeters>
          </Trackpoint>
          <Trackpoint>
            <Time>2021-04-03T16:11:03.000Z</Time>
            <Position>
              <LatitudeDegrees>42.32960888184607028961181640625</LatitudeDegrees>
              <LongitudeDegrees>2.44875155389308929443359375</LongitudeDegrees>
            </Position>
            <AltitudeMeters>823.5999755859375</AltitudeMeters>
            <DistanceMeters>NAN</DistanceMeters>
          </Trackpoint>
          <Trackpoint>
            <Time>2021-04-03T16:11:04.000Z</Time>
            <Position>
              <LatitudeDegrees>42.32961005531251430511474609375</LatitudeDegrees>
              <LongitudeDegrees>2.44875423610210418701171875</LongitudeDegrees>
            </Position>
            <AltitudeMeters>818.5999755859375</AltitudeMeters>
            <DistanceMeters>NAN</DistanceMeters>
          </Trackpoint>
          <Trackpoint>
            <Time>2021-04-03T16:11:05.000Z</Time>
            <Position>
              <LatitudeDegrees>42.3296103067696094512939453125</LatitudeDegrees>
              <LongitudeDegrees>2.44875867851078510284423828125</LongitudeDegrees>
            </Position>
            <AltitudeMeters>818.5999755859375</AltitudeMeters>
            <DistanceMeters>NAN</DistanceMeters>
          </Trackpoint>
          <Trackpoint>
            <Time>2021-04-03T16:11:13.000Z</Time>
            <Position>
              <LatitudeDegrees>42.32962648384273052215576171875</LatitudeDegrees>
              <LongitudeDegrees>2.4487963132560253143310546875</LongitudeDegrees>
            </Position>
            <AltitudeMeters>817.5999755859375</AltitudeMeters>
            <DistanceMeters>NAN</DistanceMeters>
          </Trackpoint>
          <Trackpoint>
            <Time>2021-04-03T16:11:21.000Z</Time>
            <Position>
              <LatitudeDegrees>42.32962296344339847564697265625</LatitudeDegrees>
              <LongitudeDegrees>2.4487969838082790374755859375</LongitudeDegrees>
            </Position>
            <AltitudeMeters>817.20001220703125</AltitudeMeters>
            <DistanceMeters>NAN</DistanceMeters>
          </Trackpoint>
          <Trackpoint>
            <Time>2021-04-03T16:11:38.000Z</Time>
            <Position>
              <LatitudeDegrees>42.32965028844773769378662109375</LatitudeDegrees>
              <LongitudeDegrees>2.44879237376153469085693359375</LongitudeDegrees>
            </Position>
            <AltitudeMeters>817</AltitudeMeters>
            <DistanceMeters>NAN</DistanceMeters>
          </Trackpoint>
          <Trackpoint>
            <Time>2021-04-03T16:11:41.000Z</Time>
            <Position>
              <LatitudeDegrees>42.3296565748751163482666015625</LatitudeDegrees>
              <LongitudeDegrees>2.44879807345569133758544921875</LongitudeDegrees>
            </Position>
            <AltitudeMeters>817</AltitudeMeters>
            <DistanceMeters>NAN</DistanceMeters>
          </Trackpoint>
          <Trackpoint>
            <Time>2021-04-03T16:11:43.000Z</Time>
            <Position>
              <LatitudeDegrees>42.32965632341802120208740234375</LatitudeDegrees>
              <LongitudeDegrees>2.44883210398256778717041015625</LongitudeDegrees>
            </Position>
            <AltitudeMeters>817.20001220703125</AltitudeMeters>
            <DistanceMeters>NAN</DistanceMeters>
          </Trackpoint>
          <Trackpoint>
            <Time>2021-04-03T16:11:45.000Z</Time>
            <Position>
              <LatitudeDegrees>42.3296532221138477325439453125</LatitudeDegrees>
              <LongitudeDegrees>2.44886261411011219024658203125</LongitudeDegrees>
            </Position>
            <AltitudeMeters>817.4000244140625</AltitudeMeters>
            <DistanceMeters>NAN</DistanceMeters>
          </Trackpoint>
          <Trackpoint>
            <Time>2021-04-03T16:11:49.000Z</Time>
            <Position>
              <LatitudeDegrees>42.32964023016393184661865234375</LatitudeDegrees>
              <LongitudeDegrees>2.44891441427171230316162109375</LongitudeDegrees>
            </Position>
            <AltitudeMeters>817.5999755859375</AltitudeMeters>
            <DistanceMeters>NAN</DistanceMeters>
          </Trackpoint>
          <Trackpoint>
            <Time>2021-04-03T16:11:52.000Z</Time>
            <Position>
              <LatitudeDegrees>42.32963385991752147674560546875</LatitudeDegrees>
              <LongitudeDegrees>2.44894995354115962982177734375</LongitudeDegrees>
            </Position>
            <AltitudeMeters>817.5999755859375</AltitudeMeters>
            <DistanceMeters>NAN</DistanceMeters>
          </Trackpoint>
          <Trackpoint>
            <Time>2021-04-03T16:11:54.000Z</Time>
            <Position>
              <LatitudeDegrees>42.3296264000236988067626953125</LatitudeDegrees>
              <LongitudeDegrees>2.44896403513848781585693359375</LongitudeDegrees>
            </Position>
            <AltitudeMeters>817.5999755859375</AltitudeMeters>
            <DistanceMeters>NAN</DistanceMeters>
          </Trackpoint>
          <Trackpoint>
            <Time>2021-04-03T16:12:07.000Z</Time>
            <Position>
              <LatitudeDegrees>42.32954568229615688323974609375</LatitudeDegrees>
              <LongitudeDegrees>2.44908540509641170501708984375</LongitudeDegrees>
            </Position>
            <AltitudeMeters>817</AltitudeMeters>
            <DistanceMeters>NAN</DistanceMeters>
          </Trackpoint>
          <Trackpoint>
            <Time>2021-04-03T16:12:15.000Z</Time>
            <Position>
              <LatitudeDegrees>42.3295082151889801025390625</LatitudeDegrees>
              <LongitudeDegrees>2.44916721247136592864990234375</LongitudeDegrees>
            </Position>
            <AltitudeMeters>816.5999755859375</AltitudeMeters>
            <DistanceMeters>NAN</DistanceMeters>
          </Trackpoint>
          <Trackpoint>
            <Time>2021-04-03T16:12:16.000Z</Time>
            <Position>
              <LatitudeDegrees>42.32950578443706035614013671875</LatitudeDegrees>
              <LongitudeDegrees>2.4491755105555057525634765625</LongitudeDegrees>
            </Position>
            <AltitudeMeters>816.4000244140625</AltitudeMeters>
            <DistanceMeters>NAN</DistanceMeters>
          </Trackpoint>
          <Trackpoint>
            <Time>2021-04-03T16:12:18.000Z</Time>
            <Position>
              <LatitudeDegrees>42.3294943012297153472900390625</LatitudeDegrees>
              <LongitudeDegrees>2.44919369928538799285888671875</LongitudeDegrees>
            </Position>
            <AltitudeMeters>816.20001220703125</AltitudeMeters>
            <DistanceMeters>NAN</DistanceMeters>
          </Trackpoint>
          <Trackpoint>
            <Time>2021-04-04T07:01:27.000Z</Time>
            <Position>
              <LatitudeDegrees>42.32961005531251430511474609375</LatitudeDegrees>
              <LongitudeDegrees>2.44833958335220813751220703125</LongitudeDegrees>
            </Position>
            <AltitudeMeters>831.5999755859375</AltitudeMeters>
            <DistanceMeters>NAN</DistanceMeters>
          </Trackpoint>
          <Trackpoint>
            <Time>2021-04-04T07:01:30.000Z</Time>
            <Position>
              <LatitudeDegrees>42.3296101391315460205078125</LatitudeDegrees>
              <LongitudeDegrees>2.448340170085430145263671875</LongitudeDegrees>
            </Position>
            <AltitudeMeters>831.5999755859375</AltitudeMeters>
            <DistanceMeters>NAN</DistanceMeters>
          </Trackpoint>
          <Trackpoint>
            <Time>2021-04-04T07:01:32.000Z</Time>
            <Position>
              <LatitudeDegrees>42.32961022295057773590087890625</LatitudeDegrees>
              <LongitudeDegrees>2.4483405053615570068359375</LongitudeDegrees>
            </Position>
            <AltitudeMeters>831.5999755859375</AltitudeMeters>
            <DistanceMeters>NAN</DistanceMeters>
          </Trackpoint>
          <Trackpoint>
            <Time>2021-04-04T07:01:48.000Z</Time>
            <Position>
              <LatitudeDegrees>42.329610474407672882080078125</LatitudeDegrees>
              <LongitudeDegrees>2.44834410957992076873779296875</LongitudeDegrees>
            </Position>
            <AltitudeMeters>832</AltitudeMeters>
            <DistanceMeters>NAN</DistanceMeters>
          </Trackpoint>
          <Trackpoint>
            <Time>2021-04-04T07:01:53.000Z</Time>
            <Position>
              <LatitudeDegrees>42.32961055822670459747314453125</LatitudeDegrees>
              <LongitudeDegrees>2.4483453668653964996337890625</LongitudeDegrees>
            </Position>
            <AltitudeMeters>832</AltitudeMeters>
            <DistanceMeters>NAN</DistanceMeters>
          </Trackpoint>
          <Trackpoint>
            <Time>2021-04-04T07:01:57.000Z</Time>
            <Position>
              <LatitudeDegrees>42.3296106420457363128662109375</LatitudeDegrees>
              <LongitudeDegrees>2.44834628887474536895751953125</LongitudeDegrees>
            </Position>
            <AltitudeMeters>832.20001220703125</AltitudeMeters>
            <DistanceMeters>NAN</DistanceMeters>
          </Trackpoint>
          <Trackpoint>
            <Time>2021-04-04T07:02:06.000Z</Time>
            <Position>
              <LatitudeDegrees>42.32961080968379974365234375</LatitudeDegrees>
              <LongitudeDegrees>2.448348216712474822998046875</LongitudeDegrees>
            </Position>
            <AltitudeMeters>832.20001220703125</AltitudeMeters>
            <DistanceMeters>NAN</DistanceMeters>
          </Trackpoint>
          <Trackpoint>
            <Time>2021-04-04T07:02:09.000Z</Time>
            <Position>
              <LatitudeDegrees>42.3296109773218631744384765625</LatitudeDegrees>
              <LongitudeDegrees>2.44834863580763339996337890625</LongitudeDegrees>
            </Position>
            <AltitudeMeters>832.5999755859375</AltitudeMeters>
            <DistanceMeters>NAN</DistanceMeters>
          </Trackpoint>
          <Trackpoint>
            <Time>2021-04-04T07:02:11.000Z</Time>
            <Position>
              <LatitudeDegrees>42.3296109773218631744384765625</LatitudeDegrees>
              <LongitudeDegrees>2.448348887264728546142578125</LongitudeDegrees>
            </Position>
            <AltitudeMeters>832.79998779296875</AltitudeMeters>
            <DistanceMeters>NAN</DistanceMeters>
          </Trackpoint>
          <Trackpoint>
            <Time>2021-04-04T07:02:16.000Z</Time>
            <Position>
              <LatitudeDegrees>42.329694293439388275146484375</LatitudeDegrees>
              <LongitudeDegrees>2.448365986347198486328125</LongitudeDegrees>
            </Position>
            <AltitudeMeters>833.79998779296875</AltitudeMeters>
            <DistanceMeters>NAN</DistanceMeters>
          </Trackpoint>
          <Trackpoint>
            <Time>2021-04-04T07:02:21.000Z</Time>
            <Position>
              <LatitudeDegrees>42.3297554813325405120849609375</LatitudeDegrees>
              <LongitudeDegrees>2.44836640544235706329345703125</LongitudeDegrees>
            </Position>
            <AltitudeMeters>834.5999755859375</AltitudeMeters>
            <DistanceMeters>NAN</DistanceMeters>
          </Trackpoint>
          <Trackpoint>
            <Time>2021-04-04T07:02:22.000Z</Time>
            <Position>
              <LatitudeDegrees>42.32974869199097156524658203125</LatitudeDegrees>
              <LongitudeDegrees>2.4483621306717395782470703125</LongitudeDegrees>
            </Position>
            <AltitudeMeters>834.79998779296875</AltitudeMeters>
            <DistanceMeters>NAN</DistanceMeters>
          </Trackpoint>
          <Trackpoint>
            <Time>2021-04-04T07:02:24.000Z</Time>
            <Position>
              <LatitudeDegrees>42.3297333531081676483154296875</LatitudeDegrees>
              <LongitudeDegrees>2.448366321623325347900390625</LongitudeDegrees>
            </Position>
            <AltitudeMeters>834.79998779296875</AltitudeMeters>
            <DistanceMeters>NAN</DistanceMeters>
          </Trackpoint>
          <Trackpoint>
            <Time>2021-04-04T07:02:29.000Z</Time>
            <Position>
              <LatitudeDegrees>42.329684235155582427978515625</LatitudeDegrees>
              <LongitudeDegrees>2.4483815766870975494384765625</LongitudeDegrees>
            </Position>
            <AltitudeMeters>835.5999755859375</AltitudeMeters>
            <DistanceMeters>NAN</DistanceMeters>
          </Trackpoint>
          <Trackpoint>
            <Time>2021-04-04T07:02:30.000Z</Time>
            <Position>
              <LatitudeDegrees>42.32967426069080829620361328125</LatitudeDegrees>
              <LongitudeDegrees>2.44838903658092021942138671875</LongitudeDegrees>
            </Position>
            <AltitudeMeters>835.79998779296875</AltitudeMeters>
            <DistanceMeters>NAN</DistanceMeters>
          </Trackpoint>
          <Trackpoint>
            <Time>2021-04-04T07:02:32.000Z</Time>
            <Position>
              <LatitudeDegrees>42.32965531758964061737060546875</LatitudeDegrees>
              <LongitudeDegrees>2.44839691556990146636962890625</LongitudeDegrees>
            </Position>
            <AltitudeMeters>836</AltitudeMeters>
            <DistanceMeters>NAN</DistanceMeters>
          </Trackpoint>
          <Trackpoint>
            <Time>2021-04-04T07:02:35.000Z</Time>
            <Position>
              <LatitudeDegrees>42.32964006252586841583251953125</LatitudeDegrees>
              <LongitudeDegrees>2.44840010069310665130615234375</LongitudeDegrees>
            </Position>
            <AltitudeMeters>836.4000244140625</AltitudeMeters>
            <DistanceMeters>NAN</DistanceMeters>
          </Trackpoint>
          <Trackpoint>
            <Time>2021-04-04T07:02:37.000Z</Time>
            <Position>
              <LatitudeDegrees>42.3296471871435642242431640625</LatitudeDegrees>
              <LongitudeDegrees>2.4484037049114704132080078125</LongitudeDegrees>
            </Position>
            <AltitudeMeters>836.4000244140625</AltitudeMeters>
            <DistanceMeters>NAN</DistanceMeters>
          </Trackpoint>
          <Trackpoint>
            <Time>2021-04-04T07:02:39.000Z</Time>
            <Position>
              <LatitudeDegrees>42.3296584188938140869140625</LatitudeDegrees>
              <LongitudeDegrees>2.4483906291425228118896484375</LongitudeDegrees>
            </Position>
            <AltitudeMeters>836.4000244140625</AltitudeMeters>
            <DistanceMeters>NAN</DistanceMeters>
          </Trackpoint>
          <Trackpoint>
            <Time>2021-04-04T07:02:44.000Z</Time>
            <Position>
              <LatitudeDegrees>42.32967895455658435821533203125</LatitudeDegrees>
              <LongitudeDegrees>2.44834813289344310760498046875</LongitudeDegrees>
            </Position>
            <AltitudeMeters>836.4000244140625</AltitudeMeters>
            <DistanceMeters>NAN</DistanceMeters>
          </Trackpoint>
          <Trackpoint>
            <Time>2021-04-04T07:02:49.000Z</Time>
            <Position>
              <LatitudeDegrees>42.32967895455658435821533203125</LatitudeDegrees>
              <LongitudeDegrees>2.44834813289344310760498046875</LongitudeDegrees>
            </Position>
            <AltitudeMeters>836.4000244140625</AltitudeMeters>
            <DistanceMeters>NAN</DistanceMeters>
          </Trackpoint>
          <Trackpoint>
            <Time>2021-04-04T07:02:55.000Z</Time>
            <Position>
              <LatitudeDegrees>42.32967895455658435821533203125</LatitudeDegrees>
              <LongitudeDegrees>2.44835165329277515411376953125</LongitudeDegrees>
            </Position>
            <AltitudeMeters>836.4000244140625</AltitudeMeters>
            <DistanceMeters>NAN</DistanceMeters>
          </Trackpoint>
          <Trackpoint>
            <Time>2021-04-04T07:03:07.000Z</Time>
            <Position>
              <LatitudeDegrees>42.32969068922102451324462890625</LatitudeDegrees>
              <LongitudeDegrees>2.448357604444026947021484375</LongitudeDegrees>
            </Position>
            <AltitudeMeters>836.5999755859375</AltitudeMeters>
            <DistanceMeters>NAN</DistanceMeters>
          </Trackpoint>
          <Trackpoint>
            <Time>2021-04-04T07:03:08.000Z</Time>
            <Position>
              <LatitudeDegrees>42.32969488017261028289794921875</LatitudeDegrees>
              <LongitudeDegrees>2.448357604444026947021484375</LongitudeDegrees>
            </Position>
            <AltitudeMeters>836.5999755859375</AltitudeMeters>
            <DistanceMeters>NAN</DistanceMeters>
          </Trackpoint>
          <Trackpoint>
            <Time>2021-04-04T07:03:28.000Z</Time>
            <Position>
              <LatitudeDegrees>42.32973285019397735595703125</LatitudeDegrees>
              <LongitudeDegrees>2.44836137630045413970947265625</LongitudeDegrees>
            </Position>
            <AltitudeMeters>836.4000244140625</AltitudeMeters>
            <DistanceMeters>NAN</DistanceMeters>
          </Trackpoint>
          <Trackpoint>
            <Time>2021-04-04T07:03:30.000Z</Time>
            <Position>
              <LatitudeDegrees>42.32972388155758380889892578125</LatitudeDegrees>
              <LongitudeDegrees>2.44832818396389484405517578125</LongitudeDegrees>
            </Position>
            <AltitudeMeters>836.79998779296875</AltitudeMeters>
            <DistanceMeters>NAN</DistanceMeters>
          </Trackpoint>
          <Trackpoint>
            <Time>2021-04-04T07:03:33.000Z</Time>
            <Position>
              <LatitudeDegrees>42.32971969060599803924560546875</LatitudeDegrees>
              <LongitudeDegrees>2.44830622337758541107177734375</LongitudeDegrees>
            </Position>
            <AltitudeMeters>837.20001220703125</AltitudeMeters>
            <DistanceMeters>NAN</DistanceMeters>
          </Trackpoint>
          <Trackpoint>
            <Time>2021-04-04T07:03:36.000Z</Time>
            <Position>
              <LatitudeDegrees>42.329721115529537200927734375</LatitudeDegrees>
              <LongitudeDegrees>2.4482581950724124908447265625</LongitudeDegrees>
            </Position>
            <AltitudeMeters>837.20001220703125</AltitudeMeters>
            <DistanceMeters>NAN</DistanceMeters>
          </Trackpoint>
          <Trackpoint>
            <Time>2021-04-04T07:03:44.000Z</Time>
            <Position>
              <LatitudeDegrees>42.32969454489648342132568359375</LatitudeDegrees>
              <LongitudeDegrees>2.4481753818690776824951171875</LongitudeDegrees>
            </Position>
            <AltitudeMeters>837.5999755859375</AltitudeMeters>
            <DistanceMeters>NAN</DistanceMeters>
          </Trackpoint>
          <Trackpoint>
            <Time>2021-04-04T07:03:51.000Z</Time>
            <Position>
              <LatitudeDegrees>42.3296750150620937347412109375</LatitudeDegrees>
              <LongitudeDegrees>2.4480965919792652130126953125</LongitudeDegrees>
            </Position>
            <AltitudeMeters>838</AltitudeMeters>
            <DistanceMeters>NAN</DistanceMeters>
          </Trackpoint>
          <Trackpoint>
            <Time>2021-04-04T07:03:52.000Z</Time>
            <Position>
              <LatitudeDegrees>42.3296771943569183349609375</LatitudeDegrees>
              <LongitudeDegrees>2.44807605631649494171142578125</LongitudeDegrees>
            </Position>
            <AltitudeMeters>838.20001220703125</AltitudeMeters>
            <DistanceMeters>NAN</DistanceMeters>
          </Trackpoint>
          <Trackpoint>
            <Time>2021-04-04T07:03:58.000Z</Time>
            <Position>
              <LatitudeDegrees>42.32969664037227630615234375</LatitudeDegrees>
              <LongitudeDegrees>2.44800992310047149658203125</LongitudeDegrees>
            </Position>
            <AltitudeMeters>838.79998779296875</AltitudeMeters>
            <DistanceMeters>NAN</DistanceMeters>
          </Trackpoint>
          <Trackpoint>
            <Time>2021-04-04T07:04:00.000Z</Time>
            <Position>
              <LatitudeDegrees>42.32968934811651706695556640625</LatitudeDegrees>
              <LongitudeDegrees>2.44799517095088958740234375</LongitudeDegrees>
            </Position>
            <AltitudeMeters>839.4000244140625</AltitudeMeters>
            <DistanceMeters>NAN</DistanceMeters>
          </Trackpoint>
          <Trackpoint>
            <Time>2021-04-04T07:04:06.000Z</Time>
            <Position>
              <LatitudeDegrees>42.329708375036716461181640625</LatitudeDegrees>
              <LongitudeDegrees>2.4479155428707599639892578125</LongitudeDegrees>
            </Position>
            <AltitudeMeters>840.4000244140625</AltitudeMeters>
            <DistanceMeters>NAN</DistanceMeters>
          </Trackpoint>
          <Trackpoint>
            <Time>2021-04-04T07:04:07.000Z</Time>
            <Position>
              <LatitudeDegrees>42.329715080559253692626953125</LatitudeDegrees>
              <LongitudeDegrees>2.44790841825306415557861328125</LongitudeDegrees>
            </Position>
            <AltitudeMeters>840.4000244140625</AltitudeMeters>
            <DistanceMeters>NAN</DistanceMeters>
          </Trackpoint>
          <Trackpoint>
            <Time>2021-04-04T07:04:14.000Z</Time>
            <Position>
              <LatitudeDegrees>42.32974969781935214996337890625</LatitudeDegrees>
              <LongitudeDegrees>2.44783801026642322540283203125</LongitudeDegrees>
            </Position>
            <AltitudeMeters>840.79998779296875</AltitudeMeters>
            <DistanceMeters>NAN</DistanceMeters>
          </Trackpoint>
          <Trackpoint>
            <Time>2021-04-04T07:04:23.000Z</Time>
            <Position>
              <LatitudeDegrees>42.32978917658329010009765625</LatitudeDegrees>
              <LongitudeDegrees>2.4477348290383815765380859375</LongitudeDegrees>
            </Position>
            <AltitudeMeters>841.4000244140625</AltitudeMeters>
            <DistanceMeters>NAN</DistanceMeters>
          </Trackpoint>
          <Trackpoint>
            <Time>2021-04-04T07:04:25.000Z</Time>
            <Position>
              <LatitudeDegrees>42.3297987319529056549072265625</LatitudeDegrees>
              <LongitudeDegrees>2.44771982543170452117919921875</LongitudeDegrees>
            </Position>
            <AltitudeMeters>841.5999755859375</AltitudeMeters>
            <DistanceMeters>NAN</DistanceMeters>
          </Trackpoint>
          <Trackpoint>
            <Time>2021-04-04T07:04:32.000Z</Time>
            <Position>
              <LatitudeDegrees>42.329831756651401519775390625</LatitudeDegrees>
              <LongitudeDegrees>2.4476607330143451690673828125</LongitudeDegrees>
            </Position>
            <AltitudeMeters>841.79998779296875</AltitudeMeters>
            <DistanceMeters>NAN</DistanceMeters>
          </Trackpoint>
          <Trackpoint>
            <Time>2021-04-04T07:04:33.000Z</Time>
            <Position>
              <LatitudeDegrees>42.32983133755624294281005859375</LatitudeDegrees>
              <LongitudeDegrees>2.4476520158350467681884765625</LongitudeDegrees>
            </Position>
            <AltitudeMeters>841.79998779296875</AltitudeMeters>
            <DistanceMeters>NAN</DistanceMeters>
          </Trackpoint>
          <Trackpoint>
            <Time>2021-04-04T07:04:35.000Z</Time>
            <Position>
              <LatitudeDegrees>42.3298342712223529815673828125</LatitudeDegrees>
              <LongitudeDegrees>2.44762502610683441162109375</LongitudeDegrees>
            </Position>
            <AltitudeMeters>841.79998779296875</AltitudeMeters>
            <DistanceMeters>NAN</DistanceMeters>
          </Trackpoint>
          <Trackpoint>
            <Time>2021-04-04T07:04:41.000Z</Time>
            <Position>
              <LatitudeDegrees>42.32986184768378734588623046875</LatitudeDegrees>
              <LongitudeDegrees>2.447551600635051727294921875</LongitudeDegrees>
            </Position>
            <AltitudeMeters>841.5999755859375</AltitudeMeters>
            <DistanceMeters>NAN</DistanceMeters>
          </Trackpoint>
          <Trackpoint>
            <Time>2021-04-04T07:04:44.000Z</Time>
            <Position>
              <LatitudeDegrees>42.329863272607326507568359375</LatitudeDegrees>
              <LongitudeDegrees>2.447511367499828338623046875</LongitudeDegrees>
            </Position>
            <AltitudeMeters>841.5999755859375</AltitudeMeters>
            <DistanceMeters>NAN</DistanceMeters>
          </Trackpoint>
          <Trackpoint>
            <Time>2021-04-04T07:04:47.000Z</Time>
            <Position>
              <LatitudeDegrees>42.3298574052751064300537109375</LatitudeDegrees>
              <LongitudeDegrees>2.44747557677328586578369140625</LongitudeDegrees>
            </Position>
            <AltitudeMeters>841.4000244140625</AltitudeMeters>
            <DistanceMeters>NAN</DistanceMeters>
          </Trackpoint>
          <Trackpoint>
            <Time>2021-04-04T07:04:50.000Z</Time>
            <Position>
              <LatitudeDegrees>42.32985162176191806793212890625</LatitudeDegrees>
              <LongitudeDegrees>2.44743551127612590789794921875</LongitudeDegrees>
            </Position>
            <AltitudeMeters>841</AltitudeMeters>
            <DistanceMeters>NAN</DistanceMeters>
          </Trackpoint>
          <Trackpoint>
            <Time>2021-04-04T07:04:51.000Z</Time>
            <Position>
              <LatitudeDegrees>42.32984910719096660614013671875</LatitudeDegrees>
              <LongitudeDegrees>2.4474260397255420684814453125</LongitudeDegrees>
            </Position>
            <AltitudeMeters>840.79998779296875</AltitudeMeters>
            <DistanceMeters>NAN</DistanceMeters>
          </Trackpoint>
          <Trackpoint>
            <Time>2021-04-04T07:04:54.000Z</Time>
            <Position>
              <LatitudeDegrees>42.3298319242894649505615234375</LatitudeDegrees>
              <LongitudeDegrees>2.44740910828113555908203125</LongitudeDegrees>
            </Position>
            <AltitudeMeters>840.5999755859375</AltitudeMeters>
            <DistanceMeters>NAN</DistanceMeters>
          </Trackpoint>
          <Trackpoint>
            <Time>2021-04-04T07:04:55.000Z</Time>
            <Position>
              <LatitudeDegrees>42.3298315890133380889892578125</LatitudeDegrees>
              <LongitudeDegrees>2.4473958648741245269775390625</LongitudeDegrees>
            </Position>
            <AltitudeMeters>840.20001220703125</AltitudeMeters>
            <DistanceMeters>NAN</DistanceMeters>
          </Trackpoint>
          <Trackpoint>
            <Time>2021-04-04T07:05:03.000Z</Time>
            <Position>
              <LatitudeDegrees>42.329840473830699920654296875</LatitudeDegrees>
              <LongitudeDegrees>2.44724909774959087371826171875</LongitudeDegrees>
            </Position>
            <AltitudeMeters>840</AltitudeMeters>
            <DistanceMeters>NAN</DistanceMeters>
          </Trackpoint>
          <Trackpoint>
            <Time>2021-04-04T07:05:07.000Z</Time>
            <Position>
              <LatitudeDegrees>42.3298510350286960601806640625</LatitudeDegrees>
              <LongitudeDegrees>2.44720098562538623809814453125</LongitudeDegrees>
            </Position>
            <AltitudeMeters>840.4000244140625</AltitudeMeters>
            <DistanceMeters>NAN</DistanceMeters>
          </Trackpoint>
          <Trackpoint>
            <Time>2021-04-04T07:05:10.000Z</Time>
            <Position>
              <LatitudeDegrees>42.32986436225473880767822265625</LatitudeDegrees>
              <LongitudeDegrees>2.447151280939579010009765625</LongitudeDegrees>
            </Position>
            <AltitudeMeters>841</AltitudeMeters>
            <DistanceMeters>NAN</DistanceMeters>
          </Trackpoint>
          <Trackpoint>
            <Time>2021-04-04T07:05:11.000Z</Time>
            <Position>
              <LatitudeDegrees>42.32986939139664173126220703125</LatitudeDegrees>
              <LongitudeDegrees>2.4471366964280605316162109375</LongitudeDegrees>
            </Position>
            <AltitudeMeters>841.20001220703125</AltitudeMeters>
            <DistanceMeters>NAN</DistanceMeters>
          </Trackpoint>
          <Trackpoint>
            <Time>2021-04-04T07:05:12.000Z</Time>
            <Position>
              <LatitudeDegrees>42.32987492345273494720458984375</LatitudeDegrees>
              <LongitudeDegrees>2.447123788297176361083984375</LongitudeDegrees>
            </Position>
            <AltitudeMeters>841.4000244140625</AltitudeMeters>
            <DistanceMeters>NAN</DistanceMeters>
          </Trackpoint>
          <Trackpoint>
            <Time>2021-04-04T07:05:15.000Z</Time>
            <Position>
              <LatitudeDegrees>42.329880706965923309326171875</LatitudeDegrees>
              <LongitudeDegrees>2.44707207195460796356201171875</LongitudeDegrees>
            </Position>
            <AltitudeMeters>842</AltitudeMeters>
            <DistanceMeters>NAN</DistanceMeters>
          </Trackpoint>
          <Trackpoint>
            <Time>2021-04-04T07:05:17.000Z</Time>
            <Position>
              <LatitudeDegrees>42.32990023680031299591064453125</LatitudeDegrees>
              <LongitudeDegrees>2.4470508657395839691162109375</LongitudeDegrees>
            </Position>
            <AltitudeMeters>842.20001220703125</AltitudeMeters>
            <DistanceMeters>NAN</DistanceMeters>
          </Trackpoint>
          <Trackpoint>
            <Time>2021-04-04T07:05:18.000Z</Time>
            <Position>
              <LatitudeDegrees>42.32990593649446964263916015625</LatitudeDegrees>
              <LongitudeDegrees>2.4470367841422557830810546875</LongitudeDegrees>
            </Position>
            <AltitudeMeters>842.20001220703125</AltitudeMeters>
            <DistanceMeters>NAN</DistanceMeters>
          </Trackpoint>
          <Trackpoint>
            <Time>2021-04-04T07:05:20.000Z</Time>
            <Position>
              <LatitudeDegrees>42.32991867698729038238525390625</LatitudeDegrees>
              <LongitudeDegrees>2.44702781550586223602294921875</LongitudeDegrees>
            </Position>
            <AltitudeMeters>842.5999755859375</AltitudeMeters>
            <DistanceMeters>NAN</DistanceMeters>
          </Trackpoint>
          <Trackpoint>
            <Time>2021-04-04T07:05:24.000Z</Time>
            <Position>
              <LatitudeDegrees>42.32995438389480113983154296875</LatitudeDegrees>
              <LongitudeDegrees>2.446998395025730133056640625</LongitudeDegrees>
            </Position>
            <AltitudeMeters>842.79998779296875</AltitudeMeters>
            <DistanceMeters>NAN</DistanceMeters>
          </Trackpoint>
          <Trackpoint>
            <Time>2021-04-04T07:05:28.000Z</Time>
            <Position>
              <LatitudeDegrees>42.32999126426875591278076171875</LatitudeDegrees>
              <LongitudeDegrees>2.44697769172489643096923828125</LongitudeDegrees>
            </Position>
            <AltitudeMeters>843.20001220703125</AltitudeMeters>
            <DistanceMeters>NAN</DistanceMeters>
          </Trackpoint>
          <Trackpoint>
            <Time>2021-04-04T07:05:33.000Z</Time>
            <Position>
              <LatitudeDegrees>42.330057732760906219482421875</LatitudeDegrees>
              <LongitudeDegrees>2.44698406197130680084228515625</LongitudeDegrees>
            </Position>
            <AltitudeMeters>843.5999755859375</AltitudeMeters>
            <DistanceMeters>NAN</DistanceMeters>
          </Trackpoint>
          <Trackpoint>
            <Time>2021-04-04T07:05:36.000Z</Time>
            <Position>
              <LatitudeDegrees>42.33008530922234058380126953125</LatitudeDegrees>
              <LongitudeDegrees>2.446978278458118438720703125</LongitudeDegrees>
            </Position>
            <AltitudeMeters>843.79998779296875</AltitudeMeters>
            <DistanceMeters>NAN</DistanceMeters>
          </Trackpoint>
          <Trackpoint>
            <Time>2021-04-04T07:05:37.000Z</Time>
            <Position>
              <LatitudeDegrees>42.33009469695389270782470703125</LatitudeDegrees>
              <LongitudeDegrees>2.4469784460961818695068359375</LongitudeDegrees>
            </Position>
            <AltitudeMeters>844</AltitudeMeters>
            <DistanceMeters>NAN</DistanceMeters>
          </Trackpoint>
          <Trackpoint>
            <Time>2021-04-04T07:05:43.000Z</Time>
            <Position>
              <LatitudeDegrees>42.3301519453525543212890625</LatitudeDegrees>
              <LongitudeDegrees>2.44697995483875274658203125</LongitudeDegrees>
            </Position>
            <AltitudeMeters>844.5999755859375</AltitudeMeters>
            <DistanceMeters>NAN</DistanceMeters>
          </Trackpoint>
          <Trackpoint>
            <Time>2021-04-04T07:05:46.000Z</Time>
            <Position>
              <LatitudeDegrees>42.33018388040363788604736328125</LatitudeDegrees>
              <LongitudeDegrees>2.446999065577983856201171875</LongitudeDegrees>
            </Position>
            <AltitudeMeters>845.20001220703125</AltitudeMeters>
            <DistanceMeters>NAN</DistanceMeters>
          </Trackpoint>
          <Trackpoint>
            <Time>2021-04-04T07:05:49.000Z</Time>
            <Position>
              <LatitudeDegrees>42.33021489344537258148193359375</LatitudeDegrees>
              <LongitudeDegrees>2.44701339863240718841552734375</LongitudeDegrees>
            </Position>
            <AltitudeMeters>845.5999755859375</AltitudeMeters>
            <DistanceMeters>NAN</DistanceMeters>
          </Trackpoint>
          <Trackpoint>
            <Time>2021-04-04T07:05:50.000Z</Time>
            <Position>
              <LatitudeDegrees>42.33022461645305156707763671875</LatitudeDegrees>
              <LongitudeDegrees>2.4470149911940097808837890625</LongitudeDegrees>
            </Position>
            <AltitudeMeters>845.79998779296875</AltitudeMeters>
            <DistanceMeters>NAN</DistanceMeters>
          </Trackpoint>
          <Trackpoint>
            <Time>2021-04-04T07:05:54.000Z</Time>
            <Position>
              <LatitudeDegrees>42.330275662243366241455078125</LatitudeDegrees>
              <LongitudeDegrees>2.4470221996307373046875</LongitudeDegrees>
            </Position>
            <AltitudeMeters>846.4000244140625</AltitudeMeters>
            <DistanceMeters>NAN</DistanceMeters>
          </Trackpoint>
          <Trackpoint>
            <Time>2021-04-04T07:05:56.000Z</Time>
            <Position>
              <LatitudeDegrees>42.330298461019992828369140625</LatitudeDegrees>
              <LongitudeDegrees>2.4470146559178829193115234375</LongitudeDegrees>
            </Position>
            <AltitudeMeters>846.79998779296875</AltitudeMeters>
            <DistanceMeters>NAN</DistanceMeters>
          </Trackpoint>
          <Trackpoint>
            <Time>2021-04-04T07:05:58.000Z</Time>
            <Position>
              <LatitudeDegrees>42.33031111769378185272216796875</LatitudeDegrees>
              <LongitudeDegrees>2.44701884686946868896484375</LongitudeDegrees>
            </Position>
            <AltitudeMeters>847.20001220703125</AltitudeMeters>
            <DistanceMeters>NAN</DistanceMeters>
          </Trackpoint>
          <Trackpoint>
            <Time>2021-04-04T07:06:01.000Z</Time>
            <Position>
              <LatitudeDegrees>42.3303271271288394927978515625</LatitudeDegrees>
              <LongitudeDegrees>2.44701960124075412750244140625</LongitudeDegrees>
            </Position>
            <AltitudeMeters>847.79998779296875</AltitudeMeters>
            <DistanceMeters>NAN</DistanceMeters>
          </Trackpoint>
          <Trackpoint>
            <Time>2021-04-04T07:06:02.000Z</Time>
            <Position>
              <LatitudeDegrees>42.33033123426139354705810546875</LatitudeDegrees>
              <LongitudeDegrees>2.44702379219233989715576171875</LongitudeDegrees>
            </Position>
            <AltitudeMeters>847.79998779296875</AltitudeMeters>
            <DistanceMeters>NAN</DistanceMeters>
          </Trackpoint>
          <Trackpoint>
            <Time>2021-04-04T07:06:03.000Z</Time>
            <Position>
              <LatitudeDegrees>42.33033425174653530120849609375</LatitudeDegrees>
              <LongitudeDegrees>2.4470227025449275970458984375</LongitudeDegrees>
            </Position>
            <AltitudeMeters>847.79998779296875</AltitudeMeters>
            <DistanceMeters>NAN</DistanceMeters>
          </Trackpoint>
          <Trackpoint>
            <Time>2021-04-04T07:06:05.000Z</Time>
            <Position>
              <LatitudeDegrees>42.33034196309745311737060546875</LatitudeDegrees>
              <LongitudeDegrees>2.44702144525945186614990234375</LongitudeDegrees>
            </Position>
            <AltitudeMeters>848</AltitudeMeters>
            <DistanceMeters>NAN</DistanceMeters>
          </Trackpoint>
          <Trackpoint>
            <Time>2021-04-04T07:06:09.000Z</Time>
            <Position>
              <LatitudeDegrees>42.33035654760897159576416015625</LatitudeDegrees>
              <LongitudeDegrees>2.44701809249818325042724609375</LongitudeDegrees>
            </Position>
            <AltitudeMeters>848.20001220703125</AltitudeMeters>
            <DistanceMeters>NAN</DistanceMeters>
          </Trackpoint>
          <Trackpoint>
            <Time>2021-04-04T07:06:16.000Z</Time>
            <Position>
              <LatitudeDegrees>42.33038119040429592132568359375</LatitudeDegrees>
              <LongitudeDegrees>2.44702077470719814300537109375</LongitudeDegrees>
            </Position>
            <AltitudeMeters>848.5999755859375</AltitudeMeters>
            <DistanceMeters>NAN</DistanceMeters>
          </Trackpoint>
          <Trackpoint>
            <Time>2021-04-04T07:06:20.000Z</Time>
            <Position>
              <LatitudeDegrees>42.33041723258793354034423828125</LatitudeDegrees>
              <LongitudeDegrees>2.44703016243875026702880859375</LongitudeDegrees>
            </Position>
            <AltitudeMeters>848.79998779296875</AltitudeMeters>
            <DistanceMeters>NAN</DistanceMeters>
          </Trackpoint>
          <Trackpoint>
            <Time>2021-04-04T07:06:21.000Z</Time>
            <Position>
              <LatitudeDegrees>42.3304240219295024871826171875</LatitudeDegrees>
              <LongitudeDegrees>2.447033934295177459716796875</LongitudeDegrees>
            </Position>
            <AltitudeMeters>848.79998779296875</AltitudeMeters>
            <DistanceMeters>NAN</DistanceMeters>
          </Trackpoint>
          <Trackpoint>
            <Time>2021-04-04T07:06:25.000Z</Time>
            <Position>
              <LatitudeDegrees>42.3304538615047931671142578125</LatitudeDegrees>
              <LongitudeDegrees>2.44704298675060272216796875</LongitudeDegrees>
            </Position>
            <AltitudeMeters>849.4000244140625</AltitudeMeters>
            <DistanceMeters>NAN</DistanceMeters>
          </Trackpoint>
          <Trackpoint>
            <Time>2021-04-04T07:06:27.000Z</Time>
            <Position>
              <LatitudeDegrees>42.33046098612248897552490234375</LatitudeDegrees>
              <LongitudeDegrees>2.44703670032322406768798828125</LongitudeDegrees>
            </Position>
            <AltitudeMeters>849.79998779296875</AltitudeMeters>
            <DistanceMeters>NAN</DistanceMeters>
          </Trackpoint>
          <Trackpoint>
            <Time>2021-04-04T07:06:28.000Z</Time>
            <Position>
              <LatitudeDegrees>42.3304712958633899688720703125</LatitudeDegrees>
              <LongitudeDegrees>2.4470342695713043212890625</LongitudeDegrees>
            </Position>
            <AltitudeMeters>850</AltitudeMeters>
            <DistanceMeters>NAN</DistanceMeters>
          </Trackpoint>
          <Trackpoint>
            <Time>2021-04-04T07:06:32.000Z</Time>
            <Position>
              <LatitudeDegrees>42.33050264418125152587890625</LatitudeDegrees>
              <LongitudeDegrees>2.447062432765960693359375</LongitudeDegrees>
            </Position>
            <AltitudeMeters>850.20001220703125</AltitudeMeters>
            <DistanceMeters>NAN</DistanceMeters>
          </Trackpoint>
          <Trackpoint>
            <Time>2021-04-04T07:06:35.000Z</Time>
            <Position>
              <LatitudeDegrees>42.33051664195954799652099609375</LatitudeDegrees>
              <LongitudeDegrees>2.44705497287213802337646484375</LongitudeDegrees>
            </Position>
            <AltitudeMeters>851.20001220703125</AltitudeMeters>
            <DistanceMeters>NAN</DistanceMeters>
          </Trackpoint>
          <Trackpoint>
            <Time>2021-04-04T07:06:37.000Z</Time>
            <Position>
              <LatitudeDegrees>42.33052921481430530548095703125</LatitudeDegrees>
              <LongitudeDegrees>2.44704835116863250732421875</LongitudeDegrees>
            </Position>
            <AltitudeMeters>851.4000244140625</AltitudeMeters>
            <DistanceMeters>NAN</DistanceMeters>
          </Trackpoint>
          <Trackpoint>
            <Time>2021-04-04T07:06:39.000Z</Time>
            <Position>
              <LatitudeDegrees>42.33054094947874546051025390625</LatitudeDegrees>
              <LongitudeDegrees>2.4470273964107036590576171875</LongitudeDegrees>
            </Position>
            <AltitudeMeters>851.5999755859375</AltitudeMeters>
            <DistanceMeters>NAN</DistanceMeters>
          </Trackpoint>
          <Trackpoint>
            <Time>2021-04-04T07:06:42.000Z</Time>
            <Position>
              <LatitudeDegrees>42.33055226504802703857421875</LatitudeDegrees>
              <LongitudeDegrees>2.44699244387447834014892578125</LongitudeDegrees>
            </Position>
            <AltitudeMeters>851.5999755859375</AltitudeMeters>
            <DistanceMeters>NAN</DistanceMeters>
          </Trackpoint>
          <Trackpoint>
            <Time>2021-04-04T07:06:47.000Z</Time>
            <Position>
              <LatitudeDegrees>42.3305732198059558868408203125</LatitudeDegrees>
              <LongitudeDegrees>2.44692471809685230255126953125</LongitudeDegrees>
            </Position>
            <AltitudeMeters>851.79998779296875</AltitudeMeters>
            <DistanceMeters>NAN</DistanceMeters>
          </Trackpoint>
          <Trackpoint>
            <Time>2021-04-04T07:06:51.000Z</Time>
            <Position>
              <LatitudeDegrees>42.330587469041347503662109375</LatitudeDegrees>
              <LongitudeDegrees>2.44687057100236415863037109375</LongitudeDegrees>
            </Position>
            <AltitudeMeters>852</AltitudeMeters>
            <DistanceMeters>NAN</DistanceMeters>
          </Trackpoint>
          <Trackpoint>
            <Time>2021-04-04T07:06:53.000Z</Time>
            <Position>
              <LatitudeDegrees>42.33059459365904331207275390625</LatitudeDegrees>
              <LongitudeDegrees>2.4468490295112133026123046875</LongitudeDegrees>
            </Position>
            <AltitudeMeters>852</AltitudeMeters>
            <DistanceMeters>NAN</DistanceMeters>
          </Trackpoint>
          <Trackpoint>
            <Time>2021-04-04T07:06:54.000Z</Time>
            <Position>
              <LatitudeDegrees>42.33060012571513652801513671875</LatitudeDegrees>
              <LongitudeDegrees>2.44683804921805858612060546875</LongitudeDegrees>
            </Position>
            <AltitudeMeters>852.20001220703125</AltitudeMeters>
            <DistanceMeters>NAN</DistanceMeters>
          </Trackpoint>
          <Trackpoint>
            <Time>2021-04-04T07:06:57.000Z</Time>
            <Position>
              <LatitudeDegrees>42.330609261989593505859375</LatitudeDegrees>
              <LongitudeDegrees>2.4468064494431018829345703125</LongitudeDegrees>
            </Position>
            <AltitudeMeters>852.5999755859375</AltitudeMeters>
            <DistanceMeters>NAN</DistanceMeters>
          </Trackpoint>
          <Trackpoint>
            <Time>2021-04-04T07:06:59.000Z</Time>
            <Position>
              <LatitudeDegrees>42.3306101001799106597900390625</LatitudeDegrees>
              <LongitudeDegrees>2.446797899901866912841796875</LongitudeDegrees>
            </Position>
            <AltitudeMeters>852.5999755859375</AltitudeMeters>
            <DistanceMeters>NAN</DistanceMeters>
          </Trackpoint>
          <Trackpoint>
            <Time>2021-04-04T07:07:05.000Z</Time>
            <Position>
              <LatitudeDegrees>42.3306137882173061370849609375</LatitudeDegrees>
              <LongitudeDegrees>2.44681541807949542999267578125</LongitudeDegrees>
            </Position>
            <AltitudeMeters>852.5999755859375</AltitudeMeters>
            <DistanceMeters>NAN</DistanceMeters>
          </Trackpoint>
          <Trackpoint>
            <Time>2021-04-04T07:07:06.000Z</Time>
            <Position>
              <LatitudeDegrees>42.33061437495052814483642578125</LatitudeDegrees>
              <LongitudeDegrees>2.44681944139301776885986328125</LongitudeDegrees>
            </Position>
            <AltitudeMeters>852.5999755859375</AltitudeMeters>
            <DistanceMeters>NAN</DistanceMeters>
          </Trackpoint>
          <Trackpoint>
            <Time>2021-04-04T07:07:11.000Z</Time>
            <Position>
              <LatitudeDegrees>42.33061169274151325225830078125</LatitudeDegrees>
              <LongitudeDegrees>2.44682664982974529266357421875</LongitudeDegrees>
            </Position>
            <AltitudeMeters>852.79998779296875</AltitudeMeters>
            <DistanceMeters>NAN</DistanceMeters>
          </Trackpoint>
          <Trackpoint>
            <Time>2021-04-04T07:07:14.000Z</Time>
            <Position>
              <LatitudeDegrees>42.33061169274151325225830078125</LatitudeDegrees>
              <LongitudeDegrees>2.44682664982974529266357421875</LongitudeDegrees>
            </Position>
            <AltitudeMeters>852.79998779296875</AltitudeMeters>
            <DistanceMeters>NAN</DistanceMeters>
          </Trackpoint>
          <Trackpoint>
            <Time>2021-04-04T07:07:16.000Z</Time>
            <Position>
              <LatitudeDegrees>42.33061169274151325225830078125</LatitudeDegrees>
              <LongitudeDegrees>2.44682664982974529266357421875</LongitudeDegrees>
            </Position>
            <AltitudeMeters>852.79998779296875</AltitudeMeters>
            <DistanceMeters>NAN</DistanceMeters>
          </Trackpoint>
          <Trackpoint>
            <Time>2021-04-04T07:07:29.000Z</Time>
            <Position>
              <LatitudeDegrees>42.330613620579242706298828125</LatitudeDegrees>
              <LongitudeDegrees>2.446819357573986053466796875</LongitudeDegrees>
            </Position>
            <AltitudeMeters>852.5999755859375</AltitudeMeters>
            <DistanceMeters>NAN</DistanceMeters>
          </Trackpoint>
          <Trackpoint>
            <Time>2021-04-04T07:07:32.000Z</Time>
            <Position>
              <LatitudeDegrees>42.330616302788257598876953125</LatitudeDegrees>
              <LongitudeDegrees>2.44682078249752521514892578125</LongitudeDegrees>
            </Position>
            <AltitudeMeters>852.5999755859375</AltitudeMeters>
            <DistanceMeters>NAN</DistanceMeters>
          </Trackpoint>
          <Trackpoint>
            <Time>2021-04-04T07:07:44.000Z</Time>
            <Position>
              <LatitudeDegrees>42.3306248523294925689697265625</LatitudeDegrees>
              <LongitudeDegrees>2.44681960903108119964599609375</LongitudeDegrees>
            </Position>
            <AltitudeMeters>853</AltitudeMeters>
            <DistanceMeters>NAN</DistanceMeters>
          </Trackpoint>
          <Trackpoint>
            <Time>2021-04-04T07:07:47.000Z</Time>
            <Position>
              <LatitudeDegrees>42.3306258581578731536865234375</LatitudeDegrees>
              <LongitudeDegrees>2.44681575335562229156494140625</LongitudeDegrees>
            </Position>
            <AltitudeMeters>853.20001220703125</AltitudeMeters>
            <DistanceMeters>NAN</DistanceMeters>
          </Trackpoint>
          <Trackpoint>
            <Time>2021-04-04T07:07:53.000Z</Time>
            <Position>
              <LatitudeDegrees>42.33065418899059295654296875</LatitudeDegrees>
              <LongitudeDegrees>2.4467038549482822418212890625</LongitudeDegrees>
            </Position>
            <AltitudeMeters>853.79998779296875</AltitudeMeters>
            <DistanceMeters>NAN</DistanceMeters>
          </Trackpoint>
          <Trackpoint>
            <Time>2021-04-04T07:07:58.000Z</Time>
            <Position>
              <LatitudeDegrees>42.33067925088107585906982421875</LatitudeDegrees>
              <LongitudeDegrees>2.446610815823078155517578125</LongitudeDegrees>
            </Position>
            <AltitudeMeters>854.20001220703125</AltitudeMeters>
            <DistanceMeters>NAN</DistanceMeters>
          </Trackpoint>
          <Trackpoint>
            <Time>2021-04-04T07:08:03.000Z</Time>
            <Position>
              <LatitudeDegrees>42.33069383539259433746337890625</LatitudeDegrees>
              <LongitudeDegrees>2.4465419165790081024169921875</LongitudeDegrees>
            </Position>
            <AltitudeMeters>854.5999755859375</AltitudeMeters>
            <DistanceMeters>NAN</DistanceMeters>
          </Trackpoint>
          <Trackpoint>
            <Time>2021-04-04T07:08:10.000Z</Time>
            <Position>
              <LatitudeDegrees>42.330695092678070068359375</LatitudeDegrees>
              <LongitudeDegrees>2.446440160274505615234375</LongitudeDegrees>
            </Position>
            <AltitudeMeters>855.20001220703125</AltitudeMeters>
            <DistanceMeters>NAN</DistanceMeters>
          </Trackpoint>
          <Trackpoint>
            <Time>2021-04-04T07:08:13.000Z</Time>
            <Position>
              <LatitudeDegrees>42.330697439610958099365234375</LatitudeDegrees>
              <LongitudeDegrees>2.446408979594707489013671875</LongitudeDegrees>
            </Position>
            <AltitudeMeters>855.4000244140625</AltitudeMeters>
            <DistanceMeters>NAN</DistanceMeters>
          </Trackpoint>
          <Trackpoint>
            <Time>2021-04-04T07:08:17.000Z</Time>
            <Position>
              <LatitudeDegrees>42.3306955955922603607177734375</LatitudeDegrees>
              <LongitudeDegrees>2.44635977782309055328369140625</LongitudeDegrees>
            </Position>
            <AltitudeMeters>856</AltitudeMeters>
            <DistanceMeters>NAN</DistanceMeters>
          </Trackpoint>
          <Trackpoint>
            <Time>2021-04-04T07:08:20.000Z</Time>
            <Position>
              <LatitudeDegrees>42.33069551177322864532470703125</LatitudeDegrees>
              <LongitudeDegrees>2.4463261663913726806640625</LongitudeDegrees>
            </Position>
            <AltitudeMeters>856.4000244140625</AltitudeMeters>
            <DistanceMeters>NAN</DistanceMeters>
          </Trackpoint>
          <Trackpoint>
            <Time>2021-04-04T07:08:21.000Z</Time>
            <Position>
              <LatitudeDegrees>42.3306952603161334991455078125</LatitudeDegrees>
              <LongitudeDegrees>2.446316443383693695068359375</LongitudeDegrees>
            </Position>
            <AltitudeMeters>856.4000244140625</AltitudeMeters>
            <DistanceMeters>NAN</DistanceMeters>
          </Trackpoint>
          <Trackpoint>
            <Time>2021-04-04T07:08:26.000Z</Time>
            <Position>
              <LatitudeDegrees>42.3306935839354991912841796875</LatitudeDegrees>
              <LongitudeDegrees>2.44624947197735309600830078125</LongitudeDegrees>
            </Position>
            <AltitudeMeters>857</AltitudeMeters>
            <DistanceMeters>NAN</DistanceMeters>
          </Trackpoint>
          <Trackpoint>
            <Time>2021-04-04T07:08:29.000Z</Time>
            <Position>
              <LatitudeDegrees>42.330692075192928314208984375</LatitudeDegrees>
              <LongitudeDegrees>2.44619540870189666748046875</LongitudeDegrees>
            </Position>
            <AltitudeMeters>857.5999755859375</AltitudeMeters>
            <DistanceMeters>NAN</DistanceMeters>
          </Trackpoint>
          <Trackpoint>
            <Time>2021-04-04T07:08:31.000Z</Time>
            <Position>
              <LatitudeDegrees>42.3306909017264842987060546875</LatitudeDegrees>
              <LongitudeDegrees>2.4461633898317813873291015625</LongitudeDegrees>
            </Position>
            <AltitudeMeters>857.79998779296875</AltitudeMeters>
            <DistanceMeters>NAN</DistanceMeters>
          </Trackpoint>
          <Trackpoint>
            <Time>2021-04-04T07:08:35.000Z</Time>
            <Position>
              <LatitudeDegrees>42.33068771660327911376953125</LatitudeDegrees>
              <LongitudeDegrees>2.44610882364213466644287109375</LongitudeDegrees>
            </Position>
            <AltitudeMeters>858.20001220703125</AltitudeMeters>
            <DistanceMeters>NAN</DistanceMeters>
          </Trackpoint>
          <Trackpoint>
            <Time>2021-04-04T07:08:38.000Z</Time>
            <Position>
              <LatitudeDegrees>42.33069014735519886016845703125</LatitudeDegrees>
              <LongitudeDegrees>2.44607797823846340179443359375</LongitudeDegrees>
            </Position>
            <AltitudeMeters>858.5999755859375</AltitudeMeters>
            <DistanceMeters>NAN</DistanceMeters>
          </Trackpoint>
          <Trackpoint>
            <Time>2021-04-04T07:08:39.000Z</Time>
            <Position>
              <LatitudeDegrees>42.33069081790745258331298828125</LatitudeDegrees>
              <LongitudeDegrees>2.44606791995465755462646484375</LongitudeDegrees>
            </Position>
            <AltitudeMeters>858.79998779296875</AltitudeMeters>
            <DistanceMeters>NAN</DistanceMeters>
          </Trackpoint>
          <Trackpoint>
            <Time>2021-04-04T07:08:44.000Z</Time>
            <Position>
              <LatitudeDegrees>42.3306945897638797760009765625</LatitudeDegrees>
              <LongitudeDegrees>2.44601628743112087249755859375</LongitudeDegrees>
            </Position>
            <AltitudeMeters>859.4000244140625</AltitudeMeters>
            <DistanceMeters>NAN</DistanceMeters>
          </Trackpoint>
          <Trackpoint>
            <Time>2021-04-04T07:08:47.000Z</Time>
            <Position>
              <LatitudeDegrees>42.33069081790745258331298828125</LatitudeDegrees>
              <LongitudeDegrees>2.44597856886684894561767578125</LongitudeDegrees>
            </Position>
            <AltitudeMeters>859.79998779296875</AltitudeMeters>
            <DistanceMeters>NAN</DistanceMeters>
          </Trackpoint>
          <Trackpoint>
            <Time>2021-04-04T07:08:49.000Z</Time>
            <Position>
              <LatitudeDegrees>42.33068662695586681365966796875</LatitudeDegrees>
              <LongitudeDegrees>2.4459525011479854583740234375</LongitudeDegrees>
            </Position>
            <AltitudeMeters>860</AltitudeMeters>
            <DistanceMeters>NAN</DistanceMeters>
          </Trackpoint>
          <Trackpoint>
            <Time>2021-04-04T07:08:54.000Z</Time>
            <Position>
              <LatitudeDegrees>42.33066516928374767303466796875</LatitudeDegrees>
              <LongitudeDegrees>2.44587890803813934326171875</LongitudeDegrees>
            </Position>
            <AltitudeMeters>860.5999755859375</AltitudeMeters>
            <DistanceMeters>NAN</DistanceMeters>
          </Trackpoint>
          <Trackpoint>
            <Time>2021-04-04T07:08:55.000Z</Time>
            <Position>
              <LatitudeDegrees>42.33066164888441562652587890625</LatitudeDegrees>
              <LongitudeDegrees>2.44586524553596973419189453125</LongitudeDegrees>
            </Position>
            <AltitudeMeters>860.79998779296875</AltitudeMeters>
            <DistanceMeters>NAN</DistanceMeters>
          </Trackpoint>
          <Trackpoint>
            <Time>2021-04-04T07:08:59.000Z</Time>
            <Position>
              <LatitudeDegrees>42.33064949512481689453125</LatitudeDegrees>
              <LongitudeDegrees>2.4458187259733676910400390625</LongitudeDegrees>
            </Position>
            <AltitudeMeters>861.20001220703125</AltitudeMeters>
            <DistanceMeters>NAN</DistanceMeters>
          </Trackpoint>
          <Trackpoint>
            <Time>2021-04-04T07:09:02.000Z</Time>
            <Position>
              <LatitudeDegrees>42.3306406103074550628662109375</LatitudeDegrees>
              <LongitudeDegrees>2.44578544981777667999267578125</LongitudeDegrees>
            </Position>
            <AltitudeMeters>861.79998779296875</AltitudeMeters>
            <DistanceMeters>NAN</DistanceMeters>
          </Trackpoint>
          <Trackpoint>
            <Time>2021-04-04T07:09:03.000Z</Time>
            <Position>
              <LatitudeDegrees>42.3306372575461864471435546875</LatitudeDegrees>
              <LongitudeDegrees>2.44577522389590740203857421875</LongitudeDegrees>
            </Position>
            <AltitudeMeters>861.79998779296875</AltitudeMeters>
            <DistanceMeters>NAN</DistanceMeters>
          </Trackpoint>
          <Trackpoint>
            <Time>2021-04-04T07:09:09.000Z</Time>
            <Position>
              <LatitudeDegrees>42.3306171409785747528076171875</LatitudeDegrees>
              <LongitudeDegrees>2.44570255279541015625</LongitudeDegrees>
            </Position>
            <AltitudeMeters>862.5999755859375</AltitudeMeters>
            <DistanceMeters>NAN</DistanceMeters>
          </Trackpoint>
          <Trackpoint>
            <Time>2021-04-04T07:09:11.000Z</Time>
            <Position>
              <LatitudeDegrees>42.3306106030941009521484375</LatitudeDegrees>
              <LongitudeDegrees>2.44567380286753177642822265625</LongitudeDegrees>
            </Position>
            <AltitudeMeters>862.79998779296875</AltitudeMeters>
            <DistanceMeters>NAN</DistanceMeters>
          </Trackpoint>
          <Trackpoint>
            <Time>2021-04-04T07:09:12.000Z</Time>
            <Position>
              <LatitudeDegrees>42.330609261989593505859375</LatitudeDegrees>
              <LongitudeDegrees>2.4456609785556793212890625</LongitudeDegrees>
            </Position>
            <AltitudeMeters>863</AltitudeMeters>
            <DistanceMeters>NAN</DistanceMeters>
          </Trackpoint>
          <Trackpoint>
            <Time>2021-04-04T07:09:19.000Z</Time>
            <Position>
              <LatitudeDegrees>42.33062359504401683807373046875</LatitudeDegrees>
              <LongitudeDegrees>2.4455937556922435760498046875</LongitudeDegrees>
            </Position>
            <AltitudeMeters>863.79998779296875</AltitudeMeters>
            <DistanceMeters>NAN</DistanceMeters>
          </Trackpoint>
          <Trackpoint>
            <Time>2021-04-04T07:09:20.000Z</Time>
            <Position>
              <LatitudeDegrees>42.3306302167475223541259765625</LatitudeDegrees>
              <LongitudeDegrees>2.4455890618264675140380859375</LongitudeDegrees>
            </Position>
            <AltitudeMeters>864</AltitudeMeters>
            <DistanceMeters>NAN</DistanceMeters>
          </Trackpoint>
          <Trackpoint>
            <Time>2021-04-04T07:09:24.000Z</Time>
            <Position>
              <LatitudeDegrees>42.33066818676888942718505859375</LatitudeDegrees>
              <LongitudeDegrees>2.44558981619775295257568359375</LongitudeDegrees>
            </Position>
            <AltitudeMeters>864.5999755859375</AltitudeMeters>
            <DistanceMeters>NAN</DistanceMeters>
          </Trackpoint>
          <Trackpoint>
            <Time>2021-04-04T07:09:27.000Z</Time>
            <Position>
              <LatitudeDegrees>42.3307039774954319000244140625</LatitudeDegrees>
              <LongitudeDegrees>2.4455974437296390533447265625</LongitudeDegrees>
            </Position>
            <AltitudeMeters>864.79998779296875</AltitudeMeters>
            <DistanceMeters>NAN</DistanceMeters>
          </Trackpoint>
          <Trackpoint>
            <Time>2021-04-04T07:09:33.000Z</Time>
            <Position>
              <LatitudeDegrees>42.33076306991279125213623046875</LatitudeDegrees>
              <LongitudeDegrees>2.44561395607888698577880859375</LongitudeDegrees>
            </Position>
            <AltitudeMeters>864.79998779296875</AltitudeMeters>
            <DistanceMeters>NAN</DistanceMeters>
          </Trackpoint>
          <Trackpoint>
            <Time>2021-04-04T07:09:35.000Z</Time>
            <Position>
              <LatitudeDegrees>42.33077798970043659210205078125</LatitudeDegrees>
              <LongitudeDegrees>2.4456018023192882537841796875</LongitudeDegrees>
            </Position>
            <AltitudeMeters>864.79998779296875</AltitudeMeters>
            <DistanceMeters>NAN</DistanceMeters>
          </Trackpoint>
          <Trackpoint>
            <Time>2021-04-04T07:09:37.000Z</Time>
            <Position>
              <LatitudeDegrees>42.330798693001270294189453125</LatitudeDegrees>
              <LongitudeDegrees>2.44559937156736850738525390625</LongitudeDegrees>
            </Position>
            <AltitudeMeters>864.79998779296875</AltitudeMeters>
            <DistanceMeters>NAN</DistanceMeters>
          </Trackpoint>
          <Trackpoint>
            <Time>2021-04-04T07:09:42.000Z</Time>
            <Position>
              <LatitudeDegrees>42.3308439552783966064453125</LatitudeDegrees>
              <LongitudeDegrees>2.44561496190726757049560546875</LongitudeDegrees>
            </Position>
            <AltitudeMeters>865</AltitudeMeters>
            <DistanceMeters>NAN</DistanceMeters>
          </Trackpoint>
          <Trackpoint>
            <Time>2021-04-04T07:09:45.000Z</Time>
            <Position>
              <LatitudeDegrees>42.33087169937789440155029296875</LatitudeDegrees>
              <LongitudeDegrees>2.44561471045017242431640625</LongitudeDegrees>
            </Position>
            <AltitudeMeters>865.20001220703125</AltitudeMeters>
            <DistanceMeters>NAN</DistanceMeters>
          </Trackpoint>
          <Trackpoint>
            <Time>2021-04-04T07:09:49.000Z</Time>
            <Position>
              <LatitudeDegrees>42.33090891502797603607177734375</LatitudeDegrees>
              <LongitudeDegrees>2.44562384672462940216064453125</LongitudeDegrees>
            </Position>
            <AltitudeMeters>865.4000244140625</AltitudeMeters>
            <DistanceMeters>NAN</DistanceMeters>
          </Trackpoint>
          <Trackpoint>
            <Time>2021-04-04T07:09:52.000Z</Time>
            <Position>
              <LatitudeDegrees>42.33094328083097934722900390625</LatitudeDegrees>
              <LongitudeDegrees>2.44563608430325984954833984375</LongitudeDegrees>
            </Position>
            <AltitudeMeters>865.5999755859375</AltitudeMeters>
            <DistanceMeters>NAN</DistanceMeters>
          </Trackpoint>
          <Trackpoint>
            <Time>2021-04-04T07:09:55.000Z</Time>
            <Position>
              <LatitudeDegrees>42.330975718796253204345703125</LatitudeDegrees>
              <LongitudeDegrees>2.44563457556068897247314453125</LongitudeDegrees>
            </Position>
            <AltitudeMeters>865.79998779296875</AltitudeMeters>
            <DistanceMeters>NAN</DistanceMeters>
          </Trackpoint>
          <Trackpoint>
            <Time>2021-04-04T07:09:58.000Z</Time>
            <Position>
              <LatitudeDegrees>42.33099089004099369049072265625</LatitudeDegrees>
              <LongitudeDegrees>2.44562284089624881744384765625</LongitudeDegrees>
            </Position>
            <AltitudeMeters>866</AltitudeMeters>
            <DistanceMeters>NAN</DistanceMeters>
          </Trackpoint>
          <Trackpoint>
            <Time>2021-04-04T07:10:05.000Z</Time>
            <Position>
              <LatitudeDegrees>42.33104822225868701934814453125</LatitudeDegrees>
              <LongitudeDegrees>2.44562485255300998687744140625</LongitudeDegrees>
            </Position>
            <AltitudeMeters>866.20001220703125</AltitudeMeters>
            <DistanceMeters>NAN</DistanceMeters>
          </Trackpoint>
          <Trackpoint>
            <Time>2021-04-04T07:10:16.000Z</Time>
            <Position>
              <LatitudeDegrees>42.33115785755217075347900390625</LatitudeDegrees>
              <LongitudeDegrees>2.44565636850893497467041015625</LongitudeDegrees>
            </Position>
            <AltitudeMeters>867</AltitudeMeters>
            <DistanceMeters>NAN</DistanceMeters>
          </Trackpoint>
          <Trackpoint>
            <Time>2021-04-04T07:10:17.000Z</Time>
            <Position>
              <LatitudeDegrees>42.33116623945534229278564453125</LatitudeDegrees>
              <LongitudeDegrees>2.4456628225743770599365234375</LongitudeDegrees>
            </Position>
            <AltitudeMeters>867</AltitudeMeters>
            <DistanceMeters>NAN</DistanceMeters>
          </Trackpoint>
          <Trackpoint>
            <Time>2021-04-04T07:10:27.000Z</Time>
            <Position>
              <LatitudeDegrees>42.33127218671143054962158203125</LatitudeDegrees>
              <LongitudeDegrees>2.44571118615567684173583984375</LongitudeDegrees>
            </Position>
            <AltitudeMeters>868</AltitudeMeters>
            <DistanceMeters>NAN</DistanceMeters>
          </Trackpoint>
          <Trackpoint>
            <Time>2021-04-04T07:10:34.000Z</Time>
            <Position>
              <LatitudeDegrees>42.3313401639461517333984375</LatitudeDegrees>
              <LongitudeDegrees>2.44574538432061672210693359375</LongitudeDegrees>
            </Position>
            <AltitudeMeters>868.5999755859375</AltitudeMeters>
            <DistanceMeters>NAN</DistanceMeters>
          </Trackpoint>
          <Trackpoint>
            <Time>2021-04-04T07:10:36.000Z</Time>
            <Position>
              <LatitudeDegrees>42.3313557542860507965087890625</LatitudeDegrees>
              <LongitudeDegrees>2.4457560293376445770263671875</LongitudeDegrees>
            </Position>
            <AltitudeMeters>868.79998779296875</AltitudeMeters>
            <DistanceMeters>NAN</DistanceMeters>
          </Trackpoint>
          <Trackpoint>
            <Time>2021-04-04T07:10:38.000Z</Time>
            <Position>
              <LatitudeDegrees>42.3313748650252819061279296875</LatitudeDegrees>
              <LongitudeDegrees>2.44576332159340381622314453125</LongitudeDegrees>
            </Position>
            <AltitudeMeters>869</AltitudeMeters>
            <DistanceMeters>NAN</DistanceMeters>
          </Trackpoint>
          <Trackpoint>
            <Time>2021-04-04T07:10:39.000Z</Time>
            <Position>
              <LatitudeDegrees>42.33138785697519779205322265625</LatitudeDegrees>
              <LongitudeDegrees>2.445768602192401885986328125</LongitudeDegrees>
            </Position>
            <AltitudeMeters>869</AltitudeMeters>
            <DistanceMeters>NAN</DistanceMeters>
          </Trackpoint>
          <Trackpoint>
            <Time>2021-04-04T07:10:41.000Z</Time>
            <Position>
              <LatitudeDegrees>42.3314080573618412017822265625</LatitudeDegrees>
              <LongitudeDegrees>2.44578125886619091033935546875</LongitudeDegrees>
            </Position>
            <AltitudeMeters>869.20001220703125</AltitudeMeters>
            <DistanceMeters>NAN</DistanceMeters>
          </Trackpoint>
          <Trackpoint>
            <Time>2021-04-04T07:10:44.000Z</Time>
            <Position>
              <LatitudeDegrees>42.331433705985546112060546875</LatitudeDegrees>
              <LongitudeDegrees>2.44580087251961231231689453125</LongitudeDegrees>
            </Position>
            <AltitudeMeters>869.5999755859375</AltitudeMeters>
            <DistanceMeters>NAN</DistanceMeters>
          </Trackpoint>
          <Trackpoint>
            <Time>2021-04-04T07:10:49.000Z</Time>
            <Position>
              <LatitudeDegrees>42.331477291882038116455078125</LatitudeDegrees>
              <LongitudeDegrees>2.44581344537436962127685546875</LongitudeDegrees>
            </Position>
            <AltitudeMeters>870.20001220703125</AltitudeMeters>
            <DistanceMeters>NAN</DistanceMeters>
          </Trackpoint>
          <Trackpoint>
            <Time>2021-04-04T07:10:54.000Z</Time>
            <Position>
              <LatitudeDegrees>42.33151509426534175872802734375</LatitudeDegrees>
              <LongitudeDegrees>2.44581663049757480621337890625</LongitudeDegrees>
            </Position>
            <AltitudeMeters>870.79998779296875</AltitudeMeters>
            <DistanceMeters>NAN</DistanceMeters>
          </Trackpoint>
          <Trackpoint>
            <Time>2021-04-04T07:10:58.000Z</Time>
            <Position>
              <LatitudeDegrees>42.331543676555156707763671875</LatitudeDegrees>
              <LongitudeDegrees>2.4458123557269573211669921875</LongitudeDegrees>
            </Position>
            <AltitudeMeters>871.20001220703125</AltitudeMeters>
            <DistanceMeters>NAN</DistanceMeters>
          </Trackpoint>
          <Trackpoint>
            <Time>2021-04-04T07:11:00.000Z</Time>
            <Position>
              <LatitudeDegrees>42.33155750669538974761962890625</LatitudeDegrees>
              <LongitudeDegrees>2.44582233019173145294189453125</LongitudeDegrees>
            </Position>
            <AltitudeMeters>871.4000244140625</AltitudeMeters>
            <DistanceMeters>NAN</DistanceMeters>
          </Trackpoint>
          <Trackpoint>
            <Time>2021-04-04T07:11:03.000Z</Time>
            <Position>
              <LatitudeDegrees>42.3315669782459735870361328125</LatitudeDegrees>
              <LongitudeDegrees>2.44580556638538837432861328125</LongitudeDegrees>
            </Position>
            <AltitudeMeters>871.5999755859375</AltitudeMeters>
            <DistanceMeters>NAN</DistanceMeters>
          </Trackpoint>
          <Trackpoint>
            <Time>2021-04-04T07:11:04.000Z</Time>
            <Position>
              <LatitudeDegrees>42.331572510302066802978515625</LatitudeDegrees>
              <LongitudeDegrees>2.44579869322478771209716796875</LongitudeDegrees>
            </Position>
            <AltitudeMeters>871.79998779296875</AltitudeMeters>
            <DistanceMeters>NAN</DistanceMeters>
          </Trackpoint>
          <Trackpoint>
            <Time>2021-04-04T07:11:10.000Z</Time>
            <Position>
              <LatitudeDegrees>42.3315642960369586944580078125</LatitudeDegrees>
              <LongitudeDegrees>2.4457623995840549468994140625</LongitudeDegrees>
            </Position>
            <AltitudeMeters>872.20001220703125</AltitudeMeters>
            <DistanceMeters>NAN</DistanceMeters>
          </Trackpoint>
          <Trackpoint>
            <Time>2021-04-04T07:11:11.000Z</Time>
            <Position>
              <LatitudeDegrees>42.3315592668950557708740234375</LatitudeDegrees>
              <LongitudeDegrees>2.4457603879272937774658203125</LongitudeDegrees>
            </Position>
            <AltitudeMeters>872.4000244140625</AltitudeMeters>
            <DistanceMeters>NAN</DistanceMeters>
          </Trackpoint>
          <Trackpoint>
            <Time>2021-04-04T07:11:18.000Z</Time>
            <Position>
              <LatitudeDegrees>42.33153621666133403778076171875</LatitudeDegrees>
              <LongitudeDegrees>2.4457121081650257110595703125</LongitudeDegrees>
            </Position>
            <AltitudeMeters>872.79998779296875</AltitudeMeters>
            <DistanceMeters>NAN</DistanceMeters>
          </Trackpoint>
          <Trackpoint>
            <Time>2021-04-04T07:11:22.000Z</Time>
            <Position>
              <LatitudeDegrees>42.33151224441826343536376953125</LatitudeDegrees>
              <LongitudeDegrees>2.4456936679780483245849609375</LongitudeDegrees>
            </Position>
            <AltitudeMeters>873.4000244140625</AltitudeMeters>
            <DistanceMeters>NAN</DistanceMeters>
          </Trackpoint>
          <Trackpoint>
            <Time>2021-04-04T07:11:28.000Z</Time>
            <Position>
              <LatitudeDegrees>42.33148969709873199462890625</LatitudeDegrees>
              <LongitudeDegrees>2.44569039903581142425537109375</LongitudeDegrees>
            </Position>
            <AltitudeMeters>873.5999755859375</AltitudeMeters>
            <DistanceMeters>NAN</DistanceMeters>
          </Trackpoint>
          <Trackpoint>
            <Time>2021-04-04T07:11:36.000Z</Time>
            <Position>
              <LatitudeDegrees>42.33144099824130535125732421875</LatitudeDegrees>
              <LongitudeDegrees>2.44564429856836795806884765625</LongitudeDegrees>
            </Position>
            <AltitudeMeters>874.4000244140625</AltitudeMeters>
            <DistanceMeters>NAN</DistanceMeters>
          </Trackpoint>
          <Trackpoint>
            <Time>2021-04-04T07:11:38.000Z</Time>
            <Position>
              <LatitudeDegrees>42.3314328677952289581298828125</LatitudeDegrees>
              <LongitudeDegrees>2.4456205777823925018310546875</LongitudeDegrees>
            </Position>
            <AltitudeMeters>874.4000244140625</AltitudeMeters>
            <DistanceMeters>NAN</DistanceMeters>
          </Trackpoint>
          <Trackpoint>
            <Time>2021-04-04T07:11:41.000Z</Time>
            <Position>
              <LatitudeDegrees>42.3314184509217739105224609375</LatitudeDegrees>
              <LongitudeDegrees>2.4455696158111095428466796875</LongitudeDegrees>
            </Position>
            <AltitudeMeters>874.79998779296875</AltitudeMeters>
            <DistanceMeters>NAN</DistanceMeters>
          </Trackpoint>
          <Trackpoint>
            <Time>2021-04-04T07:11:44.000Z</Time>
            <Position>
              <LatitudeDegrees>42.3314137570559978485107421875</LatitudeDegrees>
              <LongitudeDegrees>2.44553114287555217742919921875</LongitudeDegrees>
            </Position>
            <AltitudeMeters>875</AltitudeMeters>
            <DistanceMeters>NAN</DistanceMeters>
          </Trackpoint>
          <Trackpoint>
            <Time>2021-04-04T07:11:46.000Z</Time>
            <Position>
              <LatitudeDegrees>42.3314026929438114166259765625</LatitudeDegrees>
              <LongitudeDegrees>2.44549962691962718963623046875</LongitudeDegrees>
            </Position>
            <AltitudeMeters>875</AltitudeMeters>
            <DistanceMeters>NAN</DistanceMeters>
          </Trackpoint>
          <Trackpoint>
            <Time>2021-04-04T07:11:48.000Z</Time>
            <Position>
              <LatitudeDegrees>42.3313899524509906768798828125</LatitudeDegrees>
              <LongitudeDegrees>2.445484288036823272705078125</LongitudeDegrees>
            </Position>
            <AltitudeMeters>875.20001220703125</AltitudeMeters>
            <DistanceMeters>NAN</DistanceMeters>
          </Trackpoint>
          <Trackpoint>
            <Time>2021-04-04T07:11:49.000Z</Time>
            <Position>
              <LatitudeDegrees>42.33138333074748516082763671875</LatitudeDegrees>
              <LongitudeDegrees>2.44547766633331775665283203125</LongitudeDegrees>
            </Position>
            <AltitudeMeters>875.4000244140625</AltitudeMeters>
            <DistanceMeters>NAN</DistanceMeters>
          </Trackpoint>
          <Trackpoint>
            <Time>2021-04-04T07:11:54.000Z</Time>
            <Position>
              <LatitudeDegrees>42.33135717920958995819091796875</LatitudeDegrees>
              <LongitudeDegrees>2.44543693028390407562255859375</LongitudeDegrees>
            </Position>
            <AltitudeMeters>875.5999755859375</AltitudeMeters>
            <DistanceMeters>NAN</DistanceMeters>
          </Trackpoint>
          <Trackpoint>
            <Time>2021-04-04T07:12:02.000Z</Time>
            <Position>
              <LatitudeDegrees>42.33131937682628631591796875</LatitudeDegrees>
              <LongitudeDegrees>2.44535923004150390625</LongitudeDegrees>
            </Position>
            <AltitudeMeters>876.5999755859375</AltitudeMeters>
            <DistanceMeters>NAN</DistanceMeters>
          </Trackpoint>
          <Trackpoint>
            <Time>2021-04-04T07:12:09.000Z</Time>
            <Position>
              <LatitudeDegrees>42.3312977515161037445068359375</LatitudeDegrees>
              <LongitudeDegrees>2.445330731570720672607421875</LongitudeDegrees>
            </Position>
            <AltitudeMeters>877</AltitudeMeters>
            <DistanceMeters>NAN</DistanceMeters>
          </Trackpoint>
          <Trackpoint>
            <Time>2021-04-04T07:12:17.000Z</Time>
            <Position>
              <LatitudeDegrees>42.33127570711076259613037109375</LatitudeDegrees>
              <LongitudeDegrees>2.4453766644001007080078125</LongitudeDegrees>
            </Position>
            <AltitudeMeters>876.5999755859375</AltitudeMeters>
            <DistanceMeters>NAN</DistanceMeters>
          </Trackpoint>
          <Trackpoint>
            <Time>2021-04-04T07:12:23.000Z</Time>
            <Position>
              <LatitudeDegrees>42.33126967214047908782958984375</LatitudeDegrees>
              <LongitudeDegrees>2.44539921171963214874267578125</LongitudeDegrees>
            </Position>
            <AltitudeMeters>876.20001220703125</AltitudeMeters>
            <DistanceMeters>NAN</DistanceMeters>
          </Trackpoint>
          <Trackpoint>
            <Time>2021-04-04T07:12:24.000Z</Time>
            <Position>
              <LatitudeDegrees>42.33127235434949398040771484375</LatitudeDegrees>
              <LongitudeDegrees>2.445399463176727294921875</LongitudeDegrees>
            </Position>
            <AltitudeMeters>876.20001220703125</AltitudeMeters>
            <DistanceMeters>NAN</DistanceMeters>
          </Trackpoint>
          <Trackpoint>
            <Time>2021-04-04T07:12:29.000Z</Time>
            <Position>
              <LatitudeDegrees>42.33128559775650501251220703125</LatitudeDegrees>
              <LongitudeDegrees>2.44536082260310649871826171875</LongitudeDegrees>
            </Position>
            <AltitudeMeters>876</AltitudeMeters>
            <DistanceMeters>NAN</DistanceMeters>
          </Trackpoint>
          <Trackpoint>
            <Time>2021-04-04T07:12:30.000Z</Time>
            <Position>
              <LatitudeDegrees>42.331287525594234466552734375</LatitudeDegrees>
              <LongitudeDegrees>2.445359565317630767822265625</LongitudeDegrees>
            </Position>
            <AltitudeMeters>876</AltitudeMeters>
            <DistanceMeters>NAN</DistanceMeters>
          </Trackpoint>
          <Trackpoint>
            <Time>2021-04-04T07:12:38.000Z</Time>
            <Position>
              <LatitudeDegrees>42.33130973763763904571533203125</LatitudeDegrees>
              <LongitudeDegrees>2.44531807489693164825439453125</LongitudeDegrees>
            </Position>
            <AltitudeMeters>877.20001220703125</AltitudeMeters>
            <DistanceMeters>NAN</DistanceMeters>
          </Trackpoint>
          <Trackpoint>
            <Time>2021-04-04T07:12:40.000Z</Time>
            <Position>
              <LatitudeDegrees>42.3312977515161037445068359375</LatitudeDegrees>
              <LongitudeDegrees>2.4453054182231426239013671875</LongitudeDegrees>
            </Position>
            <AltitudeMeters>877.20001220703125</AltitudeMeters>
            <DistanceMeters>NAN</DistanceMeters>
          </Trackpoint>
          <Trackpoint>
            <Time>2021-04-04T07:12:43.000Z</Time>
            <Position>
              <LatitudeDegrees>42.331291548907756805419921875</LatitudeDegrees>
              <LongitudeDegrees>2.4452775903046131134033203125</LongitudeDegrees>
            </Position>
            <AltitudeMeters>877.4000244140625</AltitudeMeters>
            <DistanceMeters>NAN</DistanceMeters>
          </Trackpoint>
          <Trackpoint>
            <Time>2021-04-04T07:12:45.000Z</Time>
            <Position>
              <LatitudeDegrees>42.33128543011844158172607421875</LatitudeDegrees>
              <LongitudeDegrees>2.44525889866054058074951171875</LongitudeDegrees>
            </Position>
            <AltitudeMeters>877.4000244140625</AltitudeMeters>
            <DistanceMeters>NAN</DistanceMeters>
          </Trackpoint>
          <Trackpoint>
            <Time>2021-04-04T07:12:46.000Z</Time>
            <Position>
              <LatitudeDegrees>42.33128073625266551971435546875</LatitudeDegrees>
              <LongitudeDegrees>2.44525353424251079559326171875</LongitudeDegrees>
            </Position>
            <AltitudeMeters>877.5999755859375</AltitudeMeters>
            <DistanceMeters>NAN</DistanceMeters>
          </Trackpoint>
          <Trackpoint>
            <Time>2021-04-04T07:12:52.000Z</Time>
            <Position>
              <LatitudeDegrees>42.3312534950673580169677734375</LatitudeDegrees>
              <LongitudeDegrees>2.4451977945864200592041015625</LongitudeDegrees>
            </Position>
            <AltitudeMeters>878</AltitudeMeters>
            <DistanceMeters>NAN</DistanceMeters>
          </Trackpoint>
          <Trackpoint>
            <Time>2021-04-04T07:12:58.000Z</Time>
            <Position>
              <LatitudeDegrees>42.33123580925166606903076171875</LatitudeDegrees>
              <LongitudeDegrees>2.4451379477977752685546875</LongitudeDegrees>
            </Position>
            <AltitudeMeters>878.5999755859375</AltitudeMeters>
            <DistanceMeters>NAN</DistanceMeters>
          </Trackpoint>
          <Trackpoint>
            <Time>2021-04-04T07:13:00.000Z</Time>
            <Position>
              <LatitudeDegrees>42.331233881413936614990234375</LatitudeDegrees>
              <LongitudeDegrees>2.44511238299310207366943359375</LongitudeDegrees>
            </Position>
            <AltitudeMeters>878.79998779296875</AltitudeMeters>
            <DistanceMeters>NAN</DistanceMeters>
          </Trackpoint>
          <Trackpoint>
            <Time>2021-04-04T07:13:01.000Z</Time>
            <Position>
              <LatitudeDegrees>42.33123849146068096160888671875</LatitudeDegrees>
              <LongitudeDegrees>2.44510106742382049560546875</LongitudeDegrees>
            </Position>
            <AltitudeMeters>879</AltitudeMeters>
            <DistanceMeters>NAN</DistanceMeters>
          </Trackpoint>
          <Trackpoint>
            <Time>2021-04-04T07:13:02.000Z</Time>
            <Position>
              <LatitudeDegrees>42.3312374018132686614990234375</LatitudeDegrees>
              <LongitudeDegrees>2.4450854770839214324951171875</LongitudeDegrees>
            </Position>
            <AltitudeMeters>879</AltitudeMeters>
            <DistanceMeters>NAN</DistanceMeters>
          </Trackpoint>
          <Trackpoint>
            <Time>2021-04-04T07:13:08.000Z</Time>
            <Position>
              <LatitudeDegrees>42.33122860081493854522705078125</LatitudeDegrees>
              <LongitudeDegrees>2.4450092017650604248046875</LongitudeDegrees>
            </Position>
            <AltitudeMeters>879.5999755859375</AltitudeMeters>
            <DistanceMeters>NAN</DistanceMeters>
          </Trackpoint>
          <Trackpoint>
            <Time>2021-04-04T07:13:11.000Z</Time>
            <Position>
              <LatitudeDegrees>42.33122273348271846771240234375</LatitudeDegrees>
              <LongitudeDegrees>2.44497123174369335174560546875</LongitudeDegrees>
            </Position>
            <AltitudeMeters>880</AltitudeMeters>
            <DistanceMeters>NAN</DistanceMeters>
          </Trackpoint>
          <Trackpoint>
            <Time>2021-04-04T07:13:15.000Z</Time>
            <Position>
              <LatitudeDegrees>42.33122021891176700592041015625</LatitudeDegrees>
              <LongitudeDegrees>2.44492513127624988555908203125</LongitudeDegrees>
            </Position>
            <AltitudeMeters>880.4000244140625</AltitudeMeters>
            <DistanceMeters>NAN</DistanceMeters>
          </Trackpoint>
          <Trackpoint>
            <Time>2021-04-04T07:13:18.000Z</Time>
            <Position>
              <LatitudeDegrees>42.33122424222528934478759765625</LatitudeDegrees>
              <LongitudeDegrees>2.444895543158054351806640625</LongitudeDegrees>
            </Position>
            <AltitudeMeters>880.5999755859375</AltitudeMeters>
            <DistanceMeters>NAN</DistanceMeters>
          </Trackpoint>
          <Trackpoint>
            <Time>2021-04-04T07:13:20.000Z</Time>
            <Position>
              <LatitudeDegrees>42.33122290112078189849853515625</LatitudeDegrees>
              <LongitudeDegrees>2.4448742531239986419677734375</LongitudeDegrees>
            </Position>
            <AltitudeMeters>881</AltitudeMeters>
            <DistanceMeters>NAN</DistanceMeters>
          </Trackpoint>
          <Trackpoint>
            <Time>2021-04-04T07:13:23.000Z</Time>
            <Position>
              <LatitudeDegrees>42.33128987252712249755859375</LatitudeDegrees>
              <LongitudeDegrees>2.44485740549862384796142578125</LongitudeDegrees>
            </Position>
            <AltitudeMeters>881.20001220703125</AltitudeMeters>
            <DistanceMeters>NAN</DistanceMeters>
          </Trackpoint>
          <Trackpoint>
            <Time>2021-04-04T07:13:26.000Z</Time>
            <Position>
              <LatitudeDegrees>42.3313359729945659637451171875</LatitudeDegrees>
              <LongitudeDegrees>2.444837205111980438232421875</LongitudeDegrees>
            </Position>
            <AltitudeMeters>881.4000244140625</AltitudeMeters>
            <DistanceMeters>NAN</DistanceMeters>
          </Trackpoint>
          <Trackpoint>
            <Time>2021-04-04T07:13:28.000Z</Time>
            <Position>
              <LatitudeDegrees>42.33133421279489994049072265625</LatitudeDegrees>
              <LongitudeDegrees>2.44481767527759075164794921875</LongitudeDegrees>
            </Position>
            <AltitudeMeters>881.79998779296875</AltitudeMeters>
            <DistanceMeters>NAN</DistanceMeters>
          </Trackpoint>
          <Trackpoint>
            <Time>2021-04-04T07:13:32.000Z</Time>
            <Position>
              <LatitudeDegrees>42.331337146461009979248046875</LatitudeDegrees>
              <LongitudeDegrees>2.4447629414498805999755859375</LongitudeDegrees>
            </Position>
            <AltitudeMeters>882.20001220703125</AltitudeMeters>
            <DistanceMeters>NAN</DistanceMeters>
          </Trackpoint>
          <Trackpoint>
            <Time>2021-04-04T07:13:34.000Z</Time>
            <Position>
              <LatitudeDegrees>42.33133253641426563262939453125</LatitudeDegrees>
              <LongitudeDegrees>2.4447401426732540130615234375</LongitudeDegrees>
            </Position>
            <AltitudeMeters>882.4000244140625</AltitudeMeters>
            <DistanceMeters>NAN</DistanceMeters>
          </Trackpoint>
          <Trackpoint>
            <Time>2021-04-04T07:13:36.000Z</Time>
            <Position>
              <LatitudeDegrees>42.3313306085765361785888671875</LatitudeDegrees>
              <LongitudeDegrees>2.44471608661115169525146484375</LongitudeDegrees>
            </Position>
            <AltitudeMeters>882.5999755859375</AltitudeMeters>
            <DistanceMeters>NAN</DistanceMeters>
          </Trackpoint>
          <Trackpoint>
            <Time>2021-04-04T07:13:37.000Z</Time>
            <Position>
              <LatitudeDegrees>42.3313282616436481475830078125</LatitudeDegrees>
              <LongitudeDegrees>2.4447035975754261016845703125</LongitudeDegrees>
            </Position>
            <AltitudeMeters>882.79998779296875</AltitudeMeters>
            <DistanceMeters>NAN</DistanceMeters>
          </Trackpoint>
          <Trackpoint>
            <Time>2021-04-04T07:13:39.000Z</Time>
            <Position>
              <LatitudeDegrees>42.331329770386219024658203125</LatitudeDegrees>
              <LongitudeDegrees>2.44468490593135356903076171875</LongitudeDegrees>
            </Position>
            <AltitudeMeters>883</AltitudeMeters>
            <DistanceMeters>NAN</DistanceMeters>
          </Trackpoint>
          <Trackpoint>
            <Time>2021-04-04T07:13:41.000Z</Time>
            <Position>
              <LatitudeDegrees>42.331339828670024871826171875</LatitudeDegrees>
              <LongitudeDegrees>2.44466478936374187469482421875</LongitudeDegrees>
            </Position>
            <AltitudeMeters>883.20001220703125</AltitudeMeters>
            <DistanceMeters>NAN</DistanceMeters>
          </Trackpoint>
          <Trackpoint>
            <Time>2021-04-04T07:13:42.000Z</Time>
            <Position>
              <LatitudeDegrees>42.33134276233613491058349609375</LatitudeDegrees>
              <LongitudeDegrees>2.44465255178511142730712890625</LongitudeDegrees>
            </Position>
            <AltitudeMeters>883.20001220703125</AltitudeMeters>
            <DistanceMeters>NAN</DistanceMeters>
          </Trackpoint>
          <Trackpoint>
            <Time>2021-04-04T07:13:44.000Z</Time>
            <Position>
              <LatitudeDegrees>42.3313453607261180877685546875</LatitudeDegrees>
              <LongitudeDegrees>2.4446358717978000640869140625</LongitudeDegrees>
            </Position>
            <AltitudeMeters>883.4000244140625</AltitudeMeters>
            <DistanceMeters>NAN</DistanceMeters>
          </Trackpoint>
          <Trackpoint>
            <Time>2021-04-04T07:13:47.000Z</Time>
            <Position>
              <LatitudeDegrees>42.3313530720770359039306640625</LatitudeDegrees>
              <LongitudeDegrees>2.44460544548928737640380859375</LongitudeDegrees>
            </Position>
            <AltitudeMeters>883.5999755859375</AltitudeMeters>
            <DistanceMeters>NAN</DistanceMeters>
          </Trackpoint>
          <Trackpoint>
            <Time>2021-04-04T07:13:50.000Z</Time>
            <Position>
              <LatitudeDegrees>42.3313483782112598419189453125</LatitudeDegrees>
              <LongitudeDegrees>2.4445800483226776123046875</LongitudeDegrees>
            </Position>
            <AltitudeMeters>883.79998779296875</AltitudeMeters>
            <DistanceMeters>NAN</DistanceMeters>
          </Trackpoint>
          <Trackpoint>
            <Time>2021-04-04T07:13:56.000Z</Time>
            <Position>
              <LatitudeDegrees>42.33137930743396282196044921875</LatitudeDegrees>
              <LongitudeDegrees>2.44451927952468395233154296875</LongitudeDegrees>
            </Position>
            <AltitudeMeters>884.4000244140625</AltitudeMeters>
            <DistanceMeters>NAN</DistanceMeters>
          </Trackpoint>
          <Trackpoint>
            <Time>2021-04-04T07:14:01.000Z</Time>
            <Position>
              <LatitudeDegrees>42.33139506541192531585693359375</LatitudeDegrees>
              <LongitudeDegrees>2.44447938166558742523193359375</LongitudeDegrees>
            </Position>
            <AltitudeMeters>884.79998779296875</AltitudeMeters>
            <DistanceMeters>NAN</DistanceMeters>
          </Trackpoint>
          <Trackpoint>
            <Time>2021-04-04T07:14:02.000Z</Time>
            <Position>
              <LatitudeDegrees>42.3314047046005725860595703125</LatitudeDegrees>
              <LongitudeDegrees>2.44448013603687286376953125</LongitudeDegrees>
            </Position>
            <AltitudeMeters>884.79998779296875</AltitudeMeters>
            <DistanceMeters>NAN</DistanceMeters>
          </Trackpoint>
          <Trackpoint>
            <Time>2021-04-04T07:14:04.000Z</Time>
            <Position>
              <LatitudeDegrees>42.3314057104289531707763671875</LatitudeDegrees>
              <LongitudeDegrees>2.4444635398685932159423828125</LongitudeDegrees>
            </Position>
            <AltitudeMeters>885</AltitudeMeters>
            <DistanceMeters>NAN</DistanceMeters>
          </Trackpoint>
          <Trackpoint>
            <Time>2021-04-04T07:14:10.000Z</Time>
            <Position>
              <LatitudeDegrees>42.33144267462193965911865234375</LatitudeDegrees>
              <LongitudeDegrees>2.44442523457109928131103515625</LongitudeDegrees>
            </Position>
            <AltitudeMeters>885.5999755859375</AltitudeMeters>
            <DistanceMeters>NAN</DistanceMeters>
          </Trackpoint>
          <Trackpoint>
            <Time>2021-04-04T07:14:14.000Z</Time>
            <Position>
              <LatitudeDegrees>42.3314608633518218994140625</LatitudeDegrees>
              <LongitudeDegrees>2.44439740665256977081298828125</LongitudeDegrees>
            </Position>
            <AltitudeMeters>885.79998779296875</AltitudeMeters>
            <DistanceMeters>NAN</DistanceMeters>
          </Trackpoint>
          <Trackpoint>
            <Time>2021-04-04T07:14:15.000Z</Time>
            <Position>
              <LatitudeDegrees>42.331461869180202484130859375</LatitudeDegrees>
              <LongitudeDegrees>2.44438969530165195465087890625</LongitudeDegrees>
            </Position>
            <AltitudeMeters>886</AltitudeMeters>
            <DistanceMeters>NAN</DistanceMeters>
          </Trackpoint>
          <Trackpoint>
            <Time>2021-04-04T07:14:18.000Z</Time>
            <Position>
              <LatitudeDegrees>42.33147771097719669342041015625</LatitudeDegrees>
              <LongitudeDegrees>2.444375865161418914794921875</LongitudeDegrees>
            </Position>
            <AltitudeMeters>886</AltitudeMeters>
            <DistanceMeters>NAN</DistanceMeters>
          </Trackpoint>
          <Trackpoint>
            <Time>2021-04-04T07:14:23.000Z</Time>
            <Position>
              <LatitudeDegrees>42.33149967156350612640380859375</LatitudeDegrees>
              <LongitudeDegrees>2.4443461932241916656494140625</LongitudeDegrees>
            </Position>
            <AltitudeMeters>886.4000244140625</AltitudeMeters>
            <DistanceMeters>NAN</DistanceMeters>
          </Trackpoint>
          <Trackpoint>
            <Time>2021-04-04T07:14:27.000Z</Time>
            <Position>
              <LatitudeDegrees>42.331520207226276397705078125</LatitudeDegrees>
              <LongitudeDegrees>2.4443076364696025848388671875</LongitudeDegrees>
            </Position>
            <AltitudeMeters>886.79998779296875</AltitudeMeters>
            <DistanceMeters>NAN</DistanceMeters>
          </Trackpoint>
          <Trackpoint>
            <Time>2021-04-04T07:14:28.000Z</Time>
            <Position>
              <LatitudeDegrees>42.3315277509391307830810546875</LatitudeDegrees>
              <LongitudeDegrees>2.444300763309001922607421875</LongitudeDegrees>
            </Position>
            <AltitudeMeters>886.79998779296875</AltitudeMeters>
            <DistanceMeters>NAN</DistanceMeters>
          </Trackpoint>
          <Trackpoint>
            <Time>2021-04-04T07:14:34.000Z</Time>
            <Position>
              <LatitudeDegrees>42.331563122570514678955078125</LatitudeDegrees>
              <LongitudeDegrees>2.44426555931568145751953125</LongitudeDegrees>
            </Position>
            <AltitudeMeters>887.4000244140625</AltitudeMeters>
            <DistanceMeters>NAN</DistanceMeters>
          </Trackpoint>
          <Trackpoint>
            <Time>2021-04-04T07:14:39.000Z</Time>
            <Position>
              <LatitudeDegrees>42.33158634044229984283447265625</LatitudeDegrees>
              <LongitudeDegrees>2.44422004558145999908447265625</LongitudeDegrees>
            </Position>
            <AltitudeMeters>888</AltitudeMeters>
            <DistanceMeters>NAN</DistanceMeters>
          </Trackpoint>
          <Trackpoint>
            <Time>2021-04-04T07:14:42.000Z</Time>
            <Position>
              <LatitudeDegrees>42.3315964825451374053955078125</LatitudeDegrees>
              <LongitudeDegrees>2.44420026428997516632080078125</LongitudeDegrees>
            </Position>
            <AltitudeMeters>888.20001220703125</AltitudeMeters>
            <DistanceMeters>NAN</DistanceMeters>
          </Trackpoint>
          <Trackpoint>
            <Time>2021-04-04T07:14:48.000Z</Time>
            <Position>
              <LatitudeDegrees>42.33163797296583652496337890625</LatitudeDegrees>
              <LongitudeDegrees>2.4441537447273731231689453125</LongitudeDegrees>
            </Position>
            <AltitudeMeters>888.5999755859375</AltitudeMeters>
            <DistanceMeters>NAN</DistanceMeters>
          </Trackpoint>
          <Trackpoint>
            <Time>2021-04-04T07:14:52.000Z</Time>
            <Position>
              <LatitudeDegrees>42.33167250640690326690673828125</LatitudeDegrees>
              <LongitudeDegrees>2.4441306106746196746826171875</LongitudeDegrees>
            </Position>
            <AltitudeMeters>889</AltitudeMeters>
            <DistanceMeters>NAN</DistanceMeters>
          </Trackpoint>
          <Trackpoint>
            <Time>2021-04-04T07:14:55.000Z</Time>
            <Position>
              <LatitudeDegrees>42.33169245533645153045654296875</LatitudeDegrees>
              <LongitudeDegrees>2.44412415660917758941650390625</LongitudeDegrees>
            </Position>
            <AltitudeMeters>889.20001220703125</AltitudeMeters>
            <DistanceMeters>NAN</DistanceMeters>
          </Trackpoint>
          <Trackpoint>
            <Time>2021-04-04T07:15:02.000Z</Time>
            <Position>
              <LatitudeDegrees>42.331732772290706634521484375</LatitudeDegrees>
              <LongitudeDegrees>2.444076128304004669189453125</LongitudeDegrees>
            </Position>
            <AltitudeMeters>890</AltitudeMeters>
            <DistanceMeters>NAN</DistanceMeters>
          </Trackpoint>
          <Trackpoint>
            <Time>2021-04-04T07:15:05.000Z</Time>
            <Position>
              <LatitudeDegrees>42.33173905871808528900146484375</LatitudeDegrees>
              <LongitudeDegrees>2.444042265415191650390625</LongitudeDegrees>
            </Position>
            <AltitudeMeters>890.20001220703125</AltitudeMeters>
            <DistanceMeters>NAN</DistanceMeters>
          </Trackpoint>
          <Trackpoint>
            <Time>2021-04-04T07:15:08.000Z</Time>
            <Position>
              <LatitudeDegrees>42.33174039982259273529052734375</LatitudeDegrees>
              <LongitudeDegrees>2.4439944885671138763427734375</LongitudeDegrees>
            </Position>
            <AltitudeMeters>890.5999755859375</AltitudeMeters>
            <DistanceMeters>NAN</DistanceMeters>
          </Trackpoint>
          <Trackpoint>
            <Time>2021-04-04T07:15:11.000Z</Time>
            <Position>
              <LatitudeDegrees>42.33175163157284259796142578125</LatitudeDegrees>
              <LongitudeDegrees>2.4439550936222076416015625</LongitudeDegrees>
            </Position>
            <AltitudeMeters>890.79998779296875</AltitudeMeters>
            <DistanceMeters>NAN</DistanceMeters>
          </Trackpoint>
          <Trackpoint>
            <Time>2021-04-04T07:15:16.000Z</Time>
            <Position>
              <LatitudeDegrees>42.33176504261791706085205078125</LatitudeDegrees>
              <LongitudeDegrees>2.44390170089900493621826171875</LongitudeDegrees>
            </Position>
            <AltitudeMeters>891.20001220703125</AltitudeMeters>
            <DistanceMeters>NAN</DistanceMeters>
          </Trackpoint>
          <Trackpoint>
            <Time>2021-04-04T07:15:17.000Z</Time>
            <Position>
              <LatitudeDegrees>42.33176194131374359130859375</LatitudeDegrees>
              <LongitudeDegrees>2.44388728402554988861083984375</LongitudeDegrees>
            </Position>
            <AltitudeMeters>891.20001220703125</AltitudeMeters>
            <DistanceMeters>NAN</DistanceMeters>
          </Trackpoint>
          <Trackpoint>
            <Time>2021-04-04T07:15:24.000Z</Time>
            <Position>
              <LatitudeDegrees>42.33179002068936824798583984375</LatitudeDegrees>
              <LongitudeDegrees>2.4438074044883251190185546875</LongitudeDegrees>
            </Position>
            <AltitudeMeters>892</AltitudeMeters>
            <DistanceMeters>NAN</DistanceMeters>
          </Trackpoint>
          <Trackpoint>
            <Time>2021-04-04T07:15:26.000Z</Time>
            <Position>
              <LatitudeDegrees>42.33179840259253978729248046875</LatitudeDegrees>
              <LongitudeDegrees>2.4437876231968402862548828125</LongitudeDegrees>
            </Position>
            <AltitudeMeters>892.20001220703125</AltitudeMeters>
            <DistanceMeters>NAN</DistanceMeters>
          </Trackpoint>
          <Trackpoint>
            <Time>2021-04-04T07:15:27.000Z</Time>
            <Position>
              <LatitudeDegrees>42.331800498068332672119140625</LatitudeDegrees>
              <LongitudeDegrees>2.44378083385527133941650390625</LongitudeDegrees>
            </Position>
            <AltitudeMeters>892.20001220703125</AltitudeMeters>
            <DistanceMeters>NAN</DistanceMeters>
          </Trackpoint>
          <Trackpoint>
            <Time>2021-04-04T07:15:32.000Z</Time>
            <Position>
              <LatitudeDegrees>42.33180108480155467987060546875</LatitudeDegrees>
              <LongitudeDegrees>2.443728782236576080322265625</LongitudeDegrees>
            </Position>
            <AltitudeMeters>892.5999755859375</AltitudeMeters>
            <DistanceMeters>NAN</DistanceMeters>
          </Trackpoint>
          <Trackpoint>
            <Time>2021-04-04T07:15:33.000Z</Time>
            <Position>
              <LatitudeDegrees>42.3317996598780155181884765625</LatitudeDegrees>
              <LongitudeDegrees>2.44371629320085048675537109375</LongitudeDegrees>
            </Position>
            <AltitudeMeters>892.79998779296875</AltitudeMeters>
            <DistanceMeters>NAN</DistanceMeters>
          </Trackpoint>
          <Trackpoint>
            <Time>2021-04-04T07:15:34.000Z</Time>
            <Position>
              <LatitudeDegrees>42.33179840259253978729248046875</LatitudeDegrees>
              <LongitudeDegrees>2.44370707310736179351806640625</LongitudeDegrees>
            </Position>
            <AltitudeMeters>892.79998779296875</AltitudeMeters>
            <DistanceMeters>NAN</DistanceMeters>
          </Trackpoint>
          <Trackpoint>
            <Time>2021-04-04T07:15:38.000Z</Time>
            <Position>
              <LatitudeDegrees>42.3317922838032245635986328125</LatitudeDegrees>
              <LongitudeDegrees>2.4436578713357448577880859375</LongitudeDegrees>
            </Position>
            <AltitudeMeters>893.20001220703125</AltitudeMeters>
            <DistanceMeters>NAN</DistanceMeters>
          </Trackpoint>
          <Trackpoint>
            <Time>2021-04-04T07:15:40.000Z</Time>
            <Position>
              <LatitudeDegrees>42.33179722912609577178955078125</LatitudeDegrees>
              <LongitudeDegrees>2.44363834150135517120361328125</LongitudeDegrees>
            </Position>
            <AltitudeMeters>893.4000244140625</AltitudeMeters>
            <DistanceMeters>NAN</DistanceMeters>
          </Trackpoint>
          <Trackpoint>
            <Time>2021-04-04T07:15:48.000Z</Time>
            <Position>
              <LatitudeDegrees>42.33181382529437541961669921875</LatitudeDegrees>
              <LongitudeDegrees>2.4435639940202236175537109375</LongitudeDegrees>
            </Position>
            <AltitudeMeters>894</AltitudeMeters>
            <DistanceMeters>NAN</DistanceMeters>
          </Trackpoint>
          <Trackpoint>
            <Time>2021-04-04T07:15:50.000Z</Time>
            <Position>
              <LatitudeDegrees>42.33180829323828220367431640625</LatitudeDegrees>
              <LongitudeDegrees>2.44354563765227794647216796875</LongitudeDegrees>
            </Position>
            <AltitudeMeters>894.20001220703125</AltitudeMeters>
            <DistanceMeters>NAN</DistanceMeters>
          </Trackpoint>
          <Trackpoint>
            <Time>2021-04-04T07:15:51.000Z</Time>
            <Position>
              <LatitudeDegrees>42.33180494047701358795166015625</LatitudeDegrees>
              <LongitudeDegrees>2.4435318075120449066162109375</LongitudeDegrees>
            </Position>
            <AltitudeMeters>894.4000244140625</AltitudeMeters>
            <DistanceMeters>NAN</DistanceMeters>
          </Trackpoint>
          <Trackpoint>
            <Time>2021-04-04T07:15:56.000Z</Time>
            <Position>
              <LatitudeDegrees>42.331791110336780548095703125</LatitudeDegrees>
              <LongitudeDegrees>2.44347698986530303955078125</LongitudeDegrees>
            </Position>
            <AltitudeMeters>894.79998779296875</AltitudeMeters>
            <DistanceMeters>NAN</DistanceMeters>
          </Trackpoint>
          <Trackpoint>
            <Time>2021-04-04T07:15:58.000Z</Time>
            <Position>
              <LatitudeDegrees>42.33178867958486080169677734375</LatitudeDegrees>
              <LongitudeDegrees>2.44346131570637226104736328125</LongitudeDegrees>
            </Position>
            <AltitudeMeters>895</AltitudeMeters>
            <DistanceMeters>NAN</DistanceMeters>
          </Trackpoint>
          <Trackpoint>
            <Time>2021-04-04T07:16:02.000Z</Time>
            <Position>
              <LatitudeDegrees>42.3317688144743442535400390625</LatitudeDegrees>
              <LongitudeDegrees>2.44341672398149967193603515625</LongitudeDegrees>
            </Position>
            <AltitudeMeters>895.4000244140625</AltitudeMeters>
            <DistanceMeters>NAN</DistanceMeters>
          </Trackpoint>
          <Trackpoint>
            <Time>2021-04-04T07:16:04.000Z</Time>
            <Position>
              <LatitudeDegrees>42.3317585885524749755859375</LatitudeDegrees>
              <LongitudeDegrees>2.44340599514544010162353515625</LongitudeDegrees>
            </Position>
            <AltitudeMeters>895.5999755859375</AltitudeMeters>
            <DistanceMeters>NAN</DistanceMeters>
          </Trackpoint>
          <Trackpoint>
            <Time>2021-04-04T07:16:11.000Z</Time>
            <Position>
              <LatitudeDegrees>42.331773675978183746337890625</LatitudeDegrees>
              <LongitudeDegrees>2.44333424605429172515869140625</LongitudeDegrees>
            </Position>
            <AltitudeMeters>896.20001220703125</AltitudeMeters>
            <DistanceMeters>NAN</DistanceMeters>
          </Trackpoint>
          <Trackpoint>
            <Time>2021-04-04T07:16:13.000Z</Time>
            <Position>
              <LatitudeDegrees>42.33177409507334232330322265625</LatitudeDegrees>
              <LongitudeDegrees>2.443309016525745391845703125</LongitudeDegrees>
            </Position>
            <AltitudeMeters>896.4000244140625</AltitudeMeters>
            <DistanceMeters>NAN</DistanceMeters>
          </Trackpoint>
          <Trackpoint>
            <Time>2021-04-04T07:16:16.000Z</Time>
            <Position>
              <LatitudeDegrees>42.33176856301724910736083984375</LatitudeDegrees>
              <LongitudeDegrees>2.443278171122074127197265625</LongitudeDegrees>
            </Position>
            <AltitudeMeters>896.5999755859375</AltitudeMeters>
            <DistanceMeters>NAN</DistanceMeters>
          </Trackpoint>
          <Trackpoint>
            <Time>2021-04-04T07:16:18.000Z</Time>
            <Position>
              <LatitudeDegrees>42.3317664675414562225341796875</LatitudeDegrees>
              <LongitudeDegrees>2.44326098822057247161865234375</LongitudeDegrees>
            </Position>
            <AltitudeMeters>896.79998779296875</AltitudeMeters>
            <DistanceMeters>NAN</DistanceMeters>
          </Trackpoint>
          <Trackpoint>
            <Time>2021-04-04T07:16:19.000Z</Time>
            <Position>
              <LatitudeDegrees>42.33176370151340961456298828125</LatitudeDegrees>
              <LongitudeDegrees>2.4432565458118915557861328125</LongitudeDegrees>
            </Position>
            <AltitudeMeters>896.79998779296875</AltitudeMeters>
            <DistanceMeters>NAN</DistanceMeters>
          </Trackpoint>
          <Trackpoint>
            <Time>2021-04-04T07:16:20.000Z</Time>
            <Position>
              <LatitudeDegrees>42.3317621089518070220947265625</LatitudeDegrees>
              <LongitudeDegrees>2.44324900209903717041015625</LongitudeDegrees>
            </Position>
            <AltitudeMeters>897</AltitudeMeters>
            <DistanceMeters>NAN</DistanceMeters>
          </Trackpoint>
          <Trackpoint>
            <Time>2021-04-04T07:16:23.000Z</Time>
            <Position>
              <LatitudeDegrees>42.33175666071474552154541015625</LatitudeDegrees>
              <LongitudeDegrees>2.44321949779987335205078125</LongitudeDegrees>
            </Position>
            <AltitudeMeters>897.20001220703125</AltitudeMeters>
            <DistanceMeters>NAN</DistanceMeters>
          </Trackpoint>
          <Trackpoint>
            <Time>2021-04-04T07:16:24.000Z</Time>
            <Position>
              <LatitudeDegrees>42.331754229962825775146484375</LatitudeDegrees>
              <LongitudeDegrees>2.44321145117282867431640625</LongitudeDegrees>
            </Position>
            <AltitudeMeters>897.4000244140625</AltitudeMeters>
            <DistanceMeters>NAN</DistanceMeters>
          </Trackpoint>
          <Trackpoint>
            <Time>2021-04-04T07:16:29.000Z</Time>
            <Position>
              <LatitudeDegrees>42.33172179199755191802978515625</LatitudeDegrees>
              <LongitudeDegrees>2.4431750737130641937255859375</LongitudeDegrees>
            </Position>
            <AltitudeMeters>898</AltitudeMeters>
            <DistanceMeters>NAN</DistanceMeters>
          </Trackpoint>
          <Trackpoint>
            <Time>2021-04-04T07:16:34.000Z</Time>
            <Position>
              <LatitudeDegrees>42.33168206177651882171630859375</LatitudeDegrees>
              <LongitudeDegrees>2.44313391856849193572998046875</LongitudeDegrees>
            </Position>
            <AltitudeMeters>898.4000244140625</AltitudeMeters>
            <DistanceMeters>NAN</DistanceMeters>
          </Trackpoint>
          <Trackpoint>
            <Time>2021-04-04T07:16:38.000Z</Time>
            <Position>
              <LatitudeDegrees>42.3316715843975543975830078125</LatitudeDegrees>
              <LongitudeDegrees>2.443076670169830322265625</LongitudeDegrees>
            </Position>
            <AltitudeMeters>899</AltitudeMeters>
            <DistanceMeters>NAN</DistanceMeters>
          </Trackpoint>
          <Trackpoint>
            <Time>2021-04-04T07:16:44.000Z</Time>
            <Position>
              <LatitudeDegrees>42.33166362158954143524169921875</LatitudeDegrees>
              <LongitudeDegrees>2.44302009232342243194580078125</LongitudeDegrees>
            </Position>
            <AltitudeMeters>899.4000244140625</AltitudeMeters>
            <DistanceMeters>NAN</DistanceMeters>
          </Trackpoint>
          <Trackpoint>
            <Time>2021-04-04T07:16:46.000Z</Time>
            <Position>
              <LatitudeDegrees>42.3316685669124126434326171875</LatitudeDegrees>
              <LongitudeDegrees>2.44299729354679584503173828125</LongitudeDegrees>
            </Position>
            <AltitudeMeters>899.5999755859375</AltitudeMeters>
            <DistanceMeters>NAN</DistanceMeters>
          </Trackpoint>
          <Trackpoint>
            <Time>2021-04-04T07:16:48.000Z</Time>
            <Position>
              <LatitudeDegrees>42.33167032711207866668701171875</LatitudeDegrees>
              <LongitudeDegrees>2.44297483004629611968994140625</LongitudeDegrees>
            </Position>
            <AltitudeMeters>899.79998779296875</AltitudeMeters>
            <DistanceMeters>NAN</DistanceMeters>
          </Trackpoint>
          <Trackpoint>
            <Time>2021-04-04T07:16:57.000Z</Time>
            <Position>
              <LatitudeDegrees>42.33166127465665340423583984375</LatitudeDegrees>
              <LongitudeDegrees>2.44285379536449909210205078125</LongitudeDegrees>
            </Position>
            <AltitudeMeters>900.4000244140625</AltitudeMeters>
            <DistanceMeters>NAN</DistanceMeters>
          </Trackpoint>
          <Trackpoint>
            <Time>2021-04-04T07:17:01.000Z</Time>
            <Position>
              <LatitudeDegrees>42.33166546560823917388916015625</LatitudeDegrees>
              <LongitudeDegrees>2.44281842373311519622802734375</LongitudeDegrees>
            </Position>
            <AltitudeMeters>900.5999755859375</AltitudeMeters>
            <DistanceMeters>NAN</DistanceMeters>
          </Trackpoint>
          <Trackpoint>
            <Time>2021-04-04T07:17:02.000Z</Time>
            <Position>
              <LatitudeDegrees>42.33166538178920745849609375</LatitudeDegrees>
              <LongitudeDegrees>2.4428096227347850799560546875</LongitudeDegrees>
            </Position>
            <AltitudeMeters>900.5999755859375</AltitudeMeters>
            <DistanceMeters>NAN</DistanceMeters>
          </Trackpoint>
          <Trackpoint>
            <Time>2021-04-04T07:17:07.000Z</Time>
            <Position>
              <LatitudeDegrees>42.33167066238820552825927734375</LatitudeDegrees>
              <LongitudeDegrees>2.4427579902112483978271484375</LongitudeDegrees>
            </Position>
            <AltitudeMeters>901</AltitudeMeters>
            <DistanceMeters>NAN</DistanceMeters>
          </Trackpoint>
          <Trackpoint>
            <Time>2021-04-04T07:17:08.000Z</Time>
            <Position>
              <LatitudeDegrees>42.33167636208236217498779296875</LatitudeDegrees>
              <LongitudeDegrees>2.44275069795548915863037109375</LongitudeDegrees>
            </Position>
            <AltitudeMeters>901.20001220703125</AltitudeMeters>
            <DistanceMeters>NAN</DistanceMeters>
          </Trackpoint>
          <Trackpoint>
            <Time>2021-04-04T07:17:09.000Z</Time>
            <Position>
              <LatitudeDegrees>42.331671752035617828369140625</LatitudeDegrees>
              <LongitudeDegrees>2.44274214841425418853759765625</LongitudeDegrees>
            </Position>
            <AltitudeMeters>901.20001220703125</AltitudeMeters>
            <DistanceMeters>NAN</DistanceMeters>
          </Trackpoint>
          <Trackpoint>
            <Time>2021-04-04T07:17:16.000Z</Time>
            <Position>
              <LatitudeDegrees>42.33170561492443084716796875</LatitudeDegrees>
              <LongitudeDegrees>2.44266352616250514984130859375</LongitudeDegrees>
            </Position>
            <AltitudeMeters>901.5999755859375</AltitudeMeters>
            <DistanceMeters>NAN</DistanceMeters>
          </Trackpoint>
          <Trackpoint>
            <Time>2021-04-04T07:17:19.000Z</Time>
            <Position>
              <LatitudeDegrees>42.33169488608837127685546875</LatitudeDegrees>
              <LongitudeDegrees>2.44262832216918468475341796875</LongitudeDegrees>
            </Position>
            <AltitudeMeters>902</AltitudeMeters>
            <DistanceMeters>NAN</DistanceMeters>
          </Trackpoint>
          <Trackpoint>
            <Time>2021-04-04T07:17:23.000Z</Time>
            <Position>
              <LatitudeDegrees>42.33170351944863796234130859375</LatitudeDegrees>
              <LongitudeDegrees>2.4425779469311237335205078125</LongitudeDegrees>
            </Position>
            <AltitudeMeters>902.4000244140625</AltitudeMeters>
            <DistanceMeters>NAN</DistanceMeters>
          </Trackpoint>
          <Trackpoint>
            <Time>2021-04-04T07:17:26.000Z</Time>
            <Position>
              <LatitudeDegrees>42.33171072788536548614501953125</LatitudeDegrees>
              <LongitudeDegrees>2.4425360374152660369873046875</LongitudeDegrees>
            </Position>
            <AltitudeMeters>902.5999755859375</AltitudeMeters>
            <DistanceMeters>NAN</DistanceMeters>
          </Trackpoint>
          <Trackpoint>
            <Time>2021-04-04T07:17:27.000Z</Time>
            <Position>
              <LatitudeDegrees>42.33171609230339527130126953125</LatitudeDegrees>
              <LongitudeDegrees>2.44252455420792102813720703125</LongitudeDegrees>
            </Position>
            <AltitudeMeters>902.79998779296875</AltitudeMeters>
            <DistanceMeters>NAN</DistanceMeters>
          </Trackpoint>
          <Trackpoint>
            <Time>2021-04-04T07:17:29.000Z</Time>
            <Position>
              <LatitudeDegrees>42.3317289166152477264404296875</LatitudeDegrees>
              <LongitudeDegrees>2.44249639101326465606689453125</LongitudeDegrees>
            </Position>
            <AltitudeMeters>902.79998779296875</AltitudeMeters>
            <DistanceMeters>NAN</DistanceMeters>
          </Trackpoint>
          <Trackpoint>
            <Time>2021-04-04T07:17:30.000Z</Time>
            <Position>
              <LatitudeDegrees>42.331729419529438018798828125</LatitudeDegrees>
              <LongitudeDegrees>2.4424850754439830780029296875</LongitudeDegrees>
            </Position>
            <AltitudeMeters>902.79998779296875</AltitudeMeters>
            <DistanceMeters>NAN</DistanceMeters>
          </Trackpoint>
          <Trackpoint>
            <Time>2021-04-04T07:17:31.000Z</Time>
            <Position>
              <LatitudeDegrees>42.3317289166152477264404296875</LatitudeDegrees>
              <LongitudeDegrees>2.4424699880182743072509765625</LongitudeDegrees>
            </Position>
            <AltitudeMeters>903</AltitudeMeters>
            <DistanceMeters>NAN</DistanceMeters>
          </Trackpoint>
          <Trackpoint>
            <Time>2021-04-04T07:17:34.000Z</Time>
            <Position>
              <LatitudeDegrees>42.3317210376262664794921875</LatitudeDegrees>
              <LongitudeDegrees>2.44243335910141468048095703125</LongitudeDegrees>
            </Position>
            <AltitudeMeters>903.20001220703125</AltitudeMeters>
            <DistanceMeters>NAN</DistanceMeters>
          </Trackpoint>
          <Trackpoint>
            <Time>2021-04-04T07:17:36.000Z</Time>
            <Position>
              <LatitudeDegrees>42.3317269049584865570068359375</LatitudeDegrees>
              <LongitudeDegrees>2.44241190142929553985595703125</LongitudeDegrees>
            </Position>
            <AltitudeMeters>903.4000244140625</AltitudeMeters>
            <DistanceMeters>NAN</DistanceMeters>
          </Trackpoint>
          <Trackpoint>
            <Time>2021-04-04T07:17:39.000Z</Time>
            <Position>
              <LatitudeDegrees>42.33172975480556488037109375</LatitudeDegrees>
              <LongitudeDegrees>2.4423781223595142364501953125</LongitudeDegrees>
            </Position>
            <AltitudeMeters>903.5999755859375</AltitudeMeters>
            <DistanceMeters>NAN</DistanceMeters>
          </Trackpoint>
          <Trackpoint>
            <Time>2021-04-04T07:17:40.000Z</Time>
            <Position>
              <LatitudeDegrees>42.331728078424930572509765625</LatitudeDegrees>
              <LongitudeDegrees>2.44236697442829608917236328125</LongitudeDegrees>
            </Position>
            <AltitudeMeters>903.79998779296875</AltitudeMeters>
            <DistanceMeters>NAN</DistanceMeters>
          </Trackpoint>
          <Trackpoint>
            <Time>2021-04-04T07:17:46.000Z</Time>
            <Position>
              <LatitudeDegrees>42.33172564767301082611083984375</LatitudeDegrees>
              <LongitudeDegrees>2.44229924865067005157470703125</LongitudeDegrees>
            </Position>
            <AltitudeMeters>904.20001220703125</AltitudeMeters>
            <DistanceMeters>NAN</DistanceMeters>
          </Trackpoint>
          <Trackpoint>
            <Time>2021-04-04T07:17:51.000Z</Time>
            <Position>
              <LatitudeDegrees>42.33172732405364513397216796875</LatitudeDegrees>
              <LongitudeDegrees>2.4422456882894039154052734375</LongitudeDegrees>
            </Position>
            <AltitudeMeters>904.79998779296875</AltitudeMeters>
            <DistanceMeters>NAN</DistanceMeters>
          </Trackpoint>
          <Trackpoint>
            <Time>2021-04-04T07:17:53.000Z</Time>
            <Position>
              <LatitudeDegrees>42.33174526132643222808837890625</LatitudeDegrees>
              <LongitudeDegrees>2.4422312714159488677978515625</LongitudeDegrees>
            </Position>
            <AltitudeMeters>905.20001220703125</AltitudeMeters>
            <DistanceMeters>NAN</DistanceMeters>
          </Trackpoint>
          <Trackpoint>
            <Time>2021-04-04T07:17:54.000Z</Time>
            <Position>
              <LatitudeDegrees>42.33174811117351055145263671875</LatitudeDegrees>
              <LongitudeDegrees>2.44221811182796955108642578125</LongitudeDegrees>
            </Position>
            <AltitudeMeters>905.20001220703125</AltitudeMeters>
            <DistanceMeters>NAN</DistanceMeters>
          </Trackpoint>
          <Trackpoint>
            <Time>2021-04-04T07:17:59.000Z</Time>
            <Position>
              <LatitudeDegrees>42.33175934292376041412353515625</LatitudeDegrees>
              <LongitudeDegrees>2.4421606957912445068359375</LongitudeDegrees>
            </Position>
            <AltitudeMeters>905.4000244140625</AltitudeMeters>
            <DistanceMeters>NAN</DistanceMeters>
          </Trackpoint>
          <Trackpoint>
            <Time>2021-04-04T07:18:02.000Z</Time>
            <Position>
              <LatitudeDegrees>42.3317748494446277618408203125</LatitudeDegrees>
              <LongitudeDegrees>2.4421316944062709808349609375</LongitudeDegrees>
            </Position>
            <AltitudeMeters>905.79998779296875</AltitudeMeters>
            <DistanceMeters>NAN</DistanceMeters>
          </Trackpoint>
          <Trackpoint>
            <Time>2021-04-04T07:18:03.000Z</Time>
            <Position>
              <LatitudeDegrees>42.3317775316536426544189453125</LatitudeDegrees>
              <LongitudeDegrees>2.44211920537054538726806640625</LongitudeDegrees>
            </Position>
            <AltitudeMeters>906</AltitudeMeters>
            <DistanceMeters>NAN</DistanceMeters>
          </Trackpoint>
          <Trackpoint>
            <Time>2021-04-04T07:18:10.000Z</Time>
            <Position>
              <LatitudeDegrees>42.33178851194679737091064453125</LatitudeDegrees>
              <LongitudeDegrees>2.4420213885605335235595703125</LongitudeDegrees>
            </Position>
            <AltitudeMeters>906.5999755859375</AltitudeMeters>
            <DistanceMeters>NAN</DistanceMeters>
          </Trackpoint>
          <Trackpoint>
            <Time>2021-04-04T07:18:12.000Z</Time>
            <Position>
              <LatitudeDegrees>42.33179748058319091796875</LatitudeDegrees>
              <LongitudeDegrees>2.44200135581195354461669921875</LongitudeDegrees>
            </Position>
            <AltitudeMeters>906.79998779296875</AltitudeMeters>
            <DistanceMeters>NAN</DistanceMeters>
          </Trackpoint>
          <Trackpoint>
            <Time>2021-04-04T07:18:13.000Z</Time>
            <Position>
              <LatitudeDegrees>42.33180678449571132659912109375</LatitudeDegrees>
              <LongitudeDegrees>2.44198861531913280487060546875</LongitudeDegrees>
            </Position>
            <AltitudeMeters>907</AltitudeMeters>
            <DistanceMeters>NAN</DistanceMeters>
          </Trackpoint>
          <Trackpoint>
            <Time>2021-04-04T07:18:15.000Z</Time>
            <Position>
              <LatitudeDegrees>42.3318170942366123199462890625</LatitudeDegrees>
              <LongitudeDegrees>2.4419674091041088104248046875</LongitudeDegrees>
            </Position>
            <AltitudeMeters>907.20001220703125</AltitudeMeters>
            <DistanceMeters>NAN</DistanceMeters>
          </Trackpoint>
          <Trackpoint>
            <Time>2021-04-04T07:18:20.000Z</Time>
            <Position>
              <LatitudeDegrees>42.33182673342525959014892578125</LatitudeDegrees>
              <LongitudeDegrees>2.441908903419971466064453125</LongitudeDegrees>
            </Position>
            <AltitudeMeters>907.79998779296875</AltitudeMeters>
            <DistanceMeters>NAN</DistanceMeters>
          </Trackpoint>
          <Trackpoint>
            <Time>2021-04-04T07:18:21.000Z</Time>
            <Position>
              <LatitudeDegrees>42.33182304538786411285400390625</LatitudeDegrees>
              <LongitudeDegrees>2.44189138524234294891357421875</LongitudeDegrees>
            </Position>
            <AltitudeMeters>908</AltitudeMeters>
            <DistanceMeters>NAN</DistanceMeters>
          </Trackpoint>
          <Trackpoint>
            <Time>2021-04-04T07:18:25.000Z</Time>
            <Position>
              <LatitudeDegrees>42.33180779032409191131591796875</LatitudeDegrees>
              <LongitudeDegrees>2.44182701222598552703857421875</LongitudeDegrees>
            </Position>
            <AltitudeMeters>908.4000244140625</AltitudeMeters>
            <DistanceMeters>NAN</DistanceMeters>
          </Trackpoint>
          <Trackpoint>
            <Time>2021-04-04T07:18:28.000Z</Time>
            <Position>
              <LatitudeDegrees>42.331813909113407135009765625</LatitudeDegrees>
              <LongitudeDegrees>2.44180463254451751708984375</LongitudeDegrees>
            </Position>
            <AltitudeMeters>908.5999755859375</AltitudeMeters>
            <DistanceMeters>NAN</DistanceMeters>
          </Trackpoint>
          <Trackpoint>
            <Time>2021-04-04T07:18:32.000Z</Time>
            <Position>
              <LatitudeDegrees>42.33184282667934894561767578125</LatitudeDegrees>
              <LongitudeDegrees>2.44176347739994525909423828125</LongitudeDegrees>
            </Position>
            <AltitudeMeters>908.79998779296875</AltitudeMeters>
            <DistanceMeters>NAN</DistanceMeters>
          </Trackpoint>
          <Trackpoint>
            <Time>2021-04-04T07:18:33.000Z</Time>
            <Position>
              <LatitudeDegrees>42.33184651471674442291259765625</LatitudeDegrees>
              <LongitudeDegrees>2.441751323640346527099609375</LongitudeDegrees>
            </Position>
            <AltitudeMeters>909</AltitudeMeters>
            <DistanceMeters>NAN</DistanceMeters>
          </Trackpoint>
          <Trackpoint>
            <Time>2021-04-04T07:18:35.000Z</Time>
            <Position>
              <LatitudeDegrees>42.33186763711273670196533203125</LatitudeDegrees>
              <LongitudeDegrees>2.44173766113817691802978515625</LongitudeDegrees>
            </Position>
            <AltitudeMeters>909.20001220703125</AltitudeMeters>
            <DistanceMeters>NAN</DistanceMeters>
          </Trackpoint>
          <Trackpoint>
            <Time>2021-04-04T07:18:37.000Z</Time>
            <Position>
              <LatitudeDegrees>42.33187383972108364105224609375</LatitudeDegrees>
              <LongitudeDegrees>2.4417172931134700775146484375</LongitudeDegrees>
            </Position>
            <AltitudeMeters>909.4000244140625</AltitudeMeters>
            <DistanceMeters>NAN</DistanceMeters>
          </Trackpoint>
          <Trackpoint>
            <Time>2021-04-04T07:18:38.000Z</Time>
            <Position>
              <LatitudeDegrees>42.33187752775847911834716796875</LatitudeDegrees>
              <LongitudeDegrees>2.44171083904802799224853515625</LongitudeDegrees>
            </Position>
            <AltitudeMeters>909.5999755859375</AltitudeMeters>
            <DistanceMeters>NAN</DistanceMeters>
          </Trackpoint>
          <Trackpoint>
            <Time>2021-04-04T07:18:43.000Z</Time>
            <Position>
              <LatitudeDegrees>42.33191549777984619140625</LatitudeDegrees>
              <LongitudeDegrees>2.44166390039026737213134765625</LongitudeDegrees>
            </Position>
            <AltitudeMeters>910</AltitudeMeters>
            <DistanceMeters>NAN</DistanceMeters>
          </Trackpoint>
          <Trackpoint>
            <Time>2021-04-04T07:18:45.000Z</Time>
            <Position>
              <LatitudeDegrees>42.33192614279687404632568359375</LatitudeDegrees>
              <LongitudeDegrees>2.441649734973907470703125</LongitudeDegrees>
            </Position>
            <AltitudeMeters>910.20001220703125</AltitudeMeters>
            <DistanceMeters>NAN</DistanceMeters>
          </Trackpoint>
          <Trackpoint>
            <Time>2021-04-04T07:18:47.000Z</Time>
            <Position>
              <LatitudeDegrees>42.33194374479353427886962890625</LatitudeDegrees>
              <LongitudeDegrees>2.44164026342332363128662109375</LongitudeDegrees>
            </Position>
            <AltitudeMeters>910.4000244140625</AltitudeMeters>
            <DistanceMeters>NAN</DistanceMeters>
          </Trackpoint>
          <Trackpoint>
            <Time>2021-04-04T07:18:49.000Z</Time>
            <Position>
              <LatitudeDegrees>42.3319629393517971038818359375</LatitudeDegrees>
              <LongitudeDegrees>2.44163624010980129241943359375</LongitudeDegrees>
            </Position>
            <AltitudeMeters>910.79998779296875</AltitudeMeters>
            <DistanceMeters>NAN</DistanceMeters>
          </Trackpoint>
          <Trackpoint>
            <Time>2021-04-04T07:18:51.000Z</Time>
            <Position>
              <LatitudeDegrees>42.3319699801504611968994140625</LatitudeDegrees>
              <LongitudeDegrees>2.44162970222532749176025390625</LongitudeDegrees>
            </Position>
            <AltitudeMeters>911</AltitudeMeters>
            <DistanceMeters>NAN</DistanceMeters>
          </Trackpoint>
          <Trackpoint>
            <Time>2021-04-04T07:18:53.000Z</Time>
            <Position>
              <LatitudeDegrees>42.33197987079620361328125</LatitudeDegrees>
              <LongitudeDegrees>2.44164596311748027801513671875</LongitudeDegrees>
            </Position>
            <AltitudeMeters>911.4000244140625</AltitudeMeters>
            <DistanceMeters>NAN</DistanceMeters>
          </Trackpoint>
          <Trackpoint>
            <Time>2021-04-04T07:18:54.000Z</Time>
            <Position>
              <LatitudeDegrees>42.33198297210037708282470703125</LatitudeDegrees>
              <LongitudeDegrees>2.44165635667741298675537109375</LongitudeDegrees>
            </Position>
            <AltitudeMeters>911.4000244140625</AltitudeMeters>
            <DistanceMeters>NAN</DistanceMeters>
          </Trackpoint>
          <Trackpoint>
            <Time>2021-04-04T07:18:58.000Z</Time>
            <Position>
              <LatitudeDegrees>42.33200610615313053131103515625</LatitudeDegrees>
              <LongitudeDegrees>2.44171000085771083831787109375</LongitudeDegrees>
            </Position>
            <AltitudeMeters>912</AltitudeMeters>
            <DistanceMeters>NAN</DistanceMeters>
          </Trackpoint>
          <Trackpoint>
            <Time>2021-04-04T07:18:59.000Z</Time>
            <Position>
              <LatitudeDegrees>42.3320065252482891082763671875</LatitudeDegrees>
              <LongitudeDegrees>2.44172056205570697784423828125</LongitudeDegrees>
            </Position>
            <AltitudeMeters>912.20001220703125</AltitudeMeters>
            <DistanceMeters>NAN</DistanceMeters>
          </Trackpoint>
          <Trackpoint>
            <Time>2021-04-04T07:19:03.000Z</Time>
            <Position>
              <LatitudeDegrees>42.33200124464929103851318359375</LatitudeDegrees>
              <LongitudeDegrees>2.44176984764635562896728515625</LongitudeDegrees>
            </Position>
            <AltitudeMeters>912.79998779296875</AltitudeMeters>
            <DistanceMeters>NAN</DistanceMeters>
          </Trackpoint>
          <Trackpoint>
            <Time>2021-04-04T07:19:05.000Z</Time>
            <Position>
              <LatitudeDegrees>42.3319994844496250152587890625</LatitudeDegrees>
              <LongitudeDegrees>2.44179264642298221588134765625</LongitudeDegrees>
            </Position>
            <AltitudeMeters>913</AltitudeMeters>
            <DistanceMeters>NAN</DistanceMeters>
          </Trackpoint>
          <Trackpoint>
            <Time>2021-04-04T07:19:07.000Z</Time>
            <Position>
              <LatitudeDegrees>42.3319981433451175689697265625</LatitudeDegrees>
              <LongitudeDegrees>2.44182131253182888031005859375</LongitudeDegrees>
            </Position>
            <AltitudeMeters>913.20001220703125</AltitudeMeters>
            <DistanceMeters>NAN</DistanceMeters>
          </Trackpoint>
          <Trackpoint>
            <Time>2021-04-04T07:19:11.000Z</Time>
            <Position>
              <LatitudeDegrees>42.3319803737103939056396484375</LatitudeDegrees>
              <LongitudeDegrees>2.441874034702777862548828125</LongitudeDegrees>
            </Position>
            <AltitudeMeters>913.5999755859375</AltitudeMeters>
            <DistanceMeters>NAN</DistanceMeters>
          </Trackpoint>
          <Trackpoint>
            <Time>2021-04-04T07:19:12.000Z</Time>
            <Position>
              <LatitudeDegrees>42.3319793678820133209228515625</LatitudeDegrees>
              <LongitudeDegrees>2.44188241660594940185546875</LongitudeDegrees>
            </Position>
            <AltitudeMeters>913.79998779296875</AltitudeMeters>
            <DistanceMeters>NAN</DistanceMeters>
          </Trackpoint>
          <Trackpoint>
            <Time>2021-04-04T07:19:14.000Z</Time>
            <Position>
              <LatitudeDegrees>42.33196981251239776611328125</LatitudeDegrees>
              <LongitudeDegrees>2.44190479628741741180419921875</LongitudeDegrees>
            </Position>
            <AltitudeMeters>913.79998779296875</AltitudeMeters>
            <DistanceMeters>NAN</DistanceMeters>
          </Trackpoint>
          <Trackpoint>
            <Time>2021-04-04T07:19:16.000Z</Time>
            <Position>
              <LatitudeDegrees>42.3319589160382747650146484375</LatitudeDegrees>
              <LongitudeDegrees>2.441928684711456298828125</LongitudeDegrees>
            </Position>
            <AltitudeMeters>914.20001220703125</AltitudeMeters>
            <DistanceMeters>NAN</DistanceMeters>
          </Trackpoint>
          <Trackpoint>
            <Time>2021-04-04T07:19:18.000Z</Time>
            <Position>
              <LatitudeDegrees>42.3319441638886928558349609375</LatitudeDegrees>
              <LongitudeDegrees>2.441949807107448577880859375</LongitudeDegrees>
            </Position>
            <AltitudeMeters>914.20001220703125</AltitudeMeters>
            <DistanceMeters>NAN</DistanceMeters>
          </Trackpoint>
          <Trackpoint>
            <Time>2021-04-04T07:19:22.000Z</Time>
            <Position>
              <LatitudeDegrees>42.3319233767688274383544921875</LatitudeDegrees>
              <LongitudeDegrees>2.441992051899433135986328125</LongitudeDegrees>
            </Position>
            <AltitudeMeters>914.79998779296875</AltitudeMeters>
            <DistanceMeters>NAN</DistanceMeters>
          </Trackpoint>
          <Trackpoint>
            <Time>2021-04-04T07:19:23.000Z</Time>
            <Position>
              <LatitudeDegrees>42.331920526921749114990234375</LatitudeDegrees>
              <LongitudeDegrees>2.4420016072690486907958984375</LongitudeDegrees>
            </Position>
            <AltitudeMeters>914.79998779296875</AltitudeMeters>
            <DistanceMeters>NAN</DistanceMeters>
          </Trackpoint>
          <Trackpoint>
            <Time>2021-04-04T07:19:25.000Z</Time>
            <Position>
              <LatitudeDegrees>42.331907115876674652099609375</LatitudeDegrees>
              <LongitudeDegrees>2.442023567855358123779296875</LongitudeDegrees>
            </Position>
            <AltitudeMeters>915</AltitudeMeters>
            <DistanceMeters>NAN</DistanceMeters>
          </Trackpoint>
          <Trackpoint>
            <Time>2021-04-04T07:19:27.000Z</Time>
            <Position>
              <LatitudeDegrees>42.3319032602012157440185546875</LatitudeDegrees>
              <LongitudeDegrees>2.44204871356487274169921875</LongitudeDegrees>
            </Position>
            <AltitudeMeters>915.20001220703125</AltitudeMeters>
            <DistanceMeters>NAN</DistanceMeters>
          </Trackpoint>
          <Trackpoint>
            <Time>2021-04-04T07:19:28.000Z</Time>
            <Position>
              <LatitudeDegrees>42.33190217055380344390869140625</LatitudeDegrees>
              <LongitudeDegrees>2.442062459886074066162109375</LongitudeDegrees>
            </Position>
            <AltitudeMeters>915.4000244140625</AltitudeMeters>
            <DistanceMeters>NAN</DistanceMeters>
          </Trackpoint>
          <Trackpoint>
            <Time>2021-04-04T07:19:29.000Z</Time>
            <Position>
              <LatitudeDegrees>42.33190636150538921356201171875</LatitudeDegrees>
              <LongitudeDegrees>2.442085929214954376220703125</LongitudeDegrees>
            </Position>
            <AltitudeMeters>915.4000244140625</AltitudeMeters>
            <DistanceMeters>NAN</DistanceMeters>
          </Trackpoint>
          <Trackpoint>
            <Time>2021-04-04T07:19:31.000Z</Time>
            <Position>
              <LatitudeDegrees>42.33191725797951221466064453125</LatitudeDegrees>
              <LongitudeDegrees>2.44213320314884185791015625</LongitudeDegrees>
            </Position>
            <AltitudeMeters>915.5999755859375</AltitudeMeters>
            <DistanceMeters>NAN</DistanceMeters>
          </Trackpoint>
          <Trackpoint>
            <Time>2021-04-04T07:19:32.000Z</Time>
            <Position>
              <LatitudeDegrees>42.33190837316215038299560546875</LatitudeDegrees>
              <LongitudeDegrees>2.4421487934887409210205078125</LongitudeDegrees>
            </Position>
            <AltitudeMeters>915.5999755859375</AltitudeMeters>
            <DistanceMeters>NAN</DistanceMeters>
          </Trackpoint>
          <Trackpoint>
            <Time>2021-04-04T07:19:33.000Z</Time>
            <Position>
              <LatitudeDegrees>42.33190753497183322906494140625</LatitudeDegrees>
              <LongitudeDegrees>2.44216279126703739166259765625</LongitudeDegrees>
            </Position>
            <AltitudeMeters>915.79998779296875</AltitudeMeters>
            <DistanceMeters>NAN</DistanceMeters>
          </Trackpoint>
          <Trackpoint>
            <Time>2021-04-04T07:19:38.000Z</Time>
            <Position>
              <LatitudeDegrees>42.3319086246192455291748046875</LatitudeDegrees>
              <LongitudeDegrees>2.442226074635982513427734375</LongitudeDegrees>
            </Position>
            <AltitudeMeters>916.20001220703125</AltitudeMeters>
            <DistanceMeters>NAN</DistanceMeters>
          </Trackpoint>
          <Trackpoint>
            <Time>2021-04-04T07:19:40.000Z</Time>
            <Position>
              <LatitudeDegrees>42.33189881779253482818603515625</LatitudeDegrees>
              <LongitudeDegrees>2.44225583039224147796630859375</LongitudeDegrees>
            </Position>
            <AltitudeMeters>916.20001220703125</AltitudeMeters>
            <DistanceMeters>NAN</DistanceMeters>
          </Trackpoint>
          <Trackpoint>
            <Time>2021-04-04T07:19:41.000Z</Time>
            <Position>
              <LatitudeDegrees>42.33189814724028110504150390625</LatitudeDegrees>
              <LongitudeDegrees>2.4422661401331424713134765625</LongitudeDegrees>
            </Position>
            <AltitudeMeters>916.4000244140625</AltitudeMeters>
            <DistanceMeters>NAN</DistanceMeters>
          </Trackpoint>
          <Trackpoint>
            <Time>2021-04-04T07:19:43.000Z</Time>
            <Position>
              <LatitudeDegrees>42.33190007507801055908203125</LatitudeDegrees>
              <LongitudeDegrees>2.44228650815784931182861328125</LongitudeDegrees>
            </Position>
            <AltitudeMeters>916.5999755859375</AltitudeMeters>
            <DistanceMeters>NAN</DistanceMeters>
          </Trackpoint>
          <Trackpoint>
            <Time>2021-04-04T07:19:46.000Z</Time>
            <Position>
              <LatitudeDegrees>42.3319119773805141448974609375</LatitudeDegrees>
              <LongitudeDegrees>2.44232363998889923095703125</LongitudeDegrees>
            </Position>
            <AltitudeMeters>916.5999755859375</AltitudeMeters>
            <DistanceMeters>NAN</DistanceMeters>
          </Trackpoint>
          <Trackpoint>
            <Time>2021-04-04T07:19:47.000Z</Time>
            <Position>
              <LatitudeDegrees>42.331918179988861083984375</LatitudeDegrees>
              <LongitudeDegrees>2.4423388950526714324951171875</LongitudeDegrees>
            </Position>
            <AltitudeMeters>916.79998779296875</AltitudeMeters>
            <DistanceMeters>NAN</DistanceMeters>
          </Trackpoint>
          <Trackpoint>
            <Time>2021-04-04T07:19:50.000Z</Time>
            <Position>
              <LatitudeDegrees>42.33190703205764293670654296875</LatitudeDegrees>
              <LongitudeDegrees>2.442372255027294158935546875</LongitudeDegrees>
            </Position>
            <AltitudeMeters>917</AltitudeMeters>
            <DistanceMeters>NAN</DistanceMeters>
          </Trackpoint>
          <Trackpoint>
            <Time>2021-04-04T07:19:54.000Z</Time>
            <Position>
              <LatitudeDegrees>42.331931255757808685302734375</LatitudeDegrees>
              <LongitudeDegrees>2.4424300901591777801513671875</LongitudeDegrees>
            </Position>
            <AltitudeMeters>917.4000244140625</AltitudeMeters>
            <DistanceMeters>NAN</DistanceMeters>
          </Trackpoint>
          <Trackpoint>
            <Time>2021-04-04T07:19:56.000Z</Time>
            <Position>
              <LatitudeDegrees>42.3319314233958721160888671875</LatitudeDegrees>
              <LongitudeDegrees>2.442454062402248382568359375</LongitudeDegrees>
            </Position>
            <AltitudeMeters>917.5999755859375</AltitudeMeters>
            <DistanceMeters>NAN</DistanceMeters>
          </Trackpoint>
          <Trackpoint>
            <Time>2021-04-04T07:19:59.000Z</Time>
            <Position>
              <LatitudeDegrees>42.33192647807300090789794921875</LatitudeDegrees>
              <LongitudeDegrees>2.4424827285110950469970703125</LongitudeDegrees>
            </Position>
            <AltitudeMeters>918</AltitudeMeters>
            <DistanceMeters>NAN</DistanceMeters>
          </Trackpoint>
          <Trackpoint>
            <Time>2021-04-04T07:20:01.000Z</Time>
            <Position>
              <LatitudeDegrees>42.331921868026256561279296875</LatitudeDegrees>
              <LongitudeDegrees>2.4424978159368038177490234375</LongitudeDegrees>
            </Position>
            <AltitudeMeters>918.20001220703125</AltitudeMeters>
            <DistanceMeters>NAN</DistanceMeters>
          </Trackpoint>
          <Trackpoint>
            <Time>2021-04-04T07:20:03.000Z</Time>
            <Position>
              <LatitudeDegrees>42.331920526921749114990234375</LatitudeDegrees>
              <LongitudeDegrees>2.4425122328102588653564453125</LongitudeDegrees>
            </Position>
            <AltitudeMeters>918.20001220703125</AltitudeMeters>
            <DistanceMeters>NAN</DistanceMeters>
          </Trackpoint>
          <Trackpoint>
            <Time>2021-04-04T07:20:04.000Z</Time>
            <Position>
              <LatitudeDegrees>42.331921197474002838134765625</LatitudeDegrees>
              <LongitudeDegrees>2.44251583702862262725830078125</LongitudeDegrees>
            </Position>
            <AltitudeMeters>918.4000244140625</AltitudeMeters>
            <DistanceMeters>NAN</DistanceMeters>
          </Trackpoint>
          <Trackpoint>
            <Time>2021-04-04T07:20:06.000Z</Time>
            <Position>
              <LatitudeDegrees>42.33192245475947856903076171875</LatitudeDegrees>
              <LongitudeDegrees>2.44251147843897342681884765625</LongitudeDegrees>
            </Position>
            <AltitudeMeters>918.5999755859375</AltitudeMeters>
            <DistanceMeters>NAN</DistanceMeters>
          </Trackpoint>
          <Trackpoint>
            <Time>2021-04-04T07:20:09.000Z</Time>
            <Position>
              <LatitudeDegrees>42.3319274000823497772216796875</LatitudeDegrees>
              <LongitudeDegrees>2.4424870871007442474365234375</LongitudeDegrees>
            </Position>
            <AltitudeMeters>918.5999755859375</AltitudeMeters>
            <DistanceMeters>NAN</DistanceMeters>
          </Trackpoint>
          <Trackpoint>
            <Time>2021-04-04T07:20:11.000Z</Time>
            <Position>
              <LatitudeDegrees>42.33192379586398601531982421875</LatitudeDegrees>
              <LongitudeDegrees>2.4424847401678562164306640625</LongitudeDegrees>
            </Position>
            <AltitudeMeters>918.5999755859375</AltitudeMeters>
            <DistanceMeters>NAN</DistanceMeters>
          </Trackpoint>
          <Trackpoint>
            <Time>2021-04-04T07:20:14.000Z</Time>
            <Position>
              <LatitudeDegrees>42.33192379586398601531982421875</LatitudeDegrees>
              <LongitudeDegrees>2.4424847401678562164306640625</LongitudeDegrees>
            </Position>
            <AltitudeMeters>918.5999755859375</AltitudeMeters>
            <DistanceMeters>NAN</DistanceMeters>
          </Trackpoint>
          <Trackpoint>
            <Time>2021-04-04T07:20:20.000Z</Time>
            <Position>
              <LatitudeDegrees>42.33192379586398601531982421875</LatitudeDegrees>
              <LongitudeDegrees>2.4424847401678562164306640625</LongitudeDegrees>
            </Position>
            <AltitudeMeters>918.79998779296875</AltitudeMeters>
            <DistanceMeters>NAN</DistanceMeters>
          </Trackpoint>
          <Trackpoint>
            <Time>2021-04-04T07:20:30.000Z</Time>
            <Position>
              <LatitudeDegrees>42.3319240473210811614990234375</LatitudeDegrees>
              <LongitudeDegrees>2.44250007905066013336181640625</LongitudeDegrees>
            </Position>
            <AltitudeMeters>919.5999755859375</AltitudeMeters>
            <DistanceMeters>NAN</DistanceMeters>
          </Trackpoint>
          <Trackpoint>
            <Time>2021-04-04T07:20:38.000Z</Time>
            <Position>
              <LatitudeDegrees>42.331941984593868255615234375</LatitudeDegrees>
              <LongitudeDegrees>2.44268196634948253631591796875</LongitudeDegrees>
            </Position>
            <AltitudeMeters>920.20001220703125</AltitudeMeters>
            <DistanceMeters>NAN</DistanceMeters>
          </Trackpoint>
          <Trackpoint>
            <Time>2021-04-04T07:20:42.000Z</Time>
            <Position>
              <LatitudeDegrees>42.33196151442825794219970703125</LatitudeDegrees>
              <LongitudeDegrees>2.44280350394546985626220703125</LongitudeDegrees>
            </Position>
            <AltitudeMeters>920.5999755859375</AltitudeMeters>
            <DistanceMeters>NAN</DistanceMeters>
          </Trackpoint>
          <Trackpoint>
            <Time>2021-04-04T07:20:45.000Z</Time>
            <Position>
              <LatitudeDegrees>42.33197224326431751251220703125</LatitudeDegrees>
              <LongitudeDegrees>2.44284507818520069122314453125</LongitudeDegrees>
            </Position>
            <AltitudeMeters>920.79998779296875</AltitudeMeters>
            <DistanceMeters>NAN</DistanceMeters>
          </Trackpoint>
          <Trackpoint>
            <Time>2021-04-04T07:20:47.000Z</Time>
            <Position>
              <LatitudeDegrees>42.331982217729091644287109375</LatitudeDegrees>
              <LongitudeDegrees>2.44286955334246158599853515625</LongitudeDegrees>
            </Position>
            <AltitudeMeters>921</AltitudeMeters>
            <DistanceMeters>NAN</DistanceMeters>
          </Trackpoint>
          <Trackpoint>
            <Time>2021-04-04T07:20:48.000Z</Time>
            <Position>
              <LatitudeDegrees>42.33198749832808971405029296875</LatitudeDegrees>
              <LongitudeDegrees>2.44287843815982341766357421875</LongitudeDegrees>
            </Position>
            <AltitudeMeters>921</AltitudeMeters>
            <DistanceMeters>NAN</DistanceMeters>
          </Trackpoint>
          <Trackpoint>
            <Time>2021-04-04T07:20:52.000Z</Time>
            <Position>
              <LatitudeDegrees>42.33201272785663604736328125</LatitudeDegrees>
              <LongitudeDegrees>2.44291364215314388275146484375</LongitudeDegrees>
            </Position>
            <AltitudeMeters>921.5999755859375</AltitudeMeters>
            <DistanceMeters>NAN</DistanceMeters>
          </Trackpoint>
          <Trackpoint>
            <Time>2021-04-04T07:20:57.000Z</Time>
            <Position>
              <LatitudeDegrees>42.33204516582190990447998046875</LatitudeDegrees>
              <LongitudeDegrees>2.44297265075147151947021484375</LongitudeDegrees>
            </Position>
            <AltitudeMeters>922.20001220703125</AltitudeMeters>
            <DistanceMeters>NAN</DistanceMeters>
          </Trackpoint>
          <Trackpoint>
            <Time>2021-04-04T07:21:01.000Z</Time>
            <Position>
              <LatitudeDegrees>42.332075424492359161376953125</LatitudeDegrees>
              <LongitudeDegrees>2.44300785474479198455810546875</LongitudeDegrees>
            </Position>
            <AltitudeMeters>922.5999755859375</AltitudeMeters>
            <DistanceMeters>NAN</DistanceMeters>
          </Trackpoint>
          <Trackpoint>
            <Time>2021-04-04T07:21:03.000Z</Time>
            <Position>
              <LatitudeDegrees>42.33208942227065563201904296875</LatitudeDegrees>
              <LongitudeDegrees>2.4430238641798496246337890625</LongitudeDegrees>
            </Position>
            <AltitudeMeters>922.79998779296875</AltitudeMeters>
            <DistanceMeters>NAN</DistanceMeters>
          </Trackpoint>
          <Trackpoint>
            <Time>2021-04-04T07:21:06.000Z</Time>
            <Position>
              <LatitudeDegrees>42.3321094550192356109619140625</LatitudeDegrees>
              <LongitudeDegrees>2.44305127300322055816650390625</LongitudeDegrees>
            </Position>
            <AltitudeMeters>923.20001220703125</AltitudeMeters>
            <DistanceMeters>NAN</DistanceMeters>
          </Trackpoint>
          <Trackpoint>
            <Time>2021-04-04T07:21:08.000Z</Time>
            <Position>
              <LatitudeDegrees>42.33212445862591266632080078125</LatitudeDegrees>
              <LongitudeDegrees>2.4430724792182445526123046875</LongitudeDegrees>
            </Position>
            <AltitudeMeters>923.5999755859375</AltitudeMeters>
            <DistanceMeters>NAN</DistanceMeters>
          </Trackpoint>
          <Trackpoint>
            <Time>2021-04-04T07:21:10.000Z</Time>
            <Position>
              <LatitudeDegrees>42.33214683830738067626953125</LatitudeDegrees>
              <LongitudeDegrees>2.44308597408235073089599609375</LongitudeDegrees>
            </Position>
            <AltitudeMeters>923.79998779296875</AltitudeMeters>
            <DistanceMeters>NAN</DistanceMeters>
          </Trackpoint>
          <Trackpoint>
            <Time>2021-04-04T07:21:11.000Z</Time>
            <Position>
              <LatitudeDegrees>42.33215488493442535400390625</LatitudeDegrees>
              <LongitudeDegrees>2.4430939368903636932373046875</LongitudeDegrees>
            </Position>
            <AltitudeMeters>923.79998779296875</AltitudeMeters>
            <DistanceMeters>NAN</DistanceMeters>
          </Trackpoint>
          <Trackpoint>
            <Time>2021-04-04T07:21:13.000Z</Time>
            <Position>
              <LatitudeDegrees>42.33217106200754642486572265625</LatitudeDegrees>
              <LongitudeDegrees>2.44310458190739154815673828125</LongitudeDegrees>
            </Position>
            <AltitudeMeters>924</AltitudeMeters>
            <DistanceMeters>NAN</DistanceMeters>
          </Trackpoint>
          <Trackpoint>
            <Time>2021-04-04T07:21:19.000Z</Time>
            <Position>
              <LatitudeDegrees>42.33224566094577312469482421875</LatitudeDegrees>
              <LongitudeDegrees>2.44319627992808818817138671875</LongitudeDegrees>
            </Position>
            <AltitudeMeters>924.4000244140625</AltitudeMeters>
            <DistanceMeters>NAN</DistanceMeters>
          </Trackpoint>
          <Trackpoint>
            <Time>2021-04-04T07:21:20.000Z</Time>
            <Position>
              <LatitudeDegrees>42.3322489298880100250244140625</LatitudeDegrees>
              <LongitudeDegrees>2.44320608675479888916015625</LongitudeDegrees>
            </Position>
            <AltitudeMeters>924.4000244140625</AltitudeMeters>
            <DistanceMeters>NAN</DistanceMeters>
          </Trackpoint>
          <Trackpoint>
            <Time>2021-04-04T07:21:21.000Z</Time>
            <Position>
              <LatitudeDegrees>42.33225856907665729522705078125</LatitudeDegrees>
              <LongitudeDegrees>2.44321522302925586700439453125</LongitudeDegrees>
            </Position>
            <AltitudeMeters>924.5999755859375</AltitudeMeters>
            <DistanceMeters>NAN</DistanceMeters>
          </Trackpoint>
          <Trackpoint>
            <Time>2021-04-04T07:21:24.000Z</Time>
            <Position>
              <LatitudeDegrees>42.3322878219187259674072265625</LatitudeDegrees>
              <LongitudeDegrees>2.4432443082332611083984375</LongitudeDegrees>
            </Position>
            <AltitudeMeters>924.79998779296875</AltitudeMeters>
            <DistanceMeters>NAN</DistanceMeters>
          </Trackpoint>
          <Trackpoint>
            <Time>2021-04-04T07:21:29.000Z</Time>
            <Position>
              <LatitudeDegrees>42.3323102854192256927490234375</LatitudeDegrees>
              <LongitudeDegrees>2.443285882472991943359375</LongitudeDegrees>
            </Position>
            <AltitudeMeters>925.20001220703125</AltitudeMeters>
            <DistanceMeters>NAN</DistanceMeters>
          </Trackpoint>
          <Trackpoint>
            <Time>2021-04-04T07:21:31.000Z</Time>
            <Position>
              <LatitudeDegrees>42.33232227154076099395751953125</LatitudeDegrees>
              <LongitudeDegrees>2.44330004788935184478759765625</LongitudeDegrees>
            </Position>
            <AltitudeMeters>925.5999755859375</AltitudeMeters>
            <DistanceMeters>NAN</DistanceMeters>
          </Trackpoint>
          <Trackpoint>
            <Time>2021-04-04T07:21:35.000Z</Time>
            <Position>
              <LatitudeDegrees>42.33235110528767108917236328125</LatitudeDegrees>
              <LongitudeDegrees>2.44332653470337390899658203125</LongitudeDegrees>
            </Position>
            <AltitudeMeters>926</AltitudeMeters>
            <DistanceMeters>NAN</DistanceMeters>
          </Trackpoint>
          <Trackpoint>
            <Time>2021-04-04T07:21:38.000Z</Time>
            <Position>
              <LatitudeDegrees>42.33238630928099155426025390625</LatitudeDegrees>
              <LongitudeDegrees>2.4433577992022037506103515625</LongitudeDegrees>
            </Position>
            <AltitudeMeters>926.4000244140625</AltitudeMeters>
            <DistanceMeters>NAN</DistanceMeters>
          </Trackpoint>
          <Trackpoint>
            <Time>2021-04-04T07:21:41.000Z</Time>
            <Position>
              <LatitudeDegrees>42.33241640031337738037109375</LatitudeDegrees>
              <LongitudeDegrees>2.443380095064640045166015625</LongitudeDegrees>
            </Position>
            <AltitudeMeters>926.5999755859375</AltitudeMeters>
            <DistanceMeters>NAN</DistanceMeters>
          </Trackpoint>
          <Trackpoint>
            <Time>2021-04-04T07:21:44.000Z</Time>
            <Position>
              <LatitudeDegrees>42.33244783245027065277099609375</LatitudeDegrees>
              <LongitudeDegrees>2.44340599514544010162353515625</LongitudeDegrees>
            </Position>
            <AltitudeMeters>927</AltitudeMeters>
            <DistanceMeters>NAN</DistanceMeters>
          </Trackpoint>
          <Trackpoint>
            <Time>2021-04-04T07:21:45.000Z</Time>
            <Position>
              <LatitudeDegrees>42.332452274858951568603515625</LatitudeDegrees>
              <LongitudeDegrees>2.4434127844870090484619140625</LongitudeDegrees>
            </Position>
            <AltitudeMeters>927</AltitudeMeters>
            <DistanceMeters>NAN</DistanceMeters>
          </Trackpoint>
          <Trackpoint>
            <Time>2021-04-04T07:21:48.000Z</Time>
            <Position>
              <LatitudeDegrees>42.33246359042823314666748046875</LatitudeDegrees>
              <LongitudeDegrees>2.44343407452106475830078125</LongitudeDegrees>
            </Position>
            <AltitudeMeters>927.20001220703125</AltitudeMeters>
            <DistanceMeters>NAN</DistanceMeters>
          </Trackpoint>
          <Trackpoint>
            <Time>2021-04-04T07:21:49.000Z</Time>
            <Position>
              <LatitudeDegrees>42.33246761374175548553466796875</LatitudeDegrees>
              <LongitudeDegrees>2.44343952275812625885009765625</LongitudeDegrees>
            </Position>
            <AltitudeMeters>927.4000244140625</AltitudeMeters>
            <DistanceMeters>NAN</DistanceMeters>
          </Trackpoint>
          <Trackpoint>
            <Time>2021-04-04T07:21:53.000Z</Time>
            <Position>
              <LatitudeDegrees>42.3324859701097011566162109375</LatitudeDegrees>
              <LongitudeDegrees>2.44349266402423381805419921875</LongitudeDegrees>
            </Position>
            <AltitudeMeters>927.79998779296875</AltitudeMeters>
            <DistanceMeters>NAN</DistanceMeters>
          </Trackpoint>
          <Trackpoint>
            <Time>2021-04-04T07:21:54.000Z</Time>
            <Position>
              <LatitudeDegrees>42.3324913345277309417724609375</LatitudeDegrees>
              <LongitudeDegrees>2.44350288994610309600830078125</LongitudeDegrees>
            </Position>
            <AltitudeMeters>927.79998779296875</AltitudeMeters>
            <DistanceMeters>NAN</DistanceMeters>
          </Trackpoint>
          <Trackpoint>
            <Time>2021-04-04T07:21:55.000Z</Time>
            <Position>
              <LatitudeDegrees>42.33249510638415813446044921875</LatitudeDegrees>
              <LongitudeDegrees>2.44351060129702091217041015625</LongitudeDegrees>
            </Position>
            <AltitudeMeters>928</AltitudeMeters>
            <DistanceMeters>NAN</DistanceMeters>
          </Trackpoint>
          <Trackpoint>
            <Time>2021-04-04T07:21:57.000Z</Time>
            <Position>
              <LatitudeDegrees>42.33249954879283905029296875</LatitudeDegrees>
              <LongitudeDegrees>2.44352568872272968292236328125</LongitudeDegrees>
            </Position>
            <AltitudeMeters>928.20001220703125</AltitudeMeters>
            <DistanceMeters>NAN</DistanceMeters>
          </Trackpoint>
          <Trackpoint>
            <Time>2021-04-04T07:22:01.000Z</Time>
            <Position>
              <LatitudeDegrees>42.3325121216475963592529296875</LatitudeDegrees>
              <LongitudeDegrees>2.44356307201087474822998046875</LongitudeDegrees>
            </Position>
            <AltitudeMeters>928.5999755859375</AltitudeMeters>
            <DistanceMeters>NAN</DistanceMeters>
          </Trackpoint>
          <Trackpoint>
            <Time>2021-04-04T07:22:03.000Z</Time>
            <Position>
              <LatitudeDegrees>42.33252771198749542236328125</LatitudeDegrees>
              <LongitudeDegrees>2.44357489049434661865234375</LongitudeDegrees>
            </Position>
            <AltitudeMeters>928.79998779296875</AltitudeMeters>
            <DistanceMeters>NAN</DistanceMeters>
          </Trackpoint>
          <Trackpoint>
            <Time>2021-04-04T07:22:05.000Z</Time>
            <Position>
              <LatitudeDegrees>42.33253114856779575347900390625</LatitudeDegrees>
              <LongitudeDegrees>2.443598024547100067138671875</LongitudeDegrees>
            </Position>
            <AltitudeMeters>929</AltitudeMeters>
            <DistanceMeters>NAN</DistanceMeters>
          </Trackpoint>
          <Trackpoint>
            <Time>2021-04-04T07:22:06.000Z</Time>
            <Position>
              <LatitudeDegrees>42.332534082233905792236328125</LatitudeDegrees>
              <LongitudeDegrees>2.4436072446405887603759765625</LongitudeDegrees>
            </Position>
            <AltitudeMeters>929</AltitudeMeters>
            <DistanceMeters>NAN</DistanceMeters>
          </Trackpoint>
          <Trackpoint>
            <Time>2021-04-04T07:22:13.000Z</Time>
            <Position>
              <LatitudeDegrees>42.33257389627397060394287109375</LatitudeDegrees>
              <LongitudeDegrees>2.44366901926696300506591796875</LongitudeDegrees>
            </Position>
            <AltitudeMeters>930</AltitudeMeters>
            <DistanceMeters>NAN</DistanceMeters>
          </Trackpoint>
          <Trackpoint>
            <Time>2021-04-04T07:22:15.000Z</Time>
            <Position>
              <LatitudeDegrees>42.332588732242584228515625</LatitudeDegrees>
              <LongitudeDegrees>2.4436843581497669219970703125</LongitudeDegrees>
            </Position>
            <AltitudeMeters>930.20001220703125</AltitudeMeters>
            <DistanceMeters>NAN</DistanceMeters>
          </Trackpoint>
          <Trackpoint>
            <Time>2021-04-04T07:22:18.000Z</Time>
            <Position>
              <LatitudeDegrees>42.3326168954372406005859375</LatitudeDegrees>
              <LongitudeDegrees>2.443704642355442047119140625</LongitudeDegrees>
            </Position>
            <AltitudeMeters>930.4000244140625</AltitudeMeters>
            <DistanceMeters>NAN</DistanceMeters>
          </Trackpoint>
          <Trackpoint>
            <Time>2021-04-04T07:22:23.000Z</Time>
            <Position>
              <LatitudeDegrees>42.33265771530568599700927734375</LatitudeDegrees>
              <LongitudeDegrees>2.4437405169010162353515625</LongitudeDegrees>
            </Position>
            <AltitudeMeters>931</AltitudeMeters>
            <DistanceMeters>NAN</DistanceMeters>
          </Trackpoint>
          <Trackpoint>
            <Time>2021-04-04T07:22:24.000Z</Time>
            <Position>
              <LatitudeDegrees>42.33266693539917469024658203125</LatitudeDegrees>
              <LongitudeDegrees>2.4437490664422512054443359375</LongitudeDegrees>
            </Position>
            <AltitudeMeters>931.20001220703125</AltitudeMeters>
            <DistanceMeters>NAN</DistanceMeters>
          </Trackpoint>
          <Trackpoint>
            <Time>2021-04-04T07:22:25.000Z</Time>
            <Position>
              <LatitudeDegrees>42.3326750658452510833740234375</LatitudeDegrees>
              <LongitudeDegrees>2.44375870563089847564697265625</LongitudeDegrees>
            </Position>
            <AltitudeMeters>931.20001220703125</AltitudeMeters>
            <DistanceMeters>NAN</DistanceMeters>
          </Trackpoint>
          <Trackpoint>
            <Time>2021-04-04T07:22:30.000Z</Time>
            <Position>
              <LatitudeDegrees>42.3327159695327281951904296875</LatitudeDegrees>
              <LongitudeDegrees>2.4437933228909969329833984375</LongitudeDegrees>
            </Position>
            <AltitudeMeters>931.5999755859375</AltitudeMeters>
            <DistanceMeters>NAN</DistanceMeters>
          </Trackpoint>
          <Trackpoint>
            <Time>2021-04-04T07:22:31.000Z</Time>
            <Position>
              <LatitudeDegrees>42.33272611163556575775146484375</LatitudeDegrees>
              <LongitudeDegrees>2.44379726238548755645751953125</LongitudeDegrees>
            </Position>
            <AltitudeMeters>931.79998779296875</AltitudeMeters>
            <DistanceMeters>NAN</DistanceMeters>
          </Trackpoint>
          <Trackpoint>
            <Time>2021-04-04T07:22:33.000Z</Time>
            <Position>
              <LatitudeDegrees>42.33273784630000591278076171875</LatitudeDegrees>
              <LongitudeDegrees>2.443807236850261688232421875</LongitudeDegrees>
            </Position>
            <AltitudeMeters>932</AltitudeMeters>
            <DistanceMeters>NAN</DistanceMeters>
          </Trackpoint>
          <Trackpoint>
            <Time>2021-04-04T07:22:35.000Z</Time>
            <Position>
              <LatitudeDegrees>42.33275276608765125274658203125</LatitudeDegrees>
              <LongitudeDegrees>2.44382207281887531280517578125</LongitudeDegrees>
            </Position>
            <AltitudeMeters>932.20001220703125</AltitudeMeters>
            <DistanceMeters>NAN</DistanceMeters>
          </Trackpoint>
          <Trackpoint>
            <Time>2021-04-04T07:22:37.000Z</Time>
            <Position>
              <LatitudeDegrees>42.3327659256756305694580078125</LatitudeDegrees>
              <LongitudeDegrees>2.44383263401687145233154296875</LongitudeDegrees>
            </Position>
            <AltitudeMeters>932.4000244140625</AltitudeMeters>
            <DistanceMeters>NAN</DistanceMeters>
          </Trackpoint>
          <Trackpoint>
            <Time>2021-04-04T07:22:39.000Z</Time>
            <Position>
              <LatitudeDegrees>42.332780845463275909423828125</LatitudeDegrees>
              <LongitudeDegrees>2.44384068064391613006591796875</LongitudeDegrees>
            </Position>
            <AltitudeMeters>932.5999755859375</AltitudeMeters>
            <DistanceMeters>NAN</DistanceMeters>
          </Trackpoint>
          <Trackpoint>
            <Time>2021-04-04T07:22:41.000Z</Time>
            <Position>
              <LatitudeDegrees>42.33280037529766559600830078125</LatitudeDegrees>
              <LongitudeDegrees>2.44384436868131160736083984375</LongitudeDegrees>
            </Position>
            <AltitudeMeters>932.79998779296875</AltitudeMeters>
            <DistanceMeters>NAN</DistanceMeters>
          </Trackpoint>
          <Trackpoint>
            <Time>2021-04-04T07:22:45.000Z</Time>
            <Position>
              <LatitudeDegrees>42.3328234255313873291015625</LatitudeDegrees>
              <LongitudeDegrees>2.44383095763623714447021484375</LongitudeDegrees>
            </Position>
            <AltitudeMeters>933.20001220703125</AltitudeMeters>
            <DistanceMeters>NAN</DistanceMeters>
          </Trackpoint>
          <Trackpoint>
            <Time>2021-04-04T07:22:52.000Z</Time>
            <Position>
              <LatitudeDegrees>42.33277380466461181640625</LatitudeDegrees>
              <LongitudeDegrees>2.44380648247897624969482421875</LongitudeDegrees>
            </Position>
            <AltitudeMeters>933.4000244140625</AltitudeMeters>
            <DistanceMeters>NAN</DistanceMeters>
          </Trackpoint>
          <Trackpoint>
            <Time>2021-04-04T07:22:55.000Z</Time>
            <Position>
              <LatitudeDegrees>42.33277380466461181640625</LatitudeDegrees>
              <LongitudeDegrees>2.44380648247897624969482421875</LongitudeDegrees>
            </Position>
            <AltitudeMeters>933.20001220703125</AltitudeMeters>
            <DistanceMeters>NAN</DistanceMeters>
          </Trackpoint>
          <Trackpoint>
            <Time>2021-04-04T07:23:09.000Z</Time>
            <Position>
              <LatitudeDegrees>42.332765422761440277099609375</LatitudeDegrees>
              <LongitudeDegrees>2.4438248388469219207763671875</LongitudeDegrees>
            </Position>
            <AltitudeMeters>933.20001220703125</AltitudeMeters>
            <DistanceMeters>NAN</DistanceMeters>
          </Trackpoint>
          <Trackpoint>
            <Time>2021-04-04T07:23:12.000Z</Time>
            <Position>
              <LatitudeDegrees>42.332763411104679107666015625</LatitudeDegrees>
              <LongitudeDegrees>2.443833388388156890869140625</LongitudeDegrees>
            </Position>
            <AltitudeMeters>933.20001220703125</AltitudeMeters>
            <DistanceMeters>NAN</DistanceMeters>
          </Trackpoint>
          <Trackpoint>
            <Time>2021-04-04T07:23:16.000Z</Time>
            <Position>
              <LatitudeDegrees>42.332763411104679107666015625</LatitudeDegrees>
              <LongitudeDegrees>2.4438424408435821533203125</LongitudeDegrees>
            </Position>
            <AltitudeMeters>933</AltitudeMeters>
            <DistanceMeters>NAN</DistanceMeters>
          </Trackpoint>
          <Trackpoint>
            <Time>2021-04-04T07:23:19.000Z</Time>
            <Position>
              <LatitudeDegrees>42.332763411104679107666015625</LatitudeDegrees>
              <LongitudeDegrees>2.4438546784222126007080078125</LongitudeDegrees>
            </Position>
            <AltitudeMeters>933</AltitudeMeters>
            <DistanceMeters>NAN</DistanceMeters>
          </Trackpoint>
          <Trackpoint>
            <Time>2021-04-04T07:23:32.000Z</Time>
            <Position>
              <LatitudeDegrees>42.3327746428549289703369140625</LatitudeDegrees>
              <LongitudeDegrees>2.44388611055910587310791015625</LongitudeDegrees>
            </Position>
            <AltitudeMeters>933.5999755859375</AltitudeMeters>
            <DistanceMeters>NAN</DistanceMeters>
          </Trackpoint>
          <Trackpoint>
            <Time>2021-04-04T07:23:37.000Z</Time>
            <Position>
              <LatitudeDegrees>42.33279886655509471893310546875</LatitudeDegrees>
              <LongitudeDegrees>2.4439009465277194976806640625</LongitudeDegrees>
            </Position>
            <AltitudeMeters>933.79998779296875</AltitudeMeters>
            <DistanceMeters>NAN</DistanceMeters>
          </Trackpoint>
          <Trackpoint>
            <Time>2021-04-04T07:23:47.000Z</Time>
            <Position>
              <LatitudeDegrees>42.332819737493991851806640625</LatitudeDegrees>
              <LongitudeDegrees>2.44391410611569881439208984375</LongitudeDegrees>
            </Position>
            <AltitudeMeters>933.20001220703125</AltitudeMeters>
            <DistanceMeters>NAN</DistanceMeters>
          </Trackpoint>
          <Trackpoint>
            <Time>2021-04-04T07:23:59.000Z</Time>
            <Position>
              <LatitudeDegrees>42.33281881548464298248291015625</LatitudeDegrees>
              <LongitudeDegrees>2.44391628541052341461181640625</LongitudeDegrees>
            </Position>
            <AltitudeMeters>933</AltitudeMeters>
            <DistanceMeters>NAN</DistanceMeters>
          </Trackpoint>
          <Trackpoint>
            <Time>2021-04-04T07:24:07.000Z</Time>
            <Position>
              <LatitudeDegrees>42.3328001238405704498291015625</LatitudeDegrees>
              <LongitudeDegrees>2.4439059756696224212646484375</LongitudeDegrees>
            </Position>
            <AltitudeMeters>933</AltitudeMeters>
            <DistanceMeters>NAN</DistanceMeters>
          </Trackpoint>
          <Trackpoint>
            <Time>2021-04-04T07:24:15.000Z</Time>
            <Position>
              <LatitudeDegrees>42.33276852406561374664306640625</LatitudeDegrees>
              <LongitudeDegrees>2.44386733509600162506103515625</LongitudeDegrees>
            </Position>
            <AltitudeMeters>933</AltitudeMeters>
            <DistanceMeters>NAN</DistanceMeters>
          </Trackpoint>
          <Trackpoint>
            <Time>2021-04-04T07:24:22.000Z</Time>
            <Position>
              <LatitudeDegrees>42.33275569975376129150390625</LatitudeDegrees>
              <LongitudeDegrees>2.4438281916081905364990234375</LongitudeDegrees>
            </Position>
            <AltitudeMeters>933</AltitudeMeters>
            <DistanceMeters>NAN</DistanceMeters>
          </Trackpoint>
          <Trackpoint>
            <Time>2021-04-04T07:24:28.000Z</Time>
            <Position>
              <LatitudeDegrees>42.33275569975376129150390625</LatitudeDegrees>
              <LongitudeDegrees>2.44381872005760669708251953125</LongitudeDegrees>
            </Position>
            <AltitudeMeters>933</AltitudeMeters>
            <DistanceMeters>NAN</DistanceMeters>
          </Trackpoint>
          <Trackpoint>
            <Time>2021-04-04T07:24:45.000Z</Time>
            <Position>
              <LatitudeDegrees>42.3327605612576007843017578125</LatitudeDegrees>
              <LongitudeDegrees>2.4438077397644519805908203125</LongitudeDegrees>
            </Position>
            <AltitudeMeters>933</AltitudeMeters>
            <DistanceMeters>NAN</DistanceMeters>
          </Trackpoint>
          <Trackpoint>
            <Time>2021-04-04T07:25:03.000Z</Time>
            <Position>
              <LatitudeDegrees>42.33275326900184154510498046875</LatitudeDegrees>
              <LongitudeDegrees>2.4438030458986759185791015625</LongitudeDegrees>
            </Position>
            <AltitudeMeters>933</AltitudeMeters>
            <DistanceMeters>NAN</DistanceMeters>
          </Trackpoint>
          <Trackpoint>
            <Time>2021-04-04T07:25:52.000Z</Time>
            <Position>
              <LatitudeDegrees>42.3327196575701236724853515625</LatitudeDegrees>
              <LongitudeDegrees>2.44382961653172969818115234375</LongitudeDegrees>
            </Position>
            <AltitudeMeters>933</AltitudeMeters>
            <DistanceMeters>NAN</DistanceMeters>
          </Trackpoint>
          <Trackpoint>
            <Time>2021-04-04T07:26:01.000Z</Time>
            <Position>
              <LatitudeDegrees>42.33271622098982334136962890625</LatitudeDegrees>
              <LongitudeDegrees>2.44383531622588634490966796875</LongitudeDegrees>
            </Position>
            <AltitudeMeters>933</AltitudeMeters>
            <DistanceMeters>NAN</DistanceMeters>
          </Trackpoint>
          <Trackpoint>
            <Time>2021-04-04T07:26:03.000Z</Time>
            <Position>
              <LatitudeDegrees>42.33271555043756961822509765625</LatitudeDegrees>
              <LongitudeDegrees>2.4438369087874889373779296875</LongitudeDegrees>
            </Position>
            <AltitudeMeters>933</AltitudeMeters>
            <DistanceMeters>NAN</DistanceMeters>
          </Trackpoint>
          <Trackpoint>
            <Time>2021-04-04T07:26:08.000Z</Time>
            <Position>
              <LatitudeDegrees>42.332714460790157318115234375</LatitudeDegrees>
              <LongitudeDegrees>2.4438397586345672607421875</LongitudeDegrees>
            </Position>
            <AltitudeMeters>933</AltitudeMeters>
            <DistanceMeters>NAN</DistanceMeters>
          </Trackpoint>
          <Trackpoint>
            <Time>2021-04-04T07:26:10.000Z</Time>
            <Position>
              <LatitudeDegrees>42.33271420933306217193603515625</LatitudeDegrees>
              <LongitudeDegrees>2.4438402615487575531005859375</LongitudeDegrees>
            </Position>
            <AltitudeMeters>933</AltitudeMeters>
            <DistanceMeters>NAN</DistanceMeters>
          </Trackpoint>
          <Trackpoint>
            <Time>2021-04-04T07:26:15.000Z</Time>
            <Position>
              <LatitudeDegrees>42.33271412551403045654296875</LatitudeDegrees>
              <LongitudeDegrees>2.44384051300585269927978515625</LongitudeDegrees>
            </Position>
            <AltitudeMeters>933</AltitudeMeters>
            <DistanceMeters>NAN</DistanceMeters>
          </Trackpoint>
          <Trackpoint>
            <Time>2021-04-04T07:26:22.000Z</Time>
            <Position>
              <LatitudeDegrees>42.33271404169499874114990234375</LatitudeDegrees>
              <LongitudeDegrees>2.443840764462947845458984375</LongitudeDegrees>
            </Position>
            <AltitudeMeters>933</AltitudeMeters>
            <DistanceMeters>NAN</DistanceMeters>
          </Trackpoint>
          <Trackpoint>
            <Time>2021-04-04T07:26:45.000Z</Time>
            <Position>
              <LatitudeDegrees>42.33271471224725246429443359375</LatitudeDegrees>
              <LongitudeDegrees>2.44384185411036014556884765625</LongitudeDegrees>
            </Position>
            <AltitudeMeters>933</AltitudeMeters>
            <DistanceMeters>NAN</DistanceMeters>
          </Trackpoint>
          <Trackpoint>
            <Time>2021-04-04T07:27:01.000Z</Time>
            <Position>
              <LatitudeDegrees>42.3327161371707916259765625</LatitudeDegrees>
              <LongitudeDegrees>2.44384353049099445343017578125</LongitudeDegrees>
            </Position>
            <AltitudeMeters>933</AltitudeMeters>
            <DistanceMeters>NAN</DistanceMeters>
          </Trackpoint>
          <Trackpoint>
            <Time>2021-04-04T07:27:07.000Z</Time>
            <Position>
              <LatitudeDegrees>42.33271689154207706451416015625</LatitudeDegrees>
              <LongitudeDegrees>2.4438442848622798919677734375</LongitudeDegrees>
            </Position>
            <AltitudeMeters>933</AltitudeMeters>
            <DistanceMeters>NAN</DistanceMeters>
          </Trackpoint>
          <Trackpoint>
            <Time>2021-04-04T07:27:11.000Z</Time>
            <Position>
              <LatitudeDegrees>42.33271739445626735687255859375</LatitudeDegrees>
              <LongitudeDegrees>2.4438446201384067535400390625</LongitudeDegrees>
            </Position>
            <AltitudeMeters>933</AltitudeMeters>
            <DistanceMeters>NAN</DistanceMeters>
          </Trackpoint>
          <Trackpoint>
            <Time>2021-04-04T07:27:16.000Z</Time>
            <Position>
              <LatitudeDegrees>42.33271806500852108001708984375</LatitudeDegrees>
              <LongitudeDegrees>2.4438449554145336151123046875</LongitudeDegrees>
            </Position>
            <AltitudeMeters>933</AltitudeMeters>
            <DistanceMeters>NAN</DistanceMeters>
          </Trackpoint>
          <Trackpoint>
            <Time>2021-04-04T07:27:23.000Z</Time>
            <Position>
              <LatitudeDegrees>42.33271890319883823394775390625</LatitudeDegrees>
              <LongitudeDegrees>2.44384503923356533050537109375</LongitudeDegrees>
            </Position>
            <AltitudeMeters>933</AltitudeMeters>
            <DistanceMeters>NAN</DistanceMeters>
          </Trackpoint>
          <Trackpoint>
            <Time>2021-04-04T07:27:54.000Z</Time>
            <Position>
              <LatitudeDegrees>42.33272292651236057281494140625</LatitudeDegrees>
              <LongitudeDegrees>2.44384453631937503814697265625</LongitudeDegrees>
            </Position>
            <AltitudeMeters>933</AltitudeMeters>
            <DistanceMeters>NAN</DistanceMeters>
          </Trackpoint>
          <Trackpoint>
            <Time>2021-04-04T07:27:59.000Z</Time>
            <Position>
              <LatitudeDegrees>42.33272359706461429595947265625</LatitudeDegrees>
              <LongitudeDegrees>2.44384436868131160736083984375</LongitudeDegrees>
            </Position>
            <AltitudeMeters>933</AltitudeMeters>
            <DistanceMeters>NAN</DistanceMeters>
          </Trackpoint>
          <Trackpoint>
            <Time>2021-04-04T07:28:02.000Z</Time>
            <Position>
              <LatitudeDegrees>42.3327240161597728729248046875</LatitudeDegrees>
              <LongitudeDegrees>2.4438442848622798919677734375</LongitudeDegrees>
            </Position>
            <AltitudeMeters>933</AltitudeMeters>
            <DistanceMeters>NAN</DistanceMeters>
          </Trackpoint>
          <Trackpoint>
            <Time>2021-04-04T07:28:04.000Z</Time>
            <Position>
              <LatitudeDegrees>42.33272426761686801910400390625</LatitudeDegrees>
              <LongitudeDegrees>2.443844117224216461181640625</LongitudeDegrees>
            </Position>
            <AltitudeMeters>933</AltitudeMeters>
            <DistanceMeters>NAN</DistanceMeters>
          </Trackpoint>
          <Trackpoint>
            <Time>2021-04-04T07:28:10.000Z</Time>
            <Position>
              <LatitudeDegrees>42.33272510580718517303466796875</LatitudeDegrees>
              <LongitudeDegrees>2.44384386576712131500244140625</LongitudeDegrees>
            </Position>
            <AltitudeMeters>933</AltitudeMeters>
            <DistanceMeters>NAN</DistanceMeters>
          </Trackpoint>
          <Trackpoint>
            <Time>2021-04-04T07:28:15.000Z</Time>
            <Position>
              <LatitudeDegrees>42.3327256925404071807861328125</LatitudeDegrees>
              <LongitudeDegrees>2.44384369812905788421630859375</LongitudeDegrees>
            </Position>
            <AltitudeMeters>933</AltitudeMeters>
            <DistanceMeters>NAN</DistanceMeters>
          </Trackpoint>
          <Trackpoint>
            <Time>2021-04-04T07:28:18.000Z</Time>
            <Position>
              <LatitudeDegrees>42.3327260278165340423583984375</LatitudeDegrees>
              <LongitudeDegrees>2.4438436143100261688232421875</LongitudeDegrees>
            </Position>
            <AltitudeMeters>933</AltitudeMeters>
            <DistanceMeters>NAN</DistanceMeters>
          </Trackpoint>
          <Trackpoint>
            <Time>2021-04-04T07:28:22.000Z</Time>
            <Position>
              <LatitudeDegrees>42.33272644691169261932373046875</LatitudeDegrees>
              <LongitudeDegrees>2.443843446671962738037109375</LongitudeDegrees>
            </Position>
            <AltitudeMeters>933</AltitudeMeters>
            <DistanceMeters>NAN</DistanceMeters>
          </Trackpoint>
          <Trackpoint>
            <Time>2021-04-04T07:28:41.000Z</Time>
            <Position>
              <LatitudeDegrees>42.33272795565426349639892578125</LatitudeDegrees>
              <LongitudeDegrees>2.44384252466261386871337890625</LongitudeDegrees>
            </Position>
            <AltitudeMeters>933</AltitudeMeters>
            <DistanceMeters>NAN</DistanceMeters>
          </Trackpoint>
          <Trackpoint>
            <Time>2021-04-04T07:28:44.000Z</Time>
            <Position>
              <LatitudeDegrees>42.33272812329232692718505859375</LatitudeDegrees>
              <LongitudeDegrees>2.44384218938648700714111328125</LongitudeDegrees>
            </Position>
            <AltitudeMeters>933</AltitudeMeters>
            <DistanceMeters>NAN</DistanceMeters>
          </Trackpoint>
          <Trackpoint>
            <Time>2021-04-04T07:28:55.000Z</Time>
            <Position>
              <LatitudeDegrees>42.33272887766361236572265625</LatitudeDegrees>
              <LongitudeDegrees>2.44384109973907470703125</LongitudeDegrees>
            </Position>
            <AltitudeMeters>933</AltitudeMeters>
            <DistanceMeters>NAN</DistanceMeters>
          </Trackpoint>
          <Trackpoint>
            <Time>2021-04-04T07:29:07.000Z</Time>
            <Position>
              <LatitudeDegrees>42.33272963203489780426025390625</LatitudeDegrees>
              <LongitudeDegrees>2.44384068064391613006591796875</LongitudeDegrees>
            </Position>
            <AltitudeMeters>933</AltitudeMeters>
            <DistanceMeters>NAN</DistanceMeters>
          </Trackpoint>
          <Trackpoint>
            <Time>2021-04-04T07:29:09.000Z</Time>
            <Position>
              <LatitudeDegrees>42.3327297158539295196533203125</LatitudeDegrees>
              <LongitudeDegrees>2.4438405968248844146728515625</LongitudeDegrees>
            </Position>
            <AltitudeMeters>933</AltitudeMeters>
            <DistanceMeters>NAN</DistanceMeters>
          </Trackpoint>
          <Trackpoint>
            <Time>2021-04-04T07:29:24.000Z</Time>
            <Position>
              <LatitudeDegrees>42.33273030258715152740478515625</LatitudeDegrees>
              <LongitudeDegrees>2.44384034536778926849365234375</LongitudeDegrees>
            </Position>
            <AltitudeMeters>933</AltitudeMeters>
            <DistanceMeters>NAN</DistanceMeters>
          </Trackpoint>
          <Trackpoint>
            <Time>2021-04-04T07:29:25.000Z</Time>
            <Position>
              <LatitudeDegrees>42.3327303864061832427978515625</LatitudeDegrees>
              <LongitudeDegrees>2.44384034536778926849365234375</LongitudeDegrees>
            </Position>
            <AltitudeMeters>933</AltitudeMeters>
            <DistanceMeters>NAN</DistanceMeters>
          </Trackpoint>
          <Trackpoint>
            <Time>2021-04-04T07:29:34.000Z</Time>
            <Position>
              <LatitudeDegrees>42.33273080550134181976318359375</LatitudeDegrees>
              <LongitudeDegrees>2.4438399262726306915283203125</LongitudeDegrees>
            </Position>
            <AltitudeMeters>933</AltitudeMeters>
            <DistanceMeters>NAN</DistanceMeters>
          </Trackpoint>
          <Trackpoint>
            <Time>2021-04-04T07:29:43.000Z</Time>
            <Position>
              <LatitudeDegrees>42.33273130841553211212158203125</LatitudeDegrees>
              <LongitudeDegrees>2.44383950717747211456298828125</LongitudeDegrees>
            </Position>
            <AltitudeMeters>933</AltitudeMeters>
            <DistanceMeters>NAN</DistanceMeters>
          </Trackpoint>
          <Trackpoint>
            <Time>2021-04-04T07:29:51.000Z</Time>
            <Position>
              <LatitudeDegrees>42.332731895148754119873046875</LatitudeDegrees>
              <LongitudeDegrees>2.44383883662521839141845703125</LongitudeDegrees>
            </Position>
            <AltitudeMeters>933</AltitudeMeters>
            <DistanceMeters>NAN</DistanceMeters>
          </Trackpoint>
          <Trackpoint>
            <Time>2021-04-04T07:29:55.000Z</Time>
            <Position>
              <LatitudeDegrees>42.33273214660584926605224609375</LatitudeDegrees>
              <LongitudeDegrees>2.44383850134909152984619140625</LongitudeDegrees>
            </Position>
            <AltitudeMeters>933</AltitudeMeters>
            <DistanceMeters>NAN</DistanceMeters>
          </Trackpoint>
          <Trackpoint>
            <Time>2021-04-04T07:29:58.000Z</Time>
            <Position>
              <LatitudeDegrees>42.3327323980629444122314453125</LatitudeDegrees>
              <LongitudeDegrees>2.4438382498919963836669921875</LongitudeDegrees>
            </Position>
            <AltitudeMeters>933</AltitudeMeters>
            <DistanceMeters>NAN</DistanceMeters>
          </Trackpoint>
          <Trackpoint>
            <Time>2021-04-04T07:30:20.000Z</Time>
            <Position>
              <LatitudeDegrees>42.3327337391674518585205078125</LatitudeDegrees>
              <LongitudeDegrees>2.44383548386394977569580078125</LongitudeDegrees>
            </Position>
            <AltitudeMeters>933</AltitudeMeters>
            <DistanceMeters>NAN</DistanceMeters>
          </Trackpoint>
          <Trackpoint>
            <Time>2021-04-04T07:30:42.000Z</Time>
            <Position>
              <LatitudeDegrees>42.33273566700518131256103515625</LatitudeDegrees>
              <LongitudeDegrees>2.44383363984525203704833984375</LongitudeDegrees>
            </Position>
            <AltitudeMeters>933</AltitudeMeters>
            <DistanceMeters>NAN</DistanceMeters>
          </Trackpoint>
          <Trackpoint>
            <Time>2021-04-04T07:30:45.000Z</Time>
            <Position>
              <LatitudeDegrees>42.3327360861003398895263671875</LatitudeDegrees>
              <LongitudeDegrees>2.44383363984525203704833984375</LongitudeDegrees>
            </Position>
            <AltitudeMeters>933</AltitudeMeters>
            <DistanceMeters>NAN</DistanceMeters>
          </Trackpoint>
          <Trackpoint>
            <Time>2021-04-04T07:30:49.000Z</Time>
            <Position>
              <LatitudeDegrees>42.3327367566525936126708984375</LatitudeDegrees>
              <LongitudeDegrees>2.44383363984525203704833984375</LongitudeDegrees>
            </Position>
            <AltitudeMeters>933</AltitudeMeters>
            <DistanceMeters>NAN</DistanceMeters>
          </Trackpoint>
          <Trackpoint>
            <Time>2021-04-04T07:30:58.000Z</Time>
            <Position>
              <LatitudeDegrees>42.33273868449032306671142578125</LatitudeDegrees>
              <LongitudeDegrees>2.44383372366428375244140625</LongitudeDegrees>
            </Position>
            <AltitudeMeters>933</AltitudeMeters>
            <DistanceMeters>NAN</DistanceMeters>
          </Trackpoint>
          <Trackpoint>
            <Time>2021-04-04T07:31:02.000Z</Time>
            <Position>
              <LatitudeDegrees>42.3327397741377353668212890625</LatitudeDegrees>
              <LongitudeDegrees>2.44383363984525203704833984375</LongitudeDegrees>
            </Position>
            <AltitudeMeters>933</AltitudeMeters>
            <DistanceMeters>NAN</DistanceMeters>
          </Trackpoint>
          <Trackpoint>
            <Time>2021-04-04T07:31:07.000Z</Time>
            <Position>
              <LatitudeDegrees>42.332741282880306243896484375</LatitudeDegrees>
              <LongitudeDegrees>2.44383347220718860626220703125</LongitudeDegrees>
            </Position>
            <AltitudeMeters>933</AltitudeMeters>
            <DistanceMeters>NAN</DistanceMeters>
          </Trackpoint>
          <Trackpoint>
            <Time>2021-04-04T07:31:11.000Z</Time>
            <Position>
              <LatitudeDegrees>42.33274254016578197479248046875</LatitudeDegrees>
              <LongitudeDegrees>2.443833053112030029296875</LongitudeDegrees>
            </Position>
            <AltitudeMeters>933</AltitudeMeters>
            <DistanceMeters>NAN</DistanceMeters>
          </Trackpoint>
          <Trackpoint>
            <Time>2021-04-04T07:31:16.000Z</Time>
            <Position>
              <LatitudeDegrees>42.332744300365447998046875</LatitudeDegrees>
              <LongitudeDegrees>2.44383246637880802154541015625</LongitudeDegrees>
            </Position>
            <AltitudeMeters>933</AltitudeMeters>
            <DistanceMeters>NAN</DistanceMeters>
          </Trackpoint>
          <Trackpoint>
            <Time>2021-04-04T07:31:24.000Z</Time>
            <Position>
              <LatitudeDegrees>42.33274756930768489837646484375</LatitudeDegrees>
              <LongitudeDegrees>2.44383146055042743682861328125</LongitudeDegrees>
            </Position>
            <AltitudeMeters>933</AltitudeMeters>
            <DistanceMeters>NAN</DistanceMeters>
          </Trackpoint>
          <Trackpoint>
            <Time>2021-04-04T07:31:29.000Z</Time>
            <Position>
              <LatitudeDegrees>42.3327498324215412139892578125</LatitudeDegrees>
              <LongitudeDegrees>2.4438305385410785675048828125</LongitudeDegrees>
            </Position>
            <AltitudeMeters>933</AltitudeMeters>
            <DistanceMeters>NAN</DistanceMeters>
          </Trackpoint>
          <Trackpoint>
            <Time>2021-04-04T07:31:33.000Z</Time>
            <Position>
              <LatitudeDegrees>42.33293138444423675537109375</LatitudeDegrees>
              <LongitudeDegrees>2.4437359906733036041259765625</LongitudeDegrees>
            </Position>
            <AltitudeMeters>933</AltitudeMeters>
            <DistanceMeters>NAN</DistanceMeters>
          </Trackpoint>
          <Trackpoint>
            <Time>2021-04-04T07:31:36.000Z</Time>
            <Position>
              <LatitudeDegrees>42.3330743797123432159423828125</LatitudeDegrees>
              <LongitudeDegrees>2.44366231374442577362060546875</LongitudeDegrees>
            </Position>
            <AltitudeMeters>933</AltitudeMeters>
            <DistanceMeters>NAN</DistanceMeters>
          </Trackpoint>
          <Trackpoint>
            <Time>2021-04-04T07:31:41.000Z</Time>
            <Position>
              <LatitudeDegrees>42.3332257568836212158203125</LatitudeDegrees>
              <LongitudeDegrees>2.443593330681324005126953125</LongitudeDegrees>
            </Position>
            <AltitudeMeters>933.4000244140625</AltitudeMeters>
            <DistanceMeters>NAN</DistanceMeters>
          </Trackpoint>
          <Trackpoint>
            <Time>2021-04-04T07:31:44.000Z</Time>
            <Position>
              <LatitudeDegrees>42.33324788510799407958984375</LatitudeDegrees>
              <LongitudeDegrees>2.44358201511204242706298828125</LongitudeDegrees>
            </Position>
            <AltitudeMeters>933.79998779296875</AltitudeMeters>
            <DistanceMeters>NAN</DistanceMeters>
          </Trackpoint>
          <Trackpoint>
            <Time>2021-04-04T07:31:49.000Z</Time>
            <Position>
              <LatitudeDegrees>42.33331234194338321685791015625</LatitudeDegrees>
              <LongitudeDegrees>2.4435546062886714935302734375</LongitudeDegrees>
            </Position>
            <AltitudeMeters>934.20001220703125</AltitudeMeters>
            <DistanceMeters>NAN</DistanceMeters>
          </Trackpoint>
          <Trackpoint>
            <Time>2021-04-04T07:31:51.000Z</Time>
            <Position>
              <LatitudeDegrees>42.33332240022718906402587890625</LatitudeDegrees>
              <LongitudeDegrees>2.4435608088970184326171875</LongitudeDegrees>
            </Position>
            <AltitudeMeters>934.20001220703125</AltitudeMeters>
            <DistanceMeters>NAN</DistanceMeters>
          </Trackpoint>
          <Trackpoint>
            <Time>2021-04-04T07:31:55.000Z</Time>
            <Position>
              <LatitudeDegrees>42.333347462117671966552734375</LatitudeDegrees>
              <LongitudeDegrees>2.44355234317481517791748046875</LongitudeDegrees>
            </Position>
            <AltitudeMeters>934.5999755859375</AltitudeMeters>
            <DistanceMeters>NAN</DistanceMeters>
          </Trackpoint>
          <Trackpoint>
            <Time>2021-04-04T07:31:59.000Z</Time>
            <Position>
              <LatitudeDegrees>42.33339272439479827880859375</LatitudeDegrees>
              <LongitudeDegrees>2.44355133734643459320068359375</LongitudeDegrees>
            </Position>
            <AltitudeMeters>934.79998779296875</AltitudeMeters>
            <DistanceMeters>NAN</DistanceMeters>
          </Trackpoint>
          <Trackpoint>
            <Time>2021-04-04T07:32:01.000Z</Time>
            <Position>
              <LatitudeDegrees>42.3334069736301898956298828125</LatitudeDegrees>
              <LongitudeDegrees>2.4435482360422611236572265625</LongitudeDegrees>
            </Position>
            <AltitudeMeters>935.20001220703125</AltitudeMeters>
            <DistanceMeters>NAN</DistanceMeters>
          </Trackpoint>
          <Trackpoint>
            <Time>2021-04-04T07:32:03.000Z</Time>
            <Position>
              <LatitudeDegrees>42.33342600055038928985595703125</LatitudeDegrees>
              <LongitudeDegrees>2.4435393512248992919921875</LongitudeDegrees>
            </Position>
            <AltitudeMeters>935.4000244140625</AltitudeMeters>
            <DistanceMeters>NAN</DistanceMeters>
          </Trackpoint>
          <Trackpoint>
            <Time>2021-04-04T07:32:09.000Z</Time>
            <Position>
              <LatitudeDegrees>42.3334872722625732421875</LatitudeDegrees>
              <LongitudeDegrees>2.4435093440115451812744140625</LongitudeDegrees>
            </Position>
            <AltitudeMeters>935.79998779296875</AltitudeMeters>
            <DistanceMeters>NAN</DistanceMeters>
          </Trackpoint>
          <Trackpoint>
            <Time>2021-04-04T07:32:10.000Z</Time>
            <Position>
              <LatitudeDegrees>42.3334958218038082122802734375</LatitudeDegrees>
              <LongitudeDegrees>2.4435137026011943817138671875</LongitudeDegrees>
            </Position>
            <AltitudeMeters>936</AltitudeMeters>
            <DistanceMeters>NAN</DistanceMeters>
          </Trackpoint>
          <Trackpoint>
            <Time>2021-04-04T07:32:13.000Z</Time>
            <Position>
              <LatitudeDegrees>42.333517111837863922119140625</LatitudeDegrees>
              <LongitudeDegrees>2.443500123918056488037109375</LongitudeDegrees>
            </Position>
            <AltitudeMeters>936.20001220703125</AltitudeMeters>
            <DistanceMeters>NAN</DistanceMeters>
          </Trackpoint>
          <Trackpoint>
            <Time>2021-04-04T07:32:15.000Z</Time>
            <Position>
              <LatitudeDegrees>42.33352222479879856109619140625</LatitudeDegrees>
              <LongitudeDegrees>2.44349333457648754119873046875</LongitudeDegrees>
            </Position>
            <AltitudeMeters>936.4000244140625</AltitudeMeters>
            <DistanceMeters>NAN</DistanceMeters>
          </Trackpoint>
          <Trackpoint>
            <Time>2021-04-04T07:32:16.000Z</Time>
            <Position>
              <LatitudeDegrees>42.33352574519813060760498046875</LatitudeDegrees>
              <LongitudeDegrees>2.44349149055778980255126953125</LongitudeDegrees>
            </Position>
            <AltitudeMeters>936.4000244140625</AltitudeMeters>
            <DistanceMeters>NAN</DistanceMeters>
          </Trackpoint>
          <Trackpoint>
            <Time>2021-04-04T07:32:17.000Z</Time>
            <Position>
              <LatitudeDegrees>42.3335337080061435699462890625</LatitudeDegrees>
              <LongitudeDegrees>2.443490736186504364013671875</LongitudeDegrees>
            </Position>
            <AltitudeMeters>936.5999755859375</AltitudeMeters>
            <DistanceMeters>NAN</DistanceMeters>
          </Trackpoint>
          <Trackpoint>
            <Time>2021-04-04T07:32:19.000Z</Time>
            <Position>
              <LatitudeDegrees>42.333545945584774017333984375</LatitudeDegrees>
              <LongitudeDegrees>2.4434838630259037017822265625</LongitudeDegrees>
            </Position>
            <AltitudeMeters>936.79998779296875</AltitudeMeters>
            <DistanceMeters>NAN</DistanceMeters>
          </Trackpoint>
          <Trackpoint>
            <Time>2021-04-04T07:32:22.000Z</Time>
            <Position>
              <LatitudeDegrees>42.33356279321014881134033203125</LatitudeDegrees>
              <LongitudeDegrees>2.4434624053537845611572265625</LongitudeDegrees>
            </Position>
            <AltitudeMeters>937</AltitudeMeters>
            <DistanceMeters>NAN</DistanceMeters>
          </Trackpoint>
          <Trackpoint>
            <Time>2021-04-04T07:32:27.000Z</Time>
            <Position>
              <LatitudeDegrees>42.3335985839366912841796875</LatitudeDegrees>
              <LongitudeDegrees>2.44343197904527187347412109375</LongitudeDegrees>
            </Position>
            <AltitudeMeters>937.4000244140625</AltitudeMeters>
            <DistanceMeters>NAN</DistanceMeters>
          </Trackpoint>
          <Trackpoint>
            <Time>2021-04-04T07:32:29.000Z</Time>
            <Position>
              <LatitudeDegrees>42.33361744321882724761962890625</LatitudeDegrees>
              <LongitudeDegrees>2.44342208839952945709228515625</LongitudeDegrees>
            </Position>
            <AltitudeMeters>937.5999755859375</AltitudeMeters>
            <DistanceMeters>NAN</DistanceMeters>
          </Trackpoint>
          <Trackpoint>
            <Time>2021-04-04T07:32:31.000Z</Time>
            <Position>
              <LatitudeDegrees>42.33363789506256580352783203125</LatitudeDegrees>
              <LongitudeDegrees>2.44341320358216762542724609375</LongitudeDegrees>
            </Position>
            <AltitudeMeters>937.79998779296875</AltitudeMeters>
            <DistanceMeters>NAN</DistanceMeters>
          </Trackpoint>
          <Trackpoint>
            <Time>2021-04-04T07:32:39.000Z</Time>
            <Position>
              <LatitudeDegrees>42.33365692198276519775390625</LatitudeDegrees>
              <LongitudeDegrees>2.443419992923736572265625</LongitudeDegrees>
            </Position>
            <AltitudeMeters>938.20001220703125</AltitudeMeters>
            <DistanceMeters>NAN</DistanceMeters>
          </Trackpoint>
          <Trackpoint>
            <Time>2021-04-04T07:32:40.000Z</Time>
            <Position>
              <LatitudeDegrees>42.33364828862249851226806640625</LatitudeDegrees>
              <LongitudeDegrees>2.44343616999685764312744140625</LongitudeDegrees>
            </Position>
            <AltitudeMeters>938.20001220703125</AltitudeMeters>
            <DistanceMeters>NAN</DistanceMeters>
          </Trackpoint>
          <Trackpoint>
            <Time>2021-04-04T07:32:44.000Z</Time>
            <Position>
              <LatitudeDegrees>42.33365960419178009033203125</LatitudeDegrees>
              <LongitudeDegrees>2.4434664286673069000244140625</LongitudeDegrees>
            </Position>
            <AltitudeMeters>938.4000244140625</AltitudeMeters>
            <DistanceMeters>NAN</DistanceMeters>
          </Trackpoint>
          <Trackpoint>
            <Time>2021-04-04T07:32:46.000Z</Time>
            <Position>
              <LatitudeDegrees>42.3336621187627315521240234375</LatitudeDegrees>
              <LongitudeDegrees>2.44345611892640590667724609375</LongitudeDegrees>
            </Position>
            <AltitudeMeters>938.5999755859375</AltitudeMeters>
            <DistanceMeters>NAN</DistanceMeters>
          </Trackpoint>
          <Trackpoint>
            <Time>2021-04-04T07:32:51.000Z</Time>
            <Position>
              <LatitudeDegrees>42.33363370411098003387451171875</LatitudeDegrees>
              <LongitudeDegrees>2.44343809783458709716796875</LongitudeDegrees>
            </Position>
            <AltitudeMeters>939</AltitudeMeters>
            <DistanceMeters>NAN</DistanceMeters>
          </Trackpoint>
          <Trackpoint>
            <Time>2021-04-04T07:32:54.000Z</Time>
            <Position>
              <LatitudeDegrees>42.33361392281949520111083984375</LatitudeDegrees>
              <LongitudeDegrees>2.443449497222900390625</LongitudeDegrees>
            </Position>
            <AltitudeMeters>939.5999755859375</AltitudeMeters>
            <DistanceMeters>NAN</DistanceMeters>
          </Trackpoint>
          <Trackpoint>
            <Time>2021-04-04T07:32:57.000Z</Time>
            <Position>
              <LatitudeDegrees>42.3336024396121501922607421875</LatitudeDegrees>
              <LongitudeDegrees>2.44348243810236454010009765625</LongitudeDegrees>
            </Position>
            <AltitudeMeters>939.79998779296875</AltitudeMeters>
            <DistanceMeters>NAN</DistanceMeters>
          </Trackpoint>
          <Trackpoint>
            <Time>2021-04-04T07:33:01.000Z</Time>
            <Position>
              <LatitudeDegrees>42.33357318677008152008056640625</LatitudeDegrees>
              <LongitudeDegrees>2.4434825219213962554931640625</LongitudeDegrees>
            </Position>
            <AltitudeMeters>940.4000244140625</AltitudeMeters>
            <DistanceMeters>NAN</DistanceMeters>
          </Trackpoint>
          <Trackpoint>
            <Time>2021-04-04T07:33:02.000Z</Time>
            <Position>
              <LatitudeDegrees>42.33356329612433910369873046875</LatitudeDegrees>
              <LongitudeDegrees>2.44348193518817424774169921875</LongitudeDegrees>
            </Position>
            <AltitudeMeters>940.5999755859375</AltitudeMeters>
            <DistanceMeters>NAN</DistanceMeters>
          </Trackpoint>
          <Trackpoint>
            <Time>2021-04-04T07:33:06.000Z</Time>
            <Position>
              <LatitudeDegrees>42.3335427604615688323974609375</LatitudeDegrees>
              <LongitudeDegrees>2.44349249638617038726806640625</LongitudeDegrees>
            </Position>
            <AltitudeMeters>941</AltitudeMeters>
            <DistanceMeters>NAN</DistanceMeters>
          </Trackpoint>
          <Trackpoint>
            <Time>2021-04-04T07:33:12.000Z</Time>
            <Position>
              <LatitudeDegrees>42.33348819427192211151123046875</LatitudeDegrees>
              <LongitudeDegrees>2.4434748105704784393310546875</LongitudeDegrees>
            </Position>
            <AltitudeMeters>941.5999755859375</AltitudeMeters>
            <DistanceMeters>NAN</DistanceMeters>
          </Trackpoint>
          <Trackpoint>
            <Time>2021-04-04T07:33:13.000Z</Time>
            <Position>
              <LatitudeDegrees>42.33348182402551174163818359375</LatitudeDegrees>
              <LongitudeDegrees>2.443473637104034423828125</LongitudeDegrees>
            </Position>
            <AltitudeMeters>941.5999755859375</AltitudeMeters>
            <DistanceMeters>NAN</DistanceMeters>
          </Trackpoint>
          <Trackpoint>
            <Time>2021-04-04T07:33:14.000Z</Time>
            <Position>
              <LatitudeDegrees>42.33347863890230655670166015625</LatitudeDegrees>
              <LongitudeDegrees>2.44347087107598781585693359375</LongitudeDegrees>
            </Position>
            <AltitudeMeters>941.5999755859375</AltitudeMeters>
            <DistanceMeters>NAN</DistanceMeters>
          </Trackpoint>
          <Trackpoint>
            <Time>2021-04-04T07:33:18.000Z</Time>
            <Position>
              <LatitudeDegrees>42.3334710113704204559326171875</LatitudeDegrees>
              <LongitudeDegrees>2.44347690604627132415771484375</LongitudeDegrees>
            </Position>
            <AltitudeMeters>942.20001220703125</AltitudeMeters>
            <DistanceMeters>NAN</DistanceMeters>
          </Trackpoint>
          <Trackpoint>
            <Time>2021-04-04T07:33:19.000Z</Time>
            <Position>
              <LatitudeDegrees>42.3334663175046443939208984375</LatitudeDegrees>
              <LongitudeDegrees>2.4434761516749858856201171875</LongitudeDegrees>
            </Position>
            <AltitudeMeters>942.4000244140625</AltitudeMeters>
            <DistanceMeters>NAN</DistanceMeters>
          </Trackpoint>
          <Trackpoint>
            <Time>2021-04-04T07:33:22.000Z</Time>
            <Position>
              <LatitudeDegrees>42.33344905078411102294921875</LatitudeDegrees>
              <LongitudeDegrees>2.44347631931304931640625</LongitudeDegrees>
            </Position>
            <AltitudeMeters>942.79998779296875</AltitudeMeters>
            <DistanceMeters>NAN</DistanceMeters>
          </Trackpoint>
          <Trackpoint>
            <Time>2021-04-04T07:33:25.000Z</Time>
            <Position>
              <LatitudeDegrees>42.33343304134905338287353515625</LatitudeDegrees>
              <LongitudeDegrees>2.44347439147531986236572265625</LongitudeDegrees>
            </Position>
            <AltitudeMeters>943</AltitudeMeters>
            <DistanceMeters>NAN</DistanceMeters>
          </Trackpoint>
          <Trackpoint>
            <Time>2021-04-04T07:33:28.000Z</Time>
            <Position>
              <LatitudeDegrees>42.33341217041015625</LatitudeDegrees>
              <LongitudeDegrees>2.44346559047698974609375</LongitudeDegrees>
            </Position>
            <AltitudeMeters>943.4000244140625</AltitudeMeters>
            <DistanceMeters>NAN</DistanceMeters>
          </Trackpoint>
          <Trackpoint>
            <Time>2021-04-04T07:33:29.000Z</Time>
            <Position>
              <LatitudeDegrees>42.333407141268253326416015625</LatitudeDegrees>
              <LongitudeDegrees>2.443465255200862884521484375</LongitudeDegrees>
            </Position>
            <AltitudeMeters>943.4000244140625</AltitudeMeters>
            <DistanceMeters>NAN</DistanceMeters>
          </Trackpoint>
          <Trackpoint>
            <Time>2021-04-04T07:33:32.000Z</Time>
            <Position>
              <LatitudeDegrees>42.33338509686291217803955078125</LatitudeDegrees>
              <LongitudeDegrees>2.4434620700776576995849609375</LongitudeDegrees>
            </Position>
            <AltitudeMeters>943.5999755859375</AltitudeMeters>
            <DistanceMeters>NAN</DistanceMeters>
          </Trackpoint>
          <Trackpoint>
            <Time>2021-04-04T07:33:34.000Z</Time>
            <Position>
              <LatitudeDegrees>42.33337067998945713043212890625</LatitudeDegrees>
              <LongitudeDegrees>2.443465925753116607666015625</LongitudeDegrees>
            </Position>
            <AltitudeMeters>943.79998779296875</AltitudeMeters>
            <DistanceMeters>NAN</DistanceMeters>
          </Trackpoint>
          <Trackpoint>
            <Time>2021-04-04T07:33:39.000Z</Time>
            <Position>
              <LatitudeDegrees>42.33334670774638652801513671875</LatitudeDegrees>
              <LongitudeDegrees>2.4434570409357547760009765625</LongitudeDegrees>
            </Position>
            <AltitudeMeters>944.20001220703125</AltitudeMeters>
            <DistanceMeters>NAN</DistanceMeters>
          </Trackpoint>
          <Trackpoint>
            <Time>2021-04-04T07:33:42.000Z</Time>
            <Position>
              <LatitudeDegrees>42.3333107493817806243896484375</LatitudeDegrees>
              <LongitudeDegrees>2.443460561335086822509765625</LongitudeDegrees>
            </Position>
            <AltitudeMeters>944.20001220703125</AltitudeMeters>
            <DistanceMeters>NAN</DistanceMeters>
          </Trackpoint>
          <Trackpoint>
            <Time>2021-04-04T07:33:43.000Z</Time>
            <Position>
              <LatitudeDegrees>42.33330831862986087799072265625</LatitudeDegrees>
              <LongitudeDegrees>2.4434583820402622222900390625</LongitudeDegrees>
            </Position>
            <AltitudeMeters>944.20001220703125</AltitudeMeters>
            <DistanceMeters>NAN</DistanceMeters>
          </Trackpoint>
          <Trackpoint>
            <Time>2021-04-04T07:33:45.000Z</Time>
            <Position>
              <LatitudeDegrees>42.333289794623851776123046875</LatitudeDegrees>
              <LongitudeDegrees>2.44345687329769134521484375</LongitudeDegrees>
            </Position>
            <AltitudeMeters>944.20001220703125</AltitudeMeters>
            <DistanceMeters>NAN</DistanceMeters>
          </Trackpoint>
          <Trackpoint>
            <Time>2021-04-04T07:33:48.000Z</Time>
            <Position>
              <LatitudeDegrees>42.333275713026523590087890625</LatitudeDegrees>
              <LongitudeDegrees>2.44345008395612239837646484375</LongitudeDegrees>
            </Position>
            <AltitudeMeters>944.4000244140625</AltitudeMeters>
            <DistanceMeters>NAN</DistanceMeters>
          </Trackpoint>
          <Trackpoint>
            <Time>2021-04-04T07:33:52.000Z</Time>
            <Position>
              <LatitudeDegrees>42.33325433917343616485595703125</LatitudeDegrees>
              <LongitudeDegrees>2.44343382306396961212158203125</LongitudeDegrees>
            </Position>
            <AltitudeMeters>944.79998779296875</AltitudeMeters>
            <DistanceMeters>NAN</DistanceMeters>
          </Trackpoint>
          <Trackpoint>
            <Time>2021-04-04T07:33:56.000Z</Time>
            <Position>
              <LatitudeDegrees>42.33322642743587493896484375</LatitudeDegrees>
              <LongitudeDegrees>2.443422339856624603271484375</LongitudeDegrees>
            </Position>
            <AltitudeMeters>945.20001220703125</AltitudeMeters>
            <DistanceMeters>NAN</DistanceMeters>
          </Trackpoint>
          <Trackpoint>
            <Time>2021-04-04T07:33:59.000Z</Time>
            <Position>
              <LatitudeDegrees>42.33320706523954868316650390625</LatitudeDegrees>
              <LongitudeDegrees>2.4434158019721508026123046875</LongitudeDegrees>
            </Position>
            <AltitudeMeters>945.5999755859375</AltitudeMeters>
            <DistanceMeters>NAN</DistanceMeters>
          </Trackpoint>
          <Trackpoint>
            <Time>2021-04-04T07:34:02.000Z</Time>
            <Position>
              <LatitudeDegrees>42.3331873677670955657958984375</LatitudeDegrees>
              <LongitudeDegrees>2.443404905498027801513671875</LongitudeDegrees>
            </Position>
            <AltitudeMeters>945.79998779296875</AltitudeMeters>
            <DistanceMeters>NAN</DistanceMeters>
          </Trackpoint>
          <Trackpoint>
            <Time>2021-04-04T07:34:03.000Z</Time>
            <Position>
              <LatitudeDegrees>42.3331826739013195037841796875</LatitudeDegrees>
              <LongitudeDegrees>2.443397529423236846923828125</LongitudeDegrees>
            </Position>
            <AltitudeMeters>945.79998779296875</AltitudeMeters>
            <DistanceMeters>NAN</DistanceMeters>
          </Trackpoint>
          <Trackpoint>
            <Time>2021-04-04T07:34:05.000Z</Time>
            <Position>
              <LatitudeDegrees>42.33316884376108646392822265625</LatitudeDegrees>
              <LongitudeDegrees>2.44338789023458957672119140625</LongitudeDegrees>
            </Position>
            <AltitudeMeters>946.20001220703125</AltitudeMeters>
            <DistanceMeters>NAN</DistanceMeters>
          </Trackpoint>
          <Trackpoint>
            <Time>2021-04-04T07:34:07.000Z</Time>
            <Position>
              <LatitudeDegrees>42.3331508226692676544189453125</LatitudeDegrees>
              <LongitudeDegrees>2.44338311254978179931640625</LongitudeDegrees>
            </Position>
            <AltitudeMeters>946.4000244140625</AltitudeMeters>
            <DistanceMeters>NAN</DistanceMeters>
          </Trackpoint>
          <Trackpoint>
            <Time>2021-04-04T07:34:08.000Z</Time>
            <Position>
              <LatitudeDegrees>42.333145625889301300048828125</LatitudeDegrees>
              <LongitudeDegrees>2.44337908923625946044921875</LongitudeDegrees>
            </Position>
            <AltitudeMeters>946.5999755859375</AltitudeMeters>
            <DistanceMeters>NAN</DistanceMeters>
          </Trackpoint>
          <Trackpoint>
            <Time>2021-04-04T07:34:10.000Z</Time>
            <Position>
              <LatitudeDegrees>42.33313615433871746063232421875</LatitudeDegrees>
              <LongitudeDegrees>2.4433712102472782135009765625</LongitudeDegrees>
            </Position>
            <AltitudeMeters>946.79998779296875</AltitudeMeters>
            <DistanceMeters>NAN</DistanceMeters>
          </Trackpoint>
          <Trackpoint>
            <Time>2021-04-04T07:34:11.000Z</Time>
            <Position>
              <LatitudeDegrees>42.33313129283487796783447265625</LatitudeDegrees>
              <LongitudeDegrees>2.443367354571819305419921875</LongitudeDegrees>
            </Position>
            <AltitudeMeters>947</AltitudeMeters>
            <DistanceMeters>NAN</DistanceMeters>
          </Trackpoint>
          <Trackpoint>
            <Time>2021-04-04T07:34:12.000Z</Time>
            <Position>
              <LatitudeDegrees>42.33312844298779964447021484375</LatitudeDegrees>
              <LongitudeDegrees>2.44336207397282123565673828125</LongitudeDegrees>
            </Position>
            <AltitudeMeters>947.20001220703125</AltitudeMeters>
            <DistanceMeters>NAN</DistanceMeters>
          </Trackpoint>
          <Trackpoint>
            <Time>2021-04-04T07:34:16.000Z</Time>
            <Position>
              <LatitudeDegrees>42.3331152833998203277587890625</LatitudeDegrees>
              <LongitudeDegrees>2.44334262795746326446533203125</LongitudeDegrees>
            </Position>
            <AltitudeMeters>947.4000244140625</AltitudeMeters>
            <DistanceMeters>NAN</DistanceMeters>
          </Trackpoint>
          <Trackpoint>
            <Time>2021-04-04T07:34:20.000Z</Time>
            <Position>
              <LatitudeDegrees>42.33309374190866947174072265625</LatitudeDegrees>
              <LongitudeDegrees>2.44332167319953441619873046875</LongitudeDegrees>
            </Position>
            <AltitudeMeters>948</AltitudeMeters>
            <DistanceMeters>NAN</DistanceMeters>
          </Trackpoint>
          <Trackpoint>
            <Time>2021-04-04T07:34:24.000Z</Time>
            <Position>
              <LatitudeDegrees>42.33307085931301116943359375</LatitudeDegrees>
              <LongitudeDegrees>2.44329920969903469085693359375</LongitudeDegrees>
            </Position>
            <AltitudeMeters>948.5999755859375</AltitudeMeters>
            <DistanceMeters>NAN</DistanceMeters>
          </Trackpoint>
          <Trackpoint>
            <Time>2021-04-04T07:34:28.000Z</Time>
            <Position>
              <LatitudeDegrees>42.333045713603496551513671875</LatitudeDegrees>
              <LongitudeDegrees>2.4432759918272495269775390625</LongitudeDegrees>
            </Position>
            <AltitudeMeters>949.20001220703125</AltitudeMeters>
            <DistanceMeters>NAN</DistanceMeters>
          </Trackpoint>
          <Trackpoint>
            <Time>2021-04-04T07:34:31.000Z</Time>
            <Position>
              <LatitudeDegrees>42.33302584849298000335693359375</LatitudeDegrees>
              <LongitudeDegrees>2.443259060382843017578125</LongitudeDegrees>
            </Position>
            <AltitudeMeters>949.4000244140625</AltitudeMeters>
            <DistanceMeters>NAN</DistanceMeters>
          </Trackpoint>
          <Trackpoint>
            <Time>2021-04-04T07:34:35.000Z</Time>
            <Position>
              <LatitudeDegrees>42.3329862020909786224365234375</LatitudeDegrees>
              <LongitudeDegrees>2.443237602710723876953125</LongitudeDegrees>
            </Position>
            <AltitudeMeters>950</AltitudeMeters>
            <DistanceMeters>NAN</DistanceMeters>
          </Trackpoint>
          <Trackpoint>
            <Time>2021-04-04T07:34:38.000Z</Time>
            <Position>
              <LatitudeDegrees>42.33297086320817470550537109375</LatitudeDegrees>
              <LongitudeDegrees>2.44322410784661769866943359375</LongitudeDegrees>
            </Position>
            <AltitudeMeters>950.20001220703125</AltitudeMeters>
            <DistanceMeters>NAN</DistanceMeters>
          </Trackpoint>
          <Trackpoint>
            <Time>2021-04-04T07:34:43.000Z</Time>
            <Position>
              <LatitudeDegrees>42.33294186182320117950439453125</LatitudeDegrees>
              <LongitudeDegrees>2.44319158606231212615966796875</LongitudeDegrees>
            </Position>
            <AltitudeMeters>950.5999755859375</AltitudeMeters>
            <DistanceMeters>NAN</DistanceMeters>
          </Trackpoint>
          <Trackpoint>
            <Time>2021-04-04T07:34:50.000Z</Time>
            <Position>
              <LatitudeDegrees>42.33289592899382114410400390625</LatitudeDegrees>
              <LongitudeDegrees>2.44313676841557025909423828125</LongitudeDegrees>
            </Position>
            <AltitudeMeters>951.20001220703125</AltitudeMeters>
            <DistanceMeters>NAN</DistanceMeters>
          </Trackpoint>
          <Trackpoint>
            <Time>2021-04-04T07:34:51.000Z</Time>
            <Position>
              <LatitudeDegrees>42.3328906483948230743408203125</LatitudeDegrees>
              <LongitudeDegrees>2.44312972761690616607666015625</LongitudeDegrees>
            </Position>
            <AltitudeMeters>951.20001220703125</AltitudeMeters>
            <DistanceMeters>NAN</DistanceMeters>
          </Trackpoint>
          <Trackpoint>
            <Time>2021-04-04T07:34:58.000Z</Time>
            <Position>
              <LatitudeDegrees>42.33284362591803073883056640625</LatitudeDegrees>
              <LongitudeDegrees>2.44306862354278564453125</LongitudeDegrees>
            </Position>
            <AltitudeMeters>951.5999755859375</AltitudeMeters>
            <DistanceMeters>NAN</DistanceMeters>
          </Trackpoint>
          <Trackpoint>
            <Time>2021-04-04T07:35:05.000Z</Time>
            <Position>
              <LatitudeDegrees>42.33280004002153873443603515625</LatitudeDegrees>
              <LongitudeDegrees>2.44296728633344173431396484375</LongitudeDegrees>
            </Position>
            <AltitudeMeters>952</AltitudeMeters>
            <DistanceMeters>NAN</DistanceMeters>
          </Trackpoint>
          <Trackpoint>
            <Time>2021-04-04T07:35:06.000Z</Time>
            <Position>
              <LatitudeDegrees>42.33279819600284099578857421875</LatitudeDegrees>
              <LongitudeDegrees>2.44296074844896793365478515625</LongitudeDegrees>
            </Position>
            <AltitudeMeters>952.20001220703125</AltitudeMeters>
            <DistanceMeters>NAN</DistanceMeters>
          </Trackpoint>
          <Trackpoint>
            <Time>2021-04-04T07:35:08.000Z</Time>
            <Position>
              <LatitudeDegrees>42.33279434032738208770751953125</LatitudeDegrees>
              <LongitudeDegrees>2.44294096715748310089111328125</LongitudeDegrees>
            </Position>
            <AltitudeMeters>952.4000244140625</AltitudeMeters>
            <DistanceMeters>NAN</DistanceMeters>
          </Trackpoint>
          <Trackpoint>
            <Time>2021-04-04T07:35:16.000Z</Time>
            <Position>
              <LatitudeDegrees>42.332768775522708892822265625</LatitudeDegrees>
              <LongitudeDegrees>2.442873157560825347900390625</LongitudeDegrees>
            </Position>
            <AltitudeMeters>953</AltitudeMeters>
            <DistanceMeters>NAN</DistanceMeters>
          </Trackpoint>
          <Trackpoint>
            <Time>2021-04-04T07:35:17.000Z</Time>
            <Position>
              <LatitudeDegrees>42.33276567421853542327880859375</LatitudeDegrees>
              <LongitudeDegrees>2.4428642727434635162353515625</LongitudeDegrees>
            </Position>
            <AltitudeMeters>953.20001220703125</AltitudeMeters>
            <DistanceMeters>NAN</DistanceMeters>
          </Trackpoint>
          <Trackpoint>
            <Time>2021-04-04T07:35:18.000Z</Time>
            <Position>
              <LatitudeDegrees>42.33276416547596454620361328125</LatitudeDegrees>
              <LongitudeDegrees>2.44285094551742076873779296875</LongitudeDegrees>
            </Position>
            <AltitudeMeters>953.4000244140625</AltitudeMeters>
            <DistanceMeters>NAN</DistanceMeters>
          </Trackpoint>
          <Trackpoint>
            <Time>2021-04-04T07:35:22.000Z</Time>
            <Position>
              <LatitudeDegrees>42.332754023373126983642578125</LatitudeDegrees>
              <LongitudeDegrees>2.44281808845698833465576171875</LongitudeDegrees>
            </Position>
            <AltitudeMeters>954</AltitudeMeters>
            <DistanceMeters>NAN</DistanceMeters>
          </Trackpoint>
          <Trackpoint>
            <Time>2021-04-04T07:35:25.000Z</Time>
            <Position>
              <LatitudeDegrees>42.33275033533573150634765625</LatitudeDegrees>
              <LongitudeDegrees>2.44278766214847564697265625</LongitudeDegrees>
            </Position>
            <AltitudeMeters>954.20001220703125</AltitudeMeters>
            <DistanceMeters>NAN</DistanceMeters>
          </Trackpoint>
          <Trackpoint>
            <Time>2021-04-04T07:35:27.000Z</Time>
            <Position>
              <LatitudeDegrees>42.3327478207647800445556640625</LatitudeDegrees>
              <LongitudeDegrees>2.44277182035148143768310546875</LongitudeDegrees>
            </Position>
            <AltitudeMeters>954.4000244140625</AltitudeMeters>
            <DistanceMeters>NAN</DistanceMeters>
          </Trackpoint>
          <Trackpoint>
            <Time>2021-04-04T07:35:29.000Z</Time>
            <Position>
              <LatitudeDegrees>42.3327481560409069061279296875</LatitudeDegrees>
              <LongitudeDegrees>2.4427536316215991973876953125</LongitudeDegrees>
            </Position>
            <AltitudeMeters>954.79998779296875</AltitudeMeters>
            <DistanceMeters>NAN</DistanceMeters>
          </Trackpoint>
          <Trackpoint>
            <Time>2021-04-04T07:35:32.000Z</Time>
            <Position>
              <LatitudeDegrees>42.3327515088021755218505859375</LatitudeDegrees>
              <LongitudeDegrees>2.4427258037030696868896484375</LongitudeDegrees>
            </Position>
            <AltitudeMeters>955.20001220703125</AltitudeMeters>
            <DistanceMeters>NAN</DistanceMeters>
          </Trackpoint>
          <Trackpoint>
            <Time>2021-04-04T07:35:34.000Z</Time>
            <Position>
              <LatitudeDegrees>42.3327535204589366912841796875</LatitudeDegrees>
              <LongitudeDegrees>2.442707531154155731201171875</LongitudeDegrees>
            </Position>
            <AltitudeMeters>955.4000244140625</AltitudeMeters>
            <DistanceMeters>NAN</DistanceMeters>
          </Trackpoint>
          <Trackpoint>
            <Time>2021-04-04T07:35:35.000Z</Time>
            <Position>
              <LatitudeDegrees>42.33275435864925384521484375</LatitudeDegrees>
              <LongitudeDegrees>2.4426996521651744842529296875</LongitudeDegrees>
            </Position>
            <AltitudeMeters>955.5999755859375</AltitudeMeters>
            <DistanceMeters>NAN</DistanceMeters>
          </Trackpoint>
          <Trackpoint>
            <Time>2021-04-04T07:35:36.000Z</Time>
            <Position>
              <LatitudeDegrees>42.33275435864925384521484375</LatitudeDegrees>
              <LongitudeDegrees>2.44269110262393951416015625</LongitudeDegrees>
            </Position>
            <AltitudeMeters>955.5999755859375</AltitudeMeters>
            <DistanceMeters>NAN</DistanceMeters>
          </Trackpoint>
          <Trackpoint>
            <Time>2021-04-04T07:35:41.000Z</Time>
            <Position>
              <LatitudeDegrees>42.33275435864925384521484375</LatitudeDegrees>
              <LongitudeDegrees>2.4426466785371303558349609375</LongitudeDegrees>
            </Position>
            <AltitudeMeters>956.5999755859375</AltitudeMeters>
            <DistanceMeters>NAN</DistanceMeters>
          </Trackpoint>
          <Trackpoint>
            <Time>2021-04-04T07:35:44.000Z</Time>
            <Position>
              <LatitudeDegrees>42.332752682268619537353515625</LatitudeDegrees>
              <LongitudeDegrees>2.4426198564469814300537109375</LongitudeDegrees>
            </Position>
            <AltitudeMeters>957</AltitudeMeters>
            <DistanceMeters>NAN</DistanceMeters>
          </Trackpoint>
          <Trackpoint>
            <Time>2021-04-04T07:35:47.000Z</Time>
            <Position>
              <LatitudeDegrees>42.33275863341987133026123046875</LatitudeDegrees>
              <LongitudeDegrees>2.4425943754613399505615234375</LongitudeDegrees>
            </Position>
            <AltitudeMeters>957.4000244140625</AltitudeMeters>
            <DistanceMeters>NAN</DistanceMeters>
          </Trackpoint>
          <Trackpoint>
            <Time>2021-04-04T07:35:48.000Z</Time>
            <Position>
              <LatitudeDegrees>42.3327602259814739227294921875</LatitudeDegrees>
              <LongitudeDegrees>2.44258649647235870361328125</LongitudeDegrees>
            </Position>
            <AltitudeMeters>957.5999755859375</AltitudeMeters>
            <DistanceMeters>NAN</DistanceMeters>
          </Trackpoint>
          <Trackpoint>
            <Time>2021-04-04T07:35:57.000Z</Time>
            <Position>
              <LatitudeDegrees>42.3327766545116901397705078125</LatitudeDegrees>
              <LongitudeDegrees>2.44250468909740447998046875</LongitudeDegrees>
            </Position>
            <AltitudeMeters>958.79998779296875</AltitudeMeters>
            <DistanceMeters>NAN</DistanceMeters>
          </Trackpoint>
          <Trackpoint>
            <Time>2021-04-04T07:35:58.000Z</Time>
            <Position>
              <LatitudeDegrees>42.33277975581586360931396484375</LatitudeDegrees>
              <LongitudeDegrees>2.4424958042800426483154296875</LongitudeDegrees>
            </Position>
            <AltitudeMeters>958.79998779296875</AltitudeMeters>
            <DistanceMeters>NAN</DistanceMeters>
          </Trackpoint>
          <Trackpoint>
            <Time>2021-04-04T07:36:01.000Z</Time>
            <Position>
              <LatitudeDegrees>42.33278646133840084075927734375</LatitudeDegrees>
              <LongitudeDegrees>2.44247007183730602264404296875</LongitudeDegrees>
            </Position>
            <AltitudeMeters>959.20001220703125</AltitudeMeters>
            <DistanceMeters>NAN</DistanceMeters>
          </Trackpoint>
          <Trackpoint>
            <Time>2021-04-04T07:36:04.000Z</Time>
            <Position>
              <LatitudeDegrees>42.33279861509799957275390625</LatitudeDegrees>
              <LongitudeDegrees>2.4424476921558380126953125</LongitudeDegrees>
            </Position>
            <AltitudeMeters>959.5999755859375</AltitudeMeters>
            <DistanceMeters>NAN</DistanceMeters>
          </Trackpoint>
          <Trackpoint>
            <Time>2021-04-04T07:36:06.000Z</Time>
            <Position>
              <LatitudeDegrees>42.3328031413257122039794921875</LatitudeDegrees>
              <LongitudeDegrees>2.442437298595905303955078125</LongitudeDegrees>
            </Position>
            <AltitudeMeters>959.79998779296875</AltitudeMeters>
            <DistanceMeters>NAN</DistanceMeters>
          </Trackpoint>
          <Trackpoint>
            <Time>2021-04-04T07:36:08.000Z</Time>
            <Position>
              <LatitudeDegrees>42.33280842192471027374267578125</LatitudeDegrees>
              <LongitudeDegrees>2.4424277432262897491455078125</LongitudeDegrees>
            </Position>
            <AltitudeMeters>960</AltitudeMeters>
            <DistanceMeters>NAN</DistanceMeters>
          </Trackpoint>
          <Trackpoint>
            <Time>2021-04-04T07:36:09.000Z</Time>
            <Position>
              <LatitudeDegrees>42.3328138701617717742919921875</LatitudeDegrees>
              <LongitudeDegrees>2.44242279790341854095458984375</LongitudeDegrees>
            </Position>
            <AltitudeMeters>960.20001220703125</AltitudeMeters>
            <DistanceMeters>NAN</DistanceMeters>
          </Trackpoint>
          <Trackpoint>
            <Time>2021-04-04T07:36:11.000Z</Time>
            <Position>
              <LatitudeDegrees>42.33282744884490966796875</LatitudeDegrees>
              <LongitudeDegrees>2.442415840923786163330078125</LongitudeDegrees>
            </Position>
            <AltitudeMeters>960.5999755859375</AltitudeMeters>
            <DistanceMeters>NAN</DistanceMeters>
          </Trackpoint>
          <Trackpoint>
            <Time>2021-04-04T07:36:13.000Z</Time>
            <Position>
              <LatitudeDegrees>42.332834489643573760986328125</LatitudeDegrees>
              <LongitudeDegrees>2.44240812957286834716796875</LongitudeDegrees>
            </Position>
            <AltitudeMeters>960.79998779296875</AltitudeMeters>
            <DistanceMeters>NAN</DistanceMeters>
          </Trackpoint>
          <Trackpoint>
            <Time>2021-04-04T07:36:17.000Z</Time>
            <Position>
              <LatitudeDegrees>42.3328601382672786712646484375</LatitudeDegrees>
              <LongitudeDegrees>2.442390359938144683837890625</LongitudeDegrees>
            </Position>
            <AltitudeMeters>961.20001220703125</AltitudeMeters>
            <DistanceMeters>NAN</DistanceMeters>
          </Trackpoint>
          <Trackpoint>
            <Time>2021-04-04T07:36:21.000Z</Time>
            <Position>
              <LatitudeDegrees>42.3328859545290470123291015625</LatitudeDegrees>
              <LongitudeDegrees>2.44238893501460552215576171875</LongitudeDegrees>
            </Position>
            <AltitudeMeters>962</AltitudeMeters>
            <DistanceMeters>NAN</DistanceMeters>
          </Trackpoint>
          <Trackpoint>
            <Time>2021-04-04T07:36:22.000Z</Time>
            <Position>
              <LatitudeDegrees>42.33289274387061595916748046875</LatitudeDegrees>
              <LongitudeDegrees>2.44238407351076602935791015625</LongitudeDegrees>
            </Position>
            <AltitudeMeters>962</AltitudeMeters>
            <DistanceMeters>NAN</DistanceMeters>
          </Trackpoint>
          <Trackpoint>
            <Time>2021-04-04T07:36:25.000Z</Time>
            <Position>
              <LatitudeDegrees>42.3329074122011661529541015625</LatitudeDegrees>
              <LongitudeDegrees>2.4423781223595142364501953125</LongitudeDegrees>
            </Position>
            <AltitudeMeters>962.4000244140625</AltitudeMeters>
            <DistanceMeters>NAN</DistanceMeters>
          </Trackpoint>
          <Trackpoint>
            <Time>2021-04-04T07:36:28.000Z</Time>
            <Position>
              <LatitudeDegrees>42.33292090706527233123779296875</LatitudeDegrees>
              <LongitudeDegrees>2.442363202571868896484375</LongitudeDegrees>
            </Position>
            <AltitudeMeters>962.79998779296875</AltitudeMeters>
            <DistanceMeters>NAN</DistanceMeters>
          </Trackpoint>
          <Trackpoint>
            <Time>2021-04-04T07:36:29.000Z</Time>
            <Position>
              <LatitudeDegrees>42.332926355302333831787109375</LatitudeDegrees>
              <LongitudeDegrees>2.44236093945801258087158203125</LongitudeDegrees>
            </Position>
            <AltitudeMeters>963</AltitudeMeters>
            <DistanceMeters>NAN</DistanceMeters>
          </Trackpoint>
          <Trackpoint>
            <Time>2021-04-04T07:36:35.000Z</Time>
            <Position>
              <LatitudeDegrees>42.332967258989810943603515625</LatitudeDegrees>
              <LongitudeDegrees>2.44235842488706111907958984375</LongitudeDegrees>
            </Position>
            <AltitudeMeters>964</AltitudeMeters>
            <DistanceMeters>NAN</DistanceMeters>
          </Trackpoint>
          <Trackpoint>
            <Time>2021-04-04T07:36:41.000Z</Time>
            <Position>
              <LatitudeDegrees>42.33300908468663692474365234375</LatitudeDegrees>
              <LongitudeDegrees>2.44236647151410579681396484375</LongitudeDegrees>
            </Position>
            <AltitudeMeters>964.5999755859375</AltitudeMeters>
            <DistanceMeters>NAN</DistanceMeters>
          </Trackpoint>
          <Trackpoint>
            <Time>2021-04-04T07:36:45.000Z</Time>
            <Position>
              <LatitudeDegrees>42.33302660286426544189453125</LatitudeDegrees>
              <LongitudeDegrees>2.442379295825958251953125</LongitudeDegrees>
            </Position>
            <AltitudeMeters>965.20001220703125</AltitudeMeters>
            <DistanceMeters>NAN</DistanceMeters>
          </Trackpoint>
          <Trackpoint>
            <Time>2021-04-04T07:36:52.000Z</Time>
            <Position>
              <LatitudeDegrees>42.33306876383721828460693359375</LatitudeDegrees>
              <LongitudeDegrees>2.44237267412245273590087890625</LongitudeDegrees>
            </Position>
            <AltitudeMeters>965.79998779296875</AltitudeMeters>
            <DistanceMeters>NAN</DistanceMeters>
          </Trackpoint>
          <Trackpoint>
            <Time>2021-04-04T07:36:54.000Z</Time>
            <Position>
              <LatitudeDegrees>42.33308519236743450164794921875</LatitudeDegrees>
              <LongitudeDegrees>2.4423754401504993438720703125</LongitudeDegrees>
            </Position>
            <AltitudeMeters>966.20001220703125</AltitudeMeters>
            <DistanceMeters>NAN</DistanceMeters>
          </Trackpoint>
          <Trackpoint>
            <Time>2021-04-04T07:36:58.000Z</Time>
            <Position>
              <LatitudeDegrees>42.33311302028596401214599609375</LatitudeDegrees>
              <LongitudeDegrees>2.44239203631877899169921875</LongitudeDegrees>
            </Position>
            <AltitudeMeters>966.79998779296875</AltitudeMeters>
            <DistanceMeters>NAN</DistanceMeters>
          </Trackpoint>
          <Trackpoint>
            <Time>2021-04-04T07:37:01.000Z</Time>
            <Position>
              <LatitudeDegrees>42.3331300355494022369384765625</LatitudeDegrees>
              <LongitudeDegrees>2.44240150786936283111572265625</LongitudeDegrees>
            </Position>
            <AltitudeMeters>967.20001220703125</AltitudeMeters>
            <DistanceMeters>NAN</DistanceMeters>
          </Trackpoint>
          <Trackpoint>
            <Time>2021-04-04T07:37:02.000Z</Time>
            <Position>
              <LatitudeDegrees>42.333135567605495452880859375</LatitudeDegrees>
              <LongitudeDegrees>2.44240469299256801605224609375</LongitudeDegrees>
            </Position>
            <AltitudeMeters>967.4000244140625</AltitudeMeters>
            <DistanceMeters>NAN</DistanceMeters>
          </Trackpoint>
          <Trackpoint>
            <Time>2021-04-04T07:37:03.000Z</Time>
            <Position>
              <LatitudeDegrees>42.33314084820449352264404296875</LatitudeDegrees>
              <LongitudeDegrees>2.44240771047770977020263671875</LongitudeDegrees>
            </Position>
            <AltitudeMeters>967.4000244140625</AltitudeMeters>
            <DistanceMeters>NAN</DistanceMeters>
          </Trackpoint>
          <Trackpoint>
            <Time>2021-04-04T07:37:06.000Z</Time>
            <Position>
              <LatitudeDegrees>42.3331551812589168548583984375</LatitudeDegrees>
              <LongitudeDegrees>2.44241743348538875579833984375</LongitudeDegrees>
            </Position>
            <AltitudeMeters>967.79998779296875</AltitudeMeters>
            <DistanceMeters>NAN</DistanceMeters>
          </Trackpoint>
          <Trackpoint>
            <Time>2021-04-04T07:37:12.000Z</Time>
            <Position>
              <LatitudeDegrees>42.33319398947060108184814453125</LatitudeDegrees>
              <LongitudeDegrees>2.442440651357173919677734375</LongitudeDegrees>
            </Position>
            <AltitudeMeters>968.20001220703125</AltitudeMeters>
            <DistanceMeters>NAN</DistanceMeters>
          </Trackpoint>
          <Trackpoint>
            <Time>2021-04-04T07:37:17.000Z</Time>
            <Position>
              <LatitudeDegrees>42.33322332613170146942138671875</LatitudeDegrees>
              <LongitudeDegrees>2.442466802895069122314453125</LongitudeDegrees>
            </Position>
            <AltitudeMeters>968.79998779296875</AltitudeMeters>
            <DistanceMeters>NAN</DistanceMeters>
          </Trackpoint>
          <Trackpoint>
            <Time>2021-04-04T07:37:24.000Z</Time>
            <Position>
              <LatitudeDegrees>42.33327344991266727447509765625</LatitudeDegrees>
              <LongitudeDegrees>2.44248331524431705474853515625</LongitudeDegrees>
            </Position>
            <AltitudeMeters>969.20001220703125</AltitudeMeters>
            <DistanceMeters>NAN</DistanceMeters>
          </Trackpoint>
          <Trackpoint>
            <Time>2021-04-04T07:37:25.000Z</Time>
            <Position>
              <LatitudeDegrees>42.33327965252101421356201171875</LatitudeDegrees>
              <LongitudeDegrees>2.442485578358173370361328125</LongitudeDegrees>
            </Position>
            <AltitudeMeters>969.4000244140625</AltitudeMeters>
            <DistanceMeters>NAN</DistanceMeters>
          </Trackpoint>
          <Trackpoint>
            <Time>2021-04-04T07:37:27.000Z</Time>
            <Position>
              <LatitudeDegrees>42.33329038135707378387451171875</LatitudeDegrees>
              <LongitudeDegrees>2.44248398579657077789306640625</LongitudeDegrees>
            </Position>
            <AltitudeMeters>969.79998779296875</AltitudeMeters>
            <DistanceMeters>NAN</DistanceMeters>
          </Trackpoint>
          <Trackpoint>
            <Time>2021-04-04T07:37:29.000Z</Time>
            <Position>
              <LatitudeDegrees>42.333299182355403900146484375</LatitudeDegrees>
              <LongitudeDegrees>2.4424746818840503692626953125</LongitudeDegrees>
            </Position>
            <AltitudeMeters>970</AltitudeMeters>
            <DistanceMeters>NAN</DistanceMeters>
          </Trackpoint>
          <Trackpoint>
            <Time>2021-04-04T07:37:32.000Z</Time>
            <Position>
              <LatitudeDegrees>42.3333060555160045623779296875</LatitudeDegrees>
              <LongitudeDegrees>2.44244945235550403594970703125</LongitudeDegrees>
            </Position>
            <AltitudeMeters>970.4000244140625</AltitudeMeters>
            <DistanceMeters>NAN</DistanceMeters>
          </Trackpoint>
          <Trackpoint>
            <Time>2021-04-04T07:37:39.000Z</Time>
            <Position>
              <LatitudeDegrees>42.33332969248294830322265625</LatitudeDegrees>
              <LongitudeDegrees>2.4424086324870586395263671875</LongitudeDegrees>
            </Position>
            <AltitudeMeters>971.4000244140625</AltitudeMeters>
            <DistanceMeters>NAN</DistanceMeters>
          </Trackpoint>
          <Trackpoint>
            <Time>2021-04-04T07:37:40.000Z</Time>
            <Position>
              <LatitudeDegrees>42.33333237469196319580078125</LatitudeDegrees>
              <LongitudeDegrees>2.44240117259323596954345703125</LongitudeDegrees>
            </Position>
            <AltitudeMeters>971.4000244140625</AltitudeMeters>
            <DistanceMeters>NAN</DistanceMeters>
          </Trackpoint>
          <Trackpoint>
            <Time>2021-04-04T07:37:49.000Z</Time>
            <Position>
              <LatitudeDegrees>42.33333027921617031097412109375</LatitudeDegrees>
              <LongitudeDegrees>2.44233529083430767059326171875</LongitudeDegrees>
            </Position>
            <AltitudeMeters>972.20001220703125</AltitudeMeters>
            <DistanceMeters>NAN</DistanceMeters>
          </Trackpoint>
          <Trackpoint>
            <Time>2021-04-04T07:37:54.000Z</Time>
            <Position>
              <LatitudeDegrees>42.3333208076655864715576171875</LatitudeDegrees>
              <LongitudeDegrees>2.4422916211187839508056640625</LongitudeDegrees>
            </Position>
            <AltitudeMeters>972.4000244140625</AltitudeMeters>
            <DistanceMeters>NAN</DistanceMeters>
          </Trackpoint>
          <Trackpoint>
            <Time>2021-04-04T07:38:00.000Z</Time>
            <Position>
              <LatitudeDegrees>42.3333087377250194549560546875</LatitudeDegrees>
              <LongitudeDegrees>2.44223873130977153778076171875</LongitudeDegrees>
            </Position>
            <AltitudeMeters>973</AltitudeMeters>
            <DistanceMeters>NAN</DistanceMeters>
          </Trackpoint>
          <Trackpoint>
            <Time>2021-04-04T07:38:04.000Z</Time>
            <Position>
              <LatitudeDegrees>42.33330831862986087799072265625</LatitudeDegrees>
              <LongitudeDegrees>2.44219933636486530303955078125</LongitudeDegrees>
            </Position>
            <AltitudeMeters>973.4000244140625</AltitudeMeters>
            <DistanceMeters>NAN</DistanceMeters>
          </Trackpoint>
          <Trackpoint>
            <Time>2021-04-04T07:38:11.000Z</Time>
            <Position>
              <LatitudeDegrees>42.333302535116672515869140625</LatitudeDegrees>
              <LongitudeDegrees>2.44212448596954345703125</LongitudeDegrees>
            </Position>
            <AltitudeMeters>974</AltitudeMeters>
            <DistanceMeters>NAN</DistanceMeters>
          </Trackpoint>
          <Trackpoint>
            <Time>2021-04-04T07:38:18.000Z</Time>
            <Position>
              <LatitudeDegrees>42.33330865390598773956298828125</LatitudeDegrees>
              <LongitudeDegrees>2.44207017123699188232421875</LongitudeDegrees>
            </Position>
            <AltitudeMeters>974.4000244140625</AltitudeMeters>
            <DistanceMeters>NAN</DistanceMeters>
          </Trackpoint>
          <Trackpoint>
            <Time>2021-04-04T07:38:23.000Z</Time>
            <Position>
              <LatitudeDegrees>42.33331100083887577056884765625</LatitudeDegrees>
              <LongitudeDegrees>2.44202164001762866973876953125</LongitudeDegrees>
            </Position>
            <AltitudeMeters>974.79998779296875</AltitudeMeters>
            <DistanceMeters>NAN</DistanceMeters>
          </Trackpoint>
          <Trackpoint>
            <Time>2021-04-04T07:38:31.000Z</Time>
            <Position>
              <LatitudeDegrees>42.33331753872334957122802734375</LatitudeDegrees>
              <LongitudeDegrees>2.44194821454584598541259765625</LongitudeDegrees>
            </Position>
            <AltitudeMeters>975.5999755859375</AltitudeMeters>
            <DistanceMeters>NAN</DistanceMeters>
          </Trackpoint>
          <Trackpoint>
            <Time>2021-04-04T07:38:36.000Z</Time>
            <Position>
              <LatitudeDegrees>42.3333223164081573486328125</LatitudeDegrees>
              <LongitudeDegrees>2.441916950047016143798828125</LongitudeDegrees>
            </Position>
            <AltitudeMeters>975.79998779296875</AltitudeMeters>
            <DistanceMeters>NAN</DistanceMeters>
          </Trackpoint>
          <Trackpoint>
            <Time>2021-04-04T07:38:45.000Z</Time>
            <Position>
              <LatitudeDegrees>42.333323322236537933349609375</LatitudeDegrees>
              <LongitudeDegrees>2.44190731085836887359619140625</LongitudeDegrees>
            </Position>
            <AltitudeMeters>976</AltitudeMeters>
            <DistanceMeters>NAN</DistanceMeters>
          </Trackpoint>
          <Trackpoint>
            <Time>2021-04-04T07:38:50.000Z</Time>
            <Position>
              <LatitudeDegrees>42.333323322236537933349609375</LatitudeDegrees>
              <LongitudeDegrees>2.44190731085836887359619140625</LongitudeDegrees>
            </Position>
            <AltitudeMeters>975.79998779296875</AltitudeMeters>
            <DistanceMeters>NAN</DistanceMeters>
          </Trackpoint>
          <Trackpoint>
            <Time>2021-04-04T07:38:56.000Z</Time>
            <Position>
              <LatitudeDegrees>42.333323322236537933349609375</LatitudeDegrees>
              <LongitudeDegrees>2.44190731085836887359619140625</LongitudeDegrees>
            </Position>
            <AltitudeMeters>975.5999755859375</AltitudeMeters>
            <DistanceMeters>NAN</DistanceMeters>
          </Trackpoint>
          <Trackpoint>
            <Time>2021-04-04T07:38:57.000Z</Time>
            <Position>
              <LatitudeDegrees>42.333323322236537933349609375</LatitudeDegrees>
              <LongitudeDegrees>2.44191016070544719696044921875</LongitudeDegrees>
            </Position>
            <AltitudeMeters>975.5999755859375</AltitudeMeters>
            <DistanceMeters>NAN</DistanceMeters>
          </Trackpoint>
          <Trackpoint>
            <Time>2021-04-04T07:39:04.000Z</Time>
            <Position>
              <LatitudeDegrees>42.333323322236537933349609375</LatitudeDegrees>
              <LongitudeDegrees>2.44191032834351062774658203125</LongitudeDegrees>
            </Position>
            <AltitudeMeters>975.4000244140625</AltitudeMeters>
            <DistanceMeters>NAN</DistanceMeters>
          </Trackpoint>
          <Trackpoint>
            <Time>2021-04-04T07:39:18.000Z</Time>
            <Position>
              <LatitudeDegrees>42.3333238251507282257080078125</LatitudeDegrees>
              <LongitudeDegrees>2.44190714322030544281005859375</LongitudeDegrees>
            </Position>
            <AltitudeMeters>974.5999755859375</AltitudeMeters>
            <DistanceMeters>NAN</DistanceMeters>
          </Trackpoint>
          <Trackpoint>
            <Time>2021-04-04T07:39:19.000Z</Time>
            <Position>
              <LatitudeDegrees>42.333323322236537933349609375</LatitudeDegrees>
              <LongitudeDegrees>2.4419063888490200042724609375</LongitudeDegrees>
            </Position>
            <AltitudeMeters>974.4000244140625</AltitudeMeters>
            <DistanceMeters>NAN</DistanceMeters>
          </Trackpoint>
          <Trackpoint>
            <Time>2021-04-04T07:39:32.000Z</Time>
            <Position>
              <LatitudeDegrees>42.33334050513803958892822265625</LatitudeDegrees>
              <LongitudeDegrees>2.44183070026338100433349609375</LongitudeDegrees>
            </Position>
            <AltitudeMeters>974.79998779296875</AltitudeMeters>
            <DistanceMeters>NAN</DistanceMeters>
          </Trackpoint>
          <Trackpoint>
            <Time>2021-04-04T07:39:37.000Z</Time>
            <Position>
              <LatitudeDegrees>42.333360202610492706298828125</LatitudeDegrees>
              <LongitudeDegrees>2.44175308384001255035400390625</LongitudeDegrees>
            </Position>
            <AltitudeMeters>975.5999755859375</AltitudeMeters>
            <DistanceMeters>NAN</DistanceMeters>
          </Trackpoint>
          <Trackpoint>
            <Time>2021-04-04T07:39:44.000Z</Time>
            <Position>
              <LatitudeDegrees>42.33338409103453159332275390625</LatitudeDegrees>
              <LongitudeDegrees>2.44169038720428943634033203125</LongitudeDegrees>
            </Position>
            <AltitudeMeters>976.5999755859375</AltitudeMeters>
            <DistanceMeters>NAN</DistanceMeters>
          </Trackpoint>
          <Trackpoint>
            <Time>2021-04-04T07:39:54.000Z</Time>
            <Position>
              <LatitudeDegrees>42.3334042914211750030517578125</LatitudeDegrees>
              <LongitudeDegrees>2.44162634946405887603759765625</LongitudeDegrees>
            </Position>
            <AltitudeMeters>977.4000244140625</AltitudeMeters>
            <DistanceMeters>NAN</DistanceMeters>
          </Trackpoint>
          <Trackpoint>
            <Time>2021-04-04T07:39:56.000Z</Time>
            <Position>
              <LatitudeDegrees>42.33340269885957241058349609375</LatitudeDegrees>
              <LongitudeDegrees>2.441626600921154022216796875</LongitudeDegrees>
            </Position>
            <AltitudeMeters>977.4000244140625</AltitudeMeters>
            <DistanceMeters>NAN</DistanceMeters>
          </Trackpoint>
          <Trackpoint>
            <Time>2021-04-04T07:40:07.000Z</Time>
            <Position>
              <LatitudeDegrees>42.3334046266973018646240234375</LatitudeDegrees>
              <LongitudeDegrees>2.4416260980069637298583984375</LongitudeDegrees>
            </Position>
            <AltitudeMeters>977.4000244140625</AltitudeMeters>
            <DistanceMeters>NAN</DistanceMeters>
          </Trackpoint>
          <Trackpoint>
            <Time>2021-04-04T07:40:16.000Z</Time>
            <Position>
              <LatitudeDegrees>42.3334046266973018646240234375</LatitudeDegrees>
              <LongitudeDegrees>2.44162584654986858367919921875</LongitudeDegrees>
            </Position>
            <AltitudeMeters>977.20001220703125</AltitudeMeters>
            <DistanceMeters>NAN</DistanceMeters>
          </Trackpoint>
          <Trackpoint>
            <Time>2021-04-04T07:40:18.000Z</Time>
            <Position>
              <LatitudeDegrees>42.333405129611492156982421875</LatitudeDegrees>
              <LongitudeDegrees>2.44162417016923427581787109375</LongitudeDegrees>
            </Position>
            <AltitudeMeters>977.20001220703125</AltitudeMeters>
            <DistanceMeters>NAN</DistanceMeters>
          </Trackpoint>
          <Trackpoint>
            <Time>2021-04-04T07:40:24.000Z</Time>
            <Position>
              <LatitudeDegrees>42.33339683152735233306884765625</LatitudeDegrees>
              <LongitudeDegrees>2.44152157567441463470458984375</LongitudeDegrees>
            </Position>
            <AltitudeMeters>976.5999755859375</AltitudeMeters>
            <DistanceMeters>NAN</DistanceMeters>
          </Trackpoint>
          <Trackpoint>
            <Time>2021-04-04T07:40:30.000Z</Time>
            <Position>
              <LatitudeDegrees>42.33339867554605007171630859375</LatitudeDegrees>
              <LongitudeDegrees>2.44145552627742290496826171875</LongitudeDegrees>
            </Position>
            <AltitudeMeters>976</AltitudeMeters>
            <DistanceMeters>NAN</DistanceMeters>
          </Trackpoint>
          <Trackpoint>
            <Time>2021-04-04T07:40:37.000Z</Time>
            <Position>
              <LatitudeDegrees>42.33340152539312839508056640625</LatitudeDegrees>
              <LongitudeDegrees>2.441365420818328857421875</LongitudeDegrees>
            </Position>
            <AltitudeMeters>975.4000244140625</AltitudeMeters>
            <DistanceMeters>NAN</DistanceMeters>
          </Trackpoint>
          <Trackpoint>
            <Time>2021-04-04T07:40:42.000Z</Time>
            <Position>
              <LatitudeDegrees>42.33339850790798664093017578125</LatitudeDegrees>
              <LongitudeDegrees>2.44129677303135395050048828125</LongitudeDegrees>
            </Position>
            <AltitudeMeters>975</AltitudeMeters>
            <DistanceMeters>NAN</DistanceMeters>
          </Trackpoint>
          <Trackpoint>
            <Time>2021-04-04T07:40:47.000Z</Time>
            <Position>
              <LatitudeDegrees>42.33339498750865459442138671875</LatitudeDegrees>
              <LongitudeDegrees>2.44122887961566448211669921875</LongitudeDegrees>
            </Position>
            <AltitudeMeters>974.79998779296875</AltitudeMeters>
            <DistanceMeters>NAN</DistanceMeters>
          </Trackpoint>
          <Trackpoint>
            <Time>2021-04-04T07:40:51.000Z</Time>
            <Position>
              <LatitudeDegrees>42.3333974182605743408203125</LatitudeDegrees>
              <LongitudeDegrees>2.441178672015666961669921875</LongitudeDegrees>
            </Position>
            <AltitudeMeters>974.4000244140625</AltitudeMeters>
            <DistanceMeters>NAN</DistanceMeters>
          </Trackpoint>
          <Trackpoint>
            <Time>2021-04-04T07:40:53.000Z</Time>
            <Position>
              <LatitudeDegrees>42.33339465223252773284912109375</LatitudeDegrees>
              <LongitudeDegrees>2.44115017354488372802734375</LongitudeDegrees>
            </Position>
            <AltitudeMeters>974.4000244140625</AltitudeMeters>
            <DistanceMeters>NAN</DistanceMeters>
          </Trackpoint>
          <Trackpoint>
            <Time>2021-04-04T07:40:55.000Z</Time>
            <Position>
              <LatitudeDegrees>42.33339029364287853240966796875</LatitudeDegrees>
              <LongitudeDegrees>2.44112309999763965606689453125</LongitudeDegrees>
            </Position>
            <AltitudeMeters>974.20001220703125</AltitudeMeters>
            <DistanceMeters>NAN</DistanceMeters>
          </Trackpoint>
          <Trackpoint>
            <Time>2021-04-04T07:41:02.000Z</Time>
            <Position>
              <LatitudeDegrees>42.333382330834865570068359375</LatitudeDegrees>
              <LongitudeDegrees>2.44102553464472293853759765625</LongitudeDegrees>
            </Position>
            <AltitudeMeters>973.79998779296875</AltitudeMeters>
            <DistanceMeters>NAN</DistanceMeters>
          </Trackpoint>
          <Trackpoint>
            <Time>2021-04-04T07:41:08.000Z</Time>
            <Position>
              <LatitudeDegrees>42.33338224701583385467529296875</LatitudeDegrees>
              <LongitudeDegrees>2.44094171561300754547119140625</LongitudeDegrees>
            </Position>
            <AltitudeMeters>973.4000244140625</AltitudeMeters>
            <DistanceMeters>NAN</DistanceMeters>
          </Trackpoint>
          <Trackpoint>
            <Time>2021-04-04T07:41:13.000Z</Time>
            <Position>
              <LatitudeDegrees>42.33337621204555034637451171875</LatitudeDegrees>
              <LongitudeDegrees>2.4408677034080028533935546875</LongitudeDegrees>
            </Position>
            <AltitudeMeters>972.5999755859375</AltitudeMeters>
            <DistanceMeters>NAN</DistanceMeters>
          </Trackpoint>
          <Trackpoint>
            <Time>2021-04-04T07:41:19.000Z</Time>
            <Position>
              <LatitudeDegrees>42.33336950652301311492919921875</LatitudeDegrees>
              <LongitudeDegrees>2.44077910669147968292236328125</LongitudeDegrees>
            </Position>
            <AltitudeMeters>972.4000244140625</AltitudeMeters>
            <DistanceMeters>NAN</DistanceMeters>
          </Trackpoint>
          <Trackpoint>
            <Time>2021-04-04T07:41:20.000Z</Time>
            <Position>
              <LatitudeDegrees>42.33336900360882282257080078125</LatitudeDegrees>
              <LongitudeDegrees>2.44076619856059551239013671875</LongitudeDegrees>
            </Position>
            <AltitudeMeters>972.20001220703125</AltitudeMeters>
            <DistanceMeters>NAN</DistanceMeters>
          </Trackpoint>
          <Trackpoint>
            <Time>2021-04-04T07:41:26.000Z</Time>
            <Position>
              <LatitudeDegrees>42.33335659839212894439697265625</LatitudeDegrees>
              <LongitudeDegrees>2.4406762607395648956298828125</LongitudeDegrees>
            </Position>
            <AltitudeMeters>971.5999755859375</AltitudeMeters>
            <DistanceMeters>NAN</DistanceMeters>
          </Trackpoint>
          <Trackpoint>
            <Time>2021-04-04T07:41:29.000Z</Time>
            <Position>
              <LatitudeDegrees>42.33336078934371471405029296875</LatitudeDegrees>
              <LongitudeDegrees>2.44062907062470912933349609375</LongitudeDegrees>
            </Position>
            <AltitudeMeters>971.20001220703125</AltitudeMeters>
            <DistanceMeters>NAN</DistanceMeters>
          </Trackpoint>
          <Trackpoint>
            <Time>2021-04-04T07:41:30.000Z</Time>
            <Position>
              <LatitudeDegrees>42.33335785567760467529296875</LatitudeDegrees>
              <LongitudeDegrees>2.44061507284641265869140625</LongitudeDegrees>
            </Position>
            <AltitudeMeters>971</AltitudeMeters>
            <DistanceMeters>NAN</DistanceMeters>
          </Trackpoint>
          <Trackpoint>
            <Time>2021-04-04T07:41:31.000Z</Time>
            <Position>
              <LatitudeDegrees>42.333355844020843505859375</LatitudeDegrees>
              <LongitudeDegrees>2.44060157798230648040771484375</LongitudeDegrees>
            </Position>
            <AltitudeMeters>971</AltitudeMeters>
            <DistanceMeters>NAN</DistanceMeters>
          </Trackpoint>
          <Trackpoint>
            <Time>2021-04-04T07:41:41.000Z</Time>
            <Position>
              <LatitudeDegrees>42.3333419300615787506103515625</LatitudeDegrees>
              <LongitudeDegrees>2.4404643662273883819580078125</LongitudeDegrees>
            </Position>
            <AltitudeMeters>970.20001220703125</AltitudeMeters>
            <DistanceMeters>NAN</DistanceMeters>
          </Trackpoint>
          <Trackpoint>
            <Time>2021-04-04T07:41:45.000Z</Time>
            <Position>
              <LatitudeDegrees>42.33334385789930820465087890625</LatitudeDegrees>
              <LongitudeDegrees>2.440395466983318328857421875</LongitudeDegrees>
            </Position>
            <AltitudeMeters>969.79998779296875</AltitudeMeters>
            <DistanceMeters>NAN</DistanceMeters>
          </Trackpoint>
          <Trackpoint>
            <Time>2021-04-04T07:41:50.000Z</Time>
            <Position>
              <LatitudeDegrees>42.33335190452635288238525390625</LatitudeDegrees>
              <LongitudeDegrees>2.4403258971869945526123046875</LongitudeDegrees>
            </Position>
            <AltitudeMeters>969.4000244140625</AltitudeMeters>
            <DistanceMeters>NAN</DistanceMeters>
          </Trackpoint>
          <Trackpoint>
            <Time>2021-04-04T07:41:56.000Z</Time>
            <Position>
              <LatitudeDegrees>42.333351485431194305419921875</LatitudeDegrees>
              <LongitudeDegrees>2.44024065323173999786376953125</LongitudeDegrees>
            </Position>
            <AltitudeMeters>969.20001220703125</AltitudeMeters>
            <DistanceMeters>NAN</DistanceMeters>
          </Trackpoint>
          <Trackpoint>
            <Time>2021-04-04T07:41:58.000Z</Time>
            <Position>
              <LatitudeDegrees>42.33335123397409915924072265625</LatitudeDegrees>
              <LongitudeDegrees>2.44021550752222537994384765625</LongitudeDegrees>
            </Position>
            <AltitudeMeters>969</AltitudeMeters>
            <DistanceMeters>NAN</DistanceMeters>
          </Trackpoint>
          <Trackpoint>
            <Time>2021-04-04T07:42:02.000Z</Time>
            <Position>
              <LatitudeDegrees>42.33336011879146099090576171875</LatitudeDegrees>
              <LongitudeDegrees>2.44015733711421489715576171875</LongitudeDegrees>
            </Position>
            <AltitudeMeters>969</AltitudeMeters>
            <DistanceMeters>NAN</DistanceMeters>
          </Trackpoint>
          <Trackpoint>
            <Time>2021-04-04T07:42:08.000Z</Time>
            <Position>
              <LatitudeDegrees>42.33336363919079303741455078125</LatitudeDegrees>
              <LongitudeDegrees>2.44007150642573833465576171875</LongitudeDegrees>
            </Position>
            <AltitudeMeters>968.4000244140625</AltitudeMeters>
            <DistanceMeters>NAN</DistanceMeters>
          </Trackpoint>
          <Trackpoint>
            <Time>2021-04-04T07:42:15.000Z</Time>
            <Position>
              <LatitudeDegrees>42.33336858451366424560546875</LatitudeDegrees>
              <LongitudeDegrees>2.43997142650187015533447265625</LongitudeDegrees>
            </Position>
            <AltitudeMeters>968.20001220703125</AltitudeMeters>
            <DistanceMeters>NAN</DistanceMeters>
          </Trackpoint>
          <Trackpoint>
            <Time>2021-04-04T07:42:19.000Z</Time>
            <Position>
              <LatitudeDegrees>42.33337973244488239288330078125</LatitudeDegrees>
              <LongitudeDegrees>2.43991225026547908782958984375</LongitudeDegrees>
            </Position>
            <AltitudeMeters>968</AltitudeMeters>
            <DistanceMeters>NAN</DistanceMeters>
          </Trackpoint>
          <Trackpoint>
            <Time>2021-04-04T07:42:30.000Z</Time>
            <Position>
              <LatitudeDegrees>42.333404123783111572265625</LatitudeDegrees>
              <LongitudeDegrees>2.43975542485713958740234375</LongitudeDegrees>
            </Position>
            <AltitudeMeters>967.4000244140625</AltitudeMeters>
            <DistanceMeters>NAN</DistanceMeters>
          </Trackpoint>
          <Trackpoint>
            <Time>2021-04-04T07:42:33.000Z</Time>
            <Position>
              <LatitudeDegrees>42.33341393060982227325439453125</LatitudeDegrees>
              <LongitudeDegrees>2.43970580399036407470703125</LongitudeDegrees>
            </Position>
            <AltitudeMeters>967</AltitudeMeters>
            <DistanceMeters>NAN</DistanceMeters>
          </Trackpoint>
          <Trackpoint>
            <Time>2021-04-04T07:42:36.000Z</Time>
            <Position>
              <LatitudeDegrees>42.33341577462852001190185546875</LatitudeDegrees>
              <LongitudeDegrees>2.43966515175998210906982421875</LongitudeDegrees>
            </Position>
            <AltitudeMeters>966.5999755859375</AltitudeMeters>
            <DistanceMeters>NAN</DistanceMeters>
          </Trackpoint>
          <Trackpoint>
            <Time>2021-04-04T07:42:42.000Z</Time>
            <Position>
              <LatitudeDegrees>42.3334217257797718048095703125</LatitudeDegrees>
              <LongitudeDegrees>2.43957303464412689208984375</LongitudeDegrees>
            </Position>
            <AltitudeMeters>966.4000244140625</AltitudeMeters>
            <DistanceMeters>NAN</DistanceMeters>
          </Trackpoint>
          <Trackpoint>
            <Time>2021-04-04T07:42:44.000Z</Time>
            <Position>
              <LatitudeDegrees>42.33342625200748443603515625</LatitudeDegrees>
              <LongitudeDegrees>2.439538501203060150146484375</LongitudeDegrees>
            </Position>
            <AltitudeMeters>966.20001220703125</AltitudeMeters>
            <DistanceMeters>NAN</DistanceMeters>
          </Trackpoint>
          <Trackpoint>
            <Time>2021-04-04T07:42:48.000Z</Time>
            <Position>
              <LatitudeDegrees>42.33343019150197505950927734375</LatitudeDegrees>
              <LongitudeDegrees>2.439479827880859375</LongitudeDegrees>
            </Position>
            <AltitudeMeters>966</AltitudeMeters>
            <DistanceMeters>NAN</DistanceMeters>
          </Trackpoint>
          <Trackpoint>
            <Time>2021-04-04T07:42:55.000Z</Time>
            <Position>
              <LatitudeDegrees>42.3334418423473834991455078125</LatitudeDegrees>
              <LongitudeDegrees>2.439370863139629364013671875</LongitudeDegrees>
            </Position>
            <AltitudeMeters>965.20001220703125</AltitudeMeters>
            <DistanceMeters>NAN</DistanceMeters>
          </Trackpoint>
          <Trackpoint>
            <Time>2021-04-04T07:42:59.000Z</Time>
            <Position>
              <LatitudeDegrees>42.33344812877476215362548828125</LatitudeDegrees>
              <LongitudeDegrees>2.4393123574554920196533203125</LongitudeDegrees>
            </Position>
            <AltitudeMeters>964.79998779296875</AltitudeMeters>
            <DistanceMeters>NAN</DistanceMeters>
          </Trackpoint>
          <Trackpoint>
            <Time>2021-04-04T07:43:06.000Z</Time>
            <Position>
              <LatitudeDegrees>42.3334639705717563629150390625</LatitudeDegrees>
              <LongitudeDegrees>2.439203560352325439453125</LongitudeDegrees>
            </Position>
            <AltitudeMeters>964.20001220703125</AltitudeMeters>
            <DistanceMeters>NAN</DistanceMeters>
          </Trackpoint>
          <Trackpoint>
            <Time>2021-04-04T07:43:10.000Z</Time>
            <Position>
              <LatitudeDegrees>42.33346221037209033966064453125</LatitudeDegrees>
              <LongitudeDegrees>2.43913876824080944061279296875</LongitudeDegrees>
            </Position>
            <AltitudeMeters>963.79998779296875</AltitudeMeters>
            <DistanceMeters>NAN</DistanceMeters>
          </Trackpoint>
          <Trackpoint>
            <Time>2021-04-04T07:43:12.000Z</Time>
            <Position>
              <LatitudeDegrees>42.33346321620047092437744140625</LatitudeDegrees>
              <LongitudeDegrees>2.4391138739883899688720703125</LongitudeDegrees>
            </Position>
            <AltitudeMeters>963.5999755859375</AltitudeMeters>
            <DistanceMeters>NAN</DistanceMeters>
          </Trackpoint>
          <Trackpoint>
            <Time>2021-04-04T07:43:13.000Z</Time>
            <Position>
              <LatitudeDegrees>42.33346556313335895538330078125</LatitudeDegrees>
              <LongitudeDegrees>2.43910138495266437530517578125</LongitudeDegrees>
            </Position>
            <AltitudeMeters>963.4000244140625</AltitudeMeters>
            <DistanceMeters>NAN</DistanceMeters>
          </Trackpoint>
          <Trackpoint>
            <Time>2021-04-04T07:43:16.000Z</Time>
            <Position>
              <LatitudeDegrees>42.33347478322684764862060546875</LatitudeDegrees>
              <LongitudeDegrees>2.43905964307487010955810546875</LongitudeDegrees>
            </Position>
            <AltitudeMeters>963</AltitudeMeters>
            <DistanceMeters>NAN</DistanceMeters>
          </Trackpoint>
          <Trackpoint>
            <Time>2021-04-04T07:43:18.000Z</Time>
            <Position>
              <LatitudeDegrees>42.333480231463909149169921875</LatitudeDegrees>
              <LongitudeDegrees>2.43902427144348621368408203125</LongitudeDegrees>
            </Position>
            <AltitudeMeters>962.79998779296875</AltitudeMeters>
            <DistanceMeters>NAN</DistanceMeters>
          </Trackpoint>
          <Trackpoint>
            <Time>2021-04-04T07:43:19.000Z</Time>
            <Position>
              <LatitudeDegrees>42.33347796835005283355712890625</LatitudeDegrees>
              <LongitudeDegrees>2.43900599889457225799560546875</LongitudeDegrees>
            </Position>
            <AltitudeMeters>962.79998779296875</AltitudeMeters>
            <DistanceMeters>NAN</DistanceMeters>
          </Trackpoint>
          <Trackpoint>
            <Time>2021-04-04T07:43:22.000Z</Time>
            <Position>
              <LatitudeDegrees>42.33348249457776546478271484375</LatitudeDegrees>
              <LongitudeDegrees>2.4389623291790485382080078125</LongitudeDegrees>
            </Position>
            <AltitudeMeters>962.5999755859375</AltitudeMeters>
            <DistanceMeters>NAN</DistanceMeters>
          </Trackpoint>
          <Trackpoint>
            <Time>2021-04-04T07:43:26.000Z</Time>
            <Position>
              <LatitudeDegrees>42.33349305577576160430908203125</LatitudeDegrees>
              <LongitudeDegrees>2.43890516459941864013671875</LongitudeDegrees>
            </Position>
            <AltitudeMeters>962</AltitudeMeters>
            <DistanceMeters>NAN</DistanceMeters>
          </Trackpoint>
          <Trackpoint>
            <Time>2021-04-04T07:43:30.000Z</Time>
            <Position>
              <LatitudeDegrees>42.33350671827793121337890625</LatitudeDegrees>
              <LongitudeDegrees>2.43883936665952205657958984375</LongitudeDegrees>
            </Position>
            <AltitudeMeters>961.79998779296875</AltitudeMeters>
            <DistanceMeters>NAN</DistanceMeters>
          </Trackpoint>
          <Trackpoint>
            <Time>2021-04-04T07:43:33.000Z</Time>
            <Position>
              <LatitudeDegrees>42.33351342380046844482421875</LatitudeDegrees>
              <LongitudeDegrees>2.438793182373046875</LongitudeDegrees>
            </Position>
            <AltitudeMeters>961.4000244140625</AltitudeMeters>
            <DistanceMeters>NAN</DistanceMeters>
          </Trackpoint>
          <Trackpoint>
            <Time>2021-04-04T07:43:40.000Z</Time>
            <Position>
              <LatitudeDegrees>42.333527840673923492431640625</LatitudeDegrees>
              <LongitudeDegrees>2.438698299229145050048828125</LongitudeDegrees>
            </Position>
            <AltitudeMeters>960.79998779296875</AltitudeMeters>
            <DistanceMeters>NAN</DistanceMeters>
          </Trackpoint>
          <Trackpoint>
            <Time>2021-04-04T07:43:46.000Z</Time>
            <Position>
              <LatitudeDegrees>42.3335404135286808013916015625</LatitudeDegrees>
              <LongitudeDegrees>2.4386082775890827178955078125</LongitudeDegrees>
            </Position>
            <AltitudeMeters>960.20001220703125</AltitudeMeters>
            <DistanceMeters>NAN</DistanceMeters>
          </Trackpoint>
          <Trackpoint>
            <Time>2021-04-04T07:43:50.000Z</Time>
            <Position>
              <LatitudeDegrees>42.33355642296373844146728515625</LatitudeDegrees>
              <LongitudeDegrees>2.4385477602481842041015625</LongitudeDegrees>
            </Position>
            <AltitudeMeters>960</AltitudeMeters>
            <DistanceMeters>NAN</DistanceMeters>
          </Trackpoint>
          <Trackpoint>
            <Time>2021-04-04T07:43:51.000Z</Time>
            <Position>
              <LatitudeDegrees>42.3335591889917850494384765625</LatitudeDegrees>
              <LongitudeDegrees>2.4385331757366657257080078125</LongitudeDegrees>
            </Position>
            <AltitudeMeters>960</AltitudeMeters>
            <DistanceMeters>NAN</DistanceMeters>
          </Trackpoint>
          <Trackpoint>
            <Time>2021-04-04T07:43:55.000Z</Time>
            <Position>
              <LatitudeDegrees>42.33356798999011516571044921875</LatitudeDegrees>
              <LongitudeDegrees>2.4384780228137969970703125</LongitudeDegrees>
            </Position>
            <AltitudeMeters>959.5999755859375</AltitudeMeters>
            <DistanceMeters>NAN</DistanceMeters>
          </Trackpoint>
          <Trackpoint>
            <Time>2021-04-04T07:43:56.000Z</Time>
            <Position>
              <LatitudeDegrees>42.333574108779430389404296875</LatitudeDegrees>
              <LongitudeDegrees>2.43846553377807140350341796875</LongitudeDegrees>
            </Position>
            <AltitudeMeters>959.4000244140625</AltitudeMeters>
            <DistanceMeters>NAN</DistanceMeters>
          </Trackpoint>
          <Trackpoint>
            <Time>2021-04-04T07:43:58.000Z</Time>
            <Position>
              <LatitudeDegrees>42.3335878551006317138671875</LatitudeDegrees>
              <LongitudeDegrees>2.438442818820476531982421875</LongitudeDegrees>
            </Position>
            <AltitudeMeters>959.4000244140625</AltitudeMeters>
            <DistanceMeters>NAN</DistanceMeters>
          </Trackpoint>
          <Trackpoint>
            <Time>2021-04-04T07:44:00.000Z</Time>
            <Position>
              <LatitudeDegrees>42.3335970751941204071044921875</LatitudeDegrees>
              <LongitudeDegrees>2.438420355319976806640625</LongitudeDegrees>
            </Position>
            <AltitudeMeters>959.20001220703125</AltitudeMeters>
            <DistanceMeters>NAN</DistanceMeters>
          </Trackpoint>
          <Trackpoint>
            <Time>2021-04-04T07:44:01.000Z</Time>
            <Position>
              <LatitudeDegrees>42.3336064629256725311279296875</LatitudeDegrees>
              <LongitudeDegrees>2.4384104646742343902587890625</LongitudeDegrees>
            </Position>
            <AltitudeMeters>959.20001220703125</AltitudeMeters>
            <DistanceMeters>NAN</DistanceMeters>
          </Trackpoint>
          <Trackpoint>
            <Time>2021-04-04T07:44:05.000Z</Time>
            <Position>
              <LatitudeDegrees>42.33363772742450237274169921875</LatitudeDegrees>
              <LongitudeDegrees>2.438370399177074432373046875</LongitudeDegrees>
            </Position>
            <AltitudeMeters>959</AltitudeMeters>
            <DistanceMeters>NAN</DistanceMeters>
          </Trackpoint>
          <Trackpoint>
            <Time>2021-04-04T07:44:08.000Z</Time>
            <Position>
              <LatitudeDegrees>42.33365767635405063629150390625</LatitudeDegrees>
              <LongitudeDegrees>2.43833343498408794403076171875</LongitudeDegrees>
            </Position>
            <AltitudeMeters>959</AltitudeMeters>
            <DistanceMeters>NAN</DistanceMeters>
          </Trackpoint>
          <Trackpoint>
            <Time>2021-04-04T07:44:09.000Z</Time>
            <Position>
              <LatitudeDegrees>42.3336664773523807525634765625</LatitudeDegrees>
              <LongitudeDegrees>2.43832538835704326629638671875</LongitudeDegrees>
            </Position>
            <AltitudeMeters>959</AltitudeMeters>
            <DistanceMeters>NAN</DistanceMeters>
          </Trackpoint>
          <Trackpoint>
            <Time>2021-04-04T07:44:15.000Z</Time>
            <Position>
              <LatitudeDegrees>42.33372397720813751220703125</LatitudeDegrees>
              <LongitudeDegrees>2.4382553994655609130859375</LongitudeDegrees>
            </Position>
            <AltitudeMeters>958.5999755859375</AltitudeMeters>
            <DistanceMeters>NAN</DistanceMeters>
          </Trackpoint>
          <Trackpoint>
            <Time>2021-04-04T07:44:20.000Z</Time>
            <Position>
              <LatitudeDegrees>42.3337648808956146240234375</LatitudeDegrees>
              <LongitudeDegrees>2.43821005336940288543701171875</LongitudeDegrees>
            </Position>
            <AltitudeMeters>958.4000244140625</AltitudeMeters>
            <DistanceMeters>NAN</DistanceMeters>
          </Trackpoint>
          <Trackpoint>
            <Time>2021-04-04T07:44:23.000Z</Time>
            <Position>
              <LatitudeDegrees>42.33376831747591495513916015625</LatitudeDegrees>
              <LongitudeDegrees>2.4381774477660655975341796875</LongitudeDegrees>
            </Position>
            <AltitudeMeters>958.20001220703125</AltitudeMeters>
            <DistanceMeters>NAN</DistanceMeters>
          </Trackpoint>
          <Trackpoint>
            <Time>2021-04-04T07:44:24.000Z</Time>
            <Position>
              <LatitudeDegrees>42.3337757773697376251220703125</LatitudeDegrees>
              <LongitudeDegrees>2.438161186873912811279296875</LongitudeDegrees>
            </Position>
            <AltitudeMeters>958.20001220703125</AltitudeMeters>
            <DistanceMeters>NAN</DistanceMeters>
          </Trackpoint>
          <Trackpoint>
            <Time>2021-04-04T07:44:26.000Z</Time>
            <Position>
              <LatitudeDegrees>42.3337876796722412109375</LatitudeDegrees>
              <LongitudeDegrees>2.43813578970730304718017578125</LongitudeDegrees>
            </Position>
            <AltitudeMeters>958.20001220703125</AltitudeMeters>
            <DistanceMeters>NAN</DistanceMeters>
          </Trackpoint>
          <Trackpoint>
            <Time>2021-04-04T07:44:30.000Z</Time>
            <Position>
              <LatitudeDegrees>42.3338082991540431976318359375</LatitudeDegrees>
              <LongitudeDegrees>2.43806554935872554779052734375</LongitudeDegrees>
            </Position>
            <AltitudeMeters>958.20001220703125</AltitudeMeters>
            <DistanceMeters>NAN</DistanceMeters>
          </Trackpoint>
          <Trackpoint>
            <Time>2021-04-04T07:44:31.000Z</Time>
            <Position>
              <LatitudeDegrees>42.33381207101047039031982421875</LatitudeDegrees>
              <LongitudeDegrees>2.438043169677257537841796875</LongitudeDegrees>
            </Position>
            <AltitudeMeters>958.20001220703125</AltitudeMeters>
            <DistanceMeters>NAN</DistanceMeters>
          </Trackpoint>
          <Trackpoint>
            <Time>2021-04-04T07:44:34.000Z</Time>
            <Position>
              <LatitudeDegrees>42.3338357917964458465576171875</LatitudeDegrees>
              <LongitudeDegrees>2.438012994825839996337890625</LongitudeDegrees>
            </Position>
            <AltitudeMeters>958</AltitudeMeters>
            <DistanceMeters>NAN</DistanceMeters>
          </Trackpoint>
          <Trackpoint>
            <Time>2021-04-04T07:44:36.000Z</Time>
            <Position>
              <LatitudeDegrees>42.33384995721280574798583984375</LatitudeDegrees>
              <LongitudeDegrees>2.43798726238310337066650390625</LongitudeDegrees>
            </Position>
            <AltitudeMeters>957.79998779296875</AltitudeMeters>
            <DistanceMeters>NAN</DistanceMeters>
          </Trackpoint>
          <Trackpoint>
            <Time>2021-04-04T07:44:41.000Z</Time>
            <Position>
              <LatitudeDegrees>42.333905696868896484375</LatitudeDegrees>
              <LongitudeDegrees>2.4379461072385311126708984375</LongitudeDegrees>
            </Position>
            <AltitudeMeters>958</AltitudeMeters>
            <DistanceMeters>NAN</DistanceMeters>
          </Trackpoint>
          <Trackpoint>
            <Time>2021-04-04T07:44:43.000Z</Time>
            <Position>
              <LatitudeDegrees>42.33392220921814441680908203125</LatitudeDegrees>
              <LongitudeDegrees>2.43792557157576084136962890625</LongitudeDegrees>
            </Position>
            <AltitudeMeters>958</AltitudeMeters>
            <DistanceMeters>NAN</DistanceMeters>
          </Trackpoint>
          <Trackpoint>
            <Time>2021-04-04T07:44:44.000Z</Time>
            <Position>
              <LatitudeDegrees>42.33391718007624149322509765625</LatitudeDegrees>
              <LongitudeDegrees>2.437917776405811309814453125</LongitudeDegrees>
            </Position>
            <AltitudeMeters>958</AltitudeMeters>
            <DistanceMeters>NAN</DistanceMeters>
          </Trackpoint>
          <Trackpoint>
            <Time>2021-04-04T07:44:47.000Z</Time>
            <Position>
              <LatitudeDegrees>42.33391131274402141571044921875</LatitudeDegrees>
              <LongitudeDegrees>2.4379082210361957550048828125</LongitudeDegrees>
            </Position>
            <AltitudeMeters>958</AltitudeMeters>
            <DistanceMeters>NAN</DistanceMeters>
          </Trackpoint>
          <Trackpoint>
            <Time>2021-04-04T07:44:48.000Z</Time>
            <Position>
              <LatitudeDegrees>42.33391039073467254638671875</LatitudeDegrees>
              <LongitudeDegrees>2.4379041977226734161376953125</LongitudeDegrees>
            </Position>
            <AltitudeMeters>958</AltitudeMeters>
            <DistanceMeters>NAN</DistanceMeters>
          </Trackpoint>
          <Trackpoint>
            <Time>2021-04-04T07:44:51.000Z</Time>
            <Position>
              <LatitudeDegrees>42.33390494249761104583740234375</LatitudeDegrees>
              <LongitudeDegrees>2.43788969703018665313720703125</LongitudeDegrees>
            </Position>
            <AltitudeMeters>958</AltitudeMeters>
            <DistanceMeters>NAN</DistanceMeters>
          </Trackpoint>
          <Trackpoint>
            <Time>2021-04-04T07:44:57.000Z</Time>
            <Position>
              <LatitudeDegrees>42.33389873988926410675048828125</LatitudeDegrees>
              <LongitudeDegrees>2.4378696642816066741943359375</LongitudeDegrees>
            </Position>
            <AltitudeMeters>958</AltitudeMeters>
            <DistanceMeters>NAN</DistanceMeters>
          </Trackpoint>
          <Trackpoint>
            <Time>2021-04-04T07:44:58.000Z</Time>
            <Position>
              <LatitudeDegrees>42.33388801105320453643798828125</LatitudeDegrees>
              <LongitudeDegrees>2.43786991573870182037353515625</LongitudeDegrees>
            </Position>
            <AltitudeMeters>958</AltitudeMeters>
            <DistanceMeters>NAN</DistanceMeters>
          </Trackpoint>
          <Trackpoint>
            <Time>2021-04-04T07:45:03.000Z</Time>
            <Position>
              <LatitudeDegrees>42.3338424973189830780029296875</LatitudeDegrees>
              <LongitudeDegrees>2.4378807283937931060791015625</LongitudeDegrees>
            </Position>
            <AltitudeMeters>958.20001220703125</AltitudeMeters>
            <DistanceMeters>NAN</DistanceMeters>
          </Trackpoint>
          <Trackpoint>
            <Time>2021-04-04T07:45:04.000Z</Time>
            <Position>
              <LatitudeDegrees>42.3338341154158115386962890625</LatitudeDegrees>
              <LongitudeDegrees>2.4378825724124908447265625</LongitudeDegrees>
            </Position>
            <AltitudeMeters>958.20001220703125</AltitudeMeters>
            <DistanceMeters>NAN</DistanceMeters>
          </Trackpoint>
          <Trackpoint>
            <Time>2021-04-04T07:45:10.000Z</Time>
            <Position>
              <LatitudeDegrees>42.333798743784427642822265625</LatitudeDegrees>
              <LongitudeDegrees>2.43794719688594341278076171875</LongitudeDegrees>
            </Position>
            <AltitudeMeters>958.5999755859375</AltitudeMeters>
            <DistanceMeters>NAN</DistanceMeters>
          </Trackpoint>
          <Trackpoint>
            <Time>2021-04-04T07:45:16.000Z</Time>
            <Position>
              <LatitudeDegrees>42.3337285034358501434326171875</LatitudeDegrees>
              <LongitudeDegrees>2.43797846138477325439453125</LongitudeDegrees>
            </Position>
            <AltitudeMeters>958.4000244140625</AltitudeMeters>
            <DistanceMeters>NAN</DistanceMeters>
          </Trackpoint>
          <Trackpoint>
            <Time>2021-04-04T07:45:17.000Z</Time>
            <Position>
              <LatitudeDegrees>42.333716265857219696044921875</LatitudeDegrees>
              <LongitudeDegrees>2.43796966038644313812255859375</LongitudeDegrees>
            </Position>
            <AltitudeMeters>958.5999755859375</AltitudeMeters>
            <DistanceMeters>NAN</DistanceMeters>
          </Trackpoint>
          <Trackpoint>
            <Time>2021-04-04T07:45:25.000Z</Time>
            <Position>
              <LatitudeDegrees>42.33361694030463695526123046875</LatitudeDegrees>
              <LongitudeDegrees>2.43793361820280551910400390625</LongitudeDegrees>
            </Position>
            <AltitudeMeters>959</AltitudeMeters>
            <DistanceMeters>NAN</DistanceMeters>
          </Trackpoint>
          <Trackpoint>
            <Time>2021-04-04T07:45:27.000Z</Time>
            <Position>
              <LatitudeDegrees>42.33359062112867832183837890625</LatitudeDegrees>
              <LongitudeDegrees>2.43792615830898284912109375</LongitudeDegrees>
            </Position>
            <AltitudeMeters>959.20001220703125</AltitudeMeters>
            <DistanceMeters>NAN</DistanceMeters>
          </Trackpoint>
          <Trackpoint>
            <Time>2021-04-04T07:45:28.000Z</Time>
            <Position>
              <LatitudeDegrees>42.33358358033001422882080078125</LatitudeDegrees>
              <LongitudeDegrees>2.437925823032855987548828125</LongitudeDegrees>
            </Position>
            <AltitudeMeters>959.4000244140625</AltitudeMeters>
            <DistanceMeters>NAN</DistanceMeters>
          </Trackpoint>
          <Trackpoint>
            <Time>2021-04-04T07:45:34.000Z</Time>
            <Position>
              <LatitudeDegrees>42.33353890478610992431640625</LatitudeDegrees>
              <LongitudeDegrees>2.4378958158195018768310546875</LongitudeDegrees>
            </Position>
            <AltitudeMeters>959.79998779296875</AltitudeMeters>
            <DistanceMeters>NAN</DistanceMeters>
          </Trackpoint>
          <Trackpoint>
            <Time>2021-04-04T07:45:36.000Z</Time>
            <Position>
              <LatitudeDegrees>42.3335249908268451690673828125</LatitudeDegrees>
              <LongitudeDegrees>2.4378852546215057373046875</LongitudeDegrees>
            </Position>
            <AltitudeMeters>959.79998779296875</AltitudeMeters>
            <DistanceMeters>NAN</DistanceMeters>
          </Trackpoint>
          <Trackpoint>
            <Time>2021-04-04T07:45:38.000Z</Time>
            <Position>
              <LatitudeDegrees>42.33350227586925029754638671875</LatitudeDegrees>
              <LongitudeDegrees>2.4378720112144947052001953125</LongitudeDegrees>
            </Position>
            <AltitudeMeters>959.79998779296875</AltitudeMeters>
            <DistanceMeters>NAN</DistanceMeters>
          </Trackpoint>
          <Trackpoint>
            <Time>2021-04-04T07:45:39.000Z</Time>
            <Position>
              <LatitudeDegrees>42.33349707908928394317626953125</LatitudeDegrees>
              <LongitudeDegrees>2.4378666467964649200439453125</LongitudeDegrees>
            </Position>
            <AltitudeMeters>960</AltitudeMeters>
            <DistanceMeters>NAN</DistanceMeters>
          </Trackpoint>
          <Trackpoint>
            <Time>2021-04-04T07:45:43.000Z</Time>
            <Position>
              <LatitudeDegrees>42.3334743641316890716552734375</LatitudeDegrees>
              <LongitudeDegrees>2.4378455244004726409912109375</LongitudeDegrees>
            </Position>
            <AltitudeMeters>960.20001220703125</AltitudeMeters>
            <DistanceMeters>NAN</DistanceMeters>
          </Trackpoint>
          <Trackpoint>
            <Time>2021-04-04T07:45:46.000Z</Time>
            <Position>
              <LatitudeDegrees>42.33345433138310909271240234375</LatitudeDegrees>
              <LongitudeDegrees>2.43782146833837032318115234375</LongitudeDegrees>
            </Position>
            <AltitudeMeters>960.20001220703125</AltitudeMeters>
            <DistanceMeters>NAN</DistanceMeters>
          </Trackpoint>
          <Trackpoint>
            <Time>2021-04-04T07:45:53.000Z</Time>
            <Position>
              <LatitudeDegrees>42.33341828919947147369384765625</LatitudeDegrees>
              <LongitudeDegrees>2.43774184025824069976806640625</LongitudeDegrees>
            </Position>
            <AltitudeMeters>960.4000244140625</AltitudeMeters>
            <DistanceMeters>NAN</DistanceMeters>
          </Trackpoint>
          <Trackpoint>
            <Time>2021-04-04T07:46:00.000Z</Time>
            <Position>
              <LatitudeDegrees>42.3333840072154998779296875</LatitudeDegrees>
              <LongitudeDegrees>2.43765014223754405975341796875</LongitudeDegrees>
            </Position>
            <AltitudeMeters>960.20001220703125</AltitudeMeters>
            <DistanceMeters>NAN</DistanceMeters>
          </Trackpoint>
          <Trackpoint>
            <Time>2021-04-04T07:46:03.000Z</Time>
            <Position>
              <LatitudeDegrees>42.33336548320949077606201171875</LatitudeDegrees>
              <LongitudeDegrees>2.4376024492084980010986328125</LongitudeDegrees>
            </Position>
            <AltitudeMeters>960</AltitudeMeters>
            <DistanceMeters>NAN</DistanceMeters>
          </Trackpoint>
          <Trackpoint>
            <Time>2021-04-04T07:46:11.000Z</Time>
            <Position>
              <LatitudeDegrees>42.333312928676605224609375</LatitudeDegrees>
              <LongitudeDegrees>2.437463141977787017822265625</LongitudeDegrees>
            </Position>
            <AltitudeMeters>960</AltitudeMeters>
            <DistanceMeters>NAN</DistanceMeters>
          </Trackpoint>
          <Trackpoint>
            <Time>2021-04-04T07:46:20.000Z</Time>
            <Position>
              <LatitudeDegrees>42.33331385068595409393310546875</LatitudeDegrees>
              <LongitudeDegrees>2.43733179755508899688720703125</LongitudeDegrees>
            </Position>
            <AltitudeMeters>960.20001220703125</AltitudeMeters>
            <DistanceMeters>NAN</DistanceMeters>
          </Trackpoint>
          <Trackpoint>
            <Time>2021-04-04T07:46:23.000Z</Time>
            <Position>
              <LatitudeDegrees>42.33332290314137935638427734375</LatitudeDegrees>
              <LongitudeDegrees>2.43728200905025005340576171875</LongitudeDegrees>
            </Position>
            <AltitudeMeters>960.20001220703125</AltitudeMeters>
            <DistanceMeters>NAN</DistanceMeters>
          </Trackpoint>
          <Trackpoint>
            <Time>2021-04-04T07:46:24.000Z</Time>
            <Position>
              <LatitudeDegrees>42.3333249986171722412109375</LatitudeDegrees>
              <LongitudeDegrees>2.437264658510684967041015625</LongitudeDegrees>
            </Position>
            <AltitudeMeters>960.20001220703125</AltitudeMeters>
            <DistanceMeters>NAN</DistanceMeters>
          </Trackpoint>
          <Trackpoint>
            <Time>2021-04-04T07:46:28.000Z</Time>
            <Position>
              <LatitudeDegrees>42.33334402553737163543701171875</LatitudeDegrees>
              <LongitudeDegrees>2.4372031353414058685302734375</LongitudeDegrees>
            </Position>
            <AltitudeMeters>960.4000244140625</AltitudeMeters>
            <DistanceMeters>NAN</DistanceMeters>
          </Trackpoint>
          <Trackpoint>
            <Time>2021-04-04T07:46:35.000Z</Time>
            <Position>
              <LatitudeDegrees>42.3333855159580707550048828125</LatitudeDegrees>
              <LongitudeDegrees>2.43710448034107685089111328125</LongitudeDegrees>
            </Position>
            <AltitudeMeters>960.20001220703125</AltitudeMeters>
            <DistanceMeters>NAN</DistanceMeters>
          </Trackpoint>
          <Trackpoint>
            <Time>2021-04-04T07:46:40.000Z</Time>
            <Position>
              <LatitudeDegrees>42.3334217257797718048095703125</LatitudeDegrees>
              <LongitudeDegrees>2.43703725747764110565185546875</LongitudeDegrees>
            </Position>
            <AltitudeMeters>960.20001220703125</AltitudeMeters>
            <DistanceMeters>NAN</DistanceMeters>
          </Trackpoint>
          <Trackpoint>
            <Time>2021-04-04T07:46:42.000Z</Time>
            <Position>
              <LatitudeDegrees>42.33343966305255889892578125</LatitudeDegrees>
              <LongitudeDegrees>2.43700993247330188751220703125</LongitudeDegrees>
            </Position>
            <AltitudeMeters>960.20001220703125</AltitudeMeters>
            <DistanceMeters>NAN</DistanceMeters>
          </Trackpoint>
          <Trackpoint>
            <Time>2021-04-04T07:46:44.000Z</Time>
            <Position>
              <LatitudeDegrees>42.33344913460314273834228515625</LatitudeDegrees>
              <LongitudeDegrees>2.436983697116374969482421875</LongitudeDegrees>
            </Position>
            <AltitudeMeters>960.20001220703125</AltitudeMeters>
            <DistanceMeters>NAN</DistanceMeters>
          </Trackpoint>
          <Trackpoint>
            <Time>2021-04-04T07:46:45.000Z</Time>
            <Position>
              <LatitudeDegrees>42.33345835469663143157958984375</LatitudeDegrees>
              <LongitudeDegrees>2.436970956623554229736328125</LongitudeDegrees>
            </Position>
            <AltitudeMeters>960.20001220703125</AltitudeMeters>
            <DistanceMeters>NAN</DistanceMeters>
          </Trackpoint>
          <Trackpoint>
            <Time>2021-04-04T07:46:50.000Z</Time>
            <Position>
              <LatitudeDegrees>42.3334921337664127349853515625</LatitudeDegrees>
              <LongitudeDegrees>2.43688034825026988983154296875</LongitudeDegrees>
            </Position>
            <AltitudeMeters>960</AltitudeMeters>
            <DistanceMeters>NAN</DistanceMeters>
          </Trackpoint>
          <Trackpoint>
            <Time>2021-04-04T07:46:51.000Z</Time>
            <Position>
              <LatitudeDegrees>42.3334939777851104736328125</LatitudeDegrees>
              <LongitudeDegrees>2.43686509318649768829345703125</LongitudeDegrees>
            </Position>
            <AltitudeMeters>960</AltitudeMeters>
            <DistanceMeters>NAN</DistanceMeters>
          </Trackpoint>
          <Trackpoint>
            <Time>2021-04-04T07:46:54.000Z</Time>
            <Position>
              <LatitudeDegrees>42.33353077434003353118896484375</LatitudeDegrees>
              <LongitudeDegrees>2.4368440546095371246337890625</LongitudeDegrees>
            </Position>
            <AltitudeMeters>959.79998779296875</AltitudeMeters>
            <DistanceMeters>NAN</DistanceMeters>
          </Trackpoint>
          <Trackpoint>
            <Time>2021-04-04T07:46:55.000Z</Time>
            <Position>
              <LatitudeDegrees>42.3335400782525539398193359375</LatitudeDegrees>
              <LongitudeDegrees>2.4368376843631267547607421875</LongitudeDegrees>
            </Position>
            <AltitudeMeters>959.5999755859375</AltitudeMeters>
            <DistanceMeters>NAN</DistanceMeters>
          </Trackpoint>
          <Trackpoint>
            <Time>2021-04-04T07:47:04.000Z</Time>
            <Position>
              <LatitudeDegrees>42.33362666331231594085693359375</LatitudeDegrees>
              <LongitudeDegrees>2.4368048273026943206787109375</LongitudeDegrees>
            </Position>
            <AltitudeMeters>958.79998779296875</AltitudeMeters>
            <DistanceMeters>NAN</DistanceMeters>
          </Trackpoint>
          <Trackpoint>
            <Time>2021-04-04T07:47:05.000Z</Time>
            <Position>
              <LatitudeDegrees>42.33363521285355091094970703125</LatitudeDegrees>
              <LongitudeDegrees>2.43679560720920562744140625</LongitudeDegrees>
            </Position>
            <AltitudeMeters>958.5999755859375</AltitudeMeters>
            <DistanceMeters>NAN</DistanceMeters>
          </Trackpoint>
          <Trackpoint>
            <Time>2021-04-04T07:47:09.000Z</Time>
            <Position>
              <LatitudeDegrees>42.3336694948375225067138671875</LatitudeDegrees>
              <LongitudeDegrees>2.43677037768065929412841796875</LongitudeDegrees>
            </Position>
            <AltitudeMeters>958.20001220703125</AltitudeMeters>
            <DistanceMeters>NAN</DistanceMeters>
          </Trackpoint>
          <Trackpoint>
            <Time>2021-04-04T07:47:10.000Z</Time>
            <Position>
              <LatitudeDegrees>42.3336782120168209075927734375</LatitudeDegrees>
              <LongitudeDegrees>2.43676476180553436279296875</LongitudeDegrees>
            </Position>
            <AltitudeMeters>957.79998779296875</AltitudeMeters>
            <DistanceMeters>NAN</DistanceMeters>
          </Trackpoint>
          <Trackpoint>
            <Time>2021-04-04T07:47:13.000Z</Time>
            <Position>
              <LatitudeDegrees>42.33370042406022548675537109375</LatitudeDegrees>
              <LongitudeDegrees>2.43674330413341522216796875</LongitudeDegrees>
            </Position>
            <AltitudeMeters>957.5999755859375</AltitudeMeters>
            <DistanceMeters>NAN</DistanceMeters>
          </Trackpoint>
          <Trackpoint>
            <Time>2021-04-04T07:47:15.000Z</Time>
            <Position>
              <LatitudeDegrees>42.33370914123952388763427734375</LatitudeDegrees>
              <LongitudeDegrees>2.4367206729948520660400390625</LongitudeDegrees>
            </Position>
            <AltitudeMeters>957.5999755859375</AltitudeMeters>
            <DistanceMeters>NAN</DistanceMeters>
          </Trackpoint>
          <Trackpoint>
            <Time>2021-04-04T07:47:16.000Z</Time>
            <Position>
              <LatitudeDegrees>42.33371727168560028076171875</LatitudeDegrees>
              <LongitudeDegrees>2.43670709431171417236328125</LongitudeDegrees>
            </Position>
            <AltitudeMeters>957.4000244140625</AltitudeMeters>
            <DistanceMeters>NAN</DistanceMeters>
          </Trackpoint>
          <Trackpoint>
            <Time>2021-04-04T07:47:17.000Z</Time>
            <Position>
              <LatitudeDegrees>42.33373143710196018218994140625</LatitudeDegrees>
              <LongitudeDegrees>2.43669644929468631744384765625</LongitudeDegrees>
            </Position>
            <AltitudeMeters>957.4000244140625</AltitudeMeters>
            <DistanceMeters>NAN</DistanceMeters>
          </Trackpoint>
          <Trackpoint>
            <Time>2021-04-04T07:47:21.000Z</Time>
            <Position>
              <LatitudeDegrees>42.33376949094235897064208984375</LatitudeDegrees>
              <LongitudeDegrees>2.4366643466055393218994140625</LongitudeDegrees>
            </Position>
            <AltitudeMeters>957.20001220703125</AltitudeMeters>
            <DistanceMeters>NAN</DistanceMeters>
          </Trackpoint>
          <Trackpoint>
            <Time>2021-04-04T07:47:22.000Z</Time>
            <Position>
              <LatitudeDegrees>42.3337774537503719329833984375</LatitudeDegrees>
              <LongitudeDegrees>2.4366594851016998291015625</LongitudeDegrees>
            </Position>
            <AltitudeMeters>957.20001220703125</AltitudeMeters>
            <DistanceMeters>NAN</DistanceMeters>
          </Trackpoint>
          <Trackpoint>
            <Time>2021-04-04T07:47:28.000Z</Time>
            <Position>
              <LatitudeDegrees>42.33382992446422576904296875</LatitudeDegrees>
              <LongitudeDegrees>2.4365989677608013153076171875</LongitudeDegrees>
            </Position>
            <AltitudeMeters>956.79998779296875</AltitudeMeters>
            <DistanceMeters>NAN</DistanceMeters>
          </Trackpoint>
          <Trackpoint>
            <Time>2021-04-04T07:47:29.000Z</Time>
            <Position>
              <LatitudeDegrees>42.3338374681770801544189453125</LatitudeDegrees>
              <LongitudeDegrees>2.43658161722123622894287109375</LongitudeDegrees>
            </Position>
            <AltitudeMeters>956.79998779296875</AltitudeMeters>
            <DistanceMeters>NAN</DistanceMeters>
          </Trackpoint>
          <Trackpoint>
            <Time>2021-04-04T07:47:31.000Z</Time>
            <Position>
              <LatitudeDegrees>42.333849705755710601806640625</LatitudeDegrees>
              <LongitudeDegrees>2.4365490116178989410400390625</LongitudeDegrees>
            </Position>
            <AltitudeMeters>956.79998779296875</AltitudeMeters>
            <DistanceMeters>NAN</DistanceMeters>
          </Trackpoint>
          <Trackpoint>
            <Time>2021-04-04T07:47:32.000Z</Time>
            <Position>
              <LatitudeDegrees>42.33385540544986724853515625</LatitudeDegrees>
              <LongitudeDegrees>2.436531744897365570068359375</LongitudeDegrees>
            </Position>
            <AltitudeMeters>956.79998779296875</AltitudeMeters>
            <DistanceMeters>NAN</DistanceMeters>
          </Trackpoint>
          <Trackpoint>
            <Time>2021-04-04T07:47:33.000Z</Time>
            <Position>
              <LatitudeDegrees>42.3338575847446918487548828125</LatitudeDegrees>
              <LongitudeDegrees>2.4365278892219066619873046875</LongitudeDegrees>
            </Position>
            <AltitudeMeters>956.79998779296875</AltitudeMeters>
            <DistanceMeters>NAN</DistanceMeters>
          </Trackpoint>
          <Trackpoint>
            <Time>2021-04-04T07:47:36.000Z</Time>
            <Position>
              <LatitudeDegrees>42.3338891007006168365478515625</LatitudeDegrees>
              <LongitudeDegrees>2.4365060962736606597900390625</LongitudeDegrees>
            </Position>
            <AltitudeMeters>956.79998779296875</AltitudeMeters>
            <DistanceMeters>NAN</DistanceMeters>
          </Trackpoint>
          <Trackpoint>
            <Time>2021-04-04T07:47:39.000Z</Time>
            <Position>
              <LatitudeDegrees>42.333930172026157379150390625</LatitudeDegrees>
              <LongitudeDegrees>2.4365124665200710296630859375</LongitudeDegrees>
            </Position>
            <AltitudeMeters>956.5999755859375</AltitudeMeters>
            <DistanceMeters>NAN</DistanceMeters>
          </Trackpoint>
          <Trackpoint>
            <Time>2021-04-04T07:47:40.000Z</Time>
            <Position>
              <LatitudeDegrees>42.333929836750030517578125</LatitudeDegrees>
              <LongitudeDegrees>2.43651120923459529876708984375</LongitudeDegrees>
            </Position>
            <AltitudeMeters>956.5999755859375</AltitudeMeters>
            <DistanceMeters>NAN</DistanceMeters>
          </Trackpoint>
          <Trackpoint>
            <Time>2021-04-04T07:47:46.000Z</Time>
            <Position>
              <LatitudeDegrees>42.3339239694178104400634765625</LatitudeDegrees>
              <LongitudeDegrees>2.4365248717367649078369140625</LongitudeDegrees>
            </Position>
            <AltitudeMeters>956.5999755859375</AltitudeMeters>
            <DistanceMeters>NAN</DistanceMeters>
          </Trackpoint>
          <Trackpoint>
            <Time>2021-04-04T07:47:49.000Z</Time>
            <Position>
              <LatitudeDegrees>42.33392120338976383209228515625</LatitudeDegrees>
              <LongitudeDegrees>2.436536438763141632080078125</LongitudeDegrees>
            </Position>
            <AltitudeMeters>956.79998779296875</AltitudeMeters>
            <DistanceMeters>NAN</DistanceMeters>
          </Trackpoint>
          <Trackpoint>
            <Time>2021-04-04T07:47:51.000Z</Time>
            <Position>
              <LatitudeDegrees>42.333905361592769622802734375</LatitudeDegrees>
              <LongitudeDegrees>2.4365516938269138336181640625</LongitudeDegrees>
            </Position>
            <AltitudeMeters>956.79998779296875</AltitudeMeters>
            <DistanceMeters>NAN</DistanceMeters>
          </Trackpoint>
          <Trackpoint>
            <Time>2021-04-04T07:47:53.000Z</Time>
            <Position>
              <LatitudeDegrees>42.33388356864452362060546875</LatitudeDegrees>
              <LongitudeDegrees>2.43655932135879993438720703125</LongitudeDegrees>
            </Position>
            <AltitudeMeters>957</AltitudeMeters>
            <DistanceMeters>NAN</DistanceMeters>
          </Trackpoint>
          <Trackpoint>
            <Time>2021-04-04T07:47:56.000Z</Time>
            <Position>
              <LatitudeDegrees>42.33384761027991771697998046875</LatitudeDegrees>
              <LongitudeDegrees>2.4365895800292491912841796875</LongitudeDegrees>
            </Position>
            <AltitudeMeters>957.20001220703125</AltitudeMeters>
            <DistanceMeters>NAN</DistanceMeters>
          </Trackpoint>
          <Trackpoint>
            <Time>2021-04-04T07:47:57.000Z</Time>
            <Position>
              <LatitudeDegrees>42.3338290862739086151123046875</LatitudeDegrees>
              <LongitudeDegrees>2.43660659529268741607666015625</LongitudeDegrees>
            </Position>
            <AltitudeMeters>957.20001220703125</AltitudeMeters>
            <DistanceMeters>NAN</DistanceMeters>
          </Trackpoint>
          <Trackpoint>
            <Time>2021-04-04T07:47:59.000Z</Time>
            <Position>
              <LatitudeDegrees>42.33380117453634738922119140625</LatitudeDegrees>
              <LongitudeDegrees>2.4366366863250732421875</LongitudeDegrees>
            </Position>
            <AltitudeMeters>957.4000244140625</AltitudeMeters>
            <DistanceMeters>NAN</DistanceMeters>
          </Trackpoint>
          <Trackpoint>
            <Time>2021-04-04T07:48:04.000Z</Time>
            <Position>
              <LatitudeDegrees>42.33374954201281070709228515625</LatitudeDegrees>
              <LongitudeDegrees>2.436694689095020294189453125</LongitudeDegrees>
            </Position>
            <AltitudeMeters>957.5999755859375</AltitudeMeters>
            <DistanceMeters>NAN</DistanceMeters>
          </Trackpoint>
          <Trackpoint>
            <Time>2021-04-04T07:48:05.000Z</Time>
            <Position>
              <LatitudeDegrees>42.33374116010963916778564453125</LatitudeDegrees>
              <LongitudeDegrees>2.43669343180954456329345703125</LongitudeDegrees>
            </Position>
            <AltitudeMeters>957.4000244140625</AltitudeMeters>
            <DistanceMeters>NAN</DistanceMeters>
          </Trackpoint>
          <Trackpoint>
            <Time>2021-04-04T07:48:06.000Z</Time>
            <Position>
              <LatitudeDegrees>42.3337409086525440216064453125</LatitudeDegrees>
              <LongitudeDegrees>2.43669091723859310150146484375</LongitudeDegrees>
            </Position>
            <AltitudeMeters>957.4000244140625</AltitudeMeters>
            <DistanceMeters>NAN</DistanceMeters>
          </Trackpoint>
          <Trackpoint>
            <Time>2021-04-04T07:48:09.000Z</Time>
            <Position>
              <LatitudeDegrees>42.33371953479945659637451171875</LatitudeDegrees>
              <LongitudeDegrees>2.436673901975154876708984375</LongitudeDegrees>
            </Position>
            <AltitudeMeters>957.20001220703125</AltitudeMeters>
            <DistanceMeters>NAN</DistanceMeters>
          </Trackpoint>
          <Trackpoint>
            <Time>2021-04-04T07:48:10.000Z</Time>
            <Position>
              <LatitudeDegrees>42.33371634967625141143798828125</LatitudeDegrees>
              <LongitudeDegrees>2.43666610680520534515380859375</LongitudeDegrees>
            </Position>
            <AltitudeMeters>957.20001220703125</AltitudeMeters>
            <DistanceMeters>NAN</DistanceMeters>
          </Trackpoint>
          <Trackpoint>
            <Time>2021-04-04T07:48:11.000Z</Time>
            <Position>
              <LatitudeDegrees>42.333707548677921295166015625</LatitudeDegrees>
              <LongitudeDegrees>2.43666091002523899078369140625</LongitudeDegrees>
            </Position>
            <AltitudeMeters>957</AltitudeMeters>
            <DistanceMeters>NAN</DistanceMeters>
          </Trackpoint>
          <Trackpoint>
            <Time>2021-04-04T07:48:15.000Z</Time>
            <Position>
              <LatitudeDegrees>42.33367343433201313018798828125</LatitudeDegrees>
              <LongitudeDegrees>2.43665738962590694427490234375</LongitudeDegrees>
            </Position>
            <AltitudeMeters>956.5999755859375</AltitudeMeters>
            <DistanceMeters>NAN</DistanceMeters>
          </Trackpoint>
          <Trackpoint>
            <Time>2021-04-04T07:48:16.000Z</Time>
            <Position>
              <LatitudeDegrees>42.333665974438190460205078125</LatitudeDegrees>
              <LongitudeDegrees>2.43665940128266811370849609375</LongitudeDegrees>
            </Position>
            <AltitudeMeters>956.4000244140625</AltitudeMeters>
            <DistanceMeters>NAN</DistanceMeters>
          </Trackpoint>
          <Trackpoint>
            <Time>2021-04-04T07:48:18.000Z</Time>
            <Position>
              <LatitudeDegrees>42.33366186730563640594482421875</LatitudeDegrees>
              <LongitudeDegrees>2.43665345013141632080078125</LongitudeDegrees>
            </Position>
            <AltitudeMeters>956.4000244140625</AltitudeMeters>
            <DistanceMeters>NAN</DistanceMeters>
          </Trackpoint>
          <Trackpoint>
            <Time>2021-04-04T07:48:25.000Z</Time>
            <Position>
              <LatitudeDegrees>42.33356916345655918121337890625</LatitudeDegrees>
              <LongitudeDegrees>2.4366093613207340240478515625</LongitudeDegrees>
            </Position>
            <AltitudeMeters>956.5999755859375</AltitudeMeters>
            <DistanceMeters>NAN</DistanceMeters>
          </Trackpoint>
          <Trackpoint>
            <Time>2021-04-04T07:48:30.000Z</Time>
            <Position>
              <LatitudeDegrees>42.33348802663385868072509765625</LatitudeDegrees>
              <LongitudeDegrees>2.43661430664360523223876953125</LongitudeDegrees>
            </Position>
            <AltitudeMeters>956.20001220703125</AltitudeMeters>
            <DistanceMeters>NAN</DistanceMeters>
          </Trackpoint>
          <Trackpoint>
            <Time>2021-04-04T07:48:31.000Z</Time>
            <Position>
              <LatitudeDegrees>42.3334760405123233795166015625</LatitudeDegrees>
              <LongitudeDegrees>2.436617910861968994140625</LongitudeDegrees>
            </Position>
            <AltitudeMeters>956.20001220703125</AltitudeMeters>
            <DistanceMeters>NAN</DistanceMeters>
          </Trackpoint>
          <Trackpoint>
            <Time>2021-04-04T07:48:32.000Z</Time>
            <Position>
              <LatitudeDegrees>42.3334725201129913330078125</LatitudeDegrees>
              <LongitudeDegrees>2.43661212734878063201904296875</LongitudeDegrees>
            </Position>
            <AltitudeMeters>956.20001220703125</AltitudeMeters>
            <DistanceMeters>NAN</DistanceMeters>
          </Trackpoint>
          <Trackpoint>
            <Time>2021-04-04T07:48:33.000Z</Time>
            <Position>
              <LatitudeDegrees>42.33347117900848388671875</LatitudeDegrees>
              <LongitudeDegrees>2.43660190142691135406494140625</LongitudeDegrees>
            </Position>
            <AltitudeMeters>956</AltitudeMeters>
            <DistanceMeters>NAN</DistanceMeters>
          </Trackpoint>
          <Trackpoint>
            <Time>2021-04-04T07:48:37.000Z</Time>
            <Position>
              <LatitudeDegrees>42.33341342769563198089599609375</LatitudeDegrees>
              <LongitudeDegrees>2.43657424114644527435302734375</LongitudeDegrees>
            </Position>
            <AltitudeMeters>955.79998779296875</AltitudeMeters>
            <DistanceMeters>NAN</DistanceMeters>
          </Trackpoint>
          <Trackpoint>
            <Time>2021-04-04T07:48:38.000Z</Time>
            <Position>
              <LatitudeDegrees>42.3333974182605743408203125</LatitudeDegrees>
              <LongitudeDegrees>2.43657910265028476715087890625</LongitudeDegrees>
            </Position>
            <AltitudeMeters>955.79998779296875</AltitudeMeters>
            <DistanceMeters>NAN</DistanceMeters>
          </Trackpoint>
          <Trackpoint>
            <Time>2021-04-04T07:48:42.000Z</Time>
            <Position>
              <LatitudeDegrees>42.33335777185857295989990234375</LatitudeDegrees>
              <LongitudeDegrees>2.4365976266562938690185546875</LongitudeDegrees>
            </Position>
            <AltitudeMeters>955.79998779296875</AltitudeMeters>
            <DistanceMeters>NAN</DistanceMeters>
          </Trackpoint>
          <Trackpoint>
            <Time>2021-04-04T07:48:44.000Z</Time>
            <Position>
              <LatitudeDegrees>42.3333518207073211669921875</LatitudeDegrees>
              <LongitudeDegrees>2.43660005740821361541748046875</LongitudeDegrees>
            </Position>
            <AltitudeMeters>955.79998779296875</AltitudeMeters>
            <DistanceMeters>NAN</DistanceMeters>
          </Trackpoint>
          <Trackpoint>
            <Time>2021-04-04T07:48:47.000Z</Time>
            <Position>
              <LatitudeDegrees>42.33333011157810688018798828125</LatitudeDegrees>
              <LongitudeDegrees>2.43661246262490749359130859375</LongitudeDegrees>
            </Position>
            <AltitudeMeters>955.4000244140625</AltitudeMeters>
            <DistanceMeters>NAN</DistanceMeters>
          </Trackpoint>
          <Trackpoint>
            <Time>2021-04-04T07:48:49.000Z</Time>
            <Position>
              <LatitudeDegrees>42.3333115875720977783203125</LatitudeDegrees>
              <LongitudeDegrees>2.4366165697574615478515625</LongitudeDegrees>
            </Position>
            <AltitudeMeters>955.20001220703125</AltitudeMeters>
            <DistanceMeters>NAN</DistanceMeters>
          </Trackpoint>
          <Trackpoint>
            <Time>2021-04-04T07:48:52.000Z</Time>
            <Position>
              <LatitudeDegrees>42.3332731984555721282958984375</LatitudeDegrees>
              <LongitudeDegrees>2.4366130493581295013427734375</LongitudeDegrees>
            </Position>
            <AltitudeMeters>955.20001220703125</AltitudeMeters>
            <DistanceMeters>NAN</DistanceMeters>
          </Trackpoint>
          <Trackpoint>
            <Time>2021-04-04T07:48:57.000Z</Time>
            <Position>
              <LatitudeDegrees>42.33321167528629302978515625</LatitudeDegrees>
              <LongitudeDegrees>2.4366167373955249786376953125</LongitudeDegrees>
            </Position>
            <AltitudeMeters>954.5999755859375</AltitudeMeters>
            <DistanceMeters>NAN</DistanceMeters>
          </Trackpoint>
          <Trackpoint>
            <Time>2021-04-04T07:49:00.000Z</Time>
            <Position>
              <LatitudeDegrees>42.33319868333637714385986328125</LatitudeDegrees>
              <LongitudeDegrees>2.4366070143878459930419921875</LongitudeDegrees>
            </Position>
            <AltitudeMeters>954.5999755859375</AltitudeMeters>
            <DistanceMeters>NAN</DistanceMeters>
          </Trackpoint>
          <Trackpoint>
            <Time>2021-04-04T07:49:01.000Z</Time>
            <Position>
              <LatitudeDegrees>42.33319667167961597442626953125</LatitudeDegrees>
              <LongitudeDegrees>2.4365989677608013153076171875</LongitudeDegrees>
            </Position>
            <AltitudeMeters>954.5999755859375</AltitudeMeters>
            <DistanceMeters>NAN</DistanceMeters>
          </Trackpoint>
          <Trackpoint>
            <Time>2021-04-04T07:49:02.000Z</Time>
            <Position>
              <LatitudeDegrees>42.33319164253771305084228515625</LatitudeDegrees>
              <LongitudeDegrees>2.43659217841923236846923828125</LongitudeDegrees>
            </Position>
            <AltitudeMeters>954.5999755859375</AltitudeMeters>
            <DistanceMeters>NAN</DistanceMeters>
          </Trackpoint>
          <Trackpoint>
            <Time>2021-04-04T07:49:06.000Z</Time>
            <Position>
              <LatitudeDegrees>42.33316733501851558685302734375</LatitudeDegrees>
              <LongitudeDegrees>2.43656485341489315032958984375</LongitudeDegrees>
            </Position>
            <AltitudeMeters>954.79998779296875</AltitudeMeters>
            <DistanceMeters>NAN</DistanceMeters>
          </Trackpoint>
          <Trackpoint>
            <Time>2021-04-04T07:49:08.000Z</Time>
            <Position>
              <LatitudeDegrees>42.33315191231667995452880859375</LatitudeDegrees>
              <LongitudeDegrees>2.43655278347432613372802734375</LongitudeDegrees>
            </Position>
            <AltitudeMeters>954.79998779296875</AltitudeMeters>
            <DistanceMeters>NAN</DistanceMeters>
          </Trackpoint>
          <Trackpoint>
            <Time>2021-04-04T07:49:10.000Z</Time>
            <Position>
              <LatitudeDegrees>42.33312726952135562896728515625</LatitudeDegrees>
              <LongitudeDegrees>2.43654004298150539398193359375</LongitudeDegrees>
            </Position>
            <AltitudeMeters>954.5999755859375</AltitudeMeters>
            <DistanceMeters>NAN</DistanceMeters>
          </Trackpoint>
          <Trackpoint>
            <Time>2021-04-04T07:49:12.000Z</Time>
            <Position>
              <LatitudeDegrees>42.33310279436409473419189453125</LatitudeDegrees>
              <LongitudeDegrees>2.43652009405195713043212890625</LongitudeDegrees>
            </Position>
            <AltitudeMeters>954.5999755859375</AltitudeMeters>
            <DistanceMeters>NAN</DistanceMeters>
          </Trackpoint>
          <Trackpoint>
            <Time>2021-04-04T07:49:16.000Z</Time>
            <Position>
              <LatitudeDegrees>42.33303825370967388153076171875</LatitudeDegrees>
              <LongitudeDegrees>2.4364718981087207794189453125</LongitudeDegrees>
            </Position>
            <AltitudeMeters>954.20001220703125</AltitudeMeters>
            <DistanceMeters>NAN</DistanceMeters>
          </Trackpoint>
          <Trackpoint>
            <Time>2021-04-04T07:49:17.000Z</Time>
            <Position>
              <LatitudeDegrees>42.3330254293978214263916015625</LatitudeDegrees>
              <LongitudeDegrees>2.43646075017750263214111328125</LongitudeDegrees>
            </Position>
            <AltitudeMeters>954</AltitudeMeters>
            <DistanceMeters>NAN</DistanceMeters>
          </Trackpoint>
          <Trackpoint>
            <Time>2021-04-04T07:49:27.000Z</Time>
            <Position>
              <LatitudeDegrees>42.33294219709932804107666015625</LatitudeDegrees>
              <LongitudeDegrees>2.43634164333343505859375</LongitudeDegrees>
            </Position>
            <AltitudeMeters>954.20001220703125</AltitudeMeters>
            <DistanceMeters>NAN</DistanceMeters>
          </Trackpoint>
          <Trackpoint>
            <Time>2021-04-04T07:49:28.000Z</Time>
            <Position>
              <LatitudeDegrees>42.332936413586139678955078125</LatitudeDegrees>
              <LongitudeDegrees>2.43632580153644084930419921875</LongitudeDegrees>
            </Position>
            <AltitudeMeters>954.20001220703125</AltitudeMeters>
            <DistanceMeters>NAN</DistanceMeters>
          </Trackpoint>
          <Trackpoint>
            <Time>2021-04-04T07:49:38.000Z</Time>
            <Position>
              <LatitudeDegrees>42.33287547715008258819580078125</LatitudeDegrees>
              <LongitudeDegrees>2.43617610074579715728759765625</LongitudeDegrees>
            </Position>
            <AltitudeMeters>953.5999755859375</AltitudeMeters>
            <DistanceMeters>NAN</DistanceMeters>
          </Trackpoint>
          <Trackpoint>
            <Time>2021-04-04T07:49:44.000Z</Time>
            <Position>
              <LatitudeDegrees>42.33283482491970062255859375</LatitudeDegrees>
              <LongitudeDegrees>2.436085157096385955810546875</LongitudeDegrees>
            </Position>
            <AltitudeMeters>953</AltitudeMeters>
            <DistanceMeters>NAN</DistanceMeters>
          </Trackpoint>
          <Trackpoint>
            <Time>2021-04-04T07:49:47.000Z</Time>
            <Position>
              <LatitudeDegrees>42.33281210996210575103759765625</LatitudeDegrees>
              <LongitudeDegrees>2.4360541440546512603759765625</LongitudeDegrees>
            </Position>
            <AltitudeMeters>952.5999755859375</AltitudeMeters>
            <DistanceMeters>NAN</DistanceMeters>
          </Trackpoint>
          <Trackpoint>
            <Time>2021-04-04T07:49:49.000Z</Time>
            <Position>
              <LatitudeDegrees>42.3327994532883167266845703125</LatitudeDegrees>
              <LongitudeDegrees>2.4360273219645023345947265625</LongitudeDegrees>
            </Position>
            <AltitudeMeters>952.5999755859375</AltitudeMeters>
            <DistanceMeters>NAN</DistanceMeters>
          </Trackpoint>
          <Trackpoint>
            <Time>2021-04-04T07:49:52.000Z</Time>
            <Position>
              <LatitudeDegrees>42.33276952989399433135986328125</LatitudeDegrees>
              <LongitudeDegrees>2.43600293062627315521240234375</LongitudeDegrees>
            </Position>
            <AltitudeMeters>951.79998779296875</AltitudeMeters>
            <DistanceMeters>NAN</DistanceMeters>
          </Trackpoint>
          <Trackpoint>
            <Time>2021-04-04T07:49:55.000Z</Time>
            <Position>
              <LatitudeDegrees>42.33274790458381175994873046875</LatitudeDegrees>
              <LongitudeDegrees>2.435969151556491851806640625</LongitudeDegrees>
            </Position>
            <AltitudeMeters>951.5999755859375</AltitudeMeters>
            <DistanceMeters>NAN</DistanceMeters>
          </Trackpoint>
          <Trackpoint>
            <Time>2021-04-04T07:49:56.000Z</Time>
            <Position>
              <LatitudeDegrees>42.33274354599416255950927734375</LatitudeDegrees>
              <LongitudeDegrees>2.435966469347476959228515625</LongitudeDegrees>
            </Position>
            <AltitudeMeters>951.4000244140625</AltitudeMeters>
            <DistanceMeters>NAN</DistanceMeters>
          </Trackpoint>
          <Trackpoint>
            <Time>2021-04-04T07:49:59.000Z</Time>
            <Position>
              <LatitudeDegrees>42.3327256925404071807861328125</LatitudeDegrees>
              <LongitudeDegrees>2.43598566390573978424072265625</LongitudeDegrees>
            </Position>
            <AltitudeMeters>950.79998779296875</AltitudeMeters>
            <DistanceMeters>NAN</DistanceMeters>
          </Trackpoint>
          <Trackpoint>
            <Time>2021-04-04T07:50:00.000Z</Time>
            <Position>
              <LatitudeDegrees>42.33272175304591655731201171875</LatitudeDegrees>
              <LongitudeDegrees>2.4359916150569915771484375</LongitudeDegrees>
            </Position>
            <AltitudeMeters>950.79998779296875</AltitudeMeters>
            <DistanceMeters>NAN</DistanceMeters>
          </Trackpoint>
          <Trackpoint>
            <Time>2021-04-04T07:50:02.000Z</Time>
            <Position>
              <LatitudeDegrees>42.33272175304591655731201171875</LatitudeDegrees>
              <LongitudeDegrees>2.43599656037986278533935546875</LongitudeDegrees>
            </Position>
            <AltitudeMeters>950.5999755859375</AltitudeMeters>
            <DistanceMeters>NAN</DistanceMeters>
          </Trackpoint>
          <Trackpoint>
            <Time>2021-04-04T07:50:05.000Z</Time>
            <Position>
              <LatitudeDegrees>42.332722507417201995849609375</LatitudeDegrees>
              <LongitudeDegrees>2.43599840439856052398681640625</LongitudeDegrees>
            </Position>
            <AltitudeMeters>950.79998779296875</AltitudeMeters>
            <DistanceMeters>NAN</DistanceMeters>
          </Trackpoint>
          <Trackpoint>
            <Time>2021-04-04T07:50:07.000Z</Time>
            <Position>
              <LatitudeDegrees>42.33271907083690166473388671875</LatitudeDegrees>
              <LongitudeDegrees>2.43599354289472103118896484375</LongitudeDegrees>
            </Position>
            <AltitudeMeters>950.79998779296875</AltitudeMeters>
            <DistanceMeters>NAN</DistanceMeters>
          </Trackpoint>
          <Trackpoint>
            <Time>2021-04-04T07:50:16.000Z</Time>
            <Position>
              <LatitudeDegrees>42.33271907083690166473388671875</LatitudeDegrees>
              <LongitudeDegrees>2.435906790196895599365234375</LongitudeDegrees>
            </Position>
            <AltitudeMeters>950.5999755859375</AltitudeMeters>
            <DistanceMeters>NAN</DistanceMeters>
          </Trackpoint>
          <Trackpoint>
            <Time>2021-04-04T07:50:24.000Z</Time>
            <Position>
              <LatitudeDegrees>42.33269208110868930816650390625</LatitudeDegrees>
              <LongitudeDegrees>2.43583965115249156951904296875</LongitudeDegrees>
            </Position>
            <AltitudeMeters>950</AltitudeMeters>
            <DistanceMeters>NAN</DistanceMeters>
          </Trackpoint>
          <Trackpoint>
            <Time>2021-04-04T07:50:29.000Z</Time>
            <Position>
              <LatitudeDegrees>42.33266291208565235137939453125</LatitudeDegrees>
              <LongitudeDegrees>2.43578835390508174896240234375</LongitudeDegrees>
            </Position>
            <AltitudeMeters>949.5999755859375</AltitudeMeters>
            <DistanceMeters>NAN</DistanceMeters>
          </Trackpoint>
          <Trackpoint>
            <Time>2021-04-04T07:50:32.000Z</Time>
            <Position>
              <LatitudeDegrees>42.33264799229800701141357421875</LatitudeDegrees>
              <LongitudeDegrees>2.4357631243765354156494140625</LongitudeDegrees>
            </Position>
            <AltitudeMeters>949.4000244140625</AltitudeMeters>
            <DistanceMeters>NAN</DistanceMeters>
          </Trackpoint>
          <Trackpoint>
            <Time>2021-04-04T07:50:34.000Z</Time>
            <Position>
              <LatitudeDegrees>42.332637347280979156494140625</LatitudeDegrees>
              <LongitudeDegrees>2.43575147353112697601318359375</LongitudeDegrees>
            </Position>
            <AltitudeMeters>949.4000244140625</AltitudeMeters>
            <DistanceMeters>NAN</DistanceMeters>
          </Trackpoint>
          <Trackpoint>
            <Time>2021-04-04T07:50:41.000Z</Time>
            <Position>
              <LatitudeDegrees>42.33261027373373508453369140625</LatitudeDegrees>
              <LongitudeDegrees>2.435711324214935302734375</LongitudeDegrees>
            </Position>
            <AltitudeMeters>950</AltitudeMeters>
            <DistanceMeters>NAN</DistanceMeters>
          </Trackpoint>
          <Trackpoint>
            <Time>2021-04-04T07:50:46.000Z</Time>
            <Position>
              <LatitudeDegrees>42.33259334228932857513427734375</LatitudeDegrees>
              <LongitudeDegrees>2.435723729431629180908203125</LongitudeDegrees>
            </Position>
            <AltitudeMeters>950.5999755859375</AltitudeMeters>
            <DistanceMeters>NAN</DistanceMeters>
          </Trackpoint>
          <Trackpoint>
            <Time>2021-04-04T07:50:53.000Z</Time>
            <Position>
              <LatitudeDegrees>42.33255587518215179443359375</LatitudeDegrees>
              <LongitudeDegrees>2.43568324483931064605712890625</LongitudeDegrees>
            </Position>
            <AltitudeMeters>951.20001220703125</AltitudeMeters>
            <DistanceMeters>NAN</DistanceMeters>
          </Trackpoint>
          <Trackpoint>
            <Time>2021-04-04T07:50:55.000Z</Time>
            <Position>
              <LatitudeDegrees>42.33255009166896343231201171875</LatitudeDegrees>
              <LongitudeDegrees>2.4356739409267902374267578125</LongitudeDegrees>
            </Position>
            <AltitudeMeters>951.20001220703125</AltitudeMeters>
            <DistanceMeters>NAN</DistanceMeters>
          </Trackpoint>
          <Trackpoint>
            <Time>2021-04-04T07:50:58.000Z</Time>
            <Position>
              <LatitudeDegrees>42.33252779580652713775634765625</LatitudeDegrees>
              <LongitudeDegrees>2.4356541596353054046630859375</LongitudeDegrees>
            </Position>
            <AltitudeMeters>951.20001220703125</AltitudeMeters>
            <DistanceMeters>NAN</DistanceMeters>
          </Trackpoint>
          <Trackpoint>
            <Time>2021-04-04T07:50:59.000Z</Time>
            <Position>
              <LatitudeDegrees>42.33251891098916530609130859375</LatitudeDegrees>
              <LongitudeDegrees>2.43565457873046398162841796875</LongitudeDegrees>
            </Position>
            <AltitudeMeters>951.4000244140625</AltitudeMeters>
            <DistanceMeters>NAN</DistanceMeters>
          </Trackpoint>
          <Trackpoint>
            <Time>2021-04-04T07:51:00.000Z</Time>
            <Position>
              <LatitudeDegrees>42.33251136727631092071533203125</LatitudeDegrees>
              <LongitudeDegrees>2.4356509745121002197265625</LongitudeDegrees>
            </Position>
            <AltitudeMeters>951.4000244140625</AltitudeMeters>
            <DistanceMeters>NAN</DistanceMeters>
          </Trackpoint>
          <Trackpoint>
            <Time>2021-04-04T07:51:02.000Z</Time>
            <Position>
              <LatitudeDegrees>42.33249695040285587310791015625</LatitudeDegrees>
              <LongitudeDegrees>2.43563161231577396392822265625</LongitudeDegrees>
            </Position>
            <AltitudeMeters>951.4000244140625</AltitudeMeters>
            <DistanceMeters>NAN</DistanceMeters>
          </Trackpoint>
          <Trackpoint>
            <Time>2021-04-04T07:51:04.000Z</Time>
            <Position>
              <LatitudeDegrees>42.332481443881988525390625</LatitudeDegrees>
              <LongitudeDegrees>2.43560646660625934600830078125</LongitudeDegrees>
            </Position>
            <AltitudeMeters>951.4000244140625</AltitudeMeters>
            <DistanceMeters>NAN</DistanceMeters>
          </Trackpoint>
          <Trackpoint>
            <Time>2021-04-04T07:51:09.000Z</Time>
            <Position>
              <LatitudeDegrees>42.33244900591671466827392578125</LatitudeDegrees>
              <LongitudeDegrees>2.4355549179017543792724609375</LongitudeDegrees>
            </Position>
            <AltitudeMeters>951.20001220703125</AltitudeMeters>
            <DistanceMeters>NAN</DistanceMeters>
          </Trackpoint>
          <Trackpoint>
            <Time>2021-04-04T07:51:10.000Z</Time>
            <Position>
              <LatitudeDegrees>42.3324443958699703216552734375</LatitudeDegrees>
              <LongitudeDegrees>2.43554142303764820098876953125</LongitudeDegrees>
            </Position>
            <AltitudeMeters>951.20001220703125</AltitudeMeters>
            <DistanceMeters>NAN</DistanceMeters>
          </Trackpoint>
          <Trackpoint>
            <Time>2021-04-04T07:51:11.000Z</Time>
            <Position>
              <LatitudeDegrees>42.3324376903474330902099609375</LatitudeDegrees>
              <LongitudeDegrees>2.43552164174616336822509765625</LongitudeDegrees>
            </Position>
            <AltitudeMeters>951.4000244140625</AltitudeMeters>
            <DistanceMeters>NAN</DistanceMeters>
          </Trackpoint>
          <Trackpoint>
            <Time>2021-04-04T07:51:13.000Z</Time>
            <Position>
              <LatitudeDegrees>42.3324383608996868133544921875</LatitudeDegrees>
              <LongitudeDegrees>2.43548392318189144134521484375</LongitudeDegrees>
            </Position>
            <AltitudeMeters>951.4000244140625</AltitudeMeters>
            <DistanceMeters>NAN</DistanceMeters>
          </Trackpoint>
          <Trackpoint>
            <Time>2021-04-04T07:51:15.000Z</Time>
            <Position>
              <LatitudeDegrees>42.33244984410703182220458984375</LatitudeDegrees>
              <LongitudeDegrees>2.4354657344520092010498046875</LongitudeDegrees>
            </Position>
            <AltitudeMeters>951.4000244140625</AltitudeMeters>
            <DistanceMeters>NAN</DistanceMeters>
          </Trackpoint>
          <Trackpoint>
            <Time>2021-04-04T07:51:16.000Z</Time>
            <Position>
              <LatitudeDegrees>42.33245571143925189971923828125</LatitudeDegrees>
              <LongitudeDegrees>2.43546648882329463958740234375</LongitudeDegrees>
            </Position>
            <AltitudeMeters>951.4000244140625</AltitudeMeters>
            <DistanceMeters>NAN</DistanceMeters>
          </Trackpoint>
          <Trackpoint>
            <Time>2021-04-04T07:51:21.000Z</Time>
            <Position>
              <LatitudeDegrees>42.33242981135845184326171875</LatitudeDegrees>
              <LongitudeDegrees>2.4354275129735469818115234375</LongitudeDegrees>
            </Position>
            <AltitudeMeters>951.4000244140625</AltitudeMeters>
            <DistanceMeters>NAN</DistanceMeters>
          </Trackpoint>
          <Trackpoint>
            <Time>2021-04-04T07:51:25.000Z</Time>
            <Position>
              <LatitudeDegrees>42.33239921741187572479248046875</LatitudeDegrees>
              <LongitudeDegrees>2.4353872798383235931396484375</LongitudeDegrees>
            </Position>
            <AltitudeMeters>951.5999755859375</AltitudeMeters>
            <DistanceMeters>NAN</DistanceMeters>
          </Trackpoint>
          <Trackpoint>
            <Time>2021-04-04T07:51:27.000Z</Time>
            <Position>
              <LatitudeDegrees>42.33237750828266143798828125</LatitudeDegrees>
              <LongitudeDegrees>2.435379065573215484619140625</LongitudeDegrees>
            </Position>
            <AltitudeMeters>951.79998779296875</AltitudeMeters>
            <DistanceMeters>NAN</DistanceMeters>
          </Trackpoint>
          <Trackpoint>
            <Time>2021-04-04T07:51:29.000Z</Time>
            <Position>
              <LatitudeDegrees>42.33235579915344715118408203125</LatitudeDegrees>
              <LongitudeDegrees>2.435367666184902191162109375</LongitudeDegrees>
            </Position>
            <AltitudeMeters>951.79998779296875</AltitudeMeters>
            <DistanceMeters>NAN</DistanceMeters>
          </Trackpoint>
          <Trackpoint>
            <Time>2021-04-04T07:51:37.000Z</Time>
            <Position>
              <LatitudeDegrees>42.33234104700386524200439453125</LatitudeDegrees>
              <LongitudeDegrees>2.43529231287539005279541015625</LongitudeDegrees>
            </Position>
            <AltitudeMeters>952</AltitudeMeters>
            <DistanceMeters>NAN</DistanceMeters>
          </Trackpoint>
          <Trackpoint>
            <Time>2021-04-04T07:51:44.000Z</Time>
            <Position>
              <LatitudeDegrees>42.332338951528072357177734375</LatitudeDegrees>
              <LongitudeDegrees>2.43526180274784564971923828125</LongitudeDegrees>
            </Position>
            <AltitudeMeters>952.79998779296875</AltitudeMeters>
            <DistanceMeters>NAN</DistanceMeters>
          </Trackpoint>
          <Trackpoint>
            <Time>2021-04-04T07:51:45.000Z</Time>
            <Position>
              <LatitudeDegrees>42.3323354311287403106689453125</LatitudeDegrees>
              <LongitudeDegrees>2.435255013406276702880859375</LongitudeDegrees>
            </Position>
            <AltitudeMeters>952.79998779296875</AltitudeMeters>
            <DistanceMeters>NAN</DistanceMeters>
          </Trackpoint>
          <Trackpoint>
            <Time>2021-04-04T07:51:47.000Z</Time>
            <Position>
              <LatitudeDegrees>42.332334928214550018310546875</LatitudeDegrees>
              <LongitudeDegrees>2.4352333880960941314697265625</LongitudeDegrees>
            </Position>
            <AltitudeMeters>953</AltitudeMeters>
            <DistanceMeters>NAN</DistanceMeters>
          </Trackpoint>
          <Trackpoint>
            <Time>2021-04-04T07:51:49.000Z</Time>
            <Position>
              <LatitudeDegrees>42.33232679776847362518310546875</LatitudeDegrees>
              <LongitudeDegrees>2.4352075718343257904052734375</LongitudeDegrees>
            </Position>
            <AltitudeMeters>953.4000244140625</AltitudeMeters>
            <DistanceMeters>NAN</DistanceMeters>
          </Trackpoint>
          <Trackpoint>
            <Time>2021-04-04T07:51:51.000Z</Time>
            <Position>
              <LatitudeDegrees>42.3323116265237331390380859375</LatitudeDegrees>
              <LongitudeDegrees>2.435195334255695343017578125</LongitudeDegrees>
            </Position>
            <AltitudeMeters>953.5999755859375</AltitudeMeters>
            <DistanceMeters>NAN</DistanceMeters>
          </Trackpoint>
          <Trackpoint>
            <Time>2021-04-04T07:51:53.000Z</Time>
            <Position>
              <LatitudeDegrees>42.33229838311672210693359375</LatitudeDegrees>
              <LongitudeDegrees>2.43518938310444355010986328125</LongitudeDegrees>
            </Position>
            <AltitudeMeters>954</AltitudeMeters>
            <DistanceMeters>NAN</DistanceMeters>
          </Trackpoint>
          <Trackpoint>
            <Time>2021-04-04T07:51:54.000Z</Time>
            <Position>
              <LatitudeDegrees>42.33229796402156352996826171875</LatitudeDegrees>
              <LongitudeDegrees>2.43518292903900146484375</LongitudeDegrees>
            </Position>
            <AltitudeMeters>954</AltitudeMeters>
            <DistanceMeters>NAN</DistanceMeters>
          </Trackpoint>
          <Trackpoint>
            <Time>2021-04-04T07:52:00.000Z</Time>
            <Position>
              <LatitudeDegrees>42.3323039151728153228759765625</LatitudeDegrees>
              <LongitudeDegrees>2.43514001369476318359375</LongitudeDegrees>
            </Position>
            <AltitudeMeters>954.79998779296875</AltitudeMeters>
            <DistanceMeters>NAN</DistanceMeters>
          </Trackpoint>
          <Trackpoint>
            <Time>2021-04-04T07:52:01.000Z</Time>
            <Position>
              <LatitudeDegrees>42.332298718392848968505859375</LatitudeDegrees>
              <LongitudeDegrees>2.43513724766671657562255859375</LongitudeDegrees>
            </Position>
            <AltitudeMeters>954.79998779296875</AltitudeMeters>
            <DistanceMeters>NAN</DistanceMeters>
          </Trackpoint>
          <Trackpoint>
            <Time>2021-04-04T07:52:03.000Z</Time>
            <Position>
              <LatitudeDegrees>42.33229947276413440704345703125</LatitudeDegrees>
              <LongitudeDegrees>2.435123920440673828125</LongitudeDegrees>
            </Position>
            <AltitudeMeters>955</AltitudeMeters>
            <DistanceMeters>NAN</DistanceMeters>
          </Trackpoint>
          <Trackpoint>
            <Time>2021-04-04T07:52:07.000Z</Time>
            <Position>
              <LatitudeDegrees>42.33230165205895900726318359375</LatitudeDegrees>
              <LongitudeDegrees>2.43509835563600063323974609375</LongitudeDegrees>
            </Position>
            <AltitudeMeters>955.5999755859375</AltitudeMeters>
            <DistanceMeters>NAN</DistanceMeters>
          </Trackpoint>
          <Trackpoint>
            <Time>2021-04-04T07:52:10.000Z</Time>
            <Position>
              <LatitudeDegrees>42.33229746110737323760986328125</LatitudeDegrees>
              <LongitudeDegrees>2.43508963845670223236083984375</LongitudeDegrees>
            </Position>
            <AltitudeMeters>956</AltitudeMeters>
            <DistanceMeters>NAN</DistanceMeters>
          </Trackpoint>
          <Trackpoint>
            <Time>2021-04-04T07:52:12.000Z</Time>
            <Position>
              <LatitudeDegrees>42.33230148442089557647705078125</LatitudeDegrees>
              <LongitudeDegrees>2.43507505394518375396728515625</LongitudeDegrees>
            </Position>
            <AltitudeMeters>956.20001220703125</AltitudeMeters>
            <DistanceMeters>NAN</DistanceMeters>
          </Trackpoint>
          <Trackpoint>
            <Time>2021-04-04T07:52:17.000Z</Time>
            <Position>
              <LatitudeDegrees>42.3322884924709796905517578125</LatitudeDegrees>
              <LongitudeDegrees>2.435045130550861358642578125</LongitudeDegrees>
            </Position>
            <AltitudeMeters>956.5999755859375</AltitudeMeters>
            <DistanceMeters>NAN</DistanceMeters>
          </Trackpoint>
          <Trackpoint>
            <Time>2021-04-04T07:52:20.000Z</Time>
            <Position>
              <LatitudeDegrees>42.33228371478617191314697265625</LatitudeDegrees>
              <LongitudeDegrees>2.43504085578024387359619140625</LongitudeDegrees>
            </Position>
            <AltitudeMeters>957.20001220703125</AltitudeMeters>
            <DistanceMeters>NAN</DistanceMeters>
          </Trackpoint>
          <Trackpoint>
            <Time>2021-04-04T07:52:21.000Z</Time>
            <Position>
              <LatitudeDegrees>42.33228539116680622100830078125</LatitudeDegrees>
              <LongitudeDegrees>2.4350394308567047119140625</LongitudeDegrees>
            </Position>
            <AltitudeMeters>957.4000244140625</AltitudeMeters>
            <DistanceMeters>NAN</DistanceMeters>
          </Trackpoint>
          <Trackpoint>
            <Time>2021-04-04T07:52:27.000Z</Time>
            <Position>
              <LatitudeDegrees>42.33229612000286579132080078125</LatitudeDegrees>
              <LongitudeDegrees>2.43501855991780757904052734375</LongitudeDegrees>
            </Position>
            <AltitudeMeters>958.4000244140625</AltitudeMeters>
            <DistanceMeters>NAN</DistanceMeters>
          </Trackpoint>
          <Trackpoint>
            <Time>2021-04-04T07:52:30.000Z</Time>
            <Position>
              <LatitudeDegrees>42.33231171034276485443115234375</LatitudeDegrees>
              <LongitudeDegrees>2.435005567967891693115234375</LongitudeDegrees>
            </Position>
            <AltitudeMeters>958.79998779296875</AltitudeMeters>
            <DistanceMeters>NAN</DistanceMeters>
          </Trackpoint>
          <Trackpoint>
            <Time>2021-04-04T07:52:35.000Z</Time>
            <Position>
              <LatitudeDegrees>42.33231824822723865509033203125</LatitudeDegrees>
              <LongitudeDegrees>2.43498939089477062225341796875</LongitudeDegrees>
            </Position>
            <AltitudeMeters>959.4000244140625</AltitudeMeters>
            <DistanceMeters>NAN</DistanceMeters>
          </Trackpoint>
          <Trackpoint>
            <Time>2021-04-04T07:52:37.000Z</Time>
            <Position>
              <LatitudeDegrees>42.3323136381804943084716796875</LatitudeDegrees>
              <LongitudeDegrees>2.43498721159994602203369140625</LongitudeDegrees>
            </Position>
            <AltitudeMeters>959.79998779296875</AltitudeMeters>
            <DistanceMeters>NAN</DistanceMeters>
          </Trackpoint>
          <Trackpoint>
            <Time>2021-04-04T07:52:42.000Z</Time>
            <Position>
              <LatitudeDegrees>42.3322992213070392608642578125</LatitudeDegrees>
              <LongitudeDegrees>2.4349775724112987518310546875</LongitudeDegrees>
            </Position>
            <AltitudeMeters>960.5999755859375</AltitudeMeters>
            <DistanceMeters>NAN</DistanceMeters>
          </Trackpoint>
          <Trackpoint>
            <Time>2021-04-04T07:52:45.000Z</Time>
            <Position>
              <LatitudeDegrees>42.33230852521955966949462890625</LatitudeDegrees>
              <LongitudeDegrees>2.4349748902022838592529296875</LongitudeDegrees>
            </Position>
            <AltitudeMeters>961</AltitudeMeters>
            <DistanceMeters>NAN</DistanceMeters>
          </Trackpoint>
          <Trackpoint>
            <Time>2021-04-04T07:52:48.000Z</Time>
            <Position>
              <LatitudeDegrees>42.3323032446205615997314453125</LatitudeDegrees>
              <LongitudeDegrees>2.4349577911198139190673828125</LongitudeDegrees>
            </Position>
            <AltitudeMeters>961.4000244140625</AltitudeMeters>
            <DistanceMeters>NAN</DistanceMeters>
          </Trackpoint>
          <Trackpoint>
            <Time>2021-04-04T07:52:50.000Z</Time>
            <Position>
              <LatitudeDegrees>42.3323030769824981689453125</LatitudeDegrees>
              <LongitudeDegrees>2.4349443800747394561767578125</LongitudeDegrees>
            </Position>
            <AltitudeMeters>961.5999755859375</AltitudeMeters>
            <DistanceMeters>NAN</DistanceMeters>
          </Trackpoint>
          <Trackpoint>
            <Time>2021-04-04T07:52:52.000Z</Time>
            <Position>
              <LatitudeDegrees>42.33230232261121273040771484375</LatitudeDegrees>
              <LongitudeDegrees>2.4349460564553737640380859375</LongitudeDegrees>
            </Position>
            <AltitudeMeters>962</AltitudeMeters>
            <DistanceMeters>NAN</DistanceMeters>
          </Trackpoint>
          <Trackpoint>
            <Time>2021-04-04T07:52:56.000Z</Time>
            <Position>
              <LatitudeDegrees>42.3323062621057033538818359375</LatitudeDegrees>
              <LongitudeDegrees>2.43492451496422290802001953125</LongitudeDegrees>
            </Position>
            <AltitudeMeters>962.5999755859375</AltitudeMeters>
            <DistanceMeters>NAN</DistanceMeters>
          </Trackpoint>
          <Trackpoint>
            <Time>2021-04-04T07:52:57.000Z</Time>
            <Position>
              <LatitudeDegrees>42.332303412258625030517578125</LatitudeDegrees>
              <LongitudeDegrees>2.43492166511714458465576171875</LongitudeDegrees>
            </Position>
            <AltitudeMeters>962.79998779296875</AltitudeMeters>
            <DistanceMeters>NAN</DistanceMeters>
          </Trackpoint>
          <Trackpoint>
            <Time>2021-04-04T07:52:58.000Z</Time>
            <Position>
              <LatitudeDegrees>42.332302071154117584228515625</LatitudeDegrees>
              <LongitudeDegrees>2.43491847999393939971923828125</LongitudeDegrees>
            </Position>
            <AltitudeMeters>962.79998779296875</AltitudeMeters>
            <DistanceMeters>NAN</DistanceMeters>
          </Trackpoint>
          <Trackpoint>
            <Time>2021-04-04T07:53:01.000Z</Time>
            <Position>
              <LatitudeDegrees>42.3322998918592929840087890625</LatitudeDegrees>
              <LongitudeDegrees>2.4349004589021205902099609375</LongitudeDegrees>
            </Position>
            <AltitudeMeters>962.79998779296875</AltitudeMeters>
            <DistanceMeters>NAN</DistanceMeters>
          </Trackpoint>
          <Trackpoint>
            <Time>2021-04-04T07:53:04.000Z</Time>
            <Position>
              <LatitudeDegrees>42.33229829929769039154052734375</LatitudeDegrees>
              <LongitudeDegrees>2.4348920769989490509033203125</LongitudeDegrees>
            </Position>
            <AltitudeMeters>963</AltitudeMeters>
            <DistanceMeters>NAN</DistanceMeters>
          </Trackpoint>
          <Trackpoint>
            <Time>2021-04-04T07:53:07.000Z</Time>
            <Position>
              <LatitudeDegrees>42.332299388945102691650390625</LatitudeDegrees>
              <LongitudeDegrees>2.434874139726161956787109375</LongitudeDegrees>
            </Position>
            <AltitudeMeters>963.20001220703125</AltitudeMeters>
            <DistanceMeters>NAN</DistanceMeters>
          </Trackpoint>
          <Trackpoint>
            <Time>2021-04-04T07:53:10.000Z</Time>
            <Position>
              <LatitudeDegrees>42.3322941921651363372802734375</LatitudeDegrees>
              <LongitudeDegrees>2.43484606035053730010986328125</LongitudeDegrees>
            </Position>
            <AltitudeMeters>963.20001220703125</AltitudeMeters>
            <DistanceMeters>NAN</DistanceMeters>
          </Trackpoint>
          <Trackpoint>
            <Time>2021-04-04T07:53:11.000Z</Time>
            <Position>
              <LatitudeDegrees>42.332295365631580352783203125</LatitudeDegrees>
              <LongitudeDegrees>2.43483499623835086822509765625</LongitudeDegrees>
            </Position>
            <AltitudeMeters>963.4000244140625</AltitudeMeters>
            <DistanceMeters>NAN</DistanceMeters>
          </Trackpoint>
          <Trackpoint>
            <Time>2021-04-04T07:53:12.000Z</Time>
            <Position>
              <LatitudeDegrees>42.33229645527899265289306640625</LatitudeDegrees>
              <LongitudeDegrees>2.43482661433517932891845703125</LongitudeDegrees>
            </Position>
            <AltitudeMeters>963.4000244140625</AltitudeMeters>
            <DistanceMeters>NAN</DistanceMeters>
          </Trackpoint>
          <Trackpoint>
            <Time>2021-04-04T07:53:15.000Z</Time>
            <Position>
              <LatitudeDegrees>42.33233232982456684112548828125</LatitudeDegrees>
              <LongitudeDegrees>2.43481085635721683502197265625</LongitudeDegrees>
            </Position>
            <AltitudeMeters>963.79998779296875</AltitudeMeters>
            <DistanceMeters>NAN</DistanceMeters>
          </Trackpoint>
          <Trackpoint>
            <Time>2021-04-04T07:53:17.000Z</Time>
            <Position>
              <LatitudeDegrees>42.3323377780616283416748046875</LatitudeDegrees>
              <LongitudeDegrees>2.43480079807341098785400390625</LongitudeDegrees>
            </Position>
            <AltitudeMeters>964</AltitudeMeters>
            <DistanceMeters>NAN</DistanceMeters>
          </Trackpoint>
          <Trackpoint>
            <Time>2021-04-04T07:53:20.000Z</Time>
            <Position>
              <LatitudeDegrees>42.33232042752206325531005859375</LatitudeDegrees>
              <LongitudeDegrees>2.43479057215154170989990234375</LongitudeDegrees>
            </Position>
            <AltitudeMeters>964.4000244140625</AltitudeMeters>
            <DistanceMeters>NAN</DistanceMeters>
          </Trackpoint>
          <Trackpoint>
            <Time>2021-04-04T07:53:21.000Z</Time>
            <Position>
              <LatitudeDegrees>42.332321517169475555419921875</LatitudeDegrees>
              <LongitudeDegrees>2.43478654883801937103271484375</LongitudeDegrees>
            </Position>
            <AltitudeMeters>964.5999755859375</AltitudeMeters>
            <DistanceMeters>NAN</DistanceMeters>
          </Trackpoint>
          <Trackpoint>
            <Time>2021-04-04T07:53:23.000Z</Time>
            <Position>
              <LatitudeDegrees>42.33232679776847362518310546875</LatitudeDegrees>
              <LongitudeDegrees>2.4347754009068012237548828125</LongitudeDegrees>
            </Position>
            <AltitudeMeters>964.79998779296875</AltitudeMeters>
            <DistanceMeters>NAN</DistanceMeters>
          </Trackpoint>
          <Trackpoint>
            <Time>2021-04-04T07:53:27.000Z</Time>
            <Position>
              <LatitudeDegrees>42.3323397897183895111083984375</LatitudeDegrees>
              <LongitudeDegrees>2.43473994545638561248779296875</LongitudeDegrees>
            </Position>
            <AltitudeMeters>965.20001220703125</AltitudeMeters>
            <DistanceMeters>NAN</DistanceMeters>
          </Trackpoint>
          <Trackpoint>
            <Time>2021-04-04T07:53:28.000Z</Time>
            <Position>
              <LatitudeDegrees>42.33234473504126071929931640625</LatitudeDegrees>
              <LongitudeDegrees>2.43472737260162830352783203125</LongitudeDegrees>
            </Position>
            <AltitudeMeters>965.4000244140625</AltitudeMeters>
            <DistanceMeters>NAN</DistanceMeters>
          </Trackpoint>
          <Trackpoint>
            <Time>2021-04-04T07:53:31.000Z</Time>
            <Position>
              <LatitudeDegrees>42.33235202729701995849609375</LatitudeDegrees>
              <LongitudeDegrees>2.43470088578760623931884765625</LongitudeDegrees>
            </Position>
            <AltitudeMeters>965.5999755859375</AltitudeMeters>
            <DistanceMeters>NAN</DistanceMeters>
          </Trackpoint>
          <Trackpoint>
            <Time>2021-04-04T07:53:32.000Z</Time>
            <Position>
              <LatitudeDegrees>42.33235127292573451995849609375</LatitudeDegrees>
              <LongitudeDegrees>2.43469183333218097686767578125</LongitudeDegrees>
            </Position>
            <AltitudeMeters>965.79998779296875</AltitudeMeters>
            <DistanceMeters>NAN</DistanceMeters>
          </Trackpoint>
          <Trackpoint>
            <Time>2021-04-04T07:53:35.000Z</Time>
            <Position>
              <LatitudeDegrees>42.3323475010693073272705078125</LatitudeDegrees>
              <LongitudeDegrees>2.43466299958527088165283203125</LongitudeDegrees>
            </Position>
            <AltitudeMeters>965.79998779296875</AltitudeMeters>
            <DistanceMeters>NAN</DistanceMeters>
          </Trackpoint>
          <Trackpoint>
            <Time>2021-04-04T07:53:38.000Z</Time>
            <Position>
              <LatitudeDegrees>42.3323625884950160980224609375</LatitudeDegrees>
              <LongitudeDegrees>2.4346451461315155029296875</LongitudeDegrees>
            </Position>
            <AltitudeMeters>966.4000244140625</AltitudeMeters>
            <DistanceMeters>NAN</DistanceMeters>
          </Trackpoint>
          <Trackpoint>
            <Time>2021-04-04T07:53:44.000Z</Time>
            <Position>
              <LatitudeDegrees>42.33237256295979022979736328125</LatitudeDegrees>
              <LongitudeDegrees>2.43458144366741180419921875</LongitudeDegrees>
            </Position>
            <AltitudeMeters>966.79998779296875</AltitudeMeters>
            <DistanceMeters>NAN</DistanceMeters>
          </Trackpoint>
          <Trackpoint>
            <Time>2021-04-04T07:53:46.000Z</Time>
            <Position>
              <LatitudeDegrees>42.33237750828266143798828125</LatitudeDegrees>
              <LongitudeDegrees>2.43456937372684478759765625</LongitudeDegrees>
            </Position>
            <AltitudeMeters>967</AltitudeMeters>
            <DistanceMeters>NAN</DistanceMeters>
          </Trackpoint>
          <Trackpoint>
            <Time>2021-04-04T07:53:48.000Z</Time>
            <Position>
              <LatitudeDegrees>42.33238060958683490753173828125</LatitudeDegrees>
              <LongitudeDegrees>2.43454364128410816192626953125</LongitudeDegrees>
            </Position>
            <AltitudeMeters>967.4000244140625</AltitudeMeters>
            <DistanceMeters>NAN</DistanceMeters>
          </Trackpoint>
          <Trackpoint>
            <Time>2021-04-04T07:53:49.000Z</Time>
            <Position>
              <LatitudeDegrees>42.332387231290340423583984375</LatitudeDegrees>
              <LongitudeDegrees>2.43453341536223888397216796875</LongitudeDegrees>
            </Position>
            <AltitudeMeters>967.5999755859375</AltitudeMeters>
            <DistanceMeters>NAN</DistanceMeters>
          </Trackpoint>
          <Trackpoint>
            <Time>2021-04-04T07:53:51.000Z</Time>
            <Position>
              <LatitudeDegrees>42.33239033259451389312744140625</LatitudeDegrees>
              <LongitudeDegrees>2.43451849557459354400634765625</LongitudeDegrees>
            </Position>
            <AltitudeMeters>968</AltitudeMeters>
            <DistanceMeters>NAN</DistanceMeters>
          </Trackpoint>
          <Trackpoint>
            <Time>2021-04-04T07:53:52.000Z</Time>
            <Position>
              <LatitudeDegrees>42.3323889076709747314453125</LatitudeDegrees>
              <LongitudeDegrees>2.43450709618628025054931640625</LongitudeDegrees>
            </Position>
            <AltitudeMeters>968.20001220703125</AltitudeMeters>
            <DistanceMeters>NAN</DistanceMeters>
          </Trackpoint>
          <Trackpoint>
            <Time>2021-04-04T07:53:54.000Z</Time>
            <Position>
              <LatitudeDegrees>42.33240441419184207916259765625</LatitudeDegrees>
              <LongitudeDegrees>2.4344877339899539947509765625</LongitudeDegrees>
            </Position>
            <AltitudeMeters>968.4000244140625</AltitudeMeters>
            <DistanceMeters>NAN</DistanceMeters>
          </Trackpoint>
          <Trackpoint>
            <Time>2021-04-04T07:53:55.000Z</Time>
            <Position>
              <LatitudeDegrees>42.33241363428533077239990234375</LatitudeDegrees>
              <LongitudeDegrees>2.43448312394320964813232421875</LongitudeDegrees>
            </Position>
            <AltitudeMeters>968.5999755859375</AltitudeMeters>
            <DistanceMeters>NAN</DistanceMeters>
          </Trackpoint>
          <Trackpoint>
            <Time>2021-04-04T07:53:59.000Z</Time>
            <Position>
              <LatitudeDegrees>42.33242671005427837371826171875</LatitudeDegrees>
              <LongitudeDegrees>2.43445940315723419189453125</LongitudeDegrees>
            </Position>
            <AltitudeMeters>969.20001220703125</AltitudeMeters>
            <DistanceMeters>NAN</DistanceMeters>
          </Trackpoint>
          <Trackpoint>
            <Time>2021-04-04T07:54:00.000Z</Time>
            <Position>
              <LatitudeDegrees>42.33243056572973728179931640625</LatitudeDegrees>
              <LongitudeDegrees>2.434442974627017974853515625</LongitudeDegrees>
            </Position>
            <AltitudeMeters>969.4000244140625</AltitudeMeters>
            <DistanceMeters>NAN</DistanceMeters>
          </Trackpoint>
          <Trackpoint>
            <Time>2021-04-04T07:54:01.000Z</Time>
            <Position>
              <LatitudeDegrees>42.33242905698716640472412109375</LatitudeDegrees>
              <LongitudeDegrees>2.4344265460968017578125</LongitudeDegrees>
            </Position>
            <AltitudeMeters>969.4000244140625</AltitudeMeters>
            <DistanceMeters>NAN</DistanceMeters>
          </Trackpoint>
          <Trackpoint>
            <Time>2021-04-04T07:54:04.000Z</Time>
            <Position>
              <LatitudeDegrees>42.332418747246265411376953125</LatitudeDegrees>
              <LongitudeDegrees>2.4344086088240146636962890625</LongitudeDegrees>
            </Position>
            <AltitudeMeters>969.79998779296875</AltitudeMeters>
            <DistanceMeters>NAN</DistanceMeters>
          </Trackpoint>
          <Trackpoint>
            <Time>2021-04-04T07:54:06.000Z</Time>
            <Position>
              <LatitudeDegrees>42.33241179026663303375244140625</LatitudeDegrees>
              <LongitudeDegrees>2.43440441787242889404296875</LongitudeDegrees>
            </Position>
            <AltitudeMeters>970</AltitudeMeters>
            <DistanceMeters>NAN</DistanceMeters>
          </Trackpoint>
          <Trackpoint>
            <Time>2021-04-04T07:54:08.000Z</Time>
            <Position>
              <LatitudeDegrees>42.33241229318082332611083984375</LatitudeDegrees>
              <LongitudeDegrees>2.43440081365406513214111328125</LongitudeDegrees>
            </Position>
            <AltitudeMeters>970.4000244140625</AltitudeMeters>
            <DistanceMeters>NAN</DistanceMeters>
          </Trackpoint>
          <Trackpoint>
            <Time>2021-04-04T07:54:12.000Z</Time>
            <Position>
              <LatitudeDegrees>42.3323996365070343017578125</LatitudeDegrees>
              <LongitudeDegrees>2.434397377073764801025390625</LongitudeDegrees>
            </Position>
            <AltitudeMeters>971</AltitudeMeters>
            <DistanceMeters>NAN</DistanceMeters>
          </Trackpoint>
          <Trackpoint>
            <Time>2021-04-04T07:54:14.000Z</Time>
            <Position>
              <LatitudeDegrees>42.33239871449768543243408203125</LatitudeDegrees>
              <LongitudeDegrees>2.43439771234989166259765625</LongitudeDegrees>
            </Position>
            <AltitudeMeters>971.4000244140625</AltitudeMeters>
            <DistanceMeters>NAN</DistanceMeters>
          </Trackpoint>
          <Trackpoint>
            <Time>2021-04-04T07:54:18.000Z</Time>
            <Position>
              <LatitudeDegrees>42.33238899149000644683837890625</LatitudeDegrees>
              <LongitudeDegrees>2.4344146437942981719970703125</LongitudeDegrees>
            </Position>
            <AltitudeMeters>972</AltitudeMeters>
            <DistanceMeters>NAN</DistanceMeters>
          </Trackpoint>
          <Trackpoint>
            <Time>2021-04-04T07:54:20.000Z</Time>
            <Position>
              <LatitudeDegrees>42.33238630928099155426025390625</LatitudeDegrees>
              <LongitudeDegrees>2.4344257079064846038818359375</LongitudeDegrees>
            </Position>
            <AltitudeMeters>972.4000244140625</AltitudeMeters>
            <DistanceMeters>NAN</DistanceMeters>
          </Trackpoint>
          <Trackpoint>
            <Time>2021-04-04T07:54:24.000Z</Time>
            <Position>
              <LatitudeDegrees>42.3323904164135456085205078125</LatitudeDegrees>
              <LongitudeDegrees>2.43444724939763545989990234375</LongitudeDegrees>
            </Position>
            <AltitudeMeters>973</AltitudeMeters>
            <DistanceMeters>NAN</DistanceMeters>
          </Trackpoint>
          <Trackpoint>
            <Time>2021-04-04T07:54:29.000Z</Time>
            <Position>
              <LatitudeDegrees>42.3323656059801578521728515625</LatitudeDegrees>
              <LongitudeDegrees>2.43447725661098957061767578125</LongitudeDegrees>
            </Position>
            <AltitudeMeters>973.5999755859375</AltitudeMeters>
            <DistanceMeters>NAN</DistanceMeters>
          </Trackpoint>
          <Trackpoint>
            <Time>2021-04-04T07:54:31.000Z</Time>
            <Position>
              <LatitudeDegrees>42.3323592357337474822998046875</LatitudeDegrees>
              <LongitudeDegrees>2.43448982946574687957763671875</LongitudeDegrees>
            </Position>
            <AltitudeMeters>974</AltitudeMeters>
            <DistanceMeters>NAN</DistanceMeters>
          </Trackpoint>
          <Trackpoint>
            <Time>2021-04-04T07:54:37.000Z</Time>
            <Position>
              <LatitudeDegrees>42.3323567211627960205078125</LatitudeDegrees>
              <LongitudeDegrees>2.4344827048480510711669921875</LongitudeDegrees>
            </Position>
            <AltitudeMeters>974.4000244140625</AltitudeMeters>
            <DistanceMeters>NAN</DistanceMeters>
          </Trackpoint>
          <Trackpoint>
            <Time>2021-04-04T07:54:40.000Z</Time>
            <Position>
              <LatitudeDegrees>42.332337610423564910888671875</LatitudeDegrees>
              <LongitudeDegrees>2.434478513896465301513671875</LongitudeDegrees>
            </Position>
            <AltitudeMeters>974.79998779296875</AltitudeMeters>
            <DistanceMeters>NAN</DistanceMeters>
          </Trackpoint>
          <Trackpoint>
            <Time>2021-04-04T07:54:44.000Z</Time>
            <Position>
              <LatitudeDegrees>42.3323218524456024169921875</LatitudeDegrees>
              <LongitudeDegrees>2.4344733171164989471435546875</LongitudeDegrees>
            </Position>
            <AltitudeMeters>975.20001220703125</AltitudeMeters>
            <DistanceMeters>NAN</DistanceMeters>
          </Trackpoint>
          <Trackpoint>
            <Time>2021-04-04T07:54:49.000Z</Time>
            <Position>
              <LatitudeDegrees>42.33228522352874279022216796875</LatitudeDegrees>
              <LongitudeDegrees>2.43445630185306072235107421875</LongitudeDegrees>
            </Position>
            <AltitudeMeters>975.79998779296875</AltitudeMeters>
            <DistanceMeters>NAN</DistanceMeters>
          </Trackpoint>
          <Trackpoint>
            <Time>2021-04-04T07:54:50.000Z</Time>
            <Position>
              <LatitudeDegrees>42.33227868564426898956298828125</LatitudeDegrees>
              <LongitudeDegrees>2.43444624356925487518310546875</LongitudeDegrees>
            </Position>
            <AltitudeMeters>975.79998779296875</AltitudeMeters>
            <DistanceMeters>NAN</DistanceMeters>
          </Trackpoint>
          <Trackpoint>
            <Time>2021-04-04T07:54:54.000Z</Time>
            <Position>
              <LatitudeDegrees>42.33226795680820941925048828125</LatitudeDegrees>
              <LongitudeDegrees>2.434397377073764801025390625</LongitudeDegrees>
            </Position>
            <AltitudeMeters>976.4000244140625</AltitudeMeters>
            <DistanceMeters>NAN</DistanceMeters>
          </Trackpoint>
          <Trackpoint>
            <Time>2021-04-04T07:54:55.000Z</Time>
            <Position>
              <LatitudeDegrees>42.33227047137916088104248046875</LatitudeDegrees>
              <LongitudeDegrees>2.4343921802937984466552734375</LongitudeDegrees>
            </Position>
            <AltitudeMeters>976.5999755859375</AltitudeMeters>
            <DistanceMeters>NAN</DistanceMeters>
          </Trackpoint>
          <Trackpoint>
            <Time>2021-04-04T07:54:57.000Z</Time>
            <Position>
              <LatitudeDegrees>42.33226954936981201171875</LatitudeDegrees>
              <LongitudeDegrees>2.4343807809054851531982421875</LongitudeDegrees>
            </Position>
            <AltitudeMeters>976.79998779296875</AltitudeMeters>
            <DistanceMeters>NAN</DistanceMeters>
          </Trackpoint>
          <Trackpoint>
            <Time>2021-04-04T07:54:58.000Z</Time>
            <Position>
              <LatitudeDegrees>42.3322708904743194580078125</LatitudeDegrees>
              <LongitudeDegrees>2.43437382392585277557373046875</LongitudeDegrees>
            </Position>
            <AltitudeMeters>976.79998779296875</AltitudeMeters>
            <DistanceMeters>NAN</DistanceMeters>
          </Trackpoint>
          <Trackpoint>
            <Time>2021-04-04T07:55:02.000Z</Time>
            <Position>
              <LatitudeDegrees>42.33226980082690715789794921875</LatitudeDegrees>
              <LongitudeDegrees>2.4343516118824481964111328125</LongitudeDegrees>
            </Position>
            <AltitudeMeters>977.4000244140625</AltitudeMeters>
            <DistanceMeters>NAN</DistanceMeters>
          </Trackpoint>
          <Trackpoint>
            <Time>2021-04-04T07:55:04.000Z</Time>
            <Position>
              <LatitudeDegrees>42.33227198012173175811767578125</LatitudeDegrees>
              <LongitudeDegrees>2.4343385361135005950927734375</LongitudeDegrees>
            </Position>
            <AltitudeMeters>977.5999755859375</AltitudeMeters>
            <DistanceMeters>NAN</DistanceMeters>
          </Trackpoint>
          <Trackpoint>
            <Time>2021-04-04T07:55:05.000Z</Time>
            <Position>
              <LatitudeDegrees>42.3322717286646366119384765625</LatitudeDegrees>
              <LongitudeDegrees>2.43433878757059574127197265625</LongitudeDegrees>
            </Position>
            <AltitudeMeters>977.79998779296875</AltitudeMeters>
            <DistanceMeters>NAN</DistanceMeters>
          </Trackpoint>
          <Trackpoint>
            <Time>2021-04-04T07:55:10.000Z</Time>
            <Position>
              <LatitudeDegrees>42.3322864808142185211181640625</LatitudeDegrees>
              <LongitudeDegrees>2.43431649170815944671630859375</LongitudeDegrees>
            </Position>
            <AltitudeMeters>978.4000244140625</AltitudeMeters>
            <DistanceMeters>NAN</DistanceMeters>
          </Trackpoint>
          <Trackpoint>
            <Time>2021-04-04T07:55:14.000Z</Time>
            <Position>
              <LatitudeDegrees>42.33229394070804119110107421875</LatitudeDegrees>
              <LongitudeDegrees>2.434291429817676544189453125</LongitudeDegrees>
            </Position>
            <AltitudeMeters>978.79998779296875</AltitudeMeters>
            <DistanceMeters>NAN</DistanceMeters>
          </Trackpoint>
          <Trackpoint>
            <Time>2021-04-04T07:55:18.000Z</Time>
            <Position>
              <LatitudeDegrees>42.33230165205895900726318359375</LatitudeDegrees>
              <LongitudeDegrees>2.43426050059497356414794921875</LongitudeDegrees>
            </Position>
            <AltitudeMeters>979.4000244140625</AltitudeMeters>
            <DistanceMeters>NAN</DistanceMeters>
          </Trackpoint>
          <Trackpoint>
            <Time>2021-04-04T07:55:22.000Z</Time>
            <Position>
              <LatitudeDegrees>42.33229947276413440704345703125</LatitudeDegrees>
              <LongitudeDegrees>2.43423384614288806915283203125</LongitudeDegrees>
            </Position>
            <AltitudeMeters>979.79998779296875</AltitudeMeters>
            <DistanceMeters>NAN</DistanceMeters>
          </Trackpoint>
          <Trackpoint>
            <Time>2021-04-04T07:55:24.000Z</Time>
            <Position>
              <LatitudeDegrees>42.33230383135378360748291015625</LatitudeDegrees>
              <LongitudeDegrees>2.43421590887010097503662109375</LongitudeDegrees>
            </Position>
            <AltitudeMeters>980</AltitudeMeters>
            <DistanceMeters>NAN</DistanceMeters>
          </Trackpoint>
          <Trackpoint>
            <Time>2021-04-04T07:55:30.000Z</Time>
            <Position>
              <LatitudeDegrees>42.33228974975645542144775390625</LatitudeDegrees>
              <LongitudeDegrees>2.43417081423103809356689453125</LongitudeDegrees>
            </Position>
            <AltitudeMeters>980.5999755859375</AltitudeMeters>
            <DistanceMeters>NAN</DistanceMeters>
          </Trackpoint>
          <Trackpoint>
            <Time>2021-04-04T07:55:31.000Z</Time>
            <Position>
              <LatitudeDegrees>42.332286648452281951904296875</LatitudeDegrees>
              <LongitudeDegrees>2.43416042067110538482666015625</LongitudeDegrees>
            </Position>
            <AltitudeMeters>980.79998779296875</AltitudeMeters>
            <DistanceMeters>NAN</DistanceMeters>
          </Trackpoint>
          <Trackpoint>
            <Time>2021-04-04T07:55:32.000Z</Time>
            <Position>
              <LatitudeDegrees>42.33227868564426898956298828125</LatitudeDegrees>
              <LongitudeDegrees>2.4341521225869655609130859375</LongitudeDegrees>
            </Position>
            <AltitudeMeters>980.79998779296875</AltitudeMeters>
            <DistanceMeters>NAN</DistanceMeters>
          </Trackpoint>
          <Trackpoint>
            <Time>2021-04-04T07:55:36.000Z</Time>
            <Position>
              <LatitudeDegrees>42.3322643525898456573486328125</LatitudeDegrees>
              <LongitudeDegrees>2.43413426913321018218994140625</LongitudeDegrees>
            </Position>
            <AltitudeMeters>981.4000244140625</AltitudeMeters>
            <DistanceMeters>NAN</DistanceMeters>
          </Trackpoint>
          <Trackpoint>
            <Time>2021-04-04T07:55:41.000Z</Time>
            <Position>
              <LatitudeDegrees>42.3322398774325847625732421875</LatitudeDegrees>
              <LongitudeDegrees>2.4341035075485706329345703125</LongitudeDegrees>
            </Position>
            <AltitudeMeters>982</AltitudeMeters>
            <DistanceMeters>NAN</DistanceMeters>
          </Trackpoint>
          <Trackpoint>
            <Time>2021-04-04T07:55:44.000Z</Time>
            <Position>
              <LatitudeDegrees>42.33223174698650836944580078125</LatitudeDegrees>
              <LongitudeDegrees>2.43408682756125926971435546875</LongitudeDegrees>
            </Position>
            <AltitudeMeters>982.4000244140625</AltitudeMeters>
            <DistanceMeters>NAN</DistanceMeters>
          </Trackpoint>
          <Trackpoint>
            <Time>2021-04-04T07:55:48.000Z</Time>
            <Position>
              <LatitudeDegrees>42.3322388716042041778564453125</LatitudeDegrees>
              <LongitudeDegrees>2.43405531160533428192138671875</LongitudeDegrees>
            </Position>
            <AltitudeMeters>983</AltitudeMeters>
            <DistanceMeters>NAN</DistanceMeters>
          </Trackpoint>
          <Trackpoint>
            <Time>2021-04-04T07:55:52.000Z</Time>
            <Position>
              <LatitudeDegrees>42.3322559706866741180419921875</LatitudeDegrees>
              <LongitudeDegrees>2.43402848951518535614013671875</LongitudeDegrees>
            </Position>
            <AltitudeMeters>983.5999755859375</AltitudeMeters>
            <DistanceMeters>NAN</DistanceMeters>
          </Trackpoint>
          <Trackpoint>
            <Time>2021-04-04T07:55:53.000Z</Time>
            <Position>
              <LatitudeDegrees>42.332263849675655364990234375</LatitudeDegrees>
              <LongitudeDegrees>2.43402429856359958648681640625</LongitudeDegrees>
            </Position>
            <AltitudeMeters>983.79998779296875</AltitudeMeters>
            <DistanceMeters>NAN</DistanceMeters>
          </Trackpoint>
          <Trackpoint>
            <Time>2021-04-04T07:55:56.000Z</Time>
            <Position>
              <LatitudeDegrees>42.3322682082653045654296875</LatitudeDegrees>
              <LongitudeDegrees>2.434023879468441009521484375</LongitudeDegrees>
            </Position>
            <AltitudeMeters>984.20001220703125</AltitudeMeters>
            <DistanceMeters>NAN</DistanceMeters>
          </Trackpoint>
          <Trackpoint>
            <Time>2021-04-04T07:55:58.000Z</Time>
            <Position>
              <LatitudeDegrees>42.3322723992168903350830078125</LatitudeDegrees>
              <LongitudeDegrees>2.43401222862303256988525390625</LongitudeDegrees>
            </Position>
            <AltitudeMeters>984.20001220703125</AltitudeMeters>
            <DistanceMeters>NAN</DistanceMeters>
          </Trackpoint>
          <Trackpoint>
            <Time>2021-04-04T07:56:04.000Z</Time>
            <Position>
              <LatitudeDegrees>42.3322762548923492431640625</LatitudeDegrees>
              <LongitudeDegrees>2.43399898521602153778076171875</LongitudeDegrees>
            </Position>
            <AltitudeMeters>984.79998779296875</AltitudeMeters>
            <DistanceMeters>NAN</DistanceMeters>
          </Trackpoint>
          <Trackpoint>
            <Time>2021-04-04T07:56:07.000Z</Time>
            <Position>
              <LatitudeDegrees>42.3322762548923492431640625</LatitudeDegrees>
              <LongitudeDegrees>2.43399898521602153778076171875</LongitudeDegrees>
            </Position>
            <AltitudeMeters>985.4000244140625</AltitudeMeters>
            <DistanceMeters>NAN</DistanceMeters>
          </Trackpoint>
          <Trackpoint>
            <Time>2021-04-04T07:56:13.000Z</Time>
            <Position>
              <LatitudeDegrees>42.3322762548923492431640625</LatitudeDegrees>
              <LongitudeDegrees>2.43399898521602153778076171875</LongitudeDegrees>
            </Position>
            <AltitudeMeters>986.4000244140625</AltitudeMeters>
            <DistanceMeters>NAN</DistanceMeters>
          </Trackpoint>
          <Trackpoint>
            <Time>2021-04-04T07:56:23.000Z</Time>
            <Position>
              <LatitudeDegrees>42.3322864808142185211181640625</LatitudeDegrees>
              <LongitudeDegrees>2.4339811317622661590576171875</LongitudeDegrees>
            </Position>
            <AltitudeMeters>987.4000244140625</AltitudeMeters>
            <DistanceMeters>NAN</DistanceMeters>
          </Trackpoint>
          <Trackpoint>
            <Time>2021-04-04T07:56:31.000Z</Time>
            <Position>
              <LatitudeDegrees>42.33230165205895900726318359375</LatitudeDegrees>
              <LongitudeDegrees>2.43395037017762660980224609375</LongitudeDegrees>
            </Position>
            <AltitudeMeters>988.5999755859375</AltitudeMeters>
            <DistanceMeters>NAN</DistanceMeters>
          </Trackpoint>
          <Trackpoint>
            <Time>2021-04-04T07:56:42.000Z</Time>
            <Position>
              <LatitudeDegrees>42.33231103979051113128662109375</LatitudeDegrees>
              <LongitudeDegrees>2.43387644179165363311767578125</LongitudeDegrees>
            </Position>
            <AltitudeMeters>989.20001220703125</AltitudeMeters>
            <DistanceMeters>NAN</DistanceMeters>
          </Trackpoint>
          <Trackpoint>
            <Time>2021-04-04T07:56:45.000Z</Time>
            <Position>
              <LatitudeDegrees>42.33231238089501857757568359375</LatitudeDegrees>
              <LongitudeDegrees>2.43387493304908275604248046875</LongitudeDegrees>
            </Position>
            <AltitudeMeters>989.5999755859375</AltitudeMeters>
            <DistanceMeters>NAN</DistanceMeters>
          </Trackpoint>
          <Trackpoint>
            <Time>2021-04-04T07:56:46.000Z</Time>
            <Position>
              <LatitudeDegrees>42.33231489546597003936767578125</LatitudeDegrees>
              <LongitudeDegrees>2.4338728375732898712158203125</LongitudeDegrees>
            </Position>
            <AltitudeMeters>989.79998779296875</AltitudeMeters>
            <DistanceMeters>NAN</DistanceMeters>
          </Trackpoint>
          <Trackpoint>
            <Time>2021-04-04T07:56:53.000Z</Time>
            <Position>
              <LatitudeDegrees>42.33234171755611896514892578125</LatitudeDegrees>
              <LongitudeDegrees>2.43386722169816493988037109375</LongitudeDegrees>
            </Position>
            <AltitudeMeters>990.79998779296875</AltitudeMeters>
            <DistanceMeters>NAN</DistanceMeters>
          </Trackpoint>
          <Trackpoint>
            <Time>2021-04-04T07:56:55.000Z</Time>
            <Position>
              <LatitudeDegrees>42.33234272338449954986572265625</LatitudeDegrees>
              <LongitudeDegrees>2.43386655114591121673583984375</LongitudeDegrees>
            </Position>
            <AltitudeMeters>991</AltitudeMeters>
            <DistanceMeters>NAN</DistanceMeters>
          </Trackpoint>
          <Trackpoint>
            <Time>2021-04-04T07:57:03.000Z</Time>
            <Position>
              <LatitudeDegrees>42.3323459923267364501953125</LatitudeDegrees>
              <LongitudeDegrees>2.43386085145175457000732421875</LongitudeDegrees>
            </Position>
            <AltitudeMeters>992</AltitudeMeters>
            <DistanceMeters>NAN</DistanceMeters>
          </Trackpoint>
          <Trackpoint>
            <Time>2021-04-04T07:57:11.000Z</Time>
            <Position>
              <LatitudeDegrees>42.3323327489197254180908203125</LatitudeDegrees>
              <LongitudeDegrees>2.4338359571993350982666015625</LongitudeDegrees>
            </Position>
            <AltitudeMeters>993</AltitudeMeters>
            <DistanceMeters>NAN</DistanceMeters>
          </Trackpoint>
          <Trackpoint>
            <Time>2021-04-04T07:57:14.000Z</Time>
            <Position>
              <LatitudeDegrees>42.3323391191661357879638671875</LatitudeDegrees>
              <LongitudeDegrees>2.43383905850350856781005859375</LongitudeDegrees>
            </Position>
            <AltitudeMeters>993.4000244140625</AltitudeMeters>
            <DistanceMeters>NAN</DistanceMeters>
          </Trackpoint>
          <Trackpoint>
            <Time>2021-04-04T07:57:19.000Z</Time>
            <Position>
              <LatitudeDegrees>42.332332916557788848876953125</LatitudeDegrees>
              <LongitudeDegrees>2.43381676264107227325439453125</LongitudeDegrees>
            </Position>
            <AltitudeMeters>994</AltitudeMeters>
            <DistanceMeters>NAN</DistanceMeters>
          </Trackpoint>
          <Trackpoint>
            <Time>2021-04-04T07:57:20.000Z</Time>
            <Position>
              <LatitudeDegrees>42.3323245346546173095703125</LatitudeDegrees>
              <LongitudeDegrees>2.43381164968013763427734375</LongitudeDegrees>
            </Position>
            <AltitudeMeters>994.20001220703125</AltitudeMeters>
            <DistanceMeters>NAN</DistanceMeters>
          </Trackpoint>
          <Trackpoint>
            <Time>2021-04-04T07:57:26.000Z</Time>
            <Position>
              <LatitudeDegrees>42.33230106532573699951171875</LatitudeDegrees>
              <LongitudeDegrees>2.43380318395793437957763671875</LongitudeDegrees>
            </Position>
            <AltitudeMeters>995</AltitudeMeters>
            <DistanceMeters>NAN</DistanceMeters>
          </Trackpoint>
          <Trackpoint>
            <Time>2021-04-04T07:57:27.000Z</Time>
            <Position>
              <LatitudeDegrees>42.33229226432740688323974609375</LatitudeDegrees>
              <LongitudeDegrees>2.4338074587285518646240234375</LongitudeDegrees>
            </Position>
            <AltitudeMeters>995.20001220703125</AltitudeMeters>
            <DistanceMeters>NAN</DistanceMeters>
          </Trackpoint>
          <Trackpoint>
            <Time>2021-04-04T07:57:31.000Z</Time>
            <Position>
              <LatitudeDegrees>42.3322784341871738433837890625</LatitudeDegrees>
              <LongitudeDegrees>2.4338346160948276519775390625</LongitudeDegrees>
            </Position>
            <AltitudeMeters>995.79998779296875</AltitudeMeters>
            <DistanceMeters>NAN</DistanceMeters>
          </Trackpoint>
          <Trackpoint>
            <Time>2021-04-04T07:57:33.000Z</Time>
            <Position>
              <LatitudeDegrees>42.3322754167020320892333984375</LatitudeDegrees>
              <LongitudeDegrees>2.43383847177028656005859375</LongitudeDegrees>
            </Position>
            <AltitudeMeters>996.20001220703125</AltitudeMeters>
            <DistanceMeters>NAN</DistanceMeters>
          </Trackpoint>
          <Trackpoint>
            <Time>2021-04-04T07:57:40.000Z</Time>
            <Position>
              <LatitudeDegrees>42.33224130235612392425537109375</LatitudeDegrees>
              <LongitudeDegrees>2.4337984062731266021728515625</LongitudeDegrees>
            </Position>
            <AltitudeMeters>997.4000244140625</AltitudeMeters>
            <DistanceMeters>NAN</DistanceMeters>
          </Trackpoint>
          <Trackpoint>
            <Time>2021-04-04T07:57:41.000Z</Time>
            <Position>
              <LatitudeDegrees>42.332231663167476654052734375</LatitudeDegrees>
              <LongitudeDegrees>2.43379798717796802520751953125</LongitudeDegrees>
            </Position>
            <AltitudeMeters>997.5999755859375</AltitudeMeters>
            <DistanceMeters>NAN</DistanceMeters>
          </Trackpoint>
          <Trackpoint>
            <Time>2021-04-04T07:57:44.000Z</Time>
            <Position>
              <LatitudeDegrees>42.33222135342657566070556640625</LatitudeDegrees>
              <LongitudeDegrees>2.4337823130190372467041015625</LongitudeDegrees>
            </Position>
            <AltitudeMeters>998</AltitudeMeters>
            <DistanceMeters>NAN</DistanceMeters>
          </Trackpoint>
          <Trackpoint>
            <Time>2021-04-04T07:57:47.000Z</Time>
            <Position>
              <LatitudeDegrees>42.3322221077978610992431640625</LatitudeDegrees>
              <LongitudeDegrees>2.43375406600534915924072265625</LongitudeDegrees>
            </Position>
            <AltitudeMeters>998.4000244140625</AltitudeMeters>
            <DistanceMeters>NAN</DistanceMeters>
          </Trackpoint>
          <Trackpoint>
            <Time>2021-04-04T07:57:48.000Z</Time>
            <Position>
              <LatitudeDegrees>42.3322120495140552520751953125</LatitudeDegrees>
              <LongitudeDegrees>2.43374803103506565093994140625</LongitudeDegrees>
            </Position>
            <AltitudeMeters>998.79998779296875</AltitudeMeters>
            <DistanceMeters>NAN</DistanceMeters>
          </Trackpoint>
          <Trackpoint>
            <Time>2021-04-04T07:57:52.000Z</Time>
            <Position>
              <LatitudeDegrees>42.33218916691839694976806640625</LatitudeDegrees>
              <LongitudeDegrees>2.4337286688387393951416015625</LongitudeDegrees>
            </Position>
            <AltitudeMeters>999.20001220703125</AltitudeMeters>
            <DistanceMeters>NAN</DistanceMeters>
          </Trackpoint>
          <Trackpoint>
            <Time>2021-04-04T07:57:53.000Z</Time>
            <Position>
              <LatitudeDegrees>42.3321855627000331878662109375</LatitudeDegrees>
              <LongitudeDegrees>2.43372456170618534088134765625</LongitudeDegrees>
            </Position>
            <AltitudeMeters>999.4000244140625</AltitudeMeters>
            <DistanceMeters>NAN</DistanceMeters>
          </Trackpoint>
          <Trackpoint>
            <Time>2021-04-04T07:57:54.000Z</Time>
            <Position>
              <LatitudeDegrees>42.332185395061969757080078125</LatitudeDegrees>
              <LongitudeDegrees>2.43371240794658660888671875</LongitudeDegrees>
            </Position>
            <AltitudeMeters>999.5999755859375</AltitudeMeters>
            <DistanceMeters>NAN</DistanceMeters>
          </Trackpoint>
          <Trackpoint>
            <Time>2021-04-04T07:57:57.000Z</Time>
            <Position>
              <LatitudeDegrees>42.332168631255626678466796875</LatitudeDegrees>
              <LongitudeDegrees>2.433685921132564544677734375</LongitudeDegrees>
            </Position>
            <AltitudeMeters>999.79998779296875</AltitudeMeters>
            <DistanceMeters>NAN</DistanceMeters>
          </Trackpoint>
          <Trackpoint>
            <Time>2021-04-04T07:57:58.000Z</Time>
            <Position>
              <LatitudeDegrees>42.3321677930653095245361328125</LatitudeDegrees>
              <LongitudeDegrees>2.43367896415293216705322265625</LongitudeDegrees>
            </Position>
            <AltitudeMeters>1000</AltitudeMeters>
            <DistanceMeters>NAN</DistanceMeters>
          </Trackpoint>
          <Trackpoint>
            <Time>2021-04-04T07:58:01.000Z</Time>
            <Position>
              <LatitudeDegrees>42.332163937389850616455078125</LatitudeDegrees>
              <LongitudeDegrees>2.43366471491754055023193359375</LongitudeDegrees>
            </Position>
            <AltitudeMeters>1000.20001220703125</AltitudeMeters>
            <DistanceMeters>NAN</DistanceMeters>
          </Trackpoint>
          <Trackpoint>
            <Time>2021-04-04T07:58:05.000Z</Time>
            <Position>
              <LatitudeDegrees>42.33215278945863246917724609375</LatitudeDegrees>
              <LongitudeDegrees>2.43365985341370105743408203125</LongitudeDegrees>
            </Position>
            <AltitudeMeters>1000.20001220703125</AltitudeMeters>
            <DistanceMeters>NAN</DistanceMeters>
          </Trackpoint>
          <Trackpoint>
            <Time>2021-04-04T07:58:06.000Z</Time>
            <Position>
              <LatitudeDegrees>42.33214960433542728424072265625</LatitudeDegrees>
              <LongitudeDegrees>2.4336579255759716033935546875</LongitudeDegrees>
            </Position>
            <AltitudeMeters>1000</AltitudeMeters>
            <DistanceMeters>NAN</DistanceMeters>
          </Trackpoint>
          <Trackpoint>
            <Time>2021-04-04T07:58:08.000Z</Time>
            <Position>
              <LatitudeDegrees>42.3321386240422725677490234375</LatitudeDegrees>
              <LongitudeDegrees>2.4336572550237178802490234375</LongitudeDegrees>
            </Position>
            <AltitudeMeters>999.79998779296875</AltitudeMeters>
            <DistanceMeters>NAN</DistanceMeters>
          </Trackpoint>
          <Trackpoint>
            <Time>2021-04-04T07:58:09.000Z</Time>
            <Position>
              <LatitudeDegrees>42.332134433090686798095703125</LatitudeDegrees>
              <LongitudeDegrees>2.43365876376628875732421875</LongitudeDegrees>
            </Position>
            <AltitudeMeters>999.79998779296875</AltitudeMeters>
            <DistanceMeters>NAN</DistanceMeters>
          </Trackpoint>
          <Trackpoint>
            <Time>2021-04-04T07:58:14.000Z</Time>
            <Position>
              <LatitudeDegrees>42.3321114666759967803955078125</LatitudeDegrees>
              <LongitudeDegrees>2.4336632899940013885498046875</LongitudeDegrees>
            </Position>
            <AltitudeMeters>999.4000244140625</AltitudeMeters>
            <DistanceMeters>NAN</DistanceMeters>
          </Trackpoint>
          <Trackpoint>
            <Time>2021-04-04T07:58:20.000Z</Time>
            <Position>
              <LatitudeDegrees>42.3320668749511241912841796875</LatitudeDegrees>
              <LongitudeDegrees>2.433686591684818267822265625</LongitudeDegrees>
            </Position>
            <AltitudeMeters>999.4000244140625</AltitudeMeters>
            <DistanceMeters>NAN</DistanceMeters>
          </Trackpoint>
          <Trackpoint>
            <Time>2021-04-04T07:58:22.000Z</Time>
            <Position>
              <LatitudeDegrees>42.3320524580776691436767578125</LatitudeDegrees>
              <LongitudeDegrees>2.4336860887706279754638671875</LongitudeDegrees>
            </Position>
            <AltitudeMeters>999.4000244140625</AltitudeMeters>
            <DistanceMeters>NAN</DistanceMeters>
          </Trackpoint>
          <Trackpoint>
            <Time>2021-04-04T07:58:27.000Z</Time>
            <Position>
              <LatitudeDegrees>42.33202655799686908721923828125</LatitudeDegrees>
              <LongitudeDegrees>2.43369874544441699981689453125</LongitudeDegrees>
            </Position>
            <AltitudeMeters>996.79998779296875</AltitudeMeters>
            <DistanceMeters>NAN</DistanceMeters>
          </Trackpoint>
          <Trackpoint>
            <Time>2021-04-04T07:58:28.000Z</Time>
            <Position>
              <LatitudeDegrees>42.33202136121690273284912109375</LatitudeDegrees>
              <LongitudeDegrees>2.433697991073131561279296875</LongitudeDegrees>
            </Position>
            <AltitudeMeters>996.79998779296875</AltitudeMeters>
            <DistanceMeters>NAN</DistanceMeters>
          </Trackpoint>
          <Trackpoint>
            <Time>2021-04-04T07:58:31.000Z</Time>
            <Position>
              <LatitudeDegrees>42.3319968022406101226806640625</LatitudeDegrees>
              <LongitudeDegrees>2.43368231691420078277587890625</LongitudeDegrees>
            </Position>
            <AltitudeMeters>996.79998779296875</AltitudeMeters>
            <DistanceMeters>NAN</DistanceMeters>
          </Trackpoint>
          <Trackpoint>
            <Time>2021-04-04T07:58:34.000Z</Time>
            <Position>
              <LatitudeDegrees>42.33196972869336605072021484375</LatitudeDegrees>
              <LongitudeDegrees>2.43368047289550304412841796875</LongitudeDegrees>
            </Position>
            <AltitudeMeters>996.79998779296875</AltitudeMeters>
            <DistanceMeters>NAN</DistanceMeters>
          </Trackpoint>
          <Trackpoint>
            <Time>2021-04-04T07:58:35.000Z</Time>
            <Position>
              <LatitudeDegrees>42.33195816166698932647705078125</LatitudeDegrees>
              <LongitudeDegrees>2.433678209781646728515625</LongitudeDegrees>
            </Position>
            <AltitudeMeters>996.79998779296875</AltitudeMeters>
            <DistanceMeters>NAN</DistanceMeters>
          </Trackpoint>
          <Trackpoint>
            <Time>2021-04-04T07:58:38.000Z</Time>
            <Position>
              <LatitudeDegrees>42.3319404758512973785400390625</LatitudeDegrees>
              <LongitudeDegrees>2.4336696602404117584228515625</LongitudeDegrees>
            </Position>
            <AltitudeMeters>996.4000244140625</AltitudeMeters>
            <DistanceMeters>NAN</DistanceMeters>
          </Trackpoint>
          <Trackpoint>
            <Time>2021-04-04T07:58:41.000Z</Time>
            <Position>
              <LatitudeDegrees>42.331909798085689544677734375</LatitudeDegrees>
              <LongitudeDegrees>2.43368349038064479827880859375</LongitudeDegrees>
            </Position>
            <AltitudeMeters>995.79998779296875</AltitudeMeters>
            <DistanceMeters>NAN</DistanceMeters>
          </Trackpoint>
          <Trackpoint>
            <Time>2021-04-04T07:58:42.000Z</Time>
            <Position>
              <LatitudeDegrees>42.3318994045257568359375</LatitudeDegrees>
              <LongitudeDegrees>2.43368298746645450592041015625</LongitudeDegrees>
            </Position>
            <AltitudeMeters>995.79998779296875</AltitudeMeters>
            <DistanceMeters>NAN</DistanceMeters>
          </Trackpoint>
          <Trackpoint>
            <Time>2021-04-04T07:58:43.000Z</Time>
            <Position>
              <LatitudeDegrees>42.33188758604228496551513671875</LatitudeDegrees>
              <LongitudeDegrees>2.4336820654571056365966796875</LongitudeDegrees>
            </Position>
            <AltitudeMeters>995.5999755859375</AltitudeMeters>
            <DistanceMeters>NAN</DistanceMeters>
          </Trackpoint>
          <Trackpoint>
            <Time>2021-04-04T07:58:47.000Z</Time>
            <Position>
              <LatitudeDegrees>42.33184182085096836090087890625</LatitudeDegrees>
              <LongitudeDegrees>2.43368625640869140625</LongitudeDegrees>
            </Position>
            <AltitudeMeters>994.79998779296875</AltitudeMeters>
            <DistanceMeters>NAN</DistanceMeters>
          </Trackpoint>
          <Trackpoint>
            <Time>2021-04-04T07:58:48.000Z</Time>
            <Position>
              <LatitudeDegrees>42.33184265904128551483154296875</LatitudeDegrees>
              <LongitudeDegrees>2.43368818424642086029052734375</LongitudeDegrees>
            </Position>
            <AltitudeMeters>994.79998779296875</AltitudeMeters>
            <DistanceMeters>NAN</DistanceMeters>
          </Trackpoint>
          <Trackpoint>
            <Time>2021-04-04T07:58:50.000Z</Time>
            <Position>
              <LatitudeDegrees>42.3318529687821865081787109375</LatitudeDegrees>
              <LongitudeDegrees>2.4336917884647846221923828125</LongitudeDegrees>
            </Position>
            <AltitudeMeters>994.5999755859375</AltitudeMeters>
            <DistanceMeters>NAN</DistanceMeters>
          </Trackpoint>
          <Trackpoint>
            <Time>2021-04-04T07:58:52.000Z</Time>
            <Position>
              <LatitudeDegrees>42.3318690620362758636474609375</LatitudeDegrees>
              <LongitudeDegrees>2.433702684938907623291015625</LongitudeDegrees>
            </Position>
            <AltitudeMeters>994.5999755859375</AltitudeMeters>
            <DistanceMeters>NAN</DistanceMeters>
          </Trackpoint>
          <Trackpoint>
            <Time>2021-04-04T07:58:57.000Z</Time>
            <Position>
              <LatitudeDegrees>42.3318724147975444793701171875</LatitudeDegrees>
              <LongitudeDegrees>2.43372053839266300201416015625</LongitudeDegrees>
            </Position>
            <AltitudeMeters>995</AltitudeMeters>
            <DistanceMeters>NAN</DistanceMeters>
          </Trackpoint>
          <Trackpoint>
            <Time>2021-04-04T07:58:59.000Z</Time>
            <Position>
              <LatitudeDegrees>42.3318697325885295867919921875</LatitudeDegrees>
              <LongitudeDegrees>2.4337343685328960418701171875</LongitudeDegrees>
            </Position>
            <AltitudeMeters>995.20001220703125</AltitudeMeters>
            <DistanceMeters>NAN</DistanceMeters>
          </Trackpoint>
          <Trackpoint>
            <Time>2021-04-04T07:59:01.000Z</Time>
            <Position>
              <LatitudeDegrees>42.33186361379921436309814453125</LatitudeDegrees>
              <LongitudeDegrees>2.43374870158731937408447265625</LongitudeDegrees>
            </Position>
            <AltitudeMeters>995.4000244140625</AltitudeMeters>
            <DistanceMeters>NAN</DistanceMeters>
          </Trackpoint>
          <Trackpoint>
            <Time>2021-04-04T07:59:03.000Z</Time>
            <Position>
              <LatitudeDegrees>42.331853806972503662109375</LatitudeDegrees>
              <LongitudeDegrees>2.4337635375559329986572265625</LongitudeDegrees>
            </Position>
            <AltitudeMeters>995.79998779296875</AltitudeMeters>
            <DistanceMeters>NAN</DistanceMeters>
          </Trackpoint>
          <Trackpoint>
            <Time>2021-04-04T07:59:06.000Z</Time>
            <Position>
              <LatitudeDegrees>42.3318392224609851837158203125</LatitudeDegrees>
              <LongitudeDegrees>2.43378373794257640838623046875</LongitudeDegrees>
            </Position>
            <AltitudeMeters>996.20001220703125</AltitudeMeters>
            <DistanceMeters>NAN</DistanceMeters>
          </Trackpoint>
          <Trackpoint>
            <Time>2021-04-04T07:59:07.000Z</Time>
            <Position>
              <LatitudeDegrees>42.33183260075747966766357421875</LatitudeDegrees>
              <LongitudeDegrees>2.4337876774370670318603515625</LongitudeDegrees>
            </Position>
            <AltitudeMeters>996.20001220703125</AltitudeMeters>
            <DistanceMeters>NAN</DistanceMeters>
          </Trackpoint>
          <Trackpoint>
            <Time>2021-04-04T07:59:10.000Z</Time>
            <Position>
              <LatitudeDegrees>42.3318154178559780120849609375</LatitudeDegrees>
              <LongitudeDegrees>2.43380687199532985687255859375</LongitudeDegrees>
            </Position>
            <AltitudeMeters>996.4000244140625</AltitudeMeters>
            <DistanceMeters>NAN</DistanceMeters>
          </Trackpoint>
          <Trackpoint>
            <Time>2021-04-04T07:59:14.000Z</Time>
            <Position>
              <LatitudeDegrees>42.331794463098049163818359375</LatitudeDegrees>
              <LongitudeDegrees>2.43387359194457530975341796875</LongitudeDegrees>
            </Position>
            <AltitudeMeters>996.4000244140625</AltitudeMeters>
            <DistanceMeters>NAN</DistanceMeters>
          </Trackpoint>
          <Trackpoint>
            <Time>2021-04-04T07:59:15.000Z</Time>
            <Position>
              <LatitudeDegrees>42.33178817667067050933837890625</LatitudeDegrees>
              <LongitudeDegrees>2.43388566188514232635498046875</LongitudeDegrees>
            </Position>
            <AltitudeMeters>996.4000244140625</AltitudeMeters>
            <DistanceMeters>NAN</DistanceMeters>
          </Trackpoint>
          <Trackpoint>
            <Time>2021-04-04T07:59:18.000Z</Time>
            <Position>
              <LatitudeDegrees>42.3317674733698368072509765625</LatitudeDegrees>
              <LongitudeDegrees>2.4339221231639385223388671875</LongitudeDegrees>
            </Position>
            <AltitudeMeters>996.5999755859375</AltitudeMeters>
            <DistanceMeters>NAN</DistanceMeters>
          </Trackpoint>
          <Trackpoint>
            <Time>2021-04-04T07:59:21.000Z</Time>
            <Position>
              <LatitudeDegrees>42.33175464905798435211181640625</LatitudeDegrees>
              <LongitudeDegrees>2.43394098244607448577880859375</LongitudeDegrees>
            </Position>
            <AltitudeMeters>996.79998779296875</AltitudeMeters>
            <DistanceMeters>NAN</DistanceMeters>
          </Trackpoint>
          <Trackpoint>
            <Time>2021-04-04T07:59:24.000Z</Time>
            <Position>
              <LatitudeDegrees>42.3317383043467998504638671875</LatitudeDegrees>
              <LongitudeDegrees>2.43396076373755931854248046875</LongitudeDegrees>
            </Position>
            <AltitudeMeters>997</AltitudeMeters>
            <DistanceMeters>NAN</DistanceMeters>
          </Trackpoint>
          <Trackpoint>
            <Time>2021-04-04T07:59:25.000Z</Time>
            <Position>
              <LatitudeDegrees>42.331735789775848388671875</LatitudeDegrees>
              <LongitudeDegrees>2.43396813981235027313232421875</LongitudeDegrees>
            </Position>
            <AltitudeMeters>997</AltitudeMeters>
            <DistanceMeters>NAN</DistanceMeters>
          </Trackpoint>
          <Trackpoint>
            <Time>2021-04-04T07:59:26.000Z</Time>
            <Position>
              <LatitudeDegrees>42.3317295871675014495849609375</LatitudeDegrees>
              <LongitudeDegrees>2.43397668935358524322509765625</LongitudeDegrees>
            </Position>
            <AltitudeMeters>997.20001220703125</AltitudeMeters>
            <DistanceMeters>NAN</DistanceMeters>
          </Trackpoint>
          <Trackpoint>
            <Time>2021-04-04T07:59:29.000Z</Time>
            <Position>
              <LatitudeDegrees>42.331703938543796539306640625</LatitudeDegrees>
              <LongitudeDegrees>2.43399311788380146026611328125</LongitudeDegrees>
            </Position>
            <AltitudeMeters>997.20001220703125</AltitudeMeters>
            <DistanceMeters>NAN</DistanceMeters>
          </Trackpoint>
          <Trackpoint>
            <Time>2021-04-04T07:59:31.000Z</Time>
            <Position>
              <LatitudeDegrees>42.33169228769838809967041015625</LatitudeDegrees>
              <LongitudeDegrees>2.4340029247105121612548828125</LongitudeDegrees>
            </Position>
            <AltitudeMeters>997.4000244140625</AltitudeMeters>
            <DistanceMeters>NAN</DistanceMeters>
          </Trackpoint>
          <Trackpoint>
            <Time>2021-04-04T07:59:33.000Z</Time>
            <Position>
              <LatitudeDegrees>42.331682480871677398681640625</LatitudeDegrees>
              <LongitudeDegrees>2.43401105515658855438232421875</LongitudeDegrees>
            </Position>
            <AltitudeMeters>997.5999755859375</AltitudeMeters>
            <DistanceMeters>NAN</DistanceMeters>
          </Trackpoint>
          <Trackpoint>
            <Time>2021-04-04T07:59:35.000Z</Time>
            <Position>
              <LatitudeDegrees>42.3316699080169200897216796875</LatitudeDegrees>
              <LongitudeDegrees>2.43402413092553615570068359375</LongitudeDegrees>
            </Position>
            <AltitudeMeters>997.5999755859375</AltitudeMeters>
            <DistanceMeters>NAN</DistanceMeters>
          </Trackpoint>
          <Trackpoint>
            <Time>2021-04-04T07:59:38.000Z</Time>
            <Position>
              <LatitudeDegrees>42.33166412450373172760009765625</LatitudeDegrees>
              <LongitudeDegrees>2.43403066881000995635986328125</LongitudeDegrees>
            </Position>
            <AltitudeMeters>997.5999755859375</AltitudeMeters>
            <DistanceMeters>NAN</DistanceMeters>
          </Trackpoint>
          <Trackpoint>
            <Time>2021-04-04T07:59:40.000Z</Time>
            <Position>
              <LatitudeDegrees>42.33166429214179515838623046875</LatitudeDegrees>
              <LongitudeDegrees>2.434041313827037811279296875</LongitudeDegrees>
            </Position>
            <AltitudeMeters>997.5999755859375</AltitudeMeters>
            <DistanceMeters>NAN</DistanceMeters>
          </Trackpoint>
          <Trackpoint>
            <Time>2021-04-04T07:59:42.000Z</Time>
            <Position>
              <LatitudeDegrees>42.331655658781528472900390625</LatitudeDegrees>
              <LongitudeDegrees>2.4340569041669368743896484375</LongitudeDegrees>
            </Position>
            <AltitudeMeters>997.5999755859375</AltitudeMeters>
            <DistanceMeters>NAN</DistanceMeters>
          </Trackpoint>
          <Trackpoint>
            <Time>2021-04-04T07:59:48.000Z</Time>
            <Position>
              <LatitudeDegrees>42.3315938003361225128173828125</LatitudeDegrees>
              <LongitudeDegrees>2.434075511991977691650390625</LongitudeDegrees>
            </Position>
            <AltitudeMeters>998</AltitudeMeters>
            <DistanceMeters>NAN</DistanceMeters>
          </Trackpoint>
          <Trackpoint>
            <Time>2021-04-04T07:59:49.000Z</Time>
            <Position>
              <LatitudeDegrees>42.331582568585872650146484375</LatitudeDegrees>
              <LongitudeDegrees>2.43408330716192722320556640625</LongitudeDegrees>
            </Position>
            <AltitudeMeters>998</AltitudeMeters>
            <DistanceMeters>NAN</DistanceMeters>
          </Trackpoint>
          <Trackpoint>
            <Time>2021-04-04T07:59:51.000Z</Time>
            <Position>
              <LatitudeDegrees>42.331565804779529571533203125</LatitudeDegrees>
              <LongitudeDegrees>2.4341060221195220947265625</LongitudeDegrees>
            </Position>
            <AltitudeMeters>998</AltitudeMeters>
            <DistanceMeters>NAN</DistanceMeters>
          </Trackpoint>
          <Trackpoint>
            <Time>2021-04-04T07:59:54.000Z</Time>
            <Position>
              <LatitudeDegrees>42.3315431736409664154052734375</LatitudeDegrees>
              <LongitudeDegrees>2.43413259275257587432861328125</LongitudeDegrees>
            </Position>
            <AltitudeMeters>998</AltitudeMeters>
            <DistanceMeters>NAN</DistanceMeters>
          </Trackpoint>
          <Trackpoint>
            <Time>2021-04-04T07:59:56.000Z</Time>
            <Position>
              <LatitudeDegrees>42.33154040761291980743408203125</LatitudeDegrees>
              <LongitudeDegrees>2.43413644842803478240966796875</LongitudeDegrees>
            </Position>
            <AltitudeMeters>998</AltitudeMeters>
            <DistanceMeters>NAN</DistanceMeters>
          </Trackpoint>
          <Trackpoint>
            <Time>2021-04-04T07:59:58.000Z</Time>
            <Position>
              <LatitudeDegrees>42.331532277166843414306640625</LatitudeDegrees>
              <LongitudeDegrees>2.4341407231986522674560546875</LongitudeDegrees>
            </Position>
            <AltitudeMeters>997.5999755859375</AltitudeMeters>
            <DistanceMeters>NAN</DistanceMeters>
          </Trackpoint>
          <Trackpoint>
            <Time>2021-04-04T08:00:00.000Z</Time>
            <Position>
              <LatitudeDegrees>42.33151861466467380523681640625</LatitudeDegrees>
              <LongitudeDegrees>2.43414198048412799835205078125</LongitudeDegrees>
            </Position>
            <AltitudeMeters>997.4000244140625</AltitudeMeters>
            <DistanceMeters>NAN</DistanceMeters>
          </Trackpoint>
          <Trackpoint>
            <Time>2021-04-04T08:00:01.000Z</Time>
            <Position>
              <LatitudeDegrees>42.331511490046977996826171875</LatitudeDegrees>
              <LongitudeDegrees>2.4341504462063312530517578125</LongitudeDegrees>
            </Position>
            <AltitudeMeters>997.4000244140625</AltitudeMeters>
            <DistanceMeters>NAN</DistanceMeters>
          </Trackpoint>
          <Trackpoint>
            <Time>2021-04-04T08:00:05.000Z</Time>
            <Position>
              <LatitudeDegrees>42.3314811475574970245361328125</LatitudeDegrees>
              <LongitudeDegrees>2.4341477639973163604736328125</LongitudeDegrees>
            </Position>
            <AltitudeMeters>997</AltitudeMeters>
            <DistanceMeters>NAN</DistanceMeters>
          </Trackpoint>
          <Trackpoint>
            <Time>2021-04-04T08:00:12.000Z</Time>
            <Position>
              <LatitudeDegrees>42.33138752169907093048095703125</LatitudeDegrees>
              <LongitudeDegrees>2.43413661606609821319580078125</LongitudeDegrees>
            </Position>
            <AltitudeMeters>996.79998779296875</AltitudeMeters>
            <DistanceMeters>NAN</DistanceMeters>
          </Trackpoint>
          <Trackpoint>
            <Time>2021-04-04T08:00:14.000Z</Time>
            <Position>
              <LatitudeDegrees>42.33135885559022426605224609375</LatitudeDegrees>
              <LongitudeDegrees>2.43413376621901988983154296875</LongitudeDegrees>
            </Position>
            <AltitudeMeters>996.79998779296875</AltitudeMeters>
            <DistanceMeters>NAN</DistanceMeters>
          </Trackpoint>
          <Trackpoint>
            <Time>2021-04-04T08:00:16.000Z</Time>
            <Position>
              <LatitudeDegrees>42.3313415050506591796875</LatitudeDegrees>
              <LongitudeDegrees>2.4341326765716075897216796875</LongitudeDegrees>
            </Position>
            <AltitudeMeters>996.79998779296875</AltitudeMeters>
            <DistanceMeters>NAN</DistanceMeters>
          </Trackpoint>
          <Trackpoint>
            <Time>2021-04-04T08:00:18.000Z</Time>
            <Position>
              <LatitudeDegrees>42.33133471570909023284912109375</LatitudeDegrees>
              <LongitudeDegrees>2.43412856943905353546142578125</LongitudeDegrees>
            </Position>
            <AltitudeMeters>996.79998779296875</AltitudeMeters>
            <DistanceMeters>NAN</DistanceMeters>
          </Trackpoint>
          <Trackpoint>
            <Time>2021-04-04T08:00:20.000Z</Time>
            <Position>
              <LatitudeDegrees>42.33132801018655300140380859375</LatitudeDegrees>
              <LongitudeDegrees>2.43411951698362827301025390625</LongitudeDegrees>
            </Position>
            <AltitudeMeters>997</AltitudeMeters>
            <DistanceMeters>NAN</DistanceMeters>
          </Trackpoint>
          <Trackpoint>
            <Time>2021-04-04T08:00:21.000Z</Time>
            <Position>
              <LatitudeDegrees>42.3313218913972377777099609375</LatitudeDegrees>
              <LongitudeDegrees>2.4341118894517421722412109375</LongitudeDegrees>
            </Position>
            <AltitudeMeters>997.20001220703125</AltitudeMeters>
            <DistanceMeters>NAN</DistanceMeters>
          </Trackpoint>
          <Trackpoint>
            <Time>2021-04-04T08:00:26.000Z</Time>
            <Position>
              <LatitudeDegrees>42.331285513937473297119140625</LatitudeDegrees>
              <LongitudeDegrees>2.4340971373021602630615234375</LongitudeDegrees>
            </Position>
            <AltitudeMeters>997.4000244140625</AltitudeMeters>
            <DistanceMeters>NAN</DistanceMeters>
          </Trackpoint>
          <Trackpoint>
            <Time>2021-04-04T08:00:28.000Z</Time>
            <Position>
              <LatitudeDegrees>42.33128140680491924285888671875</LatitudeDegrees>
              <LongitudeDegrees>2.43409805931150913238525390625</LongitudeDegrees>
            </Position>
            <AltitudeMeters>997.5999755859375</AltitudeMeters>
            <DistanceMeters>NAN</DistanceMeters>
          </Trackpoint>
          <Trackpoint>
            <Time>2021-04-04T08:00:30.000Z</Time>
            <Position>
              <LatitudeDegrees>42.33126497827470302581787109375</LatitudeDegrees>
              <LongitudeDegrees>2.4340951256453990936279296875</LongitudeDegrees>
            </Position>
            <AltitudeMeters>997.79998779296875</AltitudeMeters>
            <DistanceMeters>NAN</DistanceMeters>
          </Trackpoint>
          <Trackpoint>
            <Time>2021-04-04T08:00:31.000Z</Time>
            <Position>
              <LatitudeDegrees>42.33125709928572177886962890625</LatitudeDegrees>
              <LongitudeDegrees>2.43409588001668453216552734375</LongitudeDegrees>
            </Position>
            <AltitudeMeters>997.79998779296875</AltitudeMeters>
            <DistanceMeters>NAN</DistanceMeters>
          </Trackpoint>
          <Trackpoint>
            <Time>2021-04-04T08:00:34.000Z</Time>
            <Position>
              <LatitudeDegrees>42.33123295940458774566650390625</LatitudeDegrees>
              <LongitudeDegrees>2.4340921081602573394775390625</LongitudeDegrees>
            </Position>
            <AltitudeMeters>998</AltitudeMeters>
            <DistanceMeters>NAN</DistanceMeters>
          </Trackpoint>
          <Trackpoint>
            <Time>2021-04-04T08:00:35.000Z</Time>
            <Position>
              <LatitudeDegrees>42.3312243260443210601806640625</LatitudeDegrees>
              <LongitudeDegrees>2.4340911023318767547607421875</LongitudeDegrees>
            </Position>
            <AltitudeMeters>998.20001220703125</AltitudeMeters>
            <DistanceMeters>NAN</DistanceMeters>
          </Trackpoint>
          <Trackpoint>
            <Time>2021-04-04T08:00:36.000Z</Time>
            <Position>
              <LatitudeDegrees>42.33121435157954692840576171875</LatitudeDegrees>
              <LongitudeDegrees>2.434095628559589385986328125</LongitudeDegrees>
            </Position>
            <AltitudeMeters>998.20001220703125</AltitudeMeters>
            <DistanceMeters>NAN</DistanceMeters>
          </Trackpoint>
          <Trackpoint>
            <Time>2021-04-04T08:00:38.000Z</Time>
            <Position>
              <LatitudeDegrees>42.33119457028806209564208984375</LatitudeDegrees>
              <LongitudeDegrees>2.434105686843395233154296875</LongitudeDegrees>
            </Position>
            <AltitudeMeters>998.20001220703125</AltitudeMeters>
            <DistanceMeters>NAN</DistanceMeters>
          </Trackpoint>
          <Trackpoint>
            <Time>2021-04-04T08:00:41.000Z</Time>
            <Position>
              <LatitudeDegrees>42.33116649091243743896484375</LatitudeDegrees>
              <LongitudeDegrees>2.4341112188994884490966796875</LongitudeDegrees>
            </Position>
            <AltitudeMeters>998.20001220703125</AltitudeMeters>
            <DistanceMeters>NAN</DistanceMeters>
          </Trackpoint>
          <Trackpoint>
            <Time>2021-04-04T08:00:47.000Z</Time>
            <Position>
              <LatitudeDegrees>42.331151403486728668212890625</LatitudeDegrees>
              <LongitudeDegrees>2.434088923037052154541015625</LongitudeDegrees>
            </Position>
            <AltitudeMeters>998.5999755859375</AltitudeMeters>
            <DistanceMeters>NAN</DistanceMeters>
          </Trackpoint>
          <Trackpoint>
            <Time>2021-04-04T08:00:48.000Z</Time>
            <Position>
              <LatitudeDegrees>42.331146039068698883056640625</LatitudeDegrees>
              <LongitudeDegrees>2.4340843968093395233154296875</LongitudeDegrees>
            </Position>
            <AltitudeMeters>998.5999755859375</AltitudeMeters>
            <DistanceMeters>NAN</DistanceMeters>
          </Trackpoint>
          <Trackpoint>
            <Time>2021-04-04T08:00:52.000Z</Time>
            <Position>
              <LatitudeDegrees>42.33111259527504444122314453125</LatitudeDegrees>
              <LongitudeDegrees>2.43404156528413295745849609375</LongitudeDegrees>
            </Position>
            <AltitudeMeters>999</AltitudeMeters>
            <DistanceMeters>NAN</DistanceMeters>
          </Trackpoint>
          <Trackpoint>
            <Time>2021-04-04T08:00:53.000Z</Time>
            <Position>
              <LatitudeDegrees>42.3311022855341434478759765625</LatitudeDegrees>
              <LongitudeDegrees>2.43403888307511806488037109375</LongitudeDegrees>
            </Position>
            <AltitudeMeters>999.20001220703125</AltitudeMeters>
            <DistanceMeters>NAN</DistanceMeters>
          </Trackpoint>
          <Trackpoint>
            <Time>2021-04-04T08:00:55.000Z</Time>
            <Position>
              <LatitudeDegrees>42.3310771398246288299560546875</LatitudeDegrees>
              <LongitudeDegrees>2.4340250529348850250244140625</LongitudeDegrees>
            </Position>
            <AltitudeMeters>999.20001220703125</AltitudeMeters>
            <DistanceMeters>NAN</DistanceMeters>
          </Trackpoint>
          <Trackpoint>
            <Time>2021-04-04T08:00:58.000Z</Time>
            <Position>
              <LatitudeDegrees>42.33103447593748569488525390625</LatitudeDegrees>
              <LongitudeDegrees>2.4340109713375568389892578125</LongitudeDegrees>
            </Position>
            <AltitudeMeters>999.20001220703125</AltitudeMeters>
            <DistanceMeters>NAN</DistanceMeters>
          </Trackpoint>
          <Trackpoint>
            <Time>2021-04-04T08:01:03.000Z</Time>
            <Position>
              <LatitudeDegrees>42.3310090787708759307861328125</LatitudeDegrees>
              <LongitudeDegrees>2.4340040981769561767578125</LongitudeDegrees>
            </Position>
            <AltitudeMeters>999.5999755859375</AltitudeMeters>
            <DistanceMeters>NAN</DistanceMeters>
          </Trackpoint>
          <Trackpoint>
            <Time>2021-04-04T08:01:04.000Z</Time>
            <Position>
              <LatitudeDegrees>42.33100497163832187652587890625</LatitudeDegrees>
              <LongitudeDegrees>2.4339942075312137603759765625</LongitudeDegrees>
            </Position>
            <AltitudeMeters>999.79998779296875</AltitudeMeters>
            <DistanceMeters>NAN</DistanceMeters>
          </Trackpoint>
          <Trackpoint>
            <Time>2021-04-04T08:01:06.000Z</Time>
            <Position>
              <LatitudeDegrees>42.33099876902997493743896484375</LatitudeDegrees>
              <LongitudeDegrees>2.43397652171552181243896484375</LongitudeDegrees>
            </Position>
            <AltitudeMeters>1000</AltitudeMeters>
            <DistanceMeters>NAN</DistanceMeters>
          </Trackpoint>
          <Trackpoint>
            <Time>2021-04-04T08:01:07.000Z</Time>
            <Position>
              <LatitudeDegrees>42.33099373988807201385498046875</LatitudeDegrees>
              <LongitudeDegrees>2.433970905840396881103515625</LongitudeDegrees>
            </Position>
            <AltitudeMeters>1000.20001220703125</AltitudeMeters>
            <DistanceMeters>NAN</DistanceMeters>
          </Trackpoint>
          <Trackpoint>
            <Time>2021-04-04T08:01:10.000Z</Time>
            <Position>
              <LatitudeDegrees>42.330985777080059051513671875</LatitudeDegrees>
              <LongitudeDegrees>2.4339558184146881103515625</LongitudeDegrees>
            </Position>
            <AltitudeMeters>1000.79998779296875</AltitudeMeters>
            <DistanceMeters>NAN</DistanceMeters>
          </Trackpoint>
          <Trackpoint>
            <Time>2021-04-04T08:01:11.000Z</Time>
            <Position>
              <LatitudeDegrees>42.33097747899591922760009765625</LatitudeDegrees>
              <LongitudeDegrees>2.4339519627392292022705078125</LongitudeDegrees>
            </Position>
            <AltitudeMeters>1000.79998779296875</AltitudeMeters>
            <DistanceMeters>NAN</DistanceMeters>
          </Trackpoint>
          <Trackpoint>
            <Time>2021-04-04T08:01:13.000Z</Time>
            <Position>
              <LatitudeDegrees>42.330962978303432464599609375</LatitudeDegrees>
              <LongitudeDegrees>2.4339308403432369232177734375</LongitudeDegrees>
            </Position>
            <AltitudeMeters>1001</AltitudeMeters>
            <DistanceMeters>NAN</DistanceMeters>
          </Trackpoint>
          <Trackpoint>
            <Time>2021-04-04T08:01:15.000Z</Time>
            <Position>
              <LatitudeDegrees>42.3309534229338169097900390625</LatitudeDegrees>
              <LongitudeDegrees>2.4339103884994983673095703125</LongitudeDegrees>
            </Position>
            <AltitudeMeters>1001.20001220703125</AltitudeMeters>
            <DistanceMeters>NAN</DistanceMeters>
          </Trackpoint>
          <Trackpoint>
            <Time>2021-04-04T08:01:20.000Z</Time>
            <Position>
              <LatitudeDegrees>42.33092886395752429962158203125</LatitudeDegrees>
              <LongitudeDegrees>2.43387124501168727874755859375</LongitudeDegrees>
            </Position>
            <AltitudeMeters>1002</AltitudeMeters>
            <DistanceMeters>NAN</DistanceMeters>
          </Trackpoint>
          <Trackpoint>
            <Time>2021-04-04T08:01:23.000Z</Time>
            <Position>
              <LatitudeDegrees>42.33092852868139743804931640625</LatitudeDegrees>
              <LongitudeDegrees>2.4338718317449092864990234375</LongitudeDegrees>
            </Position>
            <AltitudeMeters>1002.4000244140625</AltitudeMeters>
            <DistanceMeters>NAN</DistanceMeters>
          </Trackpoint>
          <Trackpoint>
            <Time>2021-04-04T08:01:27.000Z</Time>
            <Position>
              <LatitudeDegrees>42.33092106878757476806640625</LatitudeDegrees>
              <LongitudeDegrees>2.43384995497763156890869140625</LongitudeDegrees>
            </Position>
            <AltitudeMeters>1002.79998779296875</AltitudeMeters>
            <DistanceMeters>NAN</DistanceMeters>
          </Trackpoint>
          <Trackpoint>
            <Time>2021-04-04T08:01:28.000Z</Time>
            <Position>
              <LatitudeDegrees>42.330915033817291259765625</LatitudeDegrees>
              <LongitudeDegrees>2.43384576402604579925537109375</LongitudeDegrees>
            </Position>
            <AltitudeMeters>1003</AltitudeMeters>
            <DistanceMeters>NAN</DistanceMeters>
          </Trackpoint>
          <Trackpoint>
            <Time>2021-04-04T08:01:31.000Z</Time>
            <Position>
              <LatitudeDegrees>42.3309001140296459197998046875</LatitudeDegrees>
              <LongitudeDegrees>2.43380921892821788787841796875</LongitudeDegrees>
            </Position>
            <AltitudeMeters>1003.4000244140625</AltitudeMeters>
            <DistanceMeters>NAN</DistanceMeters>
          </Trackpoint>
          <Trackpoint>
            <Time>2021-04-04T08:01:34.000Z</Time>
            <Position>
              <LatitudeDegrees>42.3309004493057727813720703125</LatitudeDegrees>
              <LongitudeDegrees>2.43377921171486377716064453125</LongitudeDegrees>
            </Position>
            <AltitudeMeters>1004</AltitudeMeters>
            <DistanceMeters>NAN</DistanceMeters>
          </Trackpoint>
          <Trackpoint>
            <Time>2021-04-04T08:01:38.000Z</Time>
            <Position>
              <LatitudeDegrees>42.33088829554617404937744140625</LatitudeDegrees>
              <LongitudeDegrees>2.433759011328220367431640625</LongitudeDegrees>
            </Position>
            <AltitudeMeters>1004.4000244140625</AltitudeMeters>
            <DistanceMeters>NAN</DistanceMeters>
          </Trackpoint>
          <Trackpoint>
            <Time>2021-04-04T08:01:40.000Z</Time>
            <Position>
              <LatitudeDegrees>42.330885864794254302978515625</LatitudeDegrees>
              <LongitudeDegrees>2.43374526500701904296875</LongitudeDegrees>
            </Position>
            <AltitudeMeters>1004.5999755859375</AltitudeMeters>
            <DistanceMeters>NAN</DistanceMeters>
          </Trackpoint>
          <Trackpoint>
            <Time>2021-04-04T08:01:43.000Z</Time>
            <Position>
              <LatitudeDegrees>42.330893576145172119140625</LatitudeDegrees>
              <LongitudeDegrees>2.43372020311653614044189453125</LongitudeDegrees>
            </Position>
            <AltitudeMeters>1005.20001220703125</AltitudeMeters>
            <DistanceMeters>NAN</DistanceMeters>
          </Trackpoint>
          <Trackpoint>
            <Time>2021-04-04T08:01:45.000Z</Time>
            <Position>
              <LatitudeDegrees>42.33088360168039798736572265625</LatitudeDegrees>
              <LongitudeDegrees>2.43370863609015941619873046875</LongitudeDegrees>
            </Position>
            <AltitudeMeters>1005.4000244140625</AltitudeMeters>
            <DistanceMeters>NAN</DistanceMeters>
          </Trackpoint>
          <Trackpoint>
            <Time>2021-04-04T08:01:46.000Z</Time>
            <Position>
              <LatitudeDegrees>42.3308867029845714569091796875</LatitudeDegrees>
              <LongitudeDegrees>2.43369790725409984588623046875</LongitudeDegrees>
            </Position>
            <AltitudeMeters>1005.79998779296875</AltitudeMeters>
            <DistanceMeters>NAN</DistanceMeters>
          </Trackpoint>
          <Trackpoint>
            <Time>2021-04-04T08:01:47.000Z</Time>
            <Position>
              <LatitudeDegrees>42.33089349232614040374755859375</LatitudeDegrees>
              <LongitudeDegrees>2.4336887709796428680419921875</LongitudeDegrees>
            </Position>
            <AltitudeMeters>1006.20001220703125</AltitudeMeters>
            <DistanceMeters>NAN</DistanceMeters>
          </Trackpoint>
          <Trackpoint>
            <Time>2021-04-04T08:01:49.000Z</Time>
            <Position>
              <LatitudeDegrees>42.33090120367705821990966796875</LatitudeDegrees>
              <LongitudeDegrees>2.4336756952106952667236328125</LongitudeDegrees>
            </Position>
            <AltitudeMeters>1006.4000244140625</AltitudeMeters>
            <DistanceMeters>NAN</DistanceMeters>
          </Trackpoint>
          <Trackpoint>
            <Time>2021-04-04T08:01:52.000Z</Time>
            <Position>
              <LatitudeDegrees>42.3308960907161235809326171875</LatitudeDegrees>
              <LongitudeDegrees>2.43366756476461887359619140625</LongitudeDegrees>
            </Position>
            <AltitudeMeters>1007</AltitudeMeters>
            <DistanceMeters>NAN</DistanceMeters>
          </Trackpoint>
          <Trackpoint>
            <Time>2021-04-04T08:01:54.000Z</Time>
            <Position>
              <LatitudeDegrees>42.33088410459458827972412109375</LatitudeDegrees>
              <LongitudeDegrees>2.43364728055894374847412109375</LongitudeDegrees>
            </Position>
            <AltitudeMeters>1007.4000244140625</AltitudeMeters>
            <DistanceMeters>NAN</DistanceMeters>
          </Trackpoint>
          <Trackpoint>
            <Time>2021-04-04T08:01:56.000Z</Time>
            <Position>
              <LatitudeDegrees>42.33087605796754360198974609375</LatitudeDegrees>
              <LongitudeDegrees>2.43362531997263431549072265625</LongitudeDegrees>
            </Position>
            <AltitudeMeters>1008</AltitudeMeters>
            <DistanceMeters>NAN</DistanceMeters>
          </Trackpoint>
          <Trackpoint>
            <Time>2021-04-04T08:01:57.000Z</Time>
            <Position>
              <LatitudeDegrees>42.33087278902530670166015625</LatitudeDegrees>
              <LongitudeDegrees>2.43361274711787700653076171875</LongitudeDegrees>
            </Position>
            <AltitudeMeters>1008.4000244140625</AltitudeMeters>
            <DistanceMeters>NAN</DistanceMeters>
          </Trackpoint>
          <Trackpoint>
            <Time>2021-04-04T08:02:02.000Z</Time>
            <Position>
              <LatitudeDegrees>42.33084328472614288330078125</LatitudeDegrees>
              <LongitudeDegrees>2.43356999941170215606689453125</LongitudeDegrees>
            </Position>
            <AltitudeMeters>1009</AltitudeMeters>
            <DistanceMeters>NAN</DistanceMeters>
          </Trackpoint>
          <Trackpoint>
            <Time>2021-04-04T08:02:03.000Z</Time>
            <Position>
              <LatitudeDegrees>42.33084253035485744476318359375</LatitudeDegrees>
              <LongitudeDegrees>2.43356010876595973968505859375</LongitudeDegrees>
            </Position>
            <AltitudeMeters>1009.20001220703125</AltitudeMeters>
            <DistanceMeters>NAN</DistanceMeters>
          </Trackpoint>
          <Trackpoint>
            <Time>2021-04-04T08:02:05.000Z</Time>
            <Position>
              <LatitudeDegrees>42.3308444581925868988037109375</LatitudeDegrees>
              <LongitudeDegrees>2.4335462786257266998291015625</LongitudeDegrees>
            </Position>
            <AltitudeMeters>1009.4000244140625</AltitudeMeters>
            <DistanceMeters>NAN</DistanceMeters>
          </Trackpoint>
          <Trackpoint>
            <Time>2021-04-04T08:02:10.000Z</Time>
            <Position>
              <LatitudeDegrees>42.3308394290506839752197265625</LatitudeDegrees>
              <LongitudeDegrees>2.433525659143924713134765625</LongitudeDegrees>
            </Position>
            <AltitudeMeters>1010.20001220703125</AltitudeMeters>
            <DistanceMeters>NAN</DistanceMeters>
          </Trackpoint>
          <Trackpoint>
            <Time>2021-04-04T08:02:11.000Z</Time>
            <Position>
              <LatitudeDegrees>42.3308333940804004669189453125</LatitudeDegrees>
              <LongitudeDegrees>2.43352071382105350494384765625</LongitudeDegrees>
            </Position>
            <AltitudeMeters>1010.4000244140625</AltitudeMeters>
            <DistanceMeters>NAN</DistanceMeters>
          </Trackpoint>
          <Trackpoint>
            <Time>2021-04-04T08:02:12.000Z</Time>
            <Position>
              <LatitudeDegrees>42.3308317176997661590576171875</LatitudeDegrees>
              <LongitudeDegrees>2.4335140921175479888916015625</LongitudeDegrees>
            </Position>
            <AltitudeMeters>1010.4000244140625</AltitudeMeters>
            <DistanceMeters>NAN</DistanceMeters>
          </Trackpoint>
          <Trackpoint>
            <Time>2021-04-04T08:02:13.000Z</Time>
            <Position>
              <LatitudeDegrees>42.33082878403365612030029296875</LatitudeDegrees>
              <LongitudeDegrees>2.43350612930953502655029296875</LongitudeDegrees>
            </Position>
            <AltitudeMeters>1010.5999755859375</AltitudeMeters>
            <DistanceMeters>NAN</DistanceMeters>
          </Trackpoint>
          <Trackpoint>
            <Time>2021-04-04T08:02:16.000Z</Time>
            <Position>
              <LatitudeDegrees>42.330815792083740234375</LatitudeDegrees>
              <LongitudeDegrees>2.4334953166544437408447265625</LongitudeDegrees>
            </Position>
            <AltitudeMeters>1010.79998779296875</AltitudeMeters>
            <DistanceMeters>NAN</DistanceMeters>
          </Trackpoint>
          <Trackpoint>
            <Time>2021-04-04T08:02:18.000Z</Time>
            <Position>
              <LatitudeDegrees>42.330813445150852203369140625</LatitudeDegrees>
              <LongitudeDegrees>2.43349322117865085601806640625</LongitudeDegrees>
            </Position>
            <AltitudeMeters>1010.79998779296875</AltitudeMeters>
            <DistanceMeters>NAN</DistanceMeters>
          </Trackpoint>
          <Trackpoint>
            <Time>2021-04-04T08:02:22.000Z</Time>
            <Position>
              <LatitudeDegrees>42.33080363832414150238037109375</LatitudeDegrees>
              <LongitudeDegrees>2.4334691651165485382080078125</LongitudeDegrees>
            </Position>
            <AltitudeMeters>1010.79998779296875</AltitudeMeters>
            <DistanceMeters>NAN</DistanceMeters>
          </Trackpoint>
          <Trackpoint>
            <Time>2021-04-04T08:02:25.000Z</Time>
            <Position>
              <LatitudeDegrees>42.33080062083899974822998046875</LatitudeDegrees>
              <LongitudeDegrees>2.43346136994659900665283203125</LongitudeDegrees>
            </Position>
            <AltitudeMeters>1010.79998779296875</AltitudeMeters>
            <DistanceMeters>NAN</DistanceMeters>
          </Trackpoint>
          <Trackpoint>
            <Time>2021-04-04T08:02:34.000Z</Time>
            <Position>
              <LatitudeDegrees>42.3307945020496845245361328125</LatitudeDegrees>
              <LongitudeDegrees>2.43345131166279315948486328125</LongitudeDegrees>
            </Position>
            <AltitudeMeters>1010.79998779296875</AltitudeMeters>
            <DistanceMeters>NAN</DistanceMeters>
          </Trackpoint>
          <Trackpoint>
            <Time>2021-04-04T08:02:41.000Z</Time>
            <Position>
              <LatitudeDegrees>42.33079844154417514801025390625</LatitudeDegrees>
              <LongitudeDegrees>2.43345131166279315948486328125</LongitudeDegrees>
            </Position>
            <AltitudeMeters>1011.20001220703125</AltitudeMeters>
            <DistanceMeters>NAN</DistanceMeters>
          </Trackpoint>
          <Trackpoint>
            <Time>2021-04-04T08:02:44.000Z</Time>
            <Position>
              <LatitudeDegrees>42.3308008722960948944091796875</LatitudeDegrees>
              <LongitudeDegrees>2.433451227843761444091796875</LongitudeDegrees>
            </Position>
            <AltitudeMeters>1011.4000244140625</AltitudeMeters>
            <DistanceMeters>NAN</DistanceMeters>
          </Trackpoint>
          <Trackpoint>
            <Time>2021-04-04T08:02:46.000Z</Time>
            <Position>
              <LatitudeDegrees>42.3308008722960948944091796875</LatitudeDegrees>
              <LongitudeDegrees>2.4334480427205562591552734375</LongitudeDegrees>
            </Position>
            <AltitudeMeters>1011.5999755859375</AltitudeMeters>
            <DistanceMeters>NAN</DistanceMeters>
          </Trackpoint>
          <Trackpoint>
            <Time>2021-04-04T08:02:52.000Z</Time>
            <Position>
              <LatitudeDegrees>42.330800034105777740478515625</LatitudeDegrees>
              <LongitudeDegrees>2.43343018926680088043212890625</LongitudeDegrees>
            </Position>
            <AltitudeMeters>1012.5999755859375</AltitudeMeters>
            <DistanceMeters>NAN</DistanceMeters>
          </Trackpoint>
          <Trackpoint>
            <Time>2021-04-04T08:02:58.000Z</Time>
            <Position>
              <LatitudeDegrees>42.33079827390611171722412109375</LatitudeDegrees>
              <LongitudeDegrees>2.43338475935161113739013671875</LongitudeDegrees>
            </Position>
            <AltitudeMeters>1013.79998779296875</AltitudeMeters>
            <DistanceMeters>NAN</DistanceMeters>
          </Trackpoint>
          <Trackpoint>
            <Time>2021-04-04T08:03:04.000Z</Time>
            <Position>
              <LatitudeDegrees>42.33079860918223857879638671875</LatitudeDegrees>
              <LongitudeDegrees>2.43332826532423496246337890625</LongitudeDegrees>
            </Position>
            <AltitudeMeters>1014.79998779296875</AltitudeMeters>
            <DistanceMeters>NAN</DistanceMeters>
          </Trackpoint>
          <Trackpoint>
            <Time>2021-04-04T08:03:07.000Z</Time>
            <Position>
              <LatitudeDegrees>42.33079827390611171722412109375</LatitudeDegrees>
              <LongitudeDegrees>2.4333107471466064453125</LongitudeDegrees>
            </Position>
            <AltitudeMeters>1015.4000244140625</AltitudeMeters>
            <DistanceMeters>NAN</DistanceMeters>
          </Trackpoint>
          <Trackpoint>
            <Time>2021-04-04T08:03:10.000Z</Time>
            <Position>
              <LatitudeDegrees>42.33079827390611171722412109375</LatitudeDegrees>
              <LongitudeDegrees>2.43328719399869441986083984375</LongitudeDegrees>
            </Position>
            <AltitudeMeters>1015.79998779296875</AltitudeMeters>
            <DistanceMeters>NAN</DistanceMeters>
          </Trackpoint>
          <Trackpoint>
            <Time>2021-04-04T08:03:11.000Z</Time>
            <Position>
              <LatitudeDegrees>42.3307971842586994171142578125</LatitudeDegrees>
              <LongitudeDegrees>2.433279566466808319091796875</LongitudeDegrees>
            </Position>
            <AltitudeMeters>1016</AltitudeMeters>
            <DistanceMeters>NAN</DistanceMeters>
          </Trackpoint>
          <Trackpoint>
            <Time>2021-04-04T08:03:17.000Z</Time>
            <Position>
              <LatitudeDegrees>42.33079223893582820892333984375</LatitudeDegrees>
              <LongitudeDegrees>2.43323891423642635345458984375</LongitudeDegrees>
            </Position>
            <AltitudeMeters>1016.5999755859375</AltitudeMeters>
            <DistanceMeters>NAN</DistanceMeters>
          </Trackpoint>
          <Trackpoint>
            <Time>2021-04-04T08:03:22.000Z</Time>
            <Position>
              <LatitudeDegrees>42.3307921551167964935302734375</LatitudeDegrees>
              <LongitudeDegrees>2.433212511241436004638671875</LongitudeDegrees>
            </Position>
            <AltitudeMeters>1017</AltitudeMeters>
            <DistanceMeters>NAN</DistanceMeters>
          </Trackpoint>
          <Trackpoint>
            <Time>2021-04-04T08:03:30.000Z</Time>
            <Position>
              <LatitudeDegrees>42.3307769000530242919921875</LatitudeDegrees>
              <LongitudeDegrees>2.43315610103309154510498046875</LongitudeDegrees>
            </Position>
            <AltitudeMeters>1018.20001220703125</AltitudeMeters>
            <DistanceMeters>NAN</DistanceMeters>
          </Trackpoint>
          <Trackpoint>
            <Time>2021-04-04T08:03:37.000Z</Time>
            <Position>
              <LatitudeDegrees>42.33075234107673168182373046875</LatitudeDegrees>
              <LongitudeDegrees>2.43310832418501377105712890625</LongitudeDegrees>
            </Position>
            <AltitudeMeters>1019.20001220703125</AltitudeMeters>
            <DistanceMeters>NAN</DistanceMeters>
          </Trackpoint>
          <Trackpoint>
            <Time>2021-04-04T08:03:45.000Z</Time>
            <Position>
              <LatitudeDegrees>42.33074806630611419677734375</LatitudeDegrees>
              <LongitudeDegrees>2.43305635638535022735595703125</LongitudeDegrees>
            </Position>
            <AltitudeMeters>1020.4000244140625</AltitudeMeters>
            <DistanceMeters>NAN</DistanceMeters>
          </Trackpoint>
          <Trackpoint>
            <Time>2021-04-04T08:03:48.000Z</Time>
            <Position>
              <LatitudeDegrees>42.3307473957538604736328125</LatitudeDegrees>
              <LongitudeDegrees>2.4330339767038822174072265625</LongitudeDegrees>
            </Position>
            <AltitudeMeters>1020.79998779296875</AltitudeMeters>
            <DistanceMeters>NAN</DistanceMeters>
          </Trackpoint>
          <Trackpoint>
            <Time>2021-04-04T08:03:54.000Z</Time>
            <Position>
              <LatitudeDegrees>42.33074295334517955780029296875</LatitudeDegrees>
              <LongitudeDegrees>2.4330041371285915374755859375</LongitudeDegrees>
            </Position>
            <AltitudeMeters>1021.5999755859375</AltitudeMeters>
            <DistanceMeters>NAN</DistanceMeters>
          </Trackpoint>
          <Trackpoint>
            <Time>2021-04-04T08:04:02.000Z</Time>
            <Position>
              <LatitudeDegrees>42.3307351581752300262451171875</LatitudeDegrees>
              <LongitudeDegrees>2.4329846911132335662841796875</LongitudeDegrees>
            </Position>
            <AltitudeMeters>1022.5999755859375</AltitudeMeters>
            <DistanceMeters>NAN</DistanceMeters>
          </Trackpoint>
          <Trackpoint>
            <Time>2021-04-04T08:04:04.000Z</Time>
            <Position>
              <LatitudeDegrees>42.33072903938591480255126953125</LatitudeDegrees>
              <LongitudeDegrees>2.4329813383519649505615234375</LongitudeDegrees>
            </Position>
            <AltitudeMeters>1022.5999755859375</AltitudeMeters>
            <DistanceMeters>NAN</DistanceMeters>
          </Trackpoint>
          <Trackpoint>
            <Time>2021-04-04T08:04:12.000Z</Time>
            <Position>
              <LatitudeDegrees>42.330705486238002777099609375</LatitudeDegrees>
              <LongitudeDegrees>2.43294236250221729278564453125</LongitudeDegrees>
            </Position>
            <AltitudeMeters>1023.4000244140625</AltitudeMeters>
            <DistanceMeters>NAN</DistanceMeters>
          </Trackpoint>
          <Trackpoint>
            <Time>2021-04-04T08:04:15.000Z</Time>
            <Position>
              <LatitudeDegrees>42.33070171438157558441162109375</LatitudeDegrees>
              <LongitudeDegrees>2.43292660452425479888916015625</LongitudeDegrees>
            </Position>
            <AltitudeMeters>1023.5999755859375</AltitudeMeters>
            <DistanceMeters>NAN</DistanceMeters>
          </Trackpoint>
          <Trackpoint>
            <Time>2021-04-04T08:04:23.000Z</Time>
            <Position>
              <LatitudeDegrees>42.33068905770778656005859375</LatitudeDegrees>
              <LongitudeDegrees>2.432841695845127105712890625</LongitudeDegrees>
            </Position>
            <AltitudeMeters>1024</AltitudeMeters>
            <DistanceMeters>NAN</DistanceMeters>
          </Trackpoint>
          <Trackpoint>
            <Time>2021-04-04T08:04:27.000Z</Time>
            <Position>
              <LatitudeDegrees>42.3306704498827457427978515625</LatitudeDegrees>
              <LongitudeDegrees>2.43278578855097293853759765625</LongitudeDegrees>
            </Position>
            <AltitudeMeters>1024.4000244140625</AltitudeMeters>
            <DistanceMeters>NAN</DistanceMeters>
          </Trackpoint>
          <Trackpoint>
            <Time>2021-04-04T08:04:28.000Z</Time>
            <Position>
              <LatitudeDegrees>42.33066491782665252685546875</LatitudeDegrees>
              <LongitudeDegrees>2.43277095258235931396484375</LongitudeDegrees>
            </Position>
            <AltitudeMeters>1024.5999755859375</AltitudeMeters>
            <DistanceMeters>NAN</DistanceMeters>
          </Trackpoint>
          <Trackpoint>
            <Time>2021-04-04T08:04:33.000Z</Time>
            <Position>
              <LatitudeDegrees>42.33063197694718837738037109375</LatitudeDegrees>
              <LongitudeDegrees>2.4327204935252666473388671875</LongitudeDegrees>
            </Position>
            <AltitudeMeters>1025.4000244140625</AltitudeMeters>
            <DistanceMeters>NAN</DistanceMeters>
          </Trackpoint>
          <Trackpoint>
            <Time>2021-04-04T08:04:35.000Z</Time>
            <Position>
              <LatitudeDegrees>42.3306265287101268768310546875</LatitudeDegrees>
              <LongitudeDegrees>2.43271051906049251556396484375</LongitudeDegrees>
            </Position>
            <AltitudeMeters>1025.800048828125</AltitudeMeters>
            <DistanceMeters>NAN</DistanceMeters>
          </Trackpoint>
          <Trackpoint>
            <Time>2021-04-04T08:04:39.000Z</Time>
            <Position>
              <LatitudeDegrees>42.33060993254184722900390625</LatitudeDegrees>
              <LongitudeDegrees>2.43267984129488468170166015625</LongitudeDegrees>
            </Position>
            <AltitudeMeters>1026.4000244140625</AltitudeMeters>
            <DistanceMeters>NAN</DistanceMeters>
          </Trackpoint>
          <Trackpoint>
            <Time>2021-04-04T08:04:40.000Z</Time>
            <Position>
              <LatitudeDegrees>42.33061663806438446044921875</LatitudeDegrees>
              <LongitudeDegrees>2.432665340602397918701171875</LongitudeDegrees>
            </Position>
            <AltitudeMeters>1026.800048828125</AltitudeMeters>
            <DistanceMeters>NAN</DistanceMeters>
          </Trackpoint>
          <Trackpoint>
            <Time>2021-04-04T08:04:45.000Z</Time>
            <Position>
              <LatitudeDegrees>42.3306111060082912445068359375</LatitudeDegrees>
              <LongitudeDegrees>2.4326128698885440826416015625</LongitudeDegrees>
            </Position>
            <AltitudeMeters>1027.5999755859375</AltitudeMeters>
            <DistanceMeters>NAN</DistanceMeters>
          </Trackpoint>
          <Trackpoint>
            <Time>2021-04-04T08:04:47.000Z</Time>
            <Position>
              <LatitudeDegrees>42.33060247264802455902099609375</LatitudeDegrees>
              <LongitudeDegrees>2.4325971119105815887451171875</LongitudeDegrees>
            </Position>
            <AltitudeMeters>1027.800048828125</AltitudeMeters>
            <DistanceMeters>NAN</DistanceMeters>
          </Trackpoint>
          <Trackpoint>
            <Time>2021-04-04T08:04:51.000Z</Time>
            <Position>
              <LatitudeDegrees>42.3305971920490264892578125</LatitudeDegrees>
              <LongitudeDegrees>2.432552017271518707275390625</LongitudeDegrees>
            </Position>
            <AltitudeMeters>1028.4000244140625</AltitudeMeters>
            <DistanceMeters>NAN</DistanceMeters>
          </Trackpoint>
          <Trackpoint>
            <Time>2021-04-04T08:04:54.000Z</Time>
            <Position>
              <LatitudeDegrees>42.330592162907123565673828125</LatitudeDegrees>
              <LongitudeDegrees>2.43251656182110309600830078125</LongitudeDegrees>
            </Position>
            <AltitudeMeters>1028.800048828125</AltitudeMeters>
            <DistanceMeters>NAN</DistanceMeters>
          </Trackpoint>
          <Trackpoint>
            <Time>2021-04-04T08:04:55.000Z</Time>
            <Position>
              <LatitudeDegrees>42.3305899836122989654541015625</LatitudeDegrees>
              <LongitudeDegrees>2.43250499479472637176513671875</LongitudeDegrees>
            </Position>
            <AltitudeMeters>1028.800048828125</AltitudeMeters>
            <DistanceMeters>NAN</DistanceMeters>
          </Trackpoint>
          <Trackpoint>
            <Time>2021-04-04T08:04:59.000Z</Time>
            <Position>
              <LatitudeDegrees>42.33060280792415142059326171875</LatitudeDegrees>
              <LongitudeDegrees>2.4324573017656803131103515625</LongitudeDegrees>
            </Position>
            <AltitudeMeters>1029.4000244140625</AltitudeMeters>
            <DistanceMeters>NAN</DistanceMeters>
          </Trackpoint>
          <Trackpoint>
            <Time>2021-04-04T08:05:00.000Z</Time>
            <Position>
              <LatitudeDegrees>42.3306017182767391204833984375</LatitudeDegrees>
              <LongitudeDegrees>2.43245118297636508941650390625</LongitudeDegrees>
            </Position>
            <AltitudeMeters>1029.4000244140625</AltitudeMeters>
            <DistanceMeters>NAN</DistanceMeters>
          </Trackpoint>
          <Trackpoint>
            <Time>2021-04-04T08:05:02.000Z</Time>
            <Position>
              <LatitudeDegrees>42.33060599304735660552978515625</LatitudeDegrees>
              <LongitudeDegrees>2.43244145996868610382080078125</LongitudeDegrees>
            </Position>
            <AltitudeMeters>1029.4000244140625</AltitudeMeters>
            <DistanceMeters>NAN</DistanceMeters>
          </Trackpoint>
          <Trackpoint>
            <Time>2021-04-04T08:05:06.000Z</Time>
            <Position>
              <LatitudeDegrees>42.3305805958807468414306640625</LatitudeDegrees>
              <LongitudeDegrees>2.4324376881122589111328125</LongitudeDegrees>
            </Position>
            <AltitudeMeters>1029.199951171875</AltitudeMeters>
            <DistanceMeters>NAN</DistanceMeters>
          </Trackpoint>
          <Trackpoint>
            <Time>2021-04-04T08:05:09.000Z</Time>
            <Position>
              <LatitudeDegrees>42.33055670745670795440673828125</LatitudeDegrees>
              <LongitudeDegrees>2.43244581855833530426025390625</LongitudeDegrees>
            </Position>
            <AltitudeMeters>1029.199951171875</AltitudeMeters>
            <DistanceMeters>NAN</DistanceMeters>
          </Trackpoint>
          <Trackpoint>
            <Time>2021-04-04T08:05:12.000Z</Time>
            <Position>
              <LatitudeDegrees>42.3305514268577098846435546875</LatitudeDegrees>
              <LongitudeDegrees>2.43243592791259288787841796875</LongitudeDegrees>
            </Position>
            <AltitudeMeters>1029.5999755859375</AltitudeMeters>
            <DistanceMeters>NAN</DistanceMeters>
          </Trackpoint>
          <Trackpoint>
            <Time>2021-04-04T08:05:13.000Z</Time>
            <Position>
              <LatitudeDegrees>42.33054916374385356903076171875</LatitudeDegrees>
              <LongitudeDegrees>2.4324348382651805877685546875</LongitudeDegrees>
            </Position>
            <AltitudeMeters>1029.5999755859375</AltitudeMeters>
            <DistanceMeters>NAN</DistanceMeters>
          </Trackpoint>
          <Trackpoint>
            <Time>2021-04-04T08:05:14.000Z</Time>
            <Position>
              <LatitudeDegrees>42.33054094947874546051025390625</LatitudeDegrees>
              <LongitudeDegrees>2.43243995122611522674560546875</LongitudeDegrees>
            </Position>
            <AltitudeMeters>1029.800048828125</AltitudeMeters>
            <DistanceMeters>NAN</DistanceMeters>
          </Trackpoint>
          <Trackpoint>
            <Time>2021-04-04T08:05:15.000Z</Time>
            <Position>
              <LatitudeDegrees>42.33052887953817844390869140625</LatitudeDegrees>
              <LongitudeDegrees>2.4324412085115909576416015625</LongitudeDegrees>
            </Position>
            <AltitudeMeters>1029.800048828125</AltitudeMeters>
            <DistanceMeters>NAN</DistanceMeters>
          </Trackpoint>
          <Trackpoint>
            <Time>2021-04-04T08:05:16.000Z</Time>
            <Position>
              <LatitudeDegrees>42.3305249400436878204345703125</LatitudeDegrees>
              <LongitudeDegrees>2.432444393634796142578125</LongitudeDegrees>
            </Position>
            <AltitudeMeters>1030</AltitudeMeters>
            <DistanceMeters>NAN</DistanceMeters>
          </Trackpoint>
          <Trackpoint>
            <Time>2021-04-04T08:05:17.000Z</Time>
            <Position>
              <LatitudeDegrees>42.33052686788141727447509765625</LatitudeDegrees>
              <LongitudeDegrees>2.43244699202477931976318359375</LongitudeDegrees>
            </Position>
            <AltitudeMeters>1030</AltitudeMeters>
            <DistanceMeters>NAN</DistanceMeters>
          </Trackpoint>
          <Trackpoint>
            <Time>2021-04-04T08:05:19.000Z</Time>
            <Position>
              <LatitudeDegrees>42.33051831834018230438232421875</LatitudeDegrees>
              <LongitudeDegrees>2.43245051242411136627197265625</LongitudeDegrees>
            </Position>
            <AltitudeMeters>1030.4000244140625</AltitudeMeters>
            <DistanceMeters>NAN</DistanceMeters>
          </Trackpoint>
          <Trackpoint>
            <Time>2021-04-04T08:05:22.000Z</Time>
            <Position>
              <LatitudeDegrees>42.33052032999694347381591796875</LatitudeDegrees>
              <LongitudeDegrees>2.4324415437877178192138671875</LongitudeDegrees>
            </Position>
            <AltitudeMeters>1031</AltitudeMeters>
            <DistanceMeters>NAN</DistanceMeters>
          </Trackpoint>
          <Trackpoint>
            <Time>2021-04-04T08:05:23.000Z</Time>
            <Position>
              <LatitudeDegrees>42.3305167257785797119140625</LatitudeDegrees>
              <LongitudeDegrees>2.43243458680808544158935546875</LongitudeDegrees>
            </Position>
            <AltitudeMeters>1031</AltitudeMeters>
            <DistanceMeters>NAN</DistanceMeters>
          </Trackpoint>
          <Trackpoint>
            <Time>2021-04-04T08:05:27.000Z</Time>
            <Position>
              <LatitudeDegrees>42.3305098526179790496826171875</LatitudeDegrees>
              <LongitudeDegrees>2.43240608833730220794677734375</LongitudeDegrees>
            </Position>
            <AltitudeMeters>1032</AltitudeMeters>
            <DistanceMeters>NAN</DistanceMeters>
          </Trackpoint>
          <Trackpoint>
            <Time>2021-04-04T08:05:28.000Z</Time>
            <Position>
              <LatitudeDegrees>42.33050800859928131103515625</LatitudeDegrees>
              <LongitudeDegrees>2.43239971809089183807373046875</LongitudeDegrees>
            </Position>
            <AltitudeMeters>1032.199951171875</AltitudeMeters>
            <DistanceMeters>NAN</DistanceMeters>
          </Trackpoint>
          <Trackpoint>
            <Time>2021-04-04T08:05:33.000Z</Time>
            <Position>
              <LatitudeDegrees>42.33051328919827938079833984375</LatitudeDegrees>
              <LongitudeDegrees>2.432379014790058135986328125</LongitudeDegrees>
            </Position>
            <AltitudeMeters>1033</AltitudeMeters>
            <DistanceMeters>NAN</DistanceMeters>
          </Trackpoint>
          <Trackpoint>
            <Time>2021-04-04T08:05:35.000Z</Time>
            <Position>
              <LatitudeDegrees>42.33050608076155185699462890625</LatitudeDegrees>
              <LongitudeDegrees>2.432370297610759735107421875</LongitudeDegrees>
            </Position>
            <AltitudeMeters>1033.199951171875</AltitudeMeters>
            <DistanceMeters>NAN</DistanceMeters>
          </Trackpoint>
          <Trackpoint>
            <Time>2021-04-04T08:05:38.000Z</Time>
            <Position>
              <LatitudeDegrees>42.33050390146672725677490234375</LatitudeDegrees>
              <LongitudeDegrees>2.43235143832862377166748046875</LongitudeDegrees>
            </Position>
            <AltitudeMeters>1033.800048828125</AltitudeMeters>
            <DistanceMeters>NAN</DistanceMeters>
          </Trackpoint>
          <Trackpoint>
            <Time>2021-04-04T08:05:40.000Z</Time>
            <Position>
              <LatitudeDegrees>42.33050188980996608734130859375</LatitudeDegrees>
              <LongitudeDegrees>2.43233643472194671630859375</LongitudeDegrees>
            </Position>
            <AltitudeMeters>1034.199951171875</AltitudeMeters>
            <DistanceMeters>NAN</DistanceMeters>
          </Trackpoint>
          <Trackpoint>
            <Time>2021-04-04T08:05:44.000Z</Time>
            <Position>
              <LatitudeDegrees>42.33050976879894733428955078125</LatitudeDegrees>
              <LongitudeDegrees>2.43232059292495250701904296875</LongitudeDegrees>
            </Position>
            <AltitudeMeters>1034.5999755859375</AltitudeMeters>
            <DistanceMeters>NAN</DistanceMeters>
          </Trackpoint>
          <Trackpoint>
            <Time>2021-04-04T08:05:46.000Z</Time>
            <Position>
              <LatitudeDegrees>42.33050490729510784149169921875</LatitudeDegrees>
              <LongitudeDegrees>2.43232042528688907623291015625</LongitudeDegrees>
            </Position>
            <AltitudeMeters>1035.199951171875</AltitudeMeters>
            <DistanceMeters>NAN</DistanceMeters>
          </Trackpoint>
          <Trackpoint>
            <Time>2021-04-04T08:05:49.000Z</Time>
            <Position>
              <LatitudeDegrees>42.33049836941063404083251953125</LatitudeDegrees>
              <LongitudeDegrees>2.432320676743984222412109375</LongitudeDegrees>
            </Position>
            <AltitudeMeters>1035.4000244140625</AltitudeMeters>
            <DistanceMeters>NAN</DistanceMeters>
          </Trackpoint>
          <Trackpoint>
            <Time>2021-04-04T08:05:51.000Z</Time>
            <Position>
              <LatitudeDegrees>42.33049384318292140960693359375</LatitudeDegrees>
              <LongitudeDegrees>2.432332746684551239013671875</LongitudeDegrees>
            </Position>
            <AltitudeMeters>1035.5999755859375</AltitudeMeters>
            <DistanceMeters>NAN</DistanceMeters>
          </Trackpoint>
          <Trackpoint>
            <Time>2021-04-04T08:05:53.000Z</Time>
            <Position>
              <LatitudeDegrees>42.33048948459327220916748046875</LatitudeDegrees>
              <LongitudeDegrees>2.4323451519012451171875</LongitudeDegrees>
            </Position>
            <AltitudeMeters>1035.800048828125</AltitudeMeters>
            <DistanceMeters>NAN</DistanceMeters>
          </Trackpoint>
          <Trackpoint>
            <Time>2021-04-04T08:05:55.000Z</Time>
            <Position>
              <LatitudeDegrees>42.330484203994274139404296875</LatitudeDegrees>
              <LongitudeDegrees>2.432353198528289794921875</LongitudeDegrees>
            </Position>
            <AltitudeMeters>1036.199951171875</AltitudeMeters>
            <DistanceMeters>NAN</DistanceMeters>
          </Trackpoint>
          <Trackpoint>
            <Time>2021-04-04T08:05:56.000Z</Time>
            <Position>
              <LatitudeDegrees>42.33048143796622753143310546875</LatitudeDegrees>
              <LongitudeDegrees>2.4323510192334651947021484375</LongitudeDegrees>
            </Position>
            <AltitudeMeters>1036.4000244140625</AltitudeMeters>
            <DistanceMeters>NAN</DistanceMeters>
          </Trackpoint>
          <Trackpoint>
            <Time>2021-04-04T08:05:58.000Z</Time>
            <Position>
              <LatitudeDegrees>42.33047573827207088470458984375</LatitudeDegrees>
              <LongitudeDegrees>2.43234850466251373291015625</LongitudeDegrees>
            </Position>
            <AltitudeMeters>1036.4000244140625</AltitudeMeters>
            <DistanceMeters>NAN</DistanceMeters>
          </Trackpoint>
          <Trackpoint>
            <Time>2021-04-04T08:05:59.000Z</Time>
            <Position>
              <LatitudeDegrees>42.330472804605960845947265625</LatitudeDegrees>
              <LongitudeDegrees>2.43235026486217975616455078125</LongitudeDegrees>
            </Position>
            <AltitudeMeters>1036.4000244140625</AltitudeMeters>
            <DistanceMeters>NAN</DistanceMeters>
          </Trackpoint>
          <Trackpoint>
            <Time>2021-04-04T08:06:03.000Z</Time>
            <Position>
              <LatitudeDegrees>42.330454029142856597900390625</LatitudeDegrees>
              <LongitudeDegrees>2.4323411285877227783203125</LongitudeDegrees>
            </Position>
            <AltitudeMeters>1036.5999755859375</AltitudeMeters>
            <DistanceMeters>NAN</DistanceMeters>
          </Trackpoint>
          <Trackpoint>
            <Time>2021-04-04T08:06:06.000Z</Time>
            <Position>
              <LatitudeDegrees>42.3304495029151439666748046875</LatitudeDegrees>
              <LongitudeDegrees>2.43230064399540424346923828125</LongitudeDegrees>
            </Position>
            <AltitudeMeters>1037.199951171875</AltitudeMeters>
            <DistanceMeters>NAN</DistanceMeters>
          </Trackpoint>
          <Trackpoint>
            <Time>2021-04-04T08:06:07.000Z</Time>
            <Position>
              <LatitudeDegrees>42.330446653068065643310546875</LatitudeDegrees>
              <LongitudeDegrees>2.4322859756648540496826171875</LongitudeDegrees>
            </Position>
            <AltitudeMeters>1037.4000244140625</AltitudeMeters>
            <DistanceMeters>NAN</DistanceMeters>
          </Trackpoint>
          <Trackpoint>
            <Time>2021-04-04T08:06:13.000Z</Time>
            <Position>
              <LatitudeDegrees>42.3304478265345096588134765625</LatitudeDegrees>
              <LongitudeDegrees>2.432252280414104461669921875</LongitudeDegrees>
            </Position>
            <AltitudeMeters>1038.4000244140625</AltitudeMeters>
            <DistanceMeters>NAN</DistanceMeters>
          </Trackpoint>
          <Trackpoint>
            <Time>2021-04-04T08:06:15.000Z</Time>
            <Position>
              <LatitudeDegrees>42.33043500222265720367431640625</LatitudeDegrees>
              <LongitudeDegrees>2.43225320242345333099365234375</LongitudeDegrees>
            </Position>
            <AltitudeMeters>1038.4000244140625</AltitudeMeters>
            <DistanceMeters>NAN</DistanceMeters>
          </Trackpoint>
          <Trackpoint>
            <Time>2021-04-04T08:06:21.000Z</Time>
            <Position>
              <LatitudeDegrees>42.33041304163634777069091796875</LatitudeDegrees>
              <LongitudeDegrees>2.432277761399745941162109375</LongitudeDegrees>
            </Position>
            <AltitudeMeters>1039.199951171875</AltitudeMeters>
            <DistanceMeters>NAN</DistanceMeters>
          </Trackpoint>
          <Trackpoint>
            <Time>2021-04-04T08:06:22.000Z</Time>
            <Position>
              <LatitudeDegrees>42.33041538856923580169677734375</LatitudeDegrees>
              <LongitudeDegrees>2.432283796370029449462890625</LongitudeDegrees>
            </Position>
            <AltitudeMeters>1039.4000244140625</AltitudeMeters>
            <DistanceMeters>NAN</DistanceMeters>
          </Trackpoint>
          <Trackpoint>
            <Time>2021-04-04T08:06:29.000Z</Time>
            <Position>
              <LatitudeDegrees>42.3303965292870998382568359375</LatitudeDegrees>
              <LongitudeDegrees>2.4322940222918987274169921875</LongitudeDegrees>
            </Position>
            <AltitudeMeters>1040.4000244140625</AltitudeMeters>
            <DistanceMeters>NAN</DistanceMeters>
          </Trackpoint>
          <Trackpoint>
            <Time>2021-04-04T08:06:30.000Z</Time>
            <Position>
              <LatitudeDegrees>42.33038999140262603759765625</LatitudeDegrees>
              <LongitudeDegrees>2.43229242973029613494873046875</LongitudeDegrees>
            </Position>
            <AltitudeMeters>1040.800048828125</AltitudeMeters>
            <DistanceMeters>NAN</DistanceMeters>
          </Trackpoint>
          <Trackpoint>
            <Time>2021-04-04T08:06:32.000Z</Time>
            <Position>
              <LatitudeDegrees>42.330380938947200775146484375</LatitudeDegrees>
              <LongitudeDegrees>2.4322973750531673431396484375</LongitudeDegrees>
            </Position>
            <AltitudeMeters>1041</AltitudeMeters>
            <DistanceMeters>NAN</DistanceMeters>
          </Trackpoint>
          <Trackpoint>
            <Time>2021-04-04T08:06:35.000Z</Time>
            <Position>
              <LatitudeDegrees>42.3303653486073017120361328125</LatitudeDegrees>
              <LongitudeDegrees>2.4323027394711971282958984375</LongitudeDegrees>
            </Position>
            <AltitudeMeters>1041.5999755859375</AltitudeMeters>
            <DistanceMeters>NAN</DistanceMeters>
          </Trackpoint>
          <Trackpoint>
            <Time>2021-04-04T08:06:36.000Z</Time>
            <Position>
              <LatitudeDegrees>42.33036643825471401214599609375</LatitudeDegrees>
              <LongitudeDegrees>2.4323027394711971282958984375</LongitudeDegrees>
            </Position>
            <AltitudeMeters>1041.5999755859375</AltitudeMeters>
            <DistanceMeters>NAN</DistanceMeters>
          </Trackpoint>
          <Trackpoint>
            <Time>2021-04-04T08:06:43.000Z</Time>
            <Position>
              <LatitudeDegrees>42.3303408734500408172607421875</LatitudeDegrees>
              <LongitudeDegrees>2.432353198528289794921875</LongitudeDegrees>
            </Position>
            <AltitudeMeters>1042.199951171875</AltitudeMeters>
            <DistanceMeters>NAN</DistanceMeters>
          </Trackpoint>
          <Trackpoint>
            <Time>2021-04-04T08:06:44.000Z</Time>
            <Position>
              <LatitudeDegrees>42.33033760450780391693115234375</LatitudeDegrees>
              <LongitudeDegrees>2.43235864676535129547119140625</LongitudeDegrees>
            </Position>
            <AltitudeMeters>1042.199951171875</AltitudeMeters>
            <DistanceMeters>NAN</DistanceMeters>
          </Trackpoint>
          <Trackpoint>
            <Time>2021-04-04T08:06:50.000Z</Time>
            <Position>
              <LatitudeDegrees>42.33030692674219608306884765625</LatitudeDegrees>
              <LongitudeDegrees>2.43238043971359729766845703125</LongitudeDegrees>
            </Position>
            <AltitudeMeters>1042.5999755859375</AltitudeMeters>
            <DistanceMeters>NAN</DistanceMeters>
          </Trackpoint>
          <Trackpoint>
            <Time>2021-04-04T08:06:51.000Z</Time>
            <Position>
              <LatitudeDegrees>42.3303033225238323211669921875</LatitudeDegrees>
              <LongitudeDegrees>2.43238161318004131317138671875</LongitudeDegrees>
            </Position>
            <AltitudeMeters>1042.5999755859375</AltitudeMeters>
            <DistanceMeters>NAN</DistanceMeters>
          </Trackpoint>
          <Trackpoint>
            <Time>2021-04-04T08:06:55.000Z</Time>
            <Position>
              <LatitudeDegrees>42.33028882183134555816650390625</LatitudeDegrees>
              <LongitudeDegrees>2.432348839938640594482421875</LongitudeDegrees>
            </Position>
            <AltitudeMeters>1043.199951171875</AltitudeMeters>
            <DistanceMeters>NAN</DistanceMeters>
          </Trackpoint>
          <Trackpoint>
            <Time>2021-04-04T08:06:58.000Z</Time>
            <Position>
              <LatitudeDegrees>42.33028530143201351165771484375</LatitudeDegrees>
              <LongitudeDegrees>2.43230433203279972076416015625</LongitudeDegrees>
            </Position>
            <AltitudeMeters>1043.5999755859375</AltitudeMeters>
            <DistanceMeters>NAN</DistanceMeters>
          </Trackpoint>
          <Trackpoint>
            <Time>2021-04-04T08:07:02.000Z</Time>
            <Position>
              <LatitudeDegrees>42.33027406968176364898681640625</LatitudeDegrees>
              <LongitudeDegrees>2.43224465288221836090087890625</LongitudeDegrees>
            </Position>
            <AltitudeMeters>1044.199951171875</AltitudeMeters>
            <DistanceMeters>NAN</DistanceMeters>
          </Trackpoint>
          <Trackpoint>
            <Time>2021-04-04T08:07:05.000Z</Time>
            <Position>
              <LatitudeDegrees>42.33028027229011058807373046875</LatitudeDegrees>
              <LongitudeDegrees>2.43220031261444091796875</LongitudeDegrees>
            </Position>
            <AltitudeMeters>1044.800048828125</AltitudeMeters>
            <DistanceMeters>NAN</DistanceMeters>
          </Trackpoint>
          <Trackpoint>
            <Time>2021-04-04T08:07:10.000Z</Time>
            <Position>
              <LatitudeDegrees>42.33026669360697269439697265625</LatitudeDegrees>
              <LongitudeDegrees>2.432154379785060882568359375</LongitudeDegrees>
            </Position>
            <AltitudeMeters>1045.4000244140625</AltitudeMeters>
            <DistanceMeters>NAN</DistanceMeters>
          </Trackpoint>
          <Trackpoint>
            <Time>2021-04-04T08:07:13.000Z</Time>
            <Position>
              <LatitudeDegrees>42.3302640952169895172119140625</LatitudeDegrees>
              <LongitudeDegrees>2.432142309844493865966796875</LongitudeDegrees>
            </Position>
            <AltitudeMeters>1045.800048828125</AltitudeMeters>
            <DistanceMeters>NAN</DistanceMeters>
          </Trackpoint>
          <Trackpoint>
            <Time>2021-04-04T08:07:16.000Z</Time>
            <Position>
              <LatitudeDegrees>42.33026736415922641754150390625</LatitudeDegrees>
              <LongitudeDegrees>2.4321216903626918792724609375</LongitudeDegrees>
            </Position>
            <AltitudeMeters>1046.199951171875</AltitudeMeters>
            <DistanceMeters>NAN</DistanceMeters>
          </Trackpoint>
          <Trackpoint>
            <Time>2021-04-04T08:07:19.000Z</Time>
            <Position>
              <LatitudeDegrees>42.3302634246647357940673828125</LatitudeDegrees>
              <LongitudeDegrees>2.432110793888568878173828125</LongitudeDegrees>
            </Position>
            <AltitudeMeters>1046.199951171875</AltitudeMeters>
            <DistanceMeters>NAN</DistanceMeters>
          </Trackpoint>
          <Trackpoint>
            <Time>2021-04-04T08:07:22.000Z</Time>
            <Position>
              <LatitudeDegrees>42.33025143854320049285888671875</LatitudeDegrees>
              <LongitudeDegrees>2.4321116320788860321044921875</LongitudeDegrees>
            </Position>
            <AltitudeMeters>1046.800048828125</AltitudeMeters>
            <DistanceMeters>NAN</DistanceMeters>
          </Trackpoint>
          <Trackpoint>
            <Time>2021-04-04T08:07:23.000Z</Time>
            <Position>
              <LatitudeDegrees>42.33024339191615581512451171875</LatitudeDegrees>
              <LongitudeDegrees>2.4321109615266323089599609375</LongitudeDegrees>
            </Position>
            <AltitudeMeters>1046.800048828125</AltitudeMeters>
            <DistanceMeters>NAN</DistanceMeters>
          </Trackpoint>
          <Trackpoint>
            <Time>2021-04-04T08:07:24.000Z</Time>
            <Position>
              <LatitudeDegrees>42.3302423022687435150146484375</LatitudeDegrees>
              <LongitudeDegrees>2.43210786022245883941650390625</LongitudeDegrees>
            </Position>
            <AltitudeMeters>1047</AltitudeMeters>
            <DistanceMeters>NAN</DistanceMeters>
          </Trackpoint>
          <Trackpoint>
            <Time>2021-04-04T08:07:30.000Z</Time>
            <Position>
              <LatitudeDegrees>42.3302376084029674530029296875</LatitudeDegrees>
              <LongitudeDegrees>2.43208321742713451385498046875</LongitudeDegrees>
            </Position>
            <AltitudeMeters>1048</AltitudeMeters>
            <DistanceMeters>NAN</DistanceMeters>
          </Trackpoint>
          <Trackpoint>
            <Time>2021-04-04T08:07:32.000Z</Time>
            <Position>
              <LatitudeDegrees>42.3302377760410308837890625</LatitudeDegrees>
              <LongitudeDegrees>2.43208472616970539093017578125</LongitudeDegrees>
            </Position>
            <AltitudeMeters>1048.199951171875</AltitudeMeters>
            <DistanceMeters>NAN</DistanceMeters>
          </Trackpoint>
          <Trackpoint>
            <Time>2021-04-04T08:07:38.000Z</Time>
            <Position>
              <LatitudeDegrees>42.33024255372583866119384765625</LatitudeDegrees>
              <LongitudeDegrees>2.4320702254772186279296875</LongitudeDegrees>
            </Position>
            <AltitudeMeters>1049</AltitudeMeters>
            <DistanceMeters>NAN</DistanceMeters>
          </Trackpoint>
          <Trackpoint>
            <Time>2021-04-04T08:07:44.000Z</Time>
            <Position>
              <LatitudeDegrees>42.33025009743869304656982421875</LatitudeDegrees>
              <LongitudeDegrees>2.43204415775835514068603515625</LongitudeDegrees>
            </Position>
            <AltitudeMeters>1050</AltitudeMeters>
            <DistanceMeters>NAN</DistanceMeters>
          </Trackpoint>
          <Trackpoint>
            <Time>2021-04-04T08:07:45.000Z</Time>
            <Position>
              <LatitudeDegrees>42.3302490077912807464599609375</LatitudeDegrees>
              <LongitudeDegrees>2.432039715349674224853515625</LongitudeDegrees>
            </Position>
            <AltitudeMeters>1050.199951171875</AltitudeMeters>
            <DistanceMeters>NAN</DistanceMeters>
          </Trackpoint>
          <Trackpoint>
            <Time>2021-04-04T08:07:50.000Z</Time>
            <Position>
              <LatitudeDegrees>42.33025663532316684722900390625</LatitudeDegrees>
              <LongitudeDegrees>2.43200115859508514404296875</LongitudeDegrees>
            </Position>
            <AltitudeMeters>1051</AltitudeMeters>
            <DistanceMeters>NAN</DistanceMeters>
          </Trackpoint>
          <Trackpoint>
            <Time>2021-04-04T08:07:51.000Z</Time>
            <Position>
              <LatitudeDegrees>42.33026032336056232452392578125</LatitudeDegrees>
              <LongitudeDegrees>2.431996129453182220458984375</LongitudeDegrees>
            </Position>
            <AltitudeMeters>1051.199951171875</AltitudeMeters>
            <DistanceMeters>NAN</DistanceMeters>
          </Trackpoint>
          <Trackpoint>
            <Time>2021-04-04T08:07:56.000Z</Time>
            <Position>
              <LatitudeDegrees>42.33026032336056232452392578125</LatitudeDegrees>
              <LongitudeDegrees>2.4319577403366565704345703125</LongitudeDegrees>
            </Position>
            <AltitudeMeters>1052</AltitudeMeters>
            <DistanceMeters>NAN</DistanceMeters>
          </Trackpoint>
          <Trackpoint>
            <Time>2021-04-04T08:07:58.000Z</Time>
            <Position>
              <LatitudeDegrees>42.33026501722633838653564453125</LatitudeDegrees>
              <LongitudeDegrees>2.43194156326353549957275390625</LongitudeDegrees>
            </Position>
            <AltitudeMeters>1052.4000244140625</AltitudeMeters>
            <DistanceMeters>NAN</DistanceMeters>
          </Trackpoint>
          <Trackpoint>
            <Time>2021-04-04T08:08:05.000Z</Time>
            <Position>
              <LatitudeDegrees>42.33026753179728984832763671875</LatitudeDegrees>
              <LongitudeDegrees>2.43190116249024868011474609375</LongitudeDegrees>
            </Position>
            <AltitudeMeters>1053.4000244140625</AltitudeMeters>
            <DistanceMeters>NAN</DistanceMeters>
          </Trackpoint>
          <Trackpoint>
            <Time>2021-04-04T08:08:12.000Z</Time>
            <Position>
              <LatitudeDegrees>42.3302619159221649169921875</LatitudeDegrees>
              <LongitudeDegrees>2.4318601749837398529052734375</LongitudeDegrees>
            </Position>
            <AltitudeMeters>1054.4000244140625</AltitudeMeters>
            <DistanceMeters>NAN</DistanceMeters>
          </Trackpoint>
          <Trackpoint>
            <Time>2021-04-04T08:08:13.000Z</Time>
            <Position>
              <LatitudeDegrees>42.3302661068737506866455078125</LatitudeDegrees>
              <LongitudeDegrees>2.431856654584407806396484375</LongitudeDegrees>
            </Position>
            <AltitudeMeters>1054.5999755859375</AltitudeMeters>
            <DistanceMeters>NAN</DistanceMeters>
          </Trackpoint>
          <Trackpoint>
            <Time>2021-04-04T08:08:20.000Z</Time>
            <Position>
              <LatitudeDegrees>42.3302862234413623809814453125</LatitudeDegrees>
              <LongitudeDegrees>2.43181876838207244873046875</LongitudeDegrees>
            </Position>
            <AltitudeMeters>1055.4000244140625</AltitudeMeters>
            <DistanceMeters>NAN</DistanceMeters>
          </Trackpoint>
          <Trackpoint>
            <Time>2021-04-04T08:08:21.000Z</Time>
            <Position>
              <LatitudeDegrees>42.330281026661396026611328125</LatitudeDegrees>
              <LongitudeDegrees>2.4318092130124568939208984375</LongitudeDegrees>
            </Position>
            <AltitudeMeters>1055.4000244140625</AltitudeMeters>
            <DistanceMeters>NAN</DistanceMeters>
          </Trackpoint>
          <Trackpoint>
            <Time>2021-04-04T08:08:25.000Z</Time>
            <Position>
              <LatitudeDegrees>42.330295778810977935791015625</LatitudeDegrees>
              <LongitudeDegrees>2.43179420940577983856201171875</LongitudeDegrees>
            </Position>
            <AltitudeMeters>1055.5999755859375</AltitudeMeters>
            <DistanceMeters>NAN</DistanceMeters>
          </Trackpoint>
          <Trackpoint>
            <Time>2021-04-04T08:08:31.000Z</Time>
            <Position>
              <LatitudeDegrees>42.330308519303798675537109375</LatitudeDegrees>
              <LongitudeDegrees>2.431783564388751983642578125</LongitudeDegrees>
            </Position>
            <AltitudeMeters>1056.4000244140625</AltitudeMeters>
            <DistanceMeters>NAN</DistanceMeters>
          </Trackpoint>
          <Trackpoint>
            <Time>2021-04-04T08:08:33.000Z</Time>
            <Position>
              <LatitudeDegrees>42.33031832613050937652587890625</LatitudeDegrees>
              <LongitudeDegrees>2.431777529418468475341796875</LongitudeDegrees>
            </Position>
            <AltitudeMeters>1056.4000244140625</AltitudeMeters>
            <DistanceMeters>NAN</DistanceMeters>
          </Trackpoint>
          <Trackpoint>
            <Time>2021-04-04T08:08:39.000Z</Time>
            <Position>
              <LatitudeDegrees>42.33033559285104274749755859375</LatitudeDegrees>
              <LongitudeDegrees>2.43174760602414608001708984375</LongitudeDegrees>
            </Position>
            <AltitudeMeters>1057.5999755859375</AltitudeMeters>
            <DistanceMeters>NAN</DistanceMeters>
          </Trackpoint>
          <Trackpoint>
            <Time>2021-04-04T08:08:46.000Z</Time>
            <Position>
              <LatitudeDegrees>42.330362498760223388671875</LatitudeDegrees>
              <LongitudeDegrees>2.43171818554401397705078125</LongitudeDegrees>
            </Position>
            <AltitudeMeters>1058.4000244140625</AltitudeMeters>
            <DistanceMeters>NAN</DistanceMeters>
          </Trackpoint>
          <Trackpoint>
            <Time>2021-04-04T08:08:48.000Z</Time>
            <Position>
              <LatitudeDegrees>42.33037565834820270538330078125</LatitudeDegrees>
              <LongitudeDegrees>2.4316818080842494964599609375</LongitudeDegrees>
            </Position>
            <AltitudeMeters>1058.5999755859375</AltitudeMeters>
            <DistanceMeters>NAN</DistanceMeters>
          </Trackpoint>
          <Trackpoint>
            <Time>2021-04-04T08:08:53.000Z</Time>
            <Position>
              <LatitudeDegrees>42.3303576372563838958740234375</LatitudeDegrees>
              <LongitudeDegrees>2.43165942840278148651123046875</LongitudeDegrees>
            </Position>
            <AltitudeMeters>1059.199951171875</AltitudeMeters>
            <DistanceMeters>NAN</DistanceMeters>
          </Trackpoint>
          <Trackpoint>
            <Time>2021-04-04T08:08:58.000Z</Time>
            <Position>
              <LatitudeDegrees>42.3303680308163166046142578125</LatitudeDegrees>
              <LongitudeDegrees>2.43164015002548694610595703125</LongitudeDegrees>
            </Position>
            <AltitudeMeters>1059.800048828125</AltitudeMeters>
            <DistanceMeters>NAN</DistanceMeters>
          </Trackpoint>
          <Trackpoint>
            <Time>2021-04-04T08:09:00.000Z</Time>
            <Position>
              <LatitudeDegrees>42.330374903976917266845703125</LatitudeDegrees>
              <LongitudeDegrees>2.4316429160535335540771484375</LongitudeDegrees>
            </Position>
            <AltitudeMeters>1060</AltitudeMeters>
            <DistanceMeters>NAN</DistanceMeters>
          </Trackpoint>
          <Trackpoint>
            <Time>2021-04-04T08:09:05.000Z</Time>
            <Position>
              <LatitudeDegrees>42.33035654760897159576416015625</LatitudeDegrees>
              <LongitudeDegrees>2.43162506259977817535400390625</LongitudeDegrees>
            </Position>
            <AltitudeMeters>1060.800048828125</AltitudeMeters>
            <DistanceMeters>NAN</DistanceMeters>
          </Trackpoint>
          <Trackpoint>
            <Time>2021-04-04T08:09:06.000Z</Time>
            <Position>
              <LatitudeDegrees>42.33035285957157611846923828125</LatitudeDegrees>
              <LongitudeDegrees>2.4316187761723995208740234375</LongitudeDegrees>
            </Position>
            <AltitudeMeters>1061</AltitudeMeters>
            <DistanceMeters>NAN</DistanceMeters>
          </Trackpoint>
          <Trackpoint>
            <Time>2021-04-04T08:09:12.000Z</Time>
            <Position>
              <LatitudeDegrees>42.33036627061665058135986328125</LatitudeDegrees>
              <LongitudeDegrees>2.431586422026157379150390625</LongitudeDegrees>
            </Position>
            <AltitudeMeters>1062</AltitudeMeters>
            <DistanceMeters>NAN</DistanceMeters>
          </Trackpoint>
          <Trackpoint>
            <Time>2021-04-04T08:09:17.000Z</Time>
            <Position>
              <LatitudeDegrees>42.33036291785538196563720703125</LatitudeDegrees>
              <LongitudeDegrees>2.431554906070232391357421875</LongitudeDegrees>
            </Position>
            <AltitudeMeters>1062.4000244140625</AltitudeMeters>
            <DistanceMeters>NAN</DistanceMeters>
          </Trackpoint>
          <Trackpoint>
            <Time>2021-04-04T08:09:21.000Z</Time>
            <Position>
              <LatitudeDegrees>42.3303665220737457275390625</LatitudeDegrees>
              <LongitudeDegrees>2.4315433390438556671142578125</LongitudeDegrees>
            </Position>
            <AltitudeMeters>1063</AltitudeMeters>
            <DistanceMeters>NAN</DistanceMeters>
          </Trackpoint>
          <Trackpoint>
            <Time>2021-04-04T08:09:23.000Z</Time>
            <Position>
              <LatitudeDegrees>42.3303636722266674041748046875</LatitudeDegrees>
              <LongitudeDegrees>2.43154191412031650543212890625</LongitudeDegrees>
            </Position>
            <AltitudeMeters>1063.199951171875</AltitudeMeters>
            <DistanceMeters>NAN</DistanceMeters>
          </Trackpoint>
          <Trackpoint>
            <Time>2021-04-04T08:09:29.000Z</Time>
            <Position>
              <LatitudeDegrees>42.33033140189945697784423828125</LatitudeDegrees>
              <LongitudeDegrees>2.43154694326221942901611328125</LongitudeDegrees>
            </Position>
            <AltitudeMeters>1064</AltitudeMeters>
            <DistanceMeters>NAN</DistanceMeters>
          </Trackpoint>
          <Trackpoint>
            <Time>2021-04-04T08:09:32.000Z</Time>
            <Position>
              <LatitudeDegrees>42.33031614683568477630615234375</LatitudeDegrees>
              <LongitudeDegrees>2.43154945783317089080810546875</LongitudeDegrees>
            </Position>
            <AltitudeMeters>1064.4000244140625</AltitudeMeters>
            <DistanceMeters>NAN</DistanceMeters>
          </Trackpoint>
          <Trackpoint>
            <Time>2021-04-04T08:09:36.000Z</Time>
            <Position>
              <LatitudeDegrees>42.33029938302934169769287109375</LatitudeDegrees>
              <LongitudeDegrees>2.4315366335213184356689453125</LongitudeDegrees>
            </Position>
            <AltitudeMeters>1064.800048828125</AltitudeMeters>
            <DistanceMeters>NAN</DistanceMeters>
          </Trackpoint>
          <Trackpoint>
            <Time>2021-04-04T08:09:37.000Z</Time>
            <Position>
              <LatitudeDegrees>42.330299131572246551513671875</LatitudeDegrees>
              <LongitudeDegrees>2.4315311014652252197265625</LongitudeDegrees>
            </Position>
            <AltitudeMeters>1064.800048828125</AltitudeMeters>
            <DistanceMeters>NAN</DistanceMeters>
          </Trackpoint>
          <Trackpoint>
            <Time>2021-04-04T08:09:38.000Z</Time>
            <Position>
              <LatitudeDegrees>42.33029871247708797454833984375</LatitudeDegrees>
              <LongitudeDegrees>2.43152498267590999603271484375</LongitudeDegrees>
            </Position>
            <AltitudeMeters>1064.800048828125</AltitudeMeters>
            <DistanceMeters>NAN</DistanceMeters>
          </Trackpoint>
          <Trackpoint>
            <Time>2021-04-04T08:09:41.000Z</Time>
            <Position>
              <LatitudeDegrees>42.33029921539127826690673828125</LatitudeDegrees>
              <LongitudeDegrees>2.43151366710662841796875</LongitudeDegrees>
            </Position>
            <AltitudeMeters>1065.199951171875</AltitudeMeters>
            <DistanceMeters>NAN</DistanceMeters>
          </Trackpoint>
          <Trackpoint>
            <Time>2021-04-04T08:09:44.000Z</Time>
            <Position>
              <LatitudeDegrees>42.330304495990276336669921875</LatitudeDegrees>
              <LongitudeDegrees>2.4315047822892665863037109375</LongitudeDegrees>
            </Position>
            <AltitudeMeters>1065.800048828125</AltitudeMeters>
            <DistanceMeters>NAN</DistanceMeters>
          </Trackpoint>
          <Trackpoint>
            <Time>2021-04-04T08:09:46.000Z</Time>
            <Position>
              <LatitudeDegrees>42.33031061477959156036376953125</LatitudeDegrees>
              <LongitudeDegrees>2.43148810230195522308349609375</LongitudeDegrees>
            </Position>
            <AltitudeMeters>1066</AltitudeMeters>
            <DistanceMeters>NAN</DistanceMeters>
          </Trackpoint>
          <Trackpoint>
            <Time>2021-04-04T08:09:49.000Z</Time>
            <Position>
              <LatitudeDegrees>42.3303204216063022613525390625</LatitudeDegrees>
              <LongitudeDegrees>2.43145641870796680450439453125</LongitudeDegrees>
            </Position>
            <AltitudeMeters>1066.199951171875</AltitudeMeters>
            <DistanceMeters>NAN</DistanceMeters>
          </Trackpoint>
          <Trackpoint>
            <Time>2021-04-04T08:09:53.000Z</Time>
            <Position>
              <LatitudeDegrees>42.33031782321631908416748046875</LatitudeDegrees>
              <LongitudeDegrees>2.43143395520746707916259765625</LongitudeDegrees>
            </Position>
            <AltitudeMeters>1066.5999755859375</AltitudeMeters>
            <DistanceMeters>NAN</DistanceMeters>
          </Trackpoint>
          <Trackpoint>
            <Time>2021-04-04T08:09:56.000Z</Time>
            <Position>
              <LatitudeDegrees>42.3303133808076381683349609375</LatitudeDegrees>
              <LongitudeDegrees>2.43141870014369487762451171875</LongitudeDegrees>
            </Position>
            <AltitudeMeters>1067.199951171875</AltitudeMeters>
            <DistanceMeters>NAN</DistanceMeters>
          </Trackpoint>
          <Trackpoint>
            <Time>2021-04-04T08:10:01.000Z</Time>
            <Position>
              <LatitudeDegrees>42.33029116876423358917236328125</LatitudeDegrees>
              <LongitudeDegrees>2.43139338679611682891845703125</LongitudeDegrees>
            </Position>
            <AltitudeMeters>1068</AltitudeMeters>
            <DistanceMeters>NAN</DistanceMeters>
          </Trackpoint>
          <Trackpoint>
            <Time>2021-04-04T08:10:02.000Z</Time>
            <Position>
              <LatitudeDegrees>42.3302845470607280731201171875</LatitudeDegrees>
              <LongitudeDegrees>2.4313928000628948211669921875</LongitudeDegrees>
            </Position>
            <AltitudeMeters>1068</AltitudeMeters>
            <DistanceMeters>NAN</DistanceMeters>
          </Trackpoint>
          <Trackpoint>
            <Time>2021-04-04T08:10:03.000Z</Time>
            <Position>
              <LatitudeDegrees>42.330278344452381134033203125</LatitudeDegrees>
              <LongitudeDegrees>2.43138718418776988983154296875</LongitudeDegrees>
            </Position>
            <AltitudeMeters>1068</AltitudeMeters>
            <DistanceMeters>NAN</DistanceMeters>
          </Trackpoint>
          <Trackpoint>
            <Time>2021-04-04T08:10:04.000Z</Time>
            <Position>
              <LatitudeDegrees>42.33027205802500247955322265625</LatitudeDegrees>
              <LongitudeDegrees>2.431382238864898681640625</LongitudeDegrees>
            </Position>
            <AltitudeMeters>1068.199951171875</AltitudeMeters>
            <DistanceMeters>NAN</DistanceMeters>
          </Trackpoint>
          <Trackpoint>
            <Time>2021-04-04T08:10:05.000Z</Time>
            <Position>
              <LatitudeDegrees>42.3302701301872730255126953125</LatitudeDegrees>
              <LongitudeDegrees>2.43137779645621776580810546875</LongitudeDegrees>
            </Position>
            <AltitudeMeters>1068.199951171875</AltitudeMeters>
            <DistanceMeters>NAN</DistanceMeters>
          </Trackpoint>
          <Trackpoint>
            <Time>2021-04-04T08:10:09.000Z</Time>
            <Position>
              <LatitudeDegrees>42.330263592302799224853515625</LatitudeDegrees>
              <LongitudeDegrees>2.43134762160480022430419921875</LongitudeDegrees>
            </Position>
            <AltitudeMeters>1068.5999755859375</AltitudeMeters>
            <DistanceMeters>NAN</DistanceMeters>
          </Trackpoint>
          <Trackpoint>
            <Time>2021-04-04T08:10:11.000Z</Time>
            <Position>
              <LatitudeDegrees>42.33026468195021152496337890625</LatitudeDegrees>
              <LongitudeDegrees>2.43132867850363254547119140625</LongitudeDegrees>
            </Position>
            <AltitudeMeters>1068.800048828125</AltitudeMeters>
            <DistanceMeters>NAN</DistanceMeters>
          </Trackpoint>
          <Trackpoint>
            <Time>2021-04-04T08:10:12.000Z</Time>
            <Position>
              <LatitudeDegrees>42.33026702888309955596923828125</LatitudeDegrees>
              <LongitudeDegrees>2.43132029660046100616455078125</LongitudeDegrees>
            </Position>
            <AltitudeMeters>1068.800048828125</AltitudeMeters>
            <DistanceMeters>NAN</DistanceMeters>
          </Trackpoint>
          <Trackpoint>
            <Time>2021-04-04T08:10:17.000Z</Time>
            <Position>
              <LatitudeDegrees>42.3302704654633998870849609375</LatitudeDegrees>
              <LongitudeDegrees>2.4312682449817657470703125</LongitudeDegrees>
            </Position>
            <AltitudeMeters>1069.4000244140625</AltitudeMeters>
            <DistanceMeters>NAN</DistanceMeters>
          </Trackpoint>
          <Trackpoint>
            <Time>2021-04-04T08:10:21.000Z</Time>
            <Position>
              <LatitudeDegrees>42.33029183931648731231689453125</LatitudeDegrees>
              <LongitudeDegrees>2.43122641928493976593017578125</LongitudeDegrees>
            </Position>
            <AltitudeMeters>1069.199951171875</AltitudeMeters>
            <DistanceMeters>NAN</DistanceMeters>
          </Trackpoint>
          <Trackpoint>
            <Time>2021-04-04T08:10:29.000Z</Time>
            <Position>
              <LatitudeDegrees>42.330327294766902923583984375</LatitudeDegrees>
              <LongitudeDegrees>2.4311772175133228302001953125</LongitudeDegrees>
            </Position>
            <AltitudeMeters>1070.4000244140625</AltitudeMeters>
            <DistanceMeters>NAN</DistanceMeters>
          </Trackpoint>
          <Trackpoint>
            <Time>2021-04-04T08:10:32.000Z</Time>
            <Position>
              <LatitudeDegrees>42.330340705811977386474609375</LatitudeDegrees>
              <LongitudeDegrees>2.43116690777242183685302734375</LongitudeDegrees>
            </Position>
            <AltitudeMeters>1070.5999755859375</AltitudeMeters>
            <DistanceMeters>NAN</DistanceMeters>
          </Trackpoint>
          <Trackpoint>
            <Time>2021-04-04T08:10:37.000Z</Time>
            <Position>
              <LatitudeDegrees>42.33036451041698455810546875</LatitudeDegrees>
              <LongitudeDegrees>2.43114192970097064971923828125</LongitudeDegrees>
            </Position>
            <AltitudeMeters>1071.5999755859375</AltitudeMeters>
            <DistanceMeters>NAN</DistanceMeters>
          </Trackpoint>
          <Trackpoint>
            <Time>2021-04-04T08:10:40.000Z</Time>
            <Position>
              <LatitudeDegrees>42.3303801007568836212158203125</LatitudeDegrees>
              <LongitudeDegrees>2.43112566880881786346435546875</LongitudeDegrees>
            </Position>
            <AltitudeMeters>1072.199951171875</AltitudeMeters>
            <DistanceMeters>NAN</DistanceMeters>
          </Trackpoint>
          <Trackpoint>
            <Time>2021-04-04T08:10:42.000Z</Time>
            <Position>
              <LatitudeDegrees>42.33037800528109073638916015625</LatitudeDegrees>
              <LongitudeDegrees>2.431119717657566070556640625</LongitudeDegrees>
            </Position>
            <AltitudeMeters>1072.5999755859375</AltitudeMeters>
            <DistanceMeters>NAN</DistanceMeters>
          </Trackpoint>
          <Trackpoint>
            <Time>2021-04-04T08:10:49.000Z</Time>
            <Position>
              <LatitudeDegrees>42.33035285957157611846923828125</LatitudeDegrees>
              <LongitudeDegrees>2.43108208291232585906982421875</LongitudeDegrees>
            </Position>
            <AltitudeMeters>1073.4000244140625</AltitudeMeters>
            <DistanceMeters>NAN</DistanceMeters>
          </Trackpoint>
          <Trackpoint>
            <Time>2021-04-04T08:10:50.000Z</Time>
            <Position>
              <LatitudeDegrees>42.33034833334386348724365234375</LatitudeDegrees>
              <LongitudeDegrees>2.431072778999805450439453125</LongitudeDegrees>
            </Position>
            <AltitudeMeters>1073.5999755859375</AltitudeMeters>
            <DistanceMeters>NAN</DistanceMeters>
          </Trackpoint>
          <Trackpoint>
            <Time>2021-04-04T08:10:58.000Z</Time>
            <Position>
              <LatitudeDegrees>42.33031463809311389923095703125</LatitudeDegrees>
              <LongitudeDegrees>2.4310330487787723541259765625</LongitudeDegrees>
            </Position>
            <AltitudeMeters>1074.4000244140625</AltitudeMeters>
            <DistanceMeters>NAN</DistanceMeters>
          </Trackpoint>
          <Trackpoint>
            <Time>2021-04-04T08:11:03.000Z</Time>
            <Position>
              <LatitudeDegrees>42.3303056694567203521728515625</LatitudeDegrees>
              <LongitudeDegrees>2.430997006595134735107421875</LongitudeDegrees>
            </Position>
            <AltitudeMeters>1074.800048828125</AltitudeMeters>
            <DistanceMeters>NAN</DistanceMeters>
          </Trackpoint>
          <Trackpoint>
            <Time>2021-04-04T08:11:07.000Z</Time>
            <Position>
              <LatitudeDegrees>42.33028396032750606536865234375</LatitudeDegrees>
              <LongitudeDegrees>2.4309696815907955169677734375</LongitudeDegrees>
            </Position>
            <AltitudeMeters>1075.4000244140625</AltitudeMeters>
            <DistanceMeters>NAN</DistanceMeters>
          </Trackpoint>
          <Trackpoint>
            <Time>2021-04-04T08:11:08.000Z</Time>
            <Position>
              <LatitudeDegrees>42.330279015004634857177734375</LatitudeDegrees>
              <LongitudeDegrees>2.43096456862986087799072265625</LongitudeDegrees>
            </Position>
            <AltitudeMeters>1075.4000244140625</AltitudeMeters>
            <DistanceMeters>NAN</DistanceMeters>
          </Trackpoint>
          <Trackpoint>
            <Time>2021-04-04T08:11:15.000Z</Time>
            <Position>
              <LatitudeDegrees>42.33027742244303226470947265625</LatitudeDegrees>
              <LongitudeDegrees>2.4309371598064899444580078125</LongitudeDegrees>
            </Position>
            <AltitudeMeters>1075.5999755859375</AltitudeMeters>
            <DistanceMeters>NAN</DistanceMeters>
          </Trackpoint>
          <Trackpoint>
            <Time>2021-04-04T08:11:22.000Z</Time>
            <Position>
              <LatitudeDegrees>42.33027054928243160247802734375</LatitudeDegrees>
              <LongitudeDegrees>2.43088292889297008514404296875</LongitudeDegrees>
            </Position>
            <AltitudeMeters>1075.5999755859375</AltitudeMeters>
            <DistanceMeters>NAN</DistanceMeters>
          </Trackpoint>
          <Trackpoint>
            <Time>2021-04-04T08:11:26.000Z</Time>
            <Position>
              <LatitudeDegrees>42.33027054928243160247802734375</LatitudeDegrees>
              <LongitudeDegrees>2.43088292889297008514404296875</LongitudeDegrees>
            </Position>
            <AltitudeMeters>1076</AltitudeMeters>
            <DistanceMeters>NAN</DistanceMeters>
          </Trackpoint>
          <Trackpoint>
            <Time>2021-04-04T08:11:29.000Z</Time>
            <Position>
              <LatitudeDegrees>42.33027054928243160247802734375</LatitudeDegrees>
              <LongitudeDegrees>2.43088292889297008514404296875</LongitudeDegrees>
            </Position>
            <AltitudeMeters>1076.199951171875</AltitudeMeters>
            <DistanceMeters>NAN</DistanceMeters>
          </Trackpoint>
          <Trackpoint>
            <Time>2021-04-04T08:11:33.000Z</Time>
            <Position>
              <LatitudeDegrees>42.33027725480496883392333984375</LatitudeDegrees>
              <LongitudeDegrees>2.4308861978352069854736328125</LongitudeDegrees>
            </Position>
            <AltitudeMeters>1076.4000244140625</AltitudeMeters>
            <DistanceMeters>NAN</DistanceMeters>
          </Trackpoint>
          <Trackpoint>
            <Time>2021-04-04T08:11:41.000Z</Time>
            <Position>
              <LatitudeDegrees>42.330280356109142303466796875</LatitudeDegrees>
              <LongitudeDegrees>2.4309096671640872955322265625</LongitudeDegrees>
            </Position>
            <AltitudeMeters>1076</AltitudeMeters>
            <DistanceMeters>NAN</DistanceMeters>
          </Trackpoint>
          <Trackpoint>
            <Time>2021-04-04T08:11:48.000Z</Time>
            <Position>
              <LatitudeDegrees>42.3302815295755863189697265625</LatitudeDegrees>
              <LongitudeDegrees>2.4309100024402141571044921875</LongitudeDegrees>
            </Position>
            <AltitudeMeters>1075.5999755859375</AltitudeMeters>
            <DistanceMeters>NAN</DistanceMeters>
          </Trackpoint>
          <Trackpoint>
            <Time>2021-04-04T08:11:56.000Z</Time>
            <Position>
              <LatitudeDegrees>42.33028463087975978851318359375</LatitudeDegrees>
              <LongitudeDegrees>2.43091343902051448822021484375</LongitudeDegrees>
            </Position>
            <AltitudeMeters>1075.800048828125</AltitudeMeters>
            <DistanceMeters>NAN</DistanceMeters>
          </Trackpoint>
          <Trackpoint>
            <Time>2021-04-04T08:12:03.000Z</Time>
            <Position>
              <LatitudeDegrees>42.33028580434620380401611328125</LatitudeDegrees>
              <LongitudeDegrees>2.43091830052435398101806640625</LongitudeDegrees>
            </Position>
            <AltitudeMeters>1076</AltitudeMeters>
            <DistanceMeters>NAN</DistanceMeters>
          </Trackpoint>
          <Trackpoint>
            <Time>2021-04-04T08:12:06.000Z</Time>
            <Position>
              <LatitudeDegrees>42.3302868939936161041259765625</LatitudeDegrees>
              <LongitudeDegrees>2.43092115037143230438232421875</LongitudeDegrees>
            </Position>
            <AltitudeMeters>1076</AltitudeMeters>
            <DistanceMeters>NAN</DistanceMeters>
          </Trackpoint>
          <Trackpoint>
            <Time>2021-04-04T08:12:08.000Z</Time>
            <Position>
              <LatitudeDegrees>42.33028731308877468109130859375</LatitudeDegrees>
              <LongitudeDegrees>2.4309217371046543121337890625</LongitudeDegrees>
            </Position>
            <AltitudeMeters>1076</AltitudeMeters>
            <DistanceMeters>NAN</DistanceMeters>
          </Trackpoint>
          <Trackpoint>
            <Time>2021-04-04T08:12:10.000Z</Time>
            <Position>
              <LatitudeDegrees>42.33028781600296497344970703125</LatitudeDegrees>
              <LongitudeDegrees>2.4309217371046543121337890625</LongitudeDegrees>
            </Position>
            <AltitudeMeters>1076</AltitudeMeters>
            <DistanceMeters>NAN</DistanceMeters>
          </Trackpoint>
          <Trackpoint>
            <Time>2021-04-04T08:12:22.000Z</Time>
            <Position>
              <LatitudeDegrees>42.3302915878593921661376953125</LatitudeDegrees>
              <LongitudeDegrees>2.4309207312762737274169921875</LongitudeDegrees>
            </Position>
            <AltitudeMeters>1075.800048828125</AltitudeMeters>
            <DistanceMeters>NAN</DistanceMeters>
          </Trackpoint>
          <Trackpoint>
            <Time>2021-04-04T08:12:24.000Z</Time>
            <Position>
              <LatitudeDegrees>42.3302915878593921661376953125</LatitudeDegrees>
              <LongitudeDegrees>2.43091930635273456573486328125</LongitudeDegrees>
            </Position>
            <AltitudeMeters>1075.5999755859375</AltitudeMeters>
            <DistanceMeters>NAN</DistanceMeters>
          </Trackpoint>
          <Trackpoint>
            <Time>2021-04-04T08:12:27.000Z</Time>
            <Position>
              <LatitudeDegrees>42.3302900791168212890625</LatitudeDegrees>
              <LongitudeDegrees>2.43091863580048084259033203125</LongitudeDegrees>
            </Position>
            <AltitudeMeters>1075.5999755859375</AltitudeMeters>
            <DistanceMeters>NAN</DistanceMeters>
          </Trackpoint>
          <Trackpoint>
            <Time>2021-04-04T08:12:36.000Z</Time>
            <Position>
              <LatitudeDegrees>42.33028127811849117279052734375</LatitudeDegrees>
              <LongitudeDegrees>2.430911175906658172607421875</LongitudeDegrees>
            </Position>
            <AltitudeMeters>1075.5999755859375</AltitudeMeters>
            <DistanceMeters>NAN</DistanceMeters>
          </Trackpoint>
          <Trackpoint>
            <Time>2021-04-04T08:12:40.000Z</Time>
            <Position>
              <LatitudeDegrees>42.33030759729444980621337890625</LatitudeDegrees>
              <LongitudeDegrees>2.43085023947060108184814453125</LongitudeDegrees>
            </Position>
            <AltitudeMeters>1075.800048828125</AltitudeMeters>
            <DistanceMeters>NAN</DistanceMeters>
          </Trackpoint>
          <Trackpoint>
            <Time>2021-04-04T08:12:42.000Z</Time>
            <Position>
              <LatitudeDegrees>42.33031983487308025360107421875</LatitudeDegrees>
              <LongitudeDegrees>2.43082090280950069427490234375</LongitudeDegrees>
            </Position>
            <AltitudeMeters>1075.800048828125</AltitudeMeters>
            <DistanceMeters>NAN</DistanceMeters>
          </Trackpoint>
          <Trackpoint>
            <Time>2021-04-04T08:12:45.000Z</Time>
            <Position>
              <LatitudeDegrees>42.33034171164035797119140625</LatitudeDegrees>
              <LongitudeDegrees>2.43078318424522876739501953125</LongitudeDegrees>
            </Position>
            <AltitudeMeters>1075.800048828125</AltitudeMeters>
            <DistanceMeters>NAN</DistanceMeters>
          </Trackpoint>
          <Trackpoint>
            <Time>2021-04-04T08:12:49.000Z</Time>
            <Position>
              <LatitudeDegrees>42.3303633369505405426025390625</LatitudeDegrees>
              <LongitudeDegrees>2.43078888393938541412353515625</LongitudeDegrees>
            </Position>
            <AltitudeMeters>1075.800048828125</AltitudeMeters>
            <DistanceMeters>NAN</DistanceMeters>
          </Trackpoint>
          <Trackpoint>
            <Time>2021-04-04T08:12:50.000Z</Time>
            <Position>
              <LatitudeDegrees>42.3303665220737457275390625</LatitudeDegrees>
              <LongitudeDegrees>2.43079424835741519927978515625</LongitudeDegrees>
            </Position>
            <AltitudeMeters>1075.800048828125</AltitudeMeters>
            <DistanceMeters>NAN</DistanceMeters>
          </Trackpoint>
          <Trackpoint>
            <Time>2021-04-04T08:12:54.000Z</Time>
            <Position>
              <LatitudeDegrees>42.33036761172115802764892578125</LatitudeDegrees>
              <LongitudeDegrees>2.4308064021170139312744140625</LongitudeDegrees>
            </Position>
            <AltitudeMeters>1075.800048828125</AltitudeMeters>
            <DistanceMeters>NAN</DistanceMeters>
          </Trackpoint>
          <Trackpoint>
            <Time>2021-04-04T08:12:56.000Z</Time>
            <Position>
              <LatitudeDegrees>42.3303707130253314971923828125</LatitudeDegrees>
              <LongitudeDegrees>2.4308074079453945159912109375</LongitudeDegrees>
            </Position>
            <AltitudeMeters>1075.800048828125</AltitudeMeters>
            <DistanceMeters>NAN</DistanceMeters>
          </Trackpoint>
          <Trackpoint>
            <Time>2021-04-04T08:13:00.000Z</Time>
            <Position>
              <LatitudeDegrees>42.33037062920629978179931640625</LatitudeDegrees>
              <LongitudeDegrees>2.43080615065991878509521484375</LongitudeDegrees>
            </Position>
            <AltitudeMeters>1075.800048828125</AltitudeMeters>
            <DistanceMeters>NAN</DistanceMeters>
          </Trackpoint>
          <Trackpoint>
            <Time>2021-04-04T08:13:04.000Z</Time>
            <Position>
              <LatitudeDegrees>42.33037062920629978179931640625</LatitudeDegrees>
              <LongitudeDegrees>2.43080615065991878509521484375</LongitudeDegrees>
            </Position>
            <AltitudeMeters>1075.800048828125</AltitudeMeters>
            <DistanceMeters>NAN</DistanceMeters>
          </Trackpoint>
          <Trackpoint>
            <Time>2021-04-04T08:13:15.000Z</Time>
            <Position>
              <LatitudeDegrees>42.33036979101598262786865234375</LatitudeDegrees>
              <LongitudeDegrees>2.43080732412636280059814453125</LongitudeDegrees>
            </Position>
            <AltitudeMeters>1075.800048828125</AltitudeMeters>
            <DistanceMeters>NAN</DistanceMeters>
          </Trackpoint>
          <Trackpoint>
            <Time>2021-04-04T08:13:23.000Z</Time>
            <Position>
              <LatitudeDegrees>42.33037121593952178955078125</LatitudeDegrees>
              <LongitudeDegrees>2.4308525025844573974609375</LongitudeDegrees>
            </Position>
            <AltitudeMeters>1075.800048828125</AltitudeMeters>
            <DistanceMeters>NAN</DistanceMeters>
          </Trackpoint>
          <Trackpoint>
            <Time>2021-04-04T08:13:25.000Z</Time>
            <Position>
              <LatitudeDegrees>42.33037230558693408966064453125</LatitudeDegrees>
              <LongitudeDegrees>2.43085317313671112060546875</LongitudeDegrees>
            </Position>
            <AltitudeMeters>1075.800048828125</AltitudeMeters>
            <DistanceMeters>NAN</DistanceMeters>
          </Trackpoint>
          <Trackpoint>
            <Time>2021-04-04T08:13:52.000Z</Time>
            <Position>
              <LatitudeDegrees>42.33037247322499752044677734375</LatitudeDegrees>
              <LongitudeDegrees>2.43085183203220367431640625</LongitudeDegrees>
            </Position>
            <AltitudeMeters>1075.800048828125</AltitudeMeters>
            <DistanceMeters>NAN</DistanceMeters>
          </Trackpoint>
          <Trackpoint>
            <Time>2021-04-04T08:14:03.000Z</Time>
            <Position>
              <LatitudeDegrees>42.33037079684436321258544921875</LatitudeDegrees>
              <LongitudeDegrees>2.430862225592136383056640625</LongitudeDegrees>
            </Position>
            <AltitudeMeters>1075.800048828125</AltitudeMeters>
            <DistanceMeters>NAN</DistanceMeters>
          </Trackpoint>
          <Trackpoint>
            <Time>2021-04-04T08:14:11.000Z</Time>
            <Position>
              <LatitudeDegrees>42.33036878518760204315185546875</LatitudeDegrees>
              <LongitudeDegrees>2.43086918257176876068115234375</LongitudeDegrees>
            </Position>
            <AltitudeMeters>1075.800048828125</AltitudeMeters>
            <DistanceMeters>NAN</DistanceMeters>
          </Trackpoint>
          <Trackpoint>
            <Time>2021-04-04T08:14:23.000Z</Time>
            <Position>
              <LatitudeDegrees>42.3303633369505405426025390625</LatitudeDegrees>
              <LongitudeDegrees>2.4308885447680950164794921875</LongitudeDegrees>
            </Position>
            <AltitudeMeters>1075.800048828125</AltitudeMeters>
            <DistanceMeters>NAN</DistanceMeters>
          </Trackpoint>
          <Trackpoint>
            <Time>2021-04-04T08:14:26.000Z</Time>
            <Position>
              <LatitudeDegrees>42.3303633369505405426025390625</LatitudeDegrees>
              <LongitudeDegrees>2.43088862858712673187255859375</LongitudeDegrees>
            </Position>
            <AltitudeMeters>1075.800048828125</AltitudeMeters>
            <DistanceMeters>NAN</DistanceMeters>
          </Trackpoint>
          <Trackpoint>
            <Time>2021-04-04T08:14:27.000Z</Time>
            <Position>
              <LatitudeDegrees>42.3303633369505405426025390625</LatitudeDegrees>
              <LongitudeDegrees>2.43088862858712673187255859375</LongitudeDegrees>
            </Position>
            <AltitudeMeters>1075.800048828125</AltitudeMeters>
            <DistanceMeters>NAN</DistanceMeters>
          </Trackpoint>
          <Trackpoint>
            <Time>2021-04-04T08:14:40.000Z</Time>
            <Position>
              <LatitudeDegrees>42.33037792146205902099609375</LatitudeDegrees>
              <LongitudeDegrees>2.43087999522686004638671875</LongitudeDegrees>
            </Position>
            <AltitudeMeters>1075.800048828125</AltitudeMeters>
            <DistanceMeters>NAN</DistanceMeters>
          </Trackpoint>
          <Trackpoint>
            <Time>2021-04-04T08:14:52.000Z</Time>
            <Position>
              <LatitudeDegrees>42.330384291708469390869140625</LatitudeDegrees>
              <LongitudeDegrees>2.43087287060916423797607421875</LongitudeDegrees>
            </Position>
            <AltitudeMeters>1075.800048828125</AltitudeMeters>
            <DistanceMeters>NAN</DistanceMeters>
          </Trackpoint>
          <Trackpoint>
            <Time>2021-04-04T08:14:56.000Z</Time>
            <Position>
              <LatitudeDegrees>42.33038571663200855255126953125</LatitudeDegrees>
              <LongitudeDegrees>2.43087152950465679168701171875</LongitudeDegrees>
            </Position>
            <AltitudeMeters>1075.800048828125</AltitudeMeters>
            <DistanceMeters>NAN</DistanceMeters>
          </Trackpoint>
          <Trackpoint>
            <Time>2021-04-04T08:14:59.000Z</Time>
            <Position>
              <LatitudeDegrees>42.33038890175521373748779296875</LatitudeDegrees>
              <LongitudeDegrees>2.43087169714272022247314453125</LongitudeDegrees>
            </Position>
            <AltitudeMeters>1075.800048828125</AltitudeMeters>
            <DistanceMeters>NAN</DistanceMeters>
          </Trackpoint>
          <Trackpoint>
            <Time>2021-04-04T08:15:11.000Z</Time>
            <Position>
              <LatitudeDegrees>42.33039761893451213836669921875</LatitudeDegrees>
              <LongitudeDegrees>2.4308707751333713531494140625</LongitudeDegrees>
            </Position>
            <AltitudeMeters>1075.800048828125</AltitudeMeters>
            <DistanceMeters>NAN</DistanceMeters>
          </Trackpoint>
          <Trackpoint>
            <Time>2021-04-04T08:15:18.000Z</Time>
            <Position>
              <LatitudeDegrees>42.3303973674774169921875</LatitudeDegrees>
              <LongitudeDegrees>2.4308701045811176300048828125</LongitudeDegrees>
            </Position>
            <AltitudeMeters>1075.800048828125</AltitudeMeters>
            <DistanceMeters>NAN</DistanceMeters>
          </Trackpoint>
          <Trackpoint>
            <Time>2021-04-04T08:15:23.000Z</Time>
            <Position>
              <LatitudeDegrees>42.3303958587348461151123046875</LatitudeDegrees>
              <LongitudeDegrees>2.430868931114673614501953125</LongitudeDegrees>
            </Position>
            <AltitudeMeters>1075.800048828125</AltitudeMeters>
            <DistanceMeters>NAN</DistanceMeters>
          </Trackpoint>
          <Trackpoint>
            <Time>2021-04-04T08:15:33.000Z</Time>
            <Position>
              <LatitudeDegrees>42.33039309270679950714111328125</LatitudeDegrees>
              <LongitudeDegrees>2.43086381815373897552490234375</LongitudeDegrees>
            </Position>
            <AltitudeMeters>1075.800048828125</AltitudeMeters>
            <DistanceMeters>NAN</DistanceMeters>
          </Trackpoint>
          <Trackpoint>
            <Time>2021-04-04T08:15:39.000Z</Time>
            <Position>
              <LatitudeDegrees>42.3303898237645626068115234375</LatitudeDegrees>
              <LongitudeDegrees>2.43086331523954868316650390625</LongitudeDegrees>
            </Position>
            <AltitudeMeters>1075.800048828125</AltitudeMeters>
            <DistanceMeters>NAN</DistanceMeters>
          </Trackpoint>
          <Trackpoint>
            <Time>2021-04-04T08:15:47.000Z</Time>
            <Position>
              <LatitudeDegrees>42.3303871415555477142333984375</LatitudeDegrees>
              <LongitudeDegrees>2.4308633990585803985595703125</LongitudeDegrees>
            </Position>
            <AltitudeMeters>1075.800048828125</AltitudeMeters>
            <DistanceMeters>NAN</DistanceMeters>
          </Trackpoint>
          <Trackpoint>
            <Time>2021-04-04T08:15:51.000Z</Time>
            <Position>
              <LatitudeDegrees>42.3303871415555477142333984375</LatitudeDegrees>
              <LongitudeDegrees>2.43086700327694416046142578125</LongitudeDegrees>
            </Position>
            <AltitudeMeters>1075.800048828125</AltitudeMeters>
            <DistanceMeters>NAN</DistanceMeters>
          </Trackpoint>
          <Trackpoint>
            <Time>2021-04-04T08:15:54.000Z</Time>
            <Position>
              <LatitudeDegrees>42.33038730919361114501953125</LatitudeDegrees>
              <LongitudeDegrees>2.430871613323688507080078125</LongitudeDegrees>
            </Position>
            <AltitudeMeters>1075.800048828125</AltitudeMeters>
            <DistanceMeters>NAN</DistanceMeters>
          </Trackpoint>
          <Trackpoint>
            <Time>2021-04-04T08:15:55.000Z</Time>
            <Position>
              <LatitudeDegrees>42.33038739301264286041259765625</LatitudeDegrees>
              <LongitudeDegrees>2.43087404407560825347900390625</LongitudeDegrees>
            </Position>
            <AltitudeMeters>1075.800048828125</AltitudeMeters>
            <DistanceMeters>NAN</DistanceMeters>
          </Trackpoint>
          <Trackpoint>
            <Time>2021-04-04T08:16:09.000Z</Time>
            <Position>
              <LatitudeDegrees>42.33038789592683315277099609375</LatitudeDegrees>
              <LongitudeDegrees>2.43088862858712673187255859375</LongitudeDegrees>
            </Position>
            <AltitudeMeters>1075.800048828125</AltitudeMeters>
            <DistanceMeters>NAN</DistanceMeters>
          </Trackpoint>
          <Trackpoint>
            <Time>2021-04-04T08:16:11.000Z</Time>
            <Position>
              <LatitudeDegrees>42.33038789592683315277099609375</LatitudeDegrees>
              <LongitudeDegrees>2.4308892153203487396240234375</LongitudeDegrees>
            </Position>
            <AltitudeMeters>1075.800048828125</AltitudeMeters>
            <DistanceMeters>NAN</DistanceMeters>
          </Trackpoint>
          <Trackpoint>
            <Time>2021-04-04T08:16:13.000Z</Time>
            <Position>
              <LatitudeDegrees>42.3303879797458648681640625</LatitudeDegrees>
              <LongitudeDegrees>2.430889718234539031982421875</LongitudeDegrees>
            </Position>
            <AltitudeMeters>1075.800048828125</AltitudeMeters>
            <DistanceMeters>NAN</DistanceMeters>
          </Trackpoint>
          <Trackpoint>
            <Time>2021-04-04T08:16:15.000Z</Time>
            <Position>
              <LatitudeDegrees>42.3303879797458648681640625</LatitudeDegrees>
              <LongitudeDegrees>2.43088996969163417816162109375</LongitudeDegrees>
            </Position>
            <AltitudeMeters>1075.800048828125</AltitudeMeters>
            <DistanceMeters>NAN</DistanceMeters>
          </Trackpoint>
          <Trackpoint>
            <Time>2021-04-04T08:16:18.000Z</Time>
            <Position>
              <LatitudeDegrees>42.33038806356489658355712890625</LatitudeDegrees>
              <LongitudeDegrees>2.4308902211487293243408203125</LongitudeDegrees>
            </Position>
            <AltitudeMeters>1075.800048828125</AltitudeMeters>
            <DistanceMeters>NAN</DistanceMeters>
          </Trackpoint>
          <Trackpoint>
            <Time>2021-04-04T08:16:22.000Z</Time>
            <Position>
              <LatitudeDegrees>42.33038806356489658355712890625</LatitudeDegrees>
              <LongitudeDegrees>2.43089030496776103973388671875</LongitudeDegrees>
            </Position>
            <AltitudeMeters>1075.800048828125</AltitudeMeters>
            <DistanceMeters>NAN</DistanceMeters>
          </Trackpoint>
          <Trackpoint>
            <Time>2021-04-04T08:16:34.000Z</Time>
            <Position>
              <LatitudeDegrees>42.33038806356489658355712890625</LatitudeDegrees>
              <LongitudeDegrees>2.430891059339046478271484375</LongitudeDegrees>
            </Position>
            <AltitudeMeters>1075.800048828125</AltitudeMeters>
            <DistanceMeters>NAN</DistanceMeters>
          </Trackpoint>
          <Trackpoint>
            <Time>2021-04-04T08:16:41.000Z</Time>
            <Position>
              <LatitudeDegrees>42.33038806356489658355712890625</LatitudeDegrees>
              <LongitudeDegrees>2.43089147843420505523681640625</LongitudeDegrees>
            </Position>
            <AltitudeMeters>1075.800048828125</AltitudeMeters>
            <DistanceMeters>NAN</DistanceMeters>
          </Trackpoint>
          <Trackpoint>
            <Time>2021-04-04T08:16:42.000Z</Time>
            <Position>
              <LatitudeDegrees>42.33038806356489658355712890625</LatitudeDegrees>
              <LongitudeDegrees>2.4308915622532367706298828125</LongitudeDegrees>
            </Position>
            <AltitudeMeters>1075.800048828125</AltitudeMeters>
            <DistanceMeters>NAN</DistanceMeters>
          </Trackpoint>
          <Trackpoint>
            <Time>2021-04-04T08:17:03.000Z</Time>
            <Position>
              <LatitudeDegrees>42.33038756065070629119873046875</LatitudeDegrees>
              <LongitudeDegrees>2.4308922328054904937744140625</LongitudeDegrees>
            </Position>
            <AltitudeMeters>1075.800048828125</AltitudeMeters>
            <DistanceMeters>NAN</DistanceMeters>
          </Trackpoint>
          <Trackpoint>
            <Time>2021-04-04T08:17:13.000Z</Time>
            <Position>
              <LatitudeDegrees>42.33038722537457942962646484375</LatitudeDegrees>
              <LongitudeDegrees>2.43089231662452220916748046875</LongitudeDegrees>
            </Position>
            <AltitudeMeters>1075.800048828125</AltitudeMeters>
            <DistanceMeters>NAN</DistanceMeters>
          </Trackpoint>
          <Trackpoint>
            <Time>2021-04-04T08:17:32.000Z</Time>
            <Position>
              <LatitudeDegrees>42.3303868062794208526611328125</LatitudeDegrees>
              <LongitudeDegrees>2.43089206516742706298828125</LongitudeDegrees>
            </Position>
            <AltitudeMeters>1075.800048828125</AltitudeMeters>
            <DistanceMeters>NAN</DistanceMeters>
          </Trackpoint>
          <Trackpoint>
            <Time>2021-04-04T08:17:34.000Z</Time>
            <Position>
              <LatitudeDegrees>42.3303868062794208526611328125</LatitudeDegrees>
              <LongitudeDegrees>2.43089198134839534759521484375</LongitudeDegrees>
            </Position>
            <AltitudeMeters>1075.800048828125</AltitudeMeters>
            <DistanceMeters>NAN</DistanceMeters>
          </Trackpoint>
          <Trackpoint>
            <Time>2021-04-04T08:17:39.000Z</Time>
            <Position>
              <LatitudeDegrees>42.3303868062794208526611328125</LatitudeDegrees>
              <LongitudeDegrees>2.4308918975293636322021484375</LongitudeDegrees>
            </Position>
            <AltitudeMeters>1075.800048828125</AltitudeMeters>
            <DistanceMeters>NAN</DistanceMeters>
          </Trackpoint>
          <Trackpoint>
            <Time>2021-04-04T08:17:57.000Z</Time>
            <Position>
              <LatitudeDegrees>42.33038689009845256805419921875</LatitudeDegrees>
              <LongitudeDegrees>2.43089114315807819366455078125</LongitudeDegrees>
            </Position>
            <AltitudeMeters>1075.800048828125</AltitudeMeters>
            <DistanceMeters>NAN</DistanceMeters>
          </Trackpoint>
          <Trackpoint>
            <Time>2021-04-04T08:18:11.000Z</Time>
            <Position>
              <LatitudeDegrees>42.330386973917484283447265625</LatitudeDegrees>
              <LongitudeDegrees>2.43089047260582447052001953125</LongitudeDegrees>
            </Position>
            <AltitudeMeters>1075.800048828125</AltitudeMeters>
            <DistanceMeters>NAN</DistanceMeters>
          </Trackpoint>
          <Trackpoint>
            <Time>2021-04-04T08:18:12.000Z</Time>
            <Position>
              <LatitudeDegrees>42.330386973917484283447265625</LatitudeDegrees>
              <LongitudeDegrees>2.43089047260582447052001953125</LongitudeDegrees>
            </Position>
            <AltitudeMeters>1075.800048828125</AltitudeMeters>
            <DistanceMeters>NAN</DistanceMeters>
          </Trackpoint>
          <Trackpoint>
            <Time>2021-04-04T08:18:18.000Z</Time>
            <Position>
              <LatitudeDegrees>42.33038705773651599884033203125</LatitudeDegrees>
              <LongitudeDegrees>2.4308902211487293243408203125</LongitudeDegrees>
            </Position>
            <AltitudeMeters>1075.800048828125</AltitudeMeters>
            <DistanceMeters>NAN</DistanceMeters>
          </Trackpoint>
          <Trackpoint>
            <Time>2021-04-04T08:18:48.000Z</Time>
            <Position>
              <LatitudeDegrees>42.33038806356489658355712890625</LatitudeDegrees>
              <LongitudeDegrees>2.4308892153203487396240234375</LongitudeDegrees>
            </Position>
            <AltitudeMeters>1075.800048828125</AltitudeMeters>
            <DistanceMeters>NAN</DistanceMeters>
          </Trackpoint>
          <Trackpoint>
            <Time>2021-04-04T08:18:58.000Z</Time>
            <Position>
              <LatitudeDegrees>42.33038839884102344512939453125</LatitudeDegrees>
              <LongitudeDegrees>2.4308888800442218780517578125</LongitudeDegrees>
            </Position>
            <AltitudeMeters>1075.800048828125</AltitudeMeters>
            <DistanceMeters>NAN</DistanceMeters>
          </Trackpoint>
          <Trackpoint>
            <Time>2021-04-04T08:19:15.000Z</Time>
            <Position>
              <LatitudeDegrees>42.33038890175521373748779296875</LatitudeDegrees>
              <LongitudeDegrees>2.43088846094906330108642578125</LongitudeDegrees>
            </Position>
            <AltitudeMeters>1075.800048828125</AltitudeMeters>
            <DistanceMeters>NAN</DistanceMeters>
          </Trackpoint>
          <Trackpoint>
            <Time>2021-04-04T08:19:24.000Z</Time>
            <Position>
              <LatitudeDegrees>42.33038906939327716827392578125</LatitudeDegrees>
              <LongitudeDegrees>2.430888377130031585693359375</LongitudeDegrees>
            </Position>
            <AltitudeMeters>1075.800048828125</AltitudeMeters>
            <DistanceMeters>NAN</DistanceMeters>
          </Trackpoint>
          <Trackpoint>
            <Time>2021-04-04T08:19:35.000Z</Time>
            <Position>
              <LatitudeDegrees>42.3303891532123088836669921875</LatitudeDegrees>
              <LongitudeDegrees>2.43088812567293643951416015625</LongitudeDegrees>
            </Position>
            <AltitudeMeters>1075.800048828125</AltitudeMeters>
            <DistanceMeters>NAN</DistanceMeters>
          </Trackpoint>
          <Trackpoint>
            <Time>2021-04-04T08:19:38.000Z</Time>
            <Position>
              <LatitudeDegrees>42.3303891532123088836669921875</LatitudeDegrees>
              <LongitudeDegrees>2.43088804185390472412109375</LongitudeDegrees>
            </Position>
            <AltitudeMeters>1075.800048828125</AltitudeMeters>
            <DistanceMeters>NAN</DistanceMeters>
          </Trackpoint>
          <Trackpoint>
            <Time>2021-04-04T08:19:40.000Z</Time>
            <Position>
              <LatitudeDegrees>42.33038906939327716827392578125</LatitudeDegrees>
              <LongitudeDegrees>2.43088795803487300872802734375</LongitudeDegrees>
            </Position>
            <AltitudeMeters>1075.800048828125</AltitudeMeters>
            <DistanceMeters>NAN</DistanceMeters>
          </Trackpoint>
          <Trackpoint>
            <Time>2021-04-04T08:19:52.000Z</Time>
            <Position>
              <LatitudeDegrees>42.33038906939327716827392578125</LatitudeDegrees>
              <LongitudeDegrees>2.4308875389397144317626953125</LongitudeDegrees>
            </Position>
            <AltitudeMeters>1075.800048828125</AltitudeMeters>
            <DistanceMeters>NAN</DistanceMeters>
          </Trackpoint>
          <Trackpoint>
            <Time>2021-04-04T08:20:08.000Z</Time>
            <Position>
              <LatitudeDegrees>42.33038906939327716827392578125</LatitudeDegrees>
              <LongitudeDegrees>2.4308868683874607086181640625</LongitudeDegrees>
            </Position>
            <AltitudeMeters>1075.800048828125</AltitudeMeters>
            <DistanceMeters>NAN</DistanceMeters>
          </Trackpoint>
          <Trackpoint>
            <Time>2021-04-04T08:20:11.000Z</Time>
            <Position>
              <LatitudeDegrees>42.33038906939327716827392578125</LatitudeDegrees>
              <LongitudeDegrees>2.43088670074939727783203125</LongitudeDegrees>
            </Position>
            <AltitudeMeters>1075.800048828125</AltitudeMeters>
            <DistanceMeters>NAN</DistanceMeters>
          </Trackpoint>
          <Trackpoint>
            <Time>2021-04-04T08:20:14.000Z</Time>
            <Position>
              <LatitudeDegrees>42.33038906939327716827392578125</LatitudeDegrees>
              <LongitudeDegrees>2.43088661693036556243896484375</LongitudeDegrees>
            </Position>
            <AltitudeMeters>1075.800048828125</AltitudeMeters>
            <DistanceMeters>NAN</DistanceMeters>
          </Trackpoint>
          <Trackpoint>
            <Time>2021-04-04T08:20:17.000Z</Time>
            <Position>
              <LatitudeDegrees>42.3303891532123088836669921875</LatitudeDegrees>
              <LongitudeDegrees>2.43088644929230213165283203125</LongitudeDegrees>
            </Position>
            <AltitudeMeters>1075.800048828125</AltitudeMeters>
            <DistanceMeters>NAN</DistanceMeters>
          </Trackpoint>
          <Trackpoint>
            <Time>2021-04-04T08:20:19.000Z</Time>
            <Position>
              <LatitudeDegrees>42.3303891532123088836669921875</LatitudeDegrees>
              <LongitudeDegrees>2.430886365473270416259765625</LongitudeDegrees>
            </Position>
            <AltitudeMeters>1075.800048828125</AltitudeMeters>
            <DistanceMeters>NAN</DistanceMeters>
          </Trackpoint>
          <Trackpoint>
            <Time>2021-04-04T08:20:34.000Z</Time>
            <Position>
              <LatitudeDegrees>42.3303894884884357452392578125</LatitudeDegrees>
              <LongitudeDegrees>2.43088577874004840850830078125</LongitudeDegrees>
            </Position>
            <AltitudeMeters>1075.800048828125</AltitudeMeters>
            <DistanceMeters>NAN</DistanceMeters>
          </Trackpoint>
          <Trackpoint>
            <Time>2021-04-04T08:20:55.000Z</Time>
            <Position>
              <LatitudeDegrees>42.33038990758359432220458984375</LatitudeDegrees>
              <LongitudeDegrees>2.43088510818779468536376953125</LongitudeDegrees>
            </Position>
            <AltitudeMeters>1075.800048828125</AltitudeMeters>
            <DistanceMeters>NAN</DistanceMeters>
          </Trackpoint>
          <Trackpoint>
            <Time>2021-04-04T08:21:04.000Z</Time>
            <Position>
              <LatitudeDegrees>42.3303898237645626068115234375</LatitudeDegrees>
              <LongitudeDegrees>2.43088477291166782379150390625</LongitudeDegrees>
            </Position>
            <AltitudeMeters>1075.800048828125</AltitudeMeters>
            <DistanceMeters>NAN</DistanceMeters>
          </Trackpoint>
          <Trackpoint>
            <Time>2021-04-04T08:21:09.000Z</Time>
            <Position>
              <LatitudeDegrees>42.3303898237645626068115234375</LatitudeDegrees>
              <LongitudeDegrees>2.43088460527360439300537109375</LongitudeDegrees>
            </Position>
            <AltitudeMeters>1075.800048828125</AltitudeMeters>
            <DistanceMeters>NAN</DistanceMeters>
          </Trackpoint>
          <Trackpoint>
            <Time>2021-04-04T08:21:22.000Z</Time>
            <Position>
              <LatitudeDegrees>42.33038973994553089141845703125</LatitudeDegrees>
              <LongitudeDegrees>2.43088410235941410064697265625</LongitudeDegrees>
            </Position>
            <AltitudeMeters>1075.800048828125</AltitudeMeters>
            <DistanceMeters>NAN</DistanceMeters>
          </Trackpoint>
          <Trackpoint>
            <Time>2021-04-04T08:21:47.000Z</Time>
            <Position>
              <LatitudeDegrees>42.33038906939327716827392578125</LatitudeDegrees>
              <LongitudeDegrees>2.43088343180716037750244140625</LongitudeDegrees>
            </Position>
            <AltitudeMeters>1075.800048828125</AltitudeMeters>
            <DistanceMeters>NAN</DistanceMeters>
          </Trackpoint>
          <Trackpoint>
            <Time>2021-04-04T08:21:50.000Z</Time>
            <Position>
              <LatitudeDegrees>42.330388985574245452880859375</LatitudeDegrees>
              <LongitudeDegrees>2.430883347988128662109375</LongitudeDegrees>
            </Position>
            <AltitudeMeters>1075.800048828125</AltitudeMeters>
            <DistanceMeters>NAN</DistanceMeters>
          </Trackpoint>
          <Trackpoint>
            <Time>2021-04-04T08:22:05.000Z</Time>
            <Position>
              <LatitudeDegrees>42.33038856647908687591552734375</LatitudeDegrees>
              <LongitudeDegrees>2.43088292889297008514404296875</LongitudeDegrees>
            </Position>
            <AltitudeMeters>1075.800048828125</AltitudeMeters>
            <DistanceMeters>NAN</DistanceMeters>
          </Trackpoint>
          <Trackpoint>
            <Time>2021-04-04T08:22:07.000Z</Time>
            <Position>
              <LatitudeDegrees>42.3303884826600551605224609375</LatitudeDegrees>
              <LongitudeDegrees>2.4308828450739383697509765625</LongitudeDegrees>
            </Position>
            <AltitudeMeters>1075.800048828125</AltitudeMeters>
            <DistanceMeters>NAN</DistanceMeters>
          </Trackpoint>
          <Trackpoint>
            <Time>2021-04-04T08:22:18.000Z</Time>
            <Position>
              <LatitudeDegrees>42.33038839884102344512939453125</LatitudeDegrees>
              <LongitudeDegrees>2.4308825097978115081787109375</LongitudeDegrees>
            </Position>
            <AltitudeMeters>1075.800048828125</AltitudeMeters>
            <DistanceMeters>NAN</DistanceMeters>
          </Trackpoint>
          <Trackpoint>
            <Time>2021-04-04T08:22:32.000Z</Time>
            <Position>
              <LatitudeDegrees>42.33038839884102344512939453125</LatitudeDegrees>
              <LongitudeDegrees>2.4308821745216846466064453125</LongitudeDegrees>
            </Position>
            <AltitudeMeters>1075.800048828125</AltitudeMeters>
            <DistanceMeters>NAN</DistanceMeters>
          </Trackpoint>
          <Trackpoint>
            <Time>2021-04-04T08:22:49.000Z</Time>
            <Position>
              <LatitudeDegrees>42.3303879797458648681640625</LatitudeDegrees>
              <LongitudeDegrees>2.43088192306458950042724609375</LongitudeDegrees>
            </Position>
            <AltitudeMeters>1075.800048828125</AltitudeMeters>
            <DistanceMeters>NAN</DistanceMeters>
          </Trackpoint>
          <Trackpoint>
            <Time>2021-04-04T08:22:55.000Z</Time>
            <Position>
              <LatitudeDegrees>42.3303878121078014373779296875</LatitudeDegrees>
              <LongitudeDegrees>2.43088175542652606964111328125</LongitudeDegrees>
            </Position>
            <AltitudeMeters>1075.800048828125</AltitudeMeters>
            <DistanceMeters>NAN</DistanceMeters>
          </Trackpoint>
          <Trackpoint>
            <Time>2021-04-04T08:22:58.000Z</Time>
            <Position>
              <LatitudeDegrees>42.33038772828876972198486328125</LatitudeDegrees>
              <LongitudeDegrees>2.430881671607494354248046875</LongitudeDegrees>
            </Position>
            <AltitudeMeters>1075.800048828125</AltitudeMeters>
            <DistanceMeters>NAN</DistanceMeters>
          </Trackpoint>
          <Trackpoint>
            <Time>2021-04-04T08:23:04.000Z</Time>
            <Position>
              <LatitudeDegrees>42.33042846433818340301513671875</LatitudeDegrees>
              <LongitudeDegrees>2.43081570602953433990478515625</LongitudeDegrees>
            </Position>
            <AltitudeMeters>1075.800048828125</AltitudeMeters>
            <DistanceMeters>NAN</DistanceMeters>
          </Trackpoint>
          <Trackpoint>
            <Time>2021-04-04T08:23:09.000Z</Time>
            <Position>
              <LatitudeDegrees>42.3304780013859272003173828125</LatitudeDegrees>
              <LongitudeDegrees>2.43074345402419567108154296875</LongitudeDegrees>
            </Position>
            <AltitudeMeters>1075.800048828125</AltitudeMeters>
            <DistanceMeters>NAN</DistanceMeters>
          </Trackpoint>
          <Trackpoint>
            <Time>2021-04-04T08:23:13.000Z</Time>
            <Position>
              <LatitudeDegrees>42.330507002770900726318359375</LatitudeDegrees>
              <LongitudeDegrees>2.430705316364765167236328125</LongitudeDegrees>
            </Position>
            <AltitudeMeters>1075.800048828125</AltitudeMeters>
            <DistanceMeters>NAN</DistanceMeters>
          </Trackpoint>
          <Trackpoint>
            <Time>2021-04-04T08:23:14.000Z</Time>
            <Position>
              <LatitudeDegrees>42.33050775714218616485595703125</LatitudeDegrees>
              <LongitudeDegrees>2.43069601245224475860595703125</LongitudeDegrees>
            </Position>
            <AltitudeMeters>1075.5999755859375</AltitudeMeters>
            <DistanceMeters>NAN</DistanceMeters>
          </Trackpoint>
          <Trackpoint>
            <Time>2021-04-04T08:23:16.000Z</Time>
            <Position>
              <LatitudeDegrees>42.3304987885057926177978515625</LatitudeDegrees>
              <LongitudeDegrees>2.43068017065525054931640625</LongitudeDegrees>
            </Position>
            <AltitudeMeters>1075.4000244140625</AltitudeMeters>
            <DistanceMeters>NAN</DistanceMeters>
          </Trackpoint>
          <Trackpoint>
            <Time>2021-04-04T08:23:19.000Z</Time>
            <Position>
              <LatitudeDegrees>42.33047490008175373077392578125</LatitudeDegrees>
              <LongitudeDegrees>2.43065896444022655487060546875</LongitudeDegrees>
            </Position>
            <AltitudeMeters>1075.4000244140625</AltitudeMeters>
            <DistanceMeters>NAN</DistanceMeters>
          </Trackpoint>
          <Trackpoint>
            <Time>2021-04-04T08:23:28.000Z</Time>
            <Position>
              <LatitudeDegrees>42.33038605190813541412353515625</LatitudeDegrees>
              <LongitudeDegrees>2.43067723698914051055908203125</LongitudeDegrees>
            </Position>
            <AltitudeMeters>1075</AltitudeMeters>
            <DistanceMeters>NAN</DistanceMeters>
          </Trackpoint>
          <Trackpoint>
            <Time>2021-04-04T08:23:34.000Z</Time>
            <Position>
              <LatitudeDegrees>42.3303130455315113067626953125</LatitudeDegrees>
              <LongitudeDegrees>2.4307064898312091827392578125</LongitudeDegrees>
            </Position>
            <AltitudeMeters>1075.199951171875</AltitudeMeters>
            <DistanceMeters>NAN</DistanceMeters>
          </Trackpoint>
          <Trackpoint>
            <Time>2021-04-04T08:23:37.000Z</Time>
            <Position>
              <LatitudeDegrees>42.33027826063334941864013671875</LatitudeDegrees>
              <LongitudeDegrees>2.43071638047695159912109375</LongitudeDegrees>
            </Position>
            <AltitudeMeters>1074.800048828125</AltitudeMeters>
            <DistanceMeters>NAN</DistanceMeters>
          </Trackpoint>
          <Trackpoint>
            <Time>2021-04-04T08:23:38.000Z</Time>
            <Position>
              <LatitudeDegrees>42.33026887290179729461669921875</LatitudeDegrees>
              <LongitudeDegrees>2.43071747012436389923095703125</LongitudeDegrees>
            </Position>
            <AltitudeMeters>1074.800048828125</AltitudeMeters>
            <DistanceMeters>NAN</DistanceMeters>
          </Trackpoint>
          <Trackpoint>
            <Time>2021-04-04T08:23:40.000Z</Time>
            <Position>
              <LatitudeDegrees>42.330244816839694976806640625</LatitudeDegrees>
              <LongitudeDegrees>2.43072249926626682281494140625</LongitudeDegrees>
            </Position>
            <AltitudeMeters>1076</AltitudeMeters>
            <DistanceMeters>NAN</DistanceMeters>
          </Trackpoint>
          <Trackpoint>
            <Time>2021-04-04T08:23:48.000Z</Time>
            <Position>
              <LatitudeDegrees>42.33017600141465663909912109375</LatitudeDegrees>
              <LongitudeDegrees>2.43074697442352771759033203125</LongitudeDegrees>
            </Position>
            <AltitudeMeters>1076</AltitudeMeters>
            <DistanceMeters>NAN</DistanceMeters>
          </Trackpoint>
          <Trackpoint>
            <Time>2021-04-04T08:23:55.000Z</Time>
            <Position>
              <LatitudeDegrees>42.3300937749445438385009765625</LatitudeDegrees>
              <LongitudeDegrees>2.43078745901584625244140625</LongitudeDegrees>
            </Position>
            <AltitudeMeters>1075.5999755859375</AltitudeMeters>
            <DistanceMeters>NAN</DistanceMeters>
          </Trackpoint>
          <Trackpoint>
            <Time>2021-04-04T08:24:00.000Z</Time>
            <Position>
              <LatitudeDegrees>42.3300527036190032958984375</LatitudeDegrees>
              <LongitudeDegrees>2.430797182023525238037109375</LongitudeDegrees>
            </Position>
            <AltitudeMeters>1075.4000244140625</AltitudeMeters>
            <DistanceMeters>NAN</DistanceMeters>
          </Trackpoint>
          <Trackpoint>
            <Time>2021-04-04T08:24:01.000Z</Time>
            <Position>
              <LatitudeDegrees>42.3300339281558990478515625</LatitudeDegrees>
              <LongitudeDegrees>2.43078209459781646728515625</LongitudeDegrees>
            </Position>
            <AltitudeMeters>1075.199951171875</AltitudeMeters>
            <DistanceMeters>NAN</DistanceMeters>
          </Trackpoint>
          <Trackpoint>
            <Time>2021-04-04T08:24:02.000Z</Time>
            <Position>
              <LatitudeDegrees>42.33002764172852039337158203125</LatitudeDegrees>
              <LongitudeDegrees>2.430772371590137481689453125</LongitudeDegrees>
            </Position>
            <AltitudeMeters>1075.199951171875</AltitudeMeters>
            <DistanceMeters>NAN</DistanceMeters>
          </Trackpoint>
          <Trackpoint>
            <Time>2021-04-04T08:24:03.000Z</Time>
            <Position>
              <LatitudeDegrees>42.3300205171108245849609375</LatitudeDegrees>
              <LongitudeDegrees>2.43076264858245849609375</LongitudeDegrees>
            </Position>
            <AltitudeMeters>1075.199951171875</AltitudeMeters>
            <DistanceMeters>NAN</DistanceMeters>
          </Trackpoint>
          <Trackpoint>
            <Time>2021-04-04T08:24:04.000Z</Time>
            <Position>
              <LatitudeDegrees>42.3300205171108245849609375</LatitudeDegrees>
              <LongitudeDegrees>2.43076264858245849609375</LongitudeDegrees>
            </Position>
            <AltitudeMeters>1075.199951171875</AltitudeMeters>
            <DistanceMeters>NAN</DistanceMeters>
          </Trackpoint>
          <Trackpoint>
            <Time>2021-04-04T08:24:10.000Z</Time>
            <Position>
              <LatitudeDegrees>42.3299677111208438873291015625</LatitudeDegrees>
              <LongitudeDegrees>2.43072484619915485382080078125</LongitudeDegrees>
            </Position>
            <AltitudeMeters>1076.4000244140625</AltitudeMeters>
            <DistanceMeters>NAN</DistanceMeters>
          </Trackpoint>
          <Trackpoint>
            <Time>2021-04-04T08:24:16.000Z</Time>
            <Position>
              <LatitudeDegrees>42.32995086349546909332275390625</LatitudeDegrees>
              <LongitudeDegrees>2.430674470961093902587890625</LongitudeDegrees>
            </Position>
            <AltitudeMeters>1076.199951171875</AltitudeMeters>
            <DistanceMeters>NAN</DistanceMeters>
          </Trackpoint>
          <Trackpoint>
            <Time>2021-04-04T08:24:24.000Z</Time>
            <Position>
              <LatitudeDegrees>42.32999830506742000579833984375</LatitudeDegrees>
              <LongitudeDegrees>2.43060330860316753387451171875</LongitudeDegrees>
            </Position>
            <AltitudeMeters>1076.800048828125</AltitudeMeters>
            <DistanceMeters>NAN</DistanceMeters>
          </Trackpoint>
          <Trackpoint>
            <Time>2021-04-04T08:24:26.000Z</Time>
            <Position>
              <LatitudeDegrees>42.33001448214054107666015625</LatitudeDegrees>
              <LongitudeDegrees>2.4305864609777927398681640625</LongitudeDegrees>
            </Position>
            <AltitudeMeters>1077</AltitudeMeters>
            <DistanceMeters>NAN</DistanceMeters>
          </Trackpoint>
          <Trackpoint>
            <Time>2021-04-04T08:24:28.000Z</Time>
            <Position>
              <LatitudeDegrees>42.33003451488912105560302734375</LatitudeDegrees>
              <LongitudeDegrees>2.4305760674178600311279296875</LongitudeDegrees>
            </Position>
            <AltitudeMeters>1076</AltitudeMeters>
            <DistanceMeters>NAN</DistanceMeters>
          </Trackpoint>
          <Trackpoint>
            <Time>2021-04-04T08:24:30.000Z</Time>
            <Position>
              <LatitudeDegrees>42.3300458304584026336669921875</LatitudeDegrees>
              <LongitudeDegrees>2.43056927807629108428955078125</LongitudeDegrees>
            </Position>
            <AltitudeMeters>1076</AltitudeMeters>
            <DistanceMeters>NAN</DistanceMeters>
          </Trackpoint>
          <Trackpoint>
            <Time>2021-04-04T08:24:33.000Z</Time>
            <Position>
              <LatitudeDegrees>42.3300602473318576812744140625</LatitudeDegrees>
              <LongitudeDegrees>2.43056123144924640655517578125</LongitudeDegrees>
            </Position>
            <AltitudeMeters>1075.800048828125</AltitudeMeters>
            <DistanceMeters>NAN</DistanceMeters>
          </Trackpoint>
          <Trackpoint>
            <Time>2021-04-04T08:24:35.000Z</Time>
            <Position>
              <LatitudeDegrees>42.33006837777793407440185546875</LatitudeDegrees>
              <LongitudeDegrees>2.43055544793605804443359375</LongitudeDegrees>
            </Position>
            <AltitudeMeters>1075.800048828125</AltitudeMeters>
            <DistanceMeters>NAN</DistanceMeters>
          </Trackpoint>
          <Trackpoint>
            <Time>2021-04-04T08:24:37.000Z</Time>
            <Position>
              <LatitudeDegrees>42.33007424511015415191650390625</LatitudeDegrees>
              <LongitudeDegrees>2.43055385537445545196533203125</LongitudeDegrees>
            </Position>
            <AltitudeMeters>1075.800048828125</AltitudeMeters>
            <DistanceMeters>NAN</DistanceMeters>
          </Trackpoint>
          <Trackpoint>
            <Time>2021-04-04T08:24:43.000Z</Time>
            <Position>
              <LatitudeDegrees>42.33007709495723247528076171875</LatitudeDegrees>
              <LongitudeDegrees>2.43054396472871303558349609375</LongitudeDegrees>
            </Position>
            <AltitudeMeters>1075.800048828125</AltitudeMeters>
            <DistanceMeters>NAN</DistanceMeters>
          </Trackpoint>
          <Trackpoint>
            <Time>2021-04-04T08:24:48.000Z</Time>
            <Position>
              <LatitudeDegrees>42.33011431060731410980224609375</LatitudeDegrees>
              <LongitudeDegrees>2.4305386841297149658203125</LongitudeDegrees>
            </Position>
            <AltitudeMeters>1076</AltitudeMeters>
            <DistanceMeters>NAN</DistanceMeters>
          </Trackpoint>
          <Trackpoint>
            <Time>2021-04-04T08:24:50.000Z</Time>
            <Position>
              <LatitudeDegrees>42.3301197588443756103515625</LatitudeDegrees>
              <LongitudeDegrees>2.43054337799549102783203125</LongitudeDegrees>
            </Position>
            <AltitudeMeters>1076.199951171875</AltitudeMeters>
            <DistanceMeters>NAN</DistanceMeters>
          </Trackpoint>
          <Trackpoint>
            <Time>2021-04-04T08:25:01.000Z</Time>
            <Position>
              <LatitudeDegrees>42.3301827907562255859375</LatitudeDegrees>
              <LongitudeDegrees>2.4305199086666107177734375</LongitudeDegrees>
            </Position>
            <AltitudeMeters>1076.800048828125</AltitudeMeters>
            <DistanceMeters>NAN</DistanceMeters>
          </Trackpoint>
          <Trackpoint>
            <Time>2021-04-04T08:25:04.000Z</Time>
            <Position>
              <LatitudeDegrees>42.33020500279963016510009765625</LatitudeDegrees>
              <LongitudeDegrees>2.43051412515342235565185546875</LongitudeDegrees>
            </Position>
            <AltitudeMeters>1077</AltitudeMeters>
            <DistanceMeters>NAN</DistanceMeters>
          </Trackpoint>
          <Trackpoint>
            <Time>2021-04-04T08:25:13.000Z</Time>
            <Position>
              <LatitudeDegrees>42.33026937581598758697509765625</LatitudeDegrees>
              <LongitudeDegrees>2.43048964999616146087646484375</LongitudeDegrees>
            </Position>
            <AltitudeMeters>1077.5999755859375</AltitudeMeters>
            <DistanceMeters>NAN</DistanceMeters>
          </Trackpoint>
          <Trackpoint>
            <Time>2021-04-04T08:25:16.000Z</Time>
            <Position>
              <LatitudeDegrees>42.33028806746006011962890625</LatitudeDegrees>
              <LongitudeDegrees>2.4304825253784656524658203125</LongitudeDegrees>
            </Position>
            <AltitudeMeters>1077.800048828125</AltitudeMeters>
            <DistanceMeters>NAN</DistanceMeters>
          </Trackpoint>
          <Trackpoint>
            <Time>2021-04-04T08:25:21.000Z</Time>
            <Position>
              <LatitudeDegrees>42.33030927367508411407470703125</LatitudeDegrees>
              <LongitudeDegrees>2.430489398539066314697265625</LongitudeDegrees>
            </Position>
            <AltitudeMeters>1078.199951171875</AltitudeMeters>
            <DistanceMeters>NAN</DistanceMeters>
          </Trackpoint>
          <Trackpoint>
            <Time>2021-04-04T08:25:23.000Z</Time>
            <Position>
              <LatitudeDegrees>42.33033190481364727020263671875</LatitudeDegrees>
              <LongitudeDegrees>2.4304761551320552825927734375</LongitudeDegrees>
            </Position>
            <AltitudeMeters>1078.4000244140625</AltitudeMeters>
            <DistanceMeters>NAN</DistanceMeters>
          </Trackpoint>
          <Trackpoint>
            <Time>2021-04-04T08:25:25.000Z</Time>
            <Position>
              <LatitudeDegrees>42.33034045435488224029541015625</LatitudeDegrees>
              <LongitudeDegrees>2.4304650910198688507080078125</LongitudeDegrees>
            </Position>
            <AltitudeMeters>1078.4000244140625</AltitudeMeters>
            <DistanceMeters>NAN</DistanceMeters>
          </Trackpoint>
          <Trackpoint>
            <Time>2021-04-04T08:25:26.000Z</Time>
            <Position>
              <LatitudeDegrees>42.33034045435488224029541015625</LatitudeDegrees>
              <LongitudeDegrees>2.4304650910198688507080078125</LongitudeDegrees>
            </Position>
            <AltitudeMeters>1078.5999755859375</AltitudeMeters>
            <DistanceMeters>NAN</DistanceMeters>
          </Trackpoint>
          <Trackpoint>
            <Time>2021-04-04T08:25:27.000Z</Time>
            <Position>
              <LatitudeDegrees>42.3303516022861003875732421875</LatitudeDegrees>
              <LongitudeDegrees>2.43045151233673095703125</LongitudeDegrees>
            </Position>
            <AltitudeMeters>1078.5999755859375</AltitudeMeters>
            <DistanceMeters>NAN</DistanceMeters>
          </Trackpoint>
          <Trackpoint>
            <Time>2021-04-04T08:25:29.000Z</Time>
            <Position>
              <LatitudeDegrees>42.33036660589277744293212890625</LatitudeDegrees>
              <LongitudeDegrees>2.430433742702007293701171875</LongitudeDegrees>
            </Position>
            <AltitudeMeters>1078.5999755859375</AltitudeMeters>
            <DistanceMeters>NAN</DistanceMeters>
          </Trackpoint>
          <Trackpoint>
            <Time>2021-04-04T08:25:32.000Z</Time>
            <Position>
              <LatitudeDegrees>42.33038462698459625244140625</LatitudeDegrees>
              <LongitudeDegrees>2.43041731417179107666015625</LongitudeDegrees>
            </Position>
            <AltitudeMeters>1078.800048828125</AltitudeMeters>
            <DistanceMeters>NAN</DistanceMeters>
          </Trackpoint>
          <Trackpoint>
            <Time>2021-04-04T08:25:33.000Z</Time>
            <Position>
              <LatitudeDegrees>42.33038957230746746063232421875</LatitudeDegrees>
              <LongitudeDegrees>2.43041018955409526824951171875</LongitudeDegrees>
            </Position>
            <AltitudeMeters>1079</AltitudeMeters>
            <DistanceMeters>NAN</DistanceMeters>
          </Trackpoint>
          <Trackpoint>
            <Time>2021-04-04T08:25:34.000Z</Time>
            <Position>
              <LatitudeDegrees>42.3303961940109729766845703125</LatitudeDegrees>
              <LongitudeDegrees>2.43040298111736774444580078125</LongitudeDegrees>
            </Position>
            <AltitudeMeters>1079</AltitudeMeters>
            <DistanceMeters>NAN</DistanceMeters>
          </Trackpoint>
          <Trackpoint>
            <Time>2021-04-04T08:25:35.000Z</Time>
            <Position>
              <LatitudeDegrees>42.33040080405771732330322265625</LatitudeDegrees>
              <LongitudeDegrees>2.43039744906127452850341796875</LongitudeDegrees>
            </Position>
            <AltitudeMeters>1079.199951171875</AltitudeMeters>
            <DistanceMeters>NAN</DistanceMeters>
          </Trackpoint>
          <Trackpoint>
            <Time>2021-04-04T08:25:36.000Z</Time>
            <Position>
              <LatitudeDegrees>42.33040633611381053924560546875</LatitudeDegrees>
              <LongitudeDegrees>2.4303913302719593048095703125</LongitudeDegrees>
            </Position>
            <AltitudeMeters>1079.199951171875</AltitudeMeters>
            <DistanceMeters>NAN</DistanceMeters>
          </Trackpoint>
          <Trackpoint>
            <Time>2021-04-04T08:25:38.000Z</Time>
            <Position>
              <LatitudeDegrees>42.33041203580796718597412109375</LatitudeDegrees>
              <LongitudeDegrees>2.430379092693328857421875</LongitudeDegrees>
            </Position>
            <AltitudeMeters>1079.4000244140625</AltitudeMeters>
            <DistanceMeters>NAN</DistanceMeters>
          </Trackpoint>
          <Trackpoint>
            <Time>2021-04-04T08:25:40.000Z</Time>
            <Position>
              <LatitudeDegrees>42.33042309992015361785888671875</LatitudeDegrees>
              <LongitudeDegrees>2.4303598143160343170166015625</LongitudeDegrees>
            </Position>
            <AltitudeMeters>1079.4000244140625</AltitudeMeters>
            <DistanceMeters>NAN</DistanceMeters>
          </Trackpoint>
          <Trackpoint>
            <Time>2021-04-04T08:25:42.000Z</Time>
            <Position>
              <LatitudeDegrees>42.33044271357357501983642578125</LatitudeDegrees>
              <LongitudeDegrees>2.4303299747407436370849609375</LongitudeDegrees>
            </Position>
            <AltitudeMeters>1079.5999755859375</AltitudeMeters>
            <DistanceMeters>NAN</DistanceMeters>
          </Trackpoint>
          <Trackpoint>
            <Time>2021-04-04T08:25:43.000Z</Time>
            <Position>
              <LatitudeDegrees>42.33045377768576145172119140625</LatitudeDegrees>
              <LongitudeDegrees>2.43031513877213001251220703125</LongitudeDegrees>
            </Position>
            <AltitudeMeters>1079.800048828125</AltitudeMeters>
            <DistanceMeters>NAN</DistanceMeters>
          </Trackpoint>
          <Trackpoint>
            <Time>2021-04-04T08:25:46.000Z</Time>
            <Position>
              <LatitudeDegrees>42.33047221787273883819580078125</LatitudeDegrees>
              <LongitudeDegrees>2.43028454482555389404296875</LongitudeDegrees>
            </Position>
            <AltitudeMeters>1080.199951171875</AltitudeMeters>
            <DistanceMeters>NAN</DistanceMeters>
          </Trackpoint>
          <Trackpoint>
            <Time>2021-04-04T08:25:48.000Z</Time>
            <Position>
              <LatitudeDegrees>42.33046852983534336090087890625</LatitudeDegrees>
              <LongitudeDegrees>2.430276833474636077880859375</LongitudeDegrees>
            </Position>
            <AltitudeMeters>1080.199951171875</AltitudeMeters>
            <DistanceMeters>NAN</DistanceMeters>
          </Trackpoint>
          <Trackpoint>
            <Time>2021-04-04T08:25:49.000Z</Time>
            <Position>
              <LatitudeDegrees>42.33046400360763072967529296875</LatitudeDegrees>
              <LongitudeDegrees>2.43027021177113056182861328125</LongitudeDegrees>
            </Position>
            <AltitudeMeters>1080.4000244140625</AltitudeMeters>
            <DistanceMeters>NAN</DistanceMeters>
          </Trackpoint>
          <Trackpoint>
            <Time>2021-04-04T08:25:51.000Z</Time>
            <Position>
              <LatitudeDegrees>42.330463416874408721923828125</LatitudeDegrees>
              <LongitudeDegrees>2.43026040494441986083984375</LongitudeDegrees>
            </Position>
            <AltitudeMeters>1080.4000244140625</AltitudeMeters>
            <DistanceMeters>NAN</DistanceMeters>
          </Trackpoint>
          <Trackpoint>
            <Time>2021-04-04T08:25:57.000Z</Time>
            <Position>
              <LatitudeDegrees>42.33047842048108577728271484375</LatitudeDegrees>
              <LongitudeDegrees>2.43021220900118350982666015625</LongitudeDegrees>
            </Position>
            <AltitudeMeters>1081.199951171875</AltitudeMeters>
            <DistanceMeters>NAN</DistanceMeters>
          </Trackpoint>
          <Trackpoint>
            <Time>2021-04-04T08:25:58.000Z</Time>
            <Position>
              <LatitudeDegrees>42.3304880596697330474853515625</LatitudeDegrees>
              <LongitudeDegrees>2.4301993846893310546875</LongitudeDegrees>
            </Position>
            <AltitudeMeters>1081.199951171875</AltitudeMeters>
            <DistanceMeters>NAN</DistanceMeters>
          </Trackpoint>
          <Trackpoint>
            <Time>2021-04-04T08:26:00.000Z</Time>
            <Position>
              <LatitudeDegrees>42.3304934240877628326416015625</LatitudeDegrees>
              <LongitudeDegrees>2.43018320761620998382568359375</LongitudeDegrees>
            </Position>
            <AltitudeMeters>1081.5999755859375</AltitudeMeters>
            <DistanceMeters>NAN</DistanceMeters>
          </Trackpoint>
          <Trackpoint>
            <Time>2021-04-04T08:26:04.000Z</Time>
            <Position>
              <LatitudeDegrees>42.33050289563834667205810546875</LatitudeDegrees>
              <LongitudeDegrees>2.43014347739517688751220703125</LongitudeDegrees>
            </Position>
            <AltitudeMeters>1082.199951171875</AltitudeMeters>
            <DistanceMeters>NAN</DistanceMeters>
          </Trackpoint>
          <Trackpoint>
            <Time>2021-04-04T08:26:08.000Z</Time>
            <Position>
              <LatitudeDegrees>42.33051278628408908843994140625</LatitudeDegrees>
              <LongitudeDegrees>2.4301107041537761688232421875</LongitudeDegrees>
            </Position>
            <AltitudeMeters>1082.5999755859375</AltitudeMeters>
            <DistanceMeters>NAN</DistanceMeters>
          </Trackpoint>
          <Trackpoint>
            <Time>2021-04-04T08:26:13.000Z</Time>
            <Position>
              <LatitudeDegrees>42.3305219225585460662841796875</LatitudeDegrees>
              <LongitudeDegrees>2.43007776327431201934814453125</LongitudeDegrees>
            </Position>
            <AltitudeMeters>1083.199951171875</AltitudeMeters>
            <DistanceMeters>NAN</DistanceMeters>
          </Trackpoint>
          <Trackpoint>
            <Time>2021-04-04T08:26:16.000Z</Time>
            <Position>
              <LatitudeDegrees>42.33052401803433895111083984375</LatitudeDegrees>
              <LongitudeDegrees>2.43004390038549900054931640625</LongitudeDegrees>
            </Position>
            <AltitudeMeters>1083.5999755859375</AltitudeMeters>
            <DistanceMeters>NAN</DistanceMeters>
          </Trackpoint>
          <Trackpoint>
            <Time>2021-04-04T08:26:19.000Z</Time>
            <Position>
              <LatitudeDegrees>42.33052418567240238189697265625</LatitudeDegrees>
              <LongitudeDegrees>2.4300278909504413604736328125</LongitudeDegrees>
            </Position>
            <AltitudeMeters>1084</AltitudeMeters>
            <DistanceMeters>NAN</DistanceMeters>
          </Trackpoint>
          <Trackpoint>
            <Time>2021-04-04T08:26:22.000Z</Time>
            <Position>
              <LatitudeDegrees>42.330529130995273590087890625</LatitudeDegrees>
              <LongitudeDegrees>2.43000517599284648895263671875</LongitudeDegrees>
            </Position>
            <AltitudeMeters>1084.4000244140625</AltitudeMeters>
            <DistanceMeters>NAN</DistanceMeters>
          </Trackpoint>
          <Trackpoint>
            <Time>2021-04-04T08:26:30.000Z</Time>
            <Position>
              <LatitudeDegrees>42.33052938245236873626708984375</LatitudeDegrees>
              <LongitudeDegrees>2.429904676973819732666015625</LongitudeDegrees>
            </Position>
            <AltitudeMeters>1085</AltitudeMeters>
            <DistanceMeters>NAN</DistanceMeters>
          </Trackpoint>
          <Trackpoint>
            <Time>2021-04-04T08:26:31.000Z</Time>
            <Position>
              <LatitudeDegrees>42.33052988536655902862548828125</LatitudeDegrees>
              <LongitudeDegrees>2.42989562451839447021484375</LongitudeDegrees>
            </Position>
            <AltitudeMeters>1085.199951171875</AltitudeMeters>
            <DistanceMeters>NAN</DistanceMeters>
          </Trackpoint>
          <Trackpoint>
            <Time>2021-04-04T08:26:33.000Z</Time>
            <Position>
              <LatitudeDegrees>42.3305313102900981903076171875</LatitudeDegrees>
              <LongitudeDegrees>2.42988665588200092315673828125</LongitudeDegrees>
            </Position>
            <AltitudeMeters>1085.4000244140625</AltitudeMeters>
            <DistanceMeters>NAN</DistanceMeters>
          </Trackpoint>
          <Trackpoint>
            <Time>2021-04-04T08:26:41.000Z</Time>
            <Position>
              <LatitudeDegrees>42.330544888973236083984375</LatitudeDegrees>
              <LongitudeDegrees>2.42978925816714763641357421875</LongitudeDegrees>
            </Position>
            <AltitudeMeters>1086</AltitudeMeters>
            <DistanceMeters>NAN</DistanceMeters>
          </Trackpoint>
          <Trackpoint>
            <Time>2021-04-04T08:26:42.000Z</Time>
            <Position>
              <LatitudeDegrees>42.3305474035441875457763671875</LatitudeDegrees>
              <LongitudeDegrees>2.4297774396836757659912109375</LongitudeDegrees>
            </Position>
            <AltitudeMeters>1086</AltitudeMeters>
            <DistanceMeters>NAN</DistanceMeters>
          </Trackpoint>
          <Trackpoint>
            <Time>2021-04-04T08:26:44.000Z</Time>
            <Position>
              <LatitudeDegrees>42.3305515944957733154296875</LatitudeDegrees>
              <LongitudeDegrees>2.42975757457315921783447265625</LongitudeDegrees>
            </Position>
            <AltitudeMeters>1086.4000244140625</AltitudeMeters>
            <DistanceMeters>NAN</DistanceMeters>
          </Trackpoint>
          <Trackpoint>
            <Time>2021-04-04T08:26:54.000Z</Time>
            <Position>
              <LatitudeDegrees>42.33055268414318561553955078125</LatitudeDegrees>
              <LongitudeDegrees>2.42966537363827228546142578125</LongitudeDegrees>
            </Position>
            <AltitudeMeters>1087.5999755859375</AltitudeMeters>
            <DistanceMeters>NAN</DistanceMeters>
          </Trackpoint>
          <Trackpoint>
            <Time>2021-04-04T08:26:56.000Z</Time>
            <Position>
              <LatitudeDegrees>42.33055972494184970855712890625</LatitudeDegrees>
              <LongitudeDegrees>2.429644167423248291015625</LongitudeDegrees>
            </Position>
            <AltitudeMeters>1088</AltitudeMeters>
            <DistanceMeters>NAN</DistanceMeters>
          </Trackpoint>
          <Trackpoint>
            <Time>2021-04-04T08:27:03.000Z</Time>
            <Position>
              <LatitudeDegrees>42.33056928031146526336669921875</LatitudeDegrees>
              <LongitudeDegrees>2.42956697009503841400146484375</LongitudeDegrees>
            </Position>
            <AltitudeMeters>1088.800048828125</AltitudeMeters>
            <DistanceMeters>NAN</DistanceMeters>
          </Trackpoint>
          <Trackpoint>
            <Time>2021-04-04T08:27:10.000Z</Time>
            <Position>
              <LatitudeDegrees>42.33057414181530475616455078125</LatitudeDegrees>
              <LongitudeDegrees>2.42950343526899814605712890625</LongitudeDegrees>
            </Position>
            <AltitudeMeters>1089.5999755859375</AltitudeMeters>
            <DistanceMeters>NAN</DistanceMeters>
          </Trackpoint>
          <Trackpoint>
            <Time>2021-04-04T08:27:12.000Z</Time>
            <Position>
              <LatitudeDegrees>42.33057363890111446380615234375</LatitudeDegrees>
              <LongitudeDegrees>2.42948482744395732879638671875</LongitudeDegrees>
            </Position>
            <AltitudeMeters>1089.800048828125</AltitudeMeters>
            <DistanceMeters>NAN</DistanceMeters>
          </Trackpoint>
          <Trackpoint>
            <Time>2021-04-04T08:27:19.000Z</Time>
            <Position>
              <LatitudeDegrees>42.3305836133658885955810546875</LatitudeDegrees>
              <LongitudeDegrees>2.42941123433411121368408203125</LongitudeDegrees>
            </Position>
            <AltitudeMeters>1090.5999755859375</AltitudeMeters>
            <DistanceMeters>NAN</DistanceMeters>
          </Trackpoint>
          <Trackpoint>
            <Time>2021-04-04T08:27:22.000Z</Time>
            <Position>
              <LatitudeDegrees>42.3305923305451869964599609375</LatitudeDegrees>
              <LongitudeDegrees>2.4293818138539791107177734375</LongitudeDegrees>
            </Position>
            <AltitudeMeters>1091</AltitudeMeters>
            <DistanceMeters>NAN</DistanceMeters>
          </Trackpoint>
          <Trackpoint>
            <Time>2021-04-04T08:27:27.000Z</Time>
            <Position>
              <LatitudeDegrees>42.33061152510344982147216796875</LatitudeDegrees>
              <LongitudeDegrees>2.429330013692378997802734375</LongitudeDegrees>
            </Position>
            <AltitudeMeters>1091.5999755859375</AltitudeMeters>
            <DistanceMeters>NAN</DistanceMeters>
          </Trackpoint>
          <Trackpoint>
            <Time>2021-04-04T08:27:35.000Z</Time>
            <Position>
              <LatitudeDegrees>42.3306278698146343231201171875</LatitudeDegrees>
              <LongitudeDegrees>2.42924384772777557373046875</LongitudeDegrees>
            </Position>
            <AltitudeMeters>1092.199951171875</AltitudeMeters>
            <DistanceMeters>NAN</DistanceMeters>
          </Trackpoint>
          <Trackpoint>
            <Time>2021-04-04T08:27:36.000Z</Time>
            <Position>
              <LatitudeDegrees>42.3306332342326641082763671875</LatitudeDegrees>
              <LongitudeDegrees>2.429236471652984619140625</LongitudeDegrees>
            </Position>
            <AltitudeMeters>1092.199951171875</AltitudeMeters>
            <DistanceMeters>NAN</DistanceMeters>
          </Trackpoint>
          <Trackpoint>
            <Time>2021-04-04T08:27:44.000Z</Time>
            <Position>
              <LatitudeDegrees>42.33065762557089328765869140625</LatitudeDegrees>
              <LongitudeDegrees>2.42914116941392421722412109375</LongitudeDegrees>
            </Position>
            <AltitudeMeters>1093</AltitudeMeters>
            <DistanceMeters>NAN</DistanceMeters>
          </Trackpoint>
          <Trackpoint>
            <Time>2021-04-04T08:27:45.000Z</Time>
            <Position>
              <LatitudeDegrees>42.33065611682832241058349609375</LatitudeDegrees>
              <LongitudeDegrees>2.42912407033145427703857421875</LongitudeDegrees>
            </Position>
            <AltitudeMeters>1093.199951171875</AltitudeMeters>
            <DistanceMeters>NAN</DistanceMeters>
          </Trackpoint>
          <Trackpoint>
            <Time>2021-04-04T08:27:52.000Z</Time>
            <Position>
              <LatitudeDegrees>42.33067053370177745819091796875</LatitudeDegrees>
              <LongitudeDegrees>2.42906120605766773223876953125</LongitudeDegrees>
            </Position>
            <AltitudeMeters>1094</AltitudeMeters>
            <DistanceMeters>NAN</DistanceMeters>
          </Trackpoint>
          <Trackpoint>
            <Time>2021-04-04T08:27:53.000Z</Time>
            <Position>
              <LatitudeDegrees>42.33067422173917293548583984375</LatitudeDegrees>
              <LongitudeDegrees>2.4290532432496547698974609375</LongitudeDegrees>
            </Position>
            <AltitudeMeters>1094.199951171875</AltitudeMeters>
            <DistanceMeters>NAN</DistanceMeters>
          </Trackpoint>
          <Trackpoint>
            <Time>2021-04-04T08:27:55.000Z</Time>
            <Position>
              <LatitudeDegrees>42.33066835440695285797119140625</LatitudeDegrees>
              <LongitudeDegrees>2.4290405027568340301513671875</LongitudeDegrees>
            </Position>
            <AltitudeMeters>1094.4000244140625</AltitudeMeters>
            <DistanceMeters>NAN</DistanceMeters>
          </Trackpoint>
          <Trackpoint>
            <Time>2021-04-04T08:28:00.000Z</Time>
            <Position>
              <LatitudeDegrees>42.3306727968156337738037109375</LatitudeDegrees>
              <LongitudeDegrees>2.42900018580257892608642578125</LongitudeDegrees>
            </Position>
            <AltitudeMeters>1095</AltitudeMeters>
            <DistanceMeters>NAN</DistanceMeters>
          </Trackpoint>
          <Trackpoint>
            <Time>2021-04-04T08:28:03.000Z</Time>
            <Position>
              <LatitudeDegrees>42.33067690394818782806396484375</LatitudeDegrees>
              <LongitudeDegrees>2.42897093296051025390625</LongitudeDegrees>
            </Position>
            <AltitudeMeters>1095.4000244140625</AltitudeMeters>
            <DistanceMeters>NAN</DistanceMeters>
          </Trackpoint>
          <Trackpoint>
            <Time>2021-04-04T08:28:06.000Z</Time>
            <Position>
              <LatitudeDegrees>42.3306808434426784515380859375</LatitudeDegrees>
              <LongitudeDegrees>2.428948469460010528564453125</LongitudeDegrees>
            </Position>
            <AltitudeMeters>1095.5999755859375</AltitudeMeters>
            <DistanceMeters>NAN</DistanceMeters>
          </Trackpoint>
          <Trackpoint>
            <Time>2021-04-04T08:28:10.000Z</Time>
            <Position>
              <LatitudeDegrees>42.3306875489652156829833984375</LatitudeDegrees>
              <LongitudeDegrees>2.428910247981548309326171875</LongitudeDegrees>
            </Position>
            <AltitudeMeters>1096.199951171875</AltitudeMeters>
            <DistanceMeters>NAN</DistanceMeters>
          </Trackpoint>
          <Trackpoint>
            <Time>2021-04-04T08:28:12.000Z</Time>
            <Position>
              <LatitudeDegrees>42.33069249428808689117431640625</LatitudeDegrees>
              <LongitudeDegrees>2.42888602428138256072998046875</LongitudeDegrees>
            </Position>
            <AltitudeMeters>1096.199951171875</AltitudeMeters>
            <DistanceMeters>NAN</DistanceMeters>
          </Trackpoint>
          <Trackpoint>
            <Time>2021-04-04T08:28:13.000Z</Time>
            <Position>
              <LatitudeDegrees>42.3306935839354991912841796875</LatitudeDegrees>
              <LongitudeDegrees>2.428875379264354705810546875</LongitudeDegrees>
            </Position>
            <AltitudeMeters>1096.4000244140625</AltitudeMeters>
            <DistanceMeters>NAN</DistanceMeters>
          </Trackpoint>
          <Trackpoint>
            <Time>2021-04-04T08:28:15.000Z</Time>
            <Position>
              <LatitudeDegrees>42.33069752342998981475830078125</LatitudeDegrees>
              <LongitudeDegrees>2.4288517422974109649658203125</LongitudeDegrees>
            </Position>
            <AltitudeMeters>1096.5999755859375</AltitudeMeters>
            <DistanceMeters>NAN</DistanceMeters>
          </Trackpoint>
          <Trackpoint>
            <Time>2021-04-04T08:28:17.000Z</Time>
            <Position>
              <LatitudeDegrees>42.33070372603833675384521484375</LatitudeDegrees>
              <LongitudeDegrees>2.42883154191076755523681640625</LongitudeDegrees>
            </Position>
            <AltitudeMeters>1096.5999755859375</AltitudeMeters>
            <DistanceMeters>NAN</DistanceMeters>
          </Trackpoint>
          <Trackpoint>
            <Time>2021-04-04T08:28:18.000Z</Time>
            <Position>
              <LatitudeDegrees>42.33070783317089080810546875</LatitudeDegrees>
              <LongitudeDegrees>2.42881829850375652313232421875</LongitudeDegrees>
            </Position>
            <AltitudeMeters>1096.5999755859375</AltitudeMeters>
            <DistanceMeters>NAN</DistanceMeters>
          </Trackpoint>
          <Trackpoint>
            <Time>2021-04-04T08:28:22.000Z</Time>
            <Position>
              <LatitudeDegrees>42.33071881346404552459716796875</LatitudeDegrees>
              <LongitudeDegrees>2.4287689290940761566162109375</LongitudeDegrees>
            </Position>
            <AltitudeMeters>1097</AltitudeMeters>
            <DistanceMeters>NAN</DistanceMeters>
          </Trackpoint>
          <Trackpoint>
            <Time>2021-04-04T08:28:26.000Z</Time>
            <Position>
              <LatitudeDegrees>42.33074043877422809600830078125</LatitudeDegrees>
              <LongitudeDegrees>2.4287317134439945220947265625</LongitudeDegrees>
            </Position>
            <AltitudeMeters>1097.199951171875</AltitudeMeters>
            <DistanceMeters>NAN</DistanceMeters>
          </Trackpoint>
          <Trackpoint>
            <Time>2021-04-04T08:28:28.000Z</Time>
            <Position>
              <LatitudeDegrees>42.33075477182865142822265625</LatitudeDegrees>
              <LongitudeDegrees>2.4287142790853977203369140625</LongitudeDegrees>
            </Position>
            <AltitudeMeters>1097.5999755859375</AltitudeMeters>
            <DistanceMeters>NAN</DistanceMeters>
          </Trackpoint>
          <Trackpoint>
            <Time>2021-04-04T08:28:29.000Z</Time>
            <Position>
              <LatitudeDegrees>42.3307619802653789520263671875</LatitudeDegrees>
              <LongitudeDegrees>2.4287072382867336273193359375</LongitudeDegrees>
            </Position>
            <AltitudeMeters>1097.5999755859375</AltitudeMeters>
            <DistanceMeters>NAN</DistanceMeters>
          </Trackpoint>
          <Trackpoint>
            <Time>2021-04-04T08:28:31.000Z</Time>
            <Position>
              <LatitudeDegrees>42.33077547512948513031005859375</LatitudeDegrees>
              <LongitudeDegrees>2.42868988774716854095458984375</LongitudeDegrees>
            </Position>
            <AltitudeMeters>1097.800048828125</AltitudeMeters>
            <DistanceMeters>NAN</DistanceMeters>
          </Trackpoint>
          <Trackpoint>
            <Time>2021-04-04T08:28:33.000Z</Time>
            <Position>
              <LatitudeDegrees>42.3307874612510204315185546875</LatitudeDegrees>
              <LongitudeDegrees>2.4286758899688720703125</LongitudeDegrees>
            </Position>
            <AltitudeMeters>1098.199951171875</AltitudeMeters>
            <DistanceMeters>NAN</DistanceMeters>
          </Trackpoint>
          <Trackpoint>
            <Time>2021-04-04T08:28:35.000Z</Time>
            <Position>
              <LatitudeDegrees>42.3307945020496845245361328125</LatitudeDegrees>
              <LongitudeDegrees>2.42866256274282932281494140625</LongitudeDegrees>
            </Position>
            <AltitudeMeters>1098.4000244140625</AltitudeMeters>
            <DistanceMeters>NAN</DistanceMeters>
          </Trackpoint>
          <Trackpoint>
            <Time>2021-04-04T08:28:36.000Z</Time>
            <Position>
              <LatitudeDegrees>42.330796681344509124755859375</LatitudeDegrees>
              <LongitudeDegrees>2.428656108677387237548828125</LongitudeDegrees>
            </Position>
            <AltitudeMeters>1098.5999755859375</AltitudeMeters>
            <DistanceMeters>NAN</DistanceMeters>
          </Trackpoint>
          <Trackpoint>
            <Time>2021-04-04T08:28:37.000Z</Time>
            <Position>
              <LatitudeDegrees>42.33080129139125347137451171875</LatitudeDegrees>
              <LongitudeDegrees>2.428649403154850006103515625</LongitudeDegrees>
            </Position>
            <AltitudeMeters>1098.5999755859375</AltitudeMeters>
            <DistanceMeters>NAN</DistanceMeters>
          </Trackpoint>
          <Trackpoint>
            <Time>2021-04-04T08:28:40.000Z</Time>
            <Position>
              <LatitudeDegrees>42.330797351896762847900390625</LatitudeDegrees>
              <LongitudeDegrees>2.42865602485835552215576171875</LongitudeDegrees>
            </Position>
            <AltitudeMeters>1099.199951171875</AltitudeMeters>
            <DistanceMeters>NAN</DistanceMeters>
          </Trackpoint>
          <Trackpoint>
            <Time>2021-04-04T08:28:41.000Z</Time>
            <Position>
              <LatitudeDegrees>42.3307928256690502166748046875</LatitudeDegrees>
              <LongitudeDegrees>2.428673543035984039306640625</LongitudeDegrees>
            </Position>
            <AltitudeMeters>1099.4000244140625</AltitudeMeters>
            <DistanceMeters>NAN</DistanceMeters>
          </Trackpoint>
          <Trackpoint>
            <Time>2021-04-04T08:28:51.000Z</Time>
            <Position>
              <LatitudeDegrees>42.330788634717464447021484375</LatitudeDegrees>
              <LongitudeDegrees>2.42860137484967708587646484375</LongitudeDegrees>
            </Position>
            <AltitudeMeters>1099.4000244140625</AltitudeMeters>
            <DistanceMeters>NAN</DistanceMeters>
          </Trackpoint>
          <Trackpoint>
            <Time>2021-04-04T08:28:53.000Z</Time>
            <Position>
              <LatitudeDegrees>42.330787293612957000732421875</LatitudeDegrees>
              <LongitudeDegrees>2.42858192883431911468505859375</LongitudeDegrees>
            </Position>
            <AltitudeMeters>1099.4000244140625</AltitudeMeters>
            <DistanceMeters>NAN</DistanceMeters>
          </Trackpoint>
          <Trackpoint>
            <Time>2021-04-04T08:28:58.000Z</Time>
            <Position>
              <LatitudeDegrees>42.33078519813716411590576171875</LatitudeDegrees>
              <LongitudeDegrees>2.4285318888723850250244140625</LongitudeDegrees>
            </Position>
            <AltitudeMeters>1099.199951171875</AltitudeMeters>
            <DistanceMeters>NAN</DistanceMeters>
          </Trackpoint>
          <Trackpoint>
            <Time>2021-04-04T08:29:00.000Z</Time>
            <Position>
              <LatitudeDegrees>42.3307861201465129852294921875</LatitudeDegrees>
              <LongitudeDegrees>2.42850699461996555328369140625</LongitudeDegrees>
            </Position>
            <AltitudeMeters>1099</AltitudeMeters>
            <DistanceMeters>NAN</DistanceMeters>
          </Trackpoint>
          <Trackpoint>
            <Time>2021-04-04T08:29:02.000Z</Time>
            <Position>
              <LatitudeDegrees>42.3307904787361621856689453125</LatitudeDegrees>
              <LongitudeDegrees>2.42848637513816356658935546875</LongitudeDegrees>
            </Position>
            <AltitudeMeters>1098.800048828125</AltitudeMeters>
            <DistanceMeters>NAN</DistanceMeters>
          </Trackpoint>
          <Trackpoint>
            <Time>2021-04-04T08:29:09.000Z</Time>
            <Position>
              <LatitudeDegrees>42.33079341240227222442626953125</LatitudeDegrees>
              <LongitudeDegrees>2.4284036457538604736328125</LongitudeDegrees>
            </Position>
            <AltitudeMeters>1098.5999755859375</AltitudeMeters>
            <DistanceMeters>NAN</DistanceMeters>
          </Trackpoint>
          <Trackpoint>
            <Time>2021-04-04T08:29:12.000Z</Time>
            <Position>
              <LatitudeDegrees>42.33080632053315639495849609375</LatitudeDegrees>
              <LongitudeDegrees>2.42837456054985523223876953125</LongitudeDegrees>
            </Position>
            <AltitudeMeters>1098.5999755859375</AltitudeMeters>
            <DistanceMeters>NAN</DistanceMeters>
          </Trackpoint>
          <Trackpoint>
            <Time>2021-04-04T08:29:24.000Z</Time>
            <Position>
              <LatitudeDegrees>42.330865748226642608642578125</LatitudeDegrees>
              <LongitudeDegrees>2.4282653443515300750732421875</LongitudeDegrees>
            </Position>
            <AltitudeMeters>1098.800048828125</AltitudeMeters>
            <DistanceMeters>NAN</DistanceMeters>
          </Trackpoint>
          <Trackpoint>
            <Time>2021-04-04T08:29:25.000Z</Time>
            <Position>
              <LatitudeDegrees>42.330866418778896331787109375</LatitudeDegrees>
              <LongitudeDegrees>2.42825134657323360443115234375</LongitudeDegrees>
            </Position>
            <AltitudeMeters>1098.5999755859375</AltitudeMeters>
            <DistanceMeters>NAN</DistanceMeters>
          </Trackpoint>
          <Trackpoint>
            <Time>2021-04-04T08:29:32.000Z</Time>
            <Position>
              <LatitudeDegrees>42.33087681233882904052734375</LatitudeDegrees>
              <LongitudeDegrees>2.42816199548542499542236328125</LongitudeDegrees>
            </Position>
            <AltitudeMeters>1098.199951171875</AltitudeMeters>
            <DistanceMeters>NAN</DistanceMeters>
          </Trackpoint>
          <Trackpoint>
            <Time>2021-04-04T08:29:38.000Z</Time>
            <Position>
              <LatitudeDegrees>42.33090740628540515899658203125</LatitudeDegrees>
              <LongitudeDegrees>2.42810633964836597442626953125</LongitudeDegrees>
            </Position>
            <AltitudeMeters>1098.199951171875</AltitudeMeters>
            <DistanceMeters>NAN</DistanceMeters>
          </Trackpoint>
          <Trackpoint>
            <Time>2021-04-04T08:29:39.000Z</Time>
            <Position>
              <LatitudeDegrees>42.33091779984533786773681640625</LatitudeDegrees>
              <LongitudeDegrees>2.42810550145804882049560546875</LongitudeDegrees>
            </Position>
            <AltitudeMeters>1098.4000244140625</AltitudeMeters>
            <DistanceMeters>NAN</DistanceMeters>
          </Trackpoint>
          <Trackpoint>
            <Time>2021-04-04T08:29:46.000Z</Time>
            <Position>
              <LatitudeDegrees>42.3309217393398284912109375</LatitudeDegrees>
              <LongitudeDegrees>2.42804196663200855255126953125</LongitudeDegrees>
            </Position>
            <AltitudeMeters>1098.800048828125</AltitudeMeters>
            <DistanceMeters>NAN</DistanceMeters>
          </Trackpoint>
          <Trackpoint>
            <Time>2021-04-04T08:29:50.000Z</Time>
            <Position>
              <LatitudeDegrees>42.3309380002319812774658203125</LatitudeDegrees>
              <LongitudeDegrees>2.42799259722232818603515625</LongitudeDegrees>
            </Position>
            <AltitudeMeters>1098.800048828125</AltitudeMeters>
            <DistanceMeters>NAN</DistanceMeters>
          </Trackpoint>
          <Trackpoint>
            <Time>2021-04-04T08:29:56.000Z</Time>
            <Position>
              <LatitudeDegrees>42.3309621401131153106689453125</LatitudeDegrees>
              <LongitudeDegrees>2.427933923900127410888671875</LongitudeDegrees>
            </Position>
            <AltitudeMeters>1099.199951171875</AltitudeMeters>
            <DistanceMeters>NAN</DistanceMeters>
          </Trackpoint>
          <Trackpoint>
            <Time>2021-04-04T08:30:03.000Z</Time>
            <Position>
              <LatitudeDegrees>42.3309859447181224822998046875</LatitudeDegrees>
              <LongitudeDegrees>2.4278670363128185272216796875</LongitudeDegrees>
            </Position>
            <AltitudeMeters>1099.4000244140625</AltitudeMeters>
            <DistanceMeters>NAN</DistanceMeters>
          </Trackpoint>
          <Trackpoint>
            <Time>2021-04-04T08:30:08.000Z</Time>
            <Position>
              <LatitudeDegrees>42.3310037143528461456298828125</LatitudeDegrees>
              <LongitudeDegrees>2.42782806046307086944580078125</LongitudeDegrees>
            </Position>
            <AltitudeMeters>1099.5999755859375</AltitudeMeters>
            <DistanceMeters>NAN</DistanceMeters>
          </Trackpoint>
          <Trackpoint>
            <Time>2021-04-04T08:30:10.000Z</Time>
            <Position>
              <LatitudeDegrees>42.3310124315321445465087890625</LatitudeDegrees>
              <LongitudeDegrees>2.4278113804757595062255859375</LongitudeDegrees>
            </Position>
            <AltitudeMeters>1099.5999755859375</AltitudeMeters>
            <DistanceMeters>NAN</DistanceMeters>
          </Trackpoint>
          <Trackpoint>
            <Time>2021-04-04T08:30:13.000Z</Time>
            <Position>
              <LatitudeDegrees>42.33102609403431415557861328125</LatitudeDegrees>
              <LongitudeDegrees>2.42779654450714588165283203125</LongitudeDegrees>
            </Position>
            <AltitudeMeters>1100</AltitudeMeters>
            <DistanceMeters>NAN</DistanceMeters>
          </Trackpoint>
          <Trackpoint>
            <Time>2021-04-04T08:30:14.000Z</Time>
            <Position>
              <LatitudeDegrees>42.33102994970977306365966796875</LatitudeDegrees>
              <LongitudeDegrees>2.42779017426073551177978515625</LongitudeDegrees>
            </Position>
            <AltitudeMeters>1100.199951171875</AltitudeMeters>
            <DistanceMeters>NAN</DistanceMeters>
          </Trackpoint>
          <Trackpoint>
            <Time>2021-04-04T08:30:18.000Z</Time>
            <Position>
              <LatitudeDegrees>42.33105425722897052764892578125</LatitudeDegrees>
              <LongitudeDegrees>2.42776871658861637115478515625</LongitudeDegrees>
            </Position>
            <AltitudeMeters>1100.5999755859375</AltitudeMeters>
            <DistanceMeters>NAN</DistanceMeters>
          </Trackpoint>
          <Trackpoint>
            <Time>2021-04-04T08:30:19.000Z</Time>
            <Position>
              <LatitudeDegrees>42.33105526305735111236572265625</LatitudeDegrees>
              <LongitudeDegrees>2.42776318453252315521240234375</LongitudeDegrees>
            </Position>
            <AltitudeMeters>1100.800048828125</AltitudeMeters>
            <DistanceMeters>NAN</DistanceMeters>
          </Trackpoint>
          <Trackpoint>
            <Time>2021-04-04T08:30:20.000Z</Time>
            <Position>
              <LatitudeDegrees>42.33105207793414592742919921875</LatitudeDegrees>
              <LongitudeDegrees>2.4277567304670810699462890625</LongitudeDegrees>
            </Position>
            <AltitudeMeters>1100.800048828125</AltitudeMeters>
            <DistanceMeters>NAN</DistanceMeters>
          </Trackpoint>
          <Trackpoint>
            <Time>2021-04-04T08:30:21.000Z</Time>
            <Position>
              <LatitudeDegrees>42.33105274848639965057373046875</LatitudeDegrees>
              <LongitudeDegrees>2.42774860002100467681884765625</LongitudeDegrees>
            </Position>
            <AltitudeMeters>1101</AltitudeMeters>
            <DistanceMeters>NAN</DistanceMeters>
          </Trackpoint>
          <Trackpoint>
            <Time>2021-04-04T08:30:24.000Z</Time>
            <Position>
              <LatitudeDegrees>42.331062890589237213134765625</LatitudeDegrees>
              <LongitudeDegrees>2.4277282319962978363037109375</LongitudeDegrees>
            </Position>
            <AltitudeMeters>1101.800048828125</AltitudeMeters>
            <DistanceMeters>NAN</DistanceMeters>
          </Trackpoint>
          <Trackpoint>
            <Time>2021-04-04T08:30:25.000Z</Time>
            <Position>
              <LatitudeDegrees>42.33106481842696666717529296875</LatitudeDegrees>
              <LongitudeDegrees>2.42771892808377742767333984375</LongitudeDegrees>
            </Position>
            <AltitudeMeters>1101.800048828125</AltitudeMeters>
            <DistanceMeters>NAN</DistanceMeters>
          </Trackpoint>
          <Trackpoint>
            <Time>2021-04-04T08:30:29.000Z</Time>
            <Position>
              <LatitudeDegrees>42.33107856474816799163818359375</LatitudeDegrees>
              <LongitudeDegrees>2.42769260890781879425048828125</LongitudeDegrees>
            </Position>
            <AltitudeMeters>1102.199951171875</AltitudeMeters>
            <DistanceMeters>NAN</DistanceMeters>
          </Trackpoint>
          <Trackpoint>
            <Time>2021-04-04T08:30:32.000Z</Time>
            <Position>
              <LatitudeDegrees>42.33109130524098873138427734375</LatitudeDegrees>
              <LongitudeDegrees>2.4276776053011417388916015625</LongitudeDegrees>
            </Position>
            <AltitudeMeters>1102.4000244140625</AltitudeMeters>
            <DistanceMeters>NAN</DistanceMeters>
          </Trackpoint>
          <Trackpoint>
            <Time>2021-04-04T08:30:36.000Z</Time>
            <Position>
              <LatitudeDegrees>42.33110077679157257080078125</LatitudeDegrees>
              <LongitudeDegrees>2.4276340194046497344970703125</LongitudeDegrees>
            </Position>
            <AltitudeMeters>1102.5999755859375</AltitudeMeters>
            <DistanceMeters>NAN</DistanceMeters>
          </Trackpoint>
          <Trackpoint>
            <Time>2021-04-04T08:30:37.000Z</Time>
            <Position>
              <LatitudeDegrees>42.33110605739057064056396484375</LatitudeDegrees>
              <LongitudeDegrees>2.42761977016925811767578125</LongitudeDegrees>
            </Position>
            <AltitudeMeters>1102.5999755859375</AltitudeMeters>
            <DistanceMeters>NAN</DistanceMeters>
          </Trackpoint>
          <Trackpoint>
            <Time>2021-04-04T08:30:42.000Z</Time>
            <Position>
              <LatitudeDegrees>42.3311267606914043426513671875</LatitudeDegrees>
              <LongitudeDegrees>2.42756076157093048095703125</LongitudeDegrees>
            </Position>
            <AltitudeMeters>1102.800048828125</AltitudeMeters>
            <DistanceMeters>NAN</DistanceMeters>
          </Trackpoint>
          <Trackpoint>
            <Time>2021-04-04T08:30:46.000Z</Time>
            <Position>
              <LatitudeDegrees>42.33114176429808139801025390625</LatitudeDegrees>
              <LongitudeDegrees>2.42752362973988056182861328125</LongitudeDegrees>
            </Position>
            <AltitudeMeters>1103</AltitudeMeters>
            <DistanceMeters>NAN</DistanceMeters>
          </Trackpoint>
          <Trackpoint>
            <Time>2021-04-04T08:30:50.000Z</Time>
            <Position>
              <LatitudeDegrees>42.3311582766473293304443359375</LatitudeDegrees>
              <LongitudeDegrees>2.42748825810849666595458984375</LongitudeDegrees>
            </Position>
            <AltitudeMeters>1103</AltitudeMeters>
            <DistanceMeters>NAN</DistanceMeters>
          </Trackpoint>
          <Trackpoint>
            <Time>2021-04-04T08:31:00.000Z</Time>
            <Position>
              <LatitudeDegrees>42.33120278455317020416259765625</LatitudeDegrees>
              <LongitudeDegrees>2.4273872561752796173095703125</LongitudeDegrees>
            </Position>
            <AltitudeMeters>1103.5999755859375</AltitudeMeters>
            <DistanceMeters>NAN</DistanceMeters>
          </Trackpoint>
          <Trackpoint>
            <Time>2021-04-04T08:31:01.000Z</Time>
            <Position>
              <LatitudeDegrees>42.331206388771533966064453125</LatitudeDegrees>
              <LongitudeDegrees>2.427376024425029754638671875</LongitudeDegrees>
            </Position>
            <AltitudeMeters>1103.5999755859375</AltitudeMeters>
            <DistanceMeters>NAN</DistanceMeters>
          </Trackpoint>
          <Trackpoint>
            <Time>2021-04-04T08:31:03.000Z</Time>
            <Position>
              <LatitudeDegrees>42.3312142677605152130126953125</LatitudeDegrees>
              <LongitudeDegrees>2.4273500405251979827880859375</LongitudeDegrees>
            </Position>
            <AltitudeMeters>1103.800048828125</AltitudeMeters>
            <DistanceMeters>NAN</DistanceMeters>
          </Trackpoint>
          <Trackpoint>
            <Time>2021-04-04T08:31:04.000Z</Time>
            <Position>
              <LatitudeDegrees>42.33121669851243495941162109375</LatitudeDegrees>
              <LongitudeDegrees>2.427342496812343597412109375</LongitudeDegrees>
            </Position>
            <AltitudeMeters>1103.800048828125</AltitudeMeters>
            <DistanceMeters>NAN</DistanceMeters>
          </Trackpoint>
          <Trackpoint>
            <Time>2021-04-04T08:31:08.000Z</Time>
            <Position>
              <LatitudeDegrees>42.3312276788055896759033203125</LatitudeDegrees>
              <LongitudeDegrees>2.4272927083075046539306640625</LongitudeDegrees>
            </Position>
            <AltitudeMeters>1103.800048828125</AltitudeMeters>
            <DistanceMeters>NAN</DistanceMeters>
          </Trackpoint>
          <Trackpoint>
            <Time>2021-04-04T08:31:11.000Z</Time>
            <Position>
              <LatitudeDegrees>42.3312424309551715850830078125</LatitudeDegrees>
              <LongitudeDegrees>2.4272618629038333892822265625</LongitudeDegrees>
            </Position>
            <AltitudeMeters>1104</AltitudeMeters>
            <DistanceMeters>NAN</DistanceMeters>
          </Trackpoint>
          <Trackpoint>
            <Time>2021-04-04T08:31:12.000Z</Time>
            <Position>
              <LatitudeDegrees>42.33124687336385250091552734375</LatitudeDegrees>
              <LongitudeDegrees>2.42725222371518611907958984375</LongitudeDegrees>
            </Position>
            <AltitudeMeters>1104</AltitudeMeters>
            <DistanceMeters>NAN</DistanceMeters>
          </Trackpoint>
          <Trackpoint>
            <Time>2021-04-04T08:31:23.000Z</Time>
            <Position>
              <LatitudeDegrees>42.33127118088304996490478515625</LatitudeDegrees>
              <LongitudeDegrees>2.42714091204106807708740234375</LongitudeDegrees>
            </Position>
            <AltitudeMeters>1103.5999755859375</AltitudeMeters>
            <DistanceMeters>NAN</DistanceMeters>
          </Trackpoint>
          <Trackpoint>
            <Time>2021-04-04T08:31:25.000Z</Time>
            <Position>
              <LatitudeDegrees>42.33127704821527004241943359375</LatitudeDegrees>
              <LongitudeDegrees>2.42711895145475864410400390625</LongitudeDegrees>
            </Position>
            <AltitudeMeters>1103.5999755859375</AltitudeMeters>
            <DistanceMeters>NAN</DistanceMeters>
          </Trackpoint>
          <Trackpoint>
            <Time>2021-04-04T08:31:27.000Z</Time>
            <Position>
              <LatitudeDegrees>42.3312865197658538818359375</LatitudeDegrees>
              <LongitudeDegrees>2.4271012656390666961669921875</LongitudeDegrees>
            </Position>
            <AltitudeMeters>1103.4000244140625</AltitudeMeters>
            <DistanceMeters>NAN</DistanceMeters>
          </Trackpoint>
          <Trackpoint>
            <Time>2021-04-04T08:31:31.000Z</Time>
            <Position>
              <LatitudeDegrees>42.331290543079376220703125</LatitudeDegrees>
              <LongitudeDegrees>2.4270808137953281402587890625</LongitudeDegrees>
            </Position>
            <AltitudeMeters>1103.5999755859375</AltitudeMeters>
            <DistanceMeters>NAN</DistanceMeters>
          </Trackpoint>
          <Trackpoint>
            <Time>2021-04-04T08:31:34.000Z</Time>
            <Position>
              <LatitudeDegrees>42.3312970809638500213623046875</LatitudeDegrees>
              <LongitudeDegrees>2.42706145159900188446044921875</LongitudeDegrees>
            </Position>
            <AltitudeMeters>1103.800048828125</AltitudeMeters>
            <DistanceMeters>NAN</DistanceMeters>
          </Trackpoint>
          <Trackpoint>
            <Time>2021-04-04T08:31:36.000Z</Time>
            <Position>
              <LatitudeDegrees>42.33130286447703838348388671875</LatitudeDegrees>
              <LongitudeDegrees>2.427048124372959136962890625</LongitudeDegrees>
            </Position>
            <AltitudeMeters>1103.800048828125</AltitudeMeters>
            <DistanceMeters>NAN</DistanceMeters>
          </Trackpoint>
          <Trackpoint>
            <Time>2021-04-04T08:31:37.000Z</Time>
            <Position>
              <LatitudeDegrees>42.3313031159341335296630859375</LatitudeDegrees>
              <LongitudeDegrees>2.4270435981452465057373046875</LongitudeDegrees>
            </Position>
            <AltitudeMeters>1103.800048828125</AltitudeMeters>
            <DistanceMeters>NAN</DistanceMeters>
          </Trackpoint>
          <Trackpoint>
            <Time>2021-04-04T08:31:47.000Z</Time>
            <Position>
              <LatitudeDegrees>42.331336475908756256103515625</LatitudeDegrees>
              <LongitudeDegrees>2.42692935280501842498779296875</LongitudeDegrees>
            </Position>
            <AltitudeMeters>1104</AltitudeMeters>
            <DistanceMeters>NAN</DistanceMeters>
          </Trackpoint>
          <Trackpoint>
            <Time>2021-04-04T08:31:54.000Z</Time>
            <Position>
              <LatitudeDegrees>42.33137796632945537567138671875</LatitudeDegrees>
              <LongitudeDegrees>2.426842264831066131591796875</LongitudeDegrees>
            </Position>
            <AltitudeMeters>1104.199951171875</AltitudeMeters>
            <DistanceMeters>NAN</DistanceMeters>
          </Trackpoint>
          <Trackpoint>
            <Time>2021-04-04T08:31:59.000Z</Time>
            <Position>
              <LatitudeDegrees>42.33140646480023860931396484375</LatitudeDegrees>
              <LongitudeDegrees>2.426814101636409759521484375</LongitudeDegrees>
            </Position>
            <AltitudeMeters>1104.5999755859375</AltitudeMeters>
            <DistanceMeters>NAN</DistanceMeters>
          </Trackpoint>
          <Trackpoint>
            <Time>2021-04-04T08:32:01.000Z</Time>
            <Position>
              <LatitudeDegrees>42.331417612731456756591796875</LatitudeDegrees>
              <LongitudeDegrees>2.4268021993339061737060546875</LongitudeDegrees>
            </Position>
            <AltitudeMeters>1104.800048828125</AltitudeMeters>
            <DistanceMeters>NAN</DistanceMeters>
          </Trackpoint>
          <Trackpoint>
            <Time>2021-04-04T08:32:04.000Z</Time>
            <Position>
              <LatitudeDegrees>42.3314325325191020965576171875</LatitudeDegrees>
              <LongitudeDegrees>2.42677914910018444061279296875</LongitudeDegrees>
            </Position>
            <AltitudeMeters>1105</AltitudeMeters>
            <DistanceMeters>NAN</DistanceMeters>
          </Trackpoint>
          <Trackpoint>
            <Time>2021-04-04T08:32:10.000Z</Time>
            <Position>
              <LatitudeDegrees>42.3314751125872135162353515625</LatitudeDegrees>
              <LongitudeDegrees>2.42673573084175586700439453125</LongitudeDegrees>
            </Position>
            <AltitudeMeters>1105.4000244140625</AltitudeMeters>
            <DistanceMeters>NAN</DistanceMeters>
          </Trackpoint>
          <Trackpoint>
            <Time>2021-04-04T08:32:18.000Z</Time>
            <Position>
              <LatitudeDegrees>42.33151056803762912750244140625</LatitudeDegrees>
              <LongitudeDegrees>2.42666582576930522918701171875</LongitudeDegrees>
            </Position>
            <AltitudeMeters>1106</AltitudeMeters>
            <DistanceMeters>NAN</DistanceMeters>
          </Trackpoint>
          <Trackpoint>
            <Time>2021-04-04T08:32:19.000Z</Time>
            <Position>
              <LatitudeDegrees>42.33151341788470745086669921875</LatitudeDegrees>
              <LongitudeDegrees>2.42665610276162624359130859375</LongitudeDegrees>
            </Position>
            <AltitudeMeters>1106</AltitudeMeters>
            <DistanceMeters>NAN</DistanceMeters>
          </Trackpoint>
          <Trackpoint>
            <Time>2021-04-04T08:32:21.000Z</Time>
            <Position>
              <LatitudeDegrees>42.33151509426534175872802734375</LatitudeDegrees>
              <LongitudeDegrees>2.4266333878040313720703125</LongitudeDegrees>
            </Position>
            <AltitudeMeters>1106.199951171875</AltitudeMeters>
            <DistanceMeters>NAN</DistanceMeters>
          </Trackpoint>
          <Trackpoint>
            <Time>2021-04-04T08:32:23.000Z</Time>
            <Position>
              <LatitudeDegrees>42.33151626773178577423095703125</LatitudeDegrees>
              <LongitudeDegrees>2.42661201395094394683837890625</LongitudeDegrees>
            </Position>
            <AltitudeMeters>1106.4000244140625</AltitudeMeters>
            <DistanceMeters>NAN</DistanceMeters>
          </Trackpoint>
          <Trackpoint>
            <Time>2021-04-04T08:32:25.000Z</Time>
            <Position>
              <LatitudeDegrees>42.33151249587535858154296875</LatitudeDegrees>
              <LongitudeDegrees>2.4265944957733154296875</LongitudeDegrees>
            </Position>
            <AltitudeMeters>1106.5999755859375</AltitudeMeters>
            <DistanceMeters>NAN</DistanceMeters>
          </Trackpoint>
          <Trackpoint>
            <Time>2021-04-04T08:32:26.000Z</Time>
            <Position>
              <LatitudeDegrees>42.33151107095181941986083984375</LatitudeDegrees>
              <LongitudeDegrees>2.42658443748950958251953125</LongitudeDegrees>
            </Position>
            <AltitudeMeters>1106.800048828125</AltitudeMeters>
            <DistanceMeters>NAN</DistanceMeters>
          </Trackpoint>
          <Trackpoint>
            <Time>2021-04-04T08:32:28.000Z</Time>
            <Position>
              <LatitudeDegrees>42.3315086401998996734619140625</LatitudeDegrees>
              <LongitudeDegrees>2.42656373418867588043212890625</LongitudeDegrees>
            </Position>
            <AltitudeMeters>1107</AltitudeMeters>
            <DistanceMeters>NAN</DistanceMeters>
          </Trackpoint>
          <Trackpoint>
            <Time>2021-04-04T08:32:29.000Z</Time>
            <Position>
              <LatitudeDegrees>42.33150889165699481964111328125</LatitudeDegrees>
              <LongitudeDegrees>2.42655568756163120269775390625</LongitudeDegrees>
            </Position>
            <AltitudeMeters>1107</AltitudeMeters>
            <DistanceMeters>NAN</DistanceMeters>
          </Trackpoint>
          <Trackpoint>
            <Time>2021-04-04T08:32:36.000Z</Time>
            <Position>
              <LatitudeDegrees>42.3314741067588329315185546875</LatitudeDegrees>
              <LongitudeDegrees>2.4265041388571262359619140625</LongitudeDegrees>
            </Position>
            <AltitudeMeters>1107.800048828125</AltitudeMeters>
            <DistanceMeters>NAN</DistanceMeters>
          </Trackpoint>
          <Trackpoint>
            <Time>2021-04-04T08:32:41.000Z</Time>
            <Position>
              <LatitudeDegrees>42.33146446757018566131591796875</LatitudeDegrees>
              <LongitudeDegrees>2.4264592118561267852783203125</LongitudeDegrees>
            </Position>
            <AltitudeMeters>1108</AltitudeMeters>
            <DistanceMeters>NAN</DistanceMeters>
          </Trackpoint>
          <Trackpoint>
            <Time>2021-04-04T08:32:43.000Z</Time>
            <Position>
              <LatitudeDegrees>42.3314635455608367919921875</LatitudeDegrees>
              <LongitudeDegrees>2.42643079720437526702880859375</LongitudeDegrees>
            </Position>
            <AltitudeMeters>1108.4000244140625</AltitudeMeters>
            <DistanceMeters>NAN</DistanceMeters>
          </Trackpoint>
          <Trackpoint>
            <Time>2021-04-04T08:32:45.000Z</Time>
            <Position>
              <LatitudeDegrees>42.33147134073078632354736328125</LatitudeDegrees>
              <LongitudeDegrees>2.42640674114227294921875</LongitudeDegrees>
            </Position>
            <AltitudeMeters>1108.800048828125</AltitudeMeters>
            <DistanceMeters>NAN</DistanceMeters>
          </Trackpoint>
          <Trackpoint>
            <Time>2021-04-04T08:32:48.000Z</Time>
            <Position>
              <LatitudeDegrees>42.33147519640624523162841796875</LatitudeDegrees>
              <LongitudeDegrees>2.426371872425079345703125</LongitudeDegrees>
            </Position>
            <AltitudeMeters>1109.199951171875</AltitudeMeters>
            <DistanceMeters>NAN</DistanceMeters>
          </Trackpoint>
          <Trackpoint>
            <Time>2021-04-04T08:32:49.000Z</Time>
            <Position>
              <LatitudeDegrees>42.33147628605365753173828125</LatitudeDegrees>
              <LongitudeDegrees>2.42635871283710002899169921875</LongitudeDegrees>
            </Position>
            <AltitudeMeters>1109.199951171875</AltitudeMeters>
            <DistanceMeters>NAN</DistanceMeters>
          </Trackpoint>
          <Trackpoint>
            <Time>2021-04-04T08:32:53.000Z</Time>
            <Position>
              <LatitudeDegrees>42.33148190192878246307373046875</LatitudeDegrees>
              <LongitudeDegrees>2.426311187446117401123046875</LongitudeDegrees>
            </Position>
            <AltitudeMeters>1109.5999755859375</AltitudeMeters>
            <DistanceMeters>NAN</DistanceMeters>
          </Trackpoint>
          <Trackpoint>
            <Time>2021-04-04T08:32:54.000Z</Time>
            <Position>
              <LatitudeDegrees>42.33148341067135334014892578125</LatitudeDegrees>
              <LongitudeDegrees>2.42630288936197757720947265625</LongitudeDegrees>
            </Position>
            <AltitudeMeters>1109.800048828125</AltitudeMeters>
            <DistanceMeters>NAN</DistanceMeters>
          </Trackpoint>
          <Trackpoint>
            <Time>2021-04-04T08:32:57.000Z</Time>
            <Position>
              <LatitudeDegrees>42.33148458413779735565185546875</LatitudeDegrees>
              <LongitudeDegrees>2.42627271451056003570556640625</LongitudeDegrees>
            </Position>
            <AltitudeMeters>1110</AltitudeMeters>
            <DistanceMeters>NAN</DistanceMeters>
          </Trackpoint>
          <Trackpoint>
            <Time>2021-04-04T08:32:58.000Z</Time>
            <Position>
              <LatitudeDegrees>42.3314838297665119171142578125</LatitudeDegrees>
              <LongitudeDegrees>2.42625980637967586517333984375</LongitudeDegrees>
            </Position>
            <AltitudeMeters>1110.199951171875</AltitudeMeters>
            <DistanceMeters>NAN</DistanceMeters>
          </Trackpoint>
          <Trackpoint>
            <Time>2021-04-04T08:32:59.000Z</Time>
            <Position>
              <LatitudeDegrees>42.33147972263395786285400390625</LatitudeDegrees>
              <LongitudeDegrees>2.42624723352491855621337890625</LongitudeDegrees>
            </Position>
            <AltitudeMeters>1110.199951171875</AltitudeMeters>
            <DistanceMeters>NAN</DistanceMeters>
          </Trackpoint>
          <Trackpoint>
            <Time>2021-04-04T08:33:02.000Z</Time>
            <Position>
              <LatitudeDegrees>42.33148022554814815521240234375</LatitudeDegrees>
              <LongitudeDegrees>2.42620297707617282867431640625</LongitudeDegrees>
            </Position>
            <AltitudeMeters>1110.4000244140625</AltitudeMeters>
            <DistanceMeters>NAN</DistanceMeters>
          </Trackpoint>
          <Trackpoint>
            <Time>2021-04-04T08:33:03.000Z</Time>
            <Position>
              <LatitudeDegrees>42.331480644643306732177734375</LatitudeDegrees>
              <LongitudeDegrees>2.42619417607784271240234375</LongitudeDegrees>
            </Position>
            <AltitudeMeters>1110.4000244140625</AltitudeMeters>
            <DistanceMeters>NAN</DistanceMeters>
          </Trackpoint>
          <Trackpoint>
            <Time>2021-04-04T08:33:09.000Z</Time>
            <Position>
              <LatitudeDegrees>42.331484667956829071044921875</LatitudeDegrees>
              <LongitudeDegrees>2.42611295543611049652099609375</LongitudeDegrees>
            </Position>
            <AltitudeMeters>1111.199951171875</AltitudeMeters>
            <DistanceMeters>NAN</DistanceMeters>
          </Trackpoint>
          <Trackpoint>
            <Time>2021-04-04T08:33:11.000Z</Time>
            <Position>
              <LatitudeDegrees>42.331496067345142364501953125</LatitudeDegrees>
              <LongitudeDegrees>2.426087893545627593994140625</LongitudeDegrees>
            </Position>
            <AltitudeMeters>1111.199951171875</AltitudeMeters>
            <DistanceMeters>NAN</DistanceMeters>
          </Trackpoint>
          <Trackpoint>
            <Time>2021-04-04T08:33:12.000Z</Time>
            <Position>
              <LatitudeDegrees>42.3315015994012355804443359375</LatitudeDegrees>
              <LongitudeDegrees>2.4260783381760120391845703125</LongitudeDegrees>
            </Position>
            <AltitudeMeters>1111.4000244140625</AltitudeMeters>
            <DistanceMeters>NAN</DistanceMeters>
          </Trackpoint>
          <Trackpoint>
            <Time>2021-04-04T08:33:19.000Z</Time>
            <Position>
              <LatitudeDegrees>42.331530936062335968017578125</LatitudeDegrees>
              <LongitudeDegrees>2.426010780036449432373046875</LongitudeDegrees>
            </Position>
            <AltitudeMeters>1112.4000244140625</AltitudeMeters>
            <DistanceMeters>NAN</DistanceMeters>
          </Trackpoint>
          <Trackpoint>
            <Time>2021-04-04T08:33:20.000Z</Time>
            <Position>
              <LatitudeDegrees>42.3315306007862091064453125</LatitudeDegrees>
              <LongitudeDegrees>2.4260018952190876007080078125</LongitudeDegrees>
            </Position>
            <AltitudeMeters>1112.4000244140625</AltitudeMeters>
            <DistanceMeters>NAN</DistanceMeters>
          </Trackpoint>
          <Trackpoint>
            <Time>2021-04-04T08:33:22.000Z</Time>
            <Position>
              <LatitudeDegrees>42.33152833767235279083251953125</LatitudeDegrees>
              <LongitudeDegrees>2.42598831653594970703125</LongitudeDegrees>
            </Position>
            <AltitudeMeters>1112.5999755859375</AltitudeMeters>
            <DistanceMeters>NAN</DistanceMeters>
          </Trackpoint>
          <Trackpoint>
            <Time>2021-04-04T08:33:25.000Z</Time>
            <Position>
              <LatitudeDegrees>42.33154200017452239990234375</LatitudeDegrees>
              <LongitudeDegrees>2.4259676970541477203369140625</LongitudeDegrees>
            </Position>
            <AltitudeMeters>1113</AltitudeMeters>
            <DistanceMeters>NAN</DistanceMeters>
          </Trackpoint>
          <Trackpoint>
            <Time>2021-04-04T08:33:27.000Z</Time>
            <Position>
              <LatitudeDegrees>42.33154661022126674652099609375</LatitudeDegrees>
              <LongitudeDegrees>2.4259482510387897491455078125</LongitudeDegrees>
            </Position>
            <AltitudeMeters>1113.199951171875</AltitudeMeters>
            <DistanceMeters>NAN</DistanceMeters>
          </Trackpoint>
          <Trackpoint>
            <Time>2021-04-04T08:33:30.000Z</Time>
            <Position>
              <LatitudeDegrees>42.33154158107936382293701171875</LatitudeDegrees>
              <LongitudeDegrees>2.42591799236834049224853515625</LongitudeDegrees>
            </Position>
            <AltitudeMeters>1113.4000244140625</AltitudeMeters>
            <DistanceMeters>NAN</DistanceMeters>
          </Trackpoint>
          <Trackpoint>
            <Time>2021-04-04T08:33:31.000Z</Time>
            <Position>
              <LatitudeDegrees>42.331542335450649261474609375</LatitudeDegrees>
              <LongitudeDegrees>2.42590810172259807586669921875</LongitudeDegrees>
            </Position>
            <AltitudeMeters>1113.4000244140625</AltitudeMeters>
            <DistanceMeters>NAN</DistanceMeters>
          </Trackpoint>
          <Trackpoint>
            <Time>2021-04-04T08:33:34.000Z</Time>
            <Position>
              <LatitudeDegrees>42.33155298046767711639404296875</LatitudeDegrees>
              <LongitudeDegrees>2.42587289772927761077880859375</LongitudeDegrees>
            </Position>
            <AltitudeMeters>1113.5999755859375</AltitudeMeters>
            <DistanceMeters>NAN</DistanceMeters>
          </Trackpoint>
          <Trackpoint>
            <Time>2021-04-04T08:33:36.000Z</Time>
            <Position>
              <LatitudeDegrees>42.33155717141926288604736328125</LatitudeDegrees>
              <LongitudeDegrees>2.42584557272493839263916015625</LongitudeDegrees>
            </Position>
            <AltitudeMeters>1113.800048828125</AltitudeMeters>
            <DistanceMeters>NAN</DistanceMeters>
          </Trackpoint>
          <Trackpoint>
            <Time>2021-04-04T08:33:37.000Z</Time>
            <Position>
              <LatitudeDegrees>42.33156102709472179412841796875</LatitudeDegrees>
              <LongitudeDegrees>2.42583283223211765289306640625</LongitudeDegrees>
            </Position>
            <AltitudeMeters>1113.800048828125</AltitudeMeters>
            <DistanceMeters>NAN</DistanceMeters>
          </Trackpoint>
          <Trackpoint>
            <Time>2021-04-04T08:33:43.000Z</Time>
            <Position>
              <LatitudeDegrees>42.33159824274480342864990234375</LatitudeDegrees>
              <LongitudeDegrees>2.4257708899676799774169921875</LongitudeDegrees>
            </Position>
            <AltitudeMeters>1114.4000244140625</AltitudeMeters>
            <DistanceMeters>NAN</DistanceMeters>
          </Trackpoint>
          <Trackpoint>
            <Time>2021-04-04T08:33:47.000Z</Time>
            <Position>
              <LatitudeDegrees>42.33161668293178081512451171875</LatitudeDegrees>
              <LongitudeDegrees>2.42573493160307407379150390625</LongitudeDegrees>
            </Position>
            <AltitudeMeters>1114.800048828125</AltitudeMeters>
            <DistanceMeters>NAN</DistanceMeters>
          </Trackpoint>
          <Trackpoint>
            <Time>2021-04-04T08:33:49.000Z</Time>
            <Position>
              <LatitudeDegrees>42.33162808232009410858154296875</LatitudeDegrees>
              <LongitudeDegrees>2.4257165752351284027099609375</LongitudeDegrees>
            </Position>
            <AltitudeMeters>1115</AltitudeMeters>
            <DistanceMeters>NAN</DistanceMeters>
          </Trackpoint>
          <Trackpoint>
            <Time>2021-04-04T08:33:51.000Z</Time>
            <Position>
              <LatitudeDegrees>42.33163629658520221710205078125</LatitudeDegrees>
              <LongitudeDegrees>2.4256951175630092620849609375</LongitudeDegrees>
            </Position>
            <AltitudeMeters>1115.4000244140625</AltitudeMeters>
            <DistanceMeters>NAN</DistanceMeters>
          </Trackpoint>
          <Trackpoint>
            <Time>2021-04-04T08:33:52.000Z</Time>
            <Position>
              <LatitudeDegrees>42.331641577184200286865234375</LatitudeDegrees>
              <LongitudeDegrees>2.42568187415599822998046875</LongitudeDegrees>
            </Position>
            <AltitudeMeters>1115.4000244140625</AltitudeMeters>
            <DistanceMeters>NAN</DistanceMeters>
          </Trackpoint>
          <Trackpoint>
            <Time>2021-04-04T08:33:55.000Z</Time>
            <Position>
              <LatitudeDegrees>42.33164987526834011077880859375</LatitudeDegrees>
              <LongitudeDegrees>2.4256468378007411956787109375</LongitudeDegrees>
            </Position>
            <AltitudeMeters>1115.800048828125</AltitudeMeters>
            <DistanceMeters>NAN</DistanceMeters>
          </Trackpoint>
          <Trackpoint>
            <Time>2021-04-04T08:33:57.000Z</Time>
            <Position>
              <LatitudeDegrees>42.3316501267254352569580078125</LatitudeDegrees>
              <LongitudeDegrees>2.42561523802578449249267578125</LongitudeDegrees>
            </Position>
            <AltitudeMeters>1115.800048828125</AltitudeMeters>
            <DistanceMeters>NAN</DistanceMeters>
          </Trackpoint>
          <Trackpoint>
            <Time>2021-04-04T08:34:00.000Z</Time>
            <Position>
              <LatitudeDegrees>42.3316628672182559967041015625</LatitudeDegrees>
              <LongitudeDegrees>2.4255765974521636962890625</LongitudeDegrees>
            </Position>
            <AltitudeMeters>1116</AltitudeMeters>
            <DistanceMeters>NAN</DistanceMeters>
          </Trackpoint>
          <Trackpoint>
            <Time>2021-04-04T08:34:07.000Z</Time>
            <Position>
              <LatitudeDegrees>42.331700585782527923583984375</LatitudeDegrees>
              <LongitudeDegrees>2.42550409398972988128662109375</LongitudeDegrees>
            </Position>
            <AltitudeMeters>1116.5999755859375</AltitudeMeters>
            <DistanceMeters>NAN</DistanceMeters>
          </Trackpoint>
          <Trackpoint>
            <Time>2021-04-04T08:34:08.000Z</Time>
            <Position>
              <LatitudeDegrees>42.3317041061818599700927734375</LatitudeDegrees>
              <LongitudeDegrees>2.42549755610525608062744140625</LongitudeDegrees>
            </Position>
            <AltitudeMeters>1116.5999755859375</AltitudeMeters>
            <DistanceMeters>NAN</DistanceMeters>
          </Trackpoint>
          <Trackpoint>
            <Time>2021-04-04T08:34:09.000Z</Time>
            <Position>
              <LatitudeDegrees>42.33170838095247745513916015625</LatitudeDegrees>
              <LongitudeDegrees>2.42548950947821140289306640625</LongitudeDegrees>
            </Position>
            <AltitudeMeters>1116.800048828125</AltitudeMeters>
            <DistanceMeters>NAN</DistanceMeters>
          </Trackpoint>
          <Trackpoint>
            <Time>2021-04-04T08:34:14.000Z</Time>
            <Position>
              <LatitudeDegrees>42.33173335902392864227294921875</LatitudeDegrees>
              <LongitudeDegrees>2.4254503659904003143310546875</LongitudeDegrees>
            </Position>
            <AltitudeMeters>1117.5999755859375</AltitudeMeters>
            <DistanceMeters>NAN</DistanceMeters>
          </Trackpoint>
          <Trackpoint>
            <Time>2021-04-04T08:34:16.000Z</Time>
            <Position>
              <LatitudeDegrees>42.33174291439354419708251953125</LatitudeDegrees>
              <LongitudeDegrees>2.42543770931661128997802734375</LongitudeDegrees>
            </Position>
            <AltitudeMeters>1117.800048828125</AltitudeMeters>
            <DistanceMeters>NAN</DistanceMeters>
          </Trackpoint>
          <Trackpoint>
            <Time>2021-04-04T08:34:23.000Z</Time>
            <Position>
              <LatitudeDegrees>42.331758253276348114013671875</LatitudeDegrees>
              <LongitudeDegrees>2.42536931298673152923583984375</LongitudeDegrees>
            </Position>
            <AltitudeMeters>1118.4000244140625</AltitudeMeters>
            <DistanceMeters>NAN</DistanceMeters>
          </Trackpoint>
          <Trackpoint>
            <Time>2021-04-04T08:34:25.000Z</Time>
            <Position>
              <LatitudeDegrees>42.33176688663661479949951171875</LatitudeDegrees>
              <LongitudeDegrees>2.42535321973264217376708984375</LongitudeDegrees>
            </Position>
            <AltitudeMeters>1118.4000244140625</AltitudeMeters>
            <DistanceMeters>NAN</DistanceMeters>
          </Trackpoint>
          <Trackpoint>
            <Time>2021-04-04T08:34:27.000Z</Time>
            <Position>
              <LatitudeDegrees>42.33177660964429378509521484375</LatitudeDegrees>
              <LongitudeDegrees>2.42533042095601558685302734375</LongitudeDegrees>
            </Position>
            <AltitudeMeters>1118.4000244140625</AltitudeMeters>
            <DistanceMeters>NAN</DistanceMeters>
          </Trackpoint>
          <Trackpoint>
            <Time>2021-04-04T08:34:31.000Z</Time>
            <Position>
              <LatitudeDegrees>42.33178616501390933990478515625</LatitudeDegrees>
              <LongitudeDegrees>2.42527157999575138092041015625</LongitudeDegrees>
            </Position>
            <AltitudeMeters>1118.4000244140625</AltitudeMeters>
            <DistanceMeters>NAN</DistanceMeters>
          </Trackpoint>
          <Trackpoint>
            <Time>2021-04-04T08:34:33.000Z</Time>
            <Position>
              <LatitudeDegrees>42.33179672621190547943115234375</LatitudeDegrees>
              <LongitudeDegrees>2.4252414889633655548095703125</LongitudeDegrees>
            </Position>
            <AltitudeMeters>1118.5999755859375</AltitudeMeters>
            <DistanceMeters>NAN</DistanceMeters>
          </Trackpoint>
          <Trackpoint>
            <Time>2021-04-04T08:34:35.000Z</Time>
            <Position>
              <LatitudeDegrees>42.3318073712289333343505859375</LatitudeDegrees>
              <LongitudeDegrees>2.42521625943481922149658203125</LongitudeDegrees>
            </Position>
            <AltitudeMeters>1118.5999755859375</AltitudeMeters>
            <DistanceMeters>NAN</DistanceMeters>
          </Trackpoint>
          <Trackpoint>
            <Time>2021-04-04T08:34:40.000Z</Time>
            <Position>
              <LatitudeDegrees>42.33182522468268871307373046875</LatitudeDegrees>
              <LongitudeDegrees>2.42516512982547283172607421875</LongitudeDegrees>
            </Position>
            <AltitudeMeters>1118.800048828125</AltitudeMeters>
            <DistanceMeters>NAN</DistanceMeters>
          </Trackpoint>
          <Trackpoint>
            <Time>2021-04-04T08:34:41.000Z</Time>
            <Position>
              <LatitudeDegrees>42.33182941563427448272705078125</LatitudeDegrees>
              <LongitudeDegrees>2.42515138350427150726318359375</LongitudeDegrees>
            </Position>
            <AltitudeMeters>1118.800048828125</AltitudeMeters>
            <DistanceMeters>NAN</DistanceMeters>
          </Trackpoint>
          <Trackpoint>
            <Time>2021-04-04T08:34:42.000Z</Time>
            <Position>
              <LatitudeDegrees>42.3318378813564777374267578125</LatitudeDegrees>
              <LongitudeDegrees>2.4251385591924190521240234375</LongitudeDegrees>
            </Position>
            <AltitudeMeters>1118.800048828125</AltitudeMeters>
            <DistanceMeters>NAN</DistanceMeters>
          </Trackpoint>
          <Trackpoint>
            <Time>2021-04-04T08:34:45.000Z</Time>
            <Position>
              <LatitudeDegrees>42.33185858465731143951416015625</LatitudeDegrees>
              <LongitudeDegrees>2.425114251673221588134765625</LongitudeDegrees>
            </Position>
            <AltitudeMeters>1118.800048828125</AltitudeMeters>
            <DistanceMeters>NAN</DistanceMeters>
          </Trackpoint>
          <Trackpoint>
            <Time>2021-04-04T08:34:48.000Z</Time>
            <Position>
              <LatitudeDegrees>42.33187803067266941070556640625</LatitudeDegrees>
              <LongitudeDegrees>2.4250909499824047088623046875</LongitudeDegrees>
            </Position>
            <AltitudeMeters>1119.199951171875</AltitudeMeters>
            <DistanceMeters>NAN</DistanceMeters>
          </Trackpoint>
          <Trackpoint>
            <Time>2021-04-04T08:34:54.000Z</Time>
            <Position>
              <LatitudeDegrees>42.3319200240075588226318359375</LatitudeDegrees>
              <LongitudeDegrees>2.42503277957439422607421875</LongitudeDegrees>
            </Position>
            <AltitudeMeters>1119.5999755859375</AltitudeMeters>
            <DistanceMeters>NAN</DistanceMeters>
          </Trackpoint>
          <Trackpoint>
            <Time>2021-04-04T08:34:57.000Z</Time>
            <Position>
              <LatitudeDegrees>42.3319448344409465789794921875</LatitudeDegrees>
              <LongitudeDegrees>2.4249953962862491607666015625</LongitudeDegrees>
            </Position>
            <AltitudeMeters>1119.800048828125</AltitudeMeters>
            <DistanceMeters>NAN</DistanceMeters>
          </Trackpoint>
          <Trackpoint>
            <Time>2021-04-04T08:35:02.000Z</Time>
            <Position>
              <LatitudeDegrees>42.33199873007833957672119140625</LatitudeDegrees>
              <LongitudeDegrees>2.42494569160044193267822265625</LongitudeDegrees>
            </Position>
            <AltitudeMeters>1119.800048828125</AltitudeMeters>
            <DistanceMeters>NAN</DistanceMeters>
          </Trackpoint>
          <Trackpoint>
            <Time>2021-04-04T08:35:05.000Z</Time>
            <Position>
              <LatitudeDegrees>42.33202370814979076385498046875</LatitudeDegrees>
              <LongitudeDegrees>2.42492121644318103790283203125</LongitudeDegrees>
            </Position>
            <AltitudeMeters>1119.800048828125</AltitudeMeters>
            <DistanceMeters>NAN</DistanceMeters>
          </Trackpoint>
          <Trackpoint>
            <Time>2021-04-04T08:35:07.000Z</Time>
            <Position>
              <LatitudeDegrees>42.3320403881371021270751953125</LatitudeDegrees>
              <LongitudeDegrees>2.4249048717319965362548828125</LongitudeDegrees>
            </Position>
            <AltitudeMeters>1119.800048828125</AltitudeMeters>
            <DistanceMeters>NAN</DistanceMeters>
          </Trackpoint>
          <Trackpoint>
            <Time>2021-04-04T08:35:13.000Z</Time>
            <Position>
              <LatitudeDegrees>42.3320957086980342864990234375</LatitudeDegrees>
              <LongitudeDegrees>2.4248830787837505340576171875</LongitudeDegrees>
            </Position>
            <AltitudeMeters>1120.5999755859375</AltitudeMeters>
            <DistanceMeters>NAN</DistanceMeters>
          </Trackpoint>
          <Trackpoint>
            <Time>2021-04-04T08:35:14.000Z</Time>
            <Position>
              <LatitudeDegrees>42.33210316859185695648193359375</LatitudeDegrees>
              <LongitudeDegrees>2.4248723499476909637451171875</LongitudeDegrees>
            </Position>
            <AltitudeMeters>1120.5999755859375</AltitudeMeters>
            <DistanceMeters>NAN</DistanceMeters>
          </Trackpoint>
          <Trackpoint>
            <Time>2021-04-04T08:35:16.000Z</Time>
            <Position>
              <LatitudeDegrees>42.33211440034210681915283203125</LatitudeDegrees>
              <LongitudeDegrees>2.42483806796371936798095703125</LongitudeDegrees>
            </Position>
            <AltitudeMeters>1120.5999755859375</AltitudeMeters>
            <DistanceMeters>NAN</DistanceMeters>
          </Trackpoint>
          <Trackpoint>
            <Time>2021-04-04T08:35:19.000Z</Time>
            <Position>
              <LatitudeDegrees>42.33213284052908420562744140625</LatitudeDegrees>
              <LongitudeDegrees>2.4247962422668933868408203125</LongitudeDegrees>
            </Position>
            <AltitudeMeters>1120.5999755859375</AltitudeMeters>
            <DistanceMeters>NAN</DistanceMeters>
          </Trackpoint>
          <Trackpoint>
            <Time>2021-04-04T08:35:20.000Z</Time>
            <Position>
              <LatitudeDegrees>42.3321379534900188446044921875</LatitudeDegrees>
              <LongitudeDegrees>2.42478224448859691619873046875</LongitudeDegrees>
            </Position>
            <AltitudeMeters>1120.800048828125</AltitudeMeters>
            <DistanceMeters>NAN</DistanceMeters>
          </Trackpoint>
          <Trackpoint>
            <Time>2021-04-04T08:35:29.000Z</Time>
            <Position>
              <LatitudeDegrees>42.3322080262005329132080078125</LatitudeDegrees>
              <LongitudeDegrees>2.42468384094536304473876953125</LongitudeDegrees>
            </Position>
            <AltitudeMeters>1121.199951171875</AltitudeMeters>
            <DistanceMeters>NAN</DistanceMeters>
          </Trackpoint>
          <Trackpoint>
            <Time>2021-04-04T08:35:34.000Z</Time>
            <Position>
              <LatitudeDegrees>42.33224415220320224761962890625</LatitudeDegrees>
              <LongitudeDegrees>2.42466288618743419647216796875</LongitudeDegrees>
            </Position>
            <AltitudeMeters>1121.199951171875</AltitudeMeters>
            <DistanceMeters>NAN</DistanceMeters>
          </Trackpoint>
          <Trackpoint>
            <Time>2021-04-04T08:35:38.000Z</Time>
            <Position>
              <LatitudeDegrees>42.33227835036814212799072265625</LatitudeDegrees>
              <LongitudeDegrees>2.4246376566588878631591796875</LongitudeDegrees>
            </Position>
            <AltitudeMeters>1121.5999755859375</AltitudeMeters>
            <DistanceMeters>NAN</DistanceMeters>
          </Trackpoint>
          <Trackpoint>
            <Time>2021-04-04T08:35:40.000Z</Time>
            <Position>
              <LatitudeDegrees>42.33229226432740688323974609375</LatitudeDegrees>
              <LongitudeDegrees>2.4246205575764179229736328125</LongitudeDegrees>
            </Position>
            <AltitudeMeters>1121.800048828125</AltitudeMeters>
            <DistanceMeters>NAN</DistanceMeters>
          </Trackpoint>
          <Trackpoint>
            <Time>2021-04-04T08:35:45.000Z</Time>
            <Position>
              <LatitudeDegrees>42.33232998289167881011962890625</LatitudeDegrees>
              <LongitudeDegrees>2.424586527049541473388671875</LongitudeDegrees>
            </Position>
            <AltitudeMeters>1122.199951171875</AltitudeMeters>
            <DistanceMeters>NAN</DistanceMeters>
          </Trackpoint>
          <Trackpoint>
            <Time>2021-04-04T08:35:46.000Z</Time>
            <Position>
              <LatitudeDegrees>42.332338280975818634033203125</LatitudeDegrees>
              <LongitudeDegrees>2.42458124645054340362548828125</LongitudeDegrees>
            </Position>
            <AltitudeMeters>1122.199951171875</AltitudeMeters>
            <DistanceMeters>NAN</DistanceMeters>
          </Trackpoint>
          <Trackpoint>
            <Time>2021-04-04T08:35:49.000Z</Time>
            <Position>
              <LatitudeDegrees>42.3323567211627960205078125</LatitudeDegrees>
              <LongitudeDegrees>2.424568422138690948486328125</LongitudeDegrees>
            </Position>
            <AltitudeMeters>1122.4000244140625</AltitudeMeters>
            <DistanceMeters>NAN</DistanceMeters>
          </Trackpoint>
          <Trackpoint>
            <Time>2021-04-04T08:35:52.000Z</Time>
            <Position>
              <LatitudeDegrees>42.332379184663295745849609375</LatitudeDegrees>
              <LongitudeDegrees>2.42454193532466888427734375</LongitudeDegrees>
            </Position>
            <AltitudeMeters>1122.800048828125</AltitudeMeters>
            <DistanceMeters>NAN</DistanceMeters>
          </Trackpoint>
          <Trackpoint>
            <Time>2021-04-04T08:35:53.000Z</Time>
            <Position>
              <LatitudeDegrees>42.33238832093775272369384765625</LatitudeDegrees>
              <LongitudeDegrees>2.42453447543084621429443359375</LongitudeDegrees>
            </Position>
            <AltitudeMeters>1122.800048828125</AltitudeMeters>
            <DistanceMeters>NAN</DistanceMeters>
          </Trackpoint>
          <Trackpoint>
            <Time>2021-04-04T08:35:55.000Z</Time>
            <Position>
              <LatitudeDegrees>42.33240508474409580230712890625</LatitudeDegrees>
              <LongitudeDegrees>2.4245182983577251434326171875</LongitudeDegrees>
            </Position>
            <AltitudeMeters>1123.199951171875</AltitudeMeters>
            <DistanceMeters>NAN</DistanceMeters>
          </Trackpoint>
          <Trackpoint>
            <Time>2021-04-04T08:35:56.000Z</Time>
            <Position>
              <LatitudeDegrees>42.33241531066596508026123046875</LatitudeDegrees>
              <LongitudeDegrees>2.4245072342455387115478515625</LongitudeDegrees>
            </Position>
            <AltitudeMeters>1123.199951171875</AltitudeMeters>
            <DistanceMeters>NAN</DistanceMeters>
          </Trackpoint>
          <Trackpoint>
            <Time>2021-04-04T08:35:57.000Z</Time>
            <Position>
              <LatitudeDegrees>42.3324256204068660736083984375</LatitudeDegrees>
              <LongitudeDegrees>2.42449759505689144134521484375</LongitudeDegrees>
            </Position>
            <AltitudeMeters>1123.4000244140625</AltitudeMeters>
            <DistanceMeters>NAN</DistanceMeters>
          </Trackpoint>
          <Trackpoint>
            <Time>2021-04-04T08:35:59.000Z</Time>
            <Position>
              <LatitudeDegrees>42.33244280330836772918701171875</LatitudeDegrees>
              <LongitudeDegrees>2.42448384873569011688232421875</LongitudeDegrees>
            </Position>
            <AltitudeMeters>1123.800048828125</AltitudeMeters>
            <DistanceMeters>NAN</DistanceMeters>
          </Trackpoint>
          <Trackpoint>
            <Time>2021-04-04T08:36:01.000Z</Time>
            <Position>
              <LatitudeDegrees>42.33245722018182277679443359375</LatitudeDegrees>
              <LongitudeDegrees>2.42446473799645900726318359375</LongitudeDegrees>
            </Position>
            <AltitudeMeters>1124</AltitudeMeters>
            <DistanceMeters>NAN</DistanceMeters>
          </Trackpoint>
          <Trackpoint>
            <Time>2021-04-04T08:36:02.000Z</Time>
            <Position>
              <LatitudeDegrees>42.33246208168566226959228515625</LatitudeDegrees>
              <LongitudeDegrees>2.4244592897593975067138671875</LongitudeDegrees>
            </Position>
            <AltitudeMeters>1124</AltitudeMeters>
            <DistanceMeters>NAN</DistanceMeters>
          </Trackpoint>
          <Trackpoint>
            <Time>2021-04-04T08:36:05.000Z</Time>
            <Position>
              <LatitudeDegrees>42.3324854671955108642578125</LatitudeDegrees>
              <LongitudeDegrees>2.42444093339145183563232421875</LongitudeDegrees>
            </Position>
            <AltitudeMeters>1124.5999755859375</AltitudeMeters>
            <DistanceMeters>NAN</DistanceMeters>
          </Trackpoint>
          <Trackpoint>
            <Time>2021-04-04T08:36:07.000Z</Time>
            <Position>
              <LatitudeDegrees>42.33250332064926624298095703125</LatitudeDegrees>
              <LongitudeDegrees>2.42443598806858062744140625</LongitudeDegrees>
            </Position>
            <AltitudeMeters>1124.800048828125</AltitudeMeters>
            <DistanceMeters>NAN</DistanceMeters>
          </Trackpoint>
          <Trackpoint>
            <Time>2021-04-04T08:36:13.000Z</Time>
            <Position>
              <LatitudeDegrees>42.33254120685160160064697265625</LatitudeDegrees>
              <LongitudeDegrees>2.4244348146021366119384765625</LongitudeDegrees>
            </Position>
            <AltitudeMeters>1125.4000244140625</AltitudeMeters>
            <DistanceMeters>NAN</DistanceMeters>
          </Trackpoint>
          <Trackpoint>
            <Time>2021-04-04T08:36:18.000Z</Time>
            <Position>
              <LatitudeDegrees>42.33257104642689228057861328125</LatitudeDegrees>
              <LongitudeDegrees>2.4244069866836071014404296875</LongitudeDegrees>
            </Position>
            <AltitudeMeters>1125.800048828125</AltitudeMeters>
            <DistanceMeters>NAN</DistanceMeters>
          </Trackpoint>
          <Trackpoint>
            <Time>2021-04-04T08:36:19.000Z</Time>
            <Position>
              <LatitudeDegrees>42.3325791768729686737060546875</LatitudeDegrees>
              <LongitudeDegrees>2.424394078552722930908203125</LongitudeDegrees>
            </Position>
            <AltitudeMeters>1125.800048828125</AltitudeMeters>
            <DistanceMeters>NAN</DistanceMeters>
          </Trackpoint>
          <Trackpoint>
            <Time>2021-04-04T08:36:20.000Z</Time>
            <Position>
              <LatitudeDegrees>42.33258806169033050537109375</LatitudeDegrees>
              <LongitudeDegrees>2.4243831820785999298095703125</LongitudeDegrees>
            </Position>
            <AltitudeMeters>1125.800048828125</AltitudeMeters>
            <DistanceMeters>NAN</DistanceMeters>
          </Trackpoint>
          <Trackpoint>
            <Time>2021-04-04T08:36:21.000Z</Time>
            <Position>
              <LatitudeDegrees>42.33260147273540496826171875</LatitudeDegrees>
              <LongitudeDegrees>2.4243778176605701446533203125</LongitudeDegrees>
            </Position>
            <AltitudeMeters>1126.199951171875</AltitudeMeters>
            <DistanceMeters>NAN</DistanceMeters>
          </Trackpoint>
          <Trackpoint>
            <Time>2021-04-04T08:36:26.000Z</Time>
            <Position>
              <LatitudeDegrees>42.3326428793370723724365234375</LatitudeDegrees>
              <LongitudeDegrees>2.4243637360632419586181640625</LongitudeDegrees>
            </Position>
            <AltitudeMeters>1127.199951171875</AltitudeMeters>
            <DistanceMeters>NAN</DistanceMeters>
          </Trackpoint>
          <Trackpoint>
            <Time>2021-04-04T08:36:27.000Z</Time>
            <Position>
              <LatitudeDegrees>42.33264841139316558837890625</LatitudeDegrees>
              <LongitudeDegrees>2.4243587069213390350341796875</LongitudeDegrees>
            </Position>
            <AltitudeMeters>1127.4000244140625</AltitudeMeters>
            <DistanceMeters>NAN</DistanceMeters>
          </Trackpoint>
          <Trackpoint>
            <Time>2021-04-04T08:36:28.000Z</Time>
            <Position>
              <LatitudeDegrees>42.3326536081731319427490234375</LatitudeDegrees>
              <LongitudeDegrees>2.42435258813202381134033203125</LongitudeDegrees>
            </Position>
            <AltitudeMeters>1127.5999755859375</AltitudeMeters>
            <DistanceMeters>NAN</DistanceMeters>
          </Trackpoint>
          <Trackpoint>
            <Time>2021-04-04T08:36:31.000Z</Time>
            <Position>
              <LatitudeDegrees>42.33267682604491710662841796875</LatitudeDegrees>
              <LongitudeDegrees>2.424333728849887847900390625</LongitudeDegrees>
            </Position>
            <AltitudeMeters>1128</AltitudeMeters>
            <DistanceMeters>NAN</DistanceMeters>
          </Trackpoint>
          <Trackpoint>
            <Time>2021-04-04T08:36:37.000Z</Time>
            <Position>
              <LatitudeDegrees>42.3327166400849819183349609375</LatitudeDegrees>
              <LongitudeDegrees>2.4242758937180042266845703125</LongitudeDegrees>
            </Position>
            <AltitudeMeters>1128</AltitudeMeters>
            <DistanceMeters>NAN</DistanceMeters>
          </Trackpoint>
          <Trackpoint>
            <Time>2021-04-04T08:36:46.000Z</Time>
            <Position>
              <LatitudeDegrees>42.3327981121838092803955078125</LatitudeDegrees>
              <LongitudeDegrees>2.42419458925724029541015625</LongitudeDegrees>
            </Position>
            <AltitudeMeters>1127.800048828125</AltitudeMeters>
            <DistanceMeters>NAN</DistanceMeters>
          </Trackpoint>
          <Trackpoint>
            <Time>2021-04-04T08:36:56.000Z</Time>
            <Position>
              <LatitudeDegrees>42.33287966810166835784912109375</LatitudeDegrees>
              <LongitudeDegrees>2.42410683073103427886962890625</LongitudeDegrees>
            </Position>
            <AltitudeMeters>1127.800048828125</AltitudeMeters>
            <DistanceMeters>NAN</DistanceMeters>
          </Trackpoint>
          <Trackpoint>
            <Time>2021-04-04T08:36:57.000Z</Time>
            <Position>
              <LatitudeDegrees>42.33288846909999847412109375</LatitudeDegrees>
              <LongitudeDegrees>2.4240995384752750396728515625</LongitudeDegrees>
            </Position>
            <AltitudeMeters>1127.800048828125</AltitudeMeters>
            <DistanceMeters>NAN</DistanceMeters>
          </Trackpoint>
          <Trackpoint>
            <Time>2021-04-04T08:37:02.000Z</Time>
            <Position>
              <LatitudeDegrees>42.3329315520823001861572265625</LatitudeDegrees>
              <LongitudeDegrees>2.424064837396144866943359375</LongitudeDegrees>
            </Position>
            <AltitudeMeters>1128</AltitudeMeters>
            <DistanceMeters>NAN</DistanceMeters>
          </Trackpoint>
          <Trackpoint>
            <Time>2021-04-04T08:37:07.000Z</Time>
            <Position>
              <LatitudeDegrees>42.332980334758758544921875</LatitudeDegrees>
              <LongitudeDegrees>2.4240311421453952789306640625</LongitudeDegrees>
            </Position>
            <AltitudeMeters>1128.4000244140625</AltitudeMeters>
            <DistanceMeters>NAN</DistanceMeters>
          </Trackpoint>
          <Trackpoint>
            <Time>2021-04-04T08:37:13.000Z</Time>
            <Position>
              <LatitudeDegrees>42.33302383683621883392333984375</LatitudeDegrees>
              <LongitudeDegrees>2.42399954237043857574462890625</LongitudeDegrees>
            </Position>
            <AltitudeMeters>1128.5999755859375</AltitudeMeters>
            <DistanceMeters>NAN</DistanceMeters>
          </Trackpoint>
          <Trackpoint>
            <Time>2021-04-04T08:37:18.000Z</Time>
            <Position>
              <LatitudeDegrees>42.33306289650499820709228515625</LatitudeDegrees>
              <LongitudeDegrees>2.42396919988095760345458984375</LongitudeDegrees>
            </Position>
            <AltitudeMeters>1129</AltitudeMeters>
            <DistanceMeters>NAN</DistanceMeters>
          </Trackpoint>
          <Trackpoint>
            <Time>2021-04-04T08:37:19.000Z</Time>
            <Position>
              <LatitudeDegrees>42.33306976966559886932373046875</LatitudeDegrees>
              <LongitudeDegrees>2.423961572349071502685546875</LongitudeDegrees>
            </Position>
            <AltitudeMeters>1129</AltitudeMeters>
            <DistanceMeters>NAN</DistanceMeters>
          </Trackpoint>
          <Trackpoint>
            <Time>2021-04-04T08:37:23.000Z</Time>
            <Position>
              <LatitudeDegrees>42.33309365808963775634765625</LatitudeDegrees>
              <LongitudeDegrees>2.42392444051802158355712890625</LongitudeDegrees>
            </Position>
            <AltitudeMeters>1129</AltitudeMeters>
            <DistanceMeters>NAN</DistanceMeters>
          </Trackpoint>
          <Trackpoint>
            <Time>2021-04-04T08:37:27.000Z</Time>
            <Position>
              <LatitudeDegrees>42.333111427724361419677734375</LatitudeDegrees>
              <LongitudeDegrees>2.42388236336410045623779296875</LongitudeDegrees>
            </Position>
            <AltitudeMeters>1129.199951171875</AltitudeMeters>
            <DistanceMeters>NAN</DistanceMeters>
          </Trackpoint>
          <Trackpoint>
            <Time>2021-04-04T08:37:34.000Z</Time>
            <Position>
              <LatitudeDegrees>42.33313531614840030670166015625</LatitudeDegrees>
              <LongitudeDegrees>2.4237944371998310089111328125</LongitudeDegrees>
            </Position>
            <AltitudeMeters>1129</AltitudeMeters>
            <DistanceMeters>NAN</DistanceMeters>
          </Trackpoint>
          <Trackpoint>
            <Time>2021-04-04T08:37:35.000Z</Time>
            <Position>
              <LatitudeDegrees>42.33313816599547863006591796875</LatitudeDegrees>
              <LongitudeDegrees>2.423782534897327423095703125</LongitudeDegrees>
            </Position>
            <AltitudeMeters>1129</AltitudeMeters>
            <DistanceMeters>NAN</DistanceMeters>
          </Trackpoint>
          <Trackpoint>
            <Time>2021-04-04T08:37:46.000Z</Time>
            <Position>
              <LatitudeDegrees>42.33315459452569484710693359375</LatitudeDegrees>
              <LongitudeDegrees>2.423633001744747161865234375</LongitudeDegrees>
            </Position>
            <AltitudeMeters>1128</AltitudeMeters>
            <DistanceMeters>NAN</DistanceMeters>
          </Trackpoint>
          <Trackpoint>
            <Time>2021-04-04T08:37:47.000Z</Time>
            <Position>
              <LatitudeDegrees>42.33316515572369098663330078125</LatitudeDegrees>
              <LongitudeDegrees>2.4236224405467510223388671875</LongitudeDegrees>
            </Position>
            <AltitudeMeters>1127.800048828125</AltitudeMeters>
            <DistanceMeters>NAN</DistanceMeters>
          </Trackpoint>
          <Trackpoint>
            <Time>2021-04-04T08:37:50.000Z</Time>
            <Position>
              <LatitudeDegrees>42.33319516293704509735107421875</LatitudeDegrees>
              <LongitudeDegrees>2.423585392534732818603515625</LongitudeDegrees>
            </Position>
            <AltitudeMeters>1127</AltitudeMeters>
            <DistanceMeters>NAN</DistanceMeters>
          </Trackpoint>
          <Trackpoint>
            <Time>2021-04-04T08:37:52.000Z</Time>
            <Position>
              <LatitudeDegrees>42.333209998905658721923828125</LatitudeDegrees>
              <LongitudeDegrees>2.4235573969781398773193359375</LongitudeDegrees>
            </Position>
            <AltitudeMeters>1126.800048828125</AltitudeMeters>
            <DistanceMeters>NAN</DistanceMeters>
          </Trackpoint>
          <Trackpoint>
            <Time>2021-04-04T08:37:53.000Z</Time>
            <Position>
              <LatitudeDegrees>42.33321393840014934539794921875</LatitudeDegrees>
              <LongitudeDegrees>2.4235470034182071685791015625</LongitudeDegrees>
            </Position>
            <AltitudeMeters>1126.5999755859375</AltitudeMeters>
            <DistanceMeters>NAN</DistanceMeters>
          </Trackpoint>
          <Trackpoint>
            <Time>2021-04-04T08:37:57.000Z</Time>
            <Position>
              <LatitudeDegrees>42.33321947045624256134033203125</LatitudeDegrees>
              <LongitudeDegrees>2.4234930239617824554443359375</LongitudeDegrees>
            </Position>
            <AltitudeMeters>1127.199951171875</AltitudeMeters>
            <DistanceMeters>NAN</DistanceMeters>
          </Trackpoint>
          <Trackpoint>
            <Time>2021-04-04T08:38:01.000Z</Time>
            <Position>
              <LatitudeDegrees>42.333216704428195953369140625</LatitudeDegrees>
              <LongitudeDegrees>2.4234356917440891265869140625</LongitudeDegrees>
            </Position>
            <AltitudeMeters>1127.5999755859375</AltitudeMeters>
            <DistanceMeters>NAN</DistanceMeters>
          </Trackpoint>
          <Trackpoint>
            <Time>2021-04-04T08:38:05.000Z</Time>
            <Position>
              <LatitudeDegrees>42.33322374522686004638671875</LatitudeDegrees>
              <LongitudeDegrees>2.423387579619884490966796875</LongitudeDegrees>
            </Position>
            <AltitudeMeters>1128.199951171875</AltitudeMeters>
            <DistanceMeters>NAN</DistanceMeters>
          </Trackpoint>
          <Trackpoint>
            <Time>2021-04-04T08:38:10.000Z</Time>
            <Position>
              <LatitudeDegrees>42.33322500251233577728271484375</LatitudeDegrees>
              <LongitudeDegrees>2.4233408086001873016357421875</LongitudeDegrees>
            </Position>
            <AltitudeMeters>1129</AltitudeMeters>
            <DistanceMeters>NAN</DistanceMeters>
          </Trackpoint>
          <Trackpoint>
            <Time>2021-04-04T08:38:11.000Z</Time>
            <Position>
              <LatitudeDegrees>42.33322533778846263885498046875</LatitudeDegrees>
              <LongitudeDegrees>2.42333016358315944671630859375</LongitudeDegrees>
            </Position>
            <AltitudeMeters>1129.199951171875</AltitudeMeters>
            <DistanceMeters>NAN</DistanceMeters>
          </Trackpoint>
          <Trackpoint>
            <Time>2021-04-04T08:38:13.000Z</Time>
            <Position>
              <LatitudeDegrees>42.333226092159748077392578125</LatitudeDegrees>
              <LongitudeDegrees>2.42331021465361118316650390625</LongitudeDegrees>
            </Position>
            <AltitudeMeters>1129.800048828125</AltitudeMeters>
            <DistanceMeters>NAN</DistanceMeters>
          </Trackpoint>
          <Trackpoint>
            <Time>2021-04-04T08:38:15.000Z</Time>
            <Position>
              <LatitudeDegrees>42.3332319594919681549072265625</LatitudeDegrees>
              <LongitudeDegrees>2.42329470813274383544921875</LongitudeDegrees>
            </Position>
            <AltitudeMeters>1130.199951171875</AltitudeMeters>
            <DistanceMeters>NAN</DistanceMeters>
          </Trackpoint>
          <Trackpoint>
            <Time>2021-04-04T08:38:19.000Z</Time>
            <Position>
              <LatitudeDegrees>42.333267666399478912353515625</LatitudeDegrees>
              <LongitudeDegrees>2.42330233566462993621826171875</LongitudeDegrees>
            </Position>
            <AltitudeMeters>1131.199951171875</AltitudeMeters>
            <DistanceMeters>NAN</DistanceMeters>
          </Trackpoint>
          <Trackpoint>
            <Time>2021-04-04T08:38:20.000Z</Time>
            <Position>
              <LatitudeDegrees>42.3332745395600795745849609375</LatitudeDegrees>
              <LongitudeDegrees>2.42330200038850307464599609375</LongitudeDegrees>
            </Position>
            <AltitudeMeters>1131.4000244140625</AltitudeMeters>
            <DistanceMeters>NAN</DistanceMeters>
          </Trackpoint>
          <Trackpoint>
            <Time>2021-04-04T08:38:24.000Z</Time>
            <Position>
              <LatitudeDegrees>42.3332794010639190673828125</LatitudeDegrees>
              <LongitudeDegrees>2.42327953688800334930419921875</LongitudeDegrees>
            </Position>
            <AltitudeMeters>1132</AltitudeMeters>
            <DistanceMeters>NAN</DistanceMeters>
          </Trackpoint>
          <Trackpoint>
            <Time>2021-04-04T08:38:25.000Z</Time>
            <Position>
              <LatitudeDegrees>42.33327562920749187469482421875</LatitudeDegrees>
              <LongitudeDegrees>2.42327165789902210235595703125</LongitudeDegrees>
            </Position>
            <AltitudeMeters>1132</AltitudeMeters>
            <DistanceMeters>NAN</DistanceMeters>
          </Trackpoint>
          <Trackpoint>
            <Time>2021-04-04T08:38:27.000Z</Time>
            <Position>
              <LatitudeDegrees>42.33326825313270092010498046875</LatitudeDegrees>
              <LongitudeDegrees>2.42325313389301300048828125</LongitudeDegrees>
            </Position>
            <AltitudeMeters>1132.4000244140625</AltitudeMeters>
            <DistanceMeters>NAN</DistanceMeters>
          </Trackpoint>
          <Trackpoint>
            <Time>2021-04-04T08:38:31.000Z</Time>
            <Position>
              <LatitudeDegrees>42.33324696309864521026611328125</LatitudeDegrees>
              <LongitudeDegrees>2.42321633733808994293212890625</LongitudeDegrees>
            </Position>
            <AltitudeMeters>1132.800048828125</AltitudeMeters>
            <DistanceMeters>NAN</DistanceMeters>
          </Trackpoint>
          <Trackpoint>
            <Time>2021-04-04T08:38:34.000Z</Time>
            <Position>
              <LatitudeDegrees>42.33323313295841217041015625</LatitudeDegrees>
              <LongitudeDegrees>2.42319454438984394073486328125</LongitudeDegrees>
            </Position>
            <AltitudeMeters>1133</AltitudeMeters>
            <DistanceMeters>NAN</DistanceMeters>
          </Trackpoint>
          <Trackpoint>
            <Time>2021-04-04T08:38:37.000Z</Time>
            <Position>
              <LatitudeDegrees>42.333221733570098876953125</LatitudeDegrees>
              <LongitudeDegrees>2.42316906340420246124267578125</LongitudeDegrees>
            </Position>
            <AltitudeMeters>1133.4000244140625</AltitudeMeters>
            <DistanceMeters>NAN</DistanceMeters>
          </Trackpoint>
          <Trackpoint>
            <Time>2021-04-04T08:38:38.000Z</Time>
            <Position>
              <LatitudeDegrees>42.33321838080883026123046875</LatitudeDegrees>
              <LongitudeDegrees>2.42316101677715778350830078125</LongitudeDegrees>
            </Position>
            <AltitudeMeters>1133.4000244140625</AltitudeMeters>
            <DistanceMeters>NAN</DistanceMeters>
          </Trackpoint>
          <Trackpoint>
            <Time>2021-04-04T08:38:46.000Z</Time>
            <Position>
              <LatitudeDegrees>42.33318678103387355804443359375</LatitudeDegrees>
              <LongitudeDegrees>2.42310024797916412353515625</LongitudeDegrees>
            </Position>
            <AltitudeMeters>1134.5999755859375</AltitudeMeters>
            <DistanceMeters>NAN</DistanceMeters>
          </Trackpoint>
          <Trackpoint>
            <Time>2021-04-04T08:38:49.000Z</Time>
            <Position>
              <LatitudeDegrees>42.3331783153116703033447265625</LatitudeDegrees>
              <LongitudeDegrees>2.42307920940220355987548828125</LongitudeDegrees>
            </Position>
            <AltitudeMeters>1135</AltitudeMeters>
            <DistanceMeters>NAN</DistanceMeters>
          </Trackpoint>
          <Trackpoint>
            <Time>2021-04-04T08:38:56.000Z</Time>
            <Position>
              <LatitudeDegrees>42.33313883654773235321044921875</LatitudeDegrees>
              <LongitudeDegrees>2.4230239726603031158447265625</LongitudeDegrees>
            </Position>
            <AltitudeMeters>1135.5999755859375</AltitudeMeters>
            <DistanceMeters>NAN</DistanceMeters>
          </Trackpoint>
          <Trackpoint>
            <Time>2021-04-04T08:38:57.000Z</Time>
            <Position>
              <LatitudeDegrees>42.333133220672607421875</LatitudeDegrees>
              <LongitudeDegrees>2.423019111156463623046875</LongitudeDegrees>
            </Position>
            <AltitudeMeters>1135.5999755859375</AltitudeMeters>
            <DistanceMeters>NAN</DistanceMeters>
          </Trackpoint>
          <Trackpoint>
            <Time>2021-04-04T08:39:04.000Z</Time>
            <Position>
              <LatitudeDegrees>42.3330985195934772491455078125</LatitudeDegrees>
              <LongitudeDegrees>2.42296655662357807159423828125</LongitudeDegrees>
            </Position>
            <AltitudeMeters>1136</AltitudeMeters>
            <DistanceMeters>NAN</DistanceMeters>
          </Trackpoint>
          <Trackpoint>
            <Time>2021-04-04T08:39:06.000Z</Time>
            <Position>
              <LatitudeDegrees>42.333091311156749725341796875</LatitudeDegrees>
              <LongitudeDegrees>2.42294576950371265411376953125</LongitudeDegrees>
            </Position>
            <AltitudeMeters>1136</AltitudeMeters>
            <DistanceMeters>NAN</DistanceMeters>
          </Trackpoint>
          <Trackpoint>
            <Time>2021-04-04T08:39:10.000Z</Time>
            <Position>
              <LatitudeDegrees>42.33306708745658397674560546875</LatitudeDegrees>
              <LongitudeDegrees>2.42291517555713653564453125</LongitudeDegrees>
            </Position>
            <AltitudeMeters>1136.5999755859375</AltitudeMeters>
            <DistanceMeters>NAN</DistanceMeters>
          </Trackpoint>
          <Trackpoint>
            <Time>2021-04-04T08:39:11.000Z</Time>
            <Position>
              <LatitudeDegrees>42.3330613039433956146240234375</LatitudeDegrees>
              <LongitudeDegrees>2.4229059554636478424072265625</LongitudeDegrees>
            </Position>
            <AltitudeMeters>1136.800048828125</AltitudeMeters>
            <DistanceMeters>NAN</DistanceMeters>
          </Trackpoint>
          <Trackpoint>
            <Time>2021-04-04T08:39:14.000Z</Time>
            <Position>
              <LatitudeDegrees>42.3330540955066680908203125</LatitudeDegrees>
              <LongitudeDegrees>2.4228818155825138092041015625</LongitudeDegrees>
            </Position>
            <AltitudeMeters>1137.5999755859375</AltitudeMeters>
            <DistanceMeters>NAN</DistanceMeters>
          </Trackpoint>
          <Trackpoint>
            <Time>2021-04-04T08:39:20.000Z</Time>
            <Position>
              <LatitudeDegrees>42.3330405168235301971435546875</LatitudeDegrees>
              <LongitudeDegrees>2.42283202707767486572265625</LongitudeDegrees>
            </Position>
            <AltitudeMeters>1138.800048828125</AltitudeMeters>
            <DistanceMeters>NAN</DistanceMeters>
          </Trackpoint>
          <Trackpoint>
            <Time>2021-04-04T08:39:27.000Z</Time>
            <Position>
              <LatitudeDegrees>42.33308452181518077850341796875</LatitudeDegrees>
              <LongitudeDegrees>2.42279623635113239288330078125</LongitudeDegrees>
            </Position>
            <AltitudeMeters>1139.800048828125</AltitudeMeters>
            <DistanceMeters>NAN</DistanceMeters>
          </Trackpoint>
          <Trackpoint>
            <Time>2021-04-04T08:39:30.000Z</Time>
            <Position>
              <LatitudeDegrees>42.3331062309443950653076171875</LatitudeDegrees>
              <LongitudeDegrees>2.42277846671640872955322265625</LongitudeDegrees>
            </Position>
            <AltitudeMeters>1140</AltitudeMeters>
            <DistanceMeters>NAN</DistanceMeters>
          </Trackpoint>
          <Trackpoint>
            <Time>2021-04-04T08:39:33.000Z</Time>
            <Position>
              <LatitudeDegrees>42.3331266827881336212158203125</LatitudeDegrees>
              <LongitudeDegrees>2.42277511395514011383056640625</LongitudeDegrees>
            </Position>
            <AltitudeMeters>1140.800048828125</AltitudeMeters>
            <DistanceMeters>NAN</DistanceMeters>
          </Trackpoint>
          <Trackpoint>
            <Time>2021-04-04T08:39:34.000Z</Time>
            <Position>
              <LatitudeDegrees>42.33313045464456081390380859375</LatitudeDegrees>
              <LongitudeDegrees>2.42277259938418865203857421875</LongitudeDegrees>
            </Position>
            <AltitudeMeters>1140.800048828125</AltitudeMeters>
            <DistanceMeters>NAN</DistanceMeters>
          </Trackpoint>
          <Trackpoint>
            <Time>2021-04-04T08:39:35.000Z</Time>
            <Position>
              <LatitudeDegrees>42.33313296921551227569580078125</LatitudeDegrees>
              <LongitudeDegrees>2.422772347927093505859375</LongitudeDegrees>
            </Position>
            <AltitudeMeters>1141</AltitudeMeters>
            <DistanceMeters>NAN</DistanceMeters>
          </Trackpoint>
          <Trackpoint>
            <Time>2021-04-04T08:39:45.000Z</Time>
            <Position>
              <LatitudeDegrees>42.3331397585570812225341796875</LatitudeDegrees>
              <LongitudeDegrees>2.42277310229837894439697265625</LongitudeDegrees>
            </Position>
            <AltitudeMeters>1141.199951171875</AltitudeMeters>
            <DistanceMeters>NAN</DistanceMeters>
          </Trackpoint>
          <Trackpoint>
            <Time>2021-04-04T08:39:52.000Z</Time>
            <Position>
              <LatitudeDegrees>42.33313531614840030670166015625</LatitudeDegrees>
              <LongitudeDegrees>2.42276941426098346710205078125</LongitudeDegrees>
            </Position>
            <AltitudeMeters>1141.199951171875</AltitudeMeters>
            <DistanceMeters>NAN</DistanceMeters>
          </Trackpoint>
          <Trackpoint>
            <Time>2021-04-04T08:39:54.000Z</Time>
            <Position>
              <LatitudeDegrees>42.33313531614840030670166015625</LatitudeDegrees>
              <LongitudeDegrees>2.42276941426098346710205078125</LongitudeDegrees>
            </Position>
            <AltitudeMeters>1141.199951171875</AltitudeMeters>
            <DistanceMeters>NAN</DistanceMeters>
          </Trackpoint>
          <Trackpoint>
            <Time>2021-04-04T08:39:56.000Z</Time>
            <Position>
              <LatitudeDegrees>42.33313531614840030670166015625</LatitudeDegrees>
              <LongitudeDegrees>2.42276941426098346710205078125</LongitudeDegrees>
            </Position>
            <AltitudeMeters>1141.199951171875</AltitudeMeters>
            <DistanceMeters>NAN</DistanceMeters>
          </Trackpoint>
          <Trackpoint>
            <Time>2021-04-04T08:40:01.000Z</Time>
            <Position>
              <LatitudeDegrees>42.33313531614840030670166015625</LatitudeDegrees>
              <LongitudeDegrees>2.42276941426098346710205078125</LongitudeDegrees>
            </Position>
            <AltitudeMeters>1141.199951171875</AltitudeMeters>
            <DistanceMeters>NAN</DistanceMeters>
          </Trackpoint>
          <Trackpoint>
            <Time>2021-04-04T08:40:04.000Z</Time>
            <Position>
              <LatitudeDegrees>42.33313531614840030670166015625</LatitudeDegrees>
              <LongitudeDegrees>2.42276874370872974395751953125</LongitudeDegrees>
            </Position>
            <AltitudeMeters>1141.199951171875</AltitudeMeters>
            <DistanceMeters>NAN</DistanceMeters>
          </Trackpoint>
          <Trackpoint>
            <Time>2021-04-04T08:40:13.000Z</Time>
            <Position>
              <LatitudeDegrees>42.3331399261951446533203125</LatitudeDegrees>
              <LongitudeDegrees>2.42272473871707916259765625</LongitudeDegrees>
            </Position>
            <AltitudeMeters>1141.800048828125</AltitudeMeters>
            <DistanceMeters>NAN</DistanceMeters>
          </Trackpoint>
          <Trackpoint>
            <Time>2021-04-04T08:40:14.000Z</Time>
            <Position>
              <LatitudeDegrees>42.33313967473804950714111328125</LatitudeDegrees>
              <LongitudeDegrees>2.42270956747233867645263671875</LongitudeDegrees>
            </Position>
            <AltitudeMeters>1142</AltitudeMeters>
            <DistanceMeters>NAN</DistanceMeters>
          </Trackpoint>
          <Trackpoint>
            <Time>2021-04-04T08:40:17.000Z</Time>
            <Position>
              <LatitudeDegrees>42.33314185403287410736083984375</LatitudeDegrees>
              <LongitudeDegrees>2.42266782559454441070556640625</LongitudeDegrees>
            </Position>
            <AltitudeMeters>1142.800048828125</AltitudeMeters>
            <DistanceMeters>NAN</DistanceMeters>
          </Trackpoint>
          <Trackpoint>
            <Time>2021-04-04T08:40:19.000Z</Time>
            <Position>
              <LatitudeDegrees>42.3331390880048274993896484375</LatitudeDegrees>
              <LongitudeDegrees>2.42263228632509708404541015625</LongitudeDegrees>
            </Position>
            <AltitudeMeters>1143.199951171875</AltitudeMeters>
            <DistanceMeters>NAN</DistanceMeters>
          </Trackpoint>
          <Trackpoint>
            <Time>2021-04-04T08:40:22.000Z</Time>
            <Position>
              <LatitudeDegrees>42.3331307061016559600830078125</LatitudeDegrees>
              <LongitudeDegrees>2.42259599268436431884765625</LongitudeDegrees>
            </Position>
            <AltitudeMeters>1143.5999755859375</AltitudeMeters>
            <DistanceMeters>NAN</DistanceMeters>
          </Trackpoint>
          <Trackpoint>
            <Time>2021-04-04T08:40:25.000Z</Time>
            <Position>
              <LatitudeDegrees>42.333132885396480560302734375</LatitudeDegrees>
              <LongitudeDegrees>2.42256439290940761566162109375</LongitudeDegrees>
            </Position>
            <AltitudeMeters>1144.199951171875</AltitudeMeters>
            <DistanceMeters>NAN</DistanceMeters>
          </Trackpoint>
          <Trackpoint>
            <Time>2021-04-04T08:40:26.000Z</Time>
            <Position>
              <LatitudeDegrees>42.33313347212970256805419921875</LatitudeDegrees>
              <LongitudeDegrees>2.42255584336817264556884765625</LongitudeDegrees>
            </Position>
            <AltitudeMeters>1144.4000244140625</AltitudeMeters>
            <DistanceMeters>NAN</DistanceMeters>
          </Trackpoint>
          <Trackpoint>
            <Time>2021-04-04T08:40:31.000Z</Time>
            <Position>
              <LatitudeDegrees>42.33314705081284046173095703125</LatitudeDegrees>
              <LongitudeDegrees>2.4225066415965557098388671875</LongitudeDegrees>
            </Position>
            <AltitudeMeters>1145</AltitudeMeters>
            <DistanceMeters>NAN</DistanceMeters>
          </Trackpoint>
          <Trackpoint>
            <Time>2021-04-04T08:40:34.000Z</Time>
            <Position>
              <LatitudeDegrees>42.33314990065991878509521484375</LatitudeDegrees>
              <LongitudeDegrees>2.42247520945966243743896484375</LongitudeDegrees>
            </Position>
            <AltitudeMeters>1145.199951171875</AltitudeMeters>
            <DistanceMeters>NAN</DistanceMeters>
          </Trackpoint>
          <Trackpoint>
            <Time>2021-04-04T08:40:35.000Z</Time>
            <Position>
              <LatitudeDegrees>42.333151996135711669921875</LatitudeDegrees>
              <LongitudeDegrees>2.42246481589972972869873046875</LongitudeDegrees>
            </Position>
            <AltitudeMeters>1145.4000244140625</AltitudeMeters>
            <DistanceMeters>NAN</DistanceMeters>
          </Trackpoint>
          <Trackpoint>
            <Time>2021-04-04T08:40:36.000Z</Time>
            <Position>
              <LatitudeDegrees>42.33315358869731426239013671875</LatitudeDegrees>
              <LongitudeDegrees>2.4224560149013996124267578125</LongitudeDegrees>
            </Position>
            <AltitudeMeters>1145.4000244140625</AltitudeMeters>
            <DistanceMeters>NAN</DistanceMeters>
          </Trackpoint>
          <Trackpoint>
            <Time>2021-04-04T08:40:40.000Z</Time>
            <Position>
              <LatitudeDegrees>42.33316549099981784820556640625</LatitudeDegrees>
              <LongitudeDegrees>2.422420978546142578125</LongitudeDegrees>
            </Position>
            <AltitudeMeters>1145.800048828125</AltitudeMeters>
            <DistanceMeters>NAN</DistanceMeters>
          </Trackpoint>
          <Trackpoint>
            <Time>2021-04-04T08:40:42.000Z</Time>
            <Position>
              <LatitudeDegrees>42.333171106874942779541015625</LatitudeDegrees>
              <LongitudeDegrees>2.42240178398787975311279296875</LongitudeDegrees>
            </Position>
            <AltitudeMeters>1146</AltitudeMeters>
            <DistanceMeters>NAN</DistanceMeters>
          </Trackpoint>
          <Trackpoint>
            <Time>2021-04-04T08:40:44.000Z</Time>
            <Position>
              <LatitudeDegrees>42.33317672275006771087646484375</LatitudeDegrees>
              <LongitudeDegrees>2.42238200269639492034912109375</LongitudeDegrees>
            </Position>
            <AltitudeMeters>1146.199951171875</AltitudeMeters>
            <DistanceMeters>NAN</DistanceMeters>
          </Trackpoint>
          <Trackpoint>
            <Time>2021-04-04T08:40:46.000Z</Time>
            <Position>
              <LatitudeDegrees>42.3331742919981479644775390625</LatitudeDegrees>
              <LongitudeDegrees>2.4223567731678485870361328125</LongitudeDegrees>
            </Position>
            <AltitudeMeters>1146.4000244140625</AltitudeMeters>
            <DistanceMeters>NAN</DistanceMeters>
          </Trackpoint>
          <Trackpoint>
            <Time>2021-04-04T08:40:47.000Z</Time>
            <Position>
              <LatitudeDegrees>42.33317236416041851043701171875</LatitudeDegrees>
              <LongitudeDegrees>2.4223467148840427398681640625</LongitudeDegrees>
            </Position>
            <AltitudeMeters>1146.4000244140625</AltitudeMeters>
            <DistanceMeters>NAN</DistanceMeters>
          </Trackpoint>
          <Trackpoint>
            <Time>2021-04-04T08:40:49.000Z</Time>
            <Position>
              <LatitudeDegrees>42.33317169360816478729248046875</LatitudeDegrees>
              <LongitudeDegrees>2.42231712676584720611572265625</LongitudeDegrees>
            </Position>
            <AltitudeMeters>1146.5999755859375</AltitudeMeters>
            <DistanceMeters>NAN</DistanceMeters>
          </Trackpoint>
          <Trackpoint>
            <Time>2021-04-04T08:40:52.000Z</Time>
            <Position>
              <LatitudeDegrees>42.3331773094832897186279296875</LatitudeDegrees>
              <LongitudeDegrees>2.42228913120925426483154296875</LongitudeDegrees>
            </Position>
            <AltitudeMeters>1147</AltitudeMeters>
            <DistanceMeters>NAN</DistanceMeters>
          </Trackpoint>
          <Trackpoint>
            <Time>2021-04-04T08:40:56.000Z</Time>
            <Position>
              <LatitudeDegrees>42.33317789621651172637939453125</LatitudeDegrees>
              <LongitudeDegrees>2.4222385883331298828125</LongitudeDegrees>
            </Position>
            <AltitudeMeters>1147.199951171875</AltitudeMeters>
            <DistanceMeters>NAN</DistanceMeters>
          </Trackpoint>
          <Trackpoint>
            <Time>2021-04-04T08:41:02.000Z</Time>
            <Position>
              <LatitudeDegrees>42.33318082988262176513671875</LatitudeDegrees>
              <LongitudeDegrees>2.42215879261493682861328125</LongitudeDegrees>
            </Position>
            <AltitudeMeters>1147.4000244140625</AltitudeMeters>
            <DistanceMeters>NAN</DistanceMeters>
          </Trackpoint>
          <Trackpoint>
            <Time>2021-04-04T08:41:04.000Z</Time>
            <Position>
              <LatitudeDegrees>42.333182506263256072998046875</LatitudeDegrees>
              <LongitudeDegrees>2.4221385084092617034912109375</LongitudeDegrees>
            </Position>
            <AltitudeMeters>1147.800048828125</AltitudeMeters>
            <DistanceMeters>NAN</DistanceMeters>
          </Trackpoint>
          <Trackpoint>
            <Time>2021-04-04T08:41:07.000Z</Time>
            <Position>
              <LatitudeDegrees>42.33318543992936611175537109375</LatitudeDegrees>
              <LongitudeDegrees>2.4221046455204486846923828125</LongitudeDegrees>
            </Position>
            <AltitudeMeters>1147.800048828125</AltitudeMeters>
            <DistanceMeters>NAN</DistanceMeters>
          </Trackpoint>
          <Trackpoint>
            <Time>2021-04-04T08:41:10.000Z</Time>
            <Position>
              <LatitudeDegrees>42.33319063670933246612548828125</LatitudeDegrees>
              <LongitudeDegrees>2.42207757197320461273193359375</LongitudeDegrees>
            </Position>
            <AltitudeMeters>1148.199951171875</AltitudeMeters>
            <DistanceMeters>NAN</DistanceMeters>
          </Trackpoint>
          <Trackpoint>
            <Time>2021-04-04T08:41:12.000Z</Time>
            <Position>
              <LatitudeDegrees>42.3331920616328716278076171875</LatitudeDegrees>
              <LongitudeDegrees>2.42205326445400714874267578125</LongitudeDegrees>
            </Position>
            <AltitudeMeters>1148.4000244140625</AltitudeMeters>
            <DistanceMeters>NAN</DistanceMeters>
          </Trackpoint>
          <Trackpoint>
            <Time>2021-04-04T08:41:17.000Z</Time>
            <Position>
              <LatitudeDegrees>42.333192564547061920166015625</LatitudeDegrees>
              <LongitudeDegrees>2.4220057390630245208740234375</LongitudeDegrees>
            </Position>
            <AltitudeMeters>1149</AltitudeMeters>
            <DistanceMeters>NAN</DistanceMeters>
          </Trackpoint>
          <Trackpoint>
            <Time>2021-04-04T08:41:19.000Z</Time>
            <Position>
              <LatitudeDegrees>42.33319750986993312835693359375</LatitudeDegrees>
              <LongitudeDegrees>2.42199056781828403472900390625</LongitudeDegrees>
            </Position>
            <AltitudeMeters>1149.4000244140625</AltitudeMeters>
            <DistanceMeters>NAN</DistanceMeters>
          </Trackpoint>
          <Trackpoint>
            <Time>2021-04-04T08:41:21.000Z</Time>
            <Position>
              <LatitudeDegrees>42.33318963088095188140869140625</LatitudeDegrees>
              <LongitudeDegrees>2.4219758994877338409423828125</LongitudeDegrees>
            </Position>
            <AltitudeMeters>1149.5999755859375</AltitudeMeters>
            <DistanceMeters>NAN</DistanceMeters>
          </Trackpoint>
          <Trackpoint>
            <Time>2021-04-04T08:41:25.000Z</Time>
            <Position>
              <LatitudeDegrees>42.3332031257450580596923828125</LatitudeDegrees>
              <LongitudeDegrees>2.42196542210876941680908203125</LongitudeDegrees>
            </Position>
            <AltitudeMeters>1150.199951171875</AltitudeMeters>
            <DistanceMeters>NAN</DistanceMeters>
          </Trackpoint>
          <Trackpoint>
            <Time>2021-04-04T08:41:29.000Z</Time>
            <Position>
              <LatitudeDegrees>42.3332150280475616455078125</LatitudeDegrees>
              <LongitudeDegrees>2.4219437129795551300048828125</LongitudeDegrees>
            </Position>
            <AltitudeMeters>1150.5999755859375</AltitudeMeters>
            <DistanceMeters>NAN</DistanceMeters>
          </Trackpoint>
          <Trackpoint>
            <Time>2021-04-04T08:41:30.000Z</Time>
            <Position>
              <LatitudeDegrees>42.33321368694305419921875</LatitudeDegrees>
              <LongitudeDegrees>2.42193608544766902923583984375</LongitudeDegrees>
            </Position>
            <AltitudeMeters>1150.5999755859375</AltitudeMeters>
            <DistanceMeters>NAN</DistanceMeters>
          </Trackpoint>
          <Trackpoint>
            <Time>2021-04-04T08:41:34.000Z</Time>
            <Position>
              <LatitudeDegrees>42.3332148604094982147216796875</LatitudeDegrees>
              <LongitudeDegrees>2.42192686535418033599853515625</LongitudeDegrees>
            </Position>
            <AltitudeMeters>1150.5999755859375</AltitudeMeters>
            <DistanceMeters>NAN</DistanceMeters>
          </Trackpoint>
          <Trackpoint>
            <Time>2021-04-04T08:41:41.000Z</Time>
            <Position>
              <LatitudeDegrees>42.3332185484468936920166015625</LatitudeDegrees>
              <LongitudeDegrees>2.42192678153514862060546875</LongitudeDegrees>
            </Position>
            <AltitudeMeters>1150.800048828125</AltitudeMeters>
            <DistanceMeters>NAN</DistanceMeters>
          </Trackpoint>
          <Trackpoint>
            <Time>2021-04-04T08:41:51.000Z</Time>
            <Position>
              <LatitudeDegrees>42.3332168720662593841552734375</LatitudeDegrees>
              <LongitudeDegrees>2.42192678153514862060546875</LongitudeDegrees>
            </Position>
            <AltitudeMeters>1151.199951171875</AltitudeMeters>
            <DistanceMeters>NAN</DistanceMeters>
          </Trackpoint>
          <Trackpoint>
            <Time>2021-04-04T08:41:54.000Z</Time>
            <Position>
              <LatitudeDegrees>42.3332165367901325225830078125</LatitudeDegrees>
              <LongitudeDegrees>2.42192208766937255859375</LongitudeDegrees>
            </Position>
            <AltitudeMeters>1151.199951171875</AltitudeMeters>
            <DistanceMeters>NAN</DistanceMeters>
          </Trackpoint>
          <Trackpoint>
            <Time>2021-04-04T08:42:10.000Z</Time>
            <Position>
              <LatitudeDegrees>42.33321703970432281494140625</LatitudeDegrees>
              <LongitudeDegrees>2.42187313735485076904296875</LongitudeDegrees>
            </Position>
            <AltitudeMeters>1151</AltitudeMeters>
            <DistanceMeters>NAN</DistanceMeters>
          </Trackpoint>
          <Trackpoint>
            <Time>2021-04-04T08:42:18.000Z</Time>
            <Position>
              <LatitudeDegrees>42.33321963809430599212646484375</LatitudeDegrees>
              <LongitudeDegrees>2.42186919786036014556884765625</LongitudeDegrees>
            </Position>
            <AltitudeMeters>1150.800048828125</AltitudeMeters>
            <DistanceMeters>NAN</DistanceMeters>
          </Trackpoint>
          <Trackpoint>
            <Time>2021-04-04T08:42:19.000Z</Time>
            <Position>
              <LatitudeDegrees>42.33321980573236942291259765625</LatitudeDegrees>
              <LongitudeDegrees>2.42186911404132843017578125</LongitudeDegrees>
            </Position>
            <AltitudeMeters>1150.800048828125</AltitudeMeters>
            <DistanceMeters>NAN</DistanceMeters>
          </Trackpoint>
          <Trackpoint>
            <Time>2021-04-04T08:42:26.000Z</Time>
            <Position>
              <LatitudeDegrees>42.33322366140782833099365234375</LatitudeDegrees>
              <LongitudeDegrees>2.4218686111271381378173828125</LongitudeDegrees>
            </Position>
            <AltitudeMeters>1151</AltitudeMeters>
            <DistanceMeters>NAN</DistanceMeters>
          </Trackpoint>
          <Trackpoint>
            <Time>2021-04-04T08:42:33.000Z</Time>
            <Position>
              <LatitudeDegrees>42.3332524113357067108154296875</LatitudeDegrees>
              <LongitudeDegrees>2.4218149669468402862548828125</LongitudeDegrees>
            </Position>
            <AltitudeMeters>1151.800048828125</AltitudeMeters>
            <DistanceMeters>NAN</DistanceMeters>
          </Trackpoint>
          <Trackpoint>
            <Time>2021-04-04T08:42:35.000Z</Time>
            <Position>
              <LatitudeDegrees>42.333266325294971466064453125</LatitudeDegrees>
              <LongitudeDegrees>2.42178537882864475250244140625</LongitudeDegrees>
            </Position>
            <AltitudeMeters>1152</AltitudeMeters>
            <DistanceMeters>NAN</DistanceMeters>
          </Trackpoint>
          <Trackpoint>
            <Time>2021-04-04T08:42:39.000Z</Time>
            <Position>
              <LatitudeDegrees>42.33329222537577152252197265625</LatitudeDegrees>
              <LongitudeDegrees>2.42171916179358959197998046875</LongitudeDegrees>
            </Position>
            <AltitudeMeters>1152</AltitudeMeters>
            <DistanceMeters>NAN</DistanceMeters>
          </Trackpoint>
          <Trackpoint>
            <Time>2021-04-04T08:42:42.000Z</Time>
            <Position>
              <LatitudeDegrees>42.3333057202398777008056640625</LatitudeDegrees>
              <LongitudeDegrees>2.421688400208950042724609375</LongitudeDegrees>
            </Position>
            <AltitudeMeters>1152.800048828125</AltitudeMeters>
            <DistanceMeters>NAN</DistanceMeters>
          </Trackpoint>
          <Trackpoint>
            <Time>2021-04-04T08:42:44.000Z</Time>
            <Position>
              <LatitudeDegrees>42.3333181254565715789794921875</LatitudeDegrees>
              <LongitudeDegrees>2.421668954193592071533203125</LongitudeDegrees>
            </Position>
            <AltitudeMeters>1153.199951171875</AltitudeMeters>
            <DistanceMeters>NAN</DistanceMeters>
          </Trackpoint>
          <Trackpoint>
            <Time>2021-04-04T08:42:47.000Z</Time>
            <Position>
              <LatitudeDegrees>42.33333363197743892669677734375</LatitudeDegrees>
              <LongitudeDegrees>2.42164238356053829193115234375</LongitudeDegrees>
            </Position>
            <AltitudeMeters>1153.5999755859375</AltitudeMeters>
            <DistanceMeters>NAN</DistanceMeters>
          </Trackpoint>
          <Trackpoint>
            <Time>2021-04-04T08:42:49.000Z</Time>
            <Position>
              <LatitudeDegrees>42.3333429358899593353271484375</LatitudeDegrees>
              <LongitudeDegrees>2.42162310518324375152587890625</LongitudeDegrees>
            </Position>
            <AltitudeMeters>1153.800048828125</AltitudeMeters>
            <DistanceMeters>NAN</DistanceMeters>
          </Trackpoint>
          <Trackpoint>
            <Time>2021-04-04T08:42:50.000Z</Time>
            <Position>
              <LatitudeDegrees>42.3333469592034816741943359375</LatitudeDegrees>
              <LongitudeDegrees>2.42161187343299388885498046875</LongitudeDegrees>
            </Position>
            <AltitudeMeters>1154</AltitudeMeters>
            <DistanceMeters>NAN</DistanceMeters>
          </Trackpoint>
          <Trackpoint>
            <Time>2021-04-04T08:42:56.000Z</Time>
            <Position>
              <LatitudeDegrees>42.33337956480681896209716796875</LatitudeDegrees>
              <LongitudeDegrees>2.42154347710311412811279296875</LongitudeDegrees>
            </Position>
            <AltitudeMeters>1154.4000244140625</AltitudeMeters>
            <DistanceMeters>NAN</DistanceMeters>
          </Trackpoint>
          <Trackpoint>
            <Time>2021-04-04T08:42:59.000Z</Time>
            <Position>
              <LatitudeDegrees>42.333393394947052001953125</LatitudeDegrees>
              <LongitudeDegrees>2.4215078540146350860595703125</LongitudeDegrees>
            </Position>
            <AltitudeMeters>1154.5999755859375</AltitudeMeters>
            <DistanceMeters>NAN</DistanceMeters>
          </Trackpoint>
          <Trackpoint>
            <Time>2021-04-04T08:43:02.000Z</Time>
            <Position>
              <LatitudeDegrees>42.33341258950531482696533203125</LatitudeDegrees>
              <LongitudeDegrees>2.4214728176593780517578125</LongitudeDegrees>
            </Position>
            <AltitudeMeters>1155</AltitudeMeters>
            <DistanceMeters>NAN</DistanceMeters>
          </Trackpoint>
          <Trackpoint>
            <Time>2021-04-04T08:43:08.000Z</Time>
            <Position>
              <LatitudeDegrees>42.3334462009370326995849609375</LatitudeDegrees>
              <LongitudeDegrees>2.421402744948863983154296875</LongitudeDegrees>
            </Position>
            <AltitudeMeters>1155.199951171875</AltitudeMeters>
            <DistanceMeters>NAN</DistanceMeters>
          </Trackpoint>
          <Trackpoint>
            <Time>2021-04-04T08:43:18.000Z</Time>
            <Position>
              <LatitudeDegrees>42.33350378461182117462158203125</LatitudeDegrees>
              <LongitudeDegrees>2.42130828090012073516845703125</LongitudeDegrees>
            </Position>
            <AltitudeMeters>1155.5999755859375</AltitudeMeters>
            <DistanceMeters>NAN</DistanceMeters>
          </Trackpoint>
          <Trackpoint>
            <Time>2021-04-04T08:43:20.000Z</Time>
            <Position>
              <LatitudeDegrees>42.3335072211921215057373046875</LatitudeDegrees>
              <LongitudeDegrees>2.42129512131214141845703125</LongitudeDegrees>
            </Position>
            <AltitudeMeters>1155.5999755859375</AltitudeMeters>
            <DistanceMeters>NAN</DistanceMeters>
          </Trackpoint>
          <Trackpoint>
            <Time>2021-04-04T08:43:23.000Z</Time>
            <Position>
              <LatitudeDegrees>42.333517111837863922119140625</LatitudeDegrees>
              <LongitudeDegrees>2.42126888595521450042724609375</LongitudeDegrees>
            </Position>
            <AltitudeMeters>1155.5999755859375</AltitudeMeters>
            <DistanceMeters>NAN</DistanceMeters>
          </Trackpoint>
          <Trackpoint>
            <Time>2021-04-04T08:43:26.000Z</Time>
            <Position>
              <LatitudeDegrees>42.33352876268327236175537109375</LatitudeDegrees>
              <LongitudeDegrees>2.42123736999928951263427734375</LongitudeDegrees>
            </Position>
            <AltitudeMeters>1155.4000244140625</AltitudeMeters>
            <DistanceMeters>NAN</DistanceMeters>
          </Trackpoint>
          <Trackpoint>
            <Time>2021-04-04T08:43:32.000Z</Time>
            <Position>
              <LatitudeDegrees>42.3335595242679119110107421875</LatitudeDegrees>
              <LongitudeDegrees>2.42117484100162982940673828125</LongitudeDegrees>
            </Position>
            <AltitudeMeters>1155.4000244140625</AltitudeMeters>
            <DistanceMeters>NAN</DistanceMeters>
          </Trackpoint>
          <Trackpoint>
            <Time>2021-04-04T08:43:36.000Z</Time>
            <Position>
              <LatitudeDegrees>42.3335690796375274658203125</LatitudeDegrees>
              <LongitudeDegrees>2.42118204943835735321044921875</LongitudeDegrees>
            </Position>
            <AltitudeMeters>1155</AltitudeMeters>
            <DistanceMeters>NAN</DistanceMeters>
          </Trackpoint>
          <Trackpoint>
            <Time>2021-04-04T08:43:43.000Z</Time>
            <Position>
              <LatitudeDegrees>42.33356363140046596527099609375</LatitudeDegrees>
              <LongitudeDegrees>2.4211796186864376068115234375</LongitudeDegrees>
            </Position>
            <AltitudeMeters>1155</AltitudeMeters>
            <DistanceMeters>NAN</DistanceMeters>
          </Trackpoint>
          <Trackpoint>
            <Time>2021-04-04T08:43:47.000Z</Time>
            <Position>
              <LatitudeDegrees>42.3335615359246730804443359375</LatitudeDegrees>
              <LongitudeDegrees>2.421179115772247314453125</LongitudeDegrees>
            </Position>
            <AltitudeMeters>1155</AltitudeMeters>
            <DistanceMeters>NAN</DistanceMeters>
          </Trackpoint>
          <Trackpoint>
            <Time>2021-04-04T08:44:12.000Z</Time>
            <Position>
              <LatitudeDegrees>42.333582825958728790283203125</LatitudeDegrees>
              <LongitudeDegrees>2.4211494438350200653076171875</LongitudeDegrees>
            </Position>
            <AltitudeMeters>1155.5999755859375</AltitudeMeters>
            <DistanceMeters>NAN</DistanceMeters>
          </Trackpoint>
          <Trackpoint>
            <Time>2021-04-04T08:44:15.000Z</Time>
            <Position>
              <LatitudeDegrees>42.33360403217375278472900390625</LatitudeDegrees>
              <LongitudeDegrees>2.421105019748210906982421875</LongitudeDegrees>
            </Position>
            <AltitudeMeters>1155.4000244140625</AltitudeMeters>
            <DistanceMeters>NAN</DistanceMeters>
          </Trackpoint>
          <Trackpoint>
            <Time>2021-04-04T08:44:19.000Z</Time>
            <Position>
              <LatitudeDegrees>42.33363906852900981903076171875</LatitudeDegrees>
              <LongitudeDegrees>2.421041317284107208251953125</LongitudeDegrees>
            </Position>
            <AltitudeMeters>1155.199951171875</AltitudeMeters>
            <DistanceMeters>NAN</DistanceMeters>
          </Trackpoint>
          <Trackpoint>
            <Time>2021-04-04T08:44:24.000Z</Time>
            <Position>
              <LatitudeDegrees>42.3336711712181568145751953125</LatitudeDegrees>
              <LongitudeDegrees>2.4209784530103206634521484375</LongitudeDegrees>
            </Position>
            <AltitudeMeters>1154.800048828125</AltitudeMeters>
            <DistanceMeters>NAN</DistanceMeters>
          </Trackpoint>
          <Trackpoint>
            <Time>2021-04-04T08:44:25.000Z</Time>
            <Position>
              <LatitudeDegrees>42.33367972075939178466796875</LatitudeDegrees>
              <LongitudeDegrees>2.42096663452684879302978515625</LongitudeDegrees>
            </Position>
            <AltitudeMeters>1154.800048828125</AltitudeMeters>
            <DistanceMeters>NAN</DistanceMeters>
          </Trackpoint>
          <Trackpoint>
            <Time>2021-04-04T08:44:28.000Z</Time>
            <Position>
              <LatitudeDegrees>42.3336979933083057403564453125</LatitudeDegrees>
              <LongitudeDegrees>2.42092941887676715850830078125</LongitudeDegrees>
            </Position>
            <AltitudeMeters>1154.5999755859375</AltitudeMeters>
            <DistanceMeters>NAN</DistanceMeters>
          </Trackpoint>
          <Trackpoint>
            <Time>2021-04-04T08:44:34.000Z</Time>
            <Position>
              <LatitudeDegrees>42.3337399028241634368896484375</LatitudeDegrees>
              <LongitudeDegrees>2.42085213772952556610107421875</LongitudeDegrees>
            </Position>
            <AltitudeMeters>1154</AltitudeMeters>
            <DistanceMeters>NAN</DistanceMeters>
          </Trackpoint>
          <Trackpoint>
            <Time>2021-04-04T08:44:36.000Z</Time>
            <Position>
              <LatitudeDegrees>42.33375457115471363067626953125</LatitudeDegrees>
              <LongitudeDegrees>2.4208282493054866790771484375</LongitudeDegrees>
            </Position>
            <AltitudeMeters>1154</AltitudeMeters>
            <DistanceMeters>NAN</DistanceMeters>
          </Trackpoint>
          <Trackpoint>
            <Time>2021-04-04T08:44:45.000Z</Time>
            <Position>
              <LatitudeDegrees>42.33382414095103740692138671875</LatitudeDegrees>
              <LongitudeDegrees>2.42071920074522495269775390625</LongitudeDegrees>
            </Position>
            <AltitudeMeters>1153</AltitudeMeters>
            <DistanceMeters>NAN</DistanceMeters>
          </Trackpoint>
          <Trackpoint>
            <Time>2021-04-04T08:44:48.000Z</Time>
            <Position>
              <LatitudeDegrees>42.33384861610829830169677734375</LatitudeDegrees>
              <LongitudeDegrees>2.420683242380619049072265625</LongitudeDegrees>
            </Position>
            <AltitudeMeters>1152.5999755859375</AltitudeMeters>
            <DistanceMeters>NAN</DistanceMeters>
          </Trackpoint>
          <Trackpoint>
            <Time>2021-04-04T08:44:56.000Z</Time>
            <Position>
              <LatitudeDegrees>42.3339072056114673614501953125</LatitudeDegrees>
              <LongitudeDegrees>2.4205938912928104400634765625</LongitudeDegrees>
            </Position>
            <AltitudeMeters>1151.800048828125</AltitudeMeters>
            <DistanceMeters>NAN</DistanceMeters>
          </Trackpoint>
          <Trackpoint>
            <Time>2021-04-04T08:44:58.000Z</Time>
            <Position>
              <LatitudeDegrees>42.33392338268458843231201171875</LatitudeDegrees>
              <LongitudeDegrees>2.42057268507778644561767578125</LongitudeDegrees>
            </Position>
            <AltitudeMeters>1151.5999755859375</AltitudeMeters>
            <DistanceMeters>NAN</DistanceMeters>
          </Trackpoint>
          <Trackpoint>
            <Time>2021-04-04T08:44:59.000Z</Time>
            <Position>
              <LatitudeDegrees>42.3339310102164745330810546875</LatitudeDegrees>
              <LongitudeDegrees>2.4205608665943145751953125</LongitudeDegrees>
            </Position>
            <AltitudeMeters>1151.5999755859375</AltitudeMeters>
            <DistanceMeters>NAN</DistanceMeters>
          </Trackpoint>
          <Trackpoint>
            <Time>2021-04-04T08:45:03.000Z</Time>
            <Position>
              <LatitudeDegrees>42.33397183008491992950439453125</LatitudeDegrees>
              <LongitudeDegrees>2.4205161072313785552978515625</LongitudeDegrees>
            </Position>
            <AltitudeMeters>1151.199951171875</AltitudeMeters>
            <DistanceMeters>NAN</DistanceMeters>
          </Trackpoint>
          <Trackpoint>
            <Time>2021-04-04T08:45:09.000Z</Time>
            <Position>
              <LatitudeDegrees>42.33402262441813945770263671875</LatitudeDegrees>
              <LongitudeDegrees>2.42044913582503795623779296875</LongitudeDegrees>
            </Position>
            <AltitudeMeters>1150.800048828125</AltitudeMeters>
            <DistanceMeters>NAN</DistanceMeters>
          </Trackpoint>
          <Trackpoint>
            <Time>2021-04-04T08:45:10.000Z</Time>
            <Position>
              <LatitudeDegrees>42.334030754864215850830078125</LatitudeDegrees>
              <LongitudeDegrees>2.420439831912517547607421875</LongitudeDegrees>
            </Position>
            <AltitudeMeters>1150.5999755859375</AltitudeMeters>
            <DistanceMeters>NAN</DistanceMeters>
          </Trackpoint>
          <Trackpoint>
            <Time>2021-04-04T08:45:15.000Z</Time>
            <Position>
              <LatitudeDegrees>42.33408071100711822509765625</LatitudeDegrees>
              <LongitudeDegrees>2.42039565928280353546142578125</LongitudeDegrees>
            </Position>
            <AltitudeMeters>1150</AltitudeMeters>
            <DistanceMeters>NAN</DistanceMeters>
          </Trackpoint>
          <Trackpoint>
            <Time>2021-04-04T08:45:20.000Z</Time>
            <Position>
              <LatitudeDegrees>42.33412320725619792938232421875</LatitudeDegrees>
              <LongitudeDegrees>2.42035693489015102386474609375</LongitudeDegrees>
            </Position>
            <AltitudeMeters>1149.5999755859375</AltitudeMeters>
            <DistanceMeters>NAN</DistanceMeters>
          </Trackpoint>
          <Trackpoint>
            <Time>2021-04-04T08:45:22.000Z</Time>
            <Position>
              <LatitudeDegrees>42.33414282090961933135986328125</LatitudeDegrees>
              <LongitudeDegrees>2.42034050635993480682373046875</LongitudeDegrees>
            </Position>
            <AltitudeMeters>1149.4000244140625</AltitudeMeters>
            <DistanceMeters>NAN</DistanceMeters>
          </Trackpoint>
          <Trackpoint>
            <Time>2021-04-04T08:45:28.000Z</Time>
            <Position>
              <LatitudeDegrees>42.334192693233489990234375</LatitudeDegrees>
              <LongitudeDegrees>2.42029004730284214019775390625</LongitudeDegrees>
            </Position>
            <AltitudeMeters>1149.4000244140625</AltitudeMeters>
            <DistanceMeters>NAN</DistanceMeters>
          </Trackpoint>
          <Trackpoint>
            <Time>2021-04-04T08:45:34.000Z</Time>
            <Position>
              <LatitudeDegrees>42.33425103127956390380859375</LatitudeDegrees>
              <LongitudeDegrees>2.4202497303485870361328125</LongitudeDegrees>
            </Position>
            <AltitudeMeters>1148.800048828125</AltitudeMeters>
            <DistanceMeters>NAN</DistanceMeters>
          </Trackpoint>
          <Trackpoint>
            <Time>2021-04-04T08:45:35.000Z</Time>
            <Position>
              <LatitudeDegrees>42.3342602513730525970458984375</LatitudeDegrees>
              <LongitudeDegrees>2.4202438630163669586181640625</LongitudeDegrees>
            </Position>
            <AltitudeMeters>1148.5999755859375</AltitudeMeters>
            <DistanceMeters>NAN</DistanceMeters>
          </Trackpoint>
          <Trackpoint>
            <Time>2021-04-04T08:45:38.000Z</Time>
            <Position>
              <LatitudeDegrees>42.3342800326645374298095703125</LatitudeDegrees>
              <LongitudeDegrees>2.4202282726764678955078125</LongitudeDegrees>
            </Position>
            <AltitudeMeters>1148.4000244140625</AltitudeMeters>
            <DistanceMeters>NAN</DistanceMeters>
          </Trackpoint>
          <Trackpoint>
            <Time>2021-04-04T08:45:40.000Z</Time>
            <Position>
              <LatitudeDegrees>42.3342957906424999237060546875</LatitudeDegrees>
              <LongitudeDegrees>2.4202143587172031402587890625</LongitudeDegrees>
            </Position>
            <AltitudeMeters>1148.199951171875</AltitudeMeters>
            <DistanceMeters>NAN</DistanceMeters>
          </Trackpoint>
          <Trackpoint>
            <Time>2021-04-04T08:45:42.000Z</Time>
            <Position>
              <LatitudeDegrees>42.33431875705718994140625</LatitudeDegrees>
              <LongitudeDegrees>2.42020807228982448577880859375</LongitudeDegrees>
            </Position>
            <AltitudeMeters>1148</AltitudeMeters>
            <DistanceMeters>NAN</DistanceMeters>
          </Trackpoint>
          <Trackpoint>
            <Time>2021-04-04T08:45:43.000Z</Time>
            <Position>
              <LatitudeDegrees>42.33432906679809093475341796875</LatitudeDegrees>
              <LongitudeDegrees>2.420205809175968170166015625</LongitudeDegrees>
            </Position>
            <AltitudeMeters>1148</AltitudeMeters>
            <DistanceMeters>NAN</DistanceMeters>
          </Trackpoint>
          <Trackpoint>
            <Time>2021-04-04T08:45:46.000Z</Time>
            <Position>
              <LatitudeDegrees>42.33436091803014278411865234375</LatitudeDegrees>
              <LongitudeDegrees>2.42019005119800567626953125</LongitudeDegrees>
            </Position>
            <AltitudeMeters>1147.5999755859375</AltitudeMeters>
            <DistanceMeters>NAN</DistanceMeters>
          </Trackpoint>
          <Trackpoint>
            <Time>2021-04-04T08:45:53.000Z</Time>
            <Position>
              <LatitudeDegrees>42.33444490469992160797119140625</LatitudeDegrees>
              <LongitudeDegrees>2.42015945725142955780029296875</LongitudeDegrees>
            </Position>
            <AltitudeMeters>1147.5999755859375</AltitudeMeters>
            <DistanceMeters>NAN</DistanceMeters>
          </Trackpoint>
          <Trackpoint>
            <Time>2021-04-04T08:46:05.000Z</Time>
            <Position>
              <LatitudeDegrees>42.33456091023981571197509765625</LatitudeDegrees>
              <LongitudeDegrees>2.4200876243412494659423828125</LongitudeDegrees>
            </Position>
            <AltitudeMeters>1147.199951171875</AltitudeMeters>
            <DistanceMeters>NAN</DistanceMeters>
          </Trackpoint>
          <Trackpoint>
            <Time>2021-04-04T08:46:08.000Z</Time>
            <Position>
              <LatitudeDegrees>42.33459192328155040740966796875</LatitudeDegrees>
              <LongitudeDegrees>2.42006943561136722564697265625</LongitudeDegrees>
            </Position>
            <AltitudeMeters>1147.199951171875</AltitudeMeters>
            <DistanceMeters>NAN</DistanceMeters>
          </Trackpoint>
          <Trackpoint>
            <Time>2021-04-04T08:46:09.000Z</Time>
            <Position>
              <LatitudeDegrees>42.3346018977463245391845703125</LatitudeDegrees>
              <LongitudeDegrees>2.4200648255646228790283203125</LongitudeDegrees>
            </Position>
            <AltitudeMeters>1147</AltitudeMeters>
            <DistanceMeters>NAN</DistanceMeters>
          </Trackpoint>
          <Trackpoint>
            <Time>2021-04-04T08:46:15.000Z</Time>
            <Position>
              <LatitudeDegrees>42.3346602357923984527587890625</LatitudeDegrees>
              <LongitudeDegrees>2.42002098821103572845458984375</LongitudeDegrees>
            </Position>
            <AltitudeMeters>1146.800048828125</AltitudeMeters>
            <DistanceMeters>NAN</DistanceMeters>
          </Trackpoint>
          <Trackpoint>
            <Time>2021-04-04T08:46:17.000Z</Time>
            <Position>
              <LatitudeDegrees>42.33467775397002696990966796875</LatitudeDegrees>
              <LongitudeDegrees>2.41999785415828227996826171875</LongitudeDegrees>
            </Position>
            <AltitudeMeters>1146.5999755859375</AltitudeMeters>
            <DistanceMeters>NAN</DistanceMeters>
          </Trackpoint>
          <Trackpoint>
            <Time>2021-04-04T08:46:19.000Z</Time>
            <Position>
              <LatitudeDegrees>42.33470139093697071075439453125</LatitudeDegrees>
              <LongitudeDegrees>2.419975139200687408447265625</LongitudeDegrees>
            </Position>
            <AltitudeMeters>1146.5999755859375</AltitudeMeters>
            <DistanceMeters>NAN</DistanceMeters>
          </Trackpoint>
          <Trackpoint>
            <Time>2021-04-04T08:46:20.000Z</Time>
            <Position>
              <LatitudeDegrees>42.33470910228788852691650390625</LatitudeDegrees>
              <LongitudeDegrees>2.41996902041137218475341796875</LongitudeDegrees>
            </Position>
            <AltitudeMeters>1146.4000244140625</AltitudeMeters>
            <DistanceMeters>NAN</DistanceMeters>
          </Trackpoint>
          <Trackpoint>
            <Time>2021-04-04T08:46:24.000Z</Time>
            <Position>
              <LatitudeDegrees>42.33475168235599994659423828125</LatitudeDegrees>
              <LongitudeDegrees>2.419934570789337158203125</LongitudeDegrees>
            </Position>
            <AltitudeMeters>1146.4000244140625</AltitudeMeters>
            <DistanceMeters>NAN</DistanceMeters>
          </Trackpoint>
          <Trackpoint>
            <Time>2021-04-04T08:46:27.000Z</Time>
            <Position>
              <LatitudeDegrees>42.334784455597400665283203125</LatitudeDegrees>
              <LongitudeDegrees>2.41991110146045684814453125</LongitudeDegrees>
            </Position>
            <AltitudeMeters>1146.4000244140625</AltitudeMeters>
            <DistanceMeters>NAN</DistanceMeters>
          </Trackpoint>
          <Trackpoint>
            <Time>2021-04-04T08:46:35.000Z</Time>
            <Position>
              <LatitudeDegrees>42.33486500568687915802001953125</LatitudeDegrees>
              <LongitudeDegrees>2.41983893327414989471435546875</LongitudeDegrees>
            </Position>
            <AltitudeMeters>1145.800048828125</AltitudeMeters>
            <DistanceMeters>NAN</DistanceMeters>
          </Trackpoint>
          <Trackpoint>
            <Time>2021-04-04T08:46:38.000Z</Time>
            <Position>
              <LatitudeDegrees>42.33489744365215301513671875</LatitudeDegrees>
              <LongitudeDegrees>2.4198103509843349456787109375</LongitudeDegrees>
            </Position>
            <AltitudeMeters>1145.5999755859375</AltitudeMeters>
            <DistanceMeters>NAN</DistanceMeters>
          </Trackpoint>
          <Trackpoint>
            <Time>2021-04-04T08:46:48.000Z</Time>
            <Position>
              <LatitudeDegrees>42.33500381000339984893798828125</LatitudeDegrees>
              <LongitudeDegrees>2.419725693762302398681640625</LongitudeDegrees>
            </Position>
            <AltitudeMeters>1144.800048828125</AltitudeMeters>
            <DistanceMeters>NAN</DistanceMeters>
          </Trackpoint>
          <Trackpoint>
            <Time>2021-04-04T08:46:52.000Z</Time>
            <Position>
              <LatitudeDegrees>42.33504001982510089874267578125</LatitudeDegrees>
              <LongitudeDegrees>2.4196946807205677032470703125</LongitudeDegrees>
            </Position>
            <AltitudeMeters>1144.4000244140625</AltitudeMeters>
            <DistanceMeters>NAN</DistanceMeters>
          </Trackpoint>
          <Trackpoint>
            <Time>2021-04-04T08:46:59.000Z</Time>
            <Position>
              <LatitudeDegrees>42.33511495403945446014404296875</LatitudeDegrees>
              <LongitudeDegrees>2.41964631713926792144775390625</LongitudeDegrees>
            </Position>
            <AltitudeMeters>1143.800048828125</AltitudeMeters>
            <DistanceMeters>NAN</DistanceMeters>
          </Trackpoint>
          <Trackpoint>
            <Time>2021-04-04T08:47:02.000Z</Time>
            <Position>
              <LatitudeDegrees>42.335149906575679779052734375</LatitudeDegrees>
              <LongitudeDegrees>2.41961966268718242645263671875</LongitudeDegrees>
            </Position>
            <AltitudeMeters>1143.5999755859375</AltitudeMeters>
            <DistanceMeters>NAN</DistanceMeters>
          </Trackpoint>
          <Trackpoint>
            <Time>2021-04-04T08:47:03.000Z</Time>
            <Position>
              <LatitudeDegrees>42.33515761792659759521484375</LatitudeDegrees>
              <LongitudeDegrees>2.41961413063108921051025390625</LongitudeDegrees>
            </Position>
            <AltitudeMeters>1143.4000244140625</AltitudeMeters>
            <DistanceMeters>NAN</DistanceMeters>
          </Trackpoint>
          <Trackpoint>
            <Time>2021-04-04T08:47:14.000Z</Time>
            <Position>
              <LatitudeDegrees>42.33526599593460559844970703125</LatitudeDegrees>
              <LongitudeDegrees>2.41951522417366504669189453125</LongitudeDegrees>
            </Position>
            <AltitudeMeters>1142.4000244140625</AltitudeMeters>
            <DistanceMeters>NAN</DistanceMeters>
          </Trackpoint>
          <Trackpoint>
            <Time>2021-04-04T08:47:17.000Z</Time>
            <Position>
              <LatitudeDegrees>42.3352932371199131011962890625</LatitudeDegrees>
              <LongitudeDegrees>2.41949259303510189056396484375</LongitudeDegrees>
            </Position>
            <AltitudeMeters>1141.5999755859375</AltitudeMeters>
            <DistanceMeters>NAN</DistanceMeters>
          </Trackpoint>
          <Trackpoint>
            <Time>2021-04-04T08:47:20.000Z</Time>
            <Position>
              <LatitudeDegrees>42.33532886020839214324951171875</LatitudeDegrees>
              <LongitudeDegrees>2.4194697104394435882568359375</LongitudeDegrees>
            </Position>
            <AltitudeMeters>1141.199951171875</AltitudeMeters>
            <DistanceMeters>NAN</DistanceMeters>
          </Trackpoint>
          <Trackpoint>
            <Time>2021-04-04T08:47:21.000Z</Time>
            <Position>
              <LatitudeDegrees>42.3353381641209125518798828125</LatitudeDegrees>
              <LongitudeDegrees>2.41945621557533740997314453125</LongitudeDegrees>
            </Position>
            <AltitudeMeters>1141</AltitudeMeters>
            <DistanceMeters>NAN</DistanceMeters>
          </Trackpoint>
          <Trackpoint>
            <Time>2021-04-04T08:47:23.000Z</Time>
            <Position>
              <LatitudeDegrees>42.33536004088819026947021484375</LatitudeDegrees>
              <LongitudeDegrees>2.41943945176899433135986328125</LongitudeDegrees>
            </Position>
            <AltitudeMeters>1140.5999755859375</AltitudeMeters>
            <DistanceMeters>NAN</DistanceMeters>
          </Trackpoint>
          <Trackpoint>
            <Time>2021-04-04T08:47:27.000Z</Time>
            <Position>
              <LatitudeDegrees>42.3354142718017101287841796875</LatitudeDegrees>
              <LongitudeDegrees>2.41941749118268489837646484375</LongitudeDegrees>
            </Position>
            <AltitudeMeters>1140.199951171875</AltitudeMeters>
            <DistanceMeters>NAN</DistanceMeters>
          </Trackpoint>
          <Trackpoint>
            <Time>2021-04-04T08:47:33.000Z</Time>
            <Position>
              <LatitudeDegrees>42.33546204864978790283203125</LatitudeDegrees>
              <LongitudeDegrees>2.4193594045937061309814453125</LongitudeDegrees>
            </Position>
            <AltitudeMeters>1139.800048828125</AltitudeMeters>
            <DistanceMeters>NAN</DistanceMeters>
          </Trackpoint>
          <Trackpoint>
            <Time>2021-04-04T08:47:39.000Z</Time>
            <Position>
              <LatitudeDegrees>42.33551661483943462371826171875</LatitudeDegrees>
              <LongitudeDegrees>2.41929964162409305572509765625</LongitudeDegrees>
            </Position>
            <AltitudeMeters>1139.199951171875</AltitudeMeters>
            <DistanceMeters>NAN</DistanceMeters>
          </Trackpoint>
          <Trackpoint>
            <Time>2021-04-04T08:47:40.000Z</Time>
            <Position>
              <LatitudeDegrees>42.3355252481997013092041015625</LatitudeDegrees>
              <LongitudeDegrees>2.4192906729876995086669921875</LongitudeDegrees>
            </Position>
            <AltitudeMeters>1139.199951171875</AltitudeMeters>
            <DistanceMeters>NAN</DistanceMeters>
          </Trackpoint>
          <Trackpoint>
            <Time>2021-04-04T08:47:43.000Z</Time>
            <Position>
              <LatitudeDegrees>42.3355512320995330810546875</LatitudeDegrees>
              <LongitudeDegrees>2.41925387643277645111083984375</LongitudeDegrees>
            </Position>
            <AltitudeMeters>1138.5999755859375</AltitudeMeters>
            <DistanceMeters>NAN</DistanceMeters>
          </Trackpoint>
          <Trackpoint>
            <Time>2021-04-04T08:47:46.000Z</Time>
            <Position>
              <LatitudeDegrees>42.335575707256793975830078125</LatitudeDegrees>
              <LongitudeDegrees>2.41922571323812007904052734375</LongitudeDegrees>
            </Position>
            <AltitudeMeters>1138</AltitudeMeters>
            <DistanceMeters>NAN</DistanceMeters>
          </Trackpoint>
          <Trackpoint>
            <Time>2021-04-04T08:47:52.000Z</Time>
            <Position>
              <LatitudeDegrees>42.33563547022640705108642578125</LatitudeDegrees>
              <LongitudeDegrees>2.4191719852387905120849609375</LongitudeDegrees>
            </Position>
            <AltitudeMeters>1137.5999755859375</AltitudeMeters>
            <DistanceMeters>NAN</DistanceMeters>
          </Trackpoint>
          <Trackpoint>
            <Time>2021-04-04T08:47:54.000Z</Time>
            <Position>
              <LatitudeDegrees>42.33565072529017925262451171875</LatitudeDegrees>
              <LongitudeDegrees>2.41914692334830760955810546875</LongitudeDegrees>
            </Position>
            <AltitudeMeters>1137</AltitudeMeters>
            <DistanceMeters>NAN</DistanceMeters>
          </Trackpoint>
          <Trackpoint>
            <Time>2021-04-04T08:48:05.000Z</Time>
            <Position>
              <LatitudeDegrees>42.33574275858700275421142578125</LatitudeDegrees>
              <LongitudeDegrees>2.41901499219238758087158203125</LongitudeDegrees>
            </Position>
            <AltitudeMeters>1136</AltitudeMeters>
            <DistanceMeters>NAN</DistanceMeters>
          </Trackpoint>
          <Trackpoint>
            <Time>2021-04-04T08:48:08.000Z</Time>
            <Position>
              <LatitudeDegrees>42.33576237224042415618896484375</LatitudeDegrees>
              <LongitudeDegrees>2.41899739019572734832763671875</LongitudeDegrees>
            </Position>
            <AltitudeMeters>1136</AltitudeMeters>
            <DistanceMeters>NAN</DistanceMeters>
          </Trackpoint>
          <Trackpoint>
            <Time>2021-04-04T08:48:15.000Z</Time>
            <Position>
              <LatitudeDegrees>42.33583730645477771759033203125</LatitudeDegrees>
              <LongitudeDegrees>2.41893209517002105712890625</LongitudeDegrees>
            </Position>
            <AltitudeMeters>1135.4000244140625</AltitudeMeters>
            <DistanceMeters>NAN</DistanceMeters>
          </Trackpoint>
          <Trackpoint>
            <Time>2021-04-04T08:48:17.000Z</Time>
            <Position>
              <LatitudeDegrees>42.33585289679467678070068359375</LatitudeDegrees>
              <LongitudeDegrees>2.41891256533563137054443359375</LongitudeDegrees>
            </Position>
            <AltitudeMeters>1135.199951171875</AltitudeMeters>
            <DistanceMeters>NAN</DistanceMeters>
          </Trackpoint>
          <Trackpoint>
            <Time>2021-04-04T08:48:21.000Z</Time>
            <Position>
              <LatitudeDegrees>42.3358853347599506378173828125</LatitudeDegrees>
              <LongitudeDegrees>2.4188772775232791900634765625</LongitudeDegrees>
            </Position>
            <AltitudeMeters>1134.800048828125</AltitudeMeters>
            <DistanceMeters>NAN</DistanceMeters>
          </Trackpoint>
          <Trackpoint>
            <Time>2021-04-04T08:48:24.000Z</Time>
            <Position>
              <LatitudeDegrees>42.3359213769435882568359375</LatitudeDegrees>
              <LongitudeDegrees>2.4188497848808765411376953125</LongitudeDegrees>
            </Position>
            <AltitudeMeters>1134.800048828125</AltitudeMeters>
            <DistanceMeters>NAN</DistanceMeters>
          </Trackpoint>
          <Trackpoint>
            <Time>2021-04-04T08:48:34.000Z</Time>
            <Position>
              <LatitudeDegrees>42.336011566221714019775390625</LatitudeDegrees>
              <LongitudeDegrees>2.41875263862311840057373046875</LongitudeDegrees>
            </Position>
            <AltitudeMeters>1133.800048828125</AltitudeMeters>
            <DistanceMeters>NAN</DistanceMeters>
          </Trackpoint>
          <Trackpoint>
            <Time>2021-04-04T08:48:36.000Z</Time>
            <Position>
              <LatitudeDegrees>42.33603696338832378387451171875</LatitudeDegrees>
              <LongitudeDegrees>2.4187354557216167449951171875</LongitudeDegrees>
            </Position>
            <AltitudeMeters>1133.5999755859375</AltitudeMeters>
            <DistanceMeters>NAN</DistanceMeters>
          </Trackpoint>
          <Trackpoint>
            <Time>2021-04-04T08:48:41.000Z</Time>
            <Position>
              <LatitudeDegrees>42.33608859591186046600341796875</LatitudeDegrees>
              <LongitudeDegrees>2.4187039397656917572021484375</LongitudeDegrees>
            </Position>
            <AltitudeMeters>1133.199951171875</AltitudeMeters>
            <DistanceMeters>NAN</DistanceMeters>
          </Trackpoint>
          <Trackpoint>
            <Time>2021-04-04T08:48:43.000Z</Time>
            <Position>
              <LatitudeDegrees>42.33611441217362880706787109375</LatitudeDegrees>
              <LongitudeDegrees>2.41869346238672733306884765625</LongitudeDegrees>
            </Position>
            <AltitudeMeters>1133.199951171875</AltitudeMeters>
            <DistanceMeters>NAN</DistanceMeters>
          </Trackpoint>
          <Trackpoint>
            <Time>2021-04-04T08:48:46.000Z</Time>
            <Position>
              <LatitudeDegrees>42.33614626340568065643310546875</LatitudeDegrees>
              <LongitudeDegrees>2.4186751060187816619873046875</LongitudeDegrees>
            </Position>
            <AltitudeMeters>1133.199951171875</AltitudeMeters>
            <DistanceMeters>NAN</DistanceMeters>
          </Trackpoint>
          <Trackpoint>
            <Time>2021-04-04T08:48:48.000Z</Time>
            <Position>
              <LatitudeDegrees>42.336167134344577789306640625</LatitudeDegrees>
              <LongitudeDegrees>2.4186620302498340606689453125</LongitudeDegrees>
            </Position>
            <AltitudeMeters>1133.199951171875</AltitudeMeters>
            <DistanceMeters>NAN</DistanceMeters>
          </Trackpoint>
          <Trackpoint>
            <Time>2021-04-04T08:48:51.000Z</Time>
            <Position>
              <LatitudeDegrees>42.336199320852756500244140625</LatitudeDegrees>
              <LongitudeDegrees>2.418638728559017181396484375</LongitudeDegrees>
            </Position>
            <AltitudeMeters>1133</AltitudeMeters>
            <DistanceMeters>NAN</DistanceMeters>
          </Trackpoint>
          <Trackpoint>
            <Time>2021-04-04T08:48:56.000Z</Time>
            <Position>
              <LatitudeDegrees>42.33625053428113460540771484375</LatitudeDegrees>
              <LongitudeDegrees>2.41861048154532909393310546875</LongitudeDegrees>
            </Position>
            <AltitudeMeters>1133</AltitudeMeters>
            <DistanceMeters>NAN</DistanceMeters>
          </Trackpoint>
          <Trackpoint>
            <Time>2021-04-04T08:49:00.000Z</Time>
            <Position>
              <LatitudeDegrees>42.33628674410283565521240234375</LatitudeDegrees>
              <LongitudeDegrees>2.41858164779841899871826171875</LongitudeDegrees>
            </Position>
            <AltitudeMeters>1132.5999755859375</AltitudeMeters>
            <DistanceMeters>NAN</DistanceMeters>
          </Trackpoint>
          <Trackpoint>
            <Time>2021-04-04T08:49:03.000Z</Time>
            <Position>
              <LatitudeDegrees>42.33631893061101436614990234375</LatitudeDegrees>
              <LongitudeDegrees>2.4185614474117755889892578125</LongitudeDegrees>
            </Position>
            <AltitudeMeters>1132.5999755859375</AltitudeMeters>
            <DistanceMeters>NAN</DistanceMeters>
          </Trackpoint>
          <Trackpoint>
            <Time>2021-04-04T08:49:12.000Z</Time>
            <Position>
              <LatitudeDegrees>42.336418591439723968505859375</LatitudeDegrees>
              <LongitudeDegrees>2.4185202084481716156005859375</LongitudeDegrees>
            </Position>
            <AltitudeMeters>1132</AltitudeMeters>
            <DistanceMeters>NAN</DistanceMeters>
          </Trackpoint>
          <Trackpoint>
            <Time>2021-04-04T08:49:19.000Z</Time>
            <Position>
              <LatitudeDegrees>42.33649469912052154541015625</LatitudeDegrees>
              <LongitudeDegrees>2.4184900335967540740966796875</LongitudeDegrees>
            </Position>
            <AltitudeMeters>1131.800048828125</AltitudeMeters>
            <DistanceMeters>NAN</DistanceMeters>
          </Trackpoint>
          <Trackpoint>
            <Time>2021-04-04T08:49:20.000Z</Time>
            <Position>
              <LatitudeDegrees>42.33650467358529567718505859375</LatitudeDegrees>
              <LongitudeDegrees>2.4184794723987579345703125</LongitudeDegrees>
            </Position>
            <AltitudeMeters>1131.5999755859375</AltitudeMeters>
            <DistanceMeters>NAN</DistanceMeters>
          </Trackpoint>
          <Trackpoint>
            <Time>2021-04-04T08:49:21.000Z</Time>
            <Position>
              <LatitudeDegrees>42.33651272021234035491943359375</LatitudeDegrees>
              <LongitudeDegrees>2.41846731863915920257568359375</LongitudeDegrees>
            </Position>
            <AltitudeMeters>1131.5999755859375</AltitudeMeters>
            <DistanceMeters>NAN</DistanceMeters>
          </Trackpoint>
          <Trackpoint>
            <Time>2021-04-04T08:49:26.000Z</Time>
            <Position>
              <LatitudeDegrees>42.33655865304172039031982421875</LatitudeDegrees>
              <LongitudeDegrees>2.41842406801879405975341796875</LongitudeDegrees>
            </Position>
            <AltitudeMeters>1131.5999755859375</AltitudeMeters>
            <DistanceMeters>NAN</DistanceMeters>
          </Trackpoint>
          <Trackpoint>
            <Time>2021-04-04T08:49:28.000Z</Time>
            <Position>
              <LatitudeDegrees>42.33654423616826534271240234375</LatitudeDegrees>
              <LongitudeDegrees>2.4183978326618671417236328125</LongitudeDegrees>
            </Position>
            <AltitudeMeters>1131.4000244140625</AltitudeMeters>
            <DistanceMeters>NAN</DistanceMeters>
          </Trackpoint>
          <Trackpoint>
            <Time>2021-04-04T08:49:35.000Z</Time>
            <Position>
              <LatitudeDegrees>42.33652420341968536376953125</LatitudeDegrees>
              <LongitudeDegrees>2.418338321149349212646484375</LongitudeDegrees>
            </Position>
            <AltitudeMeters>1132</AltitudeMeters>
            <DistanceMeters>NAN</DistanceMeters>
          </Trackpoint>
          <Trackpoint>
            <Time>2021-04-04T08:49:36.000Z</Time>
            <Position>
              <LatitudeDegrees>42.33652512542903423309326171875</LatitudeDegrees>
              <LongitudeDegrees>2.41832734085619449615478515625</LongitudeDegrees>
            </Position>
            <AltitudeMeters>1132</AltitudeMeters>
            <DistanceMeters>NAN</DistanceMeters>
          </Trackpoint>
          <Trackpoint>
            <Time>2021-04-04T08:49:41.000Z</Time>
            <Position>
              <LatitudeDegrees>42.33655194751918315887451171875</LatitudeDegrees>
              <LongitudeDegrees>2.418274618685245513916015625</LongitudeDegrees>
            </Position>
            <AltitudeMeters>1132.800048828125</AltitudeMeters>
            <DistanceMeters>NAN</DistanceMeters>
          </Trackpoint>
          <Trackpoint>
            <Time>2021-04-04T08:49:43.000Z</Time>
            <Position>
              <LatitudeDegrees>42.33656602911651134490966796875</LatitudeDegrees>
              <LongitudeDegrees>2.418259195983409881591796875</LongitudeDegrees>
            </Position>
            <AltitudeMeters>1133.199951171875</AltitudeMeters>
            <DistanceMeters>NAN</DistanceMeters>
          </Trackpoint>
          <Trackpoint>
            <Time>2021-04-04T08:49:46.000Z</Time>
            <Position>
              <LatitudeDegrees>42.33657390810549259185791015625</LatitudeDegrees>
              <LongitudeDegrees>2.41823866032063961029052734375</LongitudeDegrees>
            </Position>
            <AltitudeMeters>1133.5999755859375</AltitudeMeters>
            <DistanceMeters>NAN</DistanceMeters>
          </Trackpoint>
          <Trackpoint>
            <Time>2021-04-04T08:49:50.000Z</Time>
            <Position>
              <LatitudeDegrees>42.33658396638929843902587890625</LatitudeDegrees>
              <LongitudeDegrees>2.4182067252695560455322265625</LongitudeDegrees>
            </Position>
            <AltitudeMeters>1134</AltitudeMeters>
            <DistanceMeters>NAN</DistanceMeters>
          </Trackpoint>
          <Trackpoint>
            <Time>2021-04-04T08:49:51.000Z</Time>
            <Position>
              <LatitudeDegrees>42.336590588092803955078125</LatitudeDegrees>
              <LongitudeDegrees>2.41819876246154308319091796875</LongitudeDegrees>
            </Position>
            <AltitudeMeters>1134.199951171875</AltitudeMeters>
            <DistanceMeters>NAN</DistanceMeters>
          </Trackpoint>
          <Trackpoint>
            <Time>2021-04-04T08:49:56.000Z</Time>
            <Position>
              <LatitudeDegrees>42.33661715872585773468017578125</LatitudeDegrees>
              <LongitudeDegrees>2.418153248727321624755859375</LongitudeDegrees>
            </Position>
            <AltitudeMeters>1135</AltitudeMeters>
            <DistanceMeters>NAN</DistanceMeters>
          </Trackpoint>
          <Trackpoint>
            <Time>2021-04-04T08:50:01.000Z</Time>
            <Position>
              <LatitudeDegrees>42.3366437293589115142822265625</LatitudeDegrees>
              <LongitudeDegrees>2.41811536252498626708984375</LongitudeDegrees>
            </Position>
            <AltitudeMeters>1136.199951171875</AltitudeMeters>
            <DistanceMeters>NAN</DistanceMeters>
          </Trackpoint>
          <Trackpoint>
            <Time>2021-04-04T08:50:02.000Z</Time>
            <Position>
              <LatitudeDegrees>42.336649931967258453369140625</LatitudeDegrees>
              <LongitudeDegrees>2.41810941137373447418212890625</LongitudeDegrees>
            </Position>
            <AltitudeMeters>1136.199951171875</AltitudeMeters>
            <DistanceMeters>NAN</DistanceMeters>
          </Trackpoint>
          <Trackpoint>
            <Time>2021-04-04T08:50:10.000Z</Time>
            <Position>
              <LatitudeDegrees>42.33670055866241455078125</LatitudeDegrees>
              <LongitudeDegrees>2.41805224679410457611083984375</LongitudeDegrees>
            </Position>
            <AltitudeMeters>1137.199951171875</AltitudeMeters>
            <DistanceMeters>NAN</DistanceMeters>
          </Trackpoint>
          <Trackpoint>
            <Time>2021-04-04T08:50:15.000Z</Time>
            <Position>
              <LatitudeDegrees>42.33672712929546833038330078125</LatitudeDegrees>
              <LongitudeDegrees>2.41802659817039966583251953125</LongitudeDegrees>
            </Position>
            <AltitudeMeters>1138</AltitudeMeters>
            <DistanceMeters>NAN</DistanceMeters>
          </Trackpoint>
          <Trackpoint>
            <Time>2021-04-04T08:50:19.000Z</Time>
            <Position>
              <LatitudeDegrees>42.336762249469757080078125</LatitudeDegrees>
              <LongitudeDegrees>2.4180085770785808563232421875</LongitudeDegrees>
            </Position>
            <AltitudeMeters>1138.199951171875</AltitudeMeters>
            <DistanceMeters>NAN</DistanceMeters>
          </Trackpoint>
          <Trackpoint>
            <Time>2021-04-04T08:50:22.000Z</Time>
            <Position>
              <LatitudeDegrees>42.3367868922650814056396484375</LatitudeDegrees>
              <LongitudeDegrees>2.41799608804285526275634765625</LongitudeDegrees>
            </Position>
            <AltitudeMeters>1138.4000244140625</AltitudeMeters>
            <DistanceMeters>NAN</DistanceMeters>
          </Trackpoint>
          <Trackpoint>
            <Time>2021-04-04T08:50:27.000Z</Time>
            <Position>
              <LatitudeDegrees>42.336825616657733917236328125</LatitudeDegrees>
              <LongitudeDegrees>2.41798460483551025390625</LongitudeDegrees>
            </Position>
            <AltitudeMeters>1138.5999755859375</AltitudeMeters>
            <DistanceMeters>NAN</DistanceMeters>
          </Trackpoint>
          <Trackpoint>
            <Time>2021-04-04T08:50:30.000Z</Time>
            <Position>
              <LatitudeDegrees>42.33685403130948543548583984375</LatitudeDegrees>
              <LongitudeDegrees>2.4179864488542079925537109375</LongitudeDegrees>
            </Position>
            <AltitudeMeters>1138.800048828125</AltitudeMeters>
            <DistanceMeters>NAN</DistanceMeters>
          </Trackpoint>
          <Trackpoint>
            <Time>2021-04-04T08:50:32.000Z</Time>
            <Position>
              <LatitudeDegrees>42.33686760999262332916259765625</LatitudeDegrees>
              <LongitudeDegrees>2.4179958365857601165771484375</LongitudeDegrees>
            </Position>
            <AltitudeMeters>1139</AltitudeMeters>
            <DistanceMeters>NAN</DistanceMeters>
          </Trackpoint>
          <Trackpoint>
            <Time>2021-04-04T08:50:34.000Z</Time>
            <Position>
              <LatitudeDegrees>42.33688554726541042327880859375</LatitudeDegrees>
              <LongitudeDegrees>2.41798871196806430816650390625</LongitudeDegrees>
            </Position>
            <AltitudeMeters>1139</AltitudeMeters>
            <DistanceMeters>NAN</DistanceMeters>
          </Trackpoint>
          <Trackpoint>
            <Time>2021-04-04T08:50:37.000Z</Time>
            <Position>
              <LatitudeDegrees>42.33691337518393993377685546875</LatitudeDegrees>
              <LongitudeDegrees>2.417983599007129669189453125</LongitudeDegrees>
            </Position>
            <AltitudeMeters>1139.199951171875</AltitudeMeters>
            <DistanceMeters>NAN</DistanceMeters>
          </Trackpoint>
          <Trackpoint>
            <Time>2021-04-04T08:50:39.000Z</Time>
            <Position>
              <LatitudeDegrees>42.33693432994186878204345703125</LatitudeDegrees>
              <LongitudeDegrees>2.41797463037073612213134765625</LongitudeDegrees>
            </Position>
            <AltitudeMeters>1139.5999755859375</AltitudeMeters>
            <DistanceMeters>NAN</DistanceMeters>
          </Trackpoint>
          <Trackpoint>
            <Time>2021-04-04T08:50:43.000Z</Time>
            <Position>
              <LatitudeDegrees>42.336965762078762054443359375</LatitudeDegrees>
              <LongitudeDegrees>2.41795937530696392059326171875</LongitudeDegrees>
            </Position>
            <AltitudeMeters>1140</AltitudeMeters>
            <DistanceMeters>NAN</DistanceMeters>
          </Trackpoint>
          <Trackpoint>
            <Time>2021-04-04T08:50:46.000Z</Time>
            <Position>
              <LatitudeDegrees>42.3369900695979595184326171875</LatitudeDegrees>
              <LongitudeDegrees>2.41795300506055355072021484375</LongitudeDegrees>
            </Position>
            <AltitudeMeters>1140.4000244140625</AltitudeMeters>
            <DistanceMeters>NAN</DistanceMeters>
          </Trackpoint>
          <Trackpoint>
            <Time>2021-04-04T08:50:51.000Z</Time>
            <Position>
              <LatitudeDegrees>42.33703424222767353057861328125</LatitudeDegrees>
              <LongitudeDegrees>2.41794881410896778106689453125</LongitudeDegrees>
            </Position>
            <AltitudeMeters>1140.800048828125</AltitudeMeters>
            <DistanceMeters>NAN</DistanceMeters>
          </Trackpoint>
          <Trackpoint>
            <Time>2021-04-04T08:50:54.000Z</Time>
            <Position>
              <LatitudeDegrees>42.33706106431782245635986328125</LatitudeDegrees>
              <LongitudeDegrees>2.4179510772228240966796875</LongitudeDegrees>
            </Position>
            <AltitudeMeters>1141.199951171875</AltitudeMeters>
            <DistanceMeters>NAN</DistanceMeters>
          </Trackpoint>
          <Trackpoint>
            <Time>2021-04-04T08:50:59.000Z</Time>
            <Position>
              <LatitudeDegrees>42.3371107690036296844482421875</LatitudeDegrees>
              <LongitudeDegrees>2.41795551963150501251220703125</LongitudeDegrees>
            </Position>
            <AltitudeMeters>1141.5999755859375</AltitudeMeters>
            <DistanceMeters>NAN</DistanceMeters>
          </Trackpoint>
          <Trackpoint>
            <Time>2021-04-04T08:51:01.000Z</Time>
            <Position>
              <LatitudeDegrees>42.3371292091906070709228515625</LatitudeDegrees>
              <LongitudeDegrees>2.4179572798311710357666015625</LongitudeDegrees>
            </Position>
            <AltitudeMeters>1142</AltitudeMeters>
            <DistanceMeters>NAN</DistanceMeters>
          </Trackpoint>
          <Trackpoint>
            <Time>2021-04-04T08:51:04.000Z</Time>
            <Position>
              <LatitudeDegrees>42.337164245545864105224609375</LatitudeDegrees>
              <LongitudeDegrees>2.417965494096279144287109375</LongitudeDegrees>
            </Position>
            <AltitudeMeters>1142.5999755859375</AltitudeMeters>
            <DistanceMeters>NAN</DistanceMeters>
          </Trackpoint>
          <Trackpoint>
            <Time>2021-04-04T08:51:08.000Z</Time>
            <Position>
              <LatitudeDegrees>42.337203808128833770751953125</LatitudeDegrees>
              <LongitudeDegrees>2.41797764785587787628173828125</LongitudeDegrees>
            </Position>
            <AltitudeMeters>1143.199951171875</AltitudeMeters>
            <DistanceMeters>NAN</DistanceMeters>
          </Trackpoint>
          <Trackpoint>
            <Time>2021-04-04T08:51:10.000Z</Time>
            <Position>
              <LatitudeDegrees>42.33722568489611148834228515625</LatitudeDegrees>
              <LongitudeDegrees>2.41798083297908306121826171875</LongitudeDegrees>
            </Position>
            <AltitudeMeters>1143.4000244140625</AltitudeMeters>
            <DistanceMeters>NAN</DistanceMeters>
          </Trackpoint>
          <Trackpoint>
            <Time>2021-04-04T08:51:13.000Z</Time>
            <Position>
              <LatitudeDegrees>42.33725150115787982940673828125</LatitudeDegrees>
              <LongitudeDegrees>2.41798284463584423065185546875</LongitudeDegrees>
            </Position>
            <AltitudeMeters>1143.800048828125</AltitudeMeters>
            <DistanceMeters>NAN</DistanceMeters>
          </Trackpoint>
          <Trackpoint>
            <Time>2021-04-04T08:51:18.000Z</Time>
            <Position>
              <LatitudeDegrees>42.33729022555053234100341796875</LatitudeDegrees>
              <LongitudeDegrees>2.41799709387123584747314453125</LongitudeDegrees>
            </Position>
            <AltitudeMeters>1144.199951171875</AltitudeMeters>
            <DistanceMeters>NAN</DistanceMeters>
          </Trackpoint>
          <Trackpoint>
            <Time>2021-04-04T08:51:20.000Z</Time>
            <Position>
              <LatitudeDegrees>42.3373216576874256134033203125</LatitudeDegrees>
              <LongitudeDegrees>2.4180047214031219482421875</LongitudeDegrees>
            </Position>
            <AltitudeMeters>1144.199951171875</AltitudeMeters>
            <DistanceMeters>NAN</DistanceMeters>
          </Trackpoint>
          <Trackpoint>
            <Time>2021-04-04T08:51:23.000Z</Time>
            <Position>
              <LatitudeDegrees>42.33734655193984508514404296875</LatitudeDegrees>
              <LongitudeDegrees>2.41802039556205272674560546875</LongitudeDegrees>
            </Position>
            <AltitudeMeters>1144.5999755859375</AltitudeMeters>
            <DistanceMeters>NAN</DistanceMeters>
          </Trackpoint>
          <Trackpoint>
            <Time>2021-04-04T08:51:25.000Z</Time>
            <Position>
              <LatitudeDegrees>42.337351329624652862548828125</LatitudeDegrees>
              <LongitudeDegrees>2.41803715936839580535888671875</LongitudeDegrees>
            </Position>
            <AltitudeMeters>1144.5999755859375</AltitudeMeters>
            <DistanceMeters>NAN</DistanceMeters>
          </Trackpoint>
          <Trackpoint>
            <Time>2021-04-04T08:51:28.000Z</Time>
            <Position>
              <LatitudeDegrees>42.33735174871981143951416015625</LatitudeDegrees>
              <LongitudeDegrees>2.41805098950862884521484375</LongitudeDegrees>
            </Position>
            <AltitudeMeters>1144.5999755859375</AltitudeMeters>
            <DistanceMeters>NAN</DistanceMeters>
          </Trackpoint>
          <Trackpoint>
            <Time>2021-04-04T08:51:36.000Z</Time>
            <Position>
              <LatitudeDegrees>42.33737806789577007293701171875</LatitudeDegrees>
              <LongitudeDegrees>2.4180588684976100921630859375</LongitudeDegrees>
            </Position>
            <AltitudeMeters>1144.800048828125</AltitudeMeters>
            <DistanceMeters>NAN</DistanceMeters>
          </Trackpoint>
          <Trackpoint>
            <Time>2021-04-04T08:51:40.000Z</Time>
            <Position>
              <LatitudeDegrees>42.33742810785770416259765625</LatitudeDegrees>
              <LongitudeDegrees>2.41806414909660816192626953125</LongitudeDegrees>
            </Position>
            <AltitudeMeters>1145.199951171875</AltitudeMeters>
            <DistanceMeters>NAN</DistanceMeters>
          </Trackpoint>
          <Trackpoint>
            <Time>2021-04-04T08:51:47.000Z</Time>
            <Position>
              <LatitudeDegrees>42.33749943785369396209716796875</LatitudeDegrees>
              <LongitudeDegrees>2.41807504557073116302490234375</LongitudeDegrees>
            </Position>
            <AltitudeMeters>1146</AltitudeMeters>
            <DistanceMeters>NAN</DistanceMeters>
          </Trackpoint>
          <Trackpoint>
            <Time>2021-04-04T08:51:48.000Z</Time>
            <Position>
              <LatitudeDegrees>42.33750522136688232421875</LatitudeDegrees>
              <LongitudeDegrees>2.41807647049427032470703125</LongitudeDegrees>
            </Position>
            <AltitudeMeters>1146.199951171875</AltitudeMeters>
            <DistanceMeters>NAN</DistanceMeters>
          </Trackpoint>
          <Trackpoint>
            <Time>2021-04-04T08:51:49.000Z</Time>
            <Position>
              <LatitudeDegrees>42.33751134015619754791259765625</LatitudeDegrees>
              <LongitudeDegrees>2.41808242164552211761474609375</LongitudeDegrees>
            </Position>
            <AltitudeMeters>1146.199951171875</AltitudeMeters>
            <DistanceMeters>NAN</DistanceMeters>
          </Trackpoint>
          <Trackpoint>
            <Time>2021-04-04T08:51:52.000Z</Time>
            <Position>
              <LatitudeDegrees>42.33753095380961894989013671875</LatitudeDegrees>
              <LongitudeDegrees>2.41809390485286712646484375</LongitudeDegrees>
            </Position>
            <AltitudeMeters>1146.5999755859375</AltitudeMeters>
            <DistanceMeters>NAN</DistanceMeters>
          </Trackpoint>
          <Trackpoint>
            <Time>2021-04-04T08:51:58.000Z</Time>
            <Position>
              <LatitudeDegrees>42.3375694267451763153076171875</LatitudeDegrees>
              <LongitudeDegrees>2.41811879910528659820556640625</LongitudeDegrees>
            </Position>
            <AltitudeMeters>1146.800048828125</AltitudeMeters>
            <DistanceMeters>NAN</DistanceMeters>
          </Trackpoint>
          <Trackpoint>
            <Time>2021-04-04T08:51:59.000Z</Time>
            <Position>
              <LatitudeDegrees>42.33758543618023395538330078125</LatitudeDegrees>
              <LongitudeDegrees>2.4181307852268218994140625</LongitudeDegrees>
            </Position>
            <AltitudeMeters>1149.4000244140625</AltitudeMeters>
            <DistanceMeters>NAN</DistanceMeters>
          </Trackpoint>
          <Trackpoint>
            <Time>2021-04-04T08:52:08.000Z</Time>
            <Position>
              <LatitudeDegrees>42.33764670789241790771484375</LatitudeDegrees>
              <LongitudeDegrees>2.41818778216838836669921875</LongitudeDegrees>
            </Position>
            <AltitudeMeters>1149.5999755859375</AltitudeMeters>
            <DistanceMeters>NAN</DistanceMeters>
          </Trackpoint>
          <Trackpoint>
            <Time>2021-04-04T08:52:15.000Z</Time>
            <Position>
              <LatitudeDegrees>42.3376817442476749420166015625</LatitudeDegrees>
              <LongitudeDegrees>2.4182407557964324951171875</LongitudeDegrees>
            </Position>
            <AltitudeMeters>1150.5999755859375</AltitudeMeters>
            <DistanceMeters>NAN</DistanceMeters>
          </Trackpoint>
          <Trackpoint>
            <Time>2021-04-04T08:52:17.000Z</Time>
            <Position>
              <LatitudeDegrees>42.33769138343632221221923828125</LatitudeDegrees>
              <LongitudeDegrees>2.41824016906321048736572265625</LongitudeDegrees>
            </Position>
            <AltitudeMeters>1150.5999755859375</AltitudeMeters>
            <DistanceMeters>NAN</DistanceMeters>
          </Trackpoint>
          <Trackpoint>
            <Time>2021-04-04T08:52:23.000Z</Time>
            <Position>
              <LatitudeDegrees>42.33769037760794162750244140625</LatitudeDegrees>
              <LongitudeDegrees>2.418206892907619476318359375</LongitudeDegrees>
            </Position>
            <AltitudeMeters>1151.199951171875</AltitudeMeters>
            <DistanceMeters>NAN</DistanceMeters>
          </Trackpoint>
          <Trackpoint>
            <Time>2021-04-04T08:52:26.000Z</Time>
            <Position>
              <LatitudeDegrees>42.3376592807471752166748046875</LatitudeDegrees>
              <LongitudeDegrees>2.41822659038007259368896484375</LongitudeDegrees>
            </Position>
            <AltitudeMeters>1151.5999755859375</AltitudeMeters>
            <DistanceMeters>NAN</DistanceMeters>
          </Trackpoint>
          <Trackpoint>
            <Time>2021-04-04T08:52:29.000Z</Time>
            <Position>
              <LatitudeDegrees>42.33762583695352077484130859375</LatitudeDegrees>
              <LongitudeDegrees>2.41824704222381114959716796875</LongitudeDegrees>
            </Position>
            <AltitudeMeters>1151.800048828125</AltitudeMeters>
            <DistanceMeters>NAN</DistanceMeters>
          </Trackpoint>
          <Trackpoint>
            <Time>2021-04-04T08:52:38.000Z</Time>
            <Position>
              <LatitudeDegrees>42.3375789821147918701171875</LatitudeDegrees>
              <LongitudeDegrees>2.41816037334501743316650390625</LongitudeDegrees>
            </Position>
            <AltitudeMeters>1152.4000244140625</AltitudeMeters>
            <DistanceMeters>NAN</DistanceMeters>
          </Trackpoint>
          <Trackpoint>
            <Time>2021-04-04T08:52:39.000Z</Time>
            <Position>
              <LatitudeDegrees>42.33757688663899898529052734375</LatitudeDegrees>
              <LongitudeDegrees>2.41814662702381610870361328125</LongitudeDegrees>
            </Position>
            <AltitudeMeters>1152.5999755859375</AltitudeMeters>
            <DistanceMeters>NAN</DistanceMeters>
          </Trackpoint>
          <Trackpoint>
            <Time>2021-04-04T08:52:41.000Z</Time>
            <Position>
              <LatitudeDegrees>42.33757068403065204620361328125</LatitudeDegrees>
              <LongitudeDegrees>2.41813480854034423828125</LongitudeDegrees>
            </Position>
            <AltitudeMeters>1152.5999755859375</AltitudeMeters>
            <DistanceMeters>NAN</DistanceMeters>
          </Trackpoint>
          <Trackpoint>
            <Time>2021-04-04T08:52:50.000Z</Time>
            <Position>
              <LatitudeDegrees>42.33753246255218982696533203125</LatitudeDegrees>
              <LongitudeDegrees>2.4180310405790805816650390625</LongitudeDegrees>
            </Position>
            <AltitudeMeters>1153.199951171875</AltitudeMeters>
            <DistanceMeters>NAN</DistanceMeters>
          </Trackpoint>
          <Trackpoint>
            <Time>2021-04-04T08:52:56.000Z</Time>
            <Position>
              <LatitudeDegrees>42.3375094123184680938720703125</LatitudeDegrees>
              <LongitudeDegrees>2.41797178052365779876708984375</LongitudeDegrees>
            </Position>
            <AltitudeMeters>1153.5999755859375</AltitudeMeters>
            <DistanceMeters>NAN</DistanceMeters>
          </Trackpoint>
          <Trackpoint>
            <Time>2021-04-04T08:52:57.000Z</Time>
            <Position>
              <LatitudeDegrees>42.3375065624713897705078125</LatitudeDegrees>
              <LongitudeDegrees>2.4179636500775814056396484375</LongitudeDegrees>
            </Position>
            <AltitudeMeters>1153.800048828125</AltitudeMeters>
            <DistanceMeters>NAN</DistanceMeters>
          </Trackpoint>
          <Trackpoint>
            <Time>2021-04-04T08:53:00.000Z</Time>
            <Position>
              <LatitudeDegrees>42.33749256469309329986572265625</LatitudeDegrees>
              <LongitudeDegrees>2.4179411865770816802978515625</LongitudeDegrees>
            </Position>
            <AltitudeMeters>1154.4000244140625</AltitudeMeters>
            <DistanceMeters>NAN</DistanceMeters>
          </Trackpoint>
          <Trackpoint>
            <Time>2021-04-04T08:53:02.000Z</Time>
            <Position>
              <LatitudeDegrees>42.3374789021909236907958984375</LatitudeDegrees>
              <LongitudeDegrees>2.41792819462716579437255859375</LongitudeDegrees>
            </Position>
            <AltitudeMeters>1154.800048828125</AltitudeMeters>
            <DistanceMeters>NAN</DistanceMeters>
          </Trackpoint>
          <Trackpoint>
            <Time>2021-04-04T08:53:04.000Z</Time>
            <Position>
              <LatitudeDegrees>42.33746993355453014373779296875</LatitudeDegrees>
              <LongitudeDegrees>2.41791511885821819305419921875</LongitudeDegrees>
            </Position>
            <AltitudeMeters>1155</AltitudeMeters>
            <DistanceMeters>NAN</DistanceMeters>
          </Trackpoint>
          <Trackpoint>
            <Time>2021-04-04T08:53:06.000Z</Time>
            <Position>
              <LatitudeDegrees>42.33745853416621685028076171875</LatitudeDegrees>
              <LongitudeDegrees>2.417893745005130767822265625</LongitudeDegrees>
            </Position>
            <AltitudeMeters>1155</AltitudeMeters>
            <DistanceMeters>NAN</DistanceMeters>
          </Trackpoint>
          <Trackpoint>
            <Time>2021-04-04T08:53:09.000Z</Time>
            <Position>
              <LatitudeDegrees>42.3374450393021106719970703125</LatitudeDegrees>
              <LongitudeDegrees>2.41786189377307891845703125</LongitudeDegrees>
            </Position>
            <AltitudeMeters>1155.4000244140625</AltitudeMeters>
            <DistanceMeters>NAN</DistanceMeters>
          </Trackpoint>
          <Trackpoint>
            <Time>2021-04-04T08:53:12.000Z</Time>
            <Position>
              <LatitudeDegrees>42.33743506483733654022216796875</LatitudeDegrees>
              <LongitudeDegrees>2.41782828234136104583740234375</LongitudeDegrees>
            </Position>
            <AltitudeMeters>1155.800048828125</AltitudeMeters>
            <DistanceMeters>NAN</DistanceMeters>
          </Trackpoint>
          <Trackpoint>
            <Time>2021-04-04T08:53:16.000Z</Time>
            <Position>
              <LatitudeDegrees>42.3374198935925960540771484375</LatitudeDegrees>
              <LongitudeDegrees>2.4177832715213298797607421875</LongitudeDegrees>
            </Position>
            <AltitudeMeters>1156.199951171875</AltitudeMeters>
            <DistanceMeters>NAN</DistanceMeters>
          </Trackpoint>
          <Trackpoint>
            <Time>2021-04-04T08:53:19.000Z</Time>
            <Position>
              <LatitudeDegrees>42.33742148615419864654541015625</LatitudeDegrees>
              <LongitudeDegrees>2.41774563677608966827392578125</LongitudeDegrees>
            </Position>
            <AltitudeMeters>1156.800048828125</AltitudeMeters>
            <DistanceMeters>NAN</DistanceMeters>
          </Trackpoint>
          <Trackpoint>
            <Time>2021-04-04T08:53:21.000Z</Time>
            <Position>
              <LatitudeDegrees>42.33742182143032550811767578125</LatitudeDegrees>
              <LongitudeDegrees>2.417722083628177642822265625</LongitudeDegrees>
            </Position>
            <AltitudeMeters>1156.800048828125</AltitudeMeters>
            <DistanceMeters>NAN</DistanceMeters>
          </Trackpoint>
          <Trackpoint>
            <Time>2021-04-04T08:53:28.000Z</Time>
            <Position>
              <LatitudeDegrees>42.33742685057222843170166015625</LatitudeDegrees>
              <LongitudeDegrees>2.417647652328014373779296875</LongitudeDegrees>
            </Position>
            <AltitudeMeters>1157.4000244140625</AltitudeMeters>
            <DistanceMeters>NAN</DistanceMeters>
          </Trackpoint>
          <Trackpoint>
            <Time>2021-04-04T08:53:29.000Z</Time>
            <Position>
              <LatitudeDegrees>42.33742944896221160888671875</LatitudeDegrees>
              <LongitudeDegrees>2.417640946805477142333984375</LongitudeDegrees>
            </Position>
            <AltitudeMeters>1157.5999755859375</AltitudeMeters>
            <DistanceMeters>NAN</DistanceMeters>
          </Trackpoint>
          <Trackpoint>
            <Time>2021-04-04T08:53:31.000Z</Time>
            <Position>
              <LatitudeDegrees>42.3374269343912601470947265625</LatitudeDegrees>
              <LongitudeDegrees>2.41764270700514316558837890625</LongitudeDegrees>
            </Position>
            <AltitudeMeters>1157.4000244140625</AltitudeMeters>
            <DistanceMeters>NAN</DistanceMeters>
          </Trackpoint>
          <Trackpoint>
            <Time>2021-04-04T08:53:33.000Z</Time>
            <Position>
              <LatitudeDegrees>42.337429113686084747314453125</LatitudeDegrees>
              <LongitudeDegrees>2.41763901896774768829345703125</LongitudeDegrees>
            </Position>
            <AltitudeMeters>1157.199951171875</AltitudeMeters>
            <DistanceMeters>NAN</DistanceMeters>
          </Trackpoint>
          <Trackpoint>
            <Time>2021-04-04T08:53:34.000Z</Time>
            <Position>
              <LatitudeDegrees>42.33743573538959026336669921875</LatitudeDegrees>
              <LongitudeDegrees>2.41764103062450885772705078125</LongitudeDegrees>
            </Position>
            <AltitudeMeters>1157.199951171875</AltitudeMeters>
            <DistanceMeters>NAN</DistanceMeters>
          </Trackpoint>
          <Trackpoint>
            <Time>2021-04-04T08:53:39.000Z</Time>
            <Position>
              <LatitudeDegrees>42.33742249198257923126220703125</LatitudeDegrees>
              <LongitudeDegrees>2.4176159687340259552001953125</LongitudeDegrees>
            </Position>
            <AltitudeMeters>1157.199951171875</AltitudeMeters>
            <DistanceMeters>NAN</DistanceMeters>
          </Trackpoint>
          <Trackpoint>
            <Time>2021-04-04T08:53:41.000Z</Time>
            <Position>
              <LatitudeDegrees>42.33742584474384784698486328125</LatitudeDegrees>
              <LongitudeDegrees>2.4176159687340259552001953125</LongitudeDegrees>
            </Position>
            <AltitudeMeters>1157.199951171875</AltitudeMeters>
            <DistanceMeters>NAN</DistanceMeters>
          </Trackpoint>
          <Trackpoint>
            <Time>2021-04-04T08:53:46.000Z</Time>
            <Position>
              <LatitudeDegrees>42.33742584474384784698486328125</LatitudeDegrees>
              <LongitudeDegrees>2.4176159687340259552001953125</LongitudeDegrees>
            </Position>
            <AltitudeMeters>1157.199951171875</AltitudeMeters>
            <DistanceMeters>NAN</DistanceMeters>
          </Trackpoint>
          <Trackpoint>
            <Time>2021-04-04T08:53:51.000Z</Time>
            <Position>
              <LatitudeDegrees>42.33742584474384784698486328125</LatitudeDegrees>
              <LongitudeDegrees>2.4176159687340259552001953125</LongitudeDegrees>
            </Position>
            <AltitudeMeters>1157.199951171875</AltitudeMeters>
            <DistanceMeters>NAN</DistanceMeters>
          </Trackpoint>
          <Trackpoint>
            <Time>2021-04-04T08:53:56.000Z</Time>
            <Position>
              <LatitudeDegrees>42.3374537564814090728759765625</LatitudeDegrees>
              <LongitudeDegrees>2.41754480637609958648681640625</LongitudeDegrees>
            </Position>
            <AltitudeMeters>1157.4000244140625</AltitudeMeters>
            <DistanceMeters>NAN</DistanceMeters>
          </Trackpoint>
          <Trackpoint>
            <Time>2021-04-04T08:54:01.000Z</Time>
            <Position>
              <LatitudeDegrees>42.33749709092080593109130859375</LatitudeDegrees>
              <LongitudeDegrees>2.4174701236188411712646484375</LongitudeDegrees>
            </Position>
            <AltitudeMeters>1158</AltitudeMeters>
            <DistanceMeters>NAN</DistanceMeters>
          </Trackpoint>
          <Trackpoint>
            <Time>2021-04-04T08:54:03.000Z</Time>
            <Position>
              <LatitudeDegrees>42.337506227195262908935546875</LatitudeDegrees>
              <LongitudeDegrees>2.4174547009170055389404296875</LongitudeDegrees>
            </Position>
            <AltitudeMeters>1158.199951171875</AltitudeMeters>
            <DistanceMeters>NAN</DistanceMeters>
          </Trackpoint>
          <Trackpoint>
            <Time>2021-04-04T08:54:11.000Z</Time>
            <Position>
              <LatitudeDegrees>42.33756749890744686126708984375</LatitudeDegrees>
              <LongitudeDegrees>2.41739661432802677154541015625</LongitudeDegrees>
            </Position>
            <AltitudeMeters>1159</AltitudeMeters>
            <DistanceMeters>NAN</DistanceMeters>
          </Trackpoint>
          <Trackpoint>
            <Time>2021-04-04T08:54:12.000Z</Time>
            <Position>
              <LatitudeDegrees>42.3375761322677135467529296875</LatitudeDegrees>
              <LongitudeDegrees>2.41738722659647464752197265625</LongitudeDegrees>
            </Position>
            <AltitudeMeters>1159</AltitudeMeters>
            <DistanceMeters>NAN</DistanceMeters>
          </Trackpoint>
          <Trackpoint>
            <Time>2021-04-04T08:54:21.000Z</Time>
            <Position>
              <LatitudeDegrees>42.3376549221575260162353515625</LatitudeDegrees>
              <LongitudeDegrees>2.41732905618846416473388671875</LongitudeDegrees>
            </Position>
            <AltitudeMeters>1159.5999755859375</AltitudeMeters>
            <DistanceMeters>NAN</DistanceMeters>
          </Trackpoint>
          <Trackpoint>
            <Time>2021-04-04T08:54:26.000Z</Time>
            <Position>
              <LatitudeDegrees>42.3376921378076076507568359375</LatitudeDegrees>
              <LongitudeDegrees>2.41729217581450939178466796875</LongitudeDegrees>
            </Position>
            <AltitudeMeters>1159.800048828125</AltitudeMeters>
            <DistanceMeters>NAN</DistanceMeters>
          </Trackpoint>
          <Trackpoint>
            <Time>2021-04-04T08:54:28.000Z</Time>
            <Position>
              <LatitudeDegrees>42.337706051766872406005859375</LatitudeDegrees>
              <LongitudeDegrees>2.41727340035140514373779296875</LongitudeDegrees>
            </Position>
            <AltitudeMeters>1160</AltitudeMeters>
            <DistanceMeters>NAN</DistanceMeters>
          </Trackpoint>
          <Trackpoint>
            <Time>2021-04-04T08:54:31.000Z</Time>
            <Position>
              <LatitudeDegrees>42.3377345502376556396484375</LatitudeDegrees>
              <LongitudeDegrees>2.41724632680416107177734375</LongitudeDegrees>
            </Position>
            <AltitudeMeters>1160.4000244140625</AltitudeMeters>
            <DistanceMeters>NAN</DistanceMeters>
          </Trackpoint>
          <Trackpoint>
            <Time>2021-04-04T08:54:40.000Z</Time>
            <Position>
              <LatitudeDegrees>42.3378182016313076019287109375</LatitudeDegrees>
              <LongitudeDegrees>2.41719578392803668975830078125</LongitudeDegrees>
            </Position>
            <AltitudeMeters>1160.4000244140625</AltitudeMeters>
            <DistanceMeters>NAN</DistanceMeters>
          </Trackpoint>
          <Trackpoint>
            <Time>2021-04-04T08:54:42.000Z</Time>
            <Position>
              <LatitudeDegrees>42.337833456695079803466796875</LatitudeDegrees>
              <LongitudeDegrees>2.41718195378780364990234375</LongitudeDegrees>
            </Position>
            <AltitudeMeters>1160.5999755859375</AltitudeMeters>
            <DistanceMeters>NAN</DistanceMeters>
          </Trackpoint>
          <Trackpoint>
            <Time>2021-04-04T08:54:46.000Z</Time>
            <Position>
              <LatitudeDegrees>42.33786874450743198394775390625</LatitudeDegrees>
              <LongitudeDegrees>2.417161501944065093994140625</LongitudeDegrees>
            </Position>
            <AltitudeMeters>1161</AltitudeMeters>
            <DistanceMeters>NAN</DistanceMeters>
          </Trackpoint>
          <Trackpoint>
            <Time>2021-04-04T08:54:52.000Z</Time>
            <Position>
              <LatitudeDegrees>42.33792104758322238922119140625</LatitudeDegrees>
              <LongitudeDegrees>2.41712135262787342071533203125</LongitudeDegrees>
            </Position>
            <AltitudeMeters>1161.4000244140625</AltitudeMeters>
            <DistanceMeters>NAN</DistanceMeters>
          </Trackpoint>
          <Trackpoint>
            <Time>2021-04-04T08:55:05.000Z</Time>
            <Position>
              <LatitudeDegrees>42.33802800066769123077392578125</LatitudeDegrees>
              <LongitudeDegrees>2.41704591549932956695556640625</LongitudeDegrees>
            </Position>
            <AltitudeMeters>1161.4000244140625</AltitudeMeters>
            <DistanceMeters>NAN</DistanceMeters>
          </Trackpoint>
          <Trackpoint>
            <Time>2021-04-04T08:55:08.000Z</Time>
            <Position>
              <LatitudeDegrees>42.33805331401526927947998046875</LatitudeDegrees>
              <LongitudeDegrees>2.41702680476009845733642578125</LongitudeDegrees>
            </Position>
            <AltitudeMeters>1161.4000244140625</AltitudeMeters>
            <DistanceMeters>NAN</DistanceMeters>
          </Trackpoint>
          <Trackpoint>
            <Time>2021-04-04T08:55:11.000Z</Time>
            <Position>
              <LatitudeDegrees>42.33808181248605251312255859375</LatitudeDegrees>
              <LongitudeDegrees>2.4170084483921527862548828125</LongitudeDegrees>
            </Position>
            <AltitudeMeters>1161.4000244140625</AltitudeMeters>
            <DistanceMeters>NAN</DistanceMeters>
          </Trackpoint>
          <Trackpoint>
            <Time>2021-04-04T08:55:17.000Z</Time>
            <Position>
              <LatitudeDegrees>42.33812707476317882537841796875</LatitudeDegrees>
              <LongitudeDegrees>2.41696125827729701995849609375</LongitudeDegrees>
            </Position>
            <AltitudeMeters>1161.199951171875</AltitudeMeters>
            <DistanceMeters>NAN</DistanceMeters>
          </Trackpoint>
          <Trackpoint>
            <Time>2021-04-04T08:55:19.000Z</Time>
            <Position>
              <LatitudeDegrees>42.33814802952110767364501953125</LatitudeDegrees>
              <LongitudeDegrees>2.4169497750699520111083984375</LongitudeDegrees>
            </Position>
            <AltitudeMeters>1161.4000244140625</AltitudeMeters>
            <DistanceMeters>NAN</DistanceMeters>
          </Trackpoint>
          <Trackpoint>
            <Time>2021-04-04T08:55:21.000Z</Time>
            <Position>
              <LatitudeDegrees>42.3381672240793704986572265625</LatitudeDegrees>
              <LongitudeDegrees>2.41694214753806591033935546875</LongitudeDegrees>
            </Position>
            <AltitudeMeters>1161.5999755859375</AltitudeMeters>
            <DistanceMeters>NAN</DistanceMeters>
          </Trackpoint>
          <Trackpoint>
            <Time>2021-04-04T08:55:22.000Z</Time>
            <Position>
              <LatitudeDegrees>42.3381749354302883148193359375</LatitudeDegrees>
              <LongitudeDegrees>2.4169330112636089324951171875</LongitudeDegrees>
            </Position>
            <AltitudeMeters>1161.5999755859375</AltitudeMeters>
            <DistanceMeters>NAN</DistanceMeters>
          </Trackpoint>
          <Trackpoint>
            <Time>2021-04-04T08:55:27.000Z</Time>
            <Position>
              <LatitudeDegrees>42.338221706449985504150390625</LatitudeDegrees>
              <LongitudeDegrees>2.41689705289900302886962890625</LongitudeDegrees>
            </Position>
            <AltitudeMeters>1161.800048828125</AltitudeMeters>
            <DistanceMeters>NAN</DistanceMeters>
          </Trackpoint>
          <Trackpoint>
            <Time>2021-04-04T08:55:34.000Z</Time>
            <Position>
              <LatitudeDegrees>42.3382825590670108795166015625</LatitudeDegrees>
              <LongitudeDegrees>2.41684257052838802337646484375</LongitudeDegrees>
            </Position>
            <AltitudeMeters>1161.800048828125</AltitudeMeters>
            <DistanceMeters>NAN</DistanceMeters>
          </Trackpoint>
          <Trackpoint>
            <Time>2021-04-04T08:55:42.000Z</Time>
            <Position>
              <LatitudeDegrees>42.338349111378192901611328125</LatitudeDegrees>
              <LongitudeDegrees>2.4167606793344020843505859375</LongitudeDegrees>
            </Position>
            <AltitudeMeters>1160.5999755859375</AltitudeMeters>
            <DistanceMeters>NAN</DistanceMeters>
          </Trackpoint>
          <Trackpoint>
            <Time>2021-04-04T08:55:43.000Z</Time>
            <Position>
              <LatitudeDegrees>42.3383566550910472869873046875</LatitudeDegrees>
              <LongitudeDegrees>2.41675020195543766021728515625</LongitudeDegrees>
            </Position>
            <AltitudeMeters>1160.5999755859375</AltitudeMeters>
            <DistanceMeters>NAN</DistanceMeters>
          </Trackpoint>
          <Trackpoint>
            <Time>2021-04-04T08:55:48.000Z</Time>
            <Position>
              <LatitudeDegrees>42.33839479275047779083251953125</LatitudeDegrees>
              <LongitudeDegrees>2.4167040176689624786376953125</LongitudeDegrees>
            </Position>
            <AltitudeMeters>1160.199951171875</AltitudeMeters>
            <DistanceMeters>NAN</DistanceMeters>
          </Trackpoint>
          <Trackpoint>
            <Time>2021-04-04T08:55:49.000Z</Time>
            <Position>
              <LatitudeDegrees>42.33839906752109527587890625</LatitudeDegrees>
              <LongitudeDegrees>2.416696138679981231689453125</LongitudeDegrees>
            </Position>
            <AltitudeMeters>1160</AltitudeMeters>
            <DistanceMeters>NAN</DistanceMeters>
          </Trackpoint>
          <Trackpoint>
            <Time>2021-04-04T08:55:50.000Z</Time>
            <Position>
              <LatitudeDegrees>42.33840635977685451507568359375</LatitudeDegrees>
              <LongitudeDegrees>2.4166865833103656768798828125</LongitudeDegrees>
            </Position>
            <AltitudeMeters>1160</AltitudeMeters>
            <DistanceMeters>NAN</DistanceMeters>
          </Trackpoint>
          <Trackpoint>
            <Time>2021-04-04T08:56:02.000Z</Time>
            <Position>
              <LatitudeDegrees>42.33850342221558094024658203125</LatitudeDegrees>
              <LongitudeDegrees>2.4165662191808223724365234375</LongitudeDegrees>
            </Position>
            <AltitudeMeters>1159.4000244140625</AltitudeMeters>
            <DistanceMeters>NAN</DistanceMeters>
          </Trackpoint>
          <Trackpoint>
            <Time>2021-04-04T08:56:09.000Z</Time>
            <Position>
              <LatitudeDegrees>42.3385688848793506622314453125</LatitudeDegrees>
              <LongitudeDegrees>2.41651584394276142120361328125</LongitudeDegrees>
            </Position>
            <AltitudeMeters>1159</AltitudeMeters>
            <DistanceMeters>NAN</DistanceMeters>
          </Trackpoint>
          <Trackpoint>
            <Time>2021-04-04T08:56:11.000Z</Time>
            <Position>
              <LatitudeDegrees>42.33858925290405750274658203125</LatitudeDegrees>
              <LongitudeDegrees>2.41650494746863842010498046875</LongitudeDegrees>
            </Position>
            <AltitudeMeters>1158.800048828125</AltitudeMeters>
            <DistanceMeters>NAN</DistanceMeters>
          </Trackpoint>
          <Trackpoint>
            <Time>2021-04-04T08:56:13.000Z</Time>
            <Position>
              <LatitudeDegrees>42.33860501088201999664306640625</LatitudeDegrees>
              <LongitudeDegrees>2.4164946377277374267578125</LongitudeDegrees>
            </Position>
            <AltitudeMeters>1158.5999755859375</AltitudeMeters>
            <DistanceMeters>NAN</DistanceMeters>
          </Trackpoint>
          <Trackpoint>
            <Time>2021-04-04T08:56:15.000Z</Time>
            <Position>
              <LatitudeDegrees>42.33862294815480709075927734375</LatitudeDegrees>
              <LongitudeDegrees>2.41648717783391475677490234375</LongitudeDegrees>
            </Position>
            <AltitudeMeters>1158.4000244140625</AltitudeMeters>
            <DistanceMeters>NAN</DistanceMeters>
          </Trackpoint>
          <Trackpoint>
            <Time>2021-04-04T08:56:17.000Z</Time>
            <Position>
              <LatitudeDegrees>42.33864180743694305419921875</LatitudeDegrees>
              <LongitudeDegrees>2.416478879749774932861328125</LongitudeDegrees>
            </Position>
            <AltitudeMeters>1158.199951171875</AltitudeMeters>
            <DistanceMeters>NAN</DistanceMeters>
          </Trackpoint>
          <Trackpoint>
            <Time>2021-04-04T08:56:21.000Z</Time>
            <Position>
              <LatitudeDegrees>42.33868564479053020477294921875</LatitudeDegrees>
              <LongitudeDegrees>2.41646370850503444671630859375</LongitudeDegrees>
            </Position>
            <AltitudeMeters>1157.800048828125</AltitudeMeters>
            <DistanceMeters>NAN</DistanceMeters>
          </Trackpoint>
          <Trackpoint>
            <Time>2021-04-04T08:56:25.000Z</Time>
            <Position>
              <LatitudeDegrees>42.3387224413454532623291015625</LatitudeDegrees>
              <LongitudeDegrees>2.4164542369544506072998046875</LongitudeDegrees>
            </Position>
            <AltitudeMeters>1157.5999755859375</AltitudeMeters>
            <DistanceMeters>NAN</DistanceMeters>
          </Trackpoint>
          <Trackpoint>
            <Time>2021-04-04T08:56:30.000Z</Time>
            <Position>
              <LatitudeDegrees>42.33878086321055889129638671875</LatitudeDegrees>
              <LongitudeDegrees>2.41644225083291530609130859375</LongitudeDegrees>
            </Position>
            <AltitudeMeters>1157.199951171875</AltitudeMeters>
            <DistanceMeters>NAN</DistanceMeters>
          </Trackpoint>
          <Trackpoint>
            <Time>2021-04-04T08:56:35.000Z</Time>
            <Position>
              <LatitudeDegrees>42.33884691260755062103271484375</LatitudeDegrees>
              <LongitudeDegrees>2.41643965244293212890625</LongitudeDegrees>
            </Position>
            <AltitudeMeters>1156.800048828125</AltitudeMeters>
            <DistanceMeters>NAN</DistanceMeters>
          </Trackpoint>
          <Trackpoint>
            <Time>2021-04-04T08:56:37.000Z</Time>
            <Position>
              <LatitudeDegrees>42.33887759037315845489501953125</LatitudeDegrees>
              <LongitudeDegrees>2.4164542369544506072998046875</LongitudeDegrees>
            </Position>
            <AltitudeMeters>1156.800048828125</AltitudeMeters>
            <DistanceMeters>NAN</DistanceMeters>
          </Trackpoint>
          <Trackpoint>
            <Time>2021-04-04T08:56:46.000Z</Time>
            <Position>
              <LatitudeDegrees>42.338968031108379364013671875</LatitudeDegrees>
              <LongitudeDegrees>2.41649673320353031158447265625</LongitudeDegrees>
            </Position>
            <AltitudeMeters>1156.4000244140625</AltitudeMeters>
            <DistanceMeters>NAN</DistanceMeters>
          </Trackpoint>
          <Trackpoint>
            <Time>2021-04-04T08:56:54.000Z</Time>
            <Position>
              <LatitudeDegrees>42.339056544005870819091796875</LatitudeDegrees>
              <LongitudeDegrees>2.4165239743888378143310546875</LongitudeDegrees>
            </Position>
            <AltitudeMeters>1155.5999755859375</AltitudeMeters>
            <DistanceMeters>NAN</DistanceMeters>
          </Trackpoint>
          <Trackpoint>
            <Time>2021-04-04T08:56:59.000Z</Time>
            <Position>
              <LatitudeDegrees>42.3391143791377544403076171875</LatitudeDegrees>
              <LongitudeDegrees>2.41654568351805210113525390625</LongitudeDegrees>
            </Position>
            <AltitudeMeters>1155.199951171875</AltitudeMeters>
            <DistanceMeters>NAN</DistanceMeters>
          </Trackpoint>
          <Trackpoint>
            <Time>2021-04-04T08:57:06.000Z</Time>
            <Position>
              <LatitudeDegrees>42.33919593505561351776123046875</LatitudeDegrees>
              <LongitudeDegrees>2.41657904349267482757568359375</LongitudeDegrees>
            </Position>
            <AltitudeMeters>1155.199951171875</AltitudeMeters>
            <DistanceMeters>NAN</DistanceMeters>
          </Trackpoint>
          <Trackpoint>
            <Time>2021-04-04T08:57:14.000Z</Time>
            <Position>
              <LatitudeDegrees>42.33928277157247066497802734375</LatitudeDegrees>
              <LongitudeDegrees>2.4166394770145416259765625</LongitudeDegrees>
            </Position>
            <AltitudeMeters>1155</AltitudeMeters>
            <DistanceMeters>NAN</DistanceMeters>
          </Trackpoint>
          <Trackpoint>
            <Time>2021-04-04T08:57:18.000Z</Time>
            <Position>
              <LatitudeDegrees>42.33932753093540668487548828125</LatitudeDegrees>
              <LongitudeDegrees>2.4166617728769779205322265625</LongitudeDegrees>
            </Position>
            <AltitudeMeters>1154.5999755859375</AltitudeMeters>
            <DistanceMeters>NAN</DistanceMeters>
          </Trackpoint>
          <Trackpoint>
            <Time>2021-04-04T08:57:19.000Z</Time>
            <Position>
              <LatitudeDegrees>42.3393393494188785552978515625</LatitudeDegrees>
              <LongitudeDegrees>2.4166654609143733978271484375</LongitudeDegrees>
            </Position>
            <AltitudeMeters>1154.800048828125</AltitudeMeters>
            <DistanceMeters>NAN</DistanceMeters>
          </Trackpoint>
          <Trackpoint>
            <Time>2021-04-04T08:57:22.000Z</Time>
            <Position>
              <LatitudeDegrees>42.33937229029834270477294921875</LatitudeDegrees>
              <LongitudeDegrees>2.41668415255844593048095703125</LongitudeDegrees>
            </Position>
            <AltitudeMeters>1154.5999755859375</AltitudeMeters>
            <DistanceMeters>NAN</DistanceMeters>
          </Trackpoint>
          <Trackpoint>
            <Time>2021-04-04T08:57:26.000Z</Time>
            <Position>
              <LatitudeDegrees>42.33941520564258098602294921875</LatitudeDegrees>
              <LongitudeDegrees>2.41670644842088222503662109375</LongitudeDegrees>
            </Position>
            <AltitudeMeters>1154.4000244140625</AltitudeMeters>
            <DistanceMeters>NAN</DistanceMeters>
          </Trackpoint>
          <Trackpoint>
            <Time>2021-04-04T08:57:35.000Z</Time>
            <Position>
              <LatitudeDegrees>42.339498102664947509765625</LatitudeDegrees>
              <LongitudeDegrees>2.4167690612375736236572265625</LongitudeDegrees>
            </Position>
            <AltitudeMeters>1154.4000244140625</AltitudeMeters>
            <DistanceMeters>NAN</DistanceMeters>
          </Trackpoint>
          <Trackpoint>
            <Time>2021-04-04T08:57:39.000Z</Time>
            <Position>
              <LatitudeDegrees>42.3395348154008388519287109375</LatitudeDegrees>
              <LongitudeDegrees>2.4168106354773044586181640625</LongitudeDegrees>
            </Position>
            <AltitudeMeters>1154.199951171875</AltitudeMeters>
            <DistanceMeters>NAN</DistanceMeters>
          </Trackpoint>
          <Trackpoint>
            <Time>2021-04-04T08:57:41.000Z</Time>
            <Position>
              <LatitudeDegrees>42.33954478986561298370361328125</LatitudeDegrees>
              <LongitudeDegrees>2.4168347753584384918212890625</LongitudeDegrees>
            </Position>
            <AltitudeMeters>1154.199951171875</AltitudeMeters>
            <DistanceMeters>NAN</DistanceMeters>
          </Trackpoint>
          <Trackpoint>
            <Time>2021-04-04T08:57:43.000Z</Time>
            <Position>
              <LatitudeDegrees>42.339553423225879669189453125</LatitudeDegrees>
              <LongitudeDegrees>2.4168569035828113555908203125</LongitudeDegrees>
            </Position>
            <AltitudeMeters>1154.199951171875</AltitudeMeters>
            <DistanceMeters>NAN</DistanceMeters>
          </Trackpoint>
          <Trackpoint>
            <Time>2021-04-04T08:57:45.000Z</Time>
            <Position>
              <LatitudeDegrees>42.3395706899464130401611328125</LatitudeDegrees>
              <LongitudeDegrees>2.4168843962252140045166015625</LongitudeDegrees>
            </Position>
            <AltitudeMeters>1154</AltitudeMeters>
            <DistanceMeters>NAN</DistanceMeters>
          </Trackpoint>
          <Trackpoint>
            <Time>2021-04-04T08:57:48.000Z</Time>
            <Position>
              <LatitudeDegrees>42.33960044570267200469970703125</LatitudeDegrees>
              <LongitudeDegrees>2.41691817529499530792236328125</LongitudeDegrees>
            </Position>
            <AltitudeMeters>1153.4000244140625</AltitudeMeters>
            <DistanceMeters>NAN</DistanceMeters>
          </Trackpoint>
          <Trackpoint>
            <Time>2021-04-04T08:57:49.000Z</Time>
            <Position>
              <LatitudeDegrees>42.339615784585475921630859375</LatitudeDegrees>
              <LongitudeDegrees>2.41692555136978626251220703125</LongitudeDegrees>
            </Position>
            <AltitudeMeters>1153.4000244140625</AltitudeMeters>
            <DistanceMeters>NAN</DistanceMeters>
          </Trackpoint>
          <Trackpoint>
            <Time>2021-04-04T08:57:52.000Z</Time>
            <Position>
              <LatitudeDegrees>42.33964788727462291717529296875</LatitudeDegrees>
              <LongitudeDegrees>2.41695036180317401885986328125</LongitudeDegrees>
            </Position>
            <AltitudeMeters>1153.199951171875</AltitudeMeters>
            <DistanceMeters>NAN</DistanceMeters>
          </Trackpoint>
          <Trackpoint>
            <Time>2021-04-04T08:57:53.000Z</Time>
            <Position>
              <LatitudeDegrees>42.33966280706226825714111328125</LatitudeDegrees>
              <LongitudeDegrees>2.41695907898247241973876953125</LongitudeDegrees>
            </Position>
            <AltitudeMeters>1153.199951171875</AltitudeMeters>
            <DistanceMeters>NAN</DistanceMeters>
          </Trackpoint>
          <Trackpoint>
            <Time>2021-04-04T08:57:55.000Z</Time>
            <Position>
              <LatitudeDegrees>42.33968979679048061370849609375</LatitudeDegrees>
              <LongitudeDegrees>2.4169814586639404296875</LongitudeDegrees>
            </Position>
            <AltitudeMeters>1153.199951171875</AltitudeMeters>
            <DistanceMeters>NAN</DistanceMeters>
          </Trackpoint>
          <Trackpoint>
            <Time>2021-04-04T08:57:59.000Z</Time>
            <Position>
              <LatitudeDegrees>42.33971209265291690826416015625</LatitudeDegrees>
              <LongitudeDegrees>2.41700283251702785491943359375</LongitudeDegrees>
            </Position>
            <AltitudeMeters>1153</AltitudeMeters>
            <DistanceMeters>NAN</DistanceMeters>
          </Trackpoint>
          <Trackpoint>
            <Time>2021-04-04T08:58:02.000Z</Time>
            <Position>
              <LatitudeDegrees>42.3397383280098438262939453125</LatitudeDegrees>
              <LongitudeDegrees>2.41699461825191974639892578125</LongitudeDegrees>
            </Position>
            <AltitudeMeters>1153</AltitudeMeters>
            <DistanceMeters>NAN</DistanceMeters>
          </Trackpoint>
          <Trackpoint>
            <Time>2021-04-04T08:58:03.000Z</Time>
            <Position>
              <LatitudeDegrees>42.33974260278046131134033203125</LatitudeDegrees>
              <LongitudeDegrees>2.41698481142520904541015625</LongitudeDegrees>
            </Position>
            <AltitudeMeters>1153</AltitudeMeters>
            <DistanceMeters>NAN</DistanceMeters>
          </Trackpoint>
          <Trackpoint>
            <Time>2021-04-04T08:58:07.000Z</Time>
            <Position>
              <LatitudeDegrees>42.3397581093013286590576171875</LatitudeDegrees>
              <LongitudeDegrees>2.41694591939449310302734375</LongitudeDegrees>
            </Position>
            <AltitudeMeters>1153</AltitudeMeters>
            <DistanceMeters>NAN</DistanceMeters>
          </Trackpoint>
          <Trackpoint>
            <Time>2021-04-04T08:58:08.000Z</Time>
            <Position>
              <LatitudeDegrees>42.3397597856819629669189453125</LatitudeDegrees>
              <LongitudeDegrees>2.41694114170968532562255859375</LongitudeDegrees>
            </Position>
            <AltitudeMeters>1153</AltitudeMeters>
            <DistanceMeters>NAN</DistanceMeters>
          </Trackpoint>
          <Trackpoint>
            <Time>2021-04-04T08:58:09.000Z</Time>
            <Position>
              <LatitudeDegrees>42.33976003713905811309814453125</LatitudeDegrees>
              <LongitudeDegrees>2.41693426854908466339111328125</LongitudeDegrees>
            </Position>
            <AltitudeMeters>1153</AltitudeMeters>
            <DistanceMeters>NAN</DistanceMeters>
          </Trackpoint>
          <Trackpoint>
            <Time>2021-04-04T08:58:11.000Z</Time>
            <Position>
              <LatitudeDegrees>42.33976556919515132904052734375</LatitudeDegrees>
              <LongitudeDegrees>2.41691063158214092254638671875</LongitudeDegrees>
            </Position>
            <AltitudeMeters>1153.199951171875</AltitudeMeters>
            <DistanceMeters>NAN</DistanceMeters>
          </Trackpoint>
          <Trackpoint>
            <Time>2021-04-04T08:58:13.000Z</Time>
            <Position>
              <LatitudeDegrees>42.339765317738056182861328125</LatitudeDegrees>
              <LongitudeDegrees>2.41688732989132404327392578125</LongitudeDegrees>
            </Position>
            <AltitudeMeters>1153.4000244140625</AltitudeMeters>
            <DistanceMeters>NAN</DistanceMeters>
          </Trackpoint>
          <Trackpoint>
            <Time>2021-04-04T08:58:14.000Z</Time>
            <Position>
              <LatitudeDegrees>42.3397649824619293212890625</LatitudeDegrees>
              <LongitudeDegrees>2.41687727160751819610595703125</LongitudeDegrees>
            </Position>
            <AltitudeMeters>1153.4000244140625</AltitudeMeters>
            <DistanceMeters>NAN</DistanceMeters>
          </Trackpoint>
          <Trackpoint>
            <Time>2021-04-04T08:58:15.000Z</Time>
            <Position>
              <LatitudeDegrees>42.33976473100483417510986328125</LatitudeDegrees>
              <LongitudeDegrees>2.41686947643756866455078125</LongitudeDegrees>
            </Position>
            <AltitudeMeters>1153.4000244140625</AltitudeMeters>
            <DistanceMeters>NAN</DistanceMeters>
          </Trackpoint>
          <Trackpoint>
            <Time>2021-04-04T08:58:21.000Z</Time>
            <Position>
              <LatitudeDegrees>42.33977998606860637664794921875</LatitudeDegrees>
              <LongitudeDegrees>2.416782639920711517333984375</LongitudeDegrees>
            </Position>
            <AltitudeMeters>1153.5999755859375</AltitudeMeters>
            <DistanceMeters>NAN</DistanceMeters>
          </Trackpoint>
          <Trackpoint>
            <Time>2021-04-04T08:58:24.000Z</Time>
            <Position>
              <LatitudeDegrees>42.33978870324790477752685546875</LatitudeDegrees>
              <LongitudeDegrees>2.41673662327229976654052734375</LongitudeDegrees>
            </Position>
            <AltitudeMeters>1153.800048828125</AltitudeMeters>
            <DistanceMeters>NAN</DistanceMeters>
          </Trackpoint>
          <Trackpoint>
            <Time>2021-04-04T08:58:25.000Z</Time>
            <Position>
              <LatitudeDegrees>42.33979381620883941650390625</LatitudeDegrees>
              <LongitudeDegrees>2.4167224578559398651123046875</LongitudeDegrees>
            </Position>
            <AltitudeMeters>1153.800048828125</AltitudeMeters>
            <DistanceMeters>NAN</DistanceMeters>
          </Trackpoint>
          <Trackpoint>
            <Time>2021-04-04T08:58:32.000Z</Time>
            <Position>
              <LatitudeDegrees>42.3398104123771190643310546875</LatitudeDegrees>
              <LongitudeDegrees>2.4166168458759784698486328125</LongitudeDegrees>
            </Position>
            <AltitudeMeters>1153.800048828125</AltitudeMeters>
            <DistanceMeters>NAN</DistanceMeters>
          </Trackpoint>
          <Trackpoint>
            <Time>2021-04-04T08:58:36.000Z</Time>
            <Position>
              <LatitudeDegrees>42.3398154415190219879150390625</LatitudeDegrees>
              <LongitudeDegrees>2.41655490361154079437255859375</LongitudeDegrees>
            </Position>
            <AltitudeMeters>1153.800048828125</AltitudeMeters>
            <DistanceMeters>NAN</DistanceMeters>
          </Trackpoint>
          <Trackpoint>
            <Time>2021-04-04T08:58:45.000Z</Time>
            <Position>
              <LatitudeDegrees>42.33983782120048999786376953125</LatitudeDegrees>
              <LongitudeDegrees>2.4164176918566226959228515625</LongitudeDegrees>
            </Position>
            <AltitudeMeters>1153.5999755859375</AltitudeMeters>
            <DistanceMeters>NAN</DistanceMeters>
          </Trackpoint>
          <Trackpoint>
            <Time>2021-04-04T08:58:48.000Z</Time>
            <Position>
              <LatitudeDegrees>42.33983807265758514404296875</LatitudeDegrees>
              <LongitudeDegrees>2.4163685739040374755859375</LongitudeDegrees>
            </Position>
            <AltitudeMeters>1153.5999755859375</AltitudeMeters>
            <DistanceMeters>NAN</DistanceMeters>
          </Trackpoint>
          <Trackpoint>
            <Time>2021-04-04T08:58:49.000Z</Time>
            <Position>
              <LatitudeDegrees>42.3398379050195217132568359375</LatitudeDegrees>
              <LongitudeDegrees>2.4163566716015338897705078125</LongitudeDegrees>
            </Position>
            <AltitudeMeters>1153.5999755859375</AltitudeMeters>
            <DistanceMeters>NAN</DistanceMeters>
          </Trackpoint>
          <Trackpoint>
            <Time>2021-04-04T08:58:57.000Z</Time>
            <Position>
              <LatitudeDegrees>42.33985793776810169219970703125</LatitudeDegrees>
              <LongitudeDegrees>2.416233122348785400390625</LongitudeDegrees>
            </Position>
            <AltitudeMeters>1153.5999755859375</AltitudeMeters>
            <DistanceMeters>NAN</DistanceMeters>
          </Trackpoint>
          <Trackpoint>
            <Time>2021-04-04T08:58:59.000Z</Time>
            <Position>
              <LatitudeDegrees>42.3398647271096706390380859375</LatitudeDegrees>
              <LongitudeDegrees>2.41621367633342742919921875</LongitudeDegrees>
            </Position>
            <AltitudeMeters>1153.5999755859375</AltitudeMeters>
            <DistanceMeters>NAN</DistanceMeters>
          </Trackpoint>
          <Trackpoint>
            <Time>2021-04-04T08:59:05.000Z</Time>
            <Position>
              <LatitudeDegrees>42.3398952372372150421142578125</LatitudeDegrees>
              <LongitudeDegrees>2.4161352217197418212890625</LongitudeDegrees>
            </Position>
            <AltitudeMeters>1153.800048828125</AltitudeMeters>
            <DistanceMeters>NAN</DistanceMeters>
          </Trackpoint>
          <Trackpoint>
            <Time>2021-04-04T08:59:12.000Z</Time>
            <Position>
              <LatitudeDegrees>42.3399187065660953521728515625</LatitudeDegrees>
              <LongitudeDegrees>2.416029274463653564453125</LongitudeDegrees>
            </Position>
            <AltitudeMeters>1154.4000244140625</AltitudeMeters>
            <DistanceMeters>NAN</DistanceMeters>
          </Trackpoint>
          <Trackpoint>
            <Time>2021-04-04T08:59:14.000Z</Time>
            <Position>
              <LatitudeDegrees>42.33990781009197235107421875</LatitudeDegrees>
              <LongitudeDegrees>2.4159888736903667449951171875</LongitudeDegrees>
            </Position>
            <AltitudeMeters>1154.4000244140625</AltitudeMeters>
            <DistanceMeters>NAN</DistanceMeters>
          </Trackpoint>
          <Trackpoint>
            <Time>2021-04-04T08:59:17.000Z</Time>
            <Position>
              <LatitudeDegrees>42.3398965783417224884033203125</LatitudeDegrees>
              <LongitudeDegrees>2.4159345589578151702880859375</LongitudeDegrees>
            </Position>
            <AltitudeMeters>1154.4000244140625</AltitudeMeters>
            <DistanceMeters>NAN</DistanceMeters>
          </Trackpoint>
          <Trackpoint>
            <Time>2021-04-04T08:59:21.000Z</Time>
            <Position>
              <LatitudeDegrees>42.33991694636642932891845703125</LatitudeDegrees>
              <LongitudeDegrees>2.4158832617104053497314453125</LongitudeDegrees>
            </Position>
            <AltitudeMeters>1154.5999755859375</AltitudeMeters>
            <DistanceMeters>NAN</DistanceMeters>
          </Trackpoint>
          <Trackpoint>
            <Time>2021-04-04T08:59:27.000Z</Time>
            <Position>
              <LatitudeDegrees>42.339954413473606109619140625</LatitudeDegrees>
              <LongitudeDegrees>2.415812350809574127197265625</LongitudeDegrees>
            </Position>
            <AltitudeMeters>1155</AltitudeMeters>
            <DistanceMeters>NAN</DistanceMeters>
          </Trackpoint>
          <Trackpoint>
            <Time>2021-04-04T08:59:30.000Z</Time>
            <Position>
              <LatitudeDegrees>42.33997126109898090362548828125</LatitudeDegrees>
              <LongitudeDegrees>2.4157726205885410308837890625</LongitudeDegrees>
            </Position>
            <AltitudeMeters>1155.199951171875</AltitudeMeters>
            <DistanceMeters>NAN</DistanceMeters>
          </Trackpoint>
          <Trackpoint>
            <Time>2021-04-04T08:59:34.000Z</Time>
            <Position>
              <LatitudeDegrees>42.34000260941684246063232421875</LatitudeDegrees>
              <LongitudeDegrees>2.4157364107668399810791015625</LongitudeDegrees>
            </Position>
            <AltitudeMeters>1155.5999755859375</AltitudeMeters>
            <DistanceMeters>NAN</DistanceMeters>
          </Trackpoint>
          <Trackpoint>
            <Time>2021-04-04T08:59:36.000Z</Time>
            <Position>
              <LatitudeDegrees>42.34001903794705867767333984375</LatitudeDegrees>
              <LongitudeDegrees>2.41572375409305095672607421875</LongitudeDegrees>
            </Position>
            <AltitudeMeters>1155.800048828125</AltitudeMeters>
            <DistanceMeters>NAN</DistanceMeters>
          </Trackpoint>
          <Trackpoint>
            <Time>2021-04-04T08:59:37.000Z</Time>
            <Position>
              <LatitudeDegrees>42.3400300182402133941650390625</LatitudeDegrees>
              <LongitudeDegrees>2.4157149530947208404541015625</LongitudeDegrees>
            </Position>
            <AltitudeMeters>1156</AltitudeMeters>
            <DistanceMeters>NAN</DistanceMeters>
          </Trackpoint>
          <Trackpoint>
            <Time>2021-04-04T08:59:40.000Z</Time>
            <Position>
              <LatitudeDegrees>42.34005608595907688140869140625</LatitudeDegrees>
              <LongitudeDegrees>2.41569978184998035430908203125</LongitudeDegrees>
            </Position>
            <AltitudeMeters>1156.4000244140625</AltitudeMeters>
            <DistanceMeters>NAN</DistanceMeters>
          </Trackpoint>
          <Trackpoint>
            <Time>2021-04-04T08:59:42.000Z</Time>
            <Position>
              <LatitudeDegrees>42.340077124536037445068359375</LatitudeDegrees>
              <LongitudeDegrees>2.41569072939455509185791015625</LongitudeDegrees>
            </Position>
            <AltitudeMeters>1156.5999755859375</AltitudeMeters>
            <DistanceMeters>NAN</DistanceMeters>
          </Trackpoint>
          <Trackpoint>
            <Time>2021-04-04T08:59:48.000Z</Time>
            <Position>
              <LatitudeDegrees>42.34013269655406475067138671875</LatitudeDegrees>
              <LongitudeDegrees>2.4156599678099155426025390625</LongitudeDegrees>
            </Position>
            <AltitudeMeters>1156.5999755859375</AltitudeMeters>
            <DistanceMeters>NAN</DistanceMeters>
          </Trackpoint>
          <Trackpoint>
            <Time>2021-04-04T08:59:50.000Z</Time>
            <Position>
              <LatitudeDegrees>42.3401493765413761138916015625</LatitudeDegrees>
              <LongitudeDegrees>2.41564664058387279510498046875</LongitudeDegrees>
            </Position>
            <AltitudeMeters>1156.5999755859375</AltitudeMeters>
            <DistanceMeters>NAN</DistanceMeters>
          </Trackpoint>
          <Trackpoint>
            <Time>2021-04-04T08:59:53.000Z</Time>
            <Position>
              <LatitudeDegrees>42.34018382616341114044189453125</LatitudeDegrees>
              <LongitudeDegrees>2.4156177230179309844970703125</LongitudeDegrees>
            </Position>
            <AltitudeMeters>1156.4000244140625</AltitudeMeters>
            <DistanceMeters>NAN</DistanceMeters>
          </Trackpoint>
          <Trackpoint>
            <Time>2021-04-04T08:59:58.000Z</Time>
            <Position>
              <LatitudeDegrees>42.340234704315662384033203125</LatitudeDegrees>
              <LongitudeDegrees>2.415594421327114105224609375</LongitudeDegrees>
            </Position>
            <AltitudeMeters>1155.5999755859375</AltitudeMeters>
            <DistanceMeters>NAN</DistanceMeters>
          </Trackpoint>
          <Trackpoint>
            <Time>2021-04-04T09:00:01.000Z</Time>
            <Position>
              <LatitudeDegrees>42.3402593471109867095947265625</LatitudeDegrees>
              <LongitudeDegrees>2.41559182293713092803955078125</LongitudeDegrees>
            </Position>
            <AltitudeMeters>1155.199951171875</AltitudeMeters>
            <DistanceMeters>NAN</DistanceMeters>
          </Trackpoint>
          <Trackpoint>
            <Time>2021-04-04T09:00:08.000Z</Time>
            <Position>
              <LatitudeDegrees>42.34034408815205097198486328125</LatitudeDegrees>
              <LongitudeDegrees>2.41555226035416126251220703125</LongitudeDegrees>
            </Position>
            <AltitudeMeters>1154.4000244140625</AltitudeMeters>
            <DistanceMeters>NAN</DistanceMeters>
          </Trackpoint>
          <Trackpoint>
            <Time>2021-04-04T09:00:09.000Z</Time>
            <Position>
              <LatitudeDegrees>42.34035900793969631195068359375</LatitudeDegrees>
              <LongitudeDegrees>2.41555108688771724700927734375</LongitudeDegrees>
            </Position>
            <AltitudeMeters>1154.199951171875</AltitudeMeters>
            <DistanceMeters>NAN</DistanceMeters>
          </Trackpoint>
          <Trackpoint>
            <Time>2021-04-04T09:00:11.000Z</Time>
            <Position>
              <LatitudeDegrees>42.34038515947759151458740234375</LatitudeDegrees>
              <LongitudeDegrees>2.41553734056651592254638671875</LongitudeDegrees>
            </Position>
            <AltitudeMeters>1153.800048828125</AltitudeMeters>
            <DistanceMeters>NAN</DistanceMeters>
          </Trackpoint>
          <Trackpoint>
            <Time>2021-04-04T09:00:13.000Z</Time>
            <Position>
              <LatitudeDegrees>42.3404025100171566009521484375</LatitudeDegrees>
              <LongitudeDegrees>2.41552728228271007537841796875</LongitudeDegrees>
            </Position>
            <AltitudeMeters>1153.5999755859375</AltitudeMeters>
            <DistanceMeters>NAN</DistanceMeters>
          </Trackpoint>
          <Trackpoint>
            <Time>2021-04-04T09:00:14.000Z</Time>
            <Position>
              <LatitudeDegrees>42.34041248448193073272705078125</LatitudeDegrees>
              <LongitudeDegrees>2.41551789455115795135498046875</LongitudeDegrees>
            </Position>
            <AltitudeMeters>1153.4000244140625</AltitudeMeters>
            <DistanceMeters>NAN</DistanceMeters>
          </Trackpoint>
          <Trackpoint>
            <Time>2021-04-04T09:00:15.000Z</Time>
            <Position>
              <LatitudeDegrees>42.34042153693735599517822265625</LatitudeDegrees>
              <LongitudeDegrees>2.41550213657319545745849609375</LongitudeDegrees>
            </Position>
            <AltitudeMeters>1153.199951171875</AltitudeMeters>
            <DistanceMeters>NAN</DistanceMeters>
          </Trackpoint>
          <Trackpoint>
            <Time>2021-04-04T09:00:17.000Z</Time>
            <Position>
              <LatitudeDegrees>42.3404360376298427581787109375</LatitudeDegrees>
              <LongitudeDegrees>2.415487803518772125244140625</LongitudeDegrees>
            </Position>
            <AltitudeMeters>1153</AltitudeMeters>
            <DistanceMeters>NAN</DistanceMeters>
          </Trackpoint>
          <Trackpoint>
            <Time>2021-04-04T09:00:22.000Z</Time>
            <Position>
              <LatitudeDegrees>42.34049278311431407928466796875</LatitudeDegrees>
              <LongitudeDegrees>2.41547204554080963134765625</LongitudeDegrees>
            </Position>
            <AltitudeMeters>1152.4000244140625</AltitudeMeters>
            <DistanceMeters>NAN</DistanceMeters>
          </Trackpoint>
          <Trackpoint>
            <Time>2021-04-04T09:00:23.000Z</Time>
            <Position>
              <LatitudeDegrees>42.34050418250262737274169921875</LatitudeDegrees>
              <LongitudeDegrees>2.4154665134847164154052734375</LongitudeDegrees>
            </Position>
            <AltitudeMeters>1152</AltitudeMeters>
            <DistanceMeters>NAN</DistanceMeters>
          </Trackpoint>
          <Trackpoint>
            <Time>2021-04-04T09:00:27.000Z</Time>
            <Position>
              <LatitudeDegrees>42.34055480919778347015380859375</LatitudeDegrees>
              <LongitudeDegrees>2.41543675772845745086669921875</LongitudeDegrees>
            </Position>
            <AltitudeMeters>1150.800048828125</AltitudeMeters>
            <DistanceMeters>NAN</DistanceMeters>
          </Trackpoint>
          <Trackpoint>
            <Time>2021-04-04T09:00:28.000Z</Time>
            <Position>
              <LatitudeDegrees>42.3405621014535427093505859375</LatitudeDegrees>
              <LongitudeDegrees>2.41543508134782314300537109375</LongitudeDegrees>
            </Position>
            <AltitudeMeters>1150.800048828125</AltitudeMeters>
            <DistanceMeters>NAN</DistanceMeters>
          </Trackpoint>
          <Trackpoint>
            <Time>2021-04-04T09:00:30.000Z</Time>
            <Position>
              <LatitudeDegrees>42.3405792005360126495361328125</LatitudeDegrees>
              <LongitudeDegrees>2.415423095226287841796875</LongitudeDegrees>
            </Position>
            <AltitudeMeters>1150.4000244140625</AltitudeMeters>
            <DistanceMeters>NAN</DistanceMeters>
          </Trackpoint>
          <Trackpoint>
            <Time>2021-04-04T09:00:34.000Z</Time>
            <Position>
              <LatitudeDegrees>42.3406083695590496063232421875</LatitudeDegrees>
              <LongitudeDegrees>2.4154028110206127166748046875</LongitudeDegrees>
            </Position>
            <AltitudeMeters>1149.800048828125</AltitudeMeters>
            <DistanceMeters>NAN</DistanceMeters>
          </Trackpoint>
          <Trackpoint>
            <Time>2021-04-04T09:00:35.000Z</Time>
            <Position>
              <LatitudeDegrees>42.340619601309299468994140625</LatitudeDegrees>
              <LongitudeDegrees>2.4153984524309635162353515625</LongitudeDegrees>
            </Position>
            <AltitudeMeters>1149.5999755859375</AltitudeMeters>
            <DistanceMeters>NAN</DistanceMeters>
          </Trackpoint>
          <Trackpoint>
            <Time>2021-04-04T09:00:38.000Z</Time>
            <Position>
              <LatitudeDegrees>42.340649105608463287353515625</LatitudeDegrees>
              <LongitudeDegrees>2.41538747213780879974365234375</LongitudeDegrees>
            </Position>
            <AltitudeMeters>1149.199951171875</AltitudeMeters>
            <DistanceMeters>NAN</DistanceMeters>
          </Trackpoint>
          <Trackpoint>
            <Time>2021-04-04T09:00:40.000Z</Time>
            <Position>
              <LatitudeDegrees>42.3406703956425189971923828125</LatitudeDegrees>
              <LongitudeDegrees>2.415378503501415252685546875</LongitudeDegrees>
            </Position>
            <AltitudeMeters>1149</AltitudeMeters>
            <DistanceMeters>NAN</DistanceMeters>
          </Trackpoint>
          <Trackpoint>
            <Time>2021-04-04T09:00:43.000Z</Time>
            <Position>
              <LatitudeDegrees>42.340708114206790924072265625</LatitudeDegrees>
              <LongitudeDegrees>2.41536735557019710540771484375</LongitudeDegrees>
            </Position>
            <AltitudeMeters>1148.800048828125</AltitudeMeters>
            <DistanceMeters>NAN</DistanceMeters>
          </Trackpoint>
          <Trackpoint>
            <Time>2021-04-04T09:00:44.000Z</Time>
            <Position>
              <LatitudeDegrees>42.340715825557708740234375</LatitudeDegrees>
              <LongitudeDegrees>2.41536869667470455169677734375</LongitudeDegrees>
            </Position>
            <AltitudeMeters>1148.4000244140625</AltitudeMeters>
            <DistanceMeters>NAN</DistanceMeters>
          </Trackpoint>
          <Trackpoint>
            <Time>2021-04-04T09:00:47.000Z</Time>
            <Position>
              <LatitudeDegrees>42.3407451622188091278076171875</LatitudeDegrees>
              <LongitudeDegrees>2.4153676070272922515869140625</LongitudeDegrees>
            </Position>
            <AltitudeMeters>1147.800048828125</AltitudeMeters>
            <DistanceMeters>NAN</DistanceMeters>
          </Trackpoint>
          <Trackpoint>
            <Time>2021-04-04T09:00:48.000Z</Time>
            <Position>
              <LatitudeDegrees>42.34075865708291530609130859375</LatitudeDegrees>
              <LongitudeDegrees>2.4153721332550048828125</LongitudeDegrees>
            </Position>
            <AltitudeMeters>1147.5999755859375</AltitudeMeters>
            <DistanceMeters>NAN</DistanceMeters>
          </Trackpoint>
          <Trackpoint>
            <Time>2021-04-04T09:00:51.000Z</Time>
            <Position>
              <LatitudeDegrees>42.340791933238506317138671875</LatitudeDegrees>
              <LongitudeDegrees>2.415374480187892913818359375</LongitudeDegrees>
            </Position>
            <AltitudeMeters>1147</AltitudeMeters>
            <DistanceMeters>NAN</DistanceMeters>
          </Trackpoint>
          <Trackpoint>
            <Time>2021-04-04T09:00:54.000Z</Time>
            <Position>
              <LatitudeDegrees>42.34083124436438083648681640625</LatitudeDegrees>
              <LongitudeDegrees>2.41537406109273433685302734375</LongitudeDegrees>
            </Position>
            <AltitudeMeters>1146.199951171875</AltitudeMeters>
            <DistanceMeters>NAN</DistanceMeters>
          </Trackpoint>
          <Trackpoint>
            <Time>2021-04-04T09:00:56.000Z</Time>
            <Position>
              <LatitudeDegrees>42.34085454605519771575927734375</LatitudeDegrees>
              <LongitudeDegrees>2.415374815464019775390625</LongitudeDegrees>
            </Position>
            <AltitudeMeters>1146</AltitudeMeters>
            <DistanceMeters>NAN</DistanceMeters>
          </Trackpoint>
          <Trackpoint>
            <Time>2021-04-04T09:00:58.000Z</Time>
            <Position>
              <LatitudeDegrees>42.34086829237639904022216796875</LatitudeDegrees>
              <LongitudeDegrees>2.41535662673413753509521484375</LongitudeDegrees>
            </Position>
            <AltitudeMeters>1145.800048828125</AltitudeMeters>
            <DistanceMeters>NAN</DistanceMeters>
          </Trackpoint>
          <Trackpoint>
            <Time>2021-04-04T09:01:00.000Z</Time>
            <Position>
              <LatitudeDegrees>42.34089486300945281982421875</LatitudeDegrees>
              <LongitudeDegrees>2.41534254513680934906005859375</LongitudeDegrees>
            </Position>
            <AltitudeMeters>1145.5999755859375</AltitudeMeters>
            <DistanceMeters>NAN</DistanceMeters>
          </Trackpoint>
          <Trackpoint>
            <Time>2021-04-04T09:01:02.000Z</Time>
            <Position>
              <LatitudeDegrees>42.34091171063482761383056640625</LatitudeDegrees>
              <LongitudeDegrees>2.4153287149965763092041015625</LongitudeDegrees>
            </Position>
            <AltitudeMeters>1145.199951171875</AltitudeMeters>
            <DistanceMeters>NAN</DistanceMeters>
          </Trackpoint>
          <Trackpoint>
            <Time>2021-04-04T09:01:04.000Z</Time>
            <Position>
              <LatitudeDegrees>42.3409359343349933624267578125</LatitudeDegrees>
              <LongitudeDegrees>2.415300048887729644775390625</LongitudeDegrees>
            </Position>
            <AltitudeMeters>1145</AltitudeMeters>
            <DistanceMeters>NAN</DistanceMeters>
          </Trackpoint>
          <Trackpoint>
            <Time>2021-04-04T09:01:05.000Z</Time>
            <Position>
              <LatitudeDegrees>42.34095127321779727935791015625</LatitudeDegrees>
              <LongitudeDegrees>2.41529728285968303680419921875</LongitudeDegrees>
            </Position>
            <AltitudeMeters>1145</AltitudeMeters>
            <DistanceMeters>NAN</DistanceMeters>
          </Trackpoint>
          <Trackpoint>
            <Time>2021-04-04T09:01:08.000Z</Time>
            <Position>
              <LatitudeDegrees>42.34099955298006534576416015625</LatitudeDegrees>
              <LongitudeDegrees>2.4152800999581813812255859375</LongitudeDegrees>
            </Position>
            <AltitudeMeters>1144.199951171875</AltitudeMeters>
            <DistanceMeters>NAN</DistanceMeters>
          </Trackpoint>
          <Trackpoint>
            <Time>2021-04-04T09:01:10.000Z</Time>
            <Position>
              <LatitudeDegrees>42.3410304822027683258056640625</LatitudeDegrees>
              <LongitudeDegrees>2.41527020931243896484375</LongitudeDegrees>
            </Position>
            <AltitudeMeters>1143.800048828125</AltitudeMeters>
            <DistanceMeters>NAN</DistanceMeters>
          </Trackpoint>
          <Trackpoint>
            <Time>2021-04-04T09:01:14.000Z</Time>
            <Position>
              <LatitudeDegrees>42.3410817794501781463623046875</LatitudeDegrees>
              <LongitudeDegrees>2.415273226797580718994140625</LongitudeDegrees>
            </Position>
            <AltitudeMeters>1143.4000244140625</AltitudeMeters>
            <DistanceMeters>NAN</DistanceMeters>
          </Trackpoint>
          <Trackpoint>
            <Time>2021-04-04T09:01:19.000Z</Time>
            <Position>
              <LatitudeDegrees>42.341150678694248199462890625</LatitudeDegrees>
              <LongitudeDegrees>2.4152727238833904266357421875</LongitudeDegrees>
            </Position>
            <AltitudeMeters>1142.800048828125</AltitudeMeters>
            <DistanceMeters>NAN</DistanceMeters>
          </Trackpoint>
          <Trackpoint>
            <Time>2021-04-04T09:01:22.000Z</Time>
            <Position>
              <LatitudeDegrees>42.34118529595434665679931640625</LatitudeDegrees>
              <LongitudeDegrees>2.41527481935918331146240234375</LongitudeDegrees>
            </Position>
            <AltitudeMeters>1142.199951171875</AltitudeMeters>
            <DistanceMeters>NAN</DistanceMeters>
          </Trackpoint>
          <Trackpoint>
            <Time>2021-04-04T09:01:28.000Z</Time>
            <Position>
              <LatitudeDegrees>42.34127104282379150390625</LatitudeDegrees>
              <LongitudeDegrees>2.41526375524699687957763671875</LongitudeDegrees>
            </Position>
            <AltitudeMeters>1141.5999755859375</AltitudeMeters>
            <DistanceMeters>NAN</DistanceMeters>
          </Trackpoint>
          <Trackpoint>
            <Time>2021-04-04T09:01:30.000Z</Time>
            <Position>
              <LatitudeDegrees>42.3412943445146083831787109375</LatitudeDegrees>
              <LongitudeDegrees>2.41525587625801563262939453125</LongitudeDegrees>
            </Position>
            <AltitudeMeters>1141.199951171875</AltitudeMeters>
            <DistanceMeters>NAN</DistanceMeters>
          </Trackpoint>
          <Trackpoint>
            <Time>2021-04-04T09:01:31.000Z</Time>
            <Position>
              <LatitudeDegrees>42.341308258473873138427734375</LatitudeDegrees>
              <LongitudeDegrees>2.4152559600770473480224609375</LongitudeDegrees>
            </Position>
            <AltitudeMeters>1141.199951171875</AltitudeMeters>
            <DistanceMeters>NAN</DistanceMeters>
          </Trackpoint>
          <Trackpoint>
            <Time>2021-04-04T09:01:38.000Z</Time>
            <Position>
              <LatitudeDegrees>42.34140490181744098663330078125</LatitudeDegrees>
              <LongitudeDegrees>2.41526358760893344879150390625</LongitudeDegrees>
            </Position>
            <AltitudeMeters>1140.800048828125</AltitudeMeters>
            <DistanceMeters>NAN</DistanceMeters>
          </Trackpoint>
          <Trackpoint>
            <Time>2021-04-04T09:01:40.000Z</Time>
            <Position>
              <LatitudeDegrees>42.341432310640811920166015625</LatitudeDegrees>
              <LongitudeDegrees>2.4152589775621891021728515625</LongitudeDegrees>
            </Position>
            <AltitudeMeters>1140.4000244140625</AltitudeMeters>
            <DistanceMeters>NAN</DistanceMeters>
          </Trackpoint>
          <Trackpoint>
            <Time>2021-04-04T09:01:46.000Z</Time>
            <Position>
              <LatitudeDegrees>42.341492660343647003173828125</LatitudeDegrees>
              <LongitudeDegrees>2.415222935378551483154296875</LongitudeDegrees>
            </Position>
            <AltitudeMeters>1139.800048828125</AltitudeMeters>
            <DistanceMeters>NAN</DistanceMeters>
          </Trackpoint>
          <Trackpoint>
            <Time>2021-04-04T09:01:48.000Z</Time>
            <Position>
              <LatitudeDegrees>42.34152208082377910614013671875</LatitudeDegrees>
              <LongitudeDegrees>2.41521614603698253631591796875</LongitudeDegrees>
            </Position>
            <AltitudeMeters>1139.5999755859375</AltitudeMeters>
            <DistanceMeters>NAN</DistanceMeters>
          </Trackpoint>
          <Trackpoint>
            <Time>2021-04-04T09:01:49.000Z</Time>
            <Position>
              <LatitudeDegrees>42.34154370613396167755126953125</LatitudeDegrees>
              <LongitudeDegrees>2.41520005278289318084716796875</LongitudeDegrees>
            </Position>
            <AltitudeMeters>1139.4000244140625</AltitudeMeters>
            <DistanceMeters>NAN</DistanceMeters>
          </Trackpoint>
          <Trackpoint>
            <Time>2021-04-04T09:01:54.000Z</Time>
            <Position>
              <LatitudeDegrees>42.3416249267756938934326171875</LatitudeDegrees>
              <LongitudeDegrees>2.41516250185668468475341796875</LongitudeDegrees>
            </Position>
            <AltitudeMeters>1138.4000244140625</AltitudeMeters>
            <DistanceMeters>NAN</DistanceMeters>
          </Trackpoint>
          <Trackpoint>
            <Time>2021-04-04T09:01:55.000Z</Time>
            <Position>
              <LatitudeDegrees>42.34163221903145313262939453125</LatitudeDegrees>
              <LongitudeDegrees>2.41513651795685291290283203125</LongitudeDegrees>
            </Position>
            <AltitudeMeters>1138.199951171875</AltitudeMeters>
            <DistanceMeters>NAN</DistanceMeters>
          </Trackpoint>
          <Trackpoint>
            <Time>2021-04-04T09:02:01.000Z</Time>
            <Position>
              <LatitudeDegrees>42.34167077578604221343994140625</LatitudeDegrees>
              <LongitudeDegrees>2.4150792695581912994384765625</LongitudeDegrees>
            </Position>
            <AltitudeMeters>1137.4000244140625</AltitudeMeters>
            <DistanceMeters>NAN</DistanceMeters>
          </Trackpoint>
          <Trackpoint>
            <Time>2021-04-04T09:02:02.000Z</Time>
            <Position>
              <LatitudeDegrees>42.3416779004037380218505859375</LatitudeDegrees>
              <LongitudeDegrees>2.41507717408239841461181640625</LongitudeDegrees>
            </Position>
            <AltitudeMeters>1137.199951171875</AltitudeMeters>
            <DistanceMeters>NAN</DistanceMeters>
          </Trackpoint>
          <Trackpoint>
            <Time>2021-04-04T09:02:06.000Z</Time>
            <Position>
              <LatitudeDegrees>42.34170681796967983245849609375</LatitudeDegrees>
              <LongitudeDegrees>2.41505001671612262725830078125</LongitudeDegrees>
            </Position>
            <AltitudeMeters>1136.800048828125</AltitudeMeters>
            <DistanceMeters>NAN</DistanceMeters>
          </Trackpoint>
          <Trackpoint>
            <Time>2021-04-04T09:02:10.000Z</Time>
            <Position>
              <LatitudeDegrees>42.34174353070557117462158203125</LatitudeDegrees>
              <LongitudeDegrees>2.41501338779926300048828125</LongitudeDegrees>
            </Position>
            <AltitudeMeters>1136.199951171875</AltitudeMeters>
            <DistanceMeters>NAN</DistanceMeters>
          </Trackpoint>
          <Trackpoint>
            <Time>2021-04-04T09:02:16.000Z</Time>
            <Position>
              <LatitudeDegrees>42.34179683960974216461181640625</LatitudeDegrees>
              <LongitudeDegrees>2.41495437920093536376953125</LongitudeDegrees>
            </Position>
            <AltitudeMeters>1135.4000244140625</AltitudeMeters>
            <DistanceMeters>NAN</DistanceMeters>
          </Trackpoint>
          <Trackpoint>
            <Time>2021-04-04T09:02:19.000Z</Time>
            <Position>
              <LatitudeDegrees>42.34182827174663543701171875</LatitudeDegrees>
              <LongitudeDegrees>2.41492755711078643798828125</LongitudeDegrees>
            </Position>
            <AltitudeMeters>1135</AltitudeMeters>
            <DistanceMeters>NAN</DistanceMeters>
          </Trackpoint>
          <Trackpoint>
            <Time>2021-04-04T09:02:22.000Z</Time>
            <Position>
              <LatitudeDegrees>42.34186045825481414794921875</LatitudeDegrees>
              <LongitudeDegrees>2.4148915149271488189697265625</LongitudeDegrees>
            </Position>
            <AltitudeMeters>1134.5999755859375</AltitudeMeters>
            <DistanceMeters>NAN</DistanceMeters>
          </Trackpoint>
          <Trackpoint>
            <Time>2021-04-04T09:02:25.000Z</Time>
            <Position>
              <LatitudeDegrees>42.3418857716023921966552734375</LatitudeDegrees>
              <LongitudeDegrees>2.41487433202564716339111328125</LongitudeDegrees>
            </Position>
            <AltitudeMeters>1134</AltitudeMeters>
            <DistanceMeters>NAN</DistanceMeters>
          </Trackpoint>
          <Trackpoint>
            <Time>2021-04-04T09:02:27.000Z</Time>
            <Position>
              <LatitudeDegrees>42.34191066585481166839599609375</LatitudeDegrees>
              <LongitudeDegrees>2.41485991515219211578369140625</LongitudeDegrees>
            </Position>
            <AltitudeMeters>1133.800048828125</AltitudeMeters>
            <DistanceMeters>NAN</DistanceMeters>
          </Trackpoint>
          <Trackpoint>
            <Time>2021-04-04T09:02:33.000Z</Time>
            <Position>
              <LatitudeDegrees>42.3419697582721710205078125</LatitudeDegrees>
              <LongitudeDegrees>2.41481079719960689544677734375</LongitudeDegrees>
            </Position>
            <AltitudeMeters>1133</AltitudeMeters>
            <DistanceMeters>NAN</DistanceMeters>
          </Trackpoint>
          <Trackpoint>
            <Time>2021-04-04T09:02:36.000Z</Time>
            <Position>
              <LatitudeDegrees>42.34200051985681056976318359375</LatitudeDegrees>
              <LongitudeDegrees>2.4147872440516948699951171875</LongitudeDegrees>
            </Position>
            <AltitudeMeters>1132.5999755859375</AltitudeMeters>
            <DistanceMeters>NAN</DistanceMeters>
          </Trackpoint>
          <Trackpoint>
            <Time>2021-04-04T09:02:41.000Z</Time>
            <Position>
              <LatitudeDegrees>42.3420423455536365509033203125</LatitudeDegrees>
              <LongitudeDegrees>2.41474541835486888885498046875</LongitudeDegrees>
            </Position>
            <AltitudeMeters>1132.199951171875</AltitudeMeters>
            <DistanceMeters>NAN</DistanceMeters>
          </Trackpoint>
          <Trackpoint>
            <Time>2021-04-04T09:02:43.000Z</Time>
            <Position>
              <LatitudeDegrees>42.34206355176866054534912109375</LatitudeDegrees>
              <LongitudeDegrees>2.4147346056997776031494140625</LongitudeDegrees>
            </Position>
            <AltitudeMeters>1132</AltitudeMeters>
            <DistanceMeters>NAN</DistanceMeters>
          </Trackpoint>
          <Trackpoint>
            <Time>2021-04-04T09:02:45.000Z</Time>
            <Position>
              <LatitudeDegrees>42.34208668582141399383544921875</LatitudeDegrees>
              <LongitudeDegrees>2.414725385606288909912109375</LongitudeDegrees>
            </Position>
            <AltitudeMeters>1131.800048828125</AltitudeMeters>
            <DistanceMeters>NAN</DistanceMeters>
          </Trackpoint>
          <Trackpoint>
            <Time>2021-04-04T09:02:48.000Z</Time>
            <Position>
              <LatitudeDegrees>42.3421147651970386505126953125</LatitudeDegrees>
              <LongitudeDegrees>2.4147020839154720306396484375</LongitudeDegrees>
            </Position>
            <AltitudeMeters>1131.5999755859375</AltitudeMeters>
            <DistanceMeters>NAN</DistanceMeters>
          </Trackpoint>
          <Trackpoint>
            <Time>2021-04-04T09:02:49.000Z</Time>
            <Position>
              <LatitudeDegrees>42.34212121926248073577880859375</LatitudeDegrees>
              <LongitudeDegrees>2.41469278000295162200927734375</LongitudeDegrees>
            </Position>
            <AltitudeMeters>1131.5999755859375</AltitudeMeters>
            <DistanceMeters>NAN</DistanceMeters>
          </Trackpoint>
          <Trackpoint>
            <Time>2021-04-04T09:02:57.000Z</Time>
            <Position>
              <LatitudeDegrees>42.34219313599169254302978515625</LatitudeDegrees>
              <LongitudeDegrees>2.41458959877490997314453125</LongitudeDegrees>
            </Position>
            <AltitudeMeters>1130.800048828125</AltitudeMeters>
            <DistanceMeters>NAN</DistanceMeters>
          </Trackpoint>
          <Trackpoint>
            <Time>2021-04-04T09:02:59.000Z</Time>
            <Position>
              <LatitudeDegrees>42.34221207909286022186279296875</LatitudeDegrees>
              <LongitudeDegrees>2.41457216441631317138671875</LongitudeDegrees>
            </Position>
            <AltitudeMeters>1130.5999755859375</AltitudeMeters>
            <DistanceMeters>NAN</DistanceMeters>
          </Trackpoint>
          <Trackpoint>
            <Time>2021-04-04T09:03:04.000Z</Time>
            <Position>
              <LatitudeDegrees>42.34225667081773281097412109375</LatitudeDegrees>
              <LongitudeDegrees>2.41453997790813446044921875</LongitudeDegrees>
            </Position>
            <AltitudeMeters>1130.4000244140625</AltitudeMeters>
            <DistanceMeters>NAN</DistanceMeters>
          </Trackpoint>
          <Trackpoint>
            <Time>2021-04-04T09:03:06.000Z</Time>
            <Position>
              <LatitudeDegrees>42.34227326698601245880126953125</LatitudeDegrees>
              <LongitudeDegrees>2.41453704424202442169189453125</LongitudeDegrees>
            </Position>
            <AltitudeMeters>1130.4000244140625</AltitudeMeters>
            <DistanceMeters>NAN</DistanceMeters>
          </Trackpoint>
          <Trackpoint>
            <Time>2021-04-04T09:03:09.000Z</Time>
            <Position>
              <LatitudeDegrees>42.34227888286113739013671875</LatitudeDegrees>
              <LongitudeDegrees>2.41452245973050594329833984375</LongitudeDegrees>
            </Position>
            <AltitudeMeters>1130.4000244140625</AltitudeMeters>
            <DistanceMeters>NAN</DistanceMeters>
          </Trackpoint>
          <Trackpoint>
            <Time>2021-04-04T09:03:11.000Z</Time>
            <Position>
              <LatitudeDegrees>42.34228583984076976776123046875</LatitudeDegrees>
              <LongitudeDegrees>2.41451374255120754241943359375</LongitudeDegrees>
            </Position>
            <AltitudeMeters>1130</AltitudeMeters>
            <DistanceMeters>NAN</DistanceMeters>
          </Trackpoint>
          <Trackpoint>
            <Time>2021-04-04T09:03:17.000Z</Time>
            <Position>
              <LatitudeDegrees>42.34229053370654582977294921875</LatitudeDegrees>
              <LongitudeDegrees>2.41451491601765155792236328125</LongitudeDegrees>
            </Position>
            <AltitudeMeters>1129.5999755859375</AltitudeMeters>
            <DistanceMeters>NAN</DistanceMeters>
          </Trackpoint>
          <Trackpoint>
            <Time>2021-04-04T09:03:28.000Z</Time>
            <Position>
              <LatitudeDegrees>42.342290617525577545166015625</LatitudeDegrees>
              <LongitudeDegrees>2.4145156703889369964599609375</LongitudeDegrees>
            </Position>
            <AltitudeMeters>1129.5999755859375</AltitudeMeters>
            <DistanceMeters>NAN</DistanceMeters>
          </Trackpoint>
          <Trackpoint>
            <Time>2021-04-04T09:03:33.000Z</Time>
            <Position>
              <LatitudeDegrees>42.342290617525577545166015625</LatitudeDegrees>
              <LongitudeDegrees>2.4145149998366832733154296875</LongitudeDegrees>
            </Position>
            <AltitudeMeters>1129.5999755859375</AltitudeMeters>
            <DistanceMeters>NAN</DistanceMeters>
          </Trackpoint>
          <Trackpoint>
            <Time>2021-04-04T09:03:35.000Z</Time>
            <Position>
              <LatitudeDegrees>42.342290617525577545166015625</LatitudeDegrees>
              <LongitudeDegrees>2.414513491094112396240234375</LongitudeDegrees>
            </Position>
            <AltitudeMeters>1129.4000244140625</AltitudeMeters>
            <DistanceMeters>NAN</DistanceMeters>
          </Trackpoint>
          <Trackpoint>
            <Time>2021-04-04T09:03:38.000Z</Time>
            <Position>
              <LatitudeDegrees>42.342290617525577545166015625</LatitudeDegrees>
              <LongitudeDegrees>2.41450536064803600311279296875</LongitudeDegrees>
            </Position>
            <AltitudeMeters>1129.4000244140625</AltitudeMeters>
            <DistanceMeters>NAN</DistanceMeters>
          </Trackpoint>
          <Trackpoint>
            <Time>2021-04-04T09:03:39.000Z</Time>
            <Position>
              <LatitudeDegrees>42.342290617525577545166015625</LatitudeDegrees>
              <LongitudeDegrees>2.4145030975341796875</LongitudeDegrees>
            </Position>
            <AltitudeMeters>1129.4000244140625</AltitudeMeters>
            <DistanceMeters>NAN</DistanceMeters>
          </Trackpoint>
          <Trackpoint>
            <Time>2021-04-04T09:03:42.000Z</Time>
            <Position>
              <LatitudeDegrees>42.342290617525577545166015625</LatitudeDegrees>
              <LongitudeDegrees>2.41449840366840362548828125</LongitudeDegrees>
            </Position>
            <AltitudeMeters>1129.4000244140625</AltitudeMeters>
            <DistanceMeters>NAN</DistanceMeters>
          </Trackpoint>
          <Trackpoint>
            <Time>2021-04-04T09:03:56.000Z</Time>
            <Position>
              <LatitudeDegrees>42.34226672910153865814208984375</LatitudeDegrees>
              <LongitudeDegrees>2.41447920911014080047607421875</LongitudeDegrees>
            </Position>
            <AltitudeMeters>1129.4000244140625</AltitudeMeters>
            <DistanceMeters>NAN</DistanceMeters>
          </Trackpoint>
          <Trackpoint>
            <Time>2021-04-04T09:04:02.000Z</Time>
            <Position>
              <LatitudeDegrees>42.3422646336257457733154296875</LatitudeDegrees>
              <LongitudeDegrees>2.4144757725298404693603515625</LongitudeDegrees>
            </Position>
            <AltitudeMeters>1129.4000244140625</AltitudeMeters>
            <DistanceMeters>NAN</DistanceMeters>
          </Trackpoint>
          <Trackpoint>
            <Time>2021-04-04T09:04:09.000Z</Time>
            <Position>
              <LatitudeDegrees>42.34225885011255741119384765625</LatitudeDegrees>
              <LongitudeDegrees>2.41447317413985729217529296875</LongitudeDegrees>
            </Position>
            <AltitudeMeters>1129.5999755859375</AltitudeMeters>
            <DistanceMeters>NAN</DistanceMeters>
          </Trackpoint>
          <Trackpoint>
            <Time>2021-04-04T09:04:14.000Z</Time>
            <Position>
              <LatitudeDegrees>42.3422569222748279571533203125</LatitudeDegrees>
              <LongitudeDegrees>2.4144724197685718536376953125</LongitudeDegrees>
            </Position>
            <AltitudeMeters>1129.800048828125</AltitudeMeters>
            <DistanceMeters>NAN</DistanceMeters>
          </Trackpoint>
          <Trackpoint>
            <Time>2021-04-04T09:04:19.000Z</Time>
            <Position>
              <LatitudeDegrees>42.34225583262741565704345703125</LatitudeDegrees>
              <LongitudeDegrees>2.4144724197685718536376953125</LongitudeDegrees>
            </Position>
            <AltitudeMeters>1129.800048828125</AltitudeMeters>
            <DistanceMeters>NAN</DistanceMeters>
          </Trackpoint>
          <Trackpoint>
            <Time>2021-04-04T09:04:32.000Z</Time>
            <Position>
              <LatitudeDegrees>42.342260777950286865234375</LatitudeDegrees>
              <LongitudeDegrees>2.41447065956890583038330078125</LongitudeDegrees>
            </Position>
            <AltitudeMeters>1130</AltitudeMeters>
            <DistanceMeters>NAN</DistanceMeters>
          </Trackpoint>
          <Trackpoint>
            <Time>2021-04-04T09:04:48.000Z</Time>
            <Position>
              <LatitudeDegrees>42.3423129133880138397216796875</LatitudeDegrees>
              <LongitudeDegrees>2.4144667200744152069091796875</LongitudeDegrees>
            </Position>
            <AltitudeMeters>1130</AltitudeMeters>
            <DistanceMeters>NAN</DistanceMeters>
          </Trackpoint>
          <Trackpoint>
            <Time>2021-04-04T09:04:54.000Z</Time>
            <Position>
              <LatitudeDegrees>42.3423286713659763336181640625</LatitudeDegrees>
              <LongitudeDegrees>2.4144640378654003143310546875</LongitudeDegrees>
            </Position>
            <AltitudeMeters>1130</AltitudeMeters>
            <DistanceMeters>NAN</DistanceMeters>
          </Trackpoint>
          <Trackpoint>
            <Time>2021-04-04T09:05:24.000Z</Time>
            <Position>
              <LatitudeDegrees>42.34233059920370578765869140625</LatitudeDegrees>
              <LongitudeDegrees>2.4144747667014598846435546875</LongitudeDegrees>
            </Position>
            <AltitudeMeters>1130</AltitudeMeters>
            <DistanceMeters>NAN</DistanceMeters>
          </Trackpoint>
          <Trackpoint>
            <Time>2021-04-04T09:05:33.000Z</Time>
            <Position>
              <LatitudeDegrees>42.34232272021472454071044921875</LatitudeDegrees>
              <LongitudeDegrees>2.4144776165485382080078125</LongitudeDegrees>
            </Position>
            <AltitudeMeters>1130</AltitudeMeters>
            <DistanceMeters>NAN</DistanceMeters>
          </Trackpoint>
          <Trackpoint>
            <Time>2021-04-04T09:05:37.000Z</Time>
            <Position>
              <LatitudeDegrees>42.34230997972190380096435546875</LatitudeDegrees>
              <LongitudeDegrees>2.4144777841866016387939453125</LongitudeDegrees>
            </Position>
            <AltitudeMeters>1130</AltitudeMeters>
            <DistanceMeters>NAN</DistanceMeters>
          </Trackpoint>
          <Trackpoint>
            <Time>2021-04-04T09:05:52.000Z</Time>
            <Position>
              <LatitudeDegrees>42.3422897793352603912353515625</LatitudeDegrees>
              <LongitudeDegrees>2.41447350941598415374755859375</LongitudeDegrees>
            </Position>
            <AltitudeMeters>1130</AltitudeMeters>
            <DistanceMeters>NAN</DistanceMeters>
          </Trackpoint>
          <Trackpoint>
            <Time>2021-04-04T09:05:53.000Z</Time>
            <Position>
              <LatitudeDegrees>42.34228919260203838348388671875</LatitudeDegrees>
              <LongitudeDegrees>2.414473593235015869140625</LongitudeDegrees>
            </Position>
            <AltitudeMeters>1130</AltitudeMeters>
            <DistanceMeters>NAN</DistanceMeters>
          </Trackpoint>
          <Trackpoint>
            <Time>2021-04-04T09:06:07.000Z</Time>
            <Position>
              <LatitudeDegrees>42.34228768385946750640869140625</LatitudeDegrees>
              <LongitudeDegrees>2.414490692317485809326171875</LongitudeDegrees>
            </Position>
            <AltitudeMeters>1130</AltitudeMeters>
            <DistanceMeters>NAN</DistanceMeters>
          </Trackpoint>
          <Trackpoint>
            <Time>2021-04-04T09:06:11.000Z</Time>
            <Position>
              <LatitudeDegrees>42.342289276421070098876953125</LatitudeDegrees>
              <LongitudeDegrees>2.41450645029544830322265625</LongitudeDegrees>
            </Position>
            <AltitudeMeters>1130</AltitudeMeters>
            <DistanceMeters>NAN</DistanceMeters>
          </Trackpoint>
          <Trackpoint>
            <Time>2021-04-04T09:06:23.000Z</Time>
            <Position>
              <LatitudeDegrees>42.3423023521900177001953125</LatitudeDegrees>
              <LongitudeDegrees>2.41452991962432861328125</LongitudeDegrees>
            </Position>
            <AltitudeMeters>1130</AltitudeMeters>
            <DistanceMeters>NAN</DistanceMeters>
          </Trackpoint>
          <Trackpoint>
            <Time>2021-04-04T09:06:35.000Z</Time>
            <Position>
              <LatitudeDegrees>42.342307381331920623779296875</LatitudeDegrees>
              <LongitudeDegrees>2.4145334400236606597900390625</LongitudeDegrees>
            </Position>
            <AltitudeMeters>1130</AltitudeMeters>
            <DistanceMeters>NAN</DistanceMeters>
          </Trackpoint>
          <Trackpoint>
            <Time>2021-04-04T09:06:36.000Z</Time>
            <Position>
              <LatitudeDegrees>42.34230746515095233917236328125</LatitudeDegrees>
              <LongitudeDegrees>2.41453352384269237518310546875</LongitudeDegrees>
            </Position>
            <AltitudeMeters>1130</AltitudeMeters>
            <DistanceMeters>NAN</DistanceMeters>
          </Trackpoint>
          <Trackpoint>
            <Time>2021-04-04T09:06:57.000Z</Time>
            <Position>
              <LatitudeDegrees>42.3424057848751544952392578125</LatitudeDegrees>
              <LongitudeDegrees>2.41451743058860301971435546875</LongitudeDegrees>
            </Position>
            <AltitudeMeters>1130</AltitudeMeters>
            <DistanceMeters>NAN</DistanceMeters>
          </Trackpoint>
          <Trackpoint>
            <Time>2021-04-04T09:07:02.000Z</Time>
            <Position>
              <LatitudeDegrees>42.34248314984142780303955078125</LatitudeDegrees>
              <LongitudeDegrees>2.41450737230479717254638671875</LongitudeDegrees>
            </Position>
            <AltitudeMeters>1130</AltitudeMeters>
            <DistanceMeters>NAN</DistanceMeters>
          </Trackpoint>
          <Trackpoint>
            <Time>2021-04-04T09:07:06.000Z</Time>
            <Position>
              <LatitudeDegrees>42.34252698719501495361328125</LatitudeDegrees>
              <LongitudeDegrees>2.41453184746205806732177734375</LongitudeDegrees>
            </Position>
            <AltitudeMeters>1129.199951171875</AltitudeMeters>
            <DistanceMeters>NAN</DistanceMeters>
          </Trackpoint>
          <Trackpoint>
            <Time>2021-04-04T09:07:09.000Z</Time>
            <Position>
              <LatitudeDegrees>42.34255204908549785614013671875</LatitudeDegrees>
              <LongitudeDegrees>2.41453905589878559112548828125</LongitudeDegrees>
            </Position>
            <AltitudeMeters>1128.4000244140625</AltitudeMeters>
            <DistanceMeters>NAN</DistanceMeters>
          </Trackpoint>
          <Trackpoint>
            <Time>2021-04-04T09:07:13.000Z</Time>
            <Position>
              <LatitudeDegrees>42.34259479679167270660400390625</LatitudeDegrees>
              <LongitudeDegrees>2.41454827599227428436279296875</LongitudeDegrees>
            </Position>
            <AltitudeMeters>1128</AltitudeMeters>
            <DistanceMeters>NAN</DistanceMeters>
          </Trackpoint>
          <Trackpoint>
            <Time>2021-04-04T09:07:15.000Z</Time>
            <Position>
              <LatitudeDegrees>42.34261441044509410858154296875</LatitudeDegrees>
              <LongitudeDegrees>2.41455204784870147705078125</LongitudeDegrees>
            </Position>
            <AltitudeMeters>1127.800048828125</AltitudeMeters>
            <DistanceMeters>NAN</DistanceMeters>
          </Trackpoint>
          <Trackpoint>
            <Time>2021-04-04T09:07:18.000Z</Time>
            <Position>
              <LatitudeDegrees>42.34264994971454143524169921875</LatitudeDegrees>
              <LongitudeDegrees>2.41454601287841796875</LongitudeDegrees>
            </Position>
            <AltitudeMeters>1127.199951171875</AltitudeMeters>
            <DistanceMeters>NAN</DistanceMeters>
          </Trackpoint>
          <Trackpoint>
            <Time>2021-04-04T09:07:22.000Z</Time>
            <Position>
              <LatitudeDegrees>42.34269856475293636322021484375</LatitudeDegrees>
              <LongitudeDegrees>2.4145505391061305999755859375</LongitudeDegrees>
            </Position>
            <AltitudeMeters>1126.5999755859375</AltitudeMeters>
            <DistanceMeters>NAN</DistanceMeters>
          </Trackpoint>
          <Trackpoint>
            <Time>2021-04-04T09:07:25.000Z</Time>
            <Position>
              <LatitudeDegrees>42.34273460693657398223876953125</LatitudeDegrees>
              <LongitudeDegrees>2.41455330513417720794677734375</LongitudeDegrees>
            </Position>
            <AltitudeMeters>1126.4000244140625</AltitudeMeters>
            <DistanceMeters>NAN</DistanceMeters>
          </Trackpoint>
          <Trackpoint>
            <Time>2021-04-04T09:07:28.000Z</Time>
            <Position>
              <LatitudeDegrees>42.342766039073467254638671875</LatitudeDegrees>
              <LongitudeDegrees>2.41456269286572933197021484375</LongitudeDegrees>
            </Position>
            <AltitudeMeters>1126</AltitudeMeters>
            <DistanceMeters>NAN</DistanceMeters>
          </Trackpoint>
          <Trackpoint>
            <Time>2021-04-04T09:07:29.000Z</Time>
            <Position>
              <LatitudeDegrees>42.34277819283306598663330078125</LatitudeDegrees>
              <LongitudeDegrees>2.41456118412315845489501953125</LongitudeDegrees>
            </Position>
            <AltitudeMeters>1126</AltitudeMeters>
            <DistanceMeters>NAN</DistanceMeters>
          </Trackpoint>
          <Trackpoint>
            <Time>2021-04-04T09:07:33.000Z</Time>
            <Position>
              <LatitudeDegrees>42.3428173363208770751953125</LatitudeDegrees>
              <LongitudeDegrees>2.41457828320562839508056640625</LongitudeDegrees>
            </Position>
            <AltitudeMeters>1125.4000244140625</AltitudeMeters>
            <DistanceMeters>NAN</DistanceMeters>
          </Trackpoint>
          <Trackpoint>
            <Time>2021-04-04T09:07:36.000Z</Time>
            <Position>
              <LatitudeDegrees>42.34285145066678524017333984375</LatitudeDegrees>
              <LongitudeDegrees>2.41458448581397533416748046875</LongitudeDegrees>
            </Position>
            <AltitudeMeters>1125</AltitudeMeters>
            <DistanceMeters>NAN</DistanceMeters>
          </Trackpoint>
          <Trackpoint>
            <Time>2021-04-04T09:07:37.000Z</Time>
            <Position>
              <LatitudeDegrees>42.34286117367446422576904296875</LatitudeDegrees>
              <LongitudeDegrees>2.4145837314426898956298828125</LongitudeDegrees>
            </Position>
            <AltitudeMeters>1124.800048828125</AltitudeMeters>
            <DistanceMeters>NAN</DistanceMeters>
          </Trackpoint>
          <Trackpoint>
            <Time>2021-04-04T09:07:42.000Z</Time>
            <Position>
              <LatitudeDegrees>42.34291255474090576171875</LatitudeDegrees>
              <LongitudeDegrees>2.4145817197859287261962890625</LongitudeDegrees>
            </Position>
            <AltitudeMeters>1124</AltitudeMeters>
            <DistanceMeters>NAN</DistanceMeters>
          </Trackpoint>
          <Trackpoint>
            <Time>2021-04-04T09:07:47.000Z</Time>
            <Position>
              <LatitudeDegrees>42.34296862967312335968017578125</LatitudeDegrees>
              <LongitudeDegrees>2.41458599455654621124267578125</LongitudeDegrees>
            </Position>
            <AltitudeMeters>1123.4000244140625</AltitudeMeters>
            <DistanceMeters>NAN</DistanceMeters>
          </Trackpoint>
          <Trackpoint>
            <Time>2021-04-04T09:07:50.000Z</Time>
            <Position>
              <LatitudeDegrees>42.3429965414106845855712890625</LatitudeDegrees>
              <LongitudeDegrees>2.41457442753016948699951171875</LongitudeDegrees>
            </Position>
            <AltitudeMeters>1122.800048828125</AltitudeMeters>
            <DistanceMeters>NAN</DistanceMeters>
          </Trackpoint>
          <Trackpoint>
            <Time>2021-04-04T09:07:51.000Z</Time>
            <Position>
              <LatitudeDegrees>42.34300483949482440948486328125</LatitudeDegrees>
              <LongitudeDegrees>2.4145703203976154327392578125</LongitudeDegrees>
            </Position>
            <AltitudeMeters>1122.800048828125</AltitudeMeters>
            <DistanceMeters>NAN</DistanceMeters>
          </Trackpoint>
          <Trackpoint>
            <Time>2021-04-04T09:07:53.000Z</Time>
            <Position>
              <LatitudeDegrees>42.34303451143205165863037109375</LatitudeDegrees>
              <LongitudeDegrees>2.41456889547407627105712890625</LongitudeDegrees>
            </Position>
            <AltitudeMeters>1122.4000244140625</AltitudeMeters>
            <DistanceMeters>NAN</DistanceMeters>
          </Trackpoint>
          <Trackpoint>
            <Time>2021-04-04T09:07:56.000Z</Time>
            <Position>
              <LatitudeDegrees>42.34305429272353649139404296875</LatitudeDegrees>
              <LongitudeDegrees>2.4145867489278316497802734375</LongitudeDegrees>
            </Position>
            <AltitudeMeters>1121.800048828125</AltitudeMeters>
            <DistanceMeters>NAN</DistanceMeters>
          </Trackpoint>
          <Trackpoint>
            <Time>2021-04-04T09:07:57.000Z</Time>
            <Position>
              <LatitudeDegrees>42.3430622555315494537353515625</LatitudeDegrees>
              <LongitudeDegrees>2.41459135897457599639892578125</LongitudeDegrees>
            </Position>
            <AltitudeMeters>1121.5999755859375</AltitudeMeters>
            <DistanceMeters>NAN</DistanceMeters>
          </Trackpoint>
          <Trackpoint>
            <Time>2021-04-04T09:07:58.000Z</Time>
            <Position>
              <LatitudeDegrees>42.34307323582470417022705078125</LatitudeDegrees>
              <LongitudeDegrees>2.4145934544503688812255859375</LongitudeDegrees>
            </Position>
            <AltitudeMeters>1121.5999755859375</AltitudeMeters>
            <DistanceMeters>NAN</DistanceMeters>
          </Trackpoint>
          <Trackpoint>
            <Time>2021-04-04T09:08:03.000Z</Time>
            <Position>
              <LatitudeDegrees>42.34312922693789005279541015625</LatitudeDegrees>
              <LongitudeDegrees>2.41460091434419155120849609375</LongitudeDegrees>
            </Position>
            <AltitudeMeters>1120.800048828125</AltitudeMeters>
            <DistanceMeters>NAN</DistanceMeters>
          </Trackpoint>
          <Trackpoint>
            <Time>2021-04-04T09:08:04.000Z</Time>
            <Position>
              <LatitudeDegrees>42.34313718974590301513671875</LatitudeDegrees>
              <LongitudeDegrees>2.4146028421819210052490234375</LongitudeDegrees>
            </Position>
            <AltitudeMeters>1120.5999755859375</AltitudeMeters>
            <DistanceMeters>NAN</DistanceMeters>
          </Trackpoint>
          <Trackpoint>
            <Time>2021-04-04T09:08:05.000Z</Time>
            <Position>
              <LatitudeDegrees>42.34314749948680400848388671875</LatitudeDegrees>
              <LongitudeDegrees>2.4146028421819210052490234375</LongitudeDegrees>
            </Position>
            <AltitudeMeters>1120.5999755859375</AltitudeMeters>
            <DistanceMeters>NAN</DistanceMeters>
          </Trackpoint>
          <Trackpoint>
            <Time>2021-04-04T09:08:12.000Z</Time>
            <Position>
              <LatitudeDegrees>42.3432268761098384857177734375</LatitudeDegrees>
              <LongitudeDegrees>2.41465439088642597198486328125</LongitudeDegrees>
            </Position>
            <AltitudeMeters>1119.5999755859375</AltitudeMeters>
            <DistanceMeters>NAN</DistanceMeters>
          </Trackpoint>
          <Trackpoint>
            <Time>2021-04-04T09:08:13.000Z</Time>
            <Position>
              <LatitudeDegrees>42.34323902986943721771240234375</LatitudeDegrees>
              <LongitudeDegrees>2.41466143168509006500244140625</LongitudeDegrees>
            </Position>
            <AltitudeMeters>1119.199951171875</AltitudeMeters>
            <DistanceMeters>NAN</DistanceMeters>
          </Trackpoint>
          <Trackpoint>
            <Time>2021-04-04T09:08:17.000Z</Time>
            <Position>
              <LatitudeDegrees>42.34329686500132083892822265625</LatitudeDegrees>
              <LongitudeDegrees>2.414678446948528289794921875</LongitudeDegrees>
            </Position>
            <AltitudeMeters>1119</AltitudeMeters>
            <DistanceMeters>NAN</DistanceMeters>
          </Trackpoint>
          <Trackpoint>
            <Time>2021-04-04T09:08:20.000Z</Time>
            <Position>
              <LatitudeDegrees>42.3433438874781131744384765625</LatitudeDegrees>
              <LongitudeDegrees>2.414691857993602752685546875</LongitudeDegrees>
            </Position>
            <AltitudeMeters>1118.5999755859375</AltitudeMeters>
            <DistanceMeters>NAN</DistanceMeters>
          </Trackpoint>
          <Trackpoint>
            <Time>2021-04-04T09:08:21.000Z</Time>
            <Position>
              <LatitudeDegrees>42.3433566279709339141845703125</LatitudeDegrees>
              <LongitudeDegrees>2.414696216583251953125</LongitudeDegrees>
            </Position>
            <AltitudeMeters>1118.4000244140625</AltitudeMeters>
            <DistanceMeters>NAN</DistanceMeters>
          </Trackpoint>
          <Trackpoint>
            <Time>2021-04-04T09:08:22.000Z</Time>
            <Position>
              <LatitudeDegrees>42.3433676920831203460693359375</LatitudeDegrees>
              <LongitudeDegrees>2.41469579748809337615966796875</LongitudeDegrees>
            </Position>
            <AltitudeMeters>1118.4000244140625</AltitudeMeters>
            <DistanceMeters>NAN</DistanceMeters>
          </Trackpoint>
          <Trackpoint>
            <Time>2021-04-04T09:08:25.000Z</Time>
            <Position>
              <LatitudeDegrees>42.3433928377926349639892578125</LatitudeDegrees>
              <LongitudeDegrees>2.4147067777812480926513671875</LongitudeDegrees>
            </Position>
            <AltitudeMeters>1117.800048828125</AltitudeMeters>
            <DistanceMeters>NAN</DistanceMeters>
          </Trackpoint>
          <Trackpoint>
            <Time>2021-04-04T09:08:27.000Z</Time>
            <Position>
              <LatitudeDegrees>42.343411110341548919677734375</LatitudeDegrees>
              <LongitudeDegrees>2.41472211666405200958251953125</LongitudeDegrees>
            </Position>
            <AltitudeMeters>1117.800048828125</AltitudeMeters>
            <DistanceMeters>NAN</DistanceMeters>
          </Trackpoint>
          <Trackpoint>
            <Time>2021-04-04T09:08:32.000Z</Time>
            <Position>
              <LatitudeDegrees>42.3434478230774402618408203125</LatitudeDegrees>
              <LongitudeDegrees>2.4147781915962696075439453125</LongitudeDegrees>
            </Position>
            <AltitudeMeters>1117.5999755859375</AltitudeMeters>
            <DistanceMeters>NAN</DistanceMeters>
          </Trackpoint>
          <Trackpoint>
            <Time>2021-04-04T09:08:34.000Z</Time>
            <Position>
              <LatitudeDegrees>42.34346064738929271697998046875</LatitudeDegrees>
              <LongitudeDegrees>2.41479202173650264739990234375</LongitudeDegrees>
            </Position>
            <AltitudeMeters>1117.5999755859375</AltitudeMeters>
            <DistanceMeters>NAN</DistanceMeters>
          </Trackpoint>
          <Trackpoint>
            <Time>2021-04-04T09:08:35.000Z</Time>
            <Position>
              <LatitudeDegrees>42.34346969984471797943115234375</LatitudeDegrees>
              <LongitudeDegrees>2.41480258293449878692626953125</LongitudeDegrees>
            </Position>
            <AltitudeMeters>1117.5999755859375</AltitudeMeters>
            <DistanceMeters>NAN</DistanceMeters>
          </Trackpoint>
          <Trackpoint>
            <Time>2021-04-04T09:08:42.000Z</Time>
            <Position>
              <LatitudeDegrees>42.34352820552885532379150390625</LatitudeDegrees>
              <LongitudeDegrees>2.41483627818524837493896484375</LongitudeDegrees>
            </Position>
            <AltitudeMeters>1116.5999755859375</AltitudeMeters>
            <DistanceMeters>NAN</DistanceMeters>
          </Trackpoint>
          <Trackpoint>
            <Time>2021-04-04T09:08:44.000Z</Time>
            <Position>
              <LatitudeDegrees>42.34354245476424694061279296875</LatitudeDegrees>
              <LongitudeDegrees>2.41482135839760303497314453125</LongitudeDegrees>
            </Position>
            <AltitudeMeters>1116.5999755859375</AltitudeMeters>
            <DistanceMeters>NAN</DistanceMeters>
          </Trackpoint>
          <Trackpoint>
            <Time>2021-04-04T09:08:48.000Z</Time>
            <Position>
              <LatitudeDegrees>42.34356843866407871246337890625</LatitudeDegrees>
              <LongitudeDegrees>2.41479084827005863189697265625</LongitudeDegrees>
            </Position>
            <AltitudeMeters>1116.4000244140625</AltitudeMeters>
            <DistanceMeters>NAN</DistanceMeters>
          </Trackpoint>
          <Trackpoint>
            <Time>2021-04-04T09:08:51.000Z</Time>
            <Position>
              <LatitudeDegrees>42.34358771704137325286865234375</LatitudeDegrees>
              <LongitudeDegrees>2.41474784910678863525390625</LongitudeDegrees>
            </Position>
            <AltitudeMeters>1115.4000244140625</AltitudeMeters>
            <DistanceMeters>NAN</DistanceMeters>
          </Trackpoint>
          <Trackpoint>
            <Time>2021-04-04T09:08:56.000Z</Time>
            <Position>
              <LatitudeDegrees>42.34363549388945102691650390625</LatitudeDegrees>
              <LongitudeDegrees>2.414681799709796905517578125</LongitudeDegrees>
            </Position>
            <AltitudeMeters>1115</AltitudeMeters>
            <DistanceMeters>NAN</DistanceMeters>
          </Trackpoint>
          <Trackpoint>
            <Time>2021-04-04T09:09:02.000Z</Time>
            <Position>
              <LatitudeDegrees>42.34366784803569316864013671875</LatitudeDegrees>
              <LongitudeDegrees>2.4146038480103015899658203125</LongitudeDegrees>
            </Position>
            <AltitudeMeters>1114.4000244140625</AltitudeMeters>
            <DistanceMeters>NAN</DistanceMeters>
          </Trackpoint>
          <Trackpoint>
            <Time>2021-04-04T09:09:07.000Z</Time>
            <Position>
              <LatitudeDegrees>42.34369467012584209442138671875</LatitudeDegrees>
              <LongitudeDegrees>2.4145310930907726287841796875</LongitudeDegrees>
            </Position>
            <AltitudeMeters>1113.5999755859375</AltitudeMeters>
            <DistanceMeters>NAN</DistanceMeters>
          </Trackpoint>
          <Trackpoint>
            <Time>2021-04-04T09:09:12.000Z</Time>
            <Position>
              <LatitudeDegrees>42.34369634650647640228271484375</LatitudeDegrees>
              <LongitudeDegrees>2.41444014944136142730712890625</LongitudeDegrees>
            </Position>
            <AltitudeMeters>1113.4000244140625</AltitudeMeters>
            <DistanceMeters>NAN</DistanceMeters>
          </Trackpoint>
          <Trackpoint>
            <Time>2021-04-04T09:09:13.000Z</Time>
            <Position>
              <LatitudeDegrees>42.34369508922100067138671875</LatitudeDegrees>
              <LongitudeDegrees>2.41442355327308177947998046875</LongitudeDegrees>
            </Position>
            <AltitudeMeters>1113.199951171875</AltitudeMeters>
            <DistanceMeters>NAN</DistanceMeters>
          </Trackpoint>
          <Trackpoint>
            <Time>2021-04-04T09:09:15.000Z</Time>
            <Position>
              <LatitudeDegrees>42.34369433484971523284912109375</LatitudeDegrees>
              <LongitudeDegrees>2.4143932946026325225830078125</LongitudeDegrees>
            </Position>
            <AltitudeMeters>1113</AltitudeMeters>
            <DistanceMeters>NAN</DistanceMeters>
          </Trackpoint>
          <Trackpoint>
            <Time>2021-04-04T09:09:22.000Z</Time>
            <Position>
              <LatitudeDegrees>42.3436890542507171630859375</LatitudeDegrees>
              <LongitudeDegrees>2.4142699129879474639892578125</LongitudeDegrees>
            </Position>
            <AltitudeMeters>1112.4000244140625</AltitudeMeters>
            <DistanceMeters>NAN</DistanceMeters>
          </Trackpoint>
          <Trackpoint>
            <Time>2021-04-04T09:09:23.000Z</Time>
            <Position>
              <LatitudeDegrees>42.34369483776390552520751953125</LatitudeDegrees>
              <LongitudeDegrees>2.41425759159028530120849609375</LongitudeDegrees>
            </Position>
            <AltitudeMeters>1112.199951171875</AltitudeMeters>
            <DistanceMeters>NAN</DistanceMeters>
          </Trackpoint>
          <Trackpoint>
            <Time>2021-04-04T09:09:29.000Z</Time>
            <Position>
              <LatitudeDegrees>42.3437428660690784454345703125</LatitudeDegrees>
              <LongitudeDegrees>2.41420336067676544189453125</LongitudeDegrees>
            </Position>
            <AltitudeMeters>1111.4000244140625</AltitudeMeters>
            <DistanceMeters>NAN</DistanceMeters>
          </Trackpoint>
          <Trackpoint>
            <Time>2021-04-04T09:09:30.000Z</Time>
            <Position>
              <LatitudeDegrees>42.34375216998159885406494140625</LatitudeDegrees>
              <LongitudeDegrees>2.41418416611850261688232421875</LongitudeDegrees>
            </Position>
            <AltitudeMeters>1111.199951171875</AltitudeMeters>
            <DistanceMeters>NAN</DistanceMeters>
          </Trackpoint>
          <Trackpoint>
            <Time>2021-04-04T09:09:36.000Z</Time>
            <Position>
              <LatitudeDegrees>42.34379273839294910430908203125</LatitudeDegrees>
              <LongitudeDegrees>2.4141021072864532470703125</LongitudeDegrees>
            </Position>
            <AltitudeMeters>1110</AltitudeMeters>
            <DistanceMeters>NAN</DistanceMeters>
          </Trackpoint>
          <Trackpoint>
            <Time>2021-04-04T09:09:40.000Z</Time>
            <Position>
              <LatitudeDegrees>42.3438179679214954376220703125</LatitudeDegrees>
              <LongitudeDegrees>2.41405642591416835784912109375</LongitudeDegrees>
            </Position>
            <AltitudeMeters>1109.199951171875</AltitudeMeters>
            <DistanceMeters>NAN</DistanceMeters>
          </Trackpoint>
          <Trackpoint>
            <Time>2021-04-04T09:09:43.000Z</Time>
            <Position>
              <LatitudeDegrees>42.343841604888439178466796875</LatitudeDegrees>
              <LongitudeDegrees>2.4140130914747714996337890625</LongitudeDegrees>
            </Position>
            <AltitudeMeters>1108.800048828125</AltitudeMeters>
            <DistanceMeters>NAN</DistanceMeters>
          </Trackpoint>
          <Trackpoint>
            <Time>2021-04-04T09:09:49.000Z</Time>
            <Position>
              <LatitudeDegrees>42.343874461948871612548828125</LatitudeDegrees>
              <LongitudeDegrees>2.4139413423836231231689453125</LongitudeDegrees>
            </Position>
            <AltitudeMeters>1107.800048828125</AltitudeMeters>
            <DistanceMeters>NAN</DistanceMeters>
          </Trackpoint>
          <Trackpoint>
            <Time>2021-04-04T09:09:51.000Z</Time>
            <Position>
              <LatitudeDegrees>42.34388896264135837554931640625</LatitudeDegrees>
              <LongitudeDegrees>2.413917370140552520751953125</LongitudeDegrees>
            </Position>
            <AltitudeMeters>1107.5999755859375</AltitudeMeters>
            <DistanceMeters>NAN</DistanceMeters>
          </Trackpoint>
          <Trackpoint>
            <Time>2021-04-04T09:09:57.000Z</Time>
            <Position>
              <LatitudeDegrees>42.3439125157892704010009765625</LatitudeDegrees>
              <LongitudeDegrees>2.413836903870105743408203125</LongitudeDegrees>
            </Position>
            <AltitudeMeters>1106.5999755859375</AltitudeMeters>
            <DistanceMeters>NAN</DistanceMeters>
          </Trackpoint>
          <Trackpoint>
            <Time>2021-04-04T09:10:01.000Z</Time>
            <Position>
              <LatitudeDegrees>42.34393422491848468780517578125</LatitudeDegrees>
              <LongitudeDegrees>2.41378351114690303802490234375</LongitudeDegrees>
            </Position>
            <AltitudeMeters>1106.199951171875</AltitudeMeters>
            <DistanceMeters>NAN</DistanceMeters>
          </Trackpoint>
          <Trackpoint>
            <Time>2021-04-04T09:10:04.000Z</Time>
            <Position>
              <LatitudeDegrees>42.34394428320229053497314453125</LatitudeDegrees>
              <LongitudeDegrees>2.41374461911618709564208984375</LongitudeDegrees>
            </Position>
            <AltitudeMeters>1106</AltitudeMeters>
            <DistanceMeters>NAN</DistanceMeters>
          </Trackpoint>
          <Trackpoint>
            <Time>2021-04-04T09:10:06.000Z</Time>
            <Position>
              <LatitudeDegrees>42.34394713304936885833740234375</LatitudeDegrees>
              <LongitudeDegrees>2.41371829994022846221923828125</LongitudeDegrees>
            </Position>
            <AltitudeMeters>1105.4000244140625</AltitudeMeters>
            <DistanceMeters>NAN</DistanceMeters>
          </Trackpoint>
          <Trackpoint>
            <Time>2021-04-04T09:10:10.000Z</Time>
            <Position>
              <LatitudeDegrees>42.34394897706806659698486328125</LatitudeDegrees>
              <LongitudeDegrees>2.4136597104370594024658203125</LongitudeDegrees>
            </Position>
            <AltitudeMeters>1104.800048828125</AltitudeMeters>
            <DistanceMeters>NAN</DistanceMeters>
          </Trackpoint>
          <Trackpoint>
            <Time>2021-04-04T09:10:14.000Z</Time>
            <Position>
              <LatitudeDegrees>42.3439693450927734375</LatitudeDegrees>
              <LongitudeDegrees>2.41361604072153568267822265625</LongitudeDegrees>
            </Position>
            <AltitudeMeters>1104.4000244140625</AltitudeMeters>
            <DistanceMeters>NAN</DistanceMeters>
          </Trackpoint>
          <Trackpoint>
            <Time>2021-04-04T09:10:21.000Z</Time>
            <Position>
              <LatitudeDegrees>42.343987114727497100830078125</LatitudeDegrees>
              <LongitudeDegrees>2.4135202355682849884033203125</LongitudeDegrees>
            </Position>
            <AltitudeMeters>1103.199951171875</AltitudeMeters>
            <DistanceMeters>NAN</DistanceMeters>
          </Trackpoint>
          <Trackpoint>
            <Time>2021-04-04T09:10:28.000Z</Time>
            <Position>
              <LatitudeDegrees>42.34400815330445766448974609375</LatitudeDegrees>
              <LongitudeDegrees>2.41342644207179546356201171875</LongitudeDegrees>
            </Position>
            <AltitudeMeters>1102.199951171875</AltitudeMeters>
            <DistanceMeters>NAN</DistanceMeters>
          </Trackpoint>
          <Trackpoint>
            <Time>2021-04-04T09:10:31.000Z</Time>
            <Position>
              <LatitudeDegrees>42.34400832094252109527587890625</LatitudeDegrees>
              <LongitudeDegrees>2.41338604129850864410400390625</LongitudeDegrees>
            </Position>
            <AltitudeMeters>1101.800048828125</AltitudeMeters>
            <DistanceMeters>NAN</DistanceMeters>
          </Trackpoint>
          <Trackpoint>
            <Time>2021-04-04T09:10:37.000Z</Time>
            <Position>
              <LatitudeDegrees>42.3440248332917690277099609375</LatitudeDegrees>
              <LongitudeDegrees>2.41331110708415508270263671875</LongitudeDegrees>
            </Position>
            <AltitudeMeters>1101.199951171875</AltitudeMeters>
            <DistanceMeters>NAN</DistanceMeters>
          </Trackpoint>
          <Trackpoint>
            <Time>2021-04-04T09:10:39.000Z</Time>
            <Position>
              <LatitudeDegrees>42.3440268449485301971435546875</LatitudeDegrees>
              <LongitudeDegrees>2.413282692432403564453125</LongitudeDegrees>
            </Position>
            <AltitudeMeters>1100.800048828125</AltitudeMeters>
            <DistanceMeters>NAN</DistanceMeters>
          </Trackpoint>
          <Trackpoint>
            <Time>2021-04-04T09:10:40.000Z</Time>
            <Position>
              <LatitudeDegrees>42.3440243303775787353515625</LatitudeDegrees>
              <LongitudeDegrees>2.41326618008315563201904296875</LongitudeDegrees>
            </Position>
            <AltitudeMeters>1100.5999755859375</AltitudeMeters>
            <DistanceMeters>NAN</DistanceMeters>
          </Trackpoint>
          <Trackpoint>
            <Time>2021-04-04T09:10:44.000Z</Time>
            <Position>
              <LatitudeDegrees>42.34404989518225193023681640625</LatitudeDegrees>
              <LongitudeDegrees>2.413211949169635772705078125</LongitudeDegrees>
            </Position>
            <AltitudeMeters>1100</AltitudeMeters>
            <DistanceMeters>NAN</DistanceMeters>
          </Trackpoint>
          <Trackpoint>
            <Time>2021-04-04T09:10:50.000Z</Time>
            <Position>
              <LatitudeDegrees>42.34406162984669208526611328125</LatitudeDegrees>
              <LongitudeDegrees>2.413117401301860809326171875</LongitudeDegrees>
            </Position>
            <AltitudeMeters>1099.5999755859375</AltitudeMeters>
            <DistanceMeters>NAN</DistanceMeters>
          </Trackpoint>
          <Trackpoint>
            <Time>2021-04-04T09:10:54.000Z</Time>
            <Position>
              <LatitudeDegrees>42.34406657516956329345703125</LatitudeDegrees>
              <LongitudeDegrees>2.413059733808040618896484375</LongitudeDegrees>
            </Position>
            <AltitudeMeters>1099</AltitudeMeters>
            <DistanceMeters>NAN</DistanceMeters>
          </Trackpoint>
          <Trackpoint>
            <Time>2021-04-04T09:11:01.000Z</Time>
            <Position>
              <LatitudeDegrees>42.34406582079827785491943359375</LatitudeDegrees>
              <LongitudeDegrees>2.412957809865474700927734375</LongitudeDegrees>
            </Position>
            <AltitudeMeters>1098</AltitudeMeters>
            <DistanceMeters>NAN</DistanceMeters>
          </Trackpoint>
          <Trackpoint>
            <Time>2021-04-04T09:11:03.000Z</Time>
            <Position>
              <LatitudeDegrees>42.3440645635128021240234375</LatitudeDegrees>
              <LongitudeDegrees>2.412928640842437744140625</LongitudeDegrees>
            </Position>
            <AltitudeMeters>1097.800048828125</AltitudeMeters>
            <DistanceMeters>NAN</DistanceMeters>
          </Trackpoint>
          <Trackpoint>
            <Time>2021-04-04T09:11:08.000Z</Time>
            <Position>
              <LatitudeDegrees>42.34404981136322021484375</LatitudeDegrees>
              <LongitudeDegrees>2.4128580652177333831787109375</LongitudeDegrees>
            </Position>
            <AltitudeMeters>1096.800048828125</AltitudeMeters>
            <DistanceMeters>NAN</DistanceMeters>
          </Trackpoint>
          <Trackpoint>
            <Time>2021-04-04T09:11:14.000Z</Time>
            <Position>
              <LatitudeDegrees>42.34403346665203571319580078125</LatitudeDegrees>
              <LongitudeDegrees>2.41277902387082576751708984375</LongitudeDegrees>
            </Position>
            <AltitudeMeters>1095.800048828125</AltitudeMeters>
            <DistanceMeters>NAN</DistanceMeters>
          </Trackpoint>
          <Trackpoint>
            <Time>2021-04-04T09:11:15.000Z</Time>
            <Position>
              <LatitudeDegrees>42.34403246082365512847900390625</LatitudeDegrees>
              <LongitudeDegrees>2.412765361368656158447265625</LongitudeDegrees>
            </Position>
            <AltitudeMeters>1095.5999755859375</AltitudeMeters>
            <DistanceMeters>NAN</DistanceMeters>
          </Trackpoint>
          <Trackpoint>
            <Time>2021-04-04T09:11:21.000Z</Time>
            <Position>
              <LatitudeDegrees>42.3440187983214855194091796875</LatitudeDegrees>
              <LongitudeDegrees>2.4126646108925342559814453125</LongitudeDegrees>
            </Position>
            <AltitudeMeters>1094.5999755859375</AltitudeMeters>
            <DistanceMeters>NAN</DistanceMeters>
          </Trackpoint>
          <Trackpoint>
            <Time>2021-04-04T09:11:26.000Z</Time>
            <Position>
              <LatitudeDegrees>42.34400262124836444854736328125</LatitudeDegrees>
              <LongitudeDegrees>2.41259613074362277984619140625</LongitudeDegrees>
            </Position>
            <AltitudeMeters>1093.5999755859375</AltitudeMeters>
            <DistanceMeters>NAN</DistanceMeters>
          </Trackpoint>
          <Trackpoint>
            <Time>2021-04-04T09:11:27.000Z</Time>
            <Position>
              <LatitudeDegrees>42.34399792738258838653564453125</LatitudeDegrees>
              <LongitudeDegrees>2.41258406080305576324462890625</LongitudeDegrees>
            </Position>
            <AltitudeMeters>1093.4000244140625</AltitudeMeters>
            <DistanceMeters>NAN</DistanceMeters>
          </Trackpoint>
          <Trackpoint>
            <Time>2021-04-04T09:11:34.000Z</Time>
            <Position>
              <LatitudeDegrees>42.34398317523300647735595703125</LatitudeDegrees>
              <LongitudeDegrees>2.41247710771858692169189453125</LongitudeDegrees>
            </Position>
            <AltitudeMeters>1092.5999755859375</AltitudeMeters>
            <DistanceMeters>NAN</DistanceMeters>
          </Trackpoint>
          <Trackpoint>
            <Time>2021-04-04T09:11:35.000Z</Time>
            <Position>
              <LatitudeDegrees>42.34398116357624530792236328125</LatitudeDegrees>
              <LongitudeDegrees>2.4124604277312755584716796875</LongitudeDegrees>
            </Position>
            <AltitudeMeters>1092.4000244140625</AltitudeMeters>
            <DistanceMeters>NAN</DistanceMeters>
          </Trackpoint>
          <Trackpoint>
            <Time>2021-04-04T09:11:38.000Z</Time>
            <Position>
              <LatitudeDegrees>42.34397538006305694580078125</LatitudeDegrees>
              <LongitudeDegrees>2.41241692565381526947021484375</LongitudeDegrees>
            </Position>
            <AltitudeMeters>1091.4000244140625</AltitudeMeters>
            <DistanceMeters>NAN</DistanceMeters>
          </Trackpoint>
          <Trackpoint>
            <Time>2021-04-04T09:11:41.000Z</Time>
            <Position>
              <LatitudeDegrees>42.3439581133425235748291015625</LatitudeDegrees>
              <LongitudeDegrees>2.4123823083937168121337890625</LongitudeDegrees>
            </Position>
            <AltitudeMeters>1091.199951171875</AltitudeMeters>
            <DistanceMeters>NAN</DistanceMeters>
          </Trackpoint>
          <Trackpoint>
            <Time>2021-04-04T09:11:42.000Z</Time>
            <Position>
              <LatitudeDegrees>42.34395450912415981292724609375</LatitudeDegrees>
              <LongitudeDegrees>2.4123678915202617645263671875</LongitudeDegrees>
            </Position>
            <AltitudeMeters>1091</AltitudeMeters>
            <DistanceMeters>NAN</DistanceMeters>
          </Trackpoint>
          <Trackpoint>
            <Time>2021-04-04T09:11:43.000Z</Time>
            <Position>
              <LatitudeDegrees>42.343950234353542327880859375</LatitudeDegrees>
              <LongitudeDegrees>2.4123524688184261322021484375</LongitudeDegrees>
            </Position>
            <AltitudeMeters>1090.800048828125</AltitudeMeters>
            <DistanceMeters>NAN</DistanceMeters>
          </Trackpoint>
          <Trackpoint>
            <Time>2021-04-04T09:11:44.000Z</Time>
            <Position>
              <LatitudeDegrees>42.34394679777324199676513671875</LatitudeDegrees>
              <LongitudeDegrees>2.4123367108404636383056640625</LongitudeDegrees>
            </Position>
            <AltitudeMeters>1090.5999755859375</AltitudeMeters>
            <DistanceMeters>NAN</DistanceMeters>
          </Trackpoint>
          <Trackpoint>
            <Time>2021-04-04T09:11:45.000Z</Time>
            <Position>
              <LatitudeDegrees>42.3439443670213222503662109375</LatitudeDegrees>
              <LongitudeDegrees>2.41231977939605712890625</LongitudeDegrees>
            </Position>
            <AltitudeMeters>1090.4000244140625</AltitudeMeters>
            <DistanceMeters>NAN</DistanceMeters>
          </Trackpoint>
          <Trackpoint>
            <Time>2021-04-04T09:11:49.000Z</Time>
            <Position>
              <LatitudeDegrees>42.3439423553645610809326171875</LatitudeDegrees>
              <LongitudeDegrees>2.4122555740177631378173828125</LongitudeDegrees>
            </Position>
            <AltitudeMeters>1089.199951171875</AltitudeMeters>
            <DistanceMeters>NAN</DistanceMeters>
          </Trackpoint>
          <Trackpoint>
            <Time>2021-04-04T09:11:56.000Z</Time>
            <Position>
              <LatitudeDegrees>42.34392710030078887939453125</LatitudeDegrees>
              <LongitudeDegrees>2.4121747724711894989013671875</LongitudeDegrees>
            </Position>
            <AltitudeMeters>1088.199951171875</AltitudeMeters>
            <DistanceMeters>NAN</DistanceMeters>
          </Trackpoint>
          <Trackpoint>
            <Time>2021-04-04T09:12:00.000Z</Time>
            <Position>
              <LatitudeDegrees>42.343916036188602447509765625</LatitudeDegrees>
              <LongitudeDegrees>2.41210930980741977691650390625</LongitudeDegrees>
            </Position>
            <AltitudeMeters>1087.199951171875</AltitudeMeters>
            <DistanceMeters>NAN</DistanceMeters>
          </Trackpoint>
          <Trackpoint>
            <Time>2021-04-04T09:12:03.000Z</Time>
            <Position>
              <LatitudeDegrees>42.34390170313417911529541015625</LatitudeDegrees>
              <LongitudeDegrees>2.4120946414768695831298828125</LongitudeDegrees>
            </Position>
            <AltitudeMeters>1086.800048828125</AltitudeMeters>
            <DistanceMeters>NAN</DistanceMeters>
          </Trackpoint>
          <Trackpoint>
            <Time>2021-04-04T09:12:05.000Z</Time>
            <Position>
              <LatitudeDegrees>42.3439017869532108306884765625</LatitudeDegrees>
              <LongitudeDegrees>2.41208332590758800506591796875</LongitudeDegrees>
            </Position>
            <AltitudeMeters>1086.800048828125</AltitudeMeters>
            <DistanceMeters>NAN</DistanceMeters>
          </Trackpoint>
          <Trackpoint>
            <Time>2021-04-04T09:12:06.000Z</Time>
            <Position>
              <LatitudeDegrees>42.3438994400203227996826171875</LatitudeDegrees>
              <LongitudeDegrees>2.41207947023212909698486328125</LongitudeDegrees>
            </Position>
            <AltitudeMeters>1086.5999755859375</AltitudeMeters>
            <DistanceMeters>NAN</DistanceMeters>
          </Trackpoint>
          <Trackpoint>
            <Time>2021-04-04T09:12:08.000Z</Time>
            <Position>
              <LatitudeDegrees>42.3438809998333454132080078125</LatitudeDegrees>
              <LongitudeDegrees>2.412082068622112274169921875</LongitudeDegrees>
            </Position>
            <AltitudeMeters>1086.5999755859375</AltitudeMeters>
            <DistanceMeters>NAN</DistanceMeters>
          </Trackpoint>
          <Trackpoint>
            <Time>2021-04-04T09:12:13.000Z</Time>
            <Position>
              <LatitudeDegrees>42.343878485262393951416015625</LatitudeDegrees>
              <LongitudeDegrees>2.412090785801410675048828125</LongitudeDegrees>
            </Position>
            <AltitudeMeters>1086.5999755859375</AltitudeMeters>
            <DistanceMeters>NAN</DistanceMeters>
          </Trackpoint>
          <Trackpoint>
            <Time>2021-04-04T09:12:15.000Z</Time>
            <Position>
              <LatitudeDegrees>42.3438830114901065826416015625</LatitudeDegrees>
              <LongitudeDegrees>2.41208332590758800506591796875</LongitudeDegrees>
            </Position>
            <AltitudeMeters>1086.5999755859375</AltitudeMeters>
            <DistanceMeters>NAN</DistanceMeters>
          </Trackpoint>
          <Trackpoint>
            <Time>2021-04-04T09:12:17.000Z</Time>
            <Position>
              <LatitudeDegrees>42.34388024546205997467041015625</LatitudeDegrees>
              <LongitudeDegrees>2.41206807084381580352783203125</LongitudeDegrees>
            </Position>
            <AltitudeMeters>1086.4000244140625</AltitudeMeters>
            <DistanceMeters>NAN</DistanceMeters>
          </Trackpoint>
          <Trackpoint>
            <Time>2021-04-04T09:12:19.000Z</Time>
            <Position>
              <LatitudeDegrees>42.34387203119695186614990234375</LatitudeDegrees>
              <LongitudeDegrees>2.4120394885540008544921875</LongitudeDegrees>
            </Position>
            <AltitudeMeters>1085.800048828125</AltitudeMeters>
            <DistanceMeters>NAN</DistanceMeters>
          </Trackpoint>
          <Trackpoint>
            <Time>2021-04-04T09:12:25.000Z</Time>
            <Position>
              <LatitudeDegrees>42.3438421078026294708251953125</LatitudeDegrees>
              <LongitudeDegrees>2.41193513385951519012451171875</LongitudeDegrees>
            </Position>
            <AltitudeMeters>1084.5999755859375</AltitudeMeters>
            <DistanceMeters>NAN</DistanceMeters>
          </Trackpoint>
          <Trackpoint>
            <Time>2021-04-04T09:12:28.000Z</Time>
            <Position>
              <LatitudeDegrees>42.34383833594620227813720703125</LatitudeDegrees>
              <LongitudeDegrees>2.41188869811594486236572265625</LongitudeDegrees>
            </Position>
            <AltitudeMeters>1084</AltitudeMeters>
            <DistanceMeters>NAN</DistanceMeters>
          </Trackpoint>
          <Trackpoint>
            <Time>2021-04-04T09:12:29.000Z</Time>
            <Position>
              <LatitudeDegrees>42.34383095987141132354736328125</LatitudeDegrees>
              <LongitudeDegrees>2.411871515214443206787109375</LongitudeDegrees>
            </Position>
            <AltitudeMeters>1084</AltitudeMeters>
            <DistanceMeters>NAN</DistanceMeters>
          </Trackpoint>
          <Trackpoint>
            <Time>2021-04-04T09:12:35.000Z</Time>
            <Position>
              <LatitudeDegrees>42.34381771646440029144287109375</LatitudeDegrees>
              <LongitudeDegrees>2.41182968951761722564697265625</LongitudeDegrees>
            </Position>
            <AltitudeMeters>1084</AltitudeMeters>
            <DistanceMeters>NAN</DistanceMeters>
          </Trackpoint>
          <Trackpoint>
            <Time>2021-04-04T09:12:43.000Z</Time>
            <Position>
              <LatitudeDegrees>42.3438273556530475616455078125</LatitudeDegrees>
              <LongitudeDegrees>2.41183404810726642608642578125</LongitudeDegrees>
            </Position>
            <AltitudeMeters>1084.199951171875</AltitudeMeters>
            <DistanceMeters>NAN</DistanceMeters>
          </Trackpoint>
          <Trackpoint>
            <Time>2021-04-04T09:12:48.000Z</Time>
            <Position>
              <LatitudeDegrees>42.34382257796823978424072265625</LatitudeDegrees>
              <LongitudeDegrees>2.4118146859109401702880859375</LongitudeDegrees>
            </Position>
            <AltitudeMeters>1083.5999755859375</AltitudeMeters>
            <DistanceMeters>NAN</DistanceMeters>
          </Trackpoint>
          <Trackpoint>
            <Time>2021-04-04T09:12:51.000Z</Time>
            <Position>
              <LatitudeDegrees>42.34381402842700481414794921875</LatitudeDegrees>
              <LongitudeDegrees>2.411777637898921966552734375</LongitudeDegrees>
            </Position>
            <AltitudeMeters>1083.4000244140625</AltitudeMeters>
            <DistanceMeters>NAN</DistanceMeters>
          </Trackpoint>
          <Trackpoint>
            <Time>2021-04-04T09:12:56.000Z</Time>
            <Position>
              <LatitudeDegrees>42.34379642643034458160400390625</LatitudeDegrees>
              <LongitudeDegrees>2.41171116940677165985107421875</LongitudeDegrees>
            </Position>
            <AltitudeMeters>1082.800048828125</AltitudeMeters>
            <DistanceMeters>NAN</DistanceMeters>
          </Trackpoint>
          <Trackpoint>
            <Time>2021-04-04T09:12:57.000Z</Time>
            <Position>
              <LatitudeDegrees>42.34379005618393421173095703125</LatitudeDegrees>
              <LongitudeDegrees>2.41169993765652179718017578125</LongitudeDegrees>
            </Position>
            <AltitudeMeters>1082.5999755859375</AltitudeMeters>
            <DistanceMeters>NAN</DistanceMeters>
          </Trackpoint>
          <Trackpoint>
            <Time>2021-04-04T09:13:00.000Z</Time>
            <Position>
              <LatitudeDegrees>42.34377865679562091827392578125</LatitudeDegrees>
              <LongitudeDegrees>2.4116701819002628326416015625</LongitudeDegrees>
            </Position>
            <AltitudeMeters>1082.199951171875</AltitudeMeters>
            <DistanceMeters>NAN</DistanceMeters>
          </Trackpoint>
          <Trackpoint>
            <Time>2021-04-04T09:13:02.000Z</Time>
            <Position>
              <LatitudeDegrees>42.3437784053385257720947265625</LatitudeDegrees>
              <LongitudeDegrees>2.41163908503949642181396484375</LongitudeDegrees>
            </Position>
            <AltitudeMeters>1082.199951171875</AltitudeMeters>
            <DistanceMeters>NAN</DistanceMeters>
          </Trackpoint>
          <Trackpoint>
            <Time>2021-04-04T09:13:05.000Z</Time>
            <Position>
              <LatitudeDegrees>42.3437740467488765716552734375</LatitudeDegrees>
              <LongitudeDegrees>2.4115984328091144561767578125</LongitudeDegrees>
            </Position>
            <AltitudeMeters>1081.5999755859375</AltitudeMeters>
            <DistanceMeters>NAN</DistanceMeters>
          </Trackpoint>
          <Trackpoint>
            <Time>2021-04-04T09:13:11.000Z</Time>
            <Position>
              <LatitudeDegrees>42.34375468455255031585693359375</LatitudeDegrees>
              <LongitudeDegrees>2.41151872090995311737060546875</LongitudeDegrees>
            </Position>
            <AltitudeMeters>1080.5999755859375</AltitudeMeters>
            <DistanceMeters>NAN</DistanceMeters>
          </Trackpoint>
          <Trackpoint>
            <Time>2021-04-04T09:13:12.000Z</Time>
            <Position>
              <LatitudeDegrees>42.34375166706740856170654296875</LatitudeDegrees>
              <LongitudeDegrees>2.411504723131656646728515625</LongitudeDegrees>
            </Position>
            <AltitudeMeters>1080.5999755859375</AltitudeMeters>
            <DistanceMeters>NAN</DistanceMeters>
          </Trackpoint>
          <Trackpoint>
            <Time>2021-04-04T09:13:17.000Z</Time>
            <Position>
              <LatitudeDegrees>42.34373532235622406005859375</LatitudeDegrees>
              <LongitudeDegrees>2.41144462488591670989990234375</LongitudeDegrees>
            </Position>
            <AltitudeMeters>1080.199951171875</AltitudeMeters>
            <DistanceMeters>NAN</DistanceMeters>
          </Trackpoint>
          <Trackpoint>
            <Time>2021-04-04T09:13:19.000Z</Time>
            <Position>
              <LatitudeDegrees>42.343730963766574859619140625</LatitudeDegrees>
              <LongitudeDegrees>2.41141243837773799896240234375</LongitudeDegrees>
            </Position>
            <AltitudeMeters>1080</AltitudeMeters>
            <DistanceMeters>NAN</DistanceMeters>
          </Trackpoint>
          <Trackpoint>
            <Time>2021-04-04T09:13:22.000Z</Time>
            <Position>
              <LatitudeDegrees>42.343715541064739227294921875</LatitudeDegrees>
              <LongitudeDegrees>2.411372624337673187255859375</LongitudeDegrees>
            </Position>
            <AltitudeMeters>1079.199951171875</AltitudeMeters>
            <DistanceMeters>NAN</DistanceMeters>
          </Trackpoint>
          <Trackpoint>
            <Time>2021-04-04T09:13:26.000Z</Time>
            <Position>
              <LatitudeDegrees>42.343696765601634979248046875</LatitudeDegrees>
              <LongitudeDegrees>2.4113171361386775970458984375</LongitudeDegrees>
            </Position>
            <AltitudeMeters>1078.199951171875</AltitudeMeters>
            <DistanceMeters>NAN</DistanceMeters>
          </Trackpoint>
          <Trackpoint>
            <Time>2021-04-04T09:13:31.000Z</Time>
            <Position>
              <LatitudeDegrees>42.3436831869184970855712890625</LatitudeDegrees>
              <LongitudeDegrees>2.41124932654201984405517578125</LongitudeDegrees>
            </Position>
            <AltitudeMeters>1077.4000244140625</AltitudeMeters>
            <DistanceMeters>NAN</DistanceMeters>
          </Trackpoint>
          <Trackpoint>
            <Time>2021-04-04T09:13:32.000Z</Time>
            <Position>
              <LatitudeDegrees>42.34368075616657733917236328125</LatitudeDegrees>
              <LongitudeDegrees>2.4112336523830890655517578125</LongitudeDegrees>
            </Position>
            <AltitudeMeters>1077</AltitudeMeters>
            <DistanceMeters>NAN</DistanceMeters>
          </Trackpoint>
          <Trackpoint>
            <Time>2021-04-04T09:13:36.000Z</Time>
            <Position>
              <LatitudeDegrees>42.3436781577765941619873046875</LatitudeDegrees>
              <LongitudeDegrees>2.41117875091731548309326171875</LongitudeDegrees>
            </Position>
            <AltitudeMeters>1076</AltitudeMeters>
            <DistanceMeters>NAN</DistanceMeters>
          </Trackpoint>
          <Trackpoint>
            <Time>2021-04-04T09:13:39.000Z</Time>
            <Position>
              <LatitudeDegrees>42.34369785524904727935791015625</LatitudeDegrees>
              <LongitudeDegrees>2.41114086471498012542724609375</LongitudeDegrees>
            </Position>
            <AltitudeMeters>1076</AltitudeMeters>
            <DistanceMeters>NAN</DistanceMeters>
          </Trackpoint>
          <Trackpoint>
            <Time>2021-04-04T09:13:45.000Z</Time>
            <Position>
              <LatitudeDegrees>42.3437458835542201995849609375</LatitudeDegrees>
              <LongitudeDegrees>2.411093674600124359130859375</LongitudeDegrees>
            </Position>
            <AltitudeMeters>1074.800048828125</AltitudeMeters>
            <DistanceMeters>NAN</DistanceMeters>
          </Trackpoint>
          <Trackpoint>
            <Time>2021-04-04T09:13:49.000Z</Time>
            <Position>
              <LatitudeDegrees>42.34378284774720668792724609375</LatitudeDegrees>
              <LongitudeDegrees>2.4110800959169864654541015625</LongitudeDegrees>
            </Position>
            <AltitudeMeters>1074.4000244140625</AltitudeMeters>
            <DistanceMeters>NAN</DistanceMeters>
          </Trackpoint>
          <Trackpoint>
            <Time>2021-04-04T09:13:53.000Z</Time>
            <Position>
              <LatitudeDegrees>42.343824170529842376708984375</LatitudeDegrees>
              <LongitudeDegrees>2.4110673554241657257080078125</LongitudeDegrees>
            </Position>
            <AltitudeMeters>1073.800048828125</AltitudeMeters>
            <DistanceMeters>NAN</DistanceMeters>
          </Trackpoint>
          <Trackpoint>
            <Time>2021-04-04T09:13:56.000Z</Time>
            <Position>
              <LatitudeDegrees>42.34385333955287933349609375</LatitudeDegrees>
              <LongitudeDegrees>2.411062829196453094482421875</LongitudeDegrees>
            </Position>
            <AltitudeMeters>1072.5999755859375</AltitudeMeters>
            <DistanceMeters>NAN</DistanceMeters>
          </Trackpoint>
          <Trackpoint>
            <Time>2021-04-04T09:13:59.000Z</Time>
            <Position>
              <LatitudeDegrees>42.3438746295869350433349609375</LatitudeDegrees>
              <LongitudeDegrees>2.411039359867572784423828125</LongitudeDegrees>
            </Position>
            <AltitudeMeters>1072</AltitudeMeters>
            <DistanceMeters>NAN</DistanceMeters>
          </Trackpoint>
          <Trackpoint>
            <Time>2021-04-04T09:14:00.000Z</Time>
            <Position>
              <LatitudeDegrees>42.3438840173184871673583984375</LatitudeDegrees>
              <LongitudeDegrees>2.4110257811844348907470703125</LongitudeDegrees>
            </Position>
            <AltitudeMeters>1071.5999755859375</AltitudeMeters>
            <DistanceMeters>NAN</DistanceMeters>
          </Trackpoint>
          <Trackpoint>
            <Time>2021-04-04T09:14:03.000Z</Time>
            <Position>
              <LatitudeDegrees>42.34391729347407817840576171875</LatitudeDegrees>
              <LongitudeDegrees>2.411008179187774658203125</LongitudeDegrees>
            </Position>
            <AltitudeMeters>1071.199951171875</AltitudeMeters>
            <DistanceMeters>NAN</DistanceMeters>
          </Trackpoint>
          <Trackpoint>
            <Time>2021-04-04T09:14:06.000Z</Time>
            <Position>
              <LatitudeDegrees>42.34395434148609638214111328125</LatitudeDegrees>
              <LongitudeDegrees>2.41102133877575397491455078125</LongitudeDegrees>
            </Position>
            <AltitudeMeters>1070.5999755859375</AltitudeMeters>
            <DistanceMeters>NAN</DistanceMeters>
          </Trackpoint>
          <Trackpoint>
            <Time>2021-04-04T09:14:09.000Z</Time>
            <Position>
              <LatitudeDegrees>42.34398208558559417724609375</LatitudeDegrees>
              <LongitudeDegrees>2.41103508509695529937744140625</LongitudeDegrees>
            </Position>
            <AltitudeMeters>1070.199951171875</AltitudeMeters>
            <DistanceMeters>NAN</DistanceMeters>
          </Trackpoint>
          <Trackpoint>
            <Time>2021-04-04T09:14:12.000Z</Time>
            <Position>
              <LatitudeDegrees>42.34402139671146869659423828125</LatitudeDegrees>
              <LongitudeDegrees>2.4110428802669048309326171875</LongitudeDegrees>
            </Position>
            <AltitudeMeters>1069.800048828125</AltitudeMeters>
            <DistanceMeters>NAN</DistanceMeters>
          </Trackpoint>
          <Trackpoint>
            <Time>2021-04-04T09:14:14.000Z</Time>
            <Position>
              <LatitudeDegrees>42.34405525960028171539306640625</LatitudeDegrees>
              <LongitudeDegrees>2.41103307344019412994384765625</LongitudeDegrees>
            </Position>
            <AltitudeMeters>1069.5999755859375</AltitudeMeters>
            <DistanceMeters>NAN</DistanceMeters>
          </Trackpoint>
          <Trackpoint>
            <Time>2021-04-04T09:14:15.000Z</Time>
            <Position>
              <LatitudeDegrees>42.34406900592148303985595703125</LatitudeDegrees>
              <LongitudeDegrees>2.41102620027959346771240234375</LongitudeDegrees>
            </Position>
            <AltitudeMeters>1069.4000244140625</AltitudeMeters>
            <DistanceMeters>NAN</DistanceMeters>
          </Trackpoint>
          <Trackpoint>
            <Time>2021-04-04T09:14:16.000Z</Time>
            <Position>
              <LatitudeDegrees>42.3440798185765743255615234375</LatitudeDegrees>
              <LongitudeDegrees>2.411018908023834228515625</LongitudeDegrees>
            </Position>
            <AltitudeMeters>1069.199951171875</AltitudeMeters>
            <DistanceMeters>NAN</DistanceMeters>
          </Trackpoint>
          <Trackpoint>
            <Time>2021-04-04T09:14:19.000Z</Time>
            <Position>
              <LatitudeDegrees>42.34410186298191547393798828125</LatitudeDegrees>
              <LongitudeDegrees>2.41101832129061222076416015625</LongitudeDegrees>
            </Position>
            <AltitudeMeters>1069</AltitudeMeters>
            <DistanceMeters>NAN</DistanceMeters>
          </Trackpoint>
          <Trackpoint>
            <Time>2021-04-04T09:14:21.000Z</Time>
            <Position>
              <LatitudeDegrees>42.3441291041672229766845703125</LatitudeDegrees>
              <LongitudeDegrees>2.41102335043251514434814453125</LongitudeDegrees>
            </Position>
            <AltitudeMeters>1069</AltitudeMeters>
            <DistanceMeters>NAN</DistanceMeters>
          </Trackpoint>
          <Trackpoint>
            <Time>2021-04-04T09:14:24.000Z</Time>
            <Position>
              <LatitudeDegrees>42.34415240585803985595703125</LatitudeDegrees>
              <LongitudeDegrees>2.41102402098476886749267578125</LongitudeDegrees>
            </Position>
            <AltitudeMeters>1068.5999755859375</AltitudeMeters>
            <DistanceMeters>NAN</DistanceMeters>
          </Trackpoint>
          <Trackpoint>
            <Time>2021-04-04T09:14:25.000Z</Time>
            <Position>
              <LatitudeDegrees>42.344161458313465118408203125</LatitudeDegrees>
              <LongitudeDegrees>2.4110251106321811676025390625</LongitudeDegrees>
            </Position>
            <AltitudeMeters>1068.4000244140625</AltitudeMeters>
            <DistanceMeters>NAN</DistanceMeters>
          </Trackpoint>
          <Trackpoint>
            <Time>2021-04-04T09:14:26.000Z</Time>
            <Position>
              <LatitudeDegrees>42.3441753722727298736572265625</LatitudeDegrees>
              <LongitudeDegrees>2.4110197462141513824462890625</LongitudeDegrees>
            </Position>
            <AltitudeMeters>1068.4000244140625</AltitudeMeters>
            <DistanceMeters>NAN</DistanceMeters>
          </Trackpoint>
          <Trackpoint>
            <Time>2021-04-04T09:14:28.000Z</Time>
            <Position>
              <LatitudeDegrees>42.3441954888403415679931640625</LatitudeDegrees>
              <LongitudeDegrees>2.41099518723785877227783203125</LongitudeDegrees>
            </Position>
            <AltitudeMeters>1068.4000244140625</AltitudeMeters>
            <DistanceMeters>NAN</DistanceMeters>
          </Trackpoint>
          <Trackpoint>
            <Time>2021-04-04T09:14:32.000Z</Time>
            <Position>
              <LatitudeDegrees>42.34424066729843616485595703125</LatitudeDegrees>
              <LongitudeDegrees>2.41098496131598949432373046875</LongitudeDegrees>
            </Position>
            <AltitudeMeters>1067.800048828125</AltitudeMeters>
            <DistanceMeters>NAN</DistanceMeters>
          </Trackpoint>
          <Trackpoint>
            <Time>2021-04-04T09:14:33.000Z</Time>
            <Position>
              <LatitudeDegrees>42.3442501388490200042724609375</LatitudeDegrees>
              <LongitudeDegrees>2.41098311729729175567626953125</LongitudeDegrees>
            </Position>
            <AltitudeMeters>1067.4000244140625</AltitudeMeters>
            <DistanceMeters>NAN</DistanceMeters>
          </Trackpoint>
          <Trackpoint>
            <Time>2021-04-04T09:14:37.000Z</Time>
            <Position>
              <LatitudeDegrees>42.34429213218390941619873046875</LatitudeDegrees>
              <LongitudeDegrees>2.410960905253887176513671875</LongitudeDegrees>
            </Position>
            <AltitudeMeters>1066.800048828125</AltitudeMeters>
            <DistanceMeters>NAN</DistanceMeters>
          </Trackpoint>
          <Trackpoint>
            <Time>2021-04-04T09:14:44.000Z</Time>
            <Position>
              <LatitudeDegrees>42.34434376470744609832763671875</LatitudeDegrees>
              <LongitudeDegrees>2.41090063937008380889892578125</LongitudeDegrees>
            </Position>
            <AltitudeMeters>1066</AltitudeMeters>
            <DistanceMeters>NAN</DistanceMeters>
          </Trackpoint>
          <Trackpoint>
            <Time>2021-04-04T09:14:45.000Z</Time>
            <Position>
              <LatitudeDegrees>42.34435080550611019134521484375</LatitudeDegrees>
              <LongitudeDegrees>2.41088722832500934600830078125</LongitudeDegrees>
            </Position>
            <AltitudeMeters>1065.800048828125</AltitudeMeters>
            <DistanceMeters>NAN</DistanceMeters>
          </Trackpoint>
          <Trackpoint>
            <Time>2021-04-04T09:14:51.000Z</Time>
            <Position>
              <LatitudeDegrees>42.34439506195485591888427734375</LatitudeDegrees>
              <LongitudeDegrees>2.4108336679637432098388671875</LongitudeDegrees>
            </Position>
            <AltitudeMeters>1065.4000244140625</AltitudeMeters>
            <DistanceMeters>NAN</DistanceMeters>
          </Trackpoint>
          <Trackpoint>
            <Time>2021-04-04T09:14:53.000Z</Time>
            <Position>
              <LatitudeDegrees>42.3444154299795627593994140625</LatitudeDegrees>
              <LongitudeDegrees>2.4108298122882843017578125</LongitudeDegrees>
            </Position>
            <AltitudeMeters>1065</AltitudeMeters>
            <DistanceMeters>NAN</DistanceMeters>
          </Trackpoint>
          <Trackpoint>
            <Time>2021-04-04T09:15:01.000Z</Time>
            <Position>
              <LatitudeDegrees>42.3445200361311435699462890625</LatitudeDegrees>
              <LongitudeDegrees>2.41080340929329395294189453125</LongitudeDegrees>
            </Position>
            <AltitudeMeters>1063.800048828125</AltitudeMeters>
            <DistanceMeters>NAN</DistanceMeters>
          </Trackpoint>
          <Trackpoint>
            <Time>2021-04-04T09:15:03.000Z</Time>
            <Position>
              <LatitudeDegrees>42.3445388115942478179931640625</LatitudeDegrees>
              <LongitudeDegrees>2.41079066880047321319580078125</LongitudeDegrees>
            </Position>
            <AltitudeMeters>1063.4000244140625</AltitudeMeters>
            <DistanceMeters>NAN</DistanceMeters>
          </Trackpoint>
          <Trackpoint>
            <Time>2021-04-04T09:15:05.000Z</Time>
            <Position>
              <LatitudeDegrees>42.34455398283898830413818359375</LatitudeDegrees>
              <LongitudeDegrees>2.4107783474028110504150390625</LongitudeDegrees>
            </Position>
            <AltitudeMeters>1062.800048828125</AltitudeMeters>
            <DistanceMeters>NAN</DistanceMeters>
          </Trackpoint>
          <Trackpoint>
            <Time>2021-04-04T09:15:06.000Z</Time>
            <Position>
              <LatitudeDegrees>42.34456487931311130523681640625</LatitudeDegrees>
              <LongitudeDegrees>2.41075915284454822540283203125</LongitudeDegrees>
            </Position>
            <AltitudeMeters>1062.800048828125</AltitudeMeters>
            <DistanceMeters>NAN</DistanceMeters>
          </Trackpoint>
          <Trackpoint>
            <Time>2021-04-04T09:15:09.000Z</Time>
            <Position>
              <LatitudeDegrees>42.34458415769040584564208984375</LatitudeDegrees>
              <LongitudeDegrees>2.4107327498495578765869140625</LongitudeDegrees>
            </Position>
            <AltitudeMeters>1062.4000244140625</AltitudeMeters>
            <DistanceMeters>NAN</DistanceMeters>
          </Trackpoint>
          <Trackpoint>
            <Time>2021-04-04T09:15:13.000Z</Time>
            <Position>
              <LatitudeDegrees>42.3446393944323062896728515625</LatitudeDegrees>
              <LongitudeDegrees>2.4106948636472225189208984375</LongitudeDegrees>
            </Position>
            <AltitudeMeters>1061.5999755859375</AltitudeMeters>
            <DistanceMeters>NAN</DistanceMeters>
          </Trackpoint>
          <Trackpoint>
            <Time>2021-04-04T09:15:18.000Z</Time>
            <Position>
              <LatitudeDegrees>42.3446769453585147857666015625</LatitudeDegrees>
              <LongitudeDegrees>2.41064750589430332183837890625</LongitudeDegrees>
            </Position>
            <AltitudeMeters>1061</AltitudeMeters>
            <DistanceMeters>NAN</DistanceMeters>
          </Trackpoint>
          <Trackpoint>
            <Time>2021-04-04T09:15:20.000Z</Time>
            <Position>
              <LatitudeDegrees>42.34469496645033359527587890625</LatitudeDegrees>
              <LongitudeDegrees>2.410620935261249542236328125</LongitudeDegrees>
            </Position>
            <AltitudeMeters>1060.5999755859375</AltitudeMeters>
            <DistanceMeters>NAN</DistanceMeters>
          </Trackpoint>
          <Trackpoint>
            <Time>2021-04-04T09:15:25.000Z</Time>
            <Position>
              <LatitudeDegrees>42.34473637305200099945068359375</LatitudeDegrees>
              <LongitudeDegrees>2.41058514453470706939697265625</LongitudeDegrees>
            </Position>
            <AltitudeMeters>1059.5999755859375</AltitudeMeters>
            <DistanceMeters>NAN</DistanceMeters>
          </Trackpoint>
          <Trackpoint>
            <Time>2021-04-04T09:15:27.000Z</Time>
            <Position>
              <LatitudeDegrees>42.34475565142929553985595703125</LatitudeDegrees>
              <LongitudeDegrees>2.41057433187961578369140625</LongitudeDegrees>
            </Position>
            <AltitudeMeters>1059.4000244140625</AltitudeMeters>
            <DistanceMeters>NAN</DistanceMeters>
          </Trackpoint>
          <Trackpoint>
            <Time>2021-04-04T09:15:33.000Z</Time>
            <Position>
              <LatitudeDegrees>42.344800494611263275146484375</LatitudeDegrees>
              <LongitudeDegrees>2.41053217090666294097900390625</LongitudeDegrees>
            </Position>
            <AltitudeMeters>1058.5999755859375</AltitudeMeters>
            <DistanceMeters>NAN</DistanceMeters>
          </Trackpoint>
          <Trackpoint>
            <Time>2021-04-04T09:15:36.000Z</Time>
            <Position>
              <LatitudeDegrees>42.34481700696051120758056640625</LatitudeDegrees>
              <LongitudeDegrees>2.4105044268071651458740234375</LongitudeDegrees>
            </Position>
            <AltitudeMeters>1058.199951171875</AltitudeMeters>
            <DistanceMeters>NAN</DistanceMeters>
          </Trackpoint>
          <Trackpoint>
            <Time>2021-04-04T09:15:37.000Z</Time>
            <Position>
              <LatitudeDegrees>42.34482421539723873138427734375</LatitudeDegrees>
              <LongitudeDegrees>2.4104945361614227294921875</LongitudeDegrees>
            </Position>
            <AltitudeMeters>1058.199951171875</AltitudeMeters>
            <DistanceMeters>NAN</DistanceMeters>
          </Trackpoint>
          <Trackpoint>
            <Time>2021-04-04T09:15:41.000Z</Time>
            <Position>
              <LatitudeDegrees>42.34483745880424976348876953125</LatitudeDegrees>
              <LongitudeDegrees>2.41045455448329448699951171875</LongitudeDegrees>
            </Position>
            <AltitudeMeters>1057.4000244140625</AltitudeMeters>
            <DistanceMeters>NAN</DistanceMeters>
          </Trackpoint>
          <Trackpoint>
            <Time>2021-04-04T09:15:43.000Z</Time>
            <Position>
              <LatitudeDegrees>42.344851791858673095703125</LatitudeDegrees>
              <LongitudeDegrees>2.41043619811534881591796875</LongitudeDegrees>
            </Position>
            <AltitudeMeters>1057</AltitudeMeters>
            <DistanceMeters>NAN</DistanceMeters>
          </Trackpoint>
          <Trackpoint>
            <Time>2021-04-04T09:15:46.000Z</Time>
            <Position>
              <LatitudeDegrees>42.344889007508754730224609375</LatitudeDegrees>
              <LongitudeDegrees>2.41041147150099277496337890625</LongitudeDegrees>
            </Position>
            <AltitudeMeters>1056.5999755859375</AltitudeMeters>
            <DistanceMeters>NAN</DistanceMeters>
          </Trackpoint>
          <Trackpoint>
            <Time>2021-04-04T09:15:47.000Z</Time>
            <Position>
              <LatitudeDegrees>42.34489445574581623077392578125</LatitudeDegrees>
              <LongitudeDegrees>2.41039873100817203521728515625</LongitudeDegrees>
            </Position>
            <AltitudeMeters>1056.5999755859375</AltitudeMeters>
            <DistanceMeters>NAN</DistanceMeters>
          </Trackpoint>
          <Trackpoint>
            <Time>2021-04-04T09:15:49.000Z</Time>
            <Position>
              <LatitudeDegrees>42.3449022509157657623291015625</LatitudeDegrees>
              <LongitudeDegrees>2.4103639461100101470947265625</LongitudeDegrees>
            </Position>
            <AltitudeMeters>1056.4000244140625</AltitudeMeters>
            <DistanceMeters>NAN</DistanceMeters>
          </Trackpoint>
          <Trackpoint>
            <Time>2021-04-04T09:15:50.000Z</Time>
            <Position>
              <LatitudeDegrees>42.344915829598903656005859375</LatitudeDegrees>
              <LongitudeDegrees>2.4103545583784580230712890625</LongitudeDegrees>
            </Position>
            <AltitudeMeters>1056.199951171875</AltitudeMeters>
            <DistanceMeters>NAN</DistanceMeters>
          </Trackpoint>
          <Trackpoint>
            <Time>2021-04-04T09:15:52.000Z</Time>
            <Position>
              <LatitudeDegrees>42.34493653289973735809326171875</LatitudeDegrees>
              <LongitudeDegrees>2.41035380400717258453369140625</LongitudeDegrees>
            </Position>
            <AltitudeMeters>1056</AltitudeMeters>
            <DistanceMeters>NAN</DistanceMeters>
          </Trackpoint>
          <Trackpoint>
            <Time>2021-04-04T09:15:56.000Z</Time>
            <Position>
              <LatitudeDegrees>42.3449686355888843536376953125</LatitudeDegrees>
              <LongitudeDegrees>2.410315163433551788330078125</LongitudeDegrees>
            </Position>
            <AltitudeMeters>1055.5999755859375</AltitudeMeters>
            <DistanceMeters>NAN</DistanceMeters>
          </Trackpoint>
          <Trackpoint>
            <Time>2021-04-04T09:15:59.000Z</Time>
            <Position>
              <LatitudeDegrees>42.34499168582260608673095703125</LatitudeDegrees>
              <LongitudeDegrees>2.4102851562201976776123046875</LongitudeDegrees>
            </Position>
            <AltitudeMeters>1055.199951171875</AltitudeMeters>
            <DistanceMeters>NAN</DistanceMeters>
          </Trackpoint>
          <Trackpoint>
            <Time>2021-04-04T09:16:05.000Z</Time>
            <Position>
              <LatitudeDegrees>42.3450537957251071929931640625</LatitudeDegrees>
              <LongitudeDegrees>2.41020527668297290802001953125</LongitudeDegrees>
            </Position>
            <AltitudeMeters>1054.800048828125</AltitudeMeters>
            <DistanceMeters>NAN</DistanceMeters>
          </Trackpoint>
          <Trackpoint>
            <Time>2021-04-04T09:16:11.000Z</Time>
            <Position>
              <LatitudeDegrees>42.3450993932783603668212890625</LatitudeDegrees>
              <LongitudeDegrees>2.41014408878982067108154296875</LongitudeDegrees>
            </Position>
            <AltitudeMeters>1054</AltitudeMeters>
            <DistanceMeters>NAN</DistanceMeters>
          </Trackpoint>
          <Trackpoint>
            <Time>2021-04-04T09:16:16.000Z</Time>
            <Position>
              <LatitudeDegrees>42.345104925334453582763671875</LatitudeDegrees>
              <LongitudeDegrees>2.4100984074175357818603515625</LongitudeDegrees>
            </Position>
            <AltitudeMeters>1053.199951171875</AltitudeMeters>
            <DistanceMeters>NAN</DistanceMeters>
          </Trackpoint>
          <Trackpoint>
            <Time>2021-04-04T09:16:18.000Z</Time>
            <Position>
              <LatitudeDegrees>42.3450960405170917510986328125</LatitudeDegrees>
              <LongitudeDegrees>2.4101037718355655670166015625</LongitudeDegrees>
            </Position>
            <AltitudeMeters>1053</AltitudeMeters>
            <DistanceMeters>NAN</DistanceMeters>
          </Trackpoint>
          <Trackpoint>
            <Time>2021-04-04T09:16:21.000Z</Time>
            <Position>
              <LatitudeDegrees>42.3450651951134204864501953125</LatitudeDegrees>
              <LongitudeDegrees>2.41010854952037334442138671875</LongitudeDegrees>
            </Position>
            <AltitudeMeters>1052.5999755859375</AltitudeMeters>
            <DistanceMeters>NAN</DistanceMeters>
          </Trackpoint>
          <Trackpoint>
            <Time>2021-04-04T09:16:22.000Z</Time>
            <Position>
              <LatitudeDegrees>42.34505974687635898590087890625</LatitudeDegrees>
              <LongitudeDegrees>2.41012045182287693023681640625</LongitudeDegrees>
            </Position>
            <AltitudeMeters>1052.4000244140625</AltitudeMeters>
            <DistanceMeters>NAN</DistanceMeters>
          </Trackpoint>
          <Trackpoint>
            <Time>2021-04-04T09:16:24.000Z</Time>
            <Position>
              <LatitudeDegrees>42.34504650346934795379638671875</LatitudeDegrees>
              <LongitudeDegrees>2.41013721562922000885009765625</LongitudeDegrees>
            </Position>
            <AltitudeMeters>1052.199951171875</AltitudeMeters>
            <DistanceMeters>NAN</DistanceMeters>
          </Trackpoint>
          <Trackpoint>
            <Time>2021-04-04T09:16:27.000Z</Time>
            <Position>
              <LatitudeDegrees>42.3450256325304508209228515625</LatitudeDegrees>
              <LongitudeDegrees>2.4101657979190349578857421875</LongitudeDegrees>
            </Position>
            <AltitudeMeters>1052</AltitudeMeters>
            <DistanceMeters>NAN</DistanceMeters>
          </Trackpoint>
          <Trackpoint>
            <Time>2021-04-04T09:16:29.000Z</Time>
            <Position>
              <LatitudeDegrees>42.3450085334479808807373046875</LatitudeDegrees>
              <LongitudeDegrees>2.41017979569733142852783203125</LongitudeDegrees>
            </Position>
            <AltitudeMeters>1051.5999755859375</AltitudeMeters>
            <DistanceMeters>NAN</DistanceMeters>
          </Trackpoint>
          <Trackpoint>
            <Time>2021-04-04T09:16:30.000Z</Time>
            <Position>
              <LatitudeDegrees>42.34500140883028507232666015625</LatitudeDegrees>
              <LongitudeDegrees>2.41018767468631267547607421875</LongitudeDegrees>
            </Position>
            <AltitudeMeters>1051.199951171875</AltitudeMeters>
            <DistanceMeters>NAN</DistanceMeters>
          </Trackpoint>
          <Trackpoint>
            <Time>2021-04-04T09:16:33.000Z</Time>
            <Position>
              <LatitudeDegrees>42.34499394893646240234375</LatitudeDegrees>
              <LongitudeDegrees>2.41020075045526027679443359375</LongitudeDegrees>
            </Position>
            <AltitudeMeters>1050.5999755859375</AltitudeMeters>
            <DistanceMeters>NAN</DistanceMeters>
          </Trackpoint>
          <Trackpoint>
            <Time>2021-04-04T09:16:34.000Z</Time>
            <Position>
              <LatitudeDegrees>42.34498933888971805572509765625</LatitudeDegrees>
              <LongitudeDegrees>2.41020712070167064666748046875</LongitudeDegrees>
            </Position>
            <AltitudeMeters>1050.4000244140625</AltitudeMeters>
            <DistanceMeters>NAN</DistanceMeters>
          </Trackpoint>
          <Trackpoint>
            <Time>2021-04-04T09:16:36.000Z</Time>
            <Position>
              <LatitudeDegrees>42.34497391618788242340087890625</LatitudeDegrees>
              <LongitudeDegrees>2.4102221243083477020263671875</LongitudeDegrees>
            </Position>
            <AltitudeMeters>1049.5999755859375</AltitudeMeters>
            <DistanceMeters>NAN</DistanceMeters>
          </Trackpoint>
          <Trackpoint>
            <Time>2021-04-04T09:16:37.000Z</Time>
            <Position>
              <LatitudeDegrees>42.34496385790407657623291015625</LatitudeDegrees>
              <LongitudeDegrees>2.41023830138146877288818359375</LongitudeDegrees>
            </Position>
            <AltitudeMeters>1049.4000244140625</AltitudeMeters>
            <DistanceMeters>NAN</DistanceMeters>
          </Trackpoint>
          <Trackpoint>
            <Time>2021-04-04T09:16:43.000Z</Time>
            <Position>
              <LatitudeDegrees>42.3449210263788700103759765625</LatitudeDegrees>
              <LongitudeDegrees>2.4102866649627685546875</LongitudeDegrees>
            </Position>
            <AltitudeMeters>1048.5999755859375</AltitudeMeters>
            <DistanceMeters>NAN</DistanceMeters>
          </Trackpoint>
          <Trackpoint>
            <Time>2021-04-04T09:16:47.000Z</Time>
            <Position>
              <LatitudeDegrees>42.344893030822277069091796875</LatitudeDegrees>
              <LongitudeDegrees>2.41028825752437114715576171875</LongitudeDegrees>
            </Position>
            <AltitudeMeters>1048.199951171875</AltitudeMeters>
            <DistanceMeters>NAN</DistanceMeters>
          </Trackpoint>
          <Trackpoint>
            <Time>2021-04-04T09:16:48.000Z</Time>
            <Position>
              <LatitudeDegrees>42.34488523565232753753662109375</LatitudeDegrees>
              <LongitudeDegrees>2.41029177792370319366455078125</LongitudeDegrees>
            </Position>
            <AltitudeMeters>1048.199951171875</AltitudeMeters>
            <DistanceMeters>NAN</DistanceMeters>
          </Trackpoint>
          <Trackpoint>
            <Time>2021-04-04T09:16:49.000Z</Time>
            <Position>
              <LatitudeDegrees>42.344876267015933990478515625</LatitudeDegrees>
              <LongitudeDegrees>2.4102898500859737396240234375</LongitudeDegrees>
            </Position>
            <AltitudeMeters>1048</AltitudeMeters>
            <DistanceMeters>NAN</DistanceMeters>
          </Trackpoint>
          <Trackpoint>
            <Time>2021-04-04T09:16:53.000Z</Time>
            <Position>
              <LatitudeDegrees>42.344836704432964324951171875</LatitudeDegrees>
              <LongitudeDegrees>2.41030636243522167205810546875</LongitudeDegrees>
            </Position>
            <AltitudeMeters>1047.5999755859375</AltitudeMeters>
            <DistanceMeters>NAN</DistanceMeters>
          </Trackpoint>
          <Trackpoint>
            <Time>2021-04-04T09:16:56.000Z</Time>
            <Position>
              <LatitudeDegrees>42.34480208717286586761474609375</LatitudeDegrees>
              <LongitudeDegrees>2.41033435799181461334228515625</LongitudeDegrees>
            </Position>
            <AltitudeMeters>1047.199951171875</AltitudeMeters>
            <DistanceMeters>NAN</DistanceMeters>
          </Trackpoint>
          <Trackpoint>
            <Time>2021-04-04T09:16:57.000Z</Time>
            <Position>
              <LatitudeDegrees>42.3447895981371402740478515625</LatitudeDegrees>
              <LongitudeDegrees>2.41034567356109619140625</LongitudeDegrees>
            </Position>
            <AltitudeMeters>1047.199951171875</AltitudeMeters>
            <DistanceMeters>NAN</DistanceMeters>
          </Trackpoint>
          <Trackpoint>
            <Time>2021-04-04T09:17:01.000Z</Time>
            <Position>
              <LatitudeDegrees>42.344751544296741485595703125</LatitudeDegrees>
              <LongitudeDegrees>2.4103830568492412567138671875</LongitudeDegrees>
            </Position>
            <AltitudeMeters>1046.800048828125</AltitudeMeters>
            <DistanceMeters>NAN</DistanceMeters>
          </Trackpoint>
          <Trackpoint>
            <Time>2021-04-04T09:17:03.000Z</Time>
            <Position>
              <LatitudeDegrees>42.34473905526101589202880859375</LatitudeDegrees>
              <LongitudeDegrees>2.41039906628429889678955078125</LongitudeDegrees>
            </Position>
            <AltitudeMeters>1046.5999755859375</AltitudeMeters>
            <DistanceMeters>NAN</DistanceMeters>
          </Trackpoint>
          <Trackpoint>
            <Time>2021-04-04T09:17:04.000Z</Time>
            <Position>
              <LatitudeDegrees>42.344736121594905853271484375</LatitudeDegrees>
              <LongitudeDegrees>2.41040359251201152801513671875</LongitudeDegrees>
            </Position>
            <AltitudeMeters>1046.4000244140625</AltitudeMeters>
            <DistanceMeters>NAN</DistanceMeters>
          </Trackpoint>
          <Trackpoint>
            <Time>2021-04-04T09:17:07.000Z</Time>
            <Position>
              <LatitudeDegrees>42.34472212381660938262939453125</LatitudeDegrees>
              <LongitudeDegrees>2.41043192334473133087158203125</LongitudeDegrees>
            </Position>
            <AltitudeMeters>1046.199951171875</AltitudeMeters>
            <DistanceMeters>NAN</DistanceMeters>
          </Trackpoint>
          <Trackpoint>
            <Time>2021-04-04T09:17:09.000Z</Time>
            <Position>
              <LatitudeDegrees>42.34471038915216922760009765625</LatitudeDegrees>
              <LongitudeDegrees>2.4104470945894718170166015625</LongitudeDegrees>
            </Position>
            <AltitudeMeters>1045.800048828125</AltitudeMeters>
            <DistanceMeters>NAN</DistanceMeters>
          </Trackpoint>
          <Trackpoint>
            <Time>2021-04-04T09:17:10.000Z</Time>
            <Position>
              <LatitudeDegrees>42.344685159623622894287109375</LatitudeDegrees>
              <LongitudeDegrees>2.4104544706642627716064453125</LongitudeDegrees>
            </Position>
            <AltitudeMeters>1045.5999755859375</AltitudeMeters>
            <DistanceMeters>NAN</DistanceMeters>
          </Trackpoint>
          <Trackpoint>
            <Time>2021-04-04T09:17:11.000Z</Time>
            <Position>
              <LatitudeDegrees>42.344669066369533538818359375</LatitudeDegrees>
              <LongitudeDegrees>2.4104730784893035888671875</LongitudeDegrees>
            </Position>
            <AltitudeMeters>1045.4000244140625</AltitudeMeters>
            <DistanceMeters>NAN</DistanceMeters>
          </Trackpoint>
          <Trackpoint>
            <Time>2021-04-04T09:17:12.000Z</Time>
            <Position>
              <LatitudeDegrees>42.34465708024799823760986328125</LatitudeDegrees>
              <LongitudeDegrees>2.41049629636108875274658203125</LongitudeDegrees>
            </Position>
            <AltitudeMeters>1045.4000244140625</AltitudeMeters>
            <DistanceMeters>NAN</DistanceMeters>
          </Trackpoint>
          <Trackpoint>
            <Time>2021-04-04T09:17:13.000Z</Time>
            <Position>
              <LatitudeDegrees>42.34465322457253932952880859375</LatitudeDegrees>
              <LongitudeDegrees>2.4105067737400531768798828125</LongitudeDegrees>
            </Position>
            <AltitudeMeters>1045.199951171875</AltitudeMeters>
            <DistanceMeters>NAN</DistanceMeters>
          </Trackpoint>
          <Trackpoint>
            <Time>2021-04-04T09:17:15.000Z</Time>
            <Position>
              <LatitudeDegrees>42.34465188346803188323974609375</LatitudeDegrees>
              <LongitudeDegrees>2.41052730940282344818115234375</LongitudeDegrees>
            </Position>
            <AltitudeMeters>1045</AltitudeMeters>
            <DistanceMeters>NAN</DistanceMeters>
          </Trackpoint>
          <Trackpoint>
            <Time>2021-04-04T09:17:20.000Z</Time>
            <Position>
              <LatitudeDegrees>42.3445951379835605621337890625</LatitudeDegrees>
              <LongitudeDegrees>2.4105426482856273651123046875</LongitudeDegrees>
            </Position>
            <AltitudeMeters>1044</AltitudeMeters>
            <DistanceMeters>NAN</DistanceMeters>
          </Trackpoint>
          <Trackpoint>
            <Time>2021-04-04T09:17:21.000Z</Time>
            <Position>
              <LatitudeDegrees>42.3445850796997547149658203125</LatitudeDegrees>
              <LongitudeDegrees>2.41055513732135295867919921875</LongitudeDegrees>
            </Position>
            <AltitudeMeters>1044</AltitudeMeters>
            <DistanceMeters>NAN</DistanceMeters>
          </Trackpoint>
          <Trackpoint>
            <Time>2021-04-04T09:17:23.000Z</Time>
            <Position>
              <LatitudeDegrees>42.344576530158519744873046875</LatitudeDegrees>
              <LongitudeDegrees>2.4105617590248584747314453125</LongitudeDegrees>
            </Position>
            <AltitudeMeters>1043.5999755859375</AltitudeMeters>
            <DistanceMeters>NAN</DistanceMeters>
          </Trackpoint>
          <Trackpoint>
            <Time>2021-04-04T09:17:25.000Z</Time>
            <Position>
              <LatitudeDegrees>42.34457979910075664520263671875</LatitudeDegrees>
              <LongitudeDegrees>2.4105513654649257659912109375</LongitudeDegrees>
            </Position>
            <AltitudeMeters>1043.4000244140625</AltitudeMeters>
            <DistanceMeters>NAN</DistanceMeters>
          </Trackpoint>
          <Trackpoint>
            <Time>2021-04-04T09:17:27.000Z</Time>
            <Position>
              <LatitudeDegrees>42.34458901919424533843994140625</LatitudeDegrees>
              <LongitudeDegrees>2.4105235375463962554931640625</LongitudeDegrees>
            </Position>
            <AltitudeMeters>1043</AltitudeMeters>
            <DistanceMeters>NAN</DistanceMeters>
          </Trackpoint>
          <Trackpoint>
            <Time>2021-04-04T09:17:29.000Z</Time>
            <Position>
              <LatitudeDegrees>42.344595305621623992919921875</LatitudeDegrees>
              <LongitudeDegrees>2.41048716008663177490234375</LongitudeDegrees>
            </Position>
            <AltitudeMeters>1042.800048828125</AltitudeMeters>
            <DistanceMeters>NAN</DistanceMeters>
          </Trackpoint>
          <Trackpoint>
            <Time>2021-04-04T09:17:31.000Z</Time>
            <Position>
              <LatitudeDegrees>42.3445983231067657470703125</LatitudeDegrees>
              <LongitudeDegrees>2.4104645289480686187744140625</LongitudeDegrees>
            </Position>
            <AltitudeMeters>1042</AltitudeMeters>
            <DistanceMeters>NAN</DistanceMeters>
          </Trackpoint>
          <Trackpoint>
            <Time>2021-04-04T09:17:32.000Z</Time>
            <Position>
              <LatitudeDegrees>42.34459907747805118560791015625</LatitudeDegrees>
              <LongitudeDegrees>2.41045338101685047149658203125</LongitudeDegrees>
            </Position>
            <AltitudeMeters>1041.800048828125</AltitudeMeters>
            <DistanceMeters>NAN</DistanceMeters>
          </Trackpoint>
          <Trackpoint>
            <Time>2021-04-04T09:17:35.000Z</Time>
            <Position>
              <LatitudeDegrees>42.34461081214249134063720703125</LatitudeDegrees>
              <LongitudeDegrees>2.41041071712970733642578125</LongitudeDegrees>
            </Position>
            <AltitudeMeters>1041.4000244140625</AltitudeMeters>
            <DistanceMeters>NAN</DistanceMeters>
          </Trackpoint>
          <Trackpoint>
            <Time>2021-04-04T09:17:40.000Z</Time>
            <Position>
              <LatitudeDegrees>42.34463612549006938934326171875</LatitudeDegrees>
              <LongitudeDegrees>2.410374842584133148193359375</LongitudeDegrees>
            </Position>
            <AltitudeMeters>1040.5999755859375</AltitudeMeters>
            <DistanceMeters>NAN</DistanceMeters>
          </Trackpoint>
          <Trackpoint>
            <Time>2021-04-04T09:17:41.000Z</Time>
            <Position>
              <LatitudeDegrees>42.34463897533714771270751953125</LatitudeDegrees>
              <LongitudeDegrees>2.4103699810802936553955078125</LongitudeDegrees>
            </Position>
            <AltitudeMeters>1040.4000244140625</AltitudeMeters>
            <DistanceMeters>NAN</DistanceMeters>
          </Trackpoint>
          <Trackpoint>
            <Time>2021-04-04T09:17:42.000Z</Time>
            <Position>
              <LatitudeDegrees>42.34464333392679691314697265625</LatitudeDegrees>
              <LongitudeDegrees>2.4103656224906444549560546875</LongitudeDegrees>
            </Position>
            <AltitudeMeters>1040.199951171875</AltitudeMeters>
            <DistanceMeters>NAN</DistanceMeters>
          </Trackpoint>
          <Trackpoint>
            <Time>2021-04-04T09:17:46.000Z</Time>
            <Position>
              <LatitudeDegrees>42.3446551524102687835693359375</LatitudeDegrees>
              <LongitudeDegrees>2.410321533679962158203125</LongitudeDegrees>
            </Position>
            <AltitudeMeters>1039.800048828125</AltitudeMeters>
            <DistanceMeters>NAN</DistanceMeters>
          </Trackpoint>
          <Trackpoint>
            <Time>2021-04-04T09:17:47.000Z</Time>
            <Position>
              <LatitudeDegrees>42.344658672809600830078125</LatitudeDegrees>
              <LongitudeDegrees>2.41031281650066375732421875</LongitudeDegrees>
            </Position>
            <AltitudeMeters>1039.5999755859375</AltitudeMeters>
            <DistanceMeters>NAN</DistanceMeters>
          </Trackpoint>
          <Trackpoint>
            <Time>2021-04-04T09:17:48.000Z</Time>
            <Position>
              <LatitudeDegrees>42.34466428868472576141357421875</LatitudeDegrees>
              <LongitudeDegrees>2.41030200384557247161865234375</LongitudeDegrees>
            </Position>
            <AltitudeMeters>1039.5999755859375</AltitudeMeters>
            <DistanceMeters>NAN</DistanceMeters>
          </Trackpoint>
          <Trackpoint>
            <Time>2021-04-04T09:17:50.000Z</Time>
            <Position>
              <LatitudeDegrees>42.344661690294742584228515625</LatitudeDegrees>
              <LongitudeDegrees>2.41026244126260280609130859375</LongitudeDegrees>
            </Position>
            <AltitudeMeters>1039.4000244140625</AltitudeMeters>
            <DistanceMeters>NAN</DistanceMeters>
          </Trackpoint>
          <Trackpoint>
            <Time>2021-04-04T09:17:54.000Z</Time>
            <Position>
              <LatitudeDegrees>42.34467015601694583892822265625</LatitudeDegrees>
              <LongitudeDegrees>2.4101963080465793609619140625</LongitudeDegrees>
            </Position>
            <AltitudeMeters>1039.199951171875</AltitudeMeters>
            <DistanceMeters>NAN</DistanceMeters>
          </Trackpoint>
          <Trackpoint>
            <Time>2021-04-04T09:17:57.000Z</Time>
            <Position>
              <LatitudeDegrees>42.34468105249106884002685546875</LatitudeDegrees>
              <LongitudeDegrees>2.41015180014073848724365234375</LongitudeDegrees>
            </Position>
            <AltitudeMeters>1038.800048828125</AltitudeMeters>
            <DistanceMeters>NAN</DistanceMeters>
          </Trackpoint>
          <Trackpoint>
            <Time>2021-04-04T09:18:01.000Z</Time>
            <Position>
              <LatitudeDegrees>42.34468155540525913238525390625</LatitudeDegrees>
              <LongitudeDegrees>2.4100883491337299346923828125</LongitudeDegrees>
            </Position>
            <AltitudeMeters>1038.5999755859375</AltitudeMeters>
            <DistanceMeters>NAN</DistanceMeters>
          </Trackpoint>
          <Trackpoint>
            <Time>2021-04-04T09:18:04.000Z</Time>
            <Position>
              <LatitudeDegrees>42.34466462396085262298583984375</LatitudeDegrees>
              <LongitudeDegrees>2.41003948263823986053466796875</LongitudeDegrees>
            </Position>
            <AltitudeMeters>1038.5999755859375</AltitudeMeters>
            <DistanceMeters>NAN</DistanceMeters>
          </Trackpoint>
          <Trackpoint>
            <Time>2021-04-04T09:18:12.000Z</Time>
            <Position>
              <LatitudeDegrees>42.3445850796997547149658203125</LatitudeDegrees>
              <LongitudeDegrees>2.410038225352764129638671875</LongitudeDegrees>
            </Position>
            <AltitudeMeters>1038.4000244140625</AltitudeMeters>
            <DistanceMeters>NAN</DistanceMeters>
          </Trackpoint>
          <Trackpoint>
            <Time>2021-04-04T09:18:17.000Z</Time>
            <Position>
              <LatitudeDegrees>42.34452699311077594757080078125</LatitudeDegrees>
              <LongitudeDegrees>2.41002623923122882843017578125</LongitudeDegrees>
            </Position>
            <AltitudeMeters>1037.4000244140625</AltitudeMeters>
            <DistanceMeters>NAN</DistanceMeters>
          </Trackpoint>
          <Trackpoint>
            <Time>2021-04-04T09:18:18.000Z</Time>
            <Position>
              <LatitudeDegrees>42.34451316297054290771484375</LatitudeDegrees>
              <LongitudeDegrees>2.4100259877741336822509765625</LongitudeDegrees>
            </Position>
            <AltitudeMeters>1037.199951171875</AltitudeMeters>
            <DistanceMeters>NAN</DistanceMeters>
          </Trackpoint>
          <Trackpoint>
            <Time>2021-04-04T09:18:23.000Z</Time>
            <Position>
              <LatitudeDegrees>42.3444660566747188568115234375</LatitudeDegrees>
              <LongitudeDegrees>2.410027496516704559326171875</LongitudeDegrees>
            </Position>
            <AltitudeMeters>1036.4000244140625</AltitudeMeters>
            <DistanceMeters>NAN</DistanceMeters>
          </Trackpoint>
          <Trackpoint>
            <Time>2021-04-04T09:18:25.000Z</Time>
            <Position>
              <LatitudeDegrees>42.34445507638156414031982421875</LatitudeDegrees>
              <LongitudeDegrees>2.41002355702221393585205078125</LongitudeDegrees>
            </Position>
            <AltitudeMeters>1036.199951171875</AltitudeMeters>
            <DistanceMeters>NAN</DistanceMeters>
          </Trackpoint>
          <Trackpoint>
            <Time>2021-04-04T09:18:32.000Z</Time>
            <Position>
              <LatitudeDegrees>42.34445909969508647918701171875</LatitudeDegrees>
              <LongitudeDegrees>2.40998181514441967010498046875</LongitudeDegrees>
            </Position>
            <AltitudeMeters>1036</AltitudeMeters>
            <DistanceMeters>NAN</DistanceMeters>
          </Trackpoint>
          <Trackpoint>
            <Time>2021-04-04T09:18:36.000Z</Time>
            <Position>
              <LatitudeDegrees>42.3444580100476741790771484375</LatitudeDegrees>
              <LongitudeDegrees>2.40998215042054653167724609375</LongitudeDegrees>
            </Position>
            <AltitudeMeters>1036</AltitudeMeters>
            <DistanceMeters>NAN</DistanceMeters>
          </Trackpoint>
          <Trackpoint>
            <Time>2021-04-04T09:18:38.000Z</Time>
            <Position>
              <LatitudeDegrees>42.34447234310209751129150390625</LatitudeDegrees>
              <LongitudeDegrees>2.40997142158448696136474609375</LongitudeDegrees>
            </Position>
            <AltitudeMeters>1035.800048828125</AltitudeMeters>
            <DistanceMeters>NAN</DistanceMeters>
          </Trackpoint>
          <Trackpoint>
            <Time>2021-04-04T09:18:42.000Z</Time>
            <Position>
              <LatitudeDegrees>42.34450704418122768402099609375</LatitudeDegrees>
              <LongitudeDegrees>2.40992867387831211090087890625</LongitudeDegrees>
            </Position>
            <AltitudeMeters>1035.800048828125</AltitudeMeters>
            <DistanceMeters>NAN</DistanceMeters>
          </Trackpoint>
          <Trackpoint>
            <Time>2021-04-04T09:18:44.000Z</Time>
            <Position>
              <LatitudeDegrees>42.34452011995017528533935546875</LatitudeDegrees>
              <LongitudeDegrees>2.4099170230329036712646484375</LongitudeDegrees>
            </Position>
            <AltitudeMeters>1036</AltitudeMeters>
            <DistanceMeters>NAN</DistanceMeters>
          </Trackpoint>
          <Trackpoint>
            <Time>2021-04-04T09:18:45.000Z</Time>
            <Position>
              <LatitudeDegrees>42.3445294238626956939697265625</LatitudeDegrees>
              <LongitudeDegrees>2.40990704856812953948974609375</LongitudeDegrees>
            </Position>
            <AltitudeMeters>1036</AltitudeMeters>
            <DistanceMeters>NAN</DistanceMeters>
          </Trackpoint>
          <Trackpoint>
            <Time>2021-04-04T09:18:47.000Z</Time>
            <Position>
              <LatitudeDegrees>42.34454509802162647247314453125</LatitudeDegrees>
              <LongitudeDegrees>2.4098871834576129913330078125</LongitudeDegrees>
            </Position>
            <AltitudeMeters>1036.199951171875</AltitudeMeters>
            <DistanceMeters>NAN</DistanceMeters>
          </Trackpoint>
          <Trackpoint>
            <Time>2021-04-04T09:18:50.000Z</Time>
            <Position>
              <LatitudeDegrees>42.34457963146269321441650390625</LatitudeDegrees>
              <LongitudeDegrees>2.409849464893341064453125</LongitudeDegrees>
            </Position>
            <AltitudeMeters>1036.4000244140625</AltitudeMeters>
            <DistanceMeters>NAN</DistanceMeters>
          </Trackpoint>
          <Trackpoint>
            <Time>2021-04-04T09:18:52.000Z</Time>
            <Position>
              <LatitudeDegrees>42.34459874220192432403564453125</LatitudeDegrees>
              <LongitudeDegrees>2.4098281748592853546142578125</LongitudeDegrees>
            </Position>
            <AltitudeMeters>1036.4000244140625</AltitudeMeters>
            <DistanceMeters>NAN</DistanceMeters>
          </Trackpoint>
          <Trackpoint>
            <Time>2021-04-04T09:18:56.000Z</Time>
            <Position>
              <LatitudeDegrees>42.344637215137481689453125</LatitudeDegrees>
              <LongitudeDegrees>2.40978551097214221954345703125</LongitudeDegrees>
            </Position>
            <AltitudeMeters>1036.5999755859375</AltitudeMeters>
            <DistanceMeters>NAN</DistanceMeters>
          </Trackpoint>
          <Trackpoint>
            <Time>2021-04-04T09:18:58.000Z</Time>
            <Position>
              <LatitudeDegrees>42.344648279249668121337890625</LatitudeDegrees>
              <LongitudeDegrees>2.409764640033245086669921875</LongitudeDegrees>
            </Position>
            <AltitudeMeters>1036.5999755859375</AltitudeMeters>
            <DistanceMeters>NAN</DistanceMeters>
          </Trackpoint>
          <Trackpoint>
            <Time>2021-04-04T09:19:01.000Z</Time>
            <Position>
              <LatitudeDegrees>42.3446667194366455078125</LatitudeDegrees>
              <LongitudeDegrees>2.40973052568733692169189453125</LongitudeDegrees>
            </Position>
            <AltitudeMeters>1036.800048828125</AltitudeMeters>
            <DistanceMeters>NAN</DistanceMeters>
          </Trackpoint>
          <Trackpoint>
            <Time>2021-04-04T09:19:03.000Z</Time>
            <Position>
              <LatitudeDegrees>42.3446833156049251556396484375</LatitudeDegrees>
              <LongitudeDegrees>2.40970739163458347320556640625</LongitudeDegrees>
            </Position>
            <AltitudeMeters>1037.199951171875</AltitudeMeters>
            <DistanceMeters>NAN</DistanceMeters>
          </Trackpoint>
          <Trackpoint>
            <Time>2021-04-04T09:19:04.000Z</Time>
            <Position>
              <LatitudeDegrees>42.344689853489398956298828125</LatitudeDegrees>
              <LongitudeDegrees>2.40970035083591938018798828125</LongitudeDegrees>
            </Position>
            <AltitudeMeters>1037.199951171875</AltitudeMeters>
            <DistanceMeters>NAN</DistanceMeters>
          </Trackpoint>
          <Trackpoint>
            <Time>2021-04-04T09:19:07.000Z</Time>
            <Position>
              <LatitudeDegrees>42.34471608884632587432861328125</LatitudeDegrees>
              <LongitudeDegrees>2.40965693257749080657958984375</LongitudeDegrees>
            </Position>
            <AltitudeMeters>1037.4000244140625</AltitudeMeters>
            <DistanceMeters>NAN</DistanceMeters>
          </Trackpoint>
          <Trackpoint>
            <Time>2021-04-04T09:19:09.000Z</Time>
            <Position>
              <LatitudeDegrees>42.344732768833637237548828125</LatitudeDegrees>
              <LongitudeDegrees>2.40963757038116455078125</LongitudeDegrees>
            </Position>
            <AltitudeMeters>1037.5999755859375</AltitudeMeters>
            <DistanceMeters>NAN</DistanceMeters>
          </Trackpoint>
          <Trackpoint>
            <Time>2021-04-04T09:19:12.000Z</Time>
            <Position>
              <LatitudeDegrees>42.344764955341815948486328125</LatitudeDegrees>
              <LongitudeDegrees>2.4096000194549560546875</LongitudeDegrees>
            </Position>
            <AltitudeMeters>1037.5999755859375</AltitudeMeters>
            <DistanceMeters>NAN</DistanceMeters>
          </Trackpoint>
          <Trackpoint>
            <Time>2021-04-04T09:19:16.000Z</Time>
            <Position>
              <LatitudeDegrees>42.3448073677718639373779296875</LatitudeDegrees>
              <LongitudeDegrees>2.40958862006664276123046875</LongitudeDegrees>
            </Position>
            <AltitudeMeters>1037.800048828125</AltitudeMeters>
            <DistanceMeters>NAN</DistanceMeters>
          </Trackpoint>
          <Trackpoint>
            <Time>2021-04-04T09:19:19.000Z</Time>
            <Position>
              <LatitudeDegrees>42.34485447406768798828125</LatitudeDegrees>
              <LongitudeDegrees>2.40954327397048473358154296875</LongitudeDegrees>
            </Position>
            <AltitudeMeters>1037.800048828125</AltitudeMeters>
            <DistanceMeters>NAN</DistanceMeters>
          </Trackpoint>
          <Trackpoint>
            <Time>2021-04-04T09:19:22.000Z</Time>
            <Position>
              <LatitudeDegrees>42.34488758258521556854248046875</LatitudeDegrees>
              <LongitudeDegrees>2.40955316461622714996337890625</LongitudeDegrees>
            </Position>
            <AltitudeMeters>1037.4000244140625</AltitudeMeters>
            <DistanceMeters>NAN</DistanceMeters>
          </Trackpoint>
          <Trackpoint>
            <Time>2021-04-04T09:19:24.000Z</Time>
            <Position>
              <LatitudeDegrees>42.3449056036770343780517578125</LatitudeDegrees>
              <LongitudeDegrees>2.4095713533461093902587890625</LongitudeDegrees>
            </Position>
            <AltitudeMeters>1037</AltitudeMeters>
            <DistanceMeters>NAN</DistanceMeters>
          </Trackpoint>
          <Trackpoint>
            <Time>2021-04-04T09:19:27.000Z</Time>
            <Position>
              <LatitudeDegrees>42.344927899539470672607421875</LatitudeDegrees>
              <LongitudeDegrees>2.40957629866898059844970703125</LongitudeDegrees>
            </Position>
            <AltitudeMeters>1036.800048828125</AltitudeMeters>
            <DistanceMeters>NAN</DistanceMeters>
          </Trackpoint>
          <Trackpoint>
            <Time>2021-04-04T09:19:28.000Z</Time>
            <Position>
              <LatitudeDegrees>42.34493686817586421966552734375</LatitudeDegrees>
              <LongitudeDegrees>2.4095814116299152374267578125</LongitudeDegrees>
            </Position>
            <AltitudeMeters>1036.5999755859375</AltitudeMeters>
            <DistanceMeters>NAN</DistanceMeters>
          </Trackpoint>
          <Trackpoint>
            <Time>2021-04-04T09:19:30.000Z</Time>
            <Position>
              <LatitudeDegrees>42.34495899640023708343505859375</LatitudeDegrees>
              <LongitudeDegrees>2.4095840938389301300048828125</LongitudeDegrees>
            </Position>
            <AltitudeMeters>1036.5999755859375</AltitudeMeters>
            <DistanceMeters>NAN</DistanceMeters>
          </Trackpoint>
          <Trackpoint>
            <Time>2021-04-04T09:19:32.000Z</Time>
            <Position>
              <LatitudeDegrees>42.34498732723295688629150390625</LatitudeDegrees>
              <LongitudeDegrees>2.40958459675312042236328125</LongitudeDegrees>
            </Position>
            <AltitudeMeters>1036.4000244140625</AltitudeMeters>
            <DistanceMeters>NAN</DistanceMeters>
          </Trackpoint>
          <Trackpoint>
            <Time>2021-04-04T09:19:38.000Z</Time>
            <Position>
              <LatitudeDegrees>42.345057986676692962646484375</LatitudeDegrees>
              <LongitudeDegrees>2.4095971696078777313232421875</LongitudeDegrees>
            </Position>
            <AltitudeMeters>1035.800048828125</AltitudeMeters>
            <DistanceMeters>NAN</DistanceMeters>
          </Trackpoint>
          <Trackpoint>
            <Time>2021-04-04T09:19:46.000Z</Time>
            <Position>
              <LatitudeDegrees>42.34514289535582065582275390625</LatitudeDegrees>
              <LongitudeDegrees>2.4096209742128849029541015625</LongitudeDegrees>
            </Position>
            <AltitudeMeters>1035.800048828125</AltitudeMeters>
            <DistanceMeters>NAN</DistanceMeters>
          </Trackpoint>
          <Trackpoint>
            <Time>2021-04-04T09:19:52.000Z</Time>
            <Position>
              <LatitudeDegrees>42.3452244512736797332763671875</LatitudeDegrees>
              <LongitudeDegrees>2.40961410105228424072265625</LongitudeDegrees>
            </Position>
            <AltitudeMeters>1035.5999755859375</AltitudeMeters>
            <DistanceMeters>NAN</DistanceMeters>
          </Trackpoint>
          <Trackpoint>
            <Time>2021-04-04T09:19:53.000Z</Time>
            <Position>
              <LatitudeDegrees>42.345234341919422149658203125</LatitudeDegrees>
              <LongitudeDegrees>2.40961736999452114105224609375</LongitudeDegrees>
            </Position>
            <AltitudeMeters>1035.800048828125</AltitudeMeters>
            <DistanceMeters>NAN</DistanceMeters>
          </Trackpoint>
          <Trackpoint>
            <Time>2021-04-04T09:20:05.000Z</Time>
            <Position>
              <LatitudeDegrees>42.34534137882292270660400390625</LatitudeDegrees>
              <LongitudeDegrees>2.4096296913921833038330078125</LongitudeDegrees>
            </Position>
            <AltitudeMeters>1035.800048828125</AltitudeMeters>
            <DistanceMeters>NAN</DistanceMeters>
          </Trackpoint>
          <Trackpoint>
            <Time>2021-04-04T09:20:08.000Z</Time>
            <Position>
              <LatitudeDegrees>42.3453733138740062713623046875</LatitudeDegrees>
              <LongitudeDegrees>2.409633211791515350341796875</LongitudeDegrees>
            </Position>
            <AltitudeMeters>1035.800048828125</AltitudeMeters>
            <DistanceMeters>NAN</DistanceMeters>
          </Trackpoint>
          <Trackpoint>
            <Time>2021-04-04T09:20:14.000Z</Time>
            <Position>
              <LatitudeDegrees>42.3454405367374420166015625</LatitudeDegrees>
              <LongitudeDegrees>2.4096189625561237335205078125</LongitudeDegrees>
            </Position>
            <AltitudeMeters>1036</AltitudeMeters>
            <DistanceMeters>NAN</DistanceMeters>
          </Trackpoint>
          <Trackpoint>
            <Time>2021-04-04T09:20:20.000Z</Time>
            <Position>
              <LatitudeDegrees>42.34549795277416706085205078125</LatitudeDegrees>
              <LongitudeDegrees>2.4096648953855037689208984375</LongitudeDegrees>
            </Position>
            <AltitudeMeters>1036.4000244140625</AltitudeMeters>
            <DistanceMeters>NAN</DistanceMeters>
          </Trackpoint>
          <Trackpoint>
            <Time>2021-04-04T09:20:24.000Z</Time>
            <Position>
              <LatitudeDegrees>42.34556500799953937530517578125</LatitudeDegrees>
              <LongitudeDegrees>2.4096793122589588165283203125</LongitudeDegrees>
            </Position>
            <AltitudeMeters>1036.4000244140625</AltitudeMeters>
            <DistanceMeters>NAN</DistanceMeters>
          </Trackpoint>
          <Trackpoint>
            <Time>2021-04-04T09:20:28.000Z</Time>
            <Position>
              <LatitudeDegrees>42.34560423530638217926025390625</LatitudeDegrees>
              <LongitudeDegrees>2.4096789769828319549560546875</LongitudeDegrees>
            </Position>
            <AltitudeMeters>1036.4000244140625</AltitudeMeters>
            <DistanceMeters>NAN</DistanceMeters>
          </Trackpoint>
          <Trackpoint>
            <Time>2021-04-04T09:20:29.000Z</Time>
            <Position>
              <LatitudeDegrees>42.34560859389603137969970703125</LatitudeDegrees>
              <LongitudeDegrees>2.409680821001529693603515625</LongitudeDegrees>
            </Position>
            <AltitudeMeters>1036.4000244140625</AltitudeMeters>
            <DistanceMeters>NAN</DistanceMeters>
          </Trackpoint>
          <Trackpoint>
            <Time>2021-04-04T09:20:33.000Z</Time>
            <Position>
              <LatitudeDegrees>42.3456492461264133453369140625</LatitudeDegrees>
              <LongitudeDegrees>2.40968191064894199371337890625</LongitudeDegrees>
            </Position>
            <AltitudeMeters>1036.5999755859375</AltitudeMeters>
            <DistanceMeters>NAN</DistanceMeters>
          </Trackpoint>
          <Trackpoint>
            <Time>2021-04-04T09:20:34.000Z</Time>
            <Position>
              <LatitudeDegrees>42.34566240571439266204833984375</LatitudeDegrees>
              <LongitudeDegrees>2.4096826650202274322509765625</LongitudeDegrees>
            </Position>
            <AltitudeMeters>1036.800048828125</AltitudeMeters>
            <DistanceMeters>NAN</DistanceMeters>
          </Trackpoint>
          <Trackpoint>
            <Time>2021-04-04T09:20:39.000Z</Time>
            <Position>
              <LatitudeDegrees>42.34571269713342189788818359375</LatitudeDegrees>
              <LongitudeDegrees>2.40965877659618854522705078125</LongitudeDegrees>
            </Position>
            <AltitudeMeters>1036.4000244140625</AltitudeMeters>
            <DistanceMeters>NAN</DistanceMeters>
          </Trackpoint>
          <Trackpoint>
            <Time>2021-04-04T09:20:44.000Z</Time>
            <Position>
              <LatitudeDegrees>42.34575234353542327880859375</LatitudeDegrees>
              <LongitudeDegrees>2.40962491370737552642822265625</LongitudeDegrees>
            </Position>
            <AltitudeMeters>1036.800048828125</AltitudeMeters>
            <DistanceMeters>NAN</DistanceMeters>
          </Trackpoint>
          <Trackpoint>
            <Time>2021-04-04T09:20:48.000Z</Time>
            <Position>
              <LatitudeDegrees>42.3457736335694789886474609375</LatitudeDegrees>
              <LongitudeDegrees>2.40962256677448749542236328125</LongitudeDegrees>
            </Position>
            <AltitudeMeters>1037</AltitudeMeters>
            <DistanceMeters>NAN</DistanceMeters>
          </Trackpoint>
          <Trackpoint>
            <Time>2021-04-04T09:20:49.000Z</Time>
            <Position>
              <LatitudeDegrees>42.345779500901699066162109375</LatitudeDegrees>
              <LongitudeDegrees>2.40962759591639041900634765625</LongitudeDegrees>
            </Position>
            <AltitudeMeters>1037</AltitudeMeters>
            <DistanceMeters>NAN</DistanceMeters>
          </Trackpoint>
          <Trackpoint>
            <Time>2021-04-04T09:20:55.000Z</Time>
            <Position>
              <LatitudeDegrees>42.3458262719213962554931640625</LatitudeDegrees>
              <LongitudeDegrees>2.4096135981380939483642578125</LongitudeDegrees>
            </Position>
            <AltitudeMeters>1037.199951171875</AltitudeMeters>
            <DistanceMeters>NAN</DistanceMeters>
          </Trackpoint>
          <Trackpoint>
            <Time>2021-04-04T09:20:57.000Z</Time>
            <Position>
              <LatitudeDegrees>42.3458453826606273651123046875</LatitudeDegrees>
              <LongitudeDegrees>2.40960110910236835479736328125</LongitudeDegrees>
            </Position>
            <AltitudeMeters>1037.199951171875</AltitudeMeters>
            <DistanceMeters>NAN</DistanceMeters>
          </Trackpoint>
          <Trackpoint>
            <Time>2021-04-04T09:21:00.000Z</Time>
            <Position>
              <LatitudeDegrees>42.345873378217220306396484375</LatitudeDegrees>
              <LongitudeDegrees>2.40959071554243564605712890625</LongitudeDegrees>
            </Position>
            <AltitudeMeters>1037</AltitudeMeters>
            <DistanceMeters>NAN</DistanceMeters>
          </Trackpoint>
          <Trackpoint>
            <Time>2021-04-04T09:21:02.000Z</Time>
            <Position>
              <LatitudeDegrees>42.34588821418583393096923828125</LatitudeDegrees>
              <LongitudeDegrees>2.40958333946764469146728515625</LongitudeDegrees>
            </Position>
            <AltitudeMeters>1037</AltitudeMeters>
            <DistanceMeters>NAN</DistanceMeters>
          </Trackpoint>
          <Trackpoint>
            <Time>2021-04-04T09:21:03.000Z</Time>
            <Position>
              <LatitudeDegrees>42.345895506441593170166015625</LatitudeDegrees>
              <LongitudeDegrees>2.409583590924739837646484375</LongitudeDegrees>
            </Position>
            <AltitudeMeters>1037</AltitudeMeters>
            <DistanceMeters>NAN</DistanceMeters>
          </Trackpoint>
          <Trackpoint>
            <Time>2021-04-04T09:21:09.000Z</Time>
            <Position>
              <LatitudeDegrees>42.34592777676880359649658203125</LatitudeDegrees>
              <LongitudeDegrees>2.4095691740512847900390625</LongitudeDegrees>
            </Position>
            <AltitudeMeters>1037.4000244140625</AltitudeMeters>
            <DistanceMeters>NAN</DistanceMeters>
          </Trackpoint>
          <Trackpoint>
            <Time>2021-04-04T09:21:12.000Z</Time>
            <Position>
              <LatitudeDegrees>42.3459577001631259918212890625</LatitudeDegrees>
              <LongitudeDegrees>2.409557439386844635009765625</LongitudeDegrees>
            </Position>
            <AltitudeMeters>1037.4000244140625</AltitudeMeters>
            <DistanceMeters>NAN</DistanceMeters>
          </Trackpoint>
          <Trackpoint>
            <Time>2021-04-04T09:21:16.000Z</Time>
            <Position>
              <LatitudeDegrees>42.34602299518883228302001953125</LatitudeDegrees>
              <LongitudeDegrees>2.40954813547432422637939453125</LongitudeDegrees>
            </Position>
            <AltitudeMeters>1037.4000244140625</AltitudeMeters>
            <DistanceMeters>NAN</DistanceMeters>
          </Trackpoint>
          <Trackpoint>
            <Time>2021-04-04T09:21:23.000Z</Time>
            <Position>
              <LatitudeDegrees>42.34609005041420459747314453125</LatitudeDegrees>
              <LongitudeDegrees>2.40951913408935070037841796875</LongitudeDegrees>
            </Position>
            <AltitudeMeters>1037.199951171875</AltitudeMeters>
            <DistanceMeters>NAN</DistanceMeters>
          </Trackpoint>
          <Trackpoint>
            <Time>2021-04-04T09:21:25.000Z</Time>
            <Position>
              <LatitudeDegrees>42.346112430095672607421875</LatitudeDegrees>
              <LongitudeDegrees>2.40951527841389179229736328125</LongitudeDegrees>
            </Position>
            <AltitudeMeters>1037.199951171875</AltitudeMeters>
            <DistanceMeters>NAN</DistanceMeters>
          </Trackpoint>
          <Trackpoint>
            <Time>2021-04-04T09:21:27.000Z</Time>
            <Position>
              <LatitudeDegrees>42.346134893596172332763671875</LatitudeDegrees>
              <LongitudeDegrees>2.40950823761522769927978515625</LongitudeDegrees>
            </Position>
            <AltitudeMeters>1037.199951171875</AltitudeMeters>
            <DistanceMeters>NAN</DistanceMeters>
          </Trackpoint>
          <Trackpoint>
            <Time>2021-04-04T09:21:30.000Z</Time>
            <Position>
              <LatitudeDegrees>42.3461548425257205963134765625</LatitudeDegrees>
              <LongitudeDegrees>2.40952500142157077789306640625</LongitudeDegrees>
            </Position>
            <AltitudeMeters>1037.199951171875</AltitudeMeters>
            <DistanceMeters>NAN</DistanceMeters>
          </Trackpoint>
          <Trackpoint>
            <Time>2021-04-04T09:21:32.000Z</Time>
            <Position>
              <LatitudeDegrees>42.346166074275970458984375</LatitudeDegrees>
              <LongitudeDegrees>2.409522235393524169921875</LongitudeDegrees>
            </Position>
            <AltitudeMeters>1037.4000244140625</AltitudeMeters>
            <DistanceMeters>NAN</DistanceMeters>
          </Trackpoint>
          <Trackpoint>
            <Time>2021-04-04T09:21:35.000Z</Time>
            <Position>
              <LatitudeDegrees>42.34620236791670322418212890625</LatitudeDegrees>
              <LongitudeDegrees>2.40952651016414165496826171875</LongitudeDegrees>
            </Position>
            <AltitudeMeters>1037.4000244140625</AltitudeMeters>
            <DistanceMeters>NAN</DistanceMeters>
          </Trackpoint>
          <Trackpoint>
            <Time>2021-04-04T09:21:36.000Z</Time>
            <Position>
              <LatitudeDegrees>42.34621527604758739471435546875</LatitudeDegrees>
              <LongitudeDegrees>2.4095317907631397247314453125</LongitudeDegrees>
            </Position>
            <AltitudeMeters>1037.4000244140625</AltitudeMeters>
            <DistanceMeters>NAN</DistanceMeters>
          </Trackpoint>
          <Trackpoint>
            <Time>2021-04-04T09:21:42.000Z</Time>
            <Position>
              <LatitudeDegrees>42.34629507176578044891357421875</LatitudeDegrees>
              <LongitudeDegrees>2.40949952043592929840087890625</LongitudeDegrees>
            </Position>
            <AltitudeMeters>1037.800048828125</AltitudeMeters>
            <DistanceMeters>NAN</DistanceMeters>
          </Trackpoint>
          <Trackpoint>
            <Time>2021-04-04T09:21:49.000Z</Time>
            <Position>
              <LatitudeDegrees>42.3463546670973300933837890625</LatitudeDegrees>
              <LongitudeDegrees>2.4095267616212368011474609375</LongitudeDegrees>
            </Position>
            <AltitudeMeters>1038</AltitudeMeters>
            <DistanceMeters>NAN</DistanceMeters>
          </Trackpoint>
          <Trackpoint>
            <Time>2021-04-04T09:21:55.000Z</Time>
            <Position>
              <LatitudeDegrees>42.34639565460383892059326171875</LatitudeDegrees>
              <LongitudeDegrees>2.40955375134944915771484375</LongitudeDegrees>
            </Position>
            <AltitudeMeters>1038.4000244140625</AltitudeMeters>
            <DistanceMeters>NAN</DistanceMeters>
          </Trackpoint>
          <Trackpoint>
            <Time>2021-04-04T09:21:56.000Z</Time>
            <Position>
              <LatitudeDegrees>42.34640453942120075225830078125</LatitudeDegrees>
              <LongitudeDegrees>2.40955417044460773468017578125</LongitudeDegrees>
            </Position>
            <AltitudeMeters>1038.4000244140625</AltitudeMeters>
            <DistanceMeters>NAN</DistanceMeters>
          </Trackpoint>
          <Trackpoint>
            <Time>2021-04-04T09:21:58.000Z</Time>
            <Position>
              <LatitudeDegrees>42.34642934985458850860595703125</LatitudeDegrees>
              <LongitudeDegrees>2.40955869667232036590576171875</LongitudeDegrees>
            </Position>
            <AltitudeMeters>1038.4000244140625</AltitudeMeters>
            <DistanceMeters>NAN</DistanceMeters>
          </Trackpoint>
          <Trackpoint>
            <Time>2021-04-04T09:22:00.000Z</Time>
            <Position>
              <LatitudeDegrees>42.34646924771368503570556640625</LatitudeDegrees>
              <LongitudeDegrees>2.40956976078450679779052734375</LongitudeDegrees>
            </Position>
            <AltitudeMeters>1038.5999755859375</AltitudeMeters>
            <DistanceMeters>NAN</DistanceMeters>
          </Trackpoint>
          <Trackpoint>
            <Time>2021-04-04T09:22:04.000Z</Time>
            <Position>
              <LatitudeDegrees>42.34653890132904052734375</LatitudeDegrees>
              <LongitudeDegrees>2.409563474357128143310546875</LongitudeDegrees>
            </Position>
            <AltitudeMeters>1039.199951171875</AltitudeMeters>
            <DistanceMeters>NAN</DistanceMeters>
          </Trackpoint>
          <Trackpoint>
            <Time>2021-04-04T09:22:07.000Z</Time>
            <Position>
              <LatitudeDegrees>42.34659631736576557159423828125</LatitudeDegrees>
              <LongitudeDegrees>2.40956087596714496612548828125</LongitudeDegrees>
            </Position>
            <AltitudeMeters>1039.199951171875</AltitudeMeters>
            <DistanceMeters>NAN</DistanceMeters>
          </Trackpoint>
          <Trackpoint>
            <Time>2021-04-04T09:22:13.000Z</Time>
            <Position>
              <LatitudeDegrees>42.34670050442218780517578125</LatitudeDegrees>
              <LongitudeDegrees>2.40958417765796184539794921875</LongitudeDegrees>
            </Position>
            <AltitudeMeters>1039.199951171875</AltitudeMeters>
            <DistanceMeters>NAN</DistanceMeters>
          </Trackpoint>
          <Trackpoint>
            <Time>2021-04-04T09:22:17.000Z</Time>
            <Position>
              <LatitudeDegrees>42.346783317625522613525390625</LatitudeDegrees>
              <LongitudeDegrees>2.40960412658751010894775390625</LongitudeDegrees>
            </Position>
            <AltitudeMeters>1039</AltitudeMeters>
            <DistanceMeters>NAN</DistanceMeters>
          </Trackpoint>
          <Trackpoint>
            <Time>2021-04-04T09:22:21.000Z</Time>
            <Position>
              <LatitudeDegrees>42.3468284122645854949951171875</LatitudeDegrees>
              <LongitudeDegrees>2.4096266739070415496826171875</LongitudeDegrees>
            </Position>
            <AltitudeMeters>1039.199951171875</AltitudeMeters>
            <DistanceMeters>NAN</DistanceMeters>
          </Trackpoint>
          <Trackpoint>
            <Time>2021-04-04T09:22:26.000Z</Time>
            <Position>
              <LatitudeDegrees>42.3468686453998088836669921875</LatitudeDegrees>
              <LongitudeDegrees>2.40962943993508815765380859375</LongitudeDegrees>
            </Position>
            <AltitudeMeters>1039.199951171875</AltitudeMeters>
            <DistanceMeters>NAN</DistanceMeters>
          </Trackpoint>
          <Trackpoint>
            <Time>2021-04-04T09:22:27.000Z</Time>
            <Position>
              <LatitudeDegrees>42.34687375836074352264404296875</LatitudeDegrees>
              <LongitudeDegrees>2.409615106880664825439453125</LongitudeDegrees>
            </Position>
            <AltitudeMeters>1039.199951171875</AltitudeMeters>
            <DistanceMeters>NAN</DistanceMeters>
          </Trackpoint>
          <Trackpoint>
            <Time>2021-04-04T09:22:33.000Z</Time>
            <Position>
              <LatitudeDegrees>42.3469186015427112579345703125</LatitudeDegrees>
              <LongitudeDegrees>2.4096062220633029937744140625</LongitudeDegrees>
            </Position>
            <AltitudeMeters>1039.4000244140625</AltitudeMeters>
            <DistanceMeters>NAN</DistanceMeters>
          </Trackpoint>
          <Trackpoint>
            <Time>2021-04-04T09:22:42.000Z</Time>
            <Position>
              <LatitudeDegrees>42.34697869978845119476318359375</LatitudeDegrees>
              <LongitudeDegrees>2.4096280150115489959716796875</LongitudeDegrees>
            </Position>
            <AltitudeMeters>1039.5999755859375</AltitudeMeters>
            <DistanceMeters>NAN</DistanceMeters>
          </Trackpoint>
          <Trackpoint>
            <Time>2021-04-04T09:22:53.000Z</Time>
            <Position>
              <LatitudeDegrees>42.34707592986524105072021484375</LatitudeDegrees>
              <LongitudeDegrees>2.40969012491405010223388671875</LongitudeDegrees>
            </Position>
            <AltitudeMeters>1040.199951171875</AltitudeMeters>
            <DistanceMeters>NAN</DistanceMeters>
          </Trackpoint>
          <Trackpoint>
            <Time>2021-04-04T09:22:58.000Z</Time>
            <Position>
              <LatitudeDegrees>42.347120605409145355224609375</LatitudeDegrees>
              <LongitudeDegrees>2.409687526524066925048828125</LongitudeDegrees>
            </Position>
            <AltitudeMeters>1040.199951171875</AltitudeMeters>
            <DistanceMeters>NAN</DistanceMeters>
          </Trackpoint>
          <Trackpoint>
            <Time>2021-04-04T09:23:00.000Z</Time>
            <Position>
              <LatitudeDegrees>42.34714097343385219573974609375</LatitudeDegrees>
              <LongitudeDegrees>2.40970001555979251861572265625</LongitudeDegrees>
            </Position>
            <AltitudeMeters>1040.4000244140625</AltitudeMeters>
            <DistanceMeters>NAN</DistanceMeters>
          </Trackpoint>
          <Trackpoint>
            <Time>2021-04-04T09:23:04.000Z</Time>
            <Position>
              <LatitudeDegrees>42.3471791110932826995849609375</LatitudeDegrees>
              <LongitudeDegrees>2.40972482599318027496337890625</LongitudeDegrees>
            </Position>
            <AltitudeMeters>1040.4000244140625</AltitudeMeters>
            <DistanceMeters>NAN</DistanceMeters>
          </Trackpoint>
          <Trackpoint>
            <Time>2021-04-04T09:23:06.000Z</Time>
            <Position>
              <LatitudeDegrees>42.34719361178576946258544921875</LatitudeDegrees>
              <LongitudeDegrees>2.40974418818950653076171875</LongitudeDegrees>
            </Position>
            <AltitudeMeters>1040.5999755859375</AltitudeMeters>
            <DistanceMeters>NAN</DistanceMeters>
          </Trackpoint>
          <Trackpoint>
            <Time>2021-04-04T09:23:11.000Z</Time>
            <Position>
              <LatitudeDegrees>42.34725211746990680694580078125</LatitudeDegrees>
              <LongitudeDegrees>2.40980043075978755950927734375</LongitudeDegrees>
            </Position>
            <AltitudeMeters>1040.800048828125</AltitudeMeters>
            <DistanceMeters>NAN</DistanceMeters>
          </Trackpoint>
          <Trackpoint>
            <Time>2021-04-04T09:23:13.000Z</Time>
            <Position>
              <LatitudeDegrees>42.34726452268660068511962890625</LatitudeDegrees>
              <LongitudeDegrees>2.409841082990169525146484375</LongitudeDegrees>
            </Position>
            <AltitudeMeters>1040.800048828125</AltitudeMeters>
            <DistanceMeters>NAN</DistanceMeters>
          </Trackpoint>
          <Trackpoint>
            <Time>2021-04-04T09:23:15.000Z</Time>
            <Position>
              <LatitudeDegrees>42.347281873226165771484375</LatitudeDegrees>
              <LongitudeDegrees>2.40989598445594310760498046875</LongitudeDegrees>
            </Position>
            <AltitudeMeters>1040.800048828125</AltitudeMeters>
            <DistanceMeters>NAN</DistanceMeters>
          </Trackpoint>
          <Trackpoint>
            <Time>2021-04-04T09:23:22.000Z</Time>
            <Position>
              <LatitudeDegrees>42.34736409969627857208251953125</LatitudeDegrees>
              <LongitudeDegrees>2.4099634587764739990234375</LongitudeDegrees>
            </Position>
            <AltitudeMeters>1040.800048828125</AltitudeMeters>
            <DistanceMeters>NAN</DistanceMeters>
          </Trackpoint>
          <Trackpoint>
            <Time>2021-04-04T09:23:26.000Z</Time>
            <Position>
              <LatitudeDegrees>42.3473822884261608123779296875</LatitudeDegrees>
              <LongitudeDegrees>2.41004652343690395355224609375</LongitudeDegrees>
            </Position>
            <AltitudeMeters>1040.800048828125</AltitudeMeters>
            <DistanceMeters>NAN</DistanceMeters>
          </Trackpoint>
          <Trackpoint>
            <Time>2021-04-04T09:23:31.000Z</Time>
            <Position>
              <LatitudeDegrees>42.34741866588592529296875</LatitudeDegrees>
              <LongitudeDegrees>2.41009362973272800445556640625</LongitudeDegrees>
            </Position>
            <AltitudeMeters>1040.800048828125</AltitudeMeters>
            <DistanceMeters>NAN</DistanceMeters>
          </Trackpoint>
          <Trackpoint>
            <Time>2021-04-04T09:23:39.000Z</Time>
            <Position>
              <LatitudeDegrees>42.34748949296772480010986328125</LatitudeDegrees>
              <LongitudeDegrees>2.41020058281719684600830078125</LongitudeDegrees>
            </Position>
            <AltitudeMeters>1041</AltitudeMeters>
            <DistanceMeters>NAN</DistanceMeters>
          </Trackpoint>
          <Trackpoint>
            <Time>2021-04-04T09:23:47.000Z</Time>
            <Position>
              <LatitudeDegrees>42.3475234396755695343017578125</LatitudeDegrees>
              <LongitudeDegrees>2.4103079549968242645263671875</LongitudeDegrees>
            </Position>
            <AltitudeMeters>1041.4000244140625</AltitudeMeters>
            <DistanceMeters>NAN</DistanceMeters>
          </Trackpoint>
          <Trackpoint>
            <Time>2021-04-04T09:23:49.000Z</Time>
            <Position>
              <LatitudeDegrees>42.34753039665520191192626953125</LatitudeDegrees>
              <LongitudeDegrees>2.41033821366727352142333984375</LongitudeDegrees>
            </Position>
            <AltitudeMeters>1041.5999755859375</AltitudeMeters>
            <DistanceMeters>NAN</DistanceMeters>
          </Trackpoint>
          <Trackpoint>
            <Time>2021-04-04T09:23:56.000Z</Time>
            <Position>
              <LatitudeDegrees>42.34755302779376506805419921875</LatitudeDegrees>
              <LongitudeDegrees>2.41042840294539928436279296875</LongitudeDegrees>
            </Position>
            <AltitudeMeters>1042.199951171875</AltitudeMeters>
            <DistanceMeters>NAN</DistanceMeters>
          </Trackpoint>
          <Trackpoint>
            <Time>2021-04-04T09:24:01.000Z</Time>
            <Position>
              <LatitudeDegrees>42.34758756123483180999755859375</LatitudeDegrees>
              <LongitudeDegrees>2.41047886200249195098876953125</LongitudeDegrees>
            </Position>
            <AltitudeMeters>1042.4000244140625</AltitudeMeters>
            <DistanceMeters>NAN</DistanceMeters>
          </Trackpoint>
          <Trackpoint>
            <Time>2021-04-04T09:24:02.000Z</Time>
            <Position>
              <LatitudeDegrees>42.34759233891963958740234375</LatitudeDegrees>
              <LongitudeDegrees>2.41049478761851787567138671875</LongitudeDegrees>
            </Position>
            <AltitudeMeters>1042.4000244140625</AltitudeMeters>
            <DistanceMeters>NAN</DistanceMeters>
          </Trackpoint>
          <Trackpoint>
            <Time>2021-04-04T09:24:10.000Z</Time>
            <Position>
              <LatitudeDegrees>42.34763030894100666046142578125</LatitudeDegrees>
              <LongitudeDegrees>2.4105991423130035400390625</LongitudeDegrees>
            </Position>
            <AltitudeMeters>1042.800048828125</AltitudeMeters>
            <DistanceMeters>NAN</DistanceMeters>
          </Trackpoint>
          <Trackpoint>
            <Time>2021-04-04T09:24:12.000Z</Time>
            <Position>
              <LatitudeDegrees>42.34763802029192447662353515625</LatitudeDegrees>
              <LongitudeDegrees>2.41062906570732593536376953125</LongitudeDegrees>
            </Position>
            <AltitudeMeters>1043</AltitudeMeters>
            <DistanceMeters>NAN</DistanceMeters>
          </Trackpoint>
          <Trackpoint>
            <Time>2021-04-04T09:24:17.000Z</Time>
            <Position>
              <LatitudeDegrees>42.34766148962080478668212890625</LatitudeDegrees>
              <LongitudeDegrees>2.41069142706692218780517578125</LongitudeDegrees>
            </Position>
            <AltitudeMeters>1043.4000244140625</AltitudeMeters>
            <DistanceMeters>NAN</DistanceMeters>
          </Trackpoint>
          <Trackpoint>
            <Time>2021-04-04T09:24:21.000Z</Time>
            <Position>
              <LatitudeDegrees>42.34768680296838283538818359375</LatitudeDegrees>
              <LongitudeDegrees>2.410738281905651092529296875</LongitudeDegrees>
            </Position>
            <AltitudeMeters>1043.5999755859375</AltitudeMeters>
            <DistanceMeters>NAN</DistanceMeters>
          </Trackpoint>
          <Trackpoint>
            <Time>2021-04-04T09:24:25.000Z</Time>
            <Position>
              <LatitudeDegrees>42.3477075062692165374755859375</LatitudeDegrees>
              <LongitudeDegrees>2.41078681312501430511474609375</LongitudeDegrees>
            </Position>
            <AltitudeMeters>1043.800048828125</AltitudeMeters>
            <DistanceMeters>NAN</DistanceMeters>
          </Trackpoint>
          <Trackpoint>
            <Time>2021-04-04T09:24:34.000Z</Time>
            <Position>
              <LatitudeDegrees>42.34777514822781085968017578125</LatitudeDegrees>
              <LongitudeDegrees>2.41088773123919963836669921875</LongitudeDegrees>
            </Position>
            <AltitudeMeters>1044.199951171875</AltitudeMeters>
            <DistanceMeters>NAN</DistanceMeters>
          </Trackpoint>
          <Trackpoint>
            <Time>2021-04-04T09:24:35.000Z</Time>
            <Position>
              <LatitudeDegrees>42.3477822728455066680908203125</LatitudeDegrees>
              <LongitudeDegrees>2.410899214446544647216796875</LongitudeDegrees>
            </Position>
            <AltitudeMeters>1044.199951171875</AltitudeMeters>
            <DistanceMeters>NAN</DistanceMeters>
          </Trackpoint>
          <Trackpoint>
            <Time>2021-04-04T09:24:37.000Z</Time>
            <Position>
              <LatitudeDegrees>42.3477970249950885772705078125</LatitudeDegrees>
              <LongitudeDegrees>2.41091740317642688751220703125</LongitudeDegrees>
            </Position>
            <AltitudeMeters>1044.199951171875</AltitudeMeters>
            <DistanceMeters>NAN</DistanceMeters>
          </Trackpoint>
          <Trackpoint>
            <Time>2021-04-04T09:24:40.000Z</Time>
            <Position>
              <LatitudeDegrees>42.3478191532194614410400390625</LatitudeDegrees>
              <LongitudeDegrees>2.41094405762851238250732421875</LongitudeDegrees>
            </Position>
            <AltitudeMeters>1044.4000244140625</AltitudeMeters>
            <DistanceMeters>NAN</DistanceMeters>
          </Trackpoint>
          <Trackpoint>
            <Time>2021-04-04T09:24:43.000Z</Time>
            <Position>
              <LatitudeDegrees>42.3478486575186252593994140625</LatitudeDegrees>
              <LongitudeDegrees>2.41097071208059787750244140625</LongitudeDegrees>
            </Position>
            <AltitudeMeters>1044.5999755859375</AltitudeMeters>
            <DistanceMeters>NAN</DistanceMeters>
          </Trackpoint>
          <Trackpoint>
            <Time>2021-04-04T09:24:48.000Z</Time>
            <Position>
              <LatitudeDegrees>42.347894422709941864013671875</LatitudeDegrees>
              <LongitudeDegrees>2.4110049940645694732666015625</LongitudeDegrees>
            </Position>
            <AltitudeMeters>1044.5999755859375</AltitudeMeters>
            <DistanceMeters>NAN</DistanceMeters>
          </Trackpoint>
          <Trackpoint>
            <Time>2021-04-04T09:24:50.000Z</Time>
            <Position>
              <LatitudeDegrees>42.3479108512401580810546875</LatitudeDegrees>
              <LongitudeDegrees>2.41102091968059539794921875</LongitudeDegrees>
            </Position>
            <AltitudeMeters>1044.4000244140625</AltitudeMeters>
            <DistanceMeters>NAN</DistanceMeters>
          </Trackpoint>
          <Trackpoint>
            <Time>2021-04-04T09:24:55.000Z</Time>
            <Position>
              <LatitudeDegrees>42.34795309603214263916015625</LatitudeDegrees>
              <LongitudeDegrees>2.4110603146255016326904296875</LongitudeDegrees>
            </Position>
            <AltitudeMeters>1044.199951171875</AltitudeMeters>
            <DistanceMeters>NAN</DistanceMeters>
          </Trackpoint>
          <Trackpoint>
            <Time>2021-04-04T09:25:01.000Z</Time>
            <Position>
              <LatitudeDegrees>42.34799894504249095916748046875</LatitudeDegrees>
              <LongitudeDegrees>2.41110138595104217529296875</LongitudeDegrees>
            </Position>
            <AltitudeMeters>1044.4000244140625</AltitudeMeters>
            <DistanceMeters>NAN</DistanceMeters>
          </Trackpoint>
          <Trackpoint>
            <Time>2021-04-04T09:25:11.000Z</Time>
            <Position>
              <LatitudeDegrees>42.34807086177170276641845703125</LatitudeDegrees>
              <LongitudeDegrees>2.41118646226823329925537109375</LongitudeDegrees>
            </Position>
            <AltitudeMeters>1044.199951171875</AltitudeMeters>
            <DistanceMeters>NAN</DistanceMeters>
          </Trackpoint>
          <Trackpoint>
            <Time>2021-04-04T09:25:18.000Z</Time>
            <Position>
              <LatitudeDegrees>42.34814126975834369659423828125</LatitudeDegrees>
              <LongitudeDegrees>2.41125284694135189056396484375</LongitudeDegrees>
            </Position>
            <AltitudeMeters>1044.199951171875</AltitudeMeters>
            <DistanceMeters>NAN</DistanceMeters>
          </Trackpoint>
          <Trackpoint>
            <Time>2021-04-04T09:25:19.000Z</Time>
            <Position>
              <LatitudeDegrees>42.34815216623246669769287109375</LatitudeDegrees>
              <LongitudeDegrees>2.4112631566822528839111328125</LongitudeDegrees>
            </Position>
            <AltitudeMeters>1044.199951171875</AltitudeMeters>
            <DistanceMeters>NAN</DistanceMeters>
          </Trackpoint>
          <Trackpoint>
            <Time>2021-04-04T09:25:21.000Z</Time>
            <Position>
              <LatitudeDegrees>42.3481768928468227386474609375</LatitudeDegrees>
              <LongitudeDegrees>2.411278076469898223876953125</LongitudeDegrees>
            </Position>
            <AltitudeMeters>1044.199951171875</AltitudeMeters>
            <DistanceMeters>NAN</DistanceMeters>
          </Trackpoint>
          <Trackpoint>
            <Time>2021-04-04T09:25:27.000Z</Time>
            <Position>
              <LatitudeDegrees>42.34823145903646945953369140625</LatitudeDegrees>
              <LongitudeDegrees>2.4112946726381778717041015625</LongitudeDegrees>
            </Position>
            <AltitudeMeters>1044.199951171875</AltitudeMeters>
            <DistanceMeters>NAN</DistanceMeters>
          </Trackpoint>
          <Trackpoint>
            <Time>2021-04-04T09:25:36.000Z</Time>
            <Position>
              <LatitudeDegrees>42.3483051359653472900390625</LatitudeDegrees>
              <LongitudeDegrees>2.41126910783350467681884765625</LongitudeDegrees>
            </Position>
            <AltitudeMeters>1044.4000244140625</AltitudeMeters>
            <DistanceMeters>NAN</DistanceMeters>
          </Trackpoint>
          <Trackpoint>
            <Time>2021-04-04T09:25:43.000Z</Time>
            <Position>
              <LatitudeDegrees>42.34835048206150531768798828125</LatitudeDegrees>
              <LongitudeDegrees>2.41125988774001598358154296875</LongitudeDegrees>
            </Position>
            <AltitudeMeters>1044.5999755859375</AltitudeMeters>
            <DistanceMeters>NAN</DistanceMeters>
          </Trackpoint>
          <Trackpoint>
            <Time>2021-04-04T09:25:45.000Z</Time>
            <Position>
              <LatitudeDegrees>42.34836724586784839630126953125</LatitudeDegrees>
              <LongitudeDegrees>2.41125653497874736785888671875</LongitudeDegrees>
            </Position>
            <AltitudeMeters>1044.800048828125</AltitudeMeters>
            <DistanceMeters>NAN</DistanceMeters>
          </Trackpoint>
          <Trackpoint>
            <Time>2021-04-04T09:25:48.000Z</Time>
            <Position>
              <LatitudeDegrees>42.34839842654764652252197265625</LatitudeDegrees>
              <LongitudeDegrees>2.411244213581085205078125</LongitudeDegrees>
            </Position>
            <AltitudeMeters>1045</AltitudeMeters>
            <DistanceMeters>NAN</DistanceMeters>
          </Trackpoint>
          <Trackpoint>
            <Time>2021-04-04T09:25:52.000Z</Time>
            <Position>
              <LatitudeDegrees>42.34842474572360515594482421875</LatitudeDegrees>
              <LongitudeDegrees>2.41119333542883396148681640625</LongitudeDegrees>
            </Position>
            <AltitudeMeters>1045.199951171875</AltitudeMeters>
            <DistanceMeters>NAN</DistanceMeters>
          </Trackpoint>
          <Trackpoint>
            <Time>2021-04-04T09:25:54.000Z</Time>
            <Position>
              <LatitudeDegrees>42.34843857586383819580078125</LatitudeDegrees>
              <LongitudeDegrees>2.41117958910763263702392578125</LongitudeDegrees>
            </Position>
            <AltitudeMeters>1045.5999755859375</AltitudeMeters>
            <DistanceMeters>NAN</DistanceMeters>
          </Trackpoint>
          <Trackpoint>
            <Time>2021-04-04T09:25:55.000Z</Time>
            <Position>
              <LatitudeDegrees>42.34844402410089969635009765625</LatitudeDegrees>
              <LongitudeDegrees>2.41117791272699832916259765625</LongitudeDegrees>
            </Position>
            <AltitudeMeters>1045.5999755859375</AltitudeMeters>
            <DistanceMeters>NAN</DistanceMeters>
          </Trackpoint>
          <Trackpoint>
            <Time>2021-04-04T09:25:58.000Z</Time>
            <Position>
              <LatitudeDegrees>42.34846095554530620574951171875</LatitudeDegrees>
              <LongitudeDegrees>2.41116969846189022064208984375</LongitudeDegrees>
            </Position>
            <AltitudeMeters>1045.5999755859375</AltitudeMeters>
            <DistanceMeters>NAN</DistanceMeters>
          </Trackpoint>
          <Trackpoint>
            <Time>2021-04-04T09:25:59.000Z</Time>
            <Position>
              <LatitudeDegrees>42.3484665714204311370849609375</LatitudeDegrees>
              <LongitudeDegrees>2.41116433404386043548583984375</LongitudeDegrees>
            </Position>
            <AltitudeMeters>1045.4000244140625</AltitudeMeters>
            <DistanceMeters>NAN</DistanceMeters>
          </Trackpoint>
          <Trackpoint>
            <Time>2021-04-04T09:26:00.000Z</Time>
            <Position>
              <LatitudeDegrees>42.348467744886875152587890625</LatitudeDegrees>
              <LongitudeDegrees>2.41115528158843517303466796875</LongitudeDegrees>
            </Position>
            <AltitudeMeters>1045.4000244140625</AltitudeMeters>
            <DistanceMeters>NAN</DistanceMeters>
          </Trackpoint>
          <Trackpoint>
            <Time>2021-04-04T09:26:08.000Z</Time>
            <Position>
              <LatitudeDegrees>42.34847872518002986907958984375</LatitudeDegrees>
              <LongitudeDegrees>2.41111756302416324615478515625</LongitudeDegrees>
            </Position>
            <AltitudeMeters>1045</AltitudeMeters>
            <DistanceMeters>NAN</DistanceMeters>
          </Trackpoint>
          <Trackpoint>
            <Time>2021-04-04T09:26:10.000Z</Time>
            <Position>
              <LatitudeDegrees>42.34847822226583957672119140625</LatitudeDegrees>
              <LongitudeDegrees>2.41112594492733478546142578125</LongitudeDegrees>
            </Position>
            <AltitudeMeters>1044.800048828125</AltitudeMeters>
            <DistanceMeters>NAN</DistanceMeters>
          </Trackpoint>
          <Trackpoint>
            <Time>2021-04-04T09:26:13.000Z</Time>
            <Position>
              <LatitudeDegrees>42.3484829999506473541259765625</LatitudeDegrees>
              <LongitudeDegrees>2.41111739538609981536865234375</LongitudeDegrees>
            </Position>
            <AltitudeMeters>1045</AltitudeMeters>
            <DistanceMeters>NAN</DistanceMeters>
          </Trackpoint>
          <Trackpoint>
            <Time>2021-04-04T09:26:14.000Z</Time>
            <Position>
              <LatitudeDegrees>42.34848576597869396209716796875</LatitudeDegrees>
              <LongitudeDegrees>2.41111840121448040008544921875</LongitudeDegrees>
            </Position>
            <AltitudeMeters>1045</AltitudeMeters>
            <DistanceMeters>NAN</DistanceMeters>
          </Trackpoint>
          <Trackpoint>
            <Time>2021-04-04T09:26:20.000Z</Time>
            <Position>
              <LatitudeDegrees>42.348488867282867431640625</LatitudeDegrees>
              <LongitudeDegrees>2.41112058050930500030517578125</LongitudeDegrees>
            </Position>
            <AltitudeMeters>1045</AltitudeMeters>
            <DistanceMeters>NAN</DistanceMeters>
          </Trackpoint>
          <Trackpoint>
            <Time>2021-04-04T09:26:32.000Z</Time>
            <Position>
              <LatitudeDegrees>42.348488867282867431640625</LatitudeDegrees>
              <LongitudeDegrees>2.411125861108303070068359375</LongitudeDegrees>
            </Position>
            <AltitudeMeters>1045</AltitudeMeters>
            <DistanceMeters>NAN</DistanceMeters>
          </Trackpoint>
          <Trackpoint>
            <Time>2021-04-04T09:26:38.000Z</Time>
            <Position>
              <LatitudeDegrees>42.34849079512059688568115234375</LatitudeDegrees>
              <LongitudeDegrees>2.41114488802850246429443359375</LongitudeDegrees>
            </Position>
            <AltitudeMeters>1045.4000244140625</AltitudeMeters>
            <DistanceMeters>NAN</DistanceMeters>
          </Trackpoint>
          <Trackpoint>
            <Time>2021-04-04T09:26:41.000Z</Time>
            <Position>
              <LatitudeDegrees>42.34849079512059688568115234375</LatitudeDegrees>
              <LongitudeDegrees>2.41114974953234195709228515625</LongitudeDegrees>
            </Position>
            <AltitudeMeters>1045.4000244140625</AltitudeMeters>
            <DistanceMeters>NAN</DistanceMeters>
          </Trackpoint>
          <Trackpoint>
            <Time>2021-04-04T09:26:52.000Z</Time>
            <Position>
              <LatitudeDegrees>42.3484786413609981536865234375</LatitudeDegrees>
              <LongitudeDegrees>2.4111463129520416259765625</LongitudeDegrees>
            </Position>
            <AltitudeMeters>1046.800048828125</AltitudeMeters>
            <DistanceMeters>NAN</DistanceMeters>
          </Trackpoint>
          <Trackpoint>
            <Time>2021-04-04T09:26:56.000Z</Time>
            <Position>
              <LatitudeDegrees>42.3484687507152557373046875</LatitudeDegrees>
              <LongitudeDegrees>2.4111427925527095794677734375</LongitudeDegrees>
            </Position>
            <AltitudeMeters>1047</AltitudeMeters>
            <DistanceMeters>NAN</DistanceMeters>
          </Trackpoint>
          <Trackpoint>
            <Time>2021-04-04T09:27:03.000Z</Time>
            <Position>
              <LatitudeDegrees>42.34844033606350421905517578125</LatitudeDegrees>
              <LongitudeDegrees>2.41110851056873798370361328125</LongitudeDegrees>
            </Position>
            <AltitudeMeters>1047.800048828125</AltitudeMeters>
            <DistanceMeters>NAN</DistanceMeters>
          </Trackpoint>
          <Trackpoint>
            <Time>2021-04-04T09:27:07.000Z</Time>
            <Position>
              <LatitudeDegrees>42.3484192974865436553955078125</LatitudeDegrees>
              <LongitudeDegrees>2.411082945764064788818359375</LongitudeDegrees>
            </Position>
            <AltitudeMeters>1048</AltitudeMeters>
            <DistanceMeters>NAN</DistanceMeters>
          </Trackpoint>
          <Trackpoint>
            <Time>2021-04-04T09:27:12.000Z</Time>
            <Position>
              <LatitudeDegrees>42.34840965829789638519287109375</LatitudeDegrees>
              <LongitudeDegrees>2.41105285473167896270751953125</LongitudeDegrees>
            </Position>
            <AltitudeMeters>1048.800048828125</AltitudeMeters>
            <DistanceMeters>NAN</DistanceMeters>
          </Trackpoint>
          <Trackpoint>
            <Time>2021-04-04T09:27:20.000Z</Time>
            <Position>
              <LatitudeDegrees>42.34840965829789638519287109375</LatitudeDegrees>
              <LongitudeDegrees>2.4109946005046367645263671875</LongitudeDegrees>
            </Position>
            <AltitudeMeters>1049.800048828125</AltitudeMeters>
            <DistanceMeters>NAN</DistanceMeters>
          </Trackpoint>
          <Trackpoint>
            <Time>2021-04-04T09:27:28.000Z</Time>
            <Position>
              <LatitudeDegrees>42.34843396581709384918212890625</LatitudeDegrees>
              <LongitudeDegrees>2.4109322391450405120849609375</LongitudeDegrees>
            </Position>
            <AltitudeMeters>1050.800048828125</AltitudeMeters>
            <DistanceMeters>NAN</DistanceMeters>
          </Trackpoint>
          <Trackpoint>
            <Time>2021-04-04T09:27:35.000Z</Time>
            <Position>
              <LatitudeDegrees>42.3484474606812000274658203125</LatitudeDegrees>
              <LongitudeDegrees>2.4108990468084812164306640625</LongitudeDegrees>
            </Position>
            <AltitudeMeters>1052</AltitudeMeters>
            <DistanceMeters>NAN</DistanceMeters>
          </Trackpoint>
          <Trackpoint>
            <Time>2021-04-04T09:27:39.000Z</Time>
            <Position>
              <LatitudeDegrees>42.3484474606812000274658203125</LatitudeDegrees>
              <LongitudeDegrees>2.410883791744709014892578125</LongitudeDegrees>
            </Position>
            <AltitudeMeters>1052.199951171875</AltitudeMeters>
            <DistanceMeters>NAN</DistanceMeters>
          </Trackpoint>
          <Trackpoint>
            <Time>2021-04-04T09:27:45.000Z</Time>
            <Position>
              <LatitudeDegrees>42.34844528138637542724609375</LatitudeDegrees>
              <LongitudeDegrees>2.4108708836138248443603515625</LongitudeDegrees>
            </Position>
            <AltitudeMeters>1053</AltitudeMeters>
            <DistanceMeters>NAN</DistanceMeters>
          </Trackpoint>
          <Trackpoint>
            <Time>2021-04-04T09:27:50.000Z</Time>
            <Position>
              <LatitudeDegrees>42.34842809848487377166748046875</LatitudeDegrees>
              <LongitudeDegrees>2.410864345729351043701171875</LongitudeDegrees>
            </Position>
            <AltitudeMeters>1053.5999755859375</AltitudeMeters>
            <DistanceMeters>NAN</DistanceMeters>
          </Trackpoint>
          <Trackpoint>
            <Time>2021-04-04T09:27:53.000Z</Time>
            <Position>
              <LatitudeDegrees>42.34841041266918182373046875</LatitudeDegrees>
              <LongitudeDegrees>2.41086241789162158966064453125</LongitudeDegrees>
            </Position>
            <AltitudeMeters>1054.199951171875</AltitudeMeters>
            <DistanceMeters>NAN</DistanceMeters>
          </Trackpoint>
          <Trackpoint>
            <Time>2021-04-04T09:27:59.000Z</Time>
            <Position>
              <LatitudeDegrees>42.34839373268187046051025390625</LatitudeDegrees>
              <LongitudeDegrees>2.41086065769195556640625</LongitudeDegrees>
            </Position>
            <AltitudeMeters>1055.4000244140625</AltitudeMeters>
            <DistanceMeters>NAN</DistanceMeters>
          </Trackpoint>
          <Trackpoint>
            <Time>2021-04-04T09:28:07.000Z</Time>
            <Position>
              <LatitudeDegrees>42.34836959280073642730712890625</LatitudeDegrees>
              <LongitudeDegrees>2.41084230132400989532470703125</LongitudeDegrees>
            </Position>
            <AltitudeMeters>1056</AltitudeMeters>
            <DistanceMeters>NAN</DistanceMeters>
          </Trackpoint>
          <Trackpoint>
            <Time>2021-04-04T09:28:10.000Z</Time>
            <Position>
              <LatitudeDegrees>42.348357774317264556884765625</LatitudeDegrees>
              <LongitudeDegrees>2.41083006374537944793701171875</LongitudeDegrees>
            </Position>
            <AltitudeMeters>1056.4000244140625</AltitudeMeters>
            <DistanceMeters>NAN</DistanceMeters>
          </Trackpoint>
          <Trackpoint>
            <Time>2021-04-04T09:28:12.000Z</Time>
            <Position>
              <LatitudeDegrees>42.3483495600521564483642578125</LatitudeDegrees>
              <LongitudeDegrees>2.41081933490931987762451171875</LongitudeDegrees>
            </Position>
            <AltitudeMeters>1056.5999755859375</AltitudeMeters>
            <DistanceMeters>NAN</DistanceMeters>
          </Trackpoint>
          <Trackpoint>
            <Time>2021-04-04T09:28:15.000Z</Time>
            <Position>
              <LatitudeDegrees>42.34834394417703151702880859375</LatitudeDegrees>
              <LongitudeDegrees>2.41080609150230884552001953125</LongitudeDegrees>
            </Position>
            <AltitudeMeters>1057</AltitudeMeters>
            <DistanceMeters>NAN</DistanceMeters>
          </Trackpoint>
          <Trackpoint>
            <Time>2021-04-04T09:28:18.000Z</Time>
            <Position>
              <LatitudeDegrees>42.34834277071058750152587890625</LatitudeDegrees>
              <LongitudeDegrees>2.41080089472234249114990234375</LongitudeDegrees>
            </Position>
            <AltitudeMeters>1057.5999755859375</AltitudeMeters>
            <DistanceMeters>NAN</DistanceMeters>
          </Trackpoint>
          <Trackpoint>
            <Time>2021-04-04T09:28:25.000Z</Time>
            <Position>
              <LatitudeDegrees>42.3483425192534923553466796875</LatitudeDegrees>
              <LongitudeDegrees>2.41078295744955539703369140625</LongitudeDegrees>
            </Position>
            <AltitudeMeters>1058.800048828125</AltitudeMeters>
            <DistanceMeters>NAN</DistanceMeters>
          </Trackpoint>
          <Trackpoint>
            <Time>2021-04-04T09:28:30.000Z</Time>
            <Position>
              <LatitudeDegrees>42.3483465425670146942138671875</LatitudeDegrees>
              <LongitudeDegrees>2.4107627570629119873046875</LongitudeDegrees>
            </Position>
            <AltitudeMeters>1059.5999755859375</AltitudeMeters>
            <DistanceMeters>NAN</DistanceMeters>
          </Trackpoint>
          <Trackpoint>
            <Time>2021-04-04T09:28:32.000Z</Time>
            <Position>
              <LatitudeDegrees>42.348349057137966156005859375</LatitudeDegrees>
              <LongitudeDegrees>2.4107515253126621246337890625</LongitudeDegrees>
            </Position>
            <AltitudeMeters>1059.800048828125</AltitudeMeters>
            <DistanceMeters>NAN</DistanceMeters>
          </Trackpoint>
          <Trackpoint>
            <Time>2021-04-04T09:28:41.000Z</Time>
            <Position>
              <LatitudeDegrees>42.34835417009890079498291015625</LatitudeDegrees>
              <LongitudeDegrees>2.41067650727927684783935546875</LongitudeDegrees>
            </Position>
            <AltitudeMeters>1060.5999755859375</AltitudeMeters>
            <DistanceMeters>NAN</DistanceMeters>
          </Trackpoint>
          <Trackpoint>
            <Time>2021-04-04T09:28:42.000Z</Time>
            <Position>
              <LatitudeDegrees>42.34835450537502765655517578125</LatitudeDegrees>
              <LongitudeDegrees>2.41067080758512020111083984375</LongitudeDegrees>
            </Position>
            <AltitudeMeters>1061</AltitudeMeters>
            <DistanceMeters>NAN</DistanceMeters>
          </Trackpoint>
          <Trackpoint>
            <Time>2021-04-04T09:28:43.000Z</Time>
            <Position>
              <LatitudeDegrees>42.34835484065115451812744140625</LatitudeDegrees>
              <LongitudeDegrees>2.4106650240719318389892578125</LongitudeDegrees>
            </Position>
            <AltitudeMeters>1061.199951171875</AltitudeMeters>
            <DistanceMeters>NAN</DistanceMeters>
          </Trackpoint>
          <Trackpoint>
            <Time>2021-04-04T09:28:49.000Z</Time>
            <Position>
              <LatitudeDegrees>42.34835919924080371856689453125</LatitudeDegrees>
              <LongitudeDegrees>2.41062252782285213470458984375</LongitudeDegrees>
            </Position>
            <AltitudeMeters>1062.199951171875</AltitudeMeters>
            <DistanceMeters>NAN</DistanceMeters>
          </Trackpoint>
          <Trackpoint>
            <Time>2021-04-04T09:28:55.000Z</Time>
            <Position>
              <LatitudeDegrees>42.34836774878203868865966796875</LatitudeDegrees>
              <LongitudeDegrees>2.41058162413537502288818359375</LongitudeDegrees>
            </Position>
            <AltitudeMeters>1063.4000244140625</AltitudeMeters>
            <DistanceMeters>NAN</DistanceMeters>
          </Trackpoint>
          <Trackpoint>
            <Time>2021-04-04T09:28:57.000Z</Time>
            <Position>
              <LatitudeDegrees>42.34837143681943416595458984375</LatitudeDegrees>
              <LongitudeDegrees>2.41056905128061771392822265625</LongitudeDegrees>
            </Position>
            <AltitudeMeters>1063.5999755859375</AltitudeMeters>
            <DistanceMeters>NAN</DistanceMeters>
          </Trackpoint>
          <Trackpoint>
            <Time>2021-04-04T09:29:01.000Z</Time>
            <Position>
              <LatitudeDegrees>42.348377890884876251220703125</LatitudeDegrees>
              <LongitudeDegrees>2.410535775125026702880859375</LongitudeDegrees>
            </Position>
            <AltitudeMeters>1064</AltitudeMeters>
            <DistanceMeters>NAN</DistanceMeters>
          </Trackpoint>
          <Trackpoint>
            <Time>2021-04-04T09:29:03.000Z</Time>
            <Position>
              <LatitudeDegrees>42.3483884520828723907470703125</LatitudeDegrees>
              <LongitudeDegrees>2.41049143485724925994873046875</LongitudeDegrees>
            </Position>
            <AltitudeMeters>1064.5999755859375</AltitudeMeters>
            <DistanceMeters>NAN</DistanceMeters>
          </Trackpoint>
          <Trackpoint>
            <Time>2021-04-04T09:29:05.000Z</Time>
            <Position>
              <LatitudeDegrees>42.34838954173028469085693359375</LatitudeDegrees>
              <LongitudeDegrees>2.410441897809505462646484375</LongitudeDegrees>
            </Position>
            <AltitudeMeters>1065</AltitudeMeters>
            <DistanceMeters>NAN</DistanceMeters>
          </Trackpoint>
          <Trackpoint>
            <Time>2021-04-04T09:29:06.000Z</Time>
            <Position>
              <LatitudeDegrees>42.34838736243546009063720703125</LatitudeDegrees>
              <LongitudeDegrees>2.410421781241893768310546875</LongitudeDegrees>
            </Position>
            <AltitudeMeters>1065</AltitudeMeters>
            <DistanceMeters>NAN</DistanceMeters>
          </Trackpoint>
          <Trackpoint>
            <Time>2021-04-04T09:29:08.000Z</Time>
            <Position>
              <LatitudeDegrees>42.3483829200267791748046875</LatitudeDegrees>
              <LongitudeDegrees>2.4103890918195247650146484375</LongitudeDegrees>
            </Position>
            <AltitudeMeters>1065.4000244140625</AltitudeMeters>
            <DistanceMeters>NAN</DistanceMeters>
          </Trackpoint>
          <Trackpoint>
            <Time>2021-04-04T09:29:10.000Z</Time>
            <Position>
              <LatitudeDegrees>42.34838082455098628997802734375</LatitudeDegrees>
              <LongitudeDegrees>2.4103458411991596221923828125</LongitudeDegrees>
            </Position>
            <AltitudeMeters>1065.5999755859375</AltitudeMeters>
            <DistanceMeters>NAN</DistanceMeters>
          </Trackpoint>
          <Trackpoint>
            <Time>2021-04-04T09:29:12.000Z</Time>
            <Position>
              <LatitudeDegrees>42.3483783937990665435791015625</LatitudeDegrees>
              <LongitudeDegrees>2.4103314243257045745849609375</LongitudeDegrees>
            </Position>
            <AltitudeMeters>1065.5999755859375</AltitudeMeters>
            <DistanceMeters>NAN</DistanceMeters>
          </Trackpoint>
          <Trackpoint>
            <Time>2021-04-04T09:29:14.000Z</Time>
            <Position>
              <LatitudeDegrees>42.34837311320006847381591796875</LatitudeDegrees>
              <LongitudeDegrees>2.41031683981418609619140625</LongitudeDegrees>
            </Position>
            <AltitudeMeters>1065.800048828125</AltitudeMeters>
            <DistanceMeters>NAN</DistanceMeters>
          </Trackpoint>
          <Trackpoint>
            <Time>2021-04-04T09:29:16.000Z</Time>
            <Position>
              <LatitudeDegrees>42.348371855914592742919921875</LatitudeDegrees>
              <LongitudeDegrees>2.4103121459484100341796875</LongitudeDegrees>
            </Position>
            <AltitudeMeters>1066</AltitudeMeters>
            <DistanceMeters>NAN</DistanceMeters>
          </Trackpoint>
          <Trackpoint>
            <Time>2021-04-04T09:29:19.000Z</Time>
            <Position>
              <LatitudeDegrees>42.34837143681943416595458984375</LatitudeDegrees>
              <LongitudeDegrees>2.41031474433839321136474609375</LongitudeDegrees>
            </Position>
            <AltitudeMeters>1066.199951171875</AltitudeMeters>
            <DistanceMeters>NAN</DistanceMeters>
          </Trackpoint>
          <Trackpoint>
            <Time>2021-04-04T09:29:20.000Z</Time>
            <Position>
              <LatitudeDegrees>42.34837126918137073516845703125</LatitudeDegrees>
              <LongitudeDegrees>2.41031390614807605743408203125</LongitudeDegrees>
            </Position>
            <AltitudeMeters>1066.5999755859375</AltitudeMeters>
            <DistanceMeters>NAN</DistanceMeters>
          </Trackpoint>
          <Trackpoint>
            <Time>2021-04-04T09:29:21.000Z</Time>
            <Position>
              <LatitudeDegrees>42.34837160445749759674072265625</LatitudeDegrees>
              <LongitudeDegrees>2.4103099666535854339599609375</LongitudeDegrees>
            </Position>
            <AltitudeMeters>1066.800048828125</AltitudeMeters>
            <DistanceMeters>NAN</DistanceMeters>
          </Trackpoint>
          <Trackpoint>
            <Time>2021-04-04T09:29:24.000Z</Time>
            <Position>
              <LatitudeDegrees>42.34837160445749759674072265625</LatitudeDegrees>
              <LongitudeDegrees>2.4102888442575931549072265625</LongitudeDegrees>
            </Position>
            <AltitudeMeters>1067.199951171875</AltitudeMeters>
            <DistanceMeters>NAN</DistanceMeters>
          </Trackpoint>
          <Trackpoint>
            <Time>2021-04-04T09:29:25.000Z</Time>
            <Position>
              <LatitudeDegrees>42.34836992807686328887939453125</LatitudeDegrees>
              <LongitudeDegrees>2.41028104908764362335205078125</LongitudeDegrees>
            </Position>
            <AltitudeMeters>1067.4000244140625</AltitudeMeters>
            <DistanceMeters>NAN</DistanceMeters>
          </Trackpoint>
          <Trackpoint>
            <Time>2021-04-04T09:29:26.000Z</Time>
            <Position>
              <LatitudeDegrees>42.3483669944107532501220703125</LatitudeDegrees>
              <LongitudeDegrees>2.410275600850582122802734375</LongitudeDegrees>
            </Position>
            <AltitudeMeters>1067.4000244140625</AltitudeMeters>
            <DistanceMeters>NAN</DistanceMeters>
          </Trackpoint>
          <Trackpoint>
            <Time>2021-04-04T09:29:30.000Z</Time>
            <Position>
              <LatitudeDegrees>42.34836154617369174957275390625</LatitudeDegrees>
              <LongitudeDegrees>2.4102207832038402557373046875</LongitudeDegrees>
            </Position>
            <AltitudeMeters>1067.800048828125</AltitudeMeters>
            <DistanceMeters>NAN</DistanceMeters>
          </Trackpoint>
          <Trackpoint>
            <Time>2021-04-04T09:29:32.000Z</Time>
            <Position>
              <LatitudeDegrees>42.34836288727819919586181640625</LatitudeDegrees>
              <LongitudeDegrees>2.41020795889198780059814453125</LongitudeDegrees>
            </Position>
            <AltitudeMeters>1068.199951171875</AltitudeMeters>
            <DistanceMeters>NAN</DistanceMeters>
          </Trackpoint>
          <Trackpoint>
            <Time>2021-04-04T09:29:38.000Z</Time>
            <Position>
              <LatitudeDegrees>42.34836322255432605743408203125</LatitudeDegrees>
              <LongitudeDegrees>2.4101646244525909423828125</LongitudeDegrees>
            </Position>
            <AltitudeMeters>1069</AltitudeMeters>
            <DistanceMeters>NAN</DistanceMeters>
          </Trackpoint>
          <Trackpoint>
            <Time>2021-04-04T09:29:43.000Z</Time>
            <Position>
              <LatitudeDegrees>42.3483710177242755889892578125</LatitudeDegrees>
              <LongitudeDegrees>2.41012036800384521484375</LongitudeDegrees>
            </Position>
            <AltitudeMeters>1069.5999755859375</AltitudeMeters>
            <DistanceMeters>NAN</DistanceMeters>
          </Trackpoint>
          <Trackpoint>
            <Time>2021-04-04T09:29:46.000Z</Time>
            <Position>
              <LatitudeDegrees>42.34837160445749759674072265625</LatitudeDegrees>
              <LongitudeDegrees>2.4100746028125286102294921875</LongitudeDegrees>
            </Position>
            <AltitudeMeters>1070</AltitudeMeters>
            <DistanceMeters>NAN</DistanceMeters>
          </Trackpoint>
          <Trackpoint>
            <Time>2021-04-04T09:29:50.000Z</Time>
            <Position>
              <LatitudeDegrees>42.3483498953282833099365234375</LatitudeDegrees>
              <LongitudeDegrees>2.41006932221353054046630859375</LongitudeDegrees>
            </Position>
            <AltitudeMeters>1070.4000244140625</AltitudeMeters>
            <DistanceMeters>NAN</DistanceMeters>
          </Trackpoint>
          <Trackpoint>
            <Time>2021-04-04T09:29:53.000Z</Time>
            <Position>
              <LatitudeDegrees>42.34833656810224056243896484375</LatitudeDegrees>
              <LongitudeDegrees>2.41003931500017642974853515625</LongitudeDegrees>
            </Position>
            <AltitudeMeters>1070.4000244140625</AltitudeMeters>
            <DistanceMeters>NAN</DistanceMeters>
          </Trackpoint>
          <Trackpoint>
            <Time>2021-04-04T09:29:54.000Z</Time>
            <Position>
              <LatitudeDegrees>42.348327599465847015380859375</LatitudeDegrees>
              <LongitudeDegrees>2.41003328002989292144775390625</LongitudeDegrees>
            </Position>
            <AltitudeMeters>1070.5999755859375</AltitudeMeters>
            <DistanceMeters>NAN</DistanceMeters>
          </Trackpoint>
          <Trackpoint>
            <Time>2021-04-04T09:29:55.000Z</Time>
            <Position>
              <LatitudeDegrees>42.34832181595265865325927734375</LatitudeDegrees>
              <LongitudeDegrees>2.41002590395510196685791015625</LongitudeDegrees>
            </Position>
            <AltitudeMeters>1070.5999755859375</AltitudeMeters>
            <DistanceMeters>NAN</DistanceMeters>
          </Trackpoint>
          <Trackpoint>
            <Time>2021-04-04T09:29:56.000Z</Time>
            <Position>
              <LatitudeDegrees>42.34831787645816802978515625</LatitudeDegrees>
              <LongitudeDegrees>2.41001768968999385833740234375</LongitudeDegrees>
            </Position>
            <AltitudeMeters>1070.5999755859375</AltitudeMeters>
            <DistanceMeters>NAN</DistanceMeters>
          </Trackpoint>
          <Trackpoint>
            <Time>2021-04-04T09:29:58.000Z</Time>
            <Position>
              <LatitudeDegrees>42.34831385314464569091796875</LatitudeDegrees>
              <LongitudeDegrees>2.4100025184452533721923828125</LongitudeDegrees>
            </Position>
            <AltitudeMeters>1070.800048828125</AltitudeMeters>
            <DistanceMeters>NAN</DistanceMeters>
          </Trackpoint>
          <Trackpoint>
            <Time>2021-04-04T09:29:59.000Z</Time>
            <Position>
              <LatitudeDegrees>42.348309494554996490478515625</LatitudeDegrees>
              <LongitudeDegrees>2.40999405272305011749267578125</LongitudeDegrees>
            </Position>
            <AltitudeMeters>1071</AltitudeMeters>
            <DistanceMeters>NAN</DistanceMeters>
          </Trackpoint>
          <Trackpoint>
            <Time>2021-04-04T09:30:02.000Z</Time>
            <Position>
              <LatitudeDegrees>42.34830454923212528228759765625</LatitudeDegrees>
              <LongitudeDegrees>2.40997125394642353057861328125</LongitudeDegrees>
            </Position>
            <AltitudeMeters>1071.4000244140625</AltitudeMeters>
            <DistanceMeters>NAN</DistanceMeters>
          </Trackpoint>
          <Trackpoint>
            <Time>2021-04-04T09:30:04.000Z</Time>
            <Position>
              <LatitudeDegrees>42.3483049683272838592529296875</LatitudeDegrees>
              <LongitudeDegrees>2.4099482037127017974853515625</LongitudeDegrees>
            </Position>
            <AltitudeMeters>1071.4000244140625</AltitudeMeters>
            <DistanceMeters>NAN</DistanceMeters>
          </Trackpoint>
          <Trackpoint>
            <Time>2021-04-04T09:30:06.000Z</Time>
            <Position>
              <LatitudeDegrees>42.3483032919466495513916015625</LatitudeDegrees>
              <LongitudeDegrees>2.40992515347898006439208984375</LongitudeDegrees>
            </Position>
            <AltitudeMeters>1071.5999755859375</AltitudeMeters>
            <DistanceMeters>NAN</DistanceMeters>
          </Trackpoint>
          <Trackpoint>
            <Time>2021-04-04T09:30:09.000Z</Time>
            <Position>
              <LatitudeDegrees>42.34830102883279323577880859375</LatitudeDegrees>
              <LongitudeDegrees>2.4098964035511016845703125</LongitudeDegrees>
            </Position>
            <AltitudeMeters>1071.800048828125</AltitudeMeters>
            <DistanceMeters>NAN</DistanceMeters>
          </Trackpoint>
          <Trackpoint>
            <Time>2021-04-04T09:30:12.000Z</Time>
            <Position>
              <LatitudeDegrees>42.34830706380307674407958984375</LatitudeDegrees>
              <LongitudeDegrees>2.40986145101487636566162109375</LongitudeDegrees>
            </Position>
            <AltitudeMeters>1072</AltitudeMeters>
            <DistanceMeters>NAN</DistanceMeters>
          </Trackpoint>
          <Trackpoint>
            <Time>2021-04-04T09:30:13.000Z</Time>
            <Position>
              <LatitudeDegrees>42.348306141793727874755859375</LatitudeDegrees>
              <LongitudeDegrees>2.40985139273107051849365234375</LongitudeDegrees>
            </Position>
            <AltitudeMeters>1072</AltitudeMeters>
            <DistanceMeters>NAN</DistanceMeters>
          </Trackpoint>
          <Trackpoint>
            <Time>2021-04-04T09:30:16.000Z</Time>
            <Position>
              <LatitudeDegrees>42.34830220229923725128173828125</LatitudeDegrees>
              <LongitudeDegrees>2.40981786511838436126708984375</LongitudeDegrees>
            </Position>
            <AltitudeMeters>1072.4000244140625</AltitudeMeters>
            <DistanceMeters>NAN</DistanceMeters>
          </Trackpoint>
          <Trackpoint>
            <Time>2021-04-04T09:30:21.000Z</Time>
            <Position>
              <LatitudeDegrees>42.34830387867987155914306640625</LatitudeDegrees>
              <LongitudeDegrees>2.40978400222957134246826171875</LongitudeDegrees>
            </Position>
            <AltitudeMeters>1073</AltitudeMeters>
            <DistanceMeters>NAN</DistanceMeters>
          </Trackpoint>
          <Trackpoint>
            <Time>2021-04-04T09:30:22.000Z</Time>
            <Position>
              <LatitudeDegrees>42.34830538742244243621826171875</LatitudeDegrees>
              <LongitudeDegrees>2.4097788892686367034912109375</LongitudeDegrees>
            </Position>
            <AltitudeMeters>1073</AltitudeMeters>
            <DistanceMeters>NAN</DistanceMeters>
          </Trackpoint>
          <Trackpoint>
            <Time>2021-04-04T09:30:23.000Z</Time>
            <Position>
              <LatitudeDegrees>42.3483049683272838592529296875</LatitudeDegrees>
              <LongitudeDegrees>2.40977394394576549530029296875</LongitudeDegrees>
            </Position>
            <AltitudeMeters>1073.199951171875</AltitudeMeters>
            <DistanceMeters>NAN</DistanceMeters>
          </Trackpoint>
          <Trackpoint>
            <Time>2021-04-04T09:30:26.000Z</Time>
            <Position>
              <LatitudeDegrees>42.34829968772828578948974609375</LatitudeDegrees>
              <LongitudeDegrees>2.40974175743758678436279296875</LongitudeDegrees>
            </Position>
            <AltitudeMeters>1073.5999755859375</AltitudeMeters>
            <DistanceMeters>NAN</DistanceMeters>
          </Trackpoint>
          <Trackpoint>
            <Time>2021-04-04T09:30:29.000Z</Time>
            <Position>
              <LatitudeDegrees>42.3482942394912242889404296875</LatitudeDegrees>
              <LongitudeDegrees>2.40970454178750514984130859375</LongitudeDegrees>
            </Position>
            <AltitudeMeters>1074</AltitudeMeters>
            <DistanceMeters>NAN</DistanceMeters>
          </Trackpoint>
          <Trackpoint>
            <Time>2021-04-04T09:30:30.000Z</Time>
            <Position>
              <LatitudeDegrees>42.34829247929155826568603515625</LatitudeDegrees>
              <LongitudeDegrees>2.409693561494350433349609375</LongitudeDegrees>
            </Position>
            <AltitudeMeters>1074.199951171875</AltitudeMeters>
            <DistanceMeters>NAN</DistanceMeters>
          </Trackpoint>
          <Trackpoint>
            <Time>2021-04-04T09:30:35.000Z</Time>
            <Position>
              <LatitudeDegrees>42.3482935689389705657958984375</LatitudeDegrees>
              <LongitudeDegrees>2.40963312797248363494873046875</LongitudeDegrees>
            </Position>
            <AltitudeMeters>1074.800048828125</AltitudeMeters>
            <DistanceMeters>NAN</DistanceMeters>
          </Trackpoint>
          <Trackpoint>
            <Time>2021-04-04T09:30:38.000Z</Time>
            <Position>
              <LatitudeDegrees>42.34829817898571491241455078125</LatitudeDegrees>
              <LongitudeDegrees>2.40960412658751010894775390625</LongitudeDegrees>
            </Position>
            <AltitudeMeters>1074.800048828125</AltitudeMeters>
            <DistanceMeters>NAN</DistanceMeters>
          </Trackpoint>
          <Trackpoint>
            <Time>2021-04-04T09:30:39.000Z</Time>
            <Position>
              <LatitudeDegrees>42.348298765718936920166015625</LatitudeDegrees>
              <LongitudeDegrees>2.40959423594176769256591796875</LongitudeDegrees>
            </Position>
            <AltitudeMeters>1074.800048828125</AltitudeMeters>
            <DistanceMeters>NAN</DistanceMeters>
          </Trackpoint>
          <Trackpoint>
            <Time>2021-04-04T09:30:41.000Z</Time>
            <Position>
              <LatitudeDegrees>42.34830203466117382049560546875</LatitudeDegrees>
              <LongitudeDegrees>2.409570179879665374755859375</LongitudeDegrees>
            </Position>
            <AltitudeMeters>1075.199951171875</AltitudeMeters>
            <DistanceMeters>NAN</DistanceMeters>
          </Trackpoint>
          <Trackpoint>
            <Time>2021-04-04T09:30:43.000Z</Time>
            <Position>
              <LatitudeDegrees>42.34831075184047222137451171875</LatitudeDegrees>
              <LongitudeDegrees>2.40955316461622714996337890625</LongitudeDegrees>
            </Position>
            <AltitudeMeters>1075.4000244140625</AltitudeMeters>
            <DistanceMeters>NAN</DistanceMeters>
          </Trackpoint>
          <Trackpoint>
            <Time>2021-04-04T09:30:46.000Z</Time>
            <Position>
              <LatitudeDegrees>42.34831511043012142181396484375</LatitudeDegrees>
              <LongitudeDegrees>2.40952449850738048553466796875</LongitudeDegrees>
            </Position>
            <AltitudeMeters>1075.5999755859375</AltitudeMeters>
            <DistanceMeters>NAN</DistanceMeters>
          </Trackpoint>
          <Trackpoint>
            <Time>2021-04-04T09:30:51.000Z</Time>
            <Position>
              <LatitudeDegrees>42.34831695444881916046142578125</LatitudeDegrees>
              <LongitudeDegrees>2.40947605110704898834228515625</LongitudeDegrees>
            </Position>
            <AltitudeMeters>1076.199951171875</AltitudeMeters>
            <DistanceMeters>NAN</DistanceMeters>
          </Trackpoint>
          <Trackpoint>
            <Time>2021-04-04T09:30:58.000Z</Time>
            <Position>
              <LatitudeDegrees>42.34831544570624828338623046875</LatitudeDegrees>
              <LongitudeDegrees>2.40940799005329608917236328125</LongitudeDegrees>
            </Position>
            <AltitudeMeters>1077.4000244140625</AltitudeMeters>
            <DistanceMeters>NAN</DistanceMeters>
          </Trackpoint>
          <Trackpoint>
            <Time>2021-04-04T09:31:03.000Z</Time>
            <Position>
              <LatitudeDegrees>42.348327934741973876953125</LatitudeDegrees>
              <LongitudeDegrees>2.40936926566064357757568359375</LongitudeDegrees>
            </Position>
            <AltitudeMeters>1077.800048828125</AltitudeMeters>
            <DistanceMeters>NAN</DistanceMeters>
          </Trackpoint>
          <Trackpoint>
            <Time>2021-04-04T09:31:09.000Z</Time>
            <Position>
              <LatitudeDegrees>42.3483462072908878326416015625</LatitudeDegrees>
              <LongitudeDegrees>2.409315370023250579833984375</LongitudeDegrees>
            </Position>
            <AltitudeMeters>1078.4000244140625</AltitudeMeters>
            <DistanceMeters>NAN</DistanceMeters>
          </Trackpoint>
          <Trackpoint>
            <Time>2021-04-04T09:31:10.000Z</Time>
            <Position>
              <LatitudeDegrees>42.348350398242473602294921875</LatitudeDegrees>
              <LongitudeDegrees>2.40930967032909393310546875</LongitudeDegrees>
            </Position>
            <AltitudeMeters>1078.5999755859375</AltitudeMeters>
            <DistanceMeters>NAN</DistanceMeters>
          </Trackpoint>
          <Trackpoint>
            <Time>2021-04-04T09:31:14.000Z</Time>
            <Position>
              <LatitudeDegrees>42.3483626358211040496826171875</LatitudeDegrees>
              <LongitudeDegrees>2.4092789925634860992431640625</LongitudeDegrees>
            </Position>
            <AltitudeMeters>1079.199951171875</AltitudeMeters>
            <DistanceMeters>NAN</DistanceMeters>
          </Trackpoint>
          <Trackpoint>
            <Time>2021-04-04T09:31:16.000Z</Time>
            <Position>
              <LatitudeDegrees>42.348369844257831573486328125</LatitudeDegrees>
              <LongitudeDegrees>2.40926667116582393646240234375</LongitudeDegrees>
            </Position>
            <AltitudeMeters>1079.4000244140625</AltitudeMeters>
            <DistanceMeters>NAN</DistanceMeters>
          </Trackpoint>
          <Trackpoint>
            <Time>2021-04-04T09:31:19.000Z</Time>
            <Position>
              <LatitudeDegrees>42.34838015399873256683349609375</LatitudeDegrees>
              <LongitudeDegrees>2.40924119018018245697021484375</LongitudeDegrees>
            </Position>
            <AltitudeMeters>1080</AltitudeMeters>
            <DistanceMeters>NAN</DistanceMeters>
          </Trackpoint>
          <Trackpoint>
            <Time>2021-04-04T09:31:20.000Z</Time>
            <Position>
              <LatitudeDegrees>42.348386943340301513671875</LatitudeDegrees>
              <LongitudeDegrees>2.40923599340021610260009765625</LongitudeDegrees>
            </Position>
            <AltitudeMeters>1080.199951171875</AltitudeMeters>
            <DistanceMeters>NAN</DistanceMeters>
          </Trackpoint>
          <Trackpoint>
            <Time>2021-04-04T09:31:24.000Z</Time>
            <Position>
              <LatitudeDegrees>42.3483961634337902069091796875</LatitudeDegrees>
              <LongitudeDegrees>2.4092266894876956939697265625</LongitudeDegrees>
            </Position>
            <AltitudeMeters>1080.4000244140625</AltitudeMeters>
            <DistanceMeters>NAN</DistanceMeters>
          </Trackpoint>
          <Trackpoint>
            <Time>2021-04-04T09:31:25.000Z</Time>
            <Position>
              <LatitudeDegrees>42.34840027056634426116943359375</LatitudeDegrees>
              <LongitudeDegrees>2.4092213250696659088134765625</LongitudeDegrees>
            </Position>
            <AltitudeMeters>1080.5999755859375</AltitudeMeters>
            <DistanceMeters>NAN</DistanceMeters>
          </Trackpoint>
          <Trackpoint>
            <Time>2021-04-04T09:31:34.000Z</Time>
            <Position>
              <LatitudeDegrees>42.34844125807285308837890625</LatitudeDegrees>
              <LongitudeDegrees>2.4091693572700023651123046875</LongitudeDegrees>
            </Position>
            <AltitudeMeters>1081.5999755859375</AltitudeMeters>
            <DistanceMeters>NAN</DistanceMeters>
          </Trackpoint>
          <Trackpoint>
            <Time>2021-04-04T09:31:36.000Z</Time>
            <Position>
              <LatitudeDegrees>42.34844888560473918914794921875</LatitudeDegrees>
              <LongitudeDegrees>2.4091576226055622100830078125</LongitudeDegrees>
            </Position>
            <AltitudeMeters>1081.800048828125</AltitudeMeters>
            <DistanceMeters>NAN</DistanceMeters>
          </Trackpoint>
          <Trackpoint>
            <Time>2021-04-04T09:31:42.000Z</Time>
            <Position>
              <LatitudeDegrees>42.34845844097435474395751953125</LatitudeDegrees>
              <LongitudeDegrees>2.4091093428432941436767578125</LongitudeDegrees>
            </Position>
            <AltitudeMeters>1082.199951171875</AltitudeMeters>
            <DistanceMeters>NAN</DistanceMeters>
          </Trackpoint>
          <Trackpoint>
            <Time>2021-04-04T09:31:47.000Z</Time>
            <Position>
              <LatitudeDegrees>42.34847302548587322235107421875</LatitudeDegrees>
              <LongitudeDegrees>2.40906567312777042388916015625</LongitudeDegrees>
            </Position>
            <AltitudeMeters>1082.5999755859375</AltitudeMeters>
            <DistanceMeters>NAN</DistanceMeters>
          </Trackpoint>
          <Trackpoint>
            <Time>2021-04-04T09:31:51.000Z</Time>
            <Position>
              <LatitudeDegrees>42.3484866879880428314208984375</LatitudeDegrees>
              <LongitudeDegrees>2.40903818048536777496337890625</LongitudeDegrees>
            </Position>
            <AltitudeMeters>1083.199951171875</AltitudeMeters>
            <DistanceMeters>NAN</DistanceMeters>
          </Trackpoint>
          <Trackpoint>
            <Time>2021-04-04T09:31:54.000Z</Time>
            <Position>
              <LatitudeDegrees>42.34849431551992893218994140625</LatitudeDegrees>
              <LongitudeDegrees>2.4090074189007282257080078125</LongitudeDegrees>
            </Position>
            <AltitudeMeters>1083.4000244140625</AltitudeMeters>
            <DistanceMeters>NAN</DistanceMeters>
          </Trackpoint>
          <Trackpoint>
            <Time>2021-04-04T09:31:57.000Z</Time>
            <Position>
              <LatitudeDegrees>42.3485034517943859100341796875</LatitudeDegrees>
              <LongitudeDegrees>2.4089866317808628082275390625</LongitudeDegrees>
            </Position>
            <AltitudeMeters>1083.5999755859375</AltitudeMeters>
            <DistanceMeters>NAN</DistanceMeters>
          </Trackpoint>
          <Trackpoint>
            <Time>2021-04-04T09:32:02.000Z</Time>
            <Position>
              <LatitudeDegrees>42.3485071398317813873291015625</LatitudeDegrees>
              <LongitudeDegrees>2.40893290378153324127197265625</LongitudeDegrees>
            </Position>
            <AltitudeMeters>1084</AltitudeMeters>
            <DistanceMeters>NAN</DistanceMeters>
          </Trackpoint>
          <Trackpoint>
            <Time>2021-04-04T09:32:03.000Z</Time>
            <Position>
              <LatitudeDegrees>42.34850890003144741058349609375</LatitudeDegrees>
              <LongitudeDegrees>2.40892485715448856353759765625</LongitudeDegrees>
            </Position>
            <AltitudeMeters>1084</AltitudeMeters>
            <DistanceMeters>NAN</DistanceMeters>
          </Trackpoint>
          <Trackpoint>
            <Time>2021-04-04T09:32:10.000Z</Time>
            <Position>
              <LatitudeDegrees>42.34851057641208171844482421875</LatitudeDegrees>
              <LongitudeDegrees>2.40888160653412342071533203125</LongitudeDegrees>
            </Position>
            <AltitudeMeters>1084.800048828125</AltitudeMeters>
            <DistanceMeters>NAN</DistanceMeters>
          </Trackpoint>
          <Trackpoint>
            <Time>2021-04-04T09:32:15.000Z</Time>
            <Position>
              <LatitudeDegrees>42.3485182039439678192138671875</LatitudeDegrees>
              <LongitudeDegrees>2.40884162485599517822265625</LongitudeDegrees>
            </Position>
            <AltitudeMeters>1085.199951171875</AltitudeMeters>
            <DistanceMeters>NAN</DistanceMeters>
          </Trackpoint>
          <Trackpoint>
            <Time>2021-04-04T09:32:19.000Z</Time>
            <Position>
              <LatitudeDegrees>42.34852197580039501190185546875</LatitudeDegrees>
              <LongitudeDegrees>2.40881706587970256805419921875</LongitudeDegrees>
            </Position>
            <AltitudeMeters>1085.5999755859375</AltitudeMeters>
            <DistanceMeters>NAN</DistanceMeters>
          </Trackpoint>
          <Trackpoint>
            <Time>2021-04-04T09:32:21.000Z</Time>
            <Position>
              <LatitudeDegrees>42.3485332913696765899658203125</LatitudeDegrees>
              <LongitudeDegrees>2.40879946388304233551025390625</LongitudeDegrees>
            </Position>
            <AltitudeMeters>1086</AltitudeMeters>
            <DistanceMeters>NAN</DistanceMeters>
          </Trackpoint>
          <Trackpoint>
            <Time>2021-04-04T09:32:28.000Z</Time>
            <Position>
              <LatitudeDegrees>42.34855483286082744598388671875</LatitudeDegrees>
              <LongitudeDegrees>2.40876325406134128570556640625</LongitudeDegrees>
            </Position>
            <AltitudeMeters>1087</AltitudeMeters>
            <DistanceMeters>NAN</DistanceMeters>
          </Trackpoint>
          <Trackpoint>
            <Time>2021-04-04T09:32:32.000Z</Time>
            <Position>
              <LatitudeDegrees>42.3485638014972209930419921875</LatitudeDegrees>
              <LongitudeDegrees>2.40873525850474834442138671875</LongitudeDegrees>
            </Position>
            <AltitudeMeters>1087.5999755859375</AltitudeMeters>
            <DistanceMeters>NAN</DistanceMeters>
          </Trackpoint>
          <Trackpoint>
            <Time>2021-04-04T09:32:37.000Z</Time>
            <Position>
              <LatitudeDegrees>42.34857578761875629425048828125</LatitudeDegrees>
              <LongitudeDegrees>2.40870349109172821044921875</LongitudeDegrees>
            </Position>
            <AltitudeMeters>1088.199951171875</AltitudeMeters>
            <DistanceMeters>NAN</DistanceMeters>
          </Trackpoint>
          <Trackpoint>
            <Time>2021-04-04T09:32:38.000Z</Time>
            <Position>
              <LatitudeDegrees>42.34857645817101001739501953125</LatitudeDegrees>
              <LongitudeDegrees>2.4086982943117618560791015625</LongitudeDegrees>
            </Position>
            <AltitudeMeters>1088.4000244140625</AltitudeMeters>
            <DistanceMeters>NAN</DistanceMeters>
          </Trackpoint>
          <Trackpoint>
            <Time>2021-04-04T09:32:46.000Z</Time>
            <Position>
              <LatitudeDegrees>42.34858936630189418792724609375</LatitudeDegrees>
              <LongitudeDegrees>2.40865227766335010528564453125</LongitudeDegrees>
            </Position>
            <AltitudeMeters>1089.199951171875</AltitudeMeters>
            <DistanceMeters>NAN</DistanceMeters>
          </Trackpoint>
          <Trackpoint>
            <Time>2021-04-04T09:32:49.000Z</Time>
            <Position>
              <LatitudeDegrees>42.348595149815082550048828125</LatitudeDegrees>
              <LongitudeDegrees>2.4086315743625164031982421875</LongitudeDegrees>
            </Position>
            <AltitudeMeters>1089.5999755859375</AltitudeMeters>
            <DistanceMeters>NAN</DistanceMeters>
          </Trackpoint>
          <Trackpoint>
            <Time>2021-04-04T09:32:53.000Z</Time>
            <Position>
              <LatitudeDegrees>42.34859288670122623443603515625</LatitudeDegrees>
              <LongitudeDegrees>2.4086081050336360931396484375</LongitudeDegrees>
            </Position>
            <AltitudeMeters>1090.199951171875</AltitudeMeters>
            <DistanceMeters>NAN</DistanceMeters>
          </Trackpoint>
          <Trackpoint>
            <Time>2021-04-04T09:32:54.000Z</Time>
            <Position>
              <LatitudeDegrees>42.348593808710575103759765625</LatitudeDegrees>
              <LongitudeDegrees>2.40860098041594028472900390625</LongitudeDegrees>
            </Position>
            <AltitudeMeters>1090.4000244140625</AltitudeMeters>
            <DistanceMeters>NAN</DistanceMeters>
          </Trackpoint>
          <Trackpoint>
            <Time>2021-04-04T09:33:04.000Z</Time>
            <Position>
              <LatitudeDegrees>42.34861618839204311370849609375</LatitudeDegrees>
              <LongitudeDegrees>2.40853040479123592376708984375</LongitudeDegrees>
            </Position>
            <AltitudeMeters>1091.5999755859375</AltitudeMeters>
            <DistanceMeters>NAN</DistanceMeters>
          </Trackpoint>
          <Trackpoint>
            <Time>2021-04-04T09:33:11.000Z</Time>
            <Position>
              <LatitudeDegrees>42.3486486263573169708251953125</LatitudeDegrees>
              <LongitudeDegrees>2.40848815999925136566162109375</LongitudeDegrees>
            </Position>
            <AltitudeMeters>1092.5999755859375</AltitudeMeters>
            <DistanceMeters>NAN</DistanceMeters>
          </Trackpoint>
          <Trackpoint>
            <Time>2021-04-04T09:33:13.000Z</Time>
            <Position>
              <LatitudeDegrees>42.3486591875553131103515625</LatitudeDegrees>
              <LongitudeDegrees>2.40847282111644744873046875</LongitudeDegrees>
            </Position>
            <AltitudeMeters>1092.800048828125</AltitudeMeters>
            <DistanceMeters>NAN</DistanceMeters>
          </Trackpoint>
          <Trackpoint>
            <Time>2021-04-04T09:33:17.000Z</Time>
            <Position>
              <LatitudeDegrees>42.34866228885948657989501953125</LatitudeDegrees>
              <LongitudeDegrees>2.40845480002462863922119140625</LongitudeDegrees>
            </Position>
            <AltitudeMeters>1093.800048828125</AltitudeMeters>
            <DistanceMeters>NAN</DistanceMeters>
          </Trackpoint>
          <Trackpoint>
            <Time>2021-04-04T09:33:21.000Z</Time>
            <Position>
              <LatitudeDegrees>42.34867787919938564300537109375</LatitudeDegrees>
              <LongitudeDegrees>2.40842320024967193603515625</LongitudeDegrees>
            </Position>
            <AltitudeMeters>1094.4000244140625</AltitudeMeters>
            <DistanceMeters>NAN</DistanceMeters>
          </Trackpoint>
          <Trackpoint>
            <Time>2021-04-04T09:33:25.000Z</Time>
            <Position>
              <LatitudeDegrees>42.3486821539700031280517578125</LatitudeDegrees>
              <LongitudeDegrees>2.408392019569873809814453125</LongitudeDegrees>
            </Position>
            <AltitudeMeters>1094.800048828125</AltitudeMeters>
            <DistanceMeters>NAN</DistanceMeters>
          </Trackpoint>
          <Trackpoint>
            <Time>2021-04-04T09:33:27.000Z</Time>
            <Position>
              <LatitudeDegrees>42.34868207015097141265869140625</LatitudeDegrees>
              <LongitudeDegrees>2.4083838053047657012939453125</LongitudeDegrees>
            </Position>
            <AltitudeMeters>1095.199951171875</AltitudeMeters>
            <DistanceMeters>NAN</DistanceMeters>
          </Trackpoint>
          <Trackpoint>
            <Time>2021-04-04T09:33:33.000Z</Time>
            <Position>
              <LatitudeDegrees>42.3486895300447940826416015625</LatitudeDegrees>
              <LongitudeDegrees>2.4083502776920795440673828125</LongitudeDegrees>
            </Position>
            <AltitudeMeters>1096</AltitudeMeters>
            <DistanceMeters>NAN</DistanceMeters>
          </Trackpoint>
          <Trackpoint>
            <Time>2021-04-04T09:33:34.000Z</Time>
            <Position>
              <LatitudeDegrees>42.34868911094963550567626953125</LatitudeDegrees>
              <LongitudeDegrees>2.40834114141762256622314453125</LongitudeDegrees>
            </Position>
            <AltitudeMeters>1096.4000244140625</AltitudeMeters>
            <DistanceMeters>NAN</DistanceMeters>
          </Trackpoint>
          <Trackpoint>
            <Time>2021-04-04T09:33:37.000Z</Time>
            <Position>
              <LatitudeDegrees>42.3486898653209209442138671875</LatitudeDegrees>
              <LongitudeDegrees>2.40831012837588787078857421875</LongitudeDegrees>
            </Position>
            <AltitudeMeters>1097</AltitudeMeters>
            <DistanceMeters>NAN</DistanceMeters>
          </Trackpoint>
          <Trackpoint>
            <Time>2021-04-04T09:33:42.000Z</Time>
            <Position>
              <LatitudeDegrees>42.34869363717734813690185546875</LatitudeDegrees>
              <LongitudeDegrees>2.40831096656620502471923828125</LongitudeDegrees>
            </Position>
            <AltitudeMeters>1097.5999755859375</AltitudeMeters>
            <DistanceMeters>NAN</DistanceMeters>
          </Trackpoint>
          <Trackpoint>
            <Time>2021-04-04T09:33:50.000Z</Time>
            <Position>
              <LatitudeDegrees>42.3486793041229248046875</LatitudeDegrees>
              <LongitudeDegrees>2.4082517065107822418212890625</LongitudeDegrees>
            </Position>
            <AltitudeMeters>1097.800048828125</AltitudeMeters>
            <DistanceMeters>NAN</DistanceMeters>
          </Trackpoint>
          <Trackpoint>
            <Time>2021-04-04T09:33:52.000Z</Time>
            <Position>
              <LatitudeDegrees>42.3486779630184173583984375</LatitudeDegrees>
              <LongitudeDegrees>2.40823485888540744781494140625</LongitudeDegrees>
            </Position>
            <AltitudeMeters>1098.199951171875</AltitudeMeters>
            <DistanceMeters>NAN</DistanceMeters>
          </Trackpoint>
          <Trackpoint>
            <Time>2021-04-04T09:33:56.000Z</Time>
            <Position>
              <LatitudeDegrees>42.34868190251290798187255859375</LatitudeDegrees>
              <LongitudeDegrees>2.4081903509795665740966796875</LongitudeDegrees>
            </Position>
            <AltitudeMeters>1098.800048828125</AltitudeMeters>
            <DistanceMeters>NAN</DistanceMeters>
          </Trackpoint>
          <Trackpoint>
            <Time>2021-04-04T09:33:59.000Z</Time>
            <Position>
              <LatitudeDegrees>42.34868207015097141265869140625</LatitudeDegrees>
              <LongitudeDegrees>2.40820367820560932159423828125</LongitudeDegrees>
            </Position>
            <AltitudeMeters>1099.199951171875</AltitudeMeters>
            <DistanceMeters>NAN</DistanceMeters>
          </Trackpoint>
          <Trackpoint>
            <Time>2021-04-04T09:34:00.000Z</Time>
            <Position>
              <LatitudeDegrees>42.3486851714551448822021484375</LatitudeDegrees>
              <LongitudeDegrees>2.40820166654884815216064453125</LongitudeDegrees>
            </Position>
            <AltitudeMeters>1099.4000244140625</AltitudeMeters>
            <DistanceMeters>NAN</DistanceMeters>
          </Trackpoint>
          <Trackpoint>
            <Time>2021-04-04T09:34:04.000Z</Time>
            <Position>
              <LatitudeDegrees>42.348689027130603790283203125</LatitudeDegrees>
              <LongitudeDegrees>2.4081905186176300048828125</LongitudeDegrees>
            </Position>
            <AltitudeMeters>1099.800048828125</AltitudeMeters>
            <DistanceMeters>NAN</DistanceMeters>
          </Trackpoint>
          <Trackpoint>
            <Time>2021-04-04T09:34:08.000Z</Time>
            <Position>
              <LatitudeDegrees>42.3486834950745105743408203125</LatitudeDegrees>
              <LongitudeDegrees>2.4081521295011043548583984375</LongitudeDegrees>
            </Position>
            <AltitudeMeters>1100</AltitudeMeters>
            <DistanceMeters>NAN</DistanceMeters>
          </Trackpoint>
          <Trackpoint>
            <Time>2021-04-04T09:34:10.000Z</Time>
            <Position>
              <LatitudeDegrees>42.34869414009153842926025390625</LatitudeDegrees>
              <LongitudeDegrees>2.40812949836254119873046875</LongitudeDegrees>
            </Position>
            <AltitudeMeters>1100.4000244140625</AltitudeMeters>
            <DistanceMeters>NAN</DistanceMeters>
          </Trackpoint>
          <Trackpoint>
            <Time>2021-04-04T09:34:12.000Z</Time>
            <Position>
              <LatitudeDegrees>42.3487042821943759918212890625</LatitudeDegrees>
              <LongitudeDegrees>2.4081115610897541046142578125</LongitudeDegrees>
            </Position>
            <AltitudeMeters>1100.800048828125</AltitudeMeters>
            <DistanceMeters>NAN</DistanceMeters>
          </Trackpoint>
          <Trackpoint>
            <Time>2021-04-04T09:34:14.000Z</Time>
            <Position>
              <LatitudeDegrees>42.34871207736432552337646484375</LatitudeDegrees>
              <LongitudeDegrees>2.40808767266571521759033203125</LongitudeDegrees>
            </Position>
            <AltitudeMeters>1101</AltitudeMeters>
            <DistanceMeters>NAN</DistanceMeters>
          </Trackpoint>
          <Trackpoint>
            <Time>2021-04-04T09:34:17.000Z</Time>
            <Position>
              <LatitudeDegrees>42.348717190325260162353515625</LatitudeDegrees>
              <LongitudeDegrees>2.40804894827306270599365234375</LongitudeDegrees>
            </Position>
            <AltitudeMeters>1101.4000244140625</AltitudeMeters>
            <DistanceMeters>NAN</DistanceMeters>
          </Trackpoint>
          <Trackpoint>
            <Time>2021-04-04T09:34:25.000Z</Time>
            <Position>
              <LatitudeDegrees>42.3487046174705028533935546875</LatitudeDegrees>
              <LongitudeDegrees>2.4079606868326663970947265625</LongitudeDegrees>
            </Position>
            <AltitudeMeters>1102.199951171875</AltitudeMeters>
            <DistanceMeters>NAN</DistanceMeters>
          </Trackpoint>
          <Trackpoint>
            <Time>2021-04-04T09:34:26.000Z</Time>
            <Position>
              <LatitudeDegrees>42.34870369546115398406982421875</LatitudeDegrees>
              <LongitudeDegrees>2.40794903598725795745849609375</LongitudeDegrees>
            </Position>
            <AltitudeMeters>1102.4000244140625</AltitudeMeters>
            <DistanceMeters>NAN</DistanceMeters>
          </Trackpoint>
          <Trackpoint>
            <Time>2021-04-04T09:34:32.000Z</Time>
            <Position>
              <LatitudeDegrees>42.34870134852826595306396484375</LatitudeDegrees>
              <LongitudeDegrees>2.40789757110178470611572265625</LongitudeDegrees>
            </Position>
            <AltitudeMeters>1103.199951171875</AltitudeMeters>
            <DistanceMeters>NAN</DistanceMeters>
          </Trackpoint>
          <Trackpoint>
            <Time>2021-04-04T09:34:34.000Z</Time>
            <Position>
              <LatitudeDegrees>42.3486992530524730682373046875</LatitudeDegrees>
              <LongitudeDegrees>2.40787996910512447357177734375</LongitudeDegrees>
            </Position>
            <AltitudeMeters>1103.4000244140625</AltitudeMeters>
            <DistanceMeters>NAN</DistanceMeters>
          </Trackpoint>
          <Trackpoint>
            <Time>2021-04-04T09:34:35.000Z</Time>
            <Position>
              <LatitudeDegrees>42.34869740903377532958984375</LatitudeDegrees>
              <LongitudeDegrees>2.40787024609744548797607421875</LongitudeDegrees>
            </Position>
            <AltitudeMeters>1103.5999755859375</AltitudeMeters>
            <DistanceMeters>NAN</DistanceMeters>
          </Trackpoint>
          <Trackpoint>
            <Time>2021-04-04T09:34:39.000Z</Time>
            <Position>
              <LatitudeDegrees>42.34869196079671382904052734375</LatitudeDegrees>
              <LongitudeDegrees>2.4078386463224887847900390625</LongitudeDegrees>
            </Position>
            <AltitudeMeters>1104.199951171875</AltitudeMeters>
            <DistanceMeters>NAN</DistanceMeters>
          </Trackpoint>
          <Trackpoint>
            <Time>2021-04-04T09:34:41.000Z</Time>
            <Position>
              <LatitudeDegrees>42.3486895300447940826416015625</LatitudeDegrees>
              <LongitudeDegrees>2.40782850421965122222900390625</LongitudeDegrees>
            </Position>
            <AltitudeMeters>1104.5999755859375</AltitudeMeters>
            <DistanceMeters>NAN</DistanceMeters>
          </Trackpoint>
          <Trackpoint>
            <Time>2021-04-04T09:34:45.000Z</Time>
            <Position>
              <LatitudeDegrees>42.348686344921588897705078125</LatitudeDegrees>
              <LongitudeDegrees>2.4077910371124744415283203125</LongitudeDegrees>
            </Position>
            <AltitudeMeters>1105.199951171875</AltitudeMeters>
            <DistanceMeters>NAN</DistanceMeters>
          </Trackpoint>
          <Trackpoint>
            <Time>2021-04-04T09:34:48.000Z</Time>
            <Position>
              <LatitudeDegrees>42.34868139959871768951416015625</LatitudeDegrees>
              <LongitudeDegrees>2.40776765160262584686279296875</LongitudeDegrees>
            </Position>
            <AltitudeMeters>1105.5999755859375</AltitudeMeters>
            <DistanceMeters>NAN</DistanceMeters>
          </Trackpoint>
          <Trackpoint>
            <Time>2021-04-04T09:34:56.000Z</Time>
            <Position>
              <LatitudeDegrees>42.34867184422910213470458984375</LatitudeDegrees>
              <LongitudeDegrees>2.40771182812750339508056640625</LongitudeDegrees>
            </Position>
            <AltitudeMeters>1106.800048828125</AltitudeMeters>
            <DistanceMeters>NAN</DistanceMeters>
          </Trackpoint>
          <Trackpoint>
            <Time>2021-04-04T09:34:57.000Z</Time>
            <Position>
              <LatitudeDegrees>42.34867326915264129638671875</LatitudeDegrees>
              <LongitudeDegrees>2.40770461969077587127685546875</LongitudeDegrees>
            </Position>
            <AltitudeMeters>1107</AltitudeMeters>
            <DistanceMeters>NAN</DistanceMeters>
          </Trackpoint>
          <Trackpoint>
            <Time>2021-04-04T09:35:03.000Z</Time>
            <Position>
              <LatitudeDegrees>42.3486761189997196197509765625</LatitudeDegrees>
              <LongitudeDegrees>2.407654412090778350830078125</LongitudeDegrees>
            </Position>
            <AltitudeMeters>1107.800048828125</AltitudeMeters>
            <DistanceMeters>NAN</DistanceMeters>
          </Trackpoint>
          <Trackpoint>
            <Time>2021-04-04T09:35:06.000Z</Time>
            <Position>
              <LatitudeDegrees>42.34866832382977008819580078125</LatitudeDegrees>
              <LongitudeDegrees>2.407622225582599639892578125</LongitudeDegrees>
            </Position>
            <AltitudeMeters>1108.4000244140625</AltitudeMeters>
            <DistanceMeters>NAN</DistanceMeters>
          </Trackpoint>
          <Trackpoint>
            <Time>2021-04-04T09:35:09.000Z</Time>
            <Position>
              <LatitudeDegrees>42.348658181726932525634765625</LatitudeDegrees>
              <LongitudeDegrees>2.4076079763472080230712890625</LongitudeDegrees>
            </Position>
            <AltitudeMeters>1108.800048828125</AltitudeMeters>
            <DistanceMeters>NAN</DistanceMeters>
          </Trackpoint>
          <Trackpoint>
            <Time>2021-04-04T09:35:10.000Z</Time>
            <Position>
              <LatitudeDegrees>42.34865407459437847137451171875</LatitudeDegrees>
              <LongitudeDegrees>2.40760185755789279937744140625</LongitudeDegrees>
            </Position>
            <AltitudeMeters>1109</AltitudeMeters>
            <DistanceMeters>NAN</DistanceMeters>
          </Trackpoint>
          <Trackpoint>
            <Time>2021-04-04T09:35:14.000Z</Time>
            <Position>
              <LatitudeDegrees>42.3486363887786865234375</LatitudeDegrees>
              <LongitudeDegrees>2.40759381093084812164306640625</LongitudeDegrees>
            </Position>
            <AltitudeMeters>1109.5999755859375</AltitudeMeters>
            <DistanceMeters>NAN</DistanceMeters>
          </Trackpoint>
          <Trackpoint>
            <Time>2021-04-04T09:35:17.000Z</Time>
            <Position>
              <LatitudeDegrees>42.3486355505883693695068359375</LatitudeDegrees>
              <LongitudeDegrees>2.407564222812652587890625</LongitudeDegrees>
            </Position>
            <AltitudeMeters>1110</AltitudeMeters>
            <DistanceMeters>NAN</DistanceMeters>
          </Trackpoint>
          <Trackpoint>
            <Time>2021-04-04T09:35:23.000Z</Time>
            <Position>
              <LatitudeDegrees>42.34861903823912143707275390625</LatitudeDegrees>
              <LongitudeDegrees>2.40751502104103565216064453125</LongitudeDegrees>
            </Position>
            <AltitudeMeters>1110.800048828125</AltitudeMeters>
            <DistanceMeters>NAN</DistanceMeters>
          </Trackpoint>
          <Trackpoint>
            <Time>2021-04-04T09:35:25.000Z</Time>
            <Position>
              <LatitudeDegrees>42.34861467964947223663330078125</LatitudeDegrees>
              <LongitudeDegrees>2.4074986763298511505126953125</LongitudeDegrees>
            </Position>
            <AltitudeMeters>1111</AltitudeMeters>
            <DistanceMeters>NAN</DistanceMeters>
          </Trackpoint>
          <Trackpoint>
            <Time>2021-04-04T09:35:30.000Z</Time>
            <Position>
              <LatitudeDegrees>42.34860277734696865081787109375</LatitudeDegrees>
              <LongitudeDegrees>2.4074638076126575469970703125</LongitudeDegrees>
            </Position>
            <AltitudeMeters>1111.800048828125</AltitudeMeters>
            <DistanceMeters>NAN</DistanceMeters>
          </Trackpoint>
          <Trackpoint>
            <Time>2021-04-04T09:35:32.000Z</Time>
            <Position>
              <LatitudeDegrees>42.34860428608953952789306640625</LatitudeDegrees>
              <LongitudeDegrees>2.40744511596858501434326171875</LongitudeDegrees>
            </Position>
            <AltitudeMeters>1112.199951171875</AltitudeMeters>
            <DistanceMeters>NAN</DistanceMeters>
          </Trackpoint>
          <Trackpoint>
            <Time>2021-04-04T09:35:39.000Z</Time>
            <Position>
              <LatitudeDegrees>42.3486042022705078125</LatitudeDegrees>
              <LongitudeDegrees>2.4073939025402069091796875</LongitudeDegrees>
            </Position>
            <AltitudeMeters>1113.199951171875</AltitudeMeters>
            <DistanceMeters>NAN</DistanceMeters>
          </Trackpoint>
          <Trackpoint>
            <Time>2021-04-04T09:35:40.000Z</Time>
            <Position>
              <LatitudeDegrees>42.348609231412410736083984375</LatitudeDegrees>
              <LongitudeDegrees>2.407387197017669677734375</LongitudeDegrees>
            </Position>
            <AltitudeMeters>1113.4000244140625</AltitudeMeters>
            <DistanceMeters>NAN</DistanceMeters>
          </Trackpoint>
          <Trackpoint>
            <Time>2021-04-04T09:35:45.000Z</Time>
            <Position>
              <LatitudeDegrees>42.3486063815653324127197265625</LatitudeDegrees>
              <LongitudeDegrees>2.40735291503369808197021484375</LongitudeDegrees>
            </Position>
            <AltitudeMeters>1114.199951171875</AltitudeMeters>
            <DistanceMeters>NAN</DistanceMeters>
          </Trackpoint>
          <Trackpoint>
            <Time>2021-04-04T09:35:46.000Z</Time>
            <Position>
              <LatitudeDegrees>42.34860814176499843597412109375</LatitudeDegrees>
              <LongitudeDegrees>2.4073427729308605194091796875</LongitudeDegrees>
            </Position>
            <AltitudeMeters>1114.4000244140625</AltitudeMeters>
            <DistanceMeters>NAN</DistanceMeters>
          </Trackpoint>
          <Trackpoint>
            <Time>2021-04-04T09:35:48.000Z</Time>
            <Position>
              <LatitudeDegrees>42.3486130870878696441650390625</LatitudeDegrees>
              <LongitudeDegrees>2.4073283560574054718017578125</LongitudeDegrees>
            </Position>
            <AltitudeMeters>1114.4000244140625</AltitudeMeters>
            <DistanceMeters>NAN</DistanceMeters>
          </Trackpoint>
          <Trackpoint>
            <Time>2021-04-04T09:35:51.000Z</Time>
            <Position>
              <LatitudeDegrees>42.34862071461975574493408203125</LatitudeDegrees>
              <LongitudeDegrees>2.4073105864226818084716796875</LongitudeDegrees>
            </Position>
            <AltitudeMeters>1115.4000244140625</AltitudeMeters>
            <DistanceMeters>NAN</DistanceMeters>
          </Trackpoint>
          <Trackpoint>
            <Time>2021-04-04T09:35:54.000Z</Time>
            <Position>
              <LatitudeDegrees>42.348625995218753814697265625</LatitudeDegrees>
              <LongitudeDegrees>2.40725819952785968780517578125</LongitudeDegrees>
            </Position>
            <AltitudeMeters>1116</AltitudeMeters>
            <DistanceMeters>NAN</DistanceMeters>
          </Trackpoint>
          <Trackpoint>
            <Time>2021-04-04T09:35:57.000Z</Time>
            <Position>
              <LatitudeDegrees>42.3486177809536457061767578125</LatitudeDegrees>
              <LongitudeDegrees>2.4072411842644214630126953125</LongitudeDegrees>
            </Position>
            <AltitudeMeters>1116.4000244140625</AltitudeMeters>
            <DistanceMeters>NAN</DistanceMeters>
          </Trackpoint>
          <Trackpoint>
            <Time>2021-04-04T09:36:01.000Z</Time>
            <Position>
              <LatitudeDegrees>42.348623983561992645263671875</LatitudeDegrees>
              <LongitudeDegrees>2.407219894230365753173828125</LongitudeDegrees>
            </Position>
            <AltitudeMeters>1117</AltitudeMeters>
            <DistanceMeters>NAN</DistanceMeters>
          </Trackpoint>
          <Trackpoint>
            <Time>2021-04-04T09:36:04.000Z</Time>
            <Position>
              <LatitudeDegrees>42.348623983561992645263671875</LatitudeDegrees>
              <LongitudeDegrees>2.407211177051067352294921875</LongitudeDegrees>
            </Position>
            <AltitudeMeters>1117.4000244140625</AltitudeMeters>
            <DistanceMeters>NAN</DistanceMeters>
          </Trackpoint>
          <Trackpoint>
            <Time>2021-04-04T09:36:07.000Z</Time>
            <Position>
              <LatitudeDegrees>42.3486238159239292144775390625</LatitudeDegrees>
              <LongitudeDegrees>2.40718829445540904998779296875</LongitudeDegrees>
            </Position>
            <AltitudeMeters>1118</AltitudeMeters>
            <DistanceMeters>NAN</DistanceMeters>
          </Trackpoint>
          <Trackpoint>
            <Time>2021-04-04T09:36:12.000Z</Time>
            <Position>
              <LatitudeDegrees>42.34864871017634868621826171875</LatitudeDegrees>
              <LongitudeDegrees>2.40715158171951770782470703125</LongitudeDegrees>
            </Position>
            <AltitudeMeters>1118.5999755859375</AltitudeMeters>
            <DistanceMeters>NAN</DistanceMeters>
          </Trackpoint>
          <Trackpoint>
            <Time>2021-04-04T09:36:14.000Z</Time>
            <Position>
              <LatitudeDegrees>42.34865692444145679473876953125</LatitudeDegrees>
              <LongitudeDegrees>2.40714621730148792266845703125</LongitudeDegrees>
            </Position>
            <AltitudeMeters>1119</AltitudeMeters>
            <DistanceMeters>NAN</DistanceMeters>
          </Trackpoint>
          <Trackpoint>
            <Time>2021-04-04T09:36:15.000Z</Time>
            <Position>
              <LatitudeDegrees>42.3486600257456302642822265625</LatitudeDegrees>
              <LongitudeDegrees>2.4071406014263629913330078125</LongitudeDegrees>
            </Position>
            <AltitudeMeters>1119.199951171875</AltitudeMeters>
            <DistanceMeters>NAN</DistanceMeters>
          </Trackpoint>
          <Trackpoint>
            <Time>2021-04-04T09:36:18.000Z</Time>
            <Position>
              <LatitudeDegrees>42.3486727662384510040283203125</LatitudeDegrees>
              <LongitudeDegrees>2.40712224505841732025146484375</LongitudeDegrees>
            </Position>
            <AltitudeMeters>1119.800048828125</AltitudeMeters>
            <DistanceMeters>NAN</DistanceMeters>
          </Trackpoint>
          <Trackpoint>
            <Time>2021-04-04T09:36:20.000Z</Time>
            <Position>
              <LatitudeDegrees>42.3486793041229248046875</LatitudeDegrees>
              <LongitudeDegrees>2.40711486898362636566162109375</LongitudeDegrees>
            </Position>
            <AltitudeMeters>1120</AltitudeMeters>
            <DistanceMeters>NAN</DistanceMeters>
          </Trackpoint>
          <Trackpoint>
            <Time>2021-04-04T09:36:23.000Z</Time>
            <Position>
              <LatitudeDegrees>42.3486841656267642974853515625</LatitudeDegrees>
              <LongitudeDegrees>2.4071010388433933258056640625</LongitudeDegrees>
            </Position>
            <AltitudeMeters>1120.4000244140625</AltitudeMeters>
            <DistanceMeters>NAN</DistanceMeters>
          </Trackpoint>
          <Trackpoint>
            <Time>2021-04-04T09:36:25.000Z</Time>
            <Position>
              <LatitudeDegrees>42.34869363717734813690185546875</LatitudeDegrees>
              <LongitudeDegrees>2.407097853720188140869140625</LongitudeDegrees>
            </Position>
            <AltitudeMeters>1120.800048828125</AltitudeMeters>
            <DistanceMeters>NAN</DistanceMeters>
          </Trackpoint>
          <Trackpoint>
            <Time>2021-04-04T09:36:29.000Z</Time>
            <Position>
              <LatitudeDegrees>42.3487079702317714691162109375</LatitudeDegrees>
              <LongitudeDegrees>2.407079748809337615966796875</LongitudeDegrees>
            </Position>
            <AltitudeMeters>1121.800048828125</AltitudeMeters>
            <DistanceMeters>NAN</DistanceMeters>
          </Trackpoint>
          <Trackpoint>
            <Time>2021-04-04T09:36:31.000Z</Time>
            <Position>
              <LatitudeDegrees>42.348714508116245269775390625</LatitudeDegrees>
              <LongitudeDegrees>2.4070735462009906768798828125</LongitudeDegrees>
            </Position>
            <AltitudeMeters>1122.4000244140625</AltitudeMeters>
            <DistanceMeters>NAN</DistanceMeters>
          </Trackpoint>
          <Trackpoint>
            <Time>2021-04-04T09:36:40.000Z</Time>
            <Position>
              <LatitudeDegrees>42.34872196801006793975830078125</LatitudeDegrees>
              <LongitudeDegrees>2.40705468691885471343994140625</LongitudeDegrees>
            </Position>
            <AltitudeMeters>1122.5999755859375</AltitudeMeters>
            <DistanceMeters>NAN</DistanceMeters>
          </Trackpoint>
          <Trackpoint>
            <Time>2021-04-04T09:36:43.000Z</Time>
            <Position>
              <LatitudeDegrees>42.34872289001941680908203125</LatitudeDegrees>
              <LongitudeDegrees>2.407055608928203582763671875</LongitudeDegrees>
            </Position>
            <AltitudeMeters>1122.5999755859375</AltitudeMeters>
            <DistanceMeters>NAN</DistanceMeters>
          </Trackpoint>
          <Trackpoint>
            <Time>2021-04-04T09:36:49.000Z</Time>
            <Position>
              <LatitudeDegrees>42.34872289001941680908203125</LatitudeDegrees>
              <LongitudeDegrees>2.407055608928203582763671875</LongitudeDegrees>
            </Position>
            <AltitudeMeters>1122.4000244140625</AltitudeMeters>
            <DistanceMeters>NAN</DistanceMeters>
          </Trackpoint>
          <Trackpoint>
            <Time>2021-04-04T09:36:56.000Z</Time>
            <Position>
              <LatitudeDegrees>42.34872280620038509368896484375</LatitudeDegrees>
              <LongitudeDegrees>2.40705552510917186737060546875</LongitudeDegrees>
            </Position>
            <AltitudeMeters>1122.800048828125</AltitudeMeters>
            <DistanceMeters>NAN</DistanceMeters>
          </Trackpoint>
          <Trackpoint>
            <Time>2021-04-04T09:37:02.000Z</Time>
            <Position>
              <LatitudeDegrees>42.34872280620038509368896484375</LatitudeDegrees>
              <LongitudeDegrees>2.40705552510917186737060546875</LongitudeDegrees>
            </Position>
            <AltitudeMeters>1122.5999755859375</AltitudeMeters>
            <DistanceMeters>NAN</DistanceMeters>
          </Trackpoint>
          <Trackpoint>
            <Time>2021-04-04T09:37:06.000Z</Time>
            <Position>
              <LatitudeDegrees>42.34872213564813137054443359375</LatitudeDegrees>
              <LongitudeDegrees>2.4070567823946475982666015625</LongitudeDegrees>
            </Position>
            <AltitudeMeters>1122.5999755859375</AltitudeMeters>
            <DistanceMeters>NAN</DistanceMeters>
          </Trackpoint>
          <Trackpoint>
            <Time>2021-04-04T09:37:11.000Z</Time>
            <Position>
              <LatitudeDegrees>42.348721884191036224365234375</LatitudeDegrees>
              <LongitudeDegrees>2.4070597998797893524169921875</LongitudeDegrees>
            </Position>
            <AltitudeMeters>1122.5999755859375</AltitudeMeters>
            <DistanceMeters>NAN</DistanceMeters>
          </Trackpoint>
          <Trackpoint>
            <Time>2021-04-04T09:37:15.000Z</Time>
            <Position>
              <LatitudeDegrees>42.3487203754484653472900390625</LatitudeDegrees>
              <LongitudeDegrees>2.40706390701234340667724609375</LongitudeDegrees>
            </Position>
            <AltitudeMeters>1122.5999755859375</AltitudeMeters>
            <DistanceMeters>NAN</DistanceMeters>
          </Trackpoint>
          <Trackpoint>
            <Time>2021-04-04T09:37:18.000Z</Time>
            <Position>
              <LatitudeDegrees>42.3487200401723384857177734375</LatitudeDegrees>
              <LongitudeDegrees>2.407067678868770599365234375</LongitudeDegrees>
            </Position>
            <AltitudeMeters>1122.800048828125</AltitudeMeters>
            <DistanceMeters>NAN</DistanceMeters>
          </Trackpoint>
          <Trackpoint>
            <Time>2021-04-04T09:37:19.000Z</Time>
            <Position>
              <LatitudeDegrees>42.3487200401723384857177734375</LatitudeDegrees>
              <LongitudeDegrees>2.4070728756487369537353515625</LongitudeDegrees>
            </Position>
            <AltitudeMeters>1122.800048828125</AltitudeMeters>
            <DistanceMeters>NAN</DistanceMeters>
          </Trackpoint>
          <Trackpoint>
            <Time>2021-04-04T09:37:40.000Z</Time>
            <Position>
              <LatitudeDegrees>42.348693050444126129150390625</LatitudeDegrees>
              <LongitudeDegrees>2.40701143629848957061767578125</LongitudeDegrees>
            </Position>
            <AltitudeMeters>1124</AltitudeMeters>
            <DistanceMeters>NAN</DistanceMeters>
          </Trackpoint>
          <Trackpoint>
            <Time>2021-04-04T09:37:46.000Z</Time>
            <Position>
              <LatitudeDegrees>42.3486861772835254669189453125</LatitudeDegrees>
              <LongitudeDegrees>2.40693298168480396270751953125</LongitudeDegrees>
            </Position>
            <AltitudeMeters>1125</AltitudeMeters>
            <DistanceMeters>NAN</DistanceMeters>
          </Trackpoint>
          <Trackpoint>
            <Time>2021-04-04T09:37:48.000Z</Time>
            <Position>
              <LatitudeDegrees>42.34868190251290798187255859375</LatitudeDegrees>
              <LongitudeDegrees>2.4069209955632686614990234375</LongitudeDegrees>
            </Position>
            <AltitudeMeters>1125.4000244140625</AltitudeMeters>
            <DistanceMeters>NAN</DistanceMeters>
          </Trackpoint>
          <Trackpoint>
            <Time>2021-04-04T09:37:53.000Z</Time>
            <Position>
              <LatitudeDegrees>42.3486640490591526031494140625</LatitudeDegrees>
              <LongitudeDegrees>2.40689023397862911224365234375</LongitudeDegrees>
            </Position>
            <AltitudeMeters>1126</AltitudeMeters>
            <DistanceMeters>NAN</DistanceMeters>
          </Trackpoint>
          <Trackpoint>
            <Time>2021-04-04T09:37:56.000Z</Time>
            <Position>
              <LatitudeDegrees>42.3486549966037273406982421875</LatitudeDegrees>
              <LongitudeDegrees>2.40686793811619281768798828125</LongitudeDegrees>
            </Position>
            <AltitudeMeters>1126.5999755859375</AltitudeMeters>
            <DistanceMeters>NAN</DistanceMeters>
          </Trackpoint>
          <Trackpoint>
            <Time>2021-04-04T09:37:57.000Z</Time>
            <Position>
              <LatitudeDegrees>42.34865591861307621002197265625</LatitudeDegrees>
              <LongitudeDegrees>2.40685679018497467041015625</LongitudeDegrees>
            </Position>
            <AltitudeMeters>1126.800048828125</AltitudeMeters>
            <DistanceMeters>NAN</DistanceMeters>
          </Trackpoint>
          <Trackpoint>
            <Time>2021-04-04T09:38:00.000Z</Time>
            <Position>
              <LatitudeDegrees>42.3486435972154140472412109375</LatitudeDegrees>
              <LongitudeDegrees>2.40683206357061862945556640625</LongitudeDegrees>
            </Position>
            <AltitudeMeters>1127</AltitudeMeters>
            <DistanceMeters>NAN</DistanceMeters>
          </Trackpoint>
          <Trackpoint>
            <Time>2021-04-04T09:38:01.000Z</Time>
            <Position>
              <LatitudeDegrees>42.3486382327973842620849609375</LatitudeDegrees>
              <LongitudeDegrees>2.40682418458163738250732421875</LongitudeDegrees>
            </Position>
            <AltitudeMeters>1127.199951171875</AltitudeMeters>
            <DistanceMeters>NAN</DistanceMeters>
          </Trackpoint>
          <Trackpoint>
            <Time>2021-04-04T09:38:06.000Z</Time>
            <Position>
              <LatitudeDegrees>42.34862255863845348358154296875</LatitudeDegrees>
              <LongitudeDegrees>2.40679652430117130279541015625</LongitudeDegrees>
            </Position>
            <AltitudeMeters>1127.800048828125</AltitudeMeters>
            <DistanceMeters>NAN</DistanceMeters>
          </Trackpoint>
          <Trackpoint>
            <Time>2021-04-04T09:38:09.000Z</Time>
            <Position>
              <LatitudeDegrees>42.348602525889873504638671875</LatitudeDegrees>
              <LongitudeDegrees>2.40677137859165668487548828125</LongitudeDegrees>
            </Position>
            <AltitudeMeters>1127.800048828125</AltitudeMeters>
            <DistanceMeters>NAN</DistanceMeters>
          </Trackpoint>
          <Trackpoint>
            <Time>2021-04-04T09:38:14.000Z</Time>
            <Position>
              <LatitudeDegrees>42.34857964329421520233154296875</LatitudeDegrees>
              <LongitudeDegrees>2.40673114545643329620361328125</LongitudeDegrees>
            </Position>
            <AltitudeMeters>1128.199951171875</AltitudeMeters>
            <DistanceMeters>NAN</DistanceMeters>
          </Trackpoint>
          <Trackpoint>
            <Time>2021-04-04T09:38:20.000Z</Time>
            <Position>
              <LatitudeDegrees>42.34855952672660350799560546875</LatitudeDegrees>
              <LongitudeDegrees>2.40669594146311283111572265625</LongitudeDegrees>
            </Position>
            <AltitudeMeters>1129.199951171875</AltitudeMeters>
            <DistanceMeters>NAN</DistanceMeters>
          </Trackpoint>
          <Trackpoint>
            <Time>2021-04-04T09:38:25.000Z</Time>
            <Position>
              <LatitudeDegrees>42.34852708876132965087890625</LatitudeDegrees>
              <LongitudeDegrees>2.40666090510785579681396484375</LongitudeDegrees>
            </Position>
            <AltitudeMeters>1130.199951171875</AltitudeMeters>
            <DistanceMeters>NAN</DistanceMeters>
          </Trackpoint>
          <Trackpoint>
            <Time>2021-04-04T09:38:26.000Z</Time>
            <Position>
              <LatitudeDegrees>42.34852231107652187347412109375</LatitudeDegrees>
              <LongitudeDegrees>2.40665000863373279571533203125</LongitudeDegrees>
            </Position>
            <AltitudeMeters>1130.4000244140625</AltitudeMeters>
            <DistanceMeters>NAN</DistanceMeters>
          </Trackpoint>
          <Trackpoint>
            <Time>2021-04-04T09:38:31.000Z</Time>
            <Position>
              <LatitudeDegrees>42.34849699772894382476806640625</LatitudeDegrees>
              <LongitudeDegrees>2.40661530755460262298583984375</LongitudeDegrees>
            </Position>
            <AltitudeMeters>1131.4000244140625</AltitudeMeters>
            <DistanceMeters>NAN</DistanceMeters>
          </Trackpoint>
          <Trackpoint>
            <Time>2021-04-04T09:38:34.000Z</Time>
            <Position>
              <LatitudeDegrees>42.34848492778837680816650390625</LatitudeDegrees>
              <LongitudeDegrees>2.40659795701503753662109375</LongitudeDegrees>
            </Position>
            <AltitudeMeters>1132</AltitudeMeters>
            <DistanceMeters>NAN</DistanceMeters>
          </Trackpoint>
          <Trackpoint>
            <Time>2021-04-04T09:38:37.000Z</Time>
            <Position>
              <LatitudeDegrees>42.34846313484013080596923828125</LatitudeDegrees>
              <LongitudeDegrees>2.4065572209656238555908203125</LongitudeDegrees>
            </Position>
            <AltitudeMeters>1132.5999755859375</AltitudeMeters>
            <DistanceMeters>NAN</DistanceMeters>
          </Trackpoint>
          <Trackpoint>
            <Time>2021-04-04T09:38:40.000Z</Time>
            <Position>
              <LatitudeDegrees>42.34845508821308612823486328125</LatitudeDegrees>
              <LongitudeDegrees>2.40654121153056621551513671875</LongitudeDegrees>
            </Position>
            <AltitudeMeters>1133.199951171875</AltitudeMeters>
            <DistanceMeters>NAN</DistanceMeters>
          </Trackpoint>
          <Trackpoint>
            <Time>2021-04-04T09:38:43.000Z</Time>
            <Position>
              <LatitudeDegrees>42.34843983314931392669677734375</LatitudeDegrees>
              <LongitudeDegrees>2.40651589818298816680908203125</LongitudeDegrees>
            </Position>
            <AltitudeMeters>1133.4000244140625</AltitudeMeters>
            <DistanceMeters>NAN</DistanceMeters>
          </Trackpoint>
          <Trackpoint>
            <Time>2021-04-04T09:38:44.000Z</Time>
            <Position>
              <LatitudeDegrees>42.348433546721935272216796875</LatitudeDegrees>
              <LongitudeDegrees>2.406507097184658050537109375</LongitudeDegrees>
            </Position>
            <AltitudeMeters>1133.5999755859375</AltitudeMeters>
            <DistanceMeters>NAN</DistanceMeters>
          </Trackpoint>
          <Trackpoint>
            <Time>2021-04-04T09:38:49.000Z</Time>
            <Position>
              <LatitudeDegrees>42.3484347201883792877197265625</LatitudeDegrees>
              <LongitudeDegrees>2.4064697138965129852294921875</LongitudeDegrees>
            </Position>
            <AltitudeMeters>1134</AltitudeMeters>
            <DistanceMeters>NAN</DistanceMeters>
          </Trackpoint>
          <Trackpoint>
            <Time>2021-04-04T09:38:52.000Z</Time>
            <Position>
              <LatitudeDegrees>42.3484142683446407318115234375</LatitudeDegrees>
              <LongitudeDegrees>2.4064671993255615234375</LongitudeDegrees>
            </Position>
            <AltitudeMeters>1134.199951171875</AltitudeMeters>
            <DistanceMeters>NAN</DistanceMeters>
          </Trackpoint>
          <Trackpoint>
            <Time>2021-04-04T09:38:56.000Z</Time>
            <Position>
              <LatitudeDegrees>42.34840580262243747711181640625</LatitudeDegrees>
              <LongitudeDegrees>2.40644783712923526763916015625</LongitudeDegrees>
            </Position>
            <AltitudeMeters>1134.800048828125</AltitudeMeters>
            <DistanceMeters>NAN</DistanceMeters>
          </Trackpoint>
          <Trackpoint>
            <Time>2021-04-04T09:39:00.000Z</Time>
            <Position>
              <LatitudeDegrees>42.34840370714664459228515625</LatitudeDegrees>
              <LongitudeDegrees>2.40644062869250774383544921875</LongitudeDegrees>
            </Position>
            <AltitudeMeters>1135.4000244140625</AltitudeMeters>
            <DistanceMeters>NAN</DistanceMeters>
          </Trackpoint>
          <Trackpoint>
            <Time>2021-04-04T09:39:02.000Z</Time>
            <Position>
              <LatitudeDegrees>42.34840127639472484588623046875</LatitudeDegrees>
              <LongitudeDegrees>2.40643258206546306610107421875</LongitudeDegrees>
            </Position>
            <AltitudeMeters>1135.4000244140625</AltitudeMeters>
            <DistanceMeters>NAN</DistanceMeters>
          </Trackpoint>
          <Trackpoint>
            <Time>2021-04-04T09:39:06.000Z</Time>
            <Position>
              <LatitudeDegrees>42.3483820818364620208740234375</LatitudeDegrees>
              <LongitudeDegrees>2.40641380660235881805419921875</LongitudeDegrees>
            </Position>
            <AltitudeMeters>1135.800048828125</AltitudeMeters>
            <DistanceMeters>NAN</DistanceMeters>
          </Trackpoint>
          <Trackpoint>
            <Time>2021-04-04T09:39:09.000Z</Time>
            <Position>
              <LatitudeDegrees>42.34837076626718044281005859375</LatitudeDegrees>
              <LongitudeDegrees>2.40639788098633289337158203125</LongitudeDegrees>
            </Position>
            <AltitudeMeters>1136.199951171875</AltitudeMeters>
            <DistanceMeters>NAN</DistanceMeters>
          </Trackpoint>
          <Trackpoint>
            <Time>2021-04-04T09:39:10.000Z</Time>
            <Position>
              <LatitudeDegrees>42.34836347401142120361328125</LatitudeDegrees>
              <LongitudeDegrees>2.4063949473202228546142578125</LongitudeDegrees>
            </Position>
            <AltitudeMeters>1136.4000244140625</AltitudeMeters>
            <DistanceMeters>NAN</DistanceMeters>
          </Trackpoint>
          <Trackpoint>
            <Time>2021-04-04T09:39:16.000Z</Time>
            <Position>
              <LatitudeDegrees>42.34833396971225738525390625</LatitudeDegrees>
              <LongitudeDegrees>2.4063852243125438690185546875</LongitudeDegrees>
            </Position>
            <AltitudeMeters>1137</AltitudeMeters>
            <DistanceMeters>NAN</DistanceMeters>
          </Trackpoint>
          <Trackpoint>
            <Time>2021-04-04T09:39:18.000Z</Time>
            <Position>
              <LatitudeDegrees>42.34832198359072208404541015625</LatitudeDegrees>
              <LongitudeDegrees>2.4063765071332454681396484375</LongitudeDegrees>
            </Position>
            <AltitudeMeters>1137.199951171875</AltitudeMeters>
            <DistanceMeters>NAN</DistanceMeters>
          </Trackpoint>
          <Trackpoint>
            <Time>2021-04-04T09:39:22.000Z</Time>
            <Position>
              <LatitudeDegrees>42.34829683788120746612548828125</LatitudeDegrees>
              <LongitudeDegrees>2.40636988542973995208740234375</LongitudeDegrees>
            </Position>
            <AltitudeMeters>1138.4000244140625</AltitudeMeters>
            <DistanceMeters>NAN</DistanceMeters>
          </Trackpoint>
          <Trackpoint>
            <Time>2021-04-04T09:39:32.000Z</Time>
            <Position>
              <LatitudeDegrees>42.34826616011559963226318359375</LatitudeDegrees>
              <LongitudeDegrees>2.40631003864109516143798828125</LongitudeDegrees>
            </Position>
            <AltitudeMeters>1139.4000244140625</AltitudeMeters>
            <DistanceMeters>NAN</DistanceMeters>
          </Trackpoint>
          <Trackpoint>
            <Time>2021-04-04T09:39:39.000Z</Time>
            <Position>
              <LatitudeDegrees>42.34826448373496532440185546875</LatitudeDegrees>
              <LongitudeDegrees>2.40629126317799091339111328125</LongitudeDegrees>
            </Position>
            <AltitudeMeters>1140</AltitudeMeters>
            <DistanceMeters>NAN</DistanceMeters>
          </Trackpoint>
          <Trackpoint>
            <Time>2021-04-04T09:39:56.000Z</Time>
            <Position>
              <LatitudeDegrees>42.3482660762965679168701171875</LatitudeDegrees>
              <LongitudeDegrees>2.4062916822731494903564453125</LongitudeDegrees>
            </Position>
            <AltitudeMeters>1140</AltitudeMeters>
            <DistanceMeters>NAN</DistanceMeters>
          </Trackpoint>
          <Trackpoint>
            <Time>2021-04-04T09:39:59.000Z</Time>
            <Position>
              <LatitudeDegrees>42.34826867468655109405517578125</LatitudeDegrees>
              <LongitudeDegrees>2.4062916822731494903564453125</LongitudeDegrees>
            </Position>
            <AltitudeMeters>1140</AltitudeMeters>
            <DistanceMeters>NAN</DistanceMeters>
          </Trackpoint>
          <Trackpoint>
            <Time>2021-04-04T09:40:01.000Z</Time>
            <Position>
              <LatitudeDegrees>42.34826934523880481719970703125</LatitudeDegrees>
              <LongitudeDegrees>2.4062916822731494903564453125</LongitudeDegrees>
            </Position>
            <AltitudeMeters>1140</AltitudeMeters>
            <DistanceMeters>NAN</DistanceMeters>
          </Trackpoint>
          <Trackpoint>
            <Time>2021-04-04T09:40:04.000Z</Time>
            <Position>
              <LatitudeDegrees>42.3482716083526611328125</LatitudeDegrees>
              <LongitudeDegrees>2.4062916822731494903564453125</LongitudeDegrees>
            </Position>
            <AltitudeMeters>1140</AltitudeMeters>
            <DistanceMeters>NAN</DistanceMeters>
          </Trackpoint>
          <Trackpoint>
            <Time>2021-04-04T09:40:09.000Z</Time>
            <Position>
              <LatitudeDegrees>42.3482756316661834716796875</LatitudeDegrees>
              <LongitudeDegrees>2.4062910117208957672119140625</LongitudeDegrees>
            </Position>
            <AltitudeMeters>1140</AltitudeMeters>
            <DistanceMeters>NAN</DistanceMeters>
          </Trackpoint>
          <Trackpoint>
            <Time>2021-04-04T09:40:14.000Z</Time>
            <Position>
              <LatitudeDegrees>42.3483039624989032745361328125</LatitudeDegrees>
              <LongitudeDegrees>2.4062715657055377960205078125</LongitudeDegrees>
            </Position>
            <AltitudeMeters>1140.199951171875</AltitudeMeters>
            <DistanceMeters>NAN</DistanceMeters>
          </Trackpoint>
          <Trackpoint>
            <Time>2021-04-04T09:40:16.000Z</Time>
            <Position>
              <LatitudeDegrees>42.34833003021776676177978515625</LatitudeDegrees>
              <LongitudeDegrees>2.40625605918467044830322265625</LongitudeDegrees>
            </Position>
            <AltitudeMeters>1140.199951171875</AltitudeMeters>
            <DistanceMeters>NAN</DistanceMeters>
          </Trackpoint>
          <Trackpoint>
            <Time>2021-04-04T09:40:21.000Z</Time>
            <Position>
              <LatitudeDegrees>42.3483911342918872833251953125</LatitudeDegrees>
              <LongitudeDegrees>2.40622974000871181488037109375</LongitudeDegrees>
            </Position>
            <AltitudeMeters>1140.5999755859375</AltitudeMeters>
            <DistanceMeters>NAN</DistanceMeters>
          </Trackpoint>
          <Trackpoint>
            <Time>2021-04-04T09:40:27.000Z</Time>
            <Position>
              <LatitudeDegrees>42.34843497164547443389892578125</LatitudeDegrees>
              <LongitudeDegrees>2.40622512996196746826171875</LongitudeDegrees>
            </Position>
            <AltitudeMeters>1140.800048828125</AltitudeMeters>
            <DistanceMeters>NAN</DistanceMeters>
          </Trackpoint>
          <Trackpoint>
            <Time>2021-04-04T09:40:34.000Z</Time>
            <Position>
              <LatitudeDegrees>42.34843681566417217254638671875</LatitudeDegrees>
              <LongitudeDegrees>2.4061736650764942169189453125</LongitudeDegrees>
            </Position>
            <AltitudeMeters>1141</AltitudeMeters>
            <DistanceMeters>NAN</DistanceMeters>
          </Trackpoint>
          <Trackpoint>
            <Time>2021-04-04T09:40:39.000Z</Time>
            <Position>
              <LatitudeDegrees>42.3484370671212673187255859375</LatitudeDegrees>
              <LongitudeDegrees>2.40616067312657833099365234375</LongitudeDegrees>
            </Position>
            <AltitudeMeters>1141.5999755859375</AltitudeMeters>
            <DistanceMeters>NAN</DistanceMeters>
          </Trackpoint>
          <Trackpoint>
            <Time>2021-04-04T09:40:41.000Z</Time>
            <Position>
              <LatitudeDegrees>42.34843455255031585693359375</LatitudeDegrees>
              <LongitudeDegrees>2.406152375042438507080078125</LongitudeDegrees>
            </Position>
            <AltitudeMeters>1142</AltitudeMeters>
            <DistanceMeters>NAN</DistanceMeters>
          </Trackpoint>
          <Trackpoint>
            <Time>2021-04-04T09:40:43.000Z</Time>
            <Position>
              <LatitudeDegrees>42.34843321144580841064453125</LatitudeDegrees>
              <LongitudeDegrees>2.40614742971956729888916015625</LongitudeDegrees>
            </Position>
            <AltitudeMeters>1142.5999755859375</AltitudeMeters>
            <DistanceMeters>NAN</DistanceMeters>
          </Trackpoint>
          <Trackpoint>
            <Time>2021-04-04T09:40:50.000Z</Time>
            <Position>
              <LatitudeDegrees>42.348422147333621978759765625</LatitudeDegrees>
              <LongitudeDegrees>2.4060874991118907928466796875</LongitudeDegrees>
            </Position>
            <AltitudeMeters>1143.4000244140625</AltitudeMeters>
            <DistanceMeters>NAN</DistanceMeters>
          </Trackpoint>
          <Trackpoint>
            <Time>2021-04-04T09:40:51.000Z</Time>
            <Position>
              <LatitudeDegrees>42.348423488438129425048828125</LatitudeDegrees>
              <LongitudeDegrees>2.40608138032257556915283203125</LongitudeDegrees>
            </Position>
            <AltitudeMeters>1143.4000244140625</AltitudeMeters>
            <DistanceMeters>NAN</DistanceMeters>
          </Trackpoint>
          <Trackpoint>
            <Time>2021-04-04T09:40:55.000Z</Time>
            <Position>
              <LatitudeDegrees>42.3484276793897151947021484375</LatitudeDegrees>
              <LongitudeDegrees>2.40606687963008880615234375</LongitudeDegrees>
            </Position>
            <AltitudeMeters>1143.800048828125</AltitudeMeters>
            <DistanceMeters>NAN</DistanceMeters>
          </Trackpoint>
          <Trackpoint>
            <Time>2021-04-04T09:41:00.000Z</Time>
            <Position>
              <LatitudeDegrees>42.34840697608888149261474609375</LatitudeDegrees>
              <LongitudeDegrees>2.40604676306247711181640625</LongitudeDegrees>
            </Position>
            <AltitudeMeters>1144.5999755859375</AltitudeMeters>
            <DistanceMeters>NAN</DistanceMeters>
          </Trackpoint>
          <Trackpoint>
            <Time>2021-04-04T09:41:01.000Z</Time>
            <Position>
              <LatitudeDegrees>42.3484068922698497772216796875</LatitudeDegrees>
              <LongitudeDegrees>2.4060395546257495880126953125</LongitudeDegrees>
            </Position>
            <AltitudeMeters>1145</AltitudeMeters>
            <DistanceMeters>NAN</DistanceMeters>
          </Trackpoint>
          <Trackpoint>
            <Time>2021-04-04T09:41:07.000Z</Time>
            <Position>
              <LatitudeDegrees>42.34841334633529186248779296875</LatitudeDegrees>
              <LongitudeDegrees>2.40600862540304660797119140625</LongitudeDegrees>
            </Position>
            <AltitudeMeters>1146</AltitudeMeters>
            <DistanceMeters>NAN</DistanceMeters>
          </Trackpoint>
          <Trackpoint>
            <Time>2021-04-04T09:41:13.000Z</Time>
            <Position>
              <LatitudeDegrees>42.3484042100608348846435546875</LatitudeDegrees>
              <LongitudeDegrees>2.4059651233255863189697265625</LongitudeDegrees>
            </Position>
            <AltitudeMeters>1147.199951171875</AltitudeMeters>
            <DistanceMeters>NAN</DistanceMeters>
          </Trackpoint>
          <Trackpoint>
            <Time>2021-04-04T09:41:15.000Z</Time>
            <Position>
              <LatitudeDegrees>42.3484082333743572235107421875</LatitudeDegrees>
              <LongitudeDegrees>2.4059580825269222259521484375</LongitudeDegrees>
            </Position>
            <AltitudeMeters>1147.800048828125</AltitudeMeters>
            <DistanceMeters>NAN</DistanceMeters>
          </Trackpoint>
          <Trackpoint>
            <Time>2021-04-04T09:41:17.000Z</Time>
            <Position>
              <LatitudeDegrees>42.34840194694697856903076171875</LatitudeDegrees>
              <LongitudeDegrees>2.40595028735697269439697265625</LongitudeDegrees>
            </Position>
            <AltitudeMeters>1148.5999755859375</AltitudeMeters>
            <DistanceMeters>NAN</DistanceMeters>
          </Trackpoint>
          <Trackpoint>
            <Time>2021-04-04T09:41:20.000Z</Time>
            <Position>
              <LatitudeDegrees>42.34840831719338893890380859375</LatitudeDegrees>
              <LongitudeDegrees>2.405937798321247100830078125</LongitudeDegrees>
            </Position>
            <AltitudeMeters>1149.5999755859375</AltitudeMeters>
            <DistanceMeters>NAN</DistanceMeters>
          </Trackpoint>
          <Trackpoint>
            <Time>2021-04-04T09:41:24.000Z</Time>
            <Position>
              <LatitudeDegrees>42.3484038747847080230712890625</LatitudeDegrees>
              <LongitudeDegrees>2.4059322662651538848876953125</LongitudeDegrees>
            </Position>
            <AltitudeMeters>1150</AltitudeMeters>
            <DistanceMeters>NAN</DistanceMeters>
          </Trackpoint>
          <Trackpoint>
            <Time>2021-04-04T09:41:31.000Z</Time>
            <Position>
              <LatitudeDegrees>42.34836858697235584259033203125</LatitudeDegrees>
              <LongitudeDegrees>2.40587954409420490264892578125</LongitudeDegrees>
            </Position>
            <AltitudeMeters>1150</AltitudeMeters>
            <DistanceMeters>NAN</DistanceMeters>
          </Trackpoint>
          <Trackpoint>
            <Time>2021-04-04T09:41:32.000Z</Time>
            <Position>
              <LatitudeDegrees>42.3483666591346263885498046875</LatitudeDegrees>
              <LongitudeDegrees>2.40586831234395503997802734375</LongitudeDegrees>
            </Position>
            <AltitudeMeters>1150.199951171875</AltitudeMeters>
            <DistanceMeters>NAN</DistanceMeters>
          </Trackpoint>
          <Trackpoint>
            <Time>2021-04-04T09:41:39.000Z</Time>
            <Position>
              <LatitudeDegrees>42.34836883842945098876953125</LatitudeDegrees>
              <LongitudeDegrees>2.40585858933627605438232421875</LongitudeDegrees>
            </Position>
            <AltitudeMeters>1150</AltitudeMeters>
            <DistanceMeters>NAN</DistanceMeters>
          </Trackpoint>
          <Trackpoint>
            <Time>2021-04-04T09:41:47.000Z</Time>
            <Position>
              <LatitudeDegrees>42.34836925752460956573486328125</LatitudeDegrees>
              <LongitudeDegrees>2.40584936924278736114501953125</LongitudeDegrees>
            </Position>
            <AltitudeMeters>1150</AltitudeMeters>
            <DistanceMeters>NAN</DistanceMeters>
          </Trackpoint>
          <Trackpoint>
            <Time>2021-04-04T09:41:54.000Z</Time>
            <Position>
              <LatitudeDegrees>42.34836925752460956573486328125</LatitudeDegrees>
              <LongitudeDegrees>2.40584987215697765350341796875</LongitudeDegrees>
            </Position>
            <AltitudeMeters>1150.4000244140625</AltitudeMeters>
            <DistanceMeters>NAN</DistanceMeters>
          </Trackpoint>
          <Trackpoint>
            <Time>2021-04-04T09:41:57.000Z</Time>
            <Position>
              <LatitudeDegrees>42.3483696766197681427001953125</LatitudeDegrees>
              <LongitudeDegrees>2.4058551527559757232666015625</LongitudeDegrees>
            </Position>
            <AltitudeMeters>1150.5999755859375</AltitudeMeters>
            <DistanceMeters>NAN</DistanceMeters>
          </Trackpoint>
          <Trackpoint>
            <Time>2021-04-04T09:42:02.000Z</Time>
            <Position>
              <LatitudeDegrees>42.3483703471720218658447265625</LatitudeDegrees>
              <LongitudeDegrees>2.40585540421307086944580078125</LongitudeDegrees>
            </Position>
            <AltitudeMeters>1150.5999755859375</AltitudeMeters>
            <DistanceMeters>NAN</DistanceMeters>
          </Trackpoint>
          <Trackpoint>
            <Time>2021-04-04T09:42:05.000Z</Time>
            <Position>
              <LatitudeDegrees>42.3483703471720218658447265625</LatitudeDegrees>
              <LongitudeDegrees>2.40585540421307086944580078125</LongitudeDegrees>
            </Position>
            <AltitudeMeters>1150.5999755859375</AltitudeMeters>
            <DistanceMeters>NAN</DistanceMeters>
          </Trackpoint>
          <Trackpoint>
            <Time>2021-04-04T09:42:19.000Z</Time>
            <Position>
              <LatitudeDegrees>42.34831091947853565216064453125</LatitudeDegrees>
              <LongitudeDegrees>2.405783236026763916015625</LongitudeDegrees>
            </Position>
            <AltitudeMeters>1151.4000244140625</AltitudeMeters>
            <DistanceMeters>NAN</DistanceMeters>
          </Trackpoint>
          <Trackpoint>
            <Time>2021-04-04T09:42:23.000Z</Time>
            <Position>
              <LatitudeDegrees>42.34825082123279571533203125</LatitudeDegrees>
              <LongitudeDegrees>2.40573654882609844207763671875</LongitudeDegrees>
            </Position>
            <AltitudeMeters>1151.5999755859375</AltitudeMeters>
            <DistanceMeters>NAN</DistanceMeters>
          </Trackpoint>
          <Trackpoint>
            <Time>2021-04-04T09:42:25.000Z</Time>
            <Position>
              <LatitudeDegrees>42.3482286930084228515625</LatitudeDegrees>
              <LongitudeDegrees>2.4057163484394550323486328125</LongitudeDegrees>
            </Position>
            <AltitudeMeters>1151.5999755859375</AltitudeMeters>
            <DistanceMeters>NAN</DistanceMeters>
          </Trackpoint>
          <Trackpoint>
            <Time>2021-04-04T09:42:26.000Z</Time>
            <Position>
              <LatitudeDegrees>42.34822056256234645843505859375</LatitudeDegrees>
              <LongitudeDegrees>2.4057109840214252471923828125</LongitudeDegrees>
            </Position>
            <AltitudeMeters>1151.5999755859375</AltitudeMeters>
            <DistanceMeters>NAN</DistanceMeters>
          </Trackpoint>
          <Trackpoint>
            <Time>2021-04-04T09:42:29.000Z</Time>
            <Position>
              <LatitudeDegrees>42.34820044599473476409912109375</LatitudeDegrees>
              <LongitudeDegrees>2.4056858383119106292724609375</LongitudeDegrees>
            </Position>
            <AltitudeMeters>1151.800048828125</AltitudeMeters>
            <DistanceMeters>NAN</DistanceMeters>
          </Trackpoint>
          <Trackpoint>
            <Time>2021-04-04T09:42:33.000Z</Time>
            <Position>
              <LatitudeDegrees>42.34816825948655605316162109375</LatitudeDegrees>
              <LongitudeDegrees>2.40565490908920764923095703125</LongitudeDegrees>
            </Position>
            <AltitudeMeters>1152</AltitudeMeters>
            <DistanceMeters>NAN</DistanceMeters>
          </Trackpoint>
          <Trackpoint>
            <Time>2021-04-04T09:42:36.000Z</Time>
            <Position>
              <LatitudeDegrees>42.3481468856334686279296875</LatitudeDegrees>
              <LongitudeDegrees>2.40563244558870792388916015625</LongitudeDegrees>
            </Position>
            <AltitudeMeters>1152.199951171875</AltitudeMeters>
            <DistanceMeters>NAN</DistanceMeters>
          </Trackpoint>
          <Trackpoint>
            <Time>2021-04-04T09:42:38.000Z</Time>
            <Position>
              <LatitudeDegrees>42.34812919981777667999267578125</LatitudeDegrees>
              <LongitudeDegrees>2.40561668761074542999267578125</LongitudeDegrees>
            </Position>
            <AltitudeMeters>1152.4000244140625</AltitudeMeters>
            <DistanceMeters>NAN</DistanceMeters>
          </Trackpoint>
          <Trackpoint>
            <Time>2021-04-04T09:42:40.000Z</Time>
            <Position>
              <LatitudeDegrees>42.348113022744655609130859375</LatitudeDegrees>
              <LongitudeDegrees>2.4056075513362884521484375</LongitudeDegrees>
            </Position>
            <AltitudeMeters>1152.4000244140625</AltitudeMeters>
            <DistanceMeters>NAN</DistanceMeters>
          </Trackpoint>
          <Trackpoint>
            <Time>2021-04-04T09:42:48.000Z</Time>
            <Position>
              <LatitudeDegrees>42.34805493615567684173583984375</LatitudeDegrees>
              <LongitudeDegrees>2.405560947954654693603515625</LongitudeDegrees>
            </Position>
            <AltitudeMeters>1152.4000244140625</AltitudeMeters>
            <DistanceMeters>NAN</DistanceMeters>
          </Trackpoint>
          <Trackpoint>
            <Time>2021-04-04T09:42:51.000Z</Time>
            <Position>
              <LatitudeDegrees>42.34802979044616222381591796875</LatitudeDegrees>
              <LongitudeDegrees>2.40553689189255237579345703125</LongitudeDegrees>
            </Position>
            <AltitudeMeters>1152.5999755859375</AltitudeMeters>
            <DistanceMeters>NAN</DistanceMeters>
          </Trackpoint>
          <Trackpoint>
            <Time>2021-04-04T09:42:54.000Z</Time>
            <Position>
              <LatitudeDegrees>42.3480139486491680145263671875</LatitudeDegrees>
              <LongitudeDegrees>2.40552146919071674346923828125</LongitudeDegrees>
            </Position>
            <AltitudeMeters>1152.800048828125</AltitudeMeters>
            <DistanceMeters>NAN</DistanceMeters>
          </Trackpoint>
          <Trackpoint>
            <Time>2021-04-04T09:42:58.000Z</Time>
            <Position>
              <LatitudeDegrees>42.34798067249357700347900390625</LatitudeDegrees>
              <LongitudeDegrees>2.4055007658898830413818359375</LongitudeDegrees>
            </Position>
            <AltitudeMeters>1152.800048828125</AltitudeMeters>
            <DistanceMeters>NAN</DistanceMeters>
          </Trackpoint>
          <Trackpoint>
            <Time>2021-04-04T09:43:09.000Z</Time>
            <Position>
              <LatitudeDegrees>42.34790624119341373443603515625</LatitudeDegrees>
              <LongitudeDegrees>2.40541351027786731719970703125</LongitudeDegrees>
            </Position>
            <AltitudeMeters>1153</AltitudeMeters>
            <DistanceMeters>NAN</DistanceMeters>
          </Trackpoint>
          <Trackpoint>
            <Time>2021-04-04T09:43:17.000Z</Time>
            <Position>
              <LatitudeDegrees>42.347845472395420074462890625</LatitudeDegrees>
              <LongitudeDegrees>2.40535835735499858856201171875</LongitudeDegrees>
            </Position>
            <AltitudeMeters>1153.199951171875</AltitudeMeters>
            <DistanceMeters>NAN</DistanceMeters>
          </Trackpoint>
          <Trackpoint>
            <Time>2021-04-04T09:43:19.000Z</Time>
            <Position>
              <LatitudeDegrees>42.34783709049224853515625</LatitudeDegrees>
              <LongitudeDegrees>2.40534058772027492523193359375</LongitudeDegrees>
            </Position>
            <AltitudeMeters>1153.4000244140625</AltitudeMeters>
            <DistanceMeters>NAN</DistanceMeters>
          </Trackpoint>
          <Trackpoint>
            <Time>2021-04-04T09:43:21.000Z</Time>
            <Position>
              <LatitudeDegrees>42.3478196561336517333984375</LatitudeDegrees>
              <LongitudeDegrees>2.40532793104648590087890625</LongitudeDegrees>
            </Position>
            <AltitudeMeters>1153.4000244140625</AltitudeMeters>
            <DistanceMeters>NAN</DistanceMeters>
          </Trackpoint>
          <Trackpoint>
            <Time>2021-04-04T09:43:28.000Z</Time>
            <Position>
              <LatitudeDegrees>42.34776827506721019744873046875</LatitudeDegrees>
              <LongitudeDegrees>2.405273281037807464599609375</LongitudeDegrees>
            </Position>
            <AltitudeMeters>1153.5999755859375</AltitudeMeters>
            <DistanceMeters>NAN</DistanceMeters>
          </Trackpoint>
          <Trackpoint>
            <Time>2021-04-04T09:43:32.000Z</Time>
            <Position>
              <LatitudeDegrees>42.347737848758697509765625</LatitudeDegrees>
              <LongitudeDegrees>2.40524218417704105377197265625</LongitudeDegrees>
            </Position>
            <AltitudeMeters>1153.800048828125</AltitudeMeters>
            <DistanceMeters>NAN</DistanceMeters>
          </Trackpoint>
          <Trackpoint>
            <Time>2021-04-04T09:43:33.000Z</Time>
            <Position>
              <LatitudeDegrees>42.34772913157939910888671875</LatitudeDegrees>
              <LongitudeDegrees>2.40523681975901126861572265625</LongitudeDegrees>
            </Position>
            <AltitudeMeters>1153.800048828125</AltitudeMeters>
            <DistanceMeters>NAN</DistanceMeters>
          </Trackpoint>
          <Trackpoint>
            <Time>2021-04-04T09:43:38.000Z</Time>
            <Position>
              <LatitudeDegrees>42.347686551511287689208984375</LatitudeDegrees>
              <LongitudeDegrees>2.405212260782718658447265625</LongitudeDegrees>
            </Position>
            <AltitudeMeters>1153.800048828125</AltitudeMeters>
            <DistanceMeters>NAN</DistanceMeters>
          </Trackpoint>
          <Trackpoint>
            <Time>2021-04-04T09:43:39.000Z</Time>
            <Position>
              <LatitudeDegrees>42.34767875634133815765380859375</LatitudeDegrees>
              <LongitudeDegrees>2.40520454943180084228515625</LongitudeDegrees>
            </Position>
            <AltitudeMeters>1153.800048828125</AltitudeMeters>
            <DistanceMeters>NAN</DistanceMeters>
          </Trackpoint>
          <Trackpoint>
            <Time>2021-04-04T09:43:42.000Z</Time>
            <Position>
              <LatitudeDegrees>42.34765294007956981658935546875</LatitudeDegrees>
              <LongitudeDegrees>2.40518485195934772491455078125</LongitudeDegrees>
            </Position>
            <AltitudeMeters>1153.800048828125</AltitudeMeters>
            <DistanceMeters>NAN</DistanceMeters>
          </Trackpoint>
          <Trackpoint>
            <Time>2021-04-04T09:43:44.000Z</Time>
            <Position>
              <LatitudeDegrees>42.34764003194868564605712890625</LatitudeDegrees>
              <LongitudeDegrees>2.40517144091427326202392578125</LongitudeDegrees>
            </Position>
            <AltitudeMeters>1154</AltitudeMeters>
            <DistanceMeters>NAN</DistanceMeters>
          </Trackpoint>
          <Trackpoint>
            <Time>2021-04-04T09:43:51.000Z</Time>
            <Position>
              <LatitudeDegrees>42.3475844599306583404541015625</LatitudeDegrees>
              <LongitudeDegrees>2.40515098907053470611572265625</LongitudeDegrees>
            </Position>
            <AltitudeMeters>1154</AltitudeMeters>
            <DistanceMeters>NAN</DistanceMeters>
          </Trackpoint>
          <Trackpoint>
            <Time>2021-04-04T09:43:54.000Z</Time>
            <Position>
              <LatitudeDegrees>42.347555123269557952880859375</LatitudeDegrees>
              <LongitudeDegrees>2.40513757802546024322509765625</LongitudeDegrees>
            </Position>
            <AltitudeMeters>1154</AltitudeMeters>
            <DistanceMeters>NAN</DistanceMeters>
          </Trackpoint>
          <Trackpoint>
            <Time>2021-04-04T09:44:00.000Z</Time>
            <Position>
              <LatitudeDegrees>42.34750516712665557861328125</LatitudeDegrees>
              <LongitudeDegrees>2.4051145277917385101318359375</LongitudeDegrees>
            </Position>
            <AltitudeMeters>1154.199951171875</AltitudeMeters>
            <DistanceMeters>NAN</DistanceMeters>
          </Trackpoint>
          <Trackpoint>
            <Time>2021-04-04T09:44:03.000Z</Time>
            <Position>
              <LatitudeDegrees>42.34747809357941150665283203125</LatitudeDegrees>
              <LongitudeDegrees>2.4051054753363132476806640625</LongitudeDegrees>
            </Position>
            <AltitudeMeters>1154.4000244140625</AltitudeMeters>
            <DistanceMeters>NAN</DistanceMeters>
          </Trackpoint>
          <Trackpoint>
            <Time>2021-04-04T09:44:10.000Z</Time>
            <Position>
              <LatitudeDegrees>42.34742227010428905487060546875</LatitudeDegrees>
              <LongitudeDegrees>2.40509885363280773162841796875</LongitudeDegrees>
            </Position>
            <AltitudeMeters>1154.800048828125</AltitudeMeters>
            <DistanceMeters>NAN</DistanceMeters>
          </Trackpoint>
          <Trackpoint>
            <Time>2021-04-04T09:44:11.000Z</Time>
            <Position>
              <LatitudeDegrees>42.34741103835403919219970703125</LatitudeDegrees>
              <LongitudeDegrees>2.40509985946118831634521484375</LongitudeDegrees>
            </Position>
            <AltitudeMeters>1154.800048828125</AltitudeMeters>
            <DistanceMeters>NAN</DistanceMeters>
          </Trackpoint>
          <Trackpoint>
            <Time>2021-04-04T09:44:16.000Z</Time>
            <Position>
              <LatitudeDegrees>42.34740701504051685333251953125</LatitudeDegrees>
              <LongitudeDegrees>2.40504889748990535736083984375</LongitudeDegrees>
            </Position>
            <AltitudeMeters>1155.4000244140625</AltitudeMeters>
            <DistanceMeters>NAN</DistanceMeters>
          </Trackpoint>
          <Trackpoint>
            <Time>2021-04-04T09:44:17.000Z</Time>
            <Position>
              <LatitudeDegrees>42.34740852378308773040771484375</LatitudeDegrees>
              <LongitudeDegrees>2.40503632463514804840087890625</LongitudeDegrees>
            </Position>
            <AltitudeMeters>1155.4000244140625</AltitudeMeters>
            <DistanceMeters>NAN</DistanceMeters>
          </Trackpoint>
          <Trackpoint>
            <Time>2021-04-04T09:44:24.000Z</Time>
            <Position>
              <LatitudeDegrees>42.3474305681884288787841796875</LatitudeDegrees>
              <LongitudeDegrees>2.40497295744717121124267578125</LongitudeDegrees>
            </Position>
            <AltitudeMeters>1156</AltitudeMeters>
            <DistanceMeters>NAN</DistanceMeters>
          </Trackpoint>
          <Trackpoint>
            <Time>2021-04-04T09:44:26.000Z</Time>
            <Position>
              <LatitudeDegrees>42.3474345915019512176513671875</LatitudeDegrees>
              <LongitudeDegrees>2.40495535545051097869873046875</LongitudeDegrees>
            </Position>
            <AltitudeMeters>1156.199951171875</AltitudeMeters>
            <DistanceMeters>NAN</DistanceMeters>
          </Trackpoint>
          <Trackpoint>
            <Time>2021-04-04T09:44:27.000Z</Time>
            <Position>
              <LatitudeDegrees>42.34743316657841205596923828125</LatitudeDegrees>
              <LongitudeDegrees>2.4049539305269718170166015625</LongitudeDegrees>
            </Position>
            <AltitudeMeters>1156.4000244140625</AltitudeMeters>
            <DistanceMeters>NAN</DistanceMeters>
          </Trackpoint>
          <Trackpoint>
            <Time>2021-04-04T09:44:32.000Z</Time>
            <Position>
              <LatitudeDegrees>42.34745680354535579681396484375</LatitudeDegrees>
              <LongitudeDegrees>2.40492970682680606842041015625</LongitudeDegrees>
            </Position>
            <AltitudeMeters>1156.800048828125</AltitudeMeters>
            <DistanceMeters>NAN</DistanceMeters>
          </Trackpoint>
          <Trackpoint>
            <Time>2021-04-04T09:44:34.000Z</Time>
            <Position>
              <LatitudeDegrees>42.347469292581081390380859375</LatitudeDegrees>
              <LongitudeDegrees>2.40492132492363452911376953125</LongitudeDegrees>
            </Position>
            <AltitudeMeters>1157</AltitudeMeters>
            <DistanceMeters>NAN</DistanceMeters>
          </Trackpoint>
          <Trackpoint>
            <Time>2021-04-04T09:44:36.000Z</Time>
            <Position>
              <LatitudeDegrees>42.3474758304655551910400390625</LatitudeDegrees>
              <LongitudeDegrees>2.4049063213169574737548828125</LongitudeDegrees>
            </Position>
            <AltitudeMeters>1157.199951171875</AltitudeMeters>
            <DistanceMeters>NAN</DistanceMeters>
          </Trackpoint>
          <Trackpoint>
            <Time>2021-04-04T09:44:42.000Z</Time>
            <Position>
              <LatitudeDegrees>42.34748127870261669158935546875</LatitudeDegrees>
              <LongitudeDegrees>2.40485074929893016815185546875</LongitudeDegrees>
            </Position>
            <AltitudeMeters>1158</AltitudeMeters>
            <DistanceMeters>NAN</DistanceMeters>
          </Trackpoint>
          <Trackpoint>
            <Time>2021-04-04T09:44:43.000Z</Time>
            <Position>
              <LatitudeDegrees>42.347487397491931915283203125</LatitudeDegrees>
              <LongitudeDegrees>2.40484354086220264434814453125</LongitudeDegrees>
            </Position>
            <AltitudeMeters>1158.199951171875</AltitudeMeters>
            <DistanceMeters>NAN</DistanceMeters>
          </Trackpoint>
          <Trackpoint>
            <Time>2021-04-04T09:44:49.000Z</Time>
            <Position>
              <LatitudeDegrees>42.34751162119209766387939453125</LatitudeDegrees>
              <LongitudeDegrees>2.4048194848001003265380859375</LongitudeDegrees>
            </Position>
            <AltitudeMeters>1159</AltitudeMeters>
            <DistanceMeters>NAN</DistanceMeters>
          </Trackpoint>
          <Trackpoint>
            <Time>2021-04-04T09:44:50.000Z</Time>
            <Position>
              <LatitudeDegrees>42.3475076816976070404052734375</LatitudeDegrees>
              <LongitudeDegrees>2.40481621585786342620849609375</LongitudeDegrees>
            </Position>
            <AltitudeMeters>1159.199951171875</AltitudeMeters>
            <DistanceMeters>NAN</DistanceMeters>
          </Trackpoint>
          <Trackpoint>
            <Time>2021-04-04T09:44:57.000Z</Time>
            <Position>
              <LatitudeDegrees>42.3475200869143009185791015625</LatitudeDegrees>
              <LongitudeDegrees>2.40477765910327434539794921875</LongitudeDegrees>
            </Position>
            <AltitudeMeters>1159.800048828125</AltitudeMeters>
            <DistanceMeters>NAN</DistanceMeters>
          </Trackpoint>
          <Trackpoint>
            <Time>2021-04-04T09:45:02.000Z</Time>
            <Position>
              <LatitudeDegrees>42.34754011966288089752197265625</LatitudeDegrees>
              <LongitudeDegrees>2.40473289974033832550048828125</LongitudeDegrees>
            </Position>
            <AltitudeMeters>1160.199951171875</AltitudeMeters>
            <DistanceMeters>NAN</DistanceMeters>
          </Trackpoint>
          <Trackpoint>
            <Time>2021-04-04T09:45:05.000Z</Time>
            <Position>
              <LatitudeDegrees>42.347554452717304229736328125</LatitudeDegrees>
              <LongitudeDegrees>2.404709346592426300048828125</LongitudeDegrees>
            </Position>
            <AltitudeMeters>1160.4000244140625</AltitudeMeters>
            <DistanceMeters>NAN</DistanceMeters>
          </Trackpoint>
          <Trackpoint>
            <Time>2021-04-04T09:45:09.000Z</Time>
            <Position>
              <LatitudeDegrees>42.3475727252662181854248046875</LatitudeDegrees>
              <LongitudeDegrees>2.40467221476137638092041015625</LongitudeDegrees>
            </Position>
            <AltitudeMeters>1161.199951171875</AltitudeMeters>
            <DistanceMeters>NAN</DistanceMeters>
          </Trackpoint>
          <Trackpoint>
            <Time>2021-04-04T09:45:13.000Z</Time>
            <Position>
              <LatitudeDegrees>42.3475720547139644622802734375</LatitudeDegrees>
              <LongitudeDegrees>2.40462628193199634552001953125</LongitudeDegrees>
            </Position>
            <AltitudeMeters>1162</AltitudeMeters>
            <DistanceMeters>NAN</DistanceMeters>
          </Trackpoint>
          <Trackpoint>
            <Time>2021-04-04T09:45:14.000Z</Time>
            <Position>
              <LatitudeDegrees>42.3475780896842479705810546875</LatitudeDegrees>
              <LongitudeDegrees>2.40461069159209728240966796875</LongitudeDegrees>
            </Position>
            <AltitudeMeters>1162.4000244140625</AltitudeMeters>
            <DistanceMeters>NAN</DistanceMeters>
          </Trackpoint>
          <Trackpoint>
            <Time>2021-04-04T09:45:16.000Z</Time>
            <Position>
              <LatitudeDegrees>42.347578592598438262939453125</LatitudeDegrees>
              <LongitudeDegrees>2.40458135493099689483642578125</LongitudeDegrees>
            </Position>
            <AltitudeMeters>1163.4000244140625</AltitudeMeters>
            <DistanceMeters>NAN</DistanceMeters>
          </Trackpoint>
          <Trackpoint>
            <Time>2021-04-04T09:45:18.000Z</Time>
            <Position>
              <LatitudeDegrees>42.3475757427513599395751953125</LatitudeDegrees>
              <LongitudeDegrees>2.40455453284084796905517578125</LongitudeDegrees>
            </Position>
            <AltitudeMeters>1164.5999755859375</AltitudeMeters>
            <DistanceMeters>NAN</DistanceMeters>
          </Trackpoint>
          <Trackpoint>
            <Time>2021-04-04T09:45:20.000Z</Time>
            <Position>
              <LatitudeDegrees>42.3475675284862518310546875</LatitudeDegrees>
              <LongitudeDegrees>2.40453064441680908203125</LongitudeDegrees>
            </Position>
            <AltitudeMeters>1165.199951171875</AltitudeMeters>
            <DistanceMeters>NAN</DistanceMeters>
          </Trackpoint>
          <Trackpoint>
            <Time>2021-04-04T09:45:21.000Z</Time>
            <Position>
              <LatitudeDegrees>42.34756794758141040802001953125</LatitudeDegrees>
              <LongitudeDegrees>2.40451882593333721160888671875</LongitudeDegrees>
            </Position>
            <AltitudeMeters>1165.4000244140625</AltitudeMeters>
            <DistanceMeters>NAN</DistanceMeters>
          </Trackpoint>
          <Trackpoint>
            <Time>2021-04-04T09:45:23.000Z</Time>
            <Position>
              <LatitudeDegrees>42.3475666902959346771240234375</LatitudeDegrees>
              <LongitudeDegrees>2.40449569188058376312255859375</LongitudeDegrees>
            </Position>
            <AltitudeMeters>1165.4000244140625</AltitudeMeters>
            <DistanceMeters>NAN</DistanceMeters>
          </Trackpoint>
          <Trackpoint>
            <Time>2021-04-04T09:45:25.000Z</Time>
            <Position>
              <LatitudeDegrees>42.347572557628154754638671875</LatitudeDegrees>
              <LongitudeDegrees>2.40447054617106914520263671875</LongitudeDegrees>
            </Position>
            <AltitudeMeters>1165.4000244140625</AltitudeMeters>
            <DistanceMeters>NAN</DistanceMeters>
          </Trackpoint>
          <Trackpoint>
            <Time>2021-04-04T09:45:28.000Z</Time>
            <Position>
              <LatitudeDegrees>42.34757490456104278564453125</LatitudeDegrees>
              <LongitudeDegrees>2.4044453166425228118896484375</LongitudeDegrees>
            </Position>
            <AltitudeMeters>1165.199951171875</AltitudeMeters>
            <DistanceMeters>NAN</DistanceMeters>
          </Trackpoint>
          <Trackpoint>
            <Time>2021-04-04T09:45:33.000Z</Time>
            <Position>
              <LatitudeDegrees>42.34758429229259490966796875</LatitudeDegrees>
              <LongitudeDegrees>2.40437331609427928924560546875</LongitudeDegrees>
            </Position>
            <AltitudeMeters>1165</AltitudeMeters>
            <DistanceMeters>NAN</DistanceMeters>
          </Trackpoint>
          <Trackpoint>
            <Time>2021-04-04T09:45:39.000Z</Time>
            <Position>
              <LatitudeDegrees>42.3476292192935943603515625</LatitudeDegrees>
              <LongitudeDegrees>2.4043648503720760345458984375</LongitudeDegrees>
            </Position>
            <AltitudeMeters>1165</AltitudeMeters>
            <DistanceMeters>NAN</DistanceMeters>
          </Trackpoint>
          <Trackpoint>
            <Time>2021-04-04T09:45:40.000Z</Time>
            <Position>
              <LatitudeDegrees>42.34763198532164096832275390625</LatitudeDegrees>
              <LongitudeDegrees>2.404368706047534942626953125</LongitudeDegrees>
            </Position>
            <AltitudeMeters>1165</AltitudeMeters>
            <DistanceMeters>NAN</DistanceMeters>
          </Trackpoint>
          <Trackpoint>
            <Time>2021-04-04T09:45:43.000Z</Time>
            <Position>
              <LatitudeDegrees>42.34765478409826755523681640625</LatitudeDegrees>
              <LongitudeDegrees>2.4043946899473667144775390625</LongitudeDegrees>
            </Position>
            <AltitudeMeters>1165</AltitudeMeters>
            <DistanceMeters>NAN</DistanceMeters>
          </Trackpoint>
          <Trackpoint>
            <Time>2021-04-04T09:45:50.000Z</Time>
            <Position>
              <LatitudeDegrees>42.34772334806621074676513671875</LatitudeDegrees>
              <LongitudeDegrees>2.40437415428459644317626953125</LongitudeDegrees>
            </Position>
            <AltitudeMeters>1165.5999755859375</AltitudeMeters>
            <DistanceMeters>NAN</DistanceMeters>
          </Trackpoint>
          <Trackpoint>
            <Time>2021-04-04T09:45:51.000Z</Time>
            <Position>
              <LatitudeDegrees>42.34773240052163600921630859375</LatitudeDegrees>
              <LongitudeDegrees>2.4043755792081356048583984375</LongitudeDegrees>
            </Position>
            <AltitudeMeters>1165.5999755859375</AltitudeMeters>
            <DistanceMeters>NAN</DistanceMeters>
          </Trackpoint>
          <Trackpoint>
            <Time>2021-04-04T09:45:57.000Z</Time>
            <Position>
              <LatitudeDegrees>42.34776441939175128936767578125</LatitudeDegrees>
              <LongitudeDegrees>2.40437817759811878204345703125</LongitudeDegrees>
            </Position>
            <AltitudeMeters>1165.800048828125</AltitudeMeters>
            <DistanceMeters>NAN</DistanceMeters>
          </Trackpoint>
          <Trackpoint>
            <Time>2021-04-04T09:46:05.000Z</Time>
            <Position>
              <LatitudeDegrees>42.3478520102798938751220703125</LatitudeDegrees>
              <LongitudeDegrees>2.40436024032533168792724609375</LongitudeDegrees>
            </Position>
            <AltitudeMeters>1166.5999755859375</AltitudeMeters>
            <DistanceMeters>NAN</DistanceMeters>
          </Trackpoint>
          <Trackpoint>
            <Time>2021-04-04T09:46:06.000Z</Time>
            <Position>
              <LatitudeDegrees>42.34785854816436767578125</LatitudeDegrees>
              <LongitudeDegrees>2.40435026586055755615234375</LongitudeDegrees>
            </Position>
            <AltitudeMeters>1166.5999755859375</AltitudeMeters>
            <DistanceMeters>NAN</DistanceMeters>
          </Trackpoint>
          <Trackpoint>
            <Time>2021-04-04T09:46:10.000Z</Time>
            <Position>
              <LatitudeDegrees>42.34788243658840656280517578125</LatitudeDegrees>
              <LongitudeDegrees>2.40434481762349605560302734375</LongitudeDegrees>
            </Position>
            <AltitudeMeters>1167</AltitudeMeters>
            <DistanceMeters>NAN</DistanceMeters>
          </Trackpoint>
          <Trackpoint>
            <Time>2021-04-04T09:46:11.000Z</Time>
            <Position>
              <LatitudeDegrees>42.34789199195802211761474609375</LatitudeDegrees>
              <LongitudeDegrees>2.40434548817574977874755859375</LongitudeDegrees>
            </Position>
            <AltitudeMeters>1167</AltitudeMeters>
            <DistanceMeters>NAN</DistanceMeters>
          </Trackpoint>
          <Trackpoint>
            <Time>2021-04-04T09:46:16.000Z</Time>
            <Position>
              <LatitudeDegrees>42.34793608076870441436767578125</LatitudeDegrees>
              <LongitudeDegrees>2.40436107851564884185791015625</LongitudeDegrees>
            </Position>
            <AltitudeMeters>1167.199951171875</AltitudeMeters>
            <DistanceMeters>NAN</DistanceMeters>
          </Trackpoint>
          <Trackpoint>
            <Time>2021-04-04T09:46:21.000Z</Time>
            <Position>
              <LatitudeDegrees>42.34796759672462940216064453125</LatitudeDegrees>
              <LongitudeDegrees>2.4043762497603893280029296875</LongitudeDegrees>
            </Position>
            <AltitudeMeters>1167.5999755859375</AltitudeMeters>
            <DistanceMeters>NAN</DistanceMeters>
          </Trackpoint>
          <Trackpoint>
            <Time>2021-04-04T09:46:26.000Z</Time>
            <Position>
              <LatitudeDegrees>42.3480152897536754608154296875</LatitudeDegrees>
              <LongitudeDegrees>2.40439125336706638336181640625</LongitudeDegrees>
            </Position>
            <AltitudeMeters>1168.199951171875</AltitudeMeters>
            <DistanceMeters>NAN</DistanceMeters>
          </Trackpoint>
          <Trackpoint>
            <Time>2021-04-04T09:46:31.000Z</Time>
            <Position>
              <LatitudeDegrees>42.3480561934411525726318359375</LatitudeDegrees>
              <LongitudeDegrees>2.40438370965421199798583984375</LongitudeDegrees>
            </Position>
            <AltitudeMeters>1168.5999755859375</AltitudeMeters>
            <DistanceMeters>NAN</DistanceMeters>
          </Trackpoint>
          <Trackpoint>
            <Time>2021-04-04T09:46:32.000Z</Time>
            <Position>
              <LatitudeDegrees>42.3480639047920703887939453125</LatitudeDegrees>
              <LongitudeDegrees>2.40438488312065601348876953125</LongitudeDegrees>
            </Position>
            <AltitudeMeters>1168.800048828125</AltitudeMeters>
            <DistanceMeters>NAN</DistanceMeters>
          </Trackpoint>
          <Trackpoint>
            <Time>2021-04-04T09:46:36.000Z</Time>
            <Position>
              <LatitudeDegrees>42.34809734858572483062744140625</LatitudeDegrees>
              <LongitudeDegrees>2.40438488312065601348876953125</LongitudeDegrees>
            </Position>
            <AltitudeMeters>1169.199951171875</AltitudeMeters>
            <DistanceMeters>NAN</DistanceMeters>
          </Trackpoint>
          <Trackpoint>
            <Time>2021-04-04T09:46:38.000Z</Time>
            <Position>
              <LatitudeDegrees>42.34811461530625820159912109375</LatitudeDegrees>
              <LongitudeDegrees>2.40437130443751811981201171875</LongitudeDegrees>
            </Position>
            <AltitudeMeters>1169.4000244140625</AltitudeMeters>
            <DistanceMeters>NAN</DistanceMeters>
          </Trackpoint>
          <Trackpoint>
            <Time>2021-04-04T09:46:41.000Z</Time>
            <Position>
              <LatitudeDegrees>42.34814378432929515838623046875</LatitudeDegrees>
              <LongitudeDegrees>2.40435739047825336456298828125</LongitudeDegrees>
            </Position>
            <AltitudeMeters>1169.4000244140625</AltitudeMeters>
            <DistanceMeters>NAN</DistanceMeters>
          </Trackpoint>
          <Trackpoint>
            <Time>2021-04-04T09:46:42.000Z</Time>
            <Position>
              <LatitudeDegrees>42.34815417788922786712646484375</LatitudeDegrees>
              <LongitudeDegrees>2.40435822866857051849365234375</LongitudeDegrees>
            </Position>
            <AltitudeMeters>1169.5999755859375</AltitudeMeters>
            <DistanceMeters>NAN</DistanceMeters>
          </Trackpoint>
          <Trackpoint>
            <Time>2021-04-04T09:46:44.000Z</Time>
            <Position>
              <LatitudeDegrees>42.3481656610965728759765625</LatitudeDegrees>
              <LongitudeDegrees>2.4043484218418598175048828125</LongitudeDegrees>
            </Position>
            <AltitudeMeters>1169.5999755859375</AltitudeMeters>
            <DistanceMeters>NAN</DistanceMeters>
          </Trackpoint>
          <Trackpoint>
            <Time>2021-04-04T09:46:46.000Z</Time>
            <Position>
              <LatitudeDegrees>42.34817412681877613067626953125</LatitudeDegrees>
              <LongitudeDegrees>2.4043388664722442626953125</LongitudeDegrees>
            </Position>
            <AltitudeMeters>1169.800048828125</AltitudeMeters>
            <DistanceMeters>NAN</DistanceMeters>
          </Trackpoint>
          <Trackpoint>
            <Time>2021-04-04T09:46:49.000Z</Time>
            <Position>
              <LatitudeDegrees>42.34818376600742340087890625</LatitudeDegrees>
              <LongitudeDegrees>2.40432889200747013092041015625</LongitudeDegrees>
            </Position>
            <AltitudeMeters>1169.800048828125</AltitudeMeters>
            <DistanceMeters>NAN</DistanceMeters>
          </Trackpoint>
          <Trackpoint>
            <Time>2021-04-04T09:46:50.000Z</Time>
            <Position>
              <LatitudeDegrees>42.34818066470324993133544921875</LatitudeDegrees>
              <LongitudeDegrees>2.40432788617908954620361328125</LongitudeDegrees>
            </Position>
            <AltitudeMeters>1169.800048828125</AltitudeMeters>
            <DistanceMeters>NAN</DistanceMeters>
          </Trackpoint>
          <Trackpoint>
            <Time>2021-04-04T09:46:51.000Z</Time>
            <Position>
              <LatitudeDegrees>42.3481842689216136932373046875</LatitudeDegrees>
              <LongitudeDegrees>2.4043313227593898773193359375</LongitudeDegrees>
            </Position>
            <AltitudeMeters>1169.800048828125</AltitudeMeters>
            <DistanceMeters>NAN</DistanceMeters>
          </Trackpoint>
          <Trackpoint>
            <Time>2021-04-04T09:46:53.000Z</Time>
            <Position>
              <LatitudeDegrees>42.3481815867125988006591796875</LatitudeDegrees>
              <LongitudeDegrees>2.4043370224535465240478515625</LongitudeDegrees>
            </Position>
            <AltitudeMeters>1169.5999755859375</AltitudeMeters>
            <DistanceMeters>NAN</DistanceMeters>
          </Trackpoint>
          <Trackpoint>
            <Time>2021-04-04T09:46:54.000Z</Time>
            <Position>
              <LatitudeDegrees>42.34818234108388423919677734375</LatitudeDegrees>
              <LongitudeDegrees>2.404334507882595062255859375</LongitudeDegrees>
            </Position>
            <AltitudeMeters>1169.5999755859375</AltitudeMeters>
            <DistanceMeters>NAN</DistanceMeters>
          </Trackpoint>
        </Track>
      </Lap>
    </Activity>
  </Activities>
</TrainingCenterDatabase>
